<?xml version="1.0" encoding="UTF-8"?>
<gpx version="1.1" creator="https://www.youtrack.es" xsi:schemaLocation="http://www.topografix.com/GPX/1/1 http://www.topografix.com/GPX/1/1/gpx.xsd http://www.garmin.com/xmlschemas/GpxExtensions/v3 http://www.garmin.com/xmlschemas/GpxExtensionsv3.xsd http://www.garmin.com/xmlschemas/TrackPointExtension/v1 http://www.garmin.com/xmlschemas/TrackPointExtensionv1.xsd" xmlns:gpxtpx="http://www.garmin.com/xmlschemas/TrackPointExtension/v1" xmlns:gpxx="http://www.garmin.com/xmlschemas/GpxExtensions/v3" xmlns:xsi="http://www.w3.org/2001/XMLSchema-instance">
  <metadata>
    <author>
      <name>angel moles maselles</name>
      <email id="201179angel" domain="gmail.com"/>
    </author>
    <link href="https://www.youtrack.es">
      <text>YouTrack.es</text>
    </link>
    <time>2026-05-08T01:06:58Z</time>
  </metadata>
  <trk>
    <src>https://www.youtrack.es</src>
    <link href="https://www.youtrack.es/ruta/39467-camino">
      <text>YouTrack.es</text>
    </link>
    <trkseg>
      <trkpt lat="40.804878" lon="0.520534">
        <ele>11.532</ele>
        <time>1970-01-01T00:00:00Z</time>
      </trkpt>
      <trkpt lat="40.804834" lon="0.520545">
        <ele>11.692</ele>
        <time>1970-01-01T00:00:01Z</time>
      </trkpt>
      <trkpt lat="40.804810" lon="0.520597">
        <ele>11.611</ele>
        <time>1970-01-01T00:00:02Z</time>
      </trkpt>
      <trkpt lat="40.804805" lon="0.520647">
        <ele>11.608</ele>
        <time>1970-01-01T00:00:03Z</time>
      </trkpt>
      <trkpt lat="40.804803" lon="0.520702">
        <ele>11.590</ele>
        <time>1970-01-01T00:00:04Z</time>
      </trkpt>
      <trkpt lat="40.804802" lon="0.520756">
        <ele>11.457</ele>
        <time>1970-01-01T00:00:05Z</time>
      </trkpt>
      <trkpt lat="40.804801" lon="0.520813">
        <ele>11.388</ele>
        <time>1970-01-01T00:00:06Z</time>
      </trkpt>
      <trkpt lat="40.804804" lon="0.520875">
        <ele>11.391</ele>
        <time>1970-01-01T00:00:07Z</time>
      </trkpt>
      <trkpt lat="40.804807" lon="0.520939">
        <ele>11.341</ele>
        <time>1970-01-01T00:00:08Z</time>
      </trkpt>
      <trkpt lat="40.804813" lon="0.521004">
        <ele>11.347</ele>
        <time>1970-01-01T00:00:09Z</time>
      </trkpt>
      <trkpt lat="40.804828" lon="0.521076">
        <ele>11.481</ele>
        <time>1970-01-01T00:00:10Z</time>
      </trkpt>
      <trkpt lat="40.804837" lon="0.521146">
        <ele>11.592</ele>
        <time>1970-01-01T00:00:11Z</time>
      </trkpt>
      <trkpt lat="40.804851" lon="0.521215">
        <ele>11.717</ele>
        <time>1970-01-01T00:00:12Z</time>
      </trkpt>
      <trkpt lat="40.804862" lon="0.521286">
        <ele>11.887</ele>
        <time>1970-01-01T00:00:13Z</time>
      </trkpt>
      <trkpt lat="40.804869" lon="0.521357">
        <ele>11.915</ele>
        <time>1970-01-01T00:00:14Z</time>
      </trkpt>
      <trkpt lat="40.804879" lon="0.521429">
        <ele>12.108</ele>
        <time>1970-01-01T00:00:15Z</time>
      </trkpt>
      <trkpt lat="40.804886" lon="0.521500">
        <ele>12.228</ele>
        <time>1970-01-01T00:00:16Z</time>
      </trkpt>
      <trkpt lat="40.804892" lon="0.521572">
        <ele>12.325</ele>
        <time>1970-01-01T00:00:17Z</time>
      </trkpt>
      <trkpt lat="40.804899" lon="0.521644">
        <ele>12.386</ele>
        <time>1970-01-01T00:00:18Z</time>
      </trkpt>
      <trkpt lat="40.804901" lon="0.521717">
        <ele>12.589</ele>
        <time>1970-01-01T00:00:19Z</time>
      </trkpt>
      <trkpt lat="40.804912" lon="0.521789">
        <ele>12.669</ele>
        <time>1970-01-01T00:00:20Z</time>
      </trkpt>
      <trkpt lat="40.804918" lon="0.521858">
        <ele>12.885</ele>
        <time>1970-01-01T00:00:21Z</time>
      </trkpt>
      <trkpt lat="40.804925" lon="0.521925">
        <ele>12.929</ele>
        <time>1970-01-01T00:00:22Z</time>
      </trkpt>
      <trkpt lat="40.804929" lon="0.521991">
        <ele>13.040</ele>
        <time>1970-01-01T00:00:23Z</time>
      </trkpt>
      <trkpt lat="40.804940" lon="0.522056">
        <ele>13.158</ele>
        <time>1970-01-01T00:00:24Z</time>
      </trkpt>
      <trkpt lat="40.804947" lon="0.522124">
        <ele>13.152</ele>
        <time>1970-01-01T00:00:25Z</time>
      </trkpt>
      <trkpt lat="40.804949" lon="0.522193">
        <ele>13.217</ele>
        <time>1970-01-01T00:00:26Z</time>
      </trkpt>
      <trkpt lat="40.804953" lon="0.522258">
        <ele>13.208</ele>
        <time>1970-01-01T00:00:27Z</time>
      </trkpt>
      <trkpt lat="40.804957" lon="0.522322">
        <ele>13.222</ele>
        <time>1970-01-01T00:00:28Z</time>
      </trkpt>
      <trkpt lat="40.804962" lon="0.522388">
        <ele>13.179</ele>
        <time>1970-01-01T00:00:29Z</time>
      </trkpt>
      <trkpt lat="40.804972" lon="0.522454">
        <ele>13.140</ele>
        <time>1970-01-01T00:00:30Z</time>
      </trkpt>
      <trkpt lat="40.804974" lon="0.522521">
        <ele>13.043</ele>
        <time>1970-01-01T00:00:31Z</time>
      </trkpt>
      <trkpt lat="40.804977" lon="0.522587">
        <ele>12.873</ele>
        <time>1970-01-01T00:00:32Z</time>
      </trkpt>
      <trkpt lat="40.804980" lon="0.522652">
        <ele>12.599</ele>
        <time>1970-01-01T00:00:33Z</time>
      </trkpt>
      <trkpt lat="40.804985" lon="0.522712">
        <ele>12.383</ele>
        <time>1970-01-01T00:00:34Z</time>
      </trkpt>
      <trkpt lat="40.804988" lon="0.522768">
        <ele>12.134</ele>
        <time>1970-01-01T00:00:35Z</time>
      </trkpt>
      <trkpt lat="40.804988" lon="0.522814">
        <ele>11.892</ele>
        <time>1970-01-01T00:00:36Z</time>
      </trkpt>
      <trkpt lat="40.804969" lon="0.522848">
        <ele>11.673</ele>
        <time>1970-01-01T00:00:37Z</time>
      </trkpt>
      <trkpt lat="40.804939" lon="0.522874">
        <ele>11.520</ele>
        <time>1970-01-01T00:00:38Z</time>
      </trkpt>
      <trkpt lat="40.804898" lon="0.522891">
        <ele>11.608</ele>
        <time>1970-01-01T00:00:39Z</time>
      </trkpt>
      <trkpt lat="40.804849" lon="0.522899">
        <ele>11.786</ele>
        <time>1970-01-01T00:00:40Z</time>
      </trkpt>
      <trkpt lat="40.804801" lon="0.522901">
        <ele>11.853</ele>
        <time>1970-01-01T00:00:41Z</time>
      </trkpt>
      <trkpt lat="40.804750" lon="0.522900">
        <ele>12.034</ele>
        <time>1970-01-01T00:00:42Z</time>
      </trkpt>
      <trkpt lat="40.804694" lon="0.522906">
        <ele>12.287</ele>
        <time>1970-01-01T00:00:43Z</time>
      </trkpt>
      <trkpt lat="40.804638" lon="0.522908">
        <ele>12.357</ele>
        <time>1970-01-01T00:00:44Z</time>
      </trkpt>
      <trkpt lat="40.804587" lon="0.522912">
        <ele>12.573</ele>
        <time>1970-01-01T00:00:45Z</time>
      </trkpt>
      <trkpt lat="40.804531" lon="0.522914">
        <ele>12.767</ele>
        <time>1970-01-01T00:00:46Z</time>
      </trkpt>
      <trkpt lat="40.804478" lon="0.522915">
        <ele>12.998</ele>
        <time>1970-01-01T00:00:47Z</time>
      </trkpt>
      <trkpt lat="40.804420" lon="0.522916">
        <ele>12.974</ele>
        <time>1970-01-01T00:00:48Z</time>
      </trkpt>
      <trkpt lat="40.804364" lon="0.522918">
        <ele>12.656</ele>
        <time>1970-01-01T00:00:49Z</time>
      </trkpt>
      <trkpt lat="40.804309" lon="0.522921">
        <ele>12.321</ele>
        <time>1970-01-01T00:00:50Z</time>
      </trkpt>
      <trkpt lat="40.804256" lon="0.522923">
        <ele>12.008</ele>
        <time>1970-01-01T00:00:51Z</time>
      </trkpt>
      <trkpt lat="40.804199" lon="0.522927">
        <ele>11.794</ele>
        <time>1970-01-01T00:00:52Z</time>
      </trkpt>
      <trkpt lat="40.804144" lon="0.522927">
        <ele>11.441</ele>
        <time>1970-01-01T00:00:53Z</time>
      </trkpt>
      <trkpt lat="40.804090" lon="0.522927">
        <ele>11.022</ele>
        <time>1970-01-01T00:00:54Z</time>
      </trkpt>
      <trkpt lat="40.804036" lon="0.522927">
        <ele>10.635</ele>
        <time>1970-01-01T00:00:55Z</time>
      </trkpt>
      <trkpt lat="40.803982" lon="0.522925">
        <ele>10.255</ele>
        <time>1970-01-01T00:00:56Z</time>
      </trkpt>
      <trkpt lat="40.803930" lon="0.522923">
        <ele>9.811</ele>
        <time>1970-01-01T00:00:57Z</time>
      </trkpt>
      <trkpt lat="40.803877" lon="0.522919">
        <ele>9.545</ele>
        <time>1970-01-01T00:00:58Z</time>
      </trkpt>
      <trkpt lat="40.803825" lon="0.522916">
        <ele>9.516</ele>
        <time>1970-01-01T00:00:59Z</time>
      </trkpt>
      <trkpt lat="40.803776" lon="0.522911">
        <ele>9.531</ele>
        <time>1970-01-01T00:01:00Z</time>
      </trkpt>
      <trkpt lat="40.803726" lon="0.522908">
        <ele>9.561</ele>
        <time>1970-01-01T00:01:01Z</time>
      </trkpt>
      <trkpt lat="40.803672" lon="0.522909">
        <ele>9.507</ele>
        <time>1970-01-01T00:01:02Z</time>
      </trkpt>
      <trkpt lat="40.803620" lon="0.522908">
        <ele>9.508</ele>
        <time>1970-01-01T00:01:03Z</time>
      </trkpt>
      <trkpt lat="40.803566" lon="0.522912">
        <ele>9.230</ele>
        <time>1970-01-01T00:01:04Z</time>
      </trkpt>
      <trkpt lat="40.803513" lon="0.522915">
        <ele>9.087</ele>
        <time>1970-01-01T00:01:05Z</time>
      </trkpt>
      <trkpt lat="40.803461" lon="0.522915">
        <ele>8.718</ele>
        <time>1970-01-01T00:01:06Z</time>
      </trkpt>
      <trkpt lat="40.803407" lon="0.522918">
        <ele>8.431</ele>
        <time>1970-01-01T00:01:07Z</time>
      </trkpt>
      <trkpt lat="40.803351" lon="0.522920">
        <ele>8.141</ele>
        <time>1970-01-01T00:01:08Z</time>
      </trkpt>
      <trkpt lat="40.803296" lon="0.522921">
        <ele>7.727</ele>
        <time>1970-01-01T00:01:09Z</time>
      </trkpt>
      <trkpt lat="40.803241" lon="0.522923">
        <ele>7.221</ele>
        <time>1970-01-01T00:01:10Z</time>
      </trkpt>
      <trkpt lat="40.803184" lon="0.522924">
        <ele>6.642</ele>
        <time>1970-01-01T00:01:11Z</time>
      </trkpt>
      <trkpt lat="40.803129" lon="0.522923">
        <ele>6.144</ele>
        <time>1970-01-01T00:01:12Z</time>
      </trkpt>
      <trkpt lat="40.803074" lon="0.522923">
        <ele>5.605</ele>
        <time>1970-01-01T00:01:13Z</time>
      </trkpt>
      <trkpt lat="40.803020" lon="0.522924">
        <ele>5.315</ele>
        <time>1970-01-01T00:01:14Z</time>
      </trkpt>
      <trkpt lat="40.802966" lon="0.522923">
        <ele>5.208</ele>
        <time>1970-01-01T00:01:15Z</time>
      </trkpt>
      <trkpt lat="40.802913" lon="0.522920">
        <ele>5.041</ele>
        <time>1970-01-01T00:01:16Z</time>
      </trkpt>
      <trkpt lat="40.802859" lon="0.522917">
        <ele>4.818</ele>
        <time>1970-01-01T00:01:17Z</time>
      </trkpt>
      <trkpt lat="40.802806" lon="0.522913">
        <ele>4.699</ele>
        <time>1970-01-01T00:01:18Z</time>
      </trkpt>
      <trkpt lat="40.802753" lon="0.522911">
        <ele>4.672</ele>
        <time>1970-01-01T00:01:19Z</time>
      </trkpt>
      <trkpt lat="40.802700" lon="0.522909">
        <ele>4.862</ele>
        <time>1970-01-01T00:01:20Z</time>
      </trkpt>
      <trkpt lat="40.802647" lon="0.522906">
        <ele>5.048</ele>
        <time>1970-01-01T00:01:21Z</time>
      </trkpt>
      <trkpt lat="40.802594" lon="0.522905">
        <ele>5.232</ele>
        <time>1970-01-01T00:01:22Z</time>
      </trkpt>
      <trkpt lat="40.802541" lon="0.522905">
        <ele>5.473</ele>
        <time>1970-01-01T00:01:23Z</time>
      </trkpt>
      <trkpt lat="40.802487" lon="0.522902">
        <ele>5.523</ele>
        <time>1970-01-01T00:01:24Z</time>
      </trkpt>
      <trkpt lat="40.802434" lon="0.522899">
        <ele>5.483</ele>
        <time>1970-01-01T00:01:25Z</time>
      </trkpt>
      <trkpt lat="40.802381" lon="0.522897">
        <ele>5.311</ele>
        <time>1970-01-01T00:01:26Z</time>
      </trkpt>
      <trkpt lat="40.802328" lon="0.522897">
        <ele>5.208</ele>
        <time>1970-01-01T00:01:27Z</time>
      </trkpt>
      <trkpt lat="40.802276" lon="0.522899">
        <ele>5.119</ele>
        <time>1970-01-01T00:01:28Z</time>
      </trkpt>
      <trkpt lat="40.802224" lon="0.522904">
        <ele>5.056</ele>
        <time>1970-01-01T00:01:29Z</time>
      </trkpt>
      <trkpt lat="40.802172" lon="0.522909">
        <ele>4.927</ele>
        <time>1970-01-01T00:01:30Z</time>
      </trkpt>
      <trkpt lat="40.802121" lon="0.522912">
        <ele>4.810</ele>
        <time>1970-01-01T00:01:31Z</time>
      </trkpt>
      <trkpt lat="40.802070" lon="0.522914">
        <ele>4.780</ele>
        <time>1970-01-01T00:01:32Z</time>
      </trkpt>
      <trkpt lat="40.802019" lon="0.522913">
        <ele>4.696</ele>
        <time>1970-01-01T00:01:33Z</time>
      </trkpt>
      <trkpt lat="40.801969" lon="0.522904">
        <ele>4.590</ele>
        <time>1970-01-01T00:01:34Z</time>
      </trkpt>
      <trkpt lat="40.801922" lon="0.522881">
        <ele>4.541</ele>
        <time>1970-01-01T00:01:35Z</time>
      </trkpt>
      <trkpt lat="40.801884" lon="0.522839">
        <ele>4.683</ele>
        <time>1970-01-01T00:01:36Z</time>
      </trkpt>
      <trkpt lat="40.801853" lon="0.522786">
        <ele>4.725</ele>
        <time>1970-01-01T00:01:37Z</time>
      </trkpt>
      <trkpt lat="40.801822" lon="0.522732">
        <ele>4.917</ele>
        <time>1970-01-01T00:01:38Z</time>
      </trkpt>
      <trkpt lat="40.801783" lon="0.522682">
        <ele>5.208</ele>
        <time>1970-01-01T00:01:39Z</time>
      </trkpt>
      <trkpt lat="40.801735" lon="0.522649">
        <ele>5.575</ele>
        <time>1970-01-01T00:01:40Z</time>
      </trkpt>
      <trkpt lat="40.801684" lon="0.522638">
        <ele>5.972</ele>
        <time>1970-01-01T00:01:41Z</time>
      </trkpt>
      <trkpt lat="40.801635" lon="0.522649">
        <ele>6.193</ele>
        <time>1970-01-01T00:01:42Z</time>
      </trkpt>
      <trkpt lat="40.801590" lon="0.522686">
        <ele>6.386</ele>
        <time>1970-01-01T00:01:43Z</time>
      </trkpt>
      <trkpt lat="40.801556" lon="0.522740">
        <ele>6.436</ele>
        <time>1970-01-01T00:01:44Z</time>
      </trkpt>
      <trkpt lat="40.801524" lon="0.522798">
        <ele>6.532</ele>
        <time>1970-01-01T00:01:45Z</time>
      </trkpt>
      <trkpt lat="40.801486" lon="0.522847">
        <ele>6.586</ele>
        <time>1970-01-01T00:01:46Z</time>
      </trkpt>
      <trkpt lat="40.801444" lon="0.522874">
        <ele>6.537</ele>
        <time>1970-01-01T00:01:47Z</time>
      </trkpt>
      <trkpt lat="40.801395" lon="0.522879">
        <ele>6.697</ele>
        <time>1970-01-01T00:01:48Z</time>
      </trkpt>
      <trkpt lat="40.801344" lon="0.522878">
        <ele>6.223</ele>
        <time>1970-01-01T00:01:49Z</time>
      </trkpt>
      <trkpt lat="40.801293" lon="0.522876">
        <ele>5.625</ele>
        <time>1970-01-01T00:01:50Z</time>
      </trkpt>
      <trkpt lat="40.801242" lon="0.522876">
        <ele>5.108</ele>
        <time>1970-01-01T00:01:51Z</time>
      </trkpt>
      <trkpt lat="40.801189" lon="0.522876">
        <ele>4.556</ele>
        <time>1970-01-01T00:01:52Z</time>
      </trkpt>
      <trkpt lat="40.801135" lon="0.522877">
        <ele>3.913</ele>
        <time>1970-01-01T00:01:53Z</time>
      </trkpt>
      <trkpt lat="40.801082" lon="0.522876">
        <ele>3.714</ele>
        <time>1970-01-01T00:01:54Z</time>
      </trkpt>
      <trkpt lat="40.801027" lon="0.522875">
        <ele>3.877</ele>
        <time>1970-01-01T00:01:55Z</time>
      </trkpt>
      <trkpt lat="40.800974" lon="0.522872">
        <ele>3.877</ele>
        <time>1970-01-01T00:01:56Z</time>
      </trkpt>
      <trkpt lat="40.800920" lon="0.522868">
        <ele>3.973</ele>
        <time>1970-01-01T00:01:57Z</time>
      </trkpt>
      <trkpt lat="40.800867" lon="0.522866">
        <ele>4.057</ele>
        <time>1970-01-01T00:01:58Z</time>
      </trkpt>
      <trkpt lat="40.800814" lon="0.522865">
        <ele>4.038</ele>
        <time>1970-01-01T00:01:59Z</time>
      </trkpt>
      <trkpt lat="40.800760" lon="0.522865">
        <ele>3.983</ele>
        <time>1970-01-01T00:02:00Z</time>
      </trkpt>
      <trkpt lat="40.800706" lon="0.522865">
        <ele>3.925</ele>
        <time>1970-01-01T00:02:01Z</time>
      </trkpt>
      <trkpt lat="40.800652" lon="0.522863">
        <ele>3.817</ele>
        <time>1970-01-01T00:02:02Z</time>
      </trkpt>
      <trkpt lat="40.800598" lon="0.522861">
        <ele>3.708</ele>
        <time>1970-01-01T00:02:03Z</time>
      </trkpt>
      <trkpt lat="40.800543" lon="0.522860">
        <ele>3.785</ele>
        <time>1970-01-01T00:02:04Z</time>
      </trkpt>
      <trkpt lat="40.800489" lon="0.522859">
        <ele>3.532</ele>
        <time>1970-01-01T00:02:05Z</time>
      </trkpt>
      <trkpt lat="40.800433" lon="0.522857">
        <ele>3.473</ele>
        <time>1970-01-01T00:02:06Z</time>
      </trkpt>
      <trkpt lat="40.800378" lon="0.522856">
        <ele>3.356</ele>
        <time>1970-01-01T00:02:07Z</time>
      </trkpt>
      <trkpt lat="40.800322" lon="0.522856">
        <ele>3.156</ele>
        <time>1970-01-01T00:02:08Z</time>
      </trkpt>
      <trkpt lat="40.800266" lon="0.522857">
        <ele>3.072</ele>
        <time>1970-01-01T00:02:09Z</time>
      </trkpt>
      <trkpt lat="40.800208" lon="0.522858">
        <ele>3.086</ele>
        <time>1970-01-01T00:02:10Z</time>
      </trkpt>
      <trkpt lat="40.800151" lon="0.522858">
        <ele>3.077</ele>
        <time>1970-01-01T00:02:11Z</time>
      </trkpt>
      <trkpt lat="40.800094" lon="0.522856">
        <ele>3.087</ele>
        <time>1970-01-01T00:02:12Z</time>
      </trkpt>
      <trkpt lat="40.800036" lon="0.522852">
        <ele>3.042</ele>
        <time>1970-01-01T00:02:13Z</time>
      </trkpt>
      <trkpt lat="40.799979" lon="0.522850">
        <ele>3.026</ele>
        <time>1970-01-01T00:02:14Z</time>
      </trkpt>
      <trkpt lat="40.799924" lon="0.522850">
        <ele>3.108</ele>
        <time>1970-01-01T00:02:15Z</time>
      </trkpt>
      <trkpt lat="40.799869" lon="0.522854">
        <ele>3.125</ele>
        <time>1970-01-01T00:02:16Z</time>
      </trkpt>
      <trkpt lat="40.799813" lon="0.522858">
        <ele>3.252</ele>
        <time>1970-01-01T00:02:17Z</time>
      </trkpt>
      <trkpt lat="40.799757" lon="0.522856">
        <ele>3.283</ele>
        <time>1970-01-01T00:02:18Z</time>
      </trkpt>
      <trkpt lat="40.799700" lon="0.522852">
        <ele>3.326</ele>
        <time>1970-01-01T00:02:19Z</time>
      </trkpt>
      <trkpt lat="40.799643" lon="0.522850">
        <ele>3.366</ele>
        <time>1970-01-01T00:02:20Z</time>
      </trkpt>
      <trkpt lat="40.799586" lon="0.522848">
        <ele>3.362</ele>
        <time>1970-01-01T00:02:21Z</time>
      </trkpt>
      <trkpt lat="40.799528" lon="0.522846">
        <ele>3.246</ele>
        <time>1970-01-01T00:02:22Z</time>
      </trkpt>
      <trkpt lat="40.799470" lon="0.522842">
        <ele>3.237</ele>
        <time>1970-01-01T00:02:23Z</time>
      </trkpt>
      <trkpt lat="40.799412" lon="0.522840">
        <ele>3.145</ele>
        <time>1970-01-01T00:02:24Z</time>
      </trkpt>
      <trkpt lat="40.799352" lon="0.522838">
        <ele>3.047</ele>
        <time>1970-01-01T00:02:25Z</time>
      </trkpt>
      <trkpt lat="40.799291" lon="0.522837">
        <ele>2.811</ele>
        <time>1970-01-01T00:02:26Z</time>
      </trkpt>
      <trkpt lat="40.799230" lon="0.522837">
        <ele>2.608</ele>
        <time>1970-01-01T00:02:27Z</time>
      </trkpt>
      <trkpt lat="40.799168" lon="0.522838">
        <ele>2.421</ele>
        <time>1970-01-01T00:02:28Z</time>
      </trkpt>
      <trkpt lat="40.799107" lon="0.522836">
        <ele>2.638</ele>
        <time>1970-01-01T00:02:29Z</time>
      </trkpt>
      <trkpt lat="40.799047" lon="0.522832">
        <ele>2.739</ele>
        <time>1970-01-01T00:02:30Z</time>
      </trkpt>
      <trkpt lat="40.798988" lon="0.522826">
        <ele>2.962</ele>
        <time>1970-01-01T00:02:31Z</time>
      </trkpt>
      <trkpt lat="40.798928" lon="0.522821">
        <ele>3.042</ele>
        <time>1970-01-01T00:02:32Z</time>
      </trkpt>
      <trkpt lat="40.798869" lon="0.522816">
        <ele>3.168</ele>
        <time>1970-01-01T00:02:33Z</time>
      </trkpt>
      <trkpt lat="40.798810" lon="0.522811">
        <ele>3.192</ele>
        <time>1970-01-01T00:02:34Z</time>
      </trkpt>
      <trkpt lat="40.798751" lon="0.522808">
        <ele>3.183</ele>
        <time>1970-01-01T00:02:35Z</time>
      </trkpt>
      <trkpt lat="40.798693" lon="0.522807">
        <ele>3.133</ele>
        <time>1970-01-01T00:02:36Z</time>
      </trkpt>
      <trkpt lat="40.798635" lon="0.522806">
        <ele>3.123</ele>
        <time>1970-01-01T00:02:37Z</time>
      </trkpt>
      <trkpt lat="40.798578" lon="0.522804">
        <ele>3.215</ele>
        <time>1970-01-01T00:02:38Z</time>
      </trkpt>
      <trkpt lat="40.798520" lon="0.522802">
        <ele>3.408</ele>
        <time>1970-01-01T00:02:39Z</time>
      </trkpt>
      <trkpt lat="40.798463" lon="0.522800">
        <ele>3.690</ele>
        <time>1970-01-01T00:02:40Z</time>
      </trkpt>
      <trkpt lat="40.798407" lon="0.522798">
        <ele>3.837</ele>
        <time>1970-01-01T00:02:41Z</time>
      </trkpt>
      <trkpt lat="40.798351" lon="0.522796">
        <ele>3.918</ele>
        <time>1970-01-01T00:02:42Z</time>
      </trkpt>
      <trkpt lat="40.798294" lon="0.522795">
        <ele>4.061</ele>
        <time>1970-01-01T00:02:43Z</time>
      </trkpt>
      <trkpt lat="40.798237" lon="0.522795">
        <ele>4.061</ele>
        <time>1970-01-01T00:02:44Z</time>
      </trkpt>
      <trkpt lat="40.798179" lon="0.522794">
        <ele>4.097</ele>
        <time>1970-01-01T00:02:45Z</time>
      </trkpt>
      <trkpt lat="40.798122" lon="0.522793">
        <ele>4.061</ele>
        <time>1970-01-01T00:02:46Z</time>
      </trkpt>
      <trkpt lat="40.798065" lon="0.522790">
        <ele>4.062</ele>
        <time>1970-01-01T00:02:47Z</time>
      </trkpt>
      <trkpt lat="40.798009" lon="0.522786">
        <ele>3.767</ele>
        <time>1970-01-01T00:02:48Z</time>
      </trkpt>
      <trkpt lat="40.797954" lon="0.522783">
        <ele>3.381</ele>
        <time>1970-01-01T00:02:49Z</time>
      </trkpt>
      <trkpt lat="40.797900" lon="0.522782">
        <ele>2.919</ele>
        <time>1970-01-01T00:02:50Z</time>
      </trkpt>
      <trkpt lat="40.797845" lon="0.522782">
        <ele>2.508</ele>
        <time>1970-01-01T00:02:51Z</time>
      </trkpt>
      <trkpt lat="40.797789" lon="0.522783">
        <ele>2.113</ele>
        <time>1970-01-01T00:02:52Z</time>
      </trkpt>
      <trkpt lat="40.797734" lon="0.522784">
        <ele>1.910</ele>
        <time>1970-01-01T00:02:53Z</time>
      </trkpt>
      <trkpt lat="40.797679" lon="0.522785">
        <ele>1.721</ele>
        <time>1970-01-01T00:02:54Z</time>
      </trkpt>
      <trkpt lat="40.797625" lon="0.522786">
        <ele>1.594</ele>
        <time>1970-01-01T00:02:55Z</time>
      </trkpt>
      <trkpt lat="40.797571" lon="0.522786">
        <ele>1.374</ele>
        <time>1970-01-01T00:02:56Z</time>
      </trkpt>
      <trkpt lat="40.797516" lon="0.522785">
        <ele>1.150</ele>
        <time>1970-01-01T00:02:57Z</time>
      </trkpt>
      <trkpt lat="40.797460" lon="0.522783">
        <ele>1.254</ele>
        <time>1970-01-01T00:02:58Z</time>
      </trkpt>
      <trkpt lat="40.797403" lon="0.522782">
        <ele>1.435</ele>
        <time>1970-01-01T00:02:59Z</time>
      </trkpt>
      <trkpt lat="40.797345" lon="0.522781">
        <ele>1.696</ele>
        <time>1970-01-01T00:03:00Z</time>
      </trkpt>
      <trkpt lat="40.797287" lon="0.522779">
        <ele>1.831</ele>
        <time>1970-01-01T00:03:01Z</time>
      </trkpt>
      <trkpt lat="40.797228" lon="0.522778">
        <ele>2.024</ele>
        <time>1970-01-01T00:03:02Z</time>
      </trkpt>
      <trkpt lat="40.797169" lon="0.522778">
        <ele>2.208</ele>
        <time>1970-01-01T00:03:03Z</time>
      </trkpt>
      <trkpt lat="40.797110" lon="0.522779">
        <ele>2.476</ele>
        <time>1970-01-01T00:03:04Z</time>
      </trkpt>
      <trkpt lat="40.797053" lon="0.522778">
        <ele>2.623</ele>
        <time>1970-01-01T00:03:05Z</time>
      </trkpt>
      <trkpt lat="40.796996" lon="0.522776">
        <ele>2.824</ele>
        <time>1970-01-01T00:03:06Z</time>
      </trkpt>
      <trkpt lat="40.796938" lon="0.522775">
        <ele>3.077</ele>
        <time>1970-01-01T00:03:07Z</time>
      </trkpt>
      <trkpt lat="40.796881" lon="0.522776">
        <ele>3.587</ele>
        <time>1970-01-01T00:03:08Z</time>
      </trkpt>
      <trkpt lat="40.796824" lon="0.522778">
        <ele>3.933</ele>
        <time>1970-01-01T00:03:09Z</time>
      </trkpt>
      <trkpt lat="40.796768" lon="0.522781">
        <ele>4.327</ele>
        <time>1970-01-01T00:03:10Z</time>
      </trkpt>
      <trkpt lat="40.796713" lon="0.522778">
        <ele>4.748</ele>
        <time>1970-01-01T00:03:11Z</time>
      </trkpt>
      <trkpt lat="40.796658" lon="0.522773">
        <ele>5.033</ele>
        <time>1970-01-01T00:03:12Z</time>
      </trkpt>
      <trkpt lat="40.796603" lon="0.522768">
        <ele>5.023</ele>
        <time>1970-01-01T00:03:13Z</time>
      </trkpt>
      <trkpt lat="40.796547" lon="0.522766">
        <ele>5.015</ele>
        <time>1970-01-01T00:03:14Z</time>
      </trkpt>
      <trkpt lat="40.796489" lon="0.522767">
        <ele>5.008</ele>
        <time>1970-01-01T00:03:15Z</time>
      </trkpt>
      <trkpt lat="40.796429" lon="0.522767">
        <ele>5.040</ele>
        <time>1970-01-01T00:03:16Z</time>
      </trkpt>
      <trkpt lat="40.796371" lon="0.522768">
        <ele>5.077</ele>
        <time>1970-01-01T00:03:17Z</time>
      </trkpt>
      <trkpt lat="40.796310" lon="0.522765">
        <ele>5.088</ele>
        <time>1970-01-01T00:03:18Z</time>
      </trkpt>
      <trkpt lat="40.796251" lon="0.522763">
        <ele>5.041</ele>
        <time>1970-01-01T00:03:19Z</time>
      </trkpt>
      <trkpt lat="40.796191" lon="0.522764">
        <ele>5.021</ele>
        <time>1970-01-01T00:03:20Z</time>
      </trkpt>
      <trkpt lat="40.796130" lon="0.522763">
        <ele>5.047</ele>
        <time>1970-01-01T00:03:21Z</time>
      </trkpt>
      <trkpt lat="40.796070" lon="0.522760">
        <ele>4.961</ele>
        <time>1970-01-01T00:03:22Z</time>
      </trkpt>
      <trkpt lat="40.796010" lon="0.522757">
        <ele>4.742</ele>
        <time>1970-01-01T00:03:23Z</time>
      </trkpt>
      <trkpt lat="40.795949" lon="0.522754">
        <ele>4.525</ele>
        <time>1970-01-01T00:03:24Z</time>
      </trkpt>
      <trkpt lat="40.795889" lon="0.522754">
        <ele>4.326</ele>
        <time>1970-01-01T00:03:25Z</time>
      </trkpt>
      <trkpt lat="40.795827" lon="0.522754">
        <ele>4.108</ele>
        <time>1970-01-01T00:03:26Z</time>
      </trkpt>
      <trkpt lat="40.795766" lon="0.522754">
        <ele>4.108</ele>
        <time>1970-01-01T00:03:27Z</time>
      </trkpt>
      <trkpt lat="40.795704" lon="0.522754">
        <ele>4.149</ele>
        <time>1970-01-01T00:03:28Z</time>
      </trkpt>
      <trkpt lat="40.795641" lon="0.522753">
        <ele>4.126</ele>
        <time>1970-01-01T00:03:29Z</time>
      </trkpt>
      <trkpt lat="40.795579" lon="0.522752">
        <ele>4.177</ele>
        <time>1970-01-01T00:03:30Z</time>
      </trkpt>
      <trkpt lat="40.795517" lon="0.522752">
        <ele>4.250</ele>
        <time>1970-01-01T00:03:31Z</time>
      </trkpt>
      <trkpt lat="40.795455" lon="0.522750">
        <ele>4.470</ele>
        <time>1970-01-01T00:03:32Z</time>
      </trkpt>
      <trkpt lat="40.795393" lon="0.522748">
        <ele>4.656</ele>
        <time>1970-01-01T00:03:33Z</time>
      </trkpt>
      <trkpt lat="40.795331" lon="0.522747">
        <ele>4.820</ele>
        <time>1970-01-01T00:03:34Z</time>
      </trkpt>
      <trkpt lat="40.795268" lon="0.522747">
        <ele>5.071</ele>
        <time>1970-01-01T00:03:35Z</time>
      </trkpt>
      <trkpt lat="40.795207" lon="0.522747">
        <ele>5.375</ele>
        <time>1970-01-01T00:03:36Z</time>
      </trkpt>
      <trkpt lat="40.795144" lon="0.522746">
        <ele>5.528</ele>
        <time>1970-01-01T00:03:37Z</time>
      </trkpt>
      <trkpt lat="40.795082" lon="0.522745">
        <ele>5.720</ele>
        <time>1970-01-01T00:03:38Z</time>
      </trkpt>
      <trkpt lat="40.795019" lon="0.522743">
        <ele>5.908</ele>
        <time>1970-01-01T00:03:39Z</time>
      </trkpt>
      <trkpt lat="40.794957" lon="0.522740">
        <ele>6.044</ele>
        <time>1970-01-01T00:03:40Z</time>
      </trkpt>
      <trkpt lat="40.794894" lon="0.522738">
        <ele>6.171</ele>
        <time>1970-01-01T00:03:41Z</time>
      </trkpt>
      <trkpt lat="40.794831" lon="0.522736">
        <ele>6.192</ele>
        <time>1970-01-01T00:03:42Z</time>
      </trkpt>
      <trkpt lat="40.794767" lon="0.522734">
        <ele>6.135</ele>
        <time>1970-01-01T00:03:43Z</time>
      </trkpt>
      <trkpt lat="40.794704" lon="0.522732">
        <ele>6.225</ele>
        <time>1970-01-01T00:03:44Z</time>
      </trkpt>
      <trkpt lat="40.794641" lon="0.522731">
        <ele>6.121</ele>
        <time>1970-01-01T00:03:45Z</time>
      </trkpt>
      <trkpt lat="40.794578" lon="0.522729">
        <ele>6.115</ele>
        <time>1970-01-01T00:03:46Z</time>
      </trkpt>
      <trkpt lat="40.794516" lon="0.522727">
        <ele>6.036</ele>
        <time>1970-01-01T00:03:47Z</time>
      </trkpt>
      <trkpt lat="40.794453" lon="0.522724">
        <ele>6.042</ele>
        <time>1970-01-01T00:03:48Z</time>
      </trkpt>
      <trkpt lat="40.794390" lon="0.522722">
        <ele>5.622</ele>
        <time>1970-01-01T00:03:49Z</time>
      </trkpt>
      <trkpt lat="40.794327" lon="0.522722">
        <ele>5.214</ele>
        <time>1970-01-01T00:03:50Z</time>
      </trkpt>
      <trkpt lat="40.794266" lon="0.522721">
        <ele>4.708</ele>
        <time>1970-01-01T00:03:51Z</time>
      </trkpt>
      <trkpt lat="40.794206" lon="0.522721">
        <ele>4.341</ele>
        <time>1970-01-01T00:03:52Z</time>
      </trkpt>
      <trkpt lat="40.794147" lon="0.522720">
        <ele>3.938</ele>
        <time>1970-01-01T00:03:53Z</time>
      </trkpt>
      <trkpt lat="40.794086" lon="0.522720">
        <ele>3.869</ele>
        <time>1970-01-01T00:03:54Z</time>
      </trkpt>
      <trkpt lat="40.794024" lon="0.522718">
        <ele>3.672</ele>
        <time>1970-01-01T00:03:55Z</time>
      </trkpt>
      <trkpt lat="40.793963" lon="0.522715">
        <ele>3.452</ele>
        <time>1970-01-01T00:03:56Z</time>
      </trkpt>
      <trkpt lat="40.793901" lon="0.522712">
        <ele>3.398</ele>
        <time>1970-01-01T00:03:57Z</time>
      </trkpt>
      <trkpt lat="40.793838" lon="0.522711">
        <ele>3.092</ele>
        <time>1970-01-01T00:03:58Z</time>
      </trkpt>
      <trkpt lat="40.793776" lon="0.522711">
        <ele>2.783</ele>
        <time>1970-01-01T00:03:59Z</time>
      </trkpt>
      <trkpt lat="40.793714" lon="0.522711">
        <ele>2.567</ele>
        <time>1970-01-01T00:04:00Z</time>
      </trkpt>
      <trkpt lat="40.793652" lon="0.522713">
        <ele>2.281</ele>
        <time>1970-01-01T00:04:01Z</time>
      </trkpt>
      <trkpt lat="40.793590" lon="0.522714">
        <ele>2.019</ele>
        <time>1970-01-01T00:04:02Z</time>
      </trkpt>
      <trkpt lat="40.793529" lon="0.522713">
        <ele>1.908</ele>
        <time>1970-01-01T00:04:03Z</time>
      </trkpt>
      <trkpt lat="40.793467" lon="0.522711">
        <ele>1.923</ele>
        <time>1970-01-01T00:04:04Z</time>
      </trkpt>
      <trkpt lat="40.793406" lon="0.522707">
        <ele>1.880</ele>
        <time>1970-01-01T00:04:05Z</time>
      </trkpt>
      <trkpt lat="40.793345" lon="0.522701">
        <ele>1.771</ele>
        <time>1970-01-01T00:04:06Z</time>
      </trkpt>
      <trkpt lat="40.793284" lon="0.522696">
        <ele>1.544</ele>
        <time>1970-01-01T00:04:07Z</time>
      </trkpt>
      <trkpt lat="40.793223" lon="0.522697">
        <ele>1.274</ele>
        <time>1970-01-01T00:04:08Z</time>
      </trkpt>
      <trkpt lat="40.793163" lon="0.522701">
        <ele>0.940</ele>
        <time>1970-01-01T00:04:09Z</time>
      </trkpt>
      <trkpt lat="40.793103" lon="0.522705">
        <ele>0.734</ele>
        <time>1970-01-01T00:04:10Z</time>
      </trkpt>
      <trkpt lat="40.793044" lon="0.522708">
        <ele>0.555</ele>
        <time>1970-01-01T00:04:11Z</time>
      </trkpt>
      <trkpt lat="40.792987" lon="0.522710">
        <ele>0.443</ele>
        <time>1970-01-01T00:04:12Z</time>
      </trkpt>
      <trkpt lat="40.792932" lon="0.522712">
        <ele>0.364</ele>
        <time>1970-01-01T00:04:13Z</time>
      </trkpt>
      <trkpt lat="40.792877" lon="0.522717">
        <ele>0.210</ele>
        <time>1970-01-01T00:04:14Z</time>
      </trkpt>
      <trkpt lat="40.792822" lon="0.522721">
        <ele>0.108</ele>
        <time>1970-01-01T00:04:15Z</time>
      </trkpt>
      <trkpt lat="40.792766" lon="0.522724">
        <ele>0.011</ele>
        <time>1970-01-01T00:04:16Z</time>
      </trkpt>
      <trkpt lat="40.792708" lon="0.522729">
        <ele>0.098</ele>
        <time>1970-01-01T00:04:17Z</time>
      </trkpt>
      <trkpt lat="40.792650" lon="0.522733">
        <ele>0.139</ele>
        <time>1970-01-01T00:04:18Z</time>
      </trkpt>
      <trkpt lat="40.792593" lon="0.522737">
        <ele>0.182</ele>
        <time>1970-01-01T00:04:19Z</time>
      </trkpt>
      <trkpt lat="40.792535" lon="0.522743">
        <ele>0.172</ele>
        <time>1970-01-01T00:04:20Z</time>
      </trkpt>
      <trkpt lat="40.792477" lon="0.522747">
        <ele>0.358</ele>
        <time>1970-01-01T00:04:21Z</time>
      </trkpt>
      <trkpt lat="40.792420" lon="0.522751">
        <ele>0.752</ele>
        <time>1970-01-01T00:04:22Z</time>
      </trkpt>
      <trkpt lat="40.792362" lon="0.522755">
        <ele>1.173</ele>
        <time>1970-01-01T00:04:23Z</time>
      </trkpt>
      <trkpt lat="40.792305" lon="0.522758">
        <ele>1.582</ele>
        <time>1970-01-01T00:04:24Z</time>
      </trkpt>
      <trkpt lat="40.792248" lon="0.522764">
        <ele>1.943</ele>
        <time>1970-01-01T00:04:25Z</time>
      </trkpt>
      <trkpt lat="40.792192" lon="0.522771">
        <ele>2.117</ele>
        <time>1970-01-01T00:04:26Z</time>
      </trkpt>
      <trkpt lat="40.792135" lon="0.522780">
        <ele>2.308</ele>
        <time>1970-01-01T00:04:27Z</time>
      </trkpt>
      <trkpt lat="40.792078" lon="0.522790">
        <ele>2.565</ele>
        <time>1970-01-01T00:04:28Z</time>
      </trkpt>
      <trkpt lat="40.792021" lon="0.522798">
        <ele>2.762</ele>
        <time>1970-01-01T00:04:29Z</time>
      </trkpt>
      <trkpt lat="40.791964" lon="0.522803">
        <ele>2.933</ele>
        <time>1970-01-01T00:04:30Z</time>
      </trkpt>
      <trkpt lat="40.791906" lon="0.522809">
        <ele>3.076</ele>
        <time>1970-01-01T00:04:31Z</time>
      </trkpt>
      <trkpt lat="40.791849" lon="0.522816">
        <ele>3.036</ele>
        <time>1970-01-01T00:04:32Z</time>
      </trkpt>
      <trkpt lat="40.791792" lon="0.522825">
        <ele>2.962</ele>
        <time>1970-01-01T00:04:33Z</time>
      </trkpt>
      <trkpt lat="40.791736" lon="0.522835">
        <ele>2.866</ele>
        <time>1970-01-01T00:04:34Z</time>
      </trkpt>
      <trkpt lat="40.791678" lon="0.522845">
        <ele>2.897</ele>
        <time>1970-01-01T00:04:35Z</time>
      </trkpt>
      <trkpt lat="40.791621" lon="0.522856">
        <ele>2.861</ele>
        <time>1970-01-01T00:04:36Z</time>
      </trkpt>
      <trkpt lat="40.791565" lon="0.522866">
        <ele>2.821</ele>
        <time>1970-01-01T00:04:37Z</time>
      </trkpt>
      <trkpt lat="40.791510" lon="0.522875">
        <ele>2.813</ele>
        <time>1970-01-01T00:04:38Z</time>
      </trkpt>
      <trkpt lat="40.791454" lon="0.522885">
        <ele>2.908</ele>
        <time>1970-01-01T00:04:39Z</time>
      </trkpt>
      <trkpt lat="40.791399" lon="0.522894">
        <ele>3.033</ele>
        <time>1970-01-01T00:04:40Z</time>
      </trkpt>
      <trkpt lat="40.791344" lon="0.522904">
        <ele>3.220</ele>
        <time>1970-01-01T00:04:41Z</time>
      </trkpt>
      <trkpt lat="40.791289" lon="0.522916">
        <ele>3.561</ele>
        <time>1970-01-01T00:04:42Z</time>
      </trkpt>
      <trkpt lat="40.791233" lon="0.522927">
        <ele>3.854</ele>
        <time>1970-01-01T00:04:43Z</time>
      </trkpt>
      <trkpt lat="40.791177" lon="0.522936">
        <ele>4.144</ele>
        <time>1970-01-01T00:04:44Z</time>
      </trkpt>
      <trkpt lat="40.791124" lon="0.522947">
        <ele>4.370</ele>
        <time>1970-01-01T00:04:45Z</time>
      </trkpt>
      <trkpt lat="40.791072" lon="0.522961">
        <ele>4.464</ele>
        <time>1970-01-01T00:04:46Z</time>
      </trkpt>
      <trkpt lat="40.791018" lon="0.522974">
        <ele>4.575</ele>
        <time>1970-01-01T00:04:47Z</time>
      </trkpt>
      <trkpt lat="40.790965" lon="0.522988">
        <ele>4.639</ele>
        <time>1970-01-01T00:04:48Z</time>
      </trkpt>
      <trkpt lat="40.790912" lon="0.523002">
        <ele>4.801</ele>
        <time>1970-01-01T00:04:49Z</time>
      </trkpt>
      <trkpt lat="40.790856" lon="0.523014">
        <ele>4.921</ele>
        <time>1970-01-01T00:04:50Z</time>
      </trkpt>
      <trkpt lat="40.790799" lon="0.523028">
        <ele>5.008</ele>
        <time>1970-01-01T00:04:51Z</time>
      </trkpt>
      <trkpt lat="40.790743" lon="0.523042">
        <ele>5.010</ele>
        <time>1970-01-01T00:04:52Z</time>
      </trkpt>
      <trkpt lat="40.790686" lon="0.523057">
        <ele>5.097</ele>
        <time>1970-01-01T00:04:53Z</time>
      </trkpt>
      <trkpt lat="40.790630" lon="0.523075">
        <ele>5.048</ele>
        <time>1970-01-01T00:04:54Z</time>
      </trkpt>
      <trkpt lat="40.790571" lon="0.523092">
        <ele>5.081</ele>
        <time>1970-01-01T00:04:55Z</time>
      </trkpt>
      <trkpt lat="40.790513" lon="0.523110">
        <ele>5.251</ele>
        <time>1970-01-01T00:04:56Z</time>
      </trkpt>
      <trkpt lat="40.790454" lon="0.523128">
        <ele>5.477</ele>
        <time>1970-01-01T00:04:57Z</time>
      </trkpt>
      <trkpt lat="40.790397" lon="0.523148">
        <ele>5.681</ele>
        <time>1970-01-01T00:04:58Z</time>
      </trkpt>
      <trkpt lat="40.790338" lon="0.523168">
        <ele>5.832</ele>
        <time>1970-01-01T00:04:59Z</time>
      </trkpt>
      <trkpt lat="40.790278" lon="0.523187">
        <ele>6.096</ele>
        <time>1970-01-01T00:05:00Z</time>
      </trkpt>
      <trkpt lat="40.790217" lon="0.523206">
        <ele>5.831</ele>
        <time>1970-01-01T00:05:01Z</time>
      </trkpt>
      <trkpt lat="40.790160" lon="0.523225">
        <ele>5.624</ele>
        <time>1970-01-01T00:05:02Z</time>
      </trkpt>
      <trkpt lat="40.790104" lon="0.523246">
        <ele>5.408</ele>
        <time>1970-01-01T00:05:03Z</time>
      </trkpt>
      <trkpt lat="40.790047" lon="0.523269">
        <ele>5.216</ele>
        <time>1970-01-01T00:05:04Z</time>
      </trkpt>
      <trkpt lat="40.789991" lon="0.523295">
        <ele>4.933</ele>
        <time>1970-01-01T00:05:05Z</time>
      </trkpt>
      <trkpt lat="40.789933" lon="0.523319">
        <ele>4.584</ele>
        <time>1970-01-01T00:05:06Z</time>
      </trkpt>
      <trkpt lat="40.789875" lon="0.523340">
        <ele>4.127</ele>
        <time>1970-01-01T00:05:07Z</time>
      </trkpt>
      <trkpt lat="40.789819" lon="0.523362">
        <ele>3.797</ele>
        <time>1970-01-01T00:05:08Z</time>
      </trkpt>
      <trkpt lat="40.789764" lon="0.523384">
        <ele>3.333</ele>
        <time>1970-01-01T00:05:09Z</time>
      </trkpt>
      <trkpt lat="40.789709" lon="0.523404">
        <ele>3.057</ele>
        <time>1970-01-01T00:05:10Z</time>
      </trkpt>
      <trkpt lat="40.789654" lon="0.523424">
        <ele>3.228</ele>
        <time>1970-01-01T00:05:11Z</time>
      </trkpt>
      <trkpt lat="40.789600" lon="0.523445">
        <ele>3.337</ele>
        <time>1970-01-01T00:05:12Z</time>
      </trkpt>
      <trkpt lat="40.789549" lon="0.523466">
        <ele>3.349</ele>
        <time>1970-01-01T00:05:13Z</time>
      </trkpt>
      <trkpt lat="40.789499" lon="0.523489">
        <ele>3.413</ele>
        <time>1970-01-01T00:05:14Z</time>
      </trkpt>
      <trkpt lat="40.789451" lon="0.523514">
        <ele>3.308</ele>
        <time>1970-01-01T00:05:15Z</time>
      </trkpt>
      <trkpt lat="40.789404" lon="0.523542">
        <ele>3.230</ele>
        <time>1970-01-01T00:05:16Z</time>
      </trkpt>
      <trkpt lat="40.789362" lon="0.523571">
        <ele>3.117</ele>
        <time>1970-01-01T00:05:17Z</time>
      </trkpt>
      <trkpt lat="40.789325" lon="0.523606">
        <ele>3.058</ele>
        <time>1970-01-01T00:05:18Z</time>
      </trkpt>
      <trkpt lat="40.789294" lon="0.523648">
        <ele>2.941</ele>
        <time>1970-01-01T00:05:19Z</time>
      </trkpt>
      <trkpt lat="40.789265" lon="0.523689">
        <ele>2.791</ele>
        <time>1970-01-01T00:05:20Z</time>
      </trkpt>
      <trkpt lat="40.789232" lon="0.523720">
        <ele>2.627</ele>
        <time>1970-01-01T00:05:21Z</time>
      </trkpt>
      <trkpt lat="40.789198" lon="0.523740">
        <ele>2.551</ele>
        <time>1970-01-01T00:05:22Z</time>
      </trkpt>
      <trkpt lat="40.789165" lon="0.523752">
        <ele>2.582</ele>
        <time>1970-01-01T00:05:23Z</time>
      </trkpt>
      <trkpt lat="40.789133" lon="0.523764">
        <ele>2.676</ele>
        <time>1970-01-01T00:05:24Z</time>
      </trkpt>
      <trkpt lat="40.789105" lon="0.523774">
        <ele>2.890</ele>
        <time>1970-01-01T00:05:25Z</time>
      </trkpt>
      <trkpt lat="40.789085" lon="0.523785">
        <ele>2.919</ele>
        <time>1970-01-01T00:05:26Z</time>
      </trkpt>
      <trkpt lat="40.789070" lon="0.523793">
        <ele>2.908</ele>
        <time>1970-01-01T00:05:27Z</time>
      </trkpt>
      <trkpt lat="40.789055" lon="0.523803">
        <ele>3.064</ele>
        <time>1970-01-01T00:05:28Z</time>
      </trkpt>
      <trkpt lat="40.789039" lon="0.523813">
        <ele>3.141</ele>
        <time>1970-01-01T00:05:29Z</time>
      </trkpt>
      <trkpt lat="40.789019" lon="0.523828">
        <ele>3.252</ele>
        <time>1970-01-01T00:05:30Z</time>
      </trkpt>
      <trkpt lat="40.788991" lon="0.523853">
        <ele>3.315</ele>
        <time>1970-01-01T00:05:31Z</time>
      </trkpt>
      <trkpt lat="40.788964" lon="0.523884">
        <ele>3.535</ele>
        <time>1970-01-01T00:05:32Z</time>
      </trkpt>
      <trkpt lat="40.788939" lon="0.523915">
        <ele>3.541</ele>
        <time>1970-01-01T00:05:33Z</time>
      </trkpt>
      <trkpt lat="40.788912" lon="0.523942">
        <ele>3.675</ele>
        <time>1970-01-01T00:05:34Z</time>
      </trkpt>
      <trkpt lat="40.788882" lon="0.523964">
        <ele>3.816</ele>
        <time>1970-01-01T00:05:35Z</time>
      </trkpt>
      <trkpt lat="40.788849" lon="0.523984">
        <ele>3.937</ele>
        <time>1970-01-01T00:05:36Z</time>
      </trkpt>
      <trkpt lat="40.788815" lon="0.524002">
        <ele>4.049</ele>
        <time>1970-01-01T00:05:37Z</time>
      </trkpt>
      <trkpt lat="40.788783" lon="0.524017">
        <ele>4.113</ele>
        <time>1970-01-01T00:05:38Z</time>
      </trkpt>
      <trkpt lat="40.788751" lon="0.524031">
        <ele>4.208</ele>
        <time>1970-01-01T00:05:39Z</time>
      </trkpt>
      <trkpt lat="40.788720" lon="0.524047">
        <ele>4.440</ele>
        <time>1970-01-01T00:05:40Z</time>
      </trkpt>
      <trkpt lat="40.788691" lon="0.524064">
        <ele>4.547</ele>
        <time>1970-01-01T00:05:41Z</time>
      </trkpt>
      <trkpt lat="40.788662" lon="0.524082">
        <ele>4.778</ele>
        <time>1970-01-01T00:05:42Z</time>
      </trkpt>
      <trkpt lat="40.788629" lon="0.524101">
        <ele>4.951</ele>
        <time>1970-01-01T00:05:43Z</time>
      </trkpt>
      <trkpt lat="40.788594" lon="0.524121">
        <ele>5.021</ele>
        <time>1970-01-01T00:05:44Z</time>
      </trkpt>
      <trkpt lat="40.788554" lon="0.524142">
        <ele>5.097</ele>
        <time>1970-01-01T00:05:45Z</time>
      </trkpt>
      <trkpt lat="40.788513" lon="0.524165">
        <ele>5.091</ele>
        <time>1970-01-01T00:05:46Z</time>
      </trkpt>
      <trkpt lat="40.788470" lon="0.524191">
        <ele>4.862</ele>
        <time>1970-01-01T00:05:47Z</time>
      </trkpt>
      <trkpt lat="40.788426" lon="0.524218">
        <ele>4.789</ele>
        <time>1970-01-01T00:05:48Z</time>
      </trkpt>
      <trkpt lat="40.788383" lon="0.524246">
        <ele>4.606</ele>
        <time>1970-01-01T00:05:49Z</time>
      </trkpt>
      <trkpt lat="40.788337" lon="0.524273">
        <ele>4.626</ele>
        <time>1970-01-01T00:05:50Z</time>
      </trkpt>
      <trkpt lat="40.788292" lon="0.524298">
        <ele>4.908</ele>
        <time>1970-01-01T00:05:51Z</time>
      </trkpt>
      <trkpt lat="40.788247" lon="0.524325">
        <ele>5.265</ele>
        <time>1970-01-01T00:05:52Z</time>
      </trkpt>
      <trkpt lat="40.788201" lon="0.524353">
        <ele>5.662</ele>
        <time>1970-01-01T00:05:53Z</time>
      </trkpt>
      <trkpt lat="40.788154" lon="0.524382">
        <ele>6.063</ele>
        <time>1970-01-01T00:05:54Z</time>
      </trkpt>
      <trkpt lat="40.788107" lon="0.524412">
        <ele>6.566</ele>
        <time>1970-01-01T00:05:55Z</time>
      </trkpt>
      <trkpt lat="40.788059" lon="0.524440">
        <ele>7.046</ele>
        <time>1970-01-01T00:05:56Z</time>
      </trkpt>
      <trkpt lat="40.788011" lon="0.524467">
        <ele>7.122</ele>
        <time>1970-01-01T00:05:57Z</time>
      </trkpt>
      <trkpt lat="40.787963" lon="0.524495">
        <ele>7.116</ele>
        <time>1970-01-01T00:05:58Z</time>
      </trkpt>
      <trkpt lat="40.787915" lon="0.524522">
        <ele>7.187</ele>
        <time>1970-01-01T00:05:59Z</time>
      </trkpt>
      <trkpt lat="40.787867" lon="0.524550">
        <ele>7.017</ele>
        <time>1970-01-01T00:06:00Z</time>
      </trkpt>
      <trkpt lat="40.787819" lon="0.524580">
        <ele>6.987</ele>
        <time>1970-01-01T00:06:01Z</time>
      </trkpt>
      <trkpt lat="40.787772" lon="0.524611">
        <ele>6.815</ele>
        <time>1970-01-01T00:06:02Z</time>
      </trkpt>
      <trkpt lat="40.787726" lon="0.524642">
        <ele>6.708</ele>
        <time>1970-01-01T00:06:03Z</time>
      </trkpt>
      <trkpt lat="40.787680" lon="0.524672">
        <ele>6.698</ele>
        <time>1970-01-01T00:06:04Z</time>
      </trkpt>
      <trkpt lat="40.787632" lon="0.524699">
        <ele>6.645</ele>
        <time>1970-01-01T00:06:05Z</time>
      </trkpt>
      <trkpt lat="40.787584" lon="0.524726">
        <ele>6.746</ele>
        <time>1970-01-01T00:06:06Z</time>
      </trkpt>
      <trkpt lat="40.787537" lon="0.524757">
        <ele>6.639</ele>
        <time>1970-01-01T00:06:07Z</time>
      </trkpt>
      <trkpt lat="40.787490" lon="0.524789">
        <ele>6.519</ele>
        <time>1970-01-01T00:06:08Z</time>
      </trkpt>
      <trkpt lat="40.787444" lon="0.524821">
        <ele>6.225</ele>
        <time>1970-01-01T00:06:09Z</time>
      </trkpt>
      <trkpt lat="40.787396" lon="0.524852">
        <ele>5.939</ele>
        <time>1970-01-01T00:06:10Z</time>
      </trkpt>
      <trkpt lat="40.787348" lon="0.524883">
        <ele>5.630</ele>
        <time>1970-01-01T00:06:11Z</time>
      </trkpt>
      <trkpt lat="40.787301" lon="0.524914">
        <ele>5.447</ele>
        <time>1970-01-01T00:06:12Z</time>
      </trkpt>
      <trkpt lat="40.787255" lon="0.524944">
        <ele>5.229</ele>
        <time>1970-01-01T00:06:13Z</time>
      </trkpt>
      <trkpt lat="40.787206" lon="0.524976">
        <ele>5.021</ele>
        <time>1970-01-01T00:06:14Z</time>
      </trkpt>
      <trkpt lat="40.787156" lon="0.525009">
        <ele>4.708</ele>
        <time>1970-01-01T00:06:15Z</time>
      </trkpt>
      <trkpt lat="40.787105" lon="0.525042">
        <ele>4.361</ele>
        <time>1970-01-01T00:06:16Z</time>
      </trkpt>
      <trkpt lat="40.787055" lon="0.525077">
        <ele>4.048</ele>
        <time>1970-01-01T00:06:17Z</time>
      </trkpt>
      <trkpt lat="40.787005" lon="0.525111">
        <ele>3.759</ele>
        <time>1970-01-01T00:06:18Z</time>
      </trkpt>
      <trkpt lat="40.786956" lon="0.525148">
        <ele>3.562</ele>
        <time>1970-01-01T00:06:19Z</time>
      </trkpt>
      <trkpt lat="40.786909" lon="0.525186">
        <ele>3.492</ele>
        <time>1970-01-01T00:06:20Z</time>
      </trkpt>
      <trkpt lat="40.786862" lon="0.525224">
        <ele>3.458</ele>
        <time>1970-01-01T00:06:21Z</time>
      </trkpt>
      <trkpt lat="40.786814" lon="0.525263">
        <ele>3.512</ele>
        <time>1970-01-01T00:06:22Z</time>
      </trkpt>
      <trkpt lat="40.786765" lon="0.525300">
        <ele>3.663</ele>
        <time>1970-01-01T00:06:23Z</time>
      </trkpt>
      <trkpt lat="40.786714" lon="0.525336">
        <ele>3.761</ele>
        <time>1970-01-01T00:06:24Z</time>
      </trkpt>
      <trkpt lat="40.786665" lon="0.525368">
        <ele>3.721</ele>
        <time>1970-01-01T00:06:25Z</time>
      </trkpt>
      <trkpt lat="40.786616" lon="0.525404">
        <ele>3.813</ele>
        <time>1970-01-01T00:06:26Z</time>
      </trkpt>
      <trkpt lat="40.786569" lon="0.525443">
        <ele>4.008</ele>
        <time>1970-01-01T00:06:27Z</time>
      </trkpt>
      <trkpt lat="40.786522" lon="0.525486">
        <ele>4.273</ele>
        <time>1970-01-01T00:06:28Z</time>
      </trkpt>
      <trkpt lat="40.786475" lon="0.525528">
        <ele>4.410</ele>
        <time>1970-01-01T00:06:29Z</time>
      </trkpt>
      <trkpt lat="40.786427" lon="0.525569">
        <ele>4.711</ele>
        <time>1970-01-01T00:06:30Z</time>
      </trkpt>
      <trkpt lat="40.786380" lon="0.525612">
        <ele>4.874</ele>
        <time>1970-01-01T00:06:31Z</time>
      </trkpt>
      <trkpt lat="40.786333" lon="0.525654">
        <ele>4.714</ele>
        <time>1970-01-01T00:06:32Z</time>
      </trkpt>
      <trkpt lat="40.786284" lon="0.525693">
        <ele>4.770</ele>
        <time>1970-01-01T00:06:33Z</time>
      </trkpt>
      <trkpt lat="40.786237" lon="0.525731">
        <ele>4.754</ele>
        <time>1970-01-01T00:06:34Z</time>
      </trkpt>
      <trkpt lat="40.786190" lon="0.525768">
        <ele>4.875</ele>
        <time>1970-01-01T00:06:35Z</time>
      </trkpt>
      <trkpt lat="40.786142" lon="0.525805">
        <ele>4.957</ele>
        <time>1970-01-01T00:06:36Z</time>
      </trkpt>
      <trkpt lat="40.786096" lon="0.525843">
        <ele>4.900</ele>
        <time>1970-01-01T00:06:37Z</time>
      </trkpt>
      <trkpt lat="40.786050" lon="0.525883">
        <ele>4.520</ele>
        <time>1970-01-01T00:06:38Z</time>
      </trkpt>
      <trkpt lat="40.786004" lon="0.525922">
        <ele>4.208</ele>
        <time>1970-01-01T00:06:39Z</time>
      </trkpt>
      <trkpt lat="40.785958" lon="0.525961">
        <ele>3.982</ele>
        <time>1970-01-01T00:06:40Z</time>
      </trkpt>
      <trkpt lat="40.785912" lon="0.525999">
        <ele>3.859</ele>
        <time>1970-01-01T00:06:41Z</time>
      </trkpt>
      <trkpt lat="40.785864" lon="0.526040">
        <ele>3.880</ele>
        <time>1970-01-01T00:06:42Z</time>
      </trkpt>
      <trkpt lat="40.785818" lon="0.526079">
        <ele>3.833</ele>
        <time>1970-01-01T00:06:43Z</time>
      </trkpt>
      <trkpt lat="40.785771" lon="0.526119">
        <ele>3.813</ele>
        <time>1970-01-01T00:06:44Z</time>
      </trkpt>
      <trkpt lat="40.785724" lon="0.526158">
        <ele>3.659</ele>
        <time>1970-01-01T00:06:45Z</time>
      </trkpt>
      <trkpt lat="40.785675" lon="0.526195">
        <ele>3.533</ele>
        <time>1970-01-01T00:06:46Z</time>
      </trkpt>
      <trkpt lat="40.785627" lon="0.526231">
        <ele>3.554</ele>
        <time>1970-01-01T00:06:47Z</time>
      </trkpt>
      <trkpt lat="40.785579" lon="0.526266">
        <ele>3.514</ele>
        <time>1970-01-01T00:06:48Z</time>
      </trkpt>
      <trkpt lat="40.785532" lon="0.526305">
        <ele>3.854</ele>
        <time>1970-01-01T00:06:49Z</time>
      </trkpt>
      <trkpt lat="40.785485" lon="0.526340">
        <ele>4.109</ele>
        <time>1970-01-01T00:06:50Z</time>
      </trkpt>
      <trkpt lat="40.785436" lon="0.526376">
        <ele>4.408</ele>
        <time>1970-01-01T00:06:51Z</time>
      </trkpt>
      <trkpt lat="40.785389" lon="0.526414">
        <ele>4.598</ele>
        <time>1970-01-01T00:06:52Z</time>
      </trkpt>
      <trkpt lat="40.785341" lon="0.526451">
        <ele>4.575</ele>
        <time>1970-01-01T00:06:53Z</time>
      </trkpt>
      <trkpt lat="40.785293" lon="0.526490">
        <ele>4.696</ele>
        <time>1970-01-01T00:06:54Z</time>
      </trkpt>
      <trkpt lat="40.785244" lon="0.526529">
        <ele>4.419</ele>
        <time>1970-01-01T00:06:55Z</time>
      </trkpt>
      <trkpt lat="40.785197" lon="0.526566">
        <ele>4.359</ele>
        <time>1970-01-01T00:06:56Z</time>
      </trkpt>
      <trkpt lat="40.785152" lon="0.526602">
        <ele>4.175</ele>
        <time>1970-01-01T00:06:57Z</time>
      </trkpt>
      <trkpt lat="40.785106" lon="0.526635">
        <ele>4.089</ele>
        <time>1970-01-01T00:06:58Z</time>
      </trkpt>
      <trkpt lat="40.785061" lon="0.526675">
        <ele>4.090</ele>
        <time>1970-01-01T00:06:59Z</time>
      </trkpt>
      <trkpt lat="40.785015" lon="0.526713">
        <ele>4.081</ele>
        <time>1970-01-01T00:07:00Z</time>
      </trkpt>
      <trkpt lat="40.784969" lon="0.526753">
        <ele>4.161</ele>
        <time>1970-01-01T00:07:01Z</time>
      </trkpt>
      <trkpt lat="40.784922" lon="0.526794">
        <ele>4.217</ele>
        <time>1970-01-01T00:07:02Z</time>
      </trkpt>
      <trkpt lat="40.784875" lon="0.526832">
        <ele>4.208</ele>
        <time>1970-01-01T00:07:03Z</time>
      </trkpt>
      <trkpt lat="40.784827" lon="0.526867">
        <ele>4.235</ele>
        <time>1970-01-01T00:07:04Z</time>
      </trkpt>
      <trkpt lat="40.784779" lon="0.526902">
        <ele>4.152</ele>
        <time>1970-01-01T00:07:05Z</time>
      </trkpt>
      <trkpt lat="40.784730" lon="0.526935">
        <ele>4.023</ele>
        <time>1970-01-01T00:07:06Z</time>
      </trkpt>
      <trkpt lat="40.784682" lon="0.526980">
        <ele>3.676</ele>
        <time>1970-01-01T00:07:07Z</time>
      </trkpt>
      <trkpt lat="40.784635" lon="0.527022">
        <ele>3.326</ele>
        <time>1970-01-01T00:07:08Z</time>
      </trkpt>
      <trkpt lat="40.784588" lon="0.527065">
        <ele>3.142</ele>
        <time>1970-01-01T00:07:09Z</time>
      </trkpt>
      <trkpt lat="40.784542" lon="0.527102">
        <ele>3.026</ele>
        <time>1970-01-01T00:07:10Z</time>
      </trkpt>
      <trkpt lat="40.784496" lon="0.527141">
        <ele>2.937</ele>
        <time>1970-01-01T00:07:11Z</time>
      </trkpt>
      <trkpt lat="40.784448" lon="0.527182">
        <ele>3.042</ele>
        <time>1970-01-01T00:07:12Z</time>
      </trkpt>
      <trkpt lat="40.784397" lon="0.527223">
        <ele>2.822</ele>
        <time>1970-01-01T00:07:13Z</time>
      </trkpt>
      <trkpt lat="40.784349" lon="0.527266">
        <ele>2.614</ele>
        <time>1970-01-01T00:07:14Z</time>
      </trkpt>
      <trkpt lat="40.784301" lon="0.527310">
        <ele>2.308</ele>
        <time>1970-01-01T00:07:15Z</time>
      </trkpt>
      <trkpt lat="40.784253" lon="0.527352">
        <ele>2.221</ele>
        <time>1970-01-01T00:07:16Z</time>
      </trkpt>
      <trkpt lat="40.784204" lon="0.527393">
        <ele>2.198</ele>
        <time>1970-01-01T00:07:17Z</time>
      </trkpt>
      <trkpt lat="40.784154" lon="0.527433">
        <ele>2.069</ele>
        <time>1970-01-01T00:07:18Z</time>
      </trkpt>
      <trkpt lat="40.784104" lon="0.527474">
        <ele>2.032</ele>
        <time>1970-01-01T00:07:19Z</time>
      </trkpt>
      <trkpt lat="40.784055" lon="0.527515">
        <ele>2.032</ele>
        <time>1970-01-01T00:07:20Z</time>
      </trkpt>
      <trkpt lat="40.784008" lon="0.527555">
        <ele>2.178</ele>
        <time>1970-01-01T00:07:21Z</time>
      </trkpt>
      <trkpt lat="40.783960" lon="0.527594">
        <ele>2.312</ele>
        <time>1970-01-01T00:07:22Z</time>
      </trkpt>
      <trkpt lat="40.783912" lon="0.527633">
        <ele>2.473</ele>
        <time>1970-01-01T00:07:23Z</time>
      </trkpt>
      <trkpt lat="40.783865" lon="0.527673">
        <ele>2.687</ele>
        <time>1970-01-01T00:07:24Z</time>
      </trkpt>
      <trkpt lat="40.783816" lon="0.527713">
        <ele>2.642</ele>
        <time>1970-01-01T00:07:25Z</time>
      </trkpt>
      <trkpt lat="40.783767" lon="0.527753">
        <ele>2.526</ele>
        <time>1970-01-01T00:07:26Z</time>
      </trkpt>
      <trkpt lat="40.783719" lon="0.527794">
        <ele>2.508</ele>
        <time>1970-01-01T00:07:27Z</time>
      </trkpt>
      <trkpt lat="40.783671" lon="0.527837">
        <ele>2.695</ele>
        <time>1970-01-01T00:07:28Z</time>
      </trkpt>
      <trkpt lat="40.783622" lon="0.527880">
        <ele>2.852</ele>
        <time>1970-01-01T00:07:29Z</time>
      </trkpt>
      <trkpt lat="40.783572" lon="0.527920">
        <ele>3.013</ele>
        <time>1970-01-01T00:07:30Z</time>
      </trkpt>
      <trkpt lat="40.783523" lon="0.527961">
        <ele>3.136</ele>
        <time>1970-01-01T00:07:31Z</time>
      </trkpt>
      <trkpt lat="40.783474" lon="0.528002">
        <ele>3.296</ele>
        <time>1970-01-01T00:07:32Z</time>
      </trkpt>
      <trkpt lat="40.783426" lon="0.528043">
        <ele>3.342</ele>
        <time>1970-01-01T00:07:33Z</time>
      </trkpt>
      <trkpt lat="40.783378" lon="0.528084">
        <ele>3.396</ele>
        <time>1970-01-01T00:07:34Z</time>
      </trkpt>
      <trkpt lat="40.783329" lon="0.528125">
        <ele>3.257</ele>
        <time>1970-01-01T00:07:35Z</time>
      </trkpt>
      <trkpt lat="40.783280" lon="0.528166">
        <ele>3.394</ele>
        <time>1970-01-01T00:07:36Z</time>
      </trkpt>
      <trkpt lat="40.783231" lon="0.528206">
        <ele>3.357</ele>
        <time>1970-01-01T00:07:37Z</time>
      </trkpt>
      <trkpt lat="40.783183" lon="0.528246">
        <ele>3.322</ele>
        <time>1970-01-01T00:07:38Z</time>
      </trkpt>
      <trkpt lat="40.783134" lon="0.528285">
        <ele>3.208</ele>
        <time>1970-01-01T00:07:39Z</time>
      </trkpt>
      <trkpt lat="40.783085" lon="0.528324">
        <ele>3.186</ele>
        <time>1970-01-01T00:07:40Z</time>
      </trkpt>
      <trkpt lat="40.783037" lon="0.528364">
        <ele>2.933</ele>
        <time>1970-01-01T00:07:41Z</time>
      </trkpt>
      <trkpt lat="40.782988" lon="0.528404">
        <ele>2.894</ele>
        <time>1970-01-01T00:07:42Z</time>
      </trkpt>
      <trkpt lat="40.782936" lon="0.528449">
        <ele>2.717</ele>
        <time>1970-01-01T00:07:43Z</time>
      </trkpt>
      <trkpt lat="40.782886" lon="0.528494">
        <ele>2.777</ele>
        <time>1970-01-01T00:07:44Z</time>
      </trkpt>
      <trkpt lat="40.782839" lon="0.528540">
        <ele>2.863</ele>
        <time>1970-01-01T00:07:45Z</time>
      </trkpt>
      <trkpt lat="40.782793" lon="0.528584">
        <ele>2.977</ele>
        <time>1970-01-01T00:07:46Z</time>
      </trkpt>
      <trkpt lat="40.782746" lon="0.528625">
        <ele>2.928</ele>
        <time>1970-01-01T00:07:47Z</time>
      </trkpt>
      <trkpt lat="40.782699" lon="0.528666">
        <ele>2.953</ele>
        <time>1970-01-01T00:07:48Z</time>
      </trkpt>
      <trkpt lat="40.782650" lon="0.528708">
        <ele>2.904</ele>
        <time>1970-01-01T00:07:49Z</time>
      </trkpt>
      <trkpt lat="40.782601" lon="0.528750">
        <ele>2.914</ele>
        <time>1970-01-01T00:07:50Z</time>
      </trkpt>
      <trkpt lat="40.782553" lon="0.528790">
        <ele>2.808</ele>
        <time>1970-01-01T00:07:51Z</time>
      </trkpt>
      <trkpt lat="40.782503" lon="0.528828">
        <ele>2.872</ele>
        <time>1970-01-01T00:07:52Z</time>
      </trkpt>
      <trkpt lat="40.782454" lon="0.528869">
        <ele>2.989</ele>
        <time>1970-01-01T00:07:53Z</time>
      </trkpt>
      <trkpt lat="40.782404" lon="0.528910">
        <ele>3.040</ele>
        <time>1970-01-01T00:07:54Z</time>
      </trkpt>
      <trkpt lat="40.782354" lon="0.528950">
        <ele>3.073</ele>
        <time>1970-01-01T00:07:55Z</time>
      </trkpt>
      <trkpt lat="40.782307" lon="0.528989">
        <ele>3.043</ele>
        <time>1970-01-01T00:07:56Z</time>
      </trkpt>
      <trkpt lat="40.782258" lon="0.529028">
        <ele>3.019</ele>
        <time>1970-01-01T00:07:57Z</time>
      </trkpt>
      <trkpt lat="40.782208" lon="0.529067">
        <ele>3.033</ele>
        <time>1970-01-01T00:07:58Z</time>
      </trkpt>
      <trkpt lat="40.782158" lon="0.529107">
        <ele>3.014</ele>
        <time>1970-01-01T00:07:59Z</time>
      </trkpt>
      <trkpt lat="40.782109" lon="0.529148">
        <ele>3.061</ele>
        <time>1970-01-01T00:08:00Z</time>
      </trkpt>
      <trkpt lat="40.782061" lon="0.529189">
        <ele>3.121</ele>
        <time>1970-01-01T00:08:01Z</time>
      </trkpt>
      <trkpt lat="40.782013" lon="0.529231">
        <ele>3.213</ele>
        <time>1970-01-01T00:08:02Z</time>
      </trkpt>
      <trkpt lat="40.781965" lon="0.529270">
        <ele>3.408</ele>
        <time>1970-01-01T00:08:03Z</time>
      </trkpt>
      <trkpt lat="40.781920" lon="0.529308">
        <ele>3.563</ele>
        <time>1970-01-01T00:08:04Z</time>
      </trkpt>
      <trkpt lat="40.781876" lon="0.529347">
        <ele>3.680</ele>
        <time>1970-01-01T00:08:05Z</time>
      </trkpt>
      <trkpt lat="40.781832" lon="0.529384">
        <ele>3.691</ele>
        <time>1970-01-01T00:08:06Z</time>
      </trkpt>
      <trkpt lat="40.781792" lon="0.529419">
        <ele>3.514</ele>
        <time>1970-01-01T00:08:07Z</time>
      </trkpt>
      <trkpt lat="40.781750" lon="0.529458">
        <ele>3.324</ele>
        <time>1970-01-01T00:08:08Z</time>
      </trkpt>
      <trkpt lat="40.781706" lon="0.529497">
        <ele>3.320</ele>
        <time>1970-01-01T00:08:09Z</time>
      </trkpt>
      <trkpt lat="40.781661" lon="0.529534">
        <ele>3.374</ele>
        <time>1970-01-01T00:08:10Z</time>
      </trkpt>
      <trkpt lat="40.781616" lon="0.529566">
        <ele>3.365</ele>
        <time>1970-01-01T00:08:11Z</time>
      </trkpt>
      <trkpt lat="40.781573" lon="0.529596">
        <ele>3.232</ele>
        <time>1970-01-01T00:08:12Z</time>
      </trkpt>
      <trkpt lat="40.781531" lon="0.529628">
        <ele>3.092</ele>
        <time>1970-01-01T00:08:13Z</time>
      </trkpt>
      <trkpt lat="40.781490" lon="0.529660">
        <ele>2.811</ele>
        <time>1970-01-01T00:08:14Z</time>
      </trkpt>
      <trkpt lat="40.781454" lon="0.529691">
        <ele>2.508</ele>
        <time>1970-01-01T00:08:15Z</time>
      </trkpt>
      <trkpt lat="40.781418" lon="0.529725">
        <ele>2.270</ele>
        <time>1970-01-01T00:08:16Z</time>
      </trkpt>
      <trkpt lat="40.781378" lon="0.529761">
        <ele>2.067</ele>
        <time>1970-01-01T00:08:17Z</time>
      </trkpt>
      <trkpt lat="40.781320" lon="0.529789">
        <ele>1.898</ele>
        <time>1970-01-01T00:08:18Z</time>
      </trkpt>
      <trkpt lat="40.781277" lon="0.529828">
        <ele>1.611</ele>
        <time>1970-01-01T00:08:19Z</time>
      </trkpt>
      <trkpt lat="40.781237" lon="0.529864">
        <ele>1.561</ele>
        <time>1970-01-01T00:08:20Z</time>
      </trkpt>
      <trkpt lat="40.781187" lon="0.529896">
        <ele>1.337</ele>
        <time>1970-01-01T00:08:21Z</time>
      </trkpt>
      <trkpt lat="40.781138" lon="0.529935">
        <ele>1.191</ele>
        <time>1970-01-01T00:08:22Z</time>
      </trkpt>
      <trkpt lat="40.781096" lon="0.529973">
        <ele>1.112</ele>
        <time>1970-01-01T00:08:23Z</time>
      </trkpt>
      <trkpt lat="40.781049" lon="0.530015">
        <ele>1.234</ele>
        <time>1970-01-01T00:08:24Z</time>
      </trkpt>
      <trkpt lat="40.781004" lon="0.530057">
        <ele>1.355</ele>
        <time>1970-01-01T00:08:25Z</time>
      </trkpt>
      <trkpt lat="40.780959" lon="0.530093">
        <ele>1.410</ele>
        <time>1970-01-01T00:08:26Z</time>
      </trkpt>
      <trkpt lat="40.780908" lon="0.530130">
        <ele>1.408</ele>
        <time>1970-01-01T00:08:27Z</time>
      </trkpt>
      <trkpt lat="40.780853" lon="0.530168">
        <ele>1.480</ele>
        <time>1970-01-01T00:08:28Z</time>
      </trkpt>
      <trkpt lat="40.780797" lon="0.530194">
        <ele>1.447</ele>
        <time>1970-01-01T00:08:29Z</time>
      </trkpt>
      <trkpt lat="40.780736" lon="0.530222">
        <ele>1.618</ele>
        <time>1970-01-01T00:08:30Z</time>
      </trkpt>
      <trkpt lat="40.780682" lon="0.530237">
        <ele>1.791</ele>
        <time>1970-01-01T00:08:31Z</time>
      </trkpt>
      <trkpt lat="40.780630" lon="0.530241">
        <ele>1.971</ele>
        <time>1970-01-01T00:08:32Z</time>
      </trkpt>
      <trkpt lat="40.780588" lon="0.530236">
        <ele>2.067</ele>
        <time>1970-01-01T00:08:33Z</time>
      </trkpt>
      <trkpt lat="40.780554" lon="0.530229">
        <ele>2.271</ele>
        <time>1970-01-01T00:08:34Z</time>
      </trkpt>
      <trkpt lat="40.780521" lon="0.530225">
        <ele>2.062</ele>
        <time>1970-01-01T00:08:35Z</time>
      </trkpt>
      <trkpt lat="40.780486" lon="0.530232">
        <ele>1.976</ele>
        <time>1970-01-01T00:08:36Z</time>
      </trkpt>
      <trkpt lat="40.780452" lon="0.530251">
        <ele>1.790</ele>
        <time>1970-01-01T00:08:37Z</time>
      </trkpt>
      <trkpt lat="40.780417" lon="0.530282">
        <ele>1.519</ele>
        <time>1970-01-01T00:08:38Z</time>
      </trkpt>
      <trkpt lat="40.780381" lon="0.530316">
        <ele>1.508</ele>
        <time>1970-01-01T00:08:39Z</time>
      </trkpt>
      <trkpt lat="40.780343" lon="0.530351">
        <ele>1.514</ele>
        <time>1970-01-01T00:08:40Z</time>
      </trkpt>
      <trkpt lat="40.780305" lon="0.530387">
        <ele>1.541</ele>
        <time>1970-01-01T00:08:41Z</time>
      </trkpt>
      <trkpt lat="40.780265" lon="0.530426">
        <ele>1.532</ele>
        <time>1970-01-01T00:08:42Z</time>
      </trkpt>
      <trkpt lat="40.780223" lon="0.530465">
        <ele>1.745</ele>
        <time>1970-01-01T00:08:43Z</time>
      </trkpt>
      <trkpt lat="40.780180" lon="0.530507">
        <ele>1.885</ele>
        <time>1970-01-01T00:08:44Z</time>
      </trkpt>
      <trkpt lat="40.780138" lon="0.530552">
        <ele>2.091</ele>
        <time>1970-01-01T00:08:45Z</time>
      </trkpt>
      <trkpt lat="40.780096" lon="0.530597">
        <ele>2.015</ele>
        <time>1970-01-01T00:08:46Z</time>
      </trkpt>
      <trkpt lat="40.780051" lon="0.530640">
        <ele>2.096</ele>
        <time>1970-01-01T00:08:47Z</time>
      </trkpt>
      <trkpt lat="40.780003" lon="0.530681">
        <ele>2.095</ele>
        <time>1970-01-01T00:08:48Z</time>
      </trkpt>
      <trkpt lat="40.779952" lon="0.530723">
        <ele>2.249</ele>
        <time>1970-01-01T00:08:49Z</time>
      </trkpt>
      <trkpt lat="40.779904" lon="0.530765">
        <ele>2.323</ele>
        <time>1970-01-01T00:08:50Z</time>
      </trkpt>
      <trkpt lat="40.779854" lon="0.530809">
        <ele>2.508</ele>
        <time>1970-01-01T00:08:51Z</time>
      </trkpt>
      <trkpt lat="40.779805" lon="0.530855">
        <ele>2.716</ele>
        <time>1970-01-01T00:08:52Z</time>
      </trkpt>
      <trkpt lat="40.779755" lon="0.530902">
        <ele>2.933</ele>
        <time>1970-01-01T00:08:53Z</time>
      </trkpt>
      <trkpt lat="40.779707" lon="0.530947">
        <ele>3.184</ele>
        <time>1970-01-01T00:08:54Z</time>
      </trkpt>
      <trkpt lat="40.779658" lon="0.530992">
        <ele>3.277</ele>
        <time>1970-01-01T00:08:55Z</time>
      </trkpt>
      <trkpt lat="40.779610" lon="0.531036">
        <ele>3.487</ele>
        <time>1970-01-01T00:08:56Z</time>
      </trkpt>
      <trkpt lat="40.779561" lon="0.531083">
        <ele>3.613</ele>
        <time>1970-01-01T00:08:57Z</time>
      </trkpt>
      <trkpt lat="40.779511" lon="0.531127">
        <ele>3.757</ele>
        <time>1970-01-01T00:08:58Z</time>
      </trkpt>
      <trkpt lat="40.779462" lon="0.531172">
        <ele>3.798</ele>
        <time>1970-01-01T00:08:59Z</time>
      </trkpt>
      <trkpt lat="40.779412" lon="0.531215">
        <ele>3.576</ele>
        <time>1970-01-01T00:09:00Z</time>
      </trkpt>
      <trkpt lat="40.779361" lon="0.531259">
        <ele>3.290</ele>
        <time>1970-01-01T00:09:01Z</time>
      </trkpt>
      <trkpt lat="40.779311" lon="0.531299">
        <ele>2.819</ele>
        <time>1970-01-01T00:09:02Z</time>
      </trkpt>
      <trkpt lat="40.779259" lon="0.531336">
        <ele>2.508</ele>
        <time>1970-01-01T00:09:03Z</time>
      </trkpt>
      <trkpt lat="40.779209" lon="0.531369">
        <ele>2.274</ele>
        <time>1970-01-01T00:09:04Z</time>
      </trkpt>
      <trkpt lat="40.779157" lon="0.531402">
        <ele>2.071</ele>
        <time>1970-01-01T00:09:05Z</time>
      </trkpt>
      <trkpt lat="40.779105" lon="0.531437">
        <ele>1.872</ele>
        <time>1970-01-01T00:09:06Z</time>
      </trkpt>
      <trkpt lat="40.779054" lon="0.531473">
        <ele>1.675</ele>
        <time>1970-01-01T00:09:07Z</time>
      </trkpt>
      <trkpt lat="40.779002" lon="0.531513">
        <ele>1.445</ele>
        <time>1970-01-01T00:09:08Z</time>
      </trkpt>
      <trkpt lat="40.778952" lon="0.531554">
        <ele>1.281</ele>
        <time>1970-01-01T00:09:09Z</time>
      </trkpt>
      <trkpt lat="40.778901" lon="0.531597">
        <ele>1.075</ele>
        <time>1970-01-01T00:09:10Z</time>
      </trkpt>
      <trkpt lat="40.778852" lon="0.531644">
        <ele>1.046</ele>
        <time>1970-01-01T00:09:11Z</time>
      </trkpt>
      <trkpt lat="40.778804" lon="0.531695">
        <ele>0.924</ele>
        <time>1970-01-01T00:09:12Z</time>
      </trkpt>
      <trkpt lat="40.778755" lon="0.531746">
        <ele>0.904</ele>
        <time>1970-01-01T00:09:13Z</time>
      </trkpt>
      <trkpt lat="40.778705" lon="0.531794">
        <ele>0.814</ele>
        <time>1970-01-01T00:09:14Z</time>
      </trkpt>
      <trkpt lat="40.778655" lon="0.531842">
        <ele>0.908</ele>
        <time>1970-01-01T00:09:15Z</time>
      </trkpt>
      <trkpt lat="40.778604" lon="0.531889">
        <ele>1.139</ele>
        <time>1970-01-01T00:09:16Z</time>
      </trkpt>
      <trkpt lat="40.778553" lon="0.531938">
        <ele>1.436</ele>
        <time>1970-01-01T00:09:17Z</time>
      </trkpt>
      <trkpt lat="40.778502" lon="0.531984">
        <ele>1.847</ele>
        <time>1970-01-01T00:09:18Z</time>
      </trkpt>
      <trkpt lat="40.778451" lon="0.532032">
        <ele>2.220</ele>
        <time>1970-01-01T00:09:19Z</time>
      </trkpt>
      <trkpt lat="40.778399" lon="0.532078">
        <ele>2.520</ele>
        <time>1970-01-01T00:09:20Z</time>
      </trkpt>
      <trkpt lat="40.778347" lon="0.532124">
        <ele>2.926</ele>
        <time>1970-01-01T00:09:21Z</time>
      </trkpt>
      <trkpt lat="40.778297" lon="0.532170">
        <ele>3.120</ele>
        <time>1970-01-01T00:09:22Z</time>
      </trkpt>
      <trkpt lat="40.778246" lon="0.532215">
        <ele>3.331</ele>
        <time>1970-01-01T00:09:23Z</time>
      </trkpt>
      <trkpt lat="40.778193" lon="0.532261">
        <ele>3.433</ele>
        <time>1970-01-01T00:09:24Z</time>
      </trkpt>
      <trkpt lat="40.778140" lon="0.532306">
        <ele>3.523</ele>
        <time>1970-01-01T00:09:25Z</time>
      </trkpt>
      <trkpt lat="40.778087" lon="0.532350">
        <ele>3.515</ele>
        <time>1970-01-01T00:09:26Z</time>
      </trkpt>
      <trkpt lat="40.778033" lon="0.532393">
        <ele>3.308</ele>
        <time>1970-01-01T00:09:27Z</time>
      </trkpt>
      <trkpt lat="40.777978" lon="0.532435">
        <ele>3.090</ele>
        <time>1970-01-01T00:09:28Z</time>
      </trkpt>
      <trkpt lat="40.777924" lon="0.532477">
        <ele>2.677</ele>
        <time>1970-01-01T00:09:29Z</time>
      </trkpt>
      <trkpt lat="40.777869" lon="0.532518">
        <ele>2.358</ele>
        <time>1970-01-01T00:09:30Z</time>
      </trkpt>
      <trkpt lat="40.777815" lon="0.532560">
        <ele>2.191</ele>
        <time>1970-01-01T00:09:31Z</time>
      </trkpt>
      <trkpt lat="40.777762" lon="0.532601">
        <ele>1.951</ele>
        <time>1970-01-01T00:09:32Z</time>
      </trkpt>
      <trkpt lat="40.777710" lon="0.532643">
        <ele>1.557</ele>
        <time>1970-01-01T00:09:33Z</time>
      </trkpt>
      <trkpt lat="40.777657" lon="0.532684">
        <ele>1.131</ele>
        <time>1970-01-01T00:09:34Z</time>
      </trkpt>
      <trkpt lat="40.777605" lon="0.532725">
        <ele>0.822</ele>
        <time>1970-01-01T00:09:35Z</time>
      </trkpt>
      <trkpt lat="40.777554" lon="0.532766">
        <ele>0.459</ele>
        <time>1970-01-01T00:09:36Z</time>
      </trkpt>
      <trkpt lat="40.777503" lon="0.532808">
        <ele>0.103</ele>
        <time>1970-01-01T00:09:37Z</time>
      </trkpt>
      <trkpt lat="40.777451" lon="0.532850">
        <ele>-0.123</ele>
        <time>1970-01-01T00:09:38Z</time>
      </trkpt>
      <trkpt lat="40.777397" lon="0.532891">
        <ele>-0.508</ele>
        <time>1970-01-01T00:09:39Z</time>
      </trkpt>
      <trkpt lat="40.777343" lon="0.532934">
        <ele>-0.962</ele>
        <time>1970-01-01T00:09:40Z</time>
      </trkpt>
      <trkpt lat="40.777288" lon="0.532978">
        <ele>-1.439</ele>
        <time>1970-01-01T00:09:41Z</time>
      </trkpt>
      <trkpt lat="40.777233" lon="0.533022">
        <ele>-1.950</ele>
        <time>1970-01-01T00:09:42Z</time>
      </trkpt>
      <trkpt lat="40.777178" lon="0.533066">
        <ele>-2.073</ele>
        <time>1970-01-01T00:09:43Z</time>
      </trkpt>
      <trkpt lat="40.777122" lon="0.533110">
        <ele>-1.923</ele>
        <time>1970-01-01T00:09:44Z</time>
      </trkpt>
      <trkpt lat="40.777069" lon="0.533155">
        <ele>-1.899</ele>
        <time>1970-01-01T00:09:45Z</time>
      </trkpt>
      <trkpt lat="40.777015" lon="0.533200">
        <ele>-1.913</ele>
        <time>1970-01-01T00:09:46Z</time>
      </trkpt>
      <trkpt lat="40.776960" lon="0.533243">
        <ele>-2.014</ele>
        <time>1970-01-01T00:09:47Z</time>
      </trkpt>
      <trkpt lat="40.776905" lon="0.533286">
        <ele>-1.619</ele>
        <time>1970-01-01T00:09:48Z</time>
      </trkpt>
      <trkpt lat="40.776848" lon="0.533329">
        <ele>-1.009</ele>
        <time>1970-01-01T00:09:49Z</time>
      </trkpt>
      <trkpt lat="40.776794" lon="0.533374">
        <ele>-0.419</ele>
        <time>1970-01-01T00:09:50Z</time>
      </trkpt>
      <trkpt lat="40.776740" lon="0.533420">
        <ele>0.108</ele>
        <time>1970-01-01T00:09:51Z</time>
      </trkpt>
      <trkpt lat="40.776685" lon="0.533467">
        <ele>0.498</ele>
        <time>1970-01-01T00:09:52Z</time>
      </trkpt>
      <trkpt lat="40.776629" lon="0.533513">
        <ele>0.575</ele>
        <time>1970-01-01T00:09:53Z</time>
      </trkpt>
      <trkpt lat="40.776574" lon="0.533559">
        <ele>0.516</ele>
        <time>1970-01-01T00:09:54Z</time>
      </trkpt>
      <trkpt lat="40.776520" lon="0.533604">
        <ele>0.699</ele>
        <time>1970-01-01T00:09:55Z</time>
      </trkpt>
      <trkpt lat="40.776465" lon="0.533648">
        <ele>0.659</ele>
        <time>1970-01-01T00:09:56Z</time>
      </trkpt>
      <trkpt lat="40.776411" lon="0.533695">
        <ele>0.625</ele>
        <time>1970-01-01T00:09:57Z</time>
      </trkpt>
      <trkpt lat="40.776356" lon="0.533740">
        <ele>0.569</ele>
        <time>1970-01-01T00:09:58Z</time>
      </trkpt>
      <trkpt lat="40.776301" lon="0.533785">
        <ele>0.450</ele>
        <time>1970-01-01T00:09:59Z</time>
      </trkpt>
      <trkpt lat="40.776247" lon="0.533829">
        <ele>0.254</ele>
        <time>1970-01-01T00:10:00Z</time>
      </trkpt>
      <trkpt lat="40.776192" lon="0.533872">
        <ele>0.156</ele>
        <time>1970-01-01T00:10:01Z</time>
      </trkpt>
      <trkpt lat="40.776138" lon="0.533915">
        <ele>-0.111</ele>
        <time>1970-01-01T00:10:02Z</time>
      </trkpt>
      <trkpt lat="40.776084" lon="0.533959">
        <ele>-0.108</ele>
        <time>1970-01-01T00:10:03Z</time>
      </trkpt>
      <trkpt lat="40.776030" lon="0.534003">
        <ele>0.162</ele>
        <time>1970-01-01T00:10:04Z</time>
      </trkpt>
      <trkpt lat="40.775976" lon="0.534047">
        <ele>0.199</ele>
        <time>1970-01-01T00:10:05Z</time>
      </trkpt>
      <trkpt lat="40.775922" lon="0.534092">
        <ele>0.150</ele>
        <time>1970-01-01T00:10:06Z</time>
      </trkpt>
      <trkpt lat="40.775867" lon="0.534135">
        <ele>0.153</ele>
        <time>1970-01-01T00:10:07Z</time>
      </trkpt>
      <trkpt lat="40.775813" lon="0.534179">
        <ele>0.093</ele>
        <time>1970-01-01T00:10:08Z</time>
      </trkpt>
      <trkpt lat="40.775760" lon="0.534224">
        <ele>0.129</ele>
        <time>1970-01-01T00:10:09Z</time>
      </trkpt>
      <trkpt lat="40.775706" lon="0.534268">
        <ele>0.183</ele>
        <time>1970-01-01T00:10:10Z</time>
      </trkpt>
      <trkpt lat="40.775653" lon="0.534313">
        <ele>0.124</ele>
        <time>1970-01-01T00:10:11Z</time>
      </trkpt>
      <trkpt lat="40.775600" lon="0.534357">
        <ele>0.243</ele>
        <time>1970-01-01T00:10:12Z</time>
      </trkpt>
      <trkpt lat="40.775545" lon="0.534402">
        <ele>0.264</ele>
        <time>1970-01-01T00:10:13Z</time>
      </trkpt>
      <trkpt lat="40.775491" lon="0.534445">
        <ele>0.210</ele>
        <time>1970-01-01T00:10:14Z</time>
      </trkpt>
      <trkpt lat="40.775436" lon="0.534490">
        <ele>0.508</ele>
        <time>1970-01-01T00:10:15Z</time>
      </trkpt>
      <trkpt lat="40.775383" lon="0.534536">
        <ele>0.851</ele>
        <time>1970-01-01T00:10:16Z</time>
      </trkpt>
      <trkpt lat="40.775330" lon="0.534585">
        <ele>1.248</ele>
        <time>1970-01-01T00:10:17Z</time>
      </trkpt>
      <trkpt lat="40.775281" lon="0.534637">
        <ele>1.779</ele>
        <time>1970-01-01T00:10:18Z</time>
      </trkpt>
      <trkpt lat="40.775233" lon="0.534692">
        <ele>1.952</ele>
        <time>1970-01-01T00:10:19Z</time>
      </trkpt>
      <trkpt lat="40.775184" lon="0.534745">
        <ele>2.042</ele>
        <time>1970-01-01T00:10:20Z</time>
      </trkpt>
      <trkpt lat="40.775134" lon="0.534796">
        <ele>2.148</ele>
        <time>1970-01-01T00:10:21Z</time>
      </trkpt>
      <trkpt lat="40.775082" lon="0.534841">
        <ele>2.372</ele>
        <time>1970-01-01T00:10:22Z</time>
      </trkpt>
      <trkpt lat="40.775028" lon="0.534884">
        <ele>2.523</ele>
        <time>1970-01-01T00:10:23Z</time>
      </trkpt>
      <trkpt lat="40.774973" lon="0.534926">
        <ele>2.827</ele>
        <time>1970-01-01T00:10:24Z</time>
      </trkpt>
      <trkpt lat="40.774919" lon="0.534968">
        <ele>3.168</ele>
        <time>1970-01-01T00:10:25Z</time>
      </trkpt>
      <trkpt lat="40.774865" lon="0.535012">
        <ele>3.414</ele>
        <time>1970-01-01T00:10:26Z</time>
      </trkpt>
      <trkpt lat="40.774813" lon="0.535057">
        <ele>3.508</ele>
        <time>1970-01-01T00:10:27Z</time>
      </trkpt>
      <trkpt lat="40.774761" lon="0.535102">
        <ele>3.539</ele>
        <time>1970-01-01T00:10:28Z</time>
      </trkpt>
      <trkpt lat="40.774708" lon="0.535147">
        <ele>3.486</ele>
        <time>1970-01-01T00:10:29Z</time>
      </trkpt>
      <trkpt lat="40.774655" lon="0.535191">
        <ele>3.277</ele>
        <time>1970-01-01T00:10:30Z</time>
      </trkpt>
      <trkpt lat="40.774602" lon="0.535235">
        <ele>3.180</ele>
        <time>1970-01-01T00:10:31Z</time>
      </trkpt>
      <trkpt lat="40.774550" lon="0.535279">
        <ele>3.040</ele>
        <time>1970-01-01T00:10:32Z</time>
      </trkpt>
      <trkpt lat="40.774496" lon="0.535323">
        <ele>2.946</ele>
        <time>1970-01-01T00:10:33Z</time>
      </trkpt>
      <trkpt lat="40.774442" lon="0.535367">
        <ele>2.680</ele>
        <time>1970-01-01T00:10:34Z</time>
      </trkpt>
      <trkpt lat="40.774388" lon="0.535412">
        <ele>1.971</ele>
        <time>1970-01-01T00:10:35Z</time>
      </trkpt>
      <trkpt lat="40.774335" lon="0.535458">
        <ele>1.343</ele>
        <time>1970-01-01T00:10:36Z</time>
      </trkpt>
      <trkpt lat="40.774281" lon="0.535505">
        <ele>0.864</ele>
        <time>1970-01-01T00:10:37Z</time>
      </trkpt>
      <trkpt lat="40.774227" lon="0.535550">
        <ele>0.410</ele>
        <time>1970-01-01T00:10:38Z</time>
      </trkpt>
      <trkpt lat="40.774174" lon="0.535594">
        <ele>0.208</ele>
        <time>1970-01-01T00:10:39Z</time>
      </trkpt>
      <trkpt lat="40.774123" lon="0.535637">
        <ele>0.551</ele>
        <time>1970-01-01T00:10:40Z</time>
      </trkpt>
      <trkpt lat="40.774076" lon="0.535674">
        <ele>0.898</ele>
        <time>1970-01-01T00:10:41Z</time>
      </trkpt>
      <trkpt lat="40.774032" lon="0.535707">
        <ele>1.059</ele>
        <time>1970-01-01T00:10:42Z</time>
      </trkpt>
      <trkpt lat="40.773992" lon="0.535740">
        <ele>1.312</ele>
        <time>1970-01-01T00:10:43Z</time>
      </trkpt>
      <trkpt lat="40.773954" lon="0.535770">
        <ele>1.542</ele>
        <time>1970-01-01T00:10:44Z</time>
      </trkpt>
      <trkpt lat="40.773921" lon="0.535794">
        <ele>1.768</ele>
        <time>1970-01-01T00:10:45Z</time>
      </trkpt>
      <trkpt lat="40.773893" lon="0.535816">
        <ele>1.942</ele>
        <time>1970-01-01T00:10:46Z</time>
      </trkpt>
      <trkpt lat="40.773870" lon="0.535836">
        <ele>1.953</ele>
        <time>1970-01-01T00:10:47Z</time>
      </trkpt>
      <trkpt lat="40.773850" lon="0.535856">
        <ele>1.712</ele>
        <time>1970-01-01T00:10:48Z</time>
      </trkpt>
      <trkpt lat="40.773832" lon="0.535874">
        <ele>1.632</ele>
        <time>1970-01-01T00:10:49Z</time>
      </trkpt>
      <trkpt lat="40.773813" lon="0.535891">
        <ele>1.505</ele>
        <time>1970-01-01T00:10:50Z</time>
      </trkpt>
      <trkpt lat="40.773794" lon="0.535906">
        <ele>1.308</ele>
        <time>1970-01-01T00:10:51Z</time>
      </trkpt>
      <trkpt lat="40.773776" lon="0.535920">
        <ele>1.278</ele>
        <time>1970-01-01T00:10:52Z</time>
      </trkpt>
      <trkpt lat="40.773757" lon="0.535931">
        <ele>1.195</ele>
        <time>1970-01-01T00:10:53Z</time>
      </trkpt>
      <trkpt lat="40.773741" lon="0.535947">
        <ele>0.916</ele>
        <time>1970-01-01T00:10:54Z</time>
      </trkpt>
      <trkpt lat="40.773735" lon="0.535966">
        <ele>0.929</ele>
        <time>1970-01-01T00:10:55Z</time>
      </trkpt>
      <trkpt lat="40.773741" lon="0.535985">
        <ele>0.919</ele>
        <time>1970-01-01T00:10:56Z</time>
      </trkpt>
      <trkpt lat="40.773756" lon="0.535992">
        <ele>1.025</ele>
        <time>1970-01-01T00:10:57Z</time>
      </trkpt>
      <trkpt lat="40.773777" lon="0.535980">
        <ele>1.249</ele>
        <time>1970-01-01T00:10:58Z</time>
      </trkpt>
      <trkpt lat="40.773799" lon="0.535959">
        <ele>1.480</ele>
        <time>1970-01-01T00:10:59Z</time>
      </trkpt>
      <trkpt lat="40.773822" lon="0.535932">
        <ele>1.537</ele>
        <time>1970-01-01T00:11:00Z</time>
      </trkpt>
      <trkpt lat="40.773847" lon="0.535898">
        <ele>1.749</ele>
        <time>1970-01-01T00:11:01Z</time>
      </trkpt>
      <trkpt lat="40.773876" lon="0.535863">
        <ele>1.913</ele>
        <time>1970-01-01T00:11:02Z</time>
      </trkpt>
      <trkpt lat="40.773908" lon="0.535831">
        <ele>1.908</ele>
        <time>1970-01-01T00:11:03Z</time>
      </trkpt>
      <trkpt lat="40.773943" lon="0.535799">
        <ele>1.750</ele>
        <time>1970-01-01T00:11:04Z</time>
      </trkpt>
      <trkpt lat="40.773980" lon="0.535767">
        <ele>1.427</ele>
        <time>1970-01-01T00:11:05Z</time>
      </trkpt>
      <trkpt lat="40.774019" lon="0.535737">
        <ele>1.238</ele>
        <time>1970-01-01T00:11:06Z</time>
      </trkpt>
      <trkpt lat="40.774058" lon="0.535705">
        <ele>0.921</ele>
        <time>1970-01-01T00:11:07Z</time>
      </trkpt>
      <trkpt lat="40.774098" lon="0.535673">
        <ele>0.741</ele>
        <time>1970-01-01T00:11:08Z</time>
      </trkpt>
      <trkpt lat="40.774138" lon="0.535642">
        <ele>0.497</ele>
        <time>1970-01-01T00:11:09Z</time>
      </trkpt>
      <trkpt lat="40.774177" lon="0.535608">
        <ele>0.371</ele>
        <time>1970-01-01T00:11:10Z</time>
      </trkpt>
      <trkpt lat="40.774217" lon="0.535573">
        <ele>0.432</ele>
        <time>1970-01-01T00:11:11Z</time>
      </trkpt>
      <trkpt lat="40.774257" lon="0.535539">
        <ele>0.639</ele>
        <time>1970-01-01T00:11:12Z</time>
      </trkpt>
      <trkpt lat="40.774296" lon="0.535504">
        <ele>0.901</ele>
        <time>1970-01-01T00:11:13Z</time>
      </trkpt>
      <trkpt lat="40.774335" lon="0.535471">
        <ele>1.321</ele>
        <time>1970-01-01T00:11:14Z</time>
      </trkpt>
      <trkpt lat="40.774374" lon="0.535439">
        <ele>1.708</ele>
        <time>1970-01-01T00:11:15Z</time>
      </trkpt>
      <trkpt lat="40.774413" lon="0.535406">
        <ele>2.210</ele>
        <time>1970-01-01T00:11:16Z</time>
      </trkpt>
      <trkpt lat="40.774452" lon="0.535372">
        <ele>2.777</ele>
        <time>1970-01-01T00:11:17Z</time>
      </trkpt>
      <trkpt lat="40.774491" lon="0.535340">
        <ele>2.828</ele>
        <time>1970-01-01T00:11:18Z</time>
      </trkpt>
      <trkpt lat="40.774531" lon="0.535308">
        <ele>2.951</ele>
        <time>1970-01-01T00:11:19Z</time>
      </trkpt>
      <trkpt lat="40.774570" lon="0.535278">
        <ele>3.011</ele>
        <time>1970-01-01T00:11:20Z</time>
      </trkpt>
      <trkpt lat="40.774609" lon="0.535247">
        <ele>3.157</ele>
        <time>1970-01-01T00:11:21Z</time>
      </trkpt>
      <trkpt lat="40.774644" lon="0.535216">
        <ele>3.251</ele>
        <time>1970-01-01T00:11:22Z</time>
      </trkpt>
      <trkpt lat="40.774672" lon="0.535179">
        <ele>3.312</ele>
        <time>1970-01-01T00:11:23Z</time>
      </trkpt>
      <trkpt lat="40.774684" lon="0.535134">
        <ele>3.495</ele>
        <time>1970-01-01T00:11:24Z</time>
      </trkpt>
      <trkpt lat="40.774675" lon="0.535087">
        <ele>3.649</ele>
        <time>1970-01-01T00:11:25Z</time>
      </trkpt>
      <trkpt lat="40.774655" lon="0.535041">
        <ele>3.623</ele>
        <time>1970-01-01T00:11:26Z</time>
      </trkpt>
      <trkpt lat="40.774632" lon="0.534993">
        <ele>3.608</ele>
        <time>1970-01-01T00:11:27Z</time>
      </trkpt>
      <trkpt lat="40.774609" lon="0.534943">
        <ele>3.296</ele>
        <time>1970-01-01T00:11:28Z</time>
      </trkpt>
      <trkpt lat="40.774585" lon="0.534891">
        <ele>2.753</ele>
        <time>1970-01-01T00:11:29Z</time>
      </trkpt>
      <trkpt lat="40.774563" lon="0.534839">
        <ele>2.364</ele>
        <time>1970-01-01T00:11:30Z</time>
      </trkpt>
      <trkpt lat="40.774538" lon="0.534785">
        <ele>1.827</ele>
        <time>1970-01-01T00:11:31Z</time>
      </trkpt>
      <trkpt lat="40.774506" lon="0.534740">
        <ele>1.467</ele>
        <time>1970-01-01T00:11:32Z</time>
      </trkpt>
      <trkpt lat="40.774462" lon="0.534714">
        <ele>1.073</ele>
        <time>1970-01-01T00:11:33Z</time>
      </trkpt>
      <trkpt lat="40.774413" lon="0.534712">
        <ele>1.027</ele>
        <time>1970-01-01T00:11:34Z</time>
      </trkpt>
      <trkpt lat="40.774366" lon="0.534731">
        <ele>1.058</ele>
        <time>1970-01-01T00:11:35Z</time>
      </trkpt>
      <trkpt lat="40.774318" lon="0.534760">
        <ele>1.034</ele>
        <time>1970-01-01T00:11:36Z</time>
      </trkpt>
      <trkpt lat="40.774270" lon="0.534791">
        <ele>0.755</ele>
        <time>1970-01-01T00:11:37Z</time>
      </trkpt>
      <trkpt lat="40.774221" lon="0.534821">
        <ele>0.310</ele>
        <time>1970-01-01T00:11:38Z</time>
      </trkpt>
      <trkpt lat="40.774173" lon="0.534850">
        <ele>-0.308</ele>
        <time>1970-01-01T00:11:39Z</time>
      </trkpt>
      <trkpt lat="40.774123" lon="0.534878">
        <ele>-0.450</ele>
        <time>1970-01-01T00:11:40Z</time>
      </trkpt>
      <trkpt lat="40.774073" lon="0.534907">
        <ele>-0.347</ele>
        <time>1970-01-01T00:11:41Z</time>
      </trkpt>
      <trkpt lat="40.774023" lon="0.534935">
        <ele>-0.198</ele>
        <time>1970-01-01T00:11:42Z</time>
      </trkpt>
      <trkpt lat="40.773972" lon="0.534961">
        <ele>0.261</ele>
        <time>1970-01-01T00:11:43Z</time>
      </trkpt>
      <trkpt lat="40.773921" lon="0.534986">
        <ele>0.771</ele>
        <time>1970-01-01T00:11:44Z</time>
      </trkpt>
      <trkpt lat="40.773868" lon="0.535008">
        <ele>0.937</ele>
        <time>1970-01-01T00:11:45Z</time>
      </trkpt>
      <trkpt lat="40.773816" lon="0.535029">
        <ele>0.711</ele>
        <time>1970-01-01T00:11:46Z</time>
      </trkpt>
      <trkpt lat="40.773763" lon="0.535047">
        <ele>0.662</ele>
        <time>1970-01-01T00:11:47Z</time>
      </trkpt>
      <trkpt lat="40.773710" lon="0.535066">
        <ele>0.492</ele>
        <time>1970-01-01T00:11:48Z</time>
      </trkpt>
      <trkpt lat="40.773656" lon="0.535083">
        <ele>0.473</ele>
        <time>1970-01-01T00:11:49Z</time>
      </trkpt>
      <trkpt lat="40.773602" lon="0.535099">
        <ele>0.320</ele>
        <time>1970-01-01T00:11:50Z</time>
      </trkpt>
      <trkpt lat="40.773548" lon="0.535114">
        <ele>-0.008</ele>
        <time>1970-01-01T00:11:51Z</time>
      </trkpt>
      <trkpt lat="40.773493" lon="0.535129">
        <ele>-0.366</ele>
        <time>1970-01-01T00:11:52Z</time>
      </trkpt>
      <trkpt lat="40.773438" lon="0.535143">
        <ele>-0.753</ele>
        <time>1970-01-01T00:11:53Z</time>
      </trkpt>
      <trkpt lat="40.773384" lon="0.535158">
        <ele>-1.134</ele>
        <time>1970-01-01T00:11:54Z</time>
      </trkpt>
      <trkpt lat="40.773329" lon="0.535175">
        <ele>-1.567</ele>
        <time>1970-01-01T00:11:55Z</time>
      </trkpt>
      <trkpt lat="40.773272" lon="0.535190">
        <ele>-1.457</ele>
        <time>1970-01-01T00:11:56Z</time>
      </trkpt>
      <trkpt lat="40.773214" lon="0.535204">
        <ele>-1.353</ele>
        <time>1970-01-01T00:11:57Z</time>
      </trkpt>
      <trkpt lat="40.773154" lon="0.535218">
        <ele>-1.127</ele>
        <time>1970-01-01T00:11:58Z</time>
      </trkpt>
      <trkpt lat="40.773095" lon="0.535229">
        <ele>-0.928</ele>
        <time>1970-01-01T00:11:59Z</time>
      </trkpt>
      <trkpt lat="40.773032" lon="0.535240">
        <ele>-0.643</ele>
        <time>1970-01-01T00:12:00Z</time>
      </trkpt>
      <trkpt lat="40.772971" lon="0.535250">
        <ele>-0.364</ele>
        <time>1970-01-01T00:12:01Z</time>
      </trkpt>
      <trkpt lat="40.772910" lon="0.535261">
        <ele>0.110</ele>
        <time>1970-01-01T00:12:02Z</time>
      </trkpt>
      <trkpt lat="40.772846" lon="0.535268">
        <ele>0.508</ele>
        <time>1970-01-01T00:12:03Z</time>
      </trkpt>
      <trkpt lat="40.772781" lon="0.535265">
        <ele>1.071</ele>
        <time>1970-01-01T00:12:04Z</time>
      </trkpt>
      <trkpt lat="40.772718" lon="0.535250">
        <ele>1.258</ele>
        <time>1970-01-01T00:12:05Z</time>
      </trkpt>
      <trkpt lat="40.772654" lon="0.535232">
        <ele>1.499</ele>
        <time>1970-01-01T00:12:06Z</time>
      </trkpt>
      <trkpt lat="40.772592" lon="0.535212">
        <ele>1.592</ele>
        <time>1970-01-01T00:12:07Z</time>
      </trkpt>
      <trkpt lat="40.772530" lon="0.535193">
        <ele>1.612</ele>
        <time>1970-01-01T00:12:08Z</time>
      </trkpt>
      <trkpt lat="40.772467" lon="0.535181">
        <ele>1.648</ele>
        <time>1970-01-01T00:12:09Z</time>
      </trkpt>
      <trkpt lat="40.772405" lon="0.535182">
        <ele>1.422</ele>
        <time>1970-01-01T00:12:10Z</time>
      </trkpt>
      <trkpt lat="40.772344" lon="0.535195">
        <ele>1.373</ele>
        <time>1970-01-01T00:12:11Z</time>
      </trkpt>
      <trkpt lat="40.772283" lon="0.535215">
        <ele>1.247</ele>
        <time>1970-01-01T00:12:12Z</time>
      </trkpt>
      <trkpt lat="40.772223" lon="0.535238">
        <ele>1.029</ele>
        <time>1970-01-01T00:12:13Z</time>
      </trkpt>
      <trkpt lat="40.772163" lon="0.535261">
        <ele>1.021</ele>
        <time>1970-01-01T00:12:14Z</time>
      </trkpt>
      <trkpt lat="40.772104" lon="0.535286">
        <ele>1.108</ele>
        <time>1970-01-01T00:12:15Z</time>
      </trkpt>
      <trkpt lat="40.772046" lon="0.535313">
        <ele>1.381</ele>
        <time>1970-01-01T00:12:16Z</time>
      </trkpt>
      <trkpt lat="40.771989" lon="0.535340">
        <ele>1.418</ele>
        <time>1970-01-01T00:12:17Z</time>
      </trkpt>
      <trkpt lat="40.771931" lon="0.535365">
        <ele>1.649</ele>
        <time>1970-01-01T00:12:18Z</time>
      </trkpt>
      <trkpt lat="40.771872" lon="0.535389">
        <ele>1.612</ele>
        <time>1970-01-01T00:12:19Z</time>
      </trkpt>
      <trkpt lat="40.771814" lon="0.535414">
        <ele>1.522</ele>
        <time>1970-01-01T00:12:20Z</time>
      </trkpt>
      <trkpt lat="40.771753" lon="0.535440">
        <ele>1.458</ele>
        <time>1970-01-01T00:12:21Z</time>
      </trkpt>
      <trkpt lat="40.771692" lon="0.535464">
        <ele>1.132</ele>
        <time>1970-01-01T00:12:22Z</time>
      </trkpt>
      <trkpt lat="40.771631" lon="0.535488">
        <ele>0.893</ele>
        <time>1970-01-01T00:12:23Z</time>
      </trkpt>
      <trkpt lat="40.771570" lon="0.535514">
        <ele>0.483</ele>
        <time>1970-01-01T00:12:24Z</time>
      </trkpt>
      <trkpt lat="40.771509" lon="0.535540">
        <ele>-0.125</ele>
        <time>1970-01-01T00:12:25Z</time>
      </trkpt>
      <trkpt lat="40.771448" lon="0.535565">
        <ele>-0.517</ele>
        <time>1970-01-01T00:12:26Z</time>
      </trkpt>
      <trkpt lat="40.771387" lon="0.535589">
        <ele>-0.908</ele>
        <time>1970-01-01T00:12:27Z</time>
      </trkpt>
      <trkpt lat="40.771325" lon="0.535613">
        <ele>-1.255</ele>
        <time>1970-01-01T00:12:28Z</time>
      </trkpt>
      <trkpt lat="40.771264" lon="0.535639">
        <ele>-1.522</ele>
        <time>1970-01-01T00:12:29Z</time>
      </trkpt>
      <trkpt lat="40.771203" lon="0.535665">
        <ele>-1.793</ele>
        <time>1970-01-01T00:12:30Z</time>
      </trkpt>
      <trkpt lat="40.771142" lon="0.535691">
        <ele>-1.916</ele>
        <time>1970-01-01T00:12:31Z</time>
      </trkpt>
      <trkpt lat="40.771081" lon="0.535719">
        <ele>-1.756</ele>
        <time>1970-01-01T00:12:32Z</time>
      </trkpt>
      <trkpt lat="40.771020" lon="0.535746">
        <ele>-1.142</ele>
        <time>1970-01-01T00:12:33Z</time>
      </trkpt>
      <trkpt lat="40.770958" lon="0.535771">
        <ele>-0.576</ele>
        <time>1970-01-01T00:12:34Z</time>
      </trkpt>
      <trkpt lat="40.770897" lon="0.535793">
        <ele>0.157</ele>
        <time>1970-01-01T00:12:35Z</time>
      </trkpt>
      <trkpt lat="40.770834" lon="0.535813">
        <ele>0.838</ele>
        <time>1970-01-01T00:12:36Z</time>
      </trkpt>
      <trkpt lat="40.770771" lon="0.535828">
        <ele>1.070</ele>
        <time>1970-01-01T00:12:37Z</time>
      </trkpt>
      <trkpt lat="40.770708" lon="0.535840">
        <ele>1.017</ele>
        <time>1970-01-01T00:12:38Z</time>
      </trkpt>
      <trkpt lat="40.770645" lon="0.535849">
        <ele>1.108</ele>
        <time>1970-01-01T00:12:39Z</time>
      </trkpt>
      <trkpt lat="40.770582" lon="0.535855">
        <ele>1.140</ele>
        <time>1970-01-01T00:12:40Z</time>
      </trkpt>
      <trkpt lat="40.770518" lon="0.535859">
        <ele>1.027</ele>
        <time>1970-01-01T00:12:41Z</time>
      </trkpt>
      <trkpt lat="40.770455" lon="0.535865">
        <ele>0.838</ele>
        <time>1970-01-01T00:12:42Z</time>
      </trkpt>
      <trkpt lat="40.770391" lon="0.535875">
        <ele>0.621</ele>
        <time>1970-01-01T00:12:43Z</time>
      </trkpt>
      <trkpt lat="40.770328" lon="0.535889">
        <ele>0.431</ele>
        <time>1970-01-01T00:12:44Z</time>
      </trkpt>
      <trkpt lat="40.770266" lon="0.535906">
        <ele>0.327</ele>
        <time>1970-01-01T00:12:45Z</time>
      </trkpt>
      <trkpt lat="40.770204" lon="0.535931">
        <ele>0.491</ele>
        <time>1970-01-01T00:12:46Z</time>
      </trkpt>
      <trkpt lat="40.770144" lon="0.535959">
        <ele>0.782</ele>
        <time>1970-01-01T00:12:47Z</time>
      </trkpt>
      <trkpt lat="40.770084" lon="0.535989">
        <ele>1.079</ele>
        <time>1970-01-01T00:12:48Z</time>
      </trkpt>
      <trkpt lat="40.770023" lon="0.536020">
        <ele>1.305</ele>
        <time>1970-01-01T00:12:49Z</time>
      </trkpt>
      <trkpt lat="40.769962" lon="0.536050">
        <ele>1.425</ele>
        <time>1970-01-01T00:12:50Z</time>
      </trkpt>
      <trkpt lat="40.769902" lon="0.536081">
        <ele>1.408</ele>
        <time>1970-01-01T00:12:51Z</time>
      </trkpt>
      <trkpt lat="40.769842" lon="0.536114">
        <ele>1.464</ele>
        <time>1970-01-01T00:12:52Z</time>
      </trkpt>
      <trkpt lat="40.769781" lon="0.536145">
        <ele>1.371</ele>
        <time>1970-01-01T00:12:53Z</time>
      </trkpt>
      <trkpt lat="40.769720" lon="0.536176">
        <ele>1.222</ele>
        <time>1970-01-01T00:12:54Z</time>
      </trkpt>
      <trkpt lat="40.769659" lon="0.536206">
        <ele>1.325</ele>
        <time>1970-01-01T00:12:55Z</time>
      </trkpt>
      <trkpt lat="40.769599" lon="0.536236">
        <ele>1.425</ele>
        <time>1970-01-01T00:12:56Z</time>
      </trkpt>
      <trkpt lat="40.769539" lon="0.536266">
        <ele>1.681</ele>
        <time>1970-01-01T00:12:57Z</time>
      </trkpt>
      <trkpt lat="40.769478" lon="0.536293">
        <ele>1.745</ele>
        <time>1970-01-01T00:12:58Z</time>
      </trkpt>
      <trkpt lat="40.769418" lon="0.536322">
        <ele>1.896</ele>
        <time>1970-01-01T00:12:59Z</time>
      </trkpt>
      <trkpt lat="40.769359" lon="0.536352">
        <ele>1.937</ele>
        <time>1970-01-01T00:13:00Z</time>
      </trkpt>
      <trkpt lat="40.769299" lon="0.536379">
        <ele>2.049</ele>
        <time>1970-01-01T00:13:01Z</time>
      </trkpt>
      <trkpt lat="40.769239" lon="0.536404">
        <ele>2.013</ele>
        <time>1970-01-01T00:13:02Z</time>
      </trkpt>
      <trkpt lat="40.769179" lon="0.536429">
        <ele>2.008</ele>
        <time>1970-01-01T00:13:03Z</time>
      </trkpt>
      <trkpt lat="40.769118" lon="0.536453">
        <ele>2.030</ele>
        <time>1970-01-01T00:13:04Z</time>
      </trkpt>
      <trkpt lat="40.769057" lon="0.536477">
        <ele>2.177</ele>
        <time>1970-01-01T00:13:05Z</time>
      </trkpt>
      <trkpt lat="40.768997" lon="0.536504">
        <ele>2.348</ele>
        <time>1970-01-01T00:13:06Z</time>
      </trkpt>
      <trkpt lat="40.768937" lon="0.536533">
        <ele>2.421</ele>
        <time>1970-01-01T00:13:07Z</time>
      </trkpt>
      <trkpt lat="40.768877" lon="0.536563">
        <ele>2.631</ele>
        <time>1970-01-01T00:13:08Z</time>
      </trkpt>
      <trkpt lat="40.768818" lon="0.536593">
        <ele>2.867</ele>
        <time>1970-01-01T00:13:09Z</time>
      </trkpt>
      <trkpt lat="40.768758" lon="0.536626">
        <ele>2.981</ele>
        <time>1970-01-01T00:13:10Z</time>
      </trkpt>
      <trkpt lat="40.768699" lon="0.536661">
        <ele>3.062</ele>
        <time>1970-01-01T00:13:11Z</time>
      </trkpt>
      <trkpt lat="40.768641" lon="0.536700">
        <ele>2.943</ele>
        <time>1970-01-01T00:13:12Z</time>
      </trkpt>
      <trkpt lat="40.768585" lon="0.536743">
        <ele>2.864</ele>
        <time>1970-01-01T00:13:13Z</time>
      </trkpt>
      <trkpt lat="40.768532" lon="0.536791">
        <ele>2.810</ele>
        <time>1970-01-01T00:13:14Z</time>
      </trkpt>
      <trkpt lat="40.768482" lon="0.536845">
        <ele>2.808</ele>
        <time>1970-01-01T00:13:15Z</time>
      </trkpt>
      <trkpt lat="40.768434" lon="0.536902">
        <ele>2.881</ele>
        <time>1970-01-01T00:13:16Z</time>
      </trkpt>
      <trkpt lat="40.768385" lon="0.536957">
        <ele>2.878</ele>
        <time>1970-01-01T00:13:17Z</time>
      </trkpt>
      <trkpt lat="40.768335" lon="0.537010">
        <ele>2.869</ele>
        <time>1970-01-01T00:13:18Z</time>
      </trkpt>
      <trkpt lat="40.768286" lon="0.537065">
        <ele>2.792</ele>
        <time>1970-01-01T00:13:19Z</time>
      </trkpt>
      <trkpt lat="40.768238" lon="0.537120">
        <ele>2.782</ele>
        <time>1970-01-01T00:13:20Z</time>
      </trkpt>
      <trkpt lat="40.768191" lon="0.537180">
        <ele>2.748</ele>
        <time>1970-01-01T00:13:21Z</time>
      </trkpt>
      <trkpt lat="40.768143" lon="0.537238">
        <ele>2.612</ele>
        <time>1970-01-01T00:13:22Z</time>
      </trkpt>
      <trkpt lat="40.768096" lon="0.537298">
        <ele>2.663</ele>
        <time>1970-01-01T00:13:23Z</time>
      </trkpt>
      <trkpt lat="40.768047" lon="0.537357">
        <ele>2.549</ele>
        <time>1970-01-01T00:13:24Z</time>
      </trkpt>
      <trkpt lat="40.767998" lon="0.537414">
        <ele>2.102</ele>
        <time>1970-01-01T00:13:25Z</time>
      </trkpt>
      <trkpt lat="40.767949" lon="0.537471">
        <ele>1.722</ele>
        <time>1970-01-01T00:13:26Z</time>
      </trkpt>
      <trkpt lat="40.767897" lon="0.537527">
        <ele>1.408</ele>
        <time>1970-01-01T00:13:27Z</time>
      </trkpt>
      <trkpt lat="40.767847" lon="0.537581">
        <ele>1.281</ele>
        <time>1970-01-01T00:13:28Z</time>
      </trkpt>
      <trkpt lat="40.767797" lon="0.537636">
        <ele>1.148</ele>
        <time>1970-01-01T00:13:29Z</time>
      </trkpt>
      <trkpt lat="40.767747" lon="0.537689">
        <ele>1.099</ele>
        <time>1970-01-01T00:13:30Z</time>
      </trkpt>
      <trkpt lat="40.767697" lon="0.537744">
        <ele>1.042</ele>
        <time>1970-01-01T00:13:31Z</time>
      </trkpt>
      <trkpt lat="40.767645" lon="0.537797">
        <ele>1.092</ele>
        <time>1970-01-01T00:13:32Z</time>
      </trkpt>
      <trkpt lat="40.767593" lon="0.537848">
        <ele>1.088</ele>
        <time>1970-01-01T00:13:33Z</time>
      </trkpt>
      <trkpt lat="40.767542" lon="0.537898">
        <ele>1.022</ele>
        <time>1970-01-01T00:13:34Z</time>
      </trkpt>
      <trkpt lat="40.767489" lon="0.537949">
        <ele>1.053</ele>
        <time>1970-01-01T00:13:35Z</time>
      </trkpt>
      <trkpt lat="40.767436" lon="0.537999">
        <ele>0.858</ele>
        <time>1970-01-01T00:13:36Z</time>
      </trkpt>
      <trkpt lat="40.767382" lon="0.538049">
        <ele>0.652</ele>
        <time>1970-01-01T00:13:37Z</time>
      </trkpt>
      <trkpt lat="40.767328" lon="0.538098">
        <ele>0.517</ele>
        <time>1970-01-01T00:13:38Z</time>
      </trkpt>
      <trkpt lat="40.767275" lon="0.538146">
        <ele>0.508</ele>
        <time>1970-01-01T00:13:39Z</time>
      </trkpt>
      <trkpt lat="40.767222" lon="0.538194">
        <ele>0.562</ele>
        <time>1970-01-01T00:13:40Z</time>
      </trkpt>
      <trkpt lat="40.767169" lon="0.538240">
        <ele>0.539</ele>
        <time>1970-01-01T00:13:41Z</time>
      </trkpt>
      <trkpt lat="40.767115" lon="0.538286">
        <ele>0.530</ele>
        <time>1970-01-01T00:13:42Z</time>
      </trkpt>
      <trkpt lat="40.767060" lon="0.538331">
        <ele>0.473</ele>
        <time>1970-01-01T00:13:43Z</time>
      </trkpt>
      <trkpt lat="40.767004" lon="0.538377">
        <ele>0.443</ele>
        <time>1970-01-01T00:13:44Z</time>
      </trkpt>
      <trkpt lat="40.766950" lon="0.538424">
        <ele>0.459</ele>
        <time>1970-01-01T00:13:45Z</time>
      </trkpt>
      <trkpt lat="40.766895" lon="0.538470">
        <ele>0.653</ele>
        <time>1970-01-01T00:13:46Z</time>
      </trkpt>
      <trkpt lat="40.766839" lon="0.538514">
        <ele>0.854</ele>
        <time>1970-01-01T00:13:47Z</time>
      </trkpt>
      <trkpt lat="40.766783" lon="0.538558">
        <ele>0.928</ele>
        <time>1970-01-01T00:13:48Z</time>
      </trkpt>
      <trkpt lat="40.766728" lon="0.538604">
        <ele>1.089</ele>
        <time>1970-01-01T00:13:49Z</time>
      </trkpt>
      <trkpt lat="40.766673" lon="0.538652">
        <ele>1.017</ele>
        <time>1970-01-01T00:13:50Z</time>
      </trkpt>
      <trkpt lat="40.766619" lon="0.538701">
        <ele>0.908</ele>
        <time>1970-01-01T00:13:51Z</time>
      </trkpt>
      <trkpt lat="40.766565" lon="0.538752">
        <ele>0.869</ele>
        <time>1970-01-01T00:13:52Z</time>
      </trkpt>
      <trkpt lat="40.766513" lon="0.538806">
        <ele>0.656</ele>
        <time>1970-01-01T00:13:53Z</time>
      </trkpt>
      <trkpt lat="40.766461" lon="0.538858">
        <ele>0.337</ele>
        <time>1970-01-01T00:13:54Z</time>
      </trkpt>
      <trkpt lat="40.766409" lon="0.538911">
        <ele>0.180</ele>
        <time>1970-01-01T00:13:55Z</time>
      </trkpt>
      <trkpt lat="40.766358" lon="0.538966">
        <ele>0.040</ele>
        <time>1970-01-01T00:13:56Z</time>
      </trkpt>
      <trkpt lat="40.766308" lon="0.539021">
        <ele>0.086</ele>
        <time>1970-01-01T00:13:57Z</time>
      </trkpt>
      <trkpt lat="40.766258" lon="0.539076">
        <ele>0.060</ele>
        <time>1970-01-01T00:13:58Z</time>
      </trkpt>
      <trkpt lat="40.766208" lon="0.539131">
        <ele>0.041</ele>
        <time>1970-01-01T00:13:59Z</time>
      </trkpt>
      <trkpt lat="40.766157" lon="0.539185">
        <ele>0.033</ele>
        <time>1970-01-01T00:14:00Z</time>
      </trkpt>
      <trkpt lat="40.766106" lon="0.539239">
        <ele>0.023</ele>
        <time>1970-01-01T00:14:01Z</time>
      </trkpt>
      <trkpt lat="40.766058" lon="0.539294">
        <ele>0.215</ele>
        <time>1970-01-01T00:14:02Z</time>
      </trkpt>
      <trkpt lat="40.766009" lon="0.539351">
        <ele>0.408</ele>
        <time>1970-01-01T00:14:03Z</time>
      </trkpt>
      <trkpt lat="40.765960" lon="0.539408">
        <ele>0.530</ele>
        <time>1970-01-01T00:14:04Z</time>
      </trkpt>
      <trkpt lat="40.765912" lon="0.539466">
        <ele>0.717</ele>
        <time>1970-01-01T00:14:05Z</time>
      </trkpt>
      <trkpt lat="40.765863" lon="0.539525">
        <ele>0.958</ele>
        <time>1970-01-01T00:14:06Z</time>
      </trkpt>
      <trkpt lat="40.765815" lon="0.539584">
        <ele>0.971</ele>
        <time>1970-01-01T00:14:07Z</time>
      </trkpt>
      <trkpt lat="40.765766" lon="0.539642">
        <ele>0.831</ele>
        <time>1970-01-01T00:14:08Z</time>
      </trkpt>
      <trkpt lat="40.765715" lon="0.539700">
        <ele>0.647</ele>
        <time>1970-01-01T00:14:09Z</time>
      </trkpt>
      <trkpt lat="40.765664" lon="0.539757">
        <ele>0.481</ele>
        <time>1970-01-01T00:14:10Z</time>
      </trkpt>
      <trkpt lat="40.765612" lon="0.539812">
        <ele>0.242</ele>
        <time>1970-01-01T00:14:11Z</time>
      </trkpt>
      <trkpt lat="40.765559" lon="0.539869">
        <ele>0.079</ele>
        <time>1970-01-01T00:14:12Z</time>
      </trkpt>
      <trkpt lat="40.765509" lon="0.539926">
        <ele>0.105</ele>
        <time>1970-01-01T00:14:13Z</time>
      </trkpt>
      <trkpt lat="40.765459" lon="0.539986">
        <ele>0.325</ele>
        <time>1970-01-01T00:14:14Z</time>
      </trkpt>
      <trkpt lat="40.765411" lon="0.540046">
        <ele>0.908</ele>
        <time>1970-01-01T00:14:15Z</time>
      </trkpt>
      <trkpt lat="40.765363" lon="0.540104">
        <ele>1.734</ele>
        <time>1970-01-01T00:14:16Z</time>
      </trkpt>
      <trkpt lat="40.765315" lon="0.540160">
        <ele>2.571</ele>
        <time>1970-01-01T00:14:17Z</time>
      </trkpt>
      <trkpt lat="40.765266" lon="0.540215">
        <ele>3.392</ele>
        <time>1970-01-01T00:14:18Z</time>
      </trkpt>
      <trkpt lat="40.765216" lon="0.540270">
        <ele>3.525</ele>
        <time>1970-01-01T00:14:19Z</time>
      </trkpt>
      <trkpt lat="40.765165" lon="0.540324">
        <ele>3.265</ele>
        <time>1970-01-01T00:14:20Z</time>
      </trkpt>
      <trkpt lat="40.765116" lon="0.540376">
        <ele>2.821</ele>
        <time>1970-01-01T00:14:21Z</time>
      </trkpt>
      <trkpt lat="40.765066" lon="0.540429">
        <ele>2.565</ele>
        <time>1970-01-01T00:14:22Z</time>
      </trkpt>
      <trkpt lat="40.765015" lon="0.540482">
        <ele>2.146</ele>
        <time>1970-01-01T00:14:23Z</time>
      </trkpt>
      <trkpt lat="40.764963" lon="0.540535">
        <ele>2.099</ele>
        <time>1970-01-01T00:14:24Z</time>
      </trkpt>
      <trkpt lat="40.764911" lon="0.540587">
        <ele>2.007</ele>
        <time>1970-01-01T00:14:25Z</time>
      </trkpt>
      <trkpt lat="40.764859" lon="0.540642">
        <ele>2.027</ele>
        <time>1970-01-01T00:14:26Z</time>
      </trkpt>
      <trkpt lat="40.764808" lon="0.540697">
        <ele>2.008</ele>
        <time>1970-01-01T00:14:27Z</time>
      </trkpt>
      <trkpt lat="40.764757" lon="0.540755">
        <ele>2.046</ele>
        <time>1970-01-01T00:14:28Z</time>
      </trkpt>
      <trkpt lat="40.764707" lon="0.540812">
        <ele>2.143</ele>
        <time>1970-01-01T00:14:29Z</time>
      </trkpt>
      <trkpt lat="40.764658" lon="0.540871">
        <ele>2.264</ele>
        <time>1970-01-01T00:14:30Z</time>
      </trkpt>
      <trkpt lat="40.764610" lon="0.540930">
        <ele>2.487</ele>
        <time>1970-01-01T00:14:31Z</time>
      </trkpt>
      <trkpt lat="40.764563" lon="0.540992">
        <ele>2.677</ele>
        <time>1970-01-01T00:14:32Z</time>
      </trkpt>
      <trkpt lat="40.764515" lon="0.541052">
        <ele>2.713</ele>
        <time>1970-01-01T00:14:33Z</time>
      </trkpt>
      <trkpt lat="40.764468" lon="0.541112">
        <ele>2.917</ele>
        <time>1970-01-01T00:14:34Z</time>
      </trkpt>
      <trkpt lat="40.764419" lon="0.541172">
        <ele>2.868</ele>
        <time>1970-01-01T00:14:35Z</time>
      </trkpt>
      <trkpt lat="40.764370" lon="0.541233">
        <ele>2.668</ele>
        <time>1970-01-01T00:14:36Z</time>
      </trkpt>
      <trkpt lat="40.764323" lon="0.541293">
        <ele>2.342</ele>
        <time>1970-01-01T00:14:37Z</time>
      </trkpt>
      <trkpt lat="40.764275" lon="0.541353">
        <ele>2.126</ele>
        <time>1970-01-01T00:14:38Z</time>
      </trkpt>
      <trkpt lat="40.764226" lon="0.541411">
        <ele>1.908</ele>
        <time>1970-01-01T00:14:39Z</time>
      </trkpt>
      <trkpt lat="40.764178" lon="0.541468">
        <ele>1.713</ele>
        <time>1970-01-01T00:14:40Z</time>
      </trkpt>
      <trkpt lat="40.764131" lon="0.541526">
        <ele>1.650</ele>
        <time>1970-01-01T00:14:41Z</time>
      </trkpt>
      <trkpt lat="40.764083" lon="0.541582">
        <ele>1.531</ele>
        <time>1970-01-01T00:14:42Z</time>
      </trkpt>
      <trkpt lat="40.764035" lon="0.541636">
        <ele>1.514</ele>
        <time>1970-01-01T00:14:43Z</time>
      </trkpt>
      <trkpt lat="40.763986" lon="0.541688">
        <ele>1.684</ele>
        <time>1970-01-01T00:14:44Z</time>
      </trkpt>
      <trkpt lat="40.763936" lon="0.541742">
        <ele>1.760</ele>
        <time>1970-01-01T00:14:45Z</time>
      </trkpt>
      <trkpt lat="40.763886" lon="0.541797">
        <ele>1.584</ele>
        <time>1970-01-01T00:14:46Z</time>
      </trkpt>
      <trkpt lat="40.763837" lon="0.541853">
        <ele>1.525</ele>
        <time>1970-01-01T00:14:47Z</time>
      </trkpt>
      <trkpt lat="40.763788" lon="0.541909">
        <ele>1.454</ele>
        <time>1970-01-01T00:14:48Z</time>
      </trkpt>
      <trkpt lat="40.763738" lon="0.541964">
        <ele>1.556</ele>
        <time>1970-01-01T00:14:49Z</time>
      </trkpt>
      <trkpt lat="40.763689" lon="0.542020">
        <ele>1.711</ele>
        <time>1970-01-01T00:14:50Z</time>
      </trkpt>
      <trkpt lat="40.763640" lon="0.542075">
        <ele>1.908</ele>
        <time>1970-01-01T00:14:51Z</time>
      </trkpt>
      <trkpt lat="40.763592" lon="0.542129">
        <ele>2.142</ele>
        <time>1970-01-01T00:14:52Z</time>
      </trkpt>
      <trkpt lat="40.763544" lon="0.542184">
        <ele>2.559</ele>
        <time>1970-01-01T00:14:53Z</time>
      </trkpt>
      <trkpt lat="40.763497" lon="0.542240">
        <ele>2.880</ele>
        <time>1970-01-01T00:14:54Z</time>
      </trkpt>
      <trkpt lat="40.763450" lon="0.542294">
        <ele>2.913</ele>
        <time>1970-01-01T00:14:55Z</time>
      </trkpt>
      <trkpt lat="40.763403" lon="0.542348">
        <ele>3.083</ele>
        <time>1970-01-01T00:14:56Z</time>
      </trkpt>
      <trkpt lat="40.763358" lon="0.542401">
        <ele>3.239</ele>
        <time>1970-01-01T00:14:57Z</time>
      </trkpt>
      <trkpt lat="40.763315" lon="0.542451">
        <ele>3.243</ele>
        <time>1970-01-01T00:14:58Z</time>
      </trkpt>
      <trkpt lat="40.763274" lon="0.542501">
        <ele>3.294</ele>
        <time>1970-01-01T00:14:59Z</time>
      </trkpt>
      <trkpt lat="40.763235" lon="0.542550">
        <ele>3.174</ele>
        <time>1970-01-01T00:15:00Z</time>
      </trkpt>
      <trkpt lat="40.763197" lon="0.542599">
        <ele>3.056</ele>
        <time>1970-01-01T00:15:01Z</time>
      </trkpt>
      <trkpt lat="40.763159" lon="0.542648">
        <ele>2.921</ele>
        <time>1970-01-01T00:15:02Z</time>
      </trkpt>
      <trkpt lat="40.763119" lon="0.542696">
        <ele>2.908</ele>
        <time>1970-01-01T00:15:03Z</time>
      </trkpt>
      <trkpt lat="40.763081" lon="0.542743">
        <ele>3.084</ele>
        <time>1970-01-01T00:15:04Z</time>
      </trkpt>
      <trkpt lat="40.763043" lon="0.542790">
        <ele>2.981</ele>
        <time>1970-01-01T00:15:05Z</time>
      </trkpt>
      <trkpt lat="40.763005" lon="0.542836">
        <ele>2.612</ele>
        <time>1970-01-01T00:15:06Z</time>
      </trkpt>
      <trkpt lat="40.762966" lon="0.542881">
        <ele>2.445</ele>
        <time>1970-01-01T00:15:07Z</time>
      </trkpt>
      <trkpt lat="40.762928" lon="0.542926">
        <ele>2.285</ele>
        <time>1970-01-01T00:15:08Z</time>
      </trkpt>
      <trkpt lat="40.762888" lon="0.542970">
        <ele>2.031</ele>
        <time>1970-01-01T00:15:09Z</time>
      </trkpt>
      <trkpt lat="40.762847" lon="0.543014">
        <ele>1.955</ele>
        <time>1970-01-01T00:15:10Z</time>
      </trkpt>
      <trkpt lat="40.762807" lon="0.543059">
        <ele>1.946</ele>
        <time>1970-01-01T00:15:11Z</time>
      </trkpt>
      <trkpt lat="40.762766" lon="0.543105">
        <ele>1.916</ele>
        <time>1970-01-01T00:15:12Z</time>
      </trkpt>
      <trkpt lat="40.762724" lon="0.543150">
        <ele>1.776</ele>
        <time>1970-01-01T00:15:13Z</time>
      </trkpt>
      <trkpt lat="40.762679" lon="0.543189">
        <ele>1.513</ele>
        <time>1970-01-01T00:15:14Z</time>
      </trkpt>
      <trkpt lat="40.762630" lon="0.543220">
        <ele>1.308</ele>
        <time>1970-01-01T00:15:15Z</time>
      </trkpt>
      <trkpt lat="40.762581" lon="0.543250">
        <ele>1.168</ele>
        <time>1970-01-01T00:15:16Z</time>
      </trkpt>
      <trkpt lat="40.762534" lon="0.543284">
        <ele>1.025</ele>
        <time>1970-01-01T00:15:17Z</time>
      </trkpt>
      <trkpt lat="40.762487" lon="0.543318">
        <ele>0.986</ele>
        <time>1970-01-01T00:15:18Z</time>
      </trkpt>
      <trkpt lat="40.762442" lon="0.543356">
        <ele>1.099</ele>
        <time>1970-01-01T00:15:19Z</time>
      </trkpt>
      <trkpt lat="40.762404" lon="0.543398">
        <ele>1.159</ele>
        <time>1970-01-01T00:15:20Z</time>
      </trkpt>
      <trkpt lat="40.762369" lon="0.543450">
        <ele>1.235</ele>
        <time>1970-01-01T00:15:21Z</time>
      </trkpt>
      <trkpt lat="40.762339" lon="0.543510">
        <ele>1.499</ele>
        <time>1970-01-01T00:15:22Z</time>
      </trkpt>
      <trkpt lat="40.762317" lon="0.543577">
        <ele>1.610</ele>
        <time>1970-01-01T00:15:23Z</time>
      </trkpt>
      <trkpt lat="40.762303" lon="0.543649">
        <ele>1.787</ele>
        <time>1970-01-01T00:15:24Z</time>
      </trkpt>
      <trkpt lat="40.762293" lon="0.543722">
        <ele>1.842</ele>
        <time>1970-01-01T00:15:25Z</time>
      </trkpt>
      <trkpt lat="40.762292" lon="0.543797">
        <ele>1.926</ele>
        <time>1970-01-01T00:15:26Z</time>
      </trkpt>
      <trkpt lat="40.762293" lon="0.543874">
        <ele>2.008</ele>
        <time>1970-01-01T00:15:27Z</time>
      </trkpt>
      <trkpt lat="40.762296" lon="0.543952">
        <ele>2.265</ele>
        <time>1970-01-01T00:15:28Z</time>
      </trkpt>
      <trkpt lat="40.762299" lon="0.544032">
        <ele>2.482</ele>
        <time>1970-01-01T00:15:29Z</time>
      </trkpt>
      <trkpt lat="40.762303" lon="0.544111">
        <ele>2.613</ele>
        <time>1970-01-01T00:15:30Z</time>
      </trkpt>
      <trkpt lat="40.762308" lon="0.544187">
        <ele>2.676</ele>
        <time>1970-01-01T00:15:31Z</time>
      </trkpt>
      <trkpt lat="40.762311" lon="0.544263">
        <ele>2.466</ele>
        <time>1970-01-01T00:15:32Z</time>
      </trkpt>
      <trkpt lat="40.762311" lon="0.544339">
        <ele>2.322</ele>
        <time>1970-01-01T00:15:33Z</time>
      </trkpt>
      <trkpt lat="40.762310" lon="0.544414">
        <ele>2.186</ele>
        <time>1970-01-01T00:15:34Z</time>
      </trkpt>
      <trkpt lat="40.762306" lon="0.544490">
        <ele>2.077</ele>
        <time>1970-01-01T00:15:35Z</time>
      </trkpt>
      <trkpt lat="40.762300" lon="0.544565">
        <ele>1.988</ele>
        <time>1970-01-01T00:15:36Z</time>
      </trkpt>
      <trkpt lat="40.762294" lon="0.544639">
        <ele>1.824</ele>
        <time>1970-01-01T00:15:37Z</time>
      </trkpt>
      <trkpt lat="40.762286" lon="0.544713">
        <ele>1.826</ele>
        <time>1970-01-01T00:15:38Z</time>
      </trkpt>
      <trkpt lat="40.762277" lon="0.544787">
        <ele>1.808</ele>
        <time>1970-01-01T00:15:39Z</time>
      </trkpt>
      <trkpt lat="40.762270" lon="0.544860">
        <ele>1.945</ele>
        <time>1970-01-01T00:15:40Z</time>
      </trkpt>
      <trkpt lat="40.762263" lon="0.544933">
        <ele>2.062</ele>
        <time>1970-01-01T00:15:41Z</time>
      </trkpt>
      <trkpt lat="40.762254" lon="0.545005">
        <ele>2.013</ele>
        <time>1970-01-01T00:15:42Z</time>
      </trkpt>
      <trkpt lat="40.762243" lon="0.545078">
        <ele>2.056</ele>
        <time>1970-01-01T00:15:43Z</time>
      </trkpt>
      <trkpt lat="40.762234" lon="0.545151">
        <ele>2.036</ele>
        <time>1970-01-01T00:15:44Z</time>
      </trkpt>
      <trkpt lat="40.762225" lon="0.545226">
        <ele>2.092</ele>
        <time>1970-01-01T00:15:45Z</time>
      </trkpt>
      <trkpt lat="40.762215" lon="0.545300">
        <ele>2.146</ele>
        <time>1970-01-01T00:15:46Z</time>
      </trkpt>
      <trkpt lat="40.762205" lon="0.545372">
        <ele>2.347</ele>
        <time>1970-01-01T00:15:47Z</time>
      </trkpt>
      <trkpt lat="40.762192" lon="0.545444">
        <ele>2.617</ele>
        <time>1970-01-01T00:15:48Z</time>
      </trkpt>
      <trkpt lat="40.762172" lon="0.545512">
        <ele>2.887</ele>
        <time>1970-01-01T00:15:49Z</time>
      </trkpt>
      <trkpt lat="40.762145" lon="0.545576">
        <ele>3.015</ele>
        <time>1970-01-01T00:15:50Z</time>
      </trkpt>
      <trkpt lat="40.762111" lon="0.545634">
        <ele>3.108</ele>
        <time>1970-01-01T00:15:51Z</time>
      </trkpt>
      <trkpt lat="40.762071" lon="0.545688">
        <ele>3.398</ele>
        <time>1970-01-01T00:15:52Z</time>
      </trkpt>
      <trkpt lat="40.762029" lon="0.545738">
        <ele>3.515</ele>
        <time>1970-01-01T00:15:53Z</time>
      </trkpt>
      <trkpt lat="40.761988" lon="0.545789">
        <ele>3.766</ele>
        <time>1970-01-01T00:15:54Z</time>
      </trkpt>
      <trkpt lat="40.761946" lon="0.545840">
        <ele>4.059</ele>
        <time>1970-01-01T00:15:55Z</time>
      </trkpt>
      <trkpt lat="40.761904" lon="0.545893">
        <ele>4.239</ele>
        <time>1970-01-01T00:15:56Z</time>
      </trkpt>
      <trkpt lat="40.761861" lon="0.545946">
        <ele>4.515</ele>
        <time>1970-01-01T00:15:57Z</time>
      </trkpt>
      <trkpt lat="40.761819" lon="0.546002">
        <ele>4.989</ele>
        <time>1970-01-01T00:15:58Z</time>
      </trkpt>
      <trkpt lat="40.761776" lon="0.546059">
        <ele>5.360</ele>
        <time>1970-01-01T00:15:59Z</time>
      </trkpt>
      <trkpt lat="40.761732" lon="0.546115">
        <ele>5.863</ele>
        <time>1970-01-01T00:16:00Z</time>
      </trkpt>
      <trkpt lat="40.761687" lon="0.546168">
        <ele>6.144</ele>
        <time>1970-01-01T00:16:01Z</time>
      </trkpt>
      <trkpt lat="40.761642" lon="0.546223">
        <ele>6.218</ele>
        <time>1970-01-01T00:16:02Z</time>
      </trkpt>
      <trkpt lat="40.761597" lon="0.546280">
        <ele>6.008</ele>
        <time>1970-01-01T00:16:03Z</time>
      </trkpt>
      <trkpt lat="40.761553" lon="0.546337">
        <ele>5.963</ele>
        <time>1970-01-01T00:16:04Z</time>
      </trkpt>
      <trkpt lat="40.761509" lon="0.546395">
        <ele>5.930</ele>
        <time>1970-01-01T00:16:05Z</time>
      </trkpt>
      <trkpt lat="40.761467" lon="0.546454">
        <ele>5.931</ele>
        <time>1970-01-01T00:16:06Z</time>
      </trkpt>
      <trkpt lat="40.761425" lon="0.546515">
        <ele>5.884</ele>
        <time>1970-01-01T00:16:07Z</time>
      </trkpt>
      <trkpt lat="40.761384" lon="0.546577">
        <ele>5.614</ele>
        <time>1970-01-01T00:16:08Z</time>
      </trkpt>
      <trkpt lat="40.761342" lon="0.546638">
        <ele>5.580</ele>
        <time>1970-01-01T00:16:09Z</time>
      </trkpt>
      <trkpt lat="40.761299" lon="0.546699">
        <ele>5.464</ele>
        <time>1970-01-01T00:16:10Z</time>
      </trkpt>
      <trkpt lat="40.761254" lon="0.546759">
        <ele>5.265</ele>
        <time>1970-01-01T00:16:11Z</time>
      </trkpt>
      <trkpt lat="40.761210" lon="0.546819">
        <ele>4.919</ele>
        <time>1970-01-01T00:16:12Z</time>
      </trkpt>
      <trkpt lat="40.761166" lon="0.546879">
        <ele>4.509</ele>
        <time>1970-01-01T00:16:13Z</time>
      </trkpt>
      <trkpt lat="40.761124" lon="0.546941">
        <ele>4.119</ele>
        <time>1970-01-01T00:16:14Z</time>
      </trkpt>
      <trkpt lat="40.761082" lon="0.547003">
        <ele>3.908</ele>
        <time>1970-01-01T00:16:15Z</time>
      </trkpt>
      <trkpt lat="40.761040" lon="0.547064">
        <ele>3.788</ele>
        <time>1970-01-01T00:16:16Z</time>
      </trkpt>
      <trkpt lat="40.760997" lon="0.547126">
        <ele>3.625</ele>
        <time>1970-01-01T00:16:17Z</time>
      </trkpt>
      <trkpt lat="40.760953" lon="0.547187">
        <ele>3.416</ele>
        <time>1970-01-01T00:16:18Z</time>
      </trkpt>
      <trkpt lat="40.760911" lon="0.547251">
        <ele>3.329</ele>
        <time>1970-01-01T00:16:19Z</time>
      </trkpt>
      <trkpt lat="40.760871" lon="0.547316">
        <ele>3.199</ele>
        <time>1970-01-01T00:16:20Z</time>
      </trkpt>
      <trkpt lat="40.760832" lon="0.547382">
        <ele>3.015</ele>
        <time>1970-01-01T00:16:21Z</time>
      </trkpt>
      <trkpt lat="40.760793" lon="0.547447">
        <ele>3.049</ele>
        <time>1970-01-01T00:16:22Z</time>
      </trkpt>
      <trkpt lat="40.760753" lon="0.547512">
        <ele>3.020</ele>
        <time>1970-01-01T00:16:23Z</time>
      </trkpt>
      <trkpt lat="40.760715" lon="0.547577">
        <ele>2.951</ele>
        <time>1970-01-01T00:16:24Z</time>
      </trkpt>
      <trkpt lat="40.760679" lon="0.547643">
        <ele>2.701</ele>
        <time>1970-01-01T00:16:25Z</time>
      </trkpt>
      <trkpt lat="40.760641" lon="0.547709">
        <ele>2.511</ele>
        <time>1970-01-01T00:16:26Z</time>
      </trkpt>
      <trkpt lat="40.760604" lon="0.547777">
        <ele>2.208</ele>
        <time>1970-01-01T00:16:27Z</time>
      </trkpt>
      <trkpt lat="40.760567" lon="0.547846">
        <ele>2.192</ele>
        <time>1970-01-01T00:16:28Z</time>
      </trkpt>
      <trkpt lat="40.760531" lon="0.547915">
        <ele>2.079</ele>
        <time>1970-01-01T00:16:29Z</time>
      </trkpt>
      <trkpt lat="40.760495" lon="0.547987">
        <ele>1.990</ele>
        <time>1970-01-01T00:16:30Z</time>
      </trkpt>
      <trkpt lat="40.760458" lon="0.548059">
        <ele>2.043</ele>
        <time>1970-01-01T00:16:31Z</time>
      </trkpt>
      <trkpt lat="40.760421" lon="0.548132">
        <ele>2.493</ele>
        <time>1970-01-01T00:16:32Z</time>
      </trkpt>
      <trkpt lat="40.760385" lon="0.548204">
        <ele>2.729</ele>
        <time>1970-01-01T00:16:33Z</time>
      </trkpt>
      <trkpt lat="40.760348" lon="0.548276">
        <ele>3.053</ele>
        <time>1970-01-01T00:16:34Z</time>
      </trkpt>
      <trkpt lat="40.760311" lon="0.548349">
        <ele>3.254</ele>
        <time>1970-01-01T00:16:35Z</time>
      </trkpt>
      <trkpt lat="40.760275" lon="0.548421">
        <ele>3.386</ele>
        <time>1970-01-01T00:16:36Z</time>
      </trkpt>
      <trkpt lat="40.760239" lon="0.548493">
        <ele>3.660</ele>
        <time>1970-01-01T00:16:37Z</time>
      </trkpt>
      <trkpt lat="40.760204" lon="0.548565">
        <ele>3.826</ele>
        <time>1970-01-01T00:16:38Z</time>
      </trkpt>
      <trkpt lat="40.760170" lon="0.548638">
        <ele>4.008</ele>
        <time>1970-01-01T00:16:39Z</time>
      </trkpt>
      <trkpt lat="40.760135" lon="0.548710">
        <ele>4.055</ele>
        <time>1970-01-01T00:16:40Z</time>
      </trkpt>
      <trkpt lat="40.760101" lon="0.548782">
        <ele>4.092</ele>
        <time>1970-01-01T00:16:41Z</time>
      </trkpt>
      <trkpt lat="40.760067" lon="0.548853">
        <ele>4.063</ele>
        <time>1970-01-01T00:16:42Z</time>
      </trkpt>
      <trkpt lat="40.760032" lon="0.548924">
        <ele>3.736</ele>
        <time>1970-01-01T00:16:43Z</time>
      </trkpt>
      <trkpt lat="40.759998" lon="0.548994">
        <ele>3.256</ele>
        <time>1970-01-01T00:16:44Z</time>
      </trkpt>
      <trkpt lat="40.759964" lon="0.549065">
        <ele>2.812</ele>
        <time>1970-01-01T00:16:45Z</time>
      </trkpt>
      <trkpt lat="40.759930" lon="0.549135">
        <ele>2.426</ele>
        <time>1970-01-01T00:16:46Z</time>
      </trkpt>
      <trkpt lat="40.759896" lon="0.549204">
        <ele>2.237</ele>
        <time>1970-01-01T00:16:47Z</time>
      </trkpt>
      <trkpt lat="40.759862" lon="0.549273">
        <ele>2.171</ele>
        <time>1970-01-01T00:16:48Z</time>
      </trkpt>
      <trkpt lat="40.759829" lon="0.549343">
        <ele>2.041</ele>
        <time>1970-01-01T00:16:49Z</time>
      </trkpt>
      <trkpt lat="40.759797" lon="0.549413">
        <ele>1.815</ele>
        <time>1970-01-01T00:16:50Z</time>
      </trkpt>
      <trkpt lat="40.759765" lon="0.549484">
        <ele>2.008</ele>
        <time>1970-01-01T00:16:51Z</time>
      </trkpt>
      <trkpt lat="40.759732" lon="0.549554">
        <ele>2.454</ele>
        <time>1970-01-01T00:16:52Z</time>
      </trkpt>
      <trkpt lat="40.759699" lon="0.549622">
        <ele>2.641</ele>
        <time>1970-01-01T00:16:53Z</time>
      </trkpt>
      <trkpt lat="40.759666" lon="0.549691">
        <ele>2.922</ele>
        <time>1970-01-01T00:16:54Z</time>
      </trkpt>
      <trkpt lat="40.759634" lon="0.549760">
        <ele>3.135</ele>
        <time>1970-01-01T00:16:55Z</time>
      </trkpt>
      <trkpt lat="40.759600" lon="0.549828">
        <ele>3.445</ele>
        <time>1970-01-01T00:16:56Z</time>
      </trkpt>
      <trkpt lat="40.759566" lon="0.549897">
        <ele>3.691</ele>
        <time>1970-01-01T00:16:57Z</time>
      </trkpt>
      <trkpt lat="40.759532" lon="0.549967">
        <ele>3.915</ele>
        <time>1970-01-01T00:16:58Z</time>
      </trkpt>
      <trkpt lat="40.759497" lon="0.550037">
        <ele>4.046</ele>
        <time>1970-01-01T00:16:59Z</time>
      </trkpt>
      <trkpt lat="40.759462" lon="0.550108">
        <ele>4.065</ele>
        <time>1970-01-01T00:17:00Z</time>
      </trkpt>
      <trkpt lat="40.759428" lon="0.550179">
        <ele>3.968</ele>
        <time>1970-01-01T00:17:01Z</time>
      </trkpt>
      <trkpt lat="40.759393" lon="0.550251">
        <ele>3.814</ele>
        <time>1970-01-01T00:17:02Z</time>
      </trkpt>
      <trkpt lat="40.759357" lon="0.550323">
        <ele>3.708</ele>
        <time>1970-01-01T00:17:03Z</time>
      </trkpt>
      <trkpt lat="40.759322" lon="0.550394">
        <ele>3.743</ele>
        <time>1970-01-01T00:17:04Z</time>
      </trkpt>
      <trkpt lat="40.759287" lon="0.550468">
        <ele>3.880</ele>
        <time>1970-01-01T00:17:05Z</time>
      </trkpt>
      <trkpt lat="40.759252" lon="0.550541">
        <ele>4.081</ele>
        <time>1970-01-01T00:17:06Z</time>
      </trkpt>
      <trkpt lat="40.759216" lon="0.550613">
        <ele>4.014</ele>
        <time>1970-01-01T00:17:07Z</time>
      </trkpt>
      <trkpt lat="40.759180" lon="0.550684">
        <ele>4.034</ele>
        <time>1970-01-01T00:17:08Z</time>
      </trkpt>
      <trkpt lat="40.759144" lon="0.550757">
        <ele>3.960</ele>
        <time>1970-01-01T00:17:09Z</time>
      </trkpt>
      <trkpt lat="40.759109" lon="0.550830">
        <ele>3.834</ele>
        <time>1970-01-01T00:17:10Z</time>
      </trkpt>
      <trkpt lat="40.759075" lon="0.550904">
        <ele>3.665</ele>
        <time>1970-01-01T00:17:11Z</time>
      </trkpt>
      <trkpt lat="40.759041" lon="0.550977">
        <ele>3.357</ele>
        <time>1970-01-01T00:17:12Z</time>
      </trkpt>
      <trkpt lat="40.759007" lon="0.551050">
        <ele>3.000</ele>
        <time>1970-01-01T00:17:13Z</time>
      </trkpt>
      <trkpt lat="40.758973" lon="0.551122">
        <ele>2.620</ele>
        <time>1970-01-01T00:17:14Z</time>
      </trkpt>
      <trkpt lat="40.758939" lon="0.551194">
        <ele>2.008</ele>
        <time>1970-01-01T00:17:15Z</time>
      </trkpt>
      <trkpt lat="40.758905" lon="0.551265">
        <ele>1.562</ele>
        <time>1970-01-01T00:17:16Z</time>
      </trkpt>
      <trkpt lat="40.758871" lon="0.551337">
        <ele>1.179</ele>
        <time>1970-01-01T00:17:17Z</time>
      </trkpt>
      <trkpt lat="40.758836" lon="0.551407">
        <ele>0.860</ele>
        <time>1970-01-01T00:17:18Z</time>
      </trkpt>
      <trkpt lat="40.758801" lon="0.551477">
        <ele>0.583</ele>
        <time>1970-01-01T00:17:19Z</time>
      </trkpt>
      <trkpt lat="40.758768" lon="0.551547">
        <ele>0.273</ele>
        <time>1970-01-01T00:17:20Z</time>
      </trkpt>
      <trkpt lat="40.758736" lon="0.551618">
        <ele>0.129</ele>
        <time>1970-01-01T00:17:21Z</time>
      </trkpt>
      <trkpt lat="40.758704" lon="0.551687">
        <ele>0.013</ele>
        <time>1970-01-01T00:17:22Z</time>
      </trkpt>
      <trkpt lat="40.758673" lon="0.551754">
        <ele>0.144</ele>
        <time>1970-01-01T00:17:23Z</time>
      </trkpt>
      <trkpt lat="40.758640" lon="0.551823">
        <ele>0.188</ele>
        <time>1970-01-01T00:17:24Z</time>
      </trkpt>
      <trkpt lat="40.758607" lon="0.551891">
        <ele>0.024</ele>
        <time>1970-01-01T00:17:25Z</time>
      </trkpt>
      <trkpt lat="40.758574" lon="0.551960">
        <ele>0.426</ele>
        <time>1970-01-01T00:17:26Z</time>
      </trkpt>
      <trkpt lat="40.758541" lon="0.552029">
        <ele>1.008</ele>
        <time>1970-01-01T00:17:27Z</time>
      </trkpt>
      <trkpt lat="40.758508" lon="0.552099">
        <ele>1.665</ele>
        <time>1970-01-01T00:17:28Z</time>
      </trkpt>
      <trkpt lat="40.758475" lon="0.552169">
        <ele>2.262</ele>
        <time>1970-01-01T00:17:29Z</time>
      </trkpt>
      <trkpt lat="40.758440" lon="0.552238">
        <ele>2.723</ele>
        <time>1970-01-01T00:17:30Z</time>
      </trkpt>
      <trkpt lat="40.758404" lon="0.552306">
        <ele>3.046</ele>
        <time>1970-01-01T00:17:31Z</time>
      </trkpt>
      <trkpt lat="40.758368" lon="0.552373">
        <ele>3.476</ele>
        <time>1970-01-01T00:17:32Z</time>
      </trkpt>
      <trkpt lat="40.758334" lon="0.552443">
        <ele>3.882</ele>
        <time>1970-01-01T00:17:33Z</time>
      </trkpt>
      <trkpt lat="40.758300" lon="0.552514">
        <ele>4.366</ele>
        <time>1970-01-01T00:17:34Z</time>
      </trkpt>
      <trkpt lat="40.758267" lon="0.552585">
        <ele>4.937</ele>
        <time>1970-01-01T00:17:35Z</time>
      </trkpt>
      <trkpt lat="40.758234" lon="0.552656">
        <ele>5.453</ele>
        <time>1970-01-01T00:17:36Z</time>
      </trkpt>
      <trkpt lat="40.758197" lon="0.552723">
        <ele>5.804</ele>
        <time>1970-01-01T00:17:37Z</time>
      </trkpt>
      <trkpt lat="40.758155" lon="0.552785">
        <ele>6.014</ele>
        <time>1970-01-01T00:17:38Z</time>
      </trkpt>
      <trkpt lat="40.758107" lon="0.552840">
        <ele>5.608</ele>
        <time>1970-01-01T00:17:39Z</time>
      </trkpt>
      <trkpt lat="40.758056" lon="0.552891">
        <ele>5.292</ele>
        <time>1970-01-01T00:17:40Z</time>
      </trkpt>
      <trkpt lat="40.758002" lon="0.552940">
        <ele>4.069</ele>
        <time>1970-01-01T00:17:41Z</time>
      </trkpt>
      <trkpt lat="40.757949" lon="0.552991">
        <ele>2.880</ele>
        <time>1970-01-01T00:17:42Z</time>
      </trkpt>
      <trkpt lat="40.757896" lon="0.553043">
        <ele>1.823</ele>
        <time>1970-01-01T00:17:43Z</time>
      </trkpt>
      <trkpt lat="40.757845" lon="0.553096">
        <ele>0.873</ele>
        <time>1970-01-01T00:17:44Z</time>
      </trkpt>
      <trkpt lat="40.757796" lon="0.553150">
        <ele>-0.119</ele>
        <time>1970-01-01T00:17:45Z</time>
      </trkpt>
      <trkpt lat="40.757748" lon="0.553207">
        <ele>-0.863</ele>
        <time>1970-01-01T00:17:46Z</time>
      </trkpt>
      <trkpt lat="40.757699" lon="0.553265">
        <ele>-1.244</ele>
        <time>1970-01-01T00:17:47Z</time>
      </trkpt>
      <trkpt lat="40.757650" lon="0.553322">
        <ele>-1.532</ele>
        <time>1970-01-01T00:17:48Z</time>
      </trkpt>
      <trkpt lat="40.757601" lon="0.553378">
        <ele>-1.492</ele>
        <time>1970-01-01T00:17:49Z</time>
      </trkpt>
      <trkpt lat="40.757554" lon="0.553435">
        <ele>-1.111</ele>
        <time>1970-01-01T00:17:50Z</time>
      </trkpt>
      <trkpt lat="40.757507" lon="0.553492">
        <ele>-0.808</ele>
        <time>1970-01-01T00:17:51Z</time>
      </trkpt>
      <trkpt lat="40.757460" lon="0.553548">
        <ele>-0.660</ele>
        <time>1970-01-01T00:17:52Z</time>
      </trkpt>
      <trkpt lat="40.757413" lon="0.553604">
        <ele>-0.457</ele>
        <time>1970-01-01T00:17:53Z</time>
      </trkpt>
      <trkpt lat="40.757368" lon="0.553659">
        <ele>-0.338</ele>
        <time>1970-01-01T00:17:54Z</time>
      </trkpt>
      <trkpt lat="40.757322" lon="0.553714">
        <ele>-0.371</ele>
        <time>1970-01-01T00:17:55Z</time>
      </trkpt>
      <trkpt lat="40.757278" lon="0.553768">
        <ele>-0.251</ele>
        <time>1970-01-01T00:17:56Z</time>
      </trkpt>
      <trkpt lat="40.757234" lon="0.553824">
        <ele>-0.227</ele>
        <time>1970-01-01T00:17:57Z</time>
      </trkpt>
      <trkpt lat="40.757192" lon="0.553879">
        <ele>0.221</ele>
        <time>1970-01-01T00:17:58Z</time>
      </trkpt>
      <trkpt lat="40.757150" lon="0.553932">
        <ele>0.882</ele>
        <time>1970-01-01T00:17:59Z</time>
      </trkpt>
      <trkpt lat="40.757110" lon="0.553985">
        <ele>1.465</ele>
        <time>1970-01-01T00:18:00Z</time>
      </trkpt>
      <trkpt lat="40.757071" lon="0.554038">
        <ele>1.968</ele>
        <time>1970-01-01T00:18:01Z</time>
      </trkpt>
      <trkpt lat="40.757033" lon="0.554090">
        <ele>2.314</ele>
        <time>1970-01-01T00:18:02Z</time>
      </trkpt>
      <trkpt lat="40.756994" lon="0.554139">
        <ele>2.708</ele>
        <time>1970-01-01T00:18:03Z</time>
      </trkpt>
      <trkpt lat="40.756951" lon="0.554182">
        <ele>2.963</ele>
        <time>1970-01-01T00:18:04Z</time>
      </trkpt>
      <trkpt lat="40.756903" lon="0.554214">
        <ele>2.760</ele>
        <time>1970-01-01T00:18:05Z</time>
      </trkpt>
      <trkpt lat="40.756850" lon="0.554228">
        <ele>2.551</ele>
        <time>1970-01-01T00:18:06Z</time>
      </trkpt>
      <trkpt lat="40.756797" lon="0.554229">
        <ele>2.434</ele>
        <time>1970-01-01T00:18:07Z</time>
      </trkpt>
      <trkpt lat="40.756742" lon="0.554231">
        <ele>2.244</ele>
        <time>1970-01-01T00:18:08Z</time>
      </trkpt>
      <trkpt lat="40.756688" lon="0.554242">
        <ele>2.180</ele>
        <time>1970-01-01T00:18:09Z</time>
      </trkpt>
      <trkpt lat="40.756635" lon="0.554266">
        <ele>1.884</ele>
        <time>1970-01-01T00:18:10Z</time>
      </trkpt>
      <trkpt lat="40.756590" lon="0.554305">
        <ele>1.665</ele>
        <time>1970-01-01T00:18:11Z</time>
      </trkpt>
      <trkpt lat="40.756554" lon="0.554360">
        <ele>1.337</ele>
        <time>1970-01-01T00:18:12Z</time>
      </trkpt>
      <trkpt lat="40.756523" lon="0.554422">
        <ele>1.049</ele>
        <time>1970-01-01T00:18:13Z</time>
      </trkpt>
      <trkpt lat="40.756494" lon="0.554488">
        <ele>0.613</ele>
        <time>1970-01-01T00:18:14Z</time>
      </trkpt>
      <trkpt lat="40.756465" lon="0.554557">
        <ele>0.308</ele>
        <time>1970-01-01T00:18:15Z</time>
      </trkpt>
      <trkpt lat="40.756435" lon="0.554626">
        <ele>0.190</ele>
        <time>1970-01-01T00:18:16Z</time>
      </trkpt>
      <trkpt lat="40.756404" lon="0.554696">
        <ele>0.057</ele>
        <time>1970-01-01T00:18:17Z</time>
      </trkpt>
      <trkpt lat="40.756372" lon="0.554766">
        <ele>0.098</ele>
        <time>1970-01-01T00:18:18Z</time>
      </trkpt>
      <trkpt lat="40.756339" lon="0.554833">
        <ele>0.031</ele>
        <time>1970-01-01T00:18:19Z</time>
      </trkpt>
      <trkpt lat="40.756303" lon="0.554900">
        <ele>0.051</ele>
        <time>1970-01-01T00:18:20Z</time>
      </trkpt>
      <trkpt lat="40.756266" lon="0.554964">
        <ele>0.067</ele>
        <time>1970-01-01T00:18:21Z</time>
      </trkpt>
      <trkpt lat="40.756228" lon="0.555028">
        <ele>-0.021</ele>
        <time>1970-01-01T00:18:22Z</time>
      </trkpt>
      <trkpt lat="40.756189" lon="0.555093">
        <ele>-0.122</ele>
        <time>1970-01-01T00:18:23Z</time>
      </trkpt>
      <trkpt lat="40.756149" lon="0.555159">
        <ele>-0.116</ele>
        <time>1970-01-01T00:18:24Z</time>
      </trkpt>
      <trkpt lat="40.756111" lon="0.555225">
        <ele>0.076</ele>
        <time>1970-01-01T00:18:25Z</time>
      </trkpt>
      <trkpt lat="40.756074" lon="0.555293">
        <ele>0.313</ele>
        <time>1970-01-01T00:18:26Z</time>
      </trkpt>
      <trkpt lat="40.756041" lon="0.555361">
        <ele>0.408</ele>
        <time>1970-01-01T00:18:27Z</time>
      </trkpt>
      <trkpt lat="40.756009" lon="0.555431">
        <ele>0.558</ele>
        <time>1970-01-01T00:18:28Z</time>
      </trkpt>
      <trkpt lat="40.755980" lon="0.555504">
        <ele>0.645</ele>
        <time>1970-01-01T00:18:29Z</time>
      </trkpt>
      <trkpt lat="40.755954" lon="0.555578">
        <ele>0.646</ele>
        <time>1970-01-01T00:18:30Z</time>
      </trkpt>
      <trkpt lat="40.755930" lon="0.555653">
        <ele>0.819</ele>
        <time>1970-01-01T00:18:31Z</time>
      </trkpt>
      <trkpt lat="40.755910" lon="0.555730">
        <ele>0.919</ele>
        <time>1970-01-01T00:18:32Z</time>
      </trkpt>
      <trkpt lat="40.755895" lon="0.555811">
        <ele>1.045</ele>
        <time>1970-01-01T00:18:33Z</time>
      </trkpt>
      <trkpt lat="40.755882" lon="0.555892">
        <ele>1.089</ele>
        <time>1970-01-01T00:18:34Z</time>
      </trkpt>
      <trkpt lat="40.755873" lon="0.555974">
        <ele>1.130</ele>
        <time>1970-01-01T00:18:35Z</time>
      </trkpt>
      <trkpt lat="40.755868" lon="0.556056">
        <ele>1.118</ele>
        <time>1970-01-01T00:18:36Z</time>
      </trkpt>
      <trkpt lat="40.755866" lon="0.556138">
        <ele>1.298</ele>
        <time>1970-01-01T00:18:37Z</time>
      </trkpt>
      <trkpt lat="40.755867" lon="0.556220">
        <ele>1.617</ele>
        <time>1970-01-01T00:18:38Z</time>
      </trkpt>
      <trkpt lat="40.755869" lon="0.556302">
        <ele>1.908</ele>
        <time>1970-01-01T00:18:39Z</time>
      </trkpt>
      <trkpt lat="40.755873" lon="0.556383">
        <ele>2.318</ele>
        <time>1970-01-01T00:18:40Z</time>
      </trkpt>
      <trkpt lat="40.755881" lon="0.556462">
        <ele>2.895</ele>
        <time>1970-01-01T00:18:41Z</time>
      </trkpt>
      <trkpt lat="40.755889" lon="0.556540">
        <ele>3.436</ele>
        <time>1970-01-01T00:18:42Z</time>
      </trkpt>
      <trkpt lat="40.755894" lon="0.556617">
        <ele>3.989</ele>
        <time>1970-01-01T00:18:43Z</time>
      </trkpt>
      <trkpt lat="40.755895" lon="0.556695">
        <ele>4.249</ele>
        <time>1970-01-01T00:18:44Z</time>
      </trkpt>
      <trkpt lat="40.755893" lon="0.556775">
        <ele>4.235</ele>
        <time>1970-01-01T00:18:45Z</time>
      </trkpt>
      <trkpt lat="40.755888" lon="0.556853">
        <ele>4.229</ele>
        <time>1970-01-01T00:18:46Z</time>
      </trkpt>
      <trkpt lat="40.755880" lon="0.556933">
        <ele>4.260</ele>
        <time>1970-01-01T00:18:47Z</time>
      </trkpt>
      <trkpt lat="40.755870" lon="0.557011">
        <ele>3.963</ele>
        <time>1970-01-01T00:18:48Z</time>
      </trkpt>
      <trkpt lat="40.755857" lon="0.557090">
        <ele>3.644</ele>
        <time>1970-01-01T00:18:49Z</time>
      </trkpt>
      <trkpt lat="40.755844" lon="0.557170">
        <ele>3.318</ele>
        <time>1970-01-01T00:18:50Z</time>
      </trkpt>
      <trkpt lat="40.755831" lon="0.557250">
        <ele>3.008</ele>
        <time>1970-01-01T00:18:51Z</time>
      </trkpt>
      <trkpt lat="40.755818" lon="0.557330">
        <ele>2.913</ele>
        <time>1970-01-01T00:18:52Z</time>
      </trkpt>
      <trkpt lat="40.755804" lon="0.557409">
        <ele>2.840</ele>
        <time>1970-01-01T00:18:53Z</time>
      </trkpt>
      <trkpt lat="40.755789" lon="0.557487">
        <ele>2.721</ele>
        <time>1970-01-01T00:18:54Z</time>
      </trkpt>
      <trkpt lat="40.755774" lon="0.557566">
        <ele>2.394</ele>
        <time>1970-01-01T00:18:55Z</time>
      </trkpt>
      <trkpt lat="40.755763" lon="0.557645">
        <ele>2.044</ele>
        <time>1970-01-01T00:18:56Z</time>
      </trkpt>
      <trkpt lat="40.755754" lon="0.557726">
        <ele>1.620</ele>
        <time>1970-01-01T00:18:57Z</time>
      </trkpt>
      <trkpt lat="40.755744" lon="0.557806">
        <ele>1.474</ele>
        <time>1970-01-01T00:18:58Z</time>
      </trkpt>
      <trkpt lat="40.755727" lon="0.557882">
        <ele>1.215</ele>
        <time>1970-01-01T00:18:59Z</time>
      </trkpt>
      <trkpt lat="40.755702" lon="0.557954">
        <ele>1.162</ele>
        <time>1970-01-01T00:19:00Z</time>
      </trkpt>
      <trkpt lat="40.755671" lon="0.558023">
        <ele>0.883</ele>
        <time>1970-01-01T00:19:01Z</time>
      </trkpt>
      <trkpt lat="40.755637" lon="0.558092">
        <ele>0.711</ele>
        <time>1970-01-01T00:19:02Z</time>
      </trkpt>
      <trkpt lat="40.755602" lon="0.558160">
        <ele>0.608</ele>
        <time>1970-01-01T00:19:03Z</time>
      </trkpt>
      <trkpt lat="40.755566" lon="0.558230">
        <ele>0.733</ele>
        <time>1970-01-01T00:19:04Z</time>
      </trkpt>
      <trkpt lat="40.755530" lon="0.558300">
        <ele>0.830</ele>
        <time>1970-01-01T00:19:05Z</time>
      </trkpt>
      <trkpt lat="40.755495" lon="0.558370">
        <ele>1.041</ele>
        <time>1970-01-01T00:19:06Z</time>
      </trkpt>
      <trkpt lat="40.755460" lon="0.558440">
        <ele>1.334</ele>
        <time>1970-01-01T00:19:07Z</time>
      </trkpt>
      <trkpt lat="40.755425" lon="0.558511">
        <ele>1.554</ele>
        <time>1970-01-01T00:19:08Z</time>
      </trkpt>
      <trkpt lat="40.755389" lon="0.558581">
        <ele>1.690</ele>
        <time>1970-01-01T00:19:09Z</time>
      </trkpt>
      <trkpt lat="40.755353" lon="0.558652">
        <ele>1.714</ele>
        <time>1970-01-01T00:19:10Z</time>
      </trkpt>
      <trkpt lat="40.755316" lon="0.558722">
        <ele>1.975</ele>
        <time>1970-01-01T00:19:11Z</time>
      </trkpt>
      <trkpt lat="40.755281" lon="0.558793">
        <ele>2.373</ele>
        <time>1970-01-01T00:19:12Z</time>
      </trkpt>
      <trkpt lat="40.755247" lon="0.558864">
        <ele>2.785</ele>
        <time>1970-01-01T00:19:13Z</time>
      </trkpt>
      <trkpt lat="40.755214" lon="0.558935">
        <ele>2.913</ele>
        <time>1970-01-01T00:19:14Z</time>
      </trkpt>
      <trkpt lat="40.755182" lon="0.559007">
        <ele>3.108</ele>
        <time>1970-01-01T00:19:15Z</time>
      </trkpt>
      <trkpt lat="40.755153" lon="0.559080">
        <ele>3.234</ele>
        <time>1970-01-01T00:19:16Z</time>
      </trkpt>
      <trkpt lat="40.755127" lon="0.559156">
        <ele>3.481</ele>
        <time>1970-01-01T00:19:17Z</time>
      </trkpt>
      <trkpt lat="40.755103" lon="0.559233">
        <ele>3.582</ele>
        <time>1970-01-01T00:19:18Z</time>
      </trkpt>
      <trkpt lat="40.755077" lon="0.559309">
        <ele>3.615</ele>
        <time>1970-01-01T00:19:19Z</time>
      </trkpt>
      <trkpt lat="40.755043" lon="0.559380">
        <ele>3.895</ele>
        <time>1970-01-01T00:19:20Z</time>
      </trkpt>
      <trkpt lat="40.755002" lon="0.559446">
        <ele>4.011</ele>
        <time>1970-01-01T00:19:21Z</time>
      </trkpt>
      <trkpt lat="40.754960" lon="0.559510">
        <ele>3.765</ele>
        <time>1970-01-01T00:19:22Z</time>
      </trkpt>
      <trkpt lat="40.754920" lon="0.559577">
        <ele>3.446</ele>
        <time>1970-01-01T00:19:23Z</time>
      </trkpt>
      <trkpt lat="40.754883" lon="0.559648">
        <ele>3.291</ele>
        <time>1970-01-01T00:19:24Z</time>
      </trkpt>
      <trkpt lat="40.754849" lon="0.559720">
        <ele>3.081</ele>
        <time>1970-01-01T00:19:25Z</time>
      </trkpt>
      <trkpt lat="40.754814" lon="0.559792">
        <ele>2.819</ele>
        <time>1970-01-01T00:19:26Z</time>
      </trkpt>
      <trkpt lat="40.754778" lon="0.559865">
        <ele>2.808</ele>
        <time>1970-01-01T00:19:27Z</time>
      </trkpt>
      <trkpt lat="40.754743" lon="0.559938">
        <ele>2.996</ele>
        <time>1970-01-01T00:19:28Z</time>
      </trkpt>
      <trkpt lat="40.754708" lon="0.560011">
        <ele>3.083</ele>
        <time>1970-01-01T00:19:29Z</time>
      </trkpt>
      <trkpt lat="40.754672" lon="0.560085">
        <ele>2.684</ele>
        <time>1970-01-01T00:19:30Z</time>
      </trkpt>
      <trkpt lat="40.754637" lon="0.560159">
        <ele>2.117</ele>
        <time>1970-01-01T00:19:31Z</time>
      </trkpt>
      <trkpt lat="40.754603" lon="0.560234">
        <ele>1.427</ele>
        <time>1970-01-01T00:19:32Z</time>
      </trkpt>
      <trkpt lat="40.754567" lon="0.560308">
        <ele>0.813</ele>
        <time>1970-01-01T00:19:33Z</time>
      </trkpt>
      <trkpt lat="40.754531" lon="0.560382">
        <ele>0.277</ele>
        <time>1970-01-01T00:19:34Z</time>
      </trkpt>
      <trkpt lat="40.754495" lon="0.560457">
        <ele>-0.378</ele>
        <time>1970-01-01T00:19:35Z</time>
      </trkpt>
      <trkpt lat="40.754459" lon="0.560532">
        <ele>-0.882</ele>
        <time>1970-01-01T00:19:36Z</time>
      </trkpt>
      <trkpt lat="40.754423" lon="0.560606">
        <ele>-1.343</ele>
        <time>1970-01-01T00:19:37Z</time>
      </trkpt>
      <trkpt lat="40.754387" lon="0.560680">
        <ele>-1.717</ele>
        <time>1970-01-01T00:19:38Z</time>
      </trkpt>
      <trkpt lat="40.754349" lon="0.560754">
        <ele>-1.908</ele>
        <time>1970-01-01T00:19:39Z</time>
      </trkpt>
      <trkpt lat="40.754311" lon="0.560828">
        <ele>-2.065</ele>
        <time>1970-01-01T00:19:40Z</time>
      </trkpt>
      <trkpt lat="40.754275" lon="0.560903">
        <ele>-1.832</ele>
        <time>1970-01-01T00:19:41Z</time>
      </trkpt>
      <trkpt lat="40.754238" lon="0.560977">
        <ele>-1.663</ele>
        <time>1970-01-01T00:19:42Z</time>
      </trkpt>
      <trkpt lat="40.754201" lon="0.561052">
        <ele>-1.316</ele>
        <time>1970-01-01T00:19:43Z</time>
      </trkpt>
      <trkpt lat="40.754164" lon="0.561127">
        <ele>-1.066</ele>
        <time>1970-01-01T00:19:44Z</time>
      </trkpt>
      <trkpt lat="40.754128" lon="0.561202">
        <ele>-1.132</ele>
        <time>1970-01-01T00:19:45Z</time>
      </trkpt>
      <trkpt lat="40.754092" lon="0.561278">
        <ele>-1.396</ele>
        <time>1970-01-01T00:19:46Z</time>
      </trkpt>
      <trkpt lat="40.754056" lon="0.561354">
        <ele>-1.487</ele>
        <time>1970-01-01T00:19:47Z</time>
      </trkpt>
      <trkpt lat="40.754019" lon="0.561430">
        <ele>-1.535</ele>
        <time>1970-01-01T00:19:48Z</time>
      </trkpt>
      <trkpt lat="40.753982" lon="0.561507">
        <ele>-1.586</ele>
        <time>1970-01-01T00:19:49Z</time>
      </trkpt>
      <trkpt lat="40.753944" lon="0.561584">
        <ele>-1.414</ele>
        <time>1970-01-01T00:19:50Z</time>
      </trkpt>
      <trkpt lat="40.753907" lon="0.561661">
        <ele>-1.108</ele>
        <time>1970-01-01T00:19:51Z</time>
      </trkpt>
      <trkpt lat="40.753871" lon="0.561738">
        <ele>-1.370</ele>
        <time>1970-01-01T00:19:52Z</time>
      </trkpt>
      <trkpt lat="40.753834" lon="0.561815">
        <ele>-1.587</ele>
        <time>1970-01-01T00:19:53Z</time>
      </trkpt>
      <trkpt lat="40.753795" lon="0.561890">
        <ele>-1.898</ele>
        <time>1970-01-01T00:19:54Z</time>
      </trkpt>
      <trkpt lat="40.753757" lon="0.561965">
        <ele>-2.011</ele>
        <time>1970-01-01T00:19:55Z</time>
      </trkpt>
      <trkpt lat="40.753720" lon="0.562041">
        <ele>-2.251</ele>
        <time>1970-01-01T00:19:56Z</time>
      </trkpt>
      <trkpt lat="40.753684" lon="0.562118">
        <ele>-2.547</ele>
        <time>1970-01-01T00:19:57Z</time>
      </trkpt>
      <trkpt lat="40.753648" lon="0.562194">
        <ele>-2.811</ele>
        <time>1970-01-01T00:19:58Z</time>
      </trkpt>
      <trkpt lat="40.753613" lon="0.562271">
        <ele>-3.042</ele>
        <time>1970-01-01T00:19:59Z</time>
      </trkpt>
      <trkpt lat="40.753577" lon="0.562347">
        <ele>-3.024</ele>
        <time>1970-01-01T00:20:00Z</time>
      </trkpt>
      <trkpt lat="40.753540" lon="0.562423">
        <ele>-3.004</ele>
        <time>1970-01-01T00:20:01Z</time>
      </trkpt>
      <trkpt lat="40.753502" lon="0.562499">
        <ele>-3.014</ele>
        <time>1970-01-01T00:20:02Z</time>
      </trkpt>
      <trkpt lat="40.753465" lon="0.562575">
        <ele>-2.908</ele>
        <time>1970-01-01T00:20:03Z</time>
      </trkpt>
      <trkpt lat="40.753428" lon="0.562650">
        <ele>-2.619</ele>
        <time>1970-01-01T00:20:04Z</time>
      </trkpt>
      <trkpt lat="40.753391" lon="0.562726">
        <ele>-2.496</ele>
        <time>1970-01-01T00:20:05Z</time>
      </trkpt>
      <trkpt lat="40.753355" lon="0.562802">
        <ele>-1.977</ele>
        <time>1970-01-01T00:20:06Z</time>
      </trkpt>
      <trkpt lat="40.753318" lon="0.562877">
        <ele>-1.270</ele>
        <time>1970-01-01T00:20:07Z</time>
      </trkpt>
      <trkpt lat="40.753281" lon="0.562953">
        <ele>-0.440</ele>
        <time>1970-01-01T00:20:08Z</time>
      </trkpt>
      <trkpt lat="40.753245" lon="0.563028">
        <ele>0.446</ele>
        <time>1970-01-01T00:20:09Z</time>
      </trkpt>
      <trkpt lat="40.753209" lon="0.563104">
        <ele>1.160</ele>
        <time>1970-01-01T00:20:10Z</time>
      </trkpt>
      <trkpt lat="40.753173" lon="0.563179">
        <ele>1.621</ele>
        <time>1970-01-01T00:20:11Z</time>
      </trkpt>
      <trkpt lat="40.753137" lon="0.563255">
        <ele>2.173</ele>
        <time>1970-01-01T00:20:12Z</time>
      </trkpt>
      <trkpt lat="40.753101" lon="0.563330">
        <ele>2.785</ele>
        <time>1970-01-01T00:20:13Z</time>
      </trkpt>
      <trkpt lat="40.753066" lon="0.563406">
        <ele>2.913</ele>
        <time>1970-01-01T00:20:14Z</time>
      </trkpt>
      <trkpt lat="40.753031" lon="0.563482">
        <ele>2.908</ele>
        <time>1970-01-01T00:20:15Z</time>
      </trkpt>
      <trkpt lat="40.752997" lon="0.563557">
        <ele>2.754</ele>
        <time>1970-01-01T00:20:16Z</time>
      </trkpt>
      <trkpt lat="40.752965" lon="0.563632">
        <ele>2.641</ele>
        <time>1970-01-01T00:20:17Z</time>
      </trkpt>
      <trkpt lat="40.752937" lon="0.563707">
        <ele>2.512</ele>
        <time>1970-01-01T00:20:18Z</time>
      </trkpt>
      <trkpt lat="40.752913" lon="0.563781">
        <ele>2.535</ele>
        <time>1970-01-01T00:20:19Z</time>
      </trkpt>
      <trkpt lat="40.752886" lon="0.563850">
        <ele>2.655</ele>
        <time>1970-01-01T00:20:20Z</time>
      </trkpt>
      <trkpt lat="40.752852" lon="0.563902">
        <ele>2.761</ele>
        <time>1970-01-01T00:20:21Z</time>
      </trkpt>
      <trkpt lat="40.752815" lon="0.563934">
        <ele>2.755</ele>
        <time>1970-01-01T00:20:22Z</time>
      </trkpt>
      <trkpt lat="40.752777" lon="0.563954">
        <ele>2.866</ele>
        <time>1970-01-01T00:20:23Z</time>
      </trkpt>
      <trkpt lat="40.752735" lon="0.563959">
        <ele>2.876</ele>
        <time>1970-01-01T00:20:24Z</time>
      </trkpt>
      <trkpt lat="40.752692" lon="0.563947">
        <ele>2.990</ele>
        <time>1970-01-01T00:20:25Z</time>
      </trkpt>
      <trkpt lat="40.752648" lon="0.563927">
        <ele>3.019</ele>
        <time>1970-01-01T00:20:26Z</time>
      </trkpt>
      <trkpt lat="40.752598" lon="0.563909">
        <ele>3.008</ele>
        <time>1970-01-01T00:20:27Z</time>
      </trkpt>
      <trkpt lat="40.752546" lon="0.563899">
        <ele>3.094</ele>
        <time>1970-01-01T00:20:28Z</time>
      </trkpt>
      <trkpt lat="40.752491" lon="0.563899">
        <ele>3.021</ele>
        <time>1970-01-01T00:20:29Z</time>
      </trkpt>
      <trkpt lat="40.752435" lon="0.563906">
        <ele>3.062</ele>
        <time>1970-01-01T00:20:30Z</time>
      </trkpt>
      <trkpt lat="40.752377" lon="0.563919">
        <ele>3.175</ele>
        <time>1970-01-01T00:20:31Z</time>
      </trkpt>
      <trkpt lat="40.752320" lon="0.563938">
        <ele>3.135</ele>
        <time>1970-01-01T00:20:32Z</time>
      </trkpt>
      <trkpt lat="40.752263" lon="0.563964">
        <ele>3.081</ele>
        <time>1970-01-01T00:20:33Z</time>
      </trkpt>
      <trkpt lat="40.752208" lon="0.563997">
        <ele>2.845</ele>
        <time>1970-01-01T00:20:34Z</time>
      </trkpt>
      <trkpt lat="40.752155" lon="0.564037">
        <ele>2.326</ele>
        <time>1970-01-01T00:20:35Z</time>
      </trkpt>
      <trkpt lat="40.752103" lon="0.564084">
        <ele>1.783</ele>
        <time>1970-01-01T00:20:36Z</time>
      </trkpt>
      <trkpt lat="40.752054" lon="0.564137">
        <ele>1.225</ele>
        <time>1970-01-01T00:20:37Z</time>
      </trkpt>
      <trkpt lat="40.752010" lon="0.564198">
        <ele>0.817</ele>
        <time>1970-01-01T00:20:38Z</time>
      </trkpt>
      <trkpt lat="40.751972" lon="0.564263">
        <ele>0.608</ele>
        <time>1970-01-01T00:20:39Z</time>
      </trkpt>
      <trkpt lat="40.751934" lon="0.564329">
        <ele>0.695</ele>
        <time>1970-01-01T00:20:40Z</time>
      </trkpt>
      <trkpt lat="40.751900" lon="0.564399">
        <ele>0.792</ele>
        <time>1970-01-01T00:20:41Z</time>
      </trkpt>
      <trkpt lat="40.751866" lon="0.564470">
        <ele>0.773</ele>
        <time>1970-01-01T00:20:42Z</time>
      </trkpt>
      <trkpt lat="40.751833" lon="0.564543">
        <ele>0.636</ele>
        <time>1970-01-01T00:20:43Z</time>
      </trkpt>
      <trkpt lat="40.751801" lon="0.564615">
        <ele>0.556</ele>
        <time>1970-01-01T00:20:44Z</time>
      </trkpt>
      <trkpt lat="40.751768" lon="0.564688">
        <ele>0.472</ele>
        <time>1970-01-01T00:20:45Z</time>
      </trkpt>
      <trkpt lat="40.751736" lon="0.564760">
        <ele>0.226</ele>
        <time>1970-01-01T00:20:46Z</time>
      </trkpt>
      <trkpt lat="40.751704" lon="0.564833">
        <ele>0.117</ele>
        <time>1970-01-01T00:20:47Z</time>
      </trkpt>
      <trkpt lat="40.751674" lon="0.564905">
        <ele>0.058</ele>
        <time>1970-01-01T00:20:48Z</time>
      </trkpt>
      <trkpt lat="40.751644" lon="0.564978">
        <ele>0.052</ele>
        <time>1970-01-01T00:20:49Z</time>
      </trkpt>
      <trkpt lat="40.751614" lon="0.565050">
        <ele>0.117</ele>
        <time>1970-01-01T00:20:50Z</time>
      </trkpt>
      <trkpt lat="40.751583" lon="0.565121">
        <ele>0.308</ele>
        <time>1970-01-01T00:20:51Z</time>
      </trkpt>
      <trkpt lat="40.751549" lon="0.565191">
        <ele>0.422</ele>
        <time>1970-01-01T00:20:52Z</time>
      </trkpt>
      <trkpt lat="40.751513" lon="0.565258">
        <ele>0.429</ele>
        <time>1970-01-01T00:20:53Z</time>
      </trkpt>
      <trkpt lat="40.751478" lon="0.565324">
        <ele>0.420</ele>
        <time>1970-01-01T00:20:54Z</time>
      </trkpt>
      <trkpt lat="40.751442" lon="0.565390">
        <ele>0.533</ele>
        <time>1970-01-01T00:20:55Z</time>
      </trkpt>
      <trkpt lat="40.751405" lon="0.565457">
        <ele>0.733</ele>
        <time>1970-01-01T00:20:56Z</time>
      </trkpt>
      <trkpt lat="40.751368" lon="0.565525">
        <ele>0.819</ele>
        <time>1970-01-01T00:20:57Z</time>
      </trkpt>
      <trkpt lat="40.751332" lon="0.565595">
        <ele>0.843</ele>
        <time>1970-01-01T00:20:58Z</time>
      </trkpt>
      <trkpt lat="40.751297" lon="0.565667">
        <ele>0.894</ele>
        <time>1970-01-01T00:20:59Z</time>
      </trkpt>
      <trkpt lat="40.751263" lon="0.565741">
        <ele>0.895</ele>
        <time>1970-01-01T00:21:00Z</time>
      </trkpt>
      <trkpt lat="40.751228" lon="0.565814">
        <ele>1.049</ele>
        <time>1970-01-01T00:21:01Z</time>
      </trkpt>
      <trkpt lat="40.751192" lon="0.565887">
        <ele>0.823</ele>
        <time>1970-01-01T00:21:02Z</time>
      </trkpt>
      <trkpt lat="40.751154" lon="0.565958">
        <ele>0.708</ele>
        <time>1970-01-01T00:21:03Z</time>
      </trkpt>
      <trkpt lat="40.751112" lon="0.566027">
        <ele>1.046</ele>
        <time>1970-01-01T00:21:04Z</time>
      </trkpt>
      <trkpt lat="40.751070" lon="0.566095">
        <ele>1.053</ele>
        <time>1970-01-01T00:21:05Z</time>
      </trkpt>
      <trkpt lat="40.751028" lon="0.566162">
        <ele>0.764</ele>
        <time>1970-01-01T00:21:06Z</time>
      </trkpt>
      <trkpt lat="40.750986" lon="0.566230">
        <ele>0.557</ele>
        <time>1970-01-01T00:21:07Z</time>
      </trkpt>
      <trkpt lat="40.750946" lon="0.566298">
        <ele>0.587</ele>
        <time>1970-01-01T00:21:08Z</time>
      </trkpt>
      <trkpt lat="40.750905" lon="0.566365">
        <ele>0.543</ele>
        <time>1970-01-01T00:21:09Z</time>
      </trkpt>
      <trkpt lat="40.750864" lon="0.566431">
        <ele>0.237</ele>
        <time>1970-01-01T00:21:10Z</time>
      </trkpt>
      <trkpt lat="40.750826" lon="0.566498">
        <ele>-0.558</ele>
        <time>1970-01-01T00:21:11Z</time>
      </trkpt>
      <trkpt lat="40.750790" lon="0.566566">
        <ele>-1.212</ele>
        <time>1970-01-01T00:21:12Z</time>
      </trkpt>
      <trkpt lat="40.750753" lon="0.566634">
        <ele>-1.532</ele>
        <time>1970-01-01T00:21:13Z</time>
      </trkpt>
      <trkpt lat="40.750715" lon="0.566701">
        <ele>-1.705</ele>
        <time>1970-01-01T00:21:14Z</time>
      </trkpt>
      <trkpt lat="40.750674" lon="0.566766">
        <ele>-1.808</ele>
        <time>1970-01-01T00:21:15Z</time>
      </trkpt>
      <trkpt lat="40.750631" lon="0.566829">
        <ele>-1.888</ele>
        <time>1970-01-01T00:21:16Z</time>
      </trkpt>
      <trkpt lat="40.750589" lon="0.566893">
        <ele>-1.995</ele>
        <time>1970-01-01T00:21:17Z</time>
      </trkpt>
      <trkpt lat="40.750548" lon="0.566957">
        <ele>-1.916</ele>
        <time>1970-01-01T00:21:18Z</time>
      </trkpt>
      <trkpt lat="40.750507" lon="0.567022">
        <ele>-1.699</ele>
        <time>1970-01-01T00:21:19Z</time>
      </trkpt>
      <trkpt lat="40.750463" lon="0.567086">
        <ele>-1.599</ele>
        <time>1970-01-01T00:21:20Z</time>
      </trkpt>
      <trkpt lat="40.750418" lon="0.567151">
        <ele>-1.665</ele>
        <time>1970-01-01T00:21:21Z</time>
      </trkpt>
      <trkpt lat="40.750372" lon="0.567213">
        <ele>-1.989</ele>
        <time>1970-01-01T00:21:22Z</time>
      </trkpt>
      <trkpt lat="40.750325" lon="0.567275">
        <ele>-1.570</ele>
        <time>1970-01-01T00:21:23Z</time>
      </trkpt>
      <trkpt lat="40.750278" lon="0.567332">
        <ele>-0.846</ele>
        <time>1970-01-01T00:21:24Z</time>
      </trkpt>
      <trkpt lat="40.750228" lon="0.567388">
        <ele>-0.488</ele>
        <time>1970-01-01T00:21:25Z</time>
      </trkpt>
      <trkpt lat="40.750180" lon="0.567445">
        <ele>-0.516</ele>
        <time>1970-01-01T00:21:26Z</time>
      </trkpt>
      <trkpt lat="40.750135" lon="0.567505">
        <ele>-1.008</ele>
        <time>1970-01-01T00:21:27Z</time>
      </trkpt>
      <trkpt lat="40.750092" lon="0.567568">
        <ele>-0.951</ele>
        <time>1970-01-01T00:21:28Z</time>
      </trkpt>
      <trkpt lat="40.750048" lon="0.567632">
        <ele>-0.638</ele>
        <time>1970-01-01T00:21:29Z</time>
      </trkpt>
      <trkpt lat="40.750005" lon="0.567696">
        <ele>-0.149</ele>
        <time>1970-01-01T00:21:30Z</time>
      </trkpt>
      <trkpt lat="40.749960" lon="0.567759">
        <ele>0.542</ele>
        <time>1970-01-01T00:21:31Z</time>
      </trkpt>
      <trkpt lat="40.749910" lon="0.567819">
        <ele>0.592</ele>
        <time>1970-01-01T00:21:32Z</time>
      </trkpt>
      <trkpt lat="40.749854" lon="0.567875">
        <ele>0.358</ele>
        <time>1970-01-01T00:21:33Z</time>
      </trkpt>
      <trkpt lat="40.749795" lon="0.567926">
        <ele>0.172</ele>
        <time>1970-01-01T00:21:34Z</time>
      </trkpt>
      <trkpt lat="40.749736" lon="0.567974">
        <ele>-0.253</ele>
        <time>1970-01-01T00:21:35Z</time>
      </trkpt>
      <trkpt lat="40.749676" lon="0.568020">
        <ele>0.178</ele>
        <time>1970-01-01T00:21:36Z</time>
      </trkpt>
      <trkpt lat="40.749619" lon="0.568067">
        <ele>0.333</ele>
        <time>1970-01-01T00:21:37Z</time>
      </trkpt>
      <trkpt lat="40.749563" lon="0.568119">
        <ele>0.526</ele>
        <time>1970-01-01T00:21:38Z</time>
      </trkpt>
      <trkpt lat="40.749510" lon="0.568174">
        <ele>0.708</ele>
        <time>1970-01-01T00:21:39Z</time>
      </trkpt>
      <trkpt lat="40.749458" lon="0.568232">
        <ele>0.964</ele>
        <time>1970-01-01T00:21:40Z</time>
      </trkpt>
      <trkpt lat="40.749406" lon="0.568290">
        <ele>1.281</ele>
        <time>1970-01-01T00:21:41Z</time>
      </trkpt>
      <trkpt lat="40.749353" lon="0.568346">
        <ele>1.272</ele>
        <time>1970-01-01T00:21:42Z</time>
      </trkpt>
      <trkpt lat="40.749301" lon="0.568402">
        <ele>0.545</ele>
        <time>1970-01-01T00:21:43Z</time>
      </trkpt>
      <trkpt lat="40.749248" lon="0.568456">
        <ele>-0.225</ele>
        <time>1970-01-01T00:21:44Z</time>
      </trkpt>
      <trkpt lat="40.749194" lon="0.568505">
        <ele>-1.171</ele>
        <time>1970-01-01T00:21:45Z</time>
      </trkpt>
      <trkpt lat="40.749134" lon="0.568550">
        <ele>-1.945</ele>
        <time>1970-01-01T00:21:46Z</time>
      </trkpt>
      <trkpt lat="40.749074" lon="0.568592">
        <ele>-2.746</ele>
        <time>1970-01-01T00:21:47Z</time>
      </trkpt>
      <trkpt lat="40.749014" lon="0.568633">
        <ele>-3.179</ele>
        <time>1970-01-01T00:21:48Z</time>
      </trkpt>
      <trkpt lat="40.748954" lon="0.568672">
        <ele>-3.205</ele>
        <time>1970-01-01T00:21:49Z</time>
      </trkpt>
      <trkpt lat="40.748893" lon="0.568710">
        <ele>-3.425</ele>
        <time>1970-01-01T00:21:50Z</time>
      </trkpt>
      <trkpt lat="40.748832" lon="0.568747">
        <ele>-3.108</ele>
        <time>1970-01-01T00:21:51Z</time>
      </trkpt>
      <trkpt lat="40.748772" lon="0.568784">
        <ele>-3.064</ele>
        <time>1970-01-01T00:21:52Z</time>
      </trkpt>
      <trkpt lat="40.748711" lon="0.568824">
        <ele>-3.281</ele>
        <time>1970-01-01T00:21:53Z</time>
      </trkpt>
      <trkpt lat="40.748652" lon="0.568866">
        <ele>-3.642</ele>
        <time>1970-01-01T00:21:54Z</time>
      </trkpt>
      <trkpt lat="40.748594" lon="0.568912">
        <ele>-3.795</ele>
        <time>1970-01-01T00:21:55Z</time>
      </trkpt>
      <trkpt lat="40.748539" lon="0.568962">
        <ele>-3.085</ele>
        <time>1970-01-01T00:21:56Z</time>
      </trkpt>
      <trkpt lat="40.748484" lon="0.569013">
        <ele>-2.711</ele>
        <time>1970-01-01T00:21:57Z</time>
      </trkpt>
      <trkpt lat="40.748431" lon="0.569066">
        <ele>-2.855</ele>
        <time>1970-01-01T00:21:58Z</time>
      </trkpt>
      <trkpt lat="40.748379" lon="0.569118">
        <ele>-3.386</ele>
        <time>1970-01-01T00:21:59Z</time>
      </trkpt>
      <trkpt lat="40.748326" lon="0.569169">
        <ele>-3.974</ele>
        <time>1970-01-01T00:22:00Z</time>
      </trkpt>
      <trkpt lat="40.748271" lon="0.569219">
        <ele>-2.956</ele>
        <time>1970-01-01T00:22:01Z</time>
      </trkpt>
      <trkpt lat="40.748215" lon="0.569265">
        <ele>-2.321</ele>
        <time>1970-01-01T00:22:02Z</time>
      </trkpt>
      <trkpt lat="40.748158" lon="0.569310">
        <ele>-2.008</ele>
        <time>1970-01-01T00:22:03Z</time>
      </trkpt>
      <trkpt lat="40.748100" lon="0.569356">
        <ele>-2.084</ele>
        <time>1970-01-01T00:22:04Z</time>
      </trkpt>
      <trkpt lat="40.748043" lon="0.569401">
        <ele>-2.271</ele>
        <time>1970-01-01T00:22:05Z</time>
      </trkpt>
      <trkpt lat="40.747985" lon="0.569444">
        <ele>-2.032</ele>
        <time>1970-01-01T00:22:06Z</time>
      </trkpt>
      <trkpt lat="40.747926" lon="0.569486">
        <ele>-1.395</ele>
        <time>1970-01-01T00:22:07Z</time>
      </trkpt>
      <trkpt lat="40.747867" lon="0.569527">
        <ele>-0.925</ele>
        <time>1970-01-01T00:22:08Z</time>
      </trkpt>
      <trkpt lat="40.747807" lon="0.569567">
        <ele>-0.971</ele>
        <time>1970-01-01T00:22:09Z</time>
      </trkpt>
      <trkpt lat="40.747746" lon="0.569604">
        <ele>-1.035</ele>
        <time>1970-01-01T00:22:10Z</time>
      </trkpt>
      <trkpt lat="40.747683" lon="0.569634">
        <ele>-0.886</ele>
        <time>1970-01-01T00:22:11Z</time>
      </trkpt>
      <trkpt lat="40.747618" lon="0.569658">
        <ele>-0.387</ele>
        <time>1970-01-01T00:22:12Z</time>
      </trkpt>
      <trkpt lat="40.747552" lon="0.569676">
        <ele>0.442</ele>
        <time>1970-01-01T00:22:13Z</time>
      </trkpt>
      <trkpt lat="40.747486" lon="0.569694">
        <ele>1.026</ele>
        <time>1970-01-01T00:22:14Z</time>
      </trkpt>
      <trkpt lat="40.747419" lon="0.569710">
        <ele>1.008</ele>
        <time>1970-01-01T00:22:15Z</time>
      </trkpt>
      <trkpt lat="40.747352" lon="0.569723">
        <ele>1.055</ele>
        <time>1970-01-01T00:22:16Z</time>
      </trkpt>
      <trkpt lat="40.747284" lon="0.569737">
        <ele>1.052</ele>
        <time>1970-01-01T00:22:17Z</time>
      </trkpt>
      <trkpt lat="40.747216" lon="0.569751">
        <ele>1.063</ele>
        <time>1970-01-01T00:22:18Z</time>
      </trkpt>
      <trkpt lat="40.747148" lon="0.569767">
        <ele>0.846</ele>
        <time>1970-01-01T00:22:19Z</time>
      </trkpt>
      <trkpt lat="40.747081" lon="0.569786">
        <ele>0.666</ele>
        <time>1970-01-01T00:22:20Z</time>
      </trkpt>
      <trkpt lat="40.747013" lon="0.569809">
        <ele>0.542</ele>
        <time>1970-01-01T00:22:21Z</time>
      </trkpt>
      <trkpt lat="40.746946" lon="0.569837">
        <ele>0.476</ele>
        <time>1970-01-01T00:22:22Z</time>
      </trkpt>
      <trkpt lat="40.746881" lon="0.569870">
        <ele>0.417</ele>
        <time>1970-01-01T00:22:23Z</time>
      </trkpt>
      <trkpt lat="40.746816" lon="0.569904">
        <ele>0.476</ele>
        <time>1970-01-01T00:22:24Z</time>
      </trkpt>
      <trkpt lat="40.746751" lon="0.569941">
        <ele>0.290</ele>
        <time>1970-01-01T00:22:25Z</time>
      </trkpt>
      <trkpt lat="40.746689" lon="0.569982">
        <ele>0.119</ele>
        <time>1970-01-01T00:22:26Z</time>
      </trkpt>
      <trkpt lat="40.746628" lon="0.570025">
        <ele>0.108</ele>
        <time>1970-01-01T00:22:27Z</time>
      </trkpt>
      <trkpt lat="40.746566" lon="0.570069">
        <ele>0.254</ele>
        <time>1970-01-01T00:22:28Z</time>
      </trkpt>
      <trkpt lat="40.746505" lon="0.570111">
        <ele>0.291</ele>
        <time>1970-01-01T00:22:29Z</time>
      </trkpt>
      <trkpt lat="40.746442" lon="0.570152">
        <ele>0.162</ele>
        <time>1970-01-01T00:22:30Z</time>
      </trkpt>
      <trkpt lat="40.746380" lon="0.570191">
        <ele>0.025</ele>
        <time>1970-01-01T00:22:31Z</time>
      </trkpt>
      <trkpt lat="40.746317" lon="0.570228">
        <ele>0.245</ele>
        <time>1970-01-01T00:22:32Z</time>
      </trkpt>
      <trkpt lat="40.746254" lon="0.570262">
        <ele>0.561</ele>
        <time>1970-01-01T00:22:33Z</time>
      </trkpt>
      <trkpt lat="40.746191" lon="0.570294">
        <ele>0.745</ele>
        <time>1970-01-01T00:22:34Z</time>
      </trkpt>
      <trkpt lat="40.746129" lon="0.570326">
        <ele>0.936</ele>
        <time>1970-01-01T00:22:35Z</time>
      </trkpt>
      <trkpt lat="40.746067" lon="0.570359">
        <ele>0.992</ele>
        <time>1970-01-01T00:22:36Z</time>
      </trkpt>
      <trkpt lat="40.746005" lon="0.570389">
        <ele>0.873</ele>
        <time>1970-01-01T00:22:37Z</time>
      </trkpt>
      <trkpt lat="40.745943" lon="0.570418">
        <ele>0.720</ele>
        <time>1970-01-01T00:22:38Z</time>
      </trkpt>
      <trkpt lat="40.745880" lon="0.570446">
        <ele>0.708</ele>
        <time>1970-01-01T00:22:39Z</time>
      </trkpt>
      <trkpt lat="40.745817" lon="0.570474">
        <ele>0.736</ele>
        <time>1970-01-01T00:22:40Z</time>
      </trkpt>
      <trkpt lat="40.745753" lon="0.570501">
        <ele>0.833</ele>
        <time>1970-01-01T00:22:41Z</time>
      </trkpt>
      <trkpt lat="40.745689" lon="0.570528">
        <ele>0.914</ele>
        <time>1970-01-01T00:22:42Z</time>
      </trkpt>
      <trkpt lat="40.745627" lon="0.570556">
        <ele>1.087</ele>
        <time>1970-01-01T00:22:43Z</time>
      </trkpt>
      <trkpt lat="40.745563" lon="0.570583">
        <ele>1.117</ele>
        <time>1970-01-01T00:22:44Z</time>
      </trkpt>
      <trkpt lat="40.745501" lon="0.570611">
        <ele>1.213</ele>
        <time>1970-01-01T00:22:45Z</time>
      </trkpt>
      <trkpt lat="40.745439" lon="0.570641">
        <ele>1.227</ele>
        <time>1970-01-01T00:22:46Z</time>
      </trkpt>
      <trkpt lat="40.745377" lon="0.570671">
        <ele>1.188</ele>
        <time>1970-01-01T00:22:47Z</time>
      </trkpt>
      <trkpt lat="40.745315" lon="0.570702">
        <ele>1.199</ele>
        <time>1970-01-01T00:22:48Z</time>
      </trkpt>
      <trkpt lat="40.745253" lon="0.570731">
        <ele>1.007</ele>
        <time>1970-01-01T00:22:49Z</time>
      </trkpt>
      <trkpt lat="40.745189" lon="0.570759">
        <ele>1.027</ele>
        <time>1970-01-01T00:22:50Z</time>
      </trkpt>
      <trkpt lat="40.745125" lon="0.570784">
        <ele>1.008</ele>
        <time>1970-01-01T00:22:51Z</time>
      </trkpt>
      <trkpt lat="40.745060" lon="0.570809">
        <ele>1.016</ele>
        <time>1970-01-01T00:22:52Z</time>
      </trkpt>
      <trkpt lat="40.744995" lon="0.570834">
        <ele>1.043</ele>
        <time>1970-01-01T00:22:53Z</time>
      </trkpt>
      <trkpt lat="40.744930" lon="0.570860">
        <ele>1.044</ele>
        <time>1970-01-01T00:22:54Z</time>
      </trkpt>
      <trkpt lat="40.744866" lon="0.570888">
        <ele>1.067</ele>
        <time>1970-01-01T00:22:55Z</time>
      </trkpt>
      <trkpt lat="40.744802" lon="0.570914">
        <ele>0.947</ele>
        <time>1970-01-01T00:22:56Z</time>
      </trkpt>
      <trkpt lat="40.744739" lon="0.570939">
        <ele>0.753</ele>
        <time>1970-01-01T00:22:57Z</time>
      </trkpt>
      <trkpt lat="40.744675" lon="0.570963">
        <ele>0.657</ele>
        <time>1970-01-01T00:22:58Z</time>
      </trkpt>
      <trkpt lat="40.744612" lon="0.570986">
        <ele>0.758</ele>
        <time>1970-01-01T00:22:59Z</time>
      </trkpt>
      <trkpt lat="40.744550" lon="0.571008">
        <ele>0.848</ele>
        <time>1970-01-01T00:23:00Z</time>
      </trkpt>
      <trkpt lat="40.744486" lon="0.571030">
        <ele>0.961</ele>
        <time>1970-01-01T00:23:01Z</time>
      </trkpt>
      <trkpt lat="40.744423" lon="0.571050">
        <ele>1.017</ele>
        <time>1970-01-01T00:23:02Z</time>
      </trkpt>
      <trkpt lat="40.744358" lon="0.571070">
        <ele>1.008</ele>
        <time>1970-01-01T00:23:03Z</time>
      </trkpt>
      <trkpt lat="40.744294" lon="0.571087">
        <ele>1.071</ele>
        <time>1970-01-01T00:23:04Z</time>
      </trkpt>
      <trkpt lat="40.744229" lon="0.571099">
        <ele>1.048</ele>
        <time>1970-01-01T00:23:05Z</time>
      </trkpt>
      <trkpt lat="40.744163" lon="0.571109">
        <ele>1.069</ele>
        <time>1970-01-01T00:23:06Z</time>
      </trkpt>
      <trkpt lat="40.744097" lon="0.571122">
        <ele>1.012</ele>
        <time>1970-01-01T00:23:07Z</time>
      </trkpt>
      <trkpt lat="40.744030" lon="0.571138">
        <ele>0.922</ele>
        <time>1970-01-01T00:23:08Z</time>
      </trkpt>
      <trkpt lat="40.743964" lon="0.571157">
        <ele>0.738</ele>
        <time>1970-01-01T00:23:09Z</time>
      </trkpt>
      <trkpt lat="40.743898" lon="0.571176">
        <ele>0.562</ele>
        <time>1970-01-01T00:23:10Z</time>
      </trkpt>
      <trkpt lat="40.743832" lon="0.571195">
        <ele>0.583</ele>
        <time>1970-01-01T00:23:11Z</time>
      </trkpt>
      <trkpt lat="40.743766" lon="0.571219">
        <ele>0.615</ele>
        <time>1970-01-01T00:23:12Z</time>
      </trkpt>
      <trkpt lat="40.743700" lon="0.571248">
        <ele>0.765</ele>
        <time>1970-01-01T00:23:13Z</time>
      </trkpt>
      <trkpt lat="40.743635" lon="0.571277">
        <ele>0.911</ele>
        <time>1970-01-01T00:23:14Z</time>
      </trkpt>
      <trkpt lat="40.743570" lon="0.571306">
        <ele>1.008</ele>
        <time>1970-01-01T00:23:15Z</time>
      </trkpt>
      <trkpt lat="40.743505" lon="0.571332">
        <ele>0.958</ele>
        <time>1970-01-01T00:23:16Z</time>
      </trkpt>
      <trkpt lat="40.743439" lon="0.571358">
        <ele>0.965</ele>
        <time>1970-01-01T00:23:17Z</time>
      </trkpt>
      <trkpt lat="40.743374" lon="0.571384">
        <ele>1.086</ele>
        <time>1970-01-01T00:23:18Z</time>
      </trkpt>
      <trkpt lat="40.743309" lon="0.571410">
        <ele>0.959</ele>
        <time>1970-01-01T00:23:19Z</time>
      </trkpt>
      <trkpt lat="40.743245" lon="0.571437">
        <ele>0.849</ele>
        <time>1970-01-01T00:23:20Z</time>
      </trkpt>
      <trkpt lat="40.743180" lon="0.571461">
        <ele>0.765</ele>
        <time>1970-01-01T00:23:21Z</time>
      </trkpt>
      <trkpt lat="40.743115" lon="0.571485">
        <ele>0.769</ele>
        <time>1970-01-01T00:23:22Z</time>
      </trkpt>
      <trkpt lat="40.743050" lon="0.571512">
        <ele>0.640</ele>
        <time>1970-01-01T00:23:23Z</time>
      </trkpt>
      <trkpt lat="40.742986" lon="0.571541">
        <ele>0.614</ele>
        <time>1970-01-01T00:23:24Z</time>
      </trkpt>
      <trkpt lat="40.742923" lon="0.571570">
        <ele>0.754</ele>
        <time>1970-01-01T00:23:25Z</time>
      </trkpt>
      <trkpt lat="40.742860" lon="0.571597">
        <ele>0.809</ele>
        <time>1970-01-01T00:23:26Z</time>
      </trkpt>
      <trkpt lat="40.742797" lon="0.571622">
        <ele>0.908</ele>
        <time>1970-01-01T00:23:27Z</time>
      </trkpt>
      <trkpt lat="40.742734" lon="0.571646">
        <ele>1.058</ele>
        <time>1970-01-01T00:23:28Z</time>
      </trkpt>
      <trkpt lat="40.742671" lon="0.571670">
        <ele>1.015</ele>
        <time>1970-01-01T00:23:29Z</time>
      </trkpt>
      <trkpt lat="40.742608" lon="0.571694">
        <ele>0.976</ele>
        <time>1970-01-01T00:23:30Z</time>
      </trkpt>
      <trkpt lat="40.742545" lon="0.571719">
        <ele>0.839</ele>
        <time>1970-01-01T00:23:31Z</time>
      </trkpt>
      <trkpt lat="40.742482" lon="0.571745">
        <ele>0.749</ele>
        <time>1970-01-01T00:23:32Z</time>
      </trkpt>
      <trkpt lat="40.742418" lon="0.571772">
        <ele>0.775</ele>
        <time>1970-01-01T00:23:33Z</time>
      </trkpt>
      <trkpt lat="40.742355" lon="0.571798">
        <ele>0.819</ele>
        <time>1970-01-01T00:23:34Z</time>
      </trkpt>
      <trkpt lat="40.742291" lon="0.571822">
        <ele>0.930</ele>
        <time>1970-01-01T00:23:35Z</time>
      </trkpt>
      <trkpt lat="40.742228" lon="0.571845">
        <ele>1.096</ele>
        <time>1970-01-01T00:23:36Z</time>
      </trkpt>
      <trkpt lat="40.742164" lon="0.571868">
        <ele>0.931</ele>
        <time>1970-01-01T00:23:37Z</time>
      </trkpt>
      <trkpt lat="40.742101" lon="0.571889">
        <ele>0.924</ele>
        <time>1970-01-01T00:23:38Z</time>
      </trkpt>
      <trkpt lat="40.742037" lon="0.571909">
        <ele>0.908</ele>
        <time>1970-01-01T00:23:39Z</time>
      </trkpt>
      <trkpt lat="40.741973" lon="0.571928">
        <ele>0.956</ele>
        <time>1970-01-01T00:23:40Z</time>
      </trkpt>
      <trkpt lat="40.741908" lon="0.571946">
        <ele>1.163</ele>
        <time>1970-01-01T00:23:41Z</time>
      </trkpt>
      <trkpt lat="40.741843" lon="0.571964">
        <ele>1.434</ele>
        <time>1970-01-01T00:23:42Z</time>
      </trkpt>
      <trkpt lat="40.741778" lon="0.571983">
        <ele>1.637</ele>
        <time>1970-01-01T00:23:43Z</time>
      </trkpt>
      <trkpt lat="40.741713" lon="0.572002">
        <ele>1.837</ele>
        <time>1970-01-01T00:23:44Z</time>
      </trkpt>
      <trkpt lat="40.741649" lon="0.572024">
        <ele>1.993</ele>
        <time>1970-01-01T00:23:45Z</time>
      </trkpt>
      <trkpt lat="40.741585" lon="0.572048">
        <ele>1.727</ele>
        <time>1970-01-01T00:23:46Z</time>
      </trkpt>
      <trkpt lat="40.741522" lon="0.572071">
        <ele>1.548</ele>
        <time>1970-01-01T00:23:47Z</time>
      </trkpt>
      <trkpt lat="40.741459" lon="0.572092">
        <ele>1.337</ele>
        <time>1970-01-01T00:23:48Z</time>
      </trkpt>
      <trkpt lat="40.741396" lon="0.572114">
        <ele>1.049</ele>
        <time>1970-01-01T00:23:49Z</time>
      </trkpt>
      <trkpt lat="40.741333" lon="0.572134">
        <ele>0.913</ele>
        <time>1970-01-01T00:23:50Z</time>
      </trkpt>
      <trkpt lat="40.741270" lon="0.572154">
        <ele>0.908</ele>
        <time>1970-01-01T00:23:51Z</time>
      </trkpt>
      <trkpt lat="40.741207" lon="0.572175">
        <ele>0.960</ele>
        <time>1970-01-01T00:23:52Z</time>
      </trkpt>
      <trkpt lat="40.741145" lon="0.572196">
        <ele>0.957</ele>
        <time>1970-01-01T00:23:53Z</time>
      </trkpt>
      <trkpt lat="40.741082" lon="0.572218">
        <ele>1.098</ele>
        <time>1970-01-01T00:23:54Z</time>
      </trkpt>
      <trkpt lat="40.741018" lon="0.572239">
        <ele>0.941</ele>
        <time>1970-01-01T00:23:55Z</time>
      </trkpt>
      <trkpt lat="40.740955" lon="0.572259">
        <ele>0.931</ele>
        <time>1970-01-01T00:23:56Z</time>
      </trkpt>
      <trkpt lat="40.740892" lon="0.572280">
        <ele>0.847</ele>
        <time>1970-01-01T00:23:57Z</time>
      </trkpt>
      <trkpt lat="40.740828" lon="0.572300">
        <ele>0.731</ele>
        <time>1970-01-01T00:23:58Z</time>
      </trkpt>
      <trkpt lat="40.740765" lon="0.572322">
        <ele>0.632</ele>
        <time>1970-01-01T00:23:59Z</time>
      </trkpt>
      <trkpt lat="40.740701" lon="0.572342">
        <ele>0.432</ele>
        <time>1970-01-01T00:24:00Z</time>
      </trkpt>
      <trkpt lat="40.740637" lon="0.572361">
        <ele>0.192</ele>
        <time>1970-01-01T00:24:01Z</time>
      </trkpt>
      <trkpt lat="40.740573" lon="0.572379">
        <ele>-0.111</ele>
        <time>1970-01-01T00:24:02Z</time>
      </trkpt>
      <trkpt lat="40.740508" lon="0.572397">
        <ele>-0.608</ele>
        <time>1970-01-01T00:24:03Z</time>
      </trkpt>
      <trkpt lat="40.740443" lon="0.572417">
        <ele>-1.310</ele>
        <time>1970-01-01T00:24:04Z</time>
      </trkpt>
      <trkpt lat="40.740379" lon="0.572438">
        <ele>-2.057</ele>
        <time>1970-01-01T00:24:05Z</time>
      </trkpt>
      <trkpt lat="40.740314" lon="0.572457">
        <ele>-2.948</ele>
        <time>1970-01-01T00:24:06Z</time>
      </trkpt>
      <trkpt lat="40.740250" lon="0.572477">
        <ele>-3.711</ele>
        <time>1970-01-01T00:24:07Z</time>
      </trkpt>
      <trkpt lat="40.740186" lon="0.572497">
        <ele>-4.361</ele>
        <time>1970-01-01T00:24:08Z</time>
      </trkpt>
      <trkpt lat="40.740123" lon="0.572520">
        <ele>-4.447</ele>
        <time>1970-01-01T00:24:09Z</time>
      </trkpt>
      <trkpt lat="40.740060" lon="0.572546">
        <ele>-4.571</ele>
        <time>1970-01-01T00:24:10Z</time>
      </trkpt>
      <trkpt lat="40.739998" lon="0.572573">
        <ele>-4.422</ele>
        <time>1970-01-01T00:24:11Z</time>
      </trkpt>
      <trkpt lat="40.739936" lon="0.572602">
        <ele>-3.268</ele>
        <time>1970-01-01T00:24:12Z</time>
      </trkpt>
      <trkpt lat="40.739874" lon="0.572630">
        <ele>-2.242</ele>
        <time>1970-01-01T00:24:13Z</time>
      </trkpt>
      <trkpt lat="40.739812" lon="0.572658">
        <ele>-1.326</ele>
        <time>1970-01-01T00:24:14Z</time>
      </trkpt>
      <trkpt lat="40.739751" lon="0.572686">
        <ele>-0.708</ele>
        <time>1970-01-01T00:24:15Z</time>
      </trkpt>
      <trkpt lat="40.739690" lon="0.572715">
        <ele>-0.583</ele>
        <time>1970-01-01T00:24:16Z</time>
      </trkpt>
      <trkpt lat="40.739629" lon="0.572745">
        <ele>-0.810</ele>
        <time>1970-01-01T00:24:17Z</time>
      </trkpt>
      <trkpt lat="40.739569" lon="0.572775">
        <ele>-1.021</ele>
        <time>1970-01-01T00:24:18Z</time>
      </trkpt>
      <trkpt lat="40.739507" lon="0.572803">
        <ele>-1.064</ele>
        <time>1970-01-01T00:24:19Z</time>
      </trkpt>
      <trkpt lat="40.739445" lon="0.572829">
        <ele>-1.064</ele>
        <time>1970-01-01T00:24:20Z</time>
      </trkpt>
      <trkpt lat="40.739381" lon="0.572855">
        <ele>-0.820</ele>
        <time>1970-01-01T00:24:21Z</time>
      </trkpt>
      <trkpt lat="40.739316" lon="0.572878">
        <ele>-0.714</ele>
        <time>1970-01-01T00:24:22Z</time>
      </trkpt>
      <trkpt lat="40.739251" lon="0.572900">
        <ele>-0.885</ele>
        <time>1970-01-01T00:24:23Z</time>
      </trkpt>
      <trkpt lat="40.739186" lon="0.572922">
        <ele>-1.125</ele>
        <time>1970-01-01T00:24:24Z</time>
      </trkpt>
      <trkpt lat="40.739121" lon="0.572944">
        <ele>-1.526</ele>
        <time>1970-01-01T00:24:25Z</time>
      </trkpt>
      <trkpt lat="40.739057" lon="0.572966">
        <ele>-2.008</ele>
        <time>1970-01-01T00:24:26Z</time>
      </trkpt>
      <trkpt lat="40.738994" lon="0.572986">
        <ele>-2.508</ele>
        <time>1970-01-01T00:24:27Z</time>
      </trkpt>
      <trkpt lat="40.738931" lon="0.573006">
        <ele>-3.069</ele>
        <time>1970-01-01T00:24:28Z</time>
      </trkpt>
      <trkpt lat="40.738870" lon="0.573026">
        <ele>-3.556</ele>
        <time>1970-01-01T00:24:29Z</time>
      </trkpt>
      <trkpt lat="40.738811" lon="0.573045">
        <ele>-4.177</ele>
        <time>1970-01-01T00:24:30Z</time>
      </trkpt>
      <trkpt lat="40.738753" lon="0.573065">
        <ele>-4.550</ele>
        <time>1970-01-01T00:24:31Z</time>
      </trkpt>
      <trkpt lat="40.738694" lon="0.573085">
        <ele>-4.660</ele>
        <time>1970-01-01T00:24:32Z</time>
      </trkpt>
      <trkpt lat="40.738634" lon="0.573105">
        <ele>-4.786</ele>
        <time>1970-01-01T00:24:33Z</time>
      </trkpt>
      <trkpt lat="40.738573" lon="0.573125">
        <ele>-4.670</ele>
        <time>1970-01-01T00:24:34Z</time>
      </trkpt>
      <trkpt lat="40.738512" lon="0.573147">
        <ele>-4.391</ele>
        <time>1970-01-01T00:24:35Z</time>
      </trkpt>
      <trkpt lat="40.738451" lon="0.573169">
        <ele>-4.082</ele>
        <time>1970-01-01T00:24:36Z</time>
      </trkpt>
      <trkpt lat="40.738389" lon="0.573192">
        <ele>-3.743</ele>
        <time>1970-01-01T00:24:37Z</time>
      </trkpt>
      <trkpt lat="40.738327" lon="0.573213">
        <ele>-3.417</ele>
        <time>1970-01-01T00:24:38Z</time>
      </trkpt>
      <trkpt lat="40.738264" lon="0.573234">
        <ele>-3.308</ele>
        <time>1970-01-01T00:24:39Z</time>
      </trkpt>
      <trkpt lat="40.738202" lon="0.573254">
        <ele>-3.265</ele>
        <time>1970-01-01T00:24:40Z</time>
      </trkpt>
      <trkpt lat="40.738139" lon="0.573273">
        <ele>-3.162</ele>
        <time>1970-01-01T00:24:41Z</time>
      </trkpt>
      <trkpt lat="40.738076" lon="0.573292">
        <ele>-3.043</ele>
        <time>1970-01-01T00:24:42Z</time>
      </trkpt>
      <trkpt lat="40.738012" lon="0.573311">
        <ele>-2.516</ele>
        <time>1970-01-01T00:24:43Z</time>
      </trkpt>
      <trkpt lat="40.737949" lon="0.573331">
        <ele>-1.866</ele>
        <time>1970-01-01T00:24:44Z</time>
      </trkpt>
      <trkpt lat="40.737885" lon="0.573350">
        <ele>-1.212</ele>
        <time>1970-01-01T00:24:45Z</time>
      </trkpt>
      <trkpt lat="40.737820" lon="0.573368">
        <ele>-0.766</ele>
        <time>1970-01-01T00:24:46Z</time>
      </trkpt>
      <trkpt lat="40.737755" lon="0.573384">
        <ele>-0.277</ele>
        <time>1970-01-01T00:24:47Z</time>
      </trkpt>
      <trkpt lat="40.737690" lon="0.573399">
        <ele>0.399</ele>
        <time>1970-01-01T00:24:48Z</time>
      </trkpt>
      <trkpt lat="40.737625" lon="0.573415">
        <ele>0.807</ele>
        <time>1970-01-01T00:24:49Z</time>
      </trkpt>
      <trkpt lat="40.737559" lon="0.573430">
        <ele>1.427</ele>
        <time>1970-01-01T00:24:50Z</time>
      </trkpt>
      <trkpt lat="40.737493" lon="0.573444">
        <ele>2.008</ele>
        <time>1970-01-01T00:24:51Z</time>
      </trkpt>
      <trkpt lat="40.737427" lon="0.573454">
        <ele>1.956</ele>
        <time>1970-01-01T00:24:52Z</time>
      </trkpt>
      <trkpt lat="40.737362" lon="0.573463">
        <ele>1.793</ele>
        <time>1970-01-01T00:24:53Z</time>
      </trkpt>
      <trkpt lat="40.737296" lon="0.573473">
        <ele>1.624</ele>
        <time>1970-01-01T00:24:54Z</time>
      </trkpt>
      <trkpt lat="40.737231" lon="0.573483">
        <ele>1.657</ele>
        <time>1970-01-01T00:24:55Z</time>
      </trkpt>
      <trkpt lat="40.737165" lon="0.573493">
        <ele>1.657</ele>
        <time>1970-01-01T00:24:56Z</time>
      </trkpt>
      <trkpt lat="40.737100" lon="0.573502">
        <ele>1.663</ele>
        <time>1970-01-01T00:24:57Z</time>
      </trkpt>
      <trkpt lat="40.737034" lon="0.573510">
        <ele>1.687</ele>
        <time>1970-01-01T00:24:58Z</time>
      </trkpt>
      <trkpt lat="40.736968" lon="0.573520">
        <ele>1.718</ele>
        <time>1970-01-01T00:24:59Z</time>
      </trkpt>
      <trkpt lat="40.736902" lon="0.573529">
        <ele>1.857</ele>
        <time>1970-01-01T00:25:00Z</time>
      </trkpt>
      <trkpt lat="40.736836" lon="0.573539">
        <ele>1.800</ele>
        <time>1970-01-01T00:25:01Z</time>
      </trkpt>
      <trkpt lat="40.736771" lon="0.573551">
        <ele>1.920</ele>
        <time>1970-01-01T00:25:02Z</time>
      </trkpt>
      <trkpt lat="40.736705" lon="0.573561">
        <ele>2.008</ele>
        <time>1970-01-01T00:25:03Z</time>
      </trkpt>
      <trkpt lat="40.736638" lon="0.573568">
        <ele>2.032</ele>
        <time>1970-01-01T00:25:04Z</time>
      </trkpt>
      <trkpt lat="40.736571" lon="0.573578">
        <ele>2.079</ele>
        <time>1970-01-01T00:25:05Z</time>
      </trkpt>
      <trkpt lat="40.736504" lon="0.573588">
        <ele>2.080</ele>
        <time>1970-01-01T00:25:06Z</time>
      </trkpt>
      <trkpt lat="40.736437" lon="0.573596">
        <ele>2.063</ele>
        <time>1970-01-01T00:25:07Z</time>
      </trkpt>
      <trkpt lat="40.736371" lon="0.573604">
        <ele>2.023</ele>
        <time>1970-01-01T00:25:08Z</time>
      </trkpt>
      <trkpt lat="40.736304" lon="0.573613">
        <ele>2.029</ele>
        <time>1970-01-01T00:25:09Z</time>
      </trkpt>
      <trkpt lat="40.736238" lon="0.573621">
        <ele>2.033</ele>
        <time>1970-01-01T00:25:10Z</time>
      </trkpt>
      <trkpt lat="40.736173" lon="0.573628">
        <ele>2.054</ele>
        <time>1970-01-01T00:25:11Z</time>
      </trkpt>
      <trkpt lat="40.736107" lon="0.573635">
        <ele>2.016</ele>
        <time>1970-01-01T00:25:12Z</time>
      </trkpt>
      <trkpt lat="40.736042" lon="0.573644">
        <ele>2.276</ele>
        <time>1970-01-01T00:25:13Z</time>
      </trkpt>
      <trkpt lat="40.735978" lon="0.573654">
        <ele>2.513</ele>
        <time>1970-01-01T00:25:14Z</time>
      </trkpt>
      <trkpt lat="40.735914" lon="0.573663">
        <ele>2.708</ele>
        <time>1970-01-01T00:25:15Z</time>
      </trkpt>
      <trkpt lat="40.735851" lon="0.573673">
        <ele>2.948</ele>
        <time>1970-01-01T00:25:16Z</time>
      </trkpt>
      <trkpt lat="40.735788" lon="0.573683">
        <ele>2.865</ele>
        <time>1970-01-01T00:25:17Z</time>
      </trkpt>
      <trkpt lat="40.735724" lon="0.573692">
        <ele>2.626</ele>
        <time>1970-01-01T00:25:18Z</time>
      </trkpt>
      <trkpt lat="40.735659" lon="0.573702">
        <ele>2.449</ele>
        <time>1970-01-01T00:25:19Z</time>
      </trkpt>
      <trkpt lat="40.735594" lon="0.573712">
        <ele>2.119</ele>
        <time>1970-01-01T00:25:20Z</time>
      </trkpt>
      <trkpt lat="40.735528" lon="0.573722">
        <ele>1.975</ele>
        <time>1970-01-01T00:25:21Z</time>
      </trkpt>
      <trkpt lat="40.735462" lon="0.573733">
        <ele>1.819</ele>
        <time>1970-01-01T00:25:22Z</time>
      </trkpt>
      <trkpt lat="40.735397" lon="0.573745">
        <ele>1.780</ele>
        <time>1970-01-01T00:25:23Z</time>
      </trkpt>
      <trkpt lat="40.735331" lon="0.573757">
        <ele>1.677</ele>
        <time>1970-01-01T00:25:24Z</time>
      </trkpt>
      <trkpt lat="40.735266" lon="0.573771">
        <ele>1.661</ele>
        <time>1970-01-01T00:25:25Z</time>
      </trkpt>
      <trkpt lat="40.735200" lon="0.573784">
        <ele>1.727</ele>
        <time>1970-01-01T00:25:26Z</time>
      </trkpt>
      <trkpt lat="40.735133" lon="0.573797">
        <ele>1.808</ele>
        <time>1970-01-01T00:25:27Z</time>
      </trkpt>
      <trkpt lat="40.735067" lon="0.573812">
        <ele>1.934</ele>
        <time>1970-01-01T00:25:28Z</time>
      </trkpt>
      <trkpt lat="40.735000" lon="0.573827">
        <ele>2.091</ele>
        <time>1970-01-01T00:25:29Z</time>
      </trkpt>
      <trkpt lat="40.734933" lon="0.573842">
        <ele>2.292</ele>
        <time>1970-01-01T00:25:30Z</time>
      </trkpt>
      <trkpt lat="40.734867" lon="0.573858">
        <ele>2.495</ele>
        <time>1970-01-01T00:25:31Z</time>
      </trkpt>
      <trkpt lat="40.734801" lon="0.573874">
        <ele>2.645</ele>
        <time>1970-01-01T00:25:32Z</time>
      </trkpt>
      <trkpt lat="40.734735" lon="0.573891">
        <ele>3.091</ele>
        <time>1970-01-01T00:25:33Z</time>
      </trkpt>
      <trkpt lat="40.734669" lon="0.573910">
        <ele>3.025</ele>
        <time>1970-01-01T00:25:34Z</time>
      </trkpt>
      <trkpt lat="40.734604" lon="0.573930">
        <ele>3.026</ele>
        <time>1970-01-01T00:25:35Z</time>
      </trkpt>
      <trkpt lat="40.734539" lon="0.573950">
        <ele>3.082</ele>
        <time>1970-01-01T00:25:36Z</time>
      </trkpt>
      <trkpt lat="40.734476" lon="0.573972">
        <ele>3.043</ele>
        <time>1970-01-01T00:25:37Z</time>
      </trkpt>
      <trkpt lat="40.734413" lon="0.573994">
        <ele>2.917</ele>
        <time>1970-01-01T00:25:38Z</time>
      </trkpt>
      <trkpt lat="40.734349" lon="0.574015">
        <ele>2.808</ele>
        <time>1970-01-01T00:25:39Z</time>
      </trkpt>
      <trkpt lat="40.734286" lon="0.574035">
        <ele>2.795</ele>
        <time>1970-01-01T00:25:40Z</time>
      </trkpt>
      <trkpt lat="40.734223" lon="0.574057">
        <ele>2.752</ele>
        <time>1970-01-01T00:25:41Z</time>
      </trkpt>
      <trkpt lat="40.734161" lon="0.574080">
        <ele>2.733</ele>
        <time>1970-01-01T00:25:42Z</time>
      </trkpt>
      <trkpt lat="40.734100" lon="0.574105">
        <ele>2.786</ele>
        <time>1970-01-01T00:25:43Z</time>
      </trkpt>
      <trkpt lat="40.734040" lon="0.574129">
        <ele>2.726</ele>
        <time>1970-01-01T00:25:44Z</time>
      </trkpt>
      <trkpt lat="40.733981" lon="0.574154">
        <ele>2.932</ele>
        <time>1970-01-01T00:25:45Z</time>
      </trkpt>
      <trkpt lat="40.733924" lon="0.574179">
        <ele>3.026</ele>
        <time>1970-01-01T00:25:46Z</time>
      </trkpt>
      <trkpt lat="40.733867" lon="0.574204">
        <ele>2.937</ele>
        <time>1970-01-01T00:25:47Z</time>
      </trkpt>
      <trkpt lat="40.733813" lon="0.574228">
        <ele>2.454</ele>
        <time>1970-01-01T00:25:48Z</time>
      </trkpt>
      <trkpt lat="40.733760" lon="0.574254">
        <ele>1.956</ele>
        <time>1970-01-01T00:25:49Z</time>
      </trkpt>
      <trkpt lat="40.733709" lon="0.574282">
        <ele>1.511</ele>
        <time>1970-01-01T00:25:50Z</time>
      </trkpt>
      <trkpt lat="40.733659" lon="0.574312">
        <ele>1.008</ele>
        <time>1970-01-01T00:25:51Z</time>
      </trkpt>
      <trkpt lat="40.733611" lon="0.574344">
        <ele>0.642</ele>
        <time>1970-01-01T00:25:52Z</time>
      </trkpt>
      <trkpt lat="40.733562" lon="0.574377">
        <ele>0.659</ele>
        <time>1970-01-01T00:25:53Z</time>
      </trkpt>
      <trkpt lat="40.733511" lon="0.574408">
        <ele>0.590</ele>
        <time>1970-01-01T00:25:54Z</time>
      </trkpt>
      <trkpt lat="40.733462" lon="0.574438">
        <ele>0.453</ele>
        <time>1970-01-01T00:25:55Z</time>
      </trkpt>
      <trkpt lat="40.733416" lon="0.574473">
        <ele>0.563</ele>
        <time>1970-01-01T00:25:56Z</time>
      </trkpt>
      <trkpt lat="40.733380" lon="0.574518">
        <ele>0.789</ele>
        <time>1970-01-01T00:25:57Z</time>
      </trkpt>
      <trkpt lat="40.733360" lon="0.574571">
        <ele>1.033</ele>
        <time>1970-01-01T00:25:58Z</time>
      </trkpt>
      <trkpt lat="40.733356" lon="0.574625">
        <ele>1.314</ele>
        <time>1970-01-01T00:25:59Z</time>
      </trkpt>
      <trkpt lat="40.733358" lon="0.574673">
        <ele>1.768</ele>
        <time>1970-01-01T00:26:00Z</time>
      </trkpt>
      <trkpt lat="40.733360" lon="0.574713">
        <ele>1.942</ele>
        <time>1970-01-01T00:26:01Z</time>
      </trkpt>
      <trkpt lat="40.733359" lon="0.574749">
        <ele>2.126</ele>
        <time>1970-01-01T00:26:02Z</time>
      </trkpt>
      <trkpt lat="40.733357" lon="0.574786">
        <ele>2.208</ele>
        <time>1970-01-01T00:26:03Z</time>
      </trkpt>
      <trkpt lat="40.733355" lon="0.574824">
        <ele>2.413</ele>
        <time>1970-01-01T00:26:04Z</time>
      </trkpt>
      <trkpt lat="40.733350" lon="0.574860">
        <ele>2.520</ele>
        <time>1970-01-01T00:26:05Z</time>
      </trkpt>
      <trkpt lat="40.733339" lon="0.574893">
        <ele>2.661</ele>
        <time>1970-01-01T00:26:06Z</time>
      </trkpt>
      <trkpt lat="40.733315" lon="0.574919">
        <ele>2.814</ele>
        <time>1970-01-01T00:26:07Z</time>
      </trkpt>
      <trkpt lat="40.733285" lon="0.574936">
        <ele>3.064</ele>
        <time>1970-01-01T00:26:08Z</time>
      </trkpt>
      <trkpt lat="40.733253" lon="0.574939">
        <ele>3.260</ele>
        <time>1970-01-01T00:26:09Z</time>
      </trkpt>
      <trkpt lat="40.733225" lon="0.574928">
        <ele>3.294</ele>
        <time>1970-01-01T00:26:10Z</time>
      </trkpt>
      <trkpt lat="40.733197" lon="0.574913">
        <ele>3.215</ele>
        <time>1970-01-01T00:26:11Z</time>
      </trkpt>
      <trkpt lat="40.733170" lon="0.574901">
        <ele>3.291</ele>
        <time>1970-01-01T00:26:12Z</time>
      </trkpt>
      <trkpt lat="40.733141" lon="0.574892">
        <ele>3.281</ele>
        <time>1970-01-01T00:26:13Z</time>
      </trkpt>
      <trkpt lat="40.733112" lon="0.574884">
        <ele>3.219</ele>
        <time>1970-01-01T00:26:14Z</time>
      </trkpt>
      <trkpt lat="40.733082" lon="0.574876">
        <ele>3.208</ele>
        <time>1970-01-01T00:26:15Z</time>
      </trkpt>
      <trkpt lat="40.733050" lon="0.574872">
        <ele>3.146</ele>
        <time>1970-01-01T00:26:16Z</time>
      </trkpt>
      <trkpt lat="40.733013" lon="0.574872">
        <ele>2.983</ele>
        <time>1970-01-01T00:26:17Z</time>
      </trkpt>
      <trkpt lat="40.732973" lon="0.574873">
        <ele>2.674</ele>
        <time>1970-01-01T00:26:18Z</time>
      </trkpt>
      <trkpt lat="40.732931" lon="0.574871">
        <ele>2.237</ele>
        <time>1970-01-01T00:26:19Z</time>
      </trkpt>
      <trkpt lat="40.732886" lon="0.574864">
        <ele>1.827</ele>
        <time>1970-01-01T00:26:20Z</time>
      </trkpt>
      <trkpt lat="40.732840" lon="0.574855">
        <ele>1.493</ele>
        <time>1970-01-01T00:26:21Z</time>
      </trkpt>
      <trkpt lat="40.732792" lon="0.574846">
        <ele>0.917</ele>
        <time>1970-01-01T00:26:22Z</time>
      </trkpt>
      <trkpt lat="40.732744" lon="0.574835">
        <ele>0.958</ele>
        <time>1970-01-01T00:26:23Z</time>
      </trkpt>
      <trkpt lat="40.732696" lon="0.574823">
        <ele>1.245</ele>
        <time>1970-01-01T00:26:24Z</time>
      </trkpt>
      <trkpt lat="40.732644" lon="0.574810">
        <ele>1.647</ele>
        <time>1970-01-01T00:26:25Z</time>
      </trkpt>
      <trkpt lat="40.732592" lon="0.574800">
        <ele>1.911</ele>
        <time>1970-01-01T00:26:26Z</time>
      </trkpt>
      <trkpt lat="40.732540" lon="0.574794">
        <ele>2.408</ele>
        <time>1970-01-01T00:26:27Z</time>
      </trkpt>
      <trkpt lat="40.732486" lon="0.574794">
        <ele>3.141</ele>
        <time>1970-01-01T00:26:28Z</time>
      </trkpt>
      <trkpt lat="40.732432" lon="0.574796">
        <ele>4.498</ele>
        <time>1970-01-01T00:26:29Z</time>
      </trkpt>
      <trkpt lat="40.732377" lon="0.574793">
        <ele>5.699</ele>
        <time>1970-01-01T00:26:30Z</time>
      </trkpt>
      <trkpt lat="40.732322" lon="0.574785">
        <ele>6.862</ele>
        <time>1970-01-01T00:26:31Z</time>
      </trkpt>
      <trkpt lat="40.732267" lon="0.574774">
        <ele>7.912</ele>
        <time>1970-01-01T00:26:32Z</time>
      </trkpt>
      <trkpt lat="40.732213" lon="0.574763">
        <ele>8.948</ele>
        <time>1970-01-01T00:26:33Z</time>
      </trkpt>
      <trkpt lat="40.732159" lon="0.574753">
        <ele>9.772</ele>
        <time>1970-01-01T00:26:34Z</time>
      </trkpt>
      <trkpt lat="40.732106" lon="0.574744">
        <ele>10.593</ele>
        <time>1970-01-01T00:26:35Z</time>
      </trkpt>
      <trkpt lat="40.732053" lon="0.574737">
        <ele>11.391</ele>
        <time>1970-01-01T00:26:36Z</time>
      </trkpt>
      <trkpt lat="40.732002" lon="0.574732">
        <ele>12.281</ele>
        <time>1970-01-01T00:26:37Z</time>
      </trkpt>
      <trkpt lat="40.731949" lon="0.574726">
        <ele>13.019</ele>
        <time>1970-01-01T00:26:38Z</time>
      </trkpt>
      <trkpt lat="40.731895" lon="0.574720">
        <ele>13.508</ele>
        <time>1970-01-01T00:26:39Z</time>
      </trkpt>
      <trkpt lat="40.731841" lon="0.574714">
        <ele>13.956</ele>
        <time>1970-01-01T00:26:40Z</time>
      </trkpt>
      <trkpt lat="40.731785" lon="0.574709">
        <ele>14.473</ele>
        <time>1970-01-01T00:26:41Z</time>
      </trkpt>
      <trkpt lat="40.731729" lon="0.574704">
        <ele>14.944</ele>
        <time>1970-01-01T00:26:42Z</time>
      </trkpt>
      <trkpt lat="40.731677" lon="0.574699">
        <ele>15.487</ele>
        <time>1970-01-01T00:26:43Z</time>
      </trkpt>
      <trkpt lat="40.731625" lon="0.574691">
        <ele>15.897</ele>
        <time>1970-01-01T00:26:44Z</time>
      </trkpt>
      <trkpt lat="40.731574" lon="0.574684">
        <ele>16.233</ele>
        <time>1970-01-01T00:26:45Z</time>
      </trkpt>
      <trkpt lat="40.731522" lon="0.574679">
        <ele>16.727</ele>
        <time>1970-01-01T00:26:46Z</time>
      </trkpt>
      <trkpt lat="40.731471" lon="0.574669">
        <ele>17.168</ele>
        <time>1970-01-01T00:26:47Z</time>
      </trkpt>
      <trkpt lat="40.731421" lon="0.574659">
        <ele>17.539</ele>
        <time>1970-01-01T00:26:48Z</time>
      </trkpt>
      <trkpt lat="40.731370" lon="0.574646">
        <ele>17.601</ele>
        <time>1970-01-01T00:26:49Z</time>
      </trkpt>
      <trkpt lat="40.731320" lon="0.574627">
        <ele>17.121</ele>
        <time>1970-01-01T00:26:50Z</time>
      </trkpt>
      <trkpt lat="40.731270" lon="0.574607">
        <ele>16.808</ele>
        <time>1970-01-01T00:26:51Z</time>
      </trkpt>
      <trkpt lat="40.731219" lon="0.574594">
        <ele>16.690</ele>
        <time>1970-01-01T00:26:52Z</time>
      </trkpt>
      <trkpt lat="40.731164" lon="0.574583">
        <ele>16.577</ele>
        <time>1970-01-01T00:26:53Z</time>
      </trkpt>
      <trkpt lat="40.731109" lon="0.574581">
        <ele>16.568</ele>
        <time>1970-01-01T00:26:54Z</time>
      </trkpt>
      <trkpt lat="40.731054" lon="0.574581">
        <ele>15.761</ele>
        <time>1970-01-01T00:26:55Z</time>
      </trkpt>
      <trkpt lat="40.731000" lon="0.574583">
        <ele>14.911</ele>
        <time>1970-01-01T00:26:56Z</time>
      </trkpt>
      <trkpt lat="40.730944" lon="0.574592">
        <ele>14.257</ele>
        <time>1970-01-01T00:26:57Z</time>
      </trkpt>
      <trkpt lat="40.730890" lon="0.574600">
        <ele>13.531</ele>
        <time>1970-01-01T00:26:58Z</time>
      </trkpt>
      <trkpt lat="40.730837" lon="0.574615">
        <ele>12.982</ele>
        <time>1970-01-01T00:26:59Z</time>
      </trkpt>
      <trkpt lat="40.730782" lon="0.574627">
        <ele>12.376</ele>
        <time>1970-01-01T00:27:00Z</time>
      </trkpt>
      <trkpt lat="40.730726" lon="0.574630">
        <ele>11.690</ele>
        <time>1970-01-01T00:27:01Z</time>
      </trkpt>
      <trkpt lat="40.730668" lon="0.574628">
        <ele>10.819</ele>
        <time>1970-01-01T00:27:02Z</time>
      </trkpt>
      <trkpt lat="40.730611" lon="0.574631">
        <ele>10.108</ele>
        <time>1970-01-01T00:27:03Z</time>
      </trkpt>
      <trkpt lat="40.730554" lon="0.574633">
        <ele>9.374</ele>
        <time>1970-01-01T00:27:04Z</time>
      </trkpt>
      <trkpt lat="40.730495" lon="0.574631">
        <ele>8.771</ele>
        <time>1970-01-01T00:27:05Z</time>
      </trkpt>
      <trkpt lat="40.730434" lon="0.574629">
        <ele>8.032</ele>
        <time>1970-01-01T00:27:06Z</time>
      </trkpt>
      <trkpt lat="40.730372" lon="0.574633">
        <ele>7.485</ele>
        <time>1970-01-01T00:27:07Z</time>
      </trkpt>
      <trkpt lat="40.730313" lon="0.574644">
        <ele>7.045</ele>
        <time>1970-01-01T00:27:08Z</time>
      </trkpt>
      <trkpt lat="40.730254" lon="0.574661">
        <ele>6.931</ele>
        <time>1970-01-01T00:27:09Z</time>
      </trkpt>
      <trkpt lat="40.730197" lon="0.574682">
        <ele>7.325</ele>
        <time>1970-01-01T00:27:10Z</time>
      </trkpt>
      <trkpt lat="40.730143" lon="0.574705">
        <ele>7.756</ele>
        <time>1970-01-01T00:27:11Z</time>
      </trkpt>
      <trkpt lat="40.730091" lon="0.574733">
        <ele>8.219</ele>
        <time>1970-01-01T00:27:12Z</time>
      </trkpt>
      <trkpt lat="40.730039" lon="0.574761">
        <ele>8.709</ele>
        <time>1970-01-01T00:27:13Z</time>
      </trkpt>
      <trkpt lat="40.729987" lon="0.574788">
        <ele>9.119</ele>
        <time>1970-01-01T00:27:14Z</time>
      </trkpt>
      <trkpt lat="40.729937" lon="0.574817">
        <ele>9.408</ele>
        <time>1970-01-01T00:27:15Z</time>
      </trkpt>
      <trkpt lat="40.729886" lon="0.574843">
        <ele>9.648</ele>
        <time>1970-01-01T00:27:16Z</time>
      </trkpt>
      <trkpt lat="40.729837" lon="0.574862">
        <ele>9.695</ele>
        <time>1970-01-01T00:27:17Z</time>
      </trkpt>
      <trkpt lat="40.729788" lon="0.574878">
        <ele>9.636</ele>
        <time>1970-01-01T00:27:18Z</time>
      </trkpt>
      <trkpt lat="40.729739" lon="0.574888">
        <ele>9.519</ele>
        <time>1970-01-01T00:27:19Z</time>
      </trkpt>
      <trkpt lat="40.729685" lon="0.574893">
        <ele>9.049</ele>
        <time>1970-01-01T00:27:20Z</time>
      </trkpt>
      <trkpt lat="40.729631" lon="0.574898">
        <ele>8.595</ele>
        <time>1970-01-01T00:27:21Z</time>
      </trkpt>
      <trkpt lat="40.729575" lon="0.574906">
        <ele>7.959</ele>
        <time>1970-01-01T00:27:22Z</time>
      </trkpt>
      <trkpt lat="40.729517" lon="0.574922">
        <ele>7.370</ele>
        <time>1970-01-01T00:27:23Z</time>
      </trkpt>
      <trkpt lat="40.729462" lon="0.574947">
        <ele>6.851</ele>
        <time>1970-01-01T00:27:24Z</time>
      </trkpt>
      <trkpt lat="40.729406" lon="0.574973">
        <ele>6.401</ele>
        <time>1970-01-01T00:27:25Z</time>
      </trkpt>
      <trkpt lat="40.729349" lon="0.574996">
        <ele>6.011</ele>
        <time>1970-01-01T00:27:26Z</time>
      </trkpt>
      <trkpt lat="40.729292" lon="0.575020">
        <ele>5.408</ele>
        <time>1970-01-01T00:27:27Z</time>
      </trkpt>
      <trkpt lat="40.729237" lon="0.575049">
        <ele>4.832</ele>
        <time>1970-01-01T00:27:28Z</time>
      </trkpt>
      <trkpt lat="40.729184" lon="0.575078">
        <ele>4.299</ele>
        <time>1970-01-01T00:27:29Z</time>
      </trkpt>
      <trkpt lat="40.729130" lon="0.575104">
        <ele>3.970</ele>
        <time>1970-01-01T00:27:30Z</time>
      </trkpt>
      <trkpt lat="40.729077" lon="0.575129">
        <ele>3.863</ele>
        <time>1970-01-01T00:27:31Z</time>
      </trkpt>
      <trkpt lat="40.729028" lon="0.575158">
        <ele>3.843</ele>
        <time>1970-01-01T00:27:32Z</time>
      </trkpt>
      <trkpt lat="40.728978" lon="0.575185">
        <ele>3.819</ele>
        <time>1970-01-01T00:27:33Z</time>
      </trkpt>
      <trkpt lat="40.728929" lon="0.575210">
        <ele>3.853</ele>
        <time>1970-01-01T00:27:34Z</time>
      </trkpt>
      <trkpt lat="40.728881" lon="0.575236">
        <ele>3.834</ele>
        <time>1970-01-01T00:27:35Z</time>
      </trkpt>
      <trkpt lat="40.728833" lon="0.575266">
        <ele>3.681</ele>
        <time>1970-01-01T00:27:36Z</time>
      </trkpt>
      <trkpt lat="40.728780" lon="0.575290">
        <ele>3.361</ele>
        <time>1970-01-01T00:27:37Z</time>
      </trkpt>
      <trkpt lat="40.728725" lon="0.575314">
        <ele>3.017</ele>
        <time>1970-01-01T00:27:38Z</time>
      </trkpt>
      <trkpt lat="40.728670" lon="0.575337">
        <ele>2.608</ele>
        <time>1970-01-01T00:27:39Z</time>
      </trkpt>
      <trkpt lat="40.728617" lon="0.575363">
        <ele>2.345</ele>
        <time>1970-01-01T00:27:40Z</time>
      </trkpt>
      <trkpt lat="40.728565" lon="0.575391">
        <ele>2.252</ele>
        <time>1970-01-01T00:27:41Z</time>
      </trkpt>
      <trkpt lat="40.728511" lon="0.575420">
        <ele>2.283</ele>
        <time>1970-01-01T00:27:42Z</time>
      </trkpt>
      <trkpt lat="40.728456" lon="0.575452">
        <ele>2.156</ele>
        <time>1970-01-01T00:27:43Z</time>
      </trkpt>
      <trkpt lat="40.728403" lon="0.575481">
        <ele>2.026</ele>
        <time>1970-01-01T00:27:44Z</time>
      </trkpt>
      <trkpt lat="40.728348" lon="0.575513">
        <ele>1.952</ele>
        <time>1970-01-01T00:27:45Z</time>
      </trkpt>
      <trkpt lat="40.728294" lon="0.575546">
        <ele>1.866</ele>
        <time>1970-01-01T00:27:46Z</time>
      </trkpt>
      <trkpt lat="40.728240" lon="0.575577">
        <ele>1.917</ele>
        <time>1970-01-01T00:27:47Z</time>
      </trkpt>
      <trkpt lat="40.728187" lon="0.575607">
        <ele>2.057</ele>
        <time>1970-01-01T00:27:48Z</time>
      </trkpt>
      <trkpt lat="40.728133" lon="0.575637">
        <ele>2.200</ele>
        <time>1970-01-01T00:27:49Z</time>
      </trkpt>
      <trkpt lat="40.728076" lon="0.575661">
        <ele>2.220</ele>
        <time>1970-01-01T00:27:50Z</time>
      </trkpt>
      <trkpt lat="40.728019" lon="0.575682">
        <ele>2.408</ele>
        <time>1970-01-01T00:27:51Z</time>
      </trkpt>
      <trkpt lat="40.727966" lon="0.575708">
        <ele>2.882</ele>
        <time>1970-01-01T00:27:52Z</time>
      </trkpt>
      <trkpt lat="40.727912" lon="0.575740">
        <ele>3.229</ele>
        <time>1970-01-01T00:27:53Z</time>
      </trkpt>
      <trkpt lat="40.727858" lon="0.575773">
        <ele>3.530</ele>
        <time>1970-01-01T00:27:54Z</time>
      </trkpt>
      <trkpt lat="40.727805" lon="0.575804">
        <ele>3.873</ele>
        <time>1970-01-01T00:27:55Z</time>
      </trkpt>
      <trkpt lat="40.727753" lon="0.575834">
        <ele>4.093</ele>
        <time>1970-01-01T00:27:56Z</time>
      </trkpt>
      <trkpt lat="40.727701" lon="0.575863">
        <ele>4.269</ele>
        <time>1970-01-01T00:27:57Z</time>
      </trkpt>
      <trkpt lat="40.727647" lon="0.575890">
        <ele>4.343</ele>
        <time>1970-01-01T00:27:58Z</time>
      </trkpt>
      <trkpt lat="40.727593" lon="0.575917">
        <ele>4.424</ele>
        <time>1970-01-01T00:27:59Z</time>
      </trkpt>
      <trkpt lat="40.727538" lon="0.575943">
        <ele>4.453</ele>
        <time>1970-01-01T00:28:00Z</time>
      </trkpt>
      <trkpt lat="40.727483" lon="0.575971">
        <ele>4.504</ele>
        <time>1970-01-01T00:28:01Z</time>
      </trkpt>
      <trkpt lat="40.727429" lon="0.576002">
        <ele>4.514</ele>
        <time>1970-01-01T00:28:02Z</time>
      </trkpt>
      <trkpt lat="40.727375" lon="0.576033">
        <ele>4.608</ele>
        <time>1970-01-01T00:28:03Z</time>
      </trkpt>
      <trkpt lat="40.727320" lon="0.576063">
        <ele>4.752</ele>
        <time>1970-01-01T00:28:04Z</time>
      </trkpt>
      <trkpt lat="40.727265" lon="0.576092">
        <ele>4.939</ele>
        <time>1970-01-01T00:28:05Z</time>
      </trkpt>
      <trkpt lat="40.727209" lon="0.576121">
        <ele>5.050</ele>
        <time>1970-01-01T00:28:06Z</time>
      </trkpt>
      <trkpt lat="40.727155" lon="0.576151">
        <ele>4.863</ele>
        <time>1970-01-01T00:28:07Z</time>
      </trkpt>
      <trkpt lat="40.727101" lon="0.576182">
        <ele>4.773</ele>
        <time>1970-01-01T00:28:08Z</time>
      </trkpt>
      <trkpt lat="40.727047" lon="0.576212">
        <ele>4.689</ele>
        <time>1970-01-01T00:28:09Z</time>
      </trkpt>
      <trkpt lat="40.726993" lon="0.576241">
        <ele>4.663</ele>
        <time>1970-01-01T00:28:10Z</time>
      </trkpt>
      <trkpt lat="40.726937" lon="0.576271">
        <ele>4.524</ele>
        <time>1970-01-01T00:28:11Z</time>
      </trkpt>
      <trkpt lat="40.726882" lon="0.576303">
        <ele>4.521</ele>
        <time>1970-01-01T00:28:12Z</time>
      </trkpt>
      <trkpt lat="40.726827" lon="0.576335">
        <ele>4.441</ele>
        <time>1970-01-01T00:28:13Z</time>
      </trkpt>
      <trkpt lat="40.726771" lon="0.576367">
        <ele>4.305</ele>
        <time>1970-01-01T00:28:14Z</time>
      </trkpt>
      <trkpt lat="40.726716" lon="0.576398">
        <ele>4.208</ele>
        <time>1970-01-01T00:28:15Z</time>
      </trkpt>
      <trkpt lat="40.726661" lon="0.576430">
        <ele>4.179</ele>
        <time>1970-01-01T00:28:16Z</time>
      </trkpt>
      <trkpt lat="40.726606" lon="0.576461">
        <ele>3.996</ele>
        <time>1970-01-01T00:28:17Z</time>
      </trkpt>
      <trkpt lat="40.726551" lon="0.576491">
        <ele>3.627</ele>
        <time>1970-01-01T00:28:18Z</time>
      </trkpt>
      <trkpt lat="40.726495" lon="0.576520">
        <ele>3.330</ele>
        <time>1970-01-01T00:28:19Z</time>
      </trkpt>
      <trkpt lat="40.726439" lon="0.576549">
        <ele>2.870</ele>
        <time>1970-01-01T00:28:20Z</time>
      </trkpt>
      <trkpt lat="40.726384" lon="0.576580">
        <ele>2.376</ele>
        <time>1970-01-01T00:28:21Z</time>
      </trkpt>
      <trkpt lat="40.726328" lon="0.576611">
        <ele>2.060</ele>
        <time>1970-01-01T00:28:22Z</time>
      </trkpt>
      <trkpt lat="40.726274" lon="0.576644">
        <ele>1.741</ele>
        <time>1970-01-01T00:28:23Z</time>
      </trkpt>
      <trkpt lat="40.726220" lon="0.576680">
        <ele>1.454</ele>
        <time>1970-01-01T00:28:24Z</time>
      </trkpt>
      <trkpt lat="40.726167" lon="0.576717">
        <ele>1.456</ele>
        <time>1970-01-01T00:28:25Z</time>
      </trkpt>
      <trkpt lat="40.726113" lon="0.576749">
        <ele>1.311</ele>
        <time>1970-01-01T00:28:26Z</time>
      </trkpt>
      <trkpt lat="40.726058" lon="0.576779">
        <ele>1.808</ele>
        <time>1970-01-01T00:28:27Z</time>
      </trkpt>
      <trkpt lat="40.726003" lon="0.576807">
        <ele>2.392</ele>
        <time>1970-01-01T00:28:28Z</time>
      </trkpt>
      <trkpt lat="40.725947" lon="0.576835">
        <ele>2.759</ele>
        <time>1970-01-01T00:28:29Z</time>
      </trkpt>
      <trkpt lat="40.725890" lon="0.576862">
        <ele>3.070</ele>
        <time>1970-01-01T00:28:30Z</time>
      </trkpt>
      <trkpt lat="40.725836" lon="0.576887">
        <ele>3.223</ele>
        <time>1970-01-01T00:28:31Z</time>
      </trkpt>
      <trkpt lat="40.725782" lon="0.576914">
        <ele>3.433</ele>
        <time>1970-01-01T00:28:32Z</time>
      </trkpt>
      <trkpt lat="40.725727" lon="0.576944">
        <ele>3.829</ele>
        <time>1970-01-01T00:28:33Z</time>
      </trkpt>
      <trkpt lat="40.725672" lon="0.576977">
        <ele>4.043</ele>
        <time>1970-01-01T00:28:34Z</time>
      </trkpt>
      <trkpt lat="40.725617" lon="0.577009">
        <ele>4.164</ele>
        <time>1970-01-01T00:28:35Z</time>
      </trkpt>
      <trkpt lat="40.725562" lon="0.577039">
        <ele>4.392</ele>
        <time>1970-01-01T00:28:36Z</time>
      </trkpt>
      <trkpt lat="40.725507" lon="0.577069">
        <ele>3.973</ele>
        <time>1970-01-01T00:28:37Z</time>
      </trkpt>
      <trkpt lat="40.725453" lon="0.577100">
        <ele>3.620</ele>
        <time>1970-01-01T00:28:38Z</time>
      </trkpt>
      <trkpt lat="40.725399" lon="0.577134">
        <ele>3.308</ele>
        <time>1970-01-01T00:28:39Z</time>
      </trkpt>
      <trkpt lat="40.725345" lon="0.577172">
        <ele>3.126</ele>
        <time>1970-01-01T00:28:40Z</time>
      </trkpt>
      <trkpt lat="40.725292" lon="0.577212">
        <ele>3.013</ele>
        <time>1970-01-01T00:28:41Z</time>
      </trkpt>
      <trkpt lat="40.725239" lon="0.577253">
        <ele>2.864</ele>
        <time>1970-01-01T00:28:42Z</time>
      </trkpt>
      <trkpt lat="40.725186" lon="0.577294">
        <ele>2.477</ele>
        <time>1970-01-01T00:28:43Z</time>
      </trkpt>
      <trkpt lat="40.725131" lon="0.577332">
        <ele>2.167</ele>
        <time>1970-01-01T00:28:44Z</time>
      </trkpt>
      <trkpt lat="40.725077" lon="0.577370">
        <ele>1.723</ele>
        <time>1970-01-01T00:28:45Z</time>
      </trkpt>
      <trkpt lat="40.725022" lon="0.577408">
        <ele>1.447</ele>
        <time>1970-01-01T00:28:46Z</time>
      </trkpt>
      <trkpt lat="40.724968" lon="0.577447">
        <ele>1.118</ele>
        <time>1970-01-01T00:28:47Z</time>
      </trkpt>
      <trkpt lat="40.724915" lon="0.577487">
        <ele>0.773</ele>
        <time>1970-01-01T00:28:48Z</time>
      </trkpt>
      <trkpt lat="40.724862" lon="0.577529">
        <ele>0.585</ele>
        <time>1970-01-01T00:28:49Z</time>
      </trkpt>
      <trkpt lat="40.724810" lon="0.577570">
        <ele>0.313</ele>
        <time>1970-01-01T00:28:50Z</time>
      </trkpt>
      <trkpt lat="40.724757" lon="0.577612">
        <ele>0.108</ele>
        <time>1970-01-01T00:28:51Z</time>
      </trkpt>
      <trkpt lat="40.724704" lon="0.577653">
        <ele>0.194</ele>
        <time>1970-01-01T00:28:52Z</time>
      </trkpt>
      <trkpt lat="40.724651" lon="0.577697">
        <ele>0.691</ele>
        <time>1970-01-01T00:28:53Z</time>
      </trkpt>
      <trkpt lat="40.724600" lon="0.577743">
        <ele>1.242</ele>
        <time>1970-01-01T00:28:54Z</time>
      </trkpt>
      <trkpt lat="40.724549" lon="0.577790">
        <ele>2.075</ele>
        <time>1970-01-01T00:28:55Z</time>
      </trkpt>
      <trkpt lat="40.724498" lon="0.577838">
        <ele>3.015</ele>
        <time>1970-01-01T00:28:56Z</time>
      </trkpt>
      <trkpt lat="40.724446" lon="0.577885">
        <ele>4.181</ele>
        <time>1970-01-01T00:28:57Z</time>
      </trkpt>
      <trkpt lat="40.724394" lon="0.577931">
        <ele>4.585</ele>
        <time>1970-01-01T00:28:58Z</time>
      </trkpt>
      <trkpt lat="40.724342" lon="0.577976">
        <ele>4.656</ele>
        <time>1970-01-01T00:28:59Z</time>
      </trkpt>
      <trkpt lat="40.724291" lon="0.578022">
        <ele>4.794</ele>
        <time>1970-01-01T00:29:00Z</time>
      </trkpt>
      <trkpt lat="40.724239" lon="0.578068">
        <ele>4.657</ele>
        <time>1970-01-01T00:29:01Z</time>
      </trkpt>
      <trkpt lat="40.724189" lon="0.578116">
        <ele>4.422</ele>
        <time>1970-01-01T00:29:02Z</time>
      </trkpt>
      <trkpt lat="40.724139" lon="0.578166">
        <ele>4.408</ele>
        <time>1970-01-01T00:29:03Z</time>
      </trkpt>
      <trkpt lat="40.724089" lon="0.578215">
        <ele>4.416</ele>
        <time>1970-01-01T00:29:04Z</time>
      </trkpt>
      <trkpt lat="40.724039" lon="0.578265">
        <ele>4.423</ele>
        <time>1970-01-01T00:29:05Z</time>
      </trkpt>
      <trkpt lat="40.723989" lon="0.578315">
        <ele>4.384</ele>
        <time>1970-01-01T00:29:06Z</time>
      </trkpt>
      <trkpt lat="40.723941" lon="0.578366">
        <ele>4.277</ele>
        <time>1970-01-01T00:29:07Z</time>
      </trkpt>
      <trkpt lat="40.723894" lon="0.578417">
        <ele>4.097</ele>
        <time>1970-01-01T00:29:08Z</time>
      </trkpt>
      <trkpt lat="40.723847" lon="0.578468">
        <ele>3.933</ele>
        <time>1970-01-01T00:29:09Z</time>
      </trkpt>
      <trkpt lat="40.723800" lon="0.578517">
        <ele>3.977</ele>
        <time>1970-01-01T00:29:10Z</time>
      </trkpt>
      <trkpt lat="40.723754" lon="0.578567">
        <ele>3.948</ele>
        <time>1970-01-01T00:29:11Z</time>
      </trkpt>
      <trkpt lat="40.723712" lon="0.578621">
        <ele>4.097</ele>
        <time>1970-01-01T00:29:12Z</time>
      </trkpt>
      <trkpt lat="40.723670" lon="0.578677">
        <ele>4.023</ele>
        <time>1970-01-01T00:29:13Z</time>
      </trkpt>
      <trkpt lat="40.723624" lon="0.578728">
        <ele>4.025</ele>
        <time>1970-01-01T00:29:14Z</time>
      </trkpt>
      <trkpt lat="40.723578" lon="0.578778">
        <ele>3.808</ele>
        <time>1970-01-01T00:29:15Z</time>
      </trkpt>
      <trkpt lat="40.723533" lon="0.578830">
        <ele>3.476</ele>
        <time>1970-01-01T00:29:16Z</time>
      </trkpt>
      <trkpt lat="40.723489" lon="0.578884">
        <ele>3.113</ele>
        <time>1970-01-01T00:29:17Z</time>
      </trkpt>
      <trkpt lat="40.723445" lon="0.578939">
        <ele>2.794</ele>
        <time>1970-01-01T00:29:18Z</time>
      </trkpt>
      <trkpt lat="40.723403" lon="0.578995">
        <ele>2.447</ele>
        <time>1970-01-01T00:29:19Z</time>
      </trkpt>
      <trkpt lat="40.723361" lon="0.579050">
        <ele>2.147</ele>
        <time>1970-01-01T00:29:20Z</time>
      </trkpt>
      <trkpt lat="40.723317" lon="0.579104">
        <ele>1.973</ele>
        <time>1970-01-01T00:29:21Z</time>
      </trkpt>
      <trkpt lat="40.723273" lon="0.579159">
        <ele>1.857</ele>
        <time>1970-01-01T00:29:22Z</time>
      </trkpt>
      <trkpt lat="40.723232" lon="0.579216">
        <ele>1.578</ele>
        <time>1970-01-01T00:29:23Z</time>
      </trkpt>
      <trkpt lat="40.723192" lon="0.579276">
        <ele>1.151</ele>
        <time>1970-01-01T00:29:24Z</time>
      </trkpt>
      <trkpt lat="40.723151" lon="0.579334">
        <ele>0.701</ele>
        <time>1970-01-01T00:29:25Z</time>
      </trkpt>
      <trkpt lat="40.723111" lon="0.579392">
        <ele>0.411</ele>
        <time>1970-01-01T00:29:26Z</time>
      </trkpt>
      <trkpt lat="40.723072" lon="0.579451">
        <ele>0.108</ele>
        <time>1970-01-01T00:29:27Z</time>
      </trkpt>
      <trkpt lat="40.723032" lon="0.579510">
        <ele>0.192</ele>
        <time>1970-01-01T00:29:28Z</time>
      </trkpt>
      <trkpt lat="40.722993" lon="0.579569">
        <ele>0.239</ele>
        <time>1970-01-01T00:29:29Z</time>
      </trkpt>
      <trkpt lat="40.722953" lon="0.579629">
        <ele>0.250</ele>
        <time>1970-01-01T00:29:30Z</time>
      </trkpt>
      <trkpt lat="40.722914" lon="0.579688">
        <ele>0.163</ele>
        <time>1970-01-01T00:29:31Z</time>
      </trkpt>
      <trkpt lat="40.722873" lon="0.579745">
        <ele>0.023</ele>
        <time>1970-01-01T00:29:32Z</time>
      </trkpt>
      <trkpt lat="40.722834" lon="0.579801">
        <ele>0.059</ele>
        <time>1970-01-01T00:29:33Z</time>
      </trkpt>
      <trkpt lat="40.722795" lon="0.579860">
        <ele>0.023</ele>
        <time>1970-01-01T00:29:34Z</time>
      </trkpt>
      <trkpt lat="40.722756" lon="0.579921">
        <ele>0.034</ele>
        <time>1970-01-01T00:29:35Z</time>
      </trkpt>
      <trkpt lat="40.722718" lon="0.579982">
        <ele>0.072</ele>
        <time>1970-01-01T00:29:36Z</time>
      </trkpt>
      <trkpt lat="40.722679" lon="0.580040">
        <ele>0.113</ele>
        <time>1970-01-01T00:29:37Z</time>
      </trkpt>
      <trkpt lat="40.722641" lon="0.580099">
        <ele>0.214</ele>
        <time>1970-01-01T00:29:38Z</time>
      </trkpt>
      <trkpt lat="40.722602" lon="0.580157">
        <ele>0.208</ele>
        <time>1970-01-01T00:29:39Z</time>
      </trkpt>
      <trkpt lat="40.722562" lon="0.580216">
        <ele>0.224</ele>
        <time>1970-01-01T00:29:40Z</time>
      </trkpt>
      <trkpt lat="40.722522" lon="0.580276">
        <ele>0.161</ele>
        <time>1970-01-01T00:29:41Z</time>
      </trkpt>
      <trkpt lat="40.722483" lon="0.580336">
        <ele>0.782</ele>
        <time>1970-01-01T00:29:42Z</time>
      </trkpt>
      <trkpt lat="40.722445" lon="0.580398">
        <ele>1.455</ele>
        <time>1970-01-01T00:29:43Z</time>
      </trkpt>
      <trkpt lat="40.722407" lon="0.580458">
        <ele>2.195</ele>
        <time>1970-01-01T00:29:44Z</time>
      </trkpt>
      <trkpt lat="40.722367" lon="0.580517">
        <ele>2.631</ele>
        <time>1970-01-01T00:29:45Z</time>
      </trkpt>
      <trkpt lat="40.722326" lon="0.580575">
        <ele>3.235</ele>
        <time>1970-01-01T00:29:46Z</time>
      </trkpt>
      <trkpt lat="40.722285" lon="0.580634">
        <ele>3.836</ele>
        <time>1970-01-01T00:29:47Z</time>
      </trkpt>
      <trkpt lat="40.722246" lon="0.580693">
        <ele>4.529</ele>
        <time>1970-01-01T00:29:48Z</time>
      </trkpt>
      <trkpt lat="40.722206" lon="0.580752">
        <ele>5.000</ele>
        <time>1970-01-01T00:29:49Z</time>
      </trkpt>
      <trkpt lat="40.722167" lon="0.580812">
        <ele>5.420</ele>
        <time>1970-01-01T00:29:50Z</time>
      </trkpt>
      <trkpt lat="40.722127" lon="0.580872">
        <ele>5.608</ele>
        <time>1970-01-01T00:29:51Z</time>
      </trkpt>
      <trkpt lat="40.722087" lon="0.580931">
        <ele>5.729</ele>
        <time>1970-01-01T00:29:52Z</time>
      </trkpt>
      <trkpt lat="40.722048" lon="0.580990">
        <ele>5.956</ele>
        <time>1970-01-01T00:29:53Z</time>
      </trkpt>
      <trkpt lat="40.722008" lon="0.581049">
        <ele>6.097</ele>
        <time>1970-01-01T00:29:54Z</time>
      </trkpt>
      <trkpt lat="40.721968" lon="0.581107">
        <ele>6.170</ele>
        <time>1970-01-01T00:29:55Z</time>
      </trkpt>
      <trkpt lat="40.721929" lon="0.581166">
        <ele>5.810</ele>
        <time>1970-01-01T00:29:56Z</time>
      </trkpt>
      <trkpt lat="40.721889" lon="0.581226">
        <ele>5.286</ele>
        <time>1970-01-01T00:29:57Z</time>
      </trkpt>
      <trkpt lat="40.721849" lon="0.581285">
        <ele>4.640</ele>
        <time>1970-01-01T00:29:58Z</time>
      </trkpt>
      <trkpt lat="40.721809" lon="0.581344">
        <ele>4.021</ele>
        <time>1970-01-01T00:29:59Z</time>
      </trkpt>
      <trkpt lat="40.721770" lon="0.581404">
        <ele>3.577</ele>
        <time>1970-01-01T00:30:00Z</time>
      </trkpt>
      <trkpt lat="40.721729" lon="0.581462">
        <ele>3.161</ele>
        <time>1970-01-01T00:30:01Z</time>
      </trkpt>
      <trkpt lat="40.721687" lon="0.581520">
        <ele>2.727</ele>
        <time>1970-01-01T00:30:02Z</time>
      </trkpt>
      <trkpt lat="40.721645" lon="0.581578">
        <ele>2.508</ele>
        <time>1970-01-01T00:30:03Z</time>
      </trkpt>
      <trkpt lat="40.721604" lon="0.581634">
        <ele>2.524</ele>
        <time>1970-01-01T00:30:04Z</time>
      </trkpt>
      <trkpt lat="40.721564" lon="0.581691">
        <ele>2.381</ele>
        <time>1970-01-01T00:30:05Z</time>
      </trkpt>
      <trkpt lat="40.721524" lon="0.581747">
        <ele>2.322</ele>
        <time>1970-01-01T00:30:06Z</time>
      </trkpt>
      <trkpt lat="40.721486" lon="0.581801">
        <ele>2.375</ele>
        <time>1970-01-01T00:30:07Z</time>
      </trkpt>
      <trkpt lat="40.721449" lon="0.581855">
        <ele>2.575</ele>
        <time>1970-01-01T00:30:08Z</time>
      </trkpt>
      <trkpt lat="40.721412" lon="0.581914">
        <ele>2.891</ele>
        <time>1970-01-01T00:30:09Z</time>
      </trkpt>
      <trkpt lat="40.721375" lon="0.581974">
        <ele>3.295</ele>
        <time>1970-01-01T00:30:10Z</time>
      </trkpt>
      <trkpt lat="40.721337" lon="0.582034">
        <ele>3.676</ele>
        <time>1970-01-01T00:30:11Z</time>
      </trkpt>
      <trkpt lat="40.721297" lon="0.582092">
        <ele>3.993</ele>
        <time>1970-01-01T00:30:12Z</time>
      </trkpt>
      <trkpt lat="40.721257" lon="0.582150">
        <ele>4.165</ele>
        <time>1970-01-01T00:30:13Z</time>
      </trkpt>
      <trkpt lat="40.721219" lon="0.582211">
        <ele>4.321</ele>
        <time>1970-01-01T00:30:14Z</time>
      </trkpt>
      <trkpt lat="40.721181" lon="0.582273">
        <ele>4.308</ele>
        <time>1970-01-01T00:30:15Z</time>
      </trkpt>
      <trkpt lat="40.721142" lon="0.582333">
        <ele>4.146</ele>
        <time>1970-01-01T00:30:16Z</time>
      </trkpt>
      <trkpt lat="40.721103" lon="0.582392">
        <ele>3.963</ele>
        <time>1970-01-01T00:30:17Z</time>
      </trkpt>
      <trkpt lat="40.721063" lon="0.582451">
        <ele>3.584</ele>
        <time>1970-01-01T00:30:18Z</time>
      </trkpt>
      <trkpt lat="40.721025" lon="0.582511">
        <ele>3.177</ele>
        <time>1970-01-01T00:30:19Z</time>
      </trkpt>
      <trkpt lat="40.720986" lon="0.582569">
        <ele>2.657</ele>
        <time>1970-01-01T00:30:20Z</time>
      </trkpt>
      <trkpt lat="40.720949" lon="0.582628">
        <ele>2.333</ele>
        <time>1970-01-01T00:30:21Z</time>
      </trkpt>
      <trkpt lat="40.720914" lon="0.582689">
        <ele>2.227</ele>
        <time>1970-01-01T00:30:22Z</time>
      </trkpt>
      <trkpt lat="40.720881" lon="0.582752">
        <ele>2.198</ele>
        <time>1970-01-01T00:30:23Z</time>
      </trkpt>
      <trkpt lat="40.720842" lon="0.582811">
        <ele>2.087</ele>
        <time>1970-01-01T00:30:24Z</time>
      </trkpt>
      <trkpt lat="40.720797" lon="0.582859">
        <ele>1.942</ele>
        <time>1970-01-01T00:30:25Z</time>
      </trkpt>
      <trkpt lat="40.720749" lon="0.582907">
        <ele>1.726</ele>
        <time>1970-01-01T00:30:26Z</time>
      </trkpt>
      <trkpt lat="40.720704" lon="0.582959">
        <ele>1.508</ele>
        <time>1970-01-01T00:30:27Z</time>
      </trkpt>
      <trkpt lat="40.720661" lon="0.583015">
        <ele>1.415</ele>
        <time>1970-01-01T00:30:28Z</time>
      </trkpt>
      <trkpt lat="40.720622" lon="0.583075">
        <ele>1.462</ele>
        <time>1970-01-01T00:30:29Z</time>
      </trkpt>
      <trkpt lat="40.720583" lon="0.583138">
        <ele>1.763</ele>
        <time>1970-01-01T00:30:30Z</time>
      </trkpt>
      <trkpt lat="40.720546" lon="0.583203">
        <ele>2.026</ele>
        <time>1970-01-01T00:30:31Z</time>
      </trkpt>
      <trkpt lat="40.720511" lon="0.583268">
        <ele>2.336</ele>
        <time>1970-01-01T00:30:32Z</time>
      </trkpt>
      <trkpt lat="40.720474" lon="0.583331">
        <ele>2.492</ele>
        <time>1970-01-01T00:30:33Z</time>
      </trkpt>
      <trkpt lat="40.720435" lon="0.583392">
        <ele>2.396</ele>
        <time>1970-01-01T00:30:34Z</time>
      </trkpt>
      <trkpt lat="40.720396" lon="0.583453">
        <ele>2.077</ele>
        <time>1970-01-01T00:30:35Z</time>
      </trkpt>
      <trkpt lat="40.720356" lon="0.583513">
        <ele>1.798</ele>
        <time>1970-01-01T00:30:36Z</time>
      </trkpt>
      <trkpt lat="40.720315" lon="0.583573">
        <ele>1.415</ele>
        <time>1970-01-01T00:30:37Z</time>
      </trkpt>
      <trkpt lat="40.720275" lon="0.583633">
        <ele>1.026</ele>
        <time>1970-01-01T00:30:38Z</time>
      </trkpt>
      <trkpt lat="40.720234" lon="0.583693">
        <ele>0.808</ele>
        <time>1970-01-01T00:30:39Z</time>
      </trkpt>
      <trkpt lat="40.720192" lon="0.583751">
        <ele>0.756</ele>
        <time>1970-01-01T00:30:40Z</time>
      </trkpt>
      <trkpt lat="40.720151" lon="0.583810">
        <ele>0.593</ele>
        <time>1970-01-01T00:30:41Z</time>
      </trkpt>
      <trkpt lat="40.720110" lon="0.583870">
        <ele>0.414</ele>
        <time>1970-01-01T00:30:42Z</time>
      </trkpt>
      <trkpt lat="40.720068" lon="0.583928">
        <ele>0.287</ele>
        <time>1970-01-01T00:30:43Z</time>
      </trkpt>
      <trkpt lat="40.720025" lon="0.583986">
        <ele>0.147</ele>
        <time>1970-01-01T00:30:44Z</time>
      </trkpt>
      <trkpt lat="40.719984" lon="0.584043">
        <ele>0.153</ele>
        <time>1970-01-01T00:30:45Z</time>
      </trkpt>
      <trkpt lat="40.719945" lon="0.584094">
        <ele>0.227</ele>
        <time>1970-01-01T00:30:46Z</time>
      </trkpt>
      <trkpt lat="40.719907" lon="0.584140">
        <ele>0.388</ele>
        <time>1970-01-01T00:30:47Z</time>
      </trkpt>
      <trkpt lat="40.719872" lon="0.584182">
        <ele>0.559</ele>
        <time>1970-01-01T00:30:48Z</time>
      </trkpt>
      <trkpt lat="40.719839" lon="0.584223">
        <ele>0.703</ele>
        <time>1970-01-01T00:30:49Z</time>
      </trkpt>
      <trkpt lat="40.719810" lon="0.584266">
        <ele>0.823</ele>
        <time>1970-01-01T00:30:50Z</time>
      </trkpt>
      <trkpt lat="40.719781" lon="0.584313">
        <ele>0.908</ele>
        <time>1970-01-01T00:30:51Z</time>
      </trkpt>
      <trkpt lat="40.719753" lon="0.584362">
        <ele>1.032</ele>
        <time>1970-01-01T00:30:52Z</time>
      </trkpt>
      <trkpt lat="40.719724" lon="0.584416">
        <ele>1.089</ele>
        <time>1970-01-01T00:30:53Z</time>
      </trkpt>
      <trkpt lat="40.719691" lon="0.584471">
        <ele>1.280</ele>
        <time>1970-01-01T00:30:54Z</time>
      </trkpt>
      <trkpt lat="40.719652" lon="0.584525">
        <ele>1.533</ele>
        <time>1970-01-01T00:30:55Z</time>
      </trkpt>
      <trkpt lat="40.719612" lon="0.584578">
        <ele>1.843</ele>
        <time>1970-01-01T00:30:56Z</time>
      </trkpt>
      <trkpt lat="40.719574" lon="0.584630">
        <ele>2.119</ele>
        <time>1970-01-01T00:30:57Z</time>
      </trkpt>
      <trkpt lat="40.719538" lon="0.584680">
        <ele>2.343</ele>
        <time>1970-01-01T00:30:58Z</time>
      </trkpt>
      <trkpt lat="40.719503" lon="0.584729">
        <ele>2.614</ele>
        <time>1970-01-01T00:30:59Z</time>
      </trkpt>
      <trkpt lat="40.719469" lon="0.584776">
        <ele>2.693</ele>
        <time>1970-01-01T00:31:00Z</time>
      </trkpt>
      <trkpt lat="40.719437" lon="0.584821">
        <ele>2.765</ele>
        <time>1970-01-01T00:31:01Z</time>
      </trkpt>
      <trkpt lat="40.719408" lon="0.584867">
        <ele>2.521</ele>
        <time>1970-01-01T00:31:02Z</time>
      </trkpt>
      <trkpt lat="40.719380" lon="0.584911">
        <ele>2.408</ele>
        <time>1970-01-01T00:31:03Z</time>
      </trkpt>
      <trkpt lat="40.719354" lon="0.584952">
        <ele>2.216</ele>
        <time>1970-01-01T00:31:04Z</time>
      </trkpt>
      <trkpt lat="40.719327" lon="0.584992">
        <ele>2.073</ele>
        <time>1970-01-01T00:31:05Z</time>
      </trkpt>
      <trkpt lat="40.719302" lon="0.585034">
        <ele>1.914</ele>
        <time>1970-01-01T00:31:06Z</time>
      </trkpt>
      <trkpt lat="40.719280" lon="0.585077">
        <ele>1.717</ele>
        <time>1970-01-01T00:31:07Z</time>
      </trkpt>
      <trkpt lat="40.719262" lon="0.585120">
        <ele>1.657</ele>
        <time>1970-01-01T00:31:08Z</time>
      </trkpt>
      <trkpt lat="40.719248" lon="0.585161">
        <ele>1.433</ele>
        <time>1970-01-01T00:31:09Z</time>
      </trkpt>
      <trkpt lat="40.719233" lon="0.585201">
        <ele>1.317</ele>
        <time>1970-01-01T00:31:10Z</time>
      </trkpt>
      <trkpt lat="40.719215" lon="0.585234">
        <ele>1.248</ele>
        <time>1970-01-01T00:31:11Z</time>
      </trkpt>
      <trkpt lat="40.719193" lon="0.585258">
        <ele>1.195</ele>
        <time>1970-01-01T00:31:12Z</time>
      </trkpt>
      <trkpt lat="40.719168" lon="0.585272">
        <ele>1.049</ele>
        <time>1970-01-01T00:31:13Z</time>
      </trkpt>
      <trkpt lat="40.719146" lon="0.585285">
        <ele>1.123</ele>
        <time>1970-01-01T00:31:14Z</time>
      </trkpt>
      <trkpt lat="40.719129" lon="0.585305">
        <ele>1.108</ele>
        <time>1970-01-01T00:31:15Z</time>
      </trkpt>
      <trkpt lat="40.719119" lon="0.585329">
        <ele>1.276</ele>
        <time>1970-01-01T00:31:16Z</time>
      </trkpt>
      <trkpt lat="40.719124" lon="0.585344">
        <ele>1.273</ele>
        <time>1970-01-01T00:31:17Z</time>
      </trkpt>
      <trkpt lat="40.719136" lon="0.585339">
        <ele>1.124</ele>
        <time>1970-01-01T00:31:18Z</time>
      </trkpt>
      <trkpt lat="40.719151" lon="0.585320">
        <ele>1.137</ele>
        <time>1970-01-01T00:31:19Z</time>
      </trkpt>
      <trkpt lat="40.719165" lon="0.585297">
        <ele>1.057</ele>
        <time>1970-01-01T00:31:20Z</time>
      </trkpt>
      <trkpt lat="40.719181" lon="0.585274">
        <ele>1.073</ele>
        <time>1970-01-01T00:31:21Z</time>
      </trkpt>
      <trkpt lat="40.719198" lon="0.585247">
        <ele>1.187</ele>
        <time>1970-01-01T00:31:22Z</time>
      </trkpt>
      <trkpt lat="40.719218" lon="0.585220">
        <ele>1.218</ele>
        <time>1970-01-01T00:31:23Z</time>
      </trkpt>
      <trkpt lat="40.719239" lon="0.585191">
        <ele>1.382</ele>
        <time>1970-01-01T00:31:24Z</time>
      </trkpt>
      <trkpt lat="40.719260" lon="0.585160">
        <ele>1.443</ele>
        <time>1970-01-01T00:31:25Z</time>
      </trkpt>
      <trkpt lat="40.719282" lon="0.585127">
        <ele>1.517</ele>
        <time>1970-01-01T00:31:26Z</time>
      </trkpt>
      <trkpt lat="40.719306" lon="0.585094">
        <ele>1.708</ele>
        <time>1970-01-01T00:31:27Z</time>
      </trkpt>
      <trkpt lat="40.719331" lon="0.585061">
        <ele>1.865</ele>
        <time>1970-01-01T00:31:28Z</time>
      </trkpt>
      <trkpt lat="40.719356" lon="0.585026">
        <ele>1.912</ele>
        <time>1970-01-01T00:31:29Z</time>
      </trkpt>
      <trkpt lat="40.719379" lon="0.584987">
        <ele>2.193</ele>
        <time>1970-01-01T00:31:30Z</time>
      </trkpt>
      <trkpt lat="40.719401" lon="0.584946">
        <ele>2.216</ele>
        <time>1970-01-01T00:31:31Z</time>
      </trkpt>
      <trkpt lat="40.719425" lon="0.584906">
        <ele>2.436</ele>
        <time>1970-01-01T00:31:32Z</time>
      </trkpt>
      <trkpt lat="40.719451" lon="0.584868">
        <ele>2.482</ele>
        <time>1970-01-01T00:31:33Z</time>
      </trkpt>
      <trkpt lat="40.719478" lon="0.584830">
        <ele>2.426</ele>
        <time>1970-01-01T00:31:34Z</time>
      </trkpt>
      <trkpt lat="40.719505" lon="0.584791">
        <ele>2.437</ele>
        <time>1970-01-01T00:31:35Z</time>
      </trkpt>
      <trkpt lat="40.719531" lon="0.584751">
        <ele>2.342</ele>
        <time>1970-01-01T00:31:36Z</time>
      </trkpt>
      <trkpt lat="40.719558" lon="0.584709">
        <ele>2.222</ele>
        <time>1970-01-01T00:31:37Z</time>
      </trkpt>
      <trkpt lat="40.719585" lon="0.584669">
        <ele>2.014</ele>
        <time>1970-01-01T00:31:38Z</time>
      </trkpt>
      <trkpt lat="40.719610" lon="0.584623">
        <ele>1.808</ele>
        <time>1970-01-01T00:31:39Z</time>
      </trkpt>
      <trkpt lat="40.719632" lon="0.584575">
        <ele>1.641</ele>
        <time>1970-01-01T00:31:40Z</time>
      </trkpt>
      <trkpt lat="40.719657" lon="0.584528">
        <ele>1.598</ele>
        <time>1970-01-01T00:31:41Z</time>
      </trkpt>
      <trkpt lat="40.719684" lon="0.584482">
        <ele>1.359</ele>
        <time>1970-01-01T00:31:42Z</time>
      </trkpt>
      <trkpt lat="40.719710" lon="0.584440">
        <ele>1.132</ele>
        <time>1970-01-01T00:31:43Z</time>
      </trkpt>
      <trkpt lat="40.719733" lon="0.584401">
        <ele>1.022</ele>
        <time>1970-01-01T00:31:44Z</time>
      </trkpt>
      <trkpt lat="40.719753" lon="0.584365">
        <ele>1.028</ele>
        <time>1970-01-01T00:31:45Z</time>
      </trkpt>
      <trkpt lat="40.719767" lon="0.584332">
        <ele>0.972</ele>
        <time>1970-01-01T00:31:46Z</time>
      </trkpt>
      <trkpt lat="40.719778" lon="0.584302">
        <ele>0.953</ele>
        <time>1970-01-01T00:31:47Z</time>
      </trkpt>
      <trkpt lat="40.719786" lon="0.584274">
        <ele>0.981</ele>
        <time>1970-01-01T00:31:48Z</time>
      </trkpt>
      <trkpt lat="40.719791" lon="0.584249">
        <ele>0.861</ele>
        <time>1970-01-01T00:31:49Z</time>
      </trkpt>
      <trkpt lat="40.719795" lon="0.584229">
        <ele>0.817</ele>
        <time>1970-01-01T00:31:50Z</time>
      </trkpt>
      <trkpt lat="40.719797" lon="0.584211">
        <ele>0.808</ele>
        <time>1970-01-01T00:31:51Z</time>
      </trkpt>
      <trkpt lat="40.719796" lon="0.584197">
        <ele>0.865</ele>
        <time>1970-01-01T00:31:52Z</time>
      </trkpt>
      <trkpt lat="40.719795" lon="0.584195">
        <ele>0.892</ele>
        <time>1970-01-01T00:31:53Z</time>
      </trkpt>
      <trkpt lat="40.719795" lon="0.584193">
        <ele>0.863</ele>
        <time>1970-01-01T00:31:54Z</time>
      </trkpt>
      <trkpt lat="40.719739" lon="0.584122">
        <ele>0.946</ele>
        <time>1970-01-01T00:32:16Z</time>
      </trkpt>
      <trkpt lat="40.719725" lon="0.584106">
        <ele>1.076</ele>
        <time>1970-01-01T00:32:17Z</time>
      </trkpt>
      <trkpt lat="40.719709" lon="0.584090">
        <ele>1.182</ele>
        <time>1970-01-01T00:32:18Z</time>
      </trkpt>
      <trkpt lat="40.719691" lon="0.584078">
        <ele>1.236</ele>
        <time>1970-01-01T00:32:19Z</time>
      </trkpt>
      <trkpt lat="40.719673" lon="0.584070">
        <ele>1.447</ele>
        <time>1970-01-01T00:32:20Z</time>
      </trkpt>
      <trkpt lat="40.719655" lon="0.584069">
        <ele>1.533</ele>
        <time>1970-01-01T00:32:21Z</time>
      </trkpt>
      <trkpt lat="40.719639" lon="0.584067">
        <ele>1.623</ele>
        <time>1970-01-01T00:32:22Z</time>
      </trkpt>
      <trkpt lat="40.719627" lon="0.584064">
        <ele>1.715</ele>
        <time>1970-01-01T00:32:23Z</time>
      </trkpt>
      <trkpt lat="40.719626" lon="0.584065">
        <ele>1.708</ele>
        <time>1970-01-01T00:32:24Z</time>
      </trkpt>
      <trkpt lat="40.719626" lon="0.584065">
        <ele>1.740</ele>
        <time>1970-01-01T00:32:25Z</time>
      </trkpt>
      <trkpt lat="40.719585" lon="0.584029">
        <ele>2.067</ele>
        <time>1970-01-01T00:32:35Z</time>
      </trkpt>
      <trkpt lat="40.719562" lon="0.584015">
        <ele>2.298</ele>
        <time>1970-01-01T00:32:36Z</time>
      </trkpt>
      <trkpt lat="40.719534" lon="0.583999">
        <ele>2.481</ele>
        <time>1970-01-01T00:32:37Z</time>
      </trkpt>
      <trkpt lat="40.719505" lon="0.583976">
        <ele>2.621</ele>
        <time>1970-01-01T00:32:38Z</time>
      </trkpt>
      <trkpt lat="40.719474" lon="0.583955">
        <ele>2.837</ele>
        <time>1970-01-01T00:32:39Z</time>
      </trkpt>
      <trkpt lat="40.719440" lon="0.583937">
        <ele>3.011</ele>
        <time>1970-01-01T00:32:40Z</time>
      </trkpt>
      <trkpt lat="40.719405" lon="0.583921">
        <ele>2.952</ele>
        <time>1970-01-01T00:32:41Z</time>
      </trkpt>
      <trkpt lat="40.719370" lon="0.583904">
        <ele>2.716</ele>
        <time>1970-01-01T00:32:42Z</time>
      </trkpt>
      <trkpt lat="40.719334" lon="0.583886">
        <ele>2.676</ele>
        <time>1970-01-01T00:32:43Z</time>
      </trkpt>
      <trkpt lat="40.719298" lon="0.583866">
        <ele>2.413</ele>
        <time>1970-01-01T00:32:44Z</time>
      </trkpt>
      <trkpt lat="40.719263" lon="0.583847">
        <ele>2.208</ele>
        <time>1970-01-01T00:32:45Z</time>
      </trkpt>
      <trkpt lat="40.719226" lon="0.583830">
        <ele>2.098</ele>
        <time>1970-01-01T00:32:46Z</time>
      </trkpt>
      <trkpt lat="40.719185" lon="0.583814">
        <ele>1.885</ele>
        <time>1970-01-01T00:32:47Z</time>
      </trkpt>
      <trkpt lat="40.719144" lon="0.583796">
        <ele>1.736</ele>
        <time>1970-01-01T00:32:48Z</time>
      </trkpt>
      <trkpt lat="40.719103" lon="0.583778">
        <ele>1.689</ele>
        <time>1970-01-01T00:32:49Z</time>
      </trkpt>
      <trkpt lat="40.719060" lon="0.583763">
        <ele>1.589</ele>
        <time>1970-01-01T00:32:50Z</time>
      </trkpt>
      <trkpt lat="40.719018" lon="0.583749">
        <ele>1.585</ele>
        <time>1970-01-01T00:32:51Z</time>
      </trkpt>
      <trkpt lat="40.718977" lon="0.583729">
        <ele>1.459</ele>
        <time>1970-01-01T00:32:52Z</time>
      </trkpt>
      <trkpt lat="40.718937" lon="0.583705">
        <ele>1.350</ele>
        <time>1970-01-01T00:32:53Z</time>
      </trkpt>
      <trkpt lat="40.718899" lon="0.583676">
        <ele>1.224</ele>
        <time>1970-01-01T00:32:54Z</time>
      </trkpt>
      <trkpt lat="40.718861" lon="0.583646">
        <ele>1.204</ele>
        <time>1970-01-01T00:32:55Z</time>
      </trkpt>
      <trkpt lat="40.718822" lon="0.583617">
        <ele>1.314</ele>
        <time>1970-01-01T00:32:56Z</time>
      </trkpt>
      <trkpt lat="40.718782" lon="0.583588">
        <ele>1.408</ele>
        <time>1970-01-01T00:32:57Z</time>
      </trkpt>
      <trkpt lat="40.718741" lon="0.583557">
        <ele>1.529</ele>
        <time>1970-01-01T00:32:58Z</time>
      </trkpt>
      <trkpt lat="40.718701" lon="0.583526">
        <ele>1.736</ele>
        <time>1970-01-01T00:32:59Z</time>
      </trkpt>
      <trkpt lat="40.718662" lon="0.583497">
        <ele>1.867</ele>
        <time>1970-01-01T00:33:00Z</time>
      </trkpt>
      <trkpt lat="40.718623" lon="0.583469">
        <ele>2.040</ele>
        <time>1970-01-01T00:33:01Z</time>
      </trkpt>
      <trkpt lat="40.718585" lon="0.583443">
        <ele>2.110</ele>
        <time>1970-01-01T00:33:02Z</time>
      </trkpt>
      <trkpt lat="40.718548" lon="0.583417">
        <ele>2.236</ele>
        <time>1970-01-01T00:33:03Z</time>
      </trkpt>
      <trkpt lat="40.718511" lon="0.583390">
        <ele>2.490</ele>
        <time>1970-01-01T00:33:04Z</time>
      </trkpt>
      <trkpt lat="40.718474" lon="0.583362">
        <ele>2.541</ele>
        <time>1970-01-01T00:33:05Z</time>
      </trkpt>
      <trkpt lat="40.718437" lon="0.583333">
        <ele>2.694</ele>
        <time>1970-01-01T00:33:06Z</time>
      </trkpt>
      <trkpt lat="40.718400" lon="0.583302">
        <ele>2.857</ele>
        <time>1970-01-01T00:33:07Z</time>
      </trkpt>
      <trkpt lat="40.718363" lon="0.583271">
        <ele>2.922</ele>
        <time>1970-01-01T00:33:08Z</time>
      </trkpt>
      <trkpt lat="40.718326" lon="0.583239">
        <ele>3.008</ele>
        <time>1970-01-01T00:33:09Z</time>
      </trkpt>
      <trkpt lat="40.718288" lon="0.583206">
        <ele>3.116</ele>
        <time>1970-01-01T00:33:10Z</time>
      </trkpt>
      <trkpt lat="40.718249" lon="0.583174">
        <ele>3.213</ele>
        <time>1970-01-01T00:33:11Z</time>
      </trkpt>
      <trkpt lat="40.718210" lon="0.583141">
        <ele>3.334</ele>
        <time>1970-01-01T00:33:12Z</time>
      </trkpt>
      <trkpt lat="40.718171" lon="0.583108">
        <ele>3.547</ele>
        <time>1970-01-01T00:33:13Z</time>
      </trkpt>
      <trkpt lat="40.718131" lon="0.583076">
        <ele>3.787</ele>
        <time>1970-01-01T00:33:14Z</time>
      </trkpt>
      <trkpt lat="40.718092" lon="0.583043">
        <ele>3.983</ele>
        <time>1970-01-01T00:33:15Z</time>
      </trkpt>
      <trkpt lat="40.718054" lon="0.583009">
        <ele>4.017</ele>
        <time>1970-01-01T00:33:16Z</time>
      </trkpt>
      <trkpt lat="40.718015" lon="0.582972">
        <ele>4.018</ele>
        <time>1970-01-01T00:33:17Z</time>
      </trkpt>
      <trkpt lat="40.717977" lon="0.582934">
        <ele>4.055</ele>
        <time>1970-01-01T00:33:18Z</time>
      </trkpt>
      <trkpt lat="40.717940" lon="0.582894">
        <ele>4.007</ele>
        <time>1970-01-01T00:33:19Z</time>
      </trkpt>
      <trkpt lat="40.717903" lon="0.582853">
        <ele>4.017</ele>
        <time>1970-01-01T00:33:20Z</time>
      </trkpt>
      <trkpt lat="40.717868" lon="0.582812">
        <ele>4.008</ele>
        <time>1970-01-01T00:33:21Z</time>
      </trkpt>
      <trkpt lat="40.717833" lon="0.582773">
        <ele>4.062</ele>
        <time>1970-01-01T00:33:22Z</time>
      </trkpt>
      <trkpt lat="40.717803" lon="0.582739">
        <ele>4.069</ele>
        <time>1970-01-01T00:33:23Z</time>
      </trkpt>
      <trkpt lat="40.717781" lon="0.582710">
        <ele>4.060</ele>
        <time>1970-01-01T00:33:24Z</time>
      </trkpt>
      <trkpt lat="40.717766" lon="0.582690">
        <ele>4.053</ele>
        <time>1970-01-01T00:33:25Z</time>
      </trkpt>
      <trkpt lat="40.717758" lon="0.582683">
        <ele>4.043</ele>
        <time>1970-01-01T00:33:26Z</time>
      </trkpt>
      <trkpt lat="40.717755" lon="0.582680">
        <ele>4.079</ele>
        <time>1970-01-01T00:33:27Z</time>
      </trkpt>
      <trkpt lat="40.717754" lon="0.582679">
        <ele>4.043</ele>
        <time>1970-01-01T00:33:28Z</time>
      </trkpt>
      <trkpt lat="40.717754" lon="0.582679">
        <ele>4.034</ele>
        <time>1970-01-01T00:33:29Z</time>
      </trkpt>
      <trkpt lat="40.717726" lon="0.582628">
        <ele>3.946</ele>
        <time>1970-01-01T00:33:35Z</time>
      </trkpt>
      <trkpt lat="40.717709" lon="0.582604">
        <ele>3.888</ele>
        <time>1970-01-01T00:33:36Z</time>
      </trkpt>
      <trkpt lat="40.717688" lon="0.582574">
        <ele>3.816</ele>
        <time>1970-01-01T00:33:37Z</time>
      </trkpt>
      <trkpt lat="40.717665" lon="0.582541">
        <ele>3.708</ele>
        <time>1970-01-01T00:33:38Z</time>
      </trkpt>
      <trkpt lat="40.717642" lon="0.582506">
        <ele>3.551</ele>
        <time>1970-01-01T00:33:39Z</time>
      </trkpt>
      <trkpt lat="40.717619" lon="0.582470">
        <ele>3.478</ele>
        <time>1970-01-01T00:33:40Z</time>
      </trkpt>
      <trkpt lat="40.717597" lon="0.582430">
        <ele>3.349</ele>
        <time>1970-01-01T00:33:41Z</time>
      </trkpt>
      <trkpt lat="40.717578" lon="0.582388">
        <ele>3.372</ele>
        <time>1970-01-01T00:33:42Z</time>
      </trkpt>
      <trkpt lat="40.717559" lon="0.582345">
        <ele>3.232</ele>
        <time>1970-01-01T00:33:43Z</time>
      </trkpt>
      <trkpt lat="40.717538" lon="0.582302">
        <ele>3.178</ele>
        <time>1970-01-01T00:33:44Z</time>
      </trkpt>
      <trkpt lat="40.717520" lon="0.582257">
        <ele>3.172</ele>
        <time>1970-01-01T00:33:45Z</time>
      </trkpt>
      <trkpt lat="40.717504" lon="0.582211">
        <ele>3.043</ele>
        <time>1970-01-01T00:33:46Z</time>
      </trkpt>
      <trkpt lat="40.717489" lon="0.582162">
        <ele>3.036</ele>
        <time>1970-01-01T00:33:47Z</time>
      </trkpt>
      <trkpt lat="40.717476" lon="0.582111">
        <ele>2.917</ele>
        <time>1970-01-01T00:33:48Z</time>
      </trkpt>
      <trkpt lat="40.717469" lon="0.582059">
        <ele>2.918</ele>
        <time>1970-01-01T00:33:49Z</time>
      </trkpt>
      <trkpt lat="40.717464" lon="0.582006">
        <ele>2.808</ele>
        <time>1970-01-01T00:33:50Z</time>
      </trkpt>
      <trkpt lat="40.717463" lon="0.581953">
        <ele>2.740</ele>
        <time>1970-01-01T00:33:51Z</time>
      </trkpt>
      <trkpt lat="40.717465" lon="0.581904">
        <ele>2.717</ele>
        <time>1970-01-01T00:33:52Z</time>
      </trkpt>
      <trkpt lat="40.717472" lon="0.581857">
        <ele>2.868</ele>
        <time>1970-01-01T00:33:53Z</time>
      </trkpt>
      <trkpt lat="40.717480" lon="0.581810">
        <ele>2.991</ele>
        <time>1970-01-01T00:33:54Z</time>
      </trkpt>
      <trkpt lat="40.717487" lon="0.581762">
        <ele>2.991</ele>
        <time>1970-01-01T00:33:55Z</time>
      </trkpt>
      <trkpt lat="40.717492" lon="0.581717">
        <ele>2.957</ele>
        <time>1970-01-01T00:33:56Z</time>
      </trkpt>
      <trkpt lat="40.717497" lon="0.581676">
        <ele>3.071</ele>
        <time>1970-01-01T00:33:57Z</time>
      </trkpt>
      <trkpt lat="40.717502" lon="0.581639">
        <ele>3.052</ele>
        <time>1970-01-01T00:33:58Z</time>
      </trkpt>
      <trkpt lat="40.717509" lon="0.581605">
        <ele>3.069</ele>
        <time>1970-01-01T00:33:59Z</time>
      </trkpt>
      <trkpt lat="40.717523" lon="0.581577">
        <ele>3.004</ele>
        <time>1970-01-01T00:34:00Z</time>
      </trkpt>
      <trkpt lat="40.717538" lon="0.581550">
        <ele>3.024</ele>
        <time>1970-01-01T00:34:01Z</time>
      </trkpt>
      <trkpt lat="40.717552" lon="0.581522">
        <ele>3.008</ele>
        <time>1970-01-01T00:34:02Z</time>
      </trkpt>
      <trkpt lat="40.717564" lon="0.581491">
        <ele>2.963</ele>
        <time>1970-01-01T00:34:03Z</time>
      </trkpt>
      <trkpt lat="40.717572" lon="0.581463">
        <ele>2.960</ele>
        <time>1970-01-01T00:34:04Z</time>
      </trkpt>
      <trkpt lat="40.717578" lon="0.581438">
        <ele>2.881</ele>
        <time>1970-01-01T00:34:05Z</time>
      </trkpt>
      <trkpt lat="40.717585" lon="0.581414">
        <ele>2.744</ele>
        <time>1970-01-01T00:34:06Z</time>
      </trkpt>
      <trkpt lat="40.717593" lon="0.581391">
        <ele>2.774</ele>
        <time>1970-01-01T00:34:07Z</time>
      </trkpt>
      <trkpt lat="40.717604" lon="0.581366">
        <ele>2.540</ele>
        <time>1970-01-01T00:34:08Z</time>
      </trkpt>
      <trkpt lat="40.717619" lon="0.581342">
        <ele>2.354</ele>
        <time>1970-01-01T00:34:09Z</time>
      </trkpt>
      <trkpt lat="40.717639" lon="0.581317">
        <ele>2.135</ele>
        <time>1970-01-01T00:34:10Z</time>
      </trkpt>
      <trkpt lat="40.717659" lon="0.581288">
        <ele>1.991</ele>
        <time>1970-01-01T00:34:11Z</time>
      </trkpt>
      <trkpt lat="40.717680" lon="0.581254">
        <ele>1.681</ele>
        <time>1970-01-01T00:34:12Z</time>
      </trkpt>
      <trkpt lat="40.717700" lon="0.581217">
        <ele>1.219</ele>
        <time>1970-01-01T00:34:13Z</time>
      </trkpt>
      <trkpt lat="40.717721" lon="0.581178">
        <ele>0.808</ele>
        <time>1970-01-01T00:34:14Z</time>
      </trkpt>
      <trkpt lat="40.717744" lon="0.581142">
        <ele>0.596</ele>
        <time>1970-01-01T00:34:15Z</time>
      </trkpt>
      <trkpt lat="40.717771" lon="0.581106">
        <ele>0.013</ele>
        <time>1970-01-01T00:34:16Z</time>
      </trkpt>
      <trkpt lat="40.717799" lon="0.581068">
        <ele>-0.114</ele>
        <time>1970-01-01T00:34:17Z</time>
      </trkpt>
      <trkpt lat="40.717828" lon="0.581030">
        <ele>-0.287</ele>
        <time>1970-01-01T00:34:18Z</time>
      </trkpt>
      <trkpt lat="40.717859" lon="0.580993">
        <ele>-0.387</ele>
        <time>1970-01-01T00:34:19Z</time>
      </trkpt>
      <trkpt lat="40.717895" lon="0.580958">
        <ele>-0.383</ele>
        <time>1970-01-01T00:34:20Z</time>
      </trkpt>
      <trkpt lat="40.717933" lon="0.580926">
        <ele>-0.317</ele>
        <time>1970-01-01T00:34:21Z</time>
      </trkpt>
      <trkpt lat="40.717973" lon="0.580895">
        <ele>-0.298</ele>
        <time>1970-01-01T00:34:22Z</time>
      </trkpt>
      <trkpt lat="40.718015" lon="0.580867">
        <ele>-0.115</ele>
        <time>1970-01-01T00:34:23Z</time>
      </trkpt>
      <trkpt lat="40.718057" lon="0.580841">
        <ele>0.065</ele>
        <time>1970-01-01T00:34:24Z</time>
      </trkpt>
      <trkpt lat="40.718101" lon="0.580819">
        <ele>0.311</ele>
        <time>1970-01-01T00:34:25Z</time>
      </trkpt>
      <trkpt lat="40.718146" lon="0.580799">
        <ele>0.708</ele>
        <time>1970-01-01T00:34:26Z</time>
      </trkpt>
      <trkpt lat="40.718192" lon="0.580781">
        <ele>1.118</ele>
        <time>1970-01-01T00:34:27Z</time>
      </trkpt>
      <trkpt lat="40.718239" lon="0.580763">
        <ele>1.595</ele>
        <time>1970-01-01T00:34:28Z</time>
      </trkpt>
      <trkpt lat="40.718285" lon="0.580748">
        <ele>1.916</ele>
        <time>1970-01-01T00:34:29Z</time>
      </trkpt>
      <trkpt lat="40.718331" lon="0.580733">
        <ele>2.359</ele>
        <time>1970-01-01T00:34:30Z</time>
      </trkpt>
      <trkpt lat="40.718375" lon="0.580720">
        <ele>2.489</ele>
        <time>1970-01-01T00:34:31Z</time>
      </trkpt>
      <trkpt lat="40.718420" lon="0.580707">
        <ele>2.585</ele>
        <time>1970-01-01T00:34:32Z</time>
      </trkpt>
      <trkpt lat="40.718464" lon="0.580695">
        <ele>2.529</ele>
        <time>1970-01-01T00:34:33Z</time>
      </trkpt>
      <trkpt lat="40.718508" lon="0.580684">
        <ele>2.560</ele>
        <time>1970-01-01T00:34:34Z</time>
      </trkpt>
      <trkpt lat="40.718554" lon="0.580673">
        <ele>2.573</ele>
        <time>1970-01-01T00:34:35Z</time>
      </trkpt>
      <trkpt lat="40.718599" lon="0.580662">
        <ele>2.485</ele>
        <time>1970-01-01T00:34:36Z</time>
      </trkpt>
      <trkpt lat="40.718646" lon="0.580651">
        <ele>2.113</ele>
        <time>1970-01-01T00:34:37Z</time>
      </trkpt>
      <trkpt lat="40.718692" lon="0.580640">
        <ele>1.808</ele>
        <time>1970-01-01T00:34:38Z</time>
      </trkpt>
      <trkpt lat="40.718738" lon="0.580629">
        <ele>1.534</ele>
        <time>1970-01-01T00:34:39Z</time>
      </trkpt>
      <trkpt lat="40.718785" lon="0.580620">
        <ele>1.121</ele>
        <time>1970-01-01T00:34:40Z</time>
      </trkpt>
      <trkpt lat="40.718833" lon="0.580610">
        <ele>0.832</ele>
        <time>1970-01-01T00:34:41Z</time>
      </trkpt>
      <trkpt lat="40.718881" lon="0.580599">
        <ele>0.425</ele>
        <time>1970-01-01T00:34:42Z</time>
      </trkpt>
      <trkpt lat="40.718928" lon="0.580587">
        <ele>0.125</ele>
        <time>1970-01-01T00:34:43Z</time>
      </trkpt>
      <trkpt lat="40.718977" lon="0.580577">
        <ele>-0.141</ele>
        <time>1970-01-01T00:34:44Z</time>
      </trkpt>
      <trkpt lat="40.719025" lon="0.580566">
        <ele>-0.475</ele>
        <time>1970-01-01T00:34:45Z</time>
      </trkpt>
      <trkpt lat="40.719074" lon="0.580554">
        <ele>-0.736</ele>
        <time>1970-01-01T00:34:46Z</time>
      </trkpt>
      <trkpt lat="40.719122" lon="0.580543">
        <ele>-0.922</ele>
        <time>1970-01-01T00:34:47Z</time>
      </trkpt>
      <trkpt lat="40.719171" lon="0.580532">
        <ele>-1.162</ele>
        <time>1970-01-01T00:34:48Z</time>
      </trkpt>
      <trkpt lat="40.719221" lon="0.580521">
        <ele>-0.708</ele>
        <time>1970-01-01T00:34:49Z</time>
      </trkpt>
      <trkpt lat="40.719271" lon="0.580510">
        <ele>-0.408</ele>
        <time>1970-01-01T00:34:50Z</time>
      </trkpt>
      <trkpt lat="40.719320" lon="0.580499">
        <ele>-0.149</ele>
        <time>1970-01-01T00:34:51Z</time>
      </trkpt>
      <trkpt lat="40.719370" lon="0.580488">
        <ele>0.286</ele>
        <time>1970-01-01T00:34:52Z</time>
      </trkpt>
      <trkpt lat="40.719420" lon="0.580476">
        <ele>0.567</ele>
        <time>1970-01-01T00:34:53Z</time>
      </trkpt>
      <trkpt lat="40.719471" lon="0.580463">
        <ele>0.890</ele>
        <time>1970-01-01T00:34:54Z</time>
      </trkpt>
      <trkpt lat="40.719521" lon="0.580450">
        <ele>1.170</ele>
        <time>1970-01-01T00:34:55Z</time>
      </trkpt>
      <trkpt lat="40.719572" lon="0.580437">
        <ele>1.486</ele>
        <time>1970-01-01T00:34:56Z</time>
      </trkpt>
      <trkpt lat="40.719623" lon="0.580422">
        <ele>1.820</ele>
        <time>1970-01-01T00:34:57Z</time>
      </trkpt>
      <trkpt lat="40.719673" lon="0.580405">
        <ele>2.231</ele>
        <time>1970-01-01T00:34:58Z</time>
      </trkpt>
      <trkpt lat="40.719723" lon="0.580386">
        <ele>2.678</ele>
        <time>1970-01-01T00:34:59Z</time>
      </trkpt>
      <trkpt lat="40.719773" lon="0.580368">
        <ele>2.633</ele>
        <time>1970-01-01T00:35:00Z</time>
      </trkpt>
      <trkpt lat="40.719822" lon="0.580348">
        <ele>2.526</ele>
        <time>1970-01-01T00:35:01Z</time>
      </trkpt>
      <trkpt lat="40.719872" lon="0.580326">
        <ele>2.408</ele>
        <time>1970-01-01T00:35:02Z</time>
      </trkpt>
      <trkpt lat="40.719921" lon="0.580301">
        <ele>2.314</ele>
        <time>1970-01-01T00:35:03Z</time>
      </trkpt>
      <trkpt lat="40.719971" lon="0.580277">
        <ele>2.171</ele>
        <time>1970-01-01T00:35:04Z</time>
      </trkpt>
      <trkpt lat="40.720020" lon="0.580252">
        <ele>1.982</ele>
        <time>1970-01-01T00:35:05Z</time>
      </trkpt>
      <trkpt lat="40.720068" lon="0.580224">
        <ele>1.765</ele>
        <time>1970-01-01T00:35:06Z</time>
      </trkpt>
      <trkpt lat="40.720116" lon="0.580197">
        <ele>1.585</ele>
        <time>1970-01-01T00:35:07Z</time>
      </trkpt>
      <trkpt lat="40.720164" lon="0.580170">
        <ele>1.231</ele>
        <time>1970-01-01T00:35:08Z</time>
      </trkpt>
      <trkpt lat="40.720211" lon="0.580142">
        <ele>0.945</ele>
        <time>1970-01-01T00:35:09Z</time>
      </trkpt>
      <trkpt lat="40.720257" lon="0.580114">
        <ele>0.536</ele>
        <time>1970-01-01T00:35:10Z</time>
      </trkpt>
      <trkpt lat="40.720302" lon="0.580086">
        <ele>0.364</ele>
        <time>1970-01-01T00:35:11Z</time>
      </trkpt>
      <trkpt lat="40.720345" lon="0.580057">
        <ele>0.206</ele>
        <time>1970-01-01T00:35:12Z</time>
      </trkpt>
      <trkpt lat="40.720385" lon="0.580030">
        <ele>0.116</ele>
        <time>1970-01-01T00:35:13Z</time>
      </trkpt>
      <trkpt lat="40.720424" lon="0.580005">
        <ele>0.008</ele>
        <time>1970-01-01T00:35:14Z</time>
      </trkpt>
      <trkpt lat="40.720463" lon="0.579981">
        <ele>0.073</ele>
        <time>1970-01-01T00:35:15Z</time>
      </trkpt>
      <trkpt lat="40.720501" lon="0.579955">
        <ele>0.060</ele>
        <time>1970-01-01T00:35:16Z</time>
      </trkpt>
      <trkpt lat="40.720540" lon="0.579927">
        <ele>0.091</ele>
        <time>1970-01-01T00:35:17Z</time>
      </trkpt>
      <trkpt lat="40.720577" lon="0.579897">
        <ele>0.014</ele>
        <time>1970-01-01T00:35:18Z</time>
      </trkpt>
      <trkpt lat="40.720613" lon="0.579863">
        <ele>0.144</ele>
        <time>1970-01-01T00:35:19Z</time>
      </trkpt>
      <trkpt lat="40.720647" lon="0.579828">
        <ele>0.240</ele>
        <time>1970-01-01T00:35:20Z</time>
      </trkpt>
      <trkpt lat="40.720682" lon="0.579792">
        <ele>0.324</ele>
        <time>1970-01-01T00:35:21Z</time>
      </trkpt>
      <trkpt lat="40.720713" lon="0.579753">
        <ele>0.525</ele>
        <time>1970-01-01T00:35:22Z</time>
      </trkpt>
      <trkpt lat="40.720746" lon="0.579713">
        <ele>0.717</ele>
        <time>1970-01-01T00:35:23Z</time>
      </trkpt>
      <trkpt lat="40.720780" lon="0.579674">
        <ele>0.887</ele>
        <time>1970-01-01T00:35:24Z</time>
      </trkpt>
      <trkpt lat="40.720814" lon="0.579635">
        <ele>1.015</ele>
        <time>1970-01-01T00:35:25Z</time>
      </trkpt>
      <trkpt lat="40.720848" lon="0.579595">
        <ele>1.008</ele>
        <time>1970-01-01T00:35:26Z</time>
      </trkpt>
      <trkpt lat="40.720883" lon="0.579554">
        <ele>1.058</ele>
        <time>1970-01-01T00:35:27Z</time>
      </trkpt>
      <trkpt lat="40.720917" lon="0.579513">
        <ele>1.025</ele>
        <time>1970-01-01T00:35:28Z</time>
      </trkpt>
      <trkpt lat="40.720950" lon="0.579471">
        <ele>1.026</ele>
        <time>1970-01-01T00:35:29Z</time>
      </trkpt>
      <trkpt lat="40.720984" lon="0.579430">
        <ele>1.059</ele>
        <time>1970-01-01T00:35:30Z</time>
      </trkpt>
      <trkpt lat="40.721018" lon="0.579389">
        <ele>1.069</ele>
        <time>1970-01-01T00:35:31Z</time>
      </trkpt>
      <trkpt lat="40.721051" lon="0.579346">
        <ele>1.055</ele>
        <time>1970-01-01T00:35:32Z</time>
      </trkpt>
      <trkpt lat="40.721085" lon="0.579305">
        <ele>1.079</ele>
        <time>1970-01-01T00:35:33Z</time>
      </trkpt>
      <trkpt lat="40.721121" lon="0.579264">
        <ele>1.060</ele>
        <time>1970-01-01T00:35:34Z</time>
      </trkpt>
      <trkpt lat="40.721156" lon="0.579223">
        <ele>0.919</ele>
        <time>1970-01-01T00:35:35Z</time>
      </trkpt>
      <trkpt lat="40.721191" lon="0.579182">
        <ele>0.709</ele>
        <time>1970-01-01T00:35:36Z</time>
      </trkpt>
      <trkpt lat="40.721227" lon="0.579141">
        <ele>0.619</ele>
        <time>1970-01-01T00:35:37Z</time>
      </trkpt>
      <trkpt lat="40.721265" lon="0.579104">
        <ele>0.608</ele>
        <time>1970-01-01T00:35:38Z</time>
      </trkpt>
      <trkpt lat="40.721304" lon="0.579067">
        <ele>0.638</ele>
        <time>1970-01-01T00:35:39Z</time>
      </trkpt>
      <trkpt lat="40.721344" lon="0.579032">
        <ele>0.695</ele>
        <time>1970-01-01T00:35:40Z</time>
      </trkpt>
      <trkpt lat="40.721385" lon="0.579000">
        <ele>0.696</ele>
        <time>1970-01-01T00:35:41Z</time>
      </trkpt>
      <trkpt lat="40.721427" lon="0.578969">
        <ele>0.879</ele>
        <time>1970-01-01T00:35:42Z</time>
      </trkpt>
      <trkpt lat="40.721471" lon="0.578941">
        <ele>0.999</ele>
        <time>1970-01-01T00:35:43Z</time>
      </trkpt>
      <trkpt lat="40.721516" lon="0.578916">
        <ele>0.965</ele>
        <time>1970-01-01T00:35:44Z</time>
      </trkpt>
      <trkpt lat="40.721562" lon="0.578893">
        <ele>1.079</ele>
        <time>1970-01-01T00:35:45Z</time>
      </trkpt>
      <trkpt lat="40.721608" lon="0.578869">
        <ele>1.120</ele>
        <time>1970-01-01T00:35:46Z</time>
      </trkpt>
      <trkpt lat="40.721655" lon="0.578847">
        <ele>1.258</ele>
        <time>1970-01-01T00:35:47Z</time>
      </trkpt>
      <trkpt lat="40.721703" lon="0.578825">
        <ele>1.352</ele>
        <time>1970-01-01T00:35:48Z</time>
      </trkpt>
      <trkpt lat="40.721751" lon="0.578805">
        <ele>1.417</ele>
        <time>1970-01-01T00:35:49Z</time>
      </trkpt>
      <trkpt lat="40.721801" lon="0.578788">
        <ele>1.508</ele>
        <time>1970-01-01T00:35:50Z</time>
      </trkpt>
      <trkpt lat="40.721851" lon="0.578773">
        <ele>1.542</ele>
        <time>1970-01-01T00:35:51Z</time>
      </trkpt>
      <trkpt lat="40.721901" lon="0.578758">
        <ele>1.549</ele>
        <time>1970-01-01T00:35:52Z</time>
      </trkpt>
      <trkpt lat="40.721950" lon="0.578742">
        <ele>1.520</ele>
        <time>1970-01-01T00:35:53Z</time>
      </trkpt>
      <trkpt lat="40.722000" lon="0.578726">
        <ele>1.343</ele>
        <time>1970-01-01T00:35:54Z</time>
      </trkpt>
      <trkpt lat="40.722049" lon="0.578709">
        <ele>1.173</ele>
        <time>1970-01-01T00:35:55Z</time>
      </trkpt>
      <trkpt lat="40.722100" lon="0.578693">
        <ele>0.949</ele>
        <time>1970-01-01T00:35:56Z</time>
      </trkpt>
      <trkpt lat="40.722151" lon="0.578679">
        <ele>0.773</ele>
        <time>1970-01-01T00:35:57Z</time>
      </trkpt>
      <trkpt lat="40.722204" lon="0.578664">
        <ele>0.434</ele>
        <time>1970-01-01T00:35:58Z</time>
      </trkpt>
      <trkpt lat="40.722258" lon="0.578649">
        <ele>0.495</ele>
        <time>1970-01-01T00:35:59Z</time>
      </trkpt>
      <trkpt lat="40.722311" lon="0.578633">
        <ele>0.549</ele>
        <time>1970-01-01T00:36:00Z</time>
      </trkpt>
      <trkpt lat="40.722364" lon="0.578615">
        <ele>0.523</ele>
        <time>1970-01-01T00:36:01Z</time>
      </trkpt>
      <trkpt lat="40.722415" lon="0.578596">
        <ele>0.708</ele>
        <time>1970-01-01T00:36:02Z</time>
      </trkpt>
      <trkpt lat="40.722466" lon="0.578576">
        <ele>0.856</ele>
        <time>1970-01-01T00:36:03Z</time>
      </trkpt>
      <trkpt lat="40.722517" lon="0.578555">
        <ele>0.833</ele>
        <time>1970-01-01T00:36:04Z</time>
      </trkpt>
      <trkpt lat="40.722567" lon="0.578533">
        <ele>0.844</ele>
        <time>1970-01-01T00:36:05Z</time>
      </trkpt>
      <trkpt lat="40.722617" lon="0.578509">
        <ele>0.857</ele>
        <time>1970-01-01T00:36:06Z</time>
      </trkpt>
      <trkpt lat="40.722666" lon="0.578483">
        <ele>0.837</ele>
        <time>1970-01-01T00:36:07Z</time>
      </trkpt>
      <trkpt lat="40.722714" lon="0.578458">
        <ele>0.923</ele>
        <time>1970-01-01T00:36:08Z</time>
      </trkpt>
      <trkpt lat="40.722762" lon="0.578431">
        <ele>1.087</ele>
        <time>1970-01-01T00:36:09Z</time>
      </trkpt>
      <trkpt lat="40.722810" lon="0.578403">
        <ele>1.028</ele>
        <time>1970-01-01T00:36:10Z</time>
      </trkpt>
      <trkpt lat="40.722857" lon="0.578372">
        <ele>1.054</ele>
        <time>1970-01-01T00:36:11Z</time>
      </trkpt>
      <trkpt lat="40.722903" lon="0.578341">
        <ele>1.056</ele>
        <time>1970-01-01T00:36:12Z</time>
      </trkpt>
      <trkpt lat="40.722950" lon="0.578312">
        <ele>1.011</ele>
        <time>1970-01-01T00:36:13Z</time>
      </trkpt>
      <trkpt lat="40.722996" lon="0.578283">
        <ele>1.008</ele>
        <time>1970-01-01T00:36:14Z</time>
      </trkpt>
      <trkpt lat="40.723042" lon="0.578253">
        <ele>1.052</ele>
        <time>1970-01-01T00:36:15Z</time>
      </trkpt>
      <trkpt lat="40.723088" lon="0.578223">
        <ele>1.089</ele>
        <time>1970-01-01T00:36:16Z</time>
      </trkpt>
      <trkpt lat="40.723135" lon="0.578195">
        <ele>0.930</ele>
        <time>1970-01-01T00:36:17Z</time>
      </trkpt>
      <trkpt lat="40.723182" lon="0.578166">
        <ele>0.773</ele>
        <time>1970-01-01T00:36:18Z</time>
      </trkpt>
      <trkpt lat="40.723228" lon="0.578136">
        <ele>0.643</ele>
        <time>1970-01-01T00:36:19Z</time>
      </trkpt>
      <trkpt lat="40.723275" lon="0.578107">
        <ele>0.459</ele>
        <time>1970-01-01T00:36:20Z</time>
      </trkpt>
      <trkpt lat="40.723322" lon="0.578077">
        <ele>0.113</ele>
        <time>1970-01-01T00:36:21Z</time>
      </trkpt>
      <trkpt lat="40.723369" lon="0.578047">
        <ele>0.374</ele>
        <time>1970-01-01T00:36:22Z</time>
      </trkpt>
      <trkpt lat="40.723416" lon="0.578017">
        <ele>0.639</ele>
        <time>1970-01-01T00:36:23Z</time>
      </trkpt>
      <trkpt lat="40.723463" lon="0.577988">
        <ele>0.801</ele>
        <time>1970-01-01T00:36:24Z</time>
      </trkpt>
      <trkpt lat="40.723511" lon="0.577959">
        <ele>1.021</ele>
        <time>1970-01-01T00:36:25Z</time>
      </trkpt>
      <trkpt lat="40.723559" lon="0.577929">
        <ele>1.008</ele>
        <time>1970-01-01T00:36:26Z</time>
      </trkpt>
      <trkpt lat="40.723607" lon="0.577898">
        <ele>0.920</ele>
        <time>1970-01-01T00:36:27Z</time>
      </trkpt>
      <trkpt lat="40.723654" lon="0.577867">
        <ele>1.047</ele>
        <time>1970-01-01T00:36:28Z</time>
      </trkpt>
      <trkpt lat="40.723702" lon="0.577838">
        <ele>1.168</ele>
        <time>1970-01-01T00:36:29Z</time>
      </trkpt>
      <trkpt lat="40.723749" lon="0.577809">
        <ele>1.291</ele>
        <time>1970-01-01T00:36:30Z</time>
      </trkpt>
      <trkpt lat="40.723797" lon="0.577780">
        <ele>1.491</ele>
        <time>1970-01-01T00:36:31Z</time>
      </trkpt>
      <trkpt lat="40.723845" lon="0.577750">
        <ele>1.637</ele>
        <time>1970-01-01T00:36:32Z</time>
      </trkpt>
      <trkpt lat="40.723893" lon="0.577720">
        <ele>1.881</ele>
        <time>1970-01-01T00:36:33Z</time>
      </trkpt>
      <trkpt lat="40.723943" lon="0.577692">
        <ele>1.872</ele>
        <time>1970-01-01T00:36:34Z</time>
      </trkpt>
      <trkpt lat="40.723992" lon="0.577664">
        <ele>1.853</ele>
        <time>1970-01-01T00:36:35Z</time>
      </trkpt>
      <trkpt lat="40.724040" lon="0.577636">
        <ele>1.804</ele>
        <time>1970-01-01T00:36:36Z</time>
      </trkpt>
      <trkpt lat="40.724089" lon="0.577608">
        <ele>1.714</ele>
        <time>1970-01-01T00:36:37Z</time>
      </trkpt>
      <trkpt lat="40.724139" lon="0.577580">
        <ele>1.508</ele>
        <time>1970-01-01T00:36:38Z</time>
      </trkpt>
      <trkpt lat="40.724188" lon="0.577553">
        <ele>1.432</ele>
        <time>1970-01-01T00:36:39Z</time>
      </trkpt>
      <trkpt lat="40.724238" lon="0.577526">
        <ele>1.259</ele>
        <time>1970-01-01T00:36:40Z</time>
      </trkpt>
      <trkpt lat="40.724288" lon="0.577501">
        <ele>1.050</ele>
        <time>1970-01-01T00:36:41Z</time>
      </trkpt>
      <trkpt lat="40.724338" lon="0.577477">
        <ele>1.053</ele>
        <time>1970-01-01T00:36:42Z</time>
      </trkpt>
      <trkpt lat="40.724388" lon="0.577453">
        <ele>1.093</ele>
        <time>1970-01-01T00:36:43Z</time>
      </trkpt>
      <trkpt lat="40.724437" lon="0.577428">
        <ele>1.059</ele>
        <time>1970-01-01T00:36:44Z</time>
      </trkpt>
      <trkpt lat="40.724487" lon="0.577406">
        <ele>0.993</ele>
        <time>1970-01-01T00:36:45Z</time>
      </trkpt>
      <trkpt lat="40.724537" lon="0.577383">
        <ele>0.884</ele>
        <time>1970-01-01T00:36:46Z</time>
      </trkpt>
      <trkpt lat="40.724586" lon="0.577359">
        <ele>0.743</ele>
        <time>1970-01-01T00:36:47Z</time>
      </trkpt>
      <trkpt lat="40.724636" lon="0.577335">
        <ele>0.764</ele>
        <time>1970-01-01T00:36:48Z</time>
      </trkpt>
      <trkpt lat="40.724686" lon="0.577311">
        <ele>0.710</ele>
        <time>1970-01-01T00:36:49Z</time>
      </trkpt>
      <trkpt lat="40.724737" lon="0.577286">
        <ele>0.808</ele>
        <time>1970-01-01T00:36:50Z</time>
      </trkpt>
      <trkpt lat="40.724787" lon="0.577262">
        <ele>1.111</ele>
        <time>1970-01-01T00:36:51Z</time>
      </trkpt>
      <trkpt lat="40.724838" lon="0.577241">
        <ele>1.348</ele>
        <time>1970-01-01T00:36:52Z</time>
      </trkpt>
      <trkpt lat="40.724889" lon="0.577219">
        <ele>1.679</ele>
        <time>1970-01-01T00:36:53Z</time>
      </trkpt>
      <trkpt lat="40.724939" lon="0.577197">
        <ele>1.862</ele>
        <time>1970-01-01T00:36:54Z</time>
      </trkpt>
      <trkpt lat="40.724989" lon="0.577172">
        <ele>2.072</ele>
        <time>1970-01-01T00:36:55Z</time>
      </trkpt>
      <trkpt lat="40.725039" lon="0.577149">
        <ele>2.148</ele>
        <time>1970-01-01T00:36:56Z</time>
      </trkpt>
      <trkpt lat="40.725088" lon="0.577127">
        <ele>2.342</ele>
        <time>1970-01-01T00:36:57Z</time>
      </trkpt>
      <trkpt lat="40.725137" lon="0.577107">
        <ele>2.583</ele>
        <time>1970-01-01T00:36:58Z</time>
      </trkpt>
      <trkpt lat="40.725187" lon="0.577089">
        <ele>2.771</ele>
        <time>1970-01-01T00:36:59Z</time>
      </trkpt>
      <trkpt lat="40.725236" lon="0.577068">
        <ele>2.941</ele>
        <time>1970-01-01T00:37:00Z</time>
      </trkpt>
      <trkpt lat="40.725285" lon="0.577045">
        <ele>3.015</ele>
        <time>1970-01-01T00:37:01Z</time>
      </trkpt>
      <trkpt lat="40.725333" lon="0.577023">
        <ele>3.308</ele>
        <time>1970-01-01T00:37:02Z</time>
      </trkpt>
      <trkpt lat="40.725382" lon="0.577001">
        <ele>3.694</ele>
        <time>1970-01-01T00:37:03Z</time>
      </trkpt>
      <trkpt lat="40.725430" lon="0.576976">
        <ele>4.021</ele>
        <time>1970-01-01T00:37:04Z</time>
      </trkpt>
      <trkpt lat="40.725478" lon="0.576950">
        <ele>4.492</ele>
        <time>1970-01-01T00:37:05Z</time>
      </trkpt>
      <trkpt lat="40.725527" lon="0.576927">
        <ele>4.745</ele>
        <time>1970-01-01T00:37:06Z</time>
      </trkpt>
      <trkpt lat="40.725577" lon="0.576907">
        <ele>4.755</ele>
        <time>1970-01-01T00:37:07Z</time>
      </trkpt>
      <trkpt lat="40.725626" lon="0.576886">
        <ele>4.471</ele>
        <time>1970-01-01T00:37:08Z</time>
      </trkpt>
      <trkpt lat="40.725673" lon="0.576863">
        <ele>4.165</ele>
        <time>1970-01-01T00:37:09Z</time>
      </trkpt>
      <trkpt lat="40.725721" lon="0.576838">
        <ele>3.996</ele>
        <time>1970-01-01T00:37:10Z</time>
      </trkpt>
      <trkpt lat="40.725767" lon="0.576812">
        <ele>3.762</ele>
        <time>1970-01-01T00:37:11Z</time>
      </trkpt>
      <trkpt lat="40.725813" lon="0.576787">
        <ele>3.683</ele>
        <time>1970-01-01T00:37:12Z</time>
      </trkpt>
      <trkpt lat="40.725859" lon="0.576763">
        <ele>3.411</ele>
        <time>1970-01-01T00:37:13Z</time>
      </trkpt>
      <trkpt lat="40.725905" lon="0.576739">
        <ele>3.108</ele>
        <time>1970-01-01T00:37:14Z</time>
      </trkpt>
      <trkpt lat="40.725952" lon="0.576714">
        <ele>2.763</ele>
        <time>1970-01-01T00:37:15Z</time>
      </trkpt>
      <trkpt lat="40.725999" lon="0.576689">
        <ele>2.240</ele>
        <time>1970-01-01T00:37:16Z</time>
      </trkpt>
      <trkpt lat="40.726045" lon="0.576666">
        <ele>1.721</ele>
        <time>1970-01-01T00:37:17Z</time>
      </trkpt>
      <trkpt lat="40.726089" lon="0.576644">
        <ele>1.414</ele>
        <time>1970-01-01T00:37:18Z</time>
      </trkpt>
      <trkpt lat="40.726133" lon="0.576622">
        <ele>1.424</ele>
        <time>1970-01-01T00:37:19Z</time>
      </trkpt>
      <trkpt lat="40.726175" lon="0.576599">
        <ele>1.740</ele>
        <time>1970-01-01T00:37:20Z</time>
      </trkpt>
      <trkpt lat="40.726217" lon="0.576577">
        <ele>1.994</ele>
        <time>1970-01-01T00:37:21Z</time>
      </trkpt>
      <trkpt lat="40.726260" lon="0.576556">
        <ele>2.195</ele>
        <time>1970-01-01T00:37:22Z</time>
      </trkpt>
      <trkpt lat="40.726304" lon="0.576535">
        <ele>2.361</ele>
        <time>1970-01-01T00:37:23Z</time>
      </trkpt>
      <trkpt lat="40.726349" lon="0.576513">
        <ele>2.521</ele>
        <time>1970-01-01T00:37:24Z</time>
      </trkpt>
      <trkpt lat="40.726395" lon="0.576489">
        <ele>2.713</ele>
        <time>1970-01-01T00:37:25Z</time>
      </trkpt>
      <trkpt lat="40.726441" lon="0.576464">
        <ele>3.008</ele>
        <time>1970-01-01T00:37:26Z</time>
      </trkpt>
      <trkpt lat="40.726487" lon="0.576439">
        <ele>3.333</ele>
        <time>1970-01-01T00:37:27Z</time>
      </trkpt>
      <trkpt lat="40.726534" lon="0.576414">
        <ele>3.560</ele>
        <time>1970-01-01T00:37:28Z</time>
      </trkpt>
      <trkpt lat="40.726580" lon="0.576389">
        <ele>3.751</ele>
        <time>1970-01-01T00:37:29Z</time>
      </trkpt>
      <trkpt lat="40.726627" lon="0.576364">
        <ele>3.854</ele>
        <time>1970-01-01T00:37:30Z</time>
      </trkpt>
      <trkpt lat="40.726673" lon="0.576340">
        <ele>3.824</ele>
        <time>1970-01-01T00:37:31Z</time>
      </trkpt>
      <trkpt lat="40.726719" lon="0.576315">
        <ele>3.950</ele>
        <time>1970-01-01T00:37:32Z</time>
      </trkpt>
      <trkpt lat="40.726767" lon="0.576289">
        <ele>4.014</ele>
        <time>1970-01-01T00:37:33Z</time>
      </trkpt>
      <trkpt lat="40.726815" lon="0.576262">
        <ele>4.155</ele>
        <time>1970-01-01T00:37:34Z</time>
      </trkpt>
      <trkpt lat="40.726861" lon="0.576236">
        <ele>4.175</ele>
        <time>1970-01-01T00:37:35Z</time>
      </trkpt>
      <trkpt lat="40.726908" lon="0.576210">
        <ele>4.228</ele>
        <time>1970-01-01T00:37:36Z</time>
      </trkpt>
      <trkpt lat="40.726955" lon="0.576184">
        <ele>4.320</ele>
        <time>1970-01-01T00:37:37Z</time>
      </trkpt>
      <trkpt lat="40.727001" lon="0.576158">
        <ele>4.308</ele>
        <time>1970-01-01T00:37:38Z</time>
      </trkpt>
      <trkpt lat="40.727049" lon="0.576132">
        <ele>4.414</ele>
        <time>1970-01-01T00:37:39Z</time>
      </trkpt>
      <trkpt lat="40.727097" lon="0.576107">
        <ele>4.571</ele>
        <time>1970-01-01T00:37:40Z</time>
      </trkpt>
      <trkpt lat="40.727144" lon="0.576082">
        <ele>4.542</ele>
        <time>1970-01-01T00:37:41Z</time>
      </trkpt>
      <trkpt lat="40.727188" lon="0.576056">
        <ele>4.525</ele>
        <time>1970-01-01T00:37:42Z</time>
      </trkpt>
      <trkpt lat="40.727232" lon="0.576029">
        <ele>4.425</ele>
        <time>1970-01-01T00:37:43Z</time>
      </trkpt>
      <trkpt lat="40.727278" lon="0.576004">
        <ele>4.371</ele>
        <time>1970-01-01T00:37:44Z</time>
      </trkpt>
      <trkpt lat="40.727325" lon="0.575979">
        <ele>4.235</ele>
        <time>1970-01-01T00:37:45Z</time>
      </trkpt>
      <trkpt lat="40.727372" lon="0.575955">
        <ele>4.236</ele>
        <time>1970-01-01T00:37:46Z</time>
      </trkpt>
      <trkpt lat="40.727419" lon="0.575931">
        <ele>4.268</ele>
        <time>1970-01-01T00:37:47Z</time>
      </trkpt>
      <trkpt lat="40.727467" lon="0.575906">
        <ele>4.242</ele>
        <time>1970-01-01T00:37:48Z</time>
      </trkpt>
      <trkpt lat="40.727514" lon="0.575881">
        <ele>4.226</ele>
        <time>1970-01-01T00:37:49Z</time>
      </trkpt>
      <trkpt lat="40.727561" lon="0.575856">
        <ele>4.108</ele>
        <time>1970-01-01T00:37:50Z</time>
      </trkpt>
      <trkpt lat="40.727607" lon="0.575830">
        <ele>4.043</ele>
        <time>1970-01-01T00:37:51Z</time>
      </trkpt>
      <trkpt lat="40.727653" lon="0.575805">
        <ele>3.860</ele>
        <time>1970-01-01T00:37:52Z</time>
      </trkpt>
      <trkpt lat="40.727699" lon="0.575780">
        <ele>3.681</ele>
        <time>1970-01-01T00:37:53Z</time>
      </trkpt>
      <trkpt lat="40.727746" lon="0.575756">
        <ele>3.494</ele>
        <time>1970-01-01T00:37:54Z</time>
      </trkpt>
      <trkpt lat="40.727793" lon="0.575732">
        <ele>3.214</ele>
        <time>1970-01-01T00:37:55Z</time>
      </trkpt>
      <trkpt lat="40.727839" lon="0.575707">
        <ele>3.040</ele>
        <time>1970-01-01T00:37:56Z</time>
      </trkpt>
      <trkpt lat="40.727884" lon="0.575683">
        <ele>2.744</ele>
        <time>1970-01-01T00:37:57Z</time>
      </trkpt>
      <trkpt lat="40.727926" lon="0.575660">
        <ele>2.495</ele>
        <time>1970-01-01T00:37:58Z</time>
      </trkpt>
      <trkpt lat="40.727965" lon="0.575637">
        <ele>2.137</ele>
        <time>1970-01-01T00:37:59Z</time>
      </trkpt>
      <trkpt lat="40.728004" lon="0.575617">
        <ele>1.849</ele>
        <time>1970-01-01T00:38:00Z</time>
      </trkpt>
      <trkpt lat="40.728039" lon="0.575598">
        <ele>1.513</ele>
        <time>1970-01-01T00:38:01Z</time>
      </trkpt>
      <trkpt lat="40.728068" lon="0.575583">
        <ele>1.308</ele>
        <time>1970-01-01T00:38:02Z</time>
      </trkpt>
      <trkpt lat="40.728090" lon="0.575580">
        <ele>1.450</ele>
        <time>1970-01-01T00:38:03Z</time>
      </trkpt>
      <trkpt lat="40.728100" lon="0.575584">
        <ele>1.547</ele>
        <time>1970-01-01T00:38:04Z</time>
      </trkpt>
      <trkpt lat="40.728102" lon="0.575583">
        <ele>1.518</ele>
        <time>1970-01-01T00:38:05Z</time>
      </trkpt>
      <trkpt lat="40.728320" lon="0.575489">
        <ele>1.741</ele>
        <time>1970-01-01T00:39:00Z</time>
      </trkpt>
      <trkpt lat="40.728343" lon="0.575487">
        <ele>1.821</ele>
        <time>1970-01-01T00:39:01Z</time>
      </trkpt>
      <trkpt lat="40.728369" lon="0.575481">
        <ele>1.927</ele>
        <time>1970-01-01T00:39:02Z</time>
      </trkpt>
      <trkpt lat="40.728401" lon="0.575471">
        <ele>1.941</ele>
        <time>1970-01-01T00:39:03Z</time>
      </trkpt>
      <trkpt lat="40.728435" lon="0.575457">
        <ele>2.092</ele>
        <time>1970-01-01T00:39:04Z</time>
      </trkpt>
      <trkpt lat="40.728471" lon="0.575439">
        <ele>2.111</ele>
        <time>1970-01-01T00:39:05Z</time>
      </trkpt>
      <trkpt lat="40.728509" lon="0.575421">
        <ele>2.121</ele>
        <time>1970-01-01T00:39:06Z</time>
      </trkpt>
      <trkpt lat="40.728547" lon="0.575402">
        <ele>2.203</ele>
        <time>1970-01-01T00:39:07Z</time>
      </trkpt>
      <trkpt lat="40.728584" lon="0.575382">
        <ele>2.308</ele>
        <time>1970-01-01T00:39:08Z</time>
      </trkpt>
      <trkpt lat="40.728622" lon="0.575362">
        <ele>2.478</ele>
        <time>1970-01-01T00:39:09Z</time>
      </trkpt>
      <trkpt lat="40.728658" lon="0.575342">
        <ele>2.675</ele>
        <time>1970-01-01T00:39:10Z</time>
      </trkpt>
      <trkpt lat="40.728694" lon="0.575321">
        <ele>2.866</ele>
        <time>1970-01-01T00:39:11Z</time>
      </trkpt>
      <trkpt lat="40.728729" lon="0.575299">
        <ele>2.919</ele>
        <time>1970-01-01T00:39:12Z</time>
      </trkpt>
      <trkpt lat="40.728765" lon="0.575277">
        <ele>3.139</ele>
        <time>1970-01-01T00:39:13Z</time>
      </trkpt>
      <trkpt lat="40.728802" lon="0.575259">
        <ele>3.355</ele>
        <time>1970-01-01T00:39:14Z</time>
      </trkpt>
      <trkpt lat="40.728840" lon="0.575241">
        <ele>3.539</ele>
        <time>1970-01-01T00:39:15Z</time>
      </trkpt>
      <trkpt lat="40.728876" lon="0.575225">
        <ele>3.720</ele>
        <time>1970-01-01T00:39:16Z</time>
      </trkpt>
      <trkpt lat="40.728918" lon="0.575208">
        <ele>3.896</ele>
        <time>1970-01-01T00:39:17Z</time>
      </trkpt>
      <trkpt lat="40.728960" lon="0.575187">
        <ele>3.831</ele>
        <time>1970-01-01T00:39:18Z</time>
      </trkpt>
      <trkpt lat="40.728997" lon="0.575166">
        <ele>3.824</ele>
        <time>1970-01-01T00:39:19Z</time>
      </trkpt>
      <trkpt lat="40.729034" lon="0.575145">
        <ele>3.808</ele>
        <time>1970-01-01T00:39:20Z</time>
      </trkpt>
      <trkpt lat="40.729071" lon="0.575122">
        <ele>3.856</ele>
        <time>1970-01-01T00:39:21Z</time>
      </trkpt>
      <trkpt lat="40.729107" lon="0.575098">
        <ele>3.943</ele>
        <time>1970-01-01T00:39:22Z</time>
      </trkpt>
      <trkpt lat="40.729146" lon="0.575073">
        <ele>3.934</ele>
        <time>1970-01-01T00:39:23Z</time>
      </trkpt>
      <trkpt lat="40.729185" lon="0.575047">
        <ele>4.267</ele>
        <time>1970-01-01T00:39:24Z</time>
      </trkpt>
      <trkpt lat="40.729223" lon="0.575021">
        <ele>4.697</ele>
        <time>1970-01-01T00:39:25Z</time>
      </trkpt>
      <trkpt lat="40.729271" lon="0.574998">
        <ele>5.183</ele>
        <time>1970-01-01T00:39:26Z</time>
      </trkpt>
      <trkpt lat="40.729315" lon="0.574979">
        <ele>5.557</ele>
        <time>1970-01-01T00:39:27Z</time>
      </trkpt>
      <trkpt lat="40.729364" lon="0.574958">
        <ele>5.958</ele>
        <time>1970-01-01T00:39:28Z</time>
      </trkpt>
      <trkpt lat="40.729413" lon="0.574938">
        <ele>6.349</ele>
        <time>1970-01-01T00:39:29Z</time>
      </trkpt>
      <trkpt lat="40.729462" lon="0.574916">
        <ele>6.602</ele>
        <time>1970-01-01T00:39:30Z</time>
      </trkpt>
      <trkpt lat="40.729510" lon="0.574898">
        <ele>7.022</ele>
        <time>1970-01-01T00:39:31Z</time>
      </trkpt>
      <trkpt lat="40.729558" lon="0.574886">
        <ele>7.508</ele>
        <time>1970-01-01T00:39:32Z</time>
      </trkpt>
      <trkpt lat="40.729609" lon="0.574877">
        <ele>8.091</ele>
        <time>1970-01-01T00:39:33Z</time>
      </trkpt>
      <trkpt lat="40.729658" lon="0.574873">
        <ele>8.538</ele>
        <time>1970-01-01T00:39:34Z</time>
      </trkpt>
      <trkpt lat="40.729705" lon="0.574867">
        <ele>8.989</ele>
        <time>1970-01-01T00:39:35Z</time>
      </trkpt>
      <trkpt lat="40.729747" lon="0.574860">
        <ele>9.192</ele>
        <time>1970-01-01T00:39:36Z</time>
      </trkpt>
      <trkpt lat="40.729789" lon="0.574853">
        <ele>9.272</ele>
        <time>1970-01-01T00:39:37Z</time>
      </trkpt>
      <trkpt lat="40.729828" lon="0.574845">
        <ele>9.368</ele>
        <time>1970-01-01T00:39:38Z</time>
      </trkpt>
      <trkpt lat="40.729870" lon="0.574831">
        <ele>9.352</ele>
        <time>1970-01-01T00:39:39Z</time>
      </trkpt>
      <trkpt lat="40.729907" lon="0.574813">
        <ele>9.293</ele>
        <time>1970-01-01T00:39:40Z</time>
      </trkpt>
      <trkpt lat="40.729946" lon="0.574792">
        <ele>9.052</ele>
        <time>1970-01-01T00:39:41Z</time>
      </trkpt>
      <trkpt lat="40.729989" lon="0.574771">
        <ele>8.853</ele>
        <time>1970-01-01T00:39:42Z</time>
      </trkpt>
      <trkpt lat="40.730031" lon="0.574748">
        <ele>8.508</ele>
        <time>1970-01-01T00:39:43Z</time>
      </trkpt>
      <trkpt lat="40.730073" lon="0.574727">
        <ele>8.108</ele>
        <time>1970-01-01T00:39:44Z</time>
      </trkpt>
      <trkpt lat="40.730116" lon="0.574706">
        <ele>7.782</ele>
        <time>1970-01-01T00:39:45Z</time>
      </trkpt>
      <trkpt lat="40.730158" lon="0.574686">
        <ele>7.399</ele>
        <time>1970-01-01T00:39:46Z</time>
      </trkpt>
      <trkpt lat="40.730200" lon="0.574665">
        <ele>7.060</ele>
        <time>1970-01-01T00:39:47Z</time>
      </trkpt>
      <trkpt lat="40.730241" lon="0.574645">
        <ele>6.613</ele>
        <time>1970-01-01T00:39:48Z</time>
      </trkpt>
      <trkpt lat="40.730283" lon="0.574625">
        <ele>6.333</ele>
        <time>1970-01-01T00:39:49Z</time>
      </trkpt>
      <trkpt lat="40.730327" lon="0.574609">
        <ele>6.579</ele>
        <time>1970-01-01T00:39:50Z</time>
      </trkpt>
      <trkpt lat="40.730372" lon="0.574598">
        <ele>6.943</ele>
        <time>1970-01-01T00:39:51Z</time>
      </trkpt>
      <trkpt lat="40.730417" lon="0.574591">
        <ele>7.424</ele>
        <time>1970-01-01T00:39:52Z</time>
      </trkpt>
      <trkpt lat="40.730467" lon="0.574594">
        <ele>8.058</ele>
        <time>1970-01-01T00:39:53Z</time>
      </trkpt>
      <trkpt lat="40.730512" lon="0.574600">
        <ele>8.652</ele>
        <time>1970-01-01T00:39:54Z</time>
      </trkpt>
      <trkpt lat="40.730551" lon="0.574608">
        <ele>9.117</ele>
        <time>1970-01-01T00:39:55Z</time>
      </trkpt>
      <trkpt lat="40.730588" lon="0.574619">
        <ele>9.708</ele>
        <time>1970-01-01T00:39:56Z</time>
      </trkpt>
      <trkpt lat="40.730621" lon="0.574626">
        <ele>10.232</ele>
        <time>1970-01-01T00:39:57Z</time>
      </trkpt>
      <trkpt lat="40.730651" lon="0.574630">
        <ele>10.689</ele>
        <time>1970-01-01T00:39:58Z</time>
      </trkpt>
      <trkpt lat="40.730678" lon="0.574628">
        <ele>10.950</ele>
        <time>1970-01-01T00:39:59Z</time>
      </trkpt>
      <trkpt lat="40.730700" lon="0.574626">
        <ele>11.293</ele>
        <time>1970-01-01T00:40:00Z</time>
      </trkpt>
      <trkpt lat="40.730717" lon="0.574619">
        <ele>11.453</ele>
        <time>1970-01-01T00:40:01Z</time>
      </trkpt>
      <trkpt lat="40.730729" lon="0.574614">
        <ele>11.549</ele>
        <time>1970-01-01T00:40:02Z</time>
      </trkpt>
      <trkpt lat="40.730737" lon="0.574610">
        <ele>11.583</ele>
        <time>1970-01-01T00:40:03Z</time>
      </trkpt>
      <trkpt lat="40.730743" lon="0.574609">
        <ele>11.614</ele>
        <time>1970-01-01T00:40:04Z</time>
      </trkpt>
      <trkpt lat="40.730743" lon="0.574605">
        <ele>11.691</ele>
        <time>1970-01-01T00:40:05Z</time>
      </trkpt>
      <trkpt lat="40.730738" lon="0.574590">
        <ele>11.481</ele>
        <time>1970-01-01T00:40:06Z</time>
      </trkpt>
      <trkpt lat="40.730730" lon="0.574579">
        <ele>11.219</ele>
        <time>1970-01-01T00:40:07Z</time>
      </trkpt>
      <trkpt lat="40.730713" lon="0.574580">
        <ele>11.008</ele>
        <time>1970-01-01T00:40:08Z</time>
      </trkpt>
      <trkpt lat="40.730695" lon="0.574581">
        <ele>10.726</ele>
        <time>1970-01-01T00:40:09Z</time>
      </trkpt>
      <trkpt lat="40.730674" lon="0.574583">
        <ele>10.563</ele>
        <time>1970-01-01T00:40:10Z</time>
      </trkpt>
      <trkpt lat="40.730644" lon="0.574586">
        <ele>10.164</ele>
        <time>1970-01-01T00:40:11Z</time>
      </trkpt>
      <trkpt lat="40.730610" lon="0.574589">
        <ele>9.797</ele>
        <time>1970-01-01T00:40:12Z</time>
      </trkpt>
      <trkpt lat="40.730573" lon="0.574592">
        <ele>9.377</ele>
        <time>1970-01-01T00:40:13Z</time>
      </trkpt>
      <trkpt lat="40.730531" lon="0.574593">
        <ele>8.843</ele>
        <time>1970-01-01T00:40:14Z</time>
      </trkpt>
      <trkpt lat="40.730485" lon="0.574591">
        <ele>8.287</ele>
        <time>1970-01-01T00:40:15Z</time>
      </trkpt>
      <trkpt lat="40.730442" lon="0.574594">
        <ele>7.798</ele>
        <time>1970-01-01T00:40:16Z</time>
      </trkpt>
      <trkpt lat="40.730398" lon="0.574597">
        <ele>7.219</ele>
        <time>1970-01-01T00:40:17Z</time>
      </trkpt>
      <trkpt lat="40.730355" lon="0.574605">
        <ele>6.809</ele>
        <time>1970-01-01T00:40:18Z</time>
      </trkpt>
      <trkpt lat="40.730316" lon="0.574614">
        <ele>6.519</ele>
        <time>1970-01-01T00:40:19Z</time>
      </trkpt>
      <trkpt lat="40.730277" lon="0.574623">
        <ele>6.208</ele>
        <time>1970-01-01T00:40:20Z</time>
      </trkpt>
      <trkpt lat="40.730240" lon="0.574632">
        <ele>6.438</ele>
        <time>1970-01-01T00:40:21Z</time>
      </trkpt>
      <trkpt lat="40.730206" lon="0.574641">
        <ele>6.585</ele>
        <time>1970-01-01T00:40:22Z</time>
      </trkpt>
      <trkpt lat="40.730170" lon="0.574649">
        <ele>6.736</ele>
        <time>1970-01-01T00:40:23Z</time>
      </trkpt>
      <trkpt lat="40.730137" lon="0.574661">
        <ele>6.949</ele>
        <time>1970-01-01T00:40:24Z</time>
      </trkpt>
      <trkpt lat="40.730106" lon="0.574677">
        <ele>7.239</ele>
        <time>1970-01-01T00:40:25Z</time>
      </trkpt>
      <trkpt lat="40.730076" lon="0.574692">
        <ele>7.555</ele>
        <time>1970-01-01T00:40:26Z</time>
      </trkpt>
      <trkpt lat="40.730046" lon="0.574708">
        <ele>7.729</ele>
        <time>1970-01-01T00:40:27Z</time>
      </trkpt>
      <trkpt lat="40.730016" lon="0.574727">
        <ele>8.150</ele>
        <time>1970-01-01T00:40:28Z</time>
      </trkpt>
      <trkpt lat="40.729987" lon="0.574748">
        <ele>8.445</ele>
        <time>1970-01-01T00:40:29Z</time>
      </trkpt>
      <trkpt lat="40.729966" lon="0.574771">
        <ele>8.747</ele>
        <time>1970-01-01T00:40:30Z</time>
      </trkpt>
      <trkpt lat="40.729938" lon="0.574785">
        <ele>8.911</ele>
        <time>1970-01-01T00:40:31Z</time>
      </trkpt>
      <trkpt lat="40.729907" lon="0.574798">
        <ele>8.908</ele>
        <time>1970-01-01T00:40:32Z</time>
      </trkpt>
      <trkpt lat="40.729876" lon="0.574811">
        <ele>9.051</ele>
        <time>1970-01-01T00:40:33Z</time>
      </trkpt>
      <trkpt lat="40.729843" lon="0.574825">
        <ele>9.188</ele>
        <time>1970-01-01T00:40:34Z</time>
      </trkpt>
      <trkpt lat="40.729809" lon="0.574840">
        <ele>9.129</ele>
        <time>1970-01-01T00:40:35Z</time>
      </trkpt>
      <trkpt lat="40.729772" lon="0.574853">
        <ele>9.182</ele>
        <time>1970-01-01T00:40:36Z</time>
      </trkpt>
      <trkpt lat="40.729730" lon="0.574862">
        <ele>9.162</ele>
        <time>1970-01-01T00:40:37Z</time>
      </trkpt>
      <trkpt lat="40.729684" lon="0.574866">
        <ele>8.758</ele>
        <time>1970-01-01T00:40:38Z</time>
      </trkpt>
      <trkpt lat="40.729638" lon="0.574876">
        <ele>8.362</ele>
        <time>1970-01-01T00:40:39Z</time>
      </trkpt>
      <trkpt lat="40.729587" lon="0.574890">
        <ele>7.993</ele>
        <time>1970-01-01T00:40:40Z</time>
      </trkpt>
      <trkpt lat="40.729530" lon="0.574909">
        <ele>7.493</ele>
        <time>1970-01-01T00:40:41Z</time>
      </trkpt>
      <trkpt lat="40.729473" lon="0.574934">
        <ele>6.965</ele>
        <time>1970-01-01T00:40:42Z</time>
      </trkpt>
      <trkpt lat="40.729416" lon="0.574960">
        <ele>6.421</ele>
        <time>1970-01-01T00:40:43Z</time>
      </trkpt>
      <trkpt lat="40.729351" lon="0.574984">
        <ele>5.908</ele>
        <time>1970-01-01T00:40:44Z</time>
      </trkpt>
      <trkpt lat="40.729288" lon="0.575014">
        <ele>5.366</ele>
        <time>1970-01-01T00:40:45Z</time>
      </trkpt>
      <trkpt lat="40.729228" lon="0.575045">
        <ele>4.783</ele>
        <time>1970-01-01T00:40:46Z</time>
      </trkpt>
      <trkpt lat="40.729167" lon="0.575077">
        <ele>4.054</ele>
        <time>1970-01-01T00:40:47Z</time>
      </trkpt>
      <trkpt lat="40.729109" lon="0.575107">
        <ele>3.967</ele>
        <time>1970-01-01T00:40:48Z</time>
      </trkpt>
      <trkpt lat="40.729051" lon="0.575138">
        <ele>3.827</ele>
        <time>1970-01-01T00:40:49Z</time>
      </trkpt>
      <trkpt lat="40.728997" lon="0.575169">
        <ele>3.873</ele>
        <time>1970-01-01T00:40:50Z</time>
      </trkpt>
      <trkpt lat="40.728945" lon="0.575200">
        <ele>3.887</ele>
        <time>1970-01-01T00:40:51Z</time>
      </trkpt>
      <trkpt lat="40.728888" lon="0.575229">
        <ele>3.838</ele>
        <time>1970-01-01T00:40:52Z</time>
      </trkpt>
      <trkpt lat="40.728838" lon="0.575259">
        <ele>3.646</ele>
        <time>1970-01-01T00:40:53Z</time>
      </trkpt>
      <trkpt lat="40.728790" lon="0.575286">
        <ele>3.388</ele>
        <time>1970-01-01T00:40:54Z</time>
      </trkpt>
      <trkpt lat="40.728734" lon="0.575312">
        <ele>3.016</ele>
        <time>1970-01-01T00:40:55Z</time>
      </trkpt>
      <trkpt lat="40.728675" lon="0.575344">
        <ele>2.708</ele>
        <time>1970-01-01T00:40:56Z</time>
      </trkpt>
      <trkpt lat="40.728618" lon="0.575375">
        <ele>2.431</ele>
        <time>1970-01-01T00:40:57Z</time>
      </trkpt>
      <trkpt lat="40.728560" lon="0.575408">
        <ele>2.358</ele>
        <time>1970-01-01T00:40:58Z</time>
      </trkpt>
      <trkpt lat="40.728502" lon="0.575443">
        <ele>2.249</ele>
        <time>1970-01-01T00:40:59Z</time>
      </trkpt>
      <trkpt lat="40.728438" lon="0.575476">
        <ele>2.132</ele>
        <time>1970-01-01T00:41:00Z</time>
      </trkpt>
      <trkpt lat="40.728375" lon="0.575509">
        <ele>2.032</ele>
        <time>1970-01-01T00:41:01Z</time>
      </trkpt>
      <trkpt lat="40.728311" lon="0.575544">
        <ele>1.968</ele>
        <time>1970-01-01T00:41:02Z</time>
      </trkpt>
      <trkpt lat="40.728248" lon="0.575578">
        <ele>1.912</ele>
        <time>1970-01-01T00:41:03Z</time>
      </trkpt>
      <trkpt lat="40.728186" lon="0.575613">
        <ele>2.173</ele>
        <time>1970-01-01T00:41:04Z</time>
      </trkpt>
      <trkpt lat="40.728124" lon="0.575644">
        <ele>2.296</ele>
        <time>1970-01-01T00:41:05Z</time>
      </trkpt>
      <trkpt lat="40.728063" lon="0.575671">
        <ele>2.331</ele>
        <time>1970-01-01T00:41:06Z</time>
      </trkpt>
      <trkpt lat="40.727999" lon="0.575698">
        <ele>2.624</ele>
        <time>1970-01-01T00:41:07Z</time>
      </trkpt>
      <trkpt lat="40.727937" lon="0.575730">
        <ele>3.008</ele>
        <time>1970-01-01T00:41:08Z</time>
      </trkpt>
      <trkpt lat="40.727877" lon="0.575766">
        <ele>3.456</ele>
        <time>1970-01-01T00:41:09Z</time>
      </trkpt>
      <trkpt lat="40.727817" lon="0.575801">
        <ele>3.853</ele>
        <time>1970-01-01T00:41:10Z</time>
      </trkpt>
      <trkpt lat="40.727754" lon="0.575832">
        <ele>4.034</ele>
        <time>1970-01-01T00:41:11Z</time>
      </trkpt>
      <trkpt lat="40.727692" lon="0.575863">
        <ele>4.267</ele>
        <time>1970-01-01T00:41:12Z</time>
      </trkpt>
      <trkpt lat="40.727631" lon="0.575894">
        <ele>4.397</ele>
        <time>1970-01-01T00:41:13Z</time>
      </trkpt>
      <trkpt lat="40.727571" lon="0.575927">
        <ele>4.473</ele>
        <time>1970-01-01T00:41:14Z</time>
      </trkpt>
      <trkpt lat="40.727508" lon="0.575960">
        <ele>4.597</ele>
        <time>1970-01-01T00:41:15Z</time>
      </trkpt>
      <trkpt lat="40.727446" lon="0.575992">
        <ele>4.598</ele>
        <time>1970-01-01T00:41:16Z</time>
      </trkpt>
      <trkpt lat="40.727383" lon="0.576026">
        <ele>4.619</ele>
        <time>1970-01-01T00:41:17Z</time>
      </trkpt>
      <trkpt lat="40.727321" lon="0.576060">
        <ele>4.709</ele>
        <time>1970-01-01T00:41:18Z</time>
      </trkpt>
      <trkpt lat="40.727259" lon="0.576094">
        <ele>4.919</ele>
        <time>1970-01-01T00:41:19Z</time>
      </trkpt>
      <trkpt lat="40.727198" lon="0.576130">
        <ele>4.908</ele>
        <time>1970-01-01T00:41:20Z</time>
      </trkpt>
      <trkpt lat="40.727135" lon="0.576164">
        <ele>4.718</ele>
        <time>1970-01-01T00:41:21Z</time>
      </trkpt>
      <trkpt lat="40.727072" lon="0.576200">
        <ele>4.645</ele>
        <time>1970-01-01T00:41:22Z</time>
      </trkpt>
      <trkpt lat="40.727009" lon="0.576234">
        <ele>4.636</ele>
        <time>1970-01-01T00:41:23Z</time>
      </trkpt>
      <trkpt lat="40.726946" lon="0.576268">
        <ele>4.689</ele>
        <time>1970-01-01T00:41:24Z</time>
      </trkpt>
      <trkpt lat="40.726884" lon="0.576302">
        <ele>4.519</ele>
        <time>1970-01-01T00:41:25Z</time>
      </trkpt>
      <trkpt lat="40.726818" lon="0.576338">
        <ele>4.495</ele>
        <time>1970-01-01T00:41:26Z</time>
      </trkpt>
      <trkpt lat="40.726755" lon="0.576375">
        <ele>4.389</ele>
        <time>1970-01-01T00:41:27Z</time>
      </trkpt>
      <trkpt lat="40.726691" lon="0.576413">
        <ele>4.280</ele>
        <time>1970-01-01T00:41:28Z</time>
      </trkpt>
      <trkpt lat="40.726626" lon="0.576450">
        <ele>4.074</ele>
        <time>1970-01-01T00:41:29Z</time>
      </trkpt>
      <trkpt lat="40.726563" lon="0.576489">
        <ele>3.756</ele>
        <time>1970-01-01T00:41:30Z</time>
      </trkpt>
      <trkpt lat="40.726501" lon="0.576531">
        <ele>3.321</ele>
        <time>1970-01-01T00:41:31Z</time>
      </trkpt>
      <trkpt lat="40.726436" lon="0.576570">
        <ele>2.708</ele>
        <time>1970-01-01T00:41:32Z</time>
      </trkpt>
      <trkpt lat="40.726372" lon="0.576609">
        <ele>2.254</ele>
        <time>1970-01-01T00:41:33Z</time>
      </trkpt>
      <trkpt lat="40.726307" lon="0.576645">
        <ele>1.831</ele>
        <time>1970-01-01T00:41:34Z</time>
      </trkpt>
      <trkpt lat="40.726242" lon="0.576681">
        <ele>1.512</ele>
        <time>1970-01-01T00:41:35Z</time>
      </trkpt>
      <trkpt lat="40.726178" lon="0.576719">
        <ele>1.475</ele>
        <time>1970-01-01T00:41:36Z</time>
      </trkpt>
      <trkpt lat="40.726113" lon="0.576754">
        <ele>1.335</ele>
        <time>1970-01-01T00:41:37Z</time>
      </trkpt>
      <trkpt lat="40.726049" lon="0.576785">
        <ele>1.991</ele>
        <time>1970-01-01T00:41:38Z</time>
      </trkpt>
      <trkpt lat="40.725985" lon="0.576816">
        <ele>2.495</ele>
        <time>1970-01-01T00:41:39Z</time>
      </trkpt>
      <trkpt lat="40.725919" lon="0.576846">
        <ele>2.846</ele>
        <time>1970-01-01T00:41:40Z</time>
      </trkpt>
      <trkpt lat="40.725854" lon="0.576877">
        <ele>3.197</ele>
        <time>1970-01-01T00:41:41Z</time>
      </trkpt>
      <trkpt lat="40.725790" lon="0.576911">
        <ele>3.423</ele>
        <time>1970-01-01T00:41:42Z</time>
      </trkpt>
      <trkpt lat="40.725724" lon="0.576947">
        <ele>3.825</ele>
        <time>1970-01-01T00:41:43Z</time>
      </trkpt>
      <trkpt lat="40.725656" lon="0.576986">
        <ele>4.008</ele>
        <time>1970-01-01T00:41:44Z</time>
      </trkpt>
      <trkpt lat="40.725591" lon="0.577025">
        <ele>4.286</ele>
        <time>1970-01-01T00:41:45Z</time>
      </trkpt>
      <trkpt lat="40.725524" lon="0.577065">
        <ele>4.033</ele>
        <time>1970-01-01T00:41:46Z</time>
      </trkpt>
      <trkpt lat="40.725459" lon="0.577106">
        <ele>3.514</ele>
        <time>1970-01-01T00:41:47Z</time>
      </trkpt>
      <trkpt lat="40.725396" lon="0.577149">
        <ele>3.287</ele>
        <time>1970-01-01T00:41:48Z</time>
      </trkpt>
      <trkpt lat="40.725332" lon="0.577191">
        <ele>3.087</ele>
        <time>1970-01-01T00:41:49Z</time>
      </trkpt>
      <trkpt lat="40.725270" lon="0.577235">
        <ele>2.953</ele>
        <time>1970-01-01T00:41:50Z</time>
      </trkpt>
      <trkpt lat="40.725207" lon="0.577279">
        <ele>2.577</ele>
        <time>1970-01-01T00:41:51Z</time>
      </trkpt>
      <trkpt lat="40.725146" lon="0.577322">
        <ele>2.238</ele>
        <time>1970-01-01T00:41:52Z</time>
      </trkpt>
      <trkpt lat="40.725084" lon="0.577363">
        <ele>1.866</ele>
        <time>1970-01-01T00:41:53Z</time>
      </trkpt>
      <trkpt lat="40.725023" lon="0.577405">
        <ele>1.429</ele>
        <time>1970-01-01T00:41:54Z</time>
      </trkpt>
      <trkpt lat="40.724963" lon="0.577449">
        <ele>1.121</ele>
        <time>1970-01-01T00:41:55Z</time>
      </trkpt>
      <trkpt lat="40.724903" lon="0.577494">
        <ele>0.708</ele>
        <time>1970-01-01T00:41:56Z</time>
      </trkpt>
      <trkpt lat="40.724843" lon="0.577541">
        <ele>0.463</ele>
        <time>1970-01-01T00:41:57Z</time>
      </trkpt>
      <trkpt lat="40.724781" lon="0.577590">
        <ele>0.290</ele>
        <time>1970-01-01T00:41:58Z</time>
      </trkpt>
      <trkpt lat="40.724721" lon="0.577641">
        <ele>0.061</ele>
        <time>1970-01-01T00:41:59Z</time>
      </trkpt>
      <trkpt lat="40.724661" lon="0.577691">
        <ele>0.594</ele>
        <time>1970-01-01T00:42:00Z</time>
      </trkpt>
      <trkpt lat="40.724600" lon="0.577741">
        <ele>1.264</ele>
        <time>1970-01-01T00:42:01Z</time>
      </trkpt>
      <trkpt lat="40.724539" lon="0.577792">
        <ele>2.140</ele>
        <time>1970-01-01T00:42:02Z</time>
      </trkpt>
      <trkpt lat="40.724478" lon="0.577843">
        <ele>3.354</ele>
        <time>1970-01-01T00:42:03Z</time>
      </trkpt>
      <trkpt lat="40.724418" lon="0.577894">
        <ele>4.245</ele>
        <time>1970-01-01T00:42:04Z</time>
      </trkpt>
      <trkpt lat="40.724359" lon="0.577944">
        <ele>4.472</ele>
        <time>1970-01-01T00:42:05Z</time>
      </trkpt>
      <trkpt lat="40.724301" lon="0.577995">
        <ele>4.513</ele>
        <time>1970-01-01T00:42:06Z</time>
      </trkpt>
      <trkpt lat="40.724242" lon="0.578048">
        <ele>4.514</ele>
        <time>1970-01-01T00:42:07Z</time>
      </trkpt>
      <trkpt lat="40.724184" lon="0.578103">
        <ele>4.308</ele>
        <time>1970-01-01T00:42:08Z</time>
      </trkpt>
      <trkpt lat="40.724127" lon="0.578158">
        <ele>4.344</ele>
        <time>1970-01-01T00:42:09Z</time>
      </trkpt>
      <trkpt lat="40.724069" lon="0.578215">
        <ele>4.491</ele>
        <time>1970-01-01T00:42:10Z</time>
      </trkpt>
      <trkpt lat="40.724011" lon="0.578273">
        <ele>4.312</ele>
        <time>1970-01-01T00:42:11Z</time>
      </trkpt>
      <trkpt lat="40.723954" lon="0.578330">
        <ele>4.265</ele>
        <time>1970-01-01T00:42:12Z</time>
      </trkpt>
      <trkpt lat="40.723896" lon="0.578389">
        <ele>4.025</ele>
        <time>1970-01-01T00:42:13Z</time>
      </trkpt>
      <trkpt lat="40.723840" lon="0.578450">
        <ele>3.931</ele>
        <time>1970-01-01T00:42:14Z</time>
      </trkpt>
      <trkpt lat="40.723785" lon="0.578508">
        <ele>3.935</ele>
        <time>1970-01-01T00:42:15Z</time>
      </trkpt>
      <trkpt lat="40.723732" lon="0.578572">
        <ele>3.946</ele>
        <time>1970-01-01T00:42:16Z</time>
      </trkpt>
      <trkpt lat="40.723681" lon="0.578638">
        <ele>4.046</ele>
        <time>1970-01-01T00:42:17Z</time>
      </trkpt>
      <trkpt lat="40.723632" lon="0.578702">
        <ele>4.088</ele>
        <time>1970-01-01T00:42:18Z</time>
      </trkpt>
      <trkpt lat="40.723581" lon="0.578764">
        <ele>3.816</ele>
        <time>1970-01-01T00:42:19Z</time>
      </trkpt>
      <trkpt lat="40.723528" lon="0.578825">
        <ele>3.408</ele>
        <time>1970-01-01T00:42:20Z</time>
      </trkpt>
      <trkpt lat="40.723477" lon="0.578890">
        <ele>3.061</ele>
        <time>1970-01-01T00:42:21Z</time>
      </trkpt>
      <trkpt lat="40.723427" lon="0.578957">
        <ele>2.668</ele>
        <time>1970-01-01T00:42:22Z</time>
      </trkpt>
      <trkpt lat="40.723376" lon="0.579021">
        <ele>2.269</ele>
        <time>1970-01-01T00:42:23Z</time>
      </trkpt>
      <trkpt lat="40.723324" lon="0.579083">
        <ele>2.072</ele>
        <time>1970-01-01T00:42:24Z</time>
      </trkpt>
      <trkpt lat="40.723273" lon="0.579150">
        <ele>1.892</ele>
        <time>1970-01-01T00:42:25Z</time>
      </trkpt>
      <trkpt lat="40.723225" lon="0.579219">
        <ele>1.498</ele>
        <time>1970-01-01T00:42:26Z</time>
      </trkpt>
      <trkpt lat="40.723176" lon="0.579288">
        <ele>1.072</ele>
        <time>1970-01-01T00:42:27Z</time>
      </trkpt>
      <trkpt lat="40.723129" lon="0.579359">
        <ele>0.643</ele>
        <time>1970-01-01T00:42:28Z</time>
      </trkpt>
      <trkpt lat="40.723082" lon="0.579430">
        <ele>0.124</ele>
        <time>1970-01-01T00:42:29Z</time>
      </trkpt>
      <trkpt lat="40.723035" lon="0.579499">
        <ele>0.104</ele>
        <time>1970-01-01T00:42:30Z</time>
      </trkpt>
      <trkpt lat="40.722990" lon="0.579572">
        <ele>0.314</ele>
        <time>1970-01-01T00:42:31Z</time>
      </trkpt>
      <trkpt lat="40.722947" lon="0.579646">
        <ele>0.208</ele>
        <time>1970-01-01T00:42:32Z</time>
      </trkpt>
      <trkpt lat="40.722901" lon="0.579716">
        <ele>0.029</ele>
        <time>1970-01-01T00:42:33Z</time>
      </trkpt>
      <trkpt lat="40.722854" lon="0.579785">
        <ele>0.036</ele>
        <time>1970-01-01T00:42:34Z</time>
      </trkpt>
      <trkpt lat="40.722808" lon="0.579855">
        <ele>0.047</ele>
        <time>1970-01-01T00:42:35Z</time>
      </trkpt>
      <trkpt lat="40.722762" lon="0.579926">
        <ele>0.010</ele>
        <time>1970-01-01T00:42:36Z</time>
      </trkpt>
      <trkpt lat="40.722716" lon="0.580001">
        <ele>0.040</ele>
        <time>1970-01-01T00:42:37Z</time>
      </trkpt>
      <trkpt lat="40.722671" lon="0.580071">
        <ele>0.276</ele>
        <time>1970-01-01T00:42:38Z</time>
      </trkpt>
      <trkpt lat="40.722627" lon="0.580140">
        <ele>0.230</ele>
        <time>1970-01-01T00:42:39Z</time>
      </trkpt>
      <trkpt lat="40.722584" lon="0.580206">
        <ele>0.211</ele>
        <time>1970-01-01T00:42:40Z</time>
      </trkpt>
      <trkpt lat="40.722540" lon="0.580273">
        <ele>0.152</ele>
        <time>1970-01-01T00:42:41Z</time>
      </trkpt>
      <trkpt lat="40.722495" lon="0.580340">
        <ele>0.753</ele>
        <time>1970-01-01T00:42:42Z</time>
      </trkpt>
      <trkpt lat="40.722452" lon="0.580407">
        <ele>1.508</ele>
        <time>1970-01-01T00:42:43Z</time>
      </trkpt>
      <trkpt lat="40.722406" lon="0.580473">
        <ele>2.208</ele>
        <time>1970-01-01T00:42:44Z</time>
      </trkpt>
      <trkpt lat="40.722362" lon="0.580538">
        <ele>2.872</ele>
        <time>1970-01-01T00:42:45Z</time>
      </trkpt>
      <trkpt lat="40.722318" lon="0.580606">
        <ele>3.539</ele>
        <time>1970-01-01T00:42:46Z</time>
      </trkpt>
      <trkpt lat="40.722276" lon="0.580672">
        <ele>4.360</ele>
        <time>1970-01-01T00:42:47Z</time>
      </trkpt>
      <trkpt lat="40.722232" lon="0.580738">
        <ele>5.023</ele>
        <time>1970-01-01T00:42:48Z</time>
      </trkpt>
      <trkpt lat="40.722187" lon="0.580804">
        <ele>5.433</ele>
        <time>1970-01-01T00:42:49Z</time>
      </trkpt>
      <trkpt lat="40.722144" lon="0.580870">
        <ele>5.779</ele>
        <time>1970-01-01T00:42:50Z</time>
      </trkpt>
      <trkpt lat="40.722101" lon="0.580938">
        <ele>5.953</ele>
        <time>1970-01-01T00:42:51Z</time>
      </trkpt>
      <trkpt lat="40.722057" lon="0.581005">
        <ele>6.034</ele>
        <time>1970-01-01T00:42:52Z</time>
      </trkpt>
      <trkpt lat="40.722011" lon="0.581072">
        <ele>6.225</ele>
        <time>1970-01-01T00:42:53Z</time>
      </trkpt>
      <trkpt lat="40.721965" lon="0.581138">
        <ele>6.226</ele>
        <time>1970-01-01T00:42:54Z</time>
      </trkpt>
      <trkpt lat="40.721919" lon="0.581206">
        <ele>5.608</ele>
        <time>1970-01-01T00:42:55Z</time>
      </trkpt>
      <trkpt lat="40.721874" lon="0.581274">
        <ele>5.008</ele>
        <time>1970-01-01T00:42:56Z</time>
      </trkpt>
      <trkpt lat="40.721827" lon="0.581343">
        <ele>4.329</ele>
        <time>1970-01-01T00:42:57Z</time>
      </trkpt>
      <trkpt lat="40.721781" lon="0.581413">
        <ele>3.786</ele>
        <time>1970-01-01T00:42:58Z</time>
      </trkpt>
      <trkpt lat="40.721734" lon="0.581482">
        <ele>3.257</ele>
        <time>1970-01-01T00:42:59Z</time>
      </trkpt>
      <trkpt lat="40.721687" lon="0.581550">
        <ele>2.870</ele>
        <time>1970-01-01T00:43:00Z</time>
      </trkpt>
      <trkpt lat="40.721639" lon="0.581616">
        <ele>2.630</ele>
        <time>1970-01-01T00:43:01Z</time>
      </trkpt>
      <trkpt lat="40.721592" lon="0.581682">
        <ele>2.556</ele>
        <time>1970-01-01T00:43:02Z</time>
      </trkpt>
      <trkpt lat="40.721544" lon="0.581745">
        <ele>2.460</ele>
        <time>1970-01-01T00:43:03Z</time>
      </trkpt>
      <trkpt lat="40.721499" lon="0.581806">
        <ele>2.441</ele>
        <time>1970-01-01T00:43:04Z</time>
      </trkpt>
      <trkpt lat="40.721454" lon="0.581873">
        <ele>2.648</ele>
        <time>1970-01-01T00:43:05Z</time>
      </trkpt>
      <trkpt lat="40.721408" lon="0.581941">
        <ele>3.061</ele>
        <time>1970-01-01T00:43:06Z</time>
      </trkpt>
      <trkpt lat="40.721363" lon="0.582011">
        <ele>3.517</ele>
        <time>1970-01-01T00:43:07Z</time>
      </trkpt>
      <trkpt lat="40.721316" lon="0.582081">
        <ele>3.908</ele>
        <time>1970-01-01T00:43:08Z</time>
      </trkpt>
      <trkpt lat="40.721271" lon="0.582153">
        <ele>4.251</ele>
        <time>1970-01-01T00:43:09Z</time>
      </trkpt>
      <trkpt lat="40.721226" lon="0.582224">
        <ele>4.448</ele>
        <time>1970-01-01T00:43:10Z</time>
      </trkpt>
      <trkpt lat="40.721179" lon="0.582294">
        <ele>4.299</ele>
        <time>1970-01-01T00:43:11Z</time>
      </trkpt>
      <trkpt lat="40.721133" lon="0.582363">
        <ele>4.192</ele>
        <time>1970-01-01T00:43:12Z</time>
      </trkpt>
      <trkpt lat="40.721088" lon="0.582431">
        <ele>3.852</ele>
        <time>1970-01-01T00:43:13Z</time>
      </trkpt>
      <trkpt lat="40.721045" lon="0.582501">
        <ele>3.328</ele>
        <time>1970-01-01T00:43:14Z</time>
      </trkpt>
      <trkpt lat="40.721000" lon="0.582570">
        <ele>2.832</ele>
        <time>1970-01-01T00:43:15Z</time>
      </trkpt>
      <trkpt lat="40.720955" lon="0.582636">
        <ele>2.453</ele>
        <time>1970-01-01T00:43:16Z</time>
      </trkpt>
      <trkpt lat="40.720908" lon="0.582702">
        <ele>2.133</ele>
        <time>1970-01-01T00:43:17Z</time>
      </trkpt>
      <trkpt lat="40.720862" lon="0.582766">
        <ele>2.123</ele>
        <time>1970-01-01T00:43:18Z</time>
      </trkpt>
      <trkpt lat="40.720816" lon="0.582830">
        <ele>1.915</ele>
        <time>1970-01-01T00:43:19Z</time>
      </trkpt>
      <trkpt lat="40.720769" lon="0.582891">
        <ele>1.808</ele>
        <time>1970-01-01T00:43:20Z</time>
      </trkpt>
      <trkpt lat="40.720722" lon="0.582951">
        <ele>1.690</ele>
        <time>1970-01-01T00:43:21Z</time>
      </trkpt>
      <trkpt lat="40.720676" lon="0.583012">
        <ele>1.427</ele>
        <time>1970-01-01T00:43:22Z</time>
      </trkpt>
      <trkpt lat="40.720629" lon="0.583077">
        <ele>1.428</ele>
        <time>1970-01-01T00:43:23Z</time>
      </trkpt>
      <trkpt lat="40.720585" lon="0.583147">
        <ele>1.841</ele>
        <time>1970-01-01T00:43:24Z</time>
      </trkpt>
      <trkpt lat="40.720543" lon="0.583222">
        <ele>2.141</ele>
        <time>1970-01-01T00:43:25Z</time>
      </trkpt>
      <trkpt lat="40.720499" lon="0.583299">
        <ele>2.447</ele>
        <time>1970-01-01T00:43:26Z</time>
      </trkpt>
      <trkpt lat="40.720453" lon="0.583372">
        <ele>2.371</ele>
        <time>1970-01-01T00:43:27Z</time>
      </trkpt>
      <trkpt lat="40.720405" lon="0.583445">
        <ele>2.162</ele>
        <time>1970-01-01T00:43:28Z</time>
      </trkpt>
      <trkpt lat="40.720358" lon="0.583517">
        <ele>1.868</ele>
        <time>1970-01-01T00:43:29Z</time>
      </trkpt>
      <trkpt lat="40.720311" lon="0.583590">
        <ele>1.442</ele>
        <time>1970-01-01T00:43:30Z</time>
      </trkpt>
      <trkpt lat="40.720263" lon="0.583660">
        <ele>0.926</ele>
        <time>1970-01-01T00:43:31Z</time>
      </trkpt>
      <trkpt lat="40.720216" lon="0.583731">
        <ele>0.808</ele>
        <time>1970-01-01T00:43:32Z</time>
      </trkpt>
      <trkpt lat="40.720168" lon="0.583799">
        <ele>0.653</ele>
        <time>1970-01-01T00:43:33Z</time>
      </trkpt>
      <trkpt lat="40.720120" lon="0.583870">
        <ele>0.440</ele>
        <time>1970-01-01T00:43:34Z</time>
      </trkpt>
      <trkpt lat="40.720072" lon="0.583939">
        <ele>0.371</ele>
        <time>1970-01-01T00:43:35Z</time>
      </trkpt>
      <trkpt lat="40.720024" lon="0.584007">
        <ele>0.184</ele>
        <time>1970-01-01T00:43:36Z</time>
      </trkpt>
      <trkpt lat="40.719976" lon="0.584073">
        <ele>0.144</ele>
        <time>1970-01-01T00:43:37Z</time>
      </trkpt>
      <trkpt lat="40.719930" lon="0.584132">
        <ele>0.380</ele>
        <time>1970-01-01T00:43:38Z</time>
      </trkpt>
      <trkpt lat="40.719887" lon="0.584186">
        <ele>0.414</ele>
        <time>1970-01-01T00:43:39Z</time>
      </trkpt>
      <trkpt lat="40.719846" lon="0.584237">
        <ele>0.775</ele>
        <time>1970-01-01T00:43:40Z</time>
      </trkpt>
      <trkpt lat="40.719808" lon="0.584290">
        <ele>0.821</ele>
        <time>1970-01-01T00:43:41Z</time>
      </trkpt>
      <trkpt lat="40.719772" lon="0.584348">
        <ele>0.941</ele>
        <time>1970-01-01T00:43:42Z</time>
      </trkpt>
      <trkpt lat="40.719736" lon="0.584410">
        <ele>1.005</ele>
        <time>1970-01-01T00:43:43Z</time>
      </trkpt>
      <trkpt lat="40.719697" lon="0.584475">
        <ele>1.208</ele>
        <time>1970-01-01T00:43:44Z</time>
      </trkpt>
      <trkpt lat="40.719652" lon="0.584540">
        <ele>1.579</ele>
        <time>1970-01-01T00:43:45Z</time>
      </trkpt>
      <trkpt lat="40.719605" lon="0.584605">
        <ele>1.856</ele>
        <time>1970-01-01T00:43:46Z</time>
      </trkpt>
      <trkpt lat="40.719559" lon="0.584669">
        <ele>2.267</ele>
        <time>1970-01-01T00:43:47Z</time>
      </trkpt>
      <trkpt lat="40.719512" lon="0.584733">
        <ele>2.570</ele>
        <time>1970-01-01T00:43:48Z</time>
      </trkpt>
      <trkpt lat="40.719466" lon="0.584795">
        <ele>2.610</ele>
        <time>1970-01-01T00:43:49Z</time>
      </trkpt>
      <trkpt lat="40.719420" lon="0.584859">
        <ele>2.616</ele>
        <time>1970-01-01T00:43:50Z</time>
      </trkpt>
      <trkpt lat="40.719376" lon="0.584924">
        <ele>2.330</ele>
        <time>1970-01-01T00:43:51Z</time>
      </trkpt>
      <trkpt lat="40.719333" lon="0.584990">
        <ele>2.051</ele>
        <time>1970-01-01T00:43:52Z</time>
      </trkpt>
      <trkpt lat="40.719290" lon="0.585055">
        <ele>1.896</ele>
        <time>1970-01-01T00:43:53Z</time>
      </trkpt>
      <trkpt lat="40.719249" lon="0.585121">
        <ele>1.631</ele>
        <time>1970-01-01T00:43:54Z</time>
      </trkpt>
      <trkpt lat="40.719211" lon="0.585187">
        <ele>1.324</ele>
        <time>1970-01-01T00:43:55Z</time>
      </trkpt>
      <trkpt lat="40.719172" lon="0.585250">
        <ele>1.108</ele>
        <time>1970-01-01T00:43:56Z</time>
      </trkpt>
      <trkpt lat="40.719132" lon="0.585305">
        <ele>1.176</ele>
        <time>1970-01-01T00:43:57Z</time>
      </trkpt>
      <trkpt lat="40.719095" lon="0.585356">
        <ele>1.343</ele>
        <time>1970-01-01T00:43:58Z</time>
      </trkpt>
      <trkpt lat="40.719062" lon="0.585397">
        <ele>1.434</ele>
        <time>1970-01-01T00:43:59Z</time>
      </trkpt>
      <trkpt lat="40.719032" lon="0.585429">
        <ele>1.547</ele>
        <time>1970-01-01T00:44:00Z</time>
      </trkpt>
      <trkpt lat="40.719009" lon="0.585453">
        <ele>1.657</ele>
        <time>1970-01-01T00:44:01Z</time>
      </trkpt>
      <trkpt lat="40.718993" lon="0.585472">
        <ele>1.663</ele>
        <time>1970-01-01T00:44:02Z</time>
      </trkpt>
      <trkpt lat="40.718983" lon="0.585481">
        <ele>1.797</ele>
        <time>1970-01-01T00:44:03Z</time>
      </trkpt>
      <trkpt lat="40.718981" lon="0.585485">
        <ele>1.748</ele>
        <time>1970-01-01T00:44:04Z</time>
      </trkpt>
      <trkpt lat="40.718980" lon="0.585485">
        <ele>1.756</ele>
        <time>1970-01-01T00:44:05Z</time>
      </trkpt>
      <trkpt lat="40.718984" lon="0.585558">
        <ele>1.759</ele>
        <time>1970-01-01T00:44:37Z</time>
      </trkpt>
      <trkpt lat="40.718969" lon="0.585582">
        <ele>1.614</ele>
        <time>1970-01-01T00:44:38Z</time>
      </trkpt>
      <trkpt lat="40.718949" lon="0.585607">
        <ele>1.608</ele>
        <time>1970-01-01T00:44:39Z</time>
      </trkpt>
      <trkpt lat="40.718926" lon="0.585631">
        <ele>1.692</ele>
        <time>1970-01-01T00:44:40Z</time>
      </trkpt>
      <trkpt lat="40.718900" lon="0.585653">
        <ele>1.699</ele>
        <time>1970-01-01T00:44:41Z</time>
      </trkpt>
      <trkpt lat="40.718873" lon="0.585672">
        <ele>1.530</ele>
        <time>1970-01-01T00:44:42Z</time>
      </trkpt>
      <trkpt lat="40.718849" lon="0.585689">
        <ele>1.473</ele>
        <time>1970-01-01T00:44:43Z</time>
      </trkpt>
      <trkpt lat="40.718827" lon="0.585704">
        <ele>1.493</ele>
        <time>1970-01-01T00:44:44Z</time>
      </trkpt>
      <trkpt lat="40.718811" lon="0.585718">
        <ele>1.359</ele>
        <time>1970-01-01T00:44:45Z</time>
      </trkpt>
      <trkpt lat="40.718792" lon="0.585729">
        <ele>1.273</ele>
        <time>1970-01-01T00:44:46Z</time>
      </trkpt>
      <trkpt lat="40.718771" lon="0.585729">
        <ele>1.234</ele>
        <time>1970-01-01T00:44:47Z</time>
      </trkpt>
      <trkpt lat="40.718748" lon="0.585719">
        <ele>1.223</ele>
        <time>1970-01-01T00:44:48Z</time>
      </trkpt>
      <trkpt lat="40.718722" lon="0.585696">
        <ele>1.283</ele>
        <time>1970-01-01T00:44:49Z</time>
      </trkpt>
      <trkpt lat="40.718694" lon="0.585665">
        <ele>1.211</ele>
        <time>1970-01-01T00:44:50Z</time>
      </trkpt>
      <trkpt lat="40.718662" lon="0.585628">
        <ele>1.108</ele>
        <time>1970-01-01T00:44:51Z</time>
      </trkpt>
      <trkpt lat="40.718626" lon="0.585586">
        <ele>1.079</ele>
        <time>1970-01-01T00:44:52Z</time>
      </trkpt>
      <trkpt lat="40.718586" lon="0.585541">
        <ele>1.176</ele>
        <time>1970-01-01T00:44:53Z</time>
      </trkpt>
      <trkpt lat="40.718540" lon="0.585497">
        <ele>1.397</ele>
        <time>1970-01-01T00:44:54Z</time>
      </trkpt>
      <trkpt lat="40.718494" lon="0.585452">
        <ele>1.490</ele>
        <time>1970-01-01T00:44:55Z</time>
      </trkpt>
      <trkpt lat="40.718447" lon="0.585407">
        <ele>1.620</ele>
        <time>1970-01-01T00:44:56Z</time>
      </trkpt>
      <trkpt lat="40.718400" lon="0.585360">
        <ele>1.856</ele>
        <time>1970-01-01T00:44:57Z</time>
      </trkpt>
      <trkpt lat="40.718353" lon="0.585310">
        <ele>1.970</ele>
        <time>1970-01-01T00:44:58Z</time>
      </trkpt>
      <trkpt lat="40.718309" lon="0.585260">
        <ele>2.251</ele>
        <time>1970-01-01T00:44:59Z</time>
      </trkpt>
      <trkpt lat="40.718265" lon="0.585213">
        <ele>2.592</ele>
        <time>1970-01-01T00:45:00Z</time>
      </trkpt>
      <trkpt lat="40.718223" lon="0.585165">
        <ele>2.873</ele>
        <time>1970-01-01T00:45:01Z</time>
      </trkpt>
      <trkpt lat="40.718182" lon="0.585119">
        <ele>3.120</ele>
        <time>1970-01-01T00:45:02Z</time>
      </trkpt>
      <trkpt lat="40.718140" lon="0.585073">
        <ele>3.408</ele>
        <time>1970-01-01T00:45:03Z</time>
      </trkpt>
      <trkpt lat="40.718098" lon="0.585029">
        <ele>3.776</ele>
        <time>1970-01-01T00:45:04Z</time>
      </trkpt>
      <trkpt lat="40.718056" lon="0.584984">
        <ele>3.993</ele>
        <time>1970-01-01T00:45:05Z</time>
      </trkpt>
      <trkpt lat="40.718014" lon="0.584938">
        <ele>3.924</ele>
        <time>1970-01-01T00:45:06Z</time>
      </trkpt>
      <trkpt lat="40.717971" lon="0.584892">
        <ele>3.927</ele>
        <time>1970-01-01T00:45:07Z</time>
      </trkpt>
      <trkpt lat="40.717926" lon="0.584846">
        <ele>3.997</ele>
        <time>1970-01-01T00:45:08Z</time>
      </trkpt>
      <trkpt lat="40.717881" lon="0.584799">
        <ele>3.943</ele>
        <time>1970-01-01T00:45:09Z</time>
      </trkpt>
      <trkpt lat="40.717838" lon="0.584751">
        <ele>3.967</ele>
        <time>1970-01-01T00:45:10Z</time>
      </trkpt>
      <trkpt lat="40.717793" lon="0.584702">
        <ele>3.928</ele>
        <time>1970-01-01T00:45:11Z</time>
      </trkpt>
      <trkpt lat="40.717748" lon="0.584654">
        <ele>3.874</ele>
        <time>1970-01-01T00:45:12Z</time>
      </trkpt>
      <trkpt lat="40.717704" lon="0.584607">
        <ele>3.756</ele>
        <time>1970-01-01T00:45:13Z</time>
      </trkpt>
      <trkpt lat="40.717658" lon="0.584561">
        <ele>3.721</ele>
        <time>1970-01-01T00:45:14Z</time>
      </trkpt>
      <trkpt lat="40.717611" lon="0.584515">
        <ele>3.708</ele>
        <time>1970-01-01T00:45:15Z</time>
      </trkpt>
      <trkpt lat="40.717565" lon="0.584468">
        <ele>3.884</ele>
        <time>1970-01-01T00:45:16Z</time>
      </trkpt>
      <trkpt lat="40.717520" lon="0.584420">
        <ele>3.991</ele>
        <time>1970-01-01T00:45:17Z</time>
      </trkpt>
      <trkpt lat="40.717475" lon="0.584372">
        <ele>4.182</ele>
        <time>1970-01-01T00:45:18Z</time>
      </trkpt>
      <trkpt lat="40.717432" lon="0.584325">
        <ele>4.265</ele>
        <time>1970-01-01T00:45:19Z</time>
      </trkpt>
      <trkpt lat="40.717388" lon="0.584277">
        <ele>4.445</ele>
        <time>1970-01-01T00:45:20Z</time>
      </trkpt>
      <trkpt lat="40.717345" lon="0.584231">
        <ele>4.611</ele>
        <time>1970-01-01T00:45:21Z</time>
      </trkpt>
      <trkpt lat="40.717301" lon="0.584185">
        <ele>4.715</ele>
        <time>1970-01-01T00:45:22Z</time>
      </trkpt>
      <trkpt lat="40.717257" lon="0.584141">
        <ele>4.996</ele>
        <time>1970-01-01T00:45:23Z</time>
      </trkpt>
      <trkpt lat="40.717212" lon="0.584096">
        <ele>5.037</ele>
        <time>1970-01-01T00:45:24Z</time>
      </trkpt>
      <trkpt lat="40.717167" lon="0.584051">
        <ele>4.949</ele>
        <time>1970-01-01T00:45:25Z</time>
      </trkpt>
      <trkpt lat="40.717123" lon="0.584005">
        <ele>4.813</ele>
        <time>1970-01-01T00:45:26Z</time>
      </trkpt>
      <trkpt lat="40.717080" lon="0.583959">
        <ele>4.608</ele>
        <time>1970-01-01T00:45:27Z</time>
      </trkpt>
      <trkpt lat="40.717037" lon="0.583913">
        <ele>4.430</ele>
        <time>1970-01-01T00:45:28Z</time>
      </trkpt>
      <trkpt lat="40.716994" lon="0.583868">
        <ele>4.297</ele>
        <time>1970-01-01T00:45:29Z</time>
      </trkpt>
      <trkpt lat="40.716951" lon="0.583824">
        <ele>4.098</ele>
        <time>1970-01-01T00:45:30Z</time>
      </trkpt>
      <trkpt lat="40.716909" lon="0.583781">
        <ele>4.011</ele>
        <time>1970-01-01T00:45:31Z</time>
      </trkpt>
      <trkpt lat="40.716868" lon="0.583735">
        <ele>4.011</ele>
        <time>1970-01-01T00:45:32Z</time>
      </trkpt>
      <trkpt lat="40.716828" lon="0.583689">
        <ele>4.077</ele>
        <time>1970-01-01T00:45:33Z</time>
      </trkpt>
      <trkpt lat="40.716787" lon="0.583646">
        <ele>4.081</ele>
        <time>1970-01-01T00:45:34Z</time>
      </trkpt>
      <trkpt lat="40.716745" lon="0.583604">
        <ele>4.092</ele>
        <time>1970-01-01T00:45:35Z</time>
      </trkpt>
      <trkpt lat="40.716704" lon="0.583563">
        <ele>4.078</ele>
        <time>1970-01-01T00:45:36Z</time>
      </trkpt>
      <trkpt lat="40.716665" lon="0.583523">
        <ele>4.033</ele>
        <time>1970-01-01T00:45:37Z</time>
      </trkpt>
      <trkpt lat="40.716628" lon="0.583485">
        <ele>3.926</ele>
        <time>1970-01-01T00:45:38Z</time>
      </trkpt>
      <trkpt lat="40.716593" lon="0.583449">
        <ele>3.708</ele>
        <time>1970-01-01T00:45:39Z</time>
      </trkpt>
      <trkpt lat="40.716559" lon="0.583413">
        <ele>3.684</ele>
        <time>1970-01-01T00:45:40Z</time>
      </trkpt>
      <trkpt lat="40.716528" lon="0.583379">
        <ele>3.591</ele>
        <time>1970-01-01T00:45:41Z</time>
      </trkpt>
      <trkpt lat="40.716498" lon="0.583348">
        <ele>3.432</ele>
        <time>1970-01-01T00:45:42Z</time>
      </trkpt>
      <trkpt lat="40.716470" lon="0.583319">
        <ele>3.365</ele>
        <time>1970-01-01T00:45:43Z</time>
      </trkpt>
      <trkpt lat="40.716442" lon="0.583290">
        <ele>3.195</ele>
        <time>1970-01-01T00:45:44Z</time>
      </trkpt>
      <trkpt lat="40.716413" lon="0.583260">
        <ele>2.841</ele>
        <time>1970-01-01T00:45:45Z</time>
      </trkpt>
      <trkpt lat="40.716383" lon="0.583228">
        <ele>2.645</ele>
        <time>1970-01-01T00:45:46Z</time>
      </trkpt>
      <trkpt lat="40.716352" lon="0.583197">
        <ele>2.516</ele>
        <time>1970-01-01T00:45:47Z</time>
      </trkpt>
      <trkpt lat="40.716320" lon="0.583165">
        <ele>2.497</ele>
        <time>1970-01-01T00:45:48Z</time>
      </trkpt>
      <trkpt lat="40.716287" lon="0.583133">
        <ele>2.323</ele>
        <time>1970-01-01T00:45:49Z</time>
      </trkpt>
      <trkpt lat="40.716254" lon="0.583101">
        <ele>2.225</ele>
        <time>1970-01-01T00:45:50Z</time>
      </trkpt>
      <trkpt lat="40.716222" lon="0.583068">
        <ele>2.008</ele>
        <time>1970-01-01T00:45:51Z</time>
      </trkpt>
      <trkpt lat="40.716190" lon="0.583036">
        <ele>2.076</ele>
        <time>1970-01-01T00:45:52Z</time>
      </trkpt>
      <trkpt lat="40.716156" lon="0.583005">
        <ele>2.083</ele>
        <time>1970-01-01T00:45:53Z</time>
      </trkpt>
      <trkpt lat="40.716122" lon="0.582972">
        <ele>2.054</ele>
        <time>1970-01-01T00:45:54Z</time>
      </trkpt>
      <trkpt lat="40.716089" lon="0.582940">
        <ele>2.237</ele>
        <time>1970-01-01T00:45:55Z</time>
      </trkpt>
      <trkpt lat="40.716059" lon="0.582908">
        <ele>2.487</ele>
        <time>1970-01-01T00:45:56Z</time>
      </trkpt>
      <trkpt lat="40.716028" lon="0.582878">
        <ele>2.683</ele>
        <time>1970-01-01T00:45:57Z</time>
      </trkpt>
      <trkpt lat="40.716002" lon="0.582850">
        <ele>2.877</ele>
        <time>1970-01-01T00:45:58Z</time>
      </trkpt>
      <trkpt lat="40.715977" lon="0.582819">
        <ele>3.048</ele>
        <time>1970-01-01T00:45:59Z</time>
      </trkpt>
      <trkpt lat="40.715951" lon="0.582786">
        <ele>3.219</ele>
        <time>1970-01-01T00:46:00Z</time>
      </trkpt>
      <trkpt lat="40.715924" lon="0.582756">
        <ele>3.409</ele>
        <time>1970-01-01T00:46:01Z</time>
      </trkpt>
      <trkpt lat="40.715898" lon="0.582727">
        <ele>3.719</ele>
        <time>1970-01-01T00:46:02Z</time>
      </trkpt>
      <trkpt lat="40.715871" lon="0.582701">
        <ele>4.008</ele>
        <time>1970-01-01T00:46:03Z</time>
      </trkpt>
      <trkpt lat="40.715847" lon="0.582676">
        <ele>4.398</ele>
        <time>1970-01-01T00:46:04Z</time>
      </trkpt>
      <trkpt lat="40.715827" lon="0.582651">
        <ele>4.525</ele>
        <time>1970-01-01T00:46:05Z</time>
      </trkpt>
      <trkpt lat="40.715808" lon="0.582628">
        <ele>4.696</ele>
        <time>1970-01-01T00:46:06Z</time>
      </trkpt>
      <trkpt lat="40.715791" lon="0.582604">
        <ele>4.769</ele>
        <time>1970-01-01T00:46:07Z</time>
      </trkpt>
      <trkpt lat="40.715773" lon="0.582583">
        <ele>4.859</ele>
        <time>1970-01-01T00:46:08Z</time>
      </trkpt>
      <trkpt lat="40.715755" lon="0.582563">
        <ele>4.915</ele>
        <time>1970-01-01T00:46:09Z</time>
      </trkpt>
      <trkpt lat="40.715738" lon="0.582544">
        <ele>5.059</ele>
        <time>1970-01-01T00:46:10Z</time>
      </trkpt>
      <trkpt lat="40.715723" lon="0.582526">
        <ele>5.010</ele>
        <time>1970-01-01T00:46:11Z</time>
      </trkpt>
      <trkpt lat="40.715708" lon="0.582509">
        <ele>5.043</ele>
        <time>1970-01-01T00:46:12Z</time>
      </trkpt>
      <trkpt lat="40.715694" lon="0.582492">
        <ele>4.964</ele>
        <time>1970-01-01T00:46:13Z</time>
      </trkpt>
      <trkpt lat="40.715683" lon="0.582481">
        <ele>4.810</ele>
        <time>1970-01-01T00:46:14Z</time>
      </trkpt>
      <trkpt lat="40.715675" lon="0.582473">
        <ele>4.808</ele>
        <time>1970-01-01T00:46:15Z</time>
      </trkpt>
      <trkpt lat="40.715674" lon="0.582470">
        <ele>4.781</ele>
        <time>1970-01-01T00:46:16Z</time>
      </trkpt>
      <trkpt lat="40.715674" lon="0.582471">
        <ele>4.718</ele>
        <time>1970-01-01T00:46:17Z</time>
      </trkpt>
      <trkpt lat="40.715599" lon="0.582379">
        <ele>3.289</ele>
        <time>1970-01-01T00:46:43Z</time>
      </trkpt>
      <trkpt lat="40.715588" lon="0.582365">
        <ele>2.932</ele>
        <time>1970-01-01T00:46:44Z</time>
      </trkpt>
      <trkpt lat="40.715576" lon="0.582351">
        <ele>2.612</ele>
        <time>1970-01-01T00:46:45Z</time>
      </trkpt>
      <trkpt lat="40.715561" lon="0.582332">
        <ele>2.098</ele>
        <time>1970-01-01T00:46:46Z</time>
      </trkpt>
      <trkpt lat="40.715544" lon="0.582313">
        <ele>1.632</ele>
        <time>1970-01-01T00:46:47Z</time>
      </trkpt>
      <trkpt lat="40.715525" lon="0.582293">
        <ele>1.183</ele>
        <time>1970-01-01T00:46:48Z</time>
      </trkpt>
      <trkpt lat="40.715505" lon="0.582273">
        <ele>0.721</ele>
        <time>1970-01-01T00:46:49Z</time>
      </trkpt>
      <trkpt lat="40.715490" lon="0.582254">
        <ele>0.441</ele>
        <time>1970-01-01T00:46:50Z</time>
      </trkpt>
      <trkpt lat="40.715473" lon="0.582237">
        <ele>0.205</ele>
        <time>1970-01-01T00:46:51Z</time>
      </trkpt>
      <trkpt lat="40.715458" lon="0.582219">
        <ele>0.008</ele>
        <time>1970-01-01T00:46:52Z</time>
      </trkpt>
      <trkpt lat="40.715439" lon="0.582202">
        <ele>0.099</ele>
        <time>1970-01-01T00:46:53Z</time>
      </trkpt>
      <trkpt lat="40.715421" lon="0.582185">
        <ele>0.036</ele>
        <time>1970-01-01T00:46:54Z</time>
      </trkpt>
      <trkpt lat="40.715406" lon="0.582167">
        <ele>0.057</ele>
        <time>1970-01-01T00:46:55Z</time>
      </trkpt>
      <trkpt lat="40.715398" lon="0.582159">
        <ele>0.020</ele>
        <time>1970-01-01T00:46:56Z</time>
      </trkpt>
      <trkpt lat="40.715396" lon="0.582155">
        <ele>0.020</ele>
        <time>1970-01-01T00:46:57Z</time>
      </trkpt>
      <trkpt lat="40.715336" lon="0.582131">
        <ele>0.046</ele>
        <time>1970-01-01T00:49:05Z</time>
      </trkpt>
      <trkpt lat="40.715324" lon="0.582112">
        <ele>0.010</ele>
        <time>1970-01-01T00:49:06Z</time>
      </trkpt>
      <trkpt lat="40.715308" lon="0.582093">
        <ele>0.021</ele>
        <time>1970-01-01T00:49:07Z</time>
      </trkpt>
      <trkpt lat="40.715289" lon="0.582073">
        <ele>0.067</ele>
        <time>1970-01-01T00:49:08Z</time>
      </trkpt>
      <trkpt lat="40.715265" lon="0.582048">
        <ele>0.081</ele>
        <time>1970-01-01T00:49:09Z</time>
      </trkpt>
      <trkpt lat="40.715239" lon="0.582020">
        <ele>0.019</ele>
        <time>1970-01-01T00:49:10Z</time>
      </trkpt>
      <trkpt lat="40.715209" lon="0.581988">
        <ele>0.008</ele>
        <time>1970-01-01T00:49:11Z</time>
      </trkpt>
      <trkpt lat="40.715177" lon="0.581952">
        <ele>0.033</ele>
        <time>1970-01-01T00:49:12Z</time>
      </trkpt>
      <trkpt lat="40.715145" lon="0.581914">
        <ele>0.030</ele>
        <time>1970-01-01T00:49:13Z</time>
      </trkpt>
      <trkpt lat="40.715109" lon="0.581874">
        <ele>0.021</ele>
        <time>1970-01-01T00:49:14Z</time>
      </trkpt>
      <trkpt lat="40.715074" lon="0.581838">
        <ele>0.024</ele>
        <time>1970-01-01T00:49:15Z</time>
      </trkpt>
      <trkpt lat="40.715038" lon="0.581802">
        <ele>0.034</ele>
        <time>1970-01-01T00:49:16Z</time>
      </trkpt>
      <trkpt lat="40.714999" lon="0.581765">
        <ele>0.090</ele>
        <time>1970-01-01T00:49:17Z</time>
      </trkpt>
      <trkpt lat="40.714960" lon="0.581727">
        <ele>0.044</ele>
        <time>1970-01-01T00:49:18Z</time>
      </trkpt>
      <trkpt lat="40.714921" lon="0.581690">
        <ele>0.095</ele>
        <time>1970-01-01T00:49:19Z</time>
      </trkpt>
      <trkpt lat="40.714884" lon="0.581652">
        <ele>0.071</ele>
        <time>1970-01-01T00:49:20Z</time>
      </trkpt>
      <trkpt lat="40.714844" lon="0.581613">
        <ele>0.041</ele>
        <time>1970-01-01T00:49:21Z</time>
      </trkpt>
      <trkpt lat="40.714805" lon="0.581574">
        <ele>0.015</ele>
        <time>1970-01-01T00:49:22Z</time>
      </trkpt>
      <trkpt lat="40.714763" lon="0.581535">
        <ele>0.008</ele>
        <time>1970-01-01T00:49:23Z</time>
      </trkpt>
      <trkpt lat="40.714722" lon="0.581495">
        <ele>0.094</ele>
        <time>1970-01-01T00:49:24Z</time>
      </trkpt>
      <trkpt lat="40.714683" lon="0.581460">
        <ele>0.091</ele>
        <time>1970-01-01T00:49:25Z</time>
      </trkpt>
      <trkpt lat="40.714645" lon="0.581425">
        <ele>0.062</ele>
        <time>1970-01-01T00:49:26Z</time>
      </trkpt>
      <trkpt lat="40.714606" lon="0.581388">
        <ele>0.035</ele>
        <time>1970-01-01T00:49:27Z</time>
      </trkpt>
      <trkpt lat="40.714567" lon="0.581352">
        <ele>0.175</ele>
        <time>1970-01-01T00:49:28Z</time>
      </trkpt>
      <trkpt lat="40.714530" lon="0.581318">
        <ele>0.451</ele>
        <time>1970-01-01T00:49:29Z</time>
      </trkpt>
      <trkpt lat="40.714493" lon="0.581282">
        <ele>0.615</ele>
        <time>1970-01-01T00:49:30Z</time>
      </trkpt>
      <trkpt lat="40.714452" lon="0.581245">
        <ele>1.066</ele>
        <time>1970-01-01T00:49:31Z</time>
      </trkpt>
      <trkpt lat="40.714410" lon="0.581208">
        <ele>2.144</ele>
        <time>1970-01-01T00:49:32Z</time>
      </trkpt>
      <trkpt lat="40.714372" lon="0.581169">
        <ele>3.205</ele>
        <time>1970-01-01T00:49:33Z</time>
      </trkpt>
      <trkpt lat="40.714330" lon="0.581130">
        <ele>4.415</ele>
        <time>1970-01-01T00:49:34Z</time>
      </trkpt>
      <trkpt lat="40.714293" lon="0.581089">
        <ele>5.508</ele>
        <time>1970-01-01T00:49:35Z</time>
      </trkpt>
      <trkpt lat="40.714254" lon="0.581050">
        <ele>6.841</ele>
        <time>1970-01-01T00:49:36Z</time>
      </trkpt>
      <trkpt lat="40.714216" lon="0.581012">
        <ele>8.058</ele>
        <time>1970-01-01T00:49:37Z</time>
      </trkpt>
      <trkpt lat="40.714180" lon="0.580974">
        <ele>9.259</ele>
        <time>1970-01-01T00:49:38Z</time>
      </trkpt>
      <trkpt lat="40.714147" lon="0.580933">
        <ele>10.032</ele>
        <time>1970-01-01T00:49:39Z</time>
      </trkpt>
      <trkpt lat="40.714113" lon="0.580893">
        <ele>10.622</ele>
        <time>1970-01-01T00:49:40Z</time>
      </trkpt>
      <trkpt lat="40.714077" lon="0.580855">
        <ele>11.168</ele>
        <time>1970-01-01T00:49:41Z</time>
      </trkpt>
      <trkpt lat="40.714041" lon="0.580820">
        <ele>11.552</ele>
        <time>1970-01-01T00:49:42Z</time>
      </trkpt>
      <trkpt lat="40.714005" lon="0.580785">
        <ele>11.993</ele>
        <time>1970-01-01T00:49:43Z</time>
      </trkpt>
      <trkpt lat="40.713969" lon="0.580750">
        <ele>12.287</ele>
        <time>1970-01-01T00:49:44Z</time>
      </trkpt>
      <trkpt lat="40.713932" lon="0.580714">
        <ele>12.642</ele>
        <time>1970-01-01T00:49:45Z</time>
      </trkpt>
      <trkpt lat="40.713896" lon="0.580676">
        <ele>13.126</ele>
        <time>1970-01-01T00:49:46Z</time>
      </trkpt>
      <trkpt lat="40.713858" lon="0.580638">
        <ele>13.408</ele>
        <time>1970-01-01T00:49:47Z</time>
      </trkpt>
      <trkpt lat="40.713818" lon="0.580603">
        <ele>13.765</ele>
        <time>1970-01-01T00:49:48Z</time>
      </trkpt>
      <trkpt lat="40.713784" lon="0.580566">
        <ele>13.942</ele>
        <time>1970-01-01T00:49:49Z</time>
      </trkpt>
      <trkpt lat="40.713747" lon="0.580528">
        <ele>14.023</ele>
        <time>1970-01-01T00:49:50Z</time>
      </trkpt>
      <trkpt lat="40.713705" lon="0.580487">
        <ele>14.036</ele>
        <time>1970-01-01T00:49:51Z</time>
      </trkpt>
      <trkpt lat="40.713663" lon="0.580446">
        <ele>14.096</ele>
        <time>1970-01-01T00:49:52Z</time>
      </trkpt>
      <trkpt lat="40.713620" lon="0.580405">
        <ele>14.062</ele>
        <time>1970-01-01T00:49:53Z</time>
      </trkpt>
      <trkpt lat="40.713577" lon="0.580361">
        <ele>14.076</ele>
        <time>1970-01-01T00:49:54Z</time>
      </trkpt>
      <trkpt lat="40.713535" lon="0.580319">
        <ele>14.047</ele>
        <time>1970-01-01T00:49:55Z</time>
      </trkpt>
      <trkpt lat="40.713490" lon="0.580280">
        <ele>14.069</ele>
        <time>1970-01-01T00:49:56Z</time>
      </trkpt>
      <trkpt lat="40.713447" lon="0.580238">
        <ele>14.004</ele>
        <time>1970-01-01T00:49:57Z</time>
      </trkpt>
      <trkpt lat="40.713409" lon="0.580195">
        <ele>14.024</ele>
        <time>1970-01-01T00:49:58Z</time>
      </trkpt>
      <trkpt lat="40.713377" lon="0.580156">
        <ele>14.008</ele>
        <time>1970-01-01T00:49:59Z</time>
      </trkpt>
      <trkpt lat="40.713344" lon="0.580126">
        <ele>14.073</ele>
        <time>1970-01-01T00:50:00Z</time>
      </trkpt>
      <trkpt lat="40.713316" lon="0.580089">
        <ele>14.050</ele>
        <time>1970-01-01T00:50:01Z</time>
      </trkpt>
      <trkpt lat="40.713285" lon="0.580060">
        <ele>14.091</ele>
        <time>1970-01-01T00:50:02Z</time>
      </trkpt>
      <trkpt lat="40.713259" lon="0.580031">
        <ele>14.054</ele>
        <time>1970-01-01T00:50:03Z</time>
      </trkpt>
      <trkpt lat="40.713233" lon="0.579999">
        <ele>14.054</ele>
        <time>1970-01-01T00:50:04Z</time>
      </trkpt>
      <trkpt lat="40.713203" lon="0.579968">
        <ele>13.960</ele>
        <time>1970-01-01T00:50:05Z</time>
      </trkpt>
      <trkpt lat="40.713171" lon="0.579936">
        <ele>13.934</ele>
        <time>1970-01-01T00:50:06Z</time>
      </trkpt>
      <trkpt lat="40.713140" lon="0.579903">
        <ele>13.935</ele>
        <time>1970-01-01T00:50:07Z</time>
      </trkpt>
      <trkpt lat="40.713108" lon="0.579869">
        <ele>13.923</ele>
        <time>1970-01-01T00:50:08Z</time>
      </trkpt>
      <trkpt lat="40.713074" lon="0.579833">
        <ele>14.083</ele>
        <time>1970-01-01T00:50:09Z</time>
      </trkpt>
      <trkpt lat="40.713043" lon="0.579800">
        <ele>14.011</ele>
        <time>1970-01-01T00:50:10Z</time>
      </trkpt>
      <trkpt lat="40.713011" lon="0.579769">
        <ele>14.008</ele>
        <time>1970-01-01T00:50:11Z</time>
      </trkpt>
      <trkpt lat="40.712984" lon="0.579738">
        <ele>14.069</ele>
        <time>1970-01-01T00:50:12Z</time>
      </trkpt>
      <trkpt lat="40.712959" lon="0.579711">
        <ele>14.016</ele>
        <time>1970-01-01T00:50:13Z</time>
      </trkpt>
      <trkpt lat="40.712938" lon="0.579688">
        <ele>13.987</ele>
        <time>1970-01-01T00:50:14Z</time>
      </trkpt>
      <trkpt lat="40.712919" lon="0.579674">
        <ele>13.970</ele>
        <time>1970-01-01T00:50:15Z</time>
      </trkpt>
      <trkpt lat="40.712907" lon="0.579661">
        <ele>13.920</ele>
        <time>1970-01-01T00:50:16Z</time>
      </trkpt>
      <trkpt lat="40.712908" lon="0.579650">
        <ele>13.916</ele>
        <time>1970-01-01T00:50:17Z</time>
      </trkpt>
      <trkpt lat="40.712907" lon="0.579639">
        <ele>13.860</ele>
        <time>1970-01-01T00:50:18Z</time>
      </trkpt>
      <trkpt lat="40.712904" lon="0.579626">
        <ele>13.881</ele>
        <time>1970-01-01T00:50:19Z</time>
      </trkpt>
      <trkpt lat="40.712897" lon="0.579604">
        <ele>13.827</ele>
        <time>1970-01-01T00:50:20Z</time>
      </trkpt>
      <trkpt lat="40.712870" lon="0.579575">
        <ele>13.668</ele>
        <time>1970-01-01T00:50:21Z</time>
      </trkpt>
      <trkpt lat="40.712849" lon="0.579541">
        <ele>13.514</ele>
        <time>1970-01-01T00:50:22Z</time>
      </trkpt>
      <trkpt lat="40.712826" lon="0.579501">
        <ele>13.308</ele>
        <time>1970-01-01T00:50:23Z</time>
      </trkpt>
      <trkpt lat="40.712801" lon="0.579460">
        <ele>13.189</ele>
        <time>1970-01-01T00:50:24Z</time>
      </trkpt>
      <trkpt lat="40.712766" lon="0.579416">
        <ele>13.056</ele>
        <time>1970-01-01T00:50:25Z</time>
      </trkpt>
      <trkpt lat="40.712738" lon="0.579378">
        <ele>13.157</ele>
        <time>1970-01-01T00:50:26Z</time>
      </trkpt>
      <trkpt lat="40.712711" lon="0.579344">
        <ele>13.240</ele>
        <time>1970-01-01T00:50:27Z</time>
      </trkpt>
      <trkpt lat="40.712683" lon="0.579313">
        <ele>13.220</ele>
        <time>1970-01-01T00:50:28Z</time>
      </trkpt>
      <trkpt lat="40.712654" lon="0.579282">
        <ele>13.266</ele>
        <time>1970-01-01T00:50:29Z</time>
      </trkpt>
      <trkpt lat="40.712627" lon="0.579253">
        <ele>13.230</ele>
        <time>1970-01-01T00:50:30Z</time>
      </trkpt>
      <trkpt lat="40.712600" lon="0.579224">
        <ele>13.121</ele>
        <time>1970-01-01T00:50:31Z</time>
      </trkpt>
      <trkpt lat="40.712576" lon="0.579195">
        <ele>13.172</ele>
        <time>1970-01-01T00:50:32Z</time>
      </trkpt>
      <trkpt lat="40.712553" lon="0.579173">
        <ele>13.013</ele>
        <time>1970-01-01T00:50:33Z</time>
      </trkpt>
      <trkpt lat="40.712524" lon="0.579166">
        <ele>13.014</ele>
        <time>1970-01-01T00:50:34Z</time>
      </trkpt>
      <trkpt lat="40.712496" lon="0.579176">
        <ele>13.108</ele>
        <time>1970-01-01T00:50:35Z</time>
      </trkpt>
      <trkpt lat="40.712476" lon="0.579199">
        <ele>13.364</ele>
        <time>1970-01-01T00:50:36Z</time>
      </trkpt>
      <trkpt lat="40.712455" lon="0.579230">
        <ele>13.661</ele>
        <time>1970-01-01T00:50:37Z</time>
      </trkpt>
      <trkpt lat="40.712437" lon="0.579263">
        <ele>13.872</ele>
        <time>1970-01-01T00:50:38Z</time>
      </trkpt>
      <trkpt lat="40.712416" lon="0.579293">
        <ele>14.155</ele>
        <time>1970-01-01T00:50:39Z</time>
      </trkpt>
      <trkpt lat="40.712403" lon="0.579324">
        <ele>14.315</ele>
        <time>1970-01-01T00:50:40Z</time>
      </trkpt>
      <trkpt lat="40.712390" lon="0.579355">
        <ele>14.591</ele>
        <time>1970-01-01T00:50:41Z</time>
      </trkpt>
      <trkpt lat="40.712376" lon="0.579387">
        <ele>14.735</ele>
        <time>1970-01-01T00:50:42Z</time>
      </trkpt>
      <trkpt lat="40.712369" lon="0.579422">
        <ele>14.936</ele>
        <time>1970-01-01T00:50:43Z</time>
      </trkpt>
      <trkpt lat="40.712371" lon="0.579459">
        <ele>14.912</ele>
        <time>1970-01-01T00:50:44Z</time>
      </trkpt>
      <trkpt lat="40.712372" lon="0.579489">
        <ele>14.932</ele>
        <time>1970-01-01T00:50:45Z</time>
      </trkpt>
      <trkpt lat="40.712382" lon="0.579520">
        <ele>14.905</ele>
        <time>1970-01-01T00:50:46Z</time>
      </trkpt>
      <trkpt lat="40.712394" lon="0.579549">
        <ele>14.908</ele>
        <time>1970-01-01T00:50:47Z</time>
      </trkpt>
      <trkpt lat="40.712410" lon="0.579579">
        <ele>14.828</ele>
        <time>1970-01-01T00:50:48Z</time>
      </trkpt>
      <trkpt lat="40.712429" lon="0.579611">
        <ele>14.825</ele>
        <time>1970-01-01T00:50:49Z</time>
      </trkpt>
      <trkpt lat="40.712454" lon="0.579642">
        <ele>14.836</ele>
        <time>1970-01-01T00:50:50Z</time>
      </trkpt>
      <trkpt lat="40.712474" lon="0.579673">
        <ele>14.949</ele>
        <time>1970-01-01T00:50:51Z</time>
      </trkpt>
      <trkpt lat="40.712494" lon="0.579710">
        <ele>15.019</ele>
        <time>1970-01-01T00:50:52Z</time>
      </trkpt>
      <trkpt lat="40.712508" lon="0.579749">
        <ele>15.095</ele>
        <time>1970-01-01T00:50:53Z</time>
      </trkpt>
      <trkpt lat="40.712523" lon="0.579784">
        <ele>14.999</ele>
        <time>1970-01-01T00:50:54Z</time>
      </trkpt>
      <trkpt lat="40.712524" lon="0.579816">
        <ele>14.930</ele>
        <time>1970-01-01T00:50:55Z</time>
      </trkpt>
      <trkpt lat="40.712506" lon="0.579846">
        <ele>15.025</ele>
        <time>1970-01-01T00:50:56Z</time>
      </trkpt>
      <trkpt lat="40.712495" lon="0.579856">
        <ele>15.026</ele>
        <time>1970-01-01T00:50:57Z</time>
      </trkpt>
      <trkpt lat="40.712485" lon="0.579866">
        <ele>14.908</ele>
        <time>1970-01-01T00:50:58Z</time>
      </trkpt>
      <trkpt lat="40.712474" lon="0.579876">
        <ele>14.908</ele>
        <time>1970-01-01T00:50:59Z</time>
      </trkpt>
      <trkpt lat="40.712464" lon="0.579885">
        <ele>14.899</ele>
        <time>1970-01-01T00:51:00Z</time>
      </trkpt>
      <trkpt lat="40.712453" lon="0.579895">
        <ele>14.886</ele>
        <time>1970-01-01T00:51:01Z</time>
      </trkpt>
      <trkpt lat="40.712443" lon="0.579905">
        <ele>14.747</ele>
        <time>1970-01-01T00:51:02Z</time>
      </trkpt>
      <trkpt lat="40.712432" lon="0.579915">
        <ele>14.780</ele>
        <time>1970-01-01T00:51:03Z</time>
      </trkpt>
      <trkpt lat="40.712422" lon="0.579925">
        <ele>14.680</ele>
        <time>1970-01-01T00:51:04Z</time>
      </trkpt>
      <trkpt lat="40.712395" lon="0.579942">
        <ele>14.416</ele>
        <time>1970-01-01T00:51:05Z</time>
      </trkpt>
      <trkpt lat="40.712369" lon="0.579962">
        <ele>14.250</ele>
        <time>1970-01-01T00:51:06Z</time>
      </trkpt>
      <trkpt lat="40.712350" lon="0.579980">
        <ele>14.011</ele>
        <time>1970-01-01T00:51:07Z</time>
      </trkpt>
      <trkpt lat="40.712339" lon="0.579999">
        <ele>13.849</ele>
        <time>1970-01-01T00:51:08Z</time>
      </trkpt>
      <trkpt lat="40.712332" lon="0.580019">
        <ele>13.702</ele>
        <time>1970-01-01T00:51:09Z</time>
      </trkpt>
      <trkpt lat="40.712328" lon="0.580027">
        <ele>13.722</ele>
        <time>1970-01-01T00:51:10Z</time>
      </trkpt>
      <trkpt lat="40.712324" lon="0.580041">
        <ele>13.608</ele>
        <time>1970-01-01T00:51:11Z</time>
      </trkpt>
      <trkpt lat="40.712323" lon="0.580062">
        <ele>13.551</ele>
        <time>1970-01-01T00:51:12Z</time>
      </trkpt>
      <trkpt lat="40.712319" lon="0.580091">
        <ele>13.498</ele>
        <time>1970-01-01T00:51:13Z</time>
      </trkpt>
      <trkpt lat="40.712318" lon="0.580125">
        <ele>13.269</ele>
        <time>1970-01-01T00:51:14Z</time>
      </trkpt>
      <trkpt lat="40.712324" lon="0.580157">
        <ele>13.292</ele>
        <time>1970-01-01T00:51:15Z</time>
      </trkpt>
      <trkpt lat="40.712332" lon="0.580181">
        <ele>13.132</ele>
        <time>1970-01-01T00:51:16Z</time>
      </trkpt>
      <trkpt lat="40.712335" lon="0.580215">
        <ele>13.058</ele>
        <time>1970-01-01T00:51:17Z</time>
      </trkpt>
      <trkpt lat="40.712341" lon="0.580254">
        <ele>12.932</ele>
        <time>1970-01-01T00:51:18Z</time>
      </trkpt>
      <trkpt lat="40.712349" lon="0.580292">
        <ele>12.973</ele>
        <time>1970-01-01T00:51:19Z</time>
      </trkpt>
      <trkpt lat="40.712359" lon="0.580333">
        <ele>12.978</ele>
        <time>1970-01-01T00:51:20Z</time>
      </trkpt>
      <trkpt lat="40.712370" lon="0.580374">
        <ele>12.933</ele>
        <time>1970-01-01T00:51:21Z</time>
      </trkpt>
      <trkpt lat="40.712382" lon="0.580416">
        <ele>12.926</ele>
        <time>1970-01-01T00:51:22Z</time>
      </trkpt>
      <trkpt lat="40.712391" lon="0.580458">
        <ele>12.808</ele>
        <time>1970-01-01T00:51:23Z</time>
      </trkpt>
      <trkpt lat="40.712398" lon="0.580497">
        <ele>12.884</ele>
        <time>1970-01-01T00:51:24Z</time>
      </trkpt>
      <trkpt lat="40.712402" lon="0.580532">
        <ele>12.731</ele>
        <time>1970-01-01T00:51:25Z</time>
      </trkpt>
      <trkpt lat="40.712401" lon="0.580564">
        <ele>12.652</ele>
        <time>1970-01-01T00:51:26Z</time>
      </trkpt>
      <trkpt lat="40.712393" lon="0.580590">
        <ele>12.545</ele>
        <time>1970-01-01T00:51:27Z</time>
      </trkpt>
      <trkpt lat="40.712368" lon="0.580620">
        <ele>12.375</ele>
        <time>1970-01-01T00:51:28Z</time>
      </trkpt>
      <trkpt lat="40.712339" lon="0.580653">
        <ele>12.161</ele>
        <time>1970-01-01T00:51:29Z</time>
      </trkpt>
      <trkpt lat="40.712311" lon="0.580688">
        <ele>11.855</ele>
        <time>1970-01-01T00:51:30Z</time>
      </trkpt>
      <trkpt lat="40.712283" lon="0.580725">
        <ele>11.696</ele>
        <time>1970-01-01T00:51:31Z</time>
      </trkpt>
      <trkpt lat="40.712257" lon="0.580767">
        <ele>11.454</ele>
        <time>1970-01-01T00:51:32Z</time>
      </trkpt>
      <trkpt lat="40.712230" lon="0.580803">
        <ele>11.156</ele>
        <time>1970-01-01T00:51:33Z</time>
      </trkpt>
      <trkpt lat="40.712196" lon="0.580839">
        <ele>10.911</ele>
        <time>1970-01-01T00:51:34Z</time>
      </trkpt>
      <trkpt lat="40.712157" lon="0.580868">
        <ele>10.808</ele>
        <time>1970-01-01T00:51:35Z</time>
      </trkpt>
      <trkpt lat="40.712132" lon="0.580892">
        <ele>10.712</ele>
        <time>1970-01-01T00:51:36Z</time>
      </trkpt>
      <trkpt lat="40.712118" lon="0.580927">
        <ele>10.689</ele>
        <time>1970-01-01T00:51:37Z</time>
      </trkpt>
      <trkpt lat="40.712110" lon="0.580972">
        <ele>10.650</ele>
        <time>1970-01-01T00:51:38Z</time>
      </trkpt>
      <trkpt lat="40.712111" lon="0.581028">
        <ele>10.653</ele>
        <time>1970-01-01T00:51:39Z</time>
      </trkpt>
      <trkpt lat="40.712117" lon="0.581090">
        <ele>10.613</ele>
        <time>1970-01-01T00:51:40Z</time>
      </trkpt>
      <trkpt lat="40.712129" lon="0.581152">
        <ele>10.789</ele>
        <time>1970-01-01T00:51:41Z</time>
      </trkpt>
      <trkpt lat="40.712145" lon="0.581213">
        <ele>10.723</ele>
        <time>1970-01-01T00:51:42Z</time>
      </trkpt>
      <trkpt lat="40.712155" lon="0.581277">
        <ele>10.674</ele>
        <time>1970-01-01T00:51:43Z</time>
      </trkpt>
      <trkpt lat="40.712167" lon="0.581345">
        <ele>10.584</ele>
        <time>1970-01-01T00:51:44Z</time>
      </trkpt>
      <trkpt lat="40.712176" lon="0.581406">
        <ele>10.407</ele>
        <time>1970-01-01T00:51:45Z</time>
      </trkpt>
      <trkpt lat="40.712188" lon="0.581470">
        <ele>10.517</ele>
        <time>1970-01-01T00:51:46Z</time>
      </trkpt>
      <trkpt lat="40.712202" lon="0.581532">
        <ele>10.608</ele>
        <time>1970-01-01T00:51:47Z</time>
      </trkpt>
      <trkpt lat="40.712214" lon="0.581591">
        <ele>10.825</ele>
        <time>1970-01-01T00:51:48Z</time>
      </trkpt>
      <trkpt lat="40.712229" lon="0.581655">
        <ele>10.992</ele>
        <time>1970-01-01T00:51:49Z</time>
      </trkpt>
      <trkpt lat="40.712246" lon="0.581721">
        <ele>10.643</ele>
        <time>1970-01-01T00:51:50Z</time>
      </trkpt>
      <trkpt lat="40.712261" lon="0.581786">
        <ele>10.336</ele>
        <time>1970-01-01T00:51:51Z</time>
      </trkpt>
      <trkpt lat="40.712274" lon="0.581850">
        <ele>10.066</ele>
        <time>1970-01-01T00:51:52Z</time>
      </trkpt>
      <trkpt lat="40.712283" lon="0.581911">
        <ele>9.712</ele>
        <time>1970-01-01T00:51:53Z</time>
      </trkpt>
      <trkpt lat="40.712290" lon="0.581976">
        <ele>9.396</ele>
        <time>1970-01-01T00:51:54Z</time>
      </trkpt>
      <trkpt lat="40.712299" lon="0.582036">
        <ele>9.077</ele>
        <time>1970-01-01T00:51:55Z</time>
      </trkpt>
      <trkpt lat="40.712308" lon="0.582093">
        <ele>8.667</ele>
        <time>1970-01-01T00:51:56Z</time>
      </trkpt>
      <trkpt lat="40.712317" lon="0.582149">
        <ele>8.381</ele>
        <time>1970-01-01T00:51:57Z</time>
      </trkpt>
      <trkpt lat="40.712325" lon="0.582207">
        <ele>8.119</ele>
        <time>1970-01-01T00:51:58Z</time>
      </trkpt>
      <trkpt lat="40.712344" lon="0.582265">
        <ele>7.608</ele>
        <time>1970-01-01T00:51:59Z</time>
      </trkpt>
      <trkpt lat="40.712356" lon="0.582324">
        <ele>7.113</ele>
        <time>1970-01-01T00:52:00Z</time>
      </trkpt>
      <trkpt lat="40.712368" lon="0.582390">
        <ele>6.520</ele>
        <time>1970-01-01T00:52:01Z</time>
      </trkpt>
      <trkpt lat="40.712381" lon="0.582459">
        <ele>5.841</ele>
        <time>1970-01-01T00:52:02Z</time>
      </trkpt>
      <trkpt lat="40.712393" lon="0.582529">
        <ele>5.234</ele>
        <time>1970-01-01T00:52:03Z</time>
      </trkpt>
      <trkpt lat="40.712401" lon="0.582603">
        <ele>4.664</ele>
        <time>1970-01-01T00:52:04Z</time>
      </trkpt>
      <trkpt lat="40.712417" lon="0.582676">
        <ele>4.010</ele>
        <time>1970-01-01T00:52:05Z</time>
      </trkpt>
      <trkpt lat="40.712432" lon="0.582744">
        <ele>3.564</ele>
        <time>1970-01-01T00:52:06Z</time>
      </trkpt>
      <trkpt lat="40.712446" lon="0.582810">
        <ele>3.245</ele>
        <time>1970-01-01T00:52:07Z</time>
      </trkpt>
      <trkpt lat="40.712463" lon="0.582871">
        <ele>3.146</ele>
        <time>1970-01-01T00:52:08Z</time>
      </trkpt>
      <trkpt lat="40.712484" lon="0.582937">
        <ele>3.188</ele>
        <time>1970-01-01T00:52:09Z</time>
      </trkpt>
      <trkpt lat="40.712504" lon="0.582996">
        <ele>3.016</ele>
        <time>1970-01-01T00:52:10Z</time>
      </trkpt>
      <trkpt lat="40.712515" lon="0.583044">
        <ele>3.108</ele>
        <time>1970-01-01T00:52:11Z</time>
      </trkpt>
      <trkpt lat="40.712514" lon="0.583092">
        <ele>3.251</ele>
        <time>1970-01-01T00:52:12Z</time>
      </trkpt>
      <trkpt lat="40.712507" lon="0.583134">
        <ele>3.328</ele>
        <time>1970-01-01T00:52:13Z</time>
      </trkpt>
      <trkpt lat="40.712495" lon="0.583166">
        <ele>3.439</ele>
        <time>1970-01-01T00:52:14Z</time>
      </trkpt>
      <trkpt lat="40.712481" lon="0.583196">
        <ele>3.612</ele>
        <time>1970-01-01T00:52:15Z</time>
      </trkpt>
      <trkpt lat="40.712470" lon="0.583238">
        <ele>3.832</ele>
        <time>1970-01-01T00:52:16Z</time>
      </trkpt>
      <trkpt lat="40.712461" lon="0.583283">
        <ele>4.098</ele>
        <time>1970-01-01T00:52:17Z</time>
      </trkpt>
      <trkpt lat="40.712454" lon="0.583328">
        <ele>4.132</ele>
        <time>1970-01-01T00:52:18Z</time>
      </trkpt>
      <trkpt lat="40.712453" lon="0.583370">
        <ele>4.243</ele>
        <time>1970-01-01T00:52:19Z</time>
      </trkpt>
      <trkpt lat="40.712455" lon="0.583405">
        <ele>4.246</ele>
        <time>1970-01-01T00:52:20Z</time>
      </trkpt>
      <trkpt lat="40.712458" lon="0.583440">
        <ele>4.288</ele>
        <time>1970-01-01T00:52:21Z</time>
      </trkpt>
      <trkpt lat="40.712466" lon="0.583483">
        <ele>4.216</ele>
        <time>1970-01-01T00:52:22Z</time>
      </trkpt>
      <trkpt lat="40.712479" lon="0.583528">
        <ele>4.108</ele>
        <time>1970-01-01T00:52:23Z</time>
      </trkpt>
      <trkpt lat="40.712494" lon="0.583580">
        <ele>4.011</ele>
        <time>1970-01-01T00:52:24Z</time>
      </trkpt>
      <trkpt lat="40.712505" lon="0.583632">
        <ele>4.138</ele>
        <time>1970-01-01T00:52:25Z</time>
      </trkpt>
      <trkpt lat="40.712516" lon="0.583684">
        <ele>4.499</ele>
        <time>1970-01-01T00:52:26Z</time>
      </trkpt>
      <trkpt lat="40.712526" lon="0.583735">
        <ele>4.732</ele>
        <time>1970-01-01T00:52:27Z</time>
      </trkpt>
      <trkpt lat="40.712531" lon="0.583785">
        <ele>5.092</ele>
        <time>1970-01-01T00:52:28Z</time>
      </trkpt>
      <trkpt lat="40.712528" lon="0.583835">
        <ele>5.358</ele>
        <time>1970-01-01T00:52:29Z</time>
      </trkpt>
      <trkpt lat="40.712515" lon="0.583881">
        <ele>5.872</ele>
        <time>1970-01-01T00:52:30Z</time>
      </trkpt>
      <trkpt lat="40.712492" lon="0.583921">
        <ele>6.193</ele>
        <time>1970-01-01T00:52:31Z</time>
      </trkpt>
      <trkpt lat="40.712464" lon="0.583957">
        <ele>6.369</ele>
        <time>1970-01-01T00:52:32Z</time>
      </trkpt>
      <trkpt lat="40.712434" lon="0.583992">
        <ele>6.504</ele>
        <time>1970-01-01T00:52:33Z</time>
      </trkpt>
      <trkpt lat="40.712403" lon="0.584024">
        <ele>6.724</ele>
        <time>1970-01-01T00:52:34Z</time>
      </trkpt>
      <trkpt lat="40.712374" lon="0.584057">
        <ele>6.808</ele>
        <time>1970-01-01T00:52:35Z</time>
      </trkpt>
      <trkpt lat="40.712344" lon="0.584090">
        <ele>6.913</ele>
        <time>1970-01-01T00:52:36Z</time>
      </trkpt>
      <trkpt lat="40.712315" lon="0.584124">
        <ele>6.990</ele>
        <time>1970-01-01T00:52:37Z</time>
      </trkpt>
      <trkpt lat="40.712286" lon="0.584160">
        <ele>7.051</ele>
        <time>1970-01-01T00:52:38Z</time>
      </trkpt>
      <trkpt lat="40.712258" lon="0.584198">
        <ele>7.134</ele>
        <time>1970-01-01T00:52:39Z</time>
      </trkpt>
      <trkpt lat="40.712227" lon="0.584232">
        <ele>7.294</ele>
        <time>1970-01-01T00:52:40Z</time>
      </trkpt>
      <trkpt lat="40.712198" lon="0.584268">
        <ele>7.380</ele>
        <time>1970-01-01T00:52:41Z</time>
      </trkpt>
      <trkpt lat="40.712169" lon="0.584304">
        <ele>7.484</ele>
        <time>1970-01-01T00:52:42Z</time>
      </trkpt>
      <trkpt lat="40.712141" lon="0.584340">
        <ele>7.445</ele>
        <time>1970-01-01T00:52:43Z</time>
      </trkpt>
      <trkpt lat="40.712113" lon="0.584373">
        <ele>7.537</ele>
        <time>1970-01-01T00:52:44Z</time>
      </trkpt>
      <trkpt lat="40.712084" lon="0.584405">
        <ele>7.449</ele>
        <time>1970-01-01T00:52:45Z</time>
      </trkpt>
      <trkpt lat="40.712054" lon="0.584436">
        <ele>7.413</ele>
        <time>1970-01-01T00:52:46Z</time>
      </trkpt>
      <trkpt lat="40.712024" lon="0.584467">
        <ele>7.408</ele>
        <time>1970-01-01T00:52:47Z</time>
      </trkpt>
      <trkpt lat="40.711994" lon="0.584494">
        <ele>7.430</ele>
        <time>1970-01-01T00:52:48Z</time>
      </trkpt>
      <trkpt lat="40.711967" lon="0.584517">
        <ele>7.337</ele>
        <time>1970-01-01T00:52:49Z</time>
      </trkpt>
      <trkpt lat="40.711940" lon="0.584539">
        <ele>7.328</ele>
        <time>1970-01-01T00:52:50Z</time>
      </trkpt>
      <trkpt lat="40.711915" lon="0.584556">
        <ele>7.211</ele>
        <time>1970-01-01T00:52:51Z</time>
      </trkpt>
      <trkpt lat="40.711895" lon="0.584568">
        <ele>7.121</ele>
        <time>1970-01-01T00:52:52Z</time>
      </trkpt>
      <trkpt lat="40.711880" lon="0.584580">
        <ele>7.077</ele>
        <time>1970-01-01T00:52:53Z</time>
      </trkpt>
      <trkpt lat="40.711868" lon="0.584599">
        <ele>7.091</ele>
        <time>1970-01-01T00:52:54Z</time>
      </trkpt>
      <trkpt lat="40.711860" lon="0.584617">
        <ele>6.972</ele>
        <time>1970-01-01T00:52:55Z</time>
      </trkpt>
      <trkpt lat="40.711847" lon="0.584633">
        <ele>6.931</ele>
        <time>1970-01-01T00:52:56Z</time>
      </trkpt>
      <trkpt lat="40.711823" lon="0.584649">
        <ele>6.761</ele>
        <time>1970-01-01T00:52:57Z</time>
      </trkpt>
      <trkpt lat="40.711804" lon="0.584669">
        <ele>6.507</ele>
        <time>1970-01-01T00:52:58Z</time>
      </trkpt>
      <trkpt lat="40.711785" lon="0.584689">
        <ele>6.308</ele>
        <time>1970-01-01T00:52:59Z</time>
      </trkpt>
      <trkpt lat="40.711770" lon="0.584708">
        <ele>6.130</ele>
        <time>1970-01-01T00:53:00Z</time>
      </trkpt>
      <trkpt lat="40.711759" lon="0.584711">
        <ele>6.037</ele>
        <time>1970-01-01T00:53:01Z</time>
      </trkpt>
      <trkpt lat="40.711747" lon="0.584724">
        <ele>5.948</ele>
        <time>1970-01-01T00:53:02Z</time>
      </trkpt>
      <trkpt lat="40.711742" lon="0.584723">
        <ele>5.871</ele>
        <time>1970-01-01T00:53:03Z</time>
      </trkpt>
      <trkpt lat="40.711741" lon="0.584725">
        <ele>5.851</ele>
        <time>1970-01-01T00:53:04Z</time>
      </trkpt>
      <trkpt lat="40.711571" lon="0.584992">
        <ele>4.737</ele>
        <time>1970-01-01T00:53:24Z</time>
      </trkpt>
      <trkpt lat="40.711558" lon="0.585005">
        <ele>4.671</ele>
        <time>1970-01-01T00:53:25Z</time>
      </trkpt>
      <trkpt lat="40.711539" lon="0.585018">
        <ele>4.512</ele>
        <time>1970-01-01T00:53:26Z</time>
      </trkpt>
      <trkpt lat="40.711515" lon="0.585034">
        <ele>4.594</ele>
        <time>1970-01-01T00:53:27Z</time>
      </trkpt>
      <trkpt lat="40.711486" lon="0.585059">
        <ele>4.357</ele>
        <time>1970-01-01T00:53:28Z</time>
      </trkpt>
      <trkpt lat="40.711459" lon="0.585091">
        <ele>4.322</ele>
        <time>1970-01-01T00:53:29Z</time>
      </trkpt>
      <trkpt lat="40.711432" lon="0.585126">
        <ele>4.208</ele>
        <time>1970-01-01T00:53:30Z</time>
      </trkpt>
      <trkpt lat="40.711402" lon="0.585163">
        <ele>4.026</ele>
        <time>1970-01-01T00:53:31Z</time>
      </trkpt>
      <trkpt lat="40.711373" lon="0.585200">
        <ele>4.193</ele>
        <time>1970-01-01T00:53:32Z</time>
      </trkpt>
      <trkpt lat="40.711343" lon="0.585237">
        <ele>4.334</ele>
        <time>1970-01-01T00:53:33Z</time>
      </trkpt>
      <trkpt lat="40.711310" lon="0.585276">
        <ele>4.687</ele>
        <time>1970-01-01T00:53:34Z</time>
      </trkpt>
      <trkpt lat="40.711277" lon="0.585320">
        <ele>4.927</ele>
        <time>1970-01-01T00:53:35Z</time>
      </trkpt>
      <trkpt lat="40.711241" lon="0.585364">
        <ele>5.293</ele>
        <time>1970-01-01T00:53:36Z</time>
      </trkpt>
      <trkpt lat="40.711201" lon="0.585411">
        <ele>5.557</ele>
        <time>1970-01-01T00:53:37Z</time>
      </trkpt>
      <trkpt lat="40.711160" lon="0.585458">
        <ele>5.888</ele>
        <time>1970-01-01T00:53:38Z</time>
      </trkpt>
      <trkpt lat="40.711119" lon="0.585504">
        <ele>6.019</ele>
        <time>1970-01-01T00:53:39Z</time>
      </trkpt>
      <trkpt lat="40.711079" lon="0.585549">
        <ele>6.009</ele>
        <time>1970-01-01T00:53:40Z</time>
      </trkpt>
      <trkpt lat="40.711038" lon="0.585596">
        <ele>6.019</ele>
        <time>1970-01-01T00:53:41Z</time>
      </trkpt>
      <trkpt lat="40.710996" lon="0.585645">
        <ele>5.908</ele>
        <time>1970-01-01T00:53:42Z</time>
      </trkpt>
      <trkpt lat="40.710956" lon="0.585695">
        <ele>5.728</ele>
        <time>1970-01-01T00:53:43Z</time>
      </trkpt>
      <trkpt lat="40.710913" lon="0.585742">
        <ele>5.535</ele>
        <time>1970-01-01T00:53:44Z</time>
      </trkpt>
      <trkpt lat="40.710865" lon="0.585788">
        <ele>5.376</ele>
        <time>1970-01-01T00:53:45Z</time>
      </trkpt>
      <trkpt lat="40.710818" lon="0.585830">
        <ele>5.089</ele>
        <time>1970-01-01T00:53:46Z</time>
      </trkpt>
      <trkpt lat="40.710769" lon="0.585871">
        <ele>4.879</ele>
        <time>1970-01-01T00:53:47Z</time>
      </trkpt>
      <trkpt lat="40.710719" lon="0.585913">
        <ele>4.665</ele>
        <time>1970-01-01T00:53:48Z</time>
      </trkpt>
      <trkpt lat="40.710670" lon="0.585958">
        <ele>4.469</ele>
        <time>1970-01-01T00:53:49Z</time>
      </trkpt>
      <trkpt lat="40.710623" lon="0.586001">
        <ele>4.220</ele>
        <time>1970-01-01T00:53:50Z</time>
      </trkpt>
      <trkpt lat="40.710574" lon="0.586045">
        <ele>4.137</ele>
        <time>1970-01-01T00:53:51Z</time>
      </trkpt>
      <trkpt lat="40.710524" lon="0.586089">
        <ele>4.049</ele>
        <time>1970-01-01T00:53:52Z</time>
      </trkpt>
      <trkpt lat="40.710484" lon="0.586132">
        <ele>4.013</ele>
        <time>1970-01-01T00:53:53Z</time>
      </trkpt>
      <trkpt lat="40.710444" lon="0.586174">
        <ele>4.008</ele>
        <time>1970-01-01T00:53:54Z</time>
      </trkpt>
      <trkpt lat="40.710401" lon="0.586217">
        <ele>4.040</ele>
        <time>1970-01-01T00:53:55Z</time>
      </trkpt>
      <trkpt lat="40.710359" lon="0.586265">
        <ele>4.017</ele>
        <time>1970-01-01T00:53:56Z</time>
      </trkpt>
      <trkpt lat="40.710317" lon="0.586317">
        <ele>4.018</ele>
        <time>1970-01-01T00:53:57Z</time>
      </trkpt>
      <trkpt lat="40.710275" lon="0.586363">
        <ele>4.081</ele>
        <time>1970-01-01T00:53:58Z</time>
      </trkpt>
      <trkpt lat="40.710231" lon="0.586410">
        <ele>3.961</ele>
        <time>1970-01-01T00:53:59Z</time>
      </trkpt>
      <trkpt lat="40.710189" lon="0.586462">
        <ele>3.787</ele>
        <time>1970-01-01T00:54:00Z</time>
      </trkpt>
      <trkpt lat="40.710143" lon="0.586516">
        <ele>3.571</ele>
        <time>1970-01-01T00:54:01Z</time>
      </trkpt>
      <trkpt lat="40.710096" lon="0.586569">
        <ele>3.492</ele>
        <time>1970-01-01T00:54:02Z</time>
      </trkpt>
      <trkpt lat="40.710047" lon="0.586622">
        <ele>3.241</ele>
        <time>1970-01-01T00:54:03Z</time>
      </trkpt>
      <trkpt lat="40.709999" lon="0.586674">
        <ele>3.081</ele>
        <time>1970-01-01T00:54:04Z</time>
      </trkpt>
      <trkpt lat="40.709950" lon="0.586725">
        <ele>2.609</ele>
        <time>1970-01-01T00:54:05Z</time>
      </trkpt>
      <trkpt lat="40.709904" lon="0.586776">
        <ele>2.408</ele>
        <time>1970-01-01T00:54:06Z</time>
      </trkpt>
      <trkpt lat="40.709856" lon="0.586828">
        <ele>2.251</ele>
        <time>1970-01-01T00:54:07Z</time>
      </trkpt>
      <trkpt lat="40.709810" lon="0.586882">
        <ele>2.118</ele>
        <time>1970-01-01T00:54:08Z</time>
      </trkpt>
      <trkpt lat="40.709760" lon="0.586936">
        <ele>2.069</ele>
        <time>1970-01-01T00:54:09Z</time>
      </trkpt>
      <trkpt lat="40.709713" lon="0.586992">
        <ele>2.042</ele>
        <time>1970-01-01T00:54:10Z</time>
      </trkpt>
      <trkpt lat="40.709667" lon="0.587049">
        <ele>2.152</ele>
        <time>1970-01-01T00:54:11Z</time>
      </trkpt>
      <trkpt lat="40.709618" lon="0.587106">
        <ele>2.268</ele>
        <time>1970-01-01T00:54:12Z</time>
      </trkpt>
      <trkpt lat="40.709570" lon="0.587166">
        <ele>2.432</ele>
        <time>1970-01-01T00:54:13Z</time>
      </trkpt>
      <trkpt lat="40.709526" lon="0.587231">
        <ele>2.753</ele>
        <time>1970-01-01T00:54:14Z</time>
      </trkpt>
      <trkpt lat="40.709479" lon="0.587296">
        <ele>2.961</ele>
        <time>1970-01-01T00:54:15Z</time>
      </trkpt>
      <trkpt lat="40.709435" lon="0.587362">
        <ele>3.021</ele>
        <time>1970-01-01T00:54:16Z</time>
      </trkpt>
      <trkpt lat="40.709393" lon="0.587432">
        <ele>3.013</ele>
        <time>1970-01-01T00:54:17Z</time>
      </trkpt>
      <trkpt lat="40.709354" lon="0.587502">
        <ele>3.008</ele>
        <time>1970-01-01T00:54:18Z</time>
      </trkpt>
      <trkpt lat="40.709311" lon="0.587571">
        <ele>3.043</ele>
        <time>1970-01-01T00:54:19Z</time>
      </trkpt>
      <trkpt lat="40.709271" lon="0.587641">
        <ele>3.090</ele>
        <time>1970-01-01T00:54:20Z</time>
      </trkpt>
      <trkpt lat="40.709228" lon="0.587708">
        <ele>3.081</ele>
        <time>1970-01-01T00:54:21Z</time>
      </trkpt>
      <trkpt lat="40.709185" lon="0.587778">
        <ele>3.084</ele>
        <time>1970-01-01T00:54:22Z</time>
      </trkpt>
      <trkpt lat="40.709138" lon="0.587848">
        <ele>3.044</ele>
        <time>1970-01-01T00:54:23Z</time>
      </trkpt>
      <trkpt lat="40.709094" lon="0.587919">
        <ele>3.020</ele>
        <time>1970-01-01T00:54:24Z</time>
      </trkpt>
      <trkpt lat="40.709050" lon="0.587992">
        <ele>3.084</ele>
        <time>1970-01-01T00:54:25Z</time>
      </trkpt>
      <trkpt lat="40.709005" lon="0.588065">
        <ele>3.035</ele>
        <time>1970-01-01T00:54:26Z</time>
      </trkpt>
      <trkpt lat="40.708960" lon="0.588135">
        <ele>3.032</ele>
        <time>1970-01-01T00:54:27Z</time>
      </trkpt>
      <trkpt lat="40.708913" lon="0.588204">
        <ele>3.092</ele>
        <time>1970-01-01T00:54:28Z</time>
      </trkpt>
      <trkpt lat="40.708870" lon="0.588273">
        <ele>3.011</ele>
        <time>1970-01-01T00:54:29Z</time>
      </trkpt>
      <trkpt lat="40.708826" lon="0.588344">
        <ele>3.008</ele>
        <time>1970-01-01T00:54:30Z</time>
      </trkpt>
      <trkpt lat="40.708781" lon="0.588415">
        <ele>2.810</ele>
        <time>1970-01-01T00:54:31Z</time>
      </trkpt>
      <trkpt lat="40.708734" lon="0.588484">
        <ele>2.847</ele>
        <time>1970-01-01T00:54:32Z</time>
      </trkpt>
      <trkpt lat="40.708689" lon="0.588553">
        <ele>2.888</ele>
        <time>1970-01-01T00:54:33Z</time>
      </trkpt>
      <trkpt lat="40.708644" lon="0.588622">
        <ele>2.981</ele>
        <time>1970-01-01T00:54:34Z</time>
      </trkpt>
      <trkpt lat="40.708599" lon="0.588693">
        <ele>3.061</ele>
        <time>1970-01-01T00:54:35Z</time>
      </trkpt>
      <trkpt lat="40.708554" lon="0.588763">
        <ele>3.237</ele>
        <time>1970-01-01T00:54:36Z</time>
      </trkpt>
      <trkpt lat="40.708508" lon="0.588834">
        <ele>3.491</ele>
        <time>1970-01-01T00:54:37Z</time>
      </trkpt>
      <trkpt lat="40.708463" lon="0.588905">
        <ele>3.582</ele>
        <time>1970-01-01T00:54:38Z</time>
      </trkpt>
      <trkpt lat="40.708420" lon="0.588976">
        <ele>3.512</ele>
        <time>1970-01-01T00:54:39Z</time>
      </trkpt>
      <trkpt lat="40.708377" lon="0.589047">
        <ele>3.432</ele>
        <time>1970-01-01T00:54:40Z</time>
      </trkpt>
      <trkpt lat="40.708333" lon="0.589117">
        <ele>3.205</ele>
        <time>1970-01-01T00:54:41Z</time>
      </trkpt>
      <trkpt lat="40.708288" lon="0.589188">
        <ele>3.008</ele>
        <time>1970-01-01T00:54:42Z</time>
      </trkpt>
      <trkpt lat="40.708242" lon="0.589259">
        <ele>2.948</ele>
        <time>1970-01-01T00:54:43Z</time>
      </trkpt>
      <trkpt lat="40.708198" lon="0.589332">
        <ele>2.735</ele>
        <time>1970-01-01T00:54:44Z</time>
      </trkpt>
      <trkpt lat="40.708152" lon="0.589407">
        <ele>2.446</ele>
        <time>1970-01-01T00:54:45Z</time>
      </trkpt>
      <trkpt lat="40.708106" lon="0.589483">
        <ele>2.359</ele>
        <time>1970-01-01T00:54:46Z</time>
      </trkpt>
      <trkpt lat="40.708060" lon="0.589561">
        <ele>2.429</ele>
        <time>1970-01-01T00:54:47Z</time>
      </trkpt>
      <trkpt lat="40.708017" lon="0.589640">
        <ele>2.715</ele>
        <time>1970-01-01T00:54:48Z</time>
      </trkpt>
      <trkpt lat="40.707975" lon="0.589721">
        <ele>3.089</ele>
        <time>1970-01-01T00:54:49Z</time>
      </trkpt>
      <trkpt lat="40.707933" lon="0.589803">
        <ele>3.380</ele>
        <time>1970-01-01T00:54:50Z</time>
      </trkpt>
      <trkpt lat="40.707894" lon="0.589889">
        <ele>3.644</ele>
        <time>1970-01-01T00:54:51Z</time>
      </trkpt>
      <trkpt lat="40.707856" lon="0.589977">
        <ele>3.905</ele>
        <time>1970-01-01T00:54:52Z</time>
      </trkpt>
      <trkpt lat="40.707818" lon="0.590065">
        <ele>3.815</ele>
        <time>1970-01-01T00:54:53Z</time>
      </trkpt>
      <trkpt lat="40.707752" lon="0.590241">
        <ele>3.208</ele>
        <time>1970-01-01T00:54:54Z</time>
      </trkpt>
      <trkpt lat="40.707738" lon="0.590285">
        <ele>3.141</ele>
        <time>1970-01-01T00:54:55Z</time>
      </trkpt>
      <trkpt lat="40.707724" lon="0.590328">
        <ele>3.088</ele>
        <time>1970-01-01T00:54:56Z</time>
      </trkpt>
      <trkpt lat="40.707698" lon="0.590418">
        <ele>2.639</ele>
        <time>1970-01-01T00:54:57Z</time>
      </trkpt>
      <trkpt lat="40.707671" lon="0.590507">
        <ele>2.232</ele>
        <time>1970-01-01T00:54:58Z</time>
      </trkpt>
      <trkpt lat="40.707645" lon="0.590598">
        <ele>1.842</ele>
        <time>1970-01-01T00:54:59Z</time>
      </trkpt>
      <trkpt lat="40.707621" lon="0.590690">
        <ele>1.528</ele>
        <time>1970-01-01T00:55:00Z</time>
      </trkpt>
      <trkpt lat="40.707594" lon="0.590783">
        <ele>1.282</ele>
        <time>1970-01-01T00:55:01Z</time>
      </trkpt>
      <trkpt lat="40.707564" lon="0.590873">
        <ele>1.033</ele>
        <time>1970-01-01T00:55:02Z</time>
      </trkpt>
      <trkpt lat="40.707534" lon="0.590962">
        <ele>1.052</ele>
        <time>1970-01-01T00:55:03Z</time>
      </trkpt>
      <trkpt lat="40.707507" lon="0.591052">
        <ele>1.053</ele>
        <time>1970-01-01T00:55:04Z</time>
      </trkpt>
      <trkpt lat="40.707480" lon="0.591142">
        <ele>1.208</ele>
        <time>1970-01-01T00:55:05Z</time>
      </trkpt>
      <trkpt lat="40.707455" lon="0.591233">
        <ele>1.608</ele>
        <time>1970-01-01T00:55:06Z</time>
      </trkpt>
      <trkpt lat="40.707428" lon="0.591323">
        <ele>2.082</ele>
        <time>1970-01-01T00:55:07Z</time>
      </trkpt>
      <trkpt lat="40.707403" lon="0.591414">
        <ele>2.479</ele>
        <time>1970-01-01T00:55:08Z</time>
      </trkpt>
      <trkpt lat="40.707377" lon="0.591505">
        <ele>2.940</ele>
        <time>1970-01-01T00:55:09Z</time>
      </trkpt>
      <trkpt lat="40.707349" lon="0.591590">
        <ele>3.343</ele>
        <time>1970-01-01T00:55:10Z</time>
      </trkpt>
      <trkpt lat="40.707315" lon="0.591667">
        <ele>3.723</ele>
        <time>1970-01-01T00:55:11Z</time>
      </trkpt>
      <trkpt lat="40.707271" lon="0.591732">
        <ele>3.859</ele>
        <time>1970-01-01T00:55:12Z</time>
      </trkpt>
      <trkpt lat="40.707217" lon="0.591781">
        <ele>4.073</ele>
        <time>1970-01-01T00:55:13Z</time>
      </trkpt>
      <trkpt lat="40.707158" lon="0.591808">
        <ele>4.054</ele>
        <time>1970-01-01T00:55:14Z</time>
      </trkpt>
      <trkpt lat="40.707094" lon="0.591815">
        <ele>4.055</ele>
        <time>1970-01-01T00:55:15Z</time>
      </trkpt>
      <trkpt lat="40.707029" lon="0.591796">
        <ele>4.007</ele>
        <time>1970-01-01T00:55:16Z</time>
      </trkpt>
      <trkpt lat="40.706967" lon="0.591766">
        <ele>4.017</ele>
        <time>1970-01-01T00:55:17Z</time>
      </trkpt>
      <trkpt lat="40.706906" lon="0.591729">
        <ele>3.908</ele>
        <time>1970-01-01T00:55:18Z</time>
      </trkpt>
      <trkpt lat="40.706844" lon="0.591692">
        <ele>3.782</ele>
        <time>1970-01-01T00:55:19Z</time>
      </trkpt>
      <trkpt lat="40.706782" lon="0.591652">
        <ele>3.489</ele>
        <time>1970-01-01T00:55:20Z</time>
      </trkpt>
      <trkpt lat="40.706722" lon="0.591608">
        <ele>3.220</ele>
        <time>1970-01-01T00:55:21Z</time>
      </trkpt>
      <trkpt lat="40.706664" lon="0.591562">
        <ele>3.023</ele>
        <time>1970-01-01T00:55:22Z</time>
      </trkpt>
      <trkpt lat="40.706609" lon="0.591510">
        <ele>2.973</ele>
        <time>1970-01-01T00:55:23Z</time>
      </trkpt>
      <trkpt lat="40.706553" lon="0.591454">
        <ele>2.729</ele>
        <time>1970-01-01T00:55:24Z</time>
      </trkpt>
      <trkpt lat="40.706496" lon="0.591393">
        <ele>2.483</ele>
        <time>1970-01-01T00:55:25Z</time>
      </trkpt>
      <trkpt lat="40.706442" lon="0.591330">
        <ele>2.044</ele>
        <time>1970-01-01T00:55:26Z</time>
      </trkpt>
      <trkpt lat="40.706388" lon="0.591265">
        <ele>1.661</ele>
        <time>1970-01-01T00:55:27Z</time>
      </trkpt>
      <trkpt lat="40.706339" lon="0.591195">
        <ele>1.321</ele>
        <time>1970-01-01T00:55:28Z</time>
      </trkpt>
      <trkpt lat="40.706289" lon="0.591125">
        <ele>1.113</ele>
        <time>1970-01-01T00:55:29Z</time>
      </trkpt>
      <trkpt lat="40.706238" lon="0.591055">
        <ele>1.008</ele>
        <time>1970-01-01T00:55:30Z</time>
      </trkpt>
      <trkpt lat="40.706182" lon="0.590988">
        <ele>1.053</ele>
        <time>1970-01-01T00:55:31Z</time>
      </trkpt>
      <trkpt lat="40.706124" lon="0.590926">
        <ele>1.070</ele>
        <time>1970-01-01T00:55:32Z</time>
      </trkpt>
      <trkpt lat="40.706064" lon="0.590866">
        <ele>1.171</ele>
        <time>1970-01-01T00:55:33Z</time>
      </trkpt>
      <trkpt lat="40.706000" lon="0.590811">
        <ele>1.414</ele>
        <time>1970-01-01T00:55:34Z</time>
      </trkpt>
      <trkpt lat="40.705933" lon="0.590755">
        <ele>1.644</ele>
        <time>1970-01-01T00:55:35Z</time>
      </trkpt>
      <trkpt lat="40.705865" lon="0.590703">
        <ele>1.910</ele>
        <time>1970-01-01T00:55:36Z</time>
      </trkpt>
      <trkpt lat="40.705797" lon="0.590652">
        <ele>2.064</ele>
        <time>1970-01-01T00:55:37Z</time>
      </trkpt>
      <trkpt lat="40.705729" lon="0.590603">
        <ele>2.045</ele>
        <time>1970-01-01T00:55:38Z</time>
      </trkpt>
      <trkpt lat="40.705659" lon="0.590554">
        <ele>2.096</ele>
        <time>1970-01-01T00:55:39Z</time>
      </trkpt>
      <trkpt lat="40.705588" lon="0.590505">
        <ele>1.831</ele>
        <time>1970-01-01T00:55:40Z</time>
      </trkpt>
      <trkpt lat="40.705515" lon="0.590458">
        <ele>1.424</ele>
        <time>1970-01-01T00:55:41Z</time>
      </trkpt>
      <trkpt lat="40.705442" lon="0.590410">
        <ele>0.908</ele>
        <time>1970-01-01T00:55:42Z</time>
      </trkpt>
      <trkpt lat="40.705367" lon="0.590362">
        <ele>0.456</ele>
        <time>1970-01-01T00:55:43Z</time>
      </trkpt>
      <trkpt lat="40.705298" lon="0.590312">
        <ele>0.113</ele>
        <time>1970-01-01T00:55:44Z</time>
      </trkpt>
      <trkpt lat="40.705228" lon="0.590261">
        <ele>0.264</ele>
        <time>1970-01-01T00:55:45Z</time>
      </trkpt>
      <trkpt lat="40.705159" lon="0.590207">
        <ele>0.597</ele>
        <time>1970-01-01T00:55:46Z</time>
      </trkpt>
      <trkpt lat="40.705090" lon="0.590155">
        <ele>1.077</ele>
        <time>1970-01-01T00:55:47Z</time>
      </trkpt>
      <trkpt lat="40.705020" lon="0.590105">
        <ele>1.533</ele>
        <time>1970-01-01T00:55:48Z</time>
      </trkpt>
      <trkpt lat="40.704950" lon="0.590053">
        <ele>2.047</ele>
        <time>1970-01-01T00:55:49Z</time>
      </trkpt>
      <trkpt lat="40.704881" lon="0.590004">
        <ele>2.418</ele>
        <time>1970-01-01T00:55:50Z</time>
      </trkpt>
      <trkpt lat="40.704809" lon="0.589957">
        <ele>2.748</ele>
        <time>1970-01-01T00:55:51Z</time>
      </trkpt>
      <trkpt lat="40.704737" lon="0.589907">
        <ele>2.961</ele>
        <time>1970-01-01T00:55:52Z</time>
      </trkpt>
      <trkpt lat="40.704667" lon="0.589855">
        <ele>3.017</ele>
        <time>1970-01-01T00:55:53Z</time>
      </trkpt>
      <trkpt lat="40.704598" lon="0.589804">
        <ele>3.008</ele>
        <time>1970-01-01T00:55:54Z</time>
      </trkpt>
      <trkpt lat="40.704532" lon="0.589757">
        <ele>3.011</ele>
        <time>1970-01-01T00:55:55Z</time>
      </trkpt>
      <trkpt lat="40.704466" lon="0.589713">
        <ele>3.068</ele>
        <time>1970-01-01T00:55:56Z</time>
      </trkpt>
      <trkpt lat="40.704404" lon="0.589669">
        <ele>2.849</ele>
        <time>1970-01-01T00:55:57Z</time>
      </trkpt>
      <trkpt lat="40.704348" lon="0.589629">
        <ele>2.792</ele>
        <time>1970-01-01T00:55:58Z</time>
      </trkpt>
      <trkpt lat="40.704299" lon="0.589590">
        <ele>2.552</ele>
        <time>1970-01-01T00:55:59Z</time>
      </trkpt>
      <trkpt lat="40.704252" lon="0.589560">
        <ele>2.498</ele>
        <time>1970-01-01T00:56:00Z</time>
      </trkpt>
      <trkpt lat="40.704203" lon="0.589538">
        <ele>2.312</ele>
        <time>1970-01-01T00:56:01Z</time>
      </trkpt>
      <trkpt lat="40.704168" lon="0.589535">
        <ele>2.323</ele>
        <time>1970-01-01T00:56:02Z</time>
      </trkpt>
      <trkpt lat="40.704138" lon="0.589550">
        <ele>2.455</ele>
        <time>1970-01-01T00:56:03Z</time>
      </trkpt>
      <trkpt lat="40.704113" lon="0.589568">
        <ele>2.607</ele>
        <time>1970-01-01T00:56:04Z</time>
      </trkpt>
      <trkpt lat="40.704098" lon="0.589580">
        <ele>2.617</ele>
        <time>1970-01-01T00:56:05Z</time>
      </trkpt>
      <trkpt lat="40.704093" lon="0.589584">
        <ele>2.608</ele>
        <time>1970-01-01T00:56:06Z</time>
      </trkpt>
      <trkpt lat="40.704092" lon="0.589583">
        <ele>2.692</ele>
        <time>1970-01-01T00:56:07Z</time>
      </trkpt>
      <trkpt lat="40.704042" lon="0.589641">
        <ele>2.849</ele>
        <time>1970-01-01T00:56:13Z</time>
      </trkpt>
      <trkpt lat="40.704014" lon="0.589665">
        <ele>2.950</ele>
        <time>1970-01-01T00:56:14Z</time>
      </trkpt>
      <trkpt lat="40.703984" lon="0.589683">
        <ele>3.073</ele>
        <time>1970-01-01T00:56:15Z</time>
      </trkpt>
      <trkpt lat="40.703954" lon="0.589700">
        <ele>3.043</ele>
        <time>1970-01-01T00:56:16Z</time>
      </trkpt>
      <trkpt lat="40.703924" lon="0.589716">
        <ele>3.059</ele>
        <time>1970-01-01T00:56:17Z</time>
      </trkpt>
      <trkpt lat="40.703896" lon="0.589732">
        <ele>3.063</ele>
        <time>1970-01-01T00:56:18Z</time>
      </trkpt>
      <trkpt lat="40.703868" lon="0.589751">
        <ele>3.144</ele>
        <time>1970-01-01T00:56:19Z</time>
      </trkpt>
      <trkpt lat="40.703840" lon="0.589770">
        <ele>3.252</ele>
        <time>1970-01-01T00:56:20Z</time>
      </trkpt>
      <trkpt lat="40.703809" lon="0.589789">
        <ele>3.353</ele>
        <time>1970-01-01T00:56:21Z</time>
      </trkpt>
      <trkpt lat="40.703776" lon="0.589806">
        <ele>3.408</ele>
        <time>1970-01-01T00:56:22Z</time>
      </trkpt>
      <trkpt lat="40.703741" lon="0.589818">
        <ele>3.508</ele>
        <time>1970-01-01T00:56:23Z</time>
      </trkpt>
      <trkpt lat="40.703702" lon="0.589826">
        <ele>3.742</ele>
        <time>1970-01-01T00:56:24Z</time>
      </trkpt>
      <trkpt lat="40.703659" lon="0.589822">
        <ele>3.889</ele>
        <time>1970-01-01T00:56:25Z</time>
      </trkpt>
      <trkpt lat="40.703617" lon="0.589810">
        <ele>4.050</ele>
        <time>1970-01-01T00:56:26Z</time>
      </trkpt>
      <trkpt lat="40.703574" lon="0.589793">
        <ele>3.973</ele>
        <time>1970-01-01T00:56:27Z</time>
      </trkpt>
      <trkpt lat="40.703529" lon="0.589776">
        <ele>3.823</ele>
        <time>1970-01-01T00:56:28Z</time>
      </trkpt>
      <trkpt lat="40.703483" lon="0.589763">
        <ele>3.689</ele>
        <time>1970-01-01T00:56:29Z</time>
      </trkpt>
      <trkpt lat="40.703436" lon="0.589757">
        <ele>3.463</ele>
        <time>1970-01-01T00:56:30Z</time>
      </trkpt>
      <trkpt lat="40.703389" lon="0.589758">
        <ele>3.374</ele>
        <time>1970-01-01T00:56:31Z</time>
      </trkpt>
      <trkpt lat="40.703341" lon="0.589763">
        <ele>3.216</ele>
        <time>1970-01-01T00:56:32Z</time>
      </trkpt>
      <trkpt lat="40.703292" lon="0.589768">
        <ele>2.876</ele>
        <time>1970-01-01T00:56:33Z</time>
      </trkpt>
      <trkpt lat="40.703240" lon="0.589773">
        <ele>2.413</ele>
        <time>1970-01-01T00:56:34Z</time>
      </trkpt>
      <trkpt lat="40.703186" lon="0.589778">
        <ele>2.008</ele>
        <time>1970-01-01T00:56:35Z</time>
      </trkpt>
      <trkpt lat="40.703129" lon="0.589785">
        <ele>1.628</ele>
        <time>1970-01-01T00:56:36Z</time>
      </trkpt>
      <trkpt lat="40.703071" lon="0.589795">
        <ele>1.165</ele>
        <time>1970-01-01T00:56:37Z</time>
      </trkpt>
      <trkpt lat="40.703011" lon="0.589806">
        <ele>0.636</ele>
        <time>1970-01-01T00:56:38Z</time>
      </trkpt>
      <trkpt lat="40.702950" lon="0.589814">
        <ele>0.139</ele>
        <time>1970-01-01T00:56:39Z</time>
      </trkpt>
      <trkpt lat="40.702888" lon="0.589823">
        <ele>-0.459</ele>
        <time>1970-01-01T00:56:40Z</time>
      </trkpt>
      <trkpt lat="40.702827" lon="0.589832">
        <ele>-1.045</ele>
        <time>1970-01-01T00:56:41Z</time>
      </trkpt>
      <trkpt lat="40.702766" lon="0.589841">
        <ele>-1.549</ele>
        <time>1970-01-01T00:56:42Z</time>
      </trkpt>
      <trkpt lat="40.702707" lon="0.589852">
        <ele>-2.010</ele>
        <time>1970-01-01T00:56:43Z</time>
      </trkpt>
      <trkpt lat="40.702647" lon="0.589866">
        <ele>-2.554</ele>
        <time>1970-01-01T00:56:44Z</time>
      </trkpt>
      <trkpt lat="40.702588" lon="0.589883">
        <ele>-2.956</ele>
        <time>1970-01-01T00:56:45Z</time>
      </trkpt>
      <trkpt lat="40.702531" lon="0.589904">
        <ele>-3.411</ele>
        <time>1970-01-01T00:56:46Z</time>
      </trkpt>
      <trkpt lat="40.702473" lon="0.589927">
        <ele>-3.608</ele>
        <time>1970-01-01T00:56:47Z</time>
      </trkpt>
      <trkpt lat="40.702416" lon="0.589953">
        <ele>-3.562</ele>
        <time>1970-01-01T00:56:48Z</time>
      </trkpt>
      <trkpt lat="40.702359" lon="0.589979">
        <ele>-3.429</ele>
        <time>1970-01-01T00:56:49Z</time>
      </trkpt>
      <trkpt lat="40.702302" lon="0.590006">
        <ele>-3.390</ele>
        <time>1970-01-01T00:56:50Z</time>
      </trkpt>
      <trkpt lat="40.702244" lon="0.590031">
        <ele>-3.163</ele>
        <time>1970-01-01T00:56:51Z</time>
      </trkpt>
      <trkpt lat="40.702184" lon="0.590056">
        <ele>-2.683</ele>
        <time>1970-01-01T00:56:52Z</time>
      </trkpt>
      <trkpt lat="40.702123" lon="0.590081">
        <ele>-2.039</ele>
        <time>1970-01-01T00:56:53Z</time>
      </trkpt>
      <trkpt lat="40.702061" lon="0.590107">
        <ele>-1.533</ele>
        <time>1970-01-01T00:56:54Z</time>
      </trkpt>
      <trkpt lat="40.702001" lon="0.590135">
        <ele>-1.074</ele>
        <time>1970-01-01T00:56:55Z</time>
      </trkpt>
      <trkpt lat="40.701939" lon="0.590164">
        <ele>-0.568</ele>
        <time>1970-01-01T00:56:56Z</time>
      </trkpt>
      <trkpt lat="40.701879" lon="0.590192">
        <ele>0.242</ele>
        <time>1970-01-01T00:56:57Z</time>
      </trkpt>
      <trkpt lat="40.701820" lon="0.590219">
        <ele>0.926</ele>
        <time>1970-01-01T00:56:58Z</time>
      </trkpt>
      <trkpt lat="40.701762" lon="0.590244">
        <ele>1.708</ele>
        <time>1970-01-01T00:56:59Z</time>
      </trkpt>
      <trkpt lat="40.701702" lon="0.590268">
        <ele>2.563</ele>
        <time>1970-01-01T00:57:00Z</time>
      </trkpt>
      <trkpt lat="40.701641" lon="0.590293">
        <ele>3.070</ele>
        <time>1970-01-01T00:57:01Z</time>
      </trkpt>
      <trkpt lat="40.701581" lon="0.590320">
        <ele>3.041</ele>
        <time>1970-01-01T00:57:02Z</time>
      </trkpt>
      <trkpt lat="40.701522" lon="0.590349">
        <ele>3.054</ele>
        <time>1970-01-01T00:57:03Z</time>
      </trkpt>
      <trkpt lat="40.701462" lon="0.590379">
        <ele>3.084</ele>
        <time>1970-01-01T00:57:04Z</time>
      </trkpt>
      <trkpt lat="40.701402" lon="0.590407">
        <ele>3.010</ele>
        <time>1970-01-01T00:57:05Z</time>
      </trkpt>
      <trkpt lat="40.701340" lon="0.590436">
        <ele>2.624</ele>
        <time>1970-01-01T00:57:06Z</time>
      </trkpt>
      <trkpt lat="40.701278" lon="0.590465">
        <ele>2.235</ele>
        <time>1970-01-01T00:57:07Z</time>
      </trkpt>
      <trkpt lat="40.701215" lon="0.590494">
        <ele>1.782</ele>
        <time>1970-01-01T00:57:08Z</time>
      </trkpt>
      <trkpt lat="40.701153" lon="0.590523">
        <ele>1.343</ele>
        <time>1970-01-01T00:57:09Z</time>
      </trkpt>
      <trkpt lat="40.701090" lon="0.590553">
        <ele>0.817</ele>
        <time>1970-01-01T00:57:10Z</time>
      </trkpt>
      <trkpt lat="40.701028" lon="0.590584">
        <ele>0.008</ele>
        <time>1970-01-01T00:57:11Z</time>
      </trkpt>
      <trkpt lat="40.700963" lon="0.590613">
        <ele>-0.735</ele>
        <time>1970-01-01T00:57:12Z</time>
      </trkpt>
      <trkpt lat="40.700899" lon="0.590639">
        <ele>-1.472</ele>
        <time>1970-01-01T00:57:13Z</time>
      </trkpt>
      <trkpt lat="40.700834" lon="0.590665">
        <ele>-2.033</ele>
        <time>1970-01-01T00:57:14Z</time>
      </trkpt>
      <trkpt lat="40.700769" lon="0.590691">
        <ele>-2.216</ele>
        <time>1970-01-01T00:57:15Z</time>
      </trkpt>
      <trkpt lat="40.700705" lon="0.590719">
        <ele>-2.556</ele>
        <time>1970-01-01T00:57:16Z</time>
      </trkpt>
      <trkpt lat="40.700641" lon="0.590746">
        <ele>-2.762</ele>
        <time>1970-01-01T00:57:17Z</time>
      </trkpt>
      <trkpt lat="40.700578" lon="0.590773">
        <ele>-2.956</ele>
        <time>1970-01-01T00:57:18Z</time>
      </trkpt>
      <trkpt lat="40.700514" lon="0.590801">
        <ele>-2.737</ele>
        <time>1970-01-01T00:57:19Z</time>
      </trkpt>
      <trkpt lat="40.700449" lon="0.590830">
        <ele>-2.223</ele>
        <time>1970-01-01T00:57:20Z</time>
      </trkpt>
      <trkpt lat="40.700384" lon="0.590859">
        <ele>-1.783</ele>
        <time>1970-01-01T00:57:21Z</time>
      </trkpt>
      <trkpt lat="40.700317" lon="0.590887">
        <ele>-1.311</ele>
        <time>1970-01-01T00:57:22Z</time>
      </trkpt>
      <trkpt lat="40.700251" lon="0.590916">
        <ele>-0.908</ele>
        <time>1970-01-01T00:57:23Z</time>
      </trkpt>
      <trkpt lat="40.700184" lon="0.590947">
        <ele>-0.639</ele>
        <time>1970-01-01T00:57:24Z</time>
      </trkpt>
      <trkpt lat="40.700118" lon="0.590979">
        <ele>-0.586</ele>
        <time>1970-01-01T00:57:25Z</time>
      </trkpt>
      <trkpt lat="40.700052" lon="0.591011">
        <ele>-0.417</ele>
        <time>1970-01-01T00:57:26Z</time>
      </trkpt>
      <trkpt lat="40.699986" lon="0.591046">
        <ele>-0.590</ele>
        <time>1970-01-01T00:57:27Z</time>
      </trkpt>
      <trkpt lat="40.699920" lon="0.591082">
        <ele>-0.560</ele>
        <time>1970-01-01T00:57:28Z</time>
      </trkpt>
      <trkpt lat="40.699856" lon="0.591121">
        <ele>-0.596</ele>
        <time>1970-01-01T00:57:29Z</time>
      </trkpt>
      <trkpt lat="40.699792" lon="0.591162">
        <ele>-0.350</ele>
        <time>1970-01-01T00:57:30Z</time>
      </trkpt>
      <trkpt lat="40.699731" lon="0.591207">
        <ele>-0.061</ele>
        <time>1970-01-01T00:57:31Z</time>
      </trkpt>
      <trkpt lat="40.699674" lon="0.591258">
        <ele>0.245</ele>
        <time>1970-01-01T00:57:32Z</time>
      </trkpt>
      <trkpt lat="40.699617" lon="0.591312">
        <ele>0.447</ele>
        <time>1970-01-01T00:57:33Z</time>
      </trkpt>
      <trkpt lat="40.699562" lon="0.591369">
        <ele>0.611</ele>
        <time>1970-01-01T00:57:34Z</time>
      </trkpt>
      <trkpt lat="40.699507" lon="0.591427">
        <ele>0.808</ele>
        <time>1970-01-01T00:57:35Z</time>
      </trkpt>
      <trkpt lat="40.699454" lon="0.591485">
        <ele>1.081</ele>
        <time>1970-01-01T00:57:36Z</time>
      </trkpt>
      <trkpt lat="40.699399" lon="0.591543">
        <ele>1.138</ele>
        <time>1970-01-01T00:57:37Z</time>
      </trkpt>
      <trkpt lat="40.699345" lon="0.591602">
        <ele>1.169</ele>
        <time>1970-01-01T00:57:38Z</time>
      </trkpt>
      <trkpt lat="40.699292" lon="0.591662">
        <ele>1.032</ele>
        <time>1970-01-01T00:57:39Z</time>
      </trkpt>
      <trkpt lat="40.699240" lon="0.591724">
        <ele>0.852</ele>
        <time>1970-01-01T00:57:40Z</time>
      </trkpt>
      <trkpt lat="40.699186" lon="0.591785">
        <ele>0.658</ele>
        <time>1970-01-01T00:57:41Z</time>
      </trkpt>
      <trkpt lat="40.699132" lon="0.591844">
        <ele>0.272</ele>
        <time>1970-01-01T00:57:42Z</time>
      </trkpt>
      <trkpt lat="40.699077" lon="0.591901">
        <ele>-0.213</ele>
        <time>1970-01-01T00:57:43Z</time>
      </trkpt>
      <trkpt lat="40.699022" lon="0.591957">
        <ele>-0.598</ele>
        <time>1970-01-01T00:57:44Z</time>
      </trkpt>
      <trkpt lat="40.698968" lon="0.592016">
        <ele>-0.515</ele>
        <time>1970-01-01T00:57:45Z</time>
      </trkpt>
      <trkpt lat="40.698915" lon="0.592075">
        <ele>-0.526</ele>
        <time>1970-01-01T00:57:46Z</time>
      </trkpt>
      <trkpt lat="40.698863" lon="0.592136">
        <ele>-0.408</ele>
        <time>1970-01-01T00:57:47Z</time>
      </trkpt>
      <trkpt lat="40.698811" lon="0.592196">
        <ele>-0.426</ele>
        <time>1970-01-01T00:57:48Z</time>
      </trkpt>
      <trkpt lat="40.698759" lon="0.592256">
        <ele>-0.553</ele>
        <time>1970-01-01T00:57:49Z</time>
      </trkpt>
      <trkpt lat="40.698708" lon="0.592316">
        <ele>-0.794</ele>
        <time>1970-01-01T00:57:50Z</time>
      </trkpt>
      <trkpt lat="40.698656" lon="0.592377">
        <ele>-0.877</ele>
        <time>1970-01-01T00:57:51Z</time>
      </trkpt>
      <trkpt lat="40.698603" lon="0.592436">
        <ele>-1.057</ele>
        <time>1970-01-01T00:57:52Z</time>
      </trkpt>
      <trkpt lat="40.698550" lon="0.592493">
        <ele>-0.833</ele>
        <time>1970-01-01T00:57:53Z</time>
      </trkpt>
      <trkpt lat="40.698499" lon="0.592549">
        <ele>-0.757</ele>
        <time>1970-01-01T00:57:54Z</time>
      </trkpt>
      <trkpt lat="40.698448" lon="0.592603">
        <ele>-0.648</ele>
        <time>1970-01-01T00:57:55Z</time>
      </trkpt>
      <trkpt lat="40.698398" lon="0.592657">
        <ele>-0.758</ele>
        <time>1970-01-01T00:57:56Z</time>
      </trkpt>
      <trkpt lat="40.698349" lon="0.592713">
        <ele>-0.852</ele>
        <time>1970-01-01T00:57:57Z</time>
      </trkpt>
      <trkpt lat="40.698302" lon="0.592770">
        <ele>-1.017</ele>
        <time>1970-01-01T00:57:58Z</time>
      </trkpt>
      <trkpt lat="40.698254" lon="0.592827">
        <ele>-1.108</ele>
        <time>1970-01-01T00:57:59Z</time>
      </trkpt>
      <trkpt lat="40.698205" lon="0.592884">
        <ele>-1.262</ele>
        <time>1970-01-01T00:58:00Z</time>
      </trkpt>
      <trkpt lat="40.698157" lon="0.592941">
        <ele>-1.299</ele>
        <time>1970-01-01T00:58:01Z</time>
      </trkpt>
      <trkpt lat="40.698111" lon="0.593002">
        <ele>-1.210</ele>
        <time>1970-01-01T00:58:02Z</time>
      </trkpt>
      <trkpt lat="40.698066" lon="0.593065">
        <ele>-1.073</ele>
        <time>1970-01-01T00:58:03Z</time>
      </trkpt>
      <trkpt lat="40.698021" lon="0.593129">
        <ele>-0.863</ele>
        <time>1970-01-01T00:58:04Z</time>
      </trkpt>
      <trkpt lat="40.697976" lon="0.593194">
        <ele>-0.699</ele>
        <time>1970-01-01T00:58:05Z</time>
      </trkpt>
      <trkpt lat="40.697929" lon="0.593259">
        <ele>-0.213</ele>
        <time>1970-01-01T00:58:06Z</time>
      </trkpt>
      <trkpt lat="40.697883" lon="0.593325">
        <ele>0.284</ele>
        <time>1970-01-01T00:58:07Z</time>
      </trkpt>
      <trkpt lat="40.697837" lon="0.593393">
        <ele>0.865</ele>
        <time>1970-01-01T00:58:08Z</time>
      </trkpt>
      <trkpt lat="40.697793" lon="0.593462">
        <ele>1.468</ele>
        <time>1970-01-01T00:58:09Z</time>
      </trkpt>
      <trkpt lat="40.697749" lon="0.593530">
        <ele>1.714</ele>
        <time>1970-01-01T00:58:10Z</time>
      </trkpt>
      <trkpt lat="40.697701" lon="0.593595">
        <ele>2.008</ele>
        <time>1970-01-01T00:58:11Z</time>
      </trkpt>
      <trkpt lat="40.697650" lon="0.593657">
        <ele>2.043</ele>
        <time>1970-01-01T00:58:12Z</time>
      </trkpt>
      <trkpt lat="40.697598" lon="0.593718">
        <ele>2.080</ele>
        <time>1970-01-01T00:58:13Z</time>
      </trkpt>
      <trkpt lat="40.697548" lon="0.593780">
        <ele>2.031</ele>
        <time>1970-01-01T00:58:14Z</time>
      </trkpt>
      <trkpt lat="40.697498" lon="0.593843">
        <ele>2.064</ele>
        <time>1970-01-01T00:58:15Z</time>
      </trkpt>
      <trkpt lat="40.697448" lon="0.593907">
        <ele>1.764</ele>
        <time>1970-01-01T00:58:16Z</time>
      </trkpt>
      <trkpt lat="40.697399" lon="0.593972">
        <ele>1.320</ele>
        <time>1970-01-01T00:58:17Z</time>
      </trkpt>
      <trkpt lat="40.697352" lon="0.594039">
        <ele>0.994</ele>
        <time>1970-01-01T00:58:18Z</time>
      </trkpt>
      <trkpt lat="40.697305" lon="0.594107">
        <ele>0.515</ele>
        <time>1970-01-01T00:58:19Z</time>
      </trkpt>
      <trkpt lat="40.697258" lon="0.594175">
        <ele>0.189</ele>
        <time>1970-01-01T00:58:20Z</time>
      </trkpt>
      <trkpt lat="40.697211" lon="0.594241">
        <ele>-0.506</ele>
        <time>1970-01-01T00:58:21Z</time>
      </trkpt>
      <trkpt lat="40.697166" lon="0.594309">
        <ele>-0.826</ele>
        <time>1970-01-01T00:58:22Z</time>
      </trkpt>
      <trkpt lat="40.697123" lon="0.594380">
        <ele>-1.008</ele>
        <time>1970-01-01T00:58:23Z</time>
      </trkpt>
      <trkpt lat="40.697082" lon="0.594452">
        <ele>-1.085</ele>
        <time>1970-01-01T00:58:24Z</time>
      </trkpt>
      <trkpt lat="40.697039" lon="0.594522">
        <ele>-0.962</ele>
        <time>1970-01-01T00:58:25Z</time>
      </trkpt>
      <trkpt lat="40.696996" lon="0.594590">
        <ele>-0.893</ele>
        <time>1970-01-01T00:58:26Z</time>
      </trkpt>
      <trkpt lat="40.696952" lon="0.594660">
        <ele>-0.876</ele>
        <time>1970-01-01T00:58:27Z</time>
      </trkpt>
      <trkpt lat="40.696908" lon="0.594731">
        <ele>-0.966</ele>
        <time>1970-01-01T00:58:28Z</time>
      </trkpt>
      <trkpt lat="40.696866" lon="0.594802">
        <ele>-0.812</ele>
        <time>1970-01-01T00:58:29Z</time>
      </trkpt>
      <trkpt lat="40.696824" lon="0.594872">
        <ele>-0.846</ele>
        <time>1970-01-01T00:58:30Z</time>
      </trkpt>
      <trkpt lat="40.696780" lon="0.594941">
        <ele>-0.987</ele>
        <time>1970-01-01T00:58:31Z</time>
      </trkpt>
      <trkpt lat="40.696738" lon="0.595009">
        <ele>-1.081</ele>
        <time>1970-01-01T00:58:32Z</time>
      </trkpt>
      <trkpt lat="40.696695" lon="0.595078">
        <ele>-1.061</ele>
        <time>1970-01-01T00:58:33Z</time>
      </trkpt>
      <trkpt lat="40.696654" lon="0.595147">
        <ele>-1.017</ele>
        <time>1970-01-01T00:58:34Z</time>
      </trkpt>
      <trkpt lat="40.696612" lon="0.595214">
        <ele>-0.808</ele>
        <time>1970-01-01T00:58:35Z</time>
      </trkpt>
      <trkpt lat="40.696568" lon="0.595280">
        <ele>-0.685</ele>
        <time>1970-01-01T00:58:36Z</time>
      </trkpt>
      <trkpt lat="40.696524" lon="0.595343">
        <ele>-0.462</ele>
        <time>1970-01-01T00:58:37Z</time>
      </trkpt>
      <trkpt lat="40.696480" lon="0.595404">
        <ele>-0.273</ele>
        <time>1970-01-01T00:58:38Z</time>
      </trkpt>
      <trkpt lat="40.696438" lon="0.595466">
        <ele>-0.126</ele>
        <time>1970-01-01T00:58:39Z</time>
      </trkpt>
      <trkpt lat="40.696396" lon="0.595529">
        <ele>-0.026</ele>
        <time>1970-01-01T00:58:40Z</time>
      </trkpt>
      <trkpt lat="40.696355" lon="0.595595">
        <ele>0.192</ele>
        <time>1970-01-01T00:58:41Z</time>
      </trkpt>
      <trkpt lat="40.696315" lon="0.595663">
        <ele>0.356</ele>
        <time>1970-01-01T00:58:42Z</time>
      </trkpt>
      <trkpt lat="40.696276" lon="0.595730">
        <ele>0.477</ele>
        <time>1970-01-01T00:58:43Z</time>
      </trkpt>
      <trkpt lat="40.696235" lon="0.595795">
        <ele>0.451</ele>
        <time>1970-01-01T00:58:44Z</time>
      </trkpt>
      <trkpt lat="40.696193" lon="0.595860">
        <ele>0.201</ele>
        <time>1970-01-01T00:58:45Z</time>
      </trkpt>
      <trkpt lat="40.696152" lon="0.595927">
        <ele>-0.211</ele>
        <time>1970-01-01T00:58:46Z</time>
      </trkpt>
      <trkpt lat="40.696111" lon="0.595995">
        <ele>-0.608</ele>
        <time>1970-01-01T00:58:47Z</time>
      </trkpt>
      <trkpt lat="40.696070" lon="0.596064">
        <ele>-0.942</ele>
        <time>1970-01-01T00:58:48Z</time>
      </trkpt>
      <trkpt lat="40.696030" lon="0.596133">
        <ele>-1.049</ele>
        <time>1970-01-01T00:58:49Z</time>
      </trkpt>
      <trkpt lat="40.695989" lon="0.596200">
        <ele>-1.030</ele>
        <time>1970-01-01T00:58:50Z</time>
      </trkpt>
      <trkpt lat="40.695943" lon="0.596262">
        <ele>-1.043</ele>
        <time>1970-01-01T00:58:51Z</time>
      </trkpt>
      <trkpt lat="40.695893" lon="0.596317">
        <ele>-1.043</ele>
        <time>1970-01-01T00:58:52Z</time>
      </trkpt>
      <trkpt lat="40.695839" lon="0.596362">
        <ele>-1.019</ele>
        <time>1970-01-01T00:58:53Z</time>
      </trkpt>
      <trkpt lat="40.695781" lon="0.596399">
        <ele>-0.933</ele>
        <time>1970-01-01T00:58:54Z</time>
      </trkpt>
      <trkpt lat="40.695720" lon="0.596426">
        <ele>-0.864</ele>
        <time>1970-01-01T00:58:55Z</time>
      </trkpt>
      <trkpt lat="40.695657" lon="0.596448">
        <ele>-0.868</ele>
        <time>1970-01-01T00:58:56Z</time>
      </trkpt>
      <trkpt lat="40.695594" lon="0.596468">
        <ele>-0.942</ele>
        <time>1970-01-01T00:58:57Z</time>
      </trkpt>
      <trkpt lat="40.695534" lon="0.596492">
        <ele>-1.026</ele>
        <time>1970-01-01T00:58:58Z</time>
      </trkpt>
      <trkpt lat="40.695473" lon="0.596515">
        <ele>-1.008</ele>
        <time>1970-01-01T00:58:59Z</time>
      </trkpt>
      <trkpt lat="40.695411" lon="0.596536">
        <ele>-1.063</ele>
        <time>1970-01-01T00:59:00Z</time>
      </trkpt>
      <trkpt lat="40.695347" lon="0.596556">
        <ele>-1.090</ele>
        <time>1970-01-01T00:59:01Z</time>
      </trkpt>
      <trkpt lat="40.695284" lon="0.596576">
        <ele>-1.031</ele>
        <time>1970-01-01T00:59:02Z</time>
      </trkpt>
      <trkpt lat="40.695220" lon="0.596596">
        <ele>-0.824</ele>
        <time>1970-01-01T00:59:03Z</time>
      </trkpt>
      <trkpt lat="40.695158" lon="0.596616">
        <ele>-0.654</ele>
        <time>1970-01-01T00:59:04Z</time>
      </trkpt>
      <trkpt lat="40.695091" lon="0.596634">
        <ele>-0.410</ele>
        <time>1970-01-01T00:59:05Z</time>
      </trkpt>
      <trkpt lat="40.695025" lon="0.596654">
        <ele>-0.154</ele>
        <time>1970-01-01T00:59:06Z</time>
      </trkpt>
      <trkpt lat="40.694960" lon="0.596673">
        <ele>0.015</ele>
        <time>1970-01-01T00:59:07Z</time>
      </trkpt>
      <trkpt lat="40.694895" lon="0.596692">
        <ele>0.019</ele>
        <time>1970-01-01T00:59:08Z</time>
      </trkpt>
      <trkpt lat="40.694829" lon="0.596711">
        <ele>0.009</ele>
        <time>1970-01-01T00:59:09Z</time>
      </trkpt>
      <trkpt lat="40.694765" lon="0.596730">
        <ele>0.019</ele>
        <time>1970-01-01T00:59:10Z</time>
      </trkpt>
      <trkpt lat="40.694700" lon="0.596750">
        <ele>0.008</ele>
        <time>1970-01-01T00:59:11Z</time>
      </trkpt>
      <trkpt lat="40.694635" lon="0.596769">
        <ele>0.118</ele>
        <time>1970-01-01T00:59:12Z</time>
      </trkpt>
      <trkpt lat="40.694569" lon="0.596787">
        <ele>0.195</ele>
        <time>1970-01-01T00:59:13Z</time>
      </trkpt>
      <trkpt lat="40.694502" lon="0.596806">
        <ele>-0.016</ele>
        <time>1970-01-01T00:59:14Z</time>
      </trkpt>
      <trkpt lat="40.694435" lon="0.596827">
        <ele>-0.169</ele>
        <time>1970-01-01T00:59:15Z</time>
      </trkpt>
      <trkpt lat="40.694370" lon="0.596849">
        <ele>-0.149</ele>
        <time>1970-01-01T00:59:16Z</time>
      </trkpt>
      <trkpt lat="40.694305" lon="0.596870">
        <ele>-0.165</ele>
        <time>1970-01-01T00:59:17Z</time>
      </trkpt>
      <trkpt lat="40.694239" lon="0.596891">
        <ele>-0.059</ele>
        <time>1970-01-01T00:59:18Z</time>
      </trkpt>
      <trkpt lat="40.694173" lon="0.596913">
        <ele>0.180</ele>
        <time>1970-01-01T00:59:19Z</time>
      </trkpt>
      <trkpt lat="40.694106" lon="0.596933">
        <ele>0.048</ele>
        <time>1970-01-01T00:59:20Z</time>
      </trkpt>
      <trkpt lat="40.694041" lon="0.596955">
        <ele>0.061</ele>
        <time>1970-01-01T00:59:21Z</time>
      </trkpt>
      <trkpt lat="40.693975" lon="0.596975">
        <ele>0.017</ele>
        <time>1970-01-01T00:59:22Z</time>
      </trkpt>
      <trkpt lat="40.693908" lon="0.596996">
        <ele>0.008</ele>
        <time>1970-01-01T00:59:23Z</time>
      </trkpt>
      <trkpt lat="40.693841" lon="0.597017">
        <ele>-0.051</ele>
        <time>1970-01-01T00:59:24Z</time>
      </trkpt>
      <trkpt lat="40.693774" lon="0.597039">
        <ele>-0.148</ele>
        <time>1970-01-01T00:59:25Z</time>
      </trkpt>
      <trkpt lat="40.693706" lon="0.597061">
        <ele>-0.359</ele>
        <time>1970-01-01T00:59:26Z</time>
      </trkpt>
      <trkpt lat="40.693639" lon="0.597085">
        <ele>-0.582</ele>
        <time>1970-01-01T00:59:27Z</time>
      </trkpt>
      <trkpt lat="40.693570" lon="0.597106">
        <ele>-0.882</ele>
        <time>1970-01-01T00:59:28Z</time>
      </trkpt>
      <trkpt lat="40.693501" lon="0.597129">
        <ele>-1.328</ele>
        <time>1970-01-01T00:59:29Z</time>
      </trkpt>
      <trkpt lat="40.693431" lon="0.597151">
        <ele>-1.932</ele>
        <time>1970-01-01T00:59:30Z</time>
      </trkpt>
      <trkpt lat="40.693363" lon="0.597176">
        <ele>-2.523</ele>
        <time>1970-01-01T00:59:31Z</time>
      </trkpt>
      <trkpt lat="40.693295" lon="0.597199">
        <ele>-2.824</ele>
        <time>1970-01-01T00:59:32Z</time>
      </trkpt>
      <trkpt lat="40.693227" lon="0.597222">
        <ele>-3.004</ele>
        <time>1970-01-01T00:59:33Z</time>
      </trkpt>
      <trkpt lat="40.693158" lon="0.597243">
        <ele>-3.014</ele>
        <time>1970-01-01T00:59:34Z</time>
      </trkpt>
      <trkpt lat="40.693088" lon="0.597263">
        <ele>-3.008</ele>
        <time>1970-01-01T00:59:35Z</time>
      </trkpt>
      <trkpt lat="40.693018" lon="0.597281">
        <ele>-2.749</ele>
        <time>1970-01-01T00:59:36Z</time>
      </trkpt>
      <trkpt lat="40.692949" lon="0.597301">
        <ele>-2.176</ele>
        <time>1970-01-01T00:59:37Z</time>
      </trkpt>
      <trkpt lat="40.692882" lon="0.597321">
        <ele>-1.587</ele>
        <time>1970-01-01T00:59:38Z</time>
      </trkpt>
      <trkpt lat="40.692814" lon="0.597340">
        <ele>-0.990</ele>
        <time>1970-01-01T00:59:39Z</time>
      </trkpt>
      <trkpt lat="40.692744" lon="0.597358">
        <ele>-0.420</ele>
        <time>1970-01-01T00:59:40Z</time>
      </trkpt>
      <trkpt lat="40.692676" lon="0.597381">
        <ele>-0.156</ele>
        <time>1970-01-01T00:59:41Z</time>
      </trkpt>
      <trkpt lat="40.692609" lon="0.597405">
        <ele>0.340</ele>
        <time>1970-01-01T00:59:42Z</time>
      </trkpt>
      <trkpt lat="40.692541" lon="0.597428">
        <ele>0.651</ele>
        <time>1970-01-01T00:59:43Z</time>
      </trkpt>
      <trkpt lat="40.692472" lon="0.597450">
        <ele>0.854</ele>
        <time>1970-01-01T00:59:44Z</time>
      </trkpt>
      <trkpt lat="40.692403" lon="0.597469">
        <ele>0.956</ele>
        <time>1970-01-01T00:59:45Z</time>
      </trkpt>
      <trkpt lat="40.692334" lon="0.597488">
        <ele>1.011</ele>
        <time>1970-01-01T00:59:46Z</time>
      </trkpt>
      <trkpt lat="40.692265" lon="0.597508">
        <ele>1.008</ele>
        <time>1970-01-01T00:59:47Z</time>
      </trkpt>
      <trkpt lat="40.692196" lon="0.597529">
        <ele>1.062</ele>
        <time>1970-01-01T00:59:48Z</time>
      </trkpt>
      <trkpt lat="40.692127" lon="0.597551">
        <ele>0.989</ele>
        <time>1970-01-01T00:59:49Z</time>
      </trkpt>
      <trkpt lat="40.692057" lon="0.597569">
        <ele>0.990</ele>
        <time>1970-01-01T00:59:50Z</time>
      </trkpt>
      <trkpt lat="40.691988" lon="0.597587">
        <ele>0.753</ele>
        <time>1970-01-01T00:59:51Z</time>
      </trkpt>
      <trkpt lat="40.691919" lon="0.597608">
        <ele>0.683</ele>
        <time>1970-01-01T00:59:52Z</time>
      </trkpt>
      <trkpt lat="40.691850" lon="0.597630">
        <ele>0.469</ele>
        <time>1970-01-01T00:59:53Z</time>
      </trkpt>
      <trkpt lat="40.691782" lon="0.597652">
        <ele>0.223</ele>
        <time>1970-01-01T00:59:54Z</time>
      </trkpt>
      <trkpt lat="40.691716" lon="0.597672">
        <ele>0.144</ele>
        <time>1970-01-01T00:59:55Z</time>
      </trkpt>
      <trkpt lat="40.691650" lon="0.597691">
        <ele>0.044</ele>
        <time>1970-01-01T00:59:56Z</time>
      </trkpt>
      <trkpt lat="40.691584" lon="0.597711">
        <ele>0.005</ele>
        <time>1970-01-01T00:59:57Z</time>
      </trkpt>
      <trkpt lat="40.691518" lon="0.597732">
        <ele>0.015</ele>
        <time>1970-01-01T00:59:58Z</time>
      </trkpt>
      <trkpt lat="40.691450" lon="0.597751">
        <ele>0.008</ele>
        <time>1970-01-01T00:59:59Z</time>
      </trkpt>
      <trkpt lat="40.691383" lon="0.597772">
        <ele>0.041</ele>
        <time>2021-06-01T05:39:57Z</time>
      </trkpt>
      <trkpt lat="40.691317" lon="0.597794">
        <ele>0.268</ele>
        <time>1970-01-01T01:00:01Z</time>
      </trkpt>
      <trkpt lat="40.691252" lon="0.597816">
        <ele>0.449</ele>
        <time>1970-01-01T01:00:02Z</time>
      </trkpt>
      <trkpt lat="40.691185" lon="0.597836">
        <ele>0.542</ele>
        <time>1970-01-01T01:00:03Z</time>
      </trkpt>
      <trkpt lat="40.691119" lon="0.597858">
        <ele>0.782</ele>
        <time>1970-01-01T01:00:04Z</time>
      </trkpt>
      <trkpt lat="40.691054" lon="0.597882">
        <ele>0.658</ele>
        <time>1970-01-01T01:00:05Z</time>
      </trkpt>
      <trkpt lat="40.690987" lon="0.597906">
        <ele>0.562</ele>
        <time>1970-01-01T01:00:06Z</time>
      </trkpt>
      <trkpt lat="40.690918" lon="0.597928">
        <ele>0.543</ele>
        <time>1970-01-01T01:00:07Z</time>
      </trkpt>
      <trkpt lat="40.690850" lon="0.597948">
        <ele>0.613</ele>
        <time>1970-01-01T01:00:08Z</time>
      </trkpt>
      <trkpt lat="40.690786" lon="0.597968">
        <ele>0.643</ele>
        <time>1970-01-01T01:00:09Z</time>
      </trkpt>
      <trkpt lat="40.690719" lon="0.597989">
        <ele>0.407</ele>
        <time>1970-01-01T01:00:10Z</time>
      </trkpt>
      <trkpt lat="40.690651" lon="0.598008">
        <ele>0.308</ele>
        <time>1970-01-01T01:00:11Z</time>
      </trkpt>
      <trkpt lat="40.690584" lon="0.598029">
        <ele>0.178</ele>
        <time>1970-01-01T01:00:12Z</time>
      </trkpt>
      <trkpt lat="40.690516" lon="0.598051">
        <ele>-0.025</ele>
        <time>1970-01-01T01:00:13Z</time>
      </trkpt>
      <trkpt lat="40.690449" lon="0.598074">
        <ele>0.046</ele>
        <time>1970-01-01T01:00:14Z</time>
      </trkpt>
      <trkpt lat="40.690381" lon="0.598097">
        <ele>0.139</ele>
        <time>1970-01-01T01:00:15Z</time>
      </trkpt>
      <trkpt lat="40.690314" lon="0.598118">
        <ele>0.049</ele>
        <time>1970-01-01T01:00:16Z</time>
      </trkpt>
      <trkpt lat="40.690244" lon="0.598137">
        <ele>-0.195</ele>
        <time>1970-01-01T01:00:17Z</time>
      </trkpt>
      <trkpt lat="40.690175" lon="0.598159">
        <ele>-0.219</ele>
        <time>1970-01-01T01:00:18Z</time>
      </trkpt>
      <trkpt lat="40.690104" lon="0.598184">
        <ele>-0.390</ele>
        <time>1970-01-01T01:00:19Z</time>
      </trkpt>
      <trkpt lat="40.690033" lon="0.598207">
        <ele>-0.424</ele>
        <time>1970-01-01T01:00:20Z</time>
      </trkpt>
      <trkpt lat="40.689963" lon="0.598227">
        <ele>-0.404</ele>
        <time>1970-01-01T01:00:21Z</time>
      </trkpt>
      <trkpt lat="40.689893" lon="0.598246">
        <ele>-0.414</ele>
        <time>1970-01-01T01:00:22Z</time>
      </trkpt>
      <trkpt lat="40.689825" lon="0.598269">
        <ele>-0.408</ele>
        <time>1970-01-01T01:00:23Z</time>
      </trkpt>
      <trkpt lat="40.689756" lon="0.598293">
        <ele>-0.319</ele>
        <time>1970-01-01T01:00:24Z</time>
      </trkpt>
      <trkpt lat="40.689685" lon="0.598316">
        <ele>-0.256</ele>
        <time>1970-01-01T01:00:25Z</time>
      </trkpt>
      <trkpt lat="40.689619" lon="0.598338">
        <ele>-0.477</ele>
        <time>1970-01-01T01:00:26Z</time>
      </trkpt>
      <trkpt lat="40.689552" lon="0.598360">
        <ele>-0.590</ele>
        <time>1970-01-01T01:00:27Z</time>
      </trkpt>
      <trkpt lat="40.689482" lon="0.598383">
        <ele>-0.790</ele>
        <time>1970-01-01T01:00:28Z</time>
      </trkpt>
      <trkpt lat="40.689412" lon="0.598405">
        <ele>-0.726</ele>
        <time>1970-01-01T01:00:29Z</time>
      </trkpt>
      <trkpt lat="40.689342" lon="0.598425">
        <ele>-0.780</ele>
        <time>1970-01-01T01:00:30Z</time>
      </trkpt>
      <trkpt lat="40.689271" lon="0.598446">
        <ele>-0.631</ele>
        <time>1970-01-01T01:00:31Z</time>
      </trkpt>
      <trkpt lat="40.689201" lon="0.598468">
        <ele>-0.552</ele>
        <time>1970-01-01T01:00:32Z</time>
      </trkpt>
      <trkpt lat="40.689128" lon="0.598489">
        <ele>-0.253</ele>
        <time>1970-01-01T01:00:33Z</time>
      </trkpt>
      <trkpt lat="40.689057" lon="0.598511">
        <ele>0.208</ele>
        <time>1970-01-01T01:00:34Z</time>
      </trkpt>
      <trkpt lat="40.688989" lon="0.598536">
        <ele>0.508</ele>
        <time>1970-01-01T01:00:35Z</time>
      </trkpt>
      <trkpt lat="40.688921" lon="0.598560">
        <ele>0.942</ele>
        <time>1970-01-01T01:00:36Z</time>
      </trkpt>
      <trkpt lat="40.688853" lon="0.598583">
        <ele>0.959</ele>
        <time>1970-01-01T01:00:37Z</time>
      </trkpt>
      <trkpt lat="40.688787" lon="0.598604">
        <ele>0.690</ele>
        <time>1970-01-01T01:00:38Z</time>
      </trkpt>
      <trkpt lat="40.688718" lon="0.598624">
        <ele>0.363</ele>
        <time>1970-01-01T01:00:39Z</time>
      </trkpt>
      <trkpt lat="40.688651" lon="0.598645">
        <ele>0.083</ele>
        <time>1970-01-01T01:00:40Z</time>
      </trkpt>
      <trkpt lat="40.688584" lon="0.598667">
        <ele>-0.299</ele>
        <time>1970-01-01T01:00:41Z</time>
      </trkpt>
      <trkpt lat="40.688515" lon="0.598686">
        <ele>-0.353</ele>
        <time>1970-01-01T01:00:42Z</time>
      </trkpt>
      <trkpt lat="40.688446" lon="0.598705">
        <ele>-0.324</ele>
        <time>1970-01-01T01:00:43Z</time>
      </trkpt>
      <trkpt lat="40.688380" lon="0.598725">
        <ele>-0.481</ele>
        <time>1970-01-01T01:00:44Z</time>
      </trkpt>
      <trkpt lat="40.688314" lon="0.598745">
        <ele>-0.561</ele>
        <time>1970-01-01T01:00:45Z</time>
      </trkpt>
      <trkpt lat="40.688248" lon="0.598766">
        <ele>-0.717</ele>
        <time>1970-01-01T01:00:46Z</time>
      </trkpt>
      <trkpt lat="40.688184" lon="0.598791">
        <ele>-0.808</ele>
        <time>1970-01-01T01:00:47Z</time>
      </trkpt>
      <trkpt lat="40.688122" lon="0.598821">
        <ele>-0.975</ele>
        <time>1970-01-01T01:00:48Z</time>
      </trkpt>
      <trkpt lat="40.688060" lon="0.598852">
        <ele>-1.072</ele>
        <time>1970-01-01T01:00:49Z</time>
      </trkpt>
      <trkpt lat="40.687997" lon="0.598879">
        <ele>-1.213</ele>
        <time>1970-01-01T01:00:50Z</time>
      </trkpt>
      <trkpt lat="40.687932" lon="0.598904">
        <ele>-1.416</ele>
        <time>1970-01-01T01:00:51Z</time>
      </trkpt>
      <trkpt lat="40.687867" lon="0.598927">
        <ele>-1.516</ele>
        <time>1970-01-01T01:00:52Z</time>
      </trkpt>
      <trkpt lat="40.687799" lon="0.598950">
        <ele>-1.512</ele>
        <time>1970-01-01T01:00:53Z</time>
      </trkpt>
      <trkpt lat="40.687732" lon="0.598971">
        <ele>-1.476</ele>
        <time>1970-01-01T01:00:54Z</time>
      </trkpt>
      <trkpt lat="40.687665" lon="0.598992">
        <ele>-1.327</ele>
        <time>1970-01-01T01:00:55Z</time>
      </trkpt>
      <trkpt lat="40.687596" lon="0.599013">
        <ele>-1.128</ele>
        <time>1970-01-01T01:00:56Z</time>
      </trkpt>
      <trkpt lat="40.687526" lon="0.599035">
        <ele>-0.989</ele>
        <time>1970-01-01T01:00:57Z</time>
      </trkpt>
      <trkpt lat="40.687458" lon="0.599059">
        <ele>-0.917</ele>
        <time>1970-01-01T01:00:58Z</time>
      </trkpt>
      <trkpt lat="40.687391" lon="0.599082">
        <ele>-0.908</ele>
        <time>1970-01-01T01:00:59Z</time>
      </trkpt>
      <trkpt lat="40.687321" lon="0.599102">
        <ele>-1.019</ele>
        <time>1970-01-01T01:01:00Z</time>
      </trkpt>
      <trkpt lat="40.687251" lon="0.599117">
        <ele>-1.146</ele>
        <time>1970-01-01T01:01:01Z</time>
      </trkpt>
      <trkpt lat="40.687180" lon="0.599132">
        <ele>-1.117</ele>
        <time>1970-01-01T01:01:02Z</time>
      </trkpt>
      <trkpt lat="40.687110" lon="0.599146">
        <ele>-1.020</ele>
        <time>1970-01-01T01:01:03Z</time>
      </trkpt>
      <trkpt lat="40.687040" lon="0.599158">
        <ele>-1.070</ele>
        <time>1970-01-01T01:01:04Z</time>
      </trkpt>
      <trkpt lat="40.686969" lon="0.599169">
        <ele>-1.046</ele>
        <time>1970-01-01T01:01:05Z</time>
      </trkpt>
      <trkpt lat="40.686898" lon="0.599179">
        <ele>-0.830</ele>
        <time>1970-01-01T01:01:06Z</time>
      </trkpt>
      <trkpt lat="40.686828" lon="0.599190">
        <ele>-0.661</ele>
        <time>1970-01-01T01:01:07Z</time>
      </trkpt>
      <trkpt lat="40.686756" lon="0.599202">
        <ele>-0.313</ele>
        <time>1970-01-01T01:01:08Z</time>
      </trkpt>
      <trkpt lat="40.686685" lon="0.599214">
        <ele>-0.143</ele>
        <time>1970-01-01T01:01:09Z</time>
      </trkpt>
      <trkpt lat="40.686616" lon="0.599227">
        <ele>-0.107</ele>
        <time>1970-01-01T01:01:10Z</time>
      </trkpt>
      <trkpt lat="40.686547" lon="0.599239">
        <ele>-0.308</ele>
        <time>1970-01-01T01:01:11Z</time>
      </trkpt>
      <trkpt lat="40.686477" lon="0.599252">
        <ele>-0.548</ele>
        <time>1970-01-01T01:01:12Z</time>
      </trkpt>
      <trkpt lat="40.686408" lon="0.599264">
        <ele>-0.685</ele>
        <time>1970-01-01T01:01:13Z</time>
      </trkpt>
      <trkpt lat="40.686339" lon="0.599278">
        <ele>-0.886</ele>
        <time>1970-01-01T01:01:14Z</time>
      </trkpt>
      <trkpt lat="40.686269" lon="0.599291">
        <ele>-1.079</ele>
        <time>1970-01-01T01:01:15Z</time>
      </trkpt>
      <trkpt lat="40.686200" lon="0.599304">
        <ele>-1.239</ele>
        <time>1970-01-01T01:01:16Z</time>
      </trkpt>
      <trkpt lat="40.686131" lon="0.599316">
        <ele>-1.485</ele>
        <time>1970-01-01T01:01:17Z</time>
      </trkpt>
      <trkpt lat="40.686062" lon="0.599329">
        <ele>-1.419</ele>
        <time>1970-01-01T01:01:18Z</time>
      </trkpt>
      <trkpt lat="40.685994" lon="0.599343">
        <ele>-1.420</ele>
        <time>1970-01-01T01:01:19Z</time>
      </trkpt>
      <trkpt lat="40.685926" lon="0.599357">
        <ele>-1.343</ele>
        <time>1970-01-01T01:01:20Z</time>
      </trkpt>
      <trkpt lat="40.685859" lon="0.599373">
        <ele>-1.364</ele>
        <time>1970-01-01T01:01:21Z</time>
      </trkpt>
      <trkpt lat="40.685792" lon="0.599388">
        <ele>-1.310</ele>
        <time>1970-01-01T01:01:22Z</time>
      </trkpt>
      <trkpt lat="40.685724" lon="0.599401">
        <ele>-1.508</ele>
        <time>1970-01-01T01:01:23Z</time>
      </trkpt>
      <trkpt lat="40.685655" lon="0.599412">
        <ele>-1.711</ele>
        <time>1970-01-01T01:01:24Z</time>
      </trkpt>
      <trkpt lat="40.685587" lon="0.599425">
        <ele>-1.928</ele>
        <time>1970-01-01T01:01:25Z</time>
      </trkpt>
      <trkpt lat="40.685519" lon="0.599440">
        <ele>-2.089</ele>
        <time>1970-01-01T01:01:26Z</time>
      </trkpt>
      <trkpt lat="40.685450" lon="0.599453">
        <ele>-2.052</ele>
        <time>1970-01-01T01:01:27Z</time>
      </trkpt>
      <trkpt lat="40.685381" lon="0.599466">
        <ele>-2.092</ele>
        <time>1970-01-01T01:01:28Z</time>
      </trkpt>
      <trkpt lat="40.685312" lon="0.599479">
        <ele>-2.078</ele>
        <time>1970-01-01T01:01:29Z</time>
      </trkpt>
      <trkpt lat="40.685241" lon="0.599493">
        <ele>-1.732</ele>
        <time>1970-01-01T01:01:30Z</time>
      </trkpt>
      <trkpt lat="40.685170" lon="0.599506">
        <ele>-1.293</ele>
        <time>1970-01-01T01:01:31Z</time>
      </trkpt>
      <trkpt lat="40.685098" lon="0.599519">
        <ele>-0.723</ele>
        <time>1970-01-01T01:01:32Z</time>
      </trkpt>
      <trkpt lat="40.685026" lon="0.599533">
        <ele>-0.283</ele>
        <time>1970-01-01T01:01:33Z</time>
      </trkpt>
      <trkpt lat="40.684954" lon="0.599548">
        <ele>0.111</ele>
        <time>1970-01-01T01:01:34Z</time>
      </trkpt>
      <trkpt lat="40.684882" lon="0.599564">
        <ele>0.208</ele>
        <time>1970-01-01T01:01:35Z</time>
      </trkpt>
      <trkpt lat="40.684811" lon="0.599580">
        <ele>0.399</ele>
        <time>1970-01-01T01:01:36Z</time>
      </trkpt>
      <trkpt lat="40.684739" lon="0.599594">
        <ele>0.466</ele>
        <time>1970-01-01T01:01:37Z</time>
      </trkpt>
      <trkpt lat="40.684668" lon="0.599608">
        <ele>0.227</ele>
        <time>1970-01-01T01:01:38Z</time>
      </trkpt>
      <trkpt lat="40.684597" lon="0.599621">
        <ele>-0.150</ele>
        <time>1970-01-01T01:01:39Z</time>
      </trkpt>
      <trkpt lat="40.684526" lon="0.599635">
        <ele>-0.490</ele>
        <time>1970-01-01T01:01:40Z</time>
      </trkpt>
      <trkpt lat="40.684454" lon="0.599651">
        <ele>-0.716</ele>
        <time>1970-01-01T01:01:41Z</time>
      </trkpt>
      <trkpt lat="40.684383" lon="0.599669">
        <ele>-1.340</ele>
        <time>1970-01-01T01:01:42Z</time>
      </trkpt>
      <trkpt lat="40.684311" lon="0.599690">
        <ele>-1.871</ele>
        <time>1970-01-01T01:01:43Z</time>
      </trkpt>
      <trkpt lat="40.684239" lon="0.599714">
        <ele>-2.594</ele>
        <time>1970-01-01T01:01:44Z</time>
      </trkpt>
      <trkpt lat="40.684169" lon="0.599741">
        <ele>-3.157</ele>
        <time>1970-01-01T01:01:45Z</time>
      </trkpt>
      <trkpt lat="40.684103" lon="0.599769">
        <ele>-2.922</ele>
        <time>1970-01-01T01:01:46Z</time>
      </trkpt>
      <trkpt lat="40.684038" lon="0.599796">
        <ele>-2.808</ele>
        <time>1970-01-01T01:01:47Z</time>
      </trkpt>
      <trkpt lat="40.683973" lon="0.599821">
        <ele>-2.796</ele>
        <time>1970-01-01T01:01:48Z</time>
      </trkpt>
      <trkpt lat="40.683908" lon="0.599844">
        <ele>-2.573</ele>
        <time>1970-01-01T01:01:49Z</time>
      </trkpt>
      <trkpt lat="40.683845" lon="0.599870">
        <ele>-2.324</ele>
        <time>1970-01-01T01:01:50Z</time>
      </trkpt>
      <trkpt lat="40.683785" lon="0.599896">
        <ele>-2.167</ele>
        <time>1970-01-01T01:01:51Z</time>
      </trkpt>
      <trkpt lat="40.683726" lon="0.599921">
        <ele>-2.067</ele>
        <time>1970-01-01T01:01:52Z</time>
      </trkpt>
      <trkpt lat="40.683669" lon="0.599946">
        <ele>-1.953</ele>
        <time>1970-01-01T01:01:53Z</time>
      </trkpt>
      <trkpt lat="40.683615" lon="0.599973">
        <ele>-1.867</ele>
        <time>1970-01-01T01:01:54Z</time>
      </trkpt>
      <trkpt lat="40.683564" lon="0.599995">
        <ele>-2.068</ele>
        <time>1970-01-01T01:01:55Z</time>
      </trkpt>
      <trkpt lat="40.683517" lon="0.600010">
        <ele>-2.091</ele>
        <time>1970-01-01T01:01:56Z</time>
      </trkpt>
      <trkpt lat="40.683473" lon="0.600017">
        <ele>-2.181</ele>
        <time>1970-01-01T01:01:57Z</time>
      </trkpt>
      <trkpt lat="40.683431" lon="0.600008">
        <ele>-2.019</ele>
        <time>1970-01-01T01:01:58Z</time>
      </trkpt>
      <trkpt lat="40.683397" lon="0.599983">
        <ele>-1.908</ele>
        <time>1970-01-01T01:01:59Z</time>
      </trkpt>
      <trkpt lat="40.683380" lon="0.599943">
        <ele>-1.846</ele>
        <time>1970-01-01T01:02:00Z</time>
      </trkpt>
      <trkpt lat="40.683371" lon="0.599900">
        <ele>-1.673</ele>
        <time>1970-01-01T01:02:01Z</time>
      </trkpt>
      <trkpt lat="40.683363" lon="0.599855">
        <ele>-1.494</ele>
        <time>1970-01-01T01:02:02Z</time>
      </trkpt>
      <trkpt lat="40.683358" lon="0.599803">
        <ele>-1.267</ele>
        <time>1970-01-01T01:02:03Z</time>
      </trkpt>
      <trkpt lat="40.683356" lon="0.599745">
        <ele>-1.077</ele>
        <time>1970-01-01T01:02:04Z</time>
      </trkpt>
      <trkpt lat="40.683351" lon="0.599681">
        <ele>-1.183</ele>
        <time>1970-01-01T01:02:05Z</time>
      </trkpt>
      <trkpt lat="40.683344" lon="0.599611">
        <ele>-1.337</ele>
        <time>1970-01-01T01:02:06Z</time>
      </trkpt>
      <trkpt lat="40.683335" lon="0.599539">
        <ele>-1.698</ele>
        <time>1970-01-01T01:02:07Z</time>
      </trkpt>
      <trkpt lat="40.683327" lon="0.599462">
        <ele>-2.067</ele>
        <time>1970-01-01T01:02:08Z</time>
      </trkpt>
      <trkpt lat="40.683317" lon="0.599383">
        <ele>-2.381</ele>
        <time>1970-01-01T01:02:09Z</time>
      </trkpt>
      <trkpt lat="40.683307" lon="0.599302">
        <ele>-2.619</ele>
        <time>1970-01-01T01:02:10Z</time>
      </trkpt>
      <trkpt lat="40.683297" lon="0.599222">
        <ele>-2.808</ele>
        <time>1970-01-01T01:02:11Z</time>
      </trkpt>
      <trkpt lat="40.683289" lon="0.599137">
        <ele>-2.973</ele>
        <time>1970-01-01T01:02:12Z</time>
      </trkpt>
      <trkpt lat="40.683277" lon="0.599054">
        <ele>-2.790</ele>
        <time>1970-01-01T01:02:13Z</time>
      </trkpt>
      <trkpt lat="40.683264" lon="0.598972">
        <ele>-2.531</ele>
        <time>1970-01-01T01:02:14Z</time>
      </trkpt>
      <trkpt lat="40.683251" lon="0.598891">
        <ele>-2.334</ele>
        <time>1970-01-01T01:02:15Z</time>
      </trkpt>
      <trkpt lat="40.683240" lon="0.598808">
        <ele>-2.274</ele>
        <time>1970-01-01T01:02:16Z</time>
      </trkpt>
      <trkpt lat="40.683228" lon="0.598725">
        <ele>-2.260</ele>
        <time>1970-01-01T01:02:17Z</time>
      </trkpt>
      <trkpt lat="40.683216" lon="0.598642">
        <ele>-2.034</ele>
        <time>1970-01-01T01:02:18Z</time>
      </trkpt>
      <trkpt lat="40.683204" lon="0.598560">
        <ele>-1.955</ele>
        <time>1970-01-01T01:02:19Z</time>
      </trkpt>
      <trkpt lat="40.683194" lon="0.598478">
        <ele>-1.831</ele>
        <time>1970-01-01T01:02:20Z</time>
      </trkpt>
      <trkpt lat="40.683182" lon="0.598397">
        <ele>-1.661</ele>
        <time>1970-01-01T01:02:21Z</time>
      </trkpt>
      <trkpt lat="40.683171" lon="0.598314">
        <ele>-1.607</ele>
        <time>1970-01-01T01:02:22Z</time>
      </trkpt>
      <trkpt lat="40.683158" lon="0.598232">
        <ele>-1.608</ele>
        <time>1970-01-01T01:02:23Z</time>
      </trkpt>
      <trkpt lat="40.683148" lon="0.598149">
        <ele>-1.760</ele>
        <time>1970-01-01T01:02:24Z</time>
      </trkpt>
      <trkpt lat="40.683137" lon="0.598065">
        <ele>-1.787</ele>
        <time>1970-01-01T01:02:25Z</time>
      </trkpt>
      <trkpt lat="40.683126" lon="0.597982">
        <ele>-1.868</ele>
        <time>1970-01-01T01:02:26Z</time>
      </trkpt>
      <trkpt lat="40.683115" lon="0.597900">
        <ele>-1.961</ele>
        <time>1970-01-01T01:02:27Z</time>
      </trkpt>
      <trkpt lat="40.683104" lon="0.597818">
        <ele>-2.091</ele>
        <time>1970-01-01T01:02:28Z</time>
      </trkpt>
      <trkpt lat="40.683093" lon="0.597736">
        <ele>-1.977</ele>
        <time>1970-01-01T01:02:29Z</time>
      </trkpt>
      <trkpt lat="40.683084" lon="0.597654">
        <ele>-1.631</ele>
        <time>1970-01-01T01:02:30Z</time>
      </trkpt>
      <trkpt lat="40.683074" lon="0.597574">
        <ele>-1.352</ele>
        <time>1970-01-01T01:02:31Z</time>
      </trkpt>
      <trkpt lat="40.683063" lon="0.597495">
        <ele>-1.087</ele>
        <time>1970-01-01T01:02:32Z</time>
      </trkpt>
      <trkpt lat="40.683050" lon="0.597417">
        <ele>-1.042</ele>
        <time>1970-01-01T01:02:33Z</time>
      </trkpt>
      <trkpt lat="40.683037" lon="0.597339">
        <ele>-1.026</ele>
        <time>1970-01-01T01:02:34Z</time>
      </trkpt>
      <trkpt lat="40.683027" lon="0.597260">
        <ele>-1.008</ele>
        <time>1970-01-01T01:02:35Z</time>
      </trkpt>
      <trkpt lat="40.683015" lon="0.597180">
        <ele>-1.195</ele>
        <time>1970-01-01T01:02:36Z</time>
      </trkpt>
      <trkpt lat="40.683002" lon="0.597102">
        <ele>-1.362</ele>
        <time>1970-01-01T01:02:37Z</time>
      </trkpt>
      <trkpt lat="40.682988" lon="0.597023">
        <ele>-1.573</ele>
        <time>1970-01-01T01:02:38Z</time>
      </trkpt>
      <trkpt lat="40.682976" lon="0.596945">
        <ele>-1.756</ele>
        <time>1970-01-01T01:02:39Z</time>
      </trkpt>
      <trkpt lat="40.682964" lon="0.596867">
        <ele>-1.516</ele>
        <time>1970-01-01T01:02:40Z</time>
      </trkpt>
      <trkpt lat="40.682952" lon="0.596788">
        <ele>-1.392</ele>
        <time>1970-01-01T01:02:41Z</time>
      </trkpt>
      <trkpt lat="40.682941" lon="0.596710">
        <ele>-1.186</ele>
        <time>1970-01-01T01:02:42Z</time>
      </trkpt>
      <trkpt lat="40.682929" lon="0.596632">
        <ele>-1.167</ele>
        <time>1970-01-01T01:02:43Z</time>
      </trkpt>
      <trkpt lat="40.682918" lon="0.596554">
        <ele>-1.278</ele>
        <time>1970-01-01T01:02:44Z</time>
      </trkpt>
      <trkpt lat="40.682910" lon="0.596474">
        <ele>-1.333</ele>
        <time>1970-01-01T01:02:45Z</time>
      </trkpt>
      <trkpt lat="40.682899" lon="0.596396">
        <ele>-1.426</ele>
        <time>1970-01-01T01:02:46Z</time>
      </trkpt>
      <trkpt lat="40.682888" lon="0.596319">
        <ele>-1.508</ele>
        <time>1970-01-01T01:02:47Z</time>
      </trkpt>
      <trkpt lat="40.682875" lon="0.596242">
        <ele>-1.774</ele>
        <time>1970-01-01T01:02:48Z</time>
      </trkpt>
      <trkpt lat="40.682863" lon="0.596165">
        <ele>-1.951</ele>
        <time>1970-01-01T01:02:49Z</time>
      </trkpt>
      <trkpt lat="40.682853" lon="0.596087">
        <ele>-2.062</ele>
        <time>1970-01-01T01:02:50Z</time>
      </trkpt>
      <trkpt lat="40.682841" lon="0.596008">
        <ele>-1.965</ele>
        <time>1970-01-01T01:02:51Z</time>
      </trkpt>
      <trkpt lat="40.682829" lon="0.595930">
        <ele>-1.945</ele>
        <time>1970-01-01T01:02:52Z</time>
      </trkpt>
      <trkpt lat="40.682817" lon="0.595852">
        <ele>-1.981</ele>
        <time>1970-01-01T01:02:53Z</time>
      </trkpt>
      <trkpt lat="40.682806" lon="0.595774">
        <ele>-1.595</ele>
        <time>1970-01-01T01:02:54Z</time>
      </trkpt>
      <trkpt lat="40.682796" lon="0.595698">
        <ele>-1.026</ele>
        <time>1970-01-01T01:02:55Z</time>
      </trkpt>
      <trkpt lat="40.682785" lon="0.595621">
        <ele>-0.477</ele>
        <time>1970-01-01T01:02:56Z</time>
      </trkpt>
      <trkpt lat="40.682773" lon="0.595542">
        <ele>0.161</ele>
        <time>1970-01-01T01:02:57Z</time>
      </trkpt>
      <trkpt lat="40.682761" lon="0.595462">
        <ele>0.727</ele>
        <time>1970-01-01T01:02:58Z</time>
      </trkpt>
      <trkpt lat="40.682749" lon="0.595382">
        <ele>1.208</ele>
        <time>1970-01-01T01:02:59Z</time>
      </trkpt>
      <trkpt lat="40.682739" lon="0.595300">
        <ele>1.724</ele>
        <time>1970-01-01T01:03:00Z</time>
      </trkpt>
      <trkpt lat="40.682728" lon="0.595219">
        <ele>1.251</ele>
        <time>1970-01-01T01:03:01Z</time>
      </trkpt>
      <trkpt lat="40.682718" lon="0.595139">
        <ele>0.432</ele>
        <time>1970-01-01T01:03:02Z</time>
      </trkpt>
      <trkpt lat="40.682707" lon="0.595058">
        <ele>-0.475</ele>
        <time>1970-01-01T01:03:03Z</time>
      </trkpt>
      <trkpt lat="40.682695" lon="0.594977">
        <ele>-1.245</ele>
        <time>1970-01-01T01:03:04Z</time>
      </trkpt>
      <trkpt lat="40.682684" lon="0.594896">
        <ele>-1.791</ele>
        <time>1970-01-01T01:03:05Z</time>
      </trkpt>
      <trkpt lat="40.682673" lon="0.594813">
        <ele>-2.385</ele>
        <time>1970-01-01T01:03:06Z</time>
      </trkpt>
      <trkpt lat="40.682661" lon="0.594731">
        <ele>-2.966</ele>
        <time>1970-01-01T01:03:07Z</time>
      </trkpt>
      <trkpt lat="40.682650" lon="0.594650">
        <ele>-3.371</ele>
        <time>1970-01-01T01:03:08Z</time>
      </trkpt>
      <trkpt lat="40.682639" lon="0.594569">
        <ele>-3.641</ele>
        <time>1970-01-01T01:03:09Z</time>
      </trkpt>
      <trkpt lat="40.682630" lon="0.594487">
        <ele>-3.815</ele>
        <time>1970-01-01T01:03:10Z</time>
      </trkpt>
      <trkpt lat="40.682621" lon="0.594404">
        <ele>-3.908</ele>
        <time>1970-01-01T01:03:11Z</time>
      </trkpt>
      <trkpt lat="40.682611" lon="0.594322">
        <ele>-3.634</ele>
        <time>1970-01-01T01:03:12Z</time>
      </trkpt>
      <trkpt lat="40.682600" lon="0.594242">
        <ele>-3.321</ele>
        <time>1970-01-01T01:03:13Z</time>
      </trkpt>
      <trkpt lat="40.682588" lon="0.594162">
        <ele>-3.092</ele>
        <time>1970-01-01T01:03:14Z</time>
      </trkpt>
      <trkpt lat="40.682578" lon="0.594080">
        <ele>-2.985</ele>
        <time>1970-01-01T01:03:15Z</time>
      </trkpt>
      <trkpt lat="40.682568" lon="0.593998">
        <ele>-2.995</ele>
        <time>1970-01-01T01:03:16Z</time>
      </trkpt>
      <trkpt lat="40.682559" lon="0.593916">
        <ele>-2.811</ele>
        <time>1970-01-01T01:03:17Z</time>
      </trkpt>
      <trkpt lat="40.682549" lon="0.593833">
        <ele>-2.585</ele>
        <time>1970-01-01T01:03:18Z</time>
      </trkpt>
      <trkpt lat="40.682540" lon="0.593752">
        <ele>-2.016</ele>
        <time>1970-01-01T01:03:19Z</time>
      </trkpt>
      <trkpt lat="40.682531" lon="0.593674">
        <ele>-1.592</ele>
        <time>1970-01-01T01:03:20Z</time>
      </trkpt>
      <trkpt lat="40.682524" lon="0.593596">
        <ele>-1.173</ele>
        <time>1970-01-01T01:03:21Z</time>
      </trkpt>
      <trkpt lat="40.682518" lon="0.593520">
        <ele>-1.020</ele>
        <time>1970-01-01T01:03:22Z</time>
      </trkpt>
      <trkpt lat="40.682514" lon="0.593445">
        <ele>-1.008</ele>
        <time>1970-01-01T01:03:23Z</time>
      </trkpt>
      <trkpt lat="40.682511" lon="0.593374">
        <ele>-1.096</ele>
        <time>1970-01-01T01:03:24Z</time>
      </trkpt>
      <trkpt lat="40.682504" lon="0.593309">
        <ele>-1.093</ele>
        <time>1970-01-01T01:03:25Z</time>
      </trkpt>
      <trkpt lat="40.682487" lon="0.593256">
        <ele>-1.034</ele>
        <time>1970-01-01T01:03:26Z</time>
      </trkpt>
      <trkpt lat="40.682457" lon="0.593218">
        <ele>-1.227</ele>
        <time>1970-01-01T01:03:27Z</time>
      </trkpt>
      <trkpt lat="40.682416" lon="0.593199">
        <ele>-1.327</ele>
        <time>1970-01-01T01:03:28Z</time>
      </trkpt>
      <trkpt lat="40.682366" lon="0.593200">
        <ele>-1.553</ele>
        <time>1970-01-01T01:03:29Z</time>
      </trkpt>
      <trkpt lat="40.682312" lon="0.593209">
        <ele>-1.747</ele>
        <time>1970-01-01T01:03:30Z</time>
      </trkpt>
      <trkpt lat="40.682256" lon="0.593221">
        <ele>-1.968</ele>
        <time>1970-01-01T01:03:31Z</time>
      </trkpt>
      <trkpt lat="40.682199" lon="0.593235">
        <ele>-1.972</ele>
        <time>1970-01-01T01:03:32Z</time>
      </trkpt>
      <trkpt lat="40.682141" lon="0.593251">
        <ele>-1.813</ele>
        <time>1970-01-01T01:03:33Z</time>
      </trkpt>
      <trkpt lat="40.682084" lon="0.593269">
        <ele>-1.614</ele>
        <time>1970-01-01T01:03:34Z</time>
      </trkpt>
      <trkpt lat="40.682027" lon="0.593288">
        <ele>-1.408</ele>
        <time>1970-01-01T01:03:35Z</time>
      </trkpt>
      <trkpt lat="40.681969" lon="0.593303">
        <ele>-1.254</ele>
        <time>1970-01-01T01:03:36Z</time>
      </trkpt>
      <trkpt lat="40.681907" lon="0.593316">
        <ele>-1.151</ele>
        <time>1970-01-01T01:03:37Z</time>
      </trkpt>
      <trkpt lat="40.681845" lon="0.593330">
        <ele>-1.042</ele>
        <time>1970-01-01T01:03:38Z</time>
      </trkpt>
      <trkpt lat="40.681783" lon="0.593341">
        <ele>-1.015</ele>
        <time>1970-01-01T01:03:39Z</time>
      </trkpt>
      <trkpt lat="40.681721" lon="0.593356">
        <ele>-0.945</ele>
        <time>1970-01-01T01:03:40Z</time>
      </trkpt>
      <trkpt lat="40.681659" lon="0.593372">
        <ele>-0.831</ele>
        <time>1970-01-01T01:03:41Z</time>
      </trkpt>
      <trkpt lat="40.681595" lon="0.593387">
        <ele>-0.535</ele>
        <time>1970-01-01T01:03:42Z</time>
      </trkpt>
      <trkpt lat="40.681531" lon="0.593399">
        <ele>-0.396</ele>
        <time>1970-01-01T01:03:43Z</time>
      </trkpt>
      <trkpt lat="40.681466" lon="0.593411">
        <ele>0.024</ele>
        <time>1970-01-01T01:03:44Z</time>
      </trkpt>
      <trkpt lat="40.681401" lon="0.593426">
        <ele>0.304</ele>
        <time>1970-01-01T01:03:45Z</time>
      </trkpt>
      <trkpt lat="40.681336" lon="0.593440">
        <ele>0.514</ele>
        <time>1970-01-01T01:03:46Z</time>
      </trkpt>
      <trkpt lat="40.681270" lon="0.593453">
        <ele>0.708</ele>
        <time>1970-01-01T01:03:47Z</time>
      </trkpt>
      <trkpt lat="40.681204" lon="0.593464">
        <ele>0.849</ele>
        <time>1970-01-01T01:03:48Z</time>
      </trkpt>
      <trkpt lat="40.681138" lon="0.593478">
        <ele>1.076</ele>
        <time>1970-01-01T01:03:49Z</time>
      </trkpt>
      <trkpt lat="40.681072" lon="0.593491">
        <ele>1.037</ele>
        <time>1970-01-01T01:03:50Z</time>
      </trkpt>
      <trkpt lat="40.681005" lon="0.593503">
        <ele>1.010</ele>
        <time>1970-01-01T01:03:51Z</time>
      </trkpt>
      <trkpt lat="40.680939" lon="0.593517">
        <ele>1.060</ele>
        <time>1970-01-01T01:03:52Z</time>
      </trkpt>
      <trkpt lat="40.680873" lon="0.593531">
        <ele>1.026</ele>
        <time>1970-01-01T01:03:53Z</time>
      </trkpt>
      <trkpt lat="40.680806" lon="0.593545">
        <ele>0.920</ele>
        <time>1970-01-01T01:03:54Z</time>
      </trkpt>
      <trkpt lat="40.680738" lon="0.593558">
        <ele>0.751</ele>
        <time>1970-01-01T01:03:55Z</time>
      </trkpt>
      <trkpt lat="40.680671" lon="0.593571">
        <ele>0.454</ele>
        <time>1970-01-01T01:03:56Z</time>
      </trkpt>
      <trkpt lat="40.680604" lon="0.593584">
        <ele>0.256</ele>
        <time>1970-01-01T01:03:57Z</time>
      </trkpt>
      <trkpt lat="40.680537" lon="0.593596">
        <ele>-0.111</ele>
        <time>1970-01-01T01:03:58Z</time>
      </trkpt>
      <trkpt lat="40.680469" lon="0.593609">
        <ele>-0.308</ele>
        <time>1970-01-01T01:03:59Z</time>
      </trkpt>
      <trkpt lat="40.680401" lon="0.593622">
        <ele>-0.662</ele>
        <time>1970-01-01T01:04:00Z</time>
      </trkpt>
      <trkpt lat="40.680334" lon="0.593636">
        <ele>-0.819</ele>
        <time>1970-01-01T01:04:01Z</time>
      </trkpt>
      <trkpt lat="40.680267" lon="0.593649">
        <ele>-1.010</ele>
        <time>1970-01-01T01:04:02Z</time>
      </trkpt>
      <trkpt lat="40.680200" lon="0.593662">
        <ele>-1.213</ele>
        <time>1970-01-01T01:04:03Z</time>
      </trkpt>
      <trkpt lat="40.680134" lon="0.593676">
        <ele>-1.413</ele>
        <time>1970-01-01T01:04:04Z</time>
      </trkpt>
      <trkpt lat="40.680068" lon="0.593691">
        <ele>-1.529</ele>
        <time>1970-01-01T01:04:05Z</time>
      </trkpt>
      <trkpt lat="40.680003" lon="0.593705">
        <ele>-1.753</ele>
        <time>1970-01-01T01:04:06Z</time>
      </trkpt>
      <trkpt lat="40.679937" lon="0.593720">
        <ele>-1.734</ele>
        <time>1970-01-01T01:04:07Z</time>
      </trkpt>
      <trkpt lat="40.679870" lon="0.593734">
        <ele>-1.858</ele>
        <time>1970-01-01T01:04:08Z</time>
      </trkpt>
      <trkpt lat="40.679804" lon="0.593749">
        <ele>-1.952</ele>
        <time>1970-01-01T01:04:09Z</time>
      </trkpt>
      <trkpt lat="40.679737" lon="0.593762">
        <ele>-2.017</ele>
        <time>1970-01-01T01:04:10Z</time>
      </trkpt>
      <trkpt lat="40.679668" lon="0.593775">
        <ele>-2.208</ele>
        <time>1970-01-01T01:04:11Z</time>
      </trkpt>
      <trkpt lat="40.679600" lon="0.593788">
        <ele>-2.652</ele>
        <time>1970-01-01T01:04:12Z</time>
      </trkpt>
      <trkpt lat="40.679531" lon="0.593801">
        <ele>-2.919</ele>
        <time>1970-01-01T01:04:13Z</time>
      </trkpt>
      <trkpt lat="40.679462" lon="0.593815">
        <ele>-3.480</ele>
        <time>1970-01-01T01:04:14Z</time>
      </trkpt>
      <trkpt lat="40.679394" lon="0.593829">
        <ele>-3.623</ele>
        <time>1970-01-01T01:04:15Z</time>
      </trkpt>
      <trkpt lat="40.679327" lon="0.593843">
        <ele>-3.763</ele>
        <time>1970-01-01T01:04:16Z</time>
      </trkpt>
      <trkpt lat="40.679260" lon="0.593855">
        <ele>-3.869</ele>
        <time>1970-01-01T01:04:17Z</time>
      </trkpt>
      <trkpt lat="40.679192" lon="0.593867">
        <ele>-3.953</ele>
        <time>1970-01-01T01:04:18Z</time>
      </trkpt>
      <trkpt lat="40.679125" lon="0.593879">
        <ele>-3.784</ele>
        <time>1970-01-01T01:04:19Z</time>
      </trkpt>
      <trkpt lat="40.679058" lon="0.593893">
        <ele>-3.283</ele>
        <time>1970-01-01T01:04:20Z</time>
      </trkpt>
      <trkpt lat="40.678990" lon="0.593908">
        <ele>-2.725</ele>
        <time>1970-01-01T01:04:21Z</time>
      </trkpt>
      <trkpt lat="40.678920" lon="0.593924">
        <ele>-2.117</ele>
        <time>1970-01-01T01:04:22Z</time>
      </trkpt>
      <trkpt lat="40.678849" lon="0.593940">
        <ele>-1.608</ele>
        <time>1970-01-01T01:04:23Z</time>
      </trkpt>
      <trkpt lat="40.678779" lon="0.593955">
        <ele>-1.175</ele>
        <time>1970-01-01T01:04:24Z</time>
      </trkpt>
      <trkpt lat="40.678710" lon="0.593968">
        <ele>-0.612</ele>
        <time>1970-01-01T01:04:25Z</time>
      </trkpt>
      <trkpt lat="40.678640" lon="0.593981">
        <ele>-0.253</ele>
        <time>1970-01-01T01:04:26Z</time>
      </trkpt>
      <trkpt lat="40.678570" lon="0.593993">
        <ele>-0.176</ele>
        <time>1970-01-01T01:04:27Z</time>
      </trkpt>
      <trkpt lat="40.678500" lon="0.594006">
        <ele>-0.496</ele>
        <time>1970-01-01T01:04:28Z</time>
      </trkpt>
      <trkpt lat="40.678431" lon="0.594020">
        <ele>-0.632</ele>
        <time>1970-01-01T01:04:29Z</time>
      </trkpt>
      <trkpt lat="40.678360" lon="0.594036">
        <ele>-0.916</ele>
        <time>1970-01-01T01:04:30Z</time>
      </trkpt>
      <trkpt lat="40.678291" lon="0.594052">
        <ele>-1.277</ele>
        <time>1970-01-01T01:04:31Z</time>
      </trkpt>
      <trkpt lat="40.678222" lon="0.594065">
        <ele>-1.531</ele>
        <time>1970-01-01T01:04:32Z</time>
      </trkpt>
      <trkpt lat="40.678154" lon="0.594078">
        <ele>-1.961</ele>
        <time>1970-01-01T01:04:33Z</time>
      </trkpt>
      <trkpt lat="40.678084" lon="0.594091">
        <ele>-2.107</ele>
        <time>1970-01-01T01:04:34Z</time>
      </trkpt>
      <trkpt lat="40.678015" lon="0.594105">
        <ele>-2.208</ele>
        <time>1970-01-01T01:04:35Z</time>
      </trkpt>
      <trkpt lat="40.677945" lon="0.594120">
        <ele>-2.230</ele>
        <time>1970-01-01T01:04:36Z</time>
      </trkpt>
      <trkpt lat="40.677877" lon="0.594134">
        <ele>-2.157</ele>
        <time>1970-01-01T01:04:37Z</time>
      </trkpt>
      <trkpt lat="40.677808" lon="0.594149">
        <ele>-2.138</ele>
        <time>1970-01-01T01:04:38Z</time>
      </trkpt>
      <trkpt lat="40.677739" lon="0.594163">
        <ele>-2.051</ele>
        <time>1970-01-01T01:04:39Z</time>
      </trkpt>
      <trkpt lat="40.677669" lon="0.594176">
        <ele>-2.051</ele>
        <time>1970-01-01T01:04:40Z</time>
      </trkpt>
      <trkpt lat="40.677600" lon="0.594189">
        <ele>-1.987</ele>
        <time>1970-01-01T01:04:41Z</time>
      </trkpt>
      <trkpt lat="40.677531" lon="0.594199">
        <ele>-1.811</ele>
        <time>1970-01-01T01:04:42Z</time>
      </trkpt>
      <trkpt lat="40.677462" lon="0.594208">
        <ele>-1.762</ele>
        <time>1970-01-01T01:04:43Z</time>
      </trkpt>
      <trkpt lat="40.677394" lon="0.594220">
        <ele>-1.722</ele>
        <time>1970-01-01T01:04:44Z</time>
      </trkpt>
      <trkpt lat="40.677326" lon="0.594234">
        <ele>-1.762</ele>
        <time>1970-01-01T01:04:45Z</time>
      </trkpt>
      <trkpt lat="40.677258" lon="0.594248">
        <ele>-1.708</ele>
        <time>1970-01-01T01:04:46Z</time>
      </trkpt>
      <trkpt lat="40.677190" lon="0.594261">
        <ele>-1.708</ele>
        <time>1970-01-01T01:04:47Z</time>
      </trkpt>
      <trkpt lat="40.677120" lon="0.594273">
        <ele>-1.679</ele>
        <time>1970-01-01T01:04:48Z</time>
      </trkpt>
      <trkpt lat="40.677051" lon="0.594286">
        <ele>-1.686</ele>
        <time>1970-01-01T01:04:49Z</time>
      </trkpt>
      <trkpt lat="40.676982" lon="0.594301">
        <ele>-1.557</ele>
        <time>1970-01-01T01:04:50Z</time>
      </trkpt>
      <trkpt lat="40.676914" lon="0.594315">
        <ele>-1.510</ele>
        <time>1970-01-01T01:04:51Z</time>
      </trkpt>
      <trkpt lat="40.676846" lon="0.594329">
        <ele>-1.460</ele>
        <time>1970-01-01T01:04:52Z</time>
      </trkpt>
      <trkpt lat="40.676778" lon="0.594343">
        <ele>-1.486</ele>
        <time>1970-01-01T01:04:53Z</time>
      </trkpt>
      <trkpt lat="40.676710" lon="0.594358">
        <ele>-1.330</ele>
        <time>1970-01-01T01:04:54Z</time>
      </trkpt>
      <trkpt lat="40.676643" lon="0.594372">
        <ele>-1.231</ele>
        <time>1970-01-01T01:04:55Z</time>
      </trkpt>
      <trkpt lat="40.676576" lon="0.594385">
        <ele>-1.162</ele>
        <time>1970-01-01T01:04:56Z</time>
      </trkpt>
      <trkpt lat="40.676508" lon="0.594398">
        <ele>-1.183</ele>
        <time>1970-01-01T01:04:57Z</time>
      </trkpt>
      <trkpt lat="40.676439" lon="0.594412">
        <ele>-1.011</ele>
        <time>1970-01-01T01:04:58Z</time>
      </trkpt>
      <trkpt lat="40.676370" lon="0.594425">
        <ele>-1.008</ele>
        <time>1970-01-01T01:04:59Z</time>
      </trkpt>
      <trkpt lat="40.676302" lon="0.594439">
        <ele>-1.053</ele>
        <time>1970-01-01T01:05:00Z</time>
      </trkpt>
      <trkpt lat="40.676233" lon="0.594453">
        <ele>-1.070</ele>
        <time>1970-01-01T01:05:01Z</time>
      </trkpt>
      <trkpt lat="40.676166" lon="0.594467">
        <ele>-1.031</ele>
        <time>1970-01-01T01:05:02Z</time>
      </trkpt>
      <trkpt lat="40.676099" lon="0.594479">
        <ele>-1.084</ele>
        <time>1970-01-01T01:05:03Z</time>
      </trkpt>
      <trkpt lat="40.676032" lon="0.594493">
        <ele>-0.774</ele>
        <time>1970-01-01T01:05:04Z</time>
      </trkpt>
      <trkpt lat="40.675965" lon="0.594508">
        <ele>-0.570</ele>
        <time>1970-01-01T01:05:05Z</time>
      </trkpt>
      <trkpt lat="40.675899" lon="0.594521">
        <ele>-0.264</ele>
        <time>1970-01-01T01:05:06Z</time>
      </trkpt>
      <trkpt lat="40.675840" lon="0.594530">
        <ele>-0.065</ele>
        <time>1970-01-01T01:05:07Z</time>
      </trkpt>
      <trkpt lat="40.675786" lon="0.594527">
        <ele>0.111</ele>
        <time>1970-01-01T01:05:08Z</time>
      </trkpt>
      <trkpt lat="40.675739" lon="0.594503">
        <ele>0.121</ele>
        <time>1970-01-01T01:05:09Z</time>
      </trkpt>
      <trkpt lat="40.675706" lon="0.594461">
        <ele>0.003</ele>
        <time>1970-01-01T01:05:10Z</time>
      </trkpt>
      <trkpt lat="40.675684" lon="0.594407">
        <ele>-0.108</ele>
        <time>1970-01-01T01:05:11Z</time>
      </trkpt>
      <trkpt lat="40.675665" lon="0.594347">
        <ele>-0.178</ele>
        <time>1970-01-01T01:05:12Z</time>
      </trkpt>
      <trkpt lat="40.675649" lon="0.594286">
        <ele>-0.285</ele>
        <time>1970-01-01T01:05:13Z</time>
      </trkpt>
      <trkpt lat="40.675633" lon="0.594222">
        <ele>-0.236</ele>
        <time>1970-01-01T01:05:14Z</time>
      </trkpt>
      <trkpt lat="40.675619" lon="0.594156">
        <ele>-0.249</ele>
        <time>1970-01-01T01:05:15Z</time>
      </trkpt>
      <trkpt lat="40.675602" lon="0.594091">
        <ele>-0.239</ele>
        <time>1970-01-01T01:05:16Z</time>
      </trkpt>
      <trkpt lat="40.675589" lon="0.594023">
        <ele>-0.125</ele>
        <time>1970-01-01T01:05:17Z</time>
      </trkpt>
      <trkpt lat="40.675575" lon="0.593954">
        <ele>-0.179</ele>
        <time>1970-01-01T01:05:18Z</time>
      </trkpt>
      <trkpt lat="40.675555" lon="0.593891">
        <ele>0.070</ele>
        <time>1970-01-01T01:05:19Z</time>
      </trkpt>
      <trkpt lat="40.675527" lon="0.593832">
        <ele>0.115</ele>
        <time>1970-01-01T01:05:20Z</time>
      </trkpt>
      <trkpt lat="40.675492" lon="0.593783">
        <ele>0.165</ele>
        <time>1970-01-01T01:05:21Z</time>
      </trkpt>
      <trkpt lat="40.675449" lon="0.593748">
        <ele>0.211</ele>
        <time>1970-01-01T01:05:22Z</time>
      </trkpt>
      <trkpt lat="40.675399" lon="0.593729">
        <ele>0.208</ele>
        <time>1970-01-01T01:05:23Z</time>
      </trkpt>
      <trkpt lat="40.675344" lon="0.593725">
        <ele>0.348</ele>
        <time>1970-01-01T01:05:24Z</time>
      </trkpt>
      <trkpt lat="40.675290" lon="0.593732">
        <ele>0.495</ele>
        <time>1970-01-01T01:05:25Z</time>
      </trkpt>
      <trkpt lat="40.675239" lon="0.593743">
        <ele>0.386</ele>
        <time>1970-01-01T01:05:26Z</time>
      </trkpt>
      <trkpt lat="40.675192" lon="0.593754">
        <ele>0.089</ele>
        <time>1970-01-01T01:05:27Z</time>
      </trkpt>
      <trkpt lat="40.675141" lon="0.593768">
        <ele>-0.279</ele>
        <time>1970-01-01T01:05:28Z</time>
      </trkpt>
      <trkpt lat="40.675087" lon="0.593780">
        <ele>-0.545</ele>
        <time>1970-01-01T01:05:29Z</time>
      </trkpt>
      <trkpt lat="40.675030" lon="0.593790">
        <ele>-0.889</ele>
        <time>1970-01-01T01:05:30Z</time>
      </trkpt>
      <trkpt lat="40.674976" lon="0.593797">
        <ele>-1.020</ele>
        <time>1970-01-01T01:05:31Z</time>
      </trkpt>
      <trkpt lat="40.674920" lon="0.593806">
        <ele>-1.061</ele>
        <time>1970-01-01T01:05:32Z</time>
      </trkpt>
      <trkpt lat="40.674864" lon="0.593811">
        <ele>-1.021</ele>
        <time>1970-01-01T01:05:33Z</time>
      </trkpt>
      <trkpt lat="40.674806" lon="0.593811">
        <ele>-1.013</ele>
        <time>1970-01-01T01:05:34Z</time>
      </trkpt>
      <trkpt lat="40.674748" lon="0.593808">
        <ele>-1.008</ele>
        <time>1970-01-01T01:05:35Z</time>
      </trkpt>
      <trkpt lat="40.674687" lon="0.593796">
        <ele>-1.093</ele>
        <time>1970-01-01T01:05:36Z</time>
      </trkpt>
      <trkpt lat="40.674628" lon="0.593778">
        <ele>-0.960</ele>
        <time>1970-01-01T01:05:37Z</time>
      </trkpt>
      <trkpt lat="40.674569" lon="0.593754">
        <ele>-0.731</ele>
        <time>1970-01-01T01:05:38Z</time>
      </trkpt>
      <trkpt lat="40.674511" lon="0.593729">
        <ele>-0.624</ele>
        <time>1970-01-01T01:05:39Z</time>
      </trkpt>
      <trkpt lat="40.674453" lon="0.593705">
        <ele>-0.464</ele>
        <time>1970-01-01T01:05:40Z</time>
      </trkpt>
      <trkpt lat="40.674393" lon="0.593682">
        <ele>-0.220</ele>
        <time>1970-01-01T01:05:41Z</time>
      </trkpt>
      <trkpt lat="40.674332" lon="0.593658">
        <ele>-0.144</ele>
        <time>1970-01-01T01:05:42Z</time>
      </trkpt>
      <trkpt lat="40.674273" lon="0.593636">
        <ele>-0.095</ele>
        <time>1970-01-01T01:05:43Z</time>
      </trkpt>
      <trkpt lat="40.674212" lon="0.593617">
        <ele>-0.071</ele>
        <time>1970-01-01T01:05:44Z</time>
      </trkpt>
      <trkpt lat="40.674154" lon="0.593595">
        <ele>0.041</ele>
        <time>1970-01-01T01:05:45Z</time>
      </trkpt>
      <trkpt lat="40.674097" lon="0.593571">
        <ele>0.315</ele>
        <time>1970-01-01T01:05:46Z</time>
      </trkpt>
      <trkpt lat="40.674040" lon="0.593547">
        <ele>0.508</ele>
        <time>1970-01-01T01:05:47Z</time>
      </trkpt>
      <trkpt lat="40.673984" lon="0.593524">
        <ele>0.764</ele>
        <time>1970-01-01T01:05:48Z</time>
      </trkpt>
      <trkpt lat="40.673928" lon="0.593501">
        <ele>0.951</ele>
        <time>1970-01-01T01:05:49Z</time>
      </trkpt>
      <trkpt lat="40.673873" lon="0.593480">
        <ele>1.012</ele>
        <time>1970-01-01T01:05:50Z</time>
      </trkpt>
      <trkpt lat="40.673818" lon="0.593459">
        <ele>1.085</ele>
        <time>1970-01-01T01:05:51Z</time>
      </trkpt>
      <trkpt lat="40.673764" lon="0.593437">
        <ele>1.015</ele>
        <time>1970-01-01T01:05:52Z</time>
      </trkpt>
      <trkpt lat="40.673711" lon="0.593413">
        <ele>1.031</ele>
        <time>1970-01-01T01:05:53Z</time>
      </trkpt>
      <trkpt lat="40.673657" lon="0.593391">
        <ele>1.025</ele>
        <time>1970-01-01T01:05:54Z</time>
      </trkpt>
      <trkpt lat="40.673605" lon="0.593369">
        <ele>1.056</ele>
        <time>1970-01-01T01:05:55Z</time>
      </trkpt>
      <trkpt lat="40.673552" lon="0.593347">
        <ele>1.081</ele>
        <time>1970-01-01T01:05:56Z</time>
      </trkpt>
      <trkpt lat="40.673499" lon="0.593325">
        <ele>1.061</ele>
        <time>1970-01-01T01:05:57Z</time>
      </trkpt>
      <trkpt lat="40.673445" lon="0.593305">
        <ele>0.917</ele>
        <time>1970-01-01T01:05:58Z</time>
      </trkpt>
      <trkpt lat="40.673390" lon="0.593286">
        <ele>0.908</ele>
        <time>1970-01-01T01:05:59Z</time>
      </trkpt>
      <trkpt lat="40.673338" lon="0.593266">
        <ele>0.875</ele>
        <time>1970-01-01T01:06:00Z</time>
      </trkpt>
      <trkpt lat="40.673290" lon="0.593249">
        <ele>0.732</ele>
        <time>1970-01-01T01:06:01Z</time>
      </trkpt>
      <trkpt lat="40.673240" lon="0.593233">
        <ele>0.653</ele>
        <time>1970-01-01T01:06:02Z</time>
      </trkpt>
      <trkpt lat="40.673189" lon="0.593217">
        <ele>0.626</ele>
        <time>1970-01-01T01:06:03Z</time>
      </trkpt>
      <trkpt lat="40.673140" lon="0.593201">
        <ele>0.596</ele>
        <time>1970-01-01T01:06:04Z</time>
      </trkpt>
      <trkpt lat="40.673093" lon="0.593185">
        <ele>0.542</ele>
        <time>1970-01-01T01:06:05Z</time>
      </trkpt>
      <trkpt lat="40.673049" lon="0.593168">
        <ele>0.466</ele>
        <time>1970-01-01T01:06:06Z</time>
      </trkpt>
      <trkpt lat="40.673005" lon="0.593149">
        <ele>0.527</ele>
        <time>1970-01-01T01:06:07Z</time>
      </trkpt>
      <trkpt lat="40.672968" lon="0.593120">
        <ele>0.554</ele>
        <time>1970-01-01T01:06:08Z</time>
      </trkpt>
      <trkpt lat="40.672943" lon="0.593082">
        <ele>0.556</ele>
        <time>1970-01-01T01:06:09Z</time>
      </trkpt>
      <trkpt lat="40.672925" lon="0.593038">
        <ele>0.411</ele>
        <time>1970-01-01T01:06:10Z</time>
      </trkpt>
      <trkpt lat="40.672910" lon="0.592986">
        <ele>0.408</ele>
        <time>1970-01-01T01:06:11Z</time>
      </trkpt>
      <trkpt lat="40.672895" lon="0.592932">
        <ele>0.482</ele>
        <time>1970-01-01T01:06:12Z</time>
      </trkpt>
      <trkpt lat="40.672878" lon="0.592875">
        <ele>0.419</ele>
        <time>1970-01-01T01:06:13Z</time>
      </trkpt>
      <trkpt lat="40.672859" lon="0.592816">
        <ele>0.580</ele>
        <time>1970-01-01T01:06:14Z</time>
      </trkpt>
      <trkpt lat="40.672838" lon="0.592759">
        <ele>0.573</ele>
        <time>1970-01-01T01:06:15Z</time>
      </trkpt>
      <trkpt lat="40.672811" lon="0.592706">
        <ele>0.653</ele>
        <time>1970-01-01T01:06:16Z</time>
      </trkpt>
      <trkpt lat="40.672781" lon="0.592660">
        <ele>0.659</ele>
        <time>1970-01-01T01:06:17Z</time>
      </trkpt>
      <trkpt lat="40.672744" lon="0.592618">
        <ele>0.383</ele>
        <time>1970-01-01T01:06:18Z</time>
      </trkpt>
      <trkpt lat="40.672709" lon="0.592578">
        <ele>0.094</ele>
        <time>1970-01-01T01:06:19Z</time>
      </trkpt>
      <trkpt lat="40.672672" lon="0.592541">
        <ele>-0.267</ele>
        <time>1970-01-01T01:06:20Z</time>
      </trkpt>
      <trkpt lat="40.672636" lon="0.592508">
        <ele>-0.581</ele>
        <time>1970-01-01T01:06:21Z</time>
      </trkpt>
      <trkpt lat="40.672605" lon="0.592471">
        <ele>-0.619</ele>
        <time>1970-01-01T01:06:22Z</time>
      </trkpt>
      <trkpt lat="40.672575" lon="0.592437">
        <ele>-0.808</ele>
        <time>1970-01-01T01:06:23Z</time>
      </trkpt>
      <trkpt lat="40.672545" lon="0.592406">
        <ele>-1.153</ele>
        <time>1970-01-01T01:06:24Z</time>
      </trkpt>
      <trkpt lat="40.672517" lon="0.592379">
        <ele>-1.370</ele>
        <time>1970-01-01T01:06:25Z</time>
      </trkpt>
      <trkpt lat="40.672488" lon="0.592351">
        <ele>-1.551</ele>
        <time>1970-01-01T01:06:26Z</time>
      </trkpt>
      <trkpt lat="40.672457" lon="0.592326">
        <ele>-1.524</ele>
        <time>1970-01-01T01:06:27Z</time>
      </trkpt>
      <trkpt lat="40.672428" lon="0.592297">
        <ele>-1.544</ele>
        <time>1970-01-01T01:06:28Z</time>
      </trkpt>
      <trkpt lat="40.672396" lon="0.592267">
        <ele>-1.590</ele>
        <time>1970-01-01T01:06:29Z</time>
      </trkpt>
      <trkpt lat="40.672360" lon="0.592238">
        <ele>-1.564</ele>
        <time>1970-01-01T01:06:30Z</time>
      </trkpt>
      <trkpt lat="40.672323" lon="0.592217">
        <ele>-1.365</ele>
        <time>1970-01-01T01:06:31Z</time>
      </trkpt>
      <trkpt lat="40.672291" lon="0.592195">
        <ele>-1.268</ele>
        <time>1970-01-01T01:06:32Z</time>
      </trkpt>
      <trkpt lat="40.672260" lon="0.592170">
        <ele>-1.142</ele>
        <time>1970-01-01T01:06:33Z</time>
      </trkpt>
      <trkpt lat="40.672227" lon="0.592144">
        <ele>-1.026</ele>
        <time>1970-01-01T01:06:34Z</time>
      </trkpt>
      <trkpt lat="40.672195" lon="0.592118">
        <ele>-0.708</ele>
        <time>1970-01-01T01:06:35Z</time>
      </trkpt>
      <trkpt lat="40.672162" lon="0.592091">
        <ele>-0.523</ele>
        <time>1970-01-01T01:06:36Z</time>
      </trkpt>
      <trkpt lat="40.672132" lon="0.592066">
        <ele>-0.280</ele>
        <time>1970-01-01T01:06:37Z</time>
      </trkpt>
      <trkpt lat="40.672099" lon="0.592039">
        <ele>0.011</ele>
        <time>1970-01-01T01:06:38Z</time>
      </trkpt>
      <trkpt lat="40.672062" lon="0.592011">
        <ele>0.354</ele>
        <time>1970-01-01T01:06:39Z</time>
      </trkpt>
      <trkpt lat="40.672029" lon="0.591979">
        <ele>0.594</ele>
        <time>1970-01-01T01:06:40Z</time>
      </trkpt>
      <trkpt lat="40.671996" lon="0.591947">
        <ele>0.670</ele>
        <time>1970-01-01T01:06:41Z</time>
      </trkpt>
      <trkpt lat="40.671965" lon="0.591915">
        <ele>1.054</ele>
        <time>1970-01-01T01:06:42Z</time>
      </trkpt>
      <trkpt lat="40.671926" lon="0.591882">
        <ele>1.495</ele>
        <time>1970-01-01T01:06:43Z</time>
      </trkpt>
      <trkpt lat="40.671887" lon="0.591847">
        <ele>1.831</ele>
        <time>1970-01-01T01:06:44Z</time>
      </trkpt>
      <trkpt lat="40.671846" lon="0.591814">
        <ele>2.261</ele>
        <time>1970-01-01T01:06:45Z</time>
      </trkpt>
      <trkpt lat="40.671805" lon="0.591777">
        <ele>2.507</ele>
        <time>1970-01-01T01:06:46Z</time>
      </trkpt>
      <trkpt lat="40.671762" lon="0.591739">
        <ele>2.708</ele>
        <time>1970-01-01T01:06:47Z</time>
      </trkpt>
      <trkpt lat="40.671717" lon="0.591694">
        <ele>2.980</ele>
        <time>1970-01-01T01:06:48Z</time>
      </trkpt>
      <trkpt lat="40.671672" lon="0.591645">
        <ele>2.917</ele>
        <time>1970-01-01T01:06:49Z</time>
      </trkpt>
      <trkpt lat="40.671625" lon="0.591596">
        <ele>2.958</ele>
        <time>1970-01-01T01:06:50Z</time>
      </trkpt>
      <trkpt lat="40.671579" lon="0.591544">
        <ele>2.741</ele>
        <time>1970-01-01T01:06:51Z</time>
      </trkpt>
      <trkpt lat="40.671537" lon="0.591484">
        <ele>2.521</ele>
        <time>1970-01-01T01:06:52Z</time>
      </trkpt>
      <trkpt lat="40.671499" lon="0.591414">
        <ele>2.127</ele>
        <time>1970-01-01T01:06:53Z</time>
      </trkpt>
      <trkpt lat="40.671479" lon="0.591341">
        <ele>1.991</ele>
        <time>1970-01-01T01:06:54Z</time>
      </trkpt>
      <trkpt lat="40.671453" lon="0.591267">
        <ele>1.932</ele>
        <time>1970-01-01T01:06:55Z</time>
      </trkpt>
      <trkpt lat="40.671431" lon="0.591191">
        <ele>1.918</ele>
        <time>1970-01-01T01:06:56Z</time>
      </trkpt>
      <trkpt lat="40.671408" lon="0.591125">
        <ele>1.998</ele>
        <time>1970-01-01T01:06:57Z</time>
      </trkpt>
      <trkpt lat="40.671381" lon="0.591065">
        <ele>1.817</ele>
        <time>1970-01-01T01:06:58Z</time>
      </trkpt>
      <trkpt lat="40.671351" lon="0.591014">
        <ele>1.708</ele>
        <time>1970-01-01T01:06:59Z</time>
      </trkpt>
      <trkpt lat="40.671321" lon="0.590980">
        <ele>1.618</ele>
        <time>1970-01-01T01:07:00Z</time>
      </trkpt>
      <trkpt lat="40.671290" lon="0.590962">
        <ele>1.725</ele>
        <time>1970-01-01T01:07:01Z</time>
      </trkpt>
      <trkpt lat="40.671253" lon="0.590953">
        <ele>1.746</ele>
        <time>1970-01-01T01:07:02Z</time>
      </trkpt>
      <trkpt lat="40.671205" lon="0.590944">
        <ele>1.889</ele>
        <time>1970-01-01T01:07:03Z</time>
      </trkpt>
      <trkpt lat="40.671149" lon="0.590932">
        <ele>1.939</ele>
        <time>1970-01-01T01:07:04Z</time>
      </trkpt>
      <trkpt lat="40.671093" lon="0.590925">
        <ele>2.045</ele>
        <time>1970-01-01T01:07:05Z</time>
      </trkpt>
      <trkpt lat="40.671041" lon="0.590926">
        <ele>2.099</ele>
        <time>1970-01-01T01:07:06Z</time>
      </trkpt>
      <trkpt lat="40.670988" lon="0.590932">
        <ele>2.090</ele>
        <time>1970-01-01T01:07:07Z</time>
      </trkpt>
      <trkpt lat="40.670938" lon="0.590936">
        <ele>2.027</ele>
        <time>1970-01-01T01:07:08Z</time>
      </trkpt>
      <trkpt lat="40.670893" lon="0.590935">
        <ele>2.068</ele>
        <time>1970-01-01T01:07:09Z</time>
      </trkpt>
      <trkpt lat="40.670848" lon="0.590928">
        <ele>2.014</ele>
        <time>1970-01-01T01:07:10Z</time>
      </trkpt>
      <trkpt lat="40.670808" lon="0.590919">
        <ele>1.908</ele>
        <time>1970-01-01T01:07:11Z</time>
      </trkpt>
      <trkpt lat="40.670771" lon="0.590900">
        <ele>1.879</ele>
        <time>1970-01-01T01:07:12Z</time>
      </trkpt>
      <trkpt lat="40.670737" lon="0.590876">
        <ele>1.736</ele>
        <time>1970-01-01T01:07:13Z</time>
      </trkpt>
      <trkpt lat="40.670705" lon="0.590844">
        <ele>1.637</ele>
        <time>1970-01-01T01:07:14Z</time>
      </trkpt>
      <trkpt lat="40.670682" lon="0.590810">
        <ele>1.480</ele>
        <time>1970-01-01T01:07:15Z</time>
      </trkpt>
      <trkpt lat="40.670658" lon="0.590780">
        <ele>1.290</ele>
        <time>1970-01-01T01:07:16Z</time>
      </trkpt>
      <trkpt lat="40.670624" lon="0.590754">
        <ele>1.076</ele>
        <time>1970-01-01T01:07:17Z</time>
      </trkpt>
      <trkpt lat="40.670587" lon="0.590732">
        <ele>0.770</ele>
        <time>1970-01-01T01:07:18Z</time>
      </trkpt>
      <trkpt lat="40.670545" lon="0.590710">
        <ele>0.591</ele>
        <time>1970-01-01T01:07:19Z</time>
      </trkpt>
      <trkpt lat="40.670504" lon="0.590699">
        <ele>0.431</ele>
        <time>1970-01-01T01:07:20Z</time>
      </trkpt>
      <trkpt lat="40.670456" lon="0.590692">
        <ele>0.361</ele>
        <time>1970-01-01T01:07:21Z</time>
      </trkpt>
      <trkpt lat="40.670404" lon="0.590689">
        <ele>0.207</ele>
        <time>1970-01-01T01:07:22Z</time>
      </trkpt>
      <trkpt lat="40.670349" lon="0.590689">
        <ele>0.108</ele>
        <time>1970-01-01T01:07:23Z</time>
      </trkpt>
      <trkpt lat="40.670292" lon="0.590687">
        <ele>0.090</ele>
        <time>1970-01-01T01:07:24Z</time>
      </trkpt>
      <trkpt lat="40.670231" lon="0.590682">
        <ele>-0.297</ele>
        <time>1970-01-01T01:07:25Z</time>
      </trkpt>
      <trkpt lat="40.670169" lon="0.590682">
        <ele>-0.488</ele>
        <time>1970-01-01T01:07:26Z</time>
      </trkpt>
      <trkpt lat="40.670106" lon="0.590681">
        <ele>-0.641</ele>
        <time>1970-01-01T01:07:27Z</time>
      </trkpt>
      <trkpt lat="40.670043" lon="0.590680">
        <ele>-0.831</ele>
        <time>1970-01-01T01:07:28Z</time>
      </trkpt>
      <trkpt lat="40.669978" lon="0.590678">
        <ele>-1.097</ele>
        <time>1970-01-01T01:07:29Z</time>
      </trkpt>
      <trkpt lat="40.669912" lon="0.590677">
        <ele>-1.191</ele>
        <time>1970-01-01T01:07:30Z</time>
      </trkpt>
      <trkpt lat="40.669845" lon="0.590675">
        <ele>-1.252</ele>
        <time>1970-01-01T01:07:31Z</time>
      </trkpt>
      <trkpt lat="40.669778" lon="0.590673">
        <ele>-1.333</ele>
        <time>1970-01-01T01:07:32Z</time>
      </trkpt>
      <trkpt lat="40.669710" lon="0.590673">
        <ele>-1.523</ele>
        <time>1970-01-01T01:07:33Z</time>
      </trkpt>
      <trkpt lat="40.669643" lon="0.590674">
        <ele>-1.715</ele>
        <time>1970-01-01T01:07:34Z</time>
      </trkpt>
      <trkpt lat="40.669574" lon="0.590674">
        <ele>-2.008</ele>
        <time>1970-01-01T01:07:35Z</time>
      </trkpt>
      <trkpt lat="40.669505" lon="0.590674">
        <ele>-2.210</ele>
        <time>1970-01-01T01:07:36Z</time>
      </trkpt>
      <trkpt lat="40.669436" lon="0.590673">
        <ele>-2.417</ele>
        <time>1970-01-01T01:07:37Z</time>
      </trkpt>
      <trkpt lat="40.669367" lon="0.590672">
        <ele>-2.658</ele>
        <time>1970-01-01T01:07:38Z</time>
      </trkpt>
      <trkpt lat="40.669299" lon="0.590674">
        <ele>-2.751</ele>
        <time>1970-01-01T01:07:39Z</time>
      </trkpt>
      <trkpt lat="40.669230" lon="0.590675">
        <ele>-2.921</ele>
        <time>1970-01-01T01:07:40Z</time>
      </trkpt>
      <trkpt lat="40.669160" lon="0.590674">
        <ele>-3.077</ele>
        <time>1970-01-01T01:07:41Z</time>
      </trkpt>
      <trkpt lat="40.669090" lon="0.590673">
        <ele>-3.041</ele>
        <time>1970-01-01T01:07:42Z</time>
      </trkpt>
      <trkpt lat="40.669019" lon="0.590672">
        <ele>-3.032</ele>
        <time>1970-01-01T01:07:43Z</time>
      </trkpt>
      <trkpt lat="40.668948" lon="0.590673">
        <ele>-3.096</ele>
        <time>1970-01-01T01:07:44Z</time>
      </trkpt>
      <trkpt lat="40.668877" lon="0.590675">
        <ele>-3.031</ele>
        <time>1970-01-01T01:07:45Z</time>
      </trkpt>
      <trkpt lat="40.668806" lon="0.590676">
        <ele>-3.224</ele>
        <time>1970-01-01T01:07:46Z</time>
      </trkpt>
      <trkpt lat="40.668734" lon="0.590677">
        <ele>-3.308</ele>
        <time>1970-01-01T01:07:47Z</time>
      </trkpt>
      <trkpt lat="40.668661" lon="0.590677">
        <ele>-3.546</ele>
        <time>1970-01-01T01:07:48Z</time>
      </trkpt>
      <trkpt lat="40.668589" lon="0.590677">
        <ele>-3.613</ele>
        <time>1970-01-01T01:07:49Z</time>
      </trkpt>
      <trkpt lat="40.668517" lon="0.590679">
        <ele>-3.644</ele>
        <time>1970-01-01T01:07:50Z</time>
      </trkpt>
      <trkpt lat="40.668444" lon="0.590681">
        <ele>-3.597</ele>
        <time>1970-01-01T01:07:51Z</time>
      </trkpt>
      <trkpt lat="40.668370" lon="0.590681">
        <ele>-3.527</ele>
        <time>1970-01-01T01:07:52Z</time>
      </trkpt>
      <trkpt lat="40.668296" lon="0.590681">
        <ele>-3.623</ele>
        <time>1970-01-01T01:07:53Z</time>
      </trkpt>
      <trkpt lat="40.668222" lon="0.590681">
        <ele>-3.757</ele>
        <time>1970-01-01T01:07:54Z</time>
      </trkpt>
      <trkpt lat="40.668148" lon="0.590682">
        <ele>-3.838</ele>
        <time>1970-01-01T01:07:55Z</time>
      </trkpt>
      <trkpt lat="40.668074" lon="0.590682">
        <ele>-4.039</ele>
        <time>1970-01-01T01:07:56Z</time>
      </trkpt>
      <trkpt lat="40.668000" lon="0.590685">
        <ele>-3.801</ele>
        <time>1970-01-01T01:07:57Z</time>
      </trkpt>
      <trkpt lat="40.667924" lon="0.590690">
        <ele>-3.521</ele>
        <time>1970-01-01T01:07:58Z</time>
      </trkpt>
      <trkpt lat="40.667848" lon="0.590692">
        <ele>-3.308</ele>
        <time>1970-01-01T01:07:59Z</time>
      </trkpt>
      <trkpt lat="40.667771" lon="0.590691">
        <ele>-3.010</ele>
        <time>1970-01-01T01:08:00Z</time>
      </trkpt>
      <trkpt lat="40.667693" lon="0.590691">
        <ele>-2.427</ele>
        <time>1970-01-01T01:08:01Z</time>
      </trkpt>
      <trkpt lat="40.667616" lon="0.590694">
        <ele>-1.878</ele>
        <time>1970-01-01T01:08:02Z</time>
      </trkpt>
      <trkpt lat="40.667538" lon="0.590696">
        <ele>-1.311</ele>
        <time>1970-01-01T01:08:03Z</time>
      </trkpt>
      <trkpt lat="40.667460" lon="0.590697">
        <ele>-1.181</ele>
        <time>1970-01-01T01:08:04Z</time>
      </trkpt>
      <trkpt lat="40.667382" lon="0.590698">
        <ele>-1.247</ele>
        <time>1970-01-01T01:08:05Z</time>
      </trkpt>
      <trkpt lat="40.667305" lon="0.590700">
        <ele>-1.411</ele>
        <time>1970-01-01T01:08:06Z</time>
      </trkpt>
      <trkpt lat="40.667226" lon="0.590701">
        <ele>-1.552</ele>
        <time>1970-01-01T01:08:07Z</time>
      </trkpt>
      <trkpt lat="40.667148" lon="0.590702">
        <ele>-1.913</ele>
        <time>1970-01-01T01:08:08Z</time>
      </trkpt>
      <trkpt lat="40.667069" lon="0.590702">
        <ele>-2.343</ele>
        <time>1970-01-01T01:08:09Z</time>
      </trkpt>
      <trkpt lat="40.666990" lon="0.590701">
        <ele>-2.807</ele>
        <time>1970-01-01T01:08:10Z</time>
      </trkpt>
      <trkpt lat="40.666910" lon="0.590702">
        <ele>-3.008</ele>
        <time>1970-01-01T01:08:11Z</time>
      </trkpt>
      <trkpt lat="40.666831" lon="0.590703">
        <ele>-3.048</ele>
        <time>1970-01-01T01:08:12Z</time>
      </trkpt>
      <trkpt lat="40.666752" lon="0.590704">
        <ele>-3.045</ele>
        <time>1970-01-01T01:08:13Z</time>
      </trkpt>
      <trkpt lat="40.666673" lon="0.590705">
        <ele>-3.016</ele>
        <time>1970-01-01T01:08:14Z</time>
      </trkpt>
      <trkpt lat="40.666593" lon="0.590705">
        <ele>-2.989</ele>
        <time>1970-01-01T01:08:15Z</time>
      </trkpt>
      <trkpt lat="40.666513" lon="0.590706">
        <ele>-2.739</ele>
        <time>1970-01-01T01:08:16Z</time>
      </trkpt>
      <trkpt lat="40.666433" lon="0.590708">
        <ele>-2.565</ele>
        <time>1970-01-01T01:08:17Z</time>
      </trkpt>
      <trkpt lat="40.666353" lon="0.590710">
        <ele>-2.469</ele>
        <time>1970-01-01T01:08:18Z</time>
      </trkpt>
      <trkpt lat="40.666274" lon="0.590712">
        <ele>-2.490</ele>
        <time>1970-01-01T01:08:19Z</time>
      </trkpt>
      <trkpt lat="40.666195" lon="0.590713">
        <ele>-2.442</ele>
        <time>1970-01-01T01:08:20Z</time>
      </trkpt>
      <trkpt lat="40.666117" lon="0.590715">
        <ele>-2.422</ele>
        <time>1970-01-01T01:08:21Z</time>
      </trkpt>
      <trkpt lat="40.666039" lon="0.590716">
        <ele>-2.614</ele>
        <time>1970-01-01T01:08:22Z</time>
      </trkpt>
      <trkpt lat="40.665961" lon="0.590718">
        <ele>-2.708</ele>
        <time>1970-01-01T01:08:23Z</time>
      </trkpt>
      <trkpt lat="40.665884" lon="0.590719">
        <ele>-2.931</ele>
        <time>1970-01-01T01:08:24Z</time>
      </trkpt>
      <trkpt lat="40.665806" lon="0.590721">
        <ele>-2.928</ele>
        <time>1970-01-01T01:08:25Z</time>
      </trkpt>
      <trkpt lat="40.665728" lon="0.590723">
        <ele>-2.619</ele>
        <time>1970-01-01T01:08:26Z</time>
      </trkpt>
      <trkpt lat="40.665651" lon="0.590725">
        <ele>-2.392</ele>
        <time>1970-01-01T01:08:27Z</time>
      </trkpt>
      <trkpt lat="40.665573" lon="0.590727">
        <ele>-2.142</ele>
        <time>1970-01-01T01:08:28Z</time>
      </trkpt>
      <trkpt lat="40.665495" lon="0.590729">
        <ele>-1.938</ele>
        <time>1970-01-01T01:08:29Z</time>
      </trkpt>
      <trkpt lat="40.665416" lon="0.590731">
        <ele>-1.712</ele>
        <time>1970-01-01T01:08:30Z</time>
      </trkpt>
      <trkpt lat="40.665336" lon="0.590733">
        <ele>-1.583</ele>
        <time>1970-01-01T01:08:31Z</time>
      </trkpt>
      <trkpt lat="40.665257" lon="0.590735">
        <ele>-1.324</ele>
        <time>1970-01-01T01:08:32Z</time>
      </trkpt>
      <trkpt lat="40.665178" lon="0.590737">
        <ele>-1.204</ele>
        <time>1970-01-01T01:08:33Z</time>
      </trkpt>
      <trkpt lat="40.665100" lon="0.590739">
        <ele>-1.114</ele>
        <time>1970-01-01T01:08:34Z</time>
      </trkpt>
      <trkpt lat="40.665021" lon="0.590741">
        <ele>-1.008</ele>
        <time>1970-01-01T01:08:35Z</time>
      </trkpt>
      <trkpt lat="40.664943" lon="0.590744">
        <ele>-0.949</ele>
        <time>1970-01-01T01:08:36Z</time>
      </trkpt>
      <trkpt lat="40.664865" lon="0.590747">
        <ele>-0.756</ele>
        <time>1970-01-01T01:08:37Z</time>
      </trkpt>
      <trkpt lat="40.664786" lon="0.590750">
        <ele>-0.577</ele>
        <time>1970-01-01T01:08:38Z</time>
      </trkpt>
      <trkpt lat="40.664706" lon="0.590753">
        <ele>-0.310</ele>
        <time>1970-01-01T01:08:39Z</time>
      </trkpt>
      <trkpt lat="40.664627" lon="0.590756">
        <ele>-0.230</ele>
        <time>1970-01-01T01:08:40Z</time>
      </trkpt>
      <trkpt lat="40.664548" lon="0.590758">
        <ele>-0.166</ele>
        <time>1970-01-01T01:08:41Z</time>
      </trkpt>
      <trkpt lat="40.664469" lon="0.590760">
        <ele>-0.010</ele>
        <time>1970-01-01T01:08:42Z</time>
      </trkpt>
      <trkpt lat="40.664389" lon="0.590764">
        <ele>-0.271</ele>
        <time>1970-01-01T01:08:43Z</time>
      </trkpt>
      <trkpt lat="40.664310" lon="0.590769">
        <ele>-0.516</ele>
        <time>1970-01-01T01:08:44Z</time>
      </trkpt>
      <trkpt lat="40.664231" lon="0.590775">
        <ele>-0.876</ele>
        <time>1970-01-01T01:08:45Z</time>
      </trkpt>
      <trkpt lat="40.664152" lon="0.590782">
        <ele>-1.013</ele>
        <time>1970-01-01T01:08:46Z</time>
      </trkpt>
      <trkpt lat="40.664074" lon="0.590791">
        <ele>-1.008</ele>
        <time>1970-01-01T01:08:47Z</time>
      </trkpt>
      <trkpt lat="40.663995" lon="0.590801">
        <ele>-1.028</ele>
        <time>1970-01-01T01:08:48Z</time>
      </trkpt>
      <trkpt lat="40.663916" lon="0.590810">
        <ele>-1.035</ele>
        <time>1970-01-01T01:08:49Z</time>
      </trkpt>
      <trkpt lat="40.663837" lon="0.590820">
        <ele>-0.816</ele>
        <time>1970-01-01T01:08:50Z</time>
      </trkpt>
      <trkpt lat="40.663758" lon="0.590831">
        <ele>-0.569</ele>
        <time>1970-01-01T01:08:51Z</time>
      </trkpt>
      <trkpt lat="40.663680" lon="0.590844">
        <ele>-0.359</ele>
        <time>1970-01-01T01:08:52Z</time>
      </trkpt>
      <trkpt lat="40.663601" lon="0.590858">
        <ele>-0.175</ele>
        <time>1970-01-01T01:08:53Z</time>
      </trkpt>
      <trkpt lat="40.663523" lon="0.590872">
        <ele>-0.189</ele>
        <time>1970-01-01T01:08:54Z</time>
      </trkpt>
      <trkpt lat="40.663445" lon="0.590888">
        <ele>-0.270</ele>
        <time>1970-01-01T01:08:55Z</time>
      </trkpt>
      <trkpt lat="40.663368" lon="0.590904">
        <ele>-0.392</ele>
        <time>1970-01-01T01:08:56Z</time>
      </trkpt>
      <trkpt lat="40.663290" lon="0.590920">
        <ele>-0.573</ele>
        <time>1970-01-01T01:08:57Z</time>
      </trkpt>
      <trkpt lat="40.663214" lon="0.590936">
        <ele>-0.820</ele>
        <time>1970-01-01T01:08:58Z</time>
      </trkpt>
      <trkpt lat="40.663137" lon="0.590954">
        <ele>-1.108</ele>
        <time>1970-01-01T01:08:59Z</time>
      </trkpt>
      <trkpt lat="40.663060" lon="0.590974">
        <ele>-1.596</ele>
        <time>1970-01-01T01:09:00Z</time>
      </trkpt>
      <trkpt lat="40.662983" lon="0.590994">
        <ele>-1.733</ele>
        <time>1970-01-01T01:09:01Z</time>
      </trkpt>
      <trkpt lat="40.662905" lon="0.591015">
        <ele>-1.834</ele>
        <time>1970-01-01T01:09:02Z</time>
      </trkpt>
      <trkpt lat="40.662829" lon="0.591036">
        <ele>-1.977</ele>
        <time>1970-01-01T01:09:03Z</time>
      </trkpt>
      <trkpt lat="40.662752" lon="0.591058">
        <ele>-1.937</ele>
        <time>1970-01-01T01:09:04Z</time>
      </trkpt>
      <trkpt lat="40.662676" lon="0.591082">
        <ele>-1.673</ele>
        <time>1970-01-01T01:09:05Z</time>
      </trkpt>
      <trkpt lat="40.662600" lon="0.591107">
        <ele>-1.497</ele>
        <time>1970-01-01T01:09:06Z</time>
      </trkpt>
      <trkpt lat="40.662524" lon="0.591134">
        <ele>-1.258</ele>
        <time>1970-01-01T01:09:07Z</time>
      </trkpt>
      <trkpt lat="40.662448" lon="0.591162">
        <ele>-1.212</ele>
        <time>1970-01-01T01:09:08Z</time>
      </trkpt>
      <trkpt lat="40.662371" lon="0.591189">
        <ele>-1.332</ele>
        <time>1970-01-01T01:09:09Z</time>
      </trkpt>
      <trkpt lat="40.662295" lon="0.591217">
        <ele>-1.405</ele>
        <time>1970-01-01T01:09:10Z</time>
      </trkpt>
      <trkpt lat="40.662218" lon="0.591245">
        <ele>-1.508</ele>
        <time>1970-01-01T01:09:11Z</time>
      </trkpt>
      <trkpt lat="40.662142" lon="0.591272">
        <ele>-1.418</ele>
        <time>1970-01-01T01:09:12Z</time>
      </trkpt>
      <trkpt lat="40.662065" lon="0.591298">
        <ele>-1.325</ele>
        <time>1970-01-01T01:09:13Z</time>
      </trkpt>
      <trkpt lat="40.661989" lon="0.591323">
        <ele>-1.136</ele>
        <time>1970-01-01T01:09:14Z</time>
      </trkpt>
      <trkpt lat="40.661915" lon="0.591349">
        <ele>-1.079</ele>
        <time>1970-01-01T01:09:15Z</time>
      </trkpt>
      <trkpt lat="40.661842" lon="0.591376">
        <ele>-1.039</ele>
        <time>1970-01-01T01:09:16Z</time>
      </trkpt>
      <trkpt lat="40.661770" lon="0.591404">
        <ele>-1.045</ele>
        <time>1970-01-01T01:09:17Z</time>
      </trkpt>
      <trkpt lat="40.661698" lon="0.591433">
        <ele>-1.119</ele>
        <time>1970-01-01T01:09:18Z</time>
      </trkpt>
      <trkpt lat="40.661626" lon="0.591463">
        <ele>-1.220</ele>
        <time>1970-01-01T01:09:19Z</time>
      </trkpt>
      <trkpt lat="40.661553" lon="0.591493">
        <ele>-1.282</ele>
        <time>1970-01-01T01:09:20Z</time>
      </trkpt>
      <trkpt lat="40.661480" lon="0.591524">
        <ele>-1.243</ele>
        <time>1970-01-01T01:09:21Z</time>
      </trkpt>
      <trkpt lat="40.661406" lon="0.591555">
        <ele>-1.017</ele>
        <time>1970-01-01T01:09:22Z</time>
      </trkpt>
      <trkpt lat="40.661332" lon="0.591589">
        <ele>-1.208</ele>
        <time>1970-01-01T01:09:23Z</time>
      </trkpt>
      <trkpt lat="40.661257" lon="0.591624">
        <ele>-1.515</ele>
        <time>1970-01-01T01:09:24Z</time>
      </trkpt>
      <trkpt lat="40.661181" lon="0.591660">
        <ele>-1.722</ele>
        <time>1970-01-01T01:09:25Z</time>
      </trkpt>
      <trkpt lat="40.661106" lon="0.591695">
        <ele>-2.073</ele>
        <time>1970-01-01T01:09:26Z</time>
      </trkpt>
      <trkpt lat="40.661031" lon="0.591733">
        <ele>-1.936</ele>
        <time>1970-01-01T01:09:27Z</time>
      </trkpt>
      <trkpt lat="40.660956" lon="0.591770">
        <ele>-1.886</ele>
        <time>1970-01-01T01:09:28Z</time>
      </trkpt>
      <trkpt lat="40.660880" lon="0.591805">
        <ele>-1.632</ele>
        <time>1970-01-01T01:09:29Z</time>
      </trkpt>
      <trkpt lat="40.660804" lon="0.591841">
        <ele>-1.366</ele>
        <time>1970-01-01T01:09:30Z</time>
      </trkpt>
      <trkpt lat="40.660728" lon="0.591877">
        <ele>-1.047</ele>
        <time>1970-01-01T01:09:31Z</time>
      </trkpt>
      <trkpt lat="40.660652" lon="0.591914">
        <ele>-0.589</ele>
        <time>1970-01-01T01:09:32Z</time>
      </trkpt>
      <trkpt lat="40.660576" lon="0.591951">
        <ele>-0.106</ele>
        <time>1970-01-01T01:09:33Z</time>
      </trkpt>
      <trkpt lat="40.660499" lon="0.591985">
        <ele>-0.226</ele>
        <time>1970-01-01T01:09:34Z</time>
      </trkpt>
      <trkpt lat="40.660422" lon="0.592019">
        <ele>-0.408</ele>
        <time>1970-01-01T01:09:35Z</time>
      </trkpt>
      <trkpt lat="40.660345" lon="0.592053">
        <ele>-0.555</ele>
        <time>1970-01-01T01:09:36Z</time>
      </trkpt>
      <trkpt lat="40.660269" lon="0.592087">
        <ele>-0.562</ele>
        <time>1970-01-01T01:09:37Z</time>
      </trkpt>
      <trkpt lat="40.660192" lon="0.592122">
        <ele>-0.913</ele>
        <time>1970-01-01T01:09:38Z</time>
      </trkpt>
      <trkpt lat="40.660116" lon="0.592159">
        <ele>-1.316</ele>
        <time>1970-01-01T01:09:39Z</time>
      </trkpt>
      <trkpt lat="40.660040" lon="0.592195">
        <ele>-1.716</ele>
        <time>1970-01-01T01:09:40Z</time>
      </trkpt>
      <trkpt lat="40.659963" lon="0.592230">
        <ele>-2.152</ele>
        <time>1970-01-01T01:09:41Z</time>
      </trkpt>
      <trkpt lat="40.659887" lon="0.592266">
        <ele>-2.496</ele>
        <time>1970-01-01T01:09:42Z</time>
      </trkpt>
      <trkpt lat="40.659811" lon="0.592303">
        <ele>-2.797</ele>
        <time>1970-01-01T01:09:43Z</time>
      </trkpt>
      <trkpt lat="40.659735" lon="0.592341">
        <ele>-3.069</ele>
        <time>1970-01-01T01:09:44Z</time>
      </trkpt>
      <trkpt lat="40.659658" lon="0.592377">
        <ele>-3.004</ele>
        <time>1970-01-01T01:09:45Z</time>
      </trkpt>
      <trkpt lat="40.659581" lon="0.592413">
        <ele>-3.024</ele>
        <time>1970-01-01T01:09:46Z</time>
      </trkpt>
      <trkpt lat="40.659504" lon="0.592450">
        <ele>-3.008</ele>
        <time>1970-01-01T01:09:47Z</time>
      </trkpt>
      <trkpt lat="40.659426" lon="0.592487">
        <ele>-3.023</ele>
        <time>1970-01-01T01:09:48Z</time>
      </trkpt>
      <trkpt lat="40.659348" lon="0.592523">
        <ele>-2.940</ele>
        <time>1970-01-01T01:09:49Z</time>
      </trkpt>
      <trkpt lat="40.659270" lon="0.592559">
        <ele>-2.781</ele>
        <time>1970-01-01T01:09:50Z</time>
      </trkpt>
      <trkpt lat="40.659193" lon="0.592594">
        <ele>-2.454</ele>
        <time>1970-01-01T01:09:51Z</time>
      </trkpt>
      <trkpt lat="40.659116" lon="0.592629">
        <ele>-2.364</ele>
        <time>1970-01-01T01:09:52Z</time>
      </trkpt>
      <trkpt lat="40.659039" lon="0.592665">
        <ele>-2.370</ele>
        <time>1970-01-01T01:09:53Z</time>
      </trkpt>
      <trkpt lat="40.658963" lon="0.592701">
        <ele>-2.374</ele>
        <time>1970-01-01T01:09:54Z</time>
      </trkpt>
      <trkpt lat="40.658887" lon="0.592738">
        <ele>-2.325</ele>
        <time>1970-01-01T01:09:55Z</time>
      </trkpt>
      <trkpt lat="40.658812" lon="0.592775">
        <ele>-1.736</ele>
        <time>1970-01-01T01:09:56Z</time>
      </trkpt>
      <trkpt lat="40.658736" lon="0.592811">
        <ele>-1.317</ele>
        <time>1970-01-01T01:09:57Z</time>
      </trkpt>
      <trkpt lat="40.658661" lon="0.592846">
        <ele>-0.918</ele>
        <time>1970-01-01T01:09:58Z</time>
      </trkpt>
      <trkpt lat="40.658585" lon="0.592881">
        <ele>-0.708</ele>
        <time>1970-01-01T01:09:59Z</time>
      </trkpt>
      <trkpt lat="40.658510" lon="0.592916">
        <ele>-0.780</ele>
        <time>1970-01-01T01:10:00Z</time>
      </trkpt>
      <trkpt lat="40.658434" lon="0.592952">
        <ele>-0.877</ele>
        <time>1970-01-01T01:10:01Z</time>
      </trkpt>
      <trkpt lat="40.658358" lon="0.592988">
        <ele>-0.938</ele>
        <time>1970-01-01T01:10:02Z</time>
      </trkpt>
      <trkpt lat="40.658283" lon="0.593023">
        <ele>-1.091</ele>
        <time>1970-01-01T01:10:03Z</time>
      </trkpt>
      <trkpt lat="40.658208" lon="0.593059">
        <ele>-1.061</ele>
        <time>1970-01-01T01:10:04Z</time>
      </trkpt>
      <trkpt lat="40.658133" lon="0.593095">
        <ele>-1.197</ele>
        <time>1970-01-01T01:10:05Z</time>
      </trkpt>
      <trkpt lat="40.658057" lon="0.593132">
        <ele>-1.351</ele>
        <time>1970-01-01T01:10:06Z</time>
      </trkpt>
      <trkpt lat="40.657982" lon="0.593171">
        <ele>-1.282</ele>
        <time>1970-01-01T01:10:07Z</time>
      </trkpt>
      <trkpt lat="40.657907" lon="0.593211">
        <ele>-1.023</ele>
        <time>1970-01-01T01:10:08Z</time>
      </trkpt>
      <trkpt lat="40.657831" lon="0.593247">
        <ele>-0.983</ele>
        <time>1970-01-01T01:10:09Z</time>
      </trkpt>
      <trkpt lat="40.657754" lon="0.593282">
        <ele>-0.711</ele>
        <time>1970-01-01T01:10:10Z</time>
      </trkpt>
      <trkpt lat="40.657678" lon="0.593318">
        <ele>-0.608</ele>
        <time>1970-01-01T01:10:11Z</time>
      </trkpt>
      <trkpt lat="40.657601" lon="0.593354">
        <ele>-0.449</ele>
        <time>1970-01-01T01:10:12Z</time>
      </trkpt>
      <trkpt lat="40.657523" lon="0.593390">
        <ele>-0.366</ele>
        <time>1970-01-01T01:10:13Z</time>
      </trkpt>
      <trkpt lat="40.657444" lon="0.593426">
        <ele>-0.477</ele>
        <time>1970-01-01T01:10:14Z</time>
      </trkpt>
      <trkpt lat="40.657366" lon="0.593462">
        <ele>-0.510</ele>
        <time>1970-01-01T01:10:15Z</time>
      </trkpt>
      <trkpt lat="40.657288" lon="0.593499">
        <ele>-0.430</ele>
        <time>1970-01-01T01:10:16Z</time>
      </trkpt>
      <trkpt lat="40.657210" lon="0.593537">
        <ele>-0.396</ele>
        <time>1970-01-01T01:10:17Z</time>
      </trkpt>
      <trkpt lat="40.657132" lon="0.593574">
        <ele>-0.590</ele>
        <time>1970-01-01T01:10:18Z</time>
      </trkpt>
      <trkpt lat="40.657053" lon="0.593611">
        <ele>-0.671</ele>
        <time>1970-01-01T01:10:19Z</time>
      </trkpt>
      <trkpt lat="40.656973" lon="0.593646">
        <ele>-0.912</ele>
        <time>1970-01-01T01:10:20Z</time>
      </trkpt>
      <trkpt lat="40.656894" lon="0.593682">
        <ele>-1.032</ele>
        <time>1970-01-01T01:10:21Z</time>
      </trkpt>
      <trkpt lat="40.656816" lon="0.593718">
        <ele>-1.005</ele>
        <time>1970-01-01T01:10:22Z</time>
      </trkpt>
      <trkpt lat="40.656737" lon="0.593755">
        <ele>-1.008</ele>
        <time>1970-01-01T01:10:23Z</time>
      </trkpt>
      <trkpt lat="40.656657" lon="0.593792">
        <ele>-1.078</ele>
        <time>1970-01-01T01:10:24Z</time>
      </trkpt>
      <trkpt lat="40.656578" lon="0.593829">
        <ele>-0.865</ele>
        <time>1970-01-01T01:10:25Z</time>
      </trkpt>
      <trkpt lat="40.656497" lon="0.593867">
        <ele>-0.436</ele>
        <time>1970-01-01T01:10:26Z</time>
      </trkpt>
      <trkpt lat="40.656418" lon="0.593906">
        <ele>-0.219</ele>
        <time>1970-01-01T01:10:27Z</time>
      </trkpt>
      <trkpt lat="40.656338" lon="0.593945">
        <ele>-0.459</ele>
        <time>1970-01-01T01:10:28Z</time>
      </trkpt>
      <trkpt lat="40.656257" lon="0.593984">
        <ele>-0.865</ele>
        <time>1970-01-01T01:10:29Z</time>
      </trkpt>
      <trkpt lat="40.656177" lon="0.594023">
        <ele>-1.239</ele>
        <time>1970-01-01T01:10:30Z</time>
      </trkpt>
      <trkpt lat="40.656096" lon="0.594061">
        <ele>-1.630</ele>
        <time>1970-01-01T01:10:31Z</time>
      </trkpt>
      <trkpt lat="40.656016" lon="0.594099">
        <ele>-1.623</ele>
        <time>1970-01-01T01:10:32Z</time>
      </trkpt>
      <trkpt lat="40.655936" lon="0.594137">
        <ele>-1.483</ele>
        <time>1970-01-01T01:10:33Z</time>
      </trkpt>
      <trkpt lat="40.655855" lon="0.594174">
        <ele>-1.111</ele>
        <time>1970-01-01T01:10:34Z</time>
      </trkpt>
      <trkpt lat="40.655774" lon="0.594212">
        <ele>-1.308</ele>
        <time>1970-01-01T01:10:35Z</time>
      </trkpt>
      <trkpt lat="40.655694" lon="0.594251">
        <ele>-1.719</ele>
        <time>1970-01-01T01:10:36Z</time>
      </trkpt>
      <trkpt lat="40.655614" lon="0.594291">
        <ele>-1.936</ele>
        <time>1970-01-01T01:10:37Z</time>
      </trkpt>
      <trkpt lat="40.655535" lon="0.594331">
        <ele>-2.157</ele>
        <time>1970-01-01T01:10:38Z</time>
      </trkpt>
      <trkpt lat="40.655455" lon="0.594371">
        <ele>-2.480</ele>
        <time>1970-01-01T01:10:39Z</time>
      </trkpt>
      <trkpt lat="40.655376" lon="0.594410">
        <ele>-2.690</ele>
        <time>1970-01-01T01:10:40Z</time>
      </trkpt>
      <trkpt lat="40.655296" lon="0.594448">
        <ele>-2.996</ele>
        <time>1970-01-01T01:10:41Z</time>
      </trkpt>
      <trkpt lat="40.655215" lon="0.594484">
        <ele>-3.410</ele>
        <time>1970-01-01T01:10:42Z</time>
      </trkpt>
      <trkpt lat="40.655134" lon="0.594521">
        <ele>-3.841</ele>
        <time>1970-01-01T01:10:43Z</time>
      </trkpt>
      <trkpt lat="40.655055" lon="0.594560">
        <ele>-4.295</ele>
        <time>1970-01-01T01:10:44Z</time>
      </trkpt>
      <trkpt lat="40.654974" lon="0.594599">
        <ele>-4.549</ele>
        <time>1970-01-01T01:10:45Z</time>
      </trkpt>
      <trkpt lat="40.654892" lon="0.594637">
        <ele>-4.323</ele>
        <time>1970-01-01T01:10:46Z</time>
      </trkpt>
      <trkpt lat="40.654811" lon="0.594676">
        <ele>-4.208</ele>
        <time>1970-01-01T01:10:47Z</time>
      </trkpt>
      <trkpt lat="40.654729" lon="0.594715">
        <ele>-4.046</ele>
        <time>1970-01-01T01:10:48Z</time>
      </trkpt>
      <trkpt lat="40.654647" lon="0.594754">
        <ele>-3.763</ele>
        <time>1970-01-01T01:10:49Z</time>
      </trkpt>
      <trkpt lat="40.654565" lon="0.594794">
        <ele>-3.164</ele>
        <time>1970-01-01T01:10:50Z</time>
      </trkpt>
      <trkpt lat="40.654483" lon="0.594833">
        <ele>-2.537</ele>
        <time>1970-01-01T01:10:51Z</time>
      </trkpt>
      <trkpt lat="40.654401" lon="0.594873">
        <ele>-1.727</ele>
        <time>1970-01-01T01:10:52Z</time>
      </trkpt>
      <trkpt lat="40.654318" lon="0.594912">
        <ele>-1.053</ele>
        <time>1970-01-01T01:10:53Z</time>
      </trkpt>
      <trkpt lat="40.654236" lon="0.594951">
        <ele>-0.597</ele>
        <time>1970-01-01T01:10:54Z</time>
      </trkpt>
      <trkpt lat="40.654153" lon="0.594990">
        <ele>-0.048</ele>
        <time>1970-01-01T01:10:55Z</time>
      </trkpt>
      <trkpt lat="40.654070" lon="0.595028">
        <ele>0.144</ele>
        <time>1970-01-01T01:10:56Z</time>
      </trkpt>
      <trkpt lat="40.653986" lon="0.595066">
        <ele>0.105</ele>
        <time>1970-01-01T01:10:57Z</time>
      </trkpt>
      <trkpt lat="40.653902" lon="0.595104">
        <ele>0.015</ele>
        <time>1970-01-01T01:10:58Z</time>
      </trkpt>
      <trkpt lat="40.653819" lon="0.595143">
        <ele>-0.408</ele>
        <time>1970-01-01T01:10:59Z</time>
      </trkpt>
      <trkpt lat="40.653735" lon="0.595183">
        <ele>-0.951</ele>
        <time>1970-01-01T01:11:00Z</time>
      </trkpt>
      <trkpt lat="40.653651" lon="0.595222">
        <ele>-1.598</ele>
        <time>1970-01-01T01:11:01Z</time>
      </trkpt>
      <trkpt lat="40.653568" lon="0.595262">
        <ele>-1.969</ele>
        <time>1970-01-01T01:11:02Z</time>
      </trkpt>
      <trkpt lat="40.653485" lon="0.595301">
        <ele>-2.052</ele>
        <time>1970-01-01T01:11:03Z</time>
      </trkpt>
      <trkpt lat="40.653401" lon="0.595340">
        <ele>-2.122</ele>
        <time>1970-01-01T01:11:04Z</time>
      </trkpt>
      <trkpt lat="40.653318" lon="0.595379">
        <ele>-2.068</ele>
        <time>1970-01-01T01:11:05Z</time>
      </trkpt>
      <trkpt lat="40.653236" lon="0.595417">
        <ele>-2.292</ele>
        <time>1970-01-01T01:11:06Z</time>
      </trkpt>
      <trkpt lat="40.653154" lon="0.595457">
        <ele>-2.223</ele>
        <time>1970-01-01T01:11:07Z</time>
      </trkpt>
      <trkpt lat="40.653073" lon="0.595497">
        <ele>-2.257</ele>
        <time>1970-01-01T01:11:08Z</time>
      </trkpt>
      <trkpt lat="40.652991" lon="0.595537">
        <ele>-2.000</ele>
        <time>1970-01-01T01:11:09Z</time>
      </trkpt>
      <trkpt lat="40.652909" lon="0.595575">
        <ele>-2.020</ele>
        <time>1970-01-01T01:11:10Z</time>
      </trkpt>
      <trkpt lat="40.652827" lon="0.595614">
        <ele>-2.008</ele>
        <time>1970-01-01T01:11:11Z</time>
      </trkpt>
      <trkpt lat="40.652745" lon="0.595653">
        <ele>-1.912</ele>
        <time>1970-01-01T01:11:12Z</time>
      </trkpt>
      <trkpt lat="40.652663" lon="0.595690">
        <ele>-1.849</ele>
        <time>1970-01-01T01:11:13Z</time>
      </trkpt>
      <trkpt lat="40.652580" lon="0.595728">
        <ele>-1.780</ele>
        <time>1970-01-01T01:11:14Z</time>
      </trkpt>
      <trkpt lat="40.652499" lon="0.595765">
        <ele>-1.833</ele>
        <time>1970-01-01T01:11:15Z</time>
      </trkpt>
      <trkpt lat="40.652418" lon="0.595804">
        <ele>-2.213</ele>
        <time>1970-01-01T01:11:16Z</time>
      </trkpt>
      <trkpt lat="40.652337" lon="0.595843">
        <ele>-2.649</ele>
        <time>1970-01-01T01:11:17Z</time>
      </trkpt>
      <trkpt lat="40.652257" lon="0.595881">
        <ele>-2.913</ele>
        <time>1970-01-01T01:11:18Z</time>
      </trkpt>
      <trkpt lat="40.652177" lon="0.595917">
        <ele>-3.254</ele>
        <time>1970-01-01T01:11:19Z</time>
      </trkpt>
      <trkpt lat="40.652098" lon="0.595955">
        <ele>-3.492</ele>
        <time>1970-01-01T01:11:20Z</time>
      </trkpt>
      <trkpt lat="40.652019" lon="0.595993">
        <ele>-3.773</ele>
        <time>1970-01-01T01:11:21Z</time>
      </trkpt>
      <trkpt lat="40.651939" lon="0.596030">
        <ele>-4.020</ele>
        <time>1970-01-01T01:11:22Z</time>
      </trkpt>
      <trkpt lat="40.651860" lon="0.596068">
        <ele>-3.708</ele>
        <time>1970-01-01T01:11:23Z</time>
      </trkpt>
      <trkpt lat="40.651781" lon="0.596106">
        <ele>-3.416</ele>
        <time>1970-01-01T01:11:24Z</time>
      </trkpt>
      <trkpt lat="40.651701" lon="0.596143">
        <ele>-3.013</ele>
        <time>1970-01-01T01:11:25Z</time>
      </trkpt>
      <trkpt lat="40.651621" lon="0.596180">
        <ele>-2.854</ele>
        <time>1970-01-01T01:11:26Z</time>
      </trkpt>
      <trkpt lat="40.651540" lon="0.596217">
        <ele>-2.637</ele>
        <time>1970-01-01T01:11:27Z</time>
      </trkpt>
      <trkpt lat="40.651460" lon="0.596254">
        <ele>-2.547</ele>
        <time>1970-01-01T01:11:28Z</time>
      </trkpt>
      <trkpt lat="40.651381" lon="0.596291">
        <ele>-2.373</ele>
        <time>1970-01-01T01:11:29Z</time>
      </trkpt>
      <trkpt lat="40.651301" lon="0.596329">
        <ele>-2.117</ele>
        <time>1970-01-01T01:11:30Z</time>
      </trkpt>
      <trkpt lat="40.651222" lon="0.596366">
        <ele>-2.018</ele>
        <time>1970-01-01T01:11:31Z</time>
      </trkpt>
      <trkpt lat="40.651143" lon="0.596403">
        <ele>-1.996</ele>
        <time>1970-01-01T01:11:32Z</time>
      </trkpt>
      <trkpt lat="40.651063" lon="0.596440">
        <ele>-2.031</ele>
        <time>1970-01-01T01:11:33Z</time>
      </trkpt>
      <trkpt lat="40.650984" lon="0.596476">
        <ele>-2.324</ele>
        <time>1970-01-01T01:11:34Z</time>
      </trkpt>
      <trkpt lat="40.650904" lon="0.596513">
        <ele>-2.608</ele>
        <time>1970-01-01T01:11:35Z</time>
      </trkpt>
      <trkpt lat="40.650826" lon="0.596553">
        <ele>-3.076</ele>
        <time>1970-01-01T01:11:36Z</time>
      </trkpt>
      <trkpt lat="40.650747" lon="0.596592">
        <ele>-3.193</ele>
        <time>1970-01-01T01:11:37Z</time>
      </trkpt>
      <trkpt lat="40.650668" lon="0.596629">
        <ele>-3.174</ele>
        <time>1970-01-01T01:11:38Z</time>
      </trkpt>
      <trkpt lat="40.650589" lon="0.596663">
        <ele>-3.057</ele>
        <time>1970-01-01T01:11:39Z</time>
      </trkpt>
      <trkpt lat="40.650511" lon="0.596698">
        <ele>-2.727</ele>
        <time>1970-01-01T01:11:40Z</time>
      </trkpt>
      <trkpt lat="40.650434" lon="0.596739">
        <ele>-2.283</ele>
        <time>1970-01-01T01:11:41Z</time>
      </trkpt>
      <trkpt lat="40.650357" lon="0.596779">
        <ele>-1.677</ele>
        <time>1970-01-01T01:11:42Z</time>
      </trkpt>
      <trkpt lat="40.650279" lon="0.596815">
        <ele>-0.928</ele>
        <time>1970-01-01T01:11:43Z</time>
      </trkpt>
      <trkpt lat="40.650201" lon="0.596851">
        <ele>-0.675</ele>
        <time>1970-01-01T01:11:44Z</time>
      </trkpt>
      <trkpt lat="40.650123" lon="0.596887">
        <ele>-0.328</ele>
        <time>1970-01-01T01:11:45Z</time>
      </trkpt>
      <trkpt lat="40.650046" lon="0.596923">
        <ele>-0.120</ele>
        <time>1970-01-01T01:11:46Z</time>
      </trkpt>
      <trkpt lat="40.649967" lon="0.596959">
        <ele>0.008</ele>
        <time>1970-01-01T01:11:47Z</time>
      </trkpt>
      <trkpt lat="40.649888" lon="0.596997">
        <ele>0.144</ele>
        <time>1970-01-01T01:11:48Z</time>
      </trkpt>
      <trkpt lat="40.649810" lon="0.597036">
        <ele>0.111</ele>
        <time>1970-01-01T01:11:49Z</time>
      </trkpt>
      <trkpt lat="40.649731" lon="0.597075">
        <ele>0.092</ele>
        <time>1970-01-01T01:11:50Z</time>
      </trkpt>
      <trkpt lat="40.649652" lon="0.597113">
        <ele>-0.495</ele>
        <time>1970-01-01T01:11:51Z</time>
      </trkpt>
      <trkpt lat="40.649573" lon="0.597150">
        <ele>-0.965</ele>
        <time>1970-01-01T01:11:52Z</time>
      </trkpt>
      <trkpt lat="40.649493" lon="0.597187">
        <ele>-1.591</ele>
        <time>1970-01-01T01:11:53Z</time>
      </trkpt>
      <trkpt lat="40.649414" lon="0.597223">
        <ele>-2.055</ele>
        <time>1970-01-01T01:11:54Z</time>
      </trkpt>
      <trkpt lat="40.649334" lon="0.597258">
        <ele>-2.026</ele>
        <time>1970-01-01T01:11:55Z</time>
      </trkpt>
      <trkpt lat="40.649254" lon="0.597294">
        <ele>-2.062</ele>
        <time>1970-01-01T01:11:56Z</time>
      </trkpt>
      <trkpt lat="40.649175" lon="0.597330">
        <ele>-2.083</ele>
        <time>1970-01-01T01:11:57Z</time>
      </trkpt>
      <trkpt lat="40.649095" lon="0.597366">
        <ele>-1.911</ele>
        <time>1970-01-01T01:11:58Z</time>
      </trkpt>
      <trkpt lat="40.649016" lon="0.597401">
        <ele>-1.808</ele>
        <time>1970-01-01T01:11:59Z</time>
      </trkpt>
      <trkpt lat="40.648938" lon="0.597438">
        <ele>-1.853</ele>
        <time>1970-01-01T01:12:00Z</time>
      </trkpt>
      <trkpt lat="40.648859" lon="0.597474">
        <ele>-1.830</ele>
        <time>1970-01-01T01:12:01Z</time>
      </trkpt>
      <trkpt lat="40.648781" lon="0.597510">
        <ele>-1.681</ele>
        <time>1970-01-01T01:12:02Z</time>
      </trkpt>
      <trkpt lat="40.648701" lon="0.597545">
        <ele>-1.354</ele>
        <time>1970-01-01T01:12:03Z</time>
      </trkpt>
      <trkpt lat="40.648622" lon="0.597583">
        <ele>-1.014</ele>
        <time>1970-01-01T01:12:04Z</time>
      </trkpt>
      <trkpt lat="40.648544" lon="0.597621">
        <ele>-0.720</ele>
        <time>1970-01-01T01:12:05Z</time>
      </trkpt>
      <trkpt lat="40.648465" lon="0.597658">
        <ele>-0.254</ele>
        <time>1970-01-01T01:12:06Z</time>
      </trkpt>
      <trkpt lat="40.648385" lon="0.597695">
        <ele>0.435</ele>
        <time>1970-01-01T01:12:07Z</time>
      </trkpt>
      <trkpt lat="40.648305" lon="0.597731">
        <ele>0.874</ele>
        <time>1970-01-01T01:12:08Z</time>
      </trkpt>
      <trkpt lat="40.648226" lon="0.597768">
        <ele>1.056</ele>
        <time>1970-01-01T01:12:09Z</time>
      </trkpt>
      <trkpt lat="40.648147" lon="0.597805">
        <ele>1.021</ele>
        <time>1970-01-01T01:12:10Z</time>
      </trkpt>
      <trkpt lat="40.648067" lon="0.597842">
        <ele>1.008</ele>
        <time>1970-01-01T01:12:11Z</time>
      </trkpt>
      <trkpt lat="40.647988" lon="0.597878">
        <ele>1.014</ele>
        <time>1970-01-01T01:12:12Z</time>
      </trkpt>
      <trkpt lat="40.647909" lon="0.597916">
        <ele>1.071</ele>
        <time>1970-01-01T01:12:13Z</time>
      </trkpt>
      <trkpt lat="40.647831" lon="0.597953">
        <ele>1.052</ele>
        <time>1970-01-01T01:12:14Z</time>
      </trkpt>
      <trkpt lat="40.647752" lon="0.597990">
        <ele>1.055</ele>
        <time>1970-01-01T01:12:15Z</time>
      </trkpt>
      <trkpt lat="40.647674" lon="0.598026">
        <ele>1.085</ele>
        <time>1970-01-01T01:12:16Z</time>
      </trkpt>
      <trkpt lat="40.647596" lon="0.598063">
        <ele>1.041</ele>
        <time>1970-01-01T01:12:17Z</time>
      </trkpt>
      <trkpt lat="40.647518" lon="0.598100">
        <ele>0.875</ele>
        <time>1970-01-01T01:12:18Z</time>
      </trkpt>
      <trkpt lat="40.647441" lon="0.598139">
        <ele>0.716</ele>
        <time>1970-01-01T01:12:19Z</time>
      </trkpt>
      <trkpt lat="40.647364" lon="0.598177">
        <ele>0.699</ele>
        <time>1970-01-01T01:12:20Z</time>
      </trkpt>
      <trkpt lat="40.647286" lon="0.598213">
        <ele>0.407</ele>
        <time>1970-01-01T01:12:21Z</time>
      </trkpt>
      <trkpt lat="40.647208" lon="0.598250">
        <ele>0.227</ele>
        <time>1970-01-01T01:12:22Z</time>
      </trkpt>
      <trkpt lat="40.647130" lon="0.598287">
        <ele>-0.208</ele>
        <time>1970-01-01T01:12:23Z</time>
      </trkpt>
      <trkpt lat="40.647052" lon="0.598324">
        <ele>-0.646</ele>
        <time>1970-01-01T01:12:24Z</time>
      </trkpt>
      <trkpt lat="40.646974" lon="0.598361">
        <ele>-0.833</ele>
        <time>1970-01-01T01:12:25Z</time>
      </trkpt>
      <trkpt lat="40.646896" lon="0.598399">
        <ele>-0.894</ele>
        <time>1970-01-01T01:12:26Z</time>
      </trkpt>
      <trkpt lat="40.646818" lon="0.598436">
        <ele>-0.837</ele>
        <time>1970-01-01T01:12:27Z</time>
      </trkpt>
      <trkpt lat="40.646739" lon="0.598475">
        <ele>-0.957</ele>
        <time>1970-01-01T01:12:28Z</time>
      </trkpt>
      <trkpt lat="40.646660" lon="0.598512">
        <ele>-1.063</ele>
        <time>1970-01-01T01:12:29Z</time>
      </trkpt>
      <trkpt lat="40.646581" lon="0.598548">
        <ele>-1.377</ele>
        <time>1970-01-01T01:12:30Z</time>
      </trkpt>
      <trkpt lat="40.646502" lon="0.598587">
        <ele>-1.648</ele>
        <time>1970-01-01T01:12:31Z</time>
      </trkpt>
      <trkpt lat="40.646423" lon="0.598625">
        <ele>-1.948</ele>
        <time>1970-01-01T01:12:32Z</time>
      </trkpt>
      <trkpt lat="40.646344" lon="0.598663">
        <ele>-2.361</ele>
        <time>1970-01-01T01:12:33Z</time>
      </trkpt>
      <trkpt lat="40.646266" lon="0.598701">
        <ele>-2.817</ele>
        <time>1970-01-01T01:12:34Z</time>
      </trkpt>
      <trkpt lat="40.646187" lon="0.598739">
        <ele>-3.208</ele>
        <time>1970-01-01T01:12:35Z</time>
      </trkpt>
      <trkpt lat="40.646108" lon="0.598776">
        <ele>-3.681</ele>
        <time>1970-01-01T01:12:36Z</time>
      </trkpt>
      <trkpt lat="40.646029" lon="0.598814">
        <ele>-3.178</ele>
        <time>1970-01-01T01:12:37Z</time>
      </trkpt>
      <trkpt lat="40.645949" lon="0.598853">
        <ele>-2.799</ele>
        <time>1970-01-01T01:12:38Z</time>
      </trkpt>
      <trkpt lat="40.645869" lon="0.598891">
        <ele>-2.352</ele>
        <time>1970-01-01T01:12:39Z</time>
      </trkpt>
      <trkpt lat="40.645789" lon="0.598928">
        <ele>-1.552</ele>
        <time>1970-01-01T01:12:40Z</time>
      </trkpt>
      <trkpt lat="40.645709" lon="0.598966">
        <ele>-0.828</ele>
        <time>1970-01-01T01:12:41Z</time>
      </trkpt>
      <trkpt lat="40.645629" lon="0.599004">
        <ele>-0.172</ele>
        <time>1970-01-01T01:12:42Z</time>
      </trkpt>
      <trkpt lat="40.645548" lon="0.599044">
        <ele>0.413</ele>
        <time>1970-01-01T01:12:43Z</time>
      </trkpt>
      <trkpt lat="40.645468" lon="0.599083">
        <ele>-0.023</ele>
        <time>1970-01-01T01:12:44Z</time>
      </trkpt>
      <trkpt lat="40.645388" lon="0.599121">
        <ele>-0.483</ele>
        <time>1970-01-01T01:12:45Z</time>
      </trkpt>
      <trkpt lat="40.645308" lon="0.599159">
        <ele>-0.911</ele>
        <time>1970-01-01T01:12:46Z</time>
      </trkpt>
      <trkpt lat="40.645227" lon="0.599197">
        <ele>-1.008</ele>
        <time>1970-01-01T01:12:47Z</time>
      </trkpt>
      <trkpt lat="40.645147" lon="0.599234">
        <ele>-1.079</ele>
        <time>1970-01-01T01:12:48Z</time>
      </trkpt>
      <trkpt lat="40.645067" lon="0.599272">
        <ele>-1.046</ele>
        <time>1970-01-01T01:12:49Z</time>
      </trkpt>
      <trkpt lat="40.644986" lon="0.599310">
        <ele>-1.017</ele>
        <time>1970-01-01T01:12:50Z</time>
      </trkpt>
      <trkpt lat="40.644906" lon="0.599349">
        <ele>-1.040</ele>
        <time>1970-01-01T01:12:51Z</time>
      </trkpt>
      <trkpt lat="40.644826" lon="0.599387">
        <ele>-1.080</ele>
        <time>1970-01-01T01:12:52Z</time>
      </trkpt>
      <trkpt lat="40.644745" lon="0.599424">
        <ele>-1.016</ele>
        <time>1970-01-01T01:12:53Z</time>
      </trkpt>
      <trkpt lat="40.644665" lon="0.599462">
        <ele>-1.040</ele>
        <time>1970-01-01T01:12:54Z</time>
      </trkpt>
      <trkpt lat="40.644585" lon="0.599500">
        <ele>-1.191</ele>
        <time>1970-01-01T01:12:55Z</time>
      </trkpt>
      <trkpt lat="40.644506" lon="0.599537">
        <ele>-1.367</ele>
        <time>1970-01-01T01:12:56Z</time>
      </trkpt>
      <trkpt lat="40.644426" lon="0.599574">
        <ele>-1.481</ele>
        <time>1970-01-01T01:12:57Z</time>
      </trkpt>
      <trkpt lat="40.644346" lon="0.599611">
        <ele>-1.219</ele>
        <time>1970-01-01T01:12:58Z</time>
      </trkpt>
      <trkpt lat="40.644266" lon="0.599648">
        <ele>-1.108</ele>
        <time>1970-01-01T01:12:59Z</time>
      </trkpt>
      <trkpt lat="40.644187" lon="0.599684">
        <ele>-0.963</ele>
        <time>1970-01-01T01:13:00Z</time>
      </trkpt>
      <trkpt lat="40.644107" lon="0.599720">
        <ele>-0.610</ele>
        <time>1970-01-01T01:13:01Z</time>
      </trkpt>
      <trkpt lat="40.644028" lon="0.599755">
        <ele>-0.131</ele>
        <time>1970-01-01T01:13:02Z</time>
      </trkpt>
      <trkpt lat="40.643949" lon="0.599790">
        <ele>0.374</ele>
        <time>1970-01-01T01:13:03Z</time>
      </trkpt>
      <trkpt lat="40.643869" lon="0.599823">
        <ele>0.664</ele>
        <time>1970-01-01T01:13:04Z</time>
      </trkpt>
      <trkpt lat="40.643789" lon="0.599856">
        <ele>0.510</ele>
        <time>1970-01-01T01:13:05Z</time>
      </trkpt>
      <trkpt lat="40.643710" lon="0.599890">
        <ele>0.444</ele>
        <time>1970-01-01T01:13:06Z</time>
      </trkpt>
      <trkpt lat="40.643632" lon="0.599924">
        <ele>0.365</ele>
        <time>1970-01-01T01:13:07Z</time>
      </trkpt>
      <trkpt lat="40.643554" lon="0.599957">
        <ele>0.188</ele>
        <time>1970-01-01T01:13:08Z</time>
      </trkpt>
      <trkpt lat="40.643477" lon="0.599990">
        <ele>0.024</ele>
        <time>1970-01-01T01:13:09Z</time>
      </trkpt>
      <trkpt lat="40.643402" lon="0.600021">
        <ele>0.026</ele>
        <time>1970-01-01T01:13:10Z</time>
      </trkpt>
      <trkpt lat="40.643326" lon="0.600052">
        <ele>-0.008</ele>
        <time>1970-01-01T01:13:11Z</time>
      </trkpt>
      <trkpt lat="40.643252" lon="0.600080">
        <ele>-0.315</ele>
        <time>1970-01-01T01:13:12Z</time>
      </trkpt>
      <trkpt lat="40.643178" lon="0.600109">
        <ele>-0.622</ele>
        <time>1970-01-01T01:13:13Z</time>
      </trkpt>
      <trkpt lat="40.643104" lon="0.600139">
        <ele>-0.863</ele>
        <time>1970-01-01T01:13:14Z</time>
      </trkpt>
      <trkpt lat="40.643031" lon="0.600167">
        <ele>-1.136</ele>
        <time>1970-01-01T01:13:15Z</time>
      </trkpt>
      <trkpt lat="40.642958" lon="0.600194">
        <ele>-1.466</ele>
        <time>1970-01-01T01:13:16Z</time>
      </trkpt>
      <trkpt lat="40.642887" lon="0.600222">
        <ele>-1.612</ele>
        <time>1970-01-01T01:13:17Z</time>
      </trkpt>
      <trkpt lat="40.642817" lon="0.600254">
        <ele>-1.966</ele>
        <time>1970-01-01T01:13:18Z</time>
      </trkpt>
      <trkpt lat="40.642749" lon="0.600288">
        <ele>-1.967</ele>
        <time>1970-01-01T01:13:19Z</time>
      </trkpt>
      <trkpt lat="40.642682" lon="0.600321">
        <ele>-1.726</ele>
        <time>1970-01-01T01:13:20Z</time>
      </trkpt>
      <trkpt lat="40.642615" lon="0.600354">
        <ele>-1.647</ele>
        <time>1970-01-01T01:13:21Z</time>
      </trkpt>
      <trkpt lat="40.642548" lon="0.600387">
        <ele>-1.511</ele>
        <time>1970-01-01T01:13:22Z</time>
      </trkpt>
      <trkpt lat="40.642482" lon="0.600418">
        <ele>-1.508</ele>
        <time>1970-01-01T01:13:23Z</time>
      </trkpt>
      <trkpt lat="40.642416" lon="0.600446">
        <ele>-1.799</ele>
        <time>1970-01-01T01:13:24Z</time>
      </trkpt>
      <trkpt lat="40.642351" lon="0.600475">
        <ele>-1.986</ele>
        <time>1970-01-01T01:13:25Z</time>
      </trkpt>
      <trkpt lat="40.642290" lon="0.600507">
        <ele>-2.097</ele>
        <time>1970-01-01T01:13:26Z</time>
      </trkpt>
      <trkpt lat="40.642232" lon="0.600544">
        <ele>-2.060</ele>
        <time>1970-01-01T01:13:27Z</time>
      </trkpt>
      <trkpt lat="40.642181" lon="0.600584">
        <ele>-1.970</ele>
        <time>1970-01-01T01:13:28Z</time>
      </trkpt>
      <trkpt lat="40.642138" lon="0.600626">
        <ele>-1.756</ele>
        <time>1970-01-01T01:13:29Z</time>
      </trkpt>
      <trkpt lat="40.642104" lon="0.600672">
        <ele>-1.670</ele>
        <time>1970-01-01T01:13:30Z</time>
      </trkpt>
      <trkpt lat="40.642077" lon="0.600721">
        <ele>-1.471</ele>
        <time>1970-01-01T01:13:31Z</time>
      </trkpt>
      <trkpt lat="40.642049" lon="0.600772">
        <ele>-1.258</ele>
        <time>1970-01-01T01:13:32Z</time>
      </trkpt>
      <trkpt lat="40.642017" lon="0.600815">
        <ele>-1.152</ele>
        <time>1970-01-01T01:13:33Z</time>
      </trkpt>
      <trkpt lat="40.641980" lon="0.600848">
        <ele>-1.017</ele>
        <time>1970-01-01T01:13:34Z</time>
      </trkpt>
      <trkpt lat="40.641940" lon="0.600869">
        <ele>-1.008</ele>
        <time>1970-01-01T01:13:35Z</time>
      </trkpt>
      <trkpt lat="40.641895" lon="0.600871">
        <ele>-0.872</ele>
        <time>1970-01-01T01:13:36Z</time>
      </trkpt>
      <trkpt lat="40.641851" lon="0.600855">
        <ele>-0.779</ele>
        <time>1970-01-01T01:13:37Z</time>
      </trkpt>
      <trkpt lat="40.641812" lon="0.600825">
        <ele>-0.670</ele>
        <time>1970-01-01T01:13:38Z</time>
      </trkpt>
      <trkpt lat="40.641774" lon="0.600792">
        <ele>-0.683</ele>
        <time>1970-01-01T01:13:39Z</time>
      </trkpt>
      <trkpt lat="40.641742" lon="0.600757">
        <ele>-0.733</ele>
        <time>1970-01-01T01:13:40Z</time>
      </trkpt>
      <trkpt lat="40.641720" lon="0.600717">
        <ele>-0.939</ele>
        <time>1970-01-01T01:13:41Z</time>
      </trkpt>
      <trkpt lat="40.641703" lon="0.600682">
        <ele>-1.163</ele>
        <time>1970-01-01T01:13:42Z</time>
      </trkpt>
      <trkpt lat="40.641693" lon="0.600662">
        <ele>-1.364</ele>
        <time>1970-01-01T01:13:43Z</time>
      </trkpt>
      <trkpt lat="40.641689" lon="0.600655">
        <ele>-1.383</ele>
        <time>1970-01-01T01:13:44Z</time>
      </trkpt>
      <trkpt lat="40.641690" lon="0.600663">
        <ele>-1.325</ele>
        <time>1970-01-01T01:13:45Z</time>
      </trkpt>
      <trkpt lat="40.641689" lon="0.600672">
        <ele>-1.217</ele>
        <time>1970-01-01T01:13:46Z</time>
      </trkpt>
      <trkpt lat="40.641689" lon="0.600678">
        <ele>-1.208</ele>
        <time>1970-01-01T01:13:47Z</time>
      </trkpt>
      <trkpt lat="40.641689" lon="0.600683">
        <ele>-1.145</ele>
        <time>1970-01-01T01:13:48Z</time>
      </trkpt>
      <trkpt lat="40.641687" lon="0.600685">
        <ele>-1.152</ele>
        <time>1970-01-01T01:13:49Z</time>
      </trkpt>
      <trkpt lat="40.641640" lon="0.600699">
        <ele>-0.873</ele>
        <time>1970-01-01T01:13:56Z</time>
      </trkpt>
      <trkpt lat="40.641613" lon="0.600700">
        <ele>-0.716</ele>
        <time>1970-01-01T01:13:57Z</time>
      </trkpt>
      <trkpt lat="40.641578" lon="0.600705">
        <ele>-0.526</ele>
        <time>1970-01-01T01:13:58Z</time>
      </trkpt>
      <trkpt lat="40.641535" lon="0.600717">
        <ele>-0.262</ele>
        <time>1970-01-01T01:13:59Z</time>
      </trkpt>
      <trkpt lat="40.641486" lon="0.600731">
        <ele>0.276</ele>
        <time>1970-01-01T01:14:00Z</time>
      </trkpt>
      <trkpt lat="40.641431" lon="0.600749">
        <ele>0.597</ele>
        <time>1970-01-01T01:14:01Z</time>
      </trkpt>
      <trkpt lat="40.641371" lon="0.600770">
        <ele>0.944</ele>
        <time>1970-01-01T01:14:02Z</time>
      </trkpt>
      <trkpt lat="40.641309" lon="0.600791">
        <ele>1.205</ele>
        <time>1970-01-01T01:14:03Z</time>
      </trkpt>
      <trkpt lat="40.641247" lon="0.600812">
        <ele>1.515</ele>
        <time>1970-01-01T01:14:04Z</time>
      </trkpt>
      <trkpt lat="40.641182" lon="0.600834">
        <ele>1.708</ele>
        <time>1970-01-01T01:14:05Z</time>
      </trkpt>
      <trkpt lat="40.641115" lon="0.600854">
        <ele>1.981</ele>
        <time>1970-01-01T01:14:06Z</time>
      </trkpt>
      <trkpt lat="40.641047" lon="0.600873">
        <ele>1.918</ele>
        <time>1970-01-01T01:14:07Z</time>
      </trkpt>
      <trkpt lat="40.640979" lon="0.600894">
        <ele>1.839</ele>
        <time>1970-01-01T01:14:08Z</time>
      </trkpt>
      <trkpt lat="40.640911" lon="0.600915">
        <ele>1.732</ele>
        <time>1970-01-01T01:14:09Z</time>
      </trkpt>
      <trkpt lat="40.640842" lon="0.600936">
        <ele>1.672</ele>
        <time>1970-01-01T01:14:10Z</time>
      </trkpt>
      <trkpt lat="40.640773" lon="0.600956">
        <ele>1.488</ele>
        <time>1970-01-01T01:14:11Z</time>
      </trkpt>
      <trkpt lat="40.640703" lon="0.600978">
        <ele>1.392</ele>
        <time>1970-01-01T01:14:12Z</time>
      </trkpt>
      <trkpt lat="40.640633" lon="0.600999">
        <ele>1.183</ele>
        <time>1970-01-01T01:14:13Z</time>
      </trkpt>
      <trkpt lat="40.640563" lon="0.601019">
        <ele>1.049</ele>
        <time>1970-01-01T01:14:14Z</time>
      </trkpt>
      <trkpt lat="40.640492" lon="0.601038">
        <ele>1.002</ele>
        <time>1970-01-01T01:14:15Z</time>
      </trkpt>
      <trkpt lat="40.640422" lon="0.601057">
        <ele>1.022</ele>
        <time>1970-01-01T01:14:16Z</time>
      </trkpt>
      <trkpt lat="40.640351" lon="0.601076">
        <ele>1.008</ele>
        <time>1970-01-01T01:14:17Z</time>
      </trkpt>
      <trkpt lat="40.640281" lon="0.601093">
        <ele>1.091</ele>
        <time>1970-01-01T01:14:18Z</time>
      </trkpt>
      <trkpt lat="40.640210" lon="0.601110">
        <ele>1.058</ele>
        <time>1970-01-01T01:14:19Z</time>
      </trkpt>
      <trkpt lat="40.640139" lon="0.601126">
        <ele>0.999</ele>
        <time>1970-01-01T01:14:20Z</time>
      </trkpt>
      <trkpt lat="40.640067" lon="0.601143">
        <ele>0.912</ele>
        <time>1970-01-01T01:14:21Z</time>
      </trkpt>
      <trkpt lat="40.639996" lon="0.601159">
        <ele>0.822</ele>
        <time>1970-01-01T01:14:22Z</time>
      </trkpt>
      <trkpt lat="40.639924" lon="0.601175">
        <ele>0.678</ele>
        <time>1970-01-01T01:14:23Z</time>
      </trkpt>
      <trkpt lat="40.639851" lon="0.601190">
        <ele>0.352</ele>
        <time>1970-01-01T01:14:24Z</time>
      </trkpt>
      <trkpt lat="40.639777" lon="0.601204">
        <ele>0.193</ele>
        <time>1970-01-01T01:14:25Z</time>
      </trkpt>
      <trkpt lat="40.639703" lon="0.601219">
        <ele>-0.022</ele>
        <time>1970-01-01T01:14:26Z</time>
      </trkpt>
      <trkpt lat="40.639627" lon="0.601234">
        <ele>-0.262</ele>
        <time>1970-01-01T01:14:27Z</time>
      </trkpt>
      <trkpt lat="40.639552" lon="0.601250">
        <ele>-0.308</ele>
        <time>1970-01-01T01:14:28Z</time>
      </trkpt>
      <trkpt lat="40.639477" lon="0.601265">
        <ele>-0.508</ele>
        <time>1970-01-01T01:14:29Z</time>
      </trkpt>
      <trkpt lat="40.639401" lon="0.601282">
        <ele>-0.889</ele>
        <time>1970-01-01T01:14:30Z</time>
      </trkpt>
      <trkpt lat="40.639326" lon="0.601299">
        <ele>-1.166</ele>
        <time>1970-01-01T01:14:31Z</time>
      </trkpt>
      <trkpt lat="40.639250" lon="0.601314">
        <ele>-1.427</ele>
        <time>1970-01-01T01:14:32Z</time>
      </trkpt>
      <trkpt lat="40.639173" lon="0.601325">
        <ele>-1.790</ele>
        <time>1970-01-01T01:14:33Z</time>
      </trkpt>
      <trkpt lat="40.639096" lon="0.601336">
        <ele>-1.830</ele>
        <time>1970-01-01T01:14:34Z</time>
      </trkpt>
      <trkpt lat="40.639018" lon="0.601347">
        <ele>-1.896</ele>
        <time>1970-01-01T01:14:35Z</time>
      </trkpt>
      <trkpt lat="40.638940" lon="0.601358">
        <ele>-1.970</ele>
        <time>1970-01-01T01:14:36Z</time>
      </trkpt>
      <trkpt lat="40.638861" lon="0.601367">
        <ele>-1.731</ele>
        <time>1970-01-01T01:14:37Z</time>
      </trkpt>
      <trkpt lat="40.638783" lon="0.601377">
        <ele>-1.293</ele>
        <time>1970-01-01T01:14:38Z</time>
      </trkpt>
      <trkpt lat="40.638704" lon="0.601391">
        <ele>-0.765</ele>
        <time>1970-01-01T01:14:39Z</time>
      </trkpt>
      <trkpt lat="40.638625" lon="0.601405">
        <ele>-0.121</ele>
        <time>1970-01-01T01:14:40Z</time>
      </trkpt>
      <trkpt lat="40.638546" lon="0.601417">
        <ele>0.008</ele>
        <time>1970-01-01T01:14:41Z</time>
      </trkpt>
      <trkpt lat="40.638467" lon="0.601428">
        <ele>0.096</ele>
        <time>1970-01-01T01:14:42Z</time>
      </trkpt>
      <trkpt lat="40.638388" lon="0.601441">
        <ele>0.073</ele>
        <time>1970-01-01T01:14:43Z</time>
      </trkpt>
      <trkpt lat="40.638309" lon="0.601453">
        <ele>-0.044</ele>
        <time>1970-01-01T01:14:44Z</time>
      </trkpt>
      <trkpt lat="40.638230" lon="0.601465">
        <ele>-0.117</ele>
        <time>1970-01-01T01:14:45Z</time>
      </trkpt>
      <trkpt lat="40.638152" lon="0.601478">
        <ele>-0.237</ele>
        <time>1970-01-01T01:14:46Z</time>
      </trkpt>
      <trkpt lat="40.638074" lon="0.601490">
        <ele>-0.323</ele>
        <time>1970-01-01T01:14:47Z</time>
      </trkpt>
      <trkpt lat="40.637996" lon="0.601502">
        <ele>-0.377</ele>
        <time>1970-01-01T01:14:48Z</time>
      </trkpt>
      <trkpt lat="40.637918" lon="0.601515">
        <ele>-0.248</ele>
        <time>1970-01-01T01:14:49Z</time>
      </trkpt>
      <trkpt lat="40.637839" lon="0.601524">
        <ele>-0.138</ele>
        <time>1970-01-01T01:14:50Z</time>
      </trkpt>
      <trkpt lat="40.637758" lon="0.601531">
        <ele>0.170</ele>
        <time>1970-01-01T01:14:51Z</time>
      </trkpt>
      <trkpt lat="40.637677" lon="0.601538">
        <ele>0.417</ele>
        <time>1970-01-01T01:14:52Z</time>
      </trkpt>
      <trkpt lat="40.637595" lon="0.601544">
        <ele>0.708</ele>
        <time>1970-01-01T01:14:53Z</time>
      </trkpt>
      <trkpt lat="40.637513" lon="0.601550">
        <ele>1.040</ele>
        <time>1970-01-01T01:14:54Z</time>
      </trkpt>
      <trkpt lat="40.637431" lon="0.601557">
        <ele>1.037</ele>
        <time>1970-01-01T01:14:55Z</time>
      </trkpt>
      <trkpt lat="40.637348" lon="0.601565">
        <ele>1.048</ele>
        <time>1970-01-01T01:14:56Z</time>
      </trkpt>
      <trkpt lat="40.637264" lon="0.601573">
        <ele>1.051</ele>
        <time>1970-01-01T01:14:57Z</time>
      </trkpt>
      <trkpt lat="40.637180" lon="0.601581">
        <ele>0.881</ele>
        <time>1970-01-01T01:14:58Z</time>
      </trkpt>
      <trkpt lat="40.637093" lon="0.601589">
        <ele>0.557</ele>
        <time>1970-01-01T01:14:59Z</time>
      </trkpt>
      <trkpt lat="40.637007" lon="0.601599">
        <ele>0.281</ele>
        <time>1970-01-01T01:15:00Z</time>
      </trkpt>
      <trkpt lat="40.636921" lon="0.601607">
        <ele>0.082</ele>
        <time>1970-01-01T01:15:01Z</time>
      </trkpt>
      <trkpt lat="40.636834" lon="0.601613">
        <ele>0.018</ele>
        <time>1970-01-01T01:15:02Z</time>
      </trkpt>
      <trkpt lat="40.636747" lon="0.601620">
        <ele>0.098</ele>
        <time>1970-01-01T01:15:03Z</time>
      </trkpt>
      <trkpt lat="40.636660" lon="0.601627">
        <ele>-0.017</ele>
        <time>1970-01-01T01:15:04Z</time>
      </trkpt>
      <trkpt lat="40.636573" lon="0.601634">
        <ele>-0.308</ele>
        <time>1970-01-01T01:15:05Z</time>
      </trkpt>
      <trkpt lat="40.636485" lon="0.601641">
        <ele>-0.678</ele>
        <time>1970-01-01T01:15:06Z</time>
      </trkpt>
      <trkpt lat="40.636397" lon="0.601646">
        <ele>-0.925</ele>
        <time>1970-01-01T01:15:07Z</time>
      </trkpt>
      <trkpt lat="40.636310" lon="0.601650">
        <ele>-0.946</ele>
        <time>1970-01-01T01:15:08Z</time>
      </trkpt>
      <trkpt lat="40.636223" lon="0.601652">
        <ele>-0.979</ele>
        <time>1970-01-01T01:15:09Z</time>
      </trkpt>
      <trkpt lat="40.636136" lon="0.601653">
        <ele>-1.049</ele>
        <time>1970-01-01T01:15:10Z</time>
      </trkpt>
      <trkpt lat="40.636051" lon="0.601652">
        <ele>-0.715</ele>
        <time>1970-01-01T01:15:11Z</time>
      </trkpt>
      <trkpt lat="40.635965" lon="0.601653">
        <ele>-0.529</ele>
        <time>1970-01-01T01:15:12Z</time>
      </trkpt>
      <trkpt lat="40.635880" lon="0.601654">
        <ele>-0.260</ele>
        <time>1970-01-01T01:15:13Z</time>
      </trkpt>
      <trkpt lat="40.635795" lon="0.601657">
        <ele>0.097</ele>
        <time>1970-01-01T01:15:14Z</time>
      </trkpt>
      <trkpt lat="40.635710" lon="0.601660">
        <ele>0.023</ele>
        <time>1970-01-01T01:15:15Z</time>
      </trkpt>
      <trkpt lat="40.635625" lon="0.601661">
        <ele>0.025</ele>
        <time>1970-01-01T01:15:16Z</time>
      </trkpt>
      <trkpt lat="40.635540" lon="0.601661">
        <ele>0.008</ele>
        <time>1970-01-01T01:15:17Z</time>
      </trkpt>
      <trkpt lat="40.635455" lon="0.601660">
        <ele>0.056</ele>
        <time>1970-01-01T01:15:18Z</time>
      </trkpt>
      <trkpt lat="40.635370" lon="0.601661">
        <ele>0.093</ele>
        <time>1970-01-01T01:15:19Z</time>
      </trkpt>
      <trkpt lat="40.635285" lon="0.601663">
        <ele>0.024</ele>
        <time>1970-01-01T01:15:20Z</time>
      </trkpt>
      <trkpt lat="40.635200" lon="0.601662">
        <ele>0.367</ele>
        <time>1970-01-01T01:15:21Z</time>
      </trkpt>
      <trkpt lat="40.635114" lon="0.601661">
        <ele>0.687</ele>
        <time>1970-01-01T01:15:22Z</time>
      </trkpt>
      <trkpt lat="40.635029" lon="0.601658">
        <ele>0.943</ele>
        <time>1970-01-01T01:15:23Z</time>
      </trkpt>
      <trkpt lat="40.634943" lon="0.601656">
        <ele>0.857</ele>
        <time>1970-01-01T01:15:24Z</time>
      </trkpt>
      <trkpt lat="40.634857" lon="0.601654">
        <ele>0.538</ele>
        <time>1970-01-01T01:15:25Z</time>
      </trkpt>
      <trkpt lat="40.634771" lon="0.601654">
        <ele>0.258</ele>
        <time>1970-01-01T01:15:26Z</time>
      </trkpt>
      <trkpt lat="40.634684" lon="0.601653">
        <ele>-0.252</ele>
        <time>1970-01-01T01:15:27Z</time>
      </trkpt>
      <trkpt lat="40.634597" lon="0.601650">
        <ele>-0.817</ele>
        <time>1970-01-01T01:15:28Z</time>
      </trkpt>
      <trkpt lat="40.634510" lon="0.601647">
        <ele>-1.408</ele>
        <time>1970-01-01T01:15:29Z</time>
      </trkpt>
      <trkpt lat="40.634424" lon="0.601643">
        <ele>-1.862</ele>
        <time>1970-01-01T01:15:30Z</time>
      </trkpt>
      <trkpt lat="40.634337" lon="0.601639">
        <ele>-1.839</ele>
        <time>1970-01-01T01:15:31Z</time>
      </trkpt>
      <trkpt lat="40.634252" lon="0.601635">
        <ele>-1.980</ele>
        <time>1970-01-01T01:15:32Z</time>
      </trkpt>
      <trkpt lat="40.634166" lon="0.601632">
        <ele>-1.963</ele>
        <time>1970-01-01T01:15:33Z</time>
      </trkpt>
      <trkpt lat="40.634081" lon="0.601629">
        <ele>-2.253</ele>
        <time>1970-01-01T01:15:34Z</time>
      </trkpt>
      <trkpt lat="40.633997" lon="0.601624">
        <ele>-2.629</ele>
        <time>1970-01-01T01:15:35Z</time>
      </trkpt>
      <trkpt lat="40.633912" lon="0.601616">
        <ele>-2.963</ele>
        <time>1970-01-01T01:15:36Z</time>
      </trkpt>
      <trkpt lat="40.633826" lon="0.601608">
        <ele>-2.864</ele>
        <time>1970-01-01T01:15:37Z</time>
      </trkpt>
      <trkpt lat="40.633741" lon="0.601600">
        <ele>-2.513</ele>
        <time>1970-01-01T01:15:38Z</time>
      </trkpt>
      <trkpt lat="40.633656" lon="0.601593">
        <ele>-2.243</ele>
        <time>1970-01-01T01:15:39Z</time>
      </trkpt>
      <trkpt lat="40.633571" lon="0.601586">
        <ele>-2.007</ele>
        <time>1970-01-01T01:15:40Z</time>
      </trkpt>
      <trkpt lat="40.633486" lon="0.601578">
        <ele>-2.008</ele>
        <time>1970-01-01T01:15:41Z</time>
      </trkpt>
      <trkpt lat="40.633402" lon="0.601567">
        <ele>-2.098</ele>
        <time>1970-01-01T01:15:42Z</time>
      </trkpt>
      <trkpt lat="40.633316" lon="0.601557">
        <ele>-2.095</ele>
        <time>1970-01-01T01:15:43Z</time>
      </trkpt>
      <trkpt lat="40.633231" lon="0.601548">
        <ele>-2.276</ele>
        <time>1970-01-01T01:15:44Z</time>
      </trkpt>
      <trkpt lat="40.633146" lon="0.601538">
        <ele>-2.459</ele>
        <time>1970-01-01T01:15:45Z</time>
      </trkpt>
      <trkpt lat="40.633061" lon="0.601529">
        <ele>-2.519</ele>
        <time>1970-01-01T01:15:46Z</time>
      </trkpt>
      <trkpt lat="40.632976" lon="0.601519">
        <ele>-2.915</ele>
        <time>1970-01-01T01:15:47Z</time>
      </trkpt>
      <trkpt lat="40.632891" lon="0.601508">
        <ele>-3.429</ele>
        <time>1970-01-01T01:15:48Z</time>
      </trkpt>
      <trkpt lat="40.632807" lon="0.601496">
        <ele>-3.860</ele>
        <time>1970-01-01T01:15:49Z</time>
      </trkpt>
      <trkpt lat="40.632722" lon="0.601483">
        <ele>-4.188</ele>
        <time>1970-01-01T01:15:50Z</time>
      </trkpt>
      <trkpt lat="40.632636" lon="0.601471">
        <ele>-4.424</ele>
        <time>1970-01-01T01:15:51Z</time>
      </trkpt>
      <trkpt lat="40.632550" lon="0.601459">
        <ele>-4.626</ele>
        <time>1970-01-01T01:15:52Z</time>
      </trkpt>
      <trkpt lat="40.632464" lon="0.601449">
        <ele>-4.508</ele>
        <time>1970-01-01T01:15:53Z</time>
      </trkpt>
      <trkpt lat="40.632379" lon="0.601437">
        <ele>-4.075</ele>
        <time>1970-01-01T01:15:54Z</time>
      </trkpt>
      <trkpt lat="40.632293" lon="0.601423">
        <ele>-3.462</ele>
        <time>1970-01-01T01:15:55Z</time>
      </trkpt>
      <trkpt lat="40.632206" lon="0.601408">
        <ele>-2.933</ele>
        <time>1970-01-01T01:15:56Z</time>
      </trkpt>
      <trkpt lat="40.632120" lon="0.601390">
        <ele>-2.616</ele>
        <time>1970-01-01T01:15:57Z</time>
      </trkpt>
      <trkpt lat="40.632034" lon="0.601374">
        <ele>-2.446</ele>
        <time>1970-01-01T01:15:58Z</time>
      </trkpt>
      <trkpt lat="40.631948" lon="0.601357">
        <ele>-2.192</ele>
        <time>1970-01-01T01:15:59Z</time>
      </trkpt>
      <trkpt lat="40.631861" lon="0.601341">
        <ele>-1.926</ele>
        <time>1970-01-01T01:16:00Z</time>
      </trkpt>
      <trkpt lat="40.631775" lon="0.601326">
        <ele>-1.867</ele>
        <time>1970-01-01T01:16:01Z</time>
      </trkpt>
      <trkpt lat="40.631689" lon="0.601311">
        <ele>-1.645</ele>
        <time>1970-01-01T01:16:02Z</time>
      </trkpt>
      <trkpt lat="40.631603" lon="0.601296">
        <ele>-1.547</ele>
        <time>1970-01-01T01:16:03Z</time>
      </trkpt>
      <trkpt lat="40.631517" lon="0.601280">
        <ele>-1.411</ele>
        <time>1970-01-01T01:16:04Z</time>
      </trkpt>
      <trkpt lat="40.631430" lon="0.601264">
        <ele>-1.108</ele>
        <time>1970-01-01T01:16:05Z</time>
      </trkpt>
      <trkpt lat="40.631344" lon="0.601246">
        <ele>-0.941</ele>
        <time>1970-01-01T01:16:06Z</time>
      </trkpt>
      <trkpt lat="40.631258" lon="0.601228">
        <ele>-0.778</ele>
        <time>1970-01-01T01:16:07Z</time>
      </trkpt>
      <trkpt lat="40.631172" lon="0.601210">
        <ele>-0.529</ele>
        <time>1970-01-01T01:16:08Z</time>
      </trkpt>
      <trkpt lat="40.631087" lon="0.601192">
        <ele>-0.492</ele>
        <time>1970-01-01T01:16:09Z</time>
      </trkpt>
      <trkpt lat="40.631003" lon="0.601173">
        <ele>-0.512</ele>
        <time>1970-01-01T01:16:10Z</time>
      </trkpt>
      <trkpt lat="40.630919" lon="0.601152">
        <ele>-0.778</ele>
        <time>1970-01-01T01:16:11Z</time>
      </trkpt>
      <trkpt lat="40.630834" lon="0.601132">
        <ele>-1.032</ele>
        <time>1970-01-01T01:16:12Z</time>
      </trkpt>
      <trkpt lat="40.630749" lon="0.601112">
        <ele>-1.083</ele>
        <time>1970-01-01T01:16:13Z</time>
      </trkpt>
      <trkpt lat="40.630664" lon="0.601093">
        <ele>-1.012</ele>
        <time>1970-01-01T01:16:14Z</time>
      </trkpt>
      <trkpt lat="40.630578" lon="0.601072">
        <ele>-1.032</ele>
        <time>1970-01-01T01:16:15Z</time>
      </trkpt>
      <trkpt lat="40.630492" lon="0.601052">
        <ele>-0.805</ele>
        <time>1970-01-01T01:16:16Z</time>
      </trkpt>
      <trkpt lat="40.630407" lon="0.601031">
        <ele>-0.508</ele>
        <time>1970-01-01T01:16:17Z</time>
      </trkpt>
      <trkpt lat="40.630321" lon="0.601009">
        <ele>-0.248</ele>
        <time>1970-01-01T01:16:18Z</time>
      </trkpt>
      <trkpt lat="40.630236" lon="0.600988">
        <ele>-0.195</ele>
        <time>1970-01-01T01:16:19Z</time>
      </trkpt>
      <trkpt lat="40.630152" lon="0.600966">
        <ele>-0.226</ele>
        <time>1970-01-01T01:16:20Z</time>
      </trkpt>
      <trkpt lat="40.630067" lon="0.600945">
        <ele>-0.329</ele>
        <time>1970-01-01T01:16:21Z</time>
      </trkpt>
      <trkpt lat="40.629982" lon="0.600925">
        <ele>-0.379</ele>
        <time>1970-01-01T01:16:22Z</time>
      </trkpt>
      <trkpt lat="40.629898" lon="0.600907">
        <ele>-0.225</ele>
        <time>1970-01-01T01:16:23Z</time>
      </trkpt>
      <trkpt lat="40.629814" lon="0.600888">
        <ele>-0.179</ele>
        <time>1970-01-01T01:16:24Z</time>
      </trkpt>
      <trkpt lat="40.629730" lon="0.600867">
        <ele>-0.050</ele>
        <time>1970-01-01T01:16:25Z</time>
      </trkpt>
      <trkpt lat="40.629646" lon="0.600847">
        <ele>0.086</ele>
        <time>1970-01-01T01:16:26Z</time>
      </trkpt>
      <trkpt lat="40.629563" lon="0.600826">
        <ele>0.060</ele>
        <time>1970-01-01T01:16:27Z</time>
      </trkpt>
      <trkpt lat="40.629480" lon="0.600804">
        <ele>0.126</ele>
        <time>1970-01-01T01:16:28Z</time>
      </trkpt>
      <trkpt lat="40.629397" lon="0.600782">
        <ele>0.208</ele>
        <time>1970-01-01T01:16:29Z</time>
      </trkpt>
      <trkpt lat="40.629314" lon="0.600760">
        <ele>0.335</ele>
        <time>1970-01-01T01:16:30Z</time>
      </trkpt>
      <trkpt lat="40.629230" lon="0.600739">
        <ele>0.382</ele>
        <time>1970-01-01T01:16:31Z</time>
      </trkpt>
      <trkpt lat="40.629147" lon="0.600718">
        <ele>0.343</ele>
        <time>1970-01-01T01:16:32Z</time>
      </trkpt>
      <trkpt lat="40.629063" lon="0.600698">
        <ele>-0.236</ele>
        <time>1970-01-01T01:16:33Z</time>
      </trkpt>
      <trkpt lat="40.628979" lon="0.600678">
        <ele>-0.956</ele>
        <time>1970-01-01T01:16:34Z</time>
      </trkpt>
      <trkpt lat="40.628895" lon="0.600659">
        <ele>-1.682</ele>
        <time>1970-01-01T01:16:35Z</time>
      </trkpt>
      <trkpt lat="40.628811" lon="0.600641">
        <ele>-1.846</ele>
        <time>1970-01-01T01:16:36Z</time>
      </trkpt>
      <trkpt lat="40.628727" lon="0.600623">
        <ele>-1.957</ele>
        <time>1970-01-01T01:16:37Z</time>
      </trkpt>
      <trkpt lat="40.628643" lon="0.600605">
        <ele>-2.056</ele>
        <time>1970-01-01T01:16:38Z</time>
      </trkpt>
      <trkpt lat="40.628560" lon="0.600585">
        <ele>-1.759</ele>
        <time>1970-01-01T01:16:39Z</time>
      </trkpt>
      <trkpt lat="40.628476" lon="0.600565">
        <ele>-1.014</ele>
        <time>1970-01-01T01:16:40Z</time>
      </trkpt>
      <trkpt lat="40.628392" lon="0.600546">
        <ele>-0.408</ele>
        <time>1970-01-01T01:16:41Z</time>
      </trkpt>
      <trkpt lat="40.628308" lon="0.600528">
        <ele>0.212</ele>
        <time>1970-01-01T01:16:42Z</time>
      </trkpt>
      <trkpt lat="40.628224" lon="0.600511">
        <ele>0.629</ele>
        <time>1970-01-01T01:16:43Z</time>
      </trkpt>
      <trkpt lat="40.628141" lon="0.600492">
        <ele>0.950</ele>
        <time>1970-01-01T01:16:44Z</time>
      </trkpt>
      <trkpt lat="40.628058" lon="0.600470">
        <ele>1.393</ele>
        <time>1970-01-01T01:16:45Z</time>
      </trkpt>
      <trkpt lat="40.627976" lon="0.600447">
        <ele>1.583</ele>
        <time>1970-01-01T01:16:46Z</time>
      </trkpt>
      <trkpt lat="40.627893" lon="0.600423">
        <ele>1.819</ele>
        <time>1970-01-01T01:16:47Z</time>
      </trkpt>
      <trkpt lat="40.627810" lon="0.600402">
        <ele>2.093</ele>
        <time>1970-01-01T01:16:48Z</time>
      </trkpt>
      <trkpt lat="40.627725" lon="0.600382">
        <ele>1.964</ele>
        <time>1970-01-01T01:16:49Z</time>
      </trkpt>
      <trkpt lat="40.627640" lon="0.600363">
        <ele>1.576</ele>
        <time>1970-01-01T01:16:50Z</time>
      </trkpt>
      <trkpt lat="40.627555" lon="0.600342">
        <ele>1.190</ele>
        <time>1970-01-01T01:16:51Z</time>
      </trkpt>
      <trkpt lat="40.627471" lon="0.600321">
        <ele>0.719</ele>
        <time>1970-01-01T01:16:52Z</time>
      </trkpt>
      <trkpt lat="40.627386" lon="0.600300">
        <ele>0.108</ele>
        <time>1970-01-01T01:16:53Z</time>
      </trkpt>
      <trkpt lat="40.627301" lon="0.600279">
        <ele>-0.474</ele>
        <time>1970-01-01T01:16:54Z</time>
      </trkpt>
      <trkpt lat="40.627217" lon="0.600260">
        <ele>-1.041</ele>
        <time>1970-01-01T01:16:55Z</time>
      </trkpt>
      <trkpt lat="40.627132" lon="0.600241">
        <ele>-1.052</ele>
        <time>1970-01-01T01:16:56Z</time>
      </trkpt>
      <trkpt lat="40.627047" lon="0.600225">
        <ele>-1.165</ele>
        <time>1970-01-01T01:16:57Z</time>
      </trkpt>
      <trkpt lat="40.626961" lon="0.600214">
        <ele>-1.255</ele>
        <time>1970-01-01T01:16:58Z</time>
      </trkpt>
      <trkpt lat="40.626876" lon="0.600200">
        <ele>-1.241</ele>
        <time>1970-01-01T01:16:59Z</time>
      </trkpt>
      <trkpt lat="40.626790" lon="0.600181">
        <ele>-1.245</ele>
        <time>1970-01-01T01:17:00Z</time>
      </trkpt>
      <trkpt lat="40.626705" lon="0.600160">
        <ele>-1.146</ele>
        <time>1970-01-01T01:17:01Z</time>
      </trkpt>
      <trkpt lat="40.626620" lon="0.600139">
        <ele>-0.949</ele>
        <time>1970-01-01T01:17:02Z</time>
      </trkpt>
      <trkpt lat="40.626535" lon="0.600116">
        <ele>-0.702</ele>
        <time>1970-01-01T01:17:03Z</time>
      </trkpt>
      <trkpt lat="40.626450" lon="0.600091">
        <ele>-0.522</ele>
        <time>1970-01-01T01:17:04Z</time>
      </trkpt>
      <trkpt lat="40.626364" lon="0.600066">
        <ele>-0.108</ele>
        <time>1970-01-01T01:17:05Z</time>
      </trkpt>
      <trkpt lat="40.626277" lon="0.600043">
        <ele>0.261</ele>
        <time>1970-01-01T01:17:06Z</time>
      </trkpt>
      <trkpt lat="40.626189" lon="0.600019">
        <ele>0.798</ele>
        <time>1970-01-01T01:17:07Z</time>
      </trkpt>
      <trkpt lat="40.626101" lon="0.599997">
        <ele>1.069</ele>
        <time>1970-01-01T01:17:08Z</time>
      </trkpt>
      <trkpt lat="40.626014" lon="0.599975">
        <ele>0.952</ele>
        <time>1970-01-01T01:17:09Z</time>
      </trkpt>
      <trkpt lat="40.625927" lon="0.599955">
        <ele>0.852</ele>
        <time>1970-01-01T01:17:10Z</time>
      </trkpt>
      <trkpt lat="40.625839" lon="0.599933">
        <ele>0.878</ele>
        <time>1970-01-01T01:17:11Z</time>
      </trkpt>
      <trkpt lat="40.625753" lon="0.599912">
        <ele>0.412</ele>
        <time>1970-01-01T01:17:12Z</time>
      </trkpt>
      <trkpt lat="40.625665" lon="0.599890">
        <ele>-0.043</ele>
        <time>1970-01-01T01:17:13Z</time>
      </trkpt>
      <trkpt lat="40.625578" lon="0.599869">
        <ele>-0.446</ele>
        <time>1970-01-01T01:17:14Z</time>
      </trkpt>
      <trkpt lat="40.625491" lon="0.599848">
        <ele>-0.888</ele>
        <time>1970-01-01T01:17:15Z</time>
      </trkpt>
      <trkpt lat="40.625404" lon="0.599826">
        <ele>-1.016</ele>
        <time>1970-01-01T01:17:16Z</time>
      </trkpt>
      <trkpt lat="40.625317" lon="0.599806">
        <ele>-1.208</ele>
        <time>1970-01-01T01:17:17Z</time>
      </trkpt>
      <trkpt lat="40.625231" lon="0.599786">
        <ele>-1.121</ele>
        <time>1970-01-01T01:17:18Z</time>
      </trkpt>
      <trkpt lat="40.625146" lon="0.599766">
        <ele>-0.878</ele>
        <time>1970-01-01T01:17:19Z</time>
      </trkpt>
      <trkpt lat="40.625060" lon="0.599745">
        <ele>-0.419</ele>
        <time>1970-01-01T01:17:20Z</time>
      </trkpt>
      <trkpt lat="40.624974" lon="0.599724">
        <ele>-0.022</ele>
        <time>1970-01-01T01:17:21Z</time>
      </trkpt>
      <trkpt lat="40.624889" lon="0.599704">
        <ele>0.012</ele>
        <time>1970-01-01T01:17:22Z</time>
      </trkpt>
      <trkpt lat="40.624804" lon="0.599684">
        <ele>0.038</ele>
        <time>1970-01-01T01:17:23Z</time>
      </trkpt>
      <trkpt lat="40.624719" lon="0.599665">
        <ele>0.042</ele>
        <time>1970-01-01T01:17:24Z</time>
      </trkpt>
      <trkpt lat="40.624634" lon="0.599645">
        <ele>0.083</ele>
        <time>1970-01-01T01:17:25Z</time>
      </trkpt>
      <trkpt lat="40.624549" lon="0.599624">
        <ele>0.083</ele>
        <time>1970-01-01T01:17:26Z</time>
      </trkpt>
      <trkpt lat="40.624465" lon="0.599603">
        <ele>0.025</ele>
        <time>1970-01-01T01:17:27Z</time>
      </trkpt>
      <trkpt lat="40.624380" lon="0.599583">
        <ele>0.217</ele>
        <time>1970-01-01T01:17:28Z</time>
      </trkpt>
      <trkpt lat="40.624295" lon="0.599564">
        <ele>0.508</ele>
        <time>1970-01-01T01:17:29Z</time>
      </trkpt>
      <trkpt lat="40.624210" lon="0.599546">
        <ele>0.865</ele>
        <time>1970-01-01T01:17:30Z</time>
      </trkpt>
      <trkpt lat="40.624125" lon="0.599525">
        <ele>1.022</ele>
        <time>1970-01-01T01:17:31Z</time>
      </trkpt>
      <trkpt lat="40.624040" lon="0.599505">
        <ele>0.923</ele>
        <time>1970-01-01T01:17:32Z</time>
      </trkpt>
      <trkpt lat="40.623956" lon="0.599485">
        <ele>0.926</ele>
        <time>1970-01-01T01:17:33Z</time>
      </trkpt>
      <trkpt lat="40.623872" lon="0.599467">
        <ele>0.736</ele>
        <time>1970-01-01T01:17:34Z</time>
      </trkpt>
      <trkpt lat="40.623788" lon="0.599447">
        <ele>-0.152</ele>
        <time>1970-01-01T01:17:35Z</time>
      </trkpt>
      <trkpt lat="40.623704" lon="0.599428">
        <ele>-1.026</ele>
        <time>1970-01-01T01:17:36Z</time>
      </trkpt>
      <trkpt lat="40.623621" lon="0.599409">
        <ele>-1.957</ele>
        <time>1970-01-01T01:17:37Z</time>
      </trkpt>
      <trkpt lat="40.623539" lon="0.599389">
        <ele>-2.274</ele>
        <time>1970-01-01T01:17:38Z</time>
      </trkpt>
      <trkpt lat="40.623458" lon="0.599367">
        <ele>-2.456</ele>
        <time>1970-01-01T01:17:39Z</time>
      </trkpt>
      <trkpt lat="40.623377" lon="0.599345">
        <ele>-2.521</ele>
        <time>1970-01-01T01:17:40Z</time>
      </trkpt>
      <trkpt lat="40.623295" lon="0.599325">
        <ele>-2.308</ele>
        <time>1970-01-01T01:17:41Z</time>
      </trkpt>
      <trkpt lat="40.623213" lon="0.599306">
        <ele>-1.674</ele>
        <time>1970-01-01T01:17:42Z</time>
      </trkpt>
      <trkpt lat="40.623132" lon="0.599288">
        <ele>-1.031</ele>
        <time>1970-01-01T01:17:43Z</time>
      </trkpt>
      <trkpt lat="40.623050" lon="0.599269">
        <ele>-0.332</ele>
        <time>1970-01-01T01:17:44Z</time>
      </trkpt>
      <trkpt lat="40.622970" lon="0.599249">
        <ele>0.075</ele>
        <time>1970-01-01T01:17:45Z</time>
      </trkpt>
      <trkpt lat="40.622890" lon="0.599229">
        <ele>0.425</ele>
        <time>1970-01-01T01:17:46Z</time>
      </trkpt>
      <trkpt lat="40.622809" lon="0.599210">
        <ele>0.791</ele>
        <time>1970-01-01T01:17:47Z</time>
      </trkpt>
      <trkpt lat="40.622728" lon="0.599191">
        <ele>0.995</ele>
        <time>1970-01-01T01:17:48Z</time>
      </trkpt>
      <trkpt lat="40.622648" lon="0.599172">
        <ele>1.056</ele>
        <time>1970-01-01T01:17:49Z</time>
      </trkpt>
      <trkpt lat="40.622566" lon="0.599155">
        <ele>1.149</ele>
        <time>1970-01-01T01:17:50Z</time>
      </trkpt>
      <trkpt lat="40.622485" lon="0.599137">
        <ele>1.102</ele>
        <time>1970-01-01T01:17:51Z</time>
      </trkpt>
      <trkpt lat="40.622403" lon="0.599119">
        <ele>0.822</ele>
        <time>1970-01-01T01:17:52Z</time>
      </trkpt>
      <trkpt lat="40.622320" lon="0.599100">
        <ele>0.608</ele>
        <time>1970-01-01T01:17:53Z</time>
      </trkpt>
      <trkpt lat="40.622236" lon="0.599082">
        <ele>0.441</ele>
        <time>1970-01-01T01:17:54Z</time>
      </trkpt>
      <trkpt lat="40.622150" lon="0.599063">
        <ele>0.338</ele>
        <time>1970-01-01T01:17:55Z</time>
      </trkpt>
      <trkpt lat="40.622064" lon="0.599045">
        <ele>0.249</ele>
        <time>1970-01-01T01:17:56Z</time>
      </trkpt>
      <trkpt lat="40.621979" lon="0.599028">
        <ele>0.112</ele>
        <time>1970-01-01T01:17:57Z</time>
      </trkpt>
      <trkpt lat="40.621894" lon="0.599011">
        <ele>-0.132</ele>
        <time>1970-01-01T01:17:58Z</time>
      </trkpt>
      <trkpt lat="40.621810" lon="0.598995">
        <ele>-0.348</ele>
        <time>1970-01-01T01:17:59Z</time>
      </trkpt>
      <trkpt lat="40.621729" lon="0.598978">
        <ele>-0.582</ele>
        <time>1970-01-01T01:18:00Z</time>
      </trkpt>
      <trkpt lat="40.621650" lon="0.598959">
        <ele>-0.773</ele>
        <time>1970-01-01T01:18:01Z</time>
      </trkpt>
      <trkpt lat="40.621571" lon="0.598940">
        <ele>-0.828</ele>
        <time>1970-01-01T01:18:02Z</time>
      </trkpt>
      <trkpt lat="40.621495" lon="0.598921">
        <ele>-0.989</ele>
        <time>1970-01-01T01:18:03Z</time>
      </trkpt>
      <trkpt lat="40.621420" lon="0.598903">
        <ele>-0.917</ele>
        <time>1970-01-01T01:18:04Z</time>
      </trkpt>
      <trkpt lat="40.621347" lon="0.598887">
        <ele>-1.008</ele>
        <time>1970-01-01T01:18:05Z</time>
      </trkpt>
      <trkpt lat="40.621275" lon="0.598872">
        <ele>-1.069</ele>
        <time>1970-01-01T01:18:06Z</time>
      </trkpt>
      <trkpt lat="40.621206" lon="0.598856">
        <ele>-0.986</ele>
        <time>1970-01-01T01:18:07Z</time>
      </trkpt>
      <trkpt lat="40.621141" lon="0.598839">
        <ele>-0.897</ele>
        <time>1970-01-01T01:18:08Z</time>
      </trkpt>
      <trkpt lat="40.621076" lon="0.598823">
        <ele>-0.830</ele>
        <time>1970-01-01T01:18:09Z</time>
      </trkpt>
      <trkpt lat="40.621014" lon="0.598808">
        <ele>-0.780</ele>
        <time>1970-01-01T01:18:10Z</time>
      </trkpt>
      <trkpt lat="40.620954" lon="0.598796">
        <ele>-0.756</ele>
        <time>1970-01-01T01:18:11Z</time>
      </trkpt>
      <trkpt lat="40.620894" lon="0.598785">
        <ele>-0.640</ele>
        <time>1970-01-01T01:18:12Z</time>
      </trkpt>
      <trkpt lat="40.620833" lon="0.598778">
        <ele>-0.631</ele>
        <time>1970-01-01T01:18:13Z</time>
      </trkpt>
      <trkpt lat="40.620772" lon="0.598775">
        <ele>-0.435</ele>
        <time>1970-01-01T01:18:14Z</time>
      </trkpt>
      <trkpt lat="40.620711" lon="0.598777">
        <ele>-0.286</ele>
        <time>1970-01-01T01:18:15Z</time>
      </trkpt>
      <trkpt lat="40.620650" lon="0.598786">
        <ele>0.014</ele>
        <time>1970-01-01T01:18:16Z</time>
      </trkpt>
      <trkpt lat="40.620590" lon="0.598803">
        <ele>0.208</ele>
        <time>1970-01-01T01:18:17Z</time>
      </trkpt>
      <trkpt lat="40.620531" lon="0.598825">
        <ele>0.350</ele>
        <time>1970-01-01T01:18:18Z</time>
      </trkpt>
      <trkpt lat="40.620471" lon="0.598848">
        <ele>0.557</ele>
        <time>1970-01-01T01:18:19Z</time>
      </trkpt>
      <trkpt lat="40.620412" lon="0.598868">
        <ele>0.658</ele>
        <time>1970-01-01T01:18:20Z</time>
      </trkpt>
      <trkpt lat="40.620356" lon="0.598877">
        <ele>0.871</ele>
        <time>1970-01-01T01:18:21Z</time>
      </trkpt>
      <trkpt lat="40.620300" lon="0.598870">
        <ele>1.091</ele>
        <time>1970-01-01T01:18:22Z</time>
      </trkpt>
      <trkpt lat="40.620249" lon="0.598840">
        <ele>1.367</ele>
        <time>1970-01-01T01:18:23Z</time>
      </trkpt>
      <trkpt lat="40.620206" lon="0.598789">
        <ele>1.571</ele>
        <time>1970-01-01T01:18:24Z</time>
      </trkpt>
      <trkpt lat="40.620174" lon="0.598723">
        <ele>1.732</ele>
        <time>1970-01-01T01:18:25Z</time>
      </trkpt>
      <trkpt lat="40.620150" lon="0.598650">
        <ele>1.933</ele>
        <time>1970-01-01T01:18:26Z</time>
      </trkpt>
      <trkpt lat="40.620130" lon="0.598572">
        <ele>1.923</ele>
        <time>1970-01-01T01:18:27Z</time>
      </trkpt>
      <trkpt lat="40.620111" lon="0.598490">
        <ele>1.815</ele>
        <time>1970-01-01T01:18:28Z</time>
      </trkpt>
      <trkpt lat="40.620090" lon="0.598407">
        <ele>1.808</ele>
        <time>1970-01-01T01:18:29Z</time>
      </trkpt>
      <trkpt lat="40.620068" lon="0.598321">
        <ele>1.760</ele>
        <time>1970-01-01T01:18:30Z</time>
      </trkpt>
      <trkpt lat="40.620045" lon="0.598234">
        <ele>1.147</ele>
        <time>1970-01-01T01:18:31Z</time>
      </trkpt>
      <trkpt lat="40.620020" lon="0.598145">
        <ele>0.618</ele>
        <time>1970-01-01T01:18:32Z</time>
      </trkpt>
      <trkpt lat="40.619993" lon="0.598056">
        <ele>0.081</ele>
        <time>1970-01-01T01:18:33Z</time>
      </trkpt>
      <trkpt lat="40.619963" lon="0.597968">
        <ele>-0.121</ele>
        <time>1970-01-01T01:18:34Z</time>
      </trkpt>
      <trkpt lat="40.619931" lon="0.597880">
        <ele>-0.267</ele>
        <time>1970-01-01T01:18:35Z</time>
      </trkpt>
      <trkpt lat="40.619893" lon="0.597796">
        <ele>-0.281</ele>
        <time>1970-01-01T01:18:36Z</time>
      </trkpt>
      <trkpt lat="40.619850" lon="0.597715">
        <ele>0.172</ele>
        <time>1970-01-01T01:18:37Z</time>
      </trkpt>
      <trkpt lat="40.619803" lon="0.597640">
        <ele>0.452</ele>
        <time>1970-01-01T01:18:38Z</time>
      </trkpt>
      <trkpt lat="40.619754" lon="0.597570">
        <ele>0.853</ele>
        <time>1970-01-01T01:18:39Z</time>
      </trkpt>
      <trkpt lat="40.619703" lon="0.597503">
        <ele>1.008</ele>
        <time>1970-01-01T01:18:40Z</time>
      </trkpt>
      <trkpt lat="40.619654" lon="0.597437">
        <ele>0.808</ele>
        <time>1970-01-01T01:18:41Z</time>
      </trkpt>
      <trkpt lat="40.619604" lon="0.597372">
        <ele>0.752</ele>
        <time>1970-01-01T01:18:42Z</time>
      </trkpt>
      <trkpt lat="40.619555" lon="0.597307">
        <ele>0.779</ele>
        <time>1970-01-01T01:18:43Z</time>
      </trkpt>
      <trkpt lat="40.619506" lon="0.597241">
        <ele>0.830</ele>
        <time>1970-01-01T01:18:44Z</time>
      </trkpt>
      <trkpt lat="40.619459" lon="0.597175">
        <ele>0.873</ele>
        <time>1970-01-01T01:18:45Z</time>
      </trkpt>
      <trkpt lat="40.619410" lon="0.597111">
        <ele>0.533</ele>
        <time>1970-01-01T01:18:46Z</time>
      </trkpt>
      <trkpt lat="40.619362" lon="0.597047">
        <ele>0.329</ele>
        <time>1970-01-01T01:18:47Z</time>
      </trkpt>
      <trkpt lat="40.619315" lon="0.596981">
        <ele>0.133</ele>
        <time>1970-01-01T01:18:48Z</time>
      </trkpt>
      <trkpt lat="40.619268" lon="0.596914">
        <ele>0.054</ele>
        <time>1970-01-01T01:18:49Z</time>
      </trkpt>
      <trkpt lat="40.619223" lon="0.596847">
        <ele>0.021</ele>
        <time>1970-01-01T01:18:50Z</time>
      </trkpt>
      <trkpt lat="40.619178" lon="0.596782">
        <ele>0.041</ele>
        <time>1970-01-01T01:18:51Z</time>
      </trkpt>
      <trkpt lat="40.619132" lon="0.596716">
        <ele>0.005</ele>
        <time>1970-01-01T01:18:52Z</time>
      </trkpt>
      <trkpt lat="40.619085" lon="0.596653">
        <ele>0.008</ele>
        <time>1970-01-01T01:18:53Z</time>
      </trkpt>
      <trkpt lat="40.619039" lon="0.596590">
        <ele>0.369</ele>
        <time>1970-01-01T01:18:54Z</time>
      </trkpt>
      <trkpt lat="40.618994" lon="0.596525">
        <ele>0.556</ele>
        <time>1970-01-01T01:18:55Z</time>
      </trkpt>
      <trkpt lat="40.618948" lon="0.596462">
        <ele>0.787</ele>
        <time>1970-01-01T01:18:56Z</time>
      </trkpt>
      <trkpt lat="40.618901" lon="0.596399">
        <ele>1.080</ele>
        <time>1970-01-01T01:18:57Z</time>
      </trkpt>
      <trkpt lat="40.618856" lon="0.596335">
        <ele>1.290</ele>
        <time>1970-01-01T01:18:58Z</time>
      </trkpt>
      <trkpt lat="40.618811" lon="0.596275">
        <ele>1.496</ele>
        <time>1970-01-01T01:18:59Z</time>
      </trkpt>
      <trkpt lat="40.618765" lon="0.596217">
        <ele>1.690</ele>
        <time>1970-01-01T01:19:00Z</time>
      </trkpt>
      <trkpt lat="40.618722" lon="0.596159">
        <ele>1.841</ele>
        <time>1970-01-01T01:19:01Z</time>
      </trkpt>
      <trkpt lat="40.618679" lon="0.596102">
        <ele>2.069</ele>
        <time>1970-01-01T01:19:02Z</time>
      </trkpt>
      <trkpt lat="40.618637" lon="0.596050">
        <ele>2.004</ele>
        <time>1970-01-01T01:19:03Z</time>
      </trkpt>
      <trkpt lat="40.618597" lon="0.595998">
        <ele>2.024</ele>
        <time>1970-01-01T01:19:04Z</time>
      </trkpt>
      <trkpt lat="40.618564" lon="0.595952">
        <ele>2.008</ele>
        <time>1970-01-01T01:19:05Z</time>
      </trkpt>
      <trkpt lat="40.618540" lon="0.595916">
        <ele>2.023</ele>
        <time>1970-01-01T01:19:06Z</time>
      </trkpt>
      <trkpt lat="40.618522" lon="0.595890">
        <ele>2.020</ele>
        <time>1970-01-01T01:19:07Z</time>
      </trkpt>
      <trkpt lat="40.618506" lon="0.595866">
        <ele>2.041</ele>
        <time>1970-01-01T01:19:08Z</time>
      </trkpt>
      <trkpt lat="40.618488" lon="0.595840">
        <ele>2.014</ele>
        <time>1970-01-01T01:19:09Z</time>
      </trkpt>
      <trkpt lat="40.618467" lon="0.595811">
        <ele>2.114</ele>
        <time>1970-01-01T01:19:10Z</time>
      </trkpt>
      <trkpt lat="40.618444" lon="0.595783">
        <ele>2.390</ele>
        <time>1970-01-01T01:19:11Z</time>
      </trkpt>
      <trkpt lat="40.618425" lon="0.595760">
        <ele>2.454</ele>
        <time>1970-01-01T01:19:12Z</time>
      </trkpt>
      <trkpt lat="40.618406" lon="0.595736">
        <ele>2.455</ele>
        <time>1970-01-01T01:19:13Z</time>
      </trkpt>
      <trkpt lat="40.618384" lon="0.595707">
        <ele>2.534</ele>
        <time>1970-01-01T01:19:14Z</time>
      </trkpt>
      <trkpt lat="40.618361" lon="0.595670">
        <ele>2.655</ele>
        <time>1970-01-01T01:19:15Z</time>
      </trkpt>
      <trkpt lat="40.618334" lon="0.595628">
        <ele>2.710</ele>
        <time>1970-01-01T01:19:16Z</time>
      </trkpt>
      <trkpt lat="40.618303" lon="0.595585">
        <ele>3.008</ele>
        <time>1970-01-01T01:19:17Z</time>
      </trkpt>
      <trkpt lat="40.618271" lon="0.595541">
        <ele>3.380</ele>
        <time>1970-01-01T01:19:18Z</time>
      </trkpt>
      <trkpt lat="40.618236" lon="0.595494">
        <ele>3.737</ele>
        <time>1970-01-01T01:19:19Z</time>
      </trkpt>
      <trkpt lat="40.618200" lon="0.595445">
        <ele>4.198</ele>
        <time>1970-01-01T01:19:20Z</time>
      </trkpt>
      <trkpt lat="40.618162" lon="0.595398">
        <ele>4.471</ele>
        <time>1970-01-01T01:19:21Z</time>
      </trkpt>
      <trkpt lat="40.618125" lon="0.595350">
        <ele>4.741</ele>
        <time>1970-01-01T01:19:22Z</time>
      </trkpt>
      <trkpt lat="40.618089" lon="0.595300">
        <ele>4.967</ele>
        <time>1970-01-01T01:19:23Z</time>
      </trkpt>
      <trkpt lat="40.618051" lon="0.595250">
        <ele>5.071</ele>
        <time>1970-01-01T01:19:24Z</time>
      </trkpt>
      <trkpt lat="40.618011" lon="0.595199">
        <ele>5.062</ele>
        <time>1970-01-01T01:19:25Z</time>
      </trkpt>
      <trkpt lat="40.617971" lon="0.595146">
        <ele>4.946</ele>
        <time>1970-01-01T01:19:26Z</time>
      </trkpt>
      <trkpt lat="40.617934" lon="0.595091">
        <ele>4.788</ele>
        <time>1970-01-01T01:19:27Z</time>
      </trkpt>
      <trkpt lat="40.617897" lon="0.595036">
        <ele>4.516</ele>
        <time>1970-01-01T01:19:28Z</time>
      </trkpt>
      <trkpt lat="40.617861" lon="0.594981">
        <ele>4.308</ele>
        <time>1970-01-01T01:19:29Z</time>
      </trkpt>
      <trkpt lat="40.617825" lon="0.594925">
        <ele>3.911</ele>
        <time>1970-01-01T01:19:30Z</time>
      </trkpt>
      <trkpt lat="40.617787" lon="0.594870">
        <ele>3.668</ele>
        <time>1970-01-01T01:19:31Z</time>
      </trkpt>
      <trkpt lat="40.617748" lon="0.594815">
        <ele>3.329</ele>
        <time>1970-01-01T01:19:32Z</time>
      </trkpt>
      <trkpt lat="40.617709" lon="0.594760">
        <ele>3.152</ele>
        <time>1970-01-01T01:19:33Z</time>
      </trkpt>
      <trkpt lat="40.617669" lon="0.594704">
        <ele>3.052</ele>
        <time>1970-01-01T01:19:34Z</time>
      </trkpt>
      <trkpt lat="40.617628" lon="0.594649">
        <ele>2.938</ele>
        <time>1970-01-01T01:19:35Z</time>
      </trkpt>
      <trkpt lat="40.617588" lon="0.594592">
        <ele>2.782</ele>
        <time>1970-01-01T01:19:36Z</time>
      </trkpt>
      <trkpt lat="40.617548" lon="0.594535">
        <ele>2.493</ele>
        <time>1970-01-01T01:19:37Z</time>
      </trkpt>
      <trkpt lat="40.617508" lon="0.594477">
        <ele>2.121</ele>
        <time>1970-01-01T01:19:38Z</time>
      </trkpt>
      <trkpt lat="40.617470" lon="0.594415">
        <ele>2.141</ele>
        <time>1970-01-01T01:19:39Z</time>
      </trkpt>
      <trkpt lat="40.617430" lon="0.594357">
        <ele>2.305</ele>
        <time>1970-01-01T01:19:40Z</time>
      </trkpt>
      <trkpt lat="40.617388" lon="0.594300">
        <ele>2.508</ele>
        <time>1970-01-01T01:19:41Z</time>
      </trkpt>
      <trkpt lat="40.617347" lon="0.594243">
        <ele>2.729</ele>
        <time>1970-01-01T01:19:42Z</time>
      </trkpt>
      <trkpt lat="40.617307" lon="0.594183">
        <ele>2.986</ele>
        <time>1970-01-01T01:19:43Z</time>
      </trkpt>
      <trkpt lat="40.617266" lon="0.594124">
        <ele>3.277</ele>
        <time>1970-01-01T01:19:44Z</time>
      </trkpt>
      <trkpt lat="40.617225" lon="0.594065">
        <ele>3.440</ele>
        <time>1970-01-01T01:19:45Z</time>
      </trkpt>
      <trkpt lat="40.617183" lon="0.594007">
        <ele>3.480</ele>
        <time>1970-01-01T01:19:46Z</time>
      </trkpt>
      <trkpt lat="40.617139" lon="0.593950">
        <ele>3.436</ele>
        <time>1970-01-01T01:19:47Z</time>
      </trkpt>
      <trkpt lat="40.617095" lon="0.593894">
        <ele>3.590</ele>
        <time>1970-01-01T01:19:48Z</time>
      </trkpt>
      <trkpt lat="40.617053" lon="0.593837">
        <ele>4.121</ele>
        <time>1970-01-01T01:19:49Z</time>
      </trkpt>
      <trkpt lat="40.617010" lon="0.593780">
        <ele>4.757</ele>
        <time>1970-01-01T01:19:50Z</time>
      </trkpt>
      <trkpt lat="40.616969" lon="0.593723">
        <ele>5.400</ele>
        <time>1970-01-01T01:19:51Z</time>
      </trkpt>
      <trkpt lat="40.616929" lon="0.593667">
        <ele>6.020</ele>
        <time>1970-01-01T01:19:52Z</time>
      </trkpt>
      <trkpt lat="40.616889" lon="0.593612">
        <ele>6.208</ele>
        <time>1970-01-01T01:19:53Z</time>
      </trkpt>
      <trkpt lat="40.616850" lon="0.593556">
        <ele>6.522</ele>
        <time>1970-01-01T01:19:54Z</time>
      </trkpt>
      <trkpt lat="40.616810" lon="0.593502">
        <ele>6.899</ele>
        <time>1970-01-01T01:19:55Z</time>
      </trkpt>
      <trkpt lat="40.616769" lon="0.593448">
        <ele>7.210</ele>
        <time>1970-01-01T01:19:56Z</time>
      </trkpt>
      <trkpt lat="40.616723" lon="0.593396">
        <ele>7.573</ele>
        <time>1970-01-01T01:19:57Z</time>
      </trkpt>
      <trkpt lat="40.616681" lon="0.593345">
        <ele>7.983</ele>
        <time>1970-01-01T01:19:58Z</time>
      </trkpt>
      <trkpt lat="40.616640" lon="0.593291">
        <ele>8.149</ele>
        <time>1970-01-01T01:19:59Z</time>
      </trkpt>
      <trkpt lat="40.616600" lon="0.593234">
        <ele>8.383</ele>
        <time>1970-01-01T01:20:00Z</time>
      </trkpt>
      <trkpt lat="40.616560" lon="0.593175">
        <ele>8.664</ele>
        <time>1970-01-01T01:20:01Z</time>
      </trkpt>
      <trkpt lat="40.616519" lon="0.593116">
        <ele>8.992</ele>
        <time>1970-01-01T01:20:02Z</time>
      </trkpt>
      <trkpt lat="40.616478" lon="0.593057">
        <ele>9.373</ele>
        <time>1970-01-01T01:20:03Z</time>
      </trkpt>
      <trkpt lat="40.616435" lon="0.592999">
        <ele>9.420</ele>
        <time>1970-01-01T01:20:04Z</time>
      </trkpt>
      <trkpt lat="40.616394" lon="0.592944">
        <ele>9.708</ele>
        <time>1970-01-01T01:20:05Z</time>
      </trkpt>
      <trkpt lat="40.616355" lon="0.592892">
        <ele>9.926</ele>
        <time>1970-01-01T01:20:06Z</time>
      </trkpt>
      <trkpt lat="40.616318" lon="0.592843">
        <ele>10.083</ele>
        <time>1970-01-01T01:20:07Z</time>
      </trkpt>
      <trkpt lat="40.616283" lon="0.592794">
        <ele>10.294</ele>
        <time>1970-01-01T01:20:08Z</time>
      </trkpt>
      <trkpt lat="40.616249" lon="0.592743">
        <ele>10.087</ele>
        <time>1970-01-01T01:20:09Z</time>
      </trkpt>
      <trkpt lat="40.616217" lon="0.592690">
        <ele>9.697</ele>
        <time>1970-01-01T01:20:10Z</time>
      </trkpt>
      <trkpt lat="40.616184" lon="0.592637">
        <ele>9.233</ele>
        <time>1970-01-01T01:20:11Z</time>
      </trkpt>
      <trkpt lat="40.616150" lon="0.592585">
        <ele>8.757</ele>
        <time>1970-01-01T01:20:12Z</time>
      </trkpt>
      <trkpt lat="40.616116" lon="0.592532">
        <ele>8.148</ele>
        <time>1970-01-01T01:20:13Z</time>
      </trkpt>
      <trkpt lat="40.616080" lon="0.592481">
        <ele>7.759</ele>
        <time>1970-01-01T01:20:14Z</time>
      </trkpt>
      <trkpt lat="40.616047" lon="0.592430">
        <ele>7.403</ele>
        <time>1970-01-01T01:20:15Z</time>
      </trkpt>
      <trkpt lat="40.616009" lon="0.592380">
        <ele>7.023</ele>
        <time>1970-01-01T01:20:16Z</time>
      </trkpt>
      <trkpt lat="40.615974" lon="0.592330">
        <ele>6.508</ele>
        <time>1970-01-01T01:20:17Z</time>
      </trkpt>
      <trkpt lat="40.615934" lon="0.592283">
        <ele>5.962</ele>
        <time>1970-01-01T01:20:18Z</time>
      </trkpt>
      <trkpt lat="40.615890" lon="0.592238">
        <ele>5.199</ele>
        <time>1970-01-01T01:20:19Z</time>
      </trkpt>
      <trkpt lat="40.615849" lon="0.592192">
        <ele>4.660</ele>
        <time>1970-01-01T01:20:20Z</time>
      </trkpt>
      <trkpt lat="40.615805" lon="0.592148">
        <ele>4.783</ele>
        <time>1970-01-01T01:20:21Z</time>
      </trkpt>
      <trkpt lat="40.615761" lon="0.592104">
        <ele>4.913</ele>
        <time>1970-01-01T01:20:22Z</time>
      </trkpt>
      <trkpt lat="40.615716" lon="0.592062">
        <ele>5.129</ele>
        <time>1970-01-01T01:20:23Z</time>
      </trkpt>
      <trkpt lat="40.615672" lon="0.592018">
        <ele>5.263</ele>
        <time>1970-01-01T01:20:24Z</time>
      </trkpt>
      <trkpt lat="40.615626" lon="0.591974">
        <ele>5.394</ele>
        <time>1970-01-01T01:20:25Z</time>
      </trkpt>
      <trkpt lat="40.615578" lon="0.591934">
        <ele>5.336</ele>
        <time>1970-01-01T01:20:26Z</time>
      </trkpt>
      <trkpt lat="40.615531" lon="0.591896">
        <ele>5.517</ele>
        <time>1970-01-01T01:20:27Z</time>
      </trkpt>
      <trkpt lat="40.615483" lon="0.591860">
        <ele>6.018</ele>
        <time>1970-01-01T01:20:28Z</time>
      </trkpt>
      <trkpt lat="40.615435" lon="0.591823">
        <ele>6.508</ele>
        <time>1970-01-01T01:20:29Z</time>
      </trkpt>
      <trkpt lat="40.615388" lon="0.591791">
        <ele>7.030</ele>
        <time>1970-01-01T01:20:30Z</time>
      </trkpt>
      <trkpt lat="40.615341" lon="0.591757">
        <ele>7.557</ele>
        <time>1970-01-01T01:20:31Z</time>
      </trkpt>
      <trkpt lat="40.615293" lon="0.591728">
        <ele>8.158</ele>
        <time>1970-01-01T01:20:32Z</time>
      </trkpt>
      <trkpt lat="40.615245" lon="0.591700">
        <ele>8.281</ele>
        <time>1970-01-01T01:20:33Z</time>
      </trkpt>
      <trkpt lat="40.615197" lon="0.591672">
        <ele>8.131</ele>
        <time>1970-01-01T01:20:34Z</time>
      </trkpt>
      <trkpt lat="40.615148" lon="0.591645">
        <ele>7.847</ele>
        <time>1970-01-01T01:20:35Z</time>
      </trkpt>
      <trkpt lat="40.615096" lon="0.591620">
        <ele>7.571</ele>
        <time>1970-01-01T01:20:36Z</time>
      </trkpt>
      <trkpt lat="40.615048" lon="0.591594">
        <ele>7.382</ele>
        <time>1970-01-01T01:20:37Z</time>
      </trkpt>
      <trkpt lat="40.614997" lon="0.591568">
        <ele>7.081</ele>
        <time>1970-01-01T01:20:38Z</time>
      </trkpt>
      <trkpt lat="40.614947" lon="0.591550">
        <ele>6.661</ele>
        <time>1970-01-01T01:20:39Z</time>
      </trkpt>
      <trkpt lat="40.614896" lon="0.591531">
        <ele>6.217</ele>
        <time>1970-01-01T01:20:40Z</time>
      </trkpt>
      <trkpt lat="40.614842" lon="0.591516">
        <ele>5.608</ele>
        <time>1970-01-01T01:20:41Z</time>
      </trkpt>
      <trkpt lat="40.614791" lon="0.591499">
        <ele>5.175</ele>
        <time>1970-01-01T01:20:42Z</time>
      </trkpt>
      <trkpt lat="40.614741" lon="0.591481">
        <ele>4.632</ele>
        <time>1970-01-01T01:20:43Z</time>
      </trkpt>
      <trkpt lat="40.614692" lon="0.591461">
        <ele>4.473</ele>
        <time>1970-01-01T01:20:44Z</time>
      </trkpt>
      <trkpt lat="40.614642" lon="0.591443">
        <ele>4.416</ele>
        <time>1970-01-01T01:20:45Z</time>
      </trkpt>
      <trkpt lat="40.614595" lon="0.591425">
        <ele>4.316</ele>
        <time>1970-01-01T01:20:46Z</time>
      </trkpt>
      <trkpt lat="40.614550" lon="0.591406">
        <ele>4.312</ele>
        <time>1970-01-01T01:20:47Z</time>
      </trkpt>
      <trkpt lat="40.614504" lon="0.591381">
        <ele>4.356</ele>
        <time>1970-01-01T01:20:48Z</time>
      </trkpt>
      <trkpt lat="40.614463" lon="0.591341">
        <ele>4.377</ele>
        <time>1970-01-01T01:20:49Z</time>
      </trkpt>
      <trkpt lat="40.614432" lon="0.591287">
        <ele>4.374</ele>
        <time>1970-01-01T01:20:50Z</time>
      </trkpt>
      <trkpt lat="40.614416" lon="0.591222">
        <ele>4.556</ele>
        <time>1970-01-01T01:20:51Z</time>
      </trkpt>
      <trkpt lat="40.614423" lon="0.591162">
        <ele>4.721</ele>
        <time>1970-01-01T01:20:52Z</time>
      </trkpt>
      <trkpt lat="40.614443" lon="0.591111">
        <ele>5.008</ele>
        <time>1970-01-01T01:20:53Z</time>
      </trkpt>
      <trkpt lat="40.614466" lon="0.591066">
        <ele>5.744</ele>
        <time>1970-01-01T01:20:54Z</time>
      </trkpt>
      <trkpt lat="40.614486" lon="0.591026">
        <ele>6.441</ele>
        <time>1970-01-01T01:20:55Z</time>
      </trkpt>
      <trkpt lat="40.614504" lon="0.590989">
        <ele>7.022</ele>
        <time>1970-01-01T01:20:56Z</time>
      </trkpt>
      <trkpt lat="40.614519" lon="0.590955">
        <ele>7.515</ele>
        <time>1970-01-01T01:20:57Z</time>
      </trkpt>
      <trkpt lat="40.614535" lon="0.590923">
        <ele>8.075</ele>
        <time>1970-01-01T01:20:58Z</time>
      </trkpt>
      <trkpt lat="40.614552" lon="0.590893">
        <ele>8.541</ele>
        <time>1970-01-01T01:20:59Z</time>
      </trkpt>
      <trkpt lat="40.614569" lon="0.590862">
        <ele>9.055</ele>
        <time>1970-01-01T01:21:00Z</time>
      </trkpt>
      <trkpt lat="40.614586" lon="0.590832">
        <ele>9.526</ele>
        <time>1970-01-01T01:21:01Z</time>
      </trkpt>
      <trkpt lat="40.614601" lon="0.590802">
        <ele>10.081</ele>
        <time>1970-01-01T01:21:02Z</time>
      </trkpt>
      <trkpt lat="40.614614" lon="0.590771">
        <ele>10.561</ele>
        <time>1970-01-01T01:21:03Z</time>
      </trkpt>
      <trkpt lat="40.614628" lon="0.590738">
        <ele>11.017</ele>
        <time>1970-01-01T01:21:04Z</time>
      </trkpt>
      <trkpt lat="40.614643" lon="0.590706">
        <ele>11.508</ele>
        <time>1970-01-01T01:21:05Z</time>
      </trkpt>
      <trkpt lat="40.614657" lon="0.590673">
        <ele>12.015</ele>
        <time>1970-01-01T01:21:06Z</time>
      </trkpt>
      <trkpt lat="40.614672" lon="0.590640">
        <ele>12.572</ele>
        <time>1970-01-01T01:21:07Z</time>
      </trkpt>
      <trkpt lat="40.614688" lon="0.590606">
        <ele>13.143</ele>
        <time>1970-01-01T01:21:08Z</time>
      </trkpt>
      <trkpt lat="40.614702" lon="0.590573">
        <ele>13.696</ele>
        <time>1970-01-01T01:21:09Z</time>
      </trkpt>
      <trkpt lat="40.614716" lon="0.590540">
        <ele>14.016</ele>
        <time>1970-01-01T01:21:10Z</time>
      </trkpt>
      <trkpt lat="40.614729" lon="0.590508">
        <ele>14.412</ele>
        <time>1970-01-01T01:21:11Z</time>
      </trkpt>
      <trkpt lat="40.614744" lon="0.590475">
        <ele>14.866</ele>
        <time>1970-01-01T01:21:12Z</time>
      </trkpt>
      <trkpt lat="40.614759" lon="0.590443">
        <ele>15.287</ele>
        <time>1970-01-01T01:21:13Z</time>
      </trkpt>
      <trkpt lat="40.614775" lon="0.590410">
        <ele>15.677</ele>
        <time>1970-01-01T01:21:14Z</time>
      </trkpt>
      <trkpt lat="40.614790" lon="0.590378">
        <ele>16.061</ele>
        <time>1970-01-01T01:21:15Z</time>
      </trkpt>
      <trkpt lat="40.614805" lon="0.590343">
        <ele>16.427</ele>
        <time>1970-01-01T01:21:16Z</time>
      </trkpt>
      <trkpt lat="40.614819" lon="0.590311">
        <ele>16.808</ele>
        <time>1970-01-01T01:21:17Z</time>
      </trkpt>
      <trkpt lat="40.614833" lon="0.590279">
        <ele>17.284</ele>
        <time>1970-01-01T01:21:18Z</time>
      </trkpt>
      <trkpt lat="40.614848" lon="0.590248">
        <ele>17.651</ele>
        <time>1970-01-01T01:21:19Z</time>
      </trkpt>
      <trkpt lat="40.614861" lon="0.590216">
        <ele>18.192</ele>
        <time>1970-01-01T01:21:20Z</time>
      </trkpt>
      <trkpt lat="40.614873" lon="0.590184">
        <ele>18.545</ele>
        <time>1970-01-01T01:21:21Z</time>
      </trkpt>
      <trkpt lat="40.614885" lon="0.590149">
        <ele>18.965</ele>
        <time>1970-01-01T01:21:22Z</time>
      </trkpt>
      <trkpt lat="40.614896" lon="0.590109">
        <ele>19.361</ele>
        <time>1970-01-01T01:21:23Z</time>
      </trkpt>
      <trkpt lat="40.614901" lon="0.590064">
        <ele>19.745</ele>
        <time>1970-01-01T01:21:24Z</time>
      </trkpt>
      <trkpt lat="40.614901" lon="0.590022">
        <ele>20.146</ele>
        <time>1970-01-01T01:21:25Z</time>
      </trkpt>
      <trkpt lat="40.614894" lon="0.589988">
        <ele>20.498</ele>
        <time>1970-01-01T01:21:26Z</time>
      </trkpt>
      <trkpt lat="40.614873" lon="0.589967">
        <ele>20.415</ele>
        <time>1970-01-01T01:21:27Z</time>
      </trkpt>
      <trkpt lat="40.614854" lon="0.589952">
        <ele>20.526</ele>
        <time>1970-01-01T01:21:28Z</time>
      </trkpt>
      <trkpt lat="40.614835" lon="0.589938">
        <ele>20.508</ele>
        <time>1970-01-01T01:21:29Z</time>
      </trkpt>
      <trkpt lat="40.614817" lon="0.589919">
        <ele>20.646</ele>
        <time>1970-01-01T01:21:30Z</time>
      </trkpt>
      <trkpt lat="40.614800" lon="0.589896">
        <ele>20.723</ele>
        <time>1970-01-01T01:21:31Z</time>
      </trkpt>
      <trkpt lat="40.614782" lon="0.589864">
        <ele>20.954</ele>
        <time>1970-01-01T01:21:32Z</time>
      </trkpt>
      <trkpt lat="40.614759" lon="0.589830">
        <ele>21.147</ele>
        <time>1970-01-01T01:21:33Z</time>
      </trkpt>
      <trkpt lat="40.614733" lon="0.589799">
        <ele>21.227</ele>
        <time>1970-01-01T01:21:34Z</time>
      </trkpt>
      <trkpt lat="40.614701" lon="0.589770">
        <ele>21.313</ele>
        <time>1970-01-01T01:21:35Z</time>
      </trkpt>
      <trkpt lat="40.614665" lon="0.589741">
        <ele>21.437</ele>
        <time>1970-01-01T01:21:36Z</time>
      </trkpt>
      <trkpt lat="40.614631" lon="0.589714">
        <ele>21.458</ele>
        <time>1970-01-01T01:21:37Z</time>
      </trkpt>
      <trkpt lat="40.614598" lon="0.589682">
        <ele>21.339</ele>
        <time>1970-01-01T01:21:38Z</time>
      </trkpt>
      <trkpt lat="40.614561" lon="0.589654">
        <ele>21.001</ele>
        <time>1970-01-01T01:21:39Z</time>
      </trkpt>
      <trkpt lat="40.614524" lon="0.589625">
        <ele>20.821</ele>
        <time>1970-01-01T01:21:40Z</time>
      </trkpt>
      <trkpt lat="40.614484" lon="0.589601">
        <ele>20.408</ele>
        <time>1970-01-01T01:21:41Z</time>
      </trkpt>
      <trkpt lat="40.614444" lon="0.589576">
        <ele>20.070</ele>
        <time>1970-01-01T01:21:42Z</time>
      </trkpt>
      <trkpt lat="40.614403" lon="0.589551">
        <ele>19.677</ele>
        <time>1970-01-01T01:21:43Z</time>
      </trkpt>
      <trkpt lat="40.614364" lon="0.589523">
        <ele>19.138</ele>
        <time>1970-01-01T01:21:44Z</time>
      </trkpt>
      <trkpt lat="40.614323" lon="0.589492">
        <ele>18.741</ele>
        <time>1970-01-01T01:21:45Z</time>
      </trkpt>
      <trkpt lat="40.614285" lon="0.589459">
        <ele>18.381</ele>
        <time>1970-01-01T01:21:46Z</time>
      </trkpt>
      <trkpt lat="40.614252" lon="0.589427">
        <ele>17.917</ele>
        <time>1970-01-01T01:21:47Z</time>
      </trkpt>
      <trkpt lat="40.614230" lon="0.589401">
        <ele>17.861</ele>
        <time>1970-01-01T01:21:48Z</time>
      </trkpt>
      <trkpt lat="40.614216" lon="0.589381">
        <ele>17.782</ele>
        <time>1970-01-01T01:21:49Z</time>
      </trkpt>
      <trkpt lat="40.614203" lon="0.589370">
        <ele>17.622</ele>
        <time>1970-01-01T01:21:50Z</time>
      </trkpt>
      <trkpt lat="40.614192" lon="0.589360">
        <ele>17.562</ele>
        <time>1970-01-01T01:21:51Z</time>
      </trkpt>
      <trkpt lat="40.614187" lon="0.589354">
        <ele>17.508</ele>
        <time>1970-01-01T01:21:52Z</time>
      </trkpt>
      <trkpt lat="40.614186" lon="0.589351">
        <ele>17.508</ele>
        <time>1970-01-01T01:21:53Z</time>
      </trkpt>
      <trkpt lat="40.614177" lon="0.589401">
        <ele>17.319</ele>
        <time>1970-01-01T01:22:02Z</time>
      </trkpt>
      <trkpt lat="40.614192" lon="0.589410">
        <ele>17.416</ele>
        <time>1970-01-01T01:22:03Z</time>
      </trkpt>
      <trkpt lat="40.614217" lon="0.589405">
        <ele>17.617</ele>
        <time>1970-01-01T01:22:04Z</time>
      </trkpt>
      <trkpt lat="40.614247" lon="0.589388">
        <ele>18.090</ele>
        <time>1970-01-01T01:22:05Z</time>
      </trkpt>
      <trkpt lat="40.614280" lon="0.589360">
        <ele>18.380</ele>
        <time>1970-01-01T01:22:06Z</time>
      </trkpt>
      <trkpt lat="40.614305" lon="0.589323">
        <ele>18.546</ele>
        <time>1970-01-01T01:22:07Z</time>
      </trkpt>
      <trkpt lat="40.614327" lon="0.589280">
        <ele>18.610</ele>
        <time>1970-01-01T01:22:08Z</time>
      </trkpt>
      <trkpt lat="40.614343" lon="0.589238">
        <ele>18.711</ele>
        <time>1970-01-01T01:22:09Z</time>
      </trkpt>
      <trkpt lat="40.614358" lon="0.589197">
        <ele>18.749</ele>
        <time>1970-01-01T01:22:10Z</time>
      </trkpt>
      <trkpt lat="40.614366" lon="0.589153">
        <ele>18.802</ele>
        <time>1970-01-01T01:22:11Z</time>
      </trkpt>
      <trkpt lat="40.614375" lon="0.589113">
        <ele>19.122</ele>
        <time>1970-01-01T01:22:12Z</time>
      </trkpt>
      <trkpt lat="40.614388" lon="0.589074">
        <ele>19.508</ele>
        <time>1970-01-01T01:22:13Z</time>
      </trkpt>
      <trkpt lat="40.614401" lon="0.589042">
        <ele>19.731</ele>
        <time>1970-01-01T01:22:14Z</time>
      </trkpt>
      <trkpt lat="40.614412" lon="0.589018">
        <ele>20.048</ele>
        <time>1970-01-01T01:22:15Z</time>
      </trkpt>
      <trkpt lat="40.614429" lon="0.589002">
        <ele>20.139</ele>
        <time>1970-01-01T01:22:16Z</time>
      </trkpt>
      <trkpt lat="40.614432" lon="0.588986">
        <ele>20.352</ele>
        <time>1970-01-01T01:22:17Z</time>
      </trkpt>
      <trkpt lat="40.614422" lon="0.588969">
        <ele>20.352</ele>
        <time>1970-01-01T01:22:18Z</time>
      </trkpt>
      <trkpt lat="40.614406" lon="0.588948">
        <ele>20.428</ele>
        <time>1970-01-01T01:22:19Z</time>
      </trkpt>
      <trkpt lat="40.614380" lon="0.588927">
        <ele>20.572</ele>
        <time>1970-01-01T01:22:20Z</time>
      </trkpt>
      <trkpt lat="40.614353" lon="0.588901">
        <ele>20.653</ele>
        <time>1970-01-01T01:22:21Z</time>
      </trkpt>
      <trkpt lat="40.614323" lon="0.588871">
        <ele>20.719</ele>
        <time>1970-01-01T01:22:22Z</time>
      </trkpt>
      <trkpt lat="40.614286" lon="0.588836">
        <ele>20.909</ele>
        <time>1970-01-01T01:22:23Z</time>
      </trkpt>
      <trkpt lat="40.614247" lon="0.588804">
        <ele>21.119</ele>
        <time>1970-01-01T01:22:24Z</time>
      </trkpt>
      <trkpt lat="40.614204" lon="0.588765">
        <ele>21.408</ele>
        <time>1970-01-01T01:22:25Z</time>
      </trkpt>
      <trkpt lat="40.614159" lon="0.588729">
        <ele>21.728</ele>
        <time>1970-01-01T01:22:26Z</time>
      </trkpt>
      <trkpt lat="40.614112" lon="0.588692">
        <ele>21.935</ele>
        <time>1970-01-01T01:22:27Z</time>
      </trkpt>
      <trkpt lat="40.614064" lon="0.588655">
        <ele>22.226</ele>
        <time>1970-01-01T01:22:28Z</time>
      </trkpt>
      <trkpt lat="40.614018" lon="0.588616">
        <ele>22.499</ele>
        <time>1970-01-01T01:22:29Z</time>
      </trkpt>
      <trkpt lat="40.613965" lon="0.588581">
        <ele>22.359</ele>
        <time>1970-01-01T01:22:30Z</time>
      </trkpt>
      <trkpt lat="40.613910" lon="0.588551">
        <ele>22.195</ele>
        <time>1970-01-01T01:22:31Z</time>
      </trkpt>
      <trkpt lat="40.613845" lon="0.588527">
        <ele>21.179</ele>
        <time>1970-01-01T01:22:32Z</time>
      </trkpt>
      <trkpt lat="40.613784" lon="0.588506">
        <ele>19.950</ele>
        <time>1970-01-01T01:22:33Z</time>
      </trkpt>
      <trkpt lat="40.613721" lon="0.588491">
        <ele>18.621</ele>
        <time>1970-01-01T01:22:34Z</time>
      </trkpt>
      <trkpt lat="40.613663" lon="0.588469">
        <ele>17.541</ele>
        <time>1970-01-01T01:22:35Z</time>
      </trkpt>
      <trkpt lat="40.613603" lon="0.588448">
        <ele>16.505</ele>
        <time>1970-01-01T01:22:36Z</time>
      </trkpt>
      <trkpt lat="40.613538" lon="0.588429">
        <ele>15.608</ele>
        <time>1970-01-01T01:22:37Z</time>
      </trkpt>
      <trkpt lat="40.613475" lon="0.588407">
        <ele>14.899</ele>
        <time>1970-01-01T01:22:38Z</time>
      </trkpt>
      <trkpt lat="40.613414" lon="0.588381">
        <ele>14.056</ele>
        <time>1970-01-01T01:22:39Z</time>
      </trkpt>
      <trkpt lat="40.613353" lon="0.588347">
        <ele>13.227</ele>
        <time>1970-01-01T01:22:40Z</time>
      </trkpt>
      <trkpt lat="40.613294" lon="0.588310">
        <ele>13.370</ele>
        <time>1970-01-01T01:22:41Z</time>
      </trkpt>
      <trkpt lat="40.613232" lon="0.588270">
        <ele>13.970</ele>
        <time>1970-01-01T01:22:42Z</time>
      </trkpt>
      <trkpt lat="40.613168" lon="0.588231">
        <ele>14.696</ele>
        <time>1970-01-01T01:22:43Z</time>
      </trkpt>
      <trkpt lat="40.613106" lon="0.588194">
        <ele>15.280</ele>
        <time>1970-01-01T01:22:44Z</time>
      </trkpt>
      <trkpt lat="40.613042" lon="0.588155">
        <ele>15.871</ele>
        <time>1970-01-01T01:22:45Z</time>
      </trkpt>
      <trkpt lat="40.612983" lon="0.588108">
        <ele>15.956</ele>
        <time>1970-01-01T01:22:46Z</time>
      </trkpt>
      <trkpt lat="40.612922" lon="0.588061">
        <ele>16.059</ele>
        <time>1970-01-01T01:22:47Z</time>
      </trkpt>
      <trkpt lat="40.612862" lon="0.588014">
        <ele>16.014</ele>
        <time>1970-01-01T01:22:48Z</time>
      </trkpt>
      <trkpt lat="40.612807" lon="0.587962">
        <ele>16.208</ele>
        <time>1970-01-01T01:22:49Z</time>
      </trkpt>
      <trkpt lat="40.612753" lon="0.587910">
        <ele>16.382</ele>
        <time>1970-01-01T01:22:50Z</time>
      </trkpt>
      <trkpt lat="40.612699" lon="0.587862">
        <ele>16.279</ele>
        <time>1970-01-01T01:22:51Z</time>
      </trkpt>
      <trkpt lat="40.612645" lon="0.587815">
        <ele>16.270</ele>
        <time>1970-01-01T01:22:52Z</time>
      </trkpt>
      <trkpt lat="40.612594" lon="0.587765">
        <ele>16.193</ele>
        <time>1970-01-01T01:22:53Z</time>
      </trkpt>
      <trkpt lat="40.612541" lon="0.587713">
        <ele>15.893</ele>
        <time>1970-01-01T01:22:54Z</time>
      </trkpt>
      <trkpt lat="40.612489" lon="0.587662">
        <ele>15.869</ele>
        <time>1970-01-01T01:22:55Z</time>
      </trkpt>
      <trkpt lat="40.612439" lon="0.587613">
        <ele>15.723</ele>
        <time>1970-01-01T01:22:56Z</time>
      </trkpt>
      <trkpt lat="40.612391" lon="0.587561">
        <ele>15.844</ele>
        <time>1970-01-01T01:22:57Z</time>
      </trkpt>
      <trkpt lat="40.612346" lon="0.587508">
        <ele>15.869</ele>
        <time>1970-01-01T01:22:58Z</time>
      </trkpt>
      <trkpt lat="40.612301" lon="0.587453">
        <ele>15.704</ele>
        <time>1970-01-01T01:22:59Z</time>
      </trkpt>
      <trkpt lat="40.612261" lon="0.587395">
        <ele>15.624</ele>
        <time>1970-01-01T01:23:00Z</time>
      </trkpt>
      <trkpt lat="40.612222" lon="0.587337">
        <ele>15.608</ele>
        <time>1970-01-01T01:23:01Z</time>
      </trkpt>
      <trkpt lat="40.612184" lon="0.587277">
        <ele>15.393</ele>
        <time>1970-01-01T01:23:02Z</time>
      </trkpt>
      <trkpt lat="40.612149" lon="0.587217">
        <ele>14.910</ele>
        <time>1970-01-01T01:23:03Z</time>
      </trkpt>
      <trkpt lat="40.612117" lon="0.587155">
        <ele>14.451</ele>
        <time>1970-01-01T01:23:04Z</time>
      </trkpt>
      <trkpt lat="40.612086" lon="0.587092">
        <ele>14.034</ele>
        <time>1970-01-01T01:23:05Z</time>
      </trkpt>
      <trkpt lat="40.612056" lon="0.587029">
        <ele>13.794</ele>
        <time>1970-01-01T01:23:06Z</time>
      </trkpt>
      <trkpt lat="40.612023" lon="0.586969">
        <ele>13.550</ele>
        <time>1970-01-01T01:23:07Z</time>
      </trkpt>
      <trkpt lat="40.611992" lon="0.586906">
        <ele>13.514</ele>
        <time>1970-01-01T01:23:08Z</time>
      </trkpt>
      <trkpt lat="40.611962" lon="0.586842">
        <ele>13.535</ele>
        <time>1970-01-01T01:23:09Z</time>
      </trkpt>
      <trkpt lat="40.611933" lon="0.586779">
        <ele>13.665</ele>
        <time>1970-01-01T01:23:10Z</time>
      </trkpt>
      <trkpt lat="40.611908" lon="0.586712">
        <ele>13.768</ele>
        <time>1970-01-01T01:23:11Z</time>
      </trkpt>
      <trkpt lat="40.611884" lon="0.586645">
        <ele>13.914</ele>
        <time>1970-01-01T01:23:12Z</time>
      </trkpt>
      <trkpt lat="40.611858" lon="0.586579">
        <ele>14.108</ele>
        <time>1970-01-01T01:23:13Z</time>
      </trkpt>
      <trkpt lat="40.611833" lon="0.586512">
        <ele>14.343</ele>
        <time>1970-01-01T01:23:14Z</time>
      </trkpt>
      <trkpt lat="40.611808" lon="0.586445">
        <ele>14.330</ele>
        <time>1970-01-01T01:23:15Z</time>
      </trkpt>
      <trkpt lat="40.611787" lon="0.586377">
        <ele>14.341</ele>
        <time>1970-01-01T01:23:16Z</time>
      </trkpt>
      <trkpt lat="40.611767" lon="0.586308">
        <ele>14.184</ele>
        <time>1970-01-01T01:23:17Z</time>
      </trkpt>
      <trkpt lat="40.611748" lon="0.586237">
        <ele>13.994</ele>
        <time>1970-01-01T01:23:18Z</time>
      </trkpt>
      <trkpt lat="40.611731" lon="0.586165">
        <ele>13.730</ele>
        <time>1970-01-01T01:23:19Z</time>
      </trkpt>
      <trkpt lat="40.611713" lon="0.586093">
        <ele>13.564</ele>
        <time>1970-01-01T01:23:20Z</time>
      </trkpt>
      <trkpt lat="40.611697" lon="0.586022">
        <ele>13.345</ele>
        <time>1970-01-01T01:23:21Z</time>
      </trkpt>
      <trkpt lat="40.611678" lon="0.585954">
        <ele>13.193</ele>
        <time>1970-01-01T01:23:22Z</time>
      </trkpt>
      <trkpt lat="40.611660" lon="0.585887">
        <ele>13.065</ele>
        <time>1970-01-01T01:23:23Z</time>
      </trkpt>
      <trkpt lat="40.611641" lon="0.585820">
        <ele>12.821</ele>
        <time>1970-01-01T01:23:24Z</time>
      </trkpt>
      <trkpt lat="40.611626" lon="0.585753">
        <ele>12.708</ele>
        <time>1970-01-01T01:23:25Z</time>
      </trkpt>
      <trkpt lat="40.611614" lon="0.585693">
        <ele>12.636</ele>
        <time>1970-01-01T01:23:26Z</time>
      </trkpt>
      <trkpt lat="40.611602" lon="0.585643">
        <ele>12.573</ele>
        <time>1970-01-01T01:23:27Z</time>
      </trkpt>
      <trkpt lat="40.611595" lon="0.585596">
        <ele>12.544</ele>
        <time>1970-01-01T01:23:28Z</time>
      </trkpt>
      <trkpt lat="40.611596" lon="0.585552">
        <ele>12.597</ele>
        <time>1970-01-01T01:23:29Z</time>
      </trkpt>
      <trkpt lat="40.611602" lon="0.585510">
        <ele>12.637</ele>
        <time>1970-01-01T01:23:30Z</time>
      </trkpt>
      <trkpt lat="40.611614" lon="0.585468">
        <ele>12.763</ele>
        <time>1970-01-01T01:23:31Z</time>
      </trkpt>
      <trkpt lat="40.611629" lon="0.585424">
        <ele>12.817</ele>
        <time>1970-01-01T01:23:32Z</time>
      </trkpt>
      <trkpt lat="40.611641" lon="0.585377">
        <ele>12.978</ele>
        <time>1970-01-01T01:23:33Z</time>
      </trkpt>
      <trkpt lat="40.611647" lon="0.585324">
        <ele>12.934</ele>
        <time>1970-01-01T01:23:34Z</time>
      </trkpt>
      <trkpt lat="40.611640" lon="0.585267">
        <ele>12.955</ele>
        <time>1970-01-01T01:23:35Z</time>
      </trkpt>
      <trkpt lat="40.611616" lon="0.585218">
        <ele>12.810</ele>
        <time>1970-01-01T01:23:36Z</time>
      </trkpt>
      <trkpt lat="40.611577" lon="0.585177">
        <ele>12.708</ele>
        <time>1970-01-01T01:23:37Z</time>
      </trkpt>
      <trkpt lat="40.611529" lon="0.585149">
        <ele>12.580</ele>
        <time>1970-01-01T01:23:38Z</time>
      </trkpt>
      <trkpt lat="40.611475" lon="0.585132">
        <ele>12.317</ele>
        <time>1970-01-01T01:23:39Z</time>
      </trkpt>
      <trkpt lat="40.611421" lon="0.585124">
        <ele>12.198</ele>
        <time>1970-01-01T01:23:40Z</time>
      </trkpt>
      <trkpt lat="40.611366" lon="0.585124">
        <ele>11.921</ele>
        <time>1970-01-01T01:23:41Z</time>
      </trkpt>
      <trkpt lat="40.611312" lon="0.585115">
        <ele>11.671</ele>
        <time>1970-01-01T01:23:42Z</time>
      </trkpt>
      <trkpt lat="40.611255" lon="0.585101">
        <ele>11.297</ele>
        <time>1970-01-01T01:23:43Z</time>
      </trkpt>
      <trkpt lat="40.611197" lon="0.585081">
        <ele>10.861</ele>
        <time>1970-01-01T01:23:44Z</time>
      </trkpt>
      <trkpt lat="40.611142" lon="0.585052">
        <ele>10.442</ele>
        <time>1970-01-01T01:23:45Z</time>
      </trkpt>
      <trkpt lat="40.611087" lon="0.585022">
        <ele>10.192</ele>
        <time>1970-01-01T01:23:46Z</time>
      </trkpt>
      <trkpt lat="40.611031" lon="0.584990">
        <ele>10.073</ele>
        <time>1970-01-01T01:23:47Z</time>
      </trkpt>
      <trkpt lat="40.610973" lon="0.584959">
        <ele>9.820</ele>
        <time>1970-01-01T01:23:48Z</time>
      </trkpt>
      <trkpt lat="40.610914" lon="0.584928">
        <ele>9.608</ele>
        <time>1970-01-01T01:23:49Z</time>
      </trkpt>
      <trkpt lat="40.610855" lon="0.584895">
        <ele>9.326</ele>
        <time>1970-01-01T01:23:50Z</time>
      </trkpt>
      <trkpt lat="40.610793" lon="0.584862">
        <ele>9.223</ele>
        <time>1970-01-01T01:23:51Z</time>
      </trkpt>
      <trkpt lat="40.610731" lon="0.584829">
        <ele>9.244</ele>
        <time>1970-01-01T01:23:52Z</time>
      </trkpt>
      <trkpt lat="40.610669" lon="0.584796">
        <ele>9.487</ele>
        <time>1970-01-01T01:23:53Z</time>
      </trkpt>
      <trkpt lat="40.610607" lon="0.584764">
        <ele>9.717</ele>
        <time>1970-01-01T01:23:54Z</time>
      </trkpt>
      <trkpt lat="40.610548" lon="0.584729">
        <ele>10.053</ele>
        <time>1970-01-01T01:23:55Z</time>
      </trkpt>
      <trkpt lat="40.610492" lon="0.584691">
        <ele>10.037</ele>
        <time>1970-01-01T01:23:56Z</time>
      </trkpt>
      <trkpt lat="40.610434" lon="0.584653">
        <ele>10.168</ele>
        <time>1970-01-01T01:23:57Z</time>
      </trkpt>
      <trkpt lat="40.610374" lon="0.584618">
        <ele>10.223</ele>
        <time>1970-01-01T01:23:58Z</time>
      </trkpt>
      <trkpt lat="40.610314" lon="0.584585">
        <ele>10.483</ele>
        <time>1970-01-01T01:23:59Z</time>
      </trkpt>
      <trkpt lat="40.610254" lon="0.584553">
        <ele>10.511</ele>
        <time>1970-01-01T01:24:00Z</time>
      </trkpt>
      <trkpt lat="40.610194" lon="0.584520">
        <ele>10.608</ele>
        <time>1970-01-01T01:24:01Z</time>
      </trkpt>
      <trkpt lat="40.610134" lon="0.584485">
        <ele>10.779</ele>
        <time>1970-01-01T01:24:02Z</time>
      </trkpt>
      <trkpt lat="40.610076" lon="0.584450">
        <ele>11.096</ele>
        <time>1970-01-01T01:24:03Z</time>
      </trkpt>
      <trkpt lat="40.610016" lon="0.584415">
        <ele>11.337</ele>
        <time>1970-01-01T01:24:04Z</time>
      </trkpt>
      <trkpt lat="40.609955" lon="0.584383">
        <ele>11.580</ele>
        <time>1970-01-01T01:24:05Z</time>
      </trkpt>
      <trkpt lat="40.609895" lon="0.584350">
        <ele>11.640</ele>
        <time>1970-01-01T01:24:06Z</time>
      </trkpt>
      <trkpt lat="40.609833" lon="0.584316">
        <ele>11.856</ele>
        <time>1970-01-01T01:24:07Z</time>
      </trkpt>
      <trkpt lat="40.609772" lon="0.584279">
        <ele>12.090</ele>
        <time>1970-01-01T01:24:08Z</time>
      </trkpt>
      <trkpt lat="40.609711" lon="0.584243">
        <ele>12.251</ele>
        <time>1970-01-01T01:24:09Z</time>
      </trkpt>
      <trkpt lat="40.609650" lon="0.584210">
        <ele>12.598</ele>
        <time>1970-01-01T01:24:10Z</time>
      </trkpt>
      <trkpt lat="40.609588" lon="0.584178">
        <ele>12.915</ele>
        <time>1970-01-01T01:24:11Z</time>
      </trkpt>
      <trkpt lat="40.609527" lon="0.584142">
        <ele>13.126</ele>
        <time>1970-01-01T01:24:12Z</time>
      </trkpt>
      <trkpt lat="40.609466" lon="0.584104">
        <ele>13.208</ele>
        <time>1970-01-01T01:24:13Z</time>
      </trkpt>
      <trkpt lat="40.609404" lon="0.584068">
        <ele>13.256</ele>
        <time>1970-01-01T01:24:14Z</time>
      </trkpt>
      <trkpt lat="40.609341" lon="0.584033">
        <ele>13.143</ele>
        <time>1970-01-01T01:24:15Z</time>
      </trkpt>
      <trkpt lat="40.609280" lon="0.583999">
        <ele>13.084</ele>
        <time>1970-01-01T01:24:16Z</time>
      </trkpt>
      <trkpt lat="40.609218" lon="0.583964">
        <ele>12.937</ele>
        <time>1970-01-01T01:24:17Z</time>
      </trkpt>
      <trkpt lat="40.609157" lon="0.583929">
        <ele>12.867</ele>
        <time>1970-01-01T01:24:18Z</time>
      </trkpt>
      <trkpt lat="40.609094" lon="0.583893">
        <ele>12.763</ele>
        <time>1970-01-01T01:24:19Z</time>
      </trkpt>
      <trkpt lat="40.609030" lon="0.583860">
        <ele>12.547</ele>
        <time>1970-01-01T01:24:20Z</time>
      </trkpt>
      <trkpt lat="40.608964" lon="0.583826">
        <ele>12.378</ele>
        <time>1970-01-01T01:24:21Z</time>
      </trkpt>
      <trkpt lat="40.608898" lon="0.583789">
        <ele>12.045</ele>
        <time>1970-01-01T01:24:22Z</time>
      </trkpt>
      <trkpt lat="40.608833" lon="0.583750">
        <ele>11.647</ele>
        <time>1970-01-01T01:24:23Z</time>
      </trkpt>
      <trkpt lat="40.608768" lon="0.583711">
        <ele>11.111</ele>
        <time>1970-01-01T01:24:24Z</time>
      </trkpt>
      <trkpt lat="40.608702" lon="0.583675">
        <ele>10.708</ele>
        <time>1970-01-01T01:24:25Z</time>
      </trkpt>
      <trkpt lat="40.608637" lon="0.583639">
        <ele>10.261</ele>
        <time>1970-01-01T01:24:26Z</time>
      </trkpt>
      <trkpt lat="40.608573" lon="0.583602">
        <ele>9.728</ele>
        <time>1970-01-01T01:24:27Z</time>
      </trkpt>
      <trkpt lat="40.608508" lon="0.583566">
        <ele>9.279</ele>
        <time>1970-01-01T01:24:28Z</time>
      </trkpt>
      <trkpt lat="40.608442" lon="0.583530">
        <ele>8.742</ele>
        <time>1970-01-01T01:24:29Z</time>
      </trkpt>
      <trkpt lat="40.608378" lon="0.583494">
        <ele>8.362</ele>
        <time>1970-01-01T01:24:30Z</time>
      </trkpt>
      <trkpt lat="40.608316" lon="0.583455">
        <ele>8.018</ele>
        <time>1970-01-01T01:24:31Z</time>
      </trkpt>
      <trkpt lat="40.608255" lon="0.583409">
        <ele>8.082</ele>
        <time>1970-01-01T01:24:32Z</time>
      </trkpt>
      <trkpt lat="40.608197" lon="0.583357">
        <ele>8.073</ele>
        <time>1970-01-01T01:24:33Z</time>
      </trkpt>
      <trkpt lat="40.608142" lon="0.583299">
        <ele>8.141</ele>
        <time>1970-01-01T01:24:34Z</time>
      </trkpt>
      <trkpt lat="40.608083" lon="0.583244">
        <ele>8.381</ele>
        <time>1970-01-01T01:24:35Z</time>
      </trkpt>
      <trkpt lat="40.608021" lon="0.583201">
        <ele>8.209</ele>
        <time>1970-01-01T01:24:36Z</time>
      </trkpt>
      <trkpt lat="40.607953" lon="0.583171">
        <ele>7.608</ele>
        <time>1970-01-01T01:24:37Z</time>
      </trkpt>
      <trkpt lat="40.607883" lon="0.583148">
        <ele>7.071</ele>
        <time>1970-01-01T01:24:38Z</time>
      </trkpt>
      <trkpt lat="40.607810" lon="0.583128">
        <ele>6.398</ele>
        <time>1970-01-01T01:24:39Z</time>
      </trkpt>
      <trkpt lat="40.607740" lon="0.583104">
        <ele>5.979</ele>
        <time>1970-01-01T01:24:40Z</time>
      </trkpt>
      <trkpt lat="40.607673" lon="0.583072">
        <ele>5.622</ele>
        <time>1970-01-01T01:24:41Z</time>
      </trkpt>
      <trkpt lat="40.607604" lon="0.583036">
        <ele>5.542</ele>
        <time>1970-01-01T01:24:42Z</time>
      </trkpt>
      <trkpt lat="40.607534" lon="0.582997">
        <ele>5.448</ele>
        <time>1970-01-01T01:24:43Z</time>
      </trkpt>
      <trkpt lat="40.607463" lon="0.582959">
        <ele>5.242</ele>
        <time>1970-01-01T01:24:44Z</time>
      </trkpt>
      <trkpt lat="40.607394" lon="0.582917">
        <ele>4.953</ele>
        <time>1970-01-01T01:24:45Z</time>
      </trkpt>
      <trkpt lat="40.607324" lon="0.582876">
        <ele>4.638</ele>
        <time>1970-01-01T01:24:46Z</time>
      </trkpt>
      <trkpt lat="40.607254" lon="0.582834">
        <ele>4.270</ele>
        <time>1970-01-01T01:24:47Z</time>
      </trkpt>
      <trkpt lat="40.607183" lon="0.582793">
        <ele>3.717</ele>
        <time>1970-01-01T01:24:48Z</time>
      </trkpt>
      <trkpt lat="40.607110" lon="0.582754">
        <ele>3.308</ele>
        <time>1970-01-01T01:24:49Z</time>
      </trkpt>
      <trkpt lat="40.607040" lon="0.582713">
        <ele>3.080</ele>
        <time>1970-01-01T01:24:50Z</time>
      </trkpt>
      <trkpt lat="40.606970" lon="0.582670">
        <ele>2.657</ele>
        <time>1970-01-01T01:24:51Z</time>
      </trkpt>
      <trkpt lat="40.606901" lon="0.582626">
        <ele>2.558</ele>
        <time>1970-01-01T01:24:52Z</time>
      </trkpt>
      <trkpt lat="40.606831" lon="0.582584">
        <ele>2.741</ele>
        <time>1970-01-01T01:24:53Z</time>
      </trkpt>
      <trkpt lat="40.606763" lon="0.582540">
        <ele>2.931</ele>
        <time>1970-01-01T01:24:54Z</time>
      </trkpt>
      <trkpt lat="40.606695" lon="0.582497">
        <ele>3.097</ele>
        <time>1970-01-01T01:24:55Z</time>
      </trkpt>
      <trkpt lat="40.606627" lon="0.582455">
        <ele>3.111</ele>
        <time>1970-01-01T01:24:56Z</time>
      </trkpt>
      <trkpt lat="40.606563" lon="0.582409">
        <ele>3.452</ele>
        <time>1970-01-01T01:24:57Z</time>
      </trkpt>
      <trkpt lat="40.606499" lon="0.582359">
        <ele>3.651</ele>
        <time>1970-01-01T01:24:58Z</time>
      </trkpt>
      <trkpt lat="40.606438" lon="0.582304">
        <ele>3.801</ele>
        <time>1970-01-01T01:24:59Z</time>
      </trkpt>
      <trkpt lat="40.606376" lon="0.582249">
        <ele>4.111</ele>
        <time>1970-01-01T01:25:00Z</time>
      </trkpt>
      <trkpt lat="40.606316" lon="0.582195">
        <ele>4.508</ele>
        <time>1970-01-01T01:25:01Z</time>
      </trkpt>
      <trkpt lat="40.606254" lon="0.582140">
        <ele>4.732</ele>
        <time>1970-01-01T01:25:02Z</time>
      </trkpt>
      <trkpt lat="40.606193" lon="0.582082">
        <ele>4.789</ele>
        <time>1970-01-01T01:25:03Z</time>
      </trkpt>
      <trkpt lat="40.606133" lon="0.582025">
        <ele>4.530</ele>
        <time>1970-01-01T01:25:04Z</time>
      </trkpt>
      <trkpt lat="40.606073" lon="0.581971">
        <ele>4.213</ele>
        <time>1970-01-01T01:25:05Z</time>
      </trkpt>
      <trkpt lat="40.606013" lon="0.581916">
        <ele>4.013</ele>
        <time>1970-01-01T01:25:06Z</time>
      </trkpt>
      <trkpt lat="40.605952" lon="0.581858">
        <ele>3.849</ele>
        <time>1970-01-01T01:25:07Z</time>
      </trkpt>
      <trkpt lat="40.605890" lon="0.581799">
        <ele>3.663</ele>
        <time>1970-01-01T01:25:08Z</time>
      </trkpt>
      <trkpt lat="40.605831" lon="0.581739">
        <ele>3.344</ele>
        <time>1970-01-01T01:25:09Z</time>
      </trkpt>
      <trkpt lat="40.605773" lon="0.581682">
        <ele>3.127</ele>
        <time>1970-01-01T01:25:10Z</time>
      </trkpt>
      <trkpt lat="40.605717" lon="0.581624">
        <ele>3.268</ele>
        <time>1970-01-01T01:25:11Z</time>
      </trkpt>
      <trkpt lat="40.605661" lon="0.581567">
        <ele>3.414</ele>
        <time>1970-01-01T01:25:12Z</time>
      </trkpt>
      <trkpt lat="40.605604" lon="0.581509">
        <ele>3.608</ele>
        <time>1970-01-01T01:25:13Z</time>
      </trkpt>
      <trkpt lat="40.605545" lon="0.581450">
        <ele>3.769</ele>
        <time>1970-01-01T01:25:14Z</time>
      </trkpt>
      <trkpt lat="40.605489" lon="0.581389">
        <ele>3.516</ele>
        <time>1970-01-01T01:25:15Z</time>
      </trkpt>
      <trkpt lat="40.605436" lon="0.581326">
        <ele>3.117</ele>
        <time>1970-01-01T01:25:16Z</time>
      </trkpt>
      <trkpt lat="40.605385" lon="0.581259">
        <ele>2.890</ele>
        <time>1970-01-01T01:25:17Z</time>
      </trkpt>
      <trkpt lat="40.605330" lon="0.581197">
        <ele>2.410</ele>
        <time>1970-01-01T01:25:18Z</time>
      </trkpt>
      <trkpt lat="40.605273" lon="0.581138">
        <ele>2.056</ele>
        <time>1970-01-01T01:25:19Z</time>
      </trkpt>
      <trkpt lat="40.605214" lon="0.581081">
        <ele>2.130</ele>
        <time>1970-01-01T01:25:20Z</time>
      </trkpt>
      <trkpt lat="40.605157" lon="0.581024">
        <ele>2.311</ele>
        <time>1970-01-01T01:25:21Z</time>
      </trkpt>
      <trkpt lat="40.605101" lon="0.580968">
        <ele>2.511</ele>
        <time>1970-01-01T01:25:22Z</time>
      </trkpt>
      <trkpt lat="40.605045" lon="0.580912">
        <ele>2.721</ele>
        <time>1970-01-01T01:25:23Z</time>
      </trkpt>
      <trkpt lat="40.604993" lon="0.580855">
        <ele>2.903</ele>
        <time>1970-01-01T01:25:24Z</time>
      </trkpt>
      <trkpt lat="40.604938" lon="0.580798">
        <ele>3.208</ele>
        <time>1970-01-01T01:25:25Z</time>
      </trkpt>
      <trkpt lat="40.604884" lon="0.580742">
        <ele>3.478</ele>
        <time>1970-01-01T01:25:26Z</time>
      </trkpt>
      <trkpt lat="40.604830" lon="0.580686">
        <ele>3.475</ele>
        <time>1970-01-01T01:25:27Z</time>
      </trkpt>
      <trkpt lat="40.604774" lon="0.580629">
        <ele>3.336</ele>
        <time>1970-01-01T01:25:28Z</time>
      </trkpt>
      <trkpt lat="40.604718" lon="0.580576">
        <ele>3.019</ele>
        <time>1970-01-01T01:25:29Z</time>
      </trkpt>
      <trkpt lat="40.604663" lon="0.580524">
        <ele>3.189</ele>
        <time>1970-01-01T01:25:30Z</time>
      </trkpt>
      <trkpt lat="40.604610" lon="0.580469">
        <ele>3.265</ele>
        <time>1970-01-01T01:25:31Z</time>
      </trkpt>
      <trkpt lat="40.604554" lon="0.580415">
        <ele>3.219</ele>
        <time>1970-01-01T01:25:32Z</time>
      </trkpt>
      <trkpt lat="40.604498" lon="0.580360">
        <ele>3.130</ele>
        <time>1970-01-01T01:25:33Z</time>
      </trkpt>
      <trkpt lat="40.604442" lon="0.580306">
        <ele>3.089</ele>
        <time>1970-01-01T01:25:34Z</time>
      </trkpt>
      <trkpt lat="40.604387" lon="0.580253">
        <ele>3.306</ele>
        <time>1970-01-01T01:25:35Z</time>
      </trkpt>
      <trkpt lat="40.604334" lon="0.580202">
        <ele>3.726</ele>
        <time>1970-01-01T01:25:36Z</time>
      </trkpt>
      <trkpt lat="40.604281" lon="0.580150">
        <ele>4.008</ele>
        <time>1970-01-01T01:25:37Z</time>
      </trkpt>
      <trkpt lat="40.604228" lon="0.580100">
        <ele>4.155</ele>
        <time>1970-01-01T01:25:38Z</time>
      </trkpt>
      <trkpt lat="40.604177" lon="0.580049">
        <ele>4.062</ele>
        <time>1970-01-01T01:25:39Z</time>
      </trkpt>
      <trkpt lat="40.604126" lon="0.579999">
        <ele>4.253</ele>
        <time>1970-01-01T01:25:40Z</time>
      </trkpt>
      <trkpt lat="40.604076" lon="0.579949">
        <ele>4.586</ele>
        <time>1970-01-01T01:25:41Z</time>
      </trkpt>
      <trkpt lat="40.604027" lon="0.579901">
        <ele>4.956</ele>
        <time>1970-01-01T01:25:42Z</time>
      </trkpt>
      <trkpt lat="40.603979" lon="0.579852">
        <ele>5.282</ele>
        <time>1970-01-01T01:25:43Z</time>
      </trkpt>
      <trkpt lat="40.603933" lon="0.579804">
        <ele>5.566</ele>
        <time>1970-01-01T01:25:44Z</time>
      </trkpt>
      <trkpt lat="40.603886" lon="0.579755">
        <ele>5.967</ele>
        <time>1970-01-01T01:25:45Z</time>
      </trkpt>
      <trkpt lat="40.603839" lon="0.579708">
        <ele>6.188</ele>
        <time>1970-01-01T01:25:46Z</time>
      </trkpt>
      <trkpt lat="40.603792" lon="0.579660">
        <ele>6.224</ele>
        <time>1970-01-01T01:25:47Z</time>
      </trkpt>
      <trkpt lat="40.603748" lon="0.579610">
        <ele>6.426</ele>
        <time>1970-01-01T01:25:48Z</time>
      </trkpt>
      <trkpt lat="40.603703" lon="0.579560">
        <ele>6.608</ele>
        <time>1970-01-01T01:25:49Z</time>
      </trkpt>
      <trkpt lat="40.603657" lon="0.579514">
        <ele>6.835</ele>
        <time>1970-01-01T01:25:50Z</time>
      </trkpt>
      <trkpt lat="40.603611" lon="0.579469">
        <ele>6.952</ele>
        <time>1970-01-01T01:25:51Z</time>
      </trkpt>
      <trkpt lat="40.603564" lon="0.579424">
        <ele>7.183</ele>
        <time>1970-01-01T01:25:52Z</time>
      </trkpt>
      <trkpt lat="40.603516" lon="0.579379">
        <ele>7.436</ele>
        <time>1970-01-01T01:25:53Z</time>
      </trkpt>
      <trkpt lat="40.603470" lon="0.579333">
        <ele>7.666</ele>
        <time>1970-01-01T01:25:54Z</time>
      </trkpt>
      <trkpt lat="40.603424" lon="0.579287">
        <ele>7.842</ele>
        <time>1970-01-01T01:25:55Z</time>
      </trkpt>
      <trkpt lat="40.603379" lon="0.579241">
        <ele>7.926</ele>
        <time>1970-01-01T01:25:56Z</time>
      </trkpt>
      <trkpt lat="40.603334" lon="0.579196">
        <ele>7.957</ele>
        <time>1970-01-01T01:25:57Z</time>
      </trkpt>
      <trkpt lat="40.603292" lon="0.579151">
        <ele>8.136</ele>
        <time>1970-01-01T01:25:58Z</time>
      </trkpt>
      <trkpt lat="40.603249" lon="0.579106">
        <ele>8.417</ele>
        <time>1970-01-01T01:25:59Z</time>
      </trkpt>
      <trkpt lat="40.603206" lon="0.579062">
        <ele>8.618</ele>
        <time>1970-01-01T01:26:00Z</time>
      </trkpt>
      <trkpt lat="40.603163" lon="0.579020">
        <ele>8.708</ele>
        <time>1970-01-01T01:26:01Z</time>
      </trkpt>
      <trkpt lat="40.603121" lon="0.578977">
        <ele>8.890</ele>
        <time>1970-01-01T01:26:02Z</time>
      </trkpt>
      <trkpt lat="40.603080" lon="0.578933">
        <ele>8.957</ele>
        <time>1970-01-01T01:26:03Z</time>
      </trkpt>
      <trkpt lat="40.603038" lon="0.578890">
        <ele>9.058</ele>
        <time>1970-01-01T01:26:04Z</time>
      </trkpt>
      <trkpt lat="40.602997" lon="0.578848">
        <ele>9.061</ele>
        <time>1970-01-01T01:26:05Z</time>
      </trkpt>
      <trkpt lat="40.602955" lon="0.578805">
        <ele>9.011</ele>
        <time>1970-01-01T01:26:06Z</time>
      </trkpt>
      <trkpt lat="40.602912" lon="0.578764">
        <ele>9.027</ele>
        <time>1970-01-01T01:26:07Z</time>
      </trkpt>
      <trkpt lat="40.602870" lon="0.578722">
        <ele>9.051</ele>
        <time>1970-01-01T01:26:08Z</time>
      </trkpt>
      <trkpt lat="40.602829" lon="0.578679">
        <ele>9.052</ele>
        <time>1970-01-01T01:26:09Z</time>
      </trkpt>
      <trkpt lat="40.602788" lon="0.578635">
        <ele>9.052</ele>
        <time>1970-01-01T01:26:10Z</time>
      </trkpt>
      <trkpt lat="40.602744" lon="0.578590">
        <ele>9.053</ele>
        <time>1970-01-01T01:26:11Z</time>
      </trkpt>
      <trkpt lat="40.602701" lon="0.578546">
        <ele>9.008</ele>
        <time>1970-01-01T01:26:12Z</time>
      </trkpt>
      <trkpt lat="40.602658" lon="0.578503">
        <ele>9.008</ele>
        <time>1970-01-01T01:26:13Z</time>
      </trkpt>
      <trkpt lat="40.602618" lon="0.578458">
        <ele>9.012</ele>
        <time>1970-01-01T01:26:14Z</time>
      </trkpt>
      <trkpt lat="40.602578" lon="0.578413">
        <ele>9.029</ele>
        <time>1970-01-01T01:26:15Z</time>
      </trkpt>
      <trkpt lat="40.602537" lon="0.578369">
        <ele>9.080</ele>
        <time>1970-01-01T01:26:16Z</time>
      </trkpt>
      <trkpt lat="40.602497" lon="0.578326">
        <ele>9.043</ele>
        <time>1970-01-01T01:26:17Z</time>
      </trkpt>
      <trkpt lat="40.602456" lon="0.578283">
        <ele>9.233</ele>
        <time>1970-01-01T01:26:18Z</time>
      </trkpt>
      <trkpt lat="40.602416" lon="0.578239">
        <ele>9.369</ele>
        <time>1970-01-01T01:26:19Z</time>
      </trkpt>
      <trkpt lat="40.602378" lon="0.578194">
        <ele>9.413</ele>
        <time>1970-01-01T01:26:20Z</time>
      </trkpt>
      <trkpt lat="40.602339" lon="0.578150">
        <ele>9.664</ele>
        <time>1970-01-01T01:26:21Z</time>
      </trkpt>
      <trkpt lat="40.602299" lon="0.578105">
        <ele>9.798</ele>
        <time>1970-01-01T01:26:22Z</time>
      </trkpt>
      <trkpt lat="40.602260" lon="0.578060">
        <ele>9.915</ele>
        <time>1970-01-01T01:26:23Z</time>
      </trkpt>
      <trkpt lat="40.602223" lon="0.578013">
        <ele>10.226</ele>
        <time>1970-01-01T01:26:24Z</time>
      </trkpt>
      <trkpt lat="40.602186" lon="0.577969">
        <ele>10.508</ele>
        <time>1970-01-01T01:26:25Z</time>
      </trkpt>
      <trkpt lat="40.602148" lon="0.577924">
        <ele>10.926</ele>
        <time>1970-01-01T01:26:26Z</time>
      </trkpt>
      <trkpt lat="40.602108" lon="0.577877">
        <ele>11.293</ele>
        <time>1970-01-01T01:26:27Z</time>
      </trkpt>
      <trkpt lat="40.602068" lon="0.577831">
        <ele>11.594</ele>
        <time>1970-01-01T01:26:28Z</time>
      </trkpt>
      <trkpt lat="40.602028" lon="0.577785">
        <ele>11.737</ele>
        <time>1970-01-01T01:26:29Z</time>
      </trkpt>
      <trkpt lat="40.601988" lon="0.577738">
        <ele>12.017</ele>
        <time>1970-01-01T01:26:30Z</time>
      </trkpt>
      <trkpt lat="40.601947" lon="0.577692">
        <ele>12.373</ele>
        <time>1970-01-01T01:26:31Z</time>
      </trkpt>
      <trkpt lat="40.601909" lon="0.577645">
        <ele>12.527</ele>
        <time>1970-01-01T01:26:32Z</time>
      </trkpt>
      <trkpt lat="40.601872" lon="0.577596">
        <ele>12.768</ele>
        <time>1970-01-01T01:26:33Z</time>
      </trkpt>
      <trkpt lat="40.601834" lon="0.577550">
        <ele>12.856</ele>
        <time>1970-01-01T01:26:34Z</time>
      </trkpt>
      <trkpt lat="40.601795" lon="0.577503">
        <ele>13.059</ele>
        <time>1970-01-01T01:26:35Z</time>
      </trkpt>
      <trkpt lat="40.601756" lon="0.577454">
        <ele>13.014</ele>
        <time>1970-01-01T01:26:36Z</time>
      </trkpt>
      <trkpt lat="40.601718" lon="0.577405">
        <ele>13.008</ele>
        <time>1970-01-01T01:26:37Z</time>
      </trkpt>
      <trkpt lat="40.601679" lon="0.577358">
        <ele>13.042</ele>
        <time>1970-01-01T01:26:38Z</time>
      </trkpt>
      <trkpt lat="40.601639" lon="0.577308">
        <ele>12.989</ele>
        <time>1970-01-01T01:26:39Z</time>
      </trkpt>
      <trkpt lat="40.601600" lon="0.577259">
        <ele>12.740</ele>
        <time>1970-01-01T01:26:40Z</time>
      </trkpt>
      <trkpt lat="40.601561" lon="0.577210">
        <ele>12.753</ele>
        <time>1970-01-01T01:26:41Z</time>
      </trkpt>
      <trkpt lat="40.601521" lon="0.577160">
        <ele>12.783</ele>
        <time>1970-01-01T01:26:42Z</time>
      </trkpt>
      <trkpt lat="40.601480" lon="0.577110">
        <ele>12.779</ele>
        <time>1970-01-01T01:26:43Z</time>
      </trkpt>
      <trkpt lat="40.601439" lon="0.577062">
        <ele>12.893</ele>
        <time>1970-01-01T01:26:44Z</time>
      </trkpt>
      <trkpt lat="40.601399" lon="0.577013">
        <ele>12.854</ele>
        <time>1970-01-01T01:26:45Z</time>
      </trkpt>
      <trkpt lat="40.601359" lon="0.576963">
        <ele>12.733</ele>
        <time>1970-01-01T01:26:46Z</time>
      </trkpt>
      <trkpt lat="40.601318" lon="0.576913">
        <ele>12.623</ele>
        <time>1970-01-01T01:26:47Z</time>
      </trkpt>
      <trkpt lat="40.601276" lon="0.576863">
        <ele>12.615</ele>
        <time>1970-01-01T01:26:48Z</time>
      </trkpt>
      <trkpt lat="40.601235" lon="0.576813">
        <ele>12.608</ele>
        <time>1970-01-01T01:26:49Z</time>
      </trkpt>
      <trkpt lat="40.601195" lon="0.576763">
        <ele>12.790</ele>
        <time>1970-01-01T01:26:50Z</time>
      </trkpt>
      <trkpt lat="40.601155" lon="0.576711">
        <ele>12.957</ele>
        <time>1970-01-01T01:26:51Z</time>
      </trkpt>
      <trkpt lat="40.601114" lon="0.576659">
        <ele>13.018</ele>
        <time>1970-01-01T01:26:52Z</time>
      </trkpt>
      <trkpt lat="40.601071" lon="0.576609">
        <ele>12.961</ele>
        <time>1970-01-01T01:26:53Z</time>
      </trkpt>
      <trkpt lat="40.601027" lon="0.576559">
        <ele>12.751</ele>
        <time>1970-01-01T01:26:54Z</time>
      </trkpt>
      <trkpt lat="40.600983" lon="0.576508">
        <ele>12.557</ele>
        <time>1970-01-01T01:26:55Z</time>
      </trkpt>
      <trkpt lat="40.600938" lon="0.576455">
        <ele>12.471</ele>
        <time>1970-01-01T01:26:56Z</time>
      </trkpt>
      <trkpt lat="40.600895" lon="0.576404">
        <ele>12.272</ele>
        <time>1970-01-01T01:26:57Z</time>
      </trkpt>
      <trkpt lat="40.600850" lon="0.576354">
        <ele>12.149</ele>
        <time>1970-01-01T01:26:58Z</time>
      </trkpt>
      <trkpt lat="40.600806" lon="0.576304">
        <ele>11.902</ele>
        <time>1970-01-01T01:26:59Z</time>
      </trkpt>
      <trkpt lat="40.600761" lon="0.576253">
        <ele>11.922</ele>
        <time>1970-01-01T01:27:00Z</time>
      </trkpt>
      <trkpt lat="40.600717" lon="0.576204">
        <ele>11.908</ele>
        <time>1970-01-01T01:27:01Z</time>
      </trkpt>
      <trkpt lat="40.600672" lon="0.576155">
        <ele>11.951</ele>
        <time>1970-01-01T01:27:02Z</time>
      </trkpt>
      <trkpt lat="40.600627" lon="0.576105">
        <ele>12.058</ele>
        <time>1970-01-01T01:27:03Z</time>
      </trkpt>
      <trkpt lat="40.600582" lon="0.576054">
        <ele>12.259</ele>
        <time>1970-01-01T01:27:04Z</time>
      </trkpt>
      <trkpt lat="40.600538" lon="0.576002">
        <ele>12.312</ele>
        <time>1970-01-01T01:27:05Z</time>
      </trkpt>
      <trkpt lat="40.600494" lon="0.575949">
        <ele>12.422</ele>
        <time>1970-01-01T01:27:06Z</time>
      </trkpt>
      <trkpt lat="40.600451" lon="0.575897">
        <ele>12.418</ele>
        <time>1970-01-01T01:27:07Z</time>
      </trkpt>
      <trkpt lat="40.600406" lon="0.575843">
        <ele>12.462</ele>
        <time>1970-01-01T01:27:08Z</time>
      </trkpt>
      <trkpt lat="40.600363" lon="0.575788">
        <ele>12.553</ele>
        <time>1970-01-01T01:27:09Z</time>
      </trkpt>
      <trkpt lat="40.600318" lon="0.575734">
        <ele>12.571</ele>
        <time>1970-01-01T01:27:10Z</time>
      </trkpt>
      <trkpt lat="40.600272" lon="0.575678">
        <ele>12.541</ele>
        <time>1970-01-01T01:27:11Z</time>
      </trkpt>
      <trkpt lat="40.600227" lon="0.575620">
        <ele>12.315</ele>
        <time>1970-01-01T01:27:12Z</time>
      </trkpt>
      <trkpt lat="40.600184" lon="0.575561">
        <ele>12.008</ele>
        <time>1970-01-01T01:27:13Z</time>
      </trkpt>
      <trkpt lat="40.600139" lon="0.575502">
        <ele>11.964</ele>
        <time>1970-01-01T01:27:14Z</time>
      </trkpt>
      <trkpt lat="40.600094" lon="0.575442">
        <ele>11.861</ele>
        <time>1970-01-01T01:27:15Z</time>
      </trkpt>
      <trkpt lat="40.600049" lon="0.575381">
        <ele>11.882</ele>
        <time>1970-01-01T01:27:16Z</time>
      </trkpt>
      <trkpt lat="40.600001" lon="0.575323">
        <ele>11.735</ele>
        <time>1970-01-01T01:27:17Z</time>
      </trkpt>
      <trkpt lat="40.599952" lon="0.575264">
        <ele>12.195</ele>
        <time>1970-01-01T01:27:18Z</time>
      </trkpt>
      <trkpt lat="40.599905" lon="0.575205">
        <ele>12.671</ele>
        <time>1970-01-01T01:27:19Z</time>
      </trkpt>
      <trkpt lat="40.599859" lon="0.575143">
        <ele>13.045</ele>
        <time>1970-01-01T01:27:20Z</time>
      </trkpt>
      <trkpt lat="40.599810" lon="0.575084">
        <ele>13.186</ele>
        <time>1970-01-01T01:27:21Z</time>
      </trkpt>
      <trkpt lat="40.599762" lon="0.575025">
        <ele>13.218</ele>
        <time>1970-01-01T01:27:22Z</time>
      </trkpt>
      <trkpt lat="40.599712" lon="0.574964">
        <ele>13.098</ele>
        <time>1970-01-01T01:27:23Z</time>
      </trkpt>
      <trkpt lat="40.599661" lon="0.574902">
        <ele>12.917</ele>
        <time>1970-01-01T01:27:24Z</time>
      </trkpt>
      <trkpt lat="40.599611" lon="0.574840">
        <ele>12.808</ele>
        <time>1970-01-01T01:27:25Z</time>
      </trkpt>
      <trkpt lat="40.599561" lon="0.574777">
        <ele>12.928</ele>
        <time>1970-01-01T01:27:26Z</time>
      </trkpt>
      <trkpt lat="40.599509" lon="0.574713">
        <ele>13.065</ele>
        <time>1970-01-01T01:27:27Z</time>
      </trkpt>
      <trkpt lat="40.599453" lon="0.574652">
        <ele>13.016</ele>
        <time>1970-01-01T01:27:28Z</time>
      </trkpt>
      <trkpt lat="40.599399" lon="0.574589">
        <ele>12.839</ele>
        <time>1970-01-01T01:27:29Z</time>
      </trkpt>
      <trkpt lat="40.599346" lon="0.574524">
        <ele>12.689</ele>
        <time>1970-01-01T01:27:30Z</time>
      </trkpt>
      <trkpt lat="40.599290" lon="0.574458">
        <ele>12.425</ele>
        <time>1970-01-01T01:27:31Z</time>
      </trkpt>
      <trkpt lat="40.599236" lon="0.574390">
        <ele>12.149</ele>
        <time>1970-01-01T01:27:32Z</time>
      </trkpt>
      <trkpt lat="40.599183" lon="0.574323">
        <ele>11.630</ele>
        <time>1970-01-01T01:27:33Z</time>
      </trkpt>
      <trkpt lat="40.599132" lon="0.574252">
        <ele>11.346</ele>
        <time>1970-01-01T01:27:34Z</time>
      </trkpt>
      <trkpt lat="40.599078" lon="0.574182">
        <ele>11.088</ele>
        <time>1970-01-01T01:27:35Z</time>
      </trkpt>
      <trkpt lat="40.599021" lon="0.574115">
        <ele>11.116</ele>
        <time>1970-01-01T01:27:36Z</time>
      </trkpt>
      <trkpt lat="40.598966" lon="0.574044">
        <ele>11.108</ele>
        <time>1970-01-01T01:27:37Z</time>
      </trkpt>
      <trkpt lat="40.598911" lon="0.573975">
        <ele>11.141</ele>
        <time>1970-01-01T01:27:38Z</time>
      </trkpt>
      <trkpt lat="40.598854" lon="0.573905">
        <ele>11.078</ele>
        <time>1970-01-01T01:27:39Z</time>
      </trkpt>
      <trkpt lat="40.598795" lon="0.573836">
        <ele>11.219</ele>
        <time>1970-01-01T01:27:40Z</time>
      </trkpt>
      <trkpt lat="40.598737" lon="0.573766">
        <ele>11.472</ele>
        <time>1970-01-01T01:27:41Z</time>
      </trkpt>
      <trkpt lat="40.598677" lon="0.573696">
        <ele>11.742</ele>
        <time>1970-01-01T01:27:42Z</time>
      </trkpt>
      <trkpt lat="40.598619" lon="0.573627">
        <ele>11.998</ele>
        <time>1970-01-01T01:27:43Z</time>
      </trkpt>
      <trkpt lat="40.598560" lon="0.573558">
        <ele>11.382</ele>
        <time>1970-01-01T01:27:44Z</time>
      </trkpt>
      <trkpt lat="40.598501" lon="0.573489">
        <ele>10.533</ele>
        <time>1970-01-01T01:27:45Z</time>
      </trkpt>
      <trkpt lat="40.598445" lon="0.573415">
        <ele>9.948</ele>
        <time>1970-01-01T01:27:46Z</time>
      </trkpt>
      <trkpt lat="40.598388" lon="0.573342">
        <ele>9.461</ele>
        <time>1970-01-01T01:27:47Z</time>
      </trkpt>
      <trkpt lat="40.598329" lon="0.573273">
        <ele>8.817</ele>
        <time>1970-01-01T01:27:48Z</time>
      </trkpt>
      <trkpt lat="40.598270" lon="0.573204">
        <ele>8.208</ele>
        <time>1970-01-01T01:27:49Z</time>
      </trkpt>
      <trkpt lat="40.598208" lon="0.573136">
        <ele>7.751</ele>
        <time>1970-01-01T01:27:50Z</time>
      </trkpt>
      <trkpt lat="40.598145" lon="0.573067">
        <ele>7.358</ele>
        <time>1970-01-01T01:27:51Z</time>
      </trkpt>
      <trkpt lat="40.598085" lon="0.572997">
        <ele>7.189</ele>
        <time>1970-01-01T01:27:52Z</time>
      </trkpt>
      <trkpt lat="40.598025" lon="0.572927">
        <ele>6.972</ele>
        <time>1970-01-01T01:27:53Z</time>
      </trkpt>
      <trkpt lat="40.597967" lon="0.572854">
        <ele>6.992</ele>
        <time>1970-01-01T01:27:54Z</time>
      </trkpt>
      <trkpt lat="40.597908" lon="0.572781">
        <ele>7.088</ele>
        <time>1970-01-01T01:27:55Z</time>
      </trkpt>
      <trkpt lat="40.597846" lon="0.572712">
        <ele>7.012</ele>
        <time>1970-01-01T01:27:56Z</time>
      </trkpt>
      <trkpt lat="40.597782" lon="0.572647">
        <ele>7.033</ele>
        <time>1970-01-01T01:27:57Z</time>
      </trkpt>
      <trkpt lat="40.597720" lon="0.572581">
        <ele>6.955</ele>
        <time>1970-01-01T01:27:58Z</time>
      </trkpt>
      <trkpt lat="40.597658" lon="0.572514">
        <ele>6.607</ele>
        <time>1970-01-01T01:27:59Z</time>
      </trkpt>
      <trkpt lat="40.597597" lon="0.572446">
        <ele>6.517</ele>
        <time>1970-01-01T01:28:00Z</time>
      </trkpt>
      <trkpt lat="40.597536" lon="0.572380">
        <ele>6.608</ele>
        <time>1970-01-01T01:28:01Z</time>
      </trkpt>
      <trkpt lat="40.597475" lon="0.572315">
        <ele>6.592</ele>
        <time>1970-01-01T01:28:02Z</time>
      </trkpt>
      <trkpt lat="40.597415" lon="0.572250">
        <ele>6.169</ele>
        <time>1970-01-01T01:28:03Z</time>
      </trkpt>
      <trkpt lat="40.597355" lon="0.572187">
        <ele>5.570</ele>
        <time>1970-01-01T01:28:04Z</time>
      </trkpt>
      <trkpt lat="40.597295" lon="0.572125">
        <ele>5.013</ele>
        <time>1970-01-01T01:28:05Z</time>
      </trkpt>
      <trkpt lat="40.597237" lon="0.572063">
        <ele>4.743</ele>
        <time>1970-01-01T01:28:06Z</time>
      </trkpt>
      <trkpt lat="40.597180" lon="0.572001">
        <ele>4.819</ele>
        <time>1970-01-01T01:28:07Z</time>
      </trkpt>
      <trkpt lat="40.597124" lon="0.571939">
        <ele>5.023</ele>
        <time>1970-01-01T01:28:08Z</time>
      </trkpt>
      <trkpt lat="40.597068" lon="0.571881">
        <ele>5.454</ele>
        <time>1970-01-01T01:28:09Z</time>
      </trkpt>
      <trkpt lat="40.597012" lon="0.571823">
        <ele>5.772</ele>
        <time>1970-01-01T01:28:10Z</time>
      </trkpt>
      <trkpt lat="40.596956" lon="0.571765">
        <ele>5.713</ele>
        <time>1970-01-01T01:28:11Z</time>
      </trkpt>
      <trkpt lat="40.596900" lon="0.571706">
        <ele>5.914</ele>
        <time>1970-01-01T01:28:12Z</time>
      </trkpt>
      <trkpt lat="40.596847" lon="0.571646">
        <ele>6.108</ele>
        <time>1970-01-01T01:28:13Z</time>
      </trkpt>
      <trkpt lat="40.596792" lon="0.571588">
        <ele>6.344</ele>
        <time>1970-01-01T01:28:14Z</time>
      </trkpt>
      <trkpt lat="40.596736" lon="0.571530">
        <ele>6.511</ele>
        <time>1970-01-01T01:28:15Z</time>
      </trkpt>
      <trkpt lat="40.596684" lon="0.571470">
        <ele>6.792</ele>
        <time>1970-01-01T01:28:16Z</time>
      </trkpt>
      <trkpt lat="40.596631" lon="0.571412">
        <ele>6.985</ele>
        <time>1970-01-01T01:28:17Z</time>
      </trkpt>
      <trkpt lat="40.596576" lon="0.571357">
        <ele>7.185</ele>
        <time>1970-01-01T01:28:18Z</time>
      </trkpt>
      <trkpt lat="40.596522" lon="0.571302">
        <ele>7.311</ele>
        <time>1970-01-01T01:28:19Z</time>
      </trkpt>
      <trkpt lat="40.596469" lon="0.571245">
        <ele>7.555</ele>
        <time>1970-01-01T01:28:20Z</time>
      </trkpt>
      <trkpt lat="40.596415" lon="0.571188">
        <ele>7.756</ele>
        <time>1970-01-01T01:28:21Z</time>
      </trkpt>
      <trkpt lat="40.596360" lon="0.571130">
        <ele>7.811</ele>
        <time>1970-01-01T01:28:22Z</time>
      </trkpt>
      <trkpt lat="40.596307" lon="0.571070">
        <ele>7.721</ele>
        <time>1970-01-01T01:28:23Z</time>
      </trkpt>
      <trkpt lat="40.596255" lon="0.571014">
        <ele>7.503</ele>
        <time>1970-01-01T01:28:24Z</time>
      </trkpt>
      <trkpt lat="40.596202" lon="0.570958">
        <ele>7.308</ele>
        <time>1970-01-01T01:28:25Z</time>
      </trkpt>
      <trkpt lat="40.596151" lon="0.570902">
        <ele>7.118</ele>
        <time>1970-01-01T01:28:26Z</time>
      </trkpt>
      <trkpt lat="40.596099" lon="0.570846">
        <ele>7.085</ele>
        <time>1970-01-01T01:28:27Z</time>
      </trkpt>
      <trkpt lat="40.596047" lon="0.570791">
        <ele>6.836</ele>
        <time>1970-01-01T01:28:28Z</time>
      </trkpt>
      <trkpt lat="40.595995" lon="0.570736">
        <ele>6.699</ele>
        <time>1970-01-01T01:28:29Z</time>
      </trkpt>
      <trkpt lat="40.595944" lon="0.570681">
        <ele>6.429</ele>
        <time>1970-01-01T01:28:30Z</time>
      </trkpt>
      <trkpt lat="40.595894" lon="0.570625">
        <ele>6.245</ele>
        <time>1970-01-01T01:28:31Z</time>
      </trkpt>
      <trkpt lat="40.595844" lon="0.570571">
        <ele>6.099</ele>
        <time>1970-01-01T01:28:32Z</time>
      </trkpt>
      <trkpt lat="40.595794" lon="0.570518">
        <ele>5.750</ele>
        <time>1970-01-01T01:28:33Z</time>
      </trkpt>
      <trkpt lat="40.595744" lon="0.570465">
        <ele>5.581</ele>
        <time>1970-01-01T01:28:34Z</time>
      </trkpt>
      <trkpt lat="40.595693" lon="0.570411">
        <ele>5.361</ele>
        <time>1970-01-01T01:28:35Z</time>
      </trkpt>
      <trkpt lat="40.595645" lon="0.570353">
        <ele>5.117</ele>
        <time>1970-01-01T01:28:36Z</time>
      </trkpt>
      <trkpt lat="40.595603" lon="0.570289">
        <ele>5.108</ele>
        <time>1970-01-01T01:28:37Z</time>
      </trkpt>
      <trkpt lat="40.595568" lon="0.570222">
        <ele>5.435</ele>
        <time>1970-01-01T01:28:38Z</time>
      </trkpt>
      <trkpt lat="40.595534" lon="0.570148">
        <ele>6.012</ele>
        <time>1970-01-01T01:28:39Z</time>
      </trkpt>
      <trkpt lat="40.595508" lon="0.570072">
        <ele>6.583</ele>
        <time>1970-01-01T01:28:40Z</time>
      </trkpt>
      <trkpt lat="40.595481" lon="0.570001">
        <ele>7.026</ele>
        <time>1970-01-01T01:28:41Z</time>
      </trkpt>
      <trkpt lat="40.595445" lon="0.569940">
        <ele>7.136</ele>
        <time>1970-01-01T01:28:42Z</time>
      </trkpt>
      <trkpt lat="40.595397" lon="0.569900">
        <ele>7.262</ele>
        <time>1970-01-01T01:28:43Z</time>
      </trkpt>
      <trkpt lat="40.595338" lon="0.569887">
        <ele>7.366</ele>
        <time>1970-01-01T01:28:44Z</time>
      </trkpt>
      <trkpt lat="40.595278" lon="0.569880">
        <ele>7.437</ele>
        <time>1970-01-01T01:28:45Z</time>
      </trkpt>
      <trkpt lat="40.595220" lon="0.569864">
        <ele>7.599</ele>
        <time>1970-01-01T01:28:46Z</time>
      </trkpt>
      <trkpt lat="40.595163" lon="0.569836">
        <ele>7.607</ele>
        <time>1970-01-01T01:28:47Z</time>
      </trkpt>
      <trkpt lat="40.595108" lon="0.569797">
        <ele>7.727</ele>
        <time>1970-01-01T01:28:48Z</time>
      </trkpt>
      <trkpt lat="40.595054" lon="0.569748">
        <ele>7.908</ele>
        <time>1970-01-01T01:28:49Z</time>
      </trkpt>
      <trkpt lat="40.595003" lon="0.569692">
        <ele>7.946</ele>
        <time>1970-01-01T01:28:50Z</time>
      </trkpt>
      <trkpt lat="40.594951" lon="0.569634">
        <ele>7.553</ele>
        <time>1970-01-01T01:28:51Z</time>
      </trkpt>
      <trkpt lat="40.594897" lon="0.569577">
        <ele>6.944</ele>
        <time>1970-01-01T01:28:52Z</time>
      </trkpt>
      <trkpt lat="40.594842" lon="0.569519">
        <ele>6.357</ele>
        <time>1970-01-01T01:28:53Z</time>
      </trkpt>
      <trkpt lat="40.594788" lon="0.569463">
        <ele>5.647</ele>
        <time>1970-01-01T01:28:54Z</time>
      </trkpt>
      <trkpt lat="40.594734" lon="0.569407">
        <ele>5.013</ele>
        <time>1970-01-01T01:28:55Z</time>
      </trkpt>
      <trkpt lat="40.594679" lon="0.569350">
        <ele>4.587</ele>
        <time>1970-01-01T01:28:56Z</time>
      </trkpt>
      <trkpt lat="40.594624" lon="0.569291">
        <ele>3.988</ele>
        <time>1970-01-01T01:28:57Z</time>
      </trkpt>
      <trkpt lat="40.594568" lon="0.569233">
        <ele>3.385</ele>
        <time>1970-01-01T01:28:58Z</time>
      </trkpt>
      <trkpt lat="40.594513" lon="0.569174">
        <ele>2.589</ele>
        <time>1970-01-01T01:28:59Z</time>
      </trkpt>
      <trkpt lat="40.594455" lon="0.569116">
        <ele>2.317</ele>
        <time>1970-01-01T01:29:00Z</time>
      </trkpt>
      <trkpt lat="40.594398" lon="0.569057">
        <ele>2.508</ele>
        <time>1970-01-01T01:29:01Z</time>
      </trkpt>
      <trkpt lat="40.594343" lon="0.568997">
        <ele>2.895</ele>
        <time>1970-01-01T01:29:02Z</time>
      </trkpt>
      <trkpt lat="40.594288" lon="0.568938">
        <ele>2.992</ele>
        <time>1970-01-01T01:29:03Z</time>
      </trkpt>
      <trkpt lat="40.594230" lon="0.568877">
        <ele>3.083</ele>
        <time>1970-01-01T01:29:04Z</time>
      </trkpt>
      <trkpt lat="40.594173" lon="0.568817">
        <ele>3.016</ele>
        <time>1970-01-01T01:29:05Z</time>
      </trkpt>
      <trkpt lat="40.594117" lon="0.568755">
        <ele>3.476</ele>
        <time>1970-01-01T01:29:06Z</time>
      </trkpt>
      <trkpt lat="40.594060" lon="0.568696">
        <ele>3.842</ele>
        <time>1970-01-01T01:29:07Z</time>
      </trkpt>
      <trkpt lat="40.594005" lon="0.568638">
        <ele>4.216</ele>
        <time>1970-01-01T01:29:08Z</time>
      </trkpt>
      <trkpt lat="40.593951" lon="0.568580">
        <ele>4.547</ele>
        <time>1970-01-01T01:29:09Z</time>
      </trkpt>
      <trkpt lat="40.593895" lon="0.568524">
        <ele>4.713</ele>
        <time>1970-01-01T01:29:10Z</time>
      </trkpt>
      <trkpt lat="40.593842" lon="0.568467">
        <ele>4.543</ele>
        <time>1970-01-01T01:29:11Z</time>
      </trkpt>
      <trkpt lat="40.593792" lon="0.568407">
        <ele>4.307</ele>
        <time>1970-01-01T01:29:12Z</time>
      </trkpt>
      <trkpt lat="40.593741" lon="0.568347">
        <ele>4.008</ele>
        <time>1970-01-01T01:29:13Z</time>
      </trkpt>
      <trkpt lat="40.593688" lon="0.568290">
        <ele>3.878</ele>
        <time>1970-01-01T01:29:14Z</time>
      </trkpt>
      <trkpt lat="40.593636" lon="0.568233">
        <ele>3.685</ele>
        <time>1970-01-01T01:29:15Z</time>
      </trkpt>
      <trkpt lat="40.593584" lon="0.568177">
        <ele>3.316</ele>
        <time>1970-01-01T01:29:16Z</time>
      </trkpt>
      <trkpt lat="40.593532" lon="0.568123">
        <ele>3.069</ele>
        <time>1970-01-01T01:29:17Z</time>
      </trkpt>
      <trkpt lat="40.593482" lon="0.568067">
        <ele>2.639</ele>
        <time>1970-01-01T01:29:18Z</time>
      </trkpt>
      <trkpt lat="40.593431" lon="0.568012">
        <ele>2.455</ele>
        <time>1970-01-01T01:29:19Z</time>
      </trkpt>
      <trkpt lat="40.593381" lon="0.567957">
        <ele>2.489</ele>
        <time>1970-01-01T01:29:20Z</time>
      </trkpt>
      <trkpt lat="40.593331" lon="0.567902">
        <ele>2.540</ele>
        <time>1970-01-01T01:29:21Z</time>
      </trkpt>
      <trkpt lat="40.593282" lon="0.567852">
        <ele>2.767</ele>
        <time>1970-01-01T01:29:22Z</time>
      </trkpt>
      <trkpt lat="40.593234" lon="0.567804">
        <ele>2.981</ele>
        <time>1970-01-01T01:29:23Z</time>
      </trkpt>
      <trkpt lat="40.593186" lon="0.567755">
        <ele>3.119</ele>
        <time>1970-01-01T01:29:24Z</time>
      </trkpt>
      <trkpt lat="40.593139" lon="0.567706">
        <ele>3.408</ele>
        <time>1970-01-01T01:29:25Z</time>
      </trkpt>
      <trkpt lat="40.593093" lon="0.567658">
        <ele>3.893</ele>
        <time>1970-01-01T01:29:26Z</time>
      </trkpt>
      <trkpt lat="40.593047" lon="0.567610">
        <ele>4.230</ele>
        <time>1970-01-01T01:29:27Z</time>
      </trkpt>
      <trkpt lat="40.593001" lon="0.567565">
        <ele>4.661</ele>
        <time>1970-01-01T01:29:28Z</time>
      </trkpt>
      <trkpt lat="40.592955" lon="0.567521">
        <ele>4.954</ele>
        <time>1970-01-01T01:29:29Z</time>
      </trkpt>
      <trkpt lat="40.592912" lon="0.567474">
        <ele>5.134</ele>
        <time>1970-01-01T01:29:30Z</time>
      </trkpt>
      <trkpt lat="40.592871" lon="0.567426">
        <ele>5.220</ele>
        <time>1970-01-01T01:29:31Z</time>
      </trkpt>
      <trkpt lat="40.592827" lon="0.567378">
        <ele>5.214</ele>
        <time>1970-01-01T01:29:32Z</time>
      </trkpt>
      <trkpt lat="40.592780" lon="0.567331">
        <ele>5.055</ele>
        <time>1970-01-01T01:29:33Z</time>
      </trkpt>
      <trkpt lat="40.592735" lon="0.567282">
        <ele>5.073</ele>
        <time>1970-01-01T01:29:34Z</time>
      </trkpt>
      <trkpt lat="40.592688" lon="0.567232">
        <ele>5.085</ele>
        <time>1970-01-01T01:29:35Z</time>
      </trkpt>
      <trkpt lat="40.592641" lon="0.567185">
        <ele>5.113</ele>
        <time>1970-01-01T01:29:36Z</time>
      </trkpt>
      <trkpt lat="40.592596" lon="0.567135">
        <ele>5.108</ele>
        <time>1970-01-01T01:29:37Z</time>
      </trkpt>
      <trkpt lat="40.592548" lon="0.567084">
        <ele>5.184</ele>
        <time>1970-01-01T01:29:38Z</time>
      </trkpt>
      <trkpt lat="40.592498" lon="0.567037">
        <ele>5.031</ele>
        <time>1970-01-01T01:29:39Z</time>
      </trkpt>
      <trkpt lat="40.592449" lon="0.566990">
        <ele>5.082</ele>
        <time>1970-01-01T01:29:40Z</time>
      </trkpt>
      <trkpt lat="40.592400" lon="0.566939">
        <ele>5.015</ele>
        <time>1970-01-01T01:29:41Z</time>
      </trkpt>
      <trkpt lat="40.592351" lon="0.566887">
        <ele>5.165</ele>
        <time>1970-01-01T01:29:42Z</time>
      </trkpt>
      <trkpt lat="40.592302" lon="0.566834">
        <ele>5.131</ele>
        <time>1970-01-01T01:29:43Z</time>
      </trkpt>
      <trkpt lat="40.592252" lon="0.566781">
        <ele>5.125</ele>
        <time>1970-01-01T01:29:44Z</time>
      </trkpt>
      <trkpt lat="40.592199" lon="0.566728">
        <ele>5.056</ele>
        <time>1970-01-01T01:29:45Z</time>
      </trkpt>
      <trkpt lat="40.592146" lon="0.566676">
        <ele>5.029</ele>
        <time>1970-01-01T01:29:46Z</time>
      </trkpt>
      <trkpt lat="40.592092" lon="0.566622">
        <ele>5.100</ele>
        <time>1970-01-01T01:29:47Z</time>
      </trkpt>
      <trkpt lat="40.592038" lon="0.566571">
        <ele>5.120</ele>
        <time>1970-01-01T01:29:48Z</time>
      </trkpt>
      <trkpt lat="40.591985" lon="0.566520">
        <ele>5.108</ele>
        <time>1970-01-01T01:29:49Z</time>
      </trkpt>
      <trkpt lat="40.591932" lon="0.566468">
        <ele>5.029</ele>
        <time>1970-01-01T01:29:50Z</time>
      </trkpt>
      <trkpt lat="40.591880" lon="0.566417">
        <ele>4.816</ele>
        <time>1970-01-01T01:29:51Z</time>
      </trkpt>
      <trkpt lat="40.591827" lon="0.566363">
        <ele>4.627</ele>
        <time>1970-01-01T01:29:52Z</time>
      </trkpt>
      <trkpt lat="40.591773" lon="0.566309">
        <ele>4.440</ele>
        <time>1970-01-01T01:29:53Z</time>
      </trkpt>
      <trkpt lat="40.591719" lon="0.566257">
        <ele>4.270</ele>
        <time>1970-01-01T01:29:54Z</time>
      </trkpt>
      <trkpt lat="40.591666" lon="0.566206">
        <ele>4.056</ele>
        <time>1970-01-01T01:29:55Z</time>
      </trkpt>
      <trkpt lat="40.591614" lon="0.566154">
        <ele>3.830</ele>
        <time>1970-01-01T01:29:56Z</time>
      </trkpt>
      <trkpt lat="40.591563" lon="0.566103">
        <ele>3.711</ele>
        <time>1970-01-01T01:29:57Z</time>
      </trkpt>
      <trkpt lat="40.591512" lon="0.566050">
        <ele>3.768</ele>
        <time>1970-01-01T01:29:58Z</time>
      </trkpt>
      <trkpt lat="40.591462" lon="0.565999">
        <ele>3.742</ele>
        <time>1970-01-01T01:29:59Z</time>
      </trkpt>
      <trkpt lat="40.591414" lon="0.565949">
        <ele>3.726</ele>
        <time>1970-01-01T01:30:00Z</time>
      </trkpt>
      <trkpt lat="40.591365" lon="0.565901">
        <ele>3.608</ele>
        <time>1970-01-01T01:30:01Z</time>
      </trkpt>
      <trkpt lat="40.591318" lon="0.565853">
        <ele>3.723</ele>
        <time>1970-01-01T01:30:02Z</time>
      </trkpt>
      <trkpt lat="40.591272" lon="0.565804">
        <ele>3.840</ele>
        <time>1970-01-01T01:30:03Z</time>
      </trkpt>
      <trkpt lat="40.591228" lon="0.565756">
        <ele>4.051</ele>
        <time>1970-01-01T01:30:04Z</time>
      </trkpt>
      <trkpt lat="40.591182" lon="0.565712">
        <ele>4.184</ele>
        <time>1970-01-01T01:30:05Z</time>
      </trkpt>
      <trkpt lat="40.591136" lon="0.565668">
        <ele>4.384</ele>
        <time>1970-01-01T01:30:06Z</time>
      </trkpt>
      <trkpt lat="40.591090" lon="0.565623">
        <ele>4.490</ele>
        <time>1970-01-01T01:30:07Z</time>
      </trkpt>
      <trkpt lat="40.591047" lon="0.565579">
        <ele>4.464</ele>
        <time>1970-01-01T01:30:08Z</time>
      </trkpt>
      <trkpt lat="40.591003" lon="0.565535">
        <ele>4.285</ele>
        <time>1970-01-01T01:30:09Z</time>
      </trkpt>
      <trkpt lat="40.590960" lon="0.565491">
        <ele>4.079</ele>
        <time>1970-01-01T01:30:10Z</time>
      </trkpt>
      <trkpt lat="40.590916" lon="0.565446">
        <ele>3.905</ele>
        <time>1970-01-01T01:30:11Z</time>
      </trkpt>
      <trkpt lat="40.590872" lon="0.565401">
        <ele>3.825</ele>
        <time>1970-01-01T01:30:12Z</time>
      </trkpt>
      <trkpt lat="40.590828" lon="0.565356">
        <ele>3.708</ele>
        <time>1970-01-01T01:30:13Z</time>
      </trkpt>
      <trkpt lat="40.590785" lon="0.565308">
        <ele>3.954</ele>
        <time>1970-01-01T01:30:14Z</time>
      </trkpt>
      <trkpt lat="40.590743" lon="0.565259">
        <ele>4.061</ele>
        <time>1970-01-01T01:30:15Z</time>
      </trkpt>
      <trkpt lat="40.590702" lon="0.565207">
        <ele>4.172</ele>
        <time>1970-01-01T01:30:16Z</time>
      </trkpt>
      <trkpt lat="40.590662" lon="0.565154">
        <ele>4.245</ele>
        <time>1970-01-01T01:30:17Z</time>
      </trkpt>
      <trkpt lat="40.590623" lon="0.565098">
        <ele>4.225</ele>
        <time>1970-01-01T01:30:18Z</time>
      </trkpt>
      <trkpt lat="40.590586" lon="0.565040">
        <ele>4.181</ele>
        <time>1970-01-01T01:30:19Z</time>
      </trkpt>
      <trkpt lat="40.590547" lon="0.564981">
        <ele>4.195</ele>
        <time>1970-01-01T01:30:20Z</time>
      </trkpt>
      <trkpt lat="40.590507" lon="0.564921">
        <ele>4.516</ele>
        <time>1970-01-01T01:30:21Z</time>
      </trkpt>
      <trkpt lat="40.590466" lon="0.564860">
        <ele>4.822</ele>
        <time>1970-01-01T01:30:22Z</time>
      </trkpt>
      <trkpt lat="40.590424" lon="0.564799">
        <ele>5.162</ele>
        <time>1970-01-01T01:30:23Z</time>
      </trkpt>
      <trkpt lat="40.590382" lon="0.564737">
        <ele>5.308</ele>
        <time>1970-01-01T01:30:24Z</time>
      </trkpt>
      <trkpt lat="40.590340" lon="0.564677">
        <ele>5.408</ele>
        <time>1970-01-01T01:30:25Z</time>
      </trkpt>
      <trkpt lat="40.590296" lon="0.564617">
        <ele>5.489</ele>
        <time>1970-01-01T01:30:26Z</time>
      </trkpt>
      <trkpt lat="40.590252" lon="0.564556">
        <ele>5.336</ele>
        <time>1970-01-01T01:30:27Z</time>
      </trkpt>
      <trkpt lat="40.590209" lon="0.564495">
        <ele>4.987</ele>
        <time>1970-01-01T01:30:28Z</time>
      </trkpt>
      <trkpt lat="40.590166" lon="0.564431">
        <ele>4.590</ele>
        <time>1970-01-01T01:30:29Z</time>
      </trkpt>
      <trkpt lat="40.590124" lon="0.564365">
        <ele>4.430</ele>
        <time>1970-01-01T01:30:30Z</time>
      </trkpt>
      <trkpt lat="40.590084" lon="0.564300">
        <ele>4.566</ele>
        <time>1970-01-01T01:30:31Z</time>
      </trkpt>
      <trkpt lat="40.590043" lon="0.564236">
        <ele>4.680</ele>
        <time>1970-01-01T01:30:32Z</time>
      </trkpt>
      <trkpt lat="40.590001" lon="0.564175">
        <ele>4.931</ele>
        <time>1970-01-01T01:30:33Z</time>
      </trkpt>
      <trkpt lat="40.589960" lon="0.564112">
        <ele>5.152</ele>
        <time>1970-01-01T01:30:34Z</time>
      </trkpt>
      <trkpt lat="40.589920" lon="0.564048">
        <ele>5.353</ele>
        <time>1970-01-01T01:30:35Z</time>
      </trkpt>
      <trkpt lat="40.589880" lon="0.563984">
        <ele>5.508</ele>
        <time>1970-01-01T01:30:36Z</time>
      </trkpt>
      <trkpt lat="40.589840" lon="0.563919">
        <ele>5.608</ele>
        <time>1970-01-01T01:30:37Z</time>
      </trkpt>
      <trkpt lat="40.589798" lon="0.563854">
        <ele>5.952</ele>
        <time>1970-01-01T01:30:38Z</time>
      </trkpt>
      <trkpt lat="40.589756" lon="0.563791">
        <ele>6.319</ele>
        <time>1970-01-01T01:30:39Z</time>
      </trkpt>
      <trkpt lat="40.589714" lon="0.563727">
        <ele>6.710</ele>
        <time>1970-01-01T01:30:40Z</time>
      </trkpt>
      <trkpt lat="40.589671" lon="0.563662">
        <ele>6.883</ele>
        <time>1970-01-01T01:30:41Z</time>
      </trkpt>
      <trkpt lat="40.589628" lon="0.563599">
        <ele>6.783</ele>
        <time>1970-01-01T01:30:42Z</time>
      </trkpt>
      <trkpt lat="40.589587" lon="0.563535">
        <ele>6.769</ele>
        <time>1970-01-01T01:30:43Z</time>
      </trkpt>
      <trkpt lat="40.589547" lon="0.563470">
        <ele>6.833</ele>
        <time>1970-01-01T01:30:44Z</time>
      </trkpt>
      <trkpt lat="40.589506" lon="0.563407">
        <ele>6.914</ele>
        <time>1970-01-01T01:30:45Z</time>
      </trkpt>
      <trkpt lat="40.589463" lon="0.563343">
        <ele>7.194</ele>
        <time>1970-01-01T01:30:46Z</time>
      </trkpt>
      <trkpt lat="40.589420" lon="0.563280">
        <ele>7.157</ele>
        <time>1970-01-01T01:30:47Z</time>
      </trkpt>
      <trkpt lat="40.589378" lon="0.563215">
        <ele>7.322</ele>
        <time>1970-01-01T01:30:48Z</time>
      </trkpt>
      <trkpt lat="40.589337" lon="0.563150">
        <ele>7.508</ele>
        <time>1970-01-01T01:30:49Z</time>
      </trkpt>
      <trkpt lat="40.589295" lon="0.563088">
        <ele>7.876</ele>
        <time>1970-01-01T01:30:50Z</time>
      </trkpt>
      <trkpt lat="40.589252" lon="0.563026">
        <ele>8.033</ele>
        <time>1970-01-01T01:30:51Z</time>
      </trkpt>
      <trkpt lat="40.589211" lon="0.562964">
        <ele>8.134</ele>
        <time>1970-01-01T01:30:52Z</time>
      </trkpt>
      <trkpt lat="40.589173" lon="0.562901">
        <ele>8.067</ele>
        <time>1970-01-01T01:30:53Z</time>
      </trkpt>
      <trkpt lat="40.589134" lon="0.562839">
        <ele>8.077</ele>
        <time>1970-01-01T01:30:54Z</time>
      </trkpt>
      <trkpt lat="40.589094" lon="0.562780">
        <ele>8.083</ele>
        <time>1970-01-01T01:30:55Z</time>
      </trkpt>
      <trkpt lat="40.589053" lon="0.562719">
        <ele>7.737</ele>
        <time>1970-01-01T01:30:56Z</time>
      </trkpt>
      <trkpt lat="40.589011" lon="0.562658">
        <ele>7.378</ele>
        <time>1970-01-01T01:30:57Z</time>
      </trkpt>
      <trkpt lat="40.588971" lon="0.562597">
        <ele>6.971</ele>
        <time>1970-01-01T01:30:58Z</time>
      </trkpt>
      <trkpt lat="40.588931" lon="0.562536">
        <ele>6.441</ele>
        <time>1970-01-01T01:30:59Z</time>
      </trkpt>
      <trkpt lat="40.588891" lon="0.562474">
        <ele>5.915</ele>
        <time>1970-01-01T01:31:00Z</time>
      </trkpt>
      <trkpt lat="40.588851" lon="0.562413">
        <ele>5.708</ele>
        <time>1970-01-01T01:31:01Z</time>
      </trkpt>
      <trkpt lat="40.588809" lon="0.562355">
        <ele>5.594</ele>
        <time>1970-01-01T01:31:02Z</time>
      </trkpt>
      <trkpt lat="40.588767" lon="0.562296">
        <ele>5.381</ele>
        <time>1970-01-01T01:31:03Z</time>
      </trkpt>
      <trkpt lat="40.588727" lon="0.562237">
        <ele>5.132</ele>
        <time>1970-01-01T01:31:04Z</time>
      </trkpt>
      <trkpt lat="40.588687" lon="0.562178">
        <ele>4.925</ele>
        <time>1970-01-01T01:31:05Z</time>
      </trkpt>
      <trkpt lat="40.588648" lon="0.562118">
        <ele>4.745</ele>
        <time>1970-01-01T01:31:06Z</time>
      </trkpt>
      <trkpt lat="40.588610" lon="0.562059">
        <ele>4.481</ele>
        <time>1970-01-01T01:31:07Z</time>
      </trkpt>
      <trkpt lat="40.588572" lon="0.562000">
        <ele>4.015</ele>
        <time>1970-01-01T01:31:08Z</time>
      </trkpt>
      <trkpt lat="40.588534" lon="0.561941">
        <ele>3.736</ele>
        <time>1970-01-01T01:31:09Z</time>
      </trkpt>
      <trkpt lat="40.588497" lon="0.561883">
        <ele>3.961</ele>
        <time>1970-01-01T01:31:10Z</time>
      </trkpt>
      <trkpt lat="40.588459" lon="0.561825">
        <ele>4.121</ele>
        <time>1970-01-01T01:31:11Z</time>
      </trkpt>
      <trkpt lat="40.588421" lon="0.561768">
        <ele>4.413</ele>
        <time>1970-01-01T01:31:12Z</time>
      </trkpt>
      <trkpt lat="40.588386" lon="0.561711">
        <ele>4.708</ele>
        <time>1970-01-01T01:31:13Z</time>
      </trkpt>
      <trkpt lat="40.588349" lon="0.561655">
        <ele>5.113</ele>
        <time>1970-01-01T01:31:14Z</time>
      </trkpt>
      <trkpt lat="40.588310" lon="0.561601">
        <ele>5.680</ele>
        <time>1970-01-01T01:31:15Z</time>
      </trkpt>
      <trkpt lat="40.588271" lon="0.561546">
        <ele>6.281</ele>
        <time>1970-01-01T01:31:16Z</time>
      </trkpt>
      <trkpt lat="40.588234" lon="0.561490">
        <ele>6.834</ele>
        <time>1970-01-01T01:31:17Z</time>
      </trkpt>
      <trkpt lat="40.588198" lon="0.561435">
        <ele>7.274</ele>
        <time>1970-01-01T01:31:18Z</time>
      </trkpt>
      <trkpt lat="40.588163" lon="0.561379">
        <ele>7.680</ele>
        <time>1970-01-01T01:31:19Z</time>
      </trkpt>
      <trkpt lat="40.588128" lon="0.561324">
        <ele>8.034</ele>
        <time>1970-01-01T01:31:20Z</time>
      </trkpt>
      <trkpt lat="40.588091" lon="0.561269">
        <ele>8.395</ele>
        <time>1970-01-01T01:31:21Z</time>
      </trkpt>
      <trkpt lat="40.588054" lon="0.561214">
        <ele>8.683</ele>
        <time>1970-01-01T01:31:22Z</time>
      </trkpt>
      <trkpt lat="40.588017" lon="0.561159">
        <ele>8.925</ele>
        <time>1970-01-01T01:31:23Z</time>
      </trkpt>
      <trkpt lat="40.587981" lon="0.561105">
        <ele>9.017</ele>
        <time>1970-01-01T01:31:24Z</time>
      </trkpt>
      <trkpt lat="40.587943" lon="0.561050">
        <ele>8.808</ele>
        <time>1970-01-01T01:31:25Z</time>
      </trkpt>
      <trkpt lat="40.587904" lon="0.560996">
        <ele>8.665</ele>
        <time>1970-01-01T01:31:26Z</time>
      </trkpt>
      <trkpt lat="40.587866" lon="0.560942">
        <ele>8.422</ele>
        <time>1970-01-01T01:31:27Z</time>
      </trkpt>
      <trkpt lat="40.587829" lon="0.560886">
        <ele>8.233</ele>
        <time>1970-01-01T01:31:28Z</time>
      </trkpt>
      <trkpt lat="40.587792" lon="0.560831">
        <ele>8.086</ele>
        <time>1970-01-01T01:31:29Z</time>
      </trkpt>
      <trkpt lat="40.587757" lon="0.560775">
        <ele>7.716</ele>
        <time>1970-01-01T01:31:30Z</time>
      </trkpt>
      <trkpt lat="40.587721" lon="0.560718">
        <ele>7.582</ele>
        <time>1970-01-01T01:31:31Z</time>
      </trkpt>
      <trkpt lat="40.587686" lon="0.560662">
        <ele>7.366</ele>
        <time>1970-01-01T01:31:32Z</time>
      </trkpt>
      <trkpt lat="40.587651" lon="0.560607">
        <ele>7.117</ele>
        <time>1970-01-01T01:31:33Z</time>
      </trkpt>
      <trkpt lat="40.587616" lon="0.560551">
        <ele>7.015</ele>
        <time>1970-01-01T01:31:34Z</time>
      </trkpt>
      <trkpt lat="40.587580" lon="0.560499">
        <ele>7.365</ele>
        <time>1970-01-01T01:31:35Z</time>
      </trkpt>
      <trkpt lat="40.587545" lon="0.560447">
        <ele>7.711</ele>
        <time>1970-01-01T01:31:36Z</time>
      </trkpt>
      <trkpt lat="40.587511" lon="0.560394">
        <ele>8.108</ele>
        <time>1970-01-01T01:31:37Z</time>
      </trkpt>
      <trkpt lat="40.587479" lon="0.560340">
        <ele>8.658</ele>
        <time>1970-01-01T01:31:38Z</time>
      </trkpt>
      <trkpt lat="40.587447" lon="0.560285">
        <ele>9.145</ele>
        <time>1970-01-01T01:31:39Z</time>
      </trkpt>
      <trkpt lat="40.587412" lon="0.560233">
        <ele>9.676</ele>
        <time>1970-01-01T01:31:40Z</time>
      </trkpt>
      <trkpt lat="40.587379" lon="0.560183">
        <ele>10.199</ele>
        <time>1970-01-01T01:31:41Z</time>
      </trkpt>
      <trkpt lat="40.587345" lon="0.560132">
        <ele>10.659</ele>
        <time>1970-01-01T01:31:42Z</time>
      </trkpt>
      <trkpt lat="40.587310" lon="0.560081">
        <ele>11.125</ele>
        <time>1970-01-01T01:31:43Z</time>
      </trkpt>
      <trkpt lat="40.587275" lon="0.560031">
        <ele>11.689</ele>
        <time>1970-01-01T01:31:44Z</time>
      </trkpt>
      <trkpt lat="40.587240" lon="0.559981">
        <ele>12.040</ele>
        <time>1970-01-01T01:31:45Z</time>
      </trkpt>
      <trkpt lat="40.587206" lon="0.559932">
        <ele>12.246</ele>
        <time>1970-01-01T01:31:46Z</time>
      </trkpt>
      <trkpt lat="40.587172" lon="0.559884">
        <ele>12.488</ele>
        <time>1970-01-01T01:31:47Z</time>
      </trkpt>
      <trkpt lat="40.587139" lon="0.559834">
        <ele>12.616</ele>
        <time>1970-01-01T01:31:48Z</time>
      </trkpt>
      <trkpt lat="40.587106" lon="0.559783">
        <ele>12.808</ele>
        <time>1970-01-01T01:31:49Z</time>
      </trkpt>
      <trkpt lat="40.587073" lon="0.559732">
        <ele>13.071</ele>
        <time>1970-01-01T01:31:50Z</time>
      </trkpt>
      <trkpt lat="40.587041" lon="0.559681">
        <ele>12.958</ele>
        <time>1970-01-01T01:31:51Z</time>
      </trkpt>
      <trkpt lat="40.587007" lon="0.559629">
        <ele>12.799</ele>
        <time>1970-01-01T01:31:52Z</time>
      </trkpt>
      <trkpt lat="40.586973" lon="0.559578">
        <ele>12.522</ele>
        <time>1970-01-01T01:31:53Z</time>
      </trkpt>
      <trkpt lat="40.586938" lon="0.559528">
        <ele>12.342</ele>
        <time>1970-01-01T01:31:54Z</time>
      </trkpt>
      <trkpt lat="40.586902" lon="0.559476">
        <ele>12.188</ele>
        <time>1970-01-01T01:31:55Z</time>
      </trkpt>
      <trkpt lat="40.586869" lon="0.559424">
        <ele>12.162</ele>
        <time>1970-01-01T01:31:56Z</time>
      </trkpt>
      <trkpt lat="40.586834" lon="0.559371">
        <ele>12.423</ele>
        <time>1970-01-01T01:31:57Z</time>
      </trkpt>
      <trkpt lat="40.586798" lon="0.559320">
        <ele>12.776</ele>
        <time>1970-01-01T01:31:58Z</time>
      </trkpt>
      <trkpt lat="40.586764" lon="0.559265">
        <ele>13.190</ele>
        <time>1970-01-01T01:31:59Z</time>
      </trkpt>
      <trkpt lat="40.586730" lon="0.559209">
        <ele>13.519</ele>
        <time>1970-01-01T01:32:00Z</time>
      </trkpt>
      <trkpt lat="40.586698" lon="0.559153">
        <ele>14.008</ele>
        <time>1970-01-01T01:32:01Z</time>
      </trkpt>
      <trkpt lat="40.586664" lon="0.559097">
        <ele>14.594</ele>
        <time>1970-01-01T01:32:02Z</time>
      </trkpt>
      <trkpt lat="40.586628" lon="0.559042">
        <ele>14.891</ele>
        <time>1970-01-01T01:32:03Z</time>
      </trkpt>
      <trkpt lat="40.586590" lon="0.558988">
        <ele>15.052</ele>
        <time>1970-01-01T01:32:04Z</time>
      </trkpt>
      <trkpt lat="40.586553" lon="0.558935">
        <ele>15.355</ele>
        <time>1970-01-01T01:32:05Z</time>
      </trkpt>
      <trkpt lat="40.586517" lon="0.558882">
        <ele>15.595</ele>
        <time>1970-01-01T01:32:06Z</time>
      </trkpt>
      <trkpt lat="40.586482" lon="0.558831">
        <ele>15.851</ele>
        <time>1970-01-01T01:32:07Z</time>
      </trkpt>
      <trkpt lat="40.586448" lon="0.558778">
        <ele>16.055</ele>
        <time>1970-01-01T01:32:08Z</time>
      </trkpt>
      <trkpt lat="40.586412" lon="0.558725">
        <ele>16.326</ele>
        <time>1970-01-01T01:32:09Z</time>
      </trkpt>
      <trkpt lat="40.586378" lon="0.558672">
        <ele>16.455</ele>
        <time>1970-01-01T01:32:10Z</time>
      </trkpt>
      <trkpt lat="40.586344" lon="0.558617">
        <ele>16.307</ele>
        <time>1970-01-01T01:32:11Z</time>
      </trkpt>
      <trkpt lat="40.586308" lon="0.558564">
        <ele>15.917</ele>
        <time>1970-01-01T01:32:12Z</time>
      </trkpt>
      <trkpt lat="40.586273" lon="0.558513">
        <ele>15.608</ele>
        <time>1970-01-01T01:32:13Z</time>
      </trkpt>
      <trkpt lat="40.586238" lon="0.558462">
        <ele>15.422</ele>
        <time>1970-01-01T01:32:14Z</time>
      </trkpt>
      <trkpt lat="40.586204" lon="0.558413">
        <ele>15.389</ele>
        <time>1970-01-01T01:32:15Z</time>
      </trkpt>
      <trkpt lat="40.586173" lon="0.558363">
        <ele>15.360</ele>
        <time>1970-01-01T01:32:16Z</time>
      </trkpt>
      <trkpt lat="40.586143" lon="0.558313">
        <ele>15.313</ele>
        <time>1970-01-01T01:32:17Z</time>
      </trkpt>
      <trkpt lat="40.586110" lon="0.558263">
        <ele>15.253</ele>
        <time>1970-01-01T01:32:18Z</time>
      </trkpt>
      <trkpt lat="40.586078" lon="0.558214">
        <ele>15.219</ele>
        <time>1970-01-01T01:32:19Z</time>
      </trkpt>
      <trkpt lat="40.586046" lon="0.558165">
        <ele>15.153</ele>
        <time>1970-01-01T01:32:20Z</time>
      </trkpt>
      <trkpt lat="40.586014" lon="0.558114">
        <ele>15.184</ele>
        <time>1970-01-01T01:32:21Z</time>
      </trkpt>
      <trkpt lat="40.585980" lon="0.558064">
        <ele>15.034</ele>
        <time>1970-01-01T01:32:22Z</time>
      </trkpt>
      <trkpt lat="40.585945" lon="0.558017">
        <ele>15.055</ele>
        <time>1970-01-01T01:32:23Z</time>
      </trkpt>
      <trkpt lat="40.585910" lon="0.557970">
        <ele>15.110</ele>
        <time>1970-01-01T01:32:24Z</time>
      </trkpt>
      <trkpt lat="40.585877" lon="0.557922">
        <ele>15.208</ele>
        <time>1970-01-01T01:32:25Z</time>
      </trkpt>
      <trkpt lat="40.585844" lon="0.557873">
        <ele>15.410</ele>
        <time>1970-01-01T01:32:26Z</time>
      </trkpt>
      <trkpt lat="40.585811" lon="0.557827">
        <ele>15.437</ele>
        <time>1970-01-01T01:32:27Z</time>
      </trkpt>
      <trkpt lat="40.585776" lon="0.557780">
        <ele>15.428</ele>
        <time>1970-01-01T01:32:28Z</time>
      </trkpt>
      <trkpt lat="40.585739" lon="0.557734">
        <ele>15.271</ele>
        <time>1970-01-01T01:32:29Z</time>
      </trkpt>
      <trkpt lat="40.585703" lon="0.557688">
        <ele>15.141</ele>
        <time>1970-01-01T01:32:30Z</time>
      </trkpt>
      <trkpt lat="40.585666" lon="0.557643">
        <ele>15.097</ele>
        <time>1970-01-01T01:32:31Z</time>
      </trkpt>
      <trkpt lat="40.585628" lon="0.557599">
        <ele>14.921</ele>
        <time>1970-01-01T01:32:32Z</time>
      </trkpt>
      <trkpt lat="40.585587" lon="0.557556">
        <ele>14.892</ele>
        <time>1970-01-01T01:32:33Z</time>
      </trkpt>
      <trkpt lat="40.585545" lon="0.557514">
        <ele>14.813</ele>
        <time>1970-01-01T01:32:34Z</time>
      </trkpt>
      <trkpt lat="40.585502" lon="0.557473">
        <ele>14.443</ele>
        <time>1970-01-01T01:32:35Z</time>
      </trkpt>
      <trkpt lat="40.585460" lon="0.557433">
        <ele>14.107</ele>
        <time>1970-01-01T01:32:36Z</time>
      </trkpt>
      <trkpt lat="40.585414" lon="0.557393">
        <ele>13.708</ele>
        <time>1970-01-01T01:32:37Z</time>
      </trkpt>
      <trkpt lat="40.585367" lon="0.557356">
        <ele>13.398</ele>
        <time>1970-01-01T01:32:38Z</time>
      </trkpt>
      <trkpt lat="40.585319" lon="0.557319">
        <ele>13.025</ele>
        <time>1970-01-01T01:32:39Z</time>
      </trkpt>
      <trkpt lat="40.585271" lon="0.557283">
        <ele>12.896</ele>
        <time>1970-01-01T01:32:40Z</time>
      </trkpt>
      <trkpt lat="40.585222" lon="0.557247">
        <ele>12.959</ele>
        <time>1970-01-01T01:32:41Z</time>
      </trkpt>
      <trkpt lat="40.585172" lon="0.557213">
        <ele>13.059</ele>
        <time>1970-01-01T01:32:42Z</time>
      </trkpt>
      <trkpt lat="40.585119" lon="0.557181">
        <ele>13.145</ele>
        <time>1970-01-01T01:32:43Z</time>
      </trkpt>
      <trkpt lat="40.585066" lon="0.557150">
        <ele>13.319</ele>
        <time>1970-01-01T01:32:44Z</time>
      </trkpt>
      <trkpt lat="40.585011" lon="0.557118">
        <ele>13.420</ele>
        <time>1970-01-01T01:32:45Z</time>
      </trkpt>
      <trkpt lat="40.584955" lon="0.557088">
        <ele>13.543</ele>
        <time>1970-01-01T01:32:46Z</time>
      </trkpt>
      <trkpt lat="40.584898" lon="0.557057">
        <ele>13.664</ele>
        <time>1970-01-01T01:32:47Z</time>
      </trkpt>
      <trkpt lat="40.584841" lon="0.557022">
        <ele>13.710</ele>
        <time>1970-01-01T01:32:48Z</time>
      </trkpt>
      <trkpt lat="40.584783" lon="0.556987">
        <ele>13.808</ele>
        <time>1970-01-01T01:32:49Z</time>
      </trkpt>
      <trkpt lat="40.584724" lon="0.556951">
        <ele>14.071</ele>
        <time>1970-01-01T01:32:50Z</time>
      </trkpt>
      <trkpt lat="40.584664" lon="0.556916">
        <ele>14.018</ele>
        <time>1970-01-01T01:32:51Z</time>
      </trkpt>
      <trkpt lat="40.584602" lon="0.556880">
        <ele>14.049</ele>
        <time>1970-01-01T01:32:52Z</time>
      </trkpt>
      <trkpt lat="40.584541" lon="0.556845">
        <ele>14.022</ele>
        <time>1970-01-01T01:32:53Z</time>
      </trkpt>
      <trkpt lat="40.584479" lon="0.556809">
        <ele>14.092</ele>
        <time>1970-01-01T01:32:54Z</time>
      </trkpt>
      <trkpt lat="40.584416" lon="0.556772">
        <ele>13.888</ele>
        <time>1970-01-01T01:32:55Z</time>
      </trkpt>
      <trkpt lat="40.584351" lon="0.556738">
        <ele>13.242</ele>
        <time>1970-01-01T01:32:56Z</time>
      </trkpt>
      <trkpt lat="40.584286" lon="0.556705">
        <ele>12.853</ele>
        <time>1970-01-01T01:32:57Z</time>
      </trkpt>
      <trkpt lat="40.584220" lon="0.556673">
        <ele>12.469</ele>
        <time>1970-01-01T01:32:58Z</time>
      </trkpt>
      <trkpt lat="40.584153" lon="0.556642">
        <ele>12.004</ele>
        <time>1970-01-01T01:32:59Z</time>
      </trkpt>
      <trkpt lat="40.584087" lon="0.556606">
        <ele>11.924</ele>
        <time>1970-01-01T01:33:00Z</time>
      </trkpt>
      <trkpt lat="40.584022" lon="0.556566">
        <ele>11.808</ele>
        <time>1970-01-01T01:33:01Z</time>
      </trkpt>
      <trkpt lat="40.583957" lon="0.556526">
        <ele>11.873</ele>
        <time>1970-01-01T01:33:02Z</time>
      </trkpt>
      <trkpt lat="40.583890" lon="0.556488">
        <ele>11.620</ele>
        <time>1970-01-01T01:33:03Z</time>
      </trkpt>
      <trkpt lat="40.583822" lon="0.556449">
        <ele>11.491</ele>
        <time>1970-01-01T01:33:04Z</time>
      </trkpt>
      <trkpt lat="40.583753" lon="0.556409">
        <ele>11.034</ele>
        <time>1970-01-01T01:33:05Z</time>
      </trkpt>
      <trkpt lat="40.583683" lon="0.556369">
        <ele>10.544</ele>
        <time>1970-01-01T01:33:06Z</time>
      </trkpt>
      <trkpt lat="40.583612" lon="0.556327">
        <ele>10.010</ele>
        <time>1970-01-01T01:33:07Z</time>
      </trkpt>
      <trkpt lat="40.583541" lon="0.556282">
        <ele>9.734</ele>
        <time>1970-01-01T01:33:08Z</time>
      </trkpt>
      <trkpt lat="40.583469" lon="0.556237">
        <ele>9.535</ele>
        <time>1970-01-01T01:33:09Z</time>
      </trkpt>
      <trkpt lat="40.583395" lon="0.556193">
        <ele>9.246</ele>
        <time>1970-01-01T01:33:10Z</time>
      </trkpt>
      <trkpt lat="40.583320" lon="0.556151">
        <ele>9.088</ele>
        <time>1970-01-01T01:33:11Z</time>
      </trkpt>
      <trkpt lat="40.583245" lon="0.556108">
        <ele>9.016</ele>
        <time>1970-01-01T01:33:12Z</time>
      </trkpt>
      <trkpt lat="40.583171" lon="0.556064">
        <ele>9.208</ele>
        <time>1970-01-01T01:33:13Z</time>
      </trkpt>
      <trkpt lat="40.583099" lon="0.556019">
        <ele>9.351</ele>
        <time>1970-01-01T01:33:14Z</time>
      </trkpt>
      <trkpt lat="40.583027" lon="0.555974">
        <ele>9.418</ele>
        <time>1970-01-01T01:33:15Z</time>
      </trkpt>
      <trkpt lat="40.582956" lon="0.555930">
        <ele>9.389</ele>
        <time>1970-01-01T01:33:16Z</time>
      </trkpt>
      <trkpt lat="40.582884" lon="0.555889">
        <ele>9.212</ele>
        <time>1970-01-01T01:33:17Z</time>
      </trkpt>
      <trkpt lat="40.582813" lon="0.555849">
        <ele>9.132</ele>
        <time>1970-01-01T01:33:18Z</time>
      </trkpt>
      <trkpt lat="40.582741" lon="0.555808">
        <ele>8.718</ele>
        <time>1970-01-01T01:33:19Z</time>
      </trkpt>
      <trkpt lat="40.582671" lon="0.555765">
        <ele>8.232</ele>
        <time>1970-01-01T01:33:20Z</time>
      </trkpt>
      <trkpt lat="40.582601" lon="0.555723">
        <ele>7.793</ele>
        <time>1970-01-01T01:33:21Z</time>
      </trkpt>
      <trkpt lat="40.582530" lon="0.555682">
        <ele>7.238</ele>
        <time>1970-01-01T01:33:22Z</time>
      </trkpt>
      <trkpt lat="40.582458" lon="0.555644">
        <ele>6.870</ele>
        <time>1970-01-01T01:33:23Z</time>
      </trkpt>
      <trkpt lat="40.582387" lon="0.555604">
        <ele>6.617</ele>
        <time>1970-01-01T01:33:24Z</time>
      </trkpt>
      <trkpt lat="40.582316" lon="0.555563">
        <ele>6.308</ele>
        <time>1970-01-01T01:33:25Z</time>
      </trkpt>
      <trkpt lat="40.582244" lon="0.555522">
        <ele>6.270</ele>
        <time>1970-01-01T01:33:26Z</time>
      </trkpt>
      <trkpt lat="40.582172" lon="0.555484">
        <ele>5.917</ele>
        <time>1970-01-01T01:33:27Z</time>
      </trkpt>
      <trkpt lat="40.582100" lon="0.555444">
        <ele>5.748</ele>
        <time>1970-01-01T01:33:28Z</time>
      </trkpt>
      <trkpt lat="40.582028" lon="0.555400">
        <ele>5.611</ele>
        <time>1970-01-01T01:33:29Z</time>
      </trkpt>
      <trkpt lat="40.581957" lon="0.555355">
        <ele>5.561</ele>
        <time>1970-01-01T01:33:30Z</time>
      </trkpt>
      <trkpt lat="40.581885" lon="0.555312">
        <ele>5.167</ele>
        <time>1970-01-01T01:33:31Z</time>
      </trkpt>
      <trkpt lat="40.581814" lon="0.555270">
        <ele>4.651</ele>
        <time>1970-01-01T01:33:32Z</time>
      </trkpt>
      <trkpt lat="40.581743" lon="0.555230">
        <ele>4.042</ele>
        <time>1970-01-01T01:33:33Z</time>
      </trkpt>
      <trkpt lat="40.581672" lon="0.555191">
        <ele>3.444</ele>
        <time>1970-01-01T01:33:34Z</time>
      </trkpt>
      <trkpt lat="40.581602" lon="0.555150">
        <ele>3.105</ele>
        <time>1970-01-01T01:33:35Z</time>
      </trkpt>
      <trkpt lat="40.581534" lon="0.555107">
        <ele>3.015</ele>
        <time>1970-01-01T01:33:36Z</time>
      </trkpt>
      <trkpt lat="40.581467" lon="0.555064">
        <ele>2.908</ele>
        <time>1970-01-01T01:33:37Z</time>
      </trkpt>
      <trkpt lat="40.581398" lon="0.555023">
        <ele>2.991</ele>
        <time>1970-01-01T01:33:38Z</time>
      </trkpt>
      <trkpt lat="40.581331" lon="0.554983">
        <ele>2.958</ele>
        <time>1970-01-01T01:33:39Z</time>
      </trkpt>
      <trkpt lat="40.581266" lon="0.554941">
        <ele>3.029</ele>
        <time>1970-01-01T01:33:40Z</time>
      </trkpt>
      <trkpt lat="40.581202" lon="0.554896">
        <ele>3.162</ele>
        <time>1970-01-01T01:33:41Z</time>
      </trkpt>
      <trkpt lat="40.581142" lon="0.554847">
        <ele>3.292</ele>
        <time>1970-01-01T01:33:42Z</time>
      </trkpt>
      <trkpt lat="40.581084" lon="0.554795">
        <ele>3.348</ele>
        <time>1970-01-01T01:33:43Z</time>
      </trkpt>
      <trkpt lat="40.581027" lon="0.554742">
        <ele>3.332</ele>
        <time>1970-01-01T01:33:44Z</time>
      </trkpt>
      <trkpt lat="40.580971" lon="0.554687">
        <ele>3.253</ele>
        <time>1970-01-01T01:33:45Z</time>
      </trkpt>
      <trkpt lat="40.580918" lon="0.554631">
        <ele>3.225</ele>
        <time>1970-01-01T01:33:46Z</time>
      </trkpt>
      <trkpt lat="40.580866" lon="0.554574">
        <ele>3.226</ele>
        <time>1970-01-01T01:33:47Z</time>
      </trkpt>
      <trkpt lat="40.580816" lon="0.554516">
        <ele>3.308</ele>
        <time>1970-01-01T01:33:48Z</time>
      </trkpt>
      <trkpt lat="40.580769" lon="0.554458">
        <ele>3.208</ele>
        <time>1970-01-01T01:33:49Z</time>
      </trkpt>
      <trkpt lat="40.580725" lon="0.554398">
        <ele>3.129</ele>
        <time>1970-01-01T01:33:50Z</time>
      </trkpt>
      <trkpt lat="40.580683" lon="0.554341">
        <ele>3.226</ele>
        <time>1970-01-01T01:33:51Z</time>
      </trkpt>
      <trkpt lat="40.580642" lon="0.554284">
        <ele>3.547</ele>
        <time>1970-01-01T01:33:52Z</time>
      </trkpt>
      <trkpt lat="40.580603" lon="0.554228">
        <ele>4.130</ele>
        <time>1970-01-01T01:33:53Z</time>
      </trkpt>
      <trkpt lat="40.580563" lon="0.554174">
        <ele>4.920</ele>
        <time>1970-01-01T01:33:54Z</time>
      </trkpt>
      <trkpt lat="40.580522" lon="0.554124">
        <ele>5.266</ele>
        <time>1970-01-01T01:33:55Z</time>
      </trkpt>
      <trkpt lat="40.580483" lon="0.554073">
        <ele>5.490</ele>
        <time>1970-01-01T01:33:56Z</time>
      </trkpt>
      <trkpt lat="40.580444" lon="0.554022">
        <ele>5.531</ele>
        <time>1970-01-01T01:33:57Z</time>
      </trkpt>
      <trkpt lat="40.580407" lon="0.553968">
        <ele>5.726</ele>
        <time>1970-01-01T01:33:58Z</time>
      </trkpt>
      <trkpt lat="40.580369" lon="0.553913">
        <ele>5.847</ele>
        <time>1970-01-01T01:33:59Z</time>
      </trkpt>
      <trkpt lat="40.580332" lon="0.553860">
        <ele>5.811</ele>
        <time>1970-01-01T01:34:00Z</time>
      </trkpt>
      <trkpt lat="40.580293" lon="0.553808">
        <ele>5.708</ele>
        <time>1970-01-01T01:34:01Z</time>
      </trkpt>
      <trkpt lat="40.580252" lon="0.553757">
        <ele>5.819</ele>
        <time>1970-01-01T01:34:02Z</time>
      </trkpt>
      <trkpt lat="40.580214" lon="0.553703">
        <ele>5.996</ele>
        <time>1970-01-01T01:34:03Z</time>
      </trkpt>
      <trkpt lat="40.580175" lon="0.553648">
        <ele>6.097</ele>
        <time>1970-01-01T01:34:04Z</time>
      </trkpt>
      <trkpt lat="40.580136" lon="0.553591">
        <ele>6.120</ele>
        <time>1970-01-01T01:34:05Z</time>
      </trkpt>
      <trkpt lat="40.580096" lon="0.553534">
        <ele>6.240</ele>
        <time>1970-01-01T01:34:06Z</time>
      </trkpt>
      <trkpt lat="40.580055" lon="0.553479">
        <ele>6.356</ele>
        <time>1970-01-01T01:34:07Z</time>
      </trkpt>
      <trkpt lat="40.580013" lon="0.553424">
        <ele>6.420</ele>
        <time>1970-01-01T01:34:08Z</time>
      </trkpt>
      <trkpt lat="40.579972" lon="0.553370">
        <ele>6.611</ele>
        <time>1970-01-01T01:34:09Z</time>
      </trkpt>
      <trkpt lat="40.579931" lon="0.553315">
        <ele>6.829</ele>
        <time>1970-01-01T01:34:10Z</time>
      </trkpt>
      <trkpt lat="40.579891" lon="0.553260">
        <ele>6.900</ele>
        <time>1970-01-01T01:34:11Z</time>
      </trkpt>
      <trkpt lat="40.579850" lon="0.553208">
        <ele>6.920</ele>
        <time>1970-01-01T01:34:12Z</time>
      </trkpt>
      <trkpt lat="40.579809" lon="0.553156">
        <ele>7.008</ele>
        <time>1970-01-01T01:34:13Z</time>
      </trkpt>
      <trkpt lat="40.579770" lon="0.553104">
        <ele>7.059</ele>
        <time>1970-01-01T01:34:14Z</time>
      </trkpt>
      <trkpt lat="40.579731" lon="0.553052">
        <ele>7.066</ele>
        <time>1970-01-01T01:34:15Z</time>
      </trkpt>
      <trkpt lat="40.579692" lon="0.553001">
        <ele>7.297</ele>
        <time>1970-01-01T01:34:16Z</time>
      </trkpt>
      <trkpt lat="40.579653" lon="0.552949">
        <ele>7.470</ele>
        <time>1970-01-01T01:34:17Z</time>
      </trkpt>
      <trkpt lat="40.579615" lon="0.552896">
        <ele>7.670</ele>
        <time>1970-01-01T01:34:18Z</time>
      </trkpt>
      <trkpt lat="40.579577" lon="0.552845">
        <ele>7.836</ele>
        <time>1970-01-01T01:34:19Z</time>
      </trkpt>
      <trkpt lat="40.579538" lon="0.552796">
        <ele>7.950</ele>
        <time>1970-01-01T01:34:20Z</time>
      </trkpt>
      <trkpt lat="40.579498" lon="0.552750">
        <ele>8.141</ele>
        <time>1970-01-01T01:34:21Z</time>
      </trkpt>
      <trkpt lat="40.579458" lon="0.552705">
        <ele>8.388</ele>
        <time>1970-01-01T01:34:22Z</time>
      </trkpt>
      <trkpt lat="40.579419" lon="0.552659">
        <ele>8.424</ele>
        <time>1970-01-01T01:34:23Z</time>
      </trkpt>
      <trkpt lat="40.579383" lon="0.552611">
        <ele>8.626</ele>
        <time>1970-01-01T01:34:24Z</time>
      </trkpt>
      <trkpt lat="40.579348" lon="0.552563">
        <ele>8.808</ele>
        <time>1970-01-01T01:34:25Z</time>
      </trkpt>
      <trkpt lat="40.579312" lon="0.552519">
        <ele>8.945</ele>
        <time>1970-01-01T01:34:26Z</time>
      </trkpt>
      <trkpt lat="40.579276" lon="0.552477">
        <ele>9.062</ele>
        <time>1970-01-01T01:34:27Z</time>
      </trkpt>
      <trkpt lat="40.579241" lon="0.552433">
        <ele>8.953</ele>
        <time>1970-01-01T01:34:28Z</time>
      </trkpt>
      <trkpt lat="40.579206" lon="0.552390">
        <ele>8.736</ele>
        <time>1970-01-01T01:34:29Z</time>
      </trkpt>
      <trkpt lat="40.579170" lon="0.552347">
        <ele>8.536</ele>
        <time>1970-01-01T01:34:30Z</time>
      </trkpt>
      <trkpt lat="40.579133" lon="0.552305">
        <ele>8.462</ele>
        <time>1970-01-01T01:34:31Z</time>
      </trkpt>
      <trkpt lat="40.579097" lon="0.552263">
        <ele>8.416</ele>
        <time>1970-01-01T01:34:32Z</time>
      </trkpt>
      <trkpt lat="40.579061" lon="0.552220">
        <ele>8.487</ele>
        <time>1970-01-01T01:34:33Z</time>
      </trkpt>
      <trkpt lat="40.579025" lon="0.552177">
        <ele>8.669</ele>
        <time>1970-01-01T01:34:34Z</time>
      </trkpt>
      <trkpt lat="40.578987" lon="0.552135">
        <ele>8.804</ele>
        <time>1970-01-01T01:34:35Z</time>
      </trkpt>
      <trkpt lat="40.578951" lon="0.552093">
        <ele>8.924</ele>
        <time>1970-01-01T01:34:36Z</time>
      </trkpt>
      <trkpt lat="40.578915" lon="0.552052">
        <ele>9.008</ele>
        <time>1970-01-01T01:34:37Z</time>
      </trkpt>
      <trkpt lat="40.578877" lon="0.552009">
        <ele>9.133</ele>
        <time>1970-01-01T01:34:38Z</time>
      </trkpt>
      <trkpt lat="40.578842" lon="0.551965">
        <ele>9.690</ele>
        <time>1970-01-01T01:34:39Z</time>
      </trkpt>
      <trkpt lat="40.578807" lon="0.551918">
        <ele>10.371</ele>
        <time>1970-01-01T01:34:40Z</time>
      </trkpt>
      <trkpt lat="40.578774" lon="0.551869">
        <ele>10.974</ele>
        <time>1970-01-01T01:34:41Z</time>
      </trkpt>
      <trkpt lat="40.578741" lon="0.551819">
        <ele>11.324</ele>
        <time>1970-01-01T01:34:42Z</time>
      </trkpt>
      <trkpt lat="40.578708" lon="0.551769">
        <ele>11.650</ele>
        <time>1970-01-01T01:34:43Z</time>
      </trkpt>
      <trkpt lat="40.578676" lon="0.551717">
        <ele>11.854</ele>
        <time>1970-01-01T01:34:44Z</time>
      </trkpt>
      <trkpt lat="40.578644" lon="0.551664">
        <ele>11.935</ele>
        <time>1970-01-01T01:34:45Z</time>
      </trkpt>
      <trkpt lat="40.578612" lon="0.551612">
        <ele>11.837</ele>
        <time>1970-01-01T01:34:46Z</time>
      </trkpt>
      <trkpt lat="40.578579" lon="0.551559">
        <ele>11.649</ele>
        <time>1970-01-01T01:34:47Z</time>
      </trkpt>
      <trkpt lat="40.578547" lon="0.551505">
        <ele>11.313</ele>
        <time>1970-01-01T01:34:48Z</time>
      </trkpt>
      <trkpt lat="40.578515" lon="0.551450">
        <ele>10.908</ele>
        <time>1970-01-01T01:34:49Z</time>
      </trkpt>
      <trkpt lat="40.578484" lon="0.551396">
        <ele>10.640</ele>
        <time>1970-01-01T01:34:50Z</time>
      </trkpt>
      <trkpt lat="40.578453" lon="0.551342">
        <ele>10.517</ele>
        <time>1970-01-01T01:34:51Z</time>
      </trkpt>
      <trkpt lat="40.578421" lon="0.551286">
        <ele>10.498</ele>
        <time>1970-01-01T01:34:52Z</time>
      </trkpt>
      <trkpt lat="40.578388" lon="0.551230">
        <ele>10.351</ele>
        <time>1970-01-01T01:34:53Z</time>
      </trkpt>
      <trkpt lat="40.578354" lon="0.551173">
        <ele>10.191</ele>
        <time>1970-01-01T01:34:54Z</time>
      </trkpt>
      <trkpt lat="40.578320" lon="0.551118">
        <ele>10.017</ele>
        <time>1970-01-01T01:34:55Z</time>
      </trkpt>
      <trkpt lat="40.578286" lon="0.551061">
        <ele>10.221</ele>
        <time>1970-01-01T01:34:56Z</time>
      </trkpt>
      <trkpt lat="40.578252" lon="0.551003">
        <ele>10.412</ele>
        <time>1970-01-01T01:34:57Z</time>
      </trkpt>
      <trkpt lat="40.578218" lon="0.550947">
        <ele>10.528</ele>
        <time>1970-01-01T01:34:58Z</time>
      </trkpt>
      <trkpt lat="40.578183" lon="0.550889">
        <ele>10.689</ele>
        <time>1970-01-01T01:34:59Z</time>
      </trkpt>
      <trkpt lat="40.578150" lon="0.550830">
        <ele>10.717</ele>
        <time>1970-01-01T01:35:00Z</time>
      </trkpt>
      <trkpt lat="40.578118" lon="0.550771">
        <ele>10.608</ele>
        <time>1970-01-01T01:35:01Z</time>
      </trkpt>
      <trkpt lat="40.578086" lon="0.550712">
        <ele>10.629</ele>
        <time>1970-01-01T01:35:02Z</time>
      </trkpt>
      <trkpt lat="40.578052" lon="0.550652">
        <ele>10.646</ele>
        <time>1970-01-01T01:35:03Z</time>
      </trkpt>
      <trkpt lat="40.578019" lon="0.550595">
        <ele>10.577</ele>
        <time>1970-01-01T01:35:04Z</time>
      </trkpt>
      <trkpt lat="40.577984" lon="0.550539">
        <ele>10.390</ele>
        <time>1970-01-01T01:35:05Z</time>
      </trkpt>
      <trkpt lat="40.577948" lon="0.550484">
        <ele>10.260</ele>
        <time>1970-01-01T01:35:06Z</time>
      </trkpt>
      <trkpt lat="40.577911" lon="0.550431">
        <ele>10.166</ele>
        <time>1970-01-01T01:35:07Z</time>
      </trkpt>
      <trkpt lat="40.577879" lon="0.550376">
        <ele>10.290</ele>
        <time>1970-01-01T01:35:08Z</time>
      </trkpt>
      <trkpt lat="40.577847" lon="0.550319">
        <ele>10.291</ele>
        <time>1970-01-01T01:35:09Z</time>
      </trkpt>
      <trkpt lat="40.577816" lon="0.550262">
        <ele>10.393</ele>
        <time>1970-01-01T01:35:10Z</time>
      </trkpt>
      <trkpt lat="40.577785" lon="0.550209">
        <ele>10.365</ele>
        <time>1970-01-01T01:35:11Z</time>
      </trkpt>
      <trkpt lat="40.577754" lon="0.550158">
        <ele>10.321</ele>
        <time>1970-01-01T01:35:12Z</time>
      </trkpt>
      <trkpt lat="40.577726" lon="0.550108">
        <ele>10.408</ele>
        <time>1970-01-01T01:35:13Z</time>
      </trkpt>
      <trkpt lat="40.577702" lon="0.550058">
        <ele>10.516</ele>
        <time>1970-01-01T01:35:14Z</time>
      </trkpt>
      <trkpt lat="40.577683" lon="0.550007">
        <ele>10.653</ele>
        <time>1970-01-01T01:35:15Z</time>
      </trkpt>
      <trkpt lat="40.577666" lon="0.549958">
        <ele>10.814</ele>
        <time>1970-01-01T01:35:16Z</time>
      </trkpt>
      <trkpt lat="40.577650" lon="0.549913">
        <ele>11.047</ele>
        <time>1970-01-01T01:35:17Z</time>
      </trkpt>
      <trkpt lat="40.577634" lon="0.549869">
        <ele>11.257</ele>
        <time>1970-01-01T01:35:18Z</time>
      </trkpt>
      <trkpt lat="40.577617" lon="0.549829">
        <ele>11.443</ele>
        <time>1970-01-01T01:35:19Z</time>
      </trkpt>
      <trkpt lat="40.577600" lon="0.549790">
        <ele>11.617</ele>
        <time>1970-01-01T01:35:20Z</time>
      </trkpt>
      <trkpt lat="40.577581" lon="0.549754">
        <ele>11.878</ele>
        <time>1970-01-01T01:35:21Z</time>
      </trkpt>
      <trkpt lat="40.577559" lon="0.549722">
        <ele>12.042</ele>
        <time>1970-01-01T01:35:22Z</time>
      </trkpt>
      <trkpt lat="40.577535" lon="0.549692">
        <ele>12.122</ele>
        <time>1970-01-01T01:35:23Z</time>
      </trkpt>
      <trkpt lat="40.577512" lon="0.549666">
        <ele>12.214</ele>
        <time>1970-01-01T01:35:24Z</time>
      </trkpt>
      <trkpt lat="40.577490" lon="0.549643">
        <ele>12.308</ele>
        <time>1970-01-01T01:35:25Z</time>
      </trkpt>
      <trkpt lat="40.577472" lon="0.549620">
        <ele>12.351</ele>
        <time>1970-01-01T01:35:26Z</time>
      </trkpt>
      <trkpt lat="40.577458" lon="0.549598">
        <ele>12.428</ele>
        <time>1970-01-01T01:35:27Z</time>
      </trkpt>
      <trkpt lat="40.577447" lon="0.549580">
        <ele>12.419</ele>
        <time>1970-01-01T01:35:28Z</time>
      </trkpt>
      <trkpt lat="40.577439" lon="0.549567">
        <ele>12.592</ele>
        <time>1970-01-01T01:35:29Z</time>
      </trkpt>
      <trkpt lat="40.577434" lon="0.549560">
        <ele>12.562</ele>
        <time>1970-01-01T01:35:30Z</time>
      </trkpt>
      <trkpt lat="40.577434" lon="0.549562">
        <ele>12.538</ele>
        <time>1970-01-01T01:35:31Z</time>
      </trkpt>
      <trkpt lat="40.577380" lon="0.549527">
        <ele>12.632</ele>
        <time>1970-01-01T01:35:36Z</time>
      </trkpt>
      <trkpt lat="40.577365" lon="0.549500">
        <ele>12.733</ele>
        <time>1970-01-01T01:35:37Z</time>
      </trkpt>
      <trkpt lat="40.577351" lon="0.549470">
        <ele>12.985</ele>
        <time>1970-01-01T01:35:38Z</time>
      </trkpt>
      <trkpt lat="40.577337" lon="0.549437">
        <ele>13.089</ele>
        <time>1970-01-01T01:35:39Z</time>
      </trkpt>
      <trkpt lat="40.577322" lon="0.549401">
        <ele>13.217</ele>
        <time>1970-01-01T01:35:40Z</time>
      </trkpt>
      <trkpt lat="40.577304" lon="0.549364">
        <ele>13.308</ele>
        <time>1970-01-01T01:35:41Z</time>
      </trkpt>
      <trkpt lat="40.577288" lon="0.549326">
        <ele>13.415</ele>
        <time>1970-01-01T01:35:42Z</time>
      </trkpt>
      <trkpt lat="40.577274" lon="0.549287">
        <ele>13.682</ele>
        <time>1970-01-01T01:35:43Z</time>
      </trkpt>
      <trkpt lat="40.577262" lon="0.549247">
        <ele>13.733</ele>
        <time>1970-01-01T01:35:44Z</time>
      </trkpt>
      <trkpt lat="40.577252" lon="0.549207">
        <ele>13.976</ele>
        <time>1970-01-01T01:35:45Z</time>
      </trkpt>
      <trkpt lat="40.577242" lon="0.549164">
        <ele>14.066</ele>
        <time>1970-01-01T01:35:46Z</time>
      </trkpt>
      <trkpt lat="40.577233" lon="0.549120">
        <ele>13.822</ele>
        <time>1970-01-01T01:35:47Z</time>
      </trkpt>
      <trkpt lat="40.577226" lon="0.549079">
        <ele>13.736</ele>
        <time>1970-01-01T01:35:48Z</time>
      </trkpt>
      <trkpt lat="40.577219" lon="0.549036">
        <ele>13.587</ele>
        <time>1970-01-01T01:35:49Z</time>
      </trkpt>
      <trkpt lat="40.577212" lon="0.548994">
        <ele>13.458</ele>
        <time>1970-01-01T01:35:50Z</time>
      </trkpt>
      <trkpt lat="40.577207" lon="0.548952">
        <ele>13.252</ele>
        <time>1970-01-01T01:35:51Z</time>
      </trkpt>
      <trkpt lat="40.577205" lon="0.548909">
        <ele>13.117</ele>
        <time>1970-01-01T01:35:52Z</time>
      </trkpt>
      <trkpt lat="40.577202" lon="0.548867">
        <ele>12.908</ele>
        <time>1970-01-01T01:35:53Z</time>
      </trkpt>
      <trkpt lat="40.577200" lon="0.548823">
        <ele>12.842</ele>
        <time>1970-01-01T01:35:54Z</time>
      </trkpt>
      <trkpt lat="40.577201" lon="0.548780">
        <ele>12.659</ele>
        <time>1970-01-01T01:35:55Z</time>
      </trkpt>
      <trkpt lat="40.577206" lon="0.548737">
        <ele>12.520</ele>
        <time>1970-01-01T01:35:56Z</time>
      </trkpt>
      <trkpt lat="40.577213" lon="0.548695">
        <ele>12.323</ele>
        <time>1970-01-01T01:35:57Z</time>
      </trkpt>
      <trkpt lat="40.577220" lon="0.548651">
        <ele>12.193</ele>
        <time>1970-01-01T01:35:58Z</time>
      </trkpt>
      <trkpt lat="40.577226" lon="0.548607">
        <ele>12.099</ele>
        <time>1970-01-01T01:35:59Z</time>
      </trkpt>
      <trkpt lat="40.577232" lon="0.548562">
        <ele>12.023</ele>
        <time>1970-01-01T01:36:00Z</time>
      </trkpt>
      <trkpt lat="40.577240" lon="0.548518">
        <ele>12.024</ele>
        <time>1970-01-01T01:36:01Z</time>
      </trkpt>
      <trkpt lat="40.577246" lon="0.548472">
        <ele>12.017</ele>
        <time>1970-01-01T01:36:02Z</time>
      </trkpt>
      <trkpt lat="40.577251" lon="0.548423">
        <ele>12.087</ele>
        <time>1970-01-01T01:36:03Z</time>
      </trkpt>
      <trkpt lat="40.577257" lon="0.548373">
        <ele>12.015</ele>
        <time>1970-01-01T01:36:04Z</time>
      </trkpt>
      <trkpt lat="40.577263" lon="0.548321">
        <ele>12.008</ele>
        <time>1970-01-01T01:36:05Z</time>
      </trkpt>
      <trkpt lat="40.577267" lon="0.548267">
        <ele>12.228</ele>
        <time>1970-01-01T01:36:06Z</time>
      </trkpt>
      <trkpt lat="40.577270" lon="0.548212">
        <ele>12.465</ele>
        <time>1970-01-01T01:36:07Z</time>
      </trkpt>
      <trkpt lat="40.577272" lon="0.548158">
        <ele>12.626</ele>
        <time>1970-01-01T01:36:08Z</time>
      </trkpt>
      <trkpt lat="40.577271" lon="0.548102">
        <ele>12.849</ele>
        <time>1970-01-01T01:36:09Z</time>
      </trkpt>
      <trkpt lat="40.577267" lon="0.548046">
        <ele>13.029</ele>
        <time>1970-01-01T01:36:10Z</time>
      </trkpt>
      <trkpt lat="40.577258" lon="0.547989">
        <ele>13.035</ele>
        <time>1970-01-01T01:36:11Z</time>
      </trkpt>
      <trkpt lat="40.577246" lon="0.547935">
        <ele>13.089</ele>
        <time>1970-01-01T01:36:12Z</time>
      </trkpt>
      <trkpt lat="40.577225" lon="0.547888">
        <ele>13.020</ele>
        <time>1970-01-01T01:36:13Z</time>
      </trkpt>
      <trkpt lat="40.577199" lon="0.547857">
        <ele>12.994</ele>
        <time>1970-01-01T01:36:14Z</time>
      </trkpt>
      <trkpt lat="40.577173" lon="0.547855">
        <ele>12.957</ele>
        <time>1970-01-01T01:36:15Z</time>
      </trkpt>
      <trkpt lat="40.577154" lon="0.547874">
        <ele>12.822</ele>
        <time>1970-01-01T01:36:16Z</time>
      </trkpt>
      <trkpt lat="40.577131" lon="0.547892">
        <ele>12.808</ele>
        <time>1970-01-01T01:36:17Z</time>
      </trkpt>
      <trkpt lat="40.577104" lon="0.547899">
        <ele>12.896</ele>
        <time>1970-01-01T01:36:18Z</time>
      </trkpt>
      <trkpt lat="40.577071" lon="0.547898">
        <ele>12.753</ele>
        <time>1970-01-01T01:36:19Z</time>
      </trkpt>
      <trkpt lat="40.577032" lon="0.547893">
        <ele>12.674</ele>
        <time>1970-01-01T01:36:20Z</time>
      </trkpt>
      <trkpt lat="40.576989" lon="0.547888">
        <ele>12.577</ele>
        <time>1970-01-01T01:36:21Z</time>
      </trkpt>
      <trkpt lat="40.576941" lon="0.547887">
        <ele>12.467</ele>
        <time>1970-01-01T01:36:22Z</time>
      </trkpt>
      <trkpt lat="40.576891" lon="0.547895">
        <ele>12.343</ele>
        <time>1970-01-01T01:36:23Z</time>
      </trkpt>
      <trkpt lat="40.576839" lon="0.547912">
        <ele>12.177</ele>
        <time>1970-01-01T01:36:24Z</time>
      </trkpt>
      <trkpt lat="40.576786" lon="0.547931">
        <ele>11.938</ele>
        <time>1970-01-01T01:36:25Z</time>
      </trkpt>
      <trkpt lat="40.576730" lon="0.547944">
        <ele>11.738</ele>
        <time>1970-01-01T01:36:26Z</time>
      </trkpt>
      <trkpt lat="40.576670" lon="0.547949">
        <ele>11.470</ele>
        <time>1970-01-01T01:36:27Z</time>
      </trkpt>
      <trkpt lat="40.576606" lon="0.547944">
        <ele>11.117</ele>
        <time>1970-01-01T01:36:28Z</time>
      </trkpt>
      <trkpt lat="40.576540" lon="0.547931">
        <ele>10.808</ele>
        <time>1970-01-01T01:36:29Z</time>
      </trkpt>
      <trkpt lat="40.576469" lon="0.547916">
        <ele>10.480</ele>
        <time>1970-01-01T01:36:30Z</time>
      </trkpt>
      <trkpt lat="40.576396" lon="0.547899">
        <ele>10.027</ele>
        <time>1970-01-01T01:36:31Z</time>
      </trkpt>
      <trkpt lat="40.576319" lon="0.547878">
        <ele>9.798</ele>
        <time>1970-01-01T01:36:32Z</time>
      </trkpt>
      <trkpt lat="40.576241" lon="0.547849">
        <ele>9.321</ele>
        <time>1970-01-01T01:36:33Z</time>
      </trkpt>
      <trkpt lat="40.576161" lon="0.547811">
        <ele>9.181</ele>
        <time>1970-01-01T01:36:34Z</time>
      </trkpt>
      <trkpt lat="40.576080" lon="0.547766">
        <ele>9.047</ele>
        <time>1970-01-01T01:36:35Z</time>
      </trkpt>
      <trkpt lat="40.575998" lon="0.547714">
        <ele>9.291</ele>
        <time>1970-01-01T01:36:36Z</time>
      </trkpt>
      <trkpt lat="40.575918" lon="0.547653">
        <ele>9.422</ele>
        <time>1970-01-01T01:36:37Z</time>
      </trkpt>
      <trkpt lat="40.575839" lon="0.547587">
        <ele>9.754</ele>
        <time>1970-01-01T01:36:38Z</time>
      </trkpt>
      <trkpt lat="40.575762" lon="0.547518">
        <ele>9.756</ele>
        <time>1970-01-01T01:36:39Z</time>
      </trkpt>
      <trkpt lat="40.575686" lon="0.547449">
        <ele>9.611</ele>
        <time>1970-01-01T01:36:40Z</time>
      </trkpt>
      <trkpt lat="40.575611" lon="0.547379">
        <ele>9.308</ele>
        <time>1970-01-01T01:36:41Z</time>
      </trkpt>
      <trkpt lat="40.575538" lon="0.547308">
        <ele>8.982</ele>
        <time>1970-01-01T01:36:42Z</time>
      </trkpt>
      <trkpt lat="40.575466" lon="0.547236">
        <ele>8.379</ele>
        <time>1970-01-01T01:36:43Z</time>
      </trkpt>
      <trkpt lat="40.575395" lon="0.547164">
        <ele>8.010</ele>
        <time>1970-01-01T01:36:44Z</time>
      </trkpt>
      <trkpt lat="40.575325" lon="0.547094">
        <ele>7.713</ele>
        <time>1970-01-01T01:36:45Z</time>
      </trkpt>
      <trkpt lat="40.575254" lon="0.547025">
        <ele>7.553</ele>
        <time>1970-01-01T01:36:46Z</time>
      </trkpt>
      <trkpt lat="40.575184" lon="0.546956">
        <ele>7.339</ele>
        <time>1970-01-01T01:36:47Z</time>
      </trkpt>
      <trkpt lat="40.575114" lon="0.546887">
        <ele>6.873</ele>
        <time>1970-01-01T01:36:48Z</time>
      </trkpt>
      <trkpt lat="40.575043" lon="0.546818">
        <ele>6.054</ele>
        <time>1970-01-01T01:36:49Z</time>
      </trkpt>
      <trkpt lat="40.574972" lon="0.546749">
        <ele>5.114</ele>
        <time>1970-01-01T01:36:50Z</time>
      </trkpt>
      <trkpt lat="40.574903" lon="0.546680">
        <ele>4.454</ele>
        <time>1970-01-01T01:36:51Z</time>
      </trkpt>
      <trkpt lat="40.574835" lon="0.546611">
        <ele>3.109</ele>
        <time>1970-01-01T01:36:52Z</time>
      </trkpt>
      <trkpt lat="40.574766" lon="0.546541">
        <ele>1.608</ele>
        <time>1970-01-01T01:36:53Z</time>
      </trkpt>
      <trkpt lat="40.574698" lon="0.546470">
        <ele>0.428</ele>
        <time>1970-01-01T01:36:54Z</time>
      </trkpt>
      <trkpt lat="40.574629" lon="0.546401">
        <ele>0.295</ele>
        <time>1970-01-01T01:36:55Z</time>
      </trkpt>
      <trkpt lat="40.574559" lon="0.546332">
        <ele>0.576</ele>
        <time>1970-01-01T01:36:56Z</time>
      </trkpt>
      <trkpt lat="40.574489" lon="0.546265">
        <ele>0.239</ele>
        <time>1970-01-01T01:36:57Z</time>
      </trkpt>
      <trkpt lat="40.574419" lon="0.546199">
        <ele>-0.339</ele>
        <time>1970-01-01T01:36:58Z</time>
      </trkpt>
      <trkpt lat="40.574351" lon="0.546133">
        <ele>0.215</ele>
        <time>1970-01-01T01:36:59Z</time>
      </trkpt>
      <trkpt lat="40.574284" lon="0.546066">
        <ele>1.879</ele>
        <time>1970-01-01T01:37:00Z</time>
      </trkpt>
      <trkpt lat="40.574220" lon="0.546000">
        <ele>3.220</ele>
        <time>1970-01-01T01:37:01Z</time>
      </trkpt>
      <trkpt lat="40.574156" lon="0.545935">
        <ele>4.046</ele>
        <time>1970-01-01T01:37:02Z</time>
      </trkpt>
      <trkpt lat="40.574094" lon="0.545873">
        <ele>4.288</ele>
        <time>1970-01-01T01:37:03Z</time>
      </trkpt>
      <trkpt lat="40.574034" lon="0.545812">
        <ele>4.616</ele>
        <time>1970-01-01T01:37:04Z</time>
      </trkpt>
      <trkpt lat="40.573976" lon="0.545754">
        <ele>4.908</ele>
        <time>1970-01-01T01:37:05Z</time>
      </trkpt>
      <trkpt lat="40.573918" lon="0.545697">
        <ele>5.041</ele>
        <time>1970-01-01T01:37:06Z</time>
      </trkpt>
      <trkpt lat="40.573863" lon="0.545642">
        <ele>5.158</ele>
        <time>1970-01-01T01:37:07Z</time>
      </trkpt>
      <trkpt lat="40.573809" lon="0.545589">
        <ele>5.369</ele>
        <time>1970-01-01T01:37:08Z</time>
      </trkpt>
      <trkpt lat="40.573756" lon="0.545536">
        <ele>5.592</ele>
        <time>1970-01-01T01:37:09Z</time>
      </trkpt>
      <trkpt lat="40.573705" lon="0.545483">
        <ele>5.812</ele>
        <time>1970-01-01T01:37:10Z</time>
      </trkpt>
      <trkpt lat="40.573654" lon="0.545429">
        <ele>5.948</ele>
        <time>1970-01-01T01:37:11Z</time>
      </trkpt>
      <trkpt lat="40.573603" lon="0.545376">
        <ele>6.052</ele>
        <time>1970-01-01T01:37:12Z</time>
      </trkpt>
      <trkpt lat="40.573552" lon="0.545323">
        <ele>6.233</ele>
        <time>1970-01-01T01:37:13Z</time>
      </trkpt>
      <trkpt lat="40.573500" lon="0.545270">
        <ele>6.415</ele>
        <time>1970-01-01T01:37:14Z</time>
      </trkpt>
      <trkpt lat="40.573449" lon="0.545215">
        <ele>6.865</ele>
        <time>1970-01-01T01:37:15Z</time>
      </trkpt>
      <trkpt lat="40.573398" lon="0.545160">
        <ele>7.211</ele>
        <time>1970-01-01T01:37:16Z</time>
      </trkpt>
      <trkpt lat="40.573346" lon="0.545105">
        <ele>7.608</ele>
        <time>1970-01-01T01:37:17Z</time>
      </trkpt>
      <trkpt lat="40.573294" lon="0.545051">
        <ele>7.818</ele>
        <time>1970-01-01T01:37:18Z</time>
      </trkpt>
      <trkpt lat="40.573241" lon="0.544997">
        <ele>8.095</ele>
        <time>1970-01-01T01:37:19Z</time>
      </trkpt>
      <trkpt lat="40.573190" lon="0.544942">
        <ele>8.226</ele>
        <time>1970-01-01T01:37:20Z</time>
      </trkpt>
      <trkpt lat="40.573138" lon="0.544885">
        <ele>8.459</ele>
        <time>1970-01-01T01:37:21Z</time>
      </trkpt>
      <trkpt lat="40.573088" lon="0.544827">
        <ele>8.669</ele>
        <time>1970-01-01T01:37:22Z</time>
      </trkpt>
      <trkpt lat="40.573036" lon="0.544769">
        <ele>8.795</ele>
        <time>1970-01-01T01:37:23Z</time>
      </trkpt>
      <trkpt lat="40.572983" lon="0.544713">
        <ele>8.559</ele>
        <time>1970-01-01T01:37:24Z</time>
      </trkpt>
      <trkpt lat="40.572930" lon="0.544656">
        <ele>8.370</ele>
        <time>1970-01-01T01:37:25Z</time>
      </trkpt>
      <trkpt lat="40.572877" lon="0.544601">
        <ele>8.269</ele>
        <time>1970-01-01T01:37:26Z</time>
      </trkpt>
      <trkpt lat="40.572824" lon="0.544546">
        <ele>8.004</ele>
        <time>1970-01-01T01:37:27Z</time>
      </trkpt>
      <trkpt lat="40.572771" lon="0.544491">
        <ele>7.824</ele>
        <time>1970-01-01T01:37:28Z</time>
      </trkpt>
      <trkpt lat="40.572718" lon="0.544434">
        <ele>7.808</ele>
        <time>1970-01-01T01:37:29Z</time>
      </trkpt>
      <trkpt lat="40.572666" lon="0.544378">
        <ele>7.873</ele>
        <time>1970-01-01T01:37:30Z</time>
      </trkpt>
      <trkpt lat="40.572615" lon="0.544319">
        <ele>7.980</ele>
        <time>1970-01-01T01:37:31Z</time>
      </trkpt>
      <trkpt lat="40.572565" lon="0.544259">
        <ele>7.961</ele>
        <time>1970-01-01T01:37:32Z</time>
      </trkpt>
      <trkpt lat="40.572516" lon="0.544197">
        <ele>7.984</ele>
        <time>1970-01-01T01:37:33Z</time>
      </trkpt>
      <trkpt lat="40.572467" lon="0.544136">
        <ele>7.854</ele>
        <time>1970-01-01T01:37:34Z</time>
      </trkpt>
      <trkpt lat="40.572419" lon="0.544072">
        <ele>7.660</ele>
        <time>1970-01-01T01:37:35Z</time>
      </trkpt>
      <trkpt lat="40.572371" lon="0.544007">
        <ele>7.484</ele>
        <time>1970-01-01T01:37:36Z</time>
      </trkpt>
      <trkpt lat="40.572324" lon="0.543942">
        <ele>7.435</ele>
        <time>1970-01-01T01:37:37Z</time>
      </trkpt>
      <trkpt lat="40.572278" lon="0.543876">
        <ele>7.565</ele>
        <time>1970-01-01T01:37:38Z</time>
      </trkpt>
      <trkpt lat="40.572231" lon="0.543809">
        <ele>7.668</ele>
        <time>1970-01-01T01:37:39Z</time>
      </trkpt>
      <trkpt lat="40.572186" lon="0.543741">
        <ele>7.514</ele>
        <time>1970-01-01T01:37:40Z</time>
      </trkpt>
      <trkpt lat="40.572141" lon="0.543672">
        <ele>7.308</ele>
        <time>1970-01-01T01:37:41Z</time>
      </trkpt>
      <trkpt lat="40.572096" lon="0.543604">
        <ele>7.223</ele>
        <time>1970-01-01T01:37:42Z</time>
      </trkpt>
      <trkpt lat="40.572048" lon="0.543536">
        <ele>6.810</ele>
        <time>1970-01-01T01:37:43Z</time>
      </trkpt>
      <trkpt lat="40.572002" lon="0.543468">
        <ele>6.661</ele>
        <time>1970-01-01T01:37:44Z</time>
      </trkpt>
      <trkpt lat="40.571959" lon="0.543400">
        <ele>6.764</ele>
        <time>1970-01-01T01:37:45Z</time>
      </trkpt>
      <trkpt lat="40.571915" lon="0.543331">
        <ele>6.954</ele>
        <time>1970-01-01T01:37:46Z</time>
      </trkpt>
      <trkpt lat="40.571869" lon="0.543263">
        <ele>6.880</ele>
        <time>1970-01-01T01:37:47Z</time>
      </trkpt>
      <trkpt lat="40.571822" lon="0.543195">
        <ele>6.854</ele>
        <time>1970-01-01T01:37:48Z</time>
      </trkpt>
      <trkpt lat="40.571775" lon="0.543129">
        <ele>6.885</ele>
        <time>1970-01-01T01:37:49Z</time>
      </trkpt>
      <trkpt lat="40.571728" lon="0.543060">
        <ele>7.057</ele>
        <time>1970-01-01T01:37:50Z</time>
      </trkpt>
      <trkpt lat="40.571683" lon="0.542989">
        <ele>7.000</ele>
        <time>1970-01-01T01:37:51Z</time>
      </trkpt>
      <trkpt lat="40.571639" lon="0.542920">
        <ele>7.120</ele>
        <time>1970-01-01T01:37:52Z</time>
      </trkpt>
      <trkpt lat="40.571593" lon="0.542852">
        <ele>7.108</ele>
        <time>1970-01-01T01:37:53Z</time>
      </trkpt>
      <trkpt lat="40.571548" lon="0.542784">
        <ele>7.092</ele>
        <time>1970-01-01T01:37:54Z</time>
      </trkpt>
      <trkpt lat="40.571502" lon="0.542715">
        <ele>7.149</ele>
        <time>1970-01-01T01:37:55Z</time>
      </trkpt>
      <trkpt lat="40.571453" lon="0.542647">
        <ele>7.490</ele>
        <time>1970-01-01T01:37:56Z</time>
      </trkpt>
      <trkpt lat="40.571404" lon="0.542577">
        <ele>7.723</ele>
        <time>1970-01-01T01:37:57Z</time>
      </trkpt>
      <trkpt lat="40.571358" lon="0.542507">
        <ele>7.963</ele>
        <time>1970-01-01T01:37:58Z</time>
      </trkpt>
      <trkpt lat="40.571311" lon="0.542438">
        <ele>7.789</ele>
        <time>1970-01-01T01:37:59Z</time>
      </trkpt>
      <trkpt lat="40.571266" lon="0.542367">
        <ele>7.673</ele>
        <time>1970-01-01T01:38:00Z</time>
      </trkpt>
      <trkpt lat="40.571220" lon="0.542296">
        <ele>7.464</ele>
        <time>1970-01-01T01:38:01Z</time>
      </trkpt>
      <trkpt lat="40.571175" lon="0.542226">
        <ele>7.288</ele>
        <time>1970-01-01T01:38:02Z</time>
      </trkpt>
      <trkpt lat="40.571128" lon="0.542157">
        <ele>7.024</ele>
        <time>1970-01-01T01:38:03Z</time>
      </trkpt>
      <trkpt lat="40.571080" lon="0.542087">
        <ele>7.326</ele>
        <time>1970-01-01T01:38:04Z</time>
      </trkpt>
      <trkpt lat="40.571031" lon="0.542019">
        <ele>7.908</ele>
        <time>1970-01-01T01:38:05Z</time>
      </trkpt>
      <trkpt lat="40.570982" lon="0.541948">
        <ele>8.835</ele>
        <time>1970-01-01T01:38:06Z</time>
      </trkpt>
      <trkpt lat="40.570932" lon="0.541877">
        <ele>9.312</ele>
        <time>1970-01-01T01:38:07Z</time>
      </trkpt>
      <trkpt lat="40.570884" lon="0.541806">
        <ele>9.553</ele>
        <time>1970-01-01T01:38:08Z</time>
      </trkpt>
      <trkpt lat="40.570838" lon="0.541735">
        <ele>9.486</ele>
        <time>1970-01-01T01:38:09Z</time>
      </trkpt>
      <trkpt lat="40.570789" lon="0.541665">
        <ele>8.736</ele>
        <time>1970-01-01T01:38:10Z</time>
      </trkpt>
      <trkpt lat="40.570742" lon="0.541596">
        <ele>8.152</ele>
        <time>1970-01-01T01:38:11Z</time>
      </trkpt>
      <trkpt lat="40.570694" lon="0.541528">
        <ele>7.526</ele>
        <time>1970-01-01T01:38:12Z</time>
      </trkpt>
      <trkpt lat="40.570647" lon="0.541460">
        <ele>6.947</ele>
        <time>1970-01-01T01:38:13Z</time>
      </trkpt>
      <trkpt lat="40.570601" lon="0.541392">
        <ele>6.374</ele>
        <time>1970-01-01T01:38:14Z</time>
      </trkpt>
      <trkpt lat="40.570557" lon="0.541325">
        <ele>5.856</ele>
        <time>1970-01-01T01:38:15Z</time>
      </trkpt>
      <trkpt lat="40.570512" lon="0.541258">
        <ele>5.121</ele>
        <time>1970-01-01T01:38:16Z</time>
      </trkpt>
      <trkpt lat="40.570467" lon="0.541191">
        <ele>4.408</ele>
        <time>1970-01-01T01:38:17Z</time>
      </trkpt>
      <trkpt lat="40.570422" lon="0.541125">
        <ele>3.684</ele>
        <time>1970-01-01T01:38:18Z</time>
      </trkpt>
      <trkpt lat="40.570377" lon="0.541058">
        <ele>3.221</ele>
        <time>1970-01-01T01:38:19Z</time>
      </trkpt>
      <trkpt lat="40.570330" lon="0.540992">
        <ele>2.992</ele>
        <time>1970-01-01T01:38:20Z</time>
      </trkpt>
      <trkpt lat="40.570283" lon="0.540925">
        <ele>2.785</ele>
        <time>1970-01-01T01:38:21Z</time>
      </trkpt>
      <trkpt lat="40.570237" lon="0.540857">
        <ele>2.985</ele>
        <time>1970-01-01T01:38:22Z</time>
      </trkpt>
      <trkpt lat="40.570192" lon="0.540788">
        <ele>3.351</ele>
        <time>1970-01-01T01:38:23Z</time>
      </trkpt>
      <trkpt lat="40.570146" lon="0.540720">
        <ele>3.685</ele>
        <time>1970-01-01T01:38:24Z</time>
      </trkpt>
      <trkpt lat="40.570101" lon="0.540652">
        <ele>3.916</ele>
        <time>1970-01-01T01:38:25Z</time>
      </trkpt>
      <trkpt lat="40.570055" lon="0.540585">
        <ele>4.173</ele>
        <time>1970-01-01T01:38:26Z</time>
      </trkpt>
      <trkpt lat="40.570012" lon="0.540516">
        <ele>4.385</ele>
        <time>1970-01-01T01:38:27Z</time>
      </trkpt>
      <trkpt lat="40.569967" lon="0.540447">
        <ele>4.813</ele>
        <time>1970-01-01T01:38:28Z</time>
      </trkpt>
      <trkpt lat="40.569923" lon="0.540379">
        <ele>5.008</ele>
        <time>1970-01-01T01:38:29Z</time>
      </trkpt>
      <trkpt lat="40.569879" lon="0.540312">
        <ele>5.054</ele>
        <time>1970-01-01T01:38:30Z</time>
      </trkpt>
      <trkpt lat="40.569835" lon="0.540246">
        <ele>4.911</ele>
        <time>1970-01-01T01:38:31Z</time>
      </trkpt>
      <trkpt lat="40.569790" lon="0.540180">
        <ele>4.862</ele>
        <time>1970-01-01T01:38:32Z</time>
      </trkpt>
      <trkpt lat="40.569747" lon="0.540113">
        <ele>4.885</ele>
        <time>1970-01-01T01:38:33Z</time>
      </trkpt>
      <trkpt lat="40.569703" lon="0.540048">
        <ele>4.635</ele>
        <time>1970-01-01T01:38:34Z</time>
      </trkpt>
      <trkpt lat="40.569660" lon="0.539981">
        <ele>4.131</ele>
        <time>1970-01-01T01:38:35Z</time>
      </trkpt>
      <trkpt lat="40.569617" lon="0.539914">
        <ele>3.565</ele>
        <time>1970-01-01T01:38:36Z</time>
      </trkpt>
      <trkpt lat="40.569574" lon="0.539848">
        <ele>2.916</ele>
        <time>1970-01-01T01:38:37Z</time>
      </trkpt>
      <trkpt lat="40.569532" lon="0.539781">
        <ele>2.362</ele>
        <time>1970-01-01T01:38:38Z</time>
      </trkpt>
      <trkpt lat="40.569491" lon="0.539714">
        <ele>1.783</ele>
        <time>1970-01-01T01:38:39Z</time>
      </trkpt>
      <trkpt lat="40.569449" lon="0.539647">
        <ele>1.111</ele>
        <time>1970-01-01T01:38:40Z</time>
      </trkpt>
      <trkpt lat="40.569409" lon="0.539578">
        <ele>0.908</ele>
        <time>1970-01-01T01:38:41Z</time>
      </trkpt>
      <trkpt lat="40.569369" lon="0.539510">
        <ele>0.743</ele>
        <time>1970-01-01T01:38:42Z</time>
      </trkpt>
      <trkpt lat="40.569329" lon="0.539443">
        <ele>0.680</ele>
        <time>1970-01-01T01:38:43Z</time>
      </trkpt>
      <trkpt lat="40.569286" lon="0.539376">
        <ele>0.881</ele>
        <time>1970-01-01T01:38:44Z</time>
      </trkpt>
      <trkpt lat="40.569243" lon="0.539313">
        <ele>0.994</ele>
        <time>1970-01-01T01:38:45Z</time>
      </trkpt>
      <trkpt lat="40.569201" lon="0.539248">
        <ele>0.954</ele>
        <time>1970-01-01T01:38:46Z</time>
      </trkpt>
      <trkpt lat="40.569162" lon="0.539182">
        <ele>0.960</ele>
        <time>1970-01-01T01:38:47Z</time>
      </trkpt>
      <trkpt lat="40.569123" lon="0.539114">
        <ele>1.064</ele>
        <time>1970-01-01T01:38:48Z</time>
      </trkpt>
      <trkpt lat="40.569082" lon="0.539048">
        <ele>1.195</ele>
        <time>1970-01-01T01:38:49Z</time>
      </trkpt>
      <trkpt lat="40.569042" lon="0.538982">
        <ele>1.281</ele>
        <time>1970-01-01T01:38:50Z</time>
      </trkpt>
      <trkpt lat="40.569002" lon="0.538917">
        <ele>1.361</ele>
        <time>1970-01-01T01:38:51Z</time>
      </trkpt>
      <trkpt lat="40.568962" lon="0.538852">
        <ele>1.417</ele>
        <time>1970-01-01T01:38:52Z</time>
      </trkpt>
      <trkpt lat="40.568923" lon="0.538787">
        <ele>1.508</ele>
        <time>1970-01-01T01:38:53Z</time>
      </trkpt>
      <trkpt lat="40.568882" lon="0.538719">
        <ele>1.615</ele>
        <time>1970-01-01T01:38:54Z</time>
      </trkpt>
      <trkpt lat="40.568842" lon="0.538653">
        <ele>2.052</ele>
        <time>1970-01-01T01:38:55Z</time>
      </trkpt>
      <trkpt lat="40.568803" lon="0.538588">
        <ele>2.583</ele>
        <time>1970-01-01T01:38:56Z</time>
      </trkpt>
      <trkpt lat="40.568762" lon="0.538525">
        <ele>2.936</ele>
        <time>1970-01-01T01:38:57Z</time>
      </trkpt>
      <trkpt lat="40.568721" lon="0.538461">
        <ele>3.486</ele>
        <time>1970-01-01T01:38:58Z</time>
      </trkpt>
      <trkpt lat="40.568683" lon="0.538396">
        <ele>3.742</ele>
        <time>1970-01-01T01:38:59Z</time>
      </trkpt>
      <trkpt lat="40.568643" lon="0.538333">
        <ele>4.036</ele>
        <time>1970-01-01T01:39:00Z</time>
      </trkpt>
      <trkpt lat="40.568605" lon="0.538269">
        <ele>4.077</ele>
        <time>1970-01-01T01:39:01Z</time>
      </trkpt>
      <trkpt lat="40.568567" lon="0.538205">
        <ele>4.054</ele>
        <time>1970-01-01T01:39:02Z</time>
      </trkpt>
      <trkpt lat="40.568530" lon="0.538140">
        <ele>4.056</ele>
        <time>1970-01-01T01:39:03Z</time>
      </trkpt>
      <trkpt lat="40.568492" lon="0.538078">
        <ele>4.011</ele>
        <time>1970-01-01T01:39:04Z</time>
      </trkpt>
      <trkpt lat="40.568453" lon="0.538020">
        <ele>4.108</ele>
        <time>1970-01-01T01:39:05Z</time>
      </trkpt>
      <trkpt lat="40.568413" lon="0.537961">
        <ele>4.312</ele>
        <time>1970-01-01T01:39:06Z</time>
      </trkpt>
      <trkpt lat="40.568375" lon="0.537903">
        <ele>4.519</ele>
        <time>1970-01-01T01:39:07Z</time>
      </trkpt>
      <trkpt lat="40.568337" lon="0.537846">
        <ele>4.860</ele>
        <time>1970-01-01T01:39:08Z</time>
      </trkpt>
      <trkpt lat="40.568298" lon="0.537793">
        <ele>4.813</ele>
        <time>1970-01-01T01:39:09Z</time>
      </trkpt>
      <trkpt lat="40.568258" lon="0.537743">
        <ele>4.833</ele>
        <time>1970-01-01T01:39:10Z</time>
      </trkpt>
      <trkpt lat="40.568219" lon="0.537696">
        <ele>4.849</ele>
        <time>1970-01-01T01:39:11Z</time>
      </trkpt>
      <trkpt lat="40.568182" lon="0.537651">
        <ele>4.723</ele>
        <time>1970-01-01T01:39:12Z</time>
      </trkpt>
      <trkpt lat="40.568146" lon="0.537608">
        <ele>4.554</ele>
        <time>1970-01-01T01:39:13Z</time>
      </trkpt>
      <trkpt lat="40.568115" lon="0.537572">
        <ele>4.468</ele>
        <time>1970-01-01T01:39:14Z</time>
      </trkpt>
      <trkpt lat="40.568088" lon="0.537537">
        <ele>4.242</ele>
        <time>1970-01-01T01:39:15Z</time>
      </trkpt>
      <trkpt lat="40.568060" lon="0.537507">
        <ele>4.026</ele>
        <time>1970-01-01T01:39:16Z</time>
      </trkpt>
      <trkpt lat="40.568029" lon="0.537474">
        <ele>4.008</ele>
        <time>1970-01-01T01:39:17Z</time>
      </trkpt>
      <trkpt lat="40.567993" lon="0.537441">
        <ele>4.093</ele>
        <time>1970-01-01T01:39:18Z</time>
      </trkpt>
      <trkpt lat="40.567955" lon="0.537407">
        <ele>4.050</ele>
        <time>1970-01-01T01:39:19Z</time>
      </trkpt>
      <trkpt lat="40.567915" lon="0.537371">
        <ele>4.031</ele>
        <time>1970-01-01T01:39:20Z</time>
      </trkpt>
      <trkpt lat="40.567873" lon="0.537334">
        <ele>3.914</ele>
        <time>1970-01-01T01:39:21Z</time>
      </trkpt>
      <trkpt lat="40.567831" lon="0.537295">
        <ele>3.914</ele>
        <time>1970-01-01T01:39:22Z</time>
      </trkpt>
      <trkpt lat="40.567787" lon="0.537257">
        <ele>3.970</ele>
        <time>1970-01-01T01:39:23Z</time>
      </trkpt>
      <trkpt lat="40.567742" lon="0.537218">
        <ele>3.954</ele>
        <time>1970-01-01T01:39:24Z</time>
      </trkpt>
      <trkpt lat="40.567696" lon="0.537181">
        <ele>4.055</ele>
        <time>1970-01-01T01:39:25Z</time>
      </trkpt>
      <trkpt lat="40.567648" lon="0.537146">
        <ele>4.039</ele>
        <time>1970-01-01T01:39:26Z</time>
      </trkpt>
      <trkpt lat="40.567598" lon="0.537110">
        <ele>3.901</ele>
        <time>1970-01-01T01:39:27Z</time>
      </trkpt>
      <trkpt lat="40.567548" lon="0.537076">
        <ele>3.821</ele>
        <time>1970-01-01T01:39:28Z</time>
      </trkpt>
      <trkpt lat="40.567495" lon="0.537042">
        <ele>3.608</ele>
        <time>1970-01-01T01:39:29Z</time>
      </trkpt>
      <trkpt lat="40.567442" lon="0.537010">
        <ele>3.420</ele>
        <time>1970-01-01T01:39:30Z</time>
      </trkpt>
      <trkpt lat="40.567388" lon="0.536977">
        <ele>3.147</ele>
        <time>1970-01-01T01:39:31Z</time>
      </trkpt>
      <trkpt lat="40.567332" lon="0.536948">
        <ele>2.858</ele>
        <time>1970-01-01T01:39:32Z</time>
      </trkpt>
      <trkpt lat="40.567275" lon="0.536919">
        <ele>2.521</ele>
        <time>1970-01-01T01:39:33Z</time>
      </trkpt>
      <trkpt lat="40.567220" lon="0.536890">
        <ele>2.221</ele>
        <time>1970-01-01T01:39:34Z</time>
      </trkpt>
      <trkpt lat="40.567163" lon="0.536863">
        <ele>2.177</ele>
        <time>1970-01-01T01:39:35Z</time>
      </trkpt>
      <trkpt lat="40.567107" lon="0.536838">
        <ele>2.071</ele>
        <time>1970-01-01T01:39:36Z</time>
      </trkpt>
      <trkpt lat="40.567050" lon="0.536812">
        <ele>1.932</ele>
        <time>1970-01-01T01:39:37Z</time>
      </trkpt>
      <trkpt lat="40.566993" lon="0.536786">
        <ele>1.774</ele>
        <time>1970-01-01T01:39:38Z</time>
      </trkpt>
      <trkpt lat="40.566934" lon="0.536760">
        <ele>1.756</ele>
        <time>1970-01-01T01:39:39Z</time>
      </trkpt>
      <trkpt lat="40.566875" lon="0.536735">
        <ele>2.021</ele>
        <time>1970-01-01T01:39:40Z</time>
      </trkpt>
      <trkpt lat="40.566815" lon="0.536710">
        <ele>2.308</ele>
        <time>1970-01-01T01:39:41Z</time>
      </trkpt>
      <trkpt lat="40.566756" lon="0.536685">
        <ele>2.634</ele>
        <time>1970-01-01T01:39:42Z</time>
      </trkpt>
      <trkpt lat="40.566695" lon="0.536660">
        <ele>2.971</ele>
        <time>1970-01-01T01:39:43Z</time>
      </trkpt>
      <trkpt lat="40.566635" lon="0.536635">
        <ele>3.352</ele>
        <time>1970-01-01T01:39:44Z</time>
      </trkpt>
      <trkpt lat="40.566574" lon="0.536611">
        <ele>3.725</ele>
        <time>1970-01-01T01:39:45Z</time>
      </trkpt>
      <trkpt lat="40.566514" lon="0.536586">
        <ele>4.095</ele>
        <time>1970-01-01T01:39:46Z</time>
      </trkpt>
      <trkpt lat="40.566453" lon="0.536560">
        <ele>4.271</ele>
        <time>1970-01-01T01:39:47Z</time>
      </trkpt>
      <trkpt lat="40.566393" lon="0.536535">
        <ele>4.575</ele>
        <time>1970-01-01T01:39:48Z</time>
      </trkpt>
      <trkpt lat="40.566332" lon="0.536511">
        <ele>4.766</ele>
        <time>1970-01-01T01:39:49Z</time>
      </trkpt>
      <trkpt lat="40.566270" lon="0.536487">
        <ele>4.913</ele>
        <time>1970-01-01T01:39:50Z</time>
      </trkpt>
      <trkpt lat="40.566209" lon="0.536463">
        <ele>5.243</ele>
        <time>1970-01-01T01:39:51Z</time>
      </trkpt>
      <trkpt lat="40.566149" lon="0.536438">
        <ele>5.507</ele>
        <time>1970-01-01T01:39:52Z</time>
      </trkpt>
      <trkpt lat="40.566089" lon="0.536413">
        <ele>5.908</ele>
        <time>1970-01-01T01:39:53Z</time>
      </trkpt>
      <trkpt lat="40.566030" lon="0.536386">
        <ele>6.398</ele>
        <time>1970-01-01T01:39:54Z</time>
      </trkpt>
      <trkpt lat="40.565971" lon="0.536360">
        <ele>6.665</ele>
        <time>1970-01-01T01:39:55Z</time>
      </trkpt>
      <trkpt lat="40.565911" lon="0.536336">
        <ele>6.976</ele>
        <time>1970-01-01T01:39:56Z</time>
      </trkpt>
      <trkpt lat="40.565850" lon="0.536314">
        <ele>7.279</ele>
        <time>1970-01-01T01:39:57Z</time>
      </trkpt>
      <trkpt lat="40.565789" lon="0.536291">
        <ele>7.789</ele>
        <time>1970-01-01T01:39:58Z</time>
      </trkpt>
      <trkpt lat="40.565728" lon="0.536267">
        <ele>8.275</ele>
        <time>1970-01-01T01:39:59Z</time>
      </trkpt>
      <trkpt lat="40.565668" lon="0.536241">
        <ele>8.789</ele>
        <time>1970-01-01T01:40:00Z</time>
      </trkpt>
      <trkpt lat="40.565606" lon="0.536215">
        <ele>9.310</ele>
        <time>1970-01-01T01:40:01Z</time>
      </trkpt>
      <trkpt lat="40.565545" lon="0.536191">
        <ele>9.733</ele>
        <time>1970-01-01T01:40:02Z</time>
      </trkpt>
      <trkpt lat="40.565482" lon="0.536169">
        <ele>9.723</ele>
        <time>1970-01-01T01:40:03Z</time>
      </trkpt>
      <trkpt lat="40.565421" lon="0.536144">
        <ele>9.815</ele>
        <time>1970-01-01T01:40:04Z</time>
      </trkpt>
      <trkpt lat="40.565360" lon="0.536117">
        <ele>10.008</ele>
        <time>1970-01-01T01:40:05Z</time>
      </trkpt>
      <trkpt lat="40.565299" lon="0.536090">
        <ele>10.190</ele>
        <time>1970-01-01T01:40:06Z</time>
      </trkpt>
      <trkpt lat="40.565238" lon="0.536062">
        <ele>10.237</ele>
        <time>1970-01-01T01:40:07Z</time>
      </trkpt>
      <trkpt lat="40.565178" lon="0.536034">
        <ele>10.288</ele>
        <time>1970-01-01T01:40:08Z</time>
      </trkpt>
      <trkpt lat="40.565118" lon="0.536006">
        <ele>10.231</ele>
        <time>1970-01-01T01:40:09Z</time>
      </trkpt>
      <trkpt lat="40.565057" lon="0.535980">
        <ele>10.141</ele>
        <time>1970-01-01T01:40:10Z</time>
      </trkpt>
      <trkpt lat="40.564996" lon="0.535955">
        <ele>10.137</ele>
        <time>1970-01-01T01:40:11Z</time>
      </trkpt>
      <trkpt lat="40.564936" lon="0.535931">
        <ele>9.941</ele>
        <time>1970-01-01T01:40:12Z</time>
      </trkpt>
      <trkpt lat="40.564875" lon="0.535909">
        <ele>9.792</ele>
        <time>1970-01-01T01:40:13Z</time>
      </trkpt>
      <trkpt lat="40.564814" lon="0.535887">
        <ele>9.497</ele>
        <time>1970-01-01T01:40:14Z</time>
      </trkpt>
      <trkpt lat="40.564753" lon="0.535862">
        <ele>9.123</ele>
        <time>1970-01-01T01:40:15Z</time>
      </trkpt>
      <trkpt lat="40.564693" lon="0.535837">
        <ele>8.925</ele>
        <time>1970-01-01T01:40:16Z</time>
      </trkpt>
      <trkpt lat="40.564632" lon="0.535812">
        <ele>8.808</ele>
        <time>1970-01-01T01:40:17Z</time>
      </trkpt>
      <trkpt lat="40.564572" lon="0.535789">
        <ele>8.656</ele>
        <time>1970-01-01T01:40:18Z</time>
      </trkpt>
      <trkpt lat="40.564511" lon="0.535767">
        <ele>8.583</ele>
        <time>1970-01-01T01:40:19Z</time>
      </trkpt>
      <trkpt lat="40.564452" lon="0.535742">
        <ele>8.454</ele>
        <time>1970-01-01T01:40:20Z</time>
      </trkpt>
      <trkpt lat="40.564391" lon="0.535720">
        <ele>8.477</ele>
        <time>1970-01-01T01:40:21Z</time>
      </trkpt>
      <trkpt lat="40.564332" lon="0.535696">
        <ele>8.537</ele>
        <time>1970-01-01T01:40:22Z</time>
      </trkpt>
      <trkpt lat="40.564272" lon="0.535673">
        <ele>8.693</ele>
        <time>1970-01-01T01:40:23Z</time>
      </trkpt>
      <trkpt lat="40.564213" lon="0.535650">
        <ele>8.767</ele>
        <time>1970-01-01T01:40:24Z</time>
      </trkpt>
      <trkpt lat="40.564153" lon="0.535626">
        <ele>8.718</ele>
        <time>1970-01-01T01:40:25Z</time>
      </trkpt>
      <trkpt lat="40.564093" lon="0.535603">
        <ele>8.664</ele>
        <time>1970-01-01T01:40:26Z</time>
      </trkpt>
      <trkpt lat="40.564033" lon="0.535580">
        <ele>8.406</ele>
        <time>1970-01-01T01:40:27Z</time>
      </trkpt>
      <trkpt lat="40.563973" lon="0.535557">
        <ele>8.316</ele>
        <time>1970-01-01T01:40:28Z</time>
      </trkpt>
      <trkpt lat="40.563913" lon="0.535534">
        <ele>8.208</ele>
        <time>1970-01-01T01:40:29Z</time>
      </trkpt>
      <trkpt lat="40.563855" lon="0.535509">
        <ele>8.343</ele>
        <time>1970-01-01T01:40:30Z</time>
      </trkpt>
      <trkpt lat="40.563796" lon="0.535483">
        <ele>8.420</ele>
        <time>1970-01-01T01:40:31Z</time>
      </trkpt>
      <trkpt lat="40.563736" lon="0.535458">
        <ele>8.541</ele>
        <time>1970-01-01T01:40:32Z</time>
      </trkpt>
      <trkpt lat="40.563677" lon="0.535433">
        <ele>8.554</ele>
        <time>1970-01-01T01:40:33Z</time>
      </trkpt>
      <trkpt lat="40.563618" lon="0.535408">
        <ele>8.594</ele>
        <time>1970-01-01T01:40:34Z</time>
      </trkpt>
      <trkpt lat="40.563558" lon="0.535384">
        <ele>8.910</ele>
        <time>1970-01-01T01:40:35Z</time>
      </trkpt>
      <trkpt lat="40.563499" lon="0.535360">
        <ele>9.484</ele>
        <time>1970-01-01T01:40:36Z</time>
      </trkpt>
      <trkpt lat="40.563439" lon="0.535336">
        <ele>9.965</ele>
        <time>1970-01-01T01:40:37Z</time>
      </trkpt>
      <trkpt lat="40.563379" lon="0.535312">
        <ele>10.486</ele>
        <time>1970-01-01T01:40:38Z</time>
      </trkpt>
      <trkpt lat="40.563319" lon="0.535288">
        <ele>10.960</ele>
        <time>1970-01-01T01:40:39Z</time>
      </trkpt>
      <trkpt lat="40.563259" lon="0.535263">
        <ele>10.726</ele>
        <time>1970-01-01T01:40:40Z</time>
      </trkpt>
      <trkpt lat="40.563198" lon="0.535238">
        <ele>10.608</ele>
        <time>1970-01-01T01:40:41Z</time>
      </trkpt>
      <trkpt lat="40.563138" lon="0.535212">
        <ele>10.595</ele>
        <time>1970-01-01T01:40:42Z</time>
      </trkpt>
      <trkpt lat="40.563078" lon="0.535187">
        <ele>10.412</ele>
        <time>1970-01-01T01:40:43Z</time>
      </trkpt>
      <trkpt lat="40.563018" lon="0.535162">
        <ele>10.073</ele>
        <time>1970-01-01T01:40:44Z</time>
      </trkpt>
      <trkpt lat="40.562958" lon="0.535136">
        <ele>9.566</ele>
        <time>1970-01-01T01:40:45Z</time>
      </trkpt>
      <trkpt lat="40.562900" lon="0.535108">
        <ele>9.116</ele>
        <time>1970-01-01T01:40:46Z</time>
      </trkpt>
      <trkpt lat="40.562843" lon="0.535076">
        <ele>8.862</ele>
        <time>1970-01-01T01:40:47Z</time>
      </trkpt>
      <trkpt lat="40.562784" lon="0.535046">
        <ele>8.626</ele>
        <time>1970-01-01T01:40:48Z</time>
      </trkpt>
      <trkpt lat="40.562726" lon="0.535015">
        <ele>8.537</ele>
        <time>1970-01-01T01:40:49Z</time>
      </trkpt>
      <trkpt lat="40.562669" lon="0.534982">
        <ele>8.343</ele>
        <time>1970-01-01T01:40:50Z</time>
      </trkpt>
      <trkpt lat="40.562612" lon="0.534946">
        <ele>8.064</ele>
        <time>1970-01-01T01:40:51Z</time>
      </trkpt>
      <trkpt lat="40.562556" lon="0.534907">
        <ele>7.710</ele>
        <time>1970-01-01T01:40:52Z</time>
      </trkpt>
      <trkpt lat="40.562500" lon="0.534867">
        <ele>7.508</ele>
        <time>1970-01-01T01:40:53Z</time>
      </trkpt>
      <trkpt lat="40.562445" lon="0.534823">
        <ele>7.471</ele>
        <time>1970-01-01T01:40:54Z</time>
      </trkpt>
      <trkpt lat="40.562390" lon="0.534778">
        <ele>7.318</ele>
        <time>1970-01-01T01:40:55Z</time>
      </trkpt>
      <trkpt lat="40.562338" lon="0.534726">
        <ele>7.499</ele>
        <time>1970-01-01T01:40:56Z</time>
      </trkpt>
      <trkpt lat="40.562287" lon="0.534671">
        <ele>7.532</ele>
        <time>1970-01-01T01:40:57Z</time>
      </trkpt>
      <trkpt lat="40.562235" lon="0.534616">
        <ele>7.472</ele>
        <time>1970-01-01T01:40:58Z</time>
      </trkpt>
      <trkpt lat="40.562182" lon="0.534562">
        <ele>7.678</ele>
        <time>1970-01-01T01:40:59Z</time>
      </trkpt>
      <trkpt lat="40.562131" lon="0.534507">
        <ele>7.862</ele>
        <time>1970-01-01T01:41:00Z</time>
      </trkpt>
      <trkpt lat="40.562080" lon="0.534450">
        <ele>8.043</ele>
        <time>1970-01-01T01:41:01Z</time>
      </trkpt>
      <trkpt lat="40.562030" lon="0.534391">
        <ele>8.388</ele>
        <time>1970-01-01T01:41:02Z</time>
      </trkpt>
      <trkpt lat="40.561981" lon="0.534330">
        <ele>8.524</ele>
        <time>1970-01-01T01:41:03Z</time>
      </trkpt>
      <trkpt lat="40.561932" lon="0.534268">
        <ele>8.626</ele>
        <time>1970-01-01T01:41:04Z</time>
      </trkpt>
      <trkpt lat="40.561883" lon="0.534206">
        <ele>8.608</ele>
        <time>1970-01-01T01:41:05Z</time>
      </trkpt>
      <trkpt lat="40.561835" lon="0.534144">
        <ele>8.775</ele>
        <time>1970-01-01T01:41:06Z</time>
      </trkpt>
      <trkpt lat="40.561787" lon="0.534083">
        <ele>8.782</ele>
        <time>1970-01-01T01:41:07Z</time>
      </trkpt>
      <trkpt lat="40.561738" lon="0.534021">
        <ele>8.833</ele>
        <time>1970-01-01T01:41:08Z</time>
      </trkpt>
      <trkpt lat="40.561691" lon="0.533961">
        <ele>8.896</ele>
        <time>1970-01-01T01:41:09Z</time>
      </trkpt>
      <trkpt lat="40.561644" lon="0.533900">
        <ele>8.936</ele>
        <time>1970-01-01T01:41:10Z</time>
      </trkpt>
      <trkpt lat="40.561596" lon="0.533839">
        <ele>8.972</ele>
        <time>1970-01-01T01:41:11Z</time>
      </trkpt>
      <trkpt lat="40.561549" lon="0.533777">
        <ele>9.086</ele>
        <time>1970-01-01T01:41:12Z</time>
      </trkpt>
      <trkpt lat="40.561502" lon="0.533718">
        <ele>9.037</ele>
        <time>1970-01-01T01:41:13Z</time>
      </trkpt>
      <trkpt lat="40.561454" lon="0.533658">
        <ele>9.133</ele>
        <time>1970-01-01T01:41:14Z</time>
      </trkpt>
      <trkpt lat="40.561406" lon="0.533598">
        <ele>9.123</ele>
        <time>1970-01-01T01:41:15Z</time>
      </trkpt>
      <trkpt lat="40.561359" lon="0.533539">
        <ele>8.815</ele>
        <time>1970-01-01T01:41:16Z</time>
      </trkpt>
      <trkpt lat="40.561312" lon="0.533479">
        <ele>8.608</ele>
        <time>1970-01-01T01:41:17Z</time>
      </trkpt>
      <trkpt lat="40.561265" lon="0.533419">
        <ele>8.460</ele>
        <time>1970-01-01T01:41:18Z</time>
      </trkpt>
      <trkpt lat="40.561218" lon="0.533361">
        <ele>8.397</ele>
        <time>1970-01-01T01:41:19Z</time>
      </trkpt>
      <trkpt lat="40.561171" lon="0.533301">
        <ele>8.368</ele>
        <time>1970-01-01T01:41:20Z</time>
      </trkpt>
      <trkpt lat="40.561125" lon="0.533243">
        <ele>8.431</ele>
        <time>1970-01-01T01:41:21Z</time>
      </trkpt>
      <trkpt lat="40.561080" lon="0.533184">
        <ele>8.551</ele>
        <time>1970-01-01T01:41:22Z</time>
      </trkpt>
      <trkpt lat="40.561036" lon="0.533128">
        <ele>8.997</ele>
        <time>1970-01-01T01:41:23Z</time>
      </trkpt>
      <trkpt lat="40.560991" lon="0.533073">
        <ele>9.331</ele>
        <time>1970-01-01T01:41:24Z</time>
      </trkpt>
      <trkpt lat="40.560945" lon="0.533018">
        <ele>9.792</ele>
        <time>1970-01-01T01:41:25Z</time>
      </trkpt>
      <trkpt lat="40.560898" lon="0.532962">
        <ele>9.854</ele>
        <time>1970-01-01T01:41:26Z</time>
      </trkpt>
      <trkpt lat="40.560854" lon="0.532904">
        <ele>10.056</ele>
        <time>1970-01-01T01:41:27Z</time>
      </trkpt>
      <trkpt lat="40.560810" lon="0.532846">
        <ele>10.111</ele>
        <time>1970-01-01T01:41:28Z</time>
      </trkpt>
      <trkpt lat="40.560768" lon="0.532787">
        <ele>10.208</ele>
        <time>1970-01-01T01:41:29Z</time>
      </trkpt>
      <trkpt lat="40.560725" lon="0.532729">
        <ele>10.492</ele>
        <time>1970-01-01T01:41:30Z</time>
      </trkpt>
      <trkpt lat="40.560681" lon="0.532673">
        <ele>10.589</ele>
        <time>1970-01-01T01:41:31Z</time>
      </trkpt>
      <trkpt lat="40.560638" lon="0.532619">
        <ele>10.780</ele>
        <time>1970-01-01T01:41:32Z</time>
      </trkpt>
      <trkpt lat="40.560595" lon="0.532566">
        <ele>10.923</ele>
        <time>1970-01-01T01:41:33Z</time>
      </trkpt>
      <trkpt lat="40.560552" lon="0.532511">
        <ele>11.033</ele>
        <time>1970-01-01T01:41:34Z</time>
      </trkpt>
      <trkpt lat="40.560510" lon="0.532454">
        <ele>10.879</ele>
        <time>1970-01-01T01:41:35Z</time>
      </trkpt>
      <trkpt lat="40.560469" lon="0.532400">
        <ele>10.783</ele>
        <time>1970-01-01T01:41:36Z</time>
      </trkpt>
      <trkpt lat="40.560426" lon="0.532349">
        <ele>10.514</ele>
        <time>1970-01-01T01:41:37Z</time>
      </trkpt>
      <trkpt lat="40.560384" lon="0.532295">
        <ele>10.424</ele>
        <time>1970-01-01T01:41:38Z</time>
      </trkpt>
      <trkpt lat="40.560343" lon="0.532240">
        <ele>10.204</ele>
        <time>1970-01-01T01:41:39Z</time>
      </trkpt>
      <trkpt lat="40.560302" lon="0.532188">
        <ele>10.114</ele>
        <time>1970-01-01T01:41:40Z</time>
      </trkpt>
      <trkpt lat="40.560262" lon="0.532137">
        <ele>9.908</ele>
        <time>1970-01-01T01:41:41Z</time>
      </trkpt>
      <trkpt lat="40.560223" lon="0.532083">
        <ele>9.819</ele>
        <time>1970-01-01T01:41:42Z</time>
      </trkpt>
      <trkpt lat="40.560183" lon="0.532029">
        <ele>9.716</ele>
        <time>1970-01-01T01:41:43Z</time>
      </trkpt>
      <trkpt lat="40.560144" lon="0.531977">
        <ele>9.557</ele>
        <time>1970-01-01T01:41:44Z</time>
      </trkpt>
      <trkpt lat="40.560104" lon="0.531925">
        <ele>9.460</ele>
        <time>1970-01-01T01:41:45Z</time>
      </trkpt>
      <trkpt lat="40.560064" lon="0.531873">
        <ele>9.570</ele>
        <time>1970-01-01T01:41:46Z</time>
      </trkpt>
      <trkpt lat="40.560024" lon="0.531821">
        <ele>9.586</ele>
        <time>1970-01-01T01:41:47Z</time>
      </trkpt>
      <trkpt lat="40.559984" lon="0.531768">
        <ele>9.610</ele>
        <time>1970-01-01T01:41:48Z</time>
      </trkpt>
      <trkpt lat="40.559944" lon="0.531716">
        <ele>9.641</ele>
        <time>1970-01-01T01:41:49Z</time>
      </trkpt>
      <trkpt lat="40.559904" lon="0.531665">
        <ele>9.744</ele>
        <time>1970-01-01T01:41:50Z</time>
      </trkpt>
      <trkpt lat="40.559865" lon="0.531613">
        <ele>9.605</ele>
        <time>1970-01-01T01:41:51Z</time>
      </trkpt>
      <trkpt lat="40.559828" lon="0.531562">
        <ele>9.515</ele>
        <time>1970-01-01T01:41:52Z</time>
      </trkpt>
      <trkpt lat="40.559789" lon="0.531512">
        <ele>9.408</ele>
        <time>1970-01-01T01:41:53Z</time>
      </trkpt>
      <trkpt lat="40.559751" lon="0.531464">
        <ele>9.251</ele>
        <time>1970-01-01T01:41:54Z</time>
      </trkpt>
      <trkpt lat="40.559712" lon="0.531415">
        <ele>9.048</ele>
        <time>1970-01-01T01:41:55Z</time>
      </trkpt>
      <trkpt lat="40.559673" lon="0.531365">
        <ele>9.259</ele>
        <time>1970-01-01T01:41:56Z</time>
      </trkpt>
      <trkpt lat="40.559637" lon="0.531316">
        <ele>9.482</ele>
        <time>1970-01-01T01:41:57Z</time>
      </trkpt>
      <trkpt lat="40.559599" lon="0.531266">
        <ele>9.782</ele>
        <time>1970-01-01T01:41:58Z</time>
      </trkpt>
      <trkpt lat="40.559562" lon="0.531217">
        <ele>9.918</ele>
        <time>1970-01-01T01:41:59Z</time>
      </trkpt>
      <trkpt lat="40.559525" lon="0.531168">
        <ele>10.082</ele>
        <time>1970-01-01T01:42:00Z</time>
      </trkpt>
      <trkpt lat="40.559489" lon="0.531120">
        <ele>10.143</ele>
        <time>1970-01-01T01:42:01Z</time>
      </trkpt>
      <trkpt lat="40.559453" lon="0.531072">
        <ele>10.228</ele>
        <time>1970-01-01T01:42:02Z</time>
      </trkpt>
      <trkpt lat="40.559418" lon="0.531022">
        <ele>10.189</ele>
        <time>1970-01-01T01:42:03Z</time>
      </trkpt>
      <trkpt lat="40.559383" lon="0.530972">
        <ele>10.117</ele>
        <time>1970-01-01T01:42:04Z</time>
      </trkpt>
      <trkpt lat="40.559350" lon="0.530922">
        <ele>10.008</ele>
        <time>1970-01-01T01:42:05Z</time>
      </trkpt>
      <trkpt lat="40.559317" lon="0.530872">
        <ele>9.959</ele>
        <time>1970-01-01T01:42:06Z</time>
      </trkpt>
      <trkpt lat="40.559284" lon="0.530821">
        <ele>10.036</ele>
        <time>1970-01-01T01:42:07Z</time>
      </trkpt>
      <trkpt lat="40.559252" lon="0.530770">
        <ele>10.147</ele>
        <time>1970-01-01T01:42:08Z</time>
      </trkpt>
      <trkpt lat="40.559220" lon="0.530721">
        <ele>10.350</ele>
        <time>1970-01-01T01:42:09Z</time>
      </trkpt>
      <trkpt lat="40.559189" lon="0.530671">
        <ele>10.480</ele>
        <time>1970-01-01T01:42:10Z</time>
      </trkpt>
      <trkpt lat="40.559159" lon="0.530622">
        <ele>10.586</ele>
        <time>1970-01-01T01:42:11Z</time>
      </trkpt>
      <trkpt lat="40.559128" lon="0.530574">
        <ele>10.630</ele>
        <time>1970-01-01T01:42:12Z</time>
      </trkpt>
      <trkpt lat="40.559097" lon="0.530527">
        <ele>10.811</ele>
        <time>1970-01-01T01:42:13Z</time>
      </trkpt>
      <trkpt lat="40.559068" lon="0.530482">
        <ele>11.064</ele>
        <time>1970-01-01T01:42:14Z</time>
      </trkpt>
      <trkpt lat="40.559042" lon="0.530438">
        <ele>11.206</ele>
        <time>1970-01-01T01:42:15Z</time>
      </trkpt>
      <trkpt lat="40.559020" lon="0.530395">
        <ele>11.416</ele>
        <time>1970-01-01T01:42:16Z</time>
      </trkpt>
      <trkpt lat="40.558996" lon="0.530355">
        <ele>11.508</ele>
        <time>1970-01-01T01:42:17Z</time>
      </trkpt>
      <trkpt lat="40.558973" lon="0.530319">
        <ele>11.653</ele>
        <time>1970-01-01T01:42:18Z</time>
      </trkpt>
      <trkpt lat="40.558954" lon="0.530285">
        <ele>11.650</ele>
        <time>1970-01-01T01:42:19Z</time>
      </trkpt>
      <trkpt lat="40.558937" lon="0.530253">
        <ele>11.781</ele>
        <time>1970-01-01T01:42:20Z</time>
      </trkpt>
      <trkpt lat="40.558920" lon="0.530222">
        <ele>11.754</ele>
        <time>1970-01-01T01:42:21Z</time>
      </trkpt>
      <trkpt lat="40.558906" lon="0.530198">
        <ele>11.824</ele>
        <time>1970-01-01T01:42:22Z</time>
      </trkpt>
      <trkpt lat="40.558897" lon="0.530180">
        <ele>11.850</ele>
        <time>1970-01-01T01:42:23Z</time>
      </trkpt>
      <trkpt lat="40.558893" lon="0.530169">
        <ele>11.844</ele>
        <time>1970-01-01T01:42:24Z</time>
      </trkpt>
      <trkpt lat="40.558892" lon="0.530166">
        <ele>11.835</ele>
        <time>1970-01-01T01:42:25Z</time>
      </trkpt>
      <trkpt lat="40.558893" lon="0.530166">
        <ele>11.892</ele>
        <time>1970-01-01T01:42:26Z</time>
      </trkpt>
      <trkpt lat="40.558839" lon="0.530173">
        <ele>11.773</ele>
        <time>1970-01-01T01:42:31Z</time>
      </trkpt>
      <trkpt lat="40.558812" lon="0.530179">
        <ele>11.620</ele>
        <time>1970-01-01T01:42:32Z</time>
      </trkpt>
      <trkpt lat="40.558784" lon="0.530181">
        <ele>11.608</ele>
        <time>1970-01-01T01:42:33Z</time>
      </trkpt>
      <trkpt lat="40.558752" lon="0.530178">
        <ele>11.546</ele>
        <time>1970-01-01T01:42:34Z</time>
      </trkpt>
      <trkpt lat="40.558720" lon="0.530174">
        <ele>11.563</ele>
        <time>1970-01-01T01:42:35Z</time>
      </trkpt>
      <trkpt lat="40.558688" lon="0.530170">
        <ele>11.554</ele>
        <time>1970-01-01T01:42:36Z</time>
      </trkpt>
      <trkpt lat="40.558653" lon="0.530173">
        <ele>11.487</ele>
        <time>1970-01-01T01:42:37Z</time>
      </trkpt>
      <trkpt lat="40.558617" lon="0.530187">
        <ele>11.387</ele>
        <time>1970-01-01T01:42:38Z</time>
      </trkpt>
      <trkpt lat="40.558580" lon="0.530211">
        <ele>11.223</ele>
        <time>1970-01-01T01:42:39Z</time>
      </trkpt>
      <trkpt lat="40.558543" lon="0.530244">
        <ele>11.197</ele>
        <time>1970-01-01T01:42:40Z</time>
      </trkpt>
      <trkpt lat="40.558506" lon="0.530285">
        <ele>11.058</ele>
        <time>1970-01-01T01:42:41Z</time>
      </trkpt>
      <trkpt lat="40.558468" lon="0.530330">
        <ele>10.799</ele>
        <time>1970-01-01T01:42:42Z</time>
      </trkpt>
      <trkpt lat="40.558429" lon="0.530379">
        <ele>10.507</ele>
        <time>1970-01-01T01:42:43Z</time>
      </trkpt>
      <trkpt lat="40.558389" lon="0.530432">
        <ele>10.327</ele>
        <time>1970-01-01T01:42:44Z</time>
      </trkpt>
      <trkpt lat="40.558347" lon="0.530485">
        <ele>10.208</ele>
        <time>1970-01-01T01:42:45Z</time>
      </trkpt>
      <trkpt lat="40.558301" lon="0.530538">
        <ele>10.296</ele>
        <time>1970-01-01T01:42:46Z</time>
      </trkpt>
      <trkpt lat="40.558250" lon="0.530589">
        <ele>10.263</ele>
        <time>1970-01-01T01:42:47Z</time>
      </trkpt>
      <trkpt lat="40.558198" lon="0.530643">
        <ele>10.214</ele>
        <time>1970-01-01T01:42:48Z</time>
      </trkpt>
      <trkpt lat="40.558149" lon="0.530702">
        <ele>10.157</ele>
        <time>1970-01-01T01:42:49Z</time>
      </trkpt>
      <trkpt lat="40.558100" lon="0.530764">
        <ele>10.127</ele>
        <time>1970-01-01T01:42:50Z</time>
      </trkpt>
      <trkpt lat="40.558046" lon="0.530828">
        <ele>10.043</ele>
        <time>1970-01-01T01:42:51Z</time>
      </trkpt>
      <trkpt lat="40.557993" lon="0.530894">
        <ele>9.487</ele>
        <time>1970-01-01T01:42:52Z</time>
      </trkpt>
      <trkpt lat="40.557942" lon="0.530958">
        <ele>8.968</ele>
        <time>1970-01-01T01:42:53Z</time>
      </trkpt>
      <trkpt lat="40.557888" lon="0.531022">
        <ele>8.474</ele>
        <time>1970-01-01T01:42:54Z</time>
      </trkpt>
      <trkpt lat="40.557832" lon="0.531085">
        <ele>8.156</ele>
        <time>1970-01-01T01:42:55Z</time>
      </trkpt>
      <trkpt lat="40.557776" lon="0.531148">
        <ele>7.921</ele>
        <time>1970-01-01T01:42:56Z</time>
      </trkpt>
      <trkpt lat="40.557720" lon="0.531214">
        <ele>7.608</ele>
        <time>1970-01-01T01:42:57Z</time>
      </trkpt>
      <trkpt lat="40.557664" lon="0.531281">
        <ele>7.444</ele>
        <time>1970-01-01T01:42:58Z</time>
      </trkpt>
      <trkpt lat="40.557609" lon="0.531348">
        <ele>7.181</ele>
        <time>1970-01-01T01:42:59Z</time>
      </trkpt>
      <trkpt lat="40.557553" lon="0.531414">
        <ele>6.982</ele>
        <time>1970-01-01T01:43:00Z</time>
      </trkpt>
      <trkpt lat="40.557497" lon="0.531479">
        <ele>6.795</ele>
        <time>1970-01-01T01:43:01Z</time>
      </trkpt>
      <trkpt lat="40.557441" lon="0.531541">
        <ele>6.585</ele>
        <time>1970-01-01T01:43:02Z</time>
      </trkpt>
      <trkpt lat="40.557386" lon="0.531603">
        <ele>6.211</ele>
        <time>1970-01-01T01:43:03Z</time>
      </trkpt>
      <trkpt lat="40.557337" lon="0.531660">
        <ele>6.045</ele>
        <time>1970-01-01T01:43:04Z</time>
      </trkpt>
      <trkpt lat="40.557290" lon="0.531709">
        <ele>6.086</ele>
        <time>1970-01-01T01:43:05Z</time>
      </trkpt>
      <trkpt lat="40.557246" lon="0.531752">
        <ele>6.016</ele>
        <time>1970-01-01T01:43:06Z</time>
      </trkpt>
      <trkpt lat="40.557210" lon="0.531791">
        <ele>6.076</ele>
        <time>1970-01-01T01:43:07Z</time>
      </trkpt>
      <trkpt lat="40.557180" lon="0.531823">
        <ele>6.113</ele>
        <time>1970-01-01T01:43:08Z</time>
      </trkpt>
      <trkpt lat="40.557155" lon="0.531847">
        <ele>6.108</ele>
        <time>1970-01-01T01:43:09Z</time>
      </trkpt>
      <trkpt lat="40.557131" lon="0.531856">
        <ele>6.138</ele>
        <time>1970-01-01T01:43:10Z</time>
      </trkpt>
      <trkpt lat="40.557106" lon="0.531850">
        <ele>6.115</ele>
        <time>1970-01-01T01:43:11Z</time>
      </trkpt>
      <trkpt lat="40.557081" lon="0.531829">
        <ele>6.276</ele>
        <time>1970-01-01T01:43:12Z</time>
      </trkpt>
      <trkpt lat="40.557056" lon="0.531797">
        <ele>6.379</ele>
        <time>1970-01-01T01:43:13Z</time>
      </trkpt>
      <trkpt lat="40.557034" lon="0.531761">
        <ele>6.479</ele>
        <time>1970-01-01T01:43:14Z</time>
      </trkpt>
      <trkpt lat="40.557012" lon="0.531721">
        <ele>6.655</ele>
        <time>1970-01-01T01:43:15Z</time>
      </trkpt>
      <trkpt lat="40.556989" lon="0.531680">
        <ele>6.879</ele>
        <time>1970-01-01T01:43:16Z</time>
      </trkpt>
      <trkpt lat="40.556962" lon="0.531637">
        <ele>6.950</ele>
        <time>1970-01-01T01:43:17Z</time>
      </trkpt>
      <trkpt lat="40.556935" lon="0.531592">
        <ele>7.074</ele>
        <time>1970-01-01T01:43:18Z</time>
      </trkpt>
      <trkpt lat="40.556905" lon="0.531545">
        <ele>7.156</ele>
        <time>1970-01-01T01:43:19Z</time>
      </trkpt>
      <trkpt lat="40.556875" lon="0.531502">
        <ele>7.121</ele>
        <time>1970-01-01T01:43:20Z</time>
      </trkpt>
      <trkpt lat="40.556846" lon="0.531457">
        <ele>7.308</ele>
        <time>1970-01-01T01:43:21Z</time>
      </trkpt>
      <trkpt lat="40.556815" lon="0.531412">
        <ele>7.444</ele>
        <time>1970-01-01T01:43:22Z</time>
      </trkpt>
      <trkpt lat="40.556781" lon="0.531367">
        <ele>7.621</ele>
        <time>1970-01-01T01:43:23Z</time>
      </trkpt>
      <trkpt lat="40.556749" lon="0.531323">
        <ele>7.852</ele>
        <time>1970-01-01T01:43:24Z</time>
      </trkpt>
      <trkpt lat="40.556718" lon="0.531280">
        <ele>7.935</ele>
        <time>1970-01-01T01:43:25Z</time>
      </trkpt>
      <trkpt lat="40.556690" lon="0.531235">
        <ele>8.015</ele>
        <time>1970-01-01T01:43:26Z</time>
      </trkpt>
      <trkpt lat="40.556662" lon="0.531189">
        <ele>8.011</ele>
        <time>1970-01-01T01:43:27Z</time>
      </trkpt>
      <trkpt lat="40.556632" lon="0.531147">
        <ele>7.995</ele>
        <time>1970-01-01T01:43:28Z</time>
      </trkpt>
      <trkpt lat="40.556592" lon="0.531118">
        <ele>7.766</ele>
        <time>1970-01-01T01:43:29Z</time>
      </trkpt>
      <trkpt lat="40.556547" lon="0.531107">
        <ele>7.644</ele>
        <time>1970-01-01T01:43:30Z</time>
      </trkpt>
      <trkpt lat="40.556503" lon="0.531123">
        <ele>7.405</ele>
        <time>1970-01-01T01:43:31Z</time>
      </trkpt>
      <trkpt lat="40.556461" lon="0.531157">
        <ele>7.315</ele>
        <time>1970-01-01T01:43:32Z</time>
      </trkpt>
      <trkpt lat="40.556422" lon="0.531202">
        <ele>7.108</ele>
        <time>1970-01-01T01:43:33Z</time>
      </trkpt>
      <trkpt lat="40.556384" lon="0.531254">
        <ele>7.061</ele>
        <time>1970-01-01T01:43:34Z</time>
      </trkpt>
      <trkpt lat="40.556344" lon="0.531307">
        <ele>7.068</ele>
        <time>1970-01-01T01:43:35Z</time>
      </trkpt>
      <trkpt lat="40.556303" lon="0.531361">
        <ele>7.019</ele>
        <time>1970-01-01T01:43:36Z</time>
      </trkpt>
      <trkpt lat="40.556262" lon="0.531416">
        <ele>7.062</ele>
        <time>1970-01-01T01:43:37Z</time>
      </trkpt>
      <trkpt lat="40.556217" lon="0.531471">
        <ele>7.072</ele>
        <time>1970-01-01T01:43:38Z</time>
      </trkpt>
      <trkpt lat="40.556171" lon="0.531524">
        <ele>7.078</ele>
        <time>1970-01-01T01:43:39Z</time>
      </trkpt>
      <trkpt lat="40.556124" lon="0.531575">
        <ele>7.082</ele>
        <time>1970-01-01T01:43:40Z</time>
      </trkpt>
      <trkpt lat="40.556078" lon="0.531626">
        <ele>7.063</ele>
        <time>1970-01-01T01:43:41Z</time>
      </trkpt>
      <trkpt lat="40.556034" lon="0.531681">
        <ele>6.998</ele>
        <time>1970-01-01T01:43:42Z</time>
      </trkpt>
      <trkpt lat="40.555989" lon="0.531734">
        <ele>6.815</ele>
        <time>1970-01-01T01:43:43Z</time>
      </trkpt>
      <trkpt lat="40.555942" lon="0.531781">
        <ele>6.626</ele>
        <time>1970-01-01T01:43:44Z</time>
      </trkpt>
      <trkpt lat="40.555892" lon="0.531826">
        <ele>6.408</ele>
        <time>1970-01-01T01:43:45Z</time>
      </trkpt>
      <trkpt lat="40.555844" lon="0.531874">
        <ele>6.336</ele>
        <time>1970-01-01T01:43:46Z</time>
      </trkpt>
      <trkpt lat="40.555800" lon="0.531923">
        <ele>6.173</ele>
        <time>1970-01-01T01:43:47Z</time>
      </trkpt>
      <trkpt lat="40.555758" lon="0.531969">
        <ele>5.924</ele>
        <time>1970-01-01T01:43:48Z</time>
      </trkpt>
      <trkpt lat="40.555711" lon="0.532006">
        <ele>5.977</ele>
        <time>1970-01-01T01:43:49Z</time>
      </trkpt>
      <trkpt lat="40.555658" lon="0.532023">
        <ele>5.967</ele>
        <time>1970-01-01T01:43:50Z</time>
      </trkpt>
      <trkpt lat="40.555605" lon="0.532014">
        <ele>6.083</ele>
        <time>1970-01-01T01:43:51Z</time>
      </trkpt>
      <trkpt lat="40.555559" lon="0.531984">
        <ele>6.087</ele>
        <time>1970-01-01T01:43:52Z</time>
      </trkpt>
      <trkpt lat="40.555520" lon="0.531944">
        <ele>6.038</ele>
        <time>1970-01-01T01:43:53Z</time>
      </trkpt>
      <trkpt lat="40.555482" lon="0.531903">
        <ele>6.111</ele>
        <time>1970-01-01T01:43:54Z</time>
      </trkpt>
      <trkpt lat="40.555437" lon="0.531874">
        <ele>6.121</ele>
        <time>1970-01-01T01:43:55Z</time>
      </trkpt>
      <trkpt lat="40.555388" lon="0.531867">
        <ele>6.103</ele>
        <time>1970-01-01T01:43:56Z</time>
      </trkpt>
      <trkpt lat="40.555344" lon="0.531887">
        <ele>6.008</ele>
        <time>1970-01-01T01:43:57Z</time>
      </trkpt>
      <trkpt lat="40.555306" lon="0.531933">
        <ele>6.018</ele>
        <time>1970-01-01T01:43:58Z</time>
      </trkpt>
      <trkpt lat="40.555273" lon="0.531990">
        <ele>5.675</ele>
        <time>1970-01-01T01:43:59Z</time>
      </trkpt>
      <trkpt lat="40.555242" lon="0.532048">
        <ele>5.026</ele>
        <time>1970-01-01T01:44:00Z</time>
      </trkpt>
      <trkpt lat="40.555210" lon="0.532107">
        <ele>4.519</ele>
        <time>1970-01-01T01:44:01Z</time>
      </trkpt>
      <trkpt lat="40.555180" lon="0.532170">
        <ele>4.039</ele>
        <time>1970-01-01T01:44:02Z</time>
      </trkpt>
      <trkpt lat="40.555150" lon="0.532236">
        <ele>3.455</ele>
        <time>1970-01-01T01:44:03Z</time>
      </trkpt>
      <trkpt lat="40.555119" lon="0.532301">
        <ele>2.929</ele>
        <time>1970-01-01T01:44:04Z</time>
      </trkpt>
      <trkpt lat="40.555089" lon="0.532367">
        <ele>2.320</ele>
        <time>1970-01-01T01:44:05Z</time>
      </trkpt>
      <trkpt lat="40.555055" lon="0.532434">
        <ele>1.793</ele>
        <time>1970-01-01T01:44:06Z</time>
      </trkpt>
      <trkpt lat="40.555021" lon="0.532499">
        <ele>1.165</ele>
        <time>1970-01-01T01:44:07Z</time>
      </trkpt>
      <trkpt lat="40.554986" lon="0.532564">
        <ele>1.221</ele>
        <time>1970-01-01T01:44:08Z</time>
      </trkpt>
      <trkpt lat="40.554950" lon="0.532629">
        <ele>1.508</ele>
        <time>1970-01-01T01:44:09Z</time>
      </trkpt>
      <trkpt lat="40.554915" lon="0.532690">
        <ele>1.936</ele>
        <time>1970-01-01T01:44:10Z</time>
      </trkpt>
      <trkpt lat="40.554878" lon="0.532741">
        <ele>2.363</ele>
        <time>1970-01-01T01:44:11Z</time>
      </trkpt>
      <trkpt lat="40.554833" lon="0.532776">
        <ele>2.844</ele>
        <time>1970-01-01T01:44:12Z</time>
      </trkpt>
      <trkpt lat="40.554784" lon="0.532786">
        <ele>3.457</ele>
        <time>1970-01-01T01:44:13Z</time>
      </trkpt>
      <trkpt lat="40.554735" lon="0.532776">
        <ele>3.927</ele>
        <time>1970-01-01T01:44:14Z</time>
      </trkpt>
      <trkpt lat="40.554689" lon="0.532748">
        <ele>4.363</ele>
        <time>1970-01-01T01:44:15Z</time>
      </trkpt>
      <trkpt lat="40.554645" lon="0.532713">
        <ele>4.817</ele>
        <time>1970-01-01T01:44:16Z</time>
      </trkpt>
      <trkpt lat="40.554601" lon="0.532678">
        <ele>5.288</ele>
        <time>1970-01-01T01:44:17Z</time>
      </trkpt>
      <trkpt lat="40.554557" lon="0.532644">
        <ele>5.527</ele>
        <time>1970-01-01T01:44:18Z</time>
      </trkpt>
      <trkpt lat="40.554515" lon="0.532609">
        <ele>5.868</ele>
        <time>1970-01-01T01:44:19Z</time>
      </trkpt>
      <trkpt lat="40.554476" lon="0.532571">
        <ele>6.014</ele>
        <time>1970-01-01T01:44:20Z</time>
      </trkpt>
      <trkpt lat="40.554438" lon="0.532531">
        <ele>6.108</ele>
        <time>1970-01-01T01:44:21Z</time>
      </trkpt>
      <trkpt lat="40.554400" lon="0.532493">
        <ele>6.129</ele>
        <time>1970-01-01T01:44:22Z</time>
      </trkpt>
      <trkpt lat="40.554365" lon="0.532455">
        <ele>6.296</ele>
        <time>1970-01-01T01:44:23Z</time>
      </trkpt>
      <trkpt lat="40.554329" lon="0.532419">
        <ele>6.287</ele>
        <time>1970-01-01T01:44:24Z</time>
      </trkpt>
      <trkpt lat="40.554292" lon="0.532388">
        <ele>6.420</ele>
        <time>1970-01-01T01:44:25Z</time>
      </trkpt>
      <trkpt lat="40.554251" lon="0.532362">
        <ele>6.510</ele>
        <time>1970-01-01T01:44:26Z</time>
      </trkpt>
      <trkpt lat="40.554207" lon="0.532338">
        <ele>6.896</ele>
        <time>1970-01-01T01:44:27Z</time>
      </trkpt>
      <trkpt lat="40.554164" lon="0.532313">
        <ele>7.010</ele>
        <time>1970-01-01T01:44:28Z</time>
      </trkpt>
      <trkpt lat="40.554118" lon="0.532289">
        <ele>7.281</ele>
        <time>1970-01-01T01:44:29Z</time>
      </trkpt>
      <trkpt lat="40.554073" lon="0.532261">
        <ele>7.435</ele>
        <time>1970-01-01T01:44:30Z</time>
      </trkpt>
      <trkpt lat="40.554028" lon="0.532234">
        <ele>7.586</ele>
        <time>1970-01-01T01:44:31Z</time>
      </trkpt>
      <trkpt lat="40.553979" lon="0.532207">
        <ele>7.614</ele>
        <time>1970-01-01T01:44:32Z</time>
      </trkpt>
      <trkpt lat="40.553931" lon="0.532183">
        <ele>7.608</ele>
        <time>1970-01-01T01:44:33Z</time>
      </trkpt>
      <trkpt lat="40.553882" lon="0.532160">
        <ele>7.550</ele>
        <time>1970-01-01T01:44:34Z</time>
      </trkpt>
      <trkpt lat="40.553833" lon="0.532137">
        <ele>7.217</ele>
        <time>1970-01-01T01:44:35Z</time>
      </trkpt>
      <trkpt lat="40.553785" lon="0.532110">
        <ele>6.878</ele>
        <time>1970-01-01T01:44:36Z</time>
      </trkpt>
      <trkpt lat="40.553736" lon="0.532082">
        <ele>6.461</ele>
        <time>1970-01-01T01:44:37Z</time>
      </trkpt>
      <trkpt lat="40.553689" lon="0.532052">
        <ele>6.171</ele>
        <time>1970-01-01T01:44:38Z</time>
      </trkpt>
      <trkpt lat="40.553645" lon="0.532017">
        <ele>5.637</ele>
        <time>1970-01-01T01:44:39Z</time>
      </trkpt>
      <trkpt lat="40.553603" lon="0.531980">
        <ele>5.291</ele>
        <time>1970-01-01T01:44:40Z</time>
      </trkpt>
      <trkpt lat="40.553562" lon="0.531940">
        <ele>4.862</ele>
        <time>1970-01-01T01:44:41Z</time>
      </trkpt>
      <trkpt lat="40.553523" lon="0.531900">
        <ele>4.676</ele>
        <time>1970-01-01T01:44:42Z</time>
      </trkpt>
      <trkpt lat="40.553486" lon="0.531858">
        <ele>4.490</ele>
        <time>1970-01-01T01:44:43Z</time>
      </trkpt>
      <trkpt lat="40.553450" lon="0.531818">
        <ele>4.219</ele>
        <time>1970-01-01T01:44:44Z</time>
      </trkpt>
      <trkpt lat="40.553416" lon="0.531776">
        <ele>4.108</ele>
        <time>1970-01-01T01:44:45Z</time>
      </trkpt>
      <trkpt lat="40.553385" lon="0.531732">
        <ele>4.054</ele>
        <time>1970-01-01T01:44:46Z</time>
      </trkpt>
      <trkpt lat="40.553350" lon="0.531689">
        <ele>4.041</ele>
        <time>1970-01-01T01:44:47Z</time>
      </trkpt>
      <trkpt lat="40.553317" lon="0.531638">
        <ele>4.162</ele>
        <time>1970-01-01T01:44:48Z</time>
      </trkpt>
      <trkpt lat="40.553282" lon="0.531595">
        <ele>4.215</ele>
        <time>1970-01-01T01:44:49Z</time>
      </trkpt>
      <trkpt lat="40.553250" lon="0.531551">
        <ele>4.325</ele>
        <time>1970-01-01T01:44:50Z</time>
      </trkpt>
      <trkpt lat="40.553217" lon="0.531508">
        <ele>4.311</ele>
        <time>1970-01-01T01:44:51Z</time>
      </trkpt>
      <trkpt lat="40.553185" lon="0.531470">
        <ele>4.355</ele>
        <time>1970-01-01T01:44:52Z</time>
      </trkpt>
      <trkpt lat="40.553151" lon="0.531437">
        <ele>4.336</ele>
        <time>1970-01-01T01:44:53Z</time>
      </trkpt>
      <trkpt lat="40.553120" lon="0.531401">
        <ele>4.233</ele>
        <time>1970-01-01T01:44:54Z</time>
      </trkpt>
      <trkpt lat="40.553090" lon="0.531362">
        <ele>4.123</ele>
        <time>1970-01-01T01:44:55Z</time>
      </trkpt>
      <trkpt lat="40.553060" lon="0.531324">
        <ele>4.015</ele>
        <time>1970-01-01T01:44:56Z</time>
      </trkpt>
      <trkpt lat="40.553030" lon="0.531283">
        <ele>3.908</ele>
        <time>1970-01-01T01:44:57Z</time>
      </trkpt>
      <trkpt lat="40.552999" lon="0.531244">
        <ele>3.880</ele>
        <time>1970-01-01T01:44:58Z</time>
      </trkpt>
      <trkpt lat="40.552970" lon="0.531210">
        <ele>3.777</ele>
        <time>1970-01-01T01:44:59Z</time>
      </trkpt>
      <trkpt lat="40.552940" lon="0.531180">
        <ele>3.628</ele>
        <time>1970-01-01T01:45:00Z</time>
      </trkpt>
      <trkpt lat="40.552913" lon="0.531149">
        <ele>3.581</ele>
        <time>1970-01-01T01:45:01Z</time>
      </trkpt>
      <trkpt lat="40.552886" lon="0.531117">
        <ele>3.481</ele>
        <time>1970-01-01T01:45:02Z</time>
      </trkpt>
      <trkpt lat="40.552860" lon="0.531081">
        <ele>3.377</ele>
        <time>1970-01-01T01:45:03Z</time>
      </trkpt>
      <trkpt lat="40.552836" lon="0.531043">
        <ele>3.341</ele>
        <time>1970-01-01T01:45:04Z</time>
      </trkpt>
      <trkpt lat="40.552813" lon="0.531006">
        <ele>3.292</ele>
        <time>1970-01-01T01:45:05Z</time>
      </trkpt>
      <trkpt lat="40.552787" lon="0.530973">
        <ele>3.052</ele>
        <time>1970-01-01T01:45:06Z</time>
      </trkpt>
      <trkpt lat="40.552760" lon="0.530939">
        <ele>3.053</ele>
        <time>1970-01-01T01:45:07Z</time>
      </trkpt>
      <trkpt lat="40.552730" lon="0.530911">
        <ele>3.108</ele>
        <time>1970-01-01T01:45:08Z</time>
      </trkpt>
      <trkpt lat="40.552700" lon="0.530880">
        <ele>3.208</ele>
        <time>1970-01-01T01:45:09Z</time>
      </trkpt>
      <trkpt lat="40.552667" lon="0.530850">
        <ele>3.492</ele>
        <time>1970-01-01T01:45:10Z</time>
      </trkpt>
      <trkpt lat="40.552633" lon="0.530822">
        <ele>3.629</ele>
        <time>1970-01-01T01:45:11Z</time>
      </trkpt>
      <trkpt lat="40.552596" lon="0.530800">
        <ele>3.830</ele>
        <time>1970-01-01T01:45:12Z</time>
      </trkpt>
      <trkpt lat="40.552561" lon="0.530781">
        <ele>4.093</ele>
        <time>1970-01-01T01:45:13Z</time>
      </trkpt>
      <trkpt lat="40.552529" lon="0.530763">
        <ele>4.163</ele>
        <time>1970-01-01T01:45:14Z</time>
      </trkpt>
      <trkpt lat="40.552497" lon="0.530745">
        <ele>4.349</ele>
        <time>1970-01-01T01:45:15Z</time>
      </trkpt>
      <trkpt lat="40.552468" lon="0.530723">
        <ele>4.333</ele>
        <time>1970-01-01T01:45:16Z</time>
      </trkpt>
      <trkpt lat="40.552442" lon="0.530693">
        <ele>4.484</ele>
        <time>1970-01-01T01:45:17Z</time>
      </trkpt>
      <trkpt lat="40.552413" lon="0.530664">
        <ele>4.542</ele>
        <time>1970-01-01T01:45:18Z</time>
      </trkpt>
      <trkpt lat="40.552384" lon="0.530632">
        <ele>4.622</ele>
        <time>1970-01-01T01:45:19Z</time>
      </trkpt>
      <trkpt lat="40.552357" lon="0.530598">
        <ele>4.814</ele>
        <time>1970-01-01T01:45:20Z</time>
      </trkpt>
      <trkpt lat="40.552328" lon="0.530565">
        <ele>4.908</ele>
        <time>1970-01-01T01:45:21Z</time>
      </trkpt>
      <trkpt lat="40.552299" lon="0.530535">
        <ele>5.171</ele>
        <time>1970-01-01T01:45:22Z</time>
      </trkpt>
      <trkpt lat="40.552270" lon="0.530504">
        <ele>5.238</ele>
        <time>1970-01-01T01:45:23Z</time>
      </trkpt>
      <trkpt lat="40.552242" lon="0.530471">
        <ele>5.379</ele>
        <time>1970-01-01T01:45:24Z</time>
      </trkpt>
      <trkpt lat="40.552212" lon="0.530439">
        <ele>5.462</ele>
        <time>1970-01-01T01:45:25Z</time>
      </trkpt>
      <trkpt lat="40.552180" lon="0.530411">
        <ele>5.422</ele>
        <time>1970-01-01T01:45:26Z</time>
      </trkpt>
      <trkpt lat="40.552147" lon="0.530385">
        <ele>5.598</ele>
        <time>1970-01-01T01:45:27Z</time>
      </trkpt>
      <trkpt lat="40.552113" lon="0.530361">
        <ele>5.652</ele>
        <time>1970-01-01T01:45:28Z</time>
      </trkpt>
      <trkpt lat="40.552079" lon="0.530337">
        <ele>5.723</ele>
        <time>1970-01-01T01:45:29Z</time>
      </trkpt>
      <trkpt lat="40.552046" lon="0.530313">
        <ele>5.895</ele>
        <time>1970-01-01T01:45:30Z</time>
      </trkpt>
      <trkpt lat="40.552018" lon="0.530287">
        <ele>5.949</ele>
        <time>1970-01-01T01:45:31Z</time>
      </trkpt>
      <trkpt lat="40.551991" lon="0.530262">
        <ele>6.123</ele>
        <time>1970-01-01T01:45:32Z</time>
      </trkpt>
      <trkpt lat="40.551963" lon="0.530247">
        <ele>6.208</ele>
        <time>1970-01-01T01:45:33Z</time>
      </trkpt>
      <trkpt lat="40.551933" lon="0.530234">
        <ele>6.416</ele>
        <time>1970-01-01T01:45:34Z</time>
      </trkpt>
      <trkpt lat="40.551903" lon="0.530217">
        <ele>6.743</ele>
        <time>1970-01-01T01:45:35Z</time>
      </trkpt>
      <trkpt lat="40.551873" lon="0.530197">
        <ele>7.034</ele>
        <time>1970-01-01T01:45:36Z</time>
      </trkpt>
      <trkpt lat="40.551844" lon="0.530174">
        <ele>7.367</ele>
        <time>1970-01-01T01:45:37Z</time>
      </trkpt>
      <trkpt lat="40.551817" lon="0.530149">
        <ele>7.637</ele>
        <time>1970-01-01T01:45:38Z</time>
      </trkpt>
      <trkpt lat="40.551793" lon="0.530125">
        <ele>7.923</ele>
        <time>1970-01-01T01:45:39Z</time>
      </trkpt>
      <trkpt lat="40.551769" lon="0.530104">
        <ele>8.197</ele>
        <time>1970-01-01T01:45:40Z</time>
      </trkpt>
      <trkpt lat="40.551745" lon="0.530088">
        <ele>8.338</ele>
        <time>1970-01-01T01:45:41Z</time>
      </trkpt>
      <trkpt lat="40.551721" lon="0.530072">
        <ele>8.575</ele>
        <time>1970-01-01T01:45:42Z</time>
      </trkpt>
      <trkpt lat="40.551700" lon="0.530053">
        <ele>8.728</ele>
        <time>1970-01-01T01:45:43Z</time>
      </trkpt>
      <trkpt lat="40.551684" lon="0.530031">
        <ele>8.820</ele>
        <time>1970-01-01T01:45:44Z</time>
      </trkpt>
      <trkpt lat="40.551676" lon="0.530002">
        <ele>9.008</ele>
        <time>1970-01-01T01:45:45Z</time>
      </trkpt>
      <trkpt lat="40.551671" lon="0.529975">
        <ele>9.174</ele>
        <time>1970-01-01T01:45:46Z</time>
      </trkpt>
      <trkpt lat="40.551660" lon="0.529950">
        <ele>9.291</ele>
        <time>1970-01-01T01:45:47Z</time>
      </trkpt>
      <trkpt lat="40.551642" lon="0.529926">
        <ele>9.272</ele>
        <time>1970-01-01T01:45:48Z</time>
      </trkpt>
      <trkpt lat="40.551616" lon="0.529903">
        <ele>9.315</ele>
        <time>1970-01-01T01:45:49Z</time>
      </trkpt>
      <trkpt lat="40.551586" lon="0.529881">
        <ele>9.395</ele>
        <time>1970-01-01T01:45:50Z</time>
      </trkpt>
      <trkpt lat="40.551558" lon="0.529861">
        <ele>9.321</ele>
        <time>1970-01-01T01:45:51Z</time>
      </trkpt>
      <trkpt lat="40.551532" lon="0.529833">
        <ele>9.325</ele>
        <time>1970-01-01T01:45:52Z</time>
      </trkpt>
      <trkpt lat="40.551507" lon="0.529802">
        <ele>9.326</ele>
        <time>1970-01-01T01:45:53Z</time>
      </trkpt>
      <trkpt lat="40.551483" lon="0.529770">
        <ele>9.369</ele>
        <time>1970-01-01T01:45:54Z</time>
      </trkpt>
      <trkpt lat="40.551454" lon="0.529740">
        <ele>9.204</ele>
        <time>1970-01-01T01:45:55Z</time>
      </trkpt>
      <trkpt lat="40.551420" lon="0.529715">
        <ele>9.124</ele>
        <time>1970-01-01T01:45:56Z</time>
      </trkpt>
      <trkpt lat="40.551384" lon="0.529690">
        <ele>9.008</ele>
        <time>1970-01-01T01:45:57Z</time>
      </trkpt>
      <trkpt lat="40.551347" lon="0.529664">
        <ele>8.973</ele>
        <time>1970-01-01T01:45:58Z</time>
      </trkpt>
      <trkpt lat="40.551308" lon="0.529639">
        <ele>8.890</ele>
        <time>1970-01-01T01:45:59Z</time>
      </trkpt>
      <trkpt lat="40.551270" lon="0.529615">
        <ele>8.741</ele>
        <time>1970-01-01T01:46:00Z</time>
      </trkpt>
      <trkpt lat="40.551230" lon="0.529590">
        <ele>8.774</ele>
        <time>1970-01-01T01:46:01Z</time>
      </trkpt>
      <trkpt lat="40.551190" lon="0.529562">
        <ele>8.724</ele>
        <time>1970-01-01T01:46:02Z</time>
      </trkpt>
      <trkpt lat="40.551149" lon="0.529531">
        <ele>8.760</ele>
        <time>1970-01-01T01:46:03Z</time>
      </trkpt>
      <trkpt lat="40.551104" lon="0.529503">
        <ele>8.854</ele>
        <time>1970-01-01T01:46:04Z</time>
      </trkpt>
      <trkpt lat="40.551060" lon="0.529476">
        <ele>8.985</ele>
        <time>1970-01-01T01:46:05Z</time>
      </trkpt>
      <trkpt lat="40.551014" lon="0.529448">
        <ele>9.057</ele>
        <time>1970-01-01T01:46:06Z</time>
      </trkpt>
      <trkpt lat="40.550965" lon="0.529426">
        <ele>9.100</ele>
        <time>1970-01-01T01:46:07Z</time>
      </trkpt>
      <trkpt lat="40.550918" lon="0.529397">
        <ele>9.220</ele>
        <time>1970-01-01T01:46:08Z</time>
      </trkpt>
      <trkpt lat="40.550871" lon="0.529368">
        <ele>9.308</ele>
        <time>1970-01-01T01:46:09Z</time>
      </trkpt>
      <trkpt lat="40.550824" lon="0.529341">
        <ele>9.322</ele>
        <time>1970-01-01T01:46:10Z</time>
      </trkpt>
      <trkpt lat="40.550776" lon="0.529309">
        <ele>9.229</ele>
        <time>1970-01-01T01:46:11Z</time>
      </trkpt>
      <trkpt lat="40.550728" lon="0.529279">
        <ele>9.110</ele>
        <time>1970-01-01T01:46:12Z</time>
      </trkpt>
      <trkpt lat="40.550677" lon="0.529259">
        <ele>8.933</ele>
        <time>1970-01-01T01:46:13Z</time>
      </trkpt>
      <trkpt lat="40.550630" lon="0.529239">
        <ele>8.883</ele>
        <time>1970-01-01T01:46:14Z</time>
      </trkpt>
      <trkpt lat="40.550582" lon="0.529216">
        <ele>8.839</ele>
        <time>1970-01-01T01:46:15Z</time>
      </trkpt>
      <trkpt lat="40.550535" lon="0.529189">
        <ele>8.773</ele>
        <time>1970-01-01T01:46:16Z</time>
      </trkpt>
      <trkpt lat="40.550488" lon="0.529162">
        <ele>8.544</ele>
        <time>1970-01-01T01:46:17Z</time>
      </trkpt>
      <trkpt lat="40.550441" lon="0.529135">
        <ele>8.223</ele>
        <time>1970-01-01T01:46:18Z</time>
      </trkpt>
      <trkpt lat="40.550394" lon="0.529107">
        <ele>7.883</ele>
        <time>1970-01-01T01:46:19Z</time>
      </trkpt>
      <trkpt lat="40.550349" lon="0.529077">
        <ele>7.511</ele>
        <time>1970-01-01T01:46:20Z</time>
      </trkpt>
      <trkpt lat="40.550306" lon="0.529039">
        <ele>7.208</ele>
        <time>1970-01-01T01:46:21Z</time>
      </trkpt>
      <trkpt lat="40.550261" lon="0.529000">
        <ele>7.149</ele>
        <time>1970-01-01T01:46:22Z</time>
      </trkpt>
      <trkpt lat="40.550216" lon="0.528956">
        <ele>7.266</ele>
        <time>1970-01-01T01:46:23Z</time>
      </trkpt>
      <trkpt lat="40.550171" lon="0.528910">
        <ele>7.417</ele>
        <time>1970-01-01T01:46:24Z</time>
      </trkpt>
      <trkpt lat="40.550128" lon="0.528859">
        <ele>7.430</ele>
        <time>1970-01-01T01:46:25Z</time>
      </trkpt>
      <trkpt lat="40.550083" lon="0.528813">
        <ele>7.320</ele>
        <time>1970-01-01T01:46:26Z</time>
      </trkpt>
      <trkpt lat="40.550037" lon="0.528770">
        <ele>7.116</ele>
        <time>1970-01-01T01:46:27Z</time>
      </trkpt>
      <trkpt lat="40.549990" lon="0.528727">
        <ele>6.830</ele>
        <time>1970-01-01T01:46:28Z</time>
      </trkpt>
      <trkpt lat="40.549945" lon="0.528677">
        <ele>6.471</ele>
        <time>1970-01-01T01:46:29Z</time>
      </trkpt>
      <trkpt lat="40.549899" lon="0.528629">
        <ele>6.189</ele>
        <time>1970-01-01T01:46:30Z</time>
      </trkpt>
      <trkpt lat="40.549853" lon="0.528581">
        <ele>6.006</ele>
        <time>1970-01-01T01:46:31Z</time>
      </trkpt>
      <trkpt lat="40.549809" lon="0.528533">
        <ele>6.026</ele>
        <time>1970-01-01T01:46:32Z</time>
      </trkpt>
      <trkpt lat="40.549764" lon="0.528484">
        <ele>6.008</ele>
        <time>1970-01-01T01:46:33Z</time>
      </trkpt>
      <trkpt lat="40.549721" lon="0.528433">
        <ele>6.075</ele>
        <time>1970-01-01T01:46:34Z</time>
      </trkpt>
      <trkpt lat="40.549679" lon="0.528381">
        <ele>5.722</ele>
        <time>1970-01-01T01:46:35Z</time>
      </trkpt>
      <trkpt lat="40.549637" lon="0.528326">
        <ele>5.343</ele>
        <time>1970-01-01T01:46:36Z</time>
      </trkpt>
      <trkpt lat="40.549597" lon="0.528271">
        <ele>4.576</ele>
        <time>1970-01-01T01:46:37Z</time>
      </trkpt>
      <trkpt lat="40.549557" lon="0.528215">
        <ele>3.816</ele>
        <time>1970-01-01T01:46:38Z</time>
      </trkpt>
      <trkpt lat="40.549518" lon="0.528159">
        <ele>3.192</ele>
        <time>1970-01-01T01:46:39Z</time>
      </trkpt>
      <trkpt lat="40.549478" lon="0.528101">
        <ele>2.596</ele>
        <time>1970-01-01T01:46:40Z</time>
      </trkpt>
      <trkpt lat="40.549436" lon="0.528043">
        <ele>1.967</ele>
        <time>1970-01-01T01:46:41Z</time>
      </trkpt>
      <trkpt lat="40.549395" lon="0.527987">
        <ele>1.681</ele>
        <time>1970-01-01T01:46:42Z</time>
      </trkpt>
      <trkpt lat="40.549351" lon="0.527931">
        <ele>1.461</ele>
        <time>1970-01-01T01:46:43Z</time>
      </trkpt>
      <trkpt lat="40.549307" lon="0.527876">
        <ele>1.217</ele>
        <time>1970-01-01T01:46:44Z</time>
      </trkpt>
      <trkpt lat="40.549263" lon="0.527824">
        <ele>1.108</ele>
        <time>1970-01-01T01:46:45Z</time>
      </trkpt>
      <trkpt lat="40.549220" lon="0.527773">
        <ele>1.085</ele>
        <time>1970-01-01T01:46:46Z</time>
      </trkpt>
      <trkpt lat="40.549180" lon="0.527723">
        <ele>0.832</ele>
        <time>1970-01-01T01:46:47Z</time>
      </trkpt>
      <trkpt lat="40.549140" lon="0.527671">
        <ele>0.793</ele>
        <time>1970-01-01T01:46:48Z</time>
      </trkpt>
      <trkpt lat="40.549102" lon="0.527618">
        <ele>0.726</ele>
        <time>1970-01-01T01:46:49Z</time>
      </trkpt>
      <trkpt lat="40.549063" lon="0.527564">
        <ele>0.636</ele>
        <time>1970-01-01T01:46:50Z</time>
      </trkpt>
      <trkpt lat="40.549022" lon="0.527512">
        <ele>0.642</ele>
        <time>1970-01-01T01:46:51Z</time>
      </trkpt>
      <trkpt lat="40.548982" lon="0.527462">
        <ele>0.636</ele>
        <time>1970-01-01T01:46:52Z</time>
      </trkpt>
      <trkpt lat="40.548941" lon="0.527411">
        <ele>0.637</ele>
        <time>1970-01-01T01:46:53Z</time>
      </trkpt>
      <trkpt lat="40.548902" lon="0.527359">
        <ele>0.559</ele>
        <time>1970-01-01T01:46:54Z</time>
      </trkpt>
      <trkpt lat="40.548861" lon="0.527307">
        <ele>0.803</ele>
        <time>1970-01-01T01:46:55Z</time>
      </trkpt>
      <trkpt lat="40.548820" lon="0.527252">
        <ele>1.323</ele>
        <time>1970-01-01T01:46:56Z</time>
      </trkpt>
      <trkpt lat="40.548781" lon="0.527197">
        <ele>1.908</ele>
        <time>1970-01-01T01:46:57Z</time>
      </trkpt>
      <trkpt lat="40.548745" lon="0.527141">
        <ele>2.342</ele>
        <time>1970-01-01T01:46:58Z</time>
      </trkpt>
      <trkpt lat="40.548705" lon="0.527089">
        <ele>2.749</ele>
        <time>1970-01-01T01:46:59Z</time>
      </trkpt>
      <trkpt lat="40.548663" lon="0.527036">
        <ele>3.060</ele>
        <time>1970-01-01T01:47:00Z</time>
      </trkpt>
      <trkpt lat="40.548620" lon="0.526983">
        <ele>3.273</ele>
        <time>1970-01-01T01:47:01Z</time>
      </trkpt>
      <trkpt lat="40.548577" lon="0.526935">
        <ele>3.273</ele>
        <time>1970-01-01T01:47:02Z</time>
      </trkpt>
      <trkpt lat="40.548531" lon="0.526887">
        <ele>3.499</ele>
        <time>1970-01-01T01:47:03Z</time>
      </trkpt>
      <trkpt lat="40.548488" lon="0.526838">
        <ele>3.533</ele>
        <time>1970-01-01T01:47:04Z</time>
      </trkpt>
      <trkpt lat="40.548445" lon="0.526785">
        <ele>3.614</ele>
        <time>1970-01-01T01:47:05Z</time>
      </trkpt>
      <trkpt lat="40.548404" lon="0.526729">
        <ele>3.792</ele>
        <time>1970-01-01T01:47:06Z</time>
      </trkpt>
      <trkpt lat="40.548369" lon="0.526667">
        <ele>3.773</ele>
        <time>1970-01-01T01:47:07Z</time>
      </trkpt>
      <trkpt lat="40.548335" lon="0.526602">
        <ele>3.320</ele>
        <time>1970-01-01T01:47:08Z</time>
      </trkpt>
      <trkpt lat="40.548297" lon="0.526539">
        <ele>2.708</ele>
        <time>1970-01-01T01:47:09Z</time>
      </trkpt>
      <trkpt lat="40.548257" lon="0.526481">
        <ele>2.446</ele>
        <time>1970-01-01T01:47:10Z</time>
      </trkpt>
      <trkpt lat="40.548216" lon="0.526425">
        <ele>2.163</ele>
        <time>1970-01-01T01:47:11Z</time>
      </trkpt>
      <trkpt lat="40.548176" lon="0.526369">
        <ele>2.064</ele>
        <time>1970-01-01T01:47:12Z</time>
      </trkpt>
      <trkpt lat="40.548135" lon="0.526311">
        <ele>2.127</ele>
        <time>1970-01-01T01:47:13Z</time>
      </trkpt>
      <trkpt lat="40.548093" lon="0.526254">
        <ele>2.297</ele>
        <time>1970-01-01T01:47:14Z</time>
      </trkpt>
      <trkpt lat="40.548051" lon="0.526198">
        <ele>2.333</ele>
        <time>1970-01-01T01:47:15Z</time>
      </trkpt>
      <trkpt lat="40.548009" lon="0.526144">
        <ele>2.317</ele>
        <time>1970-01-01T01:47:16Z</time>
      </trkpt>
      <trkpt lat="40.547967" lon="0.526090">
        <ele>2.438</ele>
        <time>1970-01-01T01:47:17Z</time>
      </trkpt>
      <trkpt lat="40.547925" lon="0.526036">
        <ele>2.966</ele>
        <time>1970-01-01T01:47:18Z</time>
      </trkpt>
      <trkpt lat="40.547884" lon="0.525980">
        <ele>3.429</ele>
        <time>1970-01-01T01:47:19Z</time>
      </trkpt>
      <trkpt lat="40.547842" lon="0.525925">
        <ele>4.021</ele>
        <time>1970-01-01T01:47:20Z</time>
      </trkpt>
      <trkpt lat="40.547799" lon="0.525870">
        <ele>4.608</ele>
        <time>1970-01-01T01:47:21Z</time>
      </trkpt>
      <trkpt lat="40.547757" lon="0.525814">
        <ele>5.113</ele>
        <time>1970-01-01T01:47:22Z</time>
      </trkpt>
      <trkpt lat="40.547715" lon="0.525759">
        <ele>5.260</ele>
        <time>1970-01-01T01:47:23Z</time>
      </trkpt>
      <trkpt lat="40.547673" lon="0.525704">
        <ele>5.321</ele>
        <time>1970-01-01T01:47:24Z</time>
      </trkpt>
      <trkpt lat="40.547631" lon="0.525651">
        <ele>5.374</ele>
        <time>1970-01-01T01:47:25Z</time>
      </trkpt>
      <trkpt lat="40.547589" lon="0.525597">
        <ele>5.334</ele>
        <time>1970-01-01T01:47:26Z</time>
      </trkpt>
      <trkpt lat="40.547546" lon="0.525545">
        <ele>5.220</ele>
        <time>1970-01-01T01:47:27Z</time>
      </trkpt>
      <trkpt lat="40.547502" lon="0.525496">
        <ele>5.034</ele>
        <time>1970-01-01T01:47:28Z</time>
      </trkpt>
      <trkpt lat="40.547458" lon="0.525444">
        <ele>5.215</ele>
        <time>1970-01-01T01:47:29Z</time>
      </trkpt>
      <trkpt lat="40.547417" lon="0.525390">
        <ele>5.272</ele>
        <time>1970-01-01T01:47:30Z</time>
      </trkpt>
      <trkpt lat="40.547374" lon="0.525340">
        <ele>5.213</ele>
        <time>1970-01-01T01:47:31Z</time>
      </trkpt>
      <trkpt lat="40.547329" lon="0.525293">
        <ele>5.114</ele>
        <time>1970-01-01T01:47:32Z</time>
      </trkpt>
      <trkpt lat="40.547284" lon="0.525243">
        <ele>4.808</ele>
        <time>1970-01-01T01:47:33Z</time>
      </trkpt>
      <trkpt lat="40.547240" lon="0.525192">
        <ele>4.494</ele>
        <time>1970-01-01T01:47:34Z</time>
      </trkpt>
      <trkpt lat="40.547197" lon="0.525144">
        <ele>4.131</ele>
        <time>1970-01-01T01:47:35Z</time>
      </trkpt>
      <trkpt lat="40.547152" lon="0.525096">
        <ele>3.812</ele>
        <time>1970-01-01T01:47:36Z</time>
      </trkpt>
      <trkpt lat="40.547106" lon="0.525048">
        <ele>3.435</ele>
        <time>1970-01-01T01:47:37Z</time>
      </trkpt>
      <trkpt lat="40.547058" lon="0.524999">
        <ele>3.075</ele>
        <time>1970-01-01T01:47:38Z</time>
      </trkpt>
      <trkpt lat="40.547010" lon="0.524951">
        <ele>2.971</ele>
        <time>1970-01-01T01:47:39Z</time>
      </trkpt>
      <trkpt lat="40.546961" lon="0.524904">
        <ele>2.735</ele>
        <time>1970-01-01T01:47:40Z</time>
      </trkpt>
      <trkpt lat="40.546912" lon="0.524857">
        <ele>2.466</ele>
        <time>1970-01-01T01:47:41Z</time>
      </trkpt>
      <trkpt lat="40.546863" lon="0.524811">
        <ele>2.177</ele>
        <time>1970-01-01T01:47:42Z</time>
      </trkpt>
      <trkpt lat="40.546813" lon="0.524766">
        <ele>1.861</ele>
        <time>1970-01-01T01:47:43Z</time>
      </trkpt>
      <trkpt lat="40.546763" lon="0.524721">
        <ele>1.327</ele>
        <time>1970-01-01T01:47:44Z</time>
      </trkpt>
      <trkpt lat="40.546713" lon="0.524677">
        <ele>1.008</ele>
        <time>1970-01-01T01:47:45Z</time>
      </trkpt>
      <trkpt lat="40.546662" lon="0.524633">
        <ele>0.734</ele>
        <time>1970-01-01T01:47:46Z</time>
      </trkpt>
      <trkpt lat="40.546610" lon="0.524590">
        <ele>0.981</ele>
        <time>1970-01-01T01:47:47Z</time>
      </trkpt>
      <trkpt lat="40.546558" lon="0.524550">
        <ele>1.272</ele>
        <time>1970-01-01T01:47:48Z</time>
      </trkpt>
      <trkpt lat="40.546503" lon="0.524511">
        <ele>1.465</ele>
        <time>1970-01-01T01:47:49Z</time>
      </trkpt>
      <trkpt lat="40.546448" lon="0.524474">
        <ele>1.715</ele>
        <time>1970-01-01T01:47:50Z</time>
      </trkpt>
      <trkpt lat="40.546392" lon="0.524439">
        <ele>2.011</ele>
        <time>1970-01-01T01:47:51Z</time>
      </trkpt>
      <trkpt lat="40.546337" lon="0.524404">
        <ele>2.395</ele>
        <time>1970-01-01T01:47:52Z</time>
      </trkpt>
      <trkpt lat="40.546282" lon="0.524368">
        <ele>2.726</ele>
        <time>1970-01-01T01:47:53Z</time>
      </trkpt>
      <trkpt lat="40.546226" lon="0.524331">
        <ele>2.954</ele>
        <time>1970-01-01T01:47:54Z</time>
      </trkpt>
      <trkpt lat="40.546171" lon="0.524294">
        <ele>3.156</ele>
        <time>1970-01-01T01:47:55Z</time>
      </trkpt>
      <trkpt lat="40.546115" lon="0.524259">
        <ele>3.311</ele>
        <time>1970-01-01T01:47:56Z</time>
      </trkpt>
      <trkpt lat="40.546059" lon="0.524226">
        <ele>3.108</ele>
        <time>1970-01-01T01:47:57Z</time>
      </trkpt>
      <trkpt lat="40.546003" lon="0.524191">
        <ele>3.032</ele>
        <time>1970-01-01T01:47:58Z</time>
      </trkpt>
      <trkpt lat="40.545947" lon="0.524154">
        <ele>3.089</ele>
        <time>1970-01-01T01:47:59Z</time>
      </trkpt>
      <trkpt lat="40.545893" lon="0.524114">
        <ele>3.060</ele>
        <time>1970-01-01T01:48:00Z</time>
      </trkpt>
      <trkpt lat="40.545839" lon="0.524076">
        <ele>3.043</ele>
        <time>1970-01-01T01:48:01Z</time>
      </trkpt>
      <trkpt lat="40.545783" lon="0.524041">
        <ele>2.953</ele>
        <time>1970-01-01T01:48:02Z</time>
      </trkpt>
      <trkpt lat="40.545729" lon="0.524008">
        <ele>2.899</ele>
        <time>1970-01-01T01:48:03Z</time>
      </trkpt>
      <trkpt lat="40.545674" lon="0.523973">
        <ele>2.813</ele>
        <time>1970-01-01T01:48:04Z</time>
      </trkpt>
      <trkpt lat="40.545620" lon="0.523936">
        <ele>2.914</ele>
        <time>1970-01-01T01:48:05Z</time>
      </trkpt>
      <trkpt lat="40.545569" lon="0.523894">
        <ele>3.093</ele>
        <time>1970-01-01T01:48:06Z</time>
      </trkpt>
      <trkpt lat="40.545519" lon="0.523852">
        <ele>3.065</ele>
        <time>1970-01-01T01:48:07Z</time>
      </trkpt>
      <trkpt lat="40.545469" lon="0.523810">
        <ele>3.021</ele>
        <time>1970-01-01T01:48:08Z</time>
      </trkpt>
      <trkpt lat="40.545420" lon="0.523769">
        <ele>3.008</ele>
        <time>1970-01-01T01:48:09Z</time>
      </trkpt>
      <trkpt lat="40.545370" lon="0.523729">
        <ele>3.056</ele>
        <time>1970-01-01T01:48:10Z</time>
      </trkpt>
      <trkpt lat="40.545318" lon="0.523694">
        <ele>3.043</ele>
        <time>1970-01-01T01:48:11Z</time>
      </trkpt>
      <trkpt lat="40.545270" lon="0.523652">
        <ele>3.094</ele>
        <time>1970-01-01T01:48:12Z</time>
      </trkpt>
      <trkpt lat="40.545222" lon="0.523605">
        <ele>3.067</ele>
        <time>1970-01-01T01:48:13Z</time>
      </trkpt>
      <trkpt lat="40.545173" lon="0.523559">
        <ele>2.747</ele>
        <time>1970-01-01T01:48:14Z</time>
      </trkpt>
      <trkpt lat="40.545124" lon="0.523515">
        <ele>2.563</ele>
        <time>1970-01-01T01:48:15Z</time>
      </trkpt>
      <trkpt lat="40.545073" lon="0.523477">
        <ele>2.287</ele>
        <time>1970-01-01T01:48:16Z</time>
      </trkpt>
      <trkpt lat="40.545021" lon="0.523440">
        <ele>1.838</ele>
        <time>1970-01-01T01:48:17Z</time>
      </trkpt>
      <trkpt lat="40.544971" lon="0.523402">
        <ele>1.552</ele>
        <time>1970-01-01T01:48:18Z</time>
      </trkpt>
      <trkpt lat="40.544921" lon="0.523363">
        <ele>1.253</ele>
        <time>1970-01-01T01:48:19Z</time>
      </trkpt>
      <trkpt lat="40.544871" lon="0.523322">
        <ele>1.008</ele>
        <time>1970-01-01T01:48:20Z</time>
      </trkpt>
      <trkpt lat="40.544821" lon="0.523281">
        <ele>0.908</ele>
        <time>1970-01-01T01:48:21Z</time>
      </trkpt>
      <trkpt lat="40.544771" lon="0.523244">
        <ele>0.912</ele>
        <time>1970-01-01T01:48:22Z</time>
      </trkpt>
      <trkpt lat="40.544721" lon="0.523205">
        <ele>1.099</ele>
        <time>1970-01-01T01:48:23Z</time>
      </trkpt>
      <trkpt lat="40.544672" lon="0.523166">
        <ele>1.490</ele>
        <time>1970-01-01T01:48:24Z</time>
      </trkpt>
      <trkpt lat="40.544623" lon="0.523125">
        <ele>1.763</ele>
        <time>1970-01-01T01:48:25Z</time>
      </trkpt>
      <trkpt lat="40.544575" lon="0.523083">
        <ele>2.153</ele>
        <time>1970-01-01T01:48:26Z</time>
      </trkpt>
      <trkpt lat="40.544526" lon="0.523043">
        <ele>2.529</ele>
        <time>1970-01-01T01:48:27Z</time>
      </trkpt>
      <trkpt lat="40.544475" lon="0.523004">
        <ele>3.033</ele>
        <time>1970-01-01T01:48:28Z</time>
      </trkpt>
      <trkpt lat="40.544425" lon="0.522964">
        <ele>3.394</ele>
        <time>1970-01-01T01:48:29Z</time>
      </trkpt>
      <trkpt lat="40.544375" lon="0.522923">
        <ele>3.489</ele>
        <time>1970-01-01T01:48:30Z</time>
      </trkpt>
      <trkpt lat="40.544325" lon="0.522882">
        <ele>3.406</ele>
        <time>1970-01-01T01:48:31Z</time>
      </trkpt>
      <trkpt lat="40.544274" lon="0.522842">
        <ele>3.326</ele>
        <time>1970-01-01T01:48:32Z</time>
      </trkpt>
      <trkpt lat="40.544225" lon="0.522804">
        <ele>3.208</ele>
        <time>1970-01-01T01:48:33Z</time>
      </trkpt>
      <trkpt lat="40.544175" lon="0.522766">
        <ele>3.185</ele>
        <time>1970-01-01T01:48:34Z</time>
      </trkpt>
      <trkpt lat="40.544125" lon="0.522728">
        <ele>3.222</ele>
        <time>1970-01-01T01:48:35Z</time>
      </trkpt>
      <trkpt lat="40.544075" lon="0.522689">
        <ele>3.383</ele>
        <time>1970-01-01T01:48:36Z</time>
      </trkpt>
      <trkpt lat="40.544026" lon="0.522651">
        <ele>3.536</ele>
        <time>1970-01-01T01:48:37Z</time>
      </trkpt>
      <trkpt lat="40.543977" lon="0.522611">
        <ele>3.616</ele>
        <time>1970-01-01T01:48:38Z</time>
      </trkpt>
      <trkpt lat="40.543928" lon="0.522569">
        <ele>3.832</ele>
        <time>1970-01-01T01:48:39Z</time>
      </trkpt>
      <trkpt lat="40.543878" lon="0.522529">
        <ele>3.916</ele>
        <time>1970-01-01T01:48:40Z</time>
      </trkpt>
      <trkpt lat="40.543827" lon="0.522491">
        <ele>4.097</ele>
        <time>1970-01-01T01:48:41Z</time>
      </trkpt>
      <trkpt lat="40.543777" lon="0.522454">
        <ele>4.086</ele>
        <time>1970-01-01T01:48:42Z</time>
      </trkpt>
      <trkpt lat="40.543727" lon="0.522417">
        <ele>4.060</ele>
        <time>1970-01-01T01:48:43Z</time>
      </trkpt>
      <trkpt lat="40.543678" lon="0.522378">
        <ele>4.026</ele>
        <time>1970-01-01T01:48:44Z</time>
      </trkpt>
      <trkpt lat="40.543630" lon="0.522335">
        <ele>4.008</ele>
        <time>1970-01-01T01:48:45Z</time>
      </trkpt>
      <trkpt lat="40.543582" lon="0.522292">
        <ele>3.835</ele>
        <time>1970-01-01T01:48:46Z</time>
      </trkpt>
      <trkpt lat="40.543533" lon="0.522251">
        <ele>3.552</ele>
        <time>1970-01-01T01:48:47Z</time>
      </trkpt>
      <trkpt lat="40.543484" lon="0.522212">
        <ele>3.083</ele>
        <time>1970-01-01T01:48:48Z</time>
      </trkpt>
      <trkpt lat="40.543434" lon="0.522175">
        <ele>2.696</ele>
        <time>1970-01-01T01:48:49Z</time>
      </trkpt>
      <trkpt lat="40.543383" lon="0.522137">
        <ele>2.196</ele>
        <time>1970-01-01T01:48:50Z</time>
      </trkpt>
      <trkpt lat="40.543333" lon="0.522097">
        <ele>1.552</ele>
        <time>1970-01-01T01:48:51Z</time>
      </trkpt>
      <trkpt lat="40.543284" lon="0.522059">
        <ele>1.266</ele>
        <time>1970-01-01T01:48:52Z</time>
      </trkpt>
      <trkpt lat="40.543234" lon="0.522025">
        <ele>0.997</ele>
        <time>1970-01-01T01:48:53Z</time>
      </trkpt>
      <trkpt lat="40.543184" lon="0.521989">
        <ele>0.643</ele>
        <time>1970-01-01T01:48:54Z</time>
      </trkpt>
      <trkpt lat="40.543134" lon="0.521952">
        <ele>0.364</ele>
        <time>1970-01-01T01:48:55Z</time>
      </trkpt>
      <trkpt lat="40.543085" lon="0.521914">
        <ele>0.110</ele>
        <time>1970-01-01T01:48:56Z</time>
      </trkpt>
      <trkpt lat="40.543035" lon="0.521878">
        <ele>0.108</ele>
        <time>1970-01-01T01:48:57Z</time>
      </trkpt>
      <trkpt lat="40.542985" lon="0.521844">
        <ele>0.531</ele>
        <time>1970-01-01T01:48:58Z</time>
      </trkpt>
      <trkpt lat="40.542935" lon="0.521810">
        <ele>0.938</ele>
        <time>1970-01-01T01:48:59Z</time>
      </trkpt>
      <trkpt lat="40.542883" lon="0.521777">
        <ele>1.219</ele>
        <time>1970-01-01T01:49:00Z</time>
      </trkpt>
      <trkpt lat="40.542831" lon="0.521744">
        <ele>1.642</ele>
        <time>1970-01-01T01:49:01Z</time>
      </trkpt>
      <trkpt lat="40.542779" lon="0.521713">
        <ele>2.032</ele>
        <time>1970-01-01T01:49:02Z</time>
      </trkpt>
      <trkpt lat="40.542724" lon="0.521685">
        <ele>2.218</ele>
        <time>1970-01-01T01:49:03Z</time>
      </trkpt>
      <trkpt lat="40.542670" lon="0.521659">
        <ele>2.472</ele>
        <time>1970-01-01T01:49:04Z</time>
      </trkpt>
      <trkpt lat="40.542615" lon="0.521636">
        <ele>2.593</ele>
        <time>1970-01-01T01:49:05Z</time>
      </trkpt>
      <trkpt lat="40.542560" lon="0.521612">
        <ele>2.688</ele>
        <time>1970-01-01T01:49:06Z</time>
      </trkpt>
      <trkpt lat="40.542504" lon="0.521587">
        <ele>2.724</ele>
        <time>1970-01-01T01:49:07Z</time>
      </trkpt>
      <trkpt lat="40.542449" lon="0.521564">
        <ele>2.526</ele>
        <time>1970-01-01T01:49:08Z</time>
      </trkpt>
      <trkpt lat="40.542393" lon="0.521544">
        <ele>2.308</ele>
        <time>1970-01-01T01:49:09Z</time>
      </trkpt>
      <trkpt lat="40.542337" lon="0.521525">
        <ele>2.235</ele>
        <time>1970-01-01T01:49:10Z</time>
      </trkpt>
      <trkpt lat="40.542281" lon="0.521506">
        <ele>2.152</ele>
        <time>1970-01-01T01:49:11Z</time>
      </trkpt>
      <trkpt lat="40.542224" lon="0.521489">
        <ele>2.073</ele>
        <time>1970-01-01T01:49:12Z</time>
      </trkpt>
      <trkpt lat="40.542167" lon="0.521473">
        <ele>2.046</ele>
        <time>1970-01-01T01:49:13Z</time>
      </trkpt>
      <trkpt lat="40.542110" lon="0.521459">
        <ele>2.076</ele>
        <time>1970-01-01T01:49:14Z</time>
      </trkpt>
      <trkpt lat="40.542052" lon="0.521446">
        <ele>2.062</ele>
        <time>1970-01-01T01:49:15Z</time>
      </trkpt>
      <trkpt lat="40.541995" lon="0.521434">
        <ele>2.026</ele>
        <time>1970-01-01T01:49:16Z</time>
      </trkpt>
      <trkpt lat="40.541937" lon="0.521427">
        <ele>2.017</ele>
        <time>1970-01-01T01:49:17Z</time>
      </trkpt>
      <trkpt lat="40.541878" lon="0.521421">
        <ele>2.031</ele>
        <time>1970-01-01T01:49:18Z</time>
      </trkpt>
      <trkpt lat="40.541819" lon="0.521415">
        <ele>2.061</ele>
        <time>1970-01-01T01:49:19Z</time>
      </trkpt>
      <trkpt lat="40.541760" lon="0.521408">
        <ele>2.007</ele>
        <time>1970-01-01T01:49:20Z</time>
      </trkpt>
      <trkpt lat="40.541700" lon="0.521401">
        <ele>2.008</ele>
        <time>1970-01-01T01:49:21Z</time>
      </trkpt>
      <trkpt lat="40.541641" lon="0.521396">
        <ele>2.080</ele>
        <time>1970-01-01T01:49:22Z</time>
      </trkpt>
      <trkpt lat="40.541582" lon="0.521391">
        <ele>2.087</ele>
        <time>1970-01-01T01:49:23Z</time>
      </trkpt>
      <trkpt lat="40.541522" lon="0.521388">
        <ele>2.018</ele>
        <time>1970-01-01T01:49:24Z</time>
      </trkpt>
      <trkpt lat="40.541463" lon="0.521390">
        <ele>2.061</ele>
        <time>1970-01-01T01:49:25Z</time>
      </trkpt>
      <trkpt lat="40.541404" lon="0.521394">
        <ele>2.081</ele>
        <time>1970-01-01T01:49:26Z</time>
      </trkpt>
      <trkpt lat="40.541345" lon="0.521398">
        <ele>2.057</ele>
        <time>1970-01-01T01:49:27Z</time>
      </trkpt>
      <trkpt lat="40.541286" lon="0.521400">
        <ele>2.021</ele>
        <time>1970-01-01T01:49:28Z</time>
      </trkpt>
      <trkpt lat="40.541228" lon="0.521403">
        <ele>2.022</ele>
        <time>1970-01-01T01:49:29Z</time>
      </trkpt>
      <trkpt lat="40.541171" lon="0.521410">
        <ele>2.022</ele>
        <time>1970-01-01T01:49:30Z</time>
      </trkpt>
      <trkpt lat="40.541114" lon="0.521416">
        <ele>2.062</ele>
        <time>1970-01-01T01:49:31Z</time>
      </trkpt>
      <trkpt lat="40.541057" lon="0.521426">
        <ele>1.608</ele>
        <time>1970-01-01T01:49:32Z</time>
      </trkpt>
      <trkpt lat="40.541001" lon="0.521438">
        <ele>1.208</ele>
        <time>1970-01-01T01:49:33Z</time>
      </trkpt>
      <trkpt lat="40.540946" lon="0.521450">
        <ele>0.849</ele>
        <time>1970-01-01T01:49:34Z</time>
      </trkpt>
      <trkpt lat="40.540892" lon="0.521463">
        <ele>0.436</ele>
        <time>1970-01-01T01:49:35Z</time>
      </trkpt>
      <trkpt lat="40.540838" lon="0.521476">
        <ele>0.067</ele>
        <time>1970-01-01T01:49:36Z</time>
      </trkpt>
      <trkpt lat="40.540784" lon="0.521490">
        <ele>-0.190</ele>
        <time>1970-01-01T01:49:37Z</time>
      </trkpt>
      <trkpt lat="40.540730" lon="0.521503">
        <ele>-0.230</ele>
        <time>1970-01-01T01:49:38Z</time>
      </trkpt>
      <trkpt lat="40.540677" lon="0.521515">
        <ele>-0.316</ele>
        <time>1970-01-01T01:49:39Z</time>
      </trkpt>
      <trkpt lat="40.540627" lon="0.521528">
        <ele>-0.410</ele>
        <time>1970-01-01T01:49:40Z</time>
      </trkpt>
      <trkpt lat="40.540577" lon="0.521543">
        <ele>-0.521</ele>
        <time>1970-01-01T01:49:41Z</time>
      </trkpt>
      <trkpt lat="40.540530" lon="0.521561">
        <ele>-0.562</ele>
        <time>1970-01-01T01:49:42Z</time>
      </trkpt>
      <trkpt lat="40.540483" lon="0.521579">
        <ele>-0.483</ele>
        <time>1970-01-01T01:49:43Z</time>
      </trkpt>
      <trkpt lat="40.540437" lon="0.521595">
        <ele>-0.311</ele>
        <time>1970-01-01T01:49:44Z</time>
      </trkpt>
      <trkpt lat="40.540393" lon="0.521612">
        <ele>-0.208</ele>
        <time>1970-01-01T01:49:45Z</time>
      </trkpt>
      <trkpt lat="40.540349" lon="0.521630">
        <ele>-0.163</ele>
        <time>1970-01-01T01:49:46Z</time>
      </trkpt>
      <trkpt lat="40.540305" lon="0.521645">
        <ele>-0.040</ele>
        <time>1970-01-01T01:49:47Z</time>
      </trkpt>
      <trkpt lat="40.540261" lon="0.521654">
        <ele>0.281</ele>
        <time>1970-01-01T01:49:48Z</time>
      </trkpt>
      <trkpt lat="40.540216" lon="0.521661">
        <ele>0.594</ele>
        <time>1970-01-01T01:49:49Z</time>
      </trkpt>
      <trkpt lat="40.540172" lon="0.521675">
        <ele>0.884</ele>
        <time>1970-01-01T01:49:50Z</time>
      </trkpt>
      <trkpt lat="40.540136" lon="0.521709">
        <ele>1.040</ele>
        <time>1970-01-01T01:49:51Z</time>
      </trkpt>
      <trkpt lat="40.540114" lon="0.521760">
        <ele>1.284</ele>
        <time>1970-01-01T01:49:52Z</time>
      </trkpt>
      <trkpt lat="40.540100" lon="0.521817">
        <ele>1.395</ele>
        <time>1970-01-01T01:49:53Z</time>
      </trkpt>
      <trkpt lat="40.540087" lon="0.521874">
        <ele>1.471</ele>
        <time>1970-01-01T01:49:54Z</time>
      </trkpt>
      <trkpt lat="40.540069" lon="0.521925">
        <ele>1.541</ele>
        <time>1970-01-01T01:49:55Z</time>
      </trkpt>
      <trkpt lat="40.540046" lon="0.521963">
        <ele>1.715</ele>
        <time>1970-01-01T01:49:56Z</time>
      </trkpt>
      <trkpt lat="40.540015" lon="0.521990">
        <ele>1.908</ele>
        <time>1970-01-01T01:49:57Z</time>
      </trkpt>
      <trkpt lat="40.539974" lon="0.522007">
        <ele>2.094</ele>
        <time>1970-01-01T01:49:58Z</time>
      </trkpt>
      <trkpt lat="40.539928" lon="0.522015">
        <ele>2.041</ele>
        <time>1970-01-01T01:49:59Z</time>
      </trkpt>
      <trkpt lat="40.539879" lon="0.522010">
        <ele>2.062</ele>
        <time>1970-01-01T01:50:00Z</time>
      </trkpt>
      <trkpt lat="40.539831" lon="0.522001">
        <ele>2.025</ele>
        <time>1970-01-01T01:50:01Z</time>
      </trkpt>
      <trkpt lat="40.539782" lon="0.521991">
        <ele>2.075</ele>
        <time>1970-01-01T01:50:02Z</time>
      </trkpt>
      <trkpt lat="40.539733" lon="0.521981">
        <ele>2.011</ele>
        <time>1970-01-01T01:50:03Z</time>
      </trkpt>
      <trkpt lat="40.539684" lon="0.521969">
        <ele>2.055</ele>
        <time>1970-01-01T01:50:04Z</time>
      </trkpt>
      <trkpt lat="40.539636" lon="0.521956">
        <ele>2.046</ele>
        <time>1970-01-01T01:50:05Z</time>
      </trkpt>
      <trkpt lat="40.539590" lon="0.521943">
        <ele>2.013</ele>
        <time>1970-01-01T01:50:06Z</time>
      </trkpt>
      <trkpt lat="40.539545" lon="0.521932">
        <ele>2.043</ele>
        <time>1970-01-01T01:50:07Z</time>
      </trkpt>
      <trkpt lat="40.539502" lon="0.521921">
        <ele>2.007</ele>
        <time>1970-01-01T01:50:08Z</time>
      </trkpt>
      <trkpt lat="40.539459" lon="0.521906">
        <ele>2.008</ele>
        <time>1970-01-01T01:50:09Z</time>
      </trkpt>
      <trkpt lat="40.539414" lon="0.521891">
        <ele>1.928</ele>
        <time>1970-01-01T01:50:10Z</time>
      </trkpt>
      <trkpt lat="40.539367" lon="0.521878">
        <ele>1.775</ele>
        <time>1970-01-01T01:50:11Z</time>
      </trkpt>
      <trkpt lat="40.539320" lon="0.521864">
        <ele>1.646</ele>
        <time>1970-01-01T01:50:12Z</time>
      </trkpt>
      <trkpt lat="40.539274" lon="0.521850">
        <ele>1.479</ele>
        <time>1970-01-01T01:50:13Z</time>
      </trkpt>
      <trkpt lat="40.539228" lon="0.521836">
        <ele>1.259</ele>
        <time>1970-01-01T01:50:14Z</time>
      </trkpt>
      <trkpt lat="40.539181" lon="0.521822">
        <ele>1.135</ele>
        <time>1970-01-01T01:50:15Z</time>
      </trkpt>
      <trkpt lat="40.539135" lon="0.521807">
        <ele>1.089</ele>
        <time>1970-01-01T01:50:16Z</time>
      </trkpt>
      <trkpt lat="40.539088" lon="0.521792">
        <ele>1.080</ele>
        <time>1970-01-01T01:50:17Z</time>
      </trkpt>
      <trkpt lat="40.539042" lon="0.521775">
        <ele>1.079</ele>
        <time>1970-01-01T01:50:18Z</time>
      </trkpt>
      <trkpt lat="40.538996" lon="0.521755">
        <ele>1.005</ele>
        <time>1970-01-01T01:50:19Z</time>
      </trkpt>
      <trkpt lat="40.538951" lon="0.521730">
        <ele>1.025</ele>
        <time>1970-01-01T01:50:20Z</time>
      </trkpt>
      <trkpt lat="40.538908" lon="0.521701">
        <ele>1.008</ele>
        <time>1970-01-01T01:50:21Z</time>
      </trkpt>
      <trkpt lat="40.538866" lon="0.521670">
        <ele>1.164</ele>
        <time>1970-01-01T01:50:22Z</time>
      </trkpt>
      <trkpt lat="40.538822" lon="0.521640">
        <ele>1.331</ele>
        <time>1970-01-01T01:50:23Z</time>
      </trkpt>
      <trkpt lat="40.538779" lon="0.521607">
        <ele>1.462</ele>
        <time>1970-01-01T01:50:24Z</time>
      </trkpt>
      <trkpt lat="40.538738" lon="0.521574">
        <ele>1.555</ele>
        <time>1970-01-01T01:50:25Z</time>
      </trkpt>
      <trkpt lat="40.538696" lon="0.521540">
        <ele>1.515</ele>
        <time>1970-01-01T01:50:26Z</time>
      </trkpt>
      <trkpt lat="40.538655" lon="0.521506">
        <ele>1.491</ele>
        <time>1970-01-01T01:50:27Z</time>
      </trkpt>
      <trkpt lat="40.538615" lon="0.521469">
        <ele>1.335</ele>
        <time>1970-01-01T01:50:28Z</time>
      </trkpt>
      <trkpt lat="40.538577" lon="0.521430">
        <ele>1.126</ele>
        <time>1970-01-01T01:50:29Z</time>
      </trkpt>
      <trkpt lat="40.538538" lon="0.521391">
        <ele>1.089</ele>
        <time>1970-01-01T01:50:30Z</time>
      </trkpt>
      <trkpt lat="40.538499" lon="0.521352">
        <ele>1.006</ele>
        <time>1970-01-01T01:50:31Z</time>
      </trkpt>
      <trkpt lat="40.538461" lon="0.521312">
        <ele>1.026</ele>
        <time>1970-01-01T01:50:32Z</time>
      </trkpt>
      <trkpt lat="40.538422" lon="0.521271">
        <ele>1.008</ele>
        <time>1970-01-01T01:50:33Z</time>
      </trkpt>
      <trkpt lat="40.538383" lon="0.521232">
        <ele>1.015</ele>
        <time>1970-01-01T01:50:34Z</time>
      </trkpt>
      <trkpt lat="40.538344" lon="0.521192">
        <ele>1.092</ele>
        <time>1970-01-01T01:50:35Z</time>
      </trkpt>
      <trkpt lat="40.538305" lon="0.521151">
        <ele>1.133</ele>
        <time>1970-01-01T01:50:36Z</time>
      </trkpt>
      <trkpt lat="40.538266" lon="0.521112">
        <ele>1.286</ele>
        <time>1970-01-01T01:50:37Z</time>
      </trkpt>
      <trkpt lat="40.538226" lon="0.521071">
        <ele>1.426</ele>
        <time>1970-01-01T01:50:38Z</time>
      </trkpt>
      <trkpt lat="40.538186" lon="0.521030">
        <ele>1.572</ele>
        <time>1970-01-01T01:50:39Z</time>
      </trkpt>
      <trkpt lat="40.538145" lon="0.520990">
        <ele>1.836</ele>
        <time>1970-01-01T01:50:40Z</time>
      </trkpt>
      <trkpt lat="40.538103" lon="0.520951">
        <ele>2.237</ele>
        <time>1970-01-01T01:50:41Z</time>
      </trkpt>
      <trkpt lat="40.538059" lon="0.520915">
        <ele>2.779</ele>
        <time>1970-01-01T01:50:42Z</time>
      </trkpt>
      <trkpt lat="40.538011" lon="0.520884">
        <ele>3.005</ele>
        <time>1970-01-01T01:50:43Z</time>
      </trkpt>
      <trkpt lat="40.537963" lon="0.520853">
        <ele>3.325</ele>
        <time>1970-01-01T01:50:44Z</time>
      </trkpt>
      <trkpt lat="40.537914" lon="0.520825">
        <ele>3.508</ele>
        <time>1970-01-01T01:50:45Z</time>
      </trkpt>
      <trkpt lat="40.537866" lon="0.520798">
        <ele>3.884</ele>
        <time>1970-01-01T01:50:46Z</time>
      </trkpt>
      <trkpt lat="40.537820" lon="0.520768">
        <ele>4.181</ele>
        <time>1970-01-01T01:50:47Z</time>
      </trkpt>
      <trkpt lat="40.537773" lon="0.520739">
        <ele>4.392</ele>
        <time>1970-01-01T01:50:48Z</time>
      </trkpt>
      <trkpt lat="40.537726" lon="0.520710">
        <ele>4.225</ele>
        <time>1970-01-01T01:50:49Z</time>
      </trkpt>
      <trkpt lat="40.537679" lon="0.520681">
        <ele>4.055</ele>
        <time>1970-01-01T01:50:50Z</time>
      </trkpt>
      <trkpt lat="40.537632" lon="0.520652">
        <ele>3.851</ele>
        <time>1970-01-01T01:50:51Z</time>
      </trkpt>
      <trkpt lat="40.537585" lon="0.520622">
        <ele>3.545</ele>
        <time>1970-01-01T01:50:52Z</time>
      </trkpt>
      <trkpt lat="40.537539" lon="0.520592">
        <ele>3.396</ele>
        <time>1970-01-01T01:50:53Z</time>
      </trkpt>
      <trkpt lat="40.537493" lon="0.520560">
        <ele>3.096</ele>
        <time>1970-01-01T01:50:54Z</time>
      </trkpt>
      <trkpt lat="40.537448" lon="0.520528">
        <ele>3.031</ele>
        <time>1970-01-01T01:50:55Z</time>
      </trkpt>
      <trkpt lat="40.537401" lon="0.520498">
        <ele>3.024</ele>
        <time>1970-01-01T01:50:56Z</time>
      </trkpt>
      <trkpt lat="40.537355" lon="0.520471">
        <ele>3.008</ele>
        <time>1970-01-01T01:50:57Z</time>
      </trkpt>
      <trkpt lat="40.537307" lon="0.520446">
        <ele>3.076</ele>
        <time>1970-01-01T01:50:58Z</time>
      </trkpt>
      <trkpt lat="40.537259" lon="0.520421">
        <ele>3.053</ele>
        <time>1970-01-01T01:50:59Z</time>
      </trkpt>
      <trkpt lat="40.537212" lon="0.520393">
        <ele>3.184</ele>
        <time>1970-01-01T01:51:00Z</time>
      </trkpt>
      <trkpt lat="40.537165" lon="0.520364">
        <ele>3.397</ele>
        <time>1970-01-01T01:51:01Z</time>
      </trkpt>
      <trkpt lat="40.537119" lon="0.520333">
        <ele>3.547</ele>
        <time>1970-01-01T01:51:02Z</time>
      </trkpt>
      <trkpt lat="40.537073" lon="0.520302">
        <ele>3.653</ele>
        <time>1970-01-01T01:51:03Z</time>
      </trkpt>
      <trkpt lat="40.537026" lon="0.520272">
        <ele>3.727</ele>
        <time>1970-01-01T01:51:04Z</time>
      </trkpt>
      <trkpt lat="40.536981" lon="0.520243">
        <ele>3.978</ele>
        <time>1970-01-01T01:51:05Z</time>
      </trkpt>
      <trkpt lat="40.536936" lon="0.520213">
        <ele>4.196</ele>
        <time>1970-01-01T01:51:06Z</time>
      </trkpt>
      <trkpt lat="40.536892" lon="0.520181">
        <ele>4.331</ele>
        <time>1970-01-01T01:51:07Z</time>
      </trkpt>
      <trkpt lat="40.536849" lon="0.520149">
        <ele>4.524</ele>
        <time>1970-01-01T01:51:08Z</time>
      </trkpt>
      <trkpt lat="40.536803" lon="0.520116">
        <ele>4.708</ele>
        <time>1970-01-01T01:51:09Z</time>
      </trkpt>
      <trkpt lat="40.536758" lon="0.520082">
        <ele>4.946</ele>
        <time>1970-01-01T01:51:10Z</time>
      </trkpt>
      <trkpt lat="40.536712" lon="0.520048">
        <ele>5.023</ele>
        <time>1970-01-01T01:51:11Z</time>
      </trkpt>
      <trkpt lat="40.536665" lon="0.520014">
        <ele>5.064</ele>
        <time>1970-01-01T01:51:12Z</time>
      </trkpt>
      <trkpt lat="40.536618" lon="0.519981">
        <ele>4.977</ele>
        <time>1970-01-01T01:51:13Z</time>
      </trkpt>
      <trkpt lat="40.536572" lon="0.519946">
        <ele>4.927</ele>
        <time>1970-01-01T01:51:14Z</time>
      </trkpt>
      <trkpt lat="40.536525" lon="0.519910">
        <ele>4.863</ele>
        <time>1970-01-01T01:51:15Z</time>
      </trkpt>
      <trkpt lat="40.536478" lon="0.519874">
        <ele>4.937</ele>
        <time>1970-01-01T01:51:16Z</time>
      </trkpt>
      <trkpt lat="40.536431" lon="0.519839">
        <ele>4.918</ele>
        <time>1970-01-01T01:51:17Z</time>
      </trkpt>
      <trkpt lat="40.536385" lon="0.519803">
        <ele>5.096</ele>
        <time>1970-01-01T01:51:18Z</time>
      </trkpt>
      <trkpt lat="40.536340" lon="0.519766">
        <ele>5.031</ele>
        <time>1970-01-01T01:51:19Z</time>
      </trkpt>
      <trkpt lat="40.536293" lon="0.519729">
        <ele>5.024</ele>
        <time>1970-01-01T01:51:20Z</time>
      </trkpt>
      <trkpt lat="40.536247" lon="0.519693">
        <ele>5.008</ele>
        <time>1970-01-01T01:51:21Z</time>
      </trkpt>
      <trkpt lat="40.536205" lon="0.519652">
        <ele>5.016</ele>
        <time>1970-01-01T01:51:22Z</time>
      </trkpt>
      <trkpt lat="40.536164" lon="0.519605">
        <ele>5.083</ele>
        <time>1970-01-01T01:51:23Z</time>
      </trkpt>
      <trkpt lat="40.536124" lon="0.519557">
        <ele>5.024</ele>
        <time>1970-01-01T01:51:24Z</time>
      </trkpt>
      <trkpt lat="40.536083" lon="0.519511">
        <ele>5.187</ele>
        <time>1970-01-01T01:51:25Z</time>
      </trkpt>
      <trkpt lat="40.536036" lon="0.519469">
        <ele>5.347</ele>
        <time>1970-01-01T01:51:26Z</time>
      </trkpt>
      <trkpt lat="40.535988" lon="0.519431">
        <ele>5.453</ele>
        <time>1970-01-01T01:51:27Z</time>
      </trkpt>
      <trkpt lat="40.535940" lon="0.519394">
        <ele>5.537</ele>
        <time>1970-01-01T01:51:28Z</time>
      </trkpt>
      <trkpt lat="40.535892" lon="0.519357">
        <ele>5.598</ele>
        <time>1970-01-01T01:51:29Z</time>
      </trkpt>
      <trkpt lat="40.535844" lon="0.519321">
        <ele>5.591</ele>
        <time>1970-01-01T01:51:30Z</time>
      </trkpt>
      <trkpt lat="40.535797" lon="0.519288">
        <ele>5.681</ele>
        <time>1970-01-01T01:51:31Z</time>
      </trkpt>
      <trkpt lat="40.535747" lon="0.519261">
        <ele>5.819</ele>
        <time>1970-01-01T01:51:32Z</time>
      </trkpt>
      <trkpt lat="40.535694" lon="0.519242">
        <ele>5.908</ele>
        <time>1970-01-01T01:51:33Z</time>
      </trkpt>
      <trkpt lat="40.535644" lon="0.519219">
        <ele>6.066</ele>
        <time>1970-01-01T01:51:34Z</time>
      </trkpt>
      <trkpt lat="40.535597" lon="0.519188">
        <ele>6.083</ele>
        <time>1970-01-01T01:51:35Z</time>
      </trkpt>
      <trkpt lat="40.535549" lon="0.519154">
        <ele>6.054</ele>
        <time>1970-01-01T01:51:36Z</time>
      </trkpt>
      <trkpt lat="40.535500" lon="0.519121">
        <ele>6.037</ele>
        <time>1970-01-01T01:51:37Z</time>
      </trkpt>
      <trkpt lat="40.535452" lon="0.519088">
        <ele>6.097</ele>
        <time>1970-01-01T01:51:38Z</time>
      </trkpt>
      <trkpt lat="40.535404" lon="0.519058">
        <ele>6.023</ele>
        <time>1970-01-01T01:51:39Z</time>
      </trkpt>
      <trkpt lat="40.535356" lon="0.519028">
        <ele>6.017</ele>
        <time>1970-01-01T01:51:40Z</time>
      </trkpt>
      <trkpt lat="40.535309" lon="0.518997">
        <ele>6.028</ele>
        <time>1970-01-01T01:51:41Z</time>
      </trkpt>
      <trkpt lat="40.535262" lon="0.518968">
        <ele>5.947</ele>
        <time>1970-01-01T01:51:42Z</time>
      </trkpt>
      <trkpt lat="40.535215" lon="0.518938">
        <ele>5.729</ele>
        <time>1970-01-01T01:51:43Z</time>
      </trkpt>
      <trkpt lat="40.535167" lon="0.518910">
        <ele>5.621</ele>
        <time>1970-01-01T01:51:44Z</time>
      </trkpt>
      <trkpt lat="40.535117" lon="0.518887">
        <ele>5.408</ele>
        <time>1970-01-01T01:51:45Z</time>
      </trkpt>
      <trkpt lat="40.535066" lon="0.518867">
        <ele>5.361</ele>
        <time>1970-01-01T01:51:46Z</time>
      </trkpt>
      <trkpt lat="40.535014" lon="0.518851">
        <ele>5.278</ele>
        <time>1970-01-01T01:51:47Z</time>
      </trkpt>
      <trkpt lat="40.534962" lon="0.518835">
        <ele>5.269</ele>
        <time>1970-01-01T01:51:48Z</time>
      </trkpt>
      <trkpt lat="40.534911" lon="0.518818">
        <ele>5.352</ele>
        <time>1970-01-01T01:51:49Z</time>
      </trkpt>
      <trkpt lat="40.534859" lon="0.518800">
        <ele>5.312</ele>
        <time>1970-01-01T01:51:50Z</time>
      </trkpt>
      <trkpt lat="40.534806" lon="0.518782">
        <ele>5.468</ele>
        <time>1970-01-01T01:51:51Z</time>
      </trkpt>
      <trkpt lat="40.534753" lon="0.518766">
        <ele>5.442</ele>
        <time>1970-01-01T01:51:52Z</time>
      </trkpt>
      <trkpt lat="40.534700" lon="0.518749">
        <ele>5.643</ele>
        <time>1970-01-01T01:51:53Z</time>
      </trkpt>
      <trkpt lat="40.534647" lon="0.518732">
        <ele>5.898</ele>
        <time>1970-01-01T01:51:54Z</time>
      </trkpt>
      <trkpt lat="40.534594" lon="0.518714">
        <ele>6.115</ele>
        <time>1970-01-01T01:51:55Z</time>
      </trkpt>
      <trkpt lat="40.534543" lon="0.518697">
        <ele>6.326</ele>
        <time>1970-01-01T01:51:56Z</time>
      </trkpt>
      <trkpt lat="40.534491" lon="0.518681">
        <ele>6.608</ele>
        <time>1970-01-01T01:51:57Z</time>
      </trkpt>
      <trkpt lat="40.534439" lon="0.518665">
        <ele>6.866</ele>
        <time>1970-01-01T01:51:58Z</time>
      </trkpt>
      <trkpt lat="40.534389" lon="0.518647">
        <ele>6.963</ele>
        <time>1970-01-01T01:51:59Z</time>
      </trkpt>
      <trkpt lat="40.534338" lon="0.518630">
        <ele>7.024</ele>
        <time>1970-01-01T01:52:00Z</time>
      </trkpt>
      <trkpt lat="40.534288" lon="0.518613">
        <ele>7.097</ele>
        <time>1970-01-01T01:52:01Z</time>
      </trkpt>
      <trkpt lat="40.534237" lon="0.518596">
        <ele>7.067</ele>
        <time>1970-01-01T01:52:02Z</time>
      </trkpt>
      <trkpt lat="40.534187" lon="0.518578">
        <ele>7.043</ele>
        <time>1970-01-01T01:52:03Z</time>
      </trkpt>
      <trkpt lat="40.534137" lon="0.518559">
        <ele>7.127</ele>
        <time>1970-01-01T01:52:04Z</time>
      </trkpt>
      <trkpt lat="40.534086" lon="0.518537">
        <ele>7.458</ele>
        <time>1970-01-01T01:52:05Z</time>
      </trkpt>
      <trkpt lat="40.534038" lon="0.518514">
        <ele>7.684</ele>
        <time>1970-01-01T01:52:06Z</time>
      </trkpt>
      <trkpt lat="40.533991" lon="0.518490">
        <ele>7.907</ele>
        <time>1970-01-01T01:52:07Z</time>
      </trkpt>
      <trkpt lat="40.533947" lon="0.518464">
        <ele>8.217</ele>
        <time>1970-01-01T01:52:08Z</time>
      </trkpt>
      <trkpt lat="40.533906" lon="0.518436">
        <ele>8.508</ele>
        <time>1970-01-01T01:52:09Z</time>
      </trkpt>
      <trkpt lat="40.533864" lon="0.518407">
        <ele>8.755</ele>
        <time>1970-01-01T01:52:10Z</time>
      </trkpt>
      <trkpt lat="40.533823" lon="0.518380">
        <ele>8.652</ele>
        <time>1970-01-01T01:52:11Z</time>
      </trkpt>
      <trkpt lat="40.533781" lon="0.518352">
        <ele>8.653</ele>
        <time>1970-01-01T01:52:12Z</time>
      </trkpt>
      <trkpt lat="40.533738" lon="0.518325">
        <ele>8.546</ele>
        <time>1970-01-01T01:52:13Z</time>
      </trkpt>
      <trkpt lat="40.533693" lon="0.518301">
        <ele>8.466</ele>
        <time>1970-01-01T01:52:14Z</time>
      </trkpt>
      <trkpt lat="40.533647" lon="0.518279">
        <ele>8.372</ele>
        <time>1970-01-01T01:52:15Z</time>
      </trkpt>
      <trkpt lat="40.533600" lon="0.518255">
        <ele>8.216</ele>
        <time>1970-01-01T01:52:16Z</time>
      </trkpt>
      <trkpt lat="40.533554" lon="0.518228">
        <ele>8.227</ele>
        <time>1970-01-01T01:52:17Z</time>
      </trkpt>
      <trkpt lat="40.533507" lon="0.518200">
        <ele>8.153</ele>
        <time>1970-01-01T01:52:18Z</time>
      </trkpt>
      <trkpt lat="40.533459" lon="0.518172">
        <ele>8.004</ele>
        <time>1970-01-01T01:52:19Z</time>
      </trkpt>
      <trkpt lat="40.533412" lon="0.518142">
        <ele>8.014</ele>
        <time>1970-01-01T01:52:20Z</time>
      </trkpt>
      <trkpt lat="40.533366" lon="0.518111">
        <ele>7.908</ele>
        <time>1970-01-01T01:52:21Z</time>
      </trkpt>
      <trkpt lat="40.533318" lon="0.518079">
        <ele>7.862</ele>
        <time>1970-01-01T01:52:22Z</time>
      </trkpt>
      <trkpt lat="40.533270" lon="0.518047">
        <ele>7.459</ele>
        <time>1970-01-01T01:52:23Z</time>
      </trkpt>
      <trkpt lat="40.533221" lon="0.518014">
        <ele>7.060</ele>
        <time>1970-01-01T01:52:24Z</time>
      </trkpt>
      <trkpt lat="40.533172" lon="0.517982">
        <ele>6.763</ele>
        <time>1970-01-01T01:52:25Z</time>
      </trkpt>
      <trkpt lat="40.533122" lon="0.517951">
        <ele>6.433</ele>
        <time>1970-01-01T01:52:26Z</time>
      </trkpt>
      <trkpt lat="40.533073" lon="0.517921">
        <ele>6.199</ele>
        <time>1970-01-01T01:52:27Z</time>
      </trkpt>
      <trkpt lat="40.533022" lon="0.517891">
        <ele>6.223</ele>
        <time>1970-01-01T01:52:28Z</time>
      </trkpt>
      <trkpt lat="40.532972" lon="0.517861">
        <ele>6.544</ele>
        <time>1970-01-01T01:52:29Z</time>
      </trkpt>
      <trkpt lat="40.532925" lon="0.517831">
        <ele>6.739</ele>
        <time>1970-01-01T01:52:30Z</time>
      </trkpt>
      <trkpt lat="40.532878" lon="0.517802">
        <ele>6.901</ele>
        <time>1970-01-01T01:52:31Z</time>
      </trkpt>
      <trkpt lat="40.532831" lon="0.517775">
        <ele>7.021</ele>
        <time>1970-01-01T01:52:32Z</time>
      </trkpt>
      <trkpt lat="40.532785" lon="0.517748">
        <ele>7.208</ele>
        <time>1970-01-01T01:52:33Z</time>
      </trkpt>
      <trkpt lat="40.532739" lon="0.517723">
        <ele>7.860</ele>
        <time>1970-01-01T01:52:34Z</time>
      </trkpt>
      <trkpt lat="40.532695" lon="0.517698">
        <ele>8.327</ele>
        <time>1970-01-01T01:52:35Z</time>
      </trkpt>
      <trkpt lat="40.532651" lon="0.517671">
        <ele>8.888</ele>
        <time>1970-01-01T01:52:36Z</time>
      </trkpt>
      <trkpt lat="40.532606" lon="0.517644">
        <ele>9.241</ele>
        <time>1970-01-01T01:52:37Z</time>
      </trkpt>
      <trkpt lat="40.532562" lon="0.517617">
        <ele>9.651</ele>
        <time>1970-01-01T01:52:38Z</time>
      </trkpt>
      <trkpt lat="40.532518" lon="0.517591">
        <ele>9.967</ele>
        <time>1970-01-01T01:52:39Z</time>
      </trkpt>
      <trkpt lat="40.532473" lon="0.517563">
        <ele>9.851</ele>
        <time>1970-01-01T01:52:40Z</time>
      </trkpt>
      <trkpt lat="40.532426" lon="0.517534">
        <ele>9.542</ele>
        <time>1970-01-01T01:52:41Z</time>
      </trkpt>
      <trkpt lat="40.532379" lon="0.517505">
        <ele>9.124</ele>
        <time>1970-01-01T01:52:42Z</time>
      </trkpt>
      <trkpt lat="40.532332" lon="0.517476">
        <ele>8.904</ele>
        <time>1970-01-01T01:52:43Z</time>
      </trkpt>
      <trkpt lat="40.532284" lon="0.517449">
        <ele>8.614</ele>
        <time>1970-01-01T01:52:44Z</time>
      </trkpt>
      <trkpt lat="40.532235" lon="0.517423">
        <ele>8.408</ele>
        <time>1970-01-01T01:52:45Z</time>
      </trkpt>
      <trkpt lat="40.532188" lon="0.517398">
        <ele>8.029</ele>
        <time>1970-01-01T01:52:46Z</time>
      </trkpt>
      <trkpt lat="40.532142" lon="0.517372">
        <ele>7.536</ele>
        <time>1970-01-01T01:52:47Z</time>
      </trkpt>
      <trkpt lat="40.532097" lon="0.517348">
        <ele>6.997</ele>
        <time>1970-01-01T01:52:48Z</time>
      </trkpt>
      <trkpt lat="40.532052" lon="0.517326">
        <ele>6.420</ele>
        <time>1970-01-01T01:52:49Z</time>
      </trkpt>
      <trkpt lat="40.532006" lon="0.517308">
        <ele>5.870</ele>
        <time>1970-01-01T01:52:50Z</time>
      </trkpt>
      <trkpt lat="40.531959" lon="0.517299">
        <ele>5.216</ele>
        <time>1970-01-01T01:52:51Z</time>
      </trkpt>
      <trkpt lat="40.531912" lon="0.517295">
        <ele>4.780</ele>
        <time>1970-01-01T01:52:52Z</time>
      </trkpt>
      <trkpt lat="40.531868" lon="0.517294">
        <ele>4.311</ele>
        <time>1970-01-01T01:52:53Z</time>
      </trkpt>
      <trkpt lat="40.531825" lon="0.517295">
        <ele>3.971</ele>
        <time>1970-01-01T01:52:54Z</time>
      </trkpt>
      <trkpt lat="40.531781" lon="0.517297">
        <ele>3.541</ele>
        <time>1970-01-01T01:52:55Z</time>
      </trkpt>
      <trkpt lat="40.531737" lon="0.517301">
        <ele>3.115</ele>
        <time>1970-01-01T01:52:56Z</time>
      </trkpt>
      <trkpt lat="40.531695" lon="0.517305">
        <ele>2.708</ele>
        <time>1970-01-01T01:52:57Z</time>
      </trkpt>
      <trkpt lat="40.531653" lon="0.517305">
        <ele>2.444</ele>
        <time>1970-01-01T01:52:58Z</time>
      </trkpt>
      <trkpt lat="40.531611" lon="0.517308">
        <ele>2.451</ele>
        <time>1970-01-01T01:52:59Z</time>
      </trkpt>
      <trkpt lat="40.531568" lon="0.517314">
        <ele>2.522</ele>
        <time>1970-01-01T01:53:00Z</time>
      </trkpt>
      <trkpt lat="40.531524" lon="0.517316">
        <ele>2.515</ele>
        <time>1970-01-01T01:53:01Z</time>
      </trkpt>
      <trkpt lat="40.531479" lon="0.517311">
        <ele>2.685</ele>
        <time>1970-01-01T01:53:02Z</time>
      </trkpt>
      <trkpt lat="40.531435" lon="0.517299">
        <ele>2.761</ele>
        <time>1970-01-01T01:53:03Z</time>
      </trkpt>
      <trkpt lat="40.531389" lon="0.517284">
        <ele>2.875</ele>
        <time>1970-01-01T01:53:04Z</time>
      </trkpt>
      <trkpt lat="40.531343" lon="0.517264">
        <ele>3.226</ele>
        <time>1970-01-01T01:53:05Z</time>
      </trkpt>
      <trkpt lat="40.531297" lon="0.517243">
        <ele>3.648</ele>
        <time>1970-01-01T01:53:06Z</time>
      </trkpt>
      <trkpt lat="40.531251" lon="0.517223">
        <ele>4.061</ele>
        <time>1970-01-01T01:53:07Z</time>
      </trkpt>
      <trkpt lat="40.531204" lon="0.517205">
        <ele>4.517</ele>
        <time>1970-01-01T01:53:08Z</time>
      </trkpt>
      <trkpt lat="40.531158" lon="0.517187">
        <ele>4.908</ele>
        <time>1970-01-01T01:53:09Z</time>
      </trkpt>
      <trkpt lat="40.531114" lon="0.517169">
        <ele>5.491</ele>
        <time>1970-01-01T01:53:10Z</time>
      </trkpt>
      <trkpt lat="40.531069" lon="0.517151">
        <ele>5.568</ele>
        <time>1970-01-01T01:53:11Z</time>
      </trkpt>
      <trkpt lat="40.531024" lon="0.517132">
        <ele>5.579</ele>
        <time>1970-01-01T01:53:12Z</time>
      </trkpt>
      <trkpt lat="40.530980" lon="0.517112">
        <ele>5.672</ele>
        <time>1970-01-01T01:53:13Z</time>
      </trkpt>
      <trkpt lat="40.530934" lon="0.517093">
        <ele>5.672</ele>
        <time>1970-01-01T01:53:14Z</time>
      </trkpt>
      <trkpt lat="40.530887" lon="0.517076">
        <ele>5.678</ele>
        <time>1970-01-01T01:53:15Z</time>
      </trkpt>
      <trkpt lat="40.530840" lon="0.517060">
        <ele>5.632</ele>
        <time>1970-01-01T01:53:16Z</time>
      </trkpt>
      <trkpt lat="40.530794" lon="0.517042">
        <ele>5.663</ele>
        <time>1970-01-01T01:53:17Z</time>
      </trkpt>
      <trkpt lat="40.530747" lon="0.517023">
        <ele>5.764</ele>
        <time>1970-01-01T01:53:18Z</time>
      </trkpt>
      <trkpt lat="40.530700" lon="0.517004">
        <ele>5.806</ele>
        <time>1970-01-01T01:53:19Z</time>
      </trkpt>
      <trkpt lat="40.530653" lon="0.516986">
        <ele>5.816</ele>
        <time>1970-01-01T01:53:20Z</time>
      </trkpt>
      <trkpt lat="40.530606" lon="0.516968">
        <ele>5.908</ele>
        <time>1970-01-01T01:53:21Z</time>
      </trkpt>
      <trkpt lat="40.530559" lon="0.516950">
        <ele>6.073</ele>
        <time>1970-01-01T01:53:22Z</time>
      </trkpt>
      <trkpt lat="40.530512" lon="0.516932">
        <ele>6.250</ele>
        <time>1970-01-01T01:53:23Z</time>
      </trkpt>
      <trkpt lat="40.530465" lon="0.516911">
        <ele>6.431</ele>
        <time>1970-01-01T01:53:24Z</time>
      </trkpt>
      <trkpt lat="40.530419" lon="0.516889">
        <ele>6.724</ele>
        <time>1970-01-01T01:53:25Z</time>
      </trkpt>
      <trkpt lat="40.530372" lon="0.516866">
        <ele>6.994</ele>
        <time>1970-01-01T01:53:26Z</time>
      </trkpt>
      <trkpt lat="40.530325" lon="0.516841">
        <ele>7.230</ele>
        <time>1970-01-01T01:53:27Z</time>
      </trkpt>
      <trkpt lat="40.530278" lon="0.516815">
        <ele>7.534</ele>
        <time>1970-01-01T01:53:28Z</time>
      </trkpt>
      <trkpt lat="40.530230" lon="0.516792">
        <ele>7.515</ele>
        <time>1970-01-01T01:53:29Z</time>
      </trkpt>
      <trkpt lat="40.530183" lon="0.516768">
        <ele>7.641</ele>
        <time>1970-01-01T01:53:30Z</time>
      </trkpt>
      <trkpt lat="40.530135" lon="0.516746">
        <ele>7.781</ele>
        <time>1970-01-01T01:53:31Z</time>
      </trkpt>
      <trkpt lat="40.530087" lon="0.516724">
        <ele>7.809</ele>
        <time>1970-01-01T01:53:32Z</time>
      </trkpt>
      <trkpt lat="40.530039" lon="0.516701">
        <ele>7.908</ele>
        <time>1970-01-01T01:53:33Z</time>
      </trkpt>
      <trkpt lat="40.529991" lon="0.516679">
        <ele>7.931</ele>
        <time>1970-01-01T01:53:34Z</time>
      </trkpt>
      <trkpt lat="40.529943" lon="0.516660">
        <ele>7.898</ele>
        <time>1970-01-01T01:53:35Z</time>
      </trkpt>
      <trkpt lat="40.529894" lon="0.516642">
        <ele>7.799</ele>
        <time>1970-01-01T01:53:36Z</time>
      </trkpt>
      <trkpt lat="40.529847" lon="0.516623">
        <ele>7.772</ele>
        <time>1970-01-01T01:53:37Z</time>
      </trkpt>
      <trkpt lat="40.529798" lon="0.516604">
        <ele>7.752</ele>
        <time>1970-01-01T01:53:38Z</time>
      </trkpt>
      <trkpt lat="40.529749" lon="0.516586">
        <ele>7.618</ele>
        <time>1970-01-01T01:53:39Z</time>
      </trkpt>
      <trkpt lat="40.529700" lon="0.516570">
        <ele>7.692</ele>
        <time>1970-01-01T01:53:40Z</time>
      </trkpt>
      <trkpt lat="40.529650" lon="0.516556">
        <ele>7.443</ele>
        <time>1970-01-01T01:53:41Z</time>
      </trkpt>
      <trkpt lat="40.529601" lon="0.516540">
        <ele>7.285</ele>
        <time>1970-01-01T01:53:42Z</time>
      </trkpt>
      <trkpt lat="40.529552" lon="0.516523">
        <ele>7.189</ele>
        <time>1970-01-01T01:53:43Z</time>
      </trkpt>
      <trkpt lat="40.529502" lon="0.516506">
        <ele>7.017</ele>
        <time>1970-01-01T01:53:44Z</time>
      </trkpt>
      <trkpt lat="40.529452" lon="0.516491">
        <ele>6.908</ele>
        <time>1970-01-01T01:53:45Z</time>
      </trkpt>
      <trkpt lat="40.529403" lon="0.516476">
        <ele>7.135</ele>
        <time>1970-01-01T01:53:46Z</time>
      </trkpt>
      <trkpt lat="40.529353" lon="0.516461">
        <ele>7.222</ele>
        <time>1970-01-01T01:53:47Z</time>
      </trkpt>
      <trkpt lat="40.529304" lon="0.516444">
        <ele>7.423</ele>
        <time>1970-01-01T01:53:48Z</time>
      </trkpt>
      <trkpt lat="40.529255" lon="0.516428">
        <ele>7.666</ele>
        <time>1970-01-01T01:53:49Z</time>
      </trkpt>
      <trkpt lat="40.529205" lon="0.516412">
        <ele>7.826</ele>
        <time>1970-01-01T01:53:50Z</time>
      </trkpt>
      <trkpt lat="40.529155" lon="0.516399">
        <ele>7.952</ele>
        <time>1970-01-01T01:53:51Z</time>
      </trkpt>
      <trkpt lat="40.529103" lon="0.516387">
        <ele>8.296</ele>
        <time>1970-01-01T01:53:52Z</time>
      </trkpt>
      <trkpt lat="40.529052" lon="0.516376">
        <ele>8.547</ele>
        <time>1970-01-01T01:53:53Z</time>
      </trkpt>
      <trkpt lat="40.529000" lon="0.516365">
        <ele>8.875</ele>
        <time>1970-01-01T01:53:54Z</time>
      </trkpt>
      <trkpt lat="40.528950" lon="0.516354">
        <ele>9.128</ele>
        <time>1970-01-01T01:53:55Z</time>
      </trkpt>
      <trkpt lat="40.528899" lon="0.516342">
        <ele>9.320</ele>
        <time>1970-01-01T01:53:56Z</time>
      </trkpt>
      <trkpt lat="40.528844" lon="0.516329">
        <ele>9.108</ele>
        <time>1970-01-01T01:53:57Z</time>
      </trkpt>
      <trkpt lat="40.528787" lon="0.516316">
        <ele>8.944</ele>
        <time>1970-01-01T01:53:58Z</time>
      </trkpt>
      <trkpt lat="40.528733" lon="0.516299">
        <ele>8.751</ele>
        <time>1970-01-01T01:53:59Z</time>
      </trkpt>
      <trkpt lat="40.528678" lon="0.516280">
        <ele>8.642</ele>
        <time>1970-01-01T01:54:00Z</time>
      </trkpt>
      <trkpt lat="40.528623" lon="0.516264">
        <ele>8.495</ele>
        <time>1970-01-01T01:54:01Z</time>
      </trkpt>
      <trkpt lat="40.528566" lon="0.516251">
        <ele>8.275</ele>
        <time>1970-01-01T01:54:02Z</time>
      </trkpt>
      <trkpt lat="40.528510" lon="0.516241">
        <ele>8.051</ele>
        <time>1970-01-01T01:54:03Z</time>
      </trkpt>
      <trkpt lat="40.528454" lon="0.516234">
        <ele>7.845</ele>
        <time>1970-01-01T01:54:04Z</time>
      </trkpt>
      <trkpt lat="40.528398" lon="0.516230">
        <ele>7.586</ele>
        <time>1970-01-01T01:54:05Z</time>
      </trkpt>
      <trkpt lat="40.528342" lon="0.516229">
        <ele>7.232</ele>
        <time>1970-01-01T01:54:06Z</time>
      </trkpt>
      <trkpt lat="40.528286" lon="0.516230">
        <ele>7.192</ele>
        <time>1970-01-01T01:54:07Z</time>
      </trkpt>
      <trkpt lat="40.528230" lon="0.516232">
        <ele>7.111</ele>
        <time>1970-01-01T01:54:08Z</time>
      </trkpt>
      <trkpt lat="40.528174" lon="0.516235">
        <ele>7.108</ele>
        <time>1970-01-01T01:54:09Z</time>
      </trkpt>
      <trkpt lat="40.528117" lon="0.516238">
        <ele>7.170</ele>
        <time>1970-01-01T01:54:10Z</time>
      </trkpt>
      <trkpt lat="40.528061" lon="0.516240">
        <ele>7.137</ele>
        <time>1970-01-01T01:54:11Z</time>
      </trkpt>
      <trkpt lat="40.528005" lon="0.516242">
        <ele>7.158</ele>
        <time>1970-01-01T01:54:12Z</time>
      </trkpt>
      <trkpt lat="40.527949" lon="0.516247">
        <ele>7.061</ele>
        <time>1970-01-01T01:54:13Z</time>
      </trkpt>
      <trkpt lat="40.527892" lon="0.516254">
        <ele>7.031</ele>
        <time>1970-01-01T01:54:14Z</time>
      </trkpt>
      <trkpt lat="40.527836" lon="0.516260">
        <ele>6.937</ele>
        <time>1970-01-01T01:54:15Z</time>
      </trkpt>
      <trkpt lat="40.527780" lon="0.516260">
        <ele>6.941</ele>
        <time>1970-01-01T01:54:16Z</time>
      </trkpt>
      <trkpt lat="40.527725" lon="0.516254">
        <ele>7.142</ele>
        <time>1970-01-01T01:54:17Z</time>
      </trkpt>
      <trkpt lat="40.527670" lon="0.516241">
        <ele>7.287</ele>
        <time>1970-01-01T01:54:18Z</time>
      </trkpt>
      <trkpt lat="40.527617" lon="0.516224">
        <ele>7.442</ele>
        <time>1970-01-01T01:54:19Z</time>
      </trkpt>
      <trkpt lat="40.527563" lon="0.516204">
        <ele>7.626</ele>
        <time>1970-01-01T01:54:20Z</time>
      </trkpt>
      <trkpt lat="40.527510" lon="0.516182">
        <ele>7.708</ele>
        <time>1970-01-01T01:54:21Z</time>
      </trkpt>
      <trkpt lat="40.527458" lon="0.516156">
        <ele>7.775</ele>
        <time>1970-01-01T01:54:22Z</time>
      </trkpt>
      <trkpt lat="40.527409" lon="0.516128">
        <ele>7.652</ele>
        <time>1970-01-01T01:54:23Z</time>
      </trkpt>
      <trkpt lat="40.527361" lon="0.516095">
        <ele>7.613</ele>
        <time>1970-01-01T01:54:24Z</time>
      </trkpt>
      <trkpt lat="40.527314" lon="0.516061">
        <ele>7.726</ele>
        <time>1970-01-01T01:54:25Z</time>
      </trkpt>
      <trkpt lat="40.527268" lon="0.516021">
        <ele>7.896</ele>
        <time>1970-01-01T01:54:26Z</time>
      </trkpt>
      <trkpt lat="40.527224" lon="0.515974">
        <ele>8.072</ele>
        <time>1970-01-01T01:54:27Z</time>
      </trkpt>
      <trkpt lat="40.527184" lon="0.515920">
        <ele>8.276</ele>
        <time>1970-01-01T01:54:28Z</time>
      </trkpt>
      <trkpt lat="40.527148" lon="0.515862">
        <ele>8.377</ele>
        <time>1970-01-01T01:54:29Z</time>
      </trkpt>
      <trkpt lat="40.527112" lon="0.515803">
        <ele>8.286</ele>
        <time>1970-01-01T01:54:30Z</time>
      </trkpt>
      <trkpt lat="40.527073" lon="0.515749">
        <ele>7.860</ele>
        <time>1970-01-01T01:54:31Z</time>
      </trkpt>
      <trkpt lat="40.527033" lon="0.515695">
        <ele>7.326</ele>
        <time>1970-01-01T01:54:32Z</time>
      </trkpt>
      <trkpt lat="40.526994" lon="0.515640">
        <ele>6.808</ele>
        <time>1970-01-01T01:54:33Z</time>
      </trkpt>
      <trkpt lat="40.526954" lon="0.515584">
        <ele>6.225</ele>
        <time>1970-01-01T01:54:34Z</time>
      </trkpt>
      <trkpt lat="40.526911" lon="0.515533">
        <ele>6.062</ele>
        <time>1970-01-01T01:54:35Z</time>
      </trkpt>
      <trkpt lat="40.526865" lon="0.515486">
        <ele>6.033</ele>
        <time>1970-01-01T01:54:36Z</time>
      </trkpt>
      <trkpt lat="40.526817" lon="0.515444">
        <ele>5.966</ele>
        <time>1970-01-01T01:54:37Z</time>
      </trkpt>
      <trkpt lat="40.526767" lon="0.515406">
        <ele>5.966</ele>
        <time>1970-01-01T01:54:38Z</time>
      </trkpt>
      <trkpt lat="40.526715" lon="0.515372">
        <ele>5.862</ele>
        <time>1970-01-01T01:54:39Z</time>
      </trkpt>
      <trkpt lat="40.526661" lon="0.515341">
        <ele>5.856</ele>
        <time>1970-01-01T01:54:40Z</time>
      </trkpt>
      <trkpt lat="40.526608" lon="0.515315">
        <ele>5.987</ele>
        <time>1970-01-01T01:54:41Z</time>
      </trkpt>
      <trkpt lat="40.526554" lon="0.515290">
        <ele>6.055</ele>
        <time>1970-01-01T01:54:42Z</time>
      </trkpt>
      <trkpt lat="40.526501" lon="0.515266">
        <ele>6.107</ele>
        <time>1970-01-01T01:54:43Z</time>
      </trkpt>
      <trkpt lat="40.526450" lon="0.515243">
        <ele>6.217</ele>
        <time>1970-01-01T01:54:44Z</time>
      </trkpt>
      <trkpt lat="40.526398" lon="0.515221">
        <ele>6.408</ele>
        <time>1970-01-01T01:54:45Z</time>
      </trkpt>
      <trkpt lat="40.526347" lon="0.515200">
        <ele>6.472</ele>
        <time>1970-01-01T01:54:46Z</time>
      </trkpt>
      <trkpt lat="40.526294" lon="0.515178">
        <ele>6.449</ele>
        <time>1970-01-01T01:54:47Z</time>
      </trkpt>
      <trkpt lat="40.526241" lon="0.515151">
        <ele>6.420</ele>
        <time>1970-01-01T01:54:48Z</time>
      </trkpt>
      <trkpt lat="40.526189" lon="0.515121">
        <ele>6.443</ele>
        <time>1970-01-01T01:54:49Z</time>
      </trkpt>
      <trkpt lat="40.526138" lon="0.515092">
        <ele>6.493</ele>
        <time>1970-01-01T01:54:50Z</time>
      </trkpt>
      <trkpt lat="40.526087" lon="0.515063">
        <ele>6.539</ele>
        <time>1970-01-01T01:54:51Z</time>
      </trkpt>
      <trkpt lat="40.526036" lon="0.515034">
        <ele>6.813</ele>
        <time>1970-01-01T01:54:52Z</time>
      </trkpt>
      <trkpt lat="40.525987" lon="0.515002">
        <ele>7.054</ele>
        <time>1970-01-01T01:54:53Z</time>
      </trkpt>
      <trkpt lat="40.525938" lon="0.514970">
        <ele>7.156</ele>
        <time>1970-01-01T01:54:54Z</time>
      </trkpt>
      <trkpt lat="40.525889" lon="0.514939">
        <ele>7.359</ele>
        <time>1970-01-01T01:54:55Z</time>
      </trkpt>
      <trkpt lat="40.525839" lon="0.514910">
        <ele>7.314</ele>
        <time>1970-01-01T01:54:56Z</time>
      </trkpt>
      <trkpt lat="40.525790" lon="0.514880">
        <ele>7.408</ele>
        <time>1970-01-01T01:54:57Z</time>
      </trkpt>
      <trkpt lat="40.525741" lon="0.514850">
        <ele>7.492</ele>
        <time>1970-01-01T01:54:58Z</time>
      </trkpt>
      <trkpt lat="40.525693" lon="0.514820">
        <ele>7.329</ele>
        <time>1970-01-01T01:54:59Z</time>
      </trkpt>
      <trkpt lat="40.525645" lon="0.514789">
        <ele>7.290</ele>
        <time>1970-01-01T01:55:00Z</time>
      </trkpt>
      <trkpt lat="40.525599" lon="0.514756">
        <ele>7.173</ele>
        <time>1970-01-01T01:55:01Z</time>
      </trkpt>
      <trkpt lat="40.525555" lon="0.514725">
        <ele>7.073</ele>
        <time>1970-01-01T01:55:02Z</time>
      </trkpt>
      <trkpt lat="40.525509" lon="0.514698">
        <ele>6.919</ele>
        <time>1970-01-01T01:55:03Z</time>
      </trkpt>
      <trkpt lat="40.525461" lon="0.514677">
        <ele>6.863</ele>
        <time>1970-01-01T01:55:04Z</time>
      </trkpt>
      <trkpt lat="40.525410" lon="0.514662">
        <ele>6.784</ele>
        <time>1970-01-01T01:55:05Z</time>
      </trkpt>
      <trkpt lat="40.525359" lon="0.514649">
        <ele>6.662</ele>
        <time>1970-01-01T01:55:06Z</time>
      </trkpt>
      <trkpt lat="40.525307" lon="0.514641">
        <ele>6.483</ele>
        <time>1970-01-01T01:55:07Z</time>
      </trkpt>
      <trkpt lat="40.525252" lon="0.514637">
        <ele>6.311</ele>
        <time>1970-01-01T01:55:08Z</time>
      </trkpt>
      <trkpt lat="40.525198" lon="0.514639">
        <ele>6.208</ele>
        <time>1970-01-01T01:55:09Z</time>
      </trkpt>
      <trkpt lat="40.525142" lon="0.514642">
        <ele>6.133</ele>
        <time>1970-01-01T01:55:10Z</time>
      </trkpt>
      <trkpt lat="40.525086" lon="0.514645">
        <ele>6.070</ele>
        <time>1970-01-01T01:55:11Z</time>
      </trkpt>
      <trkpt lat="40.525029" lon="0.514648">
        <ele>5.861</ele>
        <time>1970-01-01T01:55:12Z</time>
      </trkpt>
      <trkpt lat="40.524972" lon="0.514649">
        <ele>5.744</ele>
        <time>1970-01-01T01:55:13Z</time>
      </trkpt>
      <trkpt lat="40.524914" lon="0.514650">
        <ele>5.654</ele>
        <time>1970-01-01T01:55:14Z</time>
      </trkpt>
      <trkpt lat="40.524857" lon="0.514649">
        <ele>5.570</ele>
        <time>1970-01-01T01:55:15Z</time>
      </trkpt>
      <trkpt lat="40.524800" lon="0.514645">
        <ele>5.484</ele>
        <time>1970-01-01T01:55:16Z</time>
      </trkpt>
      <trkpt lat="40.524743" lon="0.514639">
        <ele>5.365</ele>
        <time>1970-01-01T01:55:17Z</time>
      </trkpt>
      <trkpt lat="40.524687" lon="0.514630">
        <ele>5.386</ele>
        <time>1970-01-01T01:55:18Z</time>
      </trkpt>
      <trkpt lat="40.524632" lon="0.514616">
        <ele>5.460</ele>
        <time>1970-01-01T01:55:19Z</time>
      </trkpt>
      <trkpt lat="40.524579" lon="0.514597">
        <ele>5.526</ele>
        <time>1970-01-01T01:55:20Z</time>
      </trkpt>
      <trkpt lat="40.524527" lon="0.514576">
        <ele>5.508</ele>
        <time>1970-01-01T01:55:21Z</time>
      </trkpt>
      <trkpt lat="40.524474" lon="0.514558">
        <ele>5.615</ele>
        <time>1970-01-01T01:55:22Z</time>
      </trkpt>
      <trkpt lat="40.524421" lon="0.514544">
        <ele>5.722</ele>
        <time>1970-01-01T01:55:23Z</time>
      </trkpt>
      <trkpt lat="40.524367" lon="0.514534">
        <ele>5.833</ele>
        <time>1970-01-01T01:55:24Z</time>
      </trkpt>
      <trkpt lat="40.524313" lon="0.514525">
        <ele>5.846</ele>
        <time>1970-01-01T01:55:25Z</time>
      </trkpt>
      <trkpt lat="40.524259" lon="0.514516">
        <ele>5.946</ele>
        <time>1970-01-01T01:55:26Z</time>
      </trkpt>
      <trkpt lat="40.524204" lon="0.514510">
        <ele>6.072</ele>
        <time>1970-01-01T01:55:27Z</time>
      </trkpt>
      <trkpt lat="40.524150" lon="0.514509">
        <ele>6.046</ele>
        <time>1970-01-01T01:55:28Z</time>
      </trkpt>
      <trkpt lat="40.524098" lon="0.514508">
        <ele>6.257</ele>
        <time>1970-01-01T01:55:29Z</time>
      </trkpt>
      <trkpt lat="40.524046" lon="0.514508">
        <ele>6.368</ele>
        <time>1970-01-01T01:55:30Z</time>
      </trkpt>
      <trkpt lat="40.523995" lon="0.514512">
        <ele>6.542</ele>
        <time>1970-01-01T01:55:31Z</time>
      </trkpt>
      <trkpt lat="40.523945" lon="0.514517">
        <ele>6.626</ele>
        <time>1970-01-01T01:55:32Z</time>
      </trkpt>
      <trkpt lat="40.523895" lon="0.514521">
        <ele>6.708</ele>
        <time>1970-01-01T01:55:33Z</time>
      </trkpt>
      <trkpt lat="40.523845" lon="0.514524">
        <ele>6.383</ele>
        <time>1970-01-01T01:55:34Z</time>
      </trkpt>
      <trkpt lat="40.523795" lon="0.514529">
        <ele>5.840</ele>
        <time>1970-01-01T01:55:35Z</time>
      </trkpt>
      <trkpt lat="40.523745" lon="0.514531">
        <ele>5.381</ele>
        <time>1970-01-01T01:55:36Z</time>
      </trkpt>
      <trkpt lat="40.523700" lon="0.514530">
        <ele>4.914</ele>
        <time>1970-01-01T01:55:37Z</time>
      </trkpt>
      <trkpt lat="40.523662" lon="0.514526">
        <ele>4.524</ele>
        <time>1970-01-01T01:55:38Z</time>
      </trkpt>
      <trkpt lat="40.523632" lon="0.514518">
        <ele>4.260</ele>
        <time>1970-01-01T01:55:39Z</time>
      </trkpt>
      <trkpt lat="40.523604" lon="0.514501">
        <ele>3.984</ele>
        <time>1970-01-01T01:55:40Z</time>
      </trkpt>
      <trkpt lat="40.523578" lon="0.514477">
        <ele>3.765</ele>
        <time>1970-01-01T01:55:41Z</time>
      </trkpt>
      <trkpt lat="40.523554" lon="0.514448">
        <ele>3.633</ele>
        <time>1970-01-01T01:55:42Z</time>
      </trkpt>
      <trkpt lat="40.523533" lon="0.514414">
        <ele>3.423</ele>
        <time>1970-01-01T01:55:43Z</time>
      </trkpt>
      <trkpt lat="40.523518" lon="0.514374">
        <ele>3.315</ele>
        <time>1970-01-01T01:55:44Z</time>
      </trkpt>
      <trkpt lat="40.523510" lon="0.514328">
        <ele>3.308</ele>
        <time>1970-01-01T01:55:45Z</time>
      </trkpt>
      <trkpt lat="40.523505" lon="0.514281">
        <ele>3.210</ele>
        <time>1970-01-01T01:55:46Z</time>
      </trkpt>
      <trkpt lat="40.523503" lon="0.514235">
        <ele>3.287</ele>
        <time>1970-01-01T01:55:47Z</time>
      </trkpt>
      <trkpt lat="40.523505" lon="0.514187">
        <ele>3.268</ele>
        <time>1970-01-01T01:55:48Z</time>
      </trkpt>
      <trkpt lat="40.523514" lon="0.514140">
        <ele>3.361</ele>
        <time>1970-01-01T01:55:49Z</time>
      </trkpt>
      <trkpt lat="40.523525" lon="0.514100">
        <ele>3.441</ele>
        <time>1970-01-01T01:55:50Z</time>
      </trkpt>
      <trkpt lat="40.523531" lon="0.514070">
        <ele>3.457</ele>
        <time>1970-01-01T01:55:51Z</time>
      </trkpt>
      <trkpt lat="40.523527" lon="0.514047">
        <ele>3.421</ele>
        <time>1970-01-01T01:55:52Z</time>
      </trkpt>
      <trkpt lat="40.523518" lon="0.514037">
        <ele>3.322</ele>
        <time>1970-01-01T01:55:53Z</time>
      </trkpt>
      <trkpt lat="40.523512" lon="0.514045">
        <ele>3.321</ele>
        <time>1970-01-01T01:55:54Z</time>
      </trkpt>
      <trkpt lat="40.523508" lon="0.514073">
        <ele>3.341</ele>
        <time>1970-01-01T01:55:55Z</time>
      </trkpt>
      <trkpt lat="40.523507" lon="0.514111">
        <ele>3.205</ele>
        <time>1970-01-01T01:55:56Z</time>
      </trkpt>
      <trkpt lat="40.523507" lon="0.514153">
        <ele>3.208</ele>
        <time>1970-01-01T01:55:57Z</time>
      </trkpt>
      <trkpt lat="40.523507" lon="0.514193">
        <ele>3.289</ele>
        <time>1970-01-01T01:55:58Z</time>
      </trkpt>
      <trkpt lat="40.523508" lon="0.514230">
        <ele>3.316</ele>
        <time>1970-01-01T01:55:59Z</time>
      </trkpt>
      <trkpt lat="40.523511" lon="0.514265">
        <ele>3.347</ele>
        <time>1970-01-01T01:56:00Z</time>
      </trkpt>
      <trkpt lat="40.523515" lon="0.514296">
        <ele>3.350</ele>
        <time>1970-01-01T01:56:01Z</time>
      </trkpt>
      <trkpt lat="40.523520" lon="0.514328">
        <ele>3.360</ele>
        <time>1970-01-01T01:56:02Z</time>
      </trkpt>
      <trkpt lat="40.523522" lon="0.514358">
        <ele>3.466</ele>
        <time>1970-01-01T01:56:03Z</time>
      </trkpt>
      <trkpt lat="40.523523" lon="0.514389">
        <ele>3.430</ele>
        <time>1970-01-01T01:56:04Z</time>
      </trkpt>
      <trkpt lat="40.523525" lon="0.514422">
        <ele>3.421</ele>
        <time>1970-01-01T01:56:05Z</time>
      </trkpt>
      <trkpt lat="40.523526" lon="0.514455">
        <ele>3.487</ele>
        <time>1970-01-01T01:56:06Z</time>
      </trkpt>
      <trkpt lat="40.523524" lon="0.514483">
        <ele>3.342</ele>
        <time>1970-01-01T01:56:07Z</time>
      </trkpt>
      <trkpt lat="40.523518" lon="0.514512">
        <ele>3.226</ele>
        <time>1970-01-01T01:56:08Z</time>
      </trkpt>
      <trkpt lat="40.523509" lon="0.514540">
        <ele>3.108</ele>
        <time>1970-01-01T01:56:09Z</time>
      </trkpt>
      <trkpt lat="40.523494" lon="0.514564">
        <ele>3.035</ele>
        <time>1970-01-01T01:56:10Z</time>
      </trkpt>
      <trkpt lat="40.523476" lon="0.514581">
        <ele>2.862</ele>
        <time>1970-01-01T01:56:11Z</time>
      </trkpt>
      <trkpt lat="40.523458" lon="0.514589">
        <ele>2.653</ele>
        <time>1970-01-01T01:56:12Z</time>
      </trkpt>
      <trkpt lat="40.523441" lon="0.514590">
        <ele>2.556</ele>
        <time>1970-01-01T01:56:13Z</time>
      </trkpt>
      <trkpt lat="40.523425" lon="0.514587">
        <ele>2.336</ele>
        <time>1970-01-01T01:56:14Z</time>
      </trkpt>
      <trkpt lat="40.523409" lon="0.514581">
        <ele>2.242</ele>
        <time>1970-01-01T01:56:15Z</time>
      </trkpt>
      <trkpt lat="40.523394" lon="0.514571">
        <ele>2.136</ele>
        <time>1970-01-01T01:56:16Z</time>
      </trkpt>
      <trkpt lat="40.523380" lon="0.514558">
        <ele>2.027</ele>
        <time>1970-01-01T01:56:17Z</time>
      </trkpt>
      <trkpt lat="40.523365" lon="0.514545">
        <ele>1.925</ele>
        <time>1970-01-01T01:56:18Z</time>
      </trkpt>
      <trkpt lat="40.523352" lon="0.514532">
        <ele>1.826</ele>
        <time>1970-01-01T01:56:19Z</time>
      </trkpt>
      <trkpt lat="40.523338" lon="0.514519">
        <ele>1.808</ele>
        <time>1970-01-01T01:56:20Z</time>
      </trkpt>
      <trkpt lat="40.523322" lon="0.514503">
        <ele>1.708</ele>
        <time>1970-01-01T01:56:21Z</time>
      </trkpt>
      <trkpt lat="40.523305" lon="0.514488">
        <ele>1.789</ele>
        <time>1970-01-01T01:56:22Z</time>
      </trkpt>
      <trkpt lat="40.523291" lon="0.514473">
        <ele>1.616</ele>
        <time>1970-01-01T01:56:23Z</time>
      </trkpt>
      <trkpt lat="40.523274" lon="0.514464">
        <ele>1.517</ele>
        <time>1970-01-01T01:56:24Z</time>
      </trkpt>
      <trkpt lat="40.523255" lon="0.514456">
        <ele>1.430</ele>
        <time>1970-01-01T01:56:25Z</time>
      </trkpt>
      <trkpt lat="40.523237" lon="0.514447">
        <ele>1.370</ele>
        <time>1970-01-01T01:56:26Z</time>
      </trkpt>
      <trkpt lat="40.523218" lon="0.514440">
        <ele>1.216</ele>
        <time>1970-01-01T01:56:27Z</time>
      </trkpt>
      <trkpt lat="40.523199" lon="0.514432">
        <ele>1.190</ele>
        <time>1970-01-01T01:56:28Z</time>
      </trkpt>
      <trkpt lat="40.523178" lon="0.514424">
        <ele>1.061</ele>
        <time>1970-01-01T01:56:29Z</time>
      </trkpt>
      <trkpt lat="40.523155" lon="0.514420">
        <ele>0.891</ele>
        <time>1970-01-01T01:56:30Z</time>
      </trkpt>
      <trkpt lat="40.523131" lon="0.514415">
        <ele>0.781</ele>
        <time>1970-01-01T01:56:31Z</time>
      </trkpt>
      <trkpt lat="40.523106" lon="0.514410">
        <ele>0.619</ele>
        <time>1970-01-01T01:56:32Z</time>
      </trkpt>
      <trkpt lat="40.523082" lon="0.514405">
        <ele>0.408</ele>
        <time>1970-01-01T01:56:33Z</time>
      </trkpt>
      <trkpt lat="40.523061" lon="0.514401">
        <ele>0.316</ele>
        <time>1970-01-01T01:56:34Z</time>
      </trkpt>
      <trkpt lat="40.523043" lon="0.514402">
        <ele>0.493</ele>
        <time>1970-01-01T01:56:35Z</time>
      </trkpt>
      <trkpt lat="40.523026" lon="0.514404">
        <ele>0.424</ele>
        <time>1970-01-01T01:56:36Z</time>
      </trkpt>
      <trkpt lat="40.523007" lon="0.514404">
        <ele>0.587</ele>
        <time>1970-01-01T01:56:37Z</time>
      </trkpt>
      <trkpt lat="40.522987" lon="0.514404">
        <ele>0.667</ele>
        <time>1970-01-01T01:56:38Z</time>
      </trkpt>
      <trkpt lat="40.522973" lon="0.514403">
        <ele>0.663</ele>
        <time>1970-01-01T01:56:39Z</time>
      </trkpt>
      <trkpt lat="40.522968" lon="0.514403">
        <ele>0.787</ele>
        <time>1970-01-01T01:56:40Z</time>
      </trkpt>
      <trkpt lat="40.522969" lon="0.514404">
        <ele>0.638</ele>
        <time>1970-01-01T01:56:41Z</time>
      </trkpt>
      <trkpt lat="40.522833" lon="0.514115">
        <ele>3.853</ele>
        <time>1970-01-01T01:58:26Z</time>
      </trkpt>
      <trkpt lat="40.522840" lon="0.514105">
        <ele>3.804</ele>
        <time>1970-01-01T01:58:27Z</time>
      </trkpt>
      <trkpt lat="40.522841" lon="0.514096">
        <ele>3.814</ele>
        <time>1970-01-01T01:58:28Z</time>
      </trkpt>
      <trkpt lat="40.522838" lon="0.514093">
        <ele>3.808</ele>
        <time>1970-01-01T01:58:29Z</time>
      </trkpt>
      <trkpt lat="40.522838" lon="0.514086">
        <ele>3.992</ele>
        <time>1970-01-01T01:58:30Z</time>
      </trkpt>
      <trkpt lat="40.522836" lon="0.514076">
        <ele>3.969</ele>
        <time>1970-01-01T01:58:31Z</time>
      </trkpt>
      <trkpt lat="40.522835" lon="0.514064">
        <ele>4.090</ele>
        <time>1970-01-01T01:58:32Z</time>
      </trkpt>
      <trkpt lat="40.522833" lon="0.514052">
        <ele>4.073</ele>
        <time>1970-01-01T01:58:33Z</time>
      </trkpt>
      <trkpt lat="40.522830" lon="0.514041">
        <ele>4.133</ele>
        <time>1970-01-01T01:58:34Z</time>
      </trkpt>
      <trkpt lat="40.522831" lon="0.514030">
        <ele>4.199</ele>
        <time>1970-01-01T01:58:35Z</time>
      </trkpt>
      <trkpt lat="40.522833" lon="0.514020">
        <ele>4.123</ele>
        <time>1970-01-01T01:58:36Z</time>
      </trkpt>
      <trkpt lat="40.522829" lon="0.514010">
        <ele>4.264</ele>
        <time>1970-01-01T01:58:37Z</time>
      </trkpt>
      <trkpt lat="40.522825" lon="0.514001">
        <ele>4.344</ele>
        <time>1970-01-01T01:58:38Z</time>
      </trkpt>
      <trkpt lat="40.522822" lon="0.513997">
        <ele>4.305</ele>
        <time>1970-01-01T01:58:39Z</time>
      </trkpt>
      <trkpt lat="40.522822" lon="0.513988">
        <ele>4.315</ele>
        <time>1970-01-01T01:58:40Z</time>
      </trkpt>
      <trkpt lat="40.522818" lon="0.513979">
        <ele>4.408</ele>
        <time>1970-01-01T01:58:41Z</time>
      </trkpt>
      <trkpt lat="40.522813" lon="0.513974">
        <ele>4.461</ele>
        <time>1970-01-01T01:58:42Z</time>
      </trkpt>
      <trkpt lat="40.522807" lon="0.513967">
        <ele>4.598</ele>
        <time>1970-01-01T01:58:43Z</time>
      </trkpt>
      <trkpt lat="40.522801" lon="0.513955">
        <ele>4.669</ele>
        <time>1970-01-01T01:58:44Z</time>
      </trkpt>
      <trkpt lat="40.522797" lon="0.513942">
        <ele>4.712</ele>
        <time>1970-01-01T01:58:45Z</time>
      </trkpt>
      <trkpt lat="40.522792" lon="0.513929">
        <ele>4.852</ele>
        <time>1970-01-01T01:58:46Z</time>
      </trkpt>
      <trkpt lat="40.522784" lon="0.513918">
        <ele>4.858</ele>
        <time>1970-01-01T01:58:47Z</time>
      </trkpt>
      <trkpt lat="40.522776" lon="0.513914">
        <ele>4.912</ele>
        <time>1970-01-01T01:58:48Z</time>
      </trkpt>
      <trkpt lat="40.522778" lon="0.513913">
        <ele>4.983</ele>
        <time>1970-01-01T01:58:49Z</time>
      </trkpt>
      <trkpt lat="40.522779" lon="0.513915">
        <ele>4.949</ele>
        <time>1970-01-01T01:58:50Z</time>
      </trkpt>
      <trkpt lat="40.522721" lon="0.514008">
        <ele>5.002</ele>
        <time>1970-01-01T01:59:34Z</time>
      </trkpt>
      <trkpt lat="40.522710" lon="0.514016">
        <ele>5.022</ele>
        <time>1970-01-01T01:59:35Z</time>
      </trkpt>
      <trkpt lat="40.522698" lon="0.514022">
        <ele>5.108</ele>
        <time>1970-01-01T01:59:36Z</time>
      </trkpt>
      <trkpt lat="40.522686" lon="0.514028">
        <ele>5.281</ele>
        <time>1970-01-01T01:59:37Z</time>
      </trkpt>
      <trkpt lat="40.522673" lon="0.514032">
        <ele>5.248</ele>
        <time>1970-01-01T01:59:38Z</time>
      </trkpt>
      <trkpt lat="40.522660" lon="0.514034">
        <ele>5.369</ele>
        <time>1970-01-01T01:59:39Z</time>
      </trkpt>
      <trkpt lat="40.522647" lon="0.514035">
        <ele>5.442</ele>
        <time>1970-01-01T01:59:40Z</time>
      </trkpt>
      <trkpt lat="40.522634" lon="0.514038">
        <ele>5.582</ele>
        <time>1970-01-01T01:59:41Z</time>
      </trkpt>
      <trkpt lat="40.522622" lon="0.514043">
        <ele>5.668</ele>
        <time>1970-01-01T01:59:42Z</time>
      </trkpt>
      <trkpt lat="40.522610" lon="0.514046">
        <ele>5.662</ele>
        <time>1970-01-01T01:59:43Z</time>
      </trkpt>
      <trkpt lat="40.522597" lon="0.514049">
        <ele>5.733</ele>
        <time>1970-01-01T01:59:44Z</time>
      </trkpt>
      <trkpt lat="40.522586" lon="0.514048">
        <ele>5.832</ele>
        <time>1970-01-01T01:59:45Z</time>
      </trkpt>
      <trkpt lat="40.522576" lon="0.514043">
        <ele>5.992</ele>
        <time>1970-01-01T01:59:46Z</time>
      </trkpt>
      <trkpt lat="40.522565" lon="0.514038">
        <ele>6.011</ele>
        <time>1970-01-01T01:59:47Z</time>
      </trkpt>
      <trkpt lat="40.522553" lon="0.514036">
        <ele>6.108</ele>
        <time>1970-01-01T01:59:48Z</time>
      </trkpt>
      <trkpt lat="40.522541" lon="0.514038">
        <ele>6.280</ele>
        <time>1970-01-01T01:59:49Z</time>
      </trkpt>
      <trkpt lat="40.522529" lon="0.514046">
        <ele>6.247</ele>
        <time>1970-01-01T01:59:50Z</time>
      </trkpt>
      <trkpt lat="40.522518" lon="0.514057">
        <ele>6.358</ele>
        <time>1970-01-01T01:59:51Z</time>
      </trkpt>
      <trkpt lat="40.522507" lon="0.514069">
        <ele>6.381</ele>
        <time>1970-01-01T01:59:52Z</time>
      </trkpt>
      <trkpt lat="40.522496" lon="0.514080">
        <ele>6.381</ele>
        <time>1970-01-01T01:59:53Z</time>
      </trkpt>
      <trkpt lat="40.522486" lon="0.514091">
        <ele>6.337</ele>
        <time>1970-01-01T01:59:54Z</time>
      </trkpt>
      <trkpt lat="40.522476" lon="0.514101">
        <ele>6.341</ele>
        <time>1970-01-01T01:59:55Z</time>
      </trkpt>
      <trkpt lat="40.522466" lon="0.514107">
        <ele>6.322</ele>
        <time>1970-01-01T01:59:56Z</time>
      </trkpt>
      <trkpt lat="40.522459" lon="0.514111">
        <ele>6.353</ele>
        <time>1970-01-01T01:59:57Z</time>
      </trkpt>
      <trkpt lat="40.522455" lon="0.514110">
        <ele>6.304</ele>
        <time>1970-01-01T01:59:58Z</time>
      </trkpt>
      <trkpt lat="40.522445" lon="0.514106">
        <ele>6.314</ele>
        <time>1970-01-01T01:59:59Z</time>
      </trkpt>
      <trkpt lat="40.522430" lon="0.514104">
        <ele>6.408</ele>
        <time>1970-01-01T02:00:00Z</time>
      </trkpt>
      <trkpt lat="40.522412" lon="0.514096">
        <ele>6.442</ele>
        <time>1970-01-01T02:00:01Z</time>
      </trkpt>
      <trkpt lat="40.522392" lon="0.514087">
        <ele>6.599</ele>
        <time>1970-01-01T02:00:02Z</time>
      </trkpt>
      <trkpt lat="40.522370" lon="0.514076">
        <ele>6.520</ele>
        <time>1970-01-01T02:00:03Z</time>
      </trkpt>
      <trkpt lat="40.522348" lon="0.514064">
        <ele>6.543</ele>
        <time>1970-01-01T02:00:04Z</time>
      </trkpt>
      <trkpt lat="40.522326" lon="0.514051">
        <ele>6.513</ele>
        <time>1970-01-01T02:00:05Z</time>
      </trkpt>
      <trkpt lat="40.522305" lon="0.514036">
        <ele>6.529</ele>
        <time>1970-01-01T02:00:06Z</time>
      </trkpt>
      <trkpt lat="40.522284" lon="0.514021">
        <ele>6.593</ele>
        <time>1970-01-01T02:00:07Z</time>
      </trkpt>
      <trkpt lat="40.522265" lon="0.514007">
        <ele>6.464</ele>
        <time>1970-01-01T02:00:08Z</time>
      </trkpt>
      <trkpt lat="40.522246" lon="0.513993">
        <ele>6.412</ele>
        <time>1970-01-01T02:00:09Z</time>
      </trkpt>
      <trkpt lat="40.522225" lon="0.513979">
        <ele>6.332</ele>
        <time>1970-01-01T02:00:10Z</time>
      </trkpt>
      <trkpt lat="40.522205" lon="0.513966">
        <ele>6.205</ele>
        <time>1970-01-01T02:00:11Z</time>
      </trkpt>
      <trkpt lat="40.522186" lon="0.513953">
        <ele>6.108</ele>
        <time>1970-01-01T02:00:12Z</time>
      </trkpt>
      <trkpt lat="40.522167" lon="0.513940">
        <ele>6.058</ele>
        <time>1970-01-01T02:00:13Z</time>
      </trkpt>
      <trkpt lat="40.522148" lon="0.513928">
        <ele>5.925</ele>
        <time>1970-01-01T02:00:14Z</time>
      </trkpt>
      <trkpt lat="40.522128" lon="0.513916">
        <ele>5.876</ele>
        <time>1970-01-01T02:00:15Z</time>
      </trkpt>
      <trkpt lat="40.522110" lon="0.513903">
        <ele>5.669</ele>
        <time>1970-01-01T02:00:16Z</time>
      </trkpt>
      <trkpt lat="40.522091" lon="0.513892">
        <ele>5.519</ele>
        <time>1970-01-01T02:00:17Z</time>
      </trkpt>
      <trkpt lat="40.522071" lon="0.513878">
        <ele>5.565</ele>
        <time>1970-01-01T02:00:18Z</time>
      </trkpt>
      <trkpt lat="40.522052" lon="0.513863">
        <ele>5.569</ele>
        <time>1970-01-01T02:00:19Z</time>
      </trkpt>
      <trkpt lat="40.522032" lon="0.513851">
        <ele>5.520</ele>
        <time>1970-01-01T02:00:20Z</time>
      </trkpt>
      <trkpt lat="40.522010" lon="0.513840">
        <ele>5.464</ele>
        <time>1970-01-01T02:00:21Z</time>
      </trkpt>
      <trkpt lat="40.521988" lon="0.513826">
        <ele>5.406</ele>
        <time>1970-01-01T02:00:22Z</time>
      </trkpt>
      <trkpt lat="40.521963" lon="0.513812">
        <ele>5.316</ele>
        <time>1970-01-01T02:00:23Z</time>
      </trkpt>
      <trkpt lat="40.521936" lon="0.513803">
        <ele>5.308</ele>
        <time>1970-01-01T02:00:24Z</time>
      </trkpt>
      <trkpt lat="40.521907" lon="0.513797">
        <ele>5.313</ele>
        <time>1970-01-01T02:00:25Z</time>
      </trkpt>
      <trkpt lat="40.521876" lon="0.513792">
        <ele>5.330</ele>
        <time>1970-01-01T02:00:26Z</time>
      </trkpt>
      <trkpt lat="40.521844" lon="0.513790">
        <ele>5.471</ele>
        <time>1970-01-01T02:00:27Z</time>
      </trkpt>
      <trkpt lat="40.521813" lon="0.513788">
        <ele>5.414</ele>
        <time>1970-01-01T02:00:28Z</time>
      </trkpt>
      <trkpt lat="40.521781" lon="0.513784">
        <ele>5.474</ele>
        <time>1970-01-01T02:00:29Z</time>
      </trkpt>
      <trkpt lat="40.521749" lon="0.513780">
        <ele>5.460</ele>
        <time>1970-01-01T02:00:30Z</time>
      </trkpt>
      <trkpt lat="40.521717" lon="0.513781">
        <ele>5.454</ele>
        <time>1970-01-01T02:00:31Z</time>
      </trkpt>
      <trkpt lat="40.521686" lon="0.513784">
        <ele>5.485</ele>
        <time>1970-01-01T02:00:32Z</time>
      </trkpt>
      <trkpt lat="40.521656" lon="0.513791">
        <ele>5.412</ele>
        <time>1970-01-01T02:00:33Z</time>
      </trkpt>
      <trkpt lat="40.521629" lon="0.513801">
        <ele>5.332</ele>
        <time>1970-01-01T02:00:34Z</time>
      </trkpt>
      <trkpt lat="40.521603" lon="0.513813">
        <ele>5.305</ele>
        <time>1970-01-01T02:00:35Z</time>
      </trkpt>
      <trkpt lat="40.521579" lon="0.513827">
        <ele>5.208</ele>
        <time>1970-01-01T02:00:36Z</time>
      </trkpt>
      <trkpt lat="40.521555" lon="0.513843">
        <ele>5.238</ele>
        <time>1970-01-01T02:00:37Z</time>
      </trkpt>
      <trkpt lat="40.521528" lon="0.513859">
        <ele>5.175</ele>
        <time>1970-01-01T02:00:38Z</time>
      </trkpt>
      <trkpt lat="40.521501" lon="0.513873">
        <ele>5.146</ele>
        <time>1970-01-01T02:00:39Z</time>
      </trkpt>
      <trkpt lat="40.521474" lon="0.513880">
        <ele>5.019</ele>
        <time>1970-01-01T02:00:40Z</time>
      </trkpt>
      <trkpt lat="40.521449" lon="0.513889">
        <ele>5.029</ele>
        <time>1970-01-01T02:00:41Z</time>
      </trkpt>
      <trkpt lat="40.521428" lon="0.513896">
        <ele>5.015</ele>
        <time>1970-01-01T02:00:42Z</time>
      </trkpt>
      <trkpt lat="40.521409" lon="0.513898">
        <ele>5.029</ele>
        <time>1970-01-01T02:00:43Z</time>
      </trkpt>
      <trkpt lat="40.521389" lon="0.513899">
        <ele>5.050</ele>
        <time>1970-01-01T02:00:44Z</time>
      </trkpt>
      <trkpt lat="40.521367" lon="0.513900">
        <ele>5.298</ele>
        <time>1970-01-01T02:00:45Z</time>
      </trkpt>
      <trkpt lat="40.521343" lon="0.513901">
        <ele>5.415</ele>
        <time>1970-01-01T02:00:46Z</time>
      </trkpt>
      <trkpt lat="40.521318" lon="0.513901">
        <ele>5.526</ele>
        <time>1970-01-01T02:00:47Z</time>
      </trkpt>
      <trkpt lat="40.521291" lon="0.513898">
        <ele>5.708</ele>
        <time>1970-01-01T02:00:48Z</time>
      </trkpt>
      <trkpt lat="40.521263" lon="0.513892">
        <ele>5.926</ele>
        <time>1970-01-01T02:00:49Z</time>
      </trkpt>
      <trkpt lat="40.521233" lon="0.513883">
        <ele>6.173</ele>
        <time>1970-01-01T02:00:50Z</time>
      </trkpt>
      <trkpt lat="40.521203" lon="0.513872">
        <ele>6.484</ele>
        <time>1970-01-01T02:00:51Z</time>
      </trkpt>
      <trkpt lat="40.521173" lon="0.513860">
        <ele>6.717</ele>
        <time>1970-01-01T02:00:52Z</time>
      </trkpt>
      <trkpt lat="40.521141" lon="0.513848">
        <ele>6.977</ele>
        <time>1970-01-01T02:00:53Z</time>
      </trkpt>
      <trkpt lat="40.521108" lon="0.513837">
        <ele>7.263</ele>
        <time>1970-01-01T02:00:54Z</time>
      </trkpt>
      <trkpt lat="40.521074" lon="0.513831">
        <ele>7.287</ele>
        <time>1970-01-01T02:00:55Z</time>
      </trkpt>
      <trkpt lat="40.521036" lon="0.513830">
        <ele>7.238</ele>
        <time>1970-01-01T02:00:56Z</time>
      </trkpt>
      <trkpt lat="40.520995" lon="0.513830">
        <ele>7.211</ele>
        <time>1970-01-01T02:00:57Z</time>
      </trkpt>
      <trkpt lat="40.520950" lon="0.513821">
        <ele>7.221</ele>
        <time>1970-01-01T02:00:58Z</time>
      </trkpt>
      <trkpt lat="40.520901" lon="0.513808">
        <ele>7.303</ele>
        <time>1970-01-01T02:00:59Z</time>
      </trkpt>
      <trkpt lat="40.520853" lon="0.513798">
        <ele>7.308</ele>
        <time>1970-01-01T02:01:00Z</time>
      </trkpt>
      <trkpt lat="40.520805" lon="0.513788">
        <ele>7.468</ele>
        <time>1970-01-01T02:01:01Z</time>
      </trkpt>
      <trkpt lat="40.520756" lon="0.513779">
        <ele>7.495</ele>
        <time>1970-01-01T02:01:02Z</time>
      </trkpt>
      <trkpt lat="40.520706" lon="0.513769">
        <ele>7.476</ele>
        <time>1970-01-01T02:01:03Z</time>
      </trkpt>
      <trkpt lat="40.520656" lon="0.513760">
        <ele>7.589</ele>
        <time>1970-01-01T02:01:04Z</time>
      </trkpt>
      <trkpt lat="40.520607" lon="0.513750">
        <ele>7.559</ele>
        <time>1970-01-01T02:01:05Z</time>
      </trkpt>
      <trkpt lat="40.520557" lon="0.513735">
        <ele>7.675</ele>
        <time>1970-01-01T02:01:06Z</time>
      </trkpt>
      <trkpt lat="40.520508" lon="0.513716">
        <ele>7.369</ele>
        <time>1970-01-01T02:01:07Z</time>
      </trkpt>
      <trkpt lat="40.520459" lon="0.513692">
        <ele>7.180</ele>
        <time>1970-01-01T02:01:08Z</time>
      </trkpt>
      <trkpt lat="40.520410" lon="0.513668">
        <ele>6.913</ele>
        <time>1970-01-01T02:01:09Z</time>
      </trkpt>
      <trkpt lat="40.520361" lon="0.513645">
        <ele>6.643</ele>
        <time>1970-01-01T02:01:10Z</time>
      </trkpt>
      <trkpt lat="40.520313" lon="0.513620">
        <ele>6.207</ele>
        <time>1970-01-01T02:01:11Z</time>
      </trkpt>
      <trkpt lat="40.520267" lon="0.513596">
        <ele>6.108</ele>
        <time>1970-01-01T02:01:12Z</time>
      </trkpt>
      <trkpt lat="40.520219" lon="0.513575">
        <ele>6.148</ele>
        <time>1970-01-01T02:01:13Z</time>
      </trkpt>
      <trkpt lat="40.520170" lon="0.513557">
        <ele>6.165</ele>
        <time>1970-01-01T02:01:14Z</time>
      </trkpt>
      <trkpt lat="40.520120" lon="0.513546">
        <ele>6.016</ele>
        <time>1970-01-01T02:01:15Z</time>
      </trkpt>
      <trkpt lat="40.520070" lon="0.513541">
        <ele>5.999</ele>
        <time>1970-01-01T02:01:16Z</time>
      </trkpt>
      <trkpt lat="40.520020" lon="0.513540">
        <ele>5.819</ele>
        <time>1970-01-01T02:01:17Z</time>
      </trkpt>
      <trkpt lat="40.519968" lon="0.513537">
        <ele>5.995</ele>
        <time>1970-01-01T02:01:18Z</time>
      </trkpt>
      <trkpt lat="40.519917" lon="0.513533">
        <ele>6.169</ele>
        <time>1970-01-01T02:01:19Z</time>
      </trkpt>
      <trkpt lat="40.519866" lon="0.513532">
        <ele>6.280</ele>
        <time>1970-01-01T02:01:20Z</time>
      </trkpt>
      <trkpt lat="40.519817" lon="0.513537">
        <ele>6.356</ele>
        <time>1970-01-01T02:01:21Z</time>
      </trkpt>
      <trkpt lat="40.519770" lon="0.513543">
        <ele>6.459</ele>
        <time>1970-01-01T02:01:22Z</time>
      </trkpt>
      <trkpt lat="40.519724" lon="0.513553">
        <ele>6.414</ele>
        <time>1970-01-01T02:01:23Z</time>
      </trkpt>
      <trkpt lat="40.519679" lon="0.513567">
        <ele>6.408</ele>
        <time>1970-01-01T02:01:24Z</time>
      </trkpt>
      <trkpt lat="40.519631" lon="0.513573">
        <ele>6.662</ele>
        <time>1970-01-01T02:01:25Z</time>
      </trkpt>
      <trkpt lat="40.519582" lon="0.513574">
        <ele>6.789</ele>
        <time>1970-01-01T02:01:26Z</time>
      </trkpt>
      <trkpt lat="40.519536" lon="0.513571">
        <ele>6.960</ele>
        <time>1970-01-01T02:01:27Z</time>
      </trkpt>
      <trkpt lat="40.519490" lon="0.513566">
        <ele>7.013</ele>
        <time>1970-01-01T02:01:28Z</time>
      </trkpt>
      <trkpt lat="40.519446" lon="0.513563">
        <ele>7.273</ele>
        <time>1970-01-01T02:01:29Z</time>
      </trkpt>
      <trkpt lat="40.519402" lon="0.513560">
        <ele>6.939</ele>
        <time>1970-01-01T02:01:30Z</time>
      </trkpt>
      <trkpt lat="40.519359" lon="0.513553">
        <ele>6.663</ele>
        <time>1970-01-01T02:01:31Z</time>
      </trkpt>
      <trkpt lat="40.519316" lon="0.513543">
        <ele>6.324</ele>
        <time>1970-01-01T02:01:32Z</time>
      </trkpt>
      <trkpt lat="40.519274" lon="0.513529">
        <ele>6.113</ele>
        <time>1970-01-01T02:01:33Z</time>
      </trkpt>
      <trkpt lat="40.519232" lon="0.513509">
        <ele>5.843</ele>
        <time>1970-01-01T02:01:34Z</time>
      </trkpt>
      <trkpt lat="40.519190" lon="0.513485">
        <ele>5.607</ele>
        <time>1970-01-01T02:01:35Z</time>
      </trkpt>
      <trkpt lat="40.519150" lon="0.513455">
        <ele>5.508</ele>
        <time>1970-01-01T02:01:36Z</time>
      </trkpt>
      <trkpt lat="40.519115" lon="0.513413">
        <ele>5.718</ele>
        <time>1970-01-01T02:01:37Z</time>
      </trkpt>
      <trkpt lat="40.519089" lon="0.513360">
        <ele>5.925</ele>
        <time>1970-01-01T02:01:38Z</time>
      </trkpt>
      <trkpt lat="40.519065" lon="0.513307">
        <ele>6.066</ele>
        <time>1970-01-01T02:01:39Z</time>
      </trkpt>
      <trkpt lat="40.519035" lon="0.513262">
        <ele>6.059</ele>
        <time>1970-01-01T02:01:40Z</time>
      </trkpt>
      <trkpt lat="40.518997" lon="0.513227">
        <ele>6.059</ele>
        <time>1970-01-01T02:01:41Z</time>
      </trkpt>
      <trkpt lat="40.518953" lon="0.513204">
        <ele>6.025</ele>
        <time>1970-01-01T02:01:42Z</time>
      </trkpt>
      <trkpt lat="40.518907" lon="0.513183">
        <ele>6.049</ele>
        <time>1970-01-01T02:01:43Z</time>
      </trkpt>
      <trkpt lat="40.518864" lon="0.513158">
        <ele>6.030</ele>
        <time>1970-01-01T02:01:44Z</time>
      </trkpt>
      <trkpt lat="40.518823" lon="0.513131">
        <ele>5.997</ele>
        <time>1970-01-01T02:01:45Z</time>
      </trkpt>
      <trkpt lat="40.518784" lon="0.513103">
        <ele>5.923</ele>
        <time>1970-01-01T02:01:46Z</time>
      </trkpt>
      <trkpt lat="40.518745" lon="0.513077">
        <ele>6.025</ele>
        <time>1970-01-01T02:01:47Z</time>
      </trkpt>
      <trkpt lat="40.518707" lon="0.513050">
        <ele>6.008</ele>
        <time>1970-01-01T02:01:48Z</time>
      </trkpt>
      <trkpt lat="40.518667" lon="0.513026">
        <ele>6.186</ele>
        <time>1970-01-01T02:01:49Z</time>
      </trkpt>
      <trkpt lat="40.518625" lon="0.513001">
        <ele>6.283</ele>
        <time>1970-01-01T02:01:50Z</time>
      </trkpt>
      <trkpt lat="40.518584" lon="0.512970">
        <ele>6.344</ele>
        <time>1970-01-01T02:01:51Z</time>
      </trkpt>
      <trkpt lat="40.518543" lon="0.512940">
        <ele>6.467</ele>
        <time>1970-01-01T02:01:52Z</time>
      </trkpt>
      <trkpt lat="40.518498" lon="0.512912">
        <ele>6.537</ele>
        <time>1970-01-01T02:01:53Z</time>
      </trkpt>
      <trkpt lat="40.518451" lon="0.512884">
        <ele>6.663</ele>
        <time>1970-01-01T02:01:54Z</time>
      </trkpt>
      <trkpt lat="40.518405" lon="0.512855">
        <ele>6.757</ele>
        <time>1970-01-01T02:01:55Z</time>
      </trkpt>
      <trkpt lat="40.518359" lon="0.512824">
        <ele>6.848</ele>
        <time>1970-01-01T02:01:56Z</time>
      </trkpt>
      <trkpt lat="40.518313" lon="0.512792">
        <ele>7.084</ele>
        <time>1970-01-01T02:01:57Z</time>
      </trkpt>
      <trkpt lat="40.518269" lon="0.512758">
        <ele>7.107</ele>
        <time>1970-01-01T02:01:58Z</time>
      </trkpt>
      <trkpt lat="40.518226" lon="0.512725">
        <ele>7.117</ele>
        <time>1970-01-01T02:01:59Z</time>
      </trkpt>
      <trkpt lat="40.518184" lon="0.512692">
        <ele>7.108</ele>
        <time>1970-01-01T02:02:00Z</time>
      </trkpt>
      <trkpt lat="40.518141" lon="0.512659">
        <ele>7.155</ele>
        <time>1970-01-01T02:02:01Z</time>
      </trkpt>
      <trkpt lat="40.518096" lon="0.512630">
        <ele>7.112</ele>
        <time>1970-01-01T02:02:02Z</time>
      </trkpt>
      <trkpt lat="40.518053" lon="0.512599">
        <ele>7.043</ele>
        <time>1970-01-01T02:02:03Z</time>
      </trkpt>
      <trkpt lat="40.518010" lon="0.512564">
        <ele>6.926</ele>
        <time>1970-01-01T02:02:04Z</time>
      </trkpt>
      <trkpt lat="40.517966" lon="0.512528">
        <ele>6.776</ele>
        <time>1970-01-01T02:02:05Z</time>
      </trkpt>
      <trkpt lat="40.517922" lon="0.512492">
        <ele>6.592</ele>
        <time>1970-01-01T02:02:06Z</time>
      </trkpt>
      <trkpt lat="40.517876" lon="0.512458">
        <ele>6.576</ele>
        <time>1970-01-01T02:02:07Z</time>
      </trkpt>
      <trkpt lat="40.517828" lon="0.512423">
        <ele>6.447</ele>
        <time>1970-01-01T02:02:08Z</time>
      </trkpt>
      <trkpt lat="40.517780" lon="0.512387">
        <ele>6.443</ele>
        <time>1970-01-01T02:02:09Z</time>
      </trkpt>
      <trkpt lat="40.517733" lon="0.512351">
        <ele>6.264</ele>
        <time>1970-01-01T02:02:10Z</time>
      </trkpt>
      <trkpt lat="40.517687" lon="0.512314">
        <ele>6.010</ele>
        <time>1970-01-01T02:02:11Z</time>
      </trkpt>
      <trkpt lat="40.517641" lon="0.512278">
        <ele>5.808</ele>
        <time>1970-01-01T02:02:12Z</time>
      </trkpt>
      <trkpt lat="40.517594" lon="0.512244">
        <ele>5.671</ele>
        <time>1970-01-01T02:02:13Z</time>
      </trkpt>
      <trkpt lat="40.517544" lon="0.512216">
        <ele>5.418</ele>
        <time>1970-01-01T02:02:14Z</time>
      </trkpt>
      <trkpt lat="40.517493" lon="0.512192">
        <ele>5.489</ele>
        <time>1970-01-01T02:02:15Z</time>
      </trkpt>
      <trkpt lat="40.517439" lon="0.512173">
        <ele>5.872</ele>
        <time>1970-01-01T02:02:16Z</time>
      </trkpt>
      <trkpt lat="40.517384" lon="0.512156">
        <ele>6.142</ele>
        <time>1970-01-01T02:02:17Z</time>
      </trkpt>
      <trkpt lat="40.517326" lon="0.512143">
        <ele>6.558</ele>
        <time>1970-01-01T02:02:18Z</time>
      </trkpt>
      <trkpt lat="40.517268" lon="0.512127">
        <ele>6.932</ele>
        <time>1970-01-01T02:02:19Z</time>
      </trkpt>
      <trkpt lat="40.517211" lon="0.512110">
        <ele>7.373</ele>
        <time>1970-01-01T02:02:20Z</time>
      </trkpt>
      <trkpt lat="40.517155" lon="0.512095">
        <ele>7.888</ele>
        <time>1970-01-01T02:02:21Z</time>
      </trkpt>
      <trkpt lat="40.517100" lon="0.512085">
        <ele>8.224</ele>
        <time>1970-01-01T02:02:22Z</time>
      </trkpt>
      <trkpt lat="40.517045" lon="0.512078">
        <ele>8.526</ele>
        <time>1970-01-01T02:02:23Z</time>
      </trkpt>
      <trkpt lat="40.516990" lon="0.512073">
        <ele>8.808</ele>
        <time>1970-01-01T02:02:24Z</time>
      </trkpt>
      <trkpt lat="40.516937" lon="0.512066">
        <ele>9.075</ele>
        <time>1970-01-01T02:02:25Z</time>
      </trkpt>
      <trkpt lat="40.516883" lon="0.512055">
        <ele>8.942</ele>
        <time>1970-01-01T02:02:26Z</time>
      </trkpt>
      <trkpt lat="40.516833" lon="0.512032">
        <ele>8.713</ele>
        <time>1970-01-01T02:02:27Z</time>
      </trkpt>
      <trkpt lat="40.516787" lon="0.511996">
        <ele>8.596</ele>
        <time>1970-01-01T02:02:28Z</time>
      </trkpt>
      <trkpt lat="40.516741" lon="0.511959">
        <ele>8.386</ele>
        <time>1970-01-01T02:02:29Z</time>
      </trkpt>
      <trkpt lat="40.516698" lon="0.511919">
        <ele>8.022</ele>
        <time>1970-01-01T02:02:30Z</time>
      </trkpt>
      <trkpt lat="40.516655" lon="0.511879">
        <ele>7.766</ele>
        <time>1970-01-01T02:02:31Z</time>
      </trkpt>
      <trkpt lat="40.516610" lon="0.511842">
        <ele>7.557</ele>
        <time>1970-01-01T02:02:32Z</time>
      </trkpt>
      <trkpt lat="40.516564" lon="0.511810">
        <ele>7.398</ele>
        <time>1970-01-01T02:02:33Z</time>
      </trkpt>
      <trkpt lat="40.516517" lon="0.511783">
        <ele>7.215</ele>
        <time>1970-01-01T02:02:34Z</time>
      </trkpt>
      <trkpt lat="40.516469" lon="0.511755">
        <ele>7.126</ele>
        <time>1970-01-01T02:02:35Z</time>
      </trkpt>
      <trkpt lat="40.516421" lon="0.511725">
        <ele>7.008</ele>
        <time>1970-01-01T02:02:36Z</time>
      </trkpt>
      <trkpt lat="40.516374" lon="0.511697">
        <ele>7.016</ele>
        <time>1970-01-01T02:02:37Z</time>
      </trkpt>
      <trkpt lat="40.516325" lon="0.511670">
        <ele>7.023</ele>
        <time>1970-01-01T02:02:38Z</time>
      </trkpt>
      <trkpt lat="40.516275" lon="0.511648">
        <ele>7.024</ele>
        <time>1970-01-01T02:02:39Z</time>
      </trkpt>
      <trkpt lat="40.516222" lon="0.511632">
        <ele>7.037</ele>
        <time>1970-01-01T02:02:40Z</time>
      </trkpt>
      <trkpt lat="40.516172" lon="0.511614">
        <ele>7.067</ele>
        <time>1970-01-01T02:02:41Z</time>
      </trkpt>
      <trkpt lat="40.516124" lon="0.511595">
        <ele>7.093</ele>
        <time>1970-01-01T02:02:42Z</time>
      </trkpt>
      <trkpt lat="40.516078" lon="0.511579">
        <ele>6.917</ele>
        <time>1970-01-01T02:02:43Z</time>
      </trkpt>
      <trkpt lat="40.516034" lon="0.511567">
        <ele>6.738</ele>
        <time>1970-01-01T02:02:44Z</time>
      </trkpt>
      <trkpt lat="40.515993" lon="0.511558">
        <ele>6.683</ele>
        <time>1970-01-01T02:02:45Z</time>
      </trkpt>
      <trkpt lat="40.515955" lon="0.511547">
        <ele>6.425</ele>
        <time>1970-01-01T02:02:46Z</time>
      </trkpt>
      <trkpt lat="40.515922" lon="0.511533">
        <ele>6.317</ele>
        <time>1970-01-01T02:02:47Z</time>
      </trkpt>
      <trkpt lat="40.515893" lon="0.511520">
        <ele>6.208</ele>
        <time>1970-01-01T02:02:48Z</time>
      </trkpt>
      <trkpt lat="40.515865" lon="0.511508">
        <ele>6.115</ele>
        <time>1970-01-01T02:02:49Z</time>
      </trkpt>
      <trkpt lat="40.515836" lon="0.511494">
        <ele>6.012</ele>
        <time>1970-01-01T02:02:50Z</time>
      </trkpt>
      <trkpt lat="40.515807" lon="0.511478">
        <ele>5.923</ele>
        <time>1970-01-01T02:02:51Z</time>
      </trkpt>
      <trkpt lat="40.515775" lon="0.511462">
        <ele>5.896</ele>
        <time>1970-01-01T02:02:52Z</time>
      </trkpt>
      <trkpt lat="40.515738" lon="0.511445">
        <ele>5.736</ele>
        <time>1970-01-01T02:02:53Z</time>
      </trkpt>
      <trkpt lat="40.515696" lon="0.511423">
        <ele>5.522</ele>
        <time>1970-01-01T02:02:54Z</time>
      </trkpt>
      <trkpt lat="40.515652" lon="0.511397">
        <ele>5.376</ele>
        <time>1970-01-01T02:02:55Z</time>
      </trkpt>
      <trkpt lat="40.515607" lon="0.511370">
        <ele>5.337</ele>
        <time>1970-01-01T02:02:56Z</time>
      </trkpt>
      <trkpt lat="40.515561" lon="0.511341">
        <ele>5.271</ele>
        <time>1970-01-01T02:02:57Z</time>
      </trkpt>
      <trkpt lat="40.515515" lon="0.511309">
        <ele>5.441</ele>
        <time>1970-01-01T02:02:58Z</time>
      </trkpt>
      <trkpt lat="40.515471" lon="0.511276">
        <ele>5.715</ele>
        <time>1970-01-01T02:02:59Z</time>
      </trkpt>
      <trkpt lat="40.515429" lon="0.511242">
        <ele>6.008</ele>
        <time>1970-01-01T02:03:00Z</time>
      </trkpt>
      <trkpt lat="40.515386" lon="0.511208">
        <ele>6.374</ele>
        <time>1970-01-01T02:03:01Z</time>
      </trkpt>
      <trkpt lat="40.515345" lon="0.511172">
        <ele>6.551</ele>
        <time>1970-01-01T02:03:02Z</time>
      </trkpt>
      <trkpt lat="40.515307" lon="0.511132">
        <ele>6.862</ele>
        <time>1970-01-01T02:03:03Z</time>
      </trkpt>
      <trkpt lat="40.515268" lon="0.511097">
        <ele>7.155</ele>
        <time>1970-01-01T02:03:04Z</time>
      </trkpt>
      <trkpt lat="40.515231" lon="0.511058">
        <ele>7.645</ele>
        <time>1970-01-01T02:03:05Z</time>
      </trkpt>
      <trkpt lat="40.515191" lon="0.511025">
        <ele>7.961</ele>
        <time>1970-01-01T02:03:06Z</time>
      </trkpt>
      <trkpt lat="40.515150" lon="0.511000">
        <ele>8.345</ele>
        <time>1970-01-01T02:03:07Z</time>
      </trkpt>
      <trkpt lat="40.515107" lon="0.510977">
        <ele>8.656</ele>
        <time>1970-01-01T02:03:08Z</time>
      </trkpt>
      <trkpt lat="40.515065" lon="0.510954">
        <ele>8.997</ele>
        <time>1970-01-01T02:03:09Z</time>
      </trkpt>
      <trkpt lat="40.515025" lon="0.510926">
        <ele>9.223</ele>
        <time>1970-01-01T02:03:10Z</time>
      </trkpt>
      <trkpt lat="40.514986" lon="0.510894">
        <ele>9.425</ele>
        <time>1970-01-01T02:03:11Z</time>
      </trkpt>
      <trkpt lat="40.514949" lon="0.510859">
        <ele>9.308</ele>
        <time>1970-01-01T02:03:12Z</time>
      </trkpt>
      <trkpt lat="40.514913" lon="0.510820">
        <ele>9.166</ele>
        <time>1970-01-01T02:03:13Z</time>
      </trkpt>
      <trkpt lat="40.514877" lon="0.510780">
        <ele>8.893</ele>
        <time>1970-01-01T02:03:14Z</time>
      </trkpt>
      <trkpt lat="40.514843" lon="0.510738">
        <ele>8.584</ele>
        <time>1970-01-01T02:03:15Z</time>
      </trkpt>
      <trkpt lat="40.514810" lon="0.510694">
        <ele>8.387</ele>
        <time>1970-01-01T02:03:16Z</time>
      </trkpt>
      <trkpt lat="40.514777" lon="0.510650">
        <ele>8.167</ele>
        <time>1970-01-01T02:03:17Z</time>
      </trkpt>
      <trkpt lat="40.514744" lon="0.510603">
        <ele>8.073</ele>
        <time>1970-01-01T02:03:18Z</time>
      </trkpt>
      <trkpt lat="40.514712" lon="0.510556">
        <ele>7.937</ele>
        <time>1970-01-01T02:03:19Z</time>
      </trkpt>
      <trkpt lat="40.514679" lon="0.510509">
        <ele>7.768</ele>
        <time>1970-01-01T02:03:20Z</time>
      </trkpt>
      <trkpt lat="40.514643" lon="0.510466">
        <ele>7.646</ele>
        <time>1970-01-01T02:03:21Z</time>
      </trkpt>
      <trkpt lat="40.514603" lon="0.510425">
        <ele>7.588</ele>
        <time>1970-01-01T02:03:22Z</time>
      </trkpt>
      <trkpt lat="40.514563" lon="0.510385">
        <ele>7.616</ele>
        <time>1970-01-01T02:03:23Z</time>
      </trkpt>
      <trkpt lat="40.514522" lon="0.510345">
        <ele>7.708</ele>
        <time>1970-01-01T02:03:24Z</time>
      </trkpt>
      <trkpt lat="40.514479" lon="0.510310">
        <ele>7.851</ele>
        <time>1970-01-01T02:03:25Z</time>
      </trkpt>
      <trkpt lat="40.514434" lon="0.510279">
        <ele>8.038</ele>
        <time>1970-01-01T02:03:26Z</time>
      </trkpt>
      <trkpt lat="40.514388" lon="0.510247">
        <ele>8.349</ele>
        <time>1970-01-01T02:03:27Z</time>
      </trkpt>
      <trkpt lat="40.514342" lon="0.510214">
        <ele>8.662</ele>
        <time>1970-01-01T02:03:28Z</time>
      </trkpt>
      <trkpt lat="40.514295" lon="0.510181">
        <ele>8.992</ele>
        <time>1970-01-01T02:03:29Z</time>
      </trkpt>
      <trkpt lat="40.514250" lon="0.510144">
        <ele>9.258</ele>
        <time>1970-01-01T02:03:30Z</time>
      </trkpt>
      <trkpt lat="40.514207" lon="0.510107">
        <ele>9.592</ele>
        <time>1970-01-01T02:03:31Z</time>
      </trkpt>
      <trkpt lat="40.514163" lon="0.510073">
        <ele>9.743</ele>
        <time>1970-01-01T02:03:32Z</time>
      </trkpt>
      <trkpt lat="40.514117" lon="0.510041">
        <ele>9.513</ele>
        <time>1970-01-01T02:03:33Z</time>
      </trkpt>
      <trkpt lat="40.514070" lon="0.510009">
        <ele>9.343</ele>
        <time>1970-01-01T02:03:34Z</time>
      </trkpt>
      <trkpt lat="40.514022" lon="0.509977">
        <ele>8.907</ele>
        <time>1970-01-01T02:03:35Z</time>
      </trkpt>
      <trkpt lat="40.513976" lon="0.509944">
        <ele>8.608</ele>
        <time>1970-01-01T02:03:36Z</time>
      </trkpt>
      <trkpt lat="40.513930" lon="0.509909">
        <ele>8.248</ele>
        <time>1970-01-01T02:03:37Z</time>
      </trkpt>
      <trkpt lat="40.513887" lon="0.509868">
        <ele>8.075</ele>
        <time>1970-01-01T02:03:38Z</time>
      </trkpt>
      <trkpt lat="40.513845" lon="0.509823">
        <ele>7.416</ele>
        <time>1970-01-01T02:03:39Z</time>
      </trkpt>
      <trkpt lat="40.513803" lon="0.509776">
        <ele>6.839</ele>
        <time>1970-01-01T02:03:40Z</time>
      </trkpt>
      <trkpt lat="40.513763" lon="0.509727">
        <ele>6.269</ele>
        <time>1970-01-01T02:03:41Z</time>
      </trkpt>
      <trkpt lat="40.513728" lon="0.509677">
        <ele>5.725</ele>
        <time>1970-01-01T02:03:42Z</time>
      </trkpt>
      <trkpt lat="40.513696" lon="0.509629">
        <ele>5.489</ele>
        <time>1970-01-01T02:03:43Z</time>
      </trkpt>
      <trkpt lat="40.513665" lon="0.509584">
        <ele>5.130</ele>
        <time>1970-01-01T02:03:44Z</time>
      </trkpt>
      <trkpt lat="40.513638" lon="0.509542">
        <ele>4.975</ele>
        <time>1970-01-01T02:03:45Z</time>
      </trkpt>
      <trkpt lat="40.513616" lon="0.509501">
        <ele>4.828</ele>
        <time>1970-01-01T02:03:46Z</time>
      </trkpt>
      <trkpt lat="40.513601" lon="0.509457">
        <ele>4.920</ele>
        <time>1970-01-01T02:03:47Z</time>
      </trkpt>
      <trkpt lat="40.513592" lon="0.509411">
        <ele>5.308</ele>
        <time>1970-01-01T02:03:48Z</time>
      </trkpt>
      <trkpt lat="40.513594" lon="0.509366">
        <ele>5.854</ele>
        <time>1970-01-01T02:03:49Z</time>
      </trkpt>
      <trkpt lat="40.513600" lon="0.509323">
        <ele>6.391</ele>
        <time>1970-01-01T02:03:50Z</time>
      </trkpt>
      <trkpt lat="40.513614" lon="0.509282">
        <ele>6.882</ele>
        <time>1970-01-01T02:03:51Z</time>
      </trkpt>
      <trkpt lat="40.513631" lon="0.509243">
        <ele>7.215</ele>
        <time>1970-01-01T02:03:52Z</time>
      </trkpt>
      <trkpt lat="40.513649" lon="0.509206">
        <ele>7.655</ele>
        <time>1970-01-01T02:03:53Z</time>
      </trkpt>
      <trkpt lat="40.513669" lon="0.509169">
        <ele>8.011</ele>
        <time>1970-01-01T02:03:54Z</time>
      </trkpt>
      <trkpt lat="40.513691" lon="0.509134">
        <ele>8.335</ele>
        <time>1970-01-01T02:03:55Z</time>
      </trkpt>
      <trkpt lat="40.513714" lon="0.509099">
        <ele>8.616</ele>
        <time>1970-01-01T02:03:56Z</time>
      </trkpt>
      <trkpt lat="40.513739" lon="0.509065">
        <ele>8.926</ele>
        <time>1970-01-01T02:03:57Z</time>
      </trkpt>
      <trkpt lat="40.513762" lon="0.509034">
        <ele>9.247</ele>
        <time>1970-01-01T02:03:58Z</time>
      </trkpt>
      <trkpt lat="40.513780" lon="0.509002">
        <ele>9.411</ele>
        <time>1970-01-01T02:03:59Z</time>
      </trkpt>
      <trkpt lat="40.513785" lon="0.508965">
        <ele>9.708</ele>
        <time>1970-01-01T02:04:00Z</time>
      </trkpt>
      <trkpt lat="40.513776" lon="0.508928">
        <ele>10.169</ele>
        <time>1970-01-01T02:04:01Z</time>
      </trkpt>
      <trkpt lat="40.513752" lon="0.508898">
        <ele>10.456</ele>
        <time>1970-01-01T02:04:02Z</time>
      </trkpt>
      <trkpt lat="40.513715" lon="0.508872">
        <ele>10.767</ele>
        <time>1970-01-01T02:04:03Z</time>
      </trkpt>
      <trkpt lat="40.513673" lon="0.508851">
        <ele>10.980</ele>
        <time>1970-01-01T02:04:04Z</time>
      </trkpt>
      <trkpt lat="40.513629" lon="0.508830">
        <ele>11.290</ele>
        <time>1970-01-01T02:04:05Z</time>
      </trkpt>
      <trkpt lat="40.513582" lon="0.508811">
        <ele>11.116</ele>
        <time>1970-01-01T02:04:06Z</time>
      </trkpt>
      <trkpt lat="40.513537" lon="0.508788">
        <ele>11.080</ele>
        <time>1970-01-01T02:04:07Z</time>
      </trkpt>
      <trkpt lat="40.513492" lon="0.508763">
        <ele>10.841</ele>
        <time>1970-01-01T02:04:08Z</time>
      </trkpt>
      <trkpt lat="40.513449" lon="0.508734">
        <ele>10.681</ele>
        <time>1970-01-01T02:04:09Z</time>
      </trkpt>
      <trkpt lat="40.513405" lon="0.508701">
        <ele>10.461</ele>
        <time>1970-01-01T02:04:10Z</time>
      </trkpt>
      <trkpt lat="40.513362" lon="0.508665">
        <ele>10.217</ele>
        <time>1970-01-01T02:04:11Z</time>
      </trkpt>
      <trkpt lat="40.513318" lon="0.508631">
        <ele>9.908</ele>
        <time>1970-01-01T02:04:12Z</time>
      </trkpt>
      <trkpt lat="40.513271" lon="0.508601">
        <ele>9.595</ele>
        <time>1970-01-01T02:04:13Z</time>
      </trkpt>
      <trkpt lat="40.513225" lon="0.508574">
        <ele>9.212</ele>
        <time>1970-01-01T02:04:14Z</time>
      </trkpt>
      <trkpt lat="40.513178" lon="0.508546">
        <ele>8.873</ele>
        <time>1970-01-01T02:04:15Z</time>
      </trkpt>
      <trkpt lat="40.513129" lon="0.508516">
        <ele>8.316</ele>
        <time>1970-01-01T02:04:16Z</time>
      </trkpt>
      <trkpt lat="40.513080" lon="0.508484">
        <ele>7.816</ele>
        <time>1970-01-01T02:04:17Z</time>
      </trkpt>
      <trkpt lat="40.513033" lon="0.508451">
        <ele>7.352</ele>
        <time>1970-01-01T02:04:18Z</time>
      </trkpt>
      <trkpt lat="40.512984" lon="0.508418">
        <ele>7.186</ele>
        <time>1970-01-01T02:04:19Z</time>
      </trkpt>
      <trkpt lat="40.512935" lon="0.508383">
        <ele>6.917</ele>
        <time>1970-01-01T02:04:20Z</time>
      </trkpt>
      <trkpt lat="40.512887" lon="0.508348">
        <ele>7.026</ele>
        <time>1970-01-01T02:04:21Z</time>
      </trkpt>
      <trkpt lat="40.512839" lon="0.508315">
        <ele>7.147</ele>
        <time>1970-01-01T02:04:22Z</time>
      </trkpt>
      <trkpt lat="40.512788" lon="0.508285">
        <ele>7.311</ele>
        <time>1970-01-01T02:04:23Z</time>
      </trkpt>
      <trkpt lat="40.512737" lon="0.508253">
        <ele>8.008</ele>
        <time>1970-01-01T02:04:24Z</time>
      </trkpt>
      <trkpt lat="40.512689" lon="0.508219">
        <ele>8.769</ele>
        <time>1970-01-01T02:04:25Z</time>
      </trkpt>
      <trkpt lat="40.512639" lon="0.508186">
        <ele>9.396</ele>
        <time>1970-01-01T02:04:26Z</time>
      </trkpt>
      <trkpt lat="40.512589" lon="0.508156">
        <ele>9.977</ele>
        <time>1970-01-01T02:04:27Z</time>
      </trkpt>
      <trkpt lat="40.512538" lon="0.508123">
        <ele>10.440</ele>
        <time>1970-01-01T02:04:28Z</time>
      </trkpt>
      <trkpt lat="40.512488" lon="0.508091">
        <ele>10.990</ele>
        <time>1970-01-01T02:04:29Z</time>
      </trkpt>
      <trkpt lat="40.512435" lon="0.508058">
        <ele>10.886</ele>
        <time>1970-01-01T02:04:30Z</time>
      </trkpt>
      <trkpt lat="40.512383" lon="0.508024">
        <ele>10.530</ele>
        <time>1970-01-01T02:04:31Z</time>
      </trkpt>
      <trkpt lat="40.512331" lon="0.507989">
        <ele>10.371</ele>
        <time>1970-01-01T02:04:32Z</time>
      </trkpt>
      <trkpt lat="40.512280" lon="0.507955">
        <ele>10.172</ele>
        <time>1970-01-01T02:04:33Z</time>
      </trkpt>
      <trkpt lat="40.512230" lon="0.507920">
        <ele>10.013</ele>
        <time>1970-01-01T02:04:34Z</time>
      </trkpt>
      <trkpt lat="40.512179" lon="0.507884">
        <ele>9.514</ele>
        <time>1970-01-01T02:04:35Z</time>
      </trkpt>
      <trkpt lat="40.512127" lon="0.507851">
        <ele>9.008</ele>
        <time>1970-01-01T02:04:36Z</time>
      </trkpt>
      <trkpt lat="40.512075" lon="0.507820">
        <ele>8.464</ele>
        <time>1970-01-01T02:04:37Z</time>
      </trkpt>
      <trkpt lat="40.512023" lon="0.507785">
        <ele>7.881</ele>
        <time>1970-01-01T02:04:38Z</time>
      </trkpt>
      <trkpt lat="40.511971" lon="0.507750">
        <ele>7.562</ele>
        <time>1970-01-01T02:04:39Z</time>
      </trkpt>
      <trkpt lat="40.511919" lon="0.507714">
        <ele>7.415</ele>
        <time>1970-01-01T02:04:40Z</time>
      </trkpt>
      <trkpt lat="40.511867" lon="0.507679">
        <ele>7.415</ele>
        <time>1970-01-01T02:04:41Z</time>
      </trkpt>
      <trkpt lat="40.511817" lon="0.507644">
        <ele>7.521</ele>
        <time>1970-01-01T02:04:42Z</time>
      </trkpt>
      <trkpt lat="40.511767" lon="0.507608">
        <ele>7.665</ele>
        <time>1970-01-01T02:04:43Z</time>
      </trkpt>
      <trkpt lat="40.511716" lon="0.507574">
        <ele>7.686</ele>
        <time>1970-01-01T02:04:44Z</time>
      </trkpt>
      <trkpt lat="40.511665" lon="0.507539">
        <ele>7.732</ele>
        <time>1970-01-01T02:04:45Z</time>
      </trkpt>
      <trkpt lat="40.511612" lon="0.507504">
        <ele>8.092</ele>
        <time>1970-01-01T02:04:46Z</time>
      </trkpt>
      <trkpt lat="40.511557" lon="0.507469">
        <ele>8.111</ele>
        <time>1970-01-01T02:04:47Z</time>
      </trkpt>
      <trkpt lat="40.511503" lon="0.507433">
        <ele>8.208</ele>
        <time>1970-01-01T02:04:48Z</time>
      </trkpt>
      <trkpt lat="40.511448" lon="0.507400">
        <ele>8.450</ele>
        <time>1970-01-01T02:04:49Z</time>
      </trkpt>
      <trkpt lat="40.511394" lon="0.507367">
        <ele>8.567</ele>
        <time>1970-01-01T02:04:50Z</time>
      </trkpt>
      <trkpt lat="40.511342" lon="0.507332">
        <ele>8.418</ele>
        <time>1970-01-01T02:04:51Z</time>
      </trkpt>
      <trkpt lat="40.511292" lon="0.507295">
        <ele>8.321</ele>
        <time>1970-01-01T02:04:52Z</time>
      </trkpt>
      <trkpt lat="40.511239" lon="0.507259">
        <ele>8.351</ele>
        <time>1970-01-01T02:04:53Z</time>
      </trkpt>
      <trkpt lat="40.511187" lon="0.507223">
        <ele>8.327</ele>
        <time>1970-01-01T02:04:54Z</time>
      </trkpt>
      <trkpt lat="40.511135" lon="0.507185">
        <ele>8.551</ele>
        <time>1970-01-01T02:04:55Z</time>
      </trkpt>
      <trkpt lat="40.511084" lon="0.507148">
        <ele>8.712</ele>
        <time>1970-01-01T02:04:56Z</time>
      </trkpt>
      <trkpt lat="40.511032" lon="0.507115">
        <ele>8.993</ele>
        <time>1970-01-01T02:04:57Z</time>
      </trkpt>
      <trkpt lat="40.510978" lon="0.507082">
        <ele>9.065</ele>
        <time>1970-01-01T02:04:58Z</time>
      </trkpt>
      <trkpt lat="40.510926" lon="0.507049">
        <ele>9.221</ele>
        <time>1970-01-01T02:04:59Z</time>
      </trkpt>
      <trkpt lat="40.510874" lon="0.507016">
        <ele>9.408</ele>
        <time>1970-01-01T02:05:00Z</time>
      </trkpt>
      <trkpt lat="40.510821" lon="0.506983">
        <ele>9.556</ele>
        <time>1970-01-01T02:05:01Z</time>
      </trkpt>
      <trkpt lat="40.510768" lon="0.506952">
        <ele>9.443</ele>
        <time>1970-01-01T02:05:02Z</time>
      </trkpt>
      <trkpt lat="40.510716" lon="0.506923">
        <ele>9.394</ele>
        <time>1970-01-01T02:05:03Z</time>
      </trkpt>
      <trkpt lat="40.510664" lon="0.506893">
        <ele>9.397</ele>
        <time>1970-01-01T02:05:04Z</time>
      </trkpt>
      <trkpt lat="40.510610" lon="0.506866">
        <ele>9.257</ele>
        <time>1970-01-01T02:05:05Z</time>
      </trkpt>
      <trkpt lat="40.510508" lon="0.506812">
        <ele>9.153</ele>
        <time>1970-01-01T02:05:06Z</time>
      </trkpt>
      <trkpt lat="40.510483" lon="0.506799">
        <ele>9.047</ele>
        <time>1970-01-01T02:05:07Z</time>
      </trkpt>
      <trkpt lat="40.510457" lon="0.506787">
        <ele>9.078</ele>
        <time>1970-01-01T02:05:08Z</time>
      </trkpt>
      <trkpt lat="40.510403" lon="0.506761">
        <ele>8.958</ele>
        <time>1970-01-01T02:05:09Z</time>
      </trkpt>
      <trkpt lat="40.510351" lon="0.506733">
        <ele>8.852</ele>
        <time>1970-01-01T02:05:10Z</time>
      </trkpt>
      <trkpt lat="40.510300" lon="0.506705">
        <ele>8.717</ele>
        <time>1970-01-01T02:05:11Z</time>
      </trkpt>
      <trkpt lat="40.510249" lon="0.506676">
        <ele>8.908</ele>
        <time>1970-01-01T02:05:12Z</time>
      </trkpt>
      <trkpt lat="40.510198" lon="0.506649">
        <ele>9.012</ele>
        <time>1970-01-01T02:05:13Z</time>
      </trkpt>
      <trkpt lat="40.510146" lon="0.506621">
        <ele>9.139</ele>
        <time>1970-01-01T02:05:14Z</time>
      </trkpt>
      <trkpt lat="40.510094" lon="0.506594">
        <ele>9.190</ele>
        <time>1970-01-01T02:05:15Z</time>
      </trkpt>
      <trkpt lat="40.510042" lon="0.506566">
        <ele>9.153</ele>
        <time>1970-01-01T02:05:16Z</time>
      </trkpt>
      <trkpt lat="40.509990" lon="0.506538">
        <ele>8.993</ele>
        <time>1970-01-01T02:05:17Z</time>
      </trkpt>
      <trkpt lat="40.509937" lon="0.506510">
        <ele>8.769</ele>
        <time>1970-01-01T02:05:18Z</time>
      </trkpt>
      <trkpt lat="40.509885" lon="0.506477">
        <ele>8.543</ele>
        <time>1970-01-01T02:05:19Z</time>
      </trkpt>
      <trkpt lat="40.509834" lon="0.506443">
        <ele>8.384</ele>
        <time>1970-01-01T02:05:20Z</time>
      </trkpt>
      <trkpt lat="40.509785" lon="0.506406">
        <ele>8.249</ele>
        <time>1970-01-01T02:05:21Z</time>
      </trkpt>
      <trkpt lat="40.509736" lon="0.506367">
        <ele>8.102</ele>
        <time>1970-01-01T02:05:22Z</time>
      </trkpt>
      <trkpt lat="40.509688" lon="0.506327">
        <ele>8.022</ele>
        <time>1970-01-01T02:05:23Z</time>
      </trkpt>
      <trkpt lat="40.509639" lon="0.506289">
        <ele>8.008</ele>
        <time>1970-01-01T02:05:24Z</time>
      </trkpt>
      <trkpt lat="40.509589" lon="0.506253">
        <ele>8.031</ele>
        <time>1970-01-01T02:05:25Z</time>
      </trkpt>
      <trkpt lat="40.509538" lon="0.506217">
        <ele>8.118</ele>
        <time>1970-01-01T02:05:26Z</time>
      </trkpt>
      <trkpt lat="40.509488" lon="0.506180">
        <ele>8.319</ele>
        <time>1970-01-01T02:05:27Z</time>
      </trkpt>
      <trkpt lat="40.509438" lon="0.506139">
        <ele>8.712</ele>
        <time>1970-01-01T02:05:28Z</time>
      </trkpt>
      <trkpt lat="40.509387" lon="0.506100">
        <ele>9.182</ele>
        <time>1970-01-01T02:05:29Z</time>
      </trkpt>
      <trkpt lat="40.509336" lon="0.506064">
        <ele>9.398</ele>
        <time>1970-01-01T02:05:30Z</time>
      </trkpt>
      <trkpt lat="40.509286" lon="0.506029">
        <ele>9.642</ele>
        <time>1970-01-01T02:05:31Z</time>
      </trkpt>
      <trkpt lat="40.509237" lon="0.505993">
        <ele>9.833</ele>
        <time>1970-01-01T02:05:32Z</time>
      </trkpt>
      <trkpt lat="40.509185" lon="0.505956">
        <ele>10.178</ele>
        <time>1970-01-01T02:05:33Z</time>
      </trkpt>
      <trkpt lat="40.509136" lon="0.505915">
        <ele>10.433</ele>
        <time>1970-01-01T02:05:34Z</time>
      </trkpt>
      <trkpt lat="40.509087" lon="0.505874">
        <ele>10.726</ele>
        <time>1970-01-01T02:05:35Z</time>
      </trkpt>
      <trkpt lat="40.509040" lon="0.505831">
        <ele>11.008</ele>
        <time>1970-01-01T02:05:36Z</time>
      </trkpt>
      <trkpt lat="40.508993" lon="0.505786">
        <ele>11.014</ele>
        <time>1970-01-01T02:05:37Z</time>
      </trkpt>
      <trkpt lat="40.508944" lon="0.505741">
        <ele>11.031</ele>
        <time>1970-01-01T02:05:38Z</time>
      </trkpt>
      <trkpt lat="40.508894" lon="0.505696">
        <ele>11.032</ele>
        <time>1970-01-01T02:05:39Z</time>
      </trkpt>
      <trkpt lat="40.508843" lon="0.505654">
        <ele>10.795</ele>
        <time>1970-01-01T02:05:40Z</time>
      </trkpt>
      <trkpt lat="40.508791" lon="0.505615">
        <ele>10.315</ele>
        <time>1970-01-01T02:05:41Z</time>
      </trkpt>
      <trkpt lat="40.508738" lon="0.505575">
        <ele>9.971</ele>
        <time>1970-01-01T02:05:42Z</time>
      </trkpt>
      <trkpt lat="40.508686" lon="0.505534">
        <ele>9.645</ele>
        <time>1970-01-01T02:05:43Z</time>
      </trkpt>
      <trkpt lat="40.508633" lon="0.505493">
        <ele>9.456</ele>
        <time>1970-01-01T02:05:44Z</time>
      </trkpt>
      <trkpt lat="40.508581" lon="0.505453">
        <ele>9.257</ele>
        <time>1970-01-01T02:05:45Z</time>
      </trkpt>
      <trkpt lat="40.508528" lon="0.505411">
        <ele>8.900</ele>
        <time>1970-01-01T02:05:46Z</time>
      </trkpt>
      <trkpt lat="40.508475" lon="0.505372">
        <ele>8.720</ele>
        <time>1970-01-01T02:05:47Z</time>
      </trkpt>
      <trkpt lat="40.508419" lon="0.505335">
        <ele>8.408</ele>
        <time>1970-01-01T02:05:48Z</time>
      </trkpt>
      <trkpt lat="40.508364" lon="0.505301">
        <ele>8.132</ele>
        <time>1970-01-01T02:05:49Z</time>
      </trkpt>
      <trkpt lat="40.508308" lon="0.505268">
        <ele>8.119</ele>
        <time>1970-01-01T02:05:50Z</time>
      </trkpt>
      <trkpt lat="40.508251" lon="0.505235">
        <ele>8.530</ele>
        <time>1970-01-01T02:05:51Z</time>
      </trkpt>
      <trkpt lat="40.508194" lon="0.505204">
        <ele>8.843</ele>
        <time>1970-01-01T02:05:52Z</time>
      </trkpt>
      <trkpt lat="40.508137" lon="0.505175">
        <ele>9.163</ele>
        <time>1970-01-01T02:05:53Z</time>
      </trkpt>
      <trkpt lat="40.508082" lon="0.505145">
        <ele>9.499</ele>
        <time>1970-01-01T02:05:54Z</time>
      </trkpt>
      <trkpt lat="40.508026" lon="0.505114">
        <ele>9.713</ele>
        <time>1970-01-01T02:05:55Z</time>
      </trkpt>
      <trkpt lat="40.507970" lon="0.505083">
        <ele>10.054</ele>
        <time>1970-01-01T02:05:56Z</time>
      </trkpt>
      <trkpt lat="40.507915" lon="0.505053">
        <ele>10.397</ele>
        <time>1970-01-01T02:05:57Z</time>
      </trkpt>
      <trkpt lat="40.507860" lon="0.505025">
        <ele>10.723</ele>
        <time>1970-01-01T02:05:58Z</time>
      </trkpt>
      <trkpt lat="40.507802" lon="0.505001">
        <ele>11.025</ele>
        <time>1970-01-01T02:05:59Z</time>
      </trkpt>
      <trkpt lat="40.507745" lon="0.504977">
        <ele>11.108</ele>
        <time>1970-01-01T02:06:00Z</time>
      </trkpt>
      <trkpt lat="40.507689" lon="0.504955">
        <ele>11.266</ele>
        <time>1970-01-01T02:06:01Z</time>
      </trkpt>
      <trkpt lat="40.507633" lon="0.504934">
        <ele>11.293</ele>
        <time>1970-01-01T02:06:02Z</time>
      </trkpt>
      <trkpt lat="40.507576" lon="0.504916">
        <ele>11.374</ele>
        <time>1970-01-01T02:06:03Z</time>
      </trkpt>
      <trkpt lat="40.507516" lon="0.504900">
        <ele>11.477</ele>
        <time>1970-01-01T02:06:04Z</time>
      </trkpt>
      <trkpt lat="40.507454" lon="0.504885">
        <ele>11.437</ele>
        <time>1970-01-01T02:06:05Z</time>
      </trkpt>
      <trkpt lat="40.507393" lon="0.504869">
        <ele>11.523</ele>
        <time>1970-01-01T02:06:06Z</time>
      </trkpt>
      <trkpt lat="40.507331" lon="0.504853">
        <ele>11.597</ele>
        <time>1970-01-01T02:06:07Z</time>
      </trkpt>
      <trkpt lat="40.507269" lon="0.504842">
        <ele>11.618</ele>
        <time>1970-01-01T02:06:08Z</time>
      </trkpt>
      <trkpt lat="40.507205" lon="0.504834">
        <ele>11.642</ele>
        <time>1970-01-01T02:06:09Z</time>
      </trkpt>
      <trkpt lat="40.507141" lon="0.504827">
        <ele>11.622</ele>
        <time>1970-01-01T02:06:10Z</time>
      </trkpt>
      <trkpt lat="40.507077" lon="0.504815">
        <ele>11.714</ele>
        <time>1970-01-01T02:06:11Z</time>
      </trkpt>
      <trkpt lat="40.507013" lon="0.504806">
        <ele>11.708</ele>
        <time>1970-01-01T02:06:12Z</time>
      </trkpt>
      <trkpt lat="40.506948" lon="0.504797">
        <ele>11.791</ele>
        <time>1970-01-01T02:06:13Z</time>
      </trkpt>
      <trkpt lat="40.506884" lon="0.504789">
        <ele>11.638</ele>
        <time>1970-01-01T02:06:14Z</time>
      </trkpt>
      <trkpt lat="40.506820" lon="0.504781">
        <ele>11.489</ele>
        <time>1970-01-01T02:06:15Z</time>
      </trkpt>
      <trkpt lat="40.506755" lon="0.504771">
        <ele>11.372</ele>
        <time>1970-01-01T02:06:16Z</time>
      </trkpt>
      <trkpt lat="40.506691" lon="0.504762">
        <ele>11.192</ele>
        <time>1970-01-01T02:06:17Z</time>
      </trkpt>
      <trkpt lat="40.506626" lon="0.504755">
        <ele>10.738</ele>
        <time>1970-01-01T02:06:18Z</time>
      </trkpt>
      <trkpt lat="40.506562" lon="0.504747">
        <ele>10.392</ele>
        <time>1970-01-01T02:06:19Z</time>
      </trkpt>
      <trkpt lat="40.506498" lon="0.504737">
        <ele>10.153</ele>
        <time>1970-01-01T02:06:20Z</time>
      </trkpt>
      <trkpt lat="40.506434" lon="0.504727">
        <ele>10.077</ele>
        <time>1970-01-01T02:06:21Z</time>
      </trkpt>
      <trkpt lat="40.506369" lon="0.504717">
        <ele>10.061</ele>
        <time>1970-01-01T02:06:22Z</time>
      </trkpt>
      <trkpt lat="40.506304" lon="0.504707">
        <ele>10.027</ele>
        <time>1970-01-01T02:06:23Z</time>
      </trkpt>
      <trkpt lat="40.506238" lon="0.504699">
        <ele>10.008</ele>
        <time>1970-01-01T02:06:24Z</time>
      </trkpt>
      <trkpt lat="40.506174" lon="0.504689">
        <ele>10.034</ele>
        <time>1970-01-01T02:06:25Z</time>
      </trkpt>
      <trkpt lat="40.506111" lon="0.504678">
        <ele>10.041</ele>
        <time>1970-01-01T02:06:26Z</time>
      </trkpt>
      <trkpt lat="40.506048" lon="0.504664">
        <ele>10.012</ele>
        <time>1970-01-01T02:06:27Z</time>
      </trkpt>
      <trkpt lat="40.505986" lon="0.504645">
        <ele>10.135</ele>
        <time>1970-01-01T02:06:28Z</time>
      </trkpt>
      <trkpt lat="40.505924" lon="0.504622">
        <ele>10.225</ele>
        <time>1970-01-01T02:06:29Z</time>
      </trkpt>
      <trkpt lat="40.505862" lon="0.504596">
        <ele>10.481</ele>
        <time>1970-01-01T02:06:30Z</time>
      </trkpt>
      <trkpt lat="40.505801" lon="0.504567">
        <ele>10.685</ele>
        <time>1970-01-01T02:06:31Z</time>
      </trkpt>
      <trkpt lat="40.505742" lon="0.504533">
        <ele>10.936</ele>
        <time>1970-01-01T02:06:32Z</time>
      </trkpt>
      <trkpt lat="40.505685" lon="0.504496">
        <ele>11.237</ele>
        <time>1970-01-01T02:06:33Z</time>
      </trkpt>
      <trkpt lat="40.505629" lon="0.504455">
        <ele>11.749</ele>
        <time>1970-01-01T02:06:34Z</time>
      </trkpt>
      <trkpt lat="40.505574" lon="0.504415">
        <ele>11.913</ele>
        <time>1970-01-01T02:06:35Z</time>
      </trkpt>
      <trkpt lat="40.505518" lon="0.504377">
        <ele>11.808</ele>
        <time>1970-01-01T02:06:36Z</time>
      </trkpt>
      <trkpt lat="40.505463" lon="0.504339">
        <ele>11.750</ele>
        <time>1970-01-01T02:06:37Z</time>
      </trkpt>
      <trkpt lat="40.505408" lon="0.504301">
        <ele>11.867</ele>
        <time>1970-01-01T02:06:38Z</time>
      </trkpt>
      <trkpt lat="40.505353" lon="0.504264">
        <ele>12.048</ele>
        <time>1970-01-01T02:06:39Z</time>
      </trkpt>
      <trkpt lat="40.505297" lon="0.504227">
        <ele>12.331</ele>
        <time>1970-01-01T02:06:40Z</time>
      </trkpt>
      <trkpt lat="40.505244" lon="0.504192">
        <ele>12.481</ele>
        <time>1970-01-01T02:06:41Z</time>
      </trkpt>
      <trkpt lat="40.505190" lon="0.504155">
        <ele>12.147</ele>
        <time>1970-01-01T02:06:42Z</time>
      </trkpt>
      <trkpt lat="40.505138" lon="0.504120">
        <ele>11.661</ele>
        <time>1970-01-01T02:06:43Z</time>
      </trkpt>
      <trkpt lat="40.505084" lon="0.504087">
        <ele>11.212</ele>
        <time>1970-01-01T02:06:44Z</time>
      </trkpt>
      <trkpt lat="40.505030" lon="0.504055">
        <ele>11.047</ele>
        <time>1970-01-01T02:06:45Z</time>
      </trkpt>
      <trkpt lat="40.504975" lon="0.504021">
        <ele>10.929</ele>
        <time>1970-01-01T02:06:46Z</time>
      </trkpt>
      <trkpt lat="40.504922" lon="0.503982">
        <ele>10.921</ele>
        <time>1970-01-01T02:06:47Z</time>
      </trkpt>
      <trkpt lat="40.504871" lon="0.503940">
        <ele>10.808</ele>
        <time>1970-01-01T02:06:48Z</time>
      </trkpt>
      <trkpt lat="40.504819" lon="0.503896">
        <ele>10.721</ele>
        <time>1970-01-01T02:06:49Z</time>
      </trkpt>
      <trkpt lat="40.504765" lon="0.503855">
        <ele>10.468</ele>
        <time>1970-01-01T02:06:50Z</time>
      </trkpt>
      <trkpt lat="40.504714" lon="0.503813">
        <ele>10.229</ele>
        <time>1970-01-01T02:06:51Z</time>
      </trkpt>
      <trkpt lat="40.504662" lon="0.503773">
        <ele>9.962</ele>
        <time>1970-01-01T02:06:52Z</time>
      </trkpt>
      <trkpt lat="40.504606" lon="0.503735">
        <ele>9.562</ele>
        <time>1970-01-01T02:06:53Z</time>
      </trkpt>
      <trkpt lat="40.504547" lon="0.503697">
        <ele>9.228</ele>
        <time>1970-01-01T02:06:54Z</time>
      </trkpt>
      <trkpt lat="40.504491" lon="0.503660">
        <ele>9.092</ele>
        <time>1970-01-01T02:06:55Z</time>
      </trkpt>
      <trkpt lat="40.504434" lon="0.503620">
        <ele>8.963</ele>
        <time>1970-01-01T02:06:56Z</time>
      </trkpt>
      <trkpt lat="40.504378" lon="0.503577">
        <ele>9.219</ele>
        <time>1970-01-01T02:06:57Z</time>
      </trkpt>
      <trkpt lat="40.504323" lon="0.503529">
        <ele>9.509</ele>
        <time>1970-01-01T02:06:58Z</time>
      </trkpt>
      <trkpt lat="40.504268" lon="0.503483">
        <ele>9.619</ele>
        <time>1970-01-01T02:06:59Z</time>
      </trkpt>
      <trkpt lat="40.504212" lon="0.503441">
        <ele>9.708</ele>
        <time>1970-01-01T02:07:00Z</time>
      </trkpt>
      <trkpt lat="40.504155" lon="0.503400">
        <ele>9.728</ele>
        <time>1970-01-01T02:07:01Z</time>
      </trkpt>
      <trkpt lat="40.504097" lon="0.503359">
        <ele>9.765</ele>
        <time>1970-01-01T02:07:02Z</time>
      </trkpt>
      <trkpt lat="40.504040" lon="0.503320">
        <ele>9.596</ele>
        <time>1970-01-01T02:07:03Z</time>
      </trkpt>
      <trkpt lat="40.503983" lon="0.503281">
        <ele>9.399</ele>
        <time>1970-01-01T02:07:04Z</time>
      </trkpt>
      <trkpt lat="40.503926" lon="0.503244">
        <ele>9.149</ele>
        <time>1970-01-01T02:07:05Z</time>
      </trkpt>
      <trkpt lat="40.503872" lon="0.503206">
        <ele>8.935</ele>
        <time>1970-01-01T02:07:06Z</time>
      </trkpt>
      <trkpt lat="40.503819" lon="0.503164">
        <ele>8.789</ele>
        <time>1970-01-01T02:07:07Z</time>
      </trkpt>
      <trkpt lat="40.503764" lon="0.503121">
        <ele>8.630</ele>
        <time>1970-01-01T02:07:08Z</time>
      </trkpt>
      <trkpt lat="40.503710" lon="0.503080">
        <ele>8.448</ele>
        <time>1970-01-01T02:07:09Z</time>
      </trkpt>
      <trkpt lat="40.503656" lon="0.503039">
        <ele>8.261</ele>
        <time>1970-01-01T02:07:10Z</time>
      </trkpt>
      <trkpt lat="40.503603" lon="0.502998">
        <ele>8.017</ele>
        <time>1970-01-01T02:07:11Z</time>
      </trkpt>
      <trkpt lat="40.503548" lon="0.502958">
        <ele>8.208</ele>
        <time>1970-01-01T02:07:12Z</time>
      </trkpt>
      <trkpt lat="40.503492" lon="0.502919">
        <ele>8.481</ele>
        <time>1970-01-01T02:07:13Z</time>
      </trkpt>
      <trkpt lat="40.503438" lon="0.502877">
        <ele>8.668</ele>
        <time>1970-01-01T02:07:14Z</time>
      </trkpt>
      <trkpt lat="40.503383" lon="0.502834">
        <ele>8.879</ele>
        <time>1970-01-01T02:07:15Z</time>
      </trkpt>
      <trkpt lat="40.503324" lon="0.502792">
        <ele>9.082</ele>
        <time>1970-01-01T02:07:16Z</time>
      </trkpt>
      <trkpt lat="40.503264" lon="0.502749">
        <ele>9.292</ele>
        <time>1970-01-01T02:07:17Z</time>
      </trkpt>
      <trkpt lat="40.503206" lon="0.502704">
        <ele>9.598</ele>
        <time>1970-01-01T02:07:18Z</time>
      </trkpt>
      <trkpt lat="40.503151" lon="0.502658">
        <ele>10.062</ele>
        <time>1970-01-01T02:07:19Z</time>
      </trkpt>
      <trkpt lat="40.503094" lon="0.502613">
        <ele>10.693</ele>
        <time>1970-01-01T02:07:20Z</time>
      </trkpt>
      <trkpt lat="40.503035" lon="0.502572">
        <ele>11.118</ele>
        <time>1970-01-01T02:07:21Z</time>
      </trkpt>
      <trkpt lat="40.502977" lon="0.502531">
        <ele>11.198</ele>
        <time>1970-01-01T02:07:22Z</time>
      </trkpt>
      <trkpt lat="40.502921" lon="0.502490">
        <ele>11.117</ele>
        <time>1970-01-01T02:07:23Z</time>
      </trkpt>
      <trkpt lat="40.502863" lon="0.502450">
        <ele>10.908</ele>
        <time>1970-01-01T02:07:24Z</time>
      </trkpt>
      <trkpt lat="40.502806" lon="0.502414">
        <ele>10.868</ele>
        <time>1970-01-01T02:07:25Z</time>
      </trkpt>
      <trkpt lat="40.502751" lon="0.502373">
        <ele>10.815</ele>
        <time>1970-01-01T02:07:26Z</time>
      </trkpt>
      <trkpt lat="40.502695" lon="0.502330">
        <ele>10.916</ele>
        <time>1970-01-01T02:07:27Z</time>
      </trkpt>
      <trkpt lat="40.502640" lon="0.502288">
        <ele>10.869</ele>
        <time>1970-01-01T02:07:28Z</time>
      </trkpt>
      <trkpt lat="40.502581" lon="0.502251">
        <ele>10.539</ele>
        <time>1970-01-01T02:07:29Z</time>
      </trkpt>
      <trkpt lat="40.502524" lon="0.502212">
        <ele>10.215</ele>
        <time>1970-01-01T02:07:30Z</time>
      </trkpt>
      <trkpt lat="40.502466" lon="0.502174">
        <ele>10.099</ele>
        <time>1970-01-01T02:07:31Z</time>
      </trkpt>
      <trkpt lat="40.502408" lon="0.502136">
        <ele>9.860</ele>
        <time>1970-01-01T02:07:32Z</time>
      </trkpt>
      <trkpt lat="40.502352" lon="0.502096">
        <ele>9.417</ele>
        <time>1970-01-01T02:07:33Z</time>
      </trkpt>
      <trkpt lat="40.502297" lon="0.502055">
        <ele>9.087</ele>
        <time>1970-01-01T02:07:34Z</time>
      </trkpt>
      <trkpt lat="40.502242" lon="0.502013">
        <ele>8.415</ele>
        <time>1970-01-01T02:07:35Z</time>
      </trkpt>
      <trkpt lat="40.502187" lon="0.501971">
        <ele>8.008</ele>
        <time>1970-01-01T02:07:36Z</time>
      </trkpt>
      <trkpt lat="40.502132" lon="0.501925">
        <ele>7.748</ele>
        <time>1970-01-01T02:07:37Z</time>
      </trkpt>
      <trkpt lat="40.502084" lon="0.501877">
        <ele>7.785</ele>
        <time>1970-01-01T02:07:38Z</time>
      </trkpt>
      <trkpt lat="40.502031" lon="0.501831">
        <ele>7.726</ele>
        <time>1970-01-01T02:07:39Z</time>
      </trkpt>
      <trkpt lat="40.501976" lon="0.501788">
        <ele>7.729</ele>
        <time>1970-01-01T02:07:40Z</time>
      </trkpt>
      <trkpt lat="40.501921" lon="0.501744">
        <ele>7.729</ele>
        <time>1970-01-01T02:07:41Z</time>
      </trkpt>
      <trkpt lat="40.501866" lon="0.501701">
        <ele>7.995</ele>
        <time>1970-01-01T02:07:42Z</time>
      </trkpt>
      <trkpt lat="40.501812" lon="0.501658">
        <ele>8.029</ele>
        <time>1970-01-01T02:07:43Z</time>
      </trkpt>
      <trkpt lat="40.501757" lon="0.501616">
        <ele>8.190</ele>
        <time>1970-01-01T02:07:44Z</time>
      </trkpt>
      <trkpt lat="40.501704" lon="0.501573">
        <ele>8.355</ele>
        <time>1970-01-01T02:07:45Z</time>
      </trkpt>
      <trkpt lat="40.501649" lon="0.501529">
        <ele>8.507</ele>
        <time>1970-01-01T02:07:46Z</time>
      </trkpt>
      <trkpt lat="40.501597" lon="0.501480">
        <ele>8.817</ele>
        <time>1970-01-01T02:07:47Z</time>
      </trkpt>
      <trkpt lat="40.501541" lon="0.501431">
        <ele>8.908</ele>
        <time>1970-01-01T02:07:48Z</time>
      </trkpt>
      <trkpt lat="40.501485" lon="0.501385">
        <ele>9.052</ele>
        <time>1970-01-01T02:07:49Z</time>
      </trkpt>
      <trkpt lat="40.501429" lon="0.501345">
        <ele>9.089</ele>
        <time>1970-01-01T02:07:50Z</time>
      </trkpt>
      <trkpt lat="40.501373" lon="0.501304">
        <ele>9.040</ele>
        <time>1970-01-01T02:07:51Z</time>
      </trkpt>
      <trkpt lat="40.501318" lon="0.501262">
        <ele>9.093</ele>
        <time>1970-01-01T02:07:52Z</time>
      </trkpt>
      <trkpt lat="40.501263" lon="0.501218">
        <ele>9.023</ele>
        <time>1970-01-01T02:07:53Z</time>
      </trkpt>
      <trkpt lat="40.501209" lon="0.501176">
        <ele>9.059</ele>
        <time>1970-01-01T02:07:54Z</time>
      </trkpt>
      <trkpt lat="40.501157" lon="0.501130">
        <ele>9.043</ele>
        <time>1970-01-01T02:07:55Z</time>
      </trkpt>
      <trkpt lat="40.501109" lon="0.501079">
        <ele>9.084</ele>
        <time>1970-01-01T02:07:56Z</time>
      </trkpt>
      <trkpt lat="40.501060" lon="0.501028">
        <ele>8.945</ele>
        <time>1970-01-01T02:07:57Z</time>
      </trkpt>
      <trkpt lat="40.501010" lon="0.500977">
        <ele>8.847</ele>
        <time>1970-01-01T02:07:58Z</time>
      </trkpt>
      <trkpt lat="40.500957" lon="0.500928">
        <ele>8.611</ele>
        <time>1970-01-01T02:07:59Z</time>
      </trkpt>
      <trkpt lat="40.500905" lon="0.500877">
        <ele>8.408</ele>
        <time>1970-01-01T02:08:00Z</time>
      </trkpt>
      <trkpt lat="40.500854" lon="0.500822">
        <ele>8.121</ele>
        <time>1970-01-01T02:08:01Z</time>
      </trkpt>
      <trkpt lat="40.500805" lon="0.500760">
        <ele>8.058</ele>
        <time>1970-01-01T02:08:02Z</time>
      </trkpt>
      <trkpt lat="40.500757" lon="0.500700">
        <ele>7.999</ele>
        <time>1970-01-01T02:08:03Z</time>
      </trkpt>
      <trkpt lat="40.500712" lon="0.500640">
        <ele>7.732</ele>
        <time>1970-01-01T02:08:04Z</time>
      </trkpt>
      <trkpt lat="40.500671" lon="0.500580">
        <ele>7.582</ele>
        <time>1970-01-01T02:08:05Z</time>
      </trkpt>
      <trkpt lat="40.500631" lon="0.500521">
        <ele>7.398</ele>
        <time>1970-01-01T02:08:06Z</time>
      </trkpt>
      <trkpt lat="40.500588" lon="0.500466">
        <ele>7.422</ele>
        <time>1970-01-01T02:08:07Z</time>
      </trkpt>
      <trkpt lat="40.500546" lon="0.500410">
        <ele>7.573</ele>
        <time>1970-01-01T02:08:08Z</time>
      </trkpt>
      <trkpt lat="40.500507" lon="0.500354">
        <ele>7.895</ele>
        <time>1970-01-01T02:08:09Z</time>
      </trkpt>
      <trkpt lat="40.500465" lon="0.500300">
        <ele>7.949</ele>
        <time>1970-01-01T02:08:10Z</time>
      </trkpt>
      <trkpt lat="40.500424" lon="0.500247">
        <ele>8.023</ele>
        <time>1970-01-01T02:08:11Z</time>
      </trkpt>
      <trkpt lat="40.500383" lon="0.500195">
        <ele>8.008</ele>
        <time>1970-01-01T02:08:12Z</time>
      </trkpt>
      <trkpt lat="40.500345" lon="0.500141">
        <ele>8.066</ele>
        <time>1970-01-01T02:08:13Z</time>
      </trkpt>
      <trkpt lat="40.500309" lon="0.500086">
        <ele>8.093</ele>
        <time>1970-01-01T02:08:14Z</time>
      </trkpt>
      <trkpt lat="40.500273" lon="0.500030">
        <ele>8.054</ele>
        <time>1970-01-01T02:08:15Z</time>
      </trkpt>
      <trkpt lat="40.500238" lon="0.499977">
        <ele>8.127</ele>
        <time>1970-01-01T02:08:16Z</time>
      </trkpt>
      <trkpt lat="40.500203" lon="0.499925">
        <ele>8.217</ele>
        <time>1970-01-01T02:08:17Z</time>
      </trkpt>
      <trkpt lat="40.500167" lon="0.499875">
        <ele>8.263</ele>
        <time>1970-01-01T02:08:18Z</time>
      </trkpt>
      <trkpt lat="40.500130" lon="0.499824">
        <ele>8.237</ele>
        <time>1970-01-01T02:08:19Z</time>
      </trkpt>
      <trkpt lat="40.500093" lon="0.499772">
        <ele>8.128</ele>
        <time>1970-01-01T02:08:20Z</time>
      </trkpt>
      <trkpt lat="40.500059" lon="0.499718">
        <ele>8.013</ele>
        <time>1970-01-01T02:08:21Z</time>
      </trkpt>
      <trkpt lat="40.500028" lon="0.499655">
        <ele>8.043</ele>
        <time>1970-01-01T02:08:22Z</time>
      </trkpt>
      <trkpt lat="40.499998" lon="0.499592">
        <ele>8.007</ele>
        <time>1970-01-01T02:08:23Z</time>
      </trkpt>
      <trkpt lat="40.499965" lon="0.499528">
        <ele>7.908</ele>
        <time>1970-01-01T02:08:24Z</time>
      </trkpt>
      <trkpt lat="40.499930" lon="0.499463">
        <ele>7.718</ele>
        <time>1970-01-01T02:08:25Z</time>
      </trkpt>
      <trkpt lat="40.499893" lon="0.499395">
        <ele>7.765</ele>
        <time>1970-01-01T02:08:26Z</time>
      </trkpt>
      <trkpt lat="40.499850" lon="0.499330">
        <ele>7.796</ele>
        <time>1970-01-01T02:08:27Z</time>
      </trkpt>
      <trkpt lat="40.499801" lon="0.499263">
        <ele>7.889</ele>
        <time>1970-01-01T02:08:28Z</time>
      </trkpt>
      <trkpt lat="40.499750" lon="0.499201">
        <ele>7.969</ele>
        <time>1970-01-01T02:08:29Z</time>
      </trkpt>
      <trkpt lat="40.499696" lon="0.499144">
        <ele>8.025</ele>
        <time>1970-01-01T02:08:30Z</time>
      </trkpt>
      <trkpt lat="40.499635" lon="0.499094">
        <ele>8.159</ele>
        <time>1970-01-01T02:08:31Z</time>
      </trkpt>
      <trkpt lat="40.499575" lon="0.499047">
        <ele>8.280</ele>
        <time>1970-01-01T02:08:32Z</time>
      </trkpt>
      <trkpt lat="40.499516" lon="0.499003">
        <ele>8.447</ele>
        <time>1970-01-01T02:08:33Z</time>
      </trkpt>
      <trkpt lat="40.499459" lon="0.498965">
        <ele>8.729</ele>
        <time>1970-01-01T02:08:34Z</time>
      </trkpt>
      <trkpt lat="40.499402" lon="0.498928">
        <ele>8.921</ele>
        <time>1970-01-01T02:08:35Z</time>
      </trkpt>
      <trkpt lat="40.499347" lon="0.498893">
        <ele>9.008</ele>
        <time>1970-01-01T02:08:36Z</time>
      </trkpt>
      <trkpt lat="40.499296" lon="0.498855">
        <ele>8.981</ele>
        <time>1970-01-01T02:08:37Z</time>
      </trkpt>
      <trkpt lat="40.499245" lon="0.498820">
        <ele>8.998</ele>
        <time>1970-01-01T02:08:38Z</time>
      </trkpt>
      <trkpt lat="40.499196" lon="0.498785">
        <ele>9.069</ele>
        <time>1970-01-01T02:08:39Z</time>
      </trkpt>
      <trkpt lat="40.499145" lon="0.498755">
        <ele>9.042</ele>
        <time>1970-01-01T02:08:40Z</time>
      </trkpt>
      <trkpt lat="40.499090" lon="0.498733">
        <ele>9.022</ele>
        <time>1970-01-01T02:08:41Z</time>
      </trkpt>
      <trkpt lat="40.499038" lon="0.498705">
        <ele>9.078</ele>
        <time>1970-01-01T02:08:42Z</time>
      </trkpt>
      <trkpt lat="40.498986" lon="0.498671">
        <ele>9.072</ele>
        <time>1970-01-01T02:08:43Z</time>
      </trkpt>
      <trkpt lat="40.498938" lon="0.498625">
        <ele>9.073</ele>
        <time>1970-01-01T02:08:44Z</time>
      </trkpt>
      <trkpt lat="40.498891" lon="0.498579">
        <ele>9.035</ele>
        <time>1970-01-01T02:08:45Z</time>
      </trkpt>
      <trkpt lat="40.498840" lon="0.498535">
        <ele>9.086</ele>
        <time>1970-01-01T02:08:46Z</time>
      </trkpt>
      <trkpt lat="40.498785" lon="0.498496">
        <ele>9.014</ele>
        <time>1970-01-01T02:08:47Z</time>
      </trkpt>
      <trkpt lat="40.498731" lon="0.498457">
        <ele>9.008</ele>
        <time>1970-01-01T02:08:48Z</time>
      </trkpt>
      <trkpt lat="40.498675" lon="0.498422">
        <ele>9.030</ele>
        <time>1970-01-01T02:08:49Z</time>
      </trkpt>
      <trkpt lat="40.498619" lon="0.498382">
        <ele>9.077</ele>
        <time>1970-01-01T02:08:50Z</time>
      </trkpt>
      <trkpt lat="40.498566" lon="0.498342">
        <ele>9.058</ele>
        <time>1970-01-01T02:08:51Z</time>
      </trkpt>
      <trkpt lat="40.498514" lon="0.498303">
        <ele>9.171</ele>
        <time>1970-01-01T02:08:52Z</time>
      </trkpt>
      <trkpt lat="40.498461" lon="0.498268">
        <ele>9.111</ele>
        <time>1970-01-01T02:08:53Z</time>
      </trkpt>
      <trkpt lat="40.498408" lon="0.498235">
        <ele>9.137</ele>
        <time>1970-01-01T02:08:54Z</time>
      </trkpt>
      <trkpt lat="40.498357" lon="0.498201">
        <ele>9.031</ele>
        <time>1970-01-01T02:08:55Z</time>
      </trkpt>
      <trkpt lat="40.498307" lon="0.498165">
        <ele>9.042</ele>
        <time>1970-01-01T02:08:56Z</time>
      </trkpt>
      <trkpt lat="40.498259" lon="0.498127">
        <ele>8.978</ele>
        <time>1970-01-01T02:08:57Z</time>
      </trkpt>
      <trkpt lat="40.498210" lon="0.498090">
        <ele>8.933</ele>
        <time>1970-01-01T02:08:58Z</time>
      </trkpt>
      <trkpt lat="40.498158" lon="0.498055">
        <ele>9.026</ele>
        <time>1970-01-01T02:08:59Z</time>
      </trkpt>
      <trkpt lat="40.498105" lon="0.498020">
        <ele>9.108</ele>
        <time>1970-01-01T02:09:00Z</time>
      </trkpt>
      <trkpt lat="40.498054" lon="0.497985">
        <ele>9.344</ele>
        <time>1970-01-01T02:09:01Z</time>
      </trkpt>
      <trkpt lat="40.498006" lon="0.497948">
        <ele>9.681</ele>
        <time>1970-01-01T02:09:02Z</time>
      </trkpt>
      <trkpt lat="40.497959" lon="0.497910">
        <ele>9.982</ele>
        <time>1970-01-01T02:09:03Z</time>
      </trkpt>
      <trkpt lat="40.497912" lon="0.497874">
        <ele>10.295</ele>
        <time>1970-01-01T02:09:04Z</time>
      </trkpt>
      <trkpt lat="40.497865" lon="0.497838">
        <ele>10.575</ele>
        <time>1970-01-01T02:09:05Z</time>
      </trkpt>
      <trkpt lat="40.497815" lon="0.497803">
        <ele>10.861</ele>
        <time>1970-01-01T02:09:06Z</time>
      </trkpt>
      <trkpt lat="40.497766" lon="0.497768">
        <ele>11.045</ele>
        <time>1970-01-01T02:09:07Z</time>
      </trkpt>
      <trkpt lat="40.497717" lon="0.497731">
        <ele>10.946</ele>
        <time>1970-01-01T02:09:08Z</time>
      </trkpt>
      <trkpt lat="40.497667" lon="0.497696">
        <ele>10.996</ele>
        <time>1970-01-01T02:09:09Z</time>
      </trkpt>
      <trkpt lat="40.497616" lon="0.497660">
        <ele>10.831</ele>
        <time>1970-01-01T02:09:10Z</time>
      </trkpt>
      <trkpt lat="40.497562" lon="0.497623">
        <ele>10.824</ele>
        <time>1970-01-01T02:09:11Z</time>
      </trkpt>
      <trkpt lat="40.497511" lon="0.497586">
        <ele>10.708</ele>
        <time>1970-01-01T02:09:12Z</time>
      </trkpt>
      <trkpt lat="40.497459" lon="0.497552">
        <ele>10.816</ele>
        <time>1970-01-01T02:09:13Z</time>
      </trkpt>
      <trkpt lat="40.497406" lon="0.497518">
        <ele>10.963</ele>
        <time>1970-01-01T02:09:14Z</time>
      </trkpt>
      <trkpt lat="40.497353" lon="0.497484">
        <ele>11.094</ele>
        <time>1970-01-01T02:09:15Z</time>
      </trkpt>
      <trkpt lat="40.497300" lon="0.497449">
        <ele>11.027</ele>
        <time>1970-01-01T02:09:16Z</time>
      </trkpt>
      <trkpt lat="40.497244" lon="0.497413">
        <ele>11.017</ele>
        <time>1970-01-01T02:09:17Z</time>
      </trkpt>
      <trkpt lat="40.497188" lon="0.497378">
        <ele>11.173</ele>
        <time>1970-01-01T02:09:18Z</time>
      </trkpt>
      <trkpt lat="40.497134" lon="0.497340">
        <ele>11.197</ele>
        <time>1970-01-01T02:09:19Z</time>
      </trkpt>
      <trkpt lat="40.497081" lon="0.497302">
        <ele>11.168</ele>
        <time>1970-01-01T02:09:20Z</time>
      </trkpt>
      <trkpt lat="40.497025" lon="0.497266">
        <ele>11.123</ele>
        <time>1970-01-01T02:09:21Z</time>
      </trkpt>
      <trkpt lat="40.496969" lon="0.497230">
        <ele>11.083</ele>
        <time>1970-01-01T02:09:22Z</time>
      </trkpt>
      <trkpt lat="40.496915" lon="0.497193">
        <ele>11.111</ele>
        <time>1970-01-01T02:09:23Z</time>
      </trkpt>
      <trkpt lat="40.496860" lon="0.497155">
        <ele>11.308</ele>
        <time>1970-01-01T02:09:24Z</time>
      </trkpt>
      <trkpt lat="40.496803" lon="0.497116">
        <ele>11.589</ele>
        <time>1970-01-01T02:09:25Z</time>
      </trkpt>
      <trkpt lat="40.496748" lon="0.497076">
        <ele>11.766</ele>
        <time>1970-01-01T02:09:26Z</time>
      </trkpt>
      <trkpt lat="40.496694" lon="0.497037">
        <ele>11.947</ele>
        <time>1970-01-01T02:09:27Z</time>
      </trkpt>
      <trkpt lat="40.496639" lon="0.496997">
        <ele>12.080</ele>
        <time>1970-01-01T02:09:28Z</time>
      </trkpt>
      <trkpt lat="40.496585" lon="0.496959">
        <ele>12.050</ele>
        <time>1970-01-01T02:09:29Z</time>
      </trkpt>
      <trkpt lat="40.496531" lon="0.496921">
        <ele>11.996</ele>
        <time>1970-01-01T02:09:30Z</time>
      </trkpt>
      <trkpt lat="40.496478" lon="0.496881">
        <ele>11.840</ele>
        <time>1970-01-01T02:09:31Z</time>
      </trkpt>
      <trkpt lat="40.496424" lon="0.496843">
        <ele>11.671</ele>
        <time>1970-01-01T02:09:32Z</time>
      </trkpt>
      <trkpt lat="40.496372" lon="0.496806">
        <ele>11.565</ele>
        <time>1970-01-01T02:09:33Z</time>
      </trkpt>
      <trkpt lat="40.496321" lon="0.496770">
        <ele>11.368</ele>
        <time>1970-01-01T02:09:34Z</time>
      </trkpt>
      <trkpt lat="40.496267" lon="0.496733">
        <ele>11.114</ele>
        <time>1970-01-01T02:09:35Z</time>
      </trkpt>
      <trkpt lat="40.496215" lon="0.496693">
        <ele>11.008</ele>
        <time>1970-01-01T02:09:36Z</time>
      </trkpt>
      <trkpt lat="40.496164" lon="0.496655">
        <ele>11.053</ele>
        <time>1970-01-01T02:09:37Z</time>
      </trkpt>
      <trkpt lat="40.496112" lon="0.496616">
        <ele>11.090</ele>
        <time>1970-01-01T02:09:38Z</time>
      </trkpt>
      <trkpt lat="40.496062" lon="0.496576">
        <ele>10.821</ele>
        <time>1970-01-01T02:09:39Z</time>
      </trkpt>
      <trkpt lat="40.496011" lon="0.496533">
        <ele>10.644</ele>
        <time>1970-01-01T02:09:40Z</time>
      </trkpt>
      <trkpt lat="40.495960" lon="0.496491">
        <ele>10.544</ele>
        <time>1970-01-01T02:09:41Z</time>
      </trkpt>
      <trkpt lat="40.495908" lon="0.496450">
        <ele>10.330</ele>
        <time>1970-01-01T02:09:42Z</time>
      </trkpt>
      <trkpt lat="40.495857" lon="0.496409">
        <ele>10.134</ele>
        <time>1970-01-01T02:09:43Z</time>
      </trkpt>
      <trkpt lat="40.495804" lon="0.496367">
        <ele>10.245</ele>
        <time>1970-01-01T02:09:44Z</time>
      </trkpt>
      <trkpt lat="40.495751" lon="0.496324">
        <ele>10.576</ele>
        <time>1970-01-01T02:09:45Z</time>
      </trkpt>
      <trkpt lat="40.495700" lon="0.496279">
        <ele>10.790</ele>
        <time>1970-01-01T02:09:46Z</time>
      </trkpt>
      <trkpt lat="40.495648" lon="0.496234">
        <ele>10.919</ele>
        <time>1970-01-01T02:09:47Z</time>
      </trkpt>
      <trkpt lat="40.495595" lon="0.496185">
        <ele>11.008</ele>
        <time>1970-01-01T02:09:48Z</time>
      </trkpt>
      <trkpt lat="40.495541" lon="0.496137">
        <ele>11.124</ele>
        <time>1970-01-01T02:09:49Z</time>
      </trkpt>
      <trkpt lat="40.495485" lon="0.496093">
        <ele>11.361</ele>
        <time>1970-01-01T02:09:50Z</time>
      </trkpt>
      <trkpt lat="40.495428" lon="0.496053">
        <ele>11.542</ele>
        <time>1970-01-01T02:09:51Z</time>
      </trkpt>
      <trkpt lat="40.495371" lon="0.496016">
        <ele>11.765</ele>
        <time>1970-01-01T02:09:52Z</time>
      </trkpt>
      <trkpt lat="40.495314" lon="0.495984">
        <ele>11.945</ele>
        <time>1970-01-01T02:09:53Z</time>
      </trkpt>
      <trkpt lat="40.495255" lon="0.495956">
        <ele>12.041</ele>
        <time>1970-01-01T02:09:54Z</time>
      </trkpt>
      <trkpt lat="40.495197" lon="0.495933">
        <ele>12.095</ele>
        <time>1970-01-01T02:09:55Z</time>
      </trkpt>
      <trkpt lat="40.495141" lon="0.495907">
        <ele>12.056</ele>
        <time>1970-01-01T02:09:56Z</time>
      </trkpt>
      <trkpt lat="40.495086" lon="0.495878">
        <ele>12.076</ele>
        <time>1970-01-01T02:09:57Z</time>
      </trkpt>
      <trkpt lat="40.495028" lon="0.495848">
        <ele>12.090</ele>
        <time>1970-01-01T02:09:58Z</time>
      </trkpt>
      <trkpt lat="40.494970" lon="0.495820">
        <ele>12.019</ele>
        <time>1970-01-01T02:09:59Z</time>
      </trkpt>
      <trkpt lat="40.494912" lon="0.495793">
        <ele>12.008</ele>
        <time>1970-01-01T02:10:00Z</time>
      </trkpt>
      <trkpt lat="40.494855" lon="0.495765">
        <ele>12.054</ele>
        <time>1970-01-01T02:10:01Z</time>
      </trkpt>
      <trkpt lat="40.494798" lon="0.495733">
        <ele>12.041</ele>
        <time>1970-01-01T02:10:02Z</time>
      </trkpt>
      <trkpt lat="40.494740" lon="0.495702">
        <ele>12.012</ele>
        <time>1970-01-01T02:10:03Z</time>
      </trkpt>
      <trkpt lat="40.494685" lon="0.495666">
        <ele>11.915</ele>
        <time>1970-01-01T02:10:04Z</time>
      </trkpt>
      <trkpt lat="40.494631" lon="0.495628">
        <ele>11.865</ele>
        <time>1970-01-01T02:10:05Z</time>
      </trkpt>
      <trkpt lat="40.494576" lon="0.495592">
        <ele>11.531</ele>
        <time>1970-01-01T02:10:06Z</time>
      </trkpt>
      <trkpt lat="40.494523" lon="0.495556">
        <ele>11.365</ele>
        <time>1970-01-01T02:10:07Z</time>
      </trkpt>
      <trkpt lat="40.494470" lon="0.495519">
        <ele>11.296</ele>
        <time>1970-01-01T02:10:08Z</time>
      </trkpt>
      <trkpt lat="40.494415" lon="0.495483">
        <ele>11.245</ele>
        <time>1970-01-01T02:10:09Z</time>
      </trkpt>
      <trkpt lat="40.494361" lon="0.495448">
        <ele>11.147</ele>
        <time>1970-01-01T02:10:10Z</time>
      </trkpt>
      <trkpt lat="40.494307" lon="0.495414">
        <ele>11.011</ele>
        <time>1970-01-01T02:10:11Z</time>
      </trkpt>
      <trkpt lat="40.494251" lon="0.495380">
        <ele>10.908</ele>
        <time>1970-01-01T02:10:12Z</time>
      </trkpt>
      <trkpt lat="40.494197" lon="0.495346">
        <ele>10.921</ele>
        <time>1970-01-01T02:10:13Z</time>
      </trkpt>
      <trkpt lat="40.494145" lon="0.495307">
        <ele>10.818</ele>
        <time>1970-01-01T02:10:14Z</time>
      </trkpt>
      <trkpt lat="40.494090" lon="0.495267">
        <ele>10.799</ele>
        <time>1970-01-01T02:10:15Z</time>
      </trkpt>
      <trkpt lat="40.494037" lon="0.495229">
        <ele>10.642</ele>
        <time>1970-01-01T02:10:16Z</time>
      </trkpt>
      <trkpt lat="40.493983" lon="0.495190">
        <ele>10.522</ele>
        <time>1970-01-01T02:10:17Z</time>
      </trkpt>
      <trkpt lat="40.493931" lon="0.495151">
        <ele>10.568</ele>
        <time>1970-01-01T02:10:18Z</time>
      </trkpt>
      <trkpt lat="40.493877" lon="0.495120">
        <ele>10.642</ele>
        <time>1970-01-01T02:10:19Z</time>
      </trkpt>
      <trkpt lat="40.493823" lon="0.495086">
        <ele>10.733</ele>
        <time>1970-01-01T02:10:20Z</time>
      </trkpt>
      <trkpt lat="40.493770" lon="0.495049">
        <ele>10.839</ele>
        <time>1970-01-01T02:10:21Z</time>
      </trkpt>
      <trkpt lat="40.493718" lon="0.495012">
        <ele>11.001</ele>
        <time>1970-01-01T02:10:22Z</time>
      </trkpt>
      <trkpt lat="40.493666" lon="0.494974">
        <ele>11.021</ele>
        <time>1970-01-01T02:10:23Z</time>
      </trkpt>
      <trkpt lat="40.493615" lon="0.494933">
        <ele>11.008</ele>
        <time>1970-01-01T02:10:24Z</time>
      </trkpt>
      <trkpt lat="40.493564" lon="0.494894">
        <ele>10.940</ele>
        <time>1970-01-01T02:10:25Z</time>
      </trkpt>
      <trkpt lat="40.493514" lon="0.494852">
        <ele>10.857</ele>
        <time>1970-01-01T02:10:26Z</time>
      </trkpt>
      <trkpt lat="40.493460" lon="0.494809">
        <ele>10.898</ele>
        <time>1970-01-01T02:10:27Z</time>
      </trkpt>
      <trkpt lat="40.493405" lon="0.494763">
        <ele>10.921</ele>
        <time>1970-01-01T02:10:28Z</time>
      </trkpt>
      <trkpt lat="40.493350" lon="0.494714">
        <ele>11.091</ele>
        <time>1970-01-01T02:10:29Z</time>
      </trkpt>
      <trkpt lat="40.493296" lon="0.494663">
        <ele>10.827</ele>
        <time>1970-01-01T02:10:30Z</time>
      </trkpt>
      <trkpt lat="40.493239" lon="0.494610">
        <ele>10.581</ele>
        <time>1970-01-01T02:10:31Z</time>
      </trkpt>
      <trkpt lat="40.493177" lon="0.494556">
        <ele>10.192</ele>
        <time>1970-01-01T02:10:32Z</time>
      </trkpt>
      <trkpt lat="40.493114" lon="0.494507">
        <ele>9.699</ele>
        <time>1970-01-01T02:10:33Z</time>
      </trkpt>
      <trkpt lat="40.493050" lon="0.494459">
        <ele>9.007</ele>
        <time>1970-01-01T02:10:34Z</time>
      </trkpt>
      <trkpt lat="40.492987" lon="0.494410">
        <ele>8.627</ele>
        <time>1970-01-01T02:10:35Z</time>
      </trkpt>
      <trkpt lat="40.492920" lon="0.494367">
        <ele>8.208</ele>
        <time>1970-01-01T02:10:36Z</time>
      </trkpt>
      <trkpt lat="40.492853" lon="0.494332">
        <ele>7.976</ele>
        <time>1970-01-01T02:10:37Z</time>
      </trkpt>
      <trkpt lat="40.492785" lon="0.494300">
        <ele>7.593</ele>
        <time>1970-01-01T02:10:38Z</time>
      </trkpt>
      <trkpt lat="40.492719" lon="0.494266">
        <ele>7.234</ele>
        <time>1970-01-01T02:10:39Z</time>
      </trkpt>
      <trkpt lat="40.492652" lon="0.494233">
        <ele>7.027</ele>
        <time>1970-01-01T02:10:40Z</time>
      </trkpt>
      <trkpt lat="40.492586" lon="0.494202">
        <ele>7.077</ele>
        <time>1970-01-01T02:10:41Z</time>
      </trkpt>
      <trkpt lat="40.492520" lon="0.494172">
        <ele>7.043</ele>
        <time>1970-01-01T02:10:42Z</time>
      </trkpt>
      <trkpt lat="40.492453" lon="0.494144">
        <ele>7.397</ele>
        <time>1970-01-01T02:10:43Z</time>
      </trkpt>
      <trkpt lat="40.492387" lon="0.494115">
        <ele>7.628</ele>
        <time>1970-01-01T02:10:44Z</time>
      </trkpt>
      <trkpt lat="40.492322" lon="0.494084">
        <ele>7.964</ele>
        <time>1970-01-01T02:10:45Z</time>
      </trkpt>
      <trkpt lat="40.492259" lon="0.494053">
        <ele>8.306</ele>
        <time>1970-01-01T02:10:46Z</time>
      </trkpt>
      <trkpt lat="40.492200" lon="0.494024">
        <ele>8.516</ele>
        <time>1970-01-01T02:10:47Z</time>
      </trkpt>
      <trkpt lat="40.492144" lon="0.493995">
        <ele>8.608</ele>
        <time>1970-01-01T02:10:48Z</time>
      </trkpt>
      <trkpt lat="40.492091" lon="0.493964">
        <ele>8.733</ele>
        <time>1970-01-01T02:10:49Z</time>
      </trkpt>
      <trkpt lat="40.492042" lon="0.493926">
        <ele>8.950</ele>
        <time>1970-01-01T02:10:50Z</time>
      </trkpt>
      <trkpt lat="40.491993" lon="0.493882">
        <ele>9.011</ele>
        <time>1970-01-01T02:10:51Z</time>
      </trkpt>
      <trkpt lat="40.491950" lon="0.493830">
        <ele>9.024</ele>
        <time>1970-01-01T02:10:52Z</time>
      </trkpt>
      <trkpt lat="40.491908" lon="0.493775">
        <ele>9.044</ele>
        <time>1970-01-01T02:10:53Z</time>
      </trkpt>
      <trkpt lat="40.491868" lon="0.493720">
        <ele>9.010</ele>
        <time>1970-01-01T02:10:54Z</time>
      </trkpt>
      <trkpt lat="40.491829" lon="0.493668">
        <ele>9.074</ele>
        <time>1970-01-01T02:10:55Z</time>
      </trkpt>
      <trkpt lat="40.491786" lon="0.493615">
        <ele>9.035</ele>
        <time>1970-01-01T02:10:56Z</time>
      </trkpt>
      <trkpt lat="40.491741" lon="0.493563">
        <ele>9.088</ele>
        <time>1970-01-01T02:10:57Z</time>
      </trkpt>
      <trkpt lat="40.491694" lon="0.493513">
        <ele>9.024</ele>
        <time>1970-01-01T02:10:58Z</time>
      </trkpt>
      <trkpt lat="40.491650" lon="0.493460">
        <ele>9.026</ele>
        <time>1970-01-01T02:10:59Z</time>
      </trkpt>
      <trkpt lat="40.491605" lon="0.493409">
        <ele>9.008</ele>
        <time>1970-01-01T02:11:00Z</time>
      </trkpt>
      <trkpt lat="40.491555" lon="0.493361">
        <ele>9.015</ele>
        <time>1970-01-01T02:11:01Z</time>
      </trkpt>
      <trkpt lat="40.491504" lon="0.493313">
        <ele>9.042</ele>
        <time>1970-01-01T02:11:02Z</time>
      </trkpt>
      <trkpt lat="40.491453" lon="0.493266">
        <ele>8.893</ele>
        <time>1970-01-01T02:11:03Z</time>
      </trkpt>
      <trkpt lat="40.491400" lon="0.493219">
        <ele>8.686</ele>
        <time>1970-01-01T02:11:04Z</time>
      </trkpt>
      <trkpt lat="40.491346" lon="0.493177">
        <ele>8.466</ele>
        <time>1970-01-01T02:11:05Z</time>
      </trkpt>
      <trkpt lat="40.491293" lon="0.493136">
        <ele>8.232</ele>
        <time>1970-01-01T02:11:06Z</time>
      </trkpt>
      <trkpt lat="40.491241" lon="0.493096">
        <ele>8.156</ele>
        <time>1970-01-01T02:11:07Z</time>
      </trkpt>
      <trkpt lat="40.491189" lon="0.493057">
        <ele>8.017</ele>
        <time>1970-01-01T02:11:08Z</time>
      </trkpt>
      <trkpt lat="40.491138" lon="0.493017">
        <ele>8.058</ele>
        <time>1970-01-01T02:11:09Z</time>
      </trkpt>
      <trkpt lat="40.491088" lon="0.492978">
        <ele>8.152</ele>
        <time>1970-01-01T02:11:10Z</time>
      </trkpt>
      <trkpt lat="40.491036" lon="0.492938">
        <ele>8.317</ele>
        <time>1970-01-01T02:11:11Z</time>
      </trkpt>
      <trkpt lat="40.490984" lon="0.492894">
        <ele>8.508</ele>
        <time>1970-01-01T02:11:12Z</time>
      </trkpt>
      <trkpt lat="40.490934" lon="0.492851">
        <ele>8.672</ele>
        <time>1970-01-01T02:11:13Z</time>
      </trkpt>
      <trkpt lat="40.490880" lon="0.492810">
        <ele>8.829</ele>
        <time>1970-01-01T02:11:14Z</time>
      </trkpt>
      <trkpt lat="40.490826" lon="0.492772">
        <ele>9.050</ele>
        <time>1970-01-01T02:11:15Z</time>
      </trkpt>
      <trkpt lat="40.490775" lon="0.492732">
        <ele>9.083</ele>
        <time>1970-01-01T02:11:16Z</time>
      </trkpt>
      <trkpt lat="40.490720" lon="0.492692">
        <ele>9.133</ele>
        <time>1970-01-01T02:11:17Z</time>
      </trkpt>
      <trkpt lat="40.490669" lon="0.492651">
        <ele>9.319</ele>
        <time>1970-01-01T02:11:18Z</time>
      </trkpt>
      <trkpt lat="40.490620" lon="0.492609">
        <ele>9.583</ele>
        <time>1970-01-01T02:11:19Z</time>
      </trkpt>
      <trkpt lat="40.490571" lon="0.492567">
        <ele>9.714</ele>
        <time>1970-01-01T02:11:20Z</time>
      </trkpt>
      <trkpt lat="40.490520" lon="0.492524">
        <ele>9.838</ele>
        <time>1970-01-01T02:11:21Z</time>
      </trkpt>
      <trkpt lat="40.490470" lon="0.492478">
        <ele>9.670</ele>
        <time>1970-01-01T02:11:22Z</time>
      </trkpt>
      <trkpt lat="40.490422" lon="0.492435">
        <ele>9.417</ele>
        <time>1970-01-01T02:11:23Z</time>
      </trkpt>
      <trkpt lat="40.490375" lon="0.492392">
        <ele>9.208</ele>
        <time>1970-01-01T02:11:24Z</time>
      </trkpt>
      <trkpt lat="40.490328" lon="0.492345">
        <ele>9.140</ele>
        <time>1970-01-01T02:11:25Z</time>
      </trkpt>
      <trkpt lat="40.490279" lon="0.492296">
        <ele>9.057</ele>
        <time>1970-01-01T02:11:26Z</time>
      </trkpt>
      <trkpt lat="40.490232" lon="0.492252">
        <ele>8.768</ele>
        <time>1970-01-01T02:11:27Z</time>
      </trkpt>
      <trkpt lat="40.490184" lon="0.492208">
        <ele>8.351</ele>
        <time>1970-01-01T02:11:28Z</time>
      </trkpt>
      <trkpt lat="40.490135" lon="0.492162">
        <ele>7.981</ele>
        <time>1970-01-01T02:11:29Z</time>
      </trkpt>
      <trkpt lat="40.490088" lon="0.492117">
        <ele>7.547</ele>
        <time>1970-01-01T02:11:30Z</time>
      </trkpt>
      <trkpt lat="40.490042" lon="0.492071">
        <ele>7.231</ele>
        <time>1970-01-01T02:11:31Z</time>
      </trkpt>
      <trkpt lat="40.489999" lon="0.492021">
        <ele>7.032</ele>
        <time>1970-01-01T02:11:32Z</time>
      </trkpt>
      <trkpt lat="40.489957" lon="0.491966">
        <ele>7.164</ele>
        <time>1970-01-01T02:11:33Z</time>
      </trkpt>
      <trkpt lat="40.489914" lon="0.491908">
        <ele>7.306</ele>
        <time>1970-01-01T02:11:34Z</time>
      </trkpt>
      <trkpt lat="40.489870" lon="0.491851">
        <ele>7.516</ele>
        <time>1970-01-01T02:11:35Z</time>
      </trkpt>
      <trkpt lat="40.489824" lon="0.491794">
        <ele>7.608</ele>
        <time>1970-01-01T02:11:36Z</time>
      </trkpt>
      <trkpt lat="40.489778" lon="0.491740">
        <ele>7.853</ele>
        <time>1970-01-01T02:11:37Z</time>
      </trkpt>
      <trkpt lat="40.489732" lon="0.491684">
        <ele>8.080</ele>
        <time>1970-01-01T02:11:38Z</time>
      </trkpt>
      <trkpt lat="40.489690" lon="0.491623">
        <ele>8.271</ele>
        <time>1970-01-01T02:11:39Z</time>
      </trkpt>
      <trkpt lat="40.489648" lon="0.491564">
        <ele>8.364</ele>
        <time>1970-01-01T02:11:40Z</time>
      </trkpt>
      <trkpt lat="40.489603" lon="0.491508">
        <ele>8.454</ele>
        <time>1970-01-01T02:11:41Z</time>
      </trkpt>
      <trkpt lat="40.489560" lon="0.491448">
        <ele>8.210</ele>
        <time>1970-01-01T02:11:42Z</time>
      </trkpt>
      <trkpt lat="40.489520" lon="0.491386">
        <ele>8.074</ele>
        <time>1970-01-01T02:11:43Z</time>
      </trkpt>
      <trkpt lat="40.489478" lon="0.491325">
        <ele>7.855</ele>
        <time>1970-01-01T02:11:44Z</time>
      </trkpt>
      <trkpt lat="40.489435" lon="0.491265">
        <ele>7.551</ele>
        <time>1970-01-01T02:11:45Z</time>
      </trkpt>
      <trkpt lat="40.489393" lon="0.491206">
        <ele>7.201</ele>
        <time>1970-01-01T02:11:46Z</time>
      </trkpt>
      <trkpt lat="40.489349" lon="0.491148">
        <ele>6.811</ele>
        <time>1970-01-01T02:11:47Z</time>
      </trkpt>
      <trkpt lat="40.489304" lon="0.491087">
        <ele>6.508</ele>
        <time>1970-01-01T02:11:48Z</time>
      </trkpt>
      <trkpt lat="40.489264" lon="0.491028">
        <ele>6.252</ele>
        <time>1970-01-01T02:11:49Z</time>
      </trkpt>
      <trkpt lat="40.489222" lon="0.490969">
        <ele>6.149</ele>
        <time>1970-01-01T02:11:50Z</time>
      </trkpt>
      <trkpt lat="40.489177" lon="0.490909">
        <ele>6.040</ele>
        <time>1970-01-01T02:11:51Z</time>
      </trkpt>
      <trkpt lat="40.489130" lon="0.490849">
        <ele>6.073</ele>
        <time>1970-01-01T02:11:52Z</time>
      </trkpt>
      <trkpt lat="40.489083" lon="0.490795">
        <ele>6.173</ele>
        <time>1970-01-01T02:11:53Z</time>
      </trkpt>
      <trkpt lat="40.489028" lon="0.490752">
        <ele>6.119</ele>
        <time>1970-01-01T02:11:54Z</time>
      </trkpt>
      <trkpt lat="40.488967" lon="0.490715">
        <ele>6.163</ele>
        <time>1970-01-01T02:11:55Z</time>
      </trkpt>
      <trkpt lat="40.488906" lon="0.490681">
        <ele>6.064</ele>
        <time>1970-01-01T02:11:56Z</time>
      </trkpt>
      <trkpt lat="40.488846" lon="0.490645">
        <ele>5.854</ele>
        <time>1970-01-01T02:11:57Z</time>
      </trkpt>
      <trkpt lat="40.488789" lon="0.490607">
        <ele>5.656</ele>
        <time>1970-01-01T02:11:58Z</time>
      </trkpt>
      <trkpt lat="40.488732" lon="0.490570">
        <ele>5.411</ele>
        <time>1970-01-01T02:11:59Z</time>
      </trkpt>
      <trkpt lat="40.488678" lon="0.490535">
        <ele>5.308</ele>
        <time>1970-01-01T02:12:00Z</time>
      </trkpt>
      <trkpt lat="40.488622" lon="0.490500">
        <ele>5.242</ele>
        <time>1970-01-01T02:12:01Z</time>
      </trkpt>
      <trkpt lat="40.488564" lon="0.490463">
        <ele>5.349</ele>
        <time>1970-01-01T02:12:02Z</time>
      </trkpt>
      <trkpt lat="40.488504" lon="0.490428">
        <ele>5.570</ele>
        <time>1970-01-01T02:12:03Z</time>
      </trkpt>
      <trkpt lat="40.488446" lon="0.490390">
        <ele>5.623</ele>
        <time>1970-01-01T02:12:04Z</time>
      </trkpt>
      <trkpt lat="40.488387" lon="0.490353">
        <ele>5.723</ele>
        <time>1970-01-01T02:12:05Z</time>
      </trkpt>
      <trkpt lat="40.488328" lon="0.490316">
        <ele>5.939</ele>
        <time>1970-01-01T02:12:06Z</time>
      </trkpt>
      <trkpt lat="40.488269" lon="0.490280">
        <ele>6.073</ele>
        <time>1970-01-01T02:12:07Z</time>
      </trkpt>
      <trkpt lat="40.488209" lon="0.490250">
        <ele>6.094</ele>
        <time>1970-01-01T02:12:08Z</time>
      </trkpt>
      <trkpt lat="40.488150" lon="0.490229">
        <ele>6.048</ele>
        <time>1970-01-01T02:12:09Z</time>
      </trkpt>
      <trkpt lat="40.488092" lon="0.490207">
        <ele>6.061</ele>
        <time>1970-01-01T02:12:10Z</time>
      </trkpt>
      <trkpt lat="40.488035" lon="0.490187">
        <ele>6.017</ele>
        <time>1970-01-01T02:12:11Z</time>
      </trkpt>
      <trkpt lat="40.487979" lon="0.490164">
        <ele>5.808</ele>
        <time>1970-01-01T02:12:12Z</time>
      </trkpt>
      <trkpt lat="40.487923" lon="0.490138">
        <ele>5.831</ele>
        <time>1970-01-01T02:12:13Z</time>
      </trkpt>
      <trkpt lat="40.487862" lon="0.490117">
        <ele>5.758</ele>
        <time>1970-01-01T02:12:14Z</time>
      </trkpt>
      <trkpt lat="40.487801" lon="0.490094">
        <ele>5.779</ele>
        <time>1970-01-01T02:12:15Z</time>
      </trkpt>
      <trkpt lat="40.487742" lon="0.490070">
        <ele>5.712</ele>
        <time>1970-01-01T02:12:16Z</time>
      </trkpt>
      <trkpt lat="40.487682" lon="0.490047">
        <ele>5.832</ele>
        <time>1970-01-01T02:12:17Z</time>
      </trkpt>
      <trkpt lat="40.487621" lon="0.490028">
        <ele>5.948</ele>
        <time>1970-01-01T02:12:18Z</time>
      </trkpt>
      <trkpt lat="40.487557" lon="0.490010">
        <ele>6.032</ele>
        <time>1970-01-01T02:12:19Z</time>
      </trkpt>
      <trkpt lat="40.487493" lon="0.489995">
        <ele>6.063</ele>
        <time>1970-01-01T02:12:20Z</time>
      </trkpt>
      <trkpt lat="40.487429" lon="0.489983">
        <ele>5.836</ele>
        <time>1970-01-01T02:12:21Z</time>
      </trkpt>
      <trkpt lat="40.487364" lon="0.489970">
        <ele>5.617</ele>
        <time>1970-01-01T02:12:22Z</time>
      </trkpt>
      <trkpt lat="40.487301" lon="0.489953">
        <ele>5.418</ele>
        <time>1970-01-01T02:12:23Z</time>
      </trkpt>
      <trkpt lat="40.487240" lon="0.489938">
        <ele>5.308</ele>
        <time>1970-01-01T02:12:24Z</time>
      </trkpt>
      <trkpt lat="40.487179" lon="0.489925">
        <ele>5.260</ele>
        <time>1970-01-01T02:12:25Z</time>
      </trkpt>
      <trkpt lat="40.487117" lon="0.489911">
        <ele>5.117</ele>
        <time>1970-01-01T02:12:26Z</time>
      </trkpt>
      <trkpt lat="40.487054" lon="0.489897">
        <ele>5.098</ele>
        <time>1970-01-01T02:12:27Z</time>
      </trkpt>
      <trkpt lat="40.486993" lon="0.489883">
        <ele>4.971</ele>
        <time>1970-01-01T02:12:28Z</time>
      </trkpt>
      <trkpt lat="40.486932" lon="0.489869">
        <ele>4.951</ele>
        <time>1970-01-01T02:12:29Z</time>
      </trkpt>
      <trkpt lat="40.486871" lon="0.489853">
        <ele>4.817</ele>
        <time>1970-01-01T02:12:30Z</time>
      </trkpt>
      <trkpt lat="40.486810" lon="0.489836">
        <ele>4.741</ele>
        <time>1970-01-01T02:12:31Z</time>
      </trkpt>
      <trkpt lat="40.486749" lon="0.489819">
        <ele>4.682</ele>
        <time>1970-01-01T02:12:32Z</time>
      </trkpt>
      <trkpt lat="40.486688" lon="0.489800">
        <ele>4.521</ele>
        <time>1970-01-01T02:12:33Z</time>
      </trkpt>
      <trkpt lat="40.486628" lon="0.489774">
        <ele>4.541</ele>
        <time>1970-01-01T02:12:34Z</time>
      </trkpt>
      <trkpt lat="40.486570" lon="0.489739">
        <ele>4.505</ele>
        <time>1970-01-01T02:12:35Z</time>
      </trkpt>
      <trkpt lat="40.486512" lon="0.489701">
        <ele>4.508</ele>
        <time>1970-01-01T02:12:36Z</time>
      </trkpt>
      <trkpt lat="40.486455" lon="0.489665">
        <ele>4.429</ele>
        <time>1970-01-01T02:12:37Z</time>
      </trkpt>
      <trkpt lat="40.486397" lon="0.489630">
        <ele>4.456</ele>
        <time>1970-01-01T02:12:38Z</time>
      </trkpt>
      <trkpt lat="40.486339" lon="0.489595">
        <ele>4.417</ele>
        <time>1970-01-01T02:12:39Z</time>
      </trkpt>
      <trkpt lat="40.486284" lon="0.489559">
        <ele>4.460</ele>
        <time>1970-01-01T02:12:40Z</time>
      </trkpt>
      <trkpt lat="40.486230" lon="0.489522">
        <ele>4.690</ele>
        <time>1970-01-01T02:12:41Z</time>
      </trkpt>
      <trkpt lat="40.486178" lon="0.489485">
        <ele>4.726</ele>
        <time>1970-01-01T02:12:42Z</time>
      </trkpt>
      <trkpt lat="40.486127" lon="0.489447">
        <ele>5.010</ele>
        <time>1970-01-01T02:12:43Z</time>
      </trkpt>
      <trkpt lat="40.486076" lon="0.489414">
        <ele>5.241</ele>
        <time>1970-01-01T02:12:44Z</time>
      </trkpt>
      <trkpt lat="40.486025" lon="0.489383">
        <ele>5.515</ele>
        <time>1970-01-01T02:12:45Z</time>
      </trkpt>
      <trkpt lat="40.485979" lon="0.489341">
        <ele>5.765</ele>
        <time>1970-01-01T02:12:46Z</time>
      </trkpt>
      <trkpt lat="40.485939" lon="0.489289">
        <ele>5.811</ele>
        <time>1970-01-01T02:12:47Z</time>
      </trkpt>
      <trkpt lat="40.485901" lon="0.489226">
        <ele>5.908</ele>
        <time>1970-01-01T02:12:48Z</time>
      </trkpt>
      <trkpt lat="40.485864" lon="0.489157">
        <ele>6.038</ele>
        <time>1970-01-01T02:12:49Z</time>
      </trkpt>
      <trkpt lat="40.485827" lon="0.489080">
        <ele>5.785</ele>
        <time>1970-01-01T02:12:50Z</time>
      </trkpt>
      <trkpt lat="40.485791" lon="0.488995">
        <ele>5.456</ele>
        <time>1970-01-01T02:12:51Z</time>
      </trkpt>
      <trkpt lat="40.485753" lon="0.488913">
        <ele>5.199</ele>
        <time>1970-01-01T02:12:52Z</time>
      </trkpt>
      <trkpt lat="40.485713" lon="0.488831">
        <ele>4.859</ele>
        <time>1970-01-01T02:12:53Z</time>
      </trkpt>
      <trkpt lat="40.485671" lon="0.488751">
        <ele>4.515</ele>
        <time>1970-01-01T02:12:54Z</time>
      </trkpt>
      <trkpt lat="40.485627" lon="0.488668">
        <ele>4.289</ele>
        <time>1970-01-01T02:12:55Z</time>
      </trkpt>
      <trkpt lat="40.485580" lon="0.488590">
        <ele>4.030</ele>
        <time>1970-01-01T02:12:56Z</time>
      </trkpt>
      <trkpt lat="40.485532" lon="0.488514">
        <ele>3.929</ele>
        <time>1970-01-01T02:12:57Z</time>
      </trkpt>
      <trkpt lat="40.485478" lon="0.488444">
        <ele>3.900</ele>
        <time>1970-01-01T02:12:58Z</time>
      </trkpt>
      <trkpt lat="40.485420" lon="0.488384">
        <ele>3.920</ele>
        <time>1970-01-01T02:12:59Z</time>
      </trkpt>
      <trkpt lat="40.485360" lon="0.488332">
        <ele>4.008</ele>
        <time>1970-01-01T02:13:00Z</time>
      </trkpt>
      <trkpt lat="40.485299" lon="0.488286">
        <ele>4.219</ele>
        <time>1970-01-01T02:13:01Z</time>
      </trkpt>
      <trkpt lat="40.485238" lon="0.488239">
        <ele>4.116</ele>
        <time>1970-01-01T02:13:02Z</time>
      </trkpt>
      <trkpt lat="40.485178" lon="0.488192">
        <ele>4.067</ele>
        <time>1970-01-01T02:13:03Z</time>
      </trkpt>
      <trkpt lat="40.485118" lon="0.488146">
        <ele>3.940</ele>
        <time>1970-01-01T02:13:04Z</time>
      </trkpt>
      <trkpt lat="40.485058" lon="0.488101">
        <ele>3.910</ele>
        <time>1970-01-01T02:13:05Z</time>
      </trkpt>
      <trkpt lat="40.484996" lon="0.488055">
        <ele>4.076</ele>
        <time>1970-01-01T02:13:06Z</time>
      </trkpt>
      <trkpt lat="40.484934" lon="0.488011">
        <ele>4.210</ele>
        <time>1970-01-01T02:13:07Z</time>
      </trkpt>
      <trkpt lat="40.484874" lon="0.487969">
        <ele>4.541</ele>
        <time>1970-01-01T02:13:08Z</time>
      </trkpt>
      <trkpt lat="40.484816" lon="0.487928">
        <ele>4.718</ele>
        <time>1970-01-01T02:13:09Z</time>
      </trkpt>
      <trkpt lat="40.484760" lon="0.487886">
        <ele>4.998</ele>
        <time>1970-01-01T02:13:10Z</time>
      </trkpt>
      <trkpt lat="40.484708" lon="0.487842">
        <ele>5.017</ele>
        <time>1970-01-01T02:13:11Z</time>
      </trkpt>
      <trkpt lat="40.484657" lon="0.487795">
        <ele>5.108</ele>
        <time>1970-01-01T02:13:12Z</time>
      </trkpt>
      <trkpt lat="40.484606" lon="0.487748">
        <ele>5.438</ele>
        <time>1970-01-01T02:13:13Z</time>
      </trkpt>
      <trkpt lat="40.484558" lon="0.487701">
        <ele>5.485</ele>
        <time>1970-01-01T02:13:14Z</time>
      </trkpt>
      <trkpt lat="40.484514" lon="0.487652">
        <ele>5.486</ele>
        <time>1970-01-01T02:13:15Z</time>
      </trkpt>
      <trkpt lat="40.484473" lon="0.487598">
        <ele>5.369</ele>
        <time>1970-01-01T02:13:16Z</time>
      </trkpt>
      <trkpt lat="40.484438" lon="0.487542">
        <ele>5.219</ele>
        <time>1970-01-01T02:13:17Z</time>
      </trkpt>
      <trkpt lat="40.484409" lon="0.487482">
        <ele>5.175</ele>
        <time>1970-01-01T02:13:18Z</time>
      </trkpt>
      <trkpt lat="40.484382" lon="0.487419">
        <ele>5.259</ele>
        <time>1970-01-01T02:13:19Z</time>
      </trkpt>
      <trkpt lat="40.484356" lon="0.487358">
        <ele>5.390</ele>
        <time>1970-01-01T02:13:20Z</time>
      </trkpt>
      <trkpt lat="40.484330" lon="0.487297">
        <ele>5.453</ele>
        <time>1970-01-01T02:13:21Z</time>
      </trkpt>
      <trkpt lat="40.484305" lon="0.487234">
        <ele>5.504</ele>
        <time>1970-01-01T02:13:22Z</time>
      </trkpt>
      <trkpt lat="40.484279" lon="0.487168">
        <ele>5.714</ele>
        <time>1970-01-01T02:13:23Z</time>
      </trkpt>
      <trkpt lat="40.484253" lon="0.487104">
        <ele>5.808</ele>
        <time>1970-01-01T02:13:24Z</time>
      </trkpt>
      <trkpt lat="40.484226" lon="0.487041">
        <ele>5.962</ele>
        <time>1970-01-01T02:13:25Z</time>
      </trkpt>
      <trkpt lat="40.484199" lon="0.486977">
        <ele>6.019</ele>
        <time>1970-01-01T02:13:26Z</time>
      </trkpt>
      <trkpt lat="40.484173" lon="0.486910">
        <ele>6.160</ele>
        <time>1970-01-01T02:13:27Z</time>
      </trkpt>
      <trkpt lat="40.484148" lon="0.486844">
        <ele>6.483</ele>
        <time>1970-01-01T02:13:28Z</time>
      </trkpt>
      <trkpt lat="40.484122" lon="0.486780">
        <ele>6.863</ele>
        <time>1970-01-01T02:13:29Z</time>
      </trkpt>
      <trkpt lat="40.484092" lon="0.486716">
        <ele>7.199</ele>
        <time>1970-01-01T02:13:30Z</time>
      </trkpt>
      <trkpt lat="40.484063" lon="0.486653">
        <ele>7.463</ele>
        <time>1970-01-01T02:13:31Z</time>
      </trkpt>
      <trkpt lat="40.484033" lon="0.486589">
        <ele>7.844</ele>
        <time>1970-01-01T02:13:32Z</time>
      </trkpt>
      <trkpt lat="40.484005" lon="0.486525">
        <ele>8.183</ele>
        <time>1970-01-01T02:13:33Z</time>
      </trkpt>
      <trkpt lat="40.483978" lon="0.486458">
        <ele>8.425</ele>
        <time>1970-01-01T02:13:34Z</time>
      </trkpt>
      <trkpt lat="40.483952" lon="0.486390">
        <ele>8.817</ele>
        <time>1970-01-01T02:13:35Z</time>
      </trkpt>
      <trkpt lat="40.483924" lon="0.486326">
        <ele>8.908</ele>
        <time>1970-01-01T02:13:36Z</time>
      </trkpt>
      <trkpt lat="40.483894" lon="0.486265">
        <ele>9.015</ele>
        <time>1970-01-01T02:13:37Z</time>
      </trkpt>
      <trkpt lat="40.483860" lon="0.486203">
        <ele>8.942</ele>
        <time>1970-01-01T02:13:38Z</time>
      </trkpt>
      <trkpt lat="40.483825" lon="0.486142">
        <ele>8.823</ele>
        <time>1970-01-01T02:13:39Z</time>
      </trkpt>
      <trkpt lat="40.483788" lon="0.486083">
        <ele>8.676</ele>
        <time>1970-01-01T02:13:40Z</time>
      </trkpt>
      <trkpt lat="40.483752" lon="0.486022">
        <ele>8.566</ele>
        <time>1970-01-01T02:13:41Z</time>
      </trkpt>
      <trkpt lat="40.483718" lon="0.485961">
        <ele>8.442</ele>
        <time>1970-01-01T02:13:42Z</time>
      </trkpt>
      <trkpt lat="40.483684" lon="0.485900">
        <ele>8.396</ele>
        <time>1970-01-01T02:13:43Z</time>
      </trkpt>
      <trkpt lat="40.483650" lon="0.485841">
        <ele>8.187</ele>
        <time>1970-01-01T02:13:44Z</time>
      </trkpt>
      <trkpt lat="40.483611" lon="0.485782">
        <ele>7.866</ele>
        <time>1970-01-01T02:13:45Z</time>
      </trkpt>
      <trkpt lat="40.483571" lon="0.485722">
        <ele>7.529</ele>
        <time>1970-01-01T02:13:46Z</time>
      </trkpt>
      <trkpt lat="40.483533" lon="0.485662">
        <ele>7.321</ele>
        <time>1970-01-01T02:13:47Z</time>
      </trkpt>
      <trkpt lat="40.483495" lon="0.485600">
        <ele>7.108</ele>
        <time>1970-01-01T02:13:48Z</time>
      </trkpt>
      <trkpt lat="40.483459" lon="0.485538">
        <ele>7.033</ele>
        <time>1970-01-01T02:13:49Z</time>
      </trkpt>
      <trkpt lat="40.483424" lon="0.485474">
        <ele>7.040</ele>
        <time>1970-01-01T02:13:50Z</time>
      </trkpt>
      <trkpt lat="40.483391" lon="0.485411">
        <ele>7.061</ele>
        <time>1970-01-01T02:13:51Z</time>
      </trkpt>
      <trkpt lat="40.483353" lon="0.485353">
        <ele>7.054</ele>
        <time>1970-01-01T02:13:52Z</time>
      </trkpt>
      <trkpt lat="40.483318" lon="0.485293">
        <ele>7.074</ele>
        <time>1970-01-01T02:13:53Z</time>
      </trkpt>
      <trkpt lat="40.483284" lon="0.485234">
        <ele>7.090</ele>
        <time>1970-01-01T02:13:54Z</time>
      </trkpt>
      <trkpt lat="40.483248" lon="0.485171">
        <ele>7.074</ele>
        <time>1970-01-01T02:13:55Z</time>
      </trkpt>
      <trkpt lat="40.483215" lon="0.485108">
        <ele>7.095</ele>
        <time>1970-01-01T02:13:56Z</time>
      </trkpt>
      <trkpt lat="40.483182" lon="0.485045">
        <ele>7.075</ele>
        <time>1970-01-01T02:13:57Z</time>
      </trkpt>
      <trkpt lat="40.483150" lon="0.484980">
        <ele>7.028</ele>
        <time>1970-01-01T02:13:58Z</time>
      </trkpt>
      <trkpt lat="40.483120" lon="0.484910">
        <ele>7.220</ele>
        <time>1970-01-01T02:13:59Z</time>
      </trkpt>
      <trkpt lat="40.483090" lon="0.484843">
        <ele>7.508</ele>
        <time>1970-01-01T02:14:00Z</time>
      </trkpt>
      <trkpt lat="40.483058" lon="0.484777">
        <ele>7.844</ele>
        <time>1970-01-01T02:14:01Z</time>
      </trkpt>
      <trkpt lat="40.483029" lon="0.484708">
        <ele>8.131</ele>
        <time>1970-01-01T02:14:02Z</time>
      </trkpt>
      <trkpt lat="40.482999" lon="0.484641">
        <ele>8.352</ele>
        <time>1970-01-01T02:14:03Z</time>
      </trkpt>
      <trkpt lat="40.482966" lon="0.484574">
        <ele>8.585</ele>
        <time>1970-01-01T02:14:04Z</time>
      </trkpt>
      <trkpt lat="40.482934" lon="0.484507">
        <ele>8.895</ele>
        <time>1970-01-01T02:14:05Z</time>
      </trkpt>
      <trkpt lat="40.482904" lon="0.484438">
        <ele>9.041</ele>
        <time>1970-01-01T02:14:06Z</time>
      </trkpt>
      <trkpt lat="40.482876" lon="0.484367">
        <ele>9.235</ele>
        <time>1970-01-01T02:14:07Z</time>
      </trkpt>
      <trkpt lat="40.482848" lon="0.484295">
        <ele>9.476</ele>
        <time>1970-01-01T02:14:08Z</time>
      </trkpt>
      <trkpt lat="40.482819" lon="0.484222">
        <ele>9.735</ele>
        <time>1970-01-01T02:14:09Z</time>
      </trkpt>
      <trkpt lat="40.482787" lon="0.484150">
        <ele>10.086</ele>
        <time>1970-01-01T02:14:10Z</time>
      </trkpt>
      <trkpt lat="40.482752" lon="0.484082">
        <ele>9.814</ele>
        <time>1970-01-01T02:14:11Z</time>
      </trkpt>
      <trkpt lat="40.482713" lon="0.484012">
        <ele>9.708</ele>
        <time>1970-01-01T02:14:12Z</time>
      </trkpt>
      <trkpt lat="40.482678" lon="0.483941">
        <ele>9.660</ele>
        <time>1970-01-01T02:14:13Z</time>
      </trkpt>
      <trkpt lat="40.482645" lon="0.483870">
        <ele>9.587</ele>
        <time>1970-01-01T02:14:14Z</time>
      </trkpt>
      <trkpt lat="40.482612" lon="0.483799">
        <ele>9.498</ele>
        <time>1970-01-01T02:14:15Z</time>
      </trkpt>
      <trkpt lat="40.482578" lon="0.483731">
        <ele>9.371</ele>
        <time>1970-01-01T02:14:16Z</time>
      </trkpt>
      <trkpt lat="40.482541" lon="0.483667">
        <ele>9.191</ele>
        <time>1970-01-01T02:14:17Z</time>
      </trkpt>
      <trkpt lat="40.482500" lon="0.483608">
        <ele>9.027</ele>
        <time>1970-01-01T02:14:18Z</time>
      </trkpt>
      <trkpt lat="40.482451" lon="0.483554">
        <ele>8.941</ele>
        <time>1970-01-01T02:14:19Z</time>
      </trkpt>
      <trkpt lat="40.482393" lon="0.483506">
        <ele>8.832</ele>
        <time>1970-01-01T02:14:20Z</time>
      </trkpt>
      <trkpt lat="40.482333" lon="0.483464">
        <ele>8.748</ele>
        <time>1970-01-01T02:14:21Z</time>
      </trkpt>
      <trkpt lat="40.482270" lon="0.483435">
        <ele>8.761</ele>
        <time>1970-01-01T02:14:22Z</time>
      </trkpt>
      <trkpt lat="40.482207" lon="0.483415">
        <ele>8.717</ele>
        <time>1970-01-01T02:14:23Z</time>
      </trkpt>
      <trkpt lat="40.482143" lon="0.483394">
        <ele>8.508</ele>
        <time>1970-01-01T02:14:24Z</time>
      </trkpt>
      <trkpt lat="40.482081" lon="0.483375">
        <ele>8.341</ele>
        <time>1970-01-01T02:14:25Z</time>
      </trkpt>
      <trkpt lat="40.482021" lon="0.483357">
        <ele>8.248</ele>
        <time>1970-01-01T02:14:26Z</time>
      </trkpt>
      <trkpt lat="40.481961" lon="0.483343">
        <ele>8.029</ele>
        <time>1970-01-01T02:14:27Z</time>
      </trkpt>
      <trkpt lat="40.481901" lon="0.483329">
        <ele>7.822</ele>
        <time>1970-01-01T02:14:28Z</time>
      </trkpt>
      <trkpt lat="40.481842" lon="0.483308">
        <ele>7.632</ele>
        <time>1970-01-01T02:14:29Z</time>
      </trkpt>
      <trkpt lat="40.481784" lon="0.483283">
        <ele>7.458</ele>
        <time>1970-01-01T02:14:30Z</time>
      </trkpt>
      <trkpt lat="40.481727" lon="0.483248">
        <ele>7.272</ele>
        <time>1970-01-01T02:14:31Z</time>
      </trkpt>
      <trkpt lat="40.481670" lon="0.483207">
        <ele>7.053</ele>
        <time>1970-01-01T02:14:32Z</time>
      </trkpt>
      <trkpt lat="40.481616" lon="0.483166">
        <ele>6.958</ele>
        <time>1970-01-01T02:14:33Z</time>
      </trkpt>
      <trkpt lat="40.481563" lon="0.483124">
        <ele>6.952</ele>
        <time>1970-01-01T02:14:34Z</time>
      </trkpt>
      <trkpt lat="40.481509" lon="0.483077">
        <ele>7.017</ele>
        <time>1970-01-01T02:14:35Z</time>
      </trkpt>
      <trkpt lat="40.481456" lon="0.483028">
        <ele>7.008</ele>
        <time>1970-01-01T02:14:36Z</time>
      </trkpt>
      <trkpt lat="40.481405" lon="0.482975">
        <ele>7.072</ele>
        <time>1970-01-01T02:14:37Z</time>
      </trkpt>
      <trkpt lat="40.481354" lon="0.482924">
        <ele>7.039</ele>
        <time>1970-01-01T02:14:38Z</time>
      </trkpt>
      <trkpt lat="40.481303" lon="0.482872">
        <ele>7.050</ele>
        <time>1970-01-01T02:14:39Z</time>
      </trkpt>
      <trkpt lat="40.481255" lon="0.482820">
        <ele>7.053</ele>
        <time>1970-01-01T02:14:40Z</time>
      </trkpt>
      <trkpt lat="40.481210" lon="0.482767">
        <ele>7.043</ele>
        <time>1970-01-01T02:14:41Z</time>
      </trkpt>
      <trkpt lat="40.481167" lon="0.482710">
        <ele>7.299</ele>
        <time>1970-01-01T02:14:42Z</time>
      </trkpt>
      <trkpt lat="40.481123" lon="0.482653">
        <ele>7.473</ele>
        <time>1970-01-01T02:14:43Z</time>
      </trkpt>
      <trkpt lat="40.481076" lon="0.482596">
        <ele>7.784</ele>
        <time>1970-01-01T02:14:44Z</time>
      </trkpt>
      <trkpt lat="40.481029" lon="0.482539">
        <ele>7.949</ele>
        <time>1970-01-01T02:14:45Z</time>
      </trkpt>
      <trkpt lat="40.480981" lon="0.482485">
        <ele>8.002</ele>
        <time>1970-01-01T02:14:46Z</time>
      </trkpt>
      <trkpt lat="40.480932" lon="0.482434">
        <ele>8.222</ele>
        <time>1970-01-01T02:14:47Z</time>
      </trkpt>
      <trkpt lat="40.480883" lon="0.482384">
        <ele>8.308</ele>
        <time>1970-01-01T02:14:48Z</time>
      </trkpt>
      <trkpt lat="40.480834" lon="0.482337">
        <ele>8.651</ele>
        <time>1970-01-01T02:14:49Z</time>
      </trkpt>
      <trkpt lat="40.480782" lon="0.482296">
        <ele>8.878</ele>
        <time>1970-01-01T02:14:50Z</time>
      </trkpt>
      <trkpt lat="40.480730" lon="0.482256">
        <ele>8.929</ele>
        <time>1970-01-01T02:14:51Z</time>
      </trkpt>
      <trkpt lat="40.480677" lon="0.482214">
        <ele>9.042</ele>
        <time>1970-01-01T02:14:52Z</time>
      </trkpt>
      <trkpt lat="40.480624" lon="0.482174">
        <ele>8.912</ele>
        <time>1970-01-01T02:14:53Z</time>
      </trkpt>
      <trkpt lat="40.480569" lon="0.482142">
        <ele>8.738</ele>
        <time>1970-01-01T02:14:54Z</time>
      </trkpt>
      <trkpt lat="40.480513" lon="0.482115">
        <ele>8.652</ele>
        <time>1970-01-01T02:14:55Z</time>
      </trkpt>
      <trkpt lat="40.480459" lon="0.482083">
        <ele>8.543</ele>
        <time>1970-01-01T02:14:56Z</time>
      </trkpt>
      <trkpt lat="40.480402" lon="0.482050">
        <ele>8.444</ele>
        <time>1970-01-01T02:14:57Z</time>
      </trkpt>
      <trkpt lat="40.480346" lon="0.482015">
        <ele>8.305</ele>
        <time>1970-01-01T02:14:58Z</time>
      </trkpt>
      <trkpt lat="40.480297" lon="0.481975">
        <ele>8.115</ele>
        <time>1970-01-01T02:14:59Z</time>
      </trkpt>
      <trkpt lat="40.480248" lon="0.481933">
        <ele>8.108</ele>
        <time>1970-01-01T02:15:00Z</time>
      </trkpt>
      <trkpt lat="40.480198" lon="0.481894">
        <ele>8.121</ele>
        <time>1970-01-01T02:15:01Z</time>
      </trkpt>
      <trkpt lat="40.480146" lon="0.481859">
        <ele>8.268</ele>
        <time>1970-01-01T02:15:02Z</time>
      </trkpt>
      <trkpt lat="40.480093" lon="0.481823">
        <ele>8.229</ele>
        <time>1970-01-01T02:15:03Z</time>
      </trkpt>
      <trkpt lat="40.480041" lon="0.481788">
        <ele>8.382</ele>
        <time>1970-01-01T02:15:04Z</time>
      </trkpt>
      <trkpt lat="40.479988" lon="0.481750">
        <ele>8.442</ele>
        <time>1970-01-01T02:15:05Z</time>
      </trkpt>
      <trkpt lat="40.479934" lon="0.481713">
        <ele>8.638</ele>
        <time>1970-01-01T02:15:06Z</time>
      </trkpt>
      <trkpt lat="40.479882" lon="0.481677">
        <ele>8.962</ele>
        <time>1970-01-01T02:15:07Z</time>
      </trkpt>
      <trkpt lat="40.479830" lon="0.481644">
        <ele>9.283</ele>
        <time>1970-01-01T02:15:08Z</time>
      </trkpt>
      <trkpt lat="40.479776" lon="0.481612">
        <ele>9.561</ele>
        <time>1970-01-01T02:15:09Z</time>
      </trkpt>
      <trkpt lat="40.479723" lon="0.481577">
        <ele>9.721</ele>
        <time>1970-01-01T02:15:10Z</time>
      </trkpt>
      <trkpt lat="40.479671" lon="0.481539">
        <ele>9.513</ele>
        <time>1970-01-01T02:15:11Z</time>
      </trkpt>
      <trkpt lat="40.479618" lon="0.481503">
        <ele>9.408</ele>
        <time>1970-01-01T02:15:12Z</time>
      </trkpt>
      <trkpt lat="40.479562" lon="0.481465">
        <ele>9.393</ele>
        <time>1970-01-01T02:15:13Z</time>
      </trkpt>
      <trkpt lat="40.479507" lon="0.481426">
        <ele>9.130</ele>
        <time>1970-01-01T02:15:14Z</time>
      </trkpt>
      <trkpt lat="40.479452" lon="0.481387">
        <ele>9.051</ele>
        <time>1970-01-01T02:15:15Z</time>
      </trkpt>
      <trkpt lat="40.479400" lon="0.481348">
        <ele>8.934</ele>
        <time>1970-01-01T02:15:16Z</time>
      </trkpt>
      <trkpt lat="40.479348" lon="0.481310">
        <ele>8.734</ele>
        <time>1970-01-01T02:15:17Z</time>
      </trkpt>
      <trkpt lat="40.479294" lon="0.481270">
        <ele>8.690</ele>
        <time>1970-01-01T02:15:18Z</time>
      </trkpt>
      <trkpt lat="40.479240" lon="0.481231">
        <ele>8.474</ele>
        <time>1970-01-01T02:15:19Z</time>
      </trkpt>
      <trkpt lat="40.479184" lon="0.481193">
        <ele>8.395</ele>
        <time>1970-01-01T02:15:20Z</time>
      </trkpt>
      <trkpt lat="40.479127" lon="0.481156">
        <ele>8.136</ele>
        <time>1970-01-01T02:15:21Z</time>
      </trkpt>
      <trkpt lat="40.479068" lon="0.481125">
        <ele>8.017</ele>
        <time>1970-01-01T02:15:22Z</time>
      </trkpt>
      <trkpt lat="40.479009" lon="0.481091">
        <ele>8.018</ele>
        <time>1970-01-01T02:15:23Z</time>
      </trkpt>
      <trkpt lat="40.478953" lon="0.481055">
        <ele>8.208</ele>
        <time>1970-01-01T02:15:24Z</time>
      </trkpt>
      <trkpt lat="40.478897" lon="0.481017">
        <ele>8.340</ele>
        <time>1970-01-01T02:15:25Z</time>
      </trkpt>
      <trkpt lat="40.478840" lon="0.480981">
        <ele>8.217</ele>
        <time>1970-01-01T02:15:26Z</time>
      </trkpt>
      <trkpt lat="40.478784" lon="0.480945">
        <ele>8.178</ele>
        <time>1970-01-01T02:15:27Z</time>
      </trkpt>
      <trkpt lat="40.478728" lon="0.480909">
        <ele>8.031</ele>
        <time>1970-01-01T02:15:28Z</time>
      </trkpt>
      <trkpt lat="40.478673" lon="0.480875">
        <ele>8.071</ele>
        <time>1970-01-01T02:15:29Z</time>
      </trkpt>
      <trkpt lat="40.478624" lon="0.480839">
        <ele>8.047</ele>
        <time>1970-01-01T02:15:30Z</time>
      </trkpt>
      <trkpt lat="40.478575" lon="0.480802">
        <ele>7.971</ele>
        <time>1970-01-01T02:15:31Z</time>
      </trkpt>
      <trkpt lat="40.478525" lon="0.480768">
        <ele>7.762</ele>
        <time>1970-01-01T02:15:32Z</time>
      </trkpt>
      <trkpt lat="40.478479" lon="0.480735">
        <ele>7.669</ele>
        <time>1970-01-01T02:15:33Z</time>
      </trkpt>
      <trkpt lat="40.478433" lon="0.480702">
        <ele>7.504</ele>
        <time>1970-01-01T02:15:34Z</time>
      </trkpt>
      <trkpt lat="40.478387" lon="0.480672">
        <ele>7.424</ele>
        <time>1970-01-01T02:15:35Z</time>
      </trkpt>
      <trkpt lat="40.478341" lon="0.480640">
        <ele>7.408</ele>
        <time>1970-01-01T02:15:36Z</time>
      </trkpt>
      <trkpt lat="40.478296" lon="0.480610">
        <ele>7.693</ele>
        <time>1970-01-01T02:15:37Z</time>
      </trkpt>
      <trkpt lat="40.478250" lon="0.480579">
        <ele>7.940</ele>
        <time>1970-01-01T02:15:38Z</time>
      </trkpt>
      <trkpt lat="40.478205" lon="0.480549">
        <ele>8.011</ele>
        <time>1970-01-01T02:15:39Z</time>
      </trkpt>
      <trkpt lat="40.478162" lon="0.480519">
        <ele>8.154</ele>
        <time>1970-01-01T02:15:40Z</time>
      </trkpt>
      <trkpt lat="40.478118" lon="0.480491">
        <ele>8.134</ele>
        <time>1970-01-01T02:15:41Z</time>
      </trkpt>
      <trkpt lat="40.478074" lon="0.480464">
        <ele>8.020</ele>
        <time>1970-01-01T02:15:42Z</time>
      </trkpt>
      <trkpt lat="40.478030" lon="0.480440">
        <ele>8.044</ele>
        <time>1970-01-01T02:15:43Z</time>
      </trkpt>
      <trkpt lat="40.477989" lon="0.480413">
        <ele>8.015</ele>
        <time>1970-01-01T02:15:44Z</time>
      </trkpt>
      <trkpt lat="40.477950" lon="0.480385">
        <ele>8.092</ele>
        <time>1970-01-01T02:15:45Z</time>
      </trkpt>
      <trkpt lat="40.477911" lon="0.480359">
        <ele>8.073</ele>
        <time>1970-01-01T02:15:46Z</time>
      </trkpt>
      <trkpt lat="40.477868" lon="0.480335">
        <ele>8.020</ele>
        <time>1970-01-01T02:15:47Z</time>
      </trkpt>
      <trkpt lat="40.477827" lon="0.480305">
        <ele>8.008</ele>
        <time>1970-01-01T02:15:48Z</time>
      </trkpt>
      <trkpt lat="40.477784" lon="0.480271">
        <ele>8.056</ele>
        <time>1970-01-01T02:15:49Z</time>
      </trkpt>
      <trkpt lat="40.477738" lon="0.480237">
        <ele>7.813</ele>
        <time>1970-01-01T02:15:50Z</time>
      </trkpt>
      <trkpt lat="40.477687" lon="0.480203">
        <ele>7.614</ele>
        <time>1970-01-01T02:15:51Z</time>
      </trkpt>
      <trkpt lat="40.477638" lon="0.480167">
        <ele>7.317</ele>
        <time>1970-01-01T02:15:52Z</time>
      </trkpt>
      <trkpt lat="40.477590" lon="0.480130">
        <ele>7.017</ele>
        <time>1970-01-01T02:15:53Z</time>
      </trkpt>
      <trkpt lat="40.477544" lon="0.480092">
        <ele>6.643</ele>
        <time>1970-01-01T02:15:54Z</time>
      </trkpt>
      <trkpt lat="40.477500" lon="0.480052">
        <ele>6.277</ele>
        <time>1970-01-01T02:15:55Z</time>
      </trkpt>
      <trkpt lat="40.477457" lon="0.480010">
        <ele>5.758</ele>
        <time>1970-01-01T02:15:56Z</time>
      </trkpt>
      <trkpt lat="40.477412" lon="0.479968">
        <ele>5.471</ele>
        <time>1970-01-01T02:15:57Z</time>
      </trkpt>
      <trkpt lat="40.477366" lon="0.479929">
        <ele>5.041</ele>
        <time>1970-01-01T02:15:58Z</time>
      </trkpt>
      <trkpt lat="40.477325" lon="0.479888">
        <ele>4.715</ele>
        <time>1970-01-01T02:15:59Z</time>
      </trkpt>
      <trkpt lat="40.477285" lon="0.479845">
        <ele>4.508</ele>
        <time>1970-01-01T02:16:00Z</time>
      </trkpt>
      <trkpt lat="40.477245" lon="0.479801">
        <ele>4.284</ele>
        <time>1970-01-01T02:16:01Z</time>
      </trkpt>
      <trkpt lat="40.477203" lon="0.479756">
        <ele>4.051</ele>
        <time>1970-01-01T02:16:02Z</time>
      </trkpt>
      <trkpt lat="40.477164" lon="0.479710">
        <ele>4.022</ele>
        <time>1970-01-01T02:16:03Z</time>
      </trkpt>
      <trkpt lat="40.477125" lon="0.479666">
        <ele>4.255</ele>
        <time>1970-01-01T02:16:04Z</time>
      </trkpt>
      <trkpt lat="40.477086" lon="0.479622">
        <ele>4.415</ele>
        <time>1970-01-01T02:16:05Z</time>
      </trkpt>
      <trkpt lat="40.477047" lon="0.479579">
        <ele>4.551</ele>
        <time>1970-01-01T02:16:06Z</time>
      </trkpt>
      <trkpt lat="40.477011" lon="0.479541">
        <ele>4.725</ele>
        <time>1970-01-01T02:16:07Z</time>
      </trkpt>
      <trkpt lat="40.476975" lon="0.479502">
        <ele>4.886</ele>
        <time>1970-01-01T02:16:08Z</time>
      </trkpt>
      <trkpt lat="40.476931" lon="0.479481">
        <ele>4.951</ele>
        <time>1970-01-01T02:16:09Z</time>
      </trkpt>
      <trkpt lat="40.476882" lon="0.479485">
        <ele>5.101</ele>
        <time>1970-01-01T02:16:10Z</time>
      </trkpt>
      <trkpt lat="40.476835" lon="0.479516">
        <ele>5.111</ele>
        <time>1970-01-01T02:16:11Z</time>
      </trkpt>
      <trkpt lat="40.476797" lon="0.479565">
        <ele>5.108</ele>
        <time>1970-01-01T02:16:12Z</time>
      </trkpt>
      <trkpt lat="40.476762" lon="0.479624">
        <ele>5.052</ele>
        <time>1970-01-01T02:16:13Z</time>
      </trkpt>
      <trkpt lat="40.476725" lon="0.479690">
        <ele>4.979</ele>
        <time>1970-01-01T02:16:14Z</time>
      </trkpt>
      <trkpt lat="40.476688" lon="0.479762">
        <ele>4.820</ele>
        <time>1970-01-01T02:16:15Z</time>
      </trkpt>
      <trkpt lat="40.476650" lon="0.479834">
        <ele>4.713</ele>
        <time>1970-01-01T02:16:16Z</time>
      </trkpt>
      <trkpt lat="40.476607" lon="0.479906">
        <ele>4.843</ele>
        <time>1970-01-01T02:16:17Z</time>
      </trkpt>
      <trkpt lat="40.476560" lon="0.479982">
        <ele>4.879</ele>
        <time>1970-01-01T02:16:18Z</time>
      </trkpt>
      <trkpt lat="40.476512" lon="0.480057">
        <ele>4.893</ele>
        <time>1970-01-01T02:16:19Z</time>
      </trkpt>
      <trkpt lat="40.476464" lon="0.480132">
        <ele>4.674</ele>
        <time>1970-01-01T02:16:20Z</time>
      </trkpt>
      <trkpt lat="40.476415" lon="0.480207">
        <ele>4.459</ele>
        <time>1970-01-01T02:16:21Z</time>
      </trkpt>
      <trkpt lat="40.476367" lon="0.480283">
        <ele>4.003</ele>
        <time>1970-01-01T02:16:22Z</time>
      </trkpt>
      <trkpt lat="40.476318" lon="0.480358">
        <ele>3.823</ele>
        <time>1970-01-01T02:16:23Z</time>
      </trkpt>
      <trkpt lat="40.476270" lon="0.480431">
        <ele>3.608</ele>
        <time>1970-01-01T02:16:24Z</time>
      </trkpt>
      <trkpt lat="40.476224" lon="0.480504">
        <ele>3.492</ele>
        <time>1970-01-01T02:16:25Z</time>
      </trkpt>
      <trkpt lat="40.476180" lon="0.480575">
        <ele>3.449</ele>
        <time>1970-01-01T02:16:26Z</time>
      </trkpt>
      <trkpt lat="40.476134" lon="0.480648">
        <ele>3.230</ele>
        <time>1970-01-01T02:16:27Z</time>
      </trkpt>
      <trkpt lat="40.476088" lon="0.480719">
        <ele>3.063</ele>
        <time>1970-01-01T02:16:28Z</time>
      </trkpt>
      <trkpt lat="40.476041" lon="0.480786">
        <ele>3.043</ele>
        <time>1970-01-01T02:16:29Z</time>
      </trkpt>
      <trkpt lat="40.475994" lon="0.480854">
        <ele>3.279</ele>
        <time>1970-01-01T02:16:30Z</time>
      </trkpt>
      <trkpt lat="40.475948" lon="0.480921">
        <ele>3.393</ele>
        <time>1970-01-01T02:16:31Z</time>
      </trkpt>
      <trkpt lat="40.475903" lon="0.480990">
        <ele>3.374</ele>
        <time>1970-01-01T02:16:32Z</time>
      </trkpt>
      <trkpt lat="40.475859" lon="0.481058">
        <ele>3.237</ele>
        <time>1970-01-01T02:16:33Z</time>
      </trkpt>
      <trkpt lat="40.475818" lon="0.481126">
        <ele>3.049</ele>
        <time>1970-01-01T02:16:34Z</time>
      </trkpt>
      <trkpt lat="40.475776" lon="0.481195">
        <ele>2.813</ele>
        <time>1970-01-01T02:16:35Z</time>
      </trkpt>
      <trkpt lat="40.475735" lon="0.481264">
        <ele>2.608</ele>
        <time>1970-01-01T02:16:36Z</time>
      </trkpt>
      <trkpt lat="40.475694" lon="0.481333">
        <ele>2.380</ele>
        <time>1970-01-01T02:16:37Z</time>
      </trkpt>
      <trkpt lat="40.475655" lon="0.481403">
        <ele>1.977</ele>
        <time>1970-01-01T02:16:38Z</time>
      </trkpt>
      <trkpt lat="40.475615" lon="0.481474">
        <ele>1.668</ele>
        <time>1970-01-01T02:16:39Z</time>
      </trkpt>
      <trkpt lat="40.475576" lon="0.481544">
        <ele>1.421</ele>
        <time>1970-01-01T02:16:40Z</time>
      </trkpt>
      <trkpt lat="40.475536" lon="0.481613">
        <ele>1.291</ele>
        <time>1970-01-01T02:16:41Z</time>
      </trkpt>
      <trkpt lat="40.475495" lon="0.481682">
        <ele>1.287</ele>
        <time>1970-01-01T02:16:42Z</time>
      </trkpt>
      <trkpt lat="40.475454" lon="0.481753">
        <ele>1.341</ele>
        <time>1970-01-01T02:16:43Z</time>
      </trkpt>
      <trkpt lat="40.475415" lon="0.481822">
        <ele>1.262</ele>
        <time>1970-01-01T02:16:44Z</time>
      </trkpt>
      <trkpt lat="40.475375" lon="0.481890">
        <ele>1.132</ele>
        <time>1970-01-01T02:16:45Z</time>
      </trkpt>
      <trkpt lat="40.475335" lon="0.481958">
        <ele>1.092</ele>
        <time>1970-01-01T02:16:46Z</time>
      </trkpt>
      <trkpt lat="40.475297" lon="0.482024">
        <ele>1.311</ele>
        <time>1970-01-01T02:16:47Z</time>
      </trkpt>
      <trkpt lat="40.475262" lon="0.482091">
        <ele>1.608</ele>
        <time>1970-01-01T02:16:48Z</time>
      </trkpt>
      <trkpt lat="40.475226" lon="0.482157">
        <ele>2.020</ele>
        <time>1970-01-01T02:16:49Z</time>
      </trkpt>
      <trkpt lat="40.475190" lon="0.482223">
        <ele>2.397</ele>
        <time>1970-01-01T02:16:50Z</time>
      </trkpt>
      <trkpt lat="40.475151" lon="0.482285">
        <ele>2.558</ele>
        <time>1970-01-01T02:16:51Z</time>
      </trkpt>
      <trkpt lat="40.475111" lon="0.482341">
        <ele>2.611</ele>
        <time>1970-01-01T02:16:52Z</time>
      </trkpt>
      <trkpt lat="40.475066" lon="0.482389">
        <ele>2.821</ele>
        <time>1970-01-01T02:16:53Z</time>
      </trkpt>
      <trkpt lat="40.475016" lon="0.482416">
        <ele>2.957</ele>
        <time>1970-01-01T02:16:54Z</time>
      </trkpt>
      <trkpt lat="40.474964" lon="0.482417">
        <ele>3.111</ele>
        <time>1970-01-01T02:16:55Z</time>
      </trkpt>
      <trkpt lat="40.474919" lon="0.482388">
        <ele>3.342</ele>
        <time>1970-01-01T02:16:56Z</time>
      </trkpt>
      <trkpt lat="40.474881" lon="0.482341">
        <ele>3.451</ele>
        <time>1970-01-01T02:16:57Z</time>
      </trkpt>
      <trkpt lat="40.474845" lon="0.482285">
        <ele>3.601</ele>
        <time>1970-01-01T02:16:58Z</time>
      </trkpt>
      <trkpt lat="40.474808" lon="0.482226">
        <ele>3.711</ele>
        <time>1970-01-01T02:16:59Z</time>
      </trkpt>
      <trkpt lat="40.474768" lon="0.482171">
        <ele>3.708</ele>
        <time>1970-01-01T02:17:00Z</time>
      </trkpt>
      <trkpt lat="40.474728" lon="0.482121">
        <ele>3.642</ele>
        <time>1970-01-01T02:17:01Z</time>
      </trkpt>
      <trkpt lat="40.474689" lon="0.482074">
        <ele>3.579</ele>
        <time>1970-01-01T02:17:02Z</time>
      </trkpt>
      <trkpt lat="40.474651" lon="0.482030">
        <ele>3.570</ele>
        <time>1970-01-01T02:17:03Z</time>
      </trkpt>
      <trkpt lat="40.474614" lon="0.481988">
        <ele>3.593</ele>
        <time>1970-01-01T02:17:04Z</time>
      </trkpt>
      <trkpt lat="40.474577" lon="0.481948">
        <ele>3.543</ele>
        <time>1970-01-01T02:17:05Z</time>
      </trkpt>
      <trkpt lat="40.474538" lon="0.481913">
        <ele>3.539</ele>
        <time>1970-01-01T02:17:06Z</time>
      </trkpt>
      <trkpt lat="40.474499" lon="0.481878">
        <ele>3.663</ele>
        <time>1970-01-01T02:17:07Z</time>
      </trkpt>
      <trkpt lat="40.474460" lon="0.481840">
        <ele>3.654</ele>
        <time>1970-01-01T02:17:08Z</time>
      </trkpt>
      <trkpt lat="40.474423" lon="0.481798">
        <ele>3.586</ele>
        <time>1970-01-01T02:17:09Z</time>
      </trkpt>
      <trkpt lat="40.474387" lon="0.481755">
        <ele>3.560</ele>
        <time>1970-01-01T02:17:10Z</time>
      </trkpt>
      <trkpt lat="40.474345" lon="0.481714">
        <ele>3.526</ele>
        <time>1970-01-01T02:17:11Z</time>
      </trkpt>
      <trkpt lat="40.474302" lon="0.481670">
        <ele>3.508</ele>
        <time>1970-01-01T02:17:12Z</time>
      </trkpt>
      <trkpt lat="40.474261" lon="0.481624">
        <ele>3.585</ele>
        <time>1970-01-01T02:17:13Z</time>
      </trkpt>
      <trkpt lat="40.474219" lon="0.481581">
        <ele>3.392</ele>
        <time>1970-01-01T02:17:14Z</time>
      </trkpt>
      <trkpt lat="40.474177" lon="0.481538">
        <ele>3.113</ele>
        <time>1970-01-01T02:17:15Z</time>
      </trkpt>
      <trkpt lat="40.474136" lon="0.481493">
        <ele>3.066</ele>
        <time>1970-01-01T02:17:16Z</time>
      </trkpt>
      <trkpt lat="40.474095" lon="0.481450">
        <ele>3.076</ele>
        <time>1970-01-01T02:17:17Z</time>
      </trkpt>
      <trkpt lat="40.474055" lon="0.481407">
        <ele>3.052</ele>
        <time>1970-01-01T02:17:18Z</time>
      </trkpt>
      <trkpt lat="40.474016" lon="0.481364">
        <ele>3.036</ele>
        <time>1970-01-01T02:17:19Z</time>
      </trkpt>
      <trkpt lat="40.473977" lon="0.481321">
        <ele>3.157</ele>
        <time>1970-01-01T02:17:20Z</time>
      </trkpt>
      <trkpt lat="40.473939" lon="0.481280">
        <ele>3.288</ele>
        <time>1970-01-01T02:17:21Z</time>
      </trkpt>
      <trkpt lat="40.473901" lon="0.481234">
        <ele>3.424</ele>
        <time>1970-01-01T02:17:22Z</time>
      </trkpt>
      <trkpt lat="40.473861" lon="0.481188">
        <ele>3.526</ele>
        <time>1970-01-01T02:17:23Z</time>
      </trkpt>
      <trkpt lat="40.473819" lon="0.481145">
        <ele>3.708</ele>
        <time>1970-01-01T02:17:24Z</time>
      </trkpt>
      <trkpt lat="40.473777" lon="0.481102">
        <ele>3.855</ele>
        <time>1970-01-01T02:17:25Z</time>
      </trkpt>
      <trkpt lat="40.473733" lon="0.481058">
        <ele>4.172</ele>
        <time>1970-01-01T02:17:26Z</time>
      </trkpt>
      <trkpt lat="40.473689" lon="0.481014">
        <ele>4.493</ele>
        <time>1970-01-01T02:17:27Z</time>
      </trkpt>
      <trkpt lat="40.473647" lon="0.480969">
        <ele>4.736</ele>
        <time>1970-01-01T02:17:28Z</time>
      </trkpt>
      <trkpt lat="40.473604" lon="0.480922">
        <ele>5.146</ele>
        <time>1970-01-01T02:17:29Z</time>
      </trkpt>
      <trkpt lat="40.473561" lon="0.480875">
        <ele>5.492</ele>
        <time>1970-01-01T02:17:30Z</time>
      </trkpt>
      <trkpt lat="40.473518" lon="0.480827">
        <ele>5.756</ele>
        <time>1970-01-01T02:17:31Z</time>
      </trkpt>
      <trkpt lat="40.473475" lon="0.480779">
        <ele>6.067</ele>
        <time>1970-01-01T02:17:32Z</time>
      </trkpt>
      <trkpt lat="40.473433" lon="0.480732">
        <ele>6.356</ele>
        <time>1970-01-01T02:17:33Z</time>
      </trkpt>
      <trkpt lat="40.473391" lon="0.480687">
        <ele>6.659</ele>
        <time>1970-01-01T02:17:34Z</time>
      </trkpt>
      <trkpt lat="40.473350" lon="0.480641">
        <ele>6.914</ele>
        <time>1970-01-01T02:17:35Z</time>
      </trkpt>
      <trkpt lat="40.473310" lon="0.480595">
        <ele>7.108</ele>
        <time>1970-01-01T02:17:36Z</time>
      </trkpt>
      <trkpt lat="40.473270" lon="0.480552">
        <ele>7.232</ele>
        <time>1970-01-01T02:17:37Z</time>
      </trkpt>
      <trkpt lat="40.473229" lon="0.480510">
        <ele>7.429</ele>
        <time>1970-01-01T02:17:38Z</time>
      </trkpt>
      <trkpt lat="40.473189" lon="0.480471">
        <ele>7.530</ele>
        <time>1970-01-01T02:17:39Z</time>
      </trkpt>
      <trkpt lat="40.473150" lon="0.480431">
        <ele>7.773</ele>
        <time>1970-01-01T02:17:40Z</time>
      </trkpt>
      <trkpt lat="40.473113" lon="0.480390">
        <ele>7.833</ele>
        <time>1970-01-01T02:17:41Z</time>
      </trkpt>
      <trkpt lat="40.473077" lon="0.480349">
        <ele>7.939</ele>
        <time>1970-01-01T02:17:42Z</time>
      </trkpt>
      <trkpt lat="40.473042" lon="0.480307">
        <ele>8.073</ele>
        <time>1970-01-01T02:17:43Z</time>
      </trkpt>
      <trkpt lat="40.473008" lon="0.480264">
        <ele>7.914</ele>
        <time>1970-01-01T02:17:44Z</time>
      </trkpt>
      <trkpt lat="40.472977" lon="0.480220">
        <ele>7.973</ele>
        <time>1970-01-01T02:17:45Z</time>
      </trkpt>
      <trkpt lat="40.472945" lon="0.480177">
        <ele>8.085</ele>
        <time>1970-01-01T02:17:46Z</time>
      </trkpt>
      <trkpt lat="40.472910" lon="0.480138">
        <ele>8.013</ele>
        <time>1970-01-01T02:17:47Z</time>
      </trkpt>
      <trkpt lat="40.472872" lon="0.480101">
        <ele>8.008</ele>
        <time>1970-01-01T02:17:48Z</time>
      </trkpt>
      <trkpt lat="40.472834" lon="0.480066">
        <ele>8.014</ele>
        <time>1970-01-01T02:17:49Z</time>
      </trkpt>
      <trkpt lat="40.472795" lon="0.480035">
        <ele>7.921</ele>
        <time>1970-01-01T02:17:50Z</time>
      </trkpt>
      <trkpt lat="40.472755" lon="0.480012">
        <ele>7.792</ele>
        <time>1970-01-01T02:17:51Z</time>
      </trkpt>
      <trkpt lat="40.472717" lon="0.479994">
        <ele>7.485</ele>
        <time>1970-01-01T02:17:52Z</time>
      </trkpt>
      <trkpt lat="40.472679" lon="0.479974">
        <ele>7.145</ele>
        <time>1970-01-01T02:17:53Z</time>
      </trkpt>
      <trkpt lat="40.472643" lon="0.479949">
        <ele>6.931</ele>
        <time>1970-01-01T02:17:54Z</time>
      </trkpt>
      <trkpt lat="40.472606" lon="0.479922">
        <ele>6.835</ele>
        <time>1970-01-01T02:17:55Z</time>
      </trkpt>
      <trkpt lat="40.472569" lon="0.479892">
        <ele>6.786</ele>
        <time>1970-01-01T02:17:56Z</time>
      </trkpt>
      <trkpt lat="40.472530" lon="0.479862">
        <ele>6.713</ele>
        <time>1970-01-01T02:17:57Z</time>
      </trkpt>
      <trkpt lat="40.472489" lon="0.479835">
        <ele>6.943</ele>
        <time>1970-01-01T02:17:58Z</time>
      </trkpt>
      <trkpt lat="40.472449" lon="0.479804">
        <ele>7.407</ele>
        <time>1970-01-01T02:17:59Z</time>
      </trkpt>
      <trkpt lat="40.472409" lon="0.479773">
        <ele>7.908</ele>
        <time>1970-01-01T02:18:00Z</time>
      </trkpt>
      <trkpt lat="40.472365" lon="0.479744">
        <ele>8.378</ele>
        <time>1970-01-01T02:18:01Z</time>
      </trkpt>
      <trkpt lat="40.472322" lon="0.479720">
        <ele>8.735</ele>
        <time>1970-01-01T02:18:02Z</time>
      </trkpt>
      <trkpt lat="40.472280" lon="0.479689">
        <ele>9.026</ele>
        <time>1970-01-01T02:18:03Z</time>
      </trkpt>
      <trkpt lat="40.472236" lon="0.479658">
        <ele>9.439</ele>
        <time>1970-01-01T02:18:04Z</time>
      </trkpt>
      <trkpt lat="40.472194" lon="0.479628">
        <ele>9.989</ele>
        <time>1970-01-01T02:18:05Z</time>
      </trkpt>
      <trkpt lat="40.472153" lon="0.479595">
        <ele>10.585</ele>
        <time>1970-01-01T02:18:06Z</time>
      </trkpt>
      <trkpt lat="40.472113" lon="0.479563">
        <ele>11.279</ele>
        <time>1970-01-01T02:18:07Z</time>
      </trkpt>
      <trkpt lat="40.472070" lon="0.479537">
        <ele>11.880</ele>
        <time>1970-01-01T02:18:08Z</time>
      </trkpt>
      <trkpt lat="40.472029" lon="0.479515">
        <ele>12.433</ele>
        <time>1970-01-01T02:18:09Z</time>
      </trkpt>
      <trkpt lat="40.471988" lon="0.479493">
        <ele>13.023</ele>
        <time>1970-01-01T02:18:10Z</time>
      </trkpt>
      <trkpt lat="40.471952" lon="0.479465">
        <ele>13.715</ele>
        <time>1970-01-01T02:18:11Z</time>
      </trkpt>
      <trkpt lat="40.471914" lon="0.479435">
        <ele>13.908</ele>
        <time>1970-01-01T02:18:12Z</time>
      </trkpt>
      <trkpt lat="40.471873" lon="0.479410">
        <ele>13.780</ele>
        <time>1970-01-01T02:18:13Z</time>
      </trkpt>
      <trkpt lat="40.471841" lon="0.479372">
        <ele>13.417</ele>
        <time>1970-01-01T02:18:14Z</time>
      </trkpt>
      <trkpt lat="40.471805" lon="0.479341">
        <ele>13.338</ele>
        <time>1970-01-01T02:18:15Z</time>
      </trkpt>
      <trkpt lat="40.471768" lon="0.479310">
        <ele>13.221</ele>
        <time>1970-01-01T02:18:16Z</time>
      </trkpt>
      <trkpt lat="40.471730" lon="0.479286">
        <ele>13.291</ele>
        <time>1970-01-01T02:18:17Z</time>
      </trkpt>
      <trkpt lat="40.471692" lon="0.479254">
        <ele>13.217</ele>
        <time>1970-01-01T02:18:18Z</time>
      </trkpt>
      <trkpt lat="40.471653" lon="0.479218">
        <ele>13.351</ele>
        <time>1970-01-01T02:18:19Z</time>
      </trkpt>
      <trkpt lat="40.471614" lon="0.479184">
        <ele>13.442</ele>
        <time>1970-01-01T02:18:20Z</time>
      </trkpt>
      <trkpt lat="40.471573" lon="0.479156">
        <ele>13.652</ele>
        <time>1970-01-01T02:18:21Z</time>
      </trkpt>
      <trkpt lat="40.471532" lon="0.479127">
        <ele>14.053</ele>
        <time>1970-01-01T02:18:22Z</time>
      </trkpt>
      <trkpt lat="40.471490" lon="0.479098">
        <ele>14.408</ele>
        <time>1970-01-01T02:18:23Z</time>
      </trkpt>
      <trkpt lat="40.471448" lon="0.479075">
        <ele>15.008</ele>
        <time>1970-01-01T02:18:24Z</time>
      </trkpt>
      <trkpt lat="40.471408" lon="0.479047">
        <ele>15.612</ele>
        <time>1970-01-01T02:18:25Z</time>
      </trkpt>
      <trkpt lat="40.471371" lon="0.479022">
        <ele>16.149</ele>
        <time>1970-01-01T02:18:26Z</time>
      </trkpt>
      <trkpt lat="40.471329" lon="0.478999">
        <ele>16.590</ele>
        <time>1970-01-01T02:18:27Z</time>
      </trkpt>
      <trkpt lat="40.471291" lon="0.478971">
        <ele>16.793</ele>
        <time>1970-01-01T02:18:28Z</time>
      </trkpt>
      <trkpt lat="40.471254" lon="0.478939">
        <ele>16.913</ele>
        <time>1970-01-01T02:18:29Z</time>
      </trkpt>
      <trkpt lat="40.471217" lon="0.478913">
        <ele>17.029</ele>
        <time>1970-01-01T02:18:30Z</time>
      </trkpt>
      <trkpt lat="40.471178" lon="0.478887">
        <ele>17.083</ele>
        <time>1970-01-01T02:18:31Z</time>
      </trkpt>
      <trkpt lat="40.471140" lon="0.478857">
        <ele>16.624</ele>
        <time>1970-01-01T02:18:32Z</time>
      </trkpt>
      <trkpt lat="40.471099" lon="0.478829">
        <ele>15.947</ele>
        <time>1970-01-01T02:18:33Z</time>
      </trkpt>
      <trkpt lat="40.471062" lon="0.478788">
        <ele>14.729</ele>
        <time>1970-01-01T02:18:34Z</time>
      </trkpt>
      <trkpt lat="40.471022" lon="0.478755">
        <ele>13.621</ele>
        <time>1970-01-01T02:18:35Z</time>
      </trkpt>
      <trkpt lat="40.470983" lon="0.478716">
        <ele>12.608</ele>
        <time>1970-01-01T02:18:36Z</time>
      </trkpt>
      <trkpt lat="40.470942" lon="0.478681">
        <ele>11.771</ele>
        <time>1970-01-01T02:18:37Z</time>
      </trkpt>
      <trkpt lat="40.470902" lon="0.478649">
        <ele>11.018</ele>
        <time>1970-01-01T02:18:38Z</time>
      </trkpt>
      <trkpt lat="40.470860" lon="0.478617">
        <ele>10.339</ele>
        <time>1970-01-01T02:18:39Z</time>
      </trkpt>
      <trkpt lat="40.470818" lon="0.478586">
        <ele>9.572</ele>
        <time>1970-01-01T02:18:40Z</time>
      </trkpt>
      <trkpt lat="40.470778" lon="0.478548">
        <ele>8.642</ele>
        <time>1970-01-01T02:18:41Z</time>
      </trkpt>
      <trkpt lat="40.470737" lon="0.478513">
        <ele>7.838</ele>
        <time>1970-01-01T02:18:42Z</time>
      </trkpt>
      <trkpt lat="40.470700" lon="0.478470">
        <ele>7.082</ele>
        <time>1970-01-01T02:18:43Z</time>
      </trkpt>
      <trkpt lat="40.470668" lon="0.478423">
        <ele>6.433</ele>
        <time>1970-01-01T02:18:44Z</time>
      </trkpt>
      <trkpt lat="40.470641" lon="0.478371">
        <ele>5.896</ele>
        <time>1970-01-01T02:18:45Z</time>
      </trkpt>
      <trkpt lat="40.470614" lon="0.478326">
        <ele>5.431</ele>
        <time>1970-01-01T02:18:46Z</time>
      </trkpt>
      <trkpt lat="40.470593" lon="0.478279">
        <ele>5.224</ele>
        <time>1970-01-01T02:18:47Z</time>
      </trkpt>
      <trkpt lat="40.470566" lon="0.478232">
        <ele>5.108</ele>
        <time>1970-01-01T02:18:48Z</time>
      </trkpt>
      <trkpt lat="40.470541" lon="0.478184">
        <ele>4.936</ele>
        <time>1970-01-01T02:18:49Z</time>
      </trkpt>
      <trkpt lat="40.470518" lon="0.478137">
        <ele>4.863</ele>
        <time>1970-01-01T02:18:50Z</time>
      </trkpt>
      <trkpt lat="40.470494" lon="0.478090">
        <ele>4.884</ele>
        <time>1970-01-01T02:18:51Z</time>
      </trkpt>
      <trkpt lat="40.470467" lon="0.478045">
        <ele>4.717</ele>
        <time>1970-01-01T02:18:52Z</time>
      </trkpt>
      <trkpt lat="40.470437" lon="0.478010">
        <ele>4.857</ele>
        <time>1970-01-01T02:18:53Z</time>
      </trkpt>
      <trkpt lat="40.470402" lon="0.477984">
        <ele>4.843</ele>
        <time>1970-01-01T02:18:54Z</time>
      </trkpt>
      <trkpt lat="40.470358" lon="0.477972">
        <ele>4.837</ele>
        <time>1970-01-01T02:18:55Z</time>
      </trkpt>
      <trkpt lat="40.470317" lon="0.477962">
        <ele>4.828</ele>
        <time>1970-01-01T02:18:56Z</time>
      </trkpt>
      <trkpt lat="40.470278" lon="0.477952">
        <ele>4.768</ele>
        <time>1970-01-01T02:18:57Z</time>
      </trkpt>
      <trkpt lat="40.470237" lon="0.477939">
        <ele>4.842</ele>
        <time>1970-01-01T02:18:58Z</time>
      </trkpt>
      <trkpt lat="40.470197" lon="0.477920">
        <ele>5.026</ele>
        <time>1970-01-01T02:18:59Z</time>
      </trkpt>
      <trkpt lat="40.470156" lon="0.477893">
        <ele>5.208</ele>
        <time>1970-01-01T02:19:00Z</time>
      </trkpt>
      <trkpt lat="40.470115" lon="0.477861">
        <ele>5.443</ele>
        <time>1970-01-01T02:19:01Z</time>
      </trkpt>
      <trkpt lat="40.470073" lon="0.477825">
        <ele>5.720</ele>
        <time>1970-01-01T02:19:02Z</time>
      </trkpt>
      <trkpt lat="40.470031" lon="0.477788">
        <ele>5.921</ele>
        <time>1970-01-01T02:19:03Z</time>
      </trkpt>
      <trkpt lat="40.469987" lon="0.477755">
        <ele>6.244</ele>
        <time>1970-01-01T02:19:04Z</time>
      </trkpt>
      <trkpt lat="40.469942" lon="0.477723">
        <ele>6.614</ele>
        <time>1970-01-01T02:19:05Z</time>
      </trkpt>
      <trkpt lat="40.469894" lon="0.477689">
        <ele>7.090</ele>
        <time>1970-01-01T02:19:06Z</time>
      </trkpt>
      <trkpt lat="40.469850" lon="0.477654">
        <ele>7.384</ele>
        <time>1970-01-01T02:19:07Z</time>
      </trkpt>
      <trkpt lat="40.469807" lon="0.477619">
        <ele>7.745</ele>
        <time>1970-01-01T02:19:08Z</time>
      </trkpt>
      <trkpt lat="40.469762" lon="0.477585">
        <ele>8.133</ele>
        <time>1970-01-01T02:19:09Z</time>
      </trkpt>
      <trkpt lat="40.469716" lon="0.477551">
        <ele>8.523</ele>
        <time>1970-01-01T02:19:10Z</time>
      </trkpt>
      <trkpt lat="40.469667" lon="0.477523">
        <ele>8.915</ele>
        <time>1970-01-01T02:19:11Z</time>
      </trkpt>
      <trkpt lat="40.469619" lon="0.477490">
        <ele>9.408</ele>
        <time>1970-01-01T02:19:12Z</time>
      </trkpt>
      <trkpt lat="40.469572" lon="0.477457">
        <ele>9.780</ele>
        <time>1970-01-01T02:19:13Z</time>
      </trkpt>
      <trkpt lat="40.469528" lon="0.477422">
        <ele>10.047</ele>
        <time>1970-01-01T02:19:14Z</time>
      </trkpt>
      <trkpt lat="40.469484" lon="0.477388">
        <ele>10.388</ele>
        <time>1970-01-01T02:19:15Z</time>
      </trkpt>
      <trkpt lat="40.469441" lon="0.477354">
        <ele>10.541</ele>
        <time>1970-01-01T02:19:16Z</time>
      </trkpt>
      <trkpt lat="40.469396" lon="0.477323">
        <ele>10.661</ele>
        <time>1970-01-01T02:19:17Z</time>
      </trkpt>
      <trkpt lat="40.469352" lon="0.477293">
        <ele>10.617</ele>
        <time>1970-01-01T02:19:18Z</time>
      </trkpt>
      <trkpt lat="40.469303" lon="0.477266">
        <ele>10.571</ele>
        <time>1970-01-01T02:19:19Z</time>
      </trkpt>
      <trkpt lat="40.469255" lon="0.477242">
        <ele>10.352</ele>
        <time>1970-01-01T02:19:20Z</time>
      </trkpt>
      <trkpt lat="40.469206" lon="0.477220">
        <ele>10.175</ele>
        <time>1970-01-01T02:19:21Z</time>
      </trkpt>
      <trkpt lat="40.469158" lon="0.477202">
        <ele>9.828</ele>
        <time>1970-01-01T02:19:22Z</time>
      </trkpt>
      <trkpt lat="40.469112" lon="0.477187">
        <ele>9.620</ele>
        <time>1970-01-01T02:19:23Z</time>
      </trkpt>
      <trkpt lat="40.469067" lon="0.477175">
        <ele>9.408</ele>
        <time>1970-01-01T02:19:24Z</time>
      </trkpt>
      <trkpt lat="40.469026" lon="0.477152">
        <ele>9.174</ele>
        <time>1970-01-01T02:19:25Z</time>
      </trkpt>
      <trkpt lat="40.468989" lon="0.477124">
        <ele>8.951</ele>
        <time>1970-01-01T02:19:26Z</time>
      </trkpt>
      <trkpt lat="40.468951" lon="0.477096">
        <ele>8.772</ele>
        <time>1970-01-01T02:19:27Z</time>
      </trkpt>
      <trkpt lat="40.468915" lon="0.477071">
        <ele>8.545</ele>
        <time>1970-01-01T02:19:28Z</time>
      </trkpt>
      <trkpt lat="40.468875" lon="0.477053">
        <ele>8.495</ele>
        <time>1970-01-01T02:19:29Z</time>
      </trkpt>
      <trkpt lat="40.468830" lon="0.477043">
        <ele>8.271</ele>
        <time>1970-01-01T02:19:30Z</time>
      </trkpt>
      <trkpt lat="40.468787" lon="0.477038">
        <ele>8.135</ele>
        <time>1970-01-01T02:19:31Z</time>
      </trkpt>
      <trkpt lat="40.468743" lon="0.477034">
        <ele>8.056</ele>
        <time>1970-01-01T02:19:32Z</time>
      </trkpt>
      <trkpt lat="40.468695" lon="0.477028">
        <ele>7.943</ele>
        <time>1970-01-01T02:19:33Z</time>
      </trkpt>
      <trkpt lat="40.468648" lon="0.477014">
        <ele>7.864</ele>
        <time>1970-01-01T02:19:34Z</time>
      </trkpt>
      <trkpt lat="40.468604" lon="0.476990">
        <ele>7.810</ele>
        <time>1970-01-01T02:19:35Z</time>
      </trkpt>
      <trkpt lat="40.468559" lon="0.476965">
        <ele>7.708</ele>
        <time>1970-01-01T02:19:36Z</time>
      </trkpt>
      <trkpt lat="40.468514" lon="0.476938">
        <ele>7.741</ele>
        <time>1970-01-01T02:19:37Z</time>
      </trkpt>
      <trkpt lat="40.468475" lon="0.476910">
        <ele>7.728</ele>
        <time>1970-01-01T02:19:38Z</time>
      </trkpt>
      <trkpt lat="40.468442" lon="0.476881">
        <ele>7.819</ele>
        <time>1970-01-01T02:19:39Z</time>
      </trkpt>
      <trkpt lat="40.468414" lon="0.476861">
        <ele>7.852</ele>
        <time>1970-01-01T02:19:40Z</time>
      </trkpt>
      <trkpt lat="40.468387" lon="0.476851">
        <ele>7.822</ele>
        <time>1970-01-01T02:19:41Z</time>
      </trkpt>
      <trkpt lat="40.468358" lon="0.476837">
        <ele>7.868</ele>
        <time>1970-01-01T02:19:42Z</time>
      </trkpt>
      <trkpt lat="40.468327" lon="0.476817">
        <ele>7.962</ele>
        <time>1970-01-01T02:19:43Z</time>
      </trkpt>
      <trkpt lat="40.468295" lon="0.476800">
        <ele>8.073</ele>
        <time>1970-01-01T02:19:44Z</time>
      </trkpt>
      <trkpt lat="40.468258" lon="0.476779">
        <ele>8.194</ele>
        <time>1970-01-01T02:19:45Z</time>
      </trkpt>
      <trkpt lat="40.468218" lon="0.476752">
        <ele>8.357</ele>
        <time>1970-01-01T02:19:46Z</time>
      </trkpt>
      <trkpt lat="40.468174" lon="0.476722">
        <ele>8.522</ele>
        <time>1970-01-01T02:19:47Z</time>
      </trkpt>
      <trkpt lat="40.468131" lon="0.476692">
        <ele>8.808</ele>
        <time>1970-01-01T02:19:48Z</time>
      </trkpt>
      <trkpt lat="40.468084" lon="0.476663">
        <ele>9.066</ele>
        <time>1970-01-01T02:19:49Z</time>
      </trkpt>
      <trkpt lat="40.468038" lon="0.476630">
        <ele>9.363</ele>
        <time>1970-01-01T02:19:50Z</time>
      </trkpt>
      <trkpt lat="40.467995" lon="0.476597">
        <ele>9.764</ele>
        <time>1970-01-01T02:19:51Z</time>
      </trkpt>
      <trkpt lat="40.467954" lon="0.476562">
        <ele>10.017</ele>
        <time>1970-01-01T02:19:52Z</time>
      </trkpt>
      <trkpt lat="40.467910" lon="0.476527">
        <ele>10.347</ele>
        <time>1970-01-01T02:19:53Z</time>
      </trkpt>
      <trkpt lat="40.467866" lon="0.476492">
        <ele>10.593</ele>
        <time>1970-01-01T02:19:54Z</time>
      </trkpt>
      <trkpt lat="40.467822" lon="0.476461">
        <ele>10.727</ele>
        <time>1970-01-01T02:19:55Z</time>
      </trkpt>
      <trkpt lat="40.467781" lon="0.476427">
        <ele>10.938</ele>
        <time>1970-01-01T02:19:56Z</time>
      </trkpt>
      <trkpt lat="40.467734" lon="0.476401">
        <ele>11.174</ele>
        <time>1970-01-01T02:19:57Z</time>
      </trkpt>
      <trkpt lat="40.467687" lon="0.476372">
        <ele>11.456</ele>
        <time>1970-01-01T02:19:58Z</time>
      </trkpt>
      <trkpt lat="40.467639" lon="0.476340">
        <ele>11.821</ele>
        <time>1970-01-01T02:19:59Z</time>
      </trkpt>
      <trkpt lat="40.467595" lon="0.476307">
        <ele>12.108</ele>
        <time>1970-01-01T02:20:00Z</time>
      </trkpt>
      <trkpt lat="40.467554" lon="0.476267">
        <ele>12.374</ele>
        <time>1970-01-01T02:20:01Z</time>
      </trkpt>
      <trkpt lat="40.467511" lon="0.476234">
        <ele>12.511</ele>
        <time>1970-01-01T02:20:02Z</time>
      </trkpt>
      <trkpt lat="40.467469" lon="0.476196">
        <ele>12.882</ele>
        <time>1970-01-01T02:20:03Z</time>
      </trkpt>
      <trkpt lat="40.467425" lon="0.476160">
        <ele>13.125</ele>
        <time>1970-01-01T02:20:04Z</time>
      </trkpt>
      <trkpt lat="40.467380" lon="0.476125">
        <ele>13.425</ele>
        <time>1970-01-01T02:20:05Z</time>
      </trkpt>
      <trkpt lat="40.467334" lon="0.476092">
        <ele>13.521</ele>
        <time>1970-01-01T02:20:06Z</time>
      </trkpt>
      <trkpt lat="40.467285" lon="0.476061">
        <ele>13.555</ele>
        <time>1970-01-01T02:20:07Z</time>
      </trkpt>
      <trkpt lat="40.467235" lon="0.476028">
        <ele>13.426</ele>
        <time>1970-01-01T02:20:08Z</time>
      </trkpt>
      <trkpt lat="40.467189" lon="0.475991">
        <ele>12.716</ele>
        <time>1970-01-01T02:20:09Z</time>
      </trkpt>
      <trkpt lat="40.467145" lon="0.475952">
        <ele>11.976</ele>
        <time>1970-01-01T02:20:10Z</time>
      </trkpt>
      <trkpt lat="40.467100" lon="0.475913">
        <ele>11.113</ele>
        <time>1970-01-01T02:20:11Z</time>
      </trkpt>
      <trkpt lat="40.467056" lon="0.475878">
        <ele>10.408</ele>
        <time>1970-01-01T02:20:12Z</time>
      </trkpt>
      <trkpt lat="40.467013" lon="0.475841">
        <ele>9.878</ele>
        <time>1970-01-01T02:20:13Z</time>
      </trkpt>
      <trkpt lat="40.466961" lon="0.475819">
        <ele>9.035</ele>
        <time>1970-01-01T02:20:14Z</time>
      </trkpt>
      <trkpt lat="40.466912" lon="0.475792">
        <ele>7.856</ele>
        <time>1970-01-01T02:20:15Z</time>
      </trkpt>
      <trkpt lat="40.466860" lon="0.475766">
        <ele>6.459</ele>
        <time>1970-01-01T02:20:16Z</time>
      </trkpt>
      <trkpt lat="40.466814" lon="0.475728">
        <ele>5.199</ele>
        <time>1970-01-01T02:20:17Z</time>
      </trkpt>
      <trkpt lat="40.466775" lon="0.475685">
        <ele>4.125</ele>
        <time>1970-01-01T02:20:18Z</time>
      </trkpt>
      <trkpt lat="40.466735" lon="0.475644">
        <ele>3.219</ele>
        <time>1970-01-01T02:20:19Z</time>
      </trkpt>
      <trkpt lat="40.466703" lon="0.475594">
        <ele>2.660</ele>
        <time>1970-01-01T02:20:20Z</time>
      </trkpt>
      <trkpt lat="40.466689" lon="0.475534">
        <ele>2.451</ele>
        <time>1970-01-01T02:20:21Z</time>
      </trkpt>
      <trkpt lat="40.466693" lon="0.475466">
        <ele>2.701</ele>
        <time>1970-01-01T02:20:22Z</time>
      </trkpt>
      <trkpt lat="40.466712" lon="0.475404">
        <ele>3.211</ele>
        <time>1970-01-01T02:20:23Z</time>
      </trkpt>
      <trkpt lat="40.466738" lon="0.475349">
        <ele>3.808</ele>
        <time>1970-01-01T02:20:24Z</time>
      </trkpt>
      <trkpt lat="40.466768" lon="0.475297">
        <ele>4.492</ele>
        <time>1970-01-01T02:20:25Z</time>
      </trkpt>
      <trkpt lat="40.466797" lon="0.475247">
        <ele>5.239</ele>
        <time>1970-01-01T02:20:26Z</time>
      </trkpt>
      <trkpt lat="40.466826" lon="0.475197">
        <ele>6.070</ele>
        <time>1970-01-01T02:20:27Z</time>
      </trkpt>
      <trkpt lat="40.466854" lon="0.475145">
        <ele>7.083</ele>
        <time>1970-01-01T02:20:28Z</time>
      </trkpt>
      <trkpt lat="40.466881" lon="0.475091">
        <ele>8.063</ele>
        <time>1970-01-01T02:20:29Z</time>
      </trkpt>
      <trkpt lat="40.466903" lon="0.475036">
        <ele>8.919</ele>
        <time>1970-01-01T02:20:30Z</time>
      </trkpt>
      <trkpt lat="40.466918" lon="0.474975">
        <ele>9.753</ele>
        <time>1970-01-01T02:20:31Z</time>
      </trkpt>
      <trkpt lat="40.466918" lon="0.474913">
        <ele>10.254</ele>
        <time>1970-01-01T02:20:32Z</time>
      </trkpt>
      <trkpt lat="40.466898" lon="0.474864">
        <ele>10.213</ele>
        <time>1970-01-01T02:20:33Z</time>
      </trkpt>
      <trkpt lat="40.466860" lon="0.474826">
        <ele>9.943</ele>
        <time>1970-01-01T02:20:34Z</time>
      </trkpt>
      <trkpt lat="40.466820" lon="0.474785">
        <ele>9.707</ele>
        <time>1970-01-01T02:20:35Z</time>
      </trkpt>
      <trkpt lat="40.466785" lon="0.474729">
        <ele>9.608</ele>
        <time>1970-01-01T02:20:36Z</time>
      </trkpt>
      <trkpt lat="40.466753" lon="0.474666">
        <ele>9.528</ele>
        <time>1970-01-01T02:20:37Z</time>
      </trkpt>
      <trkpt lat="40.466723" lon="0.474601">
        <ele>9.525</ele>
        <time>1970-01-01T02:20:38Z</time>
      </trkpt>
      <trkpt lat="40.466692" lon="0.474535">
        <ele>9.656</ele>
        <time>1970-01-01T02:20:39Z</time>
      </trkpt>
      <trkpt lat="40.466661" lon="0.474468">
        <ele>9.799</ele>
        <time>1970-01-01T02:20:40Z</time>
      </trkpt>
      <trkpt lat="40.466630" lon="0.474402">
        <ele>9.359</ele>
        <time>1970-01-01T02:20:41Z</time>
      </trkpt>
      <trkpt lat="40.466600" lon="0.474336">
        <ele>8.875</ele>
        <time>1970-01-01T02:20:42Z</time>
      </trkpt>
      <trkpt lat="40.466571" lon="0.474271">
        <ele>8.399</ele>
        <time>1970-01-01T02:20:43Z</time>
      </trkpt>
      <trkpt lat="40.466536" lon="0.474210">
        <ele>7.630</ele>
        <time>1970-01-01T02:20:44Z</time>
      </trkpt>
      <trkpt lat="40.466498" lon="0.474152">
        <ele>6.944</ele>
        <time>1970-01-01T02:20:45Z</time>
      </trkpt>
      <trkpt lat="40.466458" lon="0.474097">
        <ele>6.005</ele>
        <time>1970-01-01T02:20:46Z</time>
      </trkpt>
      <trkpt lat="40.466416" lon="0.474044">
        <ele>5.015</ele>
        <time>1970-01-01T02:20:47Z</time>
      </trkpt>
      <trkpt lat="40.466376" lon="0.473993">
        <ele>4.308</ele>
        <time>1970-01-01T02:20:48Z</time>
      </trkpt>
      <trkpt lat="40.466336" lon="0.473944">
        <ele>3.861</ele>
        <time>1970-01-01T02:20:49Z</time>
      </trkpt>
      <trkpt lat="40.466295" lon="0.473896">
        <ele>3.368</ele>
        <time>1970-01-01T02:20:50Z</time>
      </trkpt>
      <trkpt lat="40.466255" lon="0.473847">
        <ele>3.019</ele>
        <time>1970-01-01T02:20:51Z</time>
      </trkpt>
      <trkpt lat="40.466214" lon="0.473796">
        <ele>2.572</ele>
        <time>1970-01-01T02:20:52Z</time>
      </trkpt>
      <trkpt lat="40.466173" lon="0.473742">
        <ele>2.012</ele>
        <time>1970-01-01T02:20:53Z</time>
      </trkpt>
      <trkpt lat="40.466131" lon="0.473689">
        <ele>1.548</ele>
        <time>1970-01-01T02:20:54Z</time>
      </trkpt>
      <trkpt lat="40.466088" lon="0.473639">
        <ele>1.252</ele>
        <time>1970-01-01T02:20:55Z</time>
      </trkpt>
      <trkpt lat="40.466045" lon="0.473587">
        <ele>1.723</ele>
        <time>1970-01-01T02:20:56Z</time>
      </trkpt>
      <trkpt lat="40.466001" lon="0.473536">
        <ele>2.538</ele>
        <time>1970-01-01T02:20:57Z</time>
      </trkpt>
      <trkpt lat="40.465961" lon="0.473484">
        <ele>3.270</ele>
        <time>1970-01-01T02:20:58Z</time>
      </trkpt>
      <trkpt lat="40.465919" lon="0.473434">
        <ele>3.917</ele>
        <time>1970-01-01T02:20:59Z</time>
      </trkpt>
      <trkpt lat="40.465875" lon="0.473387">
        <ele>4.408</ele>
        <time>1970-01-01T02:21:00Z</time>
      </trkpt>
      <trkpt lat="40.465832" lon="0.473337">
        <ele>5.070</ele>
        <time>1970-01-01T02:21:01Z</time>
      </trkpt>
      <trkpt lat="40.465791" lon="0.473286">
        <ele>5.227</ele>
        <time>1970-01-01T02:21:02Z</time>
      </trkpt>
      <trkpt lat="40.465750" lon="0.473236">
        <ele>5.378</ele>
        <time>1970-01-01T02:21:03Z</time>
      </trkpt>
      <trkpt lat="40.465705" lon="0.473188">
        <ele>5.331</ele>
        <time>1970-01-01T02:21:04Z</time>
      </trkpt>
      <trkpt lat="40.465662" lon="0.473140">
        <ele>5.341</ele>
        <time>1970-01-01T02:21:05Z</time>
      </trkpt>
      <trkpt lat="40.465619" lon="0.473092">
        <ele>5.357</ele>
        <time>1970-01-01T02:21:06Z</time>
      </trkpt>
      <trkpt lat="40.465580" lon="0.473043">
        <ele>5.281</ele>
        <time>1970-01-01T02:21:07Z</time>
      </trkpt>
      <trkpt lat="40.465540" lon="0.472992">
        <ele>5.162</ele>
        <time>1970-01-01T02:21:08Z</time>
      </trkpt>
      <trkpt lat="40.465499" lon="0.472941">
        <ele>5.125</ele>
        <time>1970-01-01T02:21:09Z</time>
      </trkpt>
      <trkpt lat="40.465457" lon="0.472891">
        <ele>5.126</ele>
        <time>1970-01-01T02:21:10Z</time>
      </trkpt>
      <trkpt lat="40.465417" lon="0.472844">
        <ele>5.108</ele>
        <time>1970-01-01T02:21:11Z</time>
      </trkpt>
      <trkpt lat="40.465379" lon="0.472793">
        <ele>5.308</ele>
        <time>1970-01-01T02:21:12Z</time>
      </trkpt>
      <trkpt lat="40.465345" lon="0.472741">
        <ele>5.459</ele>
        <time>1970-01-01T02:21:13Z</time>
      </trkpt>
      <trkpt lat="40.465308" lon="0.472691">
        <ele>5.566</ele>
        <time>1970-01-01T02:21:14Z</time>
      </trkpt>
      <trkpt lat="40.465273" lon="0.472640">
        <ele>5.517</ele>
        <time>1970-01-01T02:21:15Z</time>
      </trkpt>
      <trkpt lat="40.465232" lon="0.472591">
        <ele>5.730</ele>
        <time>1970-01-01T02:21:16Z</time>
      </trkpt>
      <trkpt lat="40.465188" lon="0.472544">
        <ele>5.870</ele>
        <time>1970-01-01T02:21:17Z</time>
      </trkpt>
      <trkpt lat="40.465142" lon="0.472498">
        <ele>6.026</ele>
        <time>1970-01-01T02:21:18Z</time>
      </trkpt>
      <trkpt lat="40.465095" lon="0.472456">
        <ele>6.120</ele>
        <time>1970-01-01T02:21:19Z</time>
      </trkpt>
      <trkpt lat="40.465050" lon="0.472414">
        <ele>6.171</ele>
        <time>1970-01-01T02:21:20Z</time>
      </trkpt>
      <trkpt lat="40.465005" lon="0.472371">
        <ele>6.016</ele>
        <time>1970-01-01T02:21:21Z</time>
      </trkpt>
      <trkpt lat="40.464960" lon="0.472332">
        <ele>6.076</ele>
        <time>1970-01-01T02:21:22Z</time>
      </trkpt>
      <trkpt lat="40.464923" lon="0.472296">
        <ele>6.013</ele>
        <time>1970-01-01T02:21:23Z</time>
      </trkpt>
      <trkpt lat="40.464879" lon="0.472262">
        <ele>6.008</ele>
        <time>1970-01-01T02:21:24Z</time>
      </trkpt>
      <trkpt lat="40.464834" lon="0.472226">
        <ele>6.038</ele>
        <time>1970-01-01T02:21:25Z</time>
      </trkpt>
      <trkpt lat="40.464789" lon="0.472192">
        <ele>5.935</ele>
        <time>1970-01-01T02:21:26Z</time>
      </trkpt>
      <trkpt lat="40.464733" lon="0.472172">
        <ele>5.836</ele>
        <time>1970-01-01T02:21:27Z</time>
      </trkpt>
      <trkpt lat="40.464697" lon="0.472138">
        <ele>5.719</ele>
        <time>1970-01-01T02:21:28Z</time>
      </trkpt>
      <trkpt lat="40.464661" lon="0.472103">
        <ele>5.759</ele>
        <time>1970-01-01T02:21:29Z</time>
      </trkpt>
      <trkpt lat="40.464623" lon="0.472075">
        <ele>5.725</ele>
        <time>1970-01-01T02:21:30Z</time>
      </trkpt>
      <trkpt lat="40.464569" lon="0.472065">
        <ele>5.779</ele>
        <time>1970-01-01T02:21:31Z</time>
      </trkpt>
      <trkpt lat="40.464530" lon="0.472038">
        <ele>5.860</ele>
        <time>1970-01-01T02:21:32Z</time>
      </trkpt>
      <trkpt lat="40.464490" lon="0.472014">
        <ele>5.932</ele>
        <time>1970-01-01T02:21:33Z</time>
      </trkpt>
      <trkpt lat="40.464450" lon="0.471981">
        <ele>6.092</ele>
        <time>1970-01-01T02:21:34Z</time>
      </trkpt>
      <trkpt lat="40.464414" lon="0.471941">
        <ele>5.911</ele>
        <time>1970-01-01T02:21:35Z</time>
      </trkpt>
      <trkpt lat="40.464369" lon="0.471913">
        <ele>5.808</ele>
        <time>1970-01-01T02:21:36Z</time>
      </trkpt>
      <trkpt lat="40.464320" lon="0.471890">
        <ele>5.620</ele>
        <time>1970-01-01T02:21:37Z</time>
      </trkpt>
      <trkpt lat="40.464272" lon="0.471865">
        <ele>5.627</ele>
        <time>1970-01-01T02:21:38Z</time>
      </trkpt>
      <trkpt lat="40.464221" lon="0.471844">
        <ele>5.538</ele>
        <time>1970-01-01T02:21:39Z</time>
      </trkpt>
      <trkpt lat="40.464171" lon="0.471820">
        <ele>5.511</ele>
        <time>1970-01-01T02:21:40Z</time>
      </trkpt>
      <trkpt lat="40.464118" lon="0.471796">
        <ele>5.231</ele>
        <time>1970-01-01T02:21:41Z</time>
      </trkpt>
      <trkpt lat="40.464064" lon="0.471766">
        <ele>4.977</ele>
        <time>1970-01-01T02:21:42Z</time>
      </trkpt>
      <trkpt lat="40.464015" lon="0.471729">
        <ele>4.791</ele>
        <time>1970-01-01T02:21:43Z</time>
      </trkpt>
      <trkpt lat="40.463970" lon="0.471688">
        <ele>4.582</ele>
        <time>1970-01-01T02:21:44Z</time>
      </trkpt>
      <trkpt lat="40.463927" lon="0.471640">
        <ele>4.434</ele>
        <time>1970-01-01T02:21:45Z</time>
      </trkpt>
      <trkpt lat="40.463888" lon="0.471587">
        <ele>4.355</ele>
        <time>1970-01-01T02:21:46Z</time>
      </trkpt>
      <trkpt lat="40.463854" lon="0.471529">
        <ele>4.310</ele>
        <time>1970-01-01T02:21:47Z</time>
      </trkpt>
      <trkpt lat="40.463826" lon="0.471467">
        <ele>4.308</ele>
        <time>1970-01-01T02:21:48Z</time>
      </trkpt>
      <trkpt lat="40.463802" lon="0.471397">
        <ele>4.420</ele>
        <time>1970-01-01T02:21:49Z</time>
      </trkpt>
      <trkpt lat="40.463786" lon="0.471323">
        <ele>4.177</ele>
        <time>1970-01-01T02:21:50Z</time>
      </trkpt>
      <trkpt lat="40.463776" lon="0.471250">
        <ele>3.968</ele>
        <time>1970-01-01T02:21:51Z</time>
      </trkpt>
      <trkpt lat="40.463770" lon="0.471175">
        <ele>3.751</ele>
        <time>1970-01-01T02:21:52Z</time>
      </trkpt>
      <trkpt lat="40.463771" lon="0.471104">
        <ele>3.611</ele>
        <time>1970-01-01T02:21:53Z</time>
      </trkpt>
      <trkpt lat="40.463776" lon="0.471042">
        <ele>3.747</ele>
        <time>1970-01-01T02:21:54Z</time>
      </trkpt>
      <trkpt lat="40.463788" lon="0.470981">
        <ele>3.931</ele>
        <time>1970-01-01T02:21:55Z</time>
      </trkpt>
      <trkpt lat="40.463805" lon="0.470922">
        <ele>4.252</ele>
        <time>1970-01-01T02:21:56Z</time>
      </trkpt>
      <trkpt lat="40.463820" lon="0.470863">
        <ele>4.422</ele>
        <time>1970-01-01T02:21:57Z</time>
      </trkpt>
      <trkpt lat="40.463834" lon="0.470799">
        <ele>4.762</ele>
        <time>1970-01-01T02:21:58Z</time>
      </trkpt>
      <trkpt lat="40.463839" lon="0.470736">
        <ele>4.808</ele>
        <time>1970-01-01T02:21:59Z</time>
      </trkpt>
      <trkpt lat="40.463828" lon="0.470674">
        <ele>4.808</ele>
        <time>1970-01-01T02:22:00Z</time>
      </trkpt>
      <trkpt lat="40.463801" lon="0.470619">
        <ele>4.929</ele>
        <time>1970-01-01T02:22:01Z</time>
      </trkpt>
      <trkpt lat="40.463768" lon="0.470563">
        <ele>5.026</ele>
        <time>1970-01-01T02:22:02Z</time>
      </trkpt>
      <trkpt lat="40.463735" lon="0.470504">
        <ele>5.247</ele>
        <time>1970-01-01T02:22:03Z</time>
      </trkpt>
      <trkpt lat="40.463701" lon="0.470441">
        <ele>5.420</ele>
        <time>1970-01-01T02:22:04Z</time>
      </trkpt>
      <trkpt lat="40.463670" lon="0.470374">
        <ele>5.750</ele>
        <time>1970-01-01T02:22:05Z</time>
      </trkpt>
      <trkpt lat="40.463643" lon="0.470303">
        <ele>5.926</ele>
        <time>1970-01-01T02:22:06Z</time>
      </trkpt>
      <trkpt lat="40.463620" lon="0.470228">
        <ele>6.030</ele>
        <time>1970-01-01T02:22:07Z</time>
      </trkpt>
      <trkpt lat="40.463598" lon="0.470151">
        <ele>6.031</ele>
        <time>1970-01-01T02:22:08Z</time>
      </trkpt>
      <trkpt lat="40.463577" lon="0.470074">
        <ele>5.931</ele>
        <time>1970-01-01T02:22:09Z</time>
      </trkpt>
      <trkpt lat="40.463552" lon="0.470000">
        <ele>5.861</ele>
        <time>1970-01-01T02:22:10Z</time>
      </trkpt>
      <trkpt lat="40.463518" lon="0.469930">
        <ele>5.407</ele>
        <time>1970-01-01T02:22:11Z</time>
      </trkpt>
      <trkpt lat="40.463475" lon="0.469872">
        <ele>5.008</ele>
        <time>1970-01-01T02:22:12Z</time>
      </trkpt>
      <trkpt lat="40.463425" lon="0.469824">
        <ele>4.750</ele>
        <time>1970-01-01T02:22:13Z</time>
      </trkpt>
      <trkpt lat="40.463371" lon="0.469788">
        <ele>4.447</ele>
        <time>1970-01-01T02:22:14Z</time>
      </trkpt>
      <trkpt lat="40.463316" lon="0.469760">
        <ele>4.278</ele>
        <time>1970-01-01T02:22:15Z</time>
      </trkpt>
      <trkpt lat="40.463259" lon="0.469742">
        <ele>4.361</ele>
        <time>1970-01-01T02:22:16Z</time>
      </trkpt>
      <trkpt lat="40.463203" lon="0.469731">
        <ele>4.521</ele>
        <time>1970-01-01T02:22:17Z</time>
      </trkpt>
      <trkpt lat="40.463145" lon="0.469722">
        <ele>4.737</ele>
        <time>1970-01-01T02:22:18Z</time>
      </trkpt>
      <trkpt lat="40.463090" lon="0.469712">
        <ele>4.881</ele>
        <time>1970-01-01T02:22:19Z</time>
      </trkpt>
      <trkpt lat="40.463037" lon="0.469701">
        <ele>4.992</ele>
        <time>1970-01-01T02:22:20Z</time>
      </trkpt>
      <trkpt lat="40.462990" lon="0.469680">
        <ele>4.617</ele>
        <time>1970-01-01T02:22:21Z</time>
      </trkpt>
      <trkpt lat="40.462942" lon="0.469657">
        <ele>4.587</ele>
        <time>1970-01-01T02:22:22Z</time>
      </trkpt>
      <trkpt lat="40.462894" lon="0.469636">
        <ele>4.315</ele>
        <time>1970-01-01T02:22:23Z</time>
      </trkpt>
      <trkpt lat="40.462846" lon="0.469610">
        <ele>4.108</ele>
        <time>1970-01-01T02:22:24Z</time>
      </trkpt>
      <trkpt lat="40.462795" lon="0.469586">
        <ele>4.018</ele>
        <time>1970-01-01T02:22:25Z</time>
      </trkpt>
      <trkpt lat="40.462743" lon="0.469560">
        <ele>3.825</ele>
        <time>1970-01-01T02:22:26Z</time>
      </trkpt>
      <trkpt lat="40.462691" lon="0.469535">
        <ele>3.496</ele>
        <time>1970-01-01T02:22:27Z</time>
      </trkpt>
      <trkpt lat="40.462638" lon="0.469509">
        <ele>3.069</ele>
        <time>1970-01-01T02:22:28Z</time>
      </trkpt>
      <trkpt lat="40.462584" lon="0.469486">
        <ele>2.689</ele>
        <time>1970-01-01T02:22:29Z</time>
      </trkpt>
      <trkpt lat="40.462527" lon="0.469463">
        <ele>2.245</ele>
        <time>1970-01-01T02:22:30Z</time>
      </trkpt>
      <trkpt lat="40.462472" lon="0.469436">
        <ele>2.199</ele>
        <time>1970-01-01T02:22:31Z</time>
      </trkpt>
      <trkpt lat="40.462416" lon="0.469409">
        <ele>2.430</ele>
        <time>1970-01-01T02:22:32Z</time>
      </trkpt>
      <trkpt lat="40.462360" lon="0.469380">
        <ele>2.691</ele>
        <time>1970-01-01T02:22:33Z</time>
      </trkpt>
      <trkpt lat="40.462304" lon="0.469351">
        <ele>2.881</ele>
        <time>1970-01-01T02:22:34Z</time>
      </trkpt>
      <trkpt lat="40.462249" lon="0.469316">
        <ele>2.919</ele>
        <time>1970-01-01T02:22:35Z</time>
      </trkpt>
      <trkpt lat="40.462196" lon="0.469274">
        <ele>2.708</ele>
        <time>1970-01-01T02:22:36Z</time>
      </trkpt>
      <trkpt lat="40.462147" lon="0.469223">
        <ele>2.296</ele>
        <time>1970-01-01T02:22:37Z</time>
      </trkpt>
      <trkpt lat="40.462102" lon="0.469169">
        <ele>1.793</ele>
        <time>1970-01-01T02:22:38Z</time>
      </trkpt>
      <trkpt lat="40.462058" lon="0.469111">
        <ele>1.624</ele>
        <time>1970-01-01T02:22:39Z</time>
      </trkpt>
      <trkpt lat="40.462015" lon="0.469049">
        <ele>1.797</ele>
        <time>1970-01-01T02:22:40Z</time>
      </trkpt>
      <trkpt lat="40.461975" lon="0.468984">
        <ele>2.187</ele>
        <time>1970-01-01T02:22:41Z</time>
      </trkpt>
      <trkpt lat="40.461936" lon="0.468918">
        <ele>2.673</ele>
        <time>1970-01-01T02:22:42Z</time>
      </trkpt>
      <trkpt lat="40.461898" lon="0.468852">
        <ele>2.677</ele>
        <time>1970-01-01T02:22:43Z</time>
      </trkpt>
      <trkpt lat="40.461860" lon="0.468786">
        <ele>2.428</ele>
        <time>1970-01-01T02:22:44Z</time>
      </trkpt>
      <trkpt lat="40.461821" lon="0.468721">
        <ele>2.545</ele>
        <time>1970-01-01T02:22:45Z</time>
      </trkpt>
      <trkpt lat="40.461782" lon="0.468656">
        <ele>2.747</ele>
        <time>1970-01-01T02:22:46Z</time>
      </trkpt>
      <trkpt lat="40.461741" lon="0.468594">
        <ele>3.111</ele>
        <time>1970-01-01T02:22:47Z</time>
      </trkpt>
      <trkpt lat="40.461698" lon="0.468534">
        <ele>3.508</ele>
        <time>1970-01-01T02:22:48Z</time>
      </trkpt>
      <trkpt lat="40.461653" lon="0.468476">
        <ele>3.821</ele>
        <time>1970-01-01T02:22:49Z</time>
      </trkpt>
      <trkpt lat="40.461608" lon="0.468419">
        <ele>3.538</ele>
        <time>1970-01-01T02:22:50Z</time>
      </trkpt>
      <trkpt lat="40.461563" lon="0.468363">
        <ele>3.039</ele>
        <time>1970-01-01T02:22:51Z</time>
      </trkpt>
      <trkpt lat="40.461517" lon="0.468308">
        <ele>2.662</ele>
        <time>1970-01-01T02:22:52Z</time>
      </trkpt>
      <trkpt lat="40.461471" lon="0.468254">
        <ele>2.622</ele>
        <time>1970-01-01T02:22:53Z</time>
      </trkpt>
      <trkpt lat="40.461424" lon="0.468203">
        <ele>2.758</ele>
        <time>1970-01-01T02:22:54Z</time>
      </trkpt>
      <trkpt lat="40.461378" lon="0.468153">
        <ele>3.152</ele>
        <time>1970-01-01T02:22:55Z</time>
      </trkpt>
      <trkpt lat="40.461334" lon="0.468102">
        <ele>3.343</ele>
        <time>1970-01-01T02:22:56Z</time>
      </trkpt>
      <trkpt lat="40.461291" lon="0.468049">
        <ele>3.362</ele>
        <time>1970-01-01T02:22:57Z</time>
      </trkpt>
      <trkpt lat="40.461246" lon="0.467995">
        <ele>2.583</ele>
        <time>1970-01-01T02:22:58Z</time>
      </trkpt>
      <trkpt lat="40.461202" lon="0.467941">
        <ele>1.811</ele>
        <time>1970-01-01T02:22:59Z</time>
      </trkpt>
      <trkpt lat="40.461160" lon="0.467886">
        <ele>1.008</ele>
        <time>1970-01-01T02:23:00Z</time>
      </trkpt>
      <trkpt lat="40.461120" lon="0.467828">
        <ele>0.243</ele>
        <time>1970-01-01T02:23:01Z</time>
      </trkpt>
      <trkpt lat="40.461085" lon="0.467766">
        <ele>0.220</ele>
        <time>1970-01-01T02:23:02Z</time>
      </trkpt>
      <trkpt lat="40.461058" lon="0.467699">
        <ele>0.941</ele>
        <time>1970-01-01T02:23:03Z</time>
      </trkpt>
      <trkpt lat="40.461035" lon="0.467629">
        <ele>1.624</ele>
        <time>1970-01-01T02:23:04Z</time>
      </trkpt>
      <trkpt lat="40.461017" lon="0.467558">
        <ele>2.184</ele>
        <time>1970-01-01T02:23:05Z</time>
      </trkpt>
      <trkpt lat="40.460998" lon="0.467487">
        <ele>2.470</ele>
        <time>1970-01-01T02:23:06Z</time>
      </trkpt>
      <trkpt lat="40.460977" lon="0.467418">
        <ele>2.144</ele>
        <time>1970-01-01T02:23:07Z</time>
      </trkpt>
      <trkpt lat="40.460954" lon="0.467349">
        <ele>1.745</ele>
        <time>1970-01-01T02:23:08Z</time>
      </trkpt>
      <trkpt lat="40.460930" lon="0.467280">
        <ele>1.494</ele>
        <time>1970-01-01T02:23:09Z</time>
      </trkpt>
      <trkpt lat="40.460907" lon="0.467209">
        <ele>1.257</ele>
        <time>1970-01-01T02:23:10Z</time>
      </trkpt>
      <trkpt lat="40.460885" lon="0.467138">
        <ele>1.522</ele>
        <time>1970-01-01T02:23:11Z</time>
      </trkpt>
      <trkpt lat="40.460864" lon="0.467068">
        <ele>1.908</ele>
        <time>1970-01-01T02:23:12Z</time>
      </trkpt>
      <trkpt lat="40.460840" lon="0.466998">
        <ele>2.536</ele>
        <time>1970-01-01T02:23:13Z</time>
      </trkpt>
      <trkpt lat="40.460814" lon="0.466928">
        <ele>2.873</ele>
        <time>1970-01-01T02:23:14Z</time>
      </trkpt>
      <trkpt lat="40.460788" lon="0.466859">
        <ele>2.844</ele>
        <time>1970-01-01T02:23:15Z</time>
      </trkpt>
      <trkpt lat="40.460761" lon="0.466789">
        <ele>2.617</ele>
        <time>1970-01-01T02:23:16Z</time>
      </trkpt>
      <trkpt lat="40.460732" lon="0.466722">
        <ele>2.417</ele>
        <time>1970-01-01T02:23:17Z</time>
      </trkpt>
      <trkpt lat="40.460701" lon="0.466660">
        <ele>2.143</ele>
        <time>1970-01-01T02:23:18Z</time>
      </trkpt>
      <trkpt lat="40.460668" lon="0.466600">
        <ele>2.277</ele>
        <time>1970-01-01T02:23:19Z</time>
      </trkpt>
      <trkpt lat="40.460634" lon="0.466541">
        <ele>2.428</ele>
        <time>1970-01-01T02:23:20Z</time>
      </trkpt>
      <trkpt lat="40.460599" lon="0.466482">
        <ele>2.953</ele>
        <time>1970-01-01T02:23:21Z</time>
      </trkpt>
      <trkpt lat="40.460562" lon="0.466425">
        <ele>3.504</ele>
        <time>1970-01-01T02:23:22Z</time>
      </trkpt>
      <trkpt lat="40.460524" lon="0.466369">
        <ele>3.614</ele>
        <time>1970-01-01T02:23:23Z</time>
      </trkpt>
      <trkpt lat="40.460487" lon="0.466316">
        <ele>3.208</ele>
        <time>1970-01-01T02:23:24Z</time>
      </trkpt>
      <trkpt lat="40.460450" lon="0.466262">
        <ele>3.012</ele>
        <time>1970-01-01T02:23:25Z</time>
      </trkpt>
      <trkpt lat="40.460410" lon="0.466211">
        <ele>2.949</ele>
        <time>1970-01-01T02:23:26Z</time>
      </trkpt>
      <trkpt lat="40.460369" lon="0.466161">
        <ele>3.030</ele>
        <time>1970-01-01T02:23:27Z</time>
      </trkpt>
      <trkpt lat="40.460329" lon="0.466110">
        <ele>3.253</ele>
        <time>1970-01-01T02:23:28Z</time>
      </trkpt>
      <trkpt lat="40.460290" lon="0.466056">
        <ele>3.363</ele>
        <time>1970-01-01T02:23:29Z</time>
      </trkpt>
      <trkpt lat="40.460253" lon="0.466001">
        <ele>3.249</ele>
        <time>1970-01-01T02:23:30Z</time>
      </trkpt>
      <trkpt lat="40.460215" lon="0.465947">
        <ele>3.163</ele>
        <time>1970-01-01T02:23:31Z</time>
      </trkpt>
      <trkpt lat="40.460176" lon="0.465892">
        <ele>3.114</ele>
        <time>1970-01-01T02:23:32Z</time>
      </trkpt>
      <trkpt lat="40.460138" lon="0.465836">
        <ele>3.044</ele>
        <time>1970-01-01T02:23:33Z</time>
      </trkpt>
      <trkpt lat="40.460098" lon="0.465781">
        <ele>2.905</ele>
        <time>1970-01-01T02:23:34Z</time>
      </trkpt>
      <trkpt lat="40.460058" lon="0.465728">
        <ele>2.815</ele>
        <time>1970-01-01T02:23:35Z</time>
      </trkpt>
      <trkpt lat="40.460018" lon="0.465675">
        <ele>2.708</ele>
        <time>1970-01-01T02:23:36Z</time>
      </trkpt>
      <trkpt lat="40.459977" lon="0.465622">
        <ele>2.711</ele>
        <time>1970-01-01T02:23:37Z</time>
      </trkpt>
      <trkpt lat="40.459936" lon="0.465569">
        <ele>2.988</ele>
        <time>1970-01-01T02:23:38Z</time>
      </trkpt>
      <trkpt lat="40.459892" lon="0.465520">
        <ele>3.279</ele>
        <time>1970-01-01T02:23:39Z</time>
      </trkpt>
      <trkpt lat="40.459846" lon="0.465472">
        <ele>3.422</ele>
        <time>1970-01-01T02:23:40Z</time>
      </trkpt>
      <trkpt lat="40.459801" lon="0.465425">
        <ele>3.632</ele>
        <time>1970-01-01T02:23:41Z</time>
      </trkpt>
      <trkpt lat="40.459756" lon="0.465377">
        <ele>3.778</ele>
        <time>1970-01-01T02:23:42Z</time>
      </trkpt>
      <trkpt lat="40.459709" lon="0.465329">
        <ele>3.812</ele>
        <time>1970-01-01T02:23:43Z</time>
      </trkpt>
      <trkpt lat="40.459662" lon="0.465286">
        <ele>4.043</ele>
        <time>1970-01-01T02:23:44Z</time>
      </trkpt>
      <trkpt lat="40.459612" lon="0.465244">
        <ele>4.156</ele>
        <time>1970-01-01T02:23:45Z</time>
      </trkpt>
      <trkpt lat="40.459561" lon="0.465201">
        <ele>4.159</ele>
        <time>1970-01-01T02:23:46Z</time>
      </trkpt>
      <trkpt lat="40.459510" lon="0.465160">
        <ele>4.114</ele>
        <time>1970-01-01T02:23:47Z</time>
      </trkpt>
      <trkpt lat="40.459459" lon="0.465119">
        <ele>4.008</ele>
        <time>1970-01-01T02:23:48Z</time>
      </trkpt>
      <trkpt lat="40.459407" lon="0.465080">
        <ele>4.062</ele>
        <time>1970-01-01T02:23:49Z</time>
      </trkpt>
      <trkpt lat="40.459355" lon="0.465041">
        <ele>4.039</ele>
        <time>1970-01-01T02:23:50Z</time>
      </trkpt>
      <trkpt lat="40.459301" lon="0.465002">
        <ele>4.040</ele>
        <time>1970-01-01T02:23:51Z</time>
      </trkpt>
      <trkpt lat="40.459248" lon="0.464963">
        <ele>4.073</ele>
        <time>1970-01-01T02:23:52Z</time>
      </trkpt>
      <trkpt lat="40.459194" lon="0.464925">
        <ele>4.043</ele>
        <time>1970-01-01T02:23:53Z</time>
      </trkpt>
      <trkpt lat="40.459141" lon="0.464887">
        <ele>4.089</ele>
        <time>1970-01-01T02:23:54Z</time>
      </trkpt>
      <trkpt lat="40.459087" lon="0.464850">
        <ele>4.083</ele>
        <time>1970-01-01T02:23:55Z</time>
      </trkpt>
      <trkpt lat="40.459034" lon="0.464813">
        <ele>4.034</ele>
        <time>1970-01-01T02:23:56Z</time>
      </trkpt>
      <trkpt lat="40.458982" lon="0.464776">
        <ele>4.043</ele>
        <time>1970-01-01T02:23:57Z</time>
      </trkpt>
      <trkpt lat="40.458931" lon="0.464740">
        <ele>4.064</ele>
        <time>1970-01-01T02:23:58Z</time>
      </trkpt>
      <trkpt lat="40.458880" lon="0.464704">
        <ele>4.110</ele>
        <time>1970-01-01T02:23:59Z</time>
      </trkpt>
      <trkpt lat="40.458830" lon="0.464668">
        <ele>4.208</ele>
        <time>1970-01-01T02:24:00Z</time>
      </trkpt>
      <trkpt lat="40.458778" lon="0.464632">
        <ele>4.591</ele>
        <time>1970-01-01T02:24:01Z</time>
      </trkpt>
      <trkpt lat="40.458729" lon="0.464598">
        <ele>4.718</ele>
        <time>1970-01-01T02:24:02Z</time>
      </trkpt>
      <trkpt lat="40.458680" lon="0.464565">
        <ele>5.059</ele>
        <time>1970-01-01T02:24:03Z</time>
      </trkpt>
      <trkpt lat="40.458631" lon="0.464532">
        <ele>5.352</ele>
        <time>1970-01-01T02:24:04Z</time>
      </trkpt>
      <trkpt lat="40.458583" lon="0.464499">
        <ele>5.512</ele>
        <time>1970-01-01T02:24:05Z</time>
      </trkpt>
      <trkpt lat="40.458535" lon="0.464463">
        <ele>5.668</ele>
        <time>1970-01-01T02:24:06Z</time>
      </trkpt>
      <trkpt lat="40.458487" lon="0.464425">
        <ele>5.672</ele>
        <time>1970-01-01T02:24:07Z</time>
      </trkpt>
      <trkpt lat="40.458439" lon="0.464388">
        <ele>5.513</ele>
        <time>1970-01-01T02:24:08Z</time>
      </trkpt>
      <trkpt lat="40.458391" lon="0.464351">
        <ele>5.595</ele>
        <time>1970-01-01T02:24:09Z</time>
      </trkpt>
      <trkpt lat="40.458342" lon="0.464313">
        <ele>5.549</ele>
        <time>1970-01-01T02:24:10Z</time>
      </trkpt>
      <trkpt lat="40.458292" lon="0.464276">
        <ele>5.523</ele>
        <time>1970-01-01T02:24:11Z</time>
      </trkpt>
      <trkpt lat="40.458241" lon="0.464240">
        <ele>5.408</ele>
        <time>1970-01-01T02:24:12Z</time>
      </trkpt>
      <trkpt lat="40.458189" lon="0.464205">
        <ele>5.336</ele>
        <time>1970-01-01T02:24:13Z</time>
      </trkpt>
      <trkpt lat="40.458136" lon="0.464171">
        <ele>5.363</ele>
        <time>1970-01-01T02:24:14Z</time>
      </trkpt>
      <trkpt lat="40.458083" lon="0.464139">
        <ele>5.274</ele>
        <time>1970-01-01T02:24:15Z</time>
      </trkpt>
      <trkpt lat="40.458029" lon="0.464105">
        <ele>5.167</ele>
        <time>1970-01-01T02:24:16Z</time>
      </trkpt>
      <trkpt lat="40.457974" lon="0.464072">
        <ele>5.077</ele>
        <time>1970-01-01T02:24:17Z</time>
      </trkpt>
      <trkpt lat="40.457920" lon="0.464039">
        <ele>5.053</ele>
        <time>1970-01-01T02:24:18Z</time>
      </trkpt>
      <trkpt lat="40.457865" lon="0.464005">
        <ele>4.947</ele>
        <time>1970-01-01T02:24:19Z</time>
      </trkpt>
      <trkpt lat="40.457810" lon="0.463973">
        <ele>4.848</ele>
        <time>1970-01-01T02:24:20Z</time>
      </trkpt>
      <trkpt lat="40.457754" lon="0.463942">
        <ele>4.958</ele>
        <time>1970-01-01T02:24:21Z</time>
      </trkpt>
      <trkpt lat="40.457698" lon="0.463913">
        <ele>5.252</ele>
        <time>1970-01-01T02:24:22Z</time>
      </trkpt>
      <trkpt lat="40.457641" lon="0.463885">
        <ele>5.517</ele>
        <time>1970-01-01T02:24:23Z</time>
      </trkpt>
      <trkpt lat="40.457584" lon="0.463859">
        <ele>5.808</ele>
        <time>1970-01-01T02:24:24Z</time>
      </trkpt>
      <trkpt lat="40.457527" lon="0.463834">
        <ele>6.182</ele>
        <time>1970-01-01T02:24:25Z</time>
      </trkpt>
      <trkpt lat="40.457470" lon="0.463810">
        <ele>6.399</ele>
        <time>1970-01-01T02:24:26Z</time>
      </trkpt>
      <trkpt lat="40.457413" lon="0.463785">
        <ele>6.450</ele>
        <time>1970-01-01T02:24:27Z</time>
      </trkpt>
      <trkpt lat="40.457356" lon="0.463760">
        <ele>6.583</ele>
        <time>1970-01-01T02:24:28Z</time>
      </trkpt>
      <trkpt lat="40.457297" lon="0.463737">
        <ele>6.573</ele>
        <time>1970-01-01T02:24:29Z</time>
      </trkpt>
      <trkpt lat="40.457239" lon="0.463713">
        <ele>6.689</ele>
        <time>1970-01-01T02:24:30Z</time>
      </trkpt>
      <trkpt lat="40.457180" lon="0.463689">
        <ele>6.833</ele>
        <time>1970-01-01T02:24:31Z</time>
      </trkpt>
      <trkpt lat="40.457121" lon="0.463665">
        <ele>6.964</ele>
        <time>1970-01-01T02:24:32Z</time>
      </trkpt>
      <trkpt lat="40.457063" lon="0.463643">
        <ele>7.046</ele>
        <time>1970-01-01T02:24:33Z</time>
      </trkpt>
      <trkpt lat="40.457004" lon="0.463621">
        <ele>7.088</ele>
        <time>1970-01-01T02:24:34Z</time>
      </trkpt>
      <trkpt lat="40.456944" lon="0.463600">
        <ele>7.016</ele>
        <time>1970-01-01T02:24:35Z</time>
      </trkpt>
      <trkpt lat="40.456884" lon="0.463579">
        <ele>7.108</ele>
        <time>1970-01-01T02:24:36Z</time>
      </trkpt>
      <trkpt lat="40.456824" lon="0.463559">
        <ele>7.191</ele>
        <time>1970-01-01T02:24:37Z</time>
      </trkpt>
      <trkpt lat="40.456764" lon="0.463539">
        <ele>7.188</ele>
        <time>1970-01-01T02:24:38Z</time>
      </trkpt>
      <trkpt lat="40.456704" lon="0.463520">
        <ele>7.069</ele>
        <time>1970-01-01T02:24:39Z</time>
      </trkpt>
      <trkpt lat="40.456645" lon="0.463501">
        <ele>6.942</ele>
        <time>1970-01-01T02:24:40Z</time>
      </trkpt>
      <trkpt lat="40.456587" lon="0.463480">
        <ele>6.752</ele>
        <time>1970-01-01T02:24:41Z</time>
      </trkpt>
      <trkpt lat="40.456528" lon="0.463458">
        <ele>6.618</ele>
        <time>1970-01-01T02:24:42Z</time>
      </trkpt>
      <trkpt lat="40.456470" lon="0.463436">
        <ele>6.572</ele>
        <time>1970-01-01T02:24:43Z</time>
      </trkpt>
      <trkpt lat="40.456412" lon="0.463412">
        <ele>6.563</ele>
        <time>1970-01-01T02:24:44Z</time>
      </trkpt>
      <trkpt lat="40.456354" lon="0.463389">
        <ele>6.592</ele>
        <time>1970-01-01T02:24:45Z</time>
      </trkpt>
      <trkpt lat="40.456297" lon="0.463369">
        <ele>6.473</ele>
        <time>1970-01-01T02:24:46Z</time>
      </trkpt>
      <trkpt lat="40.456240" lon="0.463352">
        <ele>6.320</ele>
        <time>1970-01-01T02:24:47Z</time>
      </trkpt>
      <trkpt lat="40.456187" lon="0.463335">
        <ele>6.308</ele>
        <time>1970-01-01T02:24:48Z</time>
      </trkpt>
      <trkpt lat="40.456135" lon="0.463314">
        <ele>6.236</ele>
        <time>1970-01-01T02:24:49Z</time>
      </trkpt>
      <trkpt lat="40.456087" lon="0.463290">
        <ele>6.133</ele>
        <time>1970-01-01T02:24:50Z</time>
      </trkpt>
      <trkpt lat="40.456040" lon="0.463265">
        <ele>5.974</ele>
        <time>1970-01-01T02:24:51Z</time>
      </trkpt>
      <trkpt lat="40.455995" lon="0.463239">
        <ele>5.847</ele>
        <time>1970-01-01T02:24:52Z</time>
      </trkpt>
      <trkpt lat="40.455950" lon="0.463208">
        <ele>5.647</ele>
        <time>1970-01-01T02:24:53Z</time>
      </trkpt>
      <trkpt lat="40.455906" lon="0.463173">
        <ele>5.463</ele>
        <time>1970-01-01T02:24:54Z</time>
      </trkpt>
      <trkpt lat="40.455862" lon="0.463133">
        <ele>5.217</ele>
        <time>1970-01-01T02:24:55Z</time>
      </trkpt>
      <trkpt lat="40.455820" lon="0.463091">
        <ele>5.038</ele>
        <time>1970-01-01T02:24:56Z</time>
      </trkpt>
      <trkpt lat="40.455777" lon="0.463049">
        <ele>4.828</ele>
        <time>1970-01-01T02:24:57Z</time>
      </trkpt>
      <trkpt lat="40.455735" lon="0.463006">
        <ele>4.789</ele>
        <time>1970-01-01T02:24:58Z</time>
      </trkpt>
      <trkpt lat="40.455693" lon="0.462961">
        <ele>4.717</ele>
        <time>1970-01-01T02:24:59Z</time>
      </trkpt>
      <trkpt lat="40.455651" lon="0.462917">
        <ele>4.708</ele>
        <time>1970-01-01T02:25:00Z</time>
      </trkpt>
      <trkpt lat="40.455609" lon="0.462872">
        <ele>4.759</ele>
        <time>1970-01-01T02:25:01Z</time>
      </trkpt>
      <trkpt lat="40.455568" lon="0.462827">
        <ele>4.826</ele>
        <time>1970-01-01T02:25:02Z</time>
      </trkpt>
      <trkpt lat="40.455527" lon="0.462783">
        <ele>4.997</ele>
        <time>1970-01-01T02:25:03Z</time>
      </trkpt>
      <trkpt lat="40.455487" lon="0.462737">
        <ele>4.860</ele>
        <time>1970-01-01T02:25:04Z</time>
      </trkpt>
      <trkpt lat="40.455447" lon="0.462692">
        <ele>4.720</ele>
        <time>1970-01-01T02:25:05Z</time>
      </trkpt>
      <trkpt lat="40.455405" lon="0.462649">
        <ele>4.786</ele>
        <time>1970-01-01T02:25:06Z</time>
      </trkpt>
      <trkpt lat="40.455363" lon="0.462605">
        <ele>4.740</ele>
        <time>1970-01-01T02:25:07Z</time>
      </trkpt>
      <trkpt lat="40.455321" lon="0.462559">
        <ele>4.841</ele>
        <time>1970-01-01T02:25:08Z</time>
      </trkpt>
      <trkpt lat="40.455277" lon="0.462511">
        <ele>5.033</ele>
        <time>1970-01-01T02:25:09Z</time>
      </trkpt>
      <trkpt lat="40.455231" lon="0.462464">
        <ele>5.123</ele>
        <time>1970-01-01T02:25:10Z</time>
      </trkpt>
      <trkpt lat="40.455184" lon="0.462415">
        <ele>5.215</ele>
        <time>1970-01-01T02:25:11Z</time>
      </trkpt>
      <trkpt lat="40.455136" lon="0.462363">
        <ele>5.208</ele>
        <time>1970-01-01T02:25:12Z</time>
      </trkpt>
      <trkpt lat="40.455087" lon="0.462311">
        <ele>5.240</ele>
        <time>1970-01-01T02:25:13Z</time>
      </trkpt>
      <trkpt lat="40.455038" lon="0.462257">
        <ele>5.137</ele>
        <time>1970-01-01T02:25:14Z</time>
      </trkpt>
      <trkpt lat="40.454987" lon="0.462203">
        <ele>4.928</ele>
        <time>1970-01-01T02:25:15Z</time>
      </trkpt>
      <trkpt lat="40.454935" lon="0.462147">
        <ele>4.571</ele>
        <time>1970-01-01T02:25:16Z</time>
      </trkpt>
      <trkpt lat="40.454884" lon="0.462088">
        <ele>4.111</ele>
        <time>1970-01-01T02:25:17Z</time>
      </trkpt>
      <trkpt lat="40.454832" lon="0.462026">
        <ele>3.777</ele>
        <time>1970-01-01T02:25:18Z</time>
      </trkpt>
      <trkpt lat="40.454781" lon="0.461958">
        <ele>3.391</ele>
        <time>1970-01-01T02:25:19Z</time>
      </trkpt>
      <trkpt lat="40.454731" lon="0.461891">
        <ele>2.862</ele>
        <time>1970-01-01T02:25:20Z</time>
      </trkpt>
      <trkpt lat="40.454680" lon="0.461825">
        <ele>2.736</ele>
        <time>1970-01-01T02:25:21Z</time>
      </trkpt>
      <trkpt lat="40.454629" lon="0.461762">
        <ele>2.717</ele>
        <time>1970-01-01T02:25:22Z</time>
      </trkpt>
      <trkpt lat="40.454575" lon="0.461699">
        <ele>2.618</ele>
        <time>1970-01-01T02:25:23Z</time>
      </trkpt>
      <trkpt lat="40.454523" lon="0.461637">
        <ele>2.708</ele>
        <time>1970-01-01T02:25:24Z</time>
      </trkpt>
      <trkpt lat="40.454472" lon="0.461575">
        <ele>2.910</ele>
        <time>1970-01-01T02:25:25Z</time>
      </trkpt>
      <trkpt lat="40.454421" lon="0.461514">
        <ele>3.187</ele>
        <time>1970-01-01T02:25:26Z</time>
      </trkpt>
      <trkpt lat="40.454370" lon="0.461453">
        <ele>3.338</ele>
        <time>1970-01-01T02:25:27Z</time>
      </trkpt>
      <trkpt lat="40.454319" lon="0.461392">
        <ele>3.561</ele>
        <time>1970-01-01T02:25:28Z</time>
      </trkpt>
      <trkpt lat="40.454270" lon="0.461331">
        <ele>3.861</ele>
        <time>1970-01-01T02:25:29Z</time>
      </trkpt>
      <trkpt lat="40.454221" lon="0.461272">
        <ele>4.217</ele>
        <time>1970-01-01T02:25:30Z</time>
      </trkpt>
      <trkpt lat="40.454169" lon="0.461218">
        <ele>4.671</ele>
        <time>1970-01-01T02:25:31Z</time>
      </trkpt>
      <trkpt lat="40.454116" lon="0.461167">
        <ele>4.882</ele>
        <time>1970-01-01T02:25:32Z</time>
      </trkpt>
      <trkpt lat="40.454061" lon="0.461119">
        <ele>5.069</ele>
        <time>1970-01-01T02:25:33Z</time>
      </trkpt>
      <trkpt lat="40.454007" lon="0.461076">
        <ele>5.204</ele>
        <time>1970-01-01T02:25:34Z</time>
      </trkpt>
      <trkpt lat="40.453953" lon="0.461034">
        <ele>5.524</ele>
        <time>1970-01-01T02:25:35Z</time>
      </trkpt>
      <trkpt lat="40.453896" lon="0.460998">
        <ele>5.808</ele>
        <time>1970-01-01T02:25:36Z</time>
      </trkpt>
      <trkpt lat="40.453839" lon="0.460957">
        <ele>5.783</ele>
        <time>1970-01-01T02:25:37Z</time>
      </trkpt>
      <trkpt lat="40.453783" lon="0.460916">
        <ele>5.530</ele>
        <time>1970-01-01T02:25:38Z</time>
      </trkpt>
      <trkpt lat="40.453726" lon="0.460876">
        <ele>5.171</ele>
        <time>1970-01-01T02:25:39Z</time>
      </trkpt>
      <trkpt lat="40.453670" lon="0.460836">
        <ele>4.614</ele>
        <time>1970-01-01T02:25:40Z</time>
      </trkpt>
      <trkpt lat="40.453613" lon="0.460796">
        <ele>4.274</ele>
        <time>1970-01-01T02:25:41Z</time>
      </trkpt>
      <trkpt lat="40.453556" lon="0.460756">
        <ele>3.660</ele>
        <time>1970-01-01T02:25:42Z</time>
      </trkpt>
      <trkpt lat="40.453498" lon="0.460719">
        <ele>3.094</ele>
        <time>1970-01-01T02:25:43Z</time>
      </trkpt>
      <trkpt lat="40.453438" lon="0.460683">
        <ele>2.395</ele>
        <time>1970-01-01T02:25:44Z</time>
      </trkpt>
      <trkpt lat="40.453377" lon="0.460650">
        <ele>1.674</ele>
        <time>1970-01-01T02:25:45Z</time>
      </trkpt>
      <trkpt lat="40.453315" lon="0.460620">
        <ele>1.056</ele>
        <time>1970-01-01T02:25:46Z</time>
      </trkpt>
      <trkpt lat="40.453253" lon="0.460590">
        <ele>1.021</ele>
        <time>1970-01-01T02:25:47Z</time>
      </trkpt>
      <trkpt lat="40.453191" lon="0.460560">
        <ele>1.008</ele>
        <time>1970-01-01T02:25:48Z</time>
      </trkpt>
      <trkpt lat="40.453131" lon="0.460531">
        <ele>1.114</ele>
        <time>1970-01-01T02:25:49Z</time>
      </trkpt>
      <trkpt lat="40.453071" lon="0.460503">
        <ele>1.291</ele>
        <time>1970-01-01T02:25:50Z</time>
      </trkpt>
      <trkpt lat="40.453011" lon="0.460476">
        <ele>1.882</ele>
        <time>1970-01-01T02:25:51Z</time>
      </trkpt>
      <trkpt lat="40.452950" lon="0.460451">
        <ele>2.795</ele>
        <time>1970-01-01T02:25:52Z</time>
      </trkpt>
      <trkpt lat="40.452891" lon="0.460426">
        <ele>3.565</ele>
        <time>1970-01-01T02:25:53Z</time>
      </trkpt>
      <trkpt lat="40.452833" lon="0.460403">
        <ele>4.451</ele>
        <time>1970-01-01T02:25:54Z</time>
      </trkpt>
      <trkpt lat="40.452776" lon="0.460380">
        <ele>5.365</ele>
        <time>1970-01-01T02:25:55Z</time>
      </trkpt>
      <trkpt lat="40.452720" lon="0.460357">
        <ele>5.646</ele>
        <time>1970-01-01T02:25:56Z</time>
      </trkpt>
      <trkpt lat="40.452612" lon="0.460301">
        <ele>6.455</ele>
        <time>1970-01-01T02:25:57Z</time>
      </trkpt>
      <trkpt lat="40.452585" lon="0.460287">
        <ele>6.607</ele>
        <time>1970-01-01T02:25:58Z</time>
      </trkpt>
      <trkpt lat="40.452558" lon="0.460273">
        <ele>6.817</ele>
        <time>1970-01-01T02:25:59Z</time>
      </trkpt>
      <trkpt lat="40.452504" lon="0.460247">
        <ele>7.108</ele>
        <time>1970-01-01T02:26:00Z</time>
      </trkpt>
      <trkpt lat="40.452450" lon="0.460220">
        <ele>7.432</ele>
        <time>1970-01-01T02:26:01Z</time>
      </trkpt>
      <trkpt lat="40.452396" lon="0.460192">
        <ele>7.629</ele>
        <time>1970-01-01T02:26:02Z</time>
      </trkpt>
      <trkpt lat="40.452340" lon="0.460165">
        <ele>7.780</ele>
        <time>1970-01-01T02:26:03Z</time>
      </trkpt>
      <trkpt lat="40.452285" lon="0.460136">
        <ele>7.993</ele>
        <time>1970-01-01T02:26:04Z</time>
      </trkpt>
      <trkpt lat="40.452229" lon="0.460107">
        <ele>8.093</ele>
        <time>1970-01-01T02:26:05Z</time>
      </trkpt>
      <trkpt lat="40.452174" lon="0.460077">
        <ele>7.869</ele>
        <time>1970-01-01T02:26:06Z</time>
      </trkpt>
      <trkpt lat="40.452119" lon="0.460046">
        <ele>7.423</ele>
        <time>1970-01-01T02:26:07Z</time>
      </trkpt>
      <trkpt lat="40.452064" lon="0.460017">
        <ele>7.034</ele>
        <time>1970-01-01T02:26:08Z</time>
      </trkpt>
      <trkpt lat="40.452008" lon="0.459989">
        <ele>6.579</ele>
        <time>1970-01-01T02:26:09Z</time>
      </trkpt>
      <trkpt lat="40.451952" lon="0.459960">
        <ele>6.105</ele>
        <time>1970-01-01T02:26:10Z</time>
      </trkpt>
      <trkpt lat="40.451896" lon="0.459931">
        <ele>5.825</ele>
        <time>1970-01-01T02:26:11Z</time>
      </trkpt>
      <trkpt lat="40.451841" lon="0.459903">
        <ele>5.608</ele>
        <time>1970-01-01T02:26:12Z</time>
      </trkpt>
      <trkpt lat="40.451786" lon="0.459875">
        <ele>5.444</ele>
        <time>1970-01-01T02:26:13Z</time>
      </trkpt>
      <trkpt lat="40.451730" lon="0.459848">
        <ele>5.261</ele>
        <time>1970-01-01T02:26:14Z</time>
      </trkpt>
      <trkpt lat="40.451675" lon="0.459821">
        <ele>5.082</ele>
        <time>1970-01-01T02:26:15Z</time>
      </trkpt>
      <trkpt lat="40.451620" lon="0.459794">
        <ele>5.265</ele>
        <time>1970-01-01T02:26:16Z</time>
      </trkpt>
      <trkpt lat="40.451566" lon="0.459767">
        <ele>5.435</ele>
        <time>1970-01-01T02:26:17Z</time>
      </trkpt>
      <trkpt lat="40.451513" lon="0.459741">
        <ele>5.661</ele>
        <time>1970-01-01T02:26:18Z</time>
      </trkpt>
      <trkpt lat="40.451462" lon="0.459715">
        <ele>5.755</ele>
        <time>1970-01-01T02:26:19Z</time>
      </trkpt>
      <trkpt lat="40.451409" lon="0.459693">
        <ele>5.936</ele>
        <time>1970-01-01T02:26:20Z</time>
      </trkpt>
      <trkpt lat="40.451358" lon="0.459666">
        <ele>5.986</ele>
        <time>1970-01-01T02:26:21Z</time>
      </trkpt>
      <trkpt lat="40.451306" lon="0.459641">
        <ele>5.760</ele>
        <time>1970-01-01T02:26:22Z</time>
      </trkpt>
      <trkpt lat="40.451253" lon="0.459616">
        <ele>5.526</ele>
        <time>1970-01-01T02:26:23Z</time>
      </trkpt>
      <trkpt lat="40.451200" lon="0.459592">
        <ele>5.308</ele>
        <time>1970-01-01T02:26:24Z</time>
      </trkpt>
      <trkpt lat="40.451147" lon="0.459567">
        <ele>5.145</ele>
        <time>1970-01-01T02:26:25Z</time>
      </trkpt>
      <trkpt lat="40.451093" lon="0.459540">
        <ele>5.012</ele>
        <time>1970-01-01T02:26:26Z</time>
      </trkpt>
      <trkpt lat="40.451040" lon="0.459512">
        <ele>4.983</ele>
        <time>1970-01-01T02:26:27Z</time>
      </trkpt>
      <trkpt lat="40.450988" lon="0.459483">
        <ele>4.946</ele>
        <time>1970-01-01T02:26:28Z</time>
      </trkpt>
      <trkpt lat="40.450936" lon="0.459450">
        <ele>5.076</ele>
        <time>1970-01-01T02:26:29Z</time>
      </trkpt>
      <trkpt lat="40.450886" lon="0.459413">
        <ele>5.022</ele>
        <time>1970-01-01T02:26:30Z</time>
      </trkpt>
      <trkpt lat="40.450838" lon="0.459372">
        <ele>5.096</ele>
        <time>1970-01-01T02:26:31Z</time>
      </trkpt>
      <trkpt lat="40.450793" lon="0.459326">
        <ele>5.127</ele>
        <time>1970-01-01T02:26:32Z</time>
      </trkpt>
      <trkpt lat="40.450751" lon="0.459274">
        <ele>5.231</ele>
        <time>1970-01-01T02:26:33Z</time>
      </trkpt>
      <trkpt lat="40.450711" lon="0.459216">
        <ele>5.461</ele>
        <time>1970-01-01T02:26:34Z</time>
      </trkpt>
      <trkpt lat="40.450677" lon="0.459151">
        <ele>5.607</ele>
        <time>1970-01-01T02:26:35Z</time>
      </trkpt>
      <trkpt lat="40.450647" lon="0.459083">
        <ele>5.708</ele>
        <time>1970-01-01T02:26:36Z</time>
      </trkpt>
      <trkpt lat="40.450620" lon="0.459013">
        <ele>5.870</ele>
        <time>1970-01-01T02:26:37Z</time>
      </trkpt>
      <trkpt lat="40.450598" lon="0.458942">
        <ele>5.877</ele>
        <time>1970-01-01T02:26:38Z</time>
      </trkpt>
      <trkpt lat="40.450577" lon="0.458870">
        <ele>6.088</ele>
        <time>1970-01-01T02:26:39Z</time>
      </trkpt>
      <trkpt lat="40.450557" lon="0.458797">
        <ele>6.381</ele>
        <time>1970-01-01T02:26:40Z</time>
      </trkpt>
      <trkpt lat="40.450537" lon="0.458724">
        <ele>6.751</ele>
        <time>1970-01-01T02:26:41Z</time>
      </trkpt>
      <trkpt lat="40.450516" lon="0.458650">
        <ele>7.077</ele>
        <time>1970-01-01T02:26:42Z</time>
      </trkpt>
      <trkpt lat="40.450496" lon="0.458576">
        <ele>7.331</ele>
        <time>1970-01-01T02:26:43Z</time>
      </trkpt>
      <trkpt lat="40.450476" lon="0.458505">
        <ele>7.662</ele>
        <time>1970-01-01T02:26:44Z</time>
      </trkpt>
      <trkpt lat="40.450457" lon="0.458435">
        <ele>7.888</ele>
        <time>1970-01-01T02:26:45Z</time>
      </trkpt>
      <trkpt lat="40.450437" lon="0.458364">
        <ele>7.924</ele>
        <time>1970-01-01T02:26:46Z</time>
      </trkpt>
      <trkpt lat="40.450418" lon="0.458292">
        <ele>8.126</ele>
        <time>1970-01-01T02:26:47Z</time>
      </trkpt>
      <trkpt lat="40.450398" lon="0.458222">
        <ele>8.408</ele>
        <time>1970-01-01T02:26:48Z</time>
      </trkpt>
      <trkpt lat="40.450379" lon="0.458152">
        <ele>8.795</ele>
        <time>1970-01-01T02:26:49Z</time>
      </trkpt>
      <trkpt lat="40.450362" lon="0.458081">
        <ele>8.992</ele>
        <time>1970-01-01T02:26:50Z</time>
      </trkpt>
      <trkpt lat="40.450347" lon="0.458013">
        <ele>9.073</ele>
        <time>1970-01-01T02:26:51Z</time>
      </trkpt>
      <trkpt lat="40.450331" lon="0.457943">
        <ele>9.096</ele>
        <time>1970-01-01T02:26:52Z</time>
      </trkpt>
      <trkpt lat="40.450314" lon="0.457873">
        <ele>9.076</ele>
        <time>1970-01-01T02:26:53Z</time>
      </trkpt>
      <trkpt lat="40.450298" lon="0.457801">
        <ele>9.042</ele>
        <time>1970-01-01T02:26:54Z</time>
      </trkpt>
      <trkpt lat="40.450284" lon="0.457729">
        <ele>9.016</ele>
        <time>1970-01-01T02:26:55Z</time>
      </trkpt>
      <trkpt lat="40.450271" lon="0.457657">
        <ele>9.097</ele>
        <time>1970-01-01T02:26:56Z</time>
      </trkpt>
      <trkpt lat="40.450257" lon="0.457585">
        <ele>8.975</ele>
        <time>1970-01-01T02:26:57Z</time>
      </trkpt>
      <trkpt lat="40.450243" lon="0.457512">
        <ele>8.928</ele>
        <time>1970-01-01T02:26:58Z</time>
      </trkpt>
      <trkpt lat="40.450228" lon="0.457438">
        <ele>8.820</ele>
        <time>1970-01-01T02:26:59Z</time>
      </trkpt>
      <trkpt lat="40.450213" lon="0.457363">
        <ele>8.808</ele>
        <time>1970-01-01T02:27:00Z</time>
      </trkpt>
      <trkpt lat="40.450196" lon="0.457289">
        <ele>8.764</ele>
        <time>1970-01-01T02:27:01Z</time>
      </trkpt>
      <trkpt lat="40.450174" lon="0.457219">
        <ele>8.611</ele>
        <time>1970-01-01T02:27:02Z</time>
      </trkpt>
      <trkpt lat="40.450151" lon="0.457150">
        <ele>8.522</ele>
        <time>1970-01-01T02:27:03Z</time>
      </trkpt>
      <trkpt lat="40.450122" lon="0.457080">
        <ele>8.425</ele>
        <time>1970-01-01T02:27:04Z</time>
      </trkpt>
      <trkpt lat="40.450089" lon="0.457014">
        <ele>8.315</ele>
        <time>1970-01-01T02:27:05Z</time>
      </trkpt>
      <trkpt lat="40.450053" lon="0.456957">
        <ele>8.221</ele>
        <time>1970-01-01T02:27:06Z</time>
      </trkpt>
      <trkpt lat="40.450013" lon="0.456908">
        <ele>8.065</ele>
        <time>1970-01-01T02:27:07Z</time>
      </trkpt>
      <trkpt lat="40.449967" lon="0.456865">
        <ele>7.896</ele>
        <time>1970-01-01T02:27:08Z</time>
      </trkpt>
      <trkpt lat="40.449916" lon="0.456825">
        <ele>7.632</ele>
        <time>1970-01-01T02:27:09Z</time>
      </trkpt>
      <trkpt lat="40.449865" lon="0.456786">
        <ele>7.292</ele>
        <time>1970-01-01T02:27:10Z</time>
      </trkpt>
      <trkpt lat="40.449812" lon="0.456747">
        <ele>6.811</ele>
        <time>1970-01-01T02:27:11Z</time>
      </trkpt>
      <trkpt lat="40.449758" lon="0.456708">
        <ele>6.408</ele>
        <time>1970-01-01T02:27:12Z</time>
      </trkpt>
      <trkpt lat="40.449704" lon="0.456667">
        <ele>6.030</ele>
        <time>1970-01-01T02:27:13Z</time>
      </trkpt>
      <trkpt lat="40.449652" lon="0.456626">
        <ele>6.177</ele>
        <time>1970-01-01T02:27:14Z</time>
      </trkpt>
      <trkpt lat="40.449599" lon="0.456586">
        <ele>6.338</ele>
        <time>1970-01-01T02:27:15Z</time>
      </trkpt>
      <trkpt lat="40.449545" lon="0.456546">
        <ele>6.451</ele>
        <time>1970-01-01T02:27:16Z</time>
      </trkpt>
      <trkpt lat="40.449491" lon="0.456506">
        <ele>6.651</ele>
        <time>1970-01-01T02:27:17Z</time>
      </trkpt>
      <trkpt lat="40.449437" lon="0.456468">
        <ele>6.757</ele>
        <time>1970-01-01T02:27:18Z</time>
      </trkpt>
      <trkpt lat="40.449382" lon="0.456428">
        <ele>6.991</ele>
        <time>1970-01-01T02:27:19Z</time>
      </trkpt>
      <trkpt lat="40.449327" lon="0.456387">
        <ele>7.062</ele>
        <time>1970-01-01T02:27:20Z</time>
      </trkpt>
      <trkpt lat="40.449274" lon="0.456347">
        <ele>7.173</ele>
        <time>1970-01-01T02:27:21Z</time>
      </trkpt>
      <trkpt lat="40.449221" lon="0.456308">
        <ele>7.285</ele>
        <time>1970-01-01T02:27:22Z</time>
      </trkpt>
      <trkpt lat="40.449166" lon="0.456269">
        <ele>7.413</ele>
        <time>1970-01-01T02:27:23Z</time>
      </trkpt>
      <trkpt lat="40.449112" lon="0.456228">
        <ele>7.708</ele>
        <time>1970-01-01T02:27:24Z</time>
      </trkpt>
      <trkpt lat="40.449058" lon="0.456189">
        <ele>7.814</ele>
        <time>1970-01-01T02:27:25Z</time>
      </trkpt>
      <trkpt lat="40.449004" lon="0.456153">
        <ele>7.961</ele>
        <time>1970-01-01T02:27:26Z</time>
      </trkpt>
      <trkpt lat="40.448948" lon="0.456118">
        <ele>8.032</ele>
        <time>1970-01-01T02:27:27Z</time>
      </trkpt>
      <trkpt lat="40.448892" lon="0.456084">
        <ele>8.035</ele>
        <time>1970-01-01T02:27:28Z</time>
      </trkpt>
      <trkpt lat="40.448836" lon="0.456047">
        <ele>8.145</ele>
        <time>1970-01-01T02:27:29Z</time>
      </trkpt>
      <trkpt lat="40.448781" lon="0.456008">
        <ele>8.261</ele>
        <time>1970-01-01T02:27:30Z</time>
      </trkpt>
      <trkpt lat="40.448728" lon="0.455970">
        <ele>8.315</ele>
        <time>1970-01-01T02:27:31Z</time>
      </trkpt>
      <trkpt lat="40.448675" lon="0.455935">
        <ele>8.366</ele>
        <time>1970-01-01T02:27:32Z</time>
      </trkpt>
      <trkpt lat="40.448619" lon="0.455899">
        <ele>8.262</ele>
        <time>1970-01-01T02:27:33Z</time>
      </trkpt>
      <trkpt lat="40.448562" lon="0.455864">
        <ele>8.183</ele>
        <time>1970-01-01T02:27:34Z</time>
      </trkpt>
      <trkpt lat="40.448505" lon="0.455830">
        <ele>8.011</ele>
        <time>1970-01-01T02:27:35Z</time>
      </trkpt>
      <trkpt lat="40.448448" lon="0.455797">
        <ele>7.908</ele>
        <time>1970-01-01T02:27:36Z</time>
      </trkpt>
      <trkpt lat="40.448391" lon="0.455761">
        <ele>7.993</ele>
        <time>1970-01-01T02:27:37Z</time>
      </trkpt>
      <trkpt lat="40.448335" lon="0.455723">
        <ele>8.060</ele>
        <time>1970-01-01T02:27:38Z</time>
      </trkpt>
      <trkpt lat="40.448280" lon="0.455687">
        <ele>8.051</ele>
        <time>1970-01-01T02:27:39Z</time>
      </trkpt>
      <trkpt lat="40.448224" lon="0.455657">
        <ele>8.014</ele>
        <time>1970-01-01T02:27:40Z</time>
      </trkpt>
      <trkpt lat="40.448167" lon="0.455632">
        <ele>8.064</ele>
        <time>1970-01-01T02:27:41Z</time>
      </trkpt>
      <trkpt lat="40.448109" lon="0.455606">
        <ele>8.020</ele>
        <time>1970-01-01T02:27:42Z</time>
      </trkpt>
      <trkpt lat="40.448051" lon="0.455576">
        <ele>8.044</ele>
        <time>1970-01-01T02:27:43Z</time>
      </trkpt>
      <trkpt lat="40.447995" lon="0.455546">
        <ele>7.855</ele>
        <time>1970-01-01T02:27:44Z</time>
      </trkpt>
      <trkpt lat="40.447939" lon="0.455518">
        <ele>7.755</ele>
        <time>1970-01-01T02:27:45Z</time>
      </trkpt>
      <trkpt lat="40.447881" lon="0.455490">
        <ele>7.607</ele>
        <time>1970-01-01T02:27:46Z</time>
      </trkpt>
      <trkpt lat="40.447825" lon="0.455461">
        <ele>7.517</ele>
        <time>1970-01-01T02:27:47Z</time>
      </trkpt>
      <trkpt lat="40.447771" lon="0.455426">
        <ele>7.408</ele>
        <time>1970-01-01T02:27:48Z</time>
      </trkpt>
      <trkpt lat="40.447718" lon="0.455387">
        <ele>7.462</ele>
        <time>1970-01-01T02:27:49Z</time>
      </trkpt>
      <trkpt lat="40.447664" lon="0.455347">
        <ele>7.399</ele>
        <time>1970-01-01T02:27:50Z</time>
      </trkpt>
      <trkpt lat="40.447611" lon="0.455309">
        <ele>7.350</ele>
        <time>1970-01-01T02:27:51Z</time>
      </trkpt>
      <trkpt lat="40.447557" lon="0.455269">
        <ele>7.223</ele>
        <time>1970-01-01T02:27:52Z</time>
      </trkpt>
      <trkpt lat="40.447503" lon="0.455231">
        <ele>7.013</ele>
        <time>1970-01-01T02:27:53Z</time>
      </trkpt>
      <trkpt lat="40.447450" lon="0.455192">
        <ele>6.939</ele>
        <time>1970-01-01T02:27:54Z</time>
      </trkpt>
      <trkpt lat="40.447397" lon="0.455151">
        <ele>6.823</ele>
        <time>1970-01-01T02:27:55Z</time>
      </trkpt>
      <trkpt lat="40.447345" lon="0.455110">
        <ele>6.814</ele>
        <time>1970-01-01T02:27:56Z</time>
      </trkpt>
      <trkpt lat="40.447291" lon="0.455070">
        <ele>6.836</ele>
        <time>1970-01-01T02:27:57Z</time>
      </trkpt>
      <trkpt lat="40.447237" lon="0.455031">
        <ele>6.917</ele>
        <time>1970-01-01T02:27:58Z</time>
      </trkpt>
      <trkpt lat="40.447185" lon="0.454991">
        <ele>7.018</ele>
        <time>1970-01-01T02:27:59Z</time>
      </trkpt>
      <trkpt lat="40.447134" lon="0.454951">
        <ele>7.008</ele>
        <time>1970-01-01T02:28:00Z</time>
      </trkpt>
      <trkpt lat="40.447082" lon="0.454911">
        <ele>7.060</ele>
        <time>1970-01-01T02:28:01Z</time>
      </trkpt>
      <trkpt lat="40.447029" lon="0.454872">
        <ele>7.047</ele>
        <time>1970-01-01T02:28:02Z</time>
      </trkpt>
      <trkpt lat="40.446978" lon="0.454834">
        <ele>7.068</ele>
        <time>1970-01-01T02:28:03Z</time>
      </trkpt>
      <trkpt lat="40.446927" lon="0.454793">
        <ele>7.091</ele>
        <time>1970-01-01T02:28:04Z</time>
      </trkpt>
      <trkpt lat="40.446877" lon="0.454751">
        <ele>6.811</ele>
        <time>1970-01-01T02:28:05Z</time>
      </trkpt>
      <trkpt lat="40.446831" lon="0.454705">
        <ele>6.627</ele>
        <time>1970-01-01T02:28:06Z</time>
      </trkpt>
      <trkpt lat="40.446788" lon="0.454653">
        <ele>6.351</ele>
        <time>1970-01-01T02:28:07Z</time>
      </trkpt>
      <trkpt lat="40.446743" lon="0.454603">
        <ele>6.232</ele>
        <time>1970-01-01T02:28:08Z</time>
      </trkpt>
      <trkpt lat="40.446693" lon="0.454562">
        <ele>6.021</ele>
        <time>1970-01-01T02:28:09Z</time>
      </trkpt>
      <trkpt lat="40.446642" lon="0.454524">
        <ele>6.041</ele>
        <time>1970-01-01T02:28:10Z</time>
      </trkpt>
      <trkpt lat="40.446591" lon="0.454486">
        <ele>6.005</ele>
        <time>1970-01-01T02:28:11Z</time>
      </trkpt>
      <trkpt lat="40.446542" lon="0.454447">
        <ele>6.008</ele>
        <time>1970-01-01T02:28:12Z</time>
      </trkpt>
      <trkpt lat="40.446492" lon="0.454409">
        <ele>6.019</ele>
        <time>1970-01-01T02:28:13Z</time>
      </trkpt>
      <trkpt lat="40.446442" lon="0.454374">
        <ele>6.086</ele>
        <time>1970-01-01T02:28:14Z</time>
      </trkpt>
      <trkpt lat="40.446395" lon="0.454338">
        <ele>6.097</ele>
        <time>1970-01-01T02:28:15Z</time>
      </trkpt>
      <trkpt lat="40.446348" lon="0.454303">
        <ele>6.120</ele>
        <time>1970-01-01T02:28:16Z</time>
      </trkpt>
      <trkpt lat="40.446302" lon="0.454269">
        <ele>6.280</ele>
        <time>1970-01-01T02:28:17Z</time>
      </trkpt>
      <trkpt lat="40.446257" lon="0.454233">
        <ele>6.466</ele>
        <time>1970-01-01T02:28:18Z</time>
      </trkpt>
      <trkpt lat="40.446214" lon="0.454197">
        <ele>6.660</ele>
        <time>1970-01-01T02:28:19Z</time>
      </trkpt>
      <trkpt lat="40.446171" lon="0.454161">
        <ele>6.891</ele>
        <time>1970-01-01T02:28:20Z</time>
      </trkpt>
      <trkpt lat="40.446131" lon="0.454119">
        <ele>6.929</ele>
        <time>1970-01-01T02:28:21Z</time>
      </trkpt>
      <trkpt lat="40.446100" lon="0.454063">
        <ele>7.000</ele>
        <time>1970-01-01T02:28:22Z</time>
      </trkpt>
      <trkpt lat="40.446088" lon="0.453995">
        <ele>7.020</ele>
        <time>1970-01-01T02:28:23Z</time>
      </trkpt>
      <trkpt lat="40.446097" lon="0.453924">
        <ele>7.008</ele>
        <time>1970-01-01T02:28:24Z</time>
      </trkpt>
      <trkpt lat="40.446120" lon="0.453858">
        <ele>7.039</ele>
        <time>1970-01-01T02:28:25Z</time>
      </trkpt>
      <trkpt lat="40.446151" lon="0.453793">
        <ele>7.066</ele>
        <time>1970-01-01T02:28:26Z</time>
      </trkpt>
      <trkpt lat="40.446185" lon="0.453729">
        <ele>7.067</ele>
        <time>1970-01-01T02:28:27Z</time>
      </trkpt>
      <trkpt lat="40.446218" lon="0.453666">
        <ele>7.090</ele>
        <time>1970-01-01T02:28:28Z</time>
      </trkpt>
      <trkpt lat="40.446250" lon="0.453602">
        <ele>7.090</ele>
        <time>1970-01-01T02:28:29Z</time>
      </trkpt>
      <trkpt lat="40.446282" lon="0.453541">
        <ele>7.026</ele>
        <time>1970-01-01T02:28:30Z</time>
      </trkpt>
      <trkpt lat="40.446317" lon="0.453481">
        <ele>7.050</ele>
        <time>1970-01-01T02:28:31Z</time>
      </trkpt>
      <trkpt lat="40.446350" lon="0.453419">
        <ele>7.021</ele>
        <time>1970-01-01T02:28:32Z</time>
      </trkpt>
      <trkpt lat="40.446383" lon="0.453357">
        <ele>7.071</ele>
        <time>1970-01-01T02:28:33Z</time>
      </trkpt>
      <trkpt lat="40.446414" lon="0.453293">
        <ele>6.941</ele>
        <time>1970-01-01T02:28:34Z</time>
      </trkpt>
      <trkpt lat="40.446445" lon="0.453229">
        <ele>6.915</ele>
        <time>1970-01-01T02:28:35Z</time>
      </trkpt>
      <trkpt lat="40.446474" lon="0.453165">
        <ele>6.908</ele>
        <time>1970-01-01T02:28:36Z</time>
      </trkpt>
      <trkpt lat="40.446503" lon="0.453101">
        <ele>6.994</ele>
        <time>1970-01-01T02:28:37Z</time>
      </trkpt>
      <trkpt lat="40.446532" lon="0.453033">
        <ele>7.121</ele>
        <time>1970-01-01T02:28:38Z</time>
      </trkpt>
      <trkpt lat="40.446560" lon="0.452967">
        <ele>7.432</ele>
        <time>1970-01-01T02:28:39Z</time>
      </trkpt>
      <trkpt lat="40.446586" lon="0.452899">
        <ele>7.755</ele>
        <time>1970-01-01T02:28:40Z</time>
      </trkpt>
      <trkpt lat="40.446612" lon="0.452832">
        <ele>8.015</ele>
        <time>1970-01-01T02:28:41Z</time>
      </trkpt>
      <trkpt lat="40.446639" lon="0.452763">
        <ele>8.211</ele>
        <time>1970-01-01T02:28:42Z</time>
      </trkpt>
      <trkpt lat="40.446664" lon="0.452694">
        <ele>8.385</ele>
        <time>1970-01-01T02:28:43Z</time>
      </trkpt>
      <trkpt lat="40.446689" lon="0.452624">
        <ele>8.666</ele>
        <time>1970-01-01T02:28:44Z</time>
      </trkpt>
      <trkpt lat="40.446713" lon="0.452556">
        <ele>9.065</ele>
        <time>1970-01-01T02:28:45Z</time>
      </trkpt>
      <trkpt lat="40.446736" lon="0.452489">
        <ele>9.268</ele>
        <time>1970-01-01T02:28:46Z</time>
      </trkpt>
      <trkpt lat="40.446757" lon="0.452422">
        <ele>9.314</ele>
        <time>1970-01-01T02:28:47Z</time>
      </trkpt>
      <trkpt lat="40.446779" lon="0.452355">
        <ele>9.408</ele>
        <time>1970-01-01T02:28:48Z</time>
      </trkpt>
      <trkpt lat="40.446801" lon="0.452290">
        <ele>9.593</ele>
        <time>1970-01-01T02:28:49Z</time>
      </trkpt>
      <trkpt lat="40.446824" lon="0.452225">
        <ele>9.680</ele>
        <time>1970-01-01T02:28:50Z</time>
      </trkpt>
      <trkpt lat="40.446847" lon="0.452160">
        <ele>9.571</ele>
        <time>1970-01-01T02:28:51Z</time>
      </trkpt>
      <trkpt lat="40.446873" lon="0.452097">
        <ele>9.474</ele>
        <time>1970-01-01T02:28:52Z</time>
      </trkpt>
      <trkpt lat="40.446898" lon="0.452034">
        <ele>9.394</ele>
        <time>1970-01-01T02:28:53Z</time>
      </trkpt>
      <trkpt lat="40.446922" lon="0.451970">
        <ele>9.190</ele>
        <time>1970-01-01T02:28:54Z</time>
      </trkpt>
      <trkpt lat="40.446946" lon="0.451905">
        <ele>9.094</ele>
        <time>1970-01-01T02:28:55Z</time>
      </trkpt>
      <trkpt lat="40.446971" lon="0.451841">
        <ele>9.255</ele>
        <time>1970-01-01T02:28:56Z</time>
      </trkpt>
      <trkpt lat="40.446997" lon="0.451777">
        <ele>9.457</ele>
        <time>1970-01-01T02:28:57Z</time>
      </trkpt>
      <trkpt lat="40.447024" lon="0.451712">
        <ele>9.600</ele>
        <time>1970-01-01T02:28:58Z</time>
      </trkpt>
      <trkpt lat="40.447051" lon="0.451647">
        <ele>9.820</ele>
        <time>1970-01-01T02:28:59Z</time>
      </trkpt>
      <trkpt lat="40.447080" lon="0.451582">
        <ele>10.008</ele>
        <time>1970-01-01T02:29:00Z</time>
      </trkpt>
      <trkpt lat="40.447110" lon="0.451518">
        <ele>10.272</ele>
        <time>1970-01-01T02:29:01Z</time>
      </trkpt>
      <trkpt lat="40.447139" lon="0.451454">
        <ele>10.469</ele>
        <time>1970-01-01T02:29:02Z</time>
      </trkpt>
      <trkpt lat="40.447167" lon="0.451390">
        <ele>10.640</ele>
        <time>1970-01-01T02:29:03Z</time>
      </trkpt>
      <trkpt lat="40.447194" lon="0.451325">
        <ele>10.893</ele>
        <time>1970-01-01T02:29:04Z</time>
      </trkpt>
      <trkpt lat="40.447221" lon="0.451260">
        <ele>11.093</ele>
        <time>1970-01-01T02:29:05Z</time>
      </trkpt>
      <trkpt lat="40.447248" lon="0.451196">
        <ele>11.119</ele>
        <time>1970-01-01T02:29:06Z</time>
      </trkpt>
      <trkpt lat="40.447276" lon="0.451131">
        <ele>11.243</ele>
        <time>1970-01-01T02:29:07Z</time>
      </trkpt>
      <trkpt lat="40.447302" lon="0.451066">
        <ele>11.424</ele>
        <time>1970-01-01T02:29:08Z</time>
      </trkpt>
      <trkpt lat="40.447328" lon="0.451002">
        <ele>11.688</ele>
        <time>1970-01-01T02:29:09Z</time>
      </trkpt>
      <trkpt lat="40.447357" lon="0.450937">
        <ele>11.824</ele>
        <time>1970-01-01T02:29:10Z</time>
      </trkpt>
      <trkpt lat="40.447387" lon="0.450870">
        <ele>11.926</ele>
        <time>1970-01-01T02:29:11Z</time>
      </trkpt>
      <trkpt lat="40.447417" lon="0.450803">
        <ele>12.008</ele>
        <time>1970-01-01T02:29:12Z</time>
      </trkpt>
      <trkpt lat="40.447446" lon="0.450737">
        <ele>12.075</ele>
        <time>1970-01-01T02:29:13Z</time>
      </trkpt>
      <trkpt lat="40.447475" lon="0.450671">
        <ele>12.082</ele>
        <time>1970-01-01T02:29:14Z</time>
      </trkpt>
      <trkpt lat="40.447503" lon="0.450604">
        <ele>12.083</ele>
        <time>1970-01-01T02:29:15Z</time>
      </trkpt>
      <trkpt lat="40.447532" lon="0.450538">
        <ele>11.986</ele>
        <time>1970-01-01T02:29:16Z</time>
      </trkpt>
      <trkpt lat="40.447561" lon="0.450472">
        <ele>11.736</ele>
        <time>1970-01-01T02:29:17Z</time>
      </trkpt>
      <trkpt lat="40.447592" lon="0.450404">
        <ele>11.522</ele>
        <time>1970-01-01T02:29:18Z</time>
      </trkpt>
      <trkpt lat="40.447622" lon="0.450335">
        <ele>11.256</ele>
        <time>1970-01-01T02:29:19Z</time>
      </trkpt>
      <trkpt lat="40.447649" lon="0.450265">
        <ele>11.037</ele>
        <time>1970-01-01T02:29:20Z</time>
      </trkpt>
      <trkpt lat="40.447675" lon="0.450193">
        <ele>11.359</ele>
        <time>1970-01-01T02:29:21Z</time>
      </trkpt>
      <trkpt lat="40.447701" lon="0.450123">
        <ele>11.603</ele>
        <time>1970-01-01T02:29:22Z</time>
      </trkpt>
      <trkpt lat="40.447729" lon="0.450055">
        <ele>11.823</ele>
        <time>1970-01-01T02:29:23Z</time>
      </trkpt>
      <trkpt lat="40.447758" lon="0.449991">
        <ele>12.108</ele>
        <time>1970-01-01T02:29:24Z</time>
      </trkpt>
      <trkpt lat="40.447787" lon="0.449928">
        <ele>12.532</ele>
        <time>1970-01-01T02:29:25Z</time>
      </trkpt>
      <trkpt lat="40.447813" lon="0.449865">
        <ele>13.099</ele>
        <time>1970-01-01T02:29:26Z</time>
      </trkpt>
      <trkpt lat="40.447839" lon="0.449801">
        <ele>13.340</ele>
        <time>1970-01-01T02:29:27Z</time>
      </trkpt>
      <trkpt lat="40.447864" lon="0.449740">
        <ele>13.643</ele>
        <time>1970-01-01T02:29:28Z</time>
      </trkpt>
      <trkpt lat="40.447890" lon="0.449680">
        <ele>13.513</ele>
        <time>1970-01-01T02:29:29Z</time>
      </trkpt>
      <trkpt lat="40.447916" lon="0.449620">
        <ele>13.319</ele>
        <time>1970-01-01T02:29:30Z</time>
      </trkpt>
      <trkpt lat="40.447941" lon="0.449562">
        <ele>13.113</ele>
        <time>1970-01-01T02:29:31Z</time>
      </trkpt>
      <trkpt lat="40.447964" lon="0.449507">
        <ele>12.864</ele>
        <time>1970-01-01T02:29:32Z</time>
      </trkpt>
      <trkpt lat="40.447984" lon="0.449458">
        <ele>12.633</ele>
        <time>1970-01-01T02:29:33Z</time>
      </trkpt>
      <trkpt lat="40.448001" lon="0.449415">
        <ele>12.023</ele>
        <time>1970-01-01T02:29:34Z</time>
      </trkpt>
      <trkpt lat="40.448012" lon="0.449378">
        <ele>11.415</ele>
        <time>1970-01-01T02:29:35Z</time>
      </trkpt>
      <trkpt lat="40.448019" lon="0.449348">
        <ele>11.008</ele>
        <time>1970-01-01T02:29:36Z</time>
      </trkpt>
      <trkpt lat="40.448022" lon="0.449328">
        <ele>10.760</ele>
        <time>1970-01-01T02:29:37Z</time>
      </trkpt>
      <trkpt lat="40.448023" lon="0.449311">
        <ele>10.467</ele>
        <time>1970-01-01T02:29:38Z</time>
      </trkpt>
      <trkpt lat="40.448022" lon="0.449293">
        <ele>10.298</ele>
        <time>1970-01-01T02:29:39Z</time>
      </trkpt>
      <trkpt lat="40.448024" lon="0.449270">
        <ele>9.911</ele>
        <time>1970-01-01T02:29:40Z</time>
      </trkpt>
      <trkpt lat="40.448020" lon="0.449239">
        <ele>9.591</ele>
        <time>1970-01-01T02:29:41Z</time>
      </trkpt>
      <trkpt lat="40.448008" lon="0.449204">
        <ele>9.217</ele>
        <time>1970-01-01T02:29:42Z</time>
      </trkpt>
      <trkpt lat="40.447992" lon="0.449164">
        <ele>8.931</ele>
        <time>1970-01-01T02:29:43Z</time>
      </trkpt>
      <trkpt lat="40.447965" lon="0.449124">
        <ele>8.992</ele>
        <time>1970-01-01T02:29:44Z</time>
      </trkpt>
      <trkpt lat="40.447927" lon="0.449083">
        <ele>9.093</ele>
        <time>1970-01-01T02:29:45Z</time>
      </trkpt>
      <trkpt lat="40.447884" lon="0.449040">
        <ele>9.065</ele>
        <time>1970-01-01T02:29:46Z</time>
      </trkpt>
      <trkpt lat="40.447836" lon="0.449002">
        <ele>9.021</ele>
        <time>1970-01-01T02:29:47Z</time>
      </trkpt>
      <trkpt lat="40.447785" lon="0.448966">
        <ele>9.008</ele>
        <time>1970-01-01T02:29:48Z</time>
      </trkpt>
      <trkpt lat="40.447729" lon="0.448930">
        <ele>8.796</ele>
        <time>1970-01-01T02:29:49Z</time>
      </trkpt>
      <trkpt lat="40.447671" lon="0.448891">
        <ele>8.473</ele>
        <time>1970-01-01T02:29:50Z</time>
      </trkpt>
      <trkpt lat="40.447610" lon="0.448852">
        <ele>8.274</ele>
        <time>1970-01-01T02:29:51Z</time>
      </trkpt>
      <trkpt lat="40.447549" lon="0.448811">
        <ele>7.817</ele>
        <time>1970-01-01T02:29:52Z</time>
      </trkpt>
      <trkpt lat="40.447489" lon="0.448772">
        <ele>7.217</ele>
        <time>1970-01-01T02:29:53Z</time>
      </trkpt>
      <trkpt lat="40.447432" lon="0.448728">
        <ele>6.153</ele>
        <time>1970-01-01T02:29:54Z</time>
      </trkpt>
      <trkpt lat="40.447376" lon="0.448686">
        <ele>5.127</ele>
        <time>1970-01-01T02:29:55Z</time>
      </trkpt>
      <trkpt lat="40.447322" lon="0.448648">
        <ele>4.258</ele>
        <time>1970-01-01T02:29:56Z</time>
      </trkpt>
      <trkpt lat="40.447268" lon="0.448610">
        <ele>3.326</ele>
        <time>1970-01-01T02:29:57Z</time>
      </trkpt>
      <trkpt lat="40.447213" lon="0.448572">
        <ele>3.247</ele>
        <time>1970-01-01T02:29:58Z</time>
      </trkpt>
      <trkpt lat="40.447156" lon="0.448531">
        <ele>3.911</ele>
        <time>1970-01-01T02:29:59Z</time>
      </trkpt>
      <trkpt lat="40.447098" lon="0.448489">
        <ele>4.608</ele>
        <time>1970-01-01T02:30:00Z</time>
      </trkpt>
      <trkpt lat="40.447042" lon="0.448450">
        <ele>5.219</ele>
        <time>1970-01-01T02:30:01Z</time>
      </trkpt>
      <trkpt lat="40.446985" lon="0.448412">
        <ele>5.736</ele>
        <time>1970-01-01T02:30:02Z</time>
      </trkpt>
      <trkpt lat="40.446928" lon="0.448370">
        <ele>6.167</ele>
        <time>1970-01-01T02:30:03Z</time>
      </trkpt>
      <trkpt lat="40.446870" lon="0.448326">
        <ele>6.610</ele>
        <time>1970-01-01T02:30:04Z</time>
      </trkpt>
      <trkpt lat="40.446813" lon="0.448283">
        <ele>7.260</ele>
        <time>1970-01-01T02:30:05Z</time>
      </trkpt>
      <trkpt lat="40.446756" lon="0.448241">
        <ele>7.836</ele>
        <time>1970-01-01T02:30:06Z</time>
      </trkpt>
      <trkpt lat="40.446702" lon="0.448196">
        <ele>8.320</ele>
        <time>1970-01-01T02:30:07Z</time>
      </trkpt>
      <trkpt lat="40.446647" lon="0.448153">
        <ele>8.781</ele>
        <time>1970-01-01T02:30:08Z</time>
      </trkpt>
      <trkpt lat="40.446592" lon="0.448110">
        <ele>9.032</ele>
        <time>1970-01-01T02:30:09Z</time>
      </trkpt>
      <trkpt lat="40.446537" lon="0.448064">
        <ele>9.492</ele>
        <time>1970-01-01T02:30:10Z</time>
      </trkpt>
      <trkpt lat="40.446481" lon="0.448022">
        <ele>9.711</ele>
        <time>1970-01-01T02:30:11Z</time>
      </trkpt>
      <trkpt lat="40.446425" lon="0.447982">
        <ele>9.908</ele>
        <time>1970-01-01T02:30:12Z</time>
      </trkpt>
      <trkpt lat="40.446370" lon="0.447942">
        <ele>10.050</ele>
        <time>1970-01-01T02:30:13Z</time>
      </trkpt>
      <trkpt lat="40.446315" lon="0.447902">
        <ele>10.017</ele>
        <time>1970-01-01T02:30:14Z</time>
      </trkpt>
      <trkpt lat="40.446262" lon="0.447863">
        <ele>10.048</ele>
        <time>1970-01-01T02:30:15Z</time>
      </trkpt>
      <trkpt lat="40.446209" lon="0.447825">
        <ele>10.061</ele>
        <time>1970-01-01T02:30:16Z</time>
      </trkpt>
      <trkpt lat="40.446156" lon="0.447786">
        <ele>10.061</ele>
        <time>1970-01-01T02:30:17Z</time>
      </trkpt>
      <trkpt lat="40.446101" lon="0.447749">
        <ele>10.227</ele>
        <time>1970-01-01T02:30:18Z</time>
      </trkpt>
      <trkpt lat="40.446047" lon="0.447712">
        <ele>10.641</ele>
        <time>1970-01-01T02:30:19Z</time>
      </trkpt>
      <trkpt lat="40.445991" lon="0.447674">
        <ele>11.192</ele>
        <time>1970-01-01T02:30:20Z</time>
      </trkpt>
      <trkpt lat="40.445935" lon="0.447635">
        <ele>11.531</ele>
        <time>1970-01-01T02:30:21Z</time>
      </trkpt>
      <trkpt lat="40.445880" lon="0.447597">
        <ele>11.861</ele>
        <time>1970-01-01T02:30:22Z</time>
      </trkpt>
      <trkpt lat="40.445825" lon="0.447556">
        <ele>12.007</ele>
        <time>1970-01-01T02:30:23Z</time>
      </trkpt>
      <trkpt lat="40.445771" lon="0.447513">
        <ele>12.008</ele>
        <time>1970-01-01T02:30:24Z</time>
      </trkpt>
      <trkpt lat="40.445716" lon="0.447473">
        <ele>11.960</ele>
        <time>1970-01-01T02:30:25Z</time>
      </trkpt>
      <trkpt lat="40.445662" lon="0.447435">
        <ele>11.857</ele>
        <time>1970-01-01T02:30:26Z</time>
      </trkpt>
      <trkpt lat="40.445606" lon="0.447397">
        <ele>11.668</ele>
        <time>1970-01-01T02:30:27Z</time>
      </trkpt>
      <trkpt lat="40.445550" lon="0.447361">
        <ele>11.551</ele>
        <time>1970-01-01T02:30:28Z</time>
      </trkpt>
      <trkpt lat="40.445496" lon="0.447320">
        <ele>11.381</ele>
        <time>1970-01-01T02:30:29Z</time>
      </trkpt>
      <trkpt lat="40.445444" lon="0.447274">
        <ele>11.137</ele>
        <time>1970-01-01T02:30:30Z</time>
      </trkpt>
      <trkpt lat="40.445389" lon="0.447227">
        <ele>11.021</ele>
        <time>1970-01-01T02:30:31Z</time>
      </trkpt>
      <trkpt lat="40.445335" lon="0.447182">
        <ele>11.182</ele>
        <time>1970-01-01T02:30:32Z</time>
      </trkpt>
      <trkpt lat="40.445281" lon="0.447137">
        <ele>11.364</ele>
        <time>1970-01-01T02:30:33Z</time>
      </trkpt>
      <trkpt lat="40.445226" lon="0.447091">
        <ele>11.806</ele>
        <time>1970-01-01T02:30:34Z</time>
      </trkpt>
      <trkpt lat="40.445172" lon="0.447043">
        <ele>12.416</ele>
        <time>1970-01-01T02:30:35Z</time>
      </trkpt>
      <trkpt lat="40.445118" lon="0.446995">
        <ele>13.008</ele>
        <time>1970-01-01T02:30:36Z</time>
      </trkpt>
      <trkpt lat="40.445064" lon="0.446946">
        <ele>13.523</ele>
        <time>1970-01-01T02:30:37Z</time>
      </trkpt>
      <trkpt lat="40.445009" lon="0.446897">
        <ele>13.840</ele>
        <time>1970-01-01T02:30:38Z</time>
      </trkpt>
      <trkpt lat="40.444956" lon="0.446847">
        <ele>13.641</ele>
        <time>1970-01-01T02:30:39Z</time>
      </trkpt>
      <trkpt lat="40.444900" lon="0.446797">
        <ele>13.564</ele>
        <time>1970-01-01T02:30:40Z</time>
      </trkpt>
      <trkpt lat="40.444845" lon="0.446747">
        <ele>13.364</ele>
        <time>1970-01-01T02:30:41Z</time>
      </trkpt>
      <trkpt lat="40.444788" lon="0.446697">
        <ele>13.150</ele>
        <time>1970-01-01T02:30:42Z</time>
      </trkpt>
      <trkpt lat="40.444732" lon="0.446643">
        <ele>12.974</ele>
        <time>1970-01-01T02:30:43Z</time>
      </trkpt>
      <trkpt lat="40.444676" lon="0.446588">
        <ele>12.685</ele>
        <time>1970-01-01T02:30:44Z</time>
      </trkpt>
      <trkpt lat="40.444620" lon="0.446533">
        <ele>12.561</ele>
        <time>1970-01-01T02:30:45Z</time>
      </trkpt>
      <trkpt lat="40.444564" lon="0.446480">
        <ele>12.521</ele>
        <time>1970-01-01T02:30:46Z</time>
      </trkpt>
      <trkpt lat="40.444510" lon="0.446425">
        <ele>12.713</ele>
        <time>1970-01-01T02:30:47Z</time>
      </trkpt>
      <trkpt lat="40.444456" lon="0.446372">
        <ele>13.008</ele>
        <time>1970-01-01T02:30:48Z</time>
      </trkpt>
      <trkpt lat="40.444403" lon="0.446319">
        <ele>13.413</ele>
        <time>1970-01-01T02:30:49Z</time>
      </trkpt>
      <trkpt lat="40.444348" lon="0.446266">
        <ele>13.850</ele>
        <time>1970-01-01T02:30:50Z</time>
      </trkpt>
      <trkpt lat="40.444294" lon="0.446215">
        <ele>14.211</ele>
        <time>1970-01-01T02:30:51Z</time>
      </trkpt>
      <trkpt lat="40.444239" lon="0.446164">
        <ele>14.534</ele>
        <time>1970-01-01T02:30:52Z</time>
      </trkpt>
      <trkpt lat="40.444185" lon="0.446112">
        <ele>14.974</ele>
        <time>1970-01-01T02:30:53Z</time>
      </trkpt>
      <trkpt lat="40.444132" lon="0.446057">
        <ele>14.820</ele>
        <time>1970-01-01T02:30:54Z</time>
      </trkpt>
      <trkpt lat="40.444079" lon="0.446005">
        <ele>14.444</ele>
        <time>1970-01-01T02:30:55Z</time>
      </trkpt>
      <trkpt lat="40.444025" lon="0.445956">
        <ele>14.025</ele>
        <time>1970-01-01T02:30:56Z</time>
      </trkpt>
      <trkpt lat="40.443971" lon="0.445906">
        <ele>13.653</ele>
        <time>1970-01-01T02:30:57Z</time>
      </trkpt>
      <trkpt lat="40.443919" lon="0.445854">
        <ele>13.204</ele>
        <time>1970-01-01T02:30:58Z</time>
      </trkpt>
      <trkpt lat="40.443866" lon="0.445805">
        <ele>12.914</ele>
        <time>1970-01-01T02:30:59Z</time>
      </trkpt>
      <trkpt lat="40.443813" lon="0.445756">
        <ele>12.708</ele>
        <time>1970-01-01T02:31:00Z</time>
      </trkpt>
      <trkpt lat="40.443758" lon="0.445706">
        <ele>12.542</ele>
        <time>1970-01-01T02:31:01Z</time>
      </trkpt>
      <trkpt lat="40.443705" lon="0.445656">
        <ele>12.359</ele>
        <time>1970-01-01T02:31:02Z</time>
      </trkpt>
      <trkpt lat="40.443651" lon="0.445605">
        <ele>12.140</ele>
        <time>1970-01-01T02:31:03Z</time>
      </trkpt>
      <trkpt lat="40.443598" lon="0.445554">
        <ele>12.093</ele>
        <time>1970-01-01T02:31:04Z</time>
      </trkpt>
      <trkpt lat="40.443544" lon="0.445503">
        <ele>11.923</ele>
        <time>1970-01-01T02:31:05Z</time>
      </trkpt>
      <trkpt lat="40.443489" lon="0.445454">
        <ele>11.889</ele>
        <time>1970-01-01T02:31:06Z</time>
      </trkpt>
      <trkpt lat="40.443434" lon="0.445405">
        <ele>11.883</ele>
        <time>1970-01-01T02:31:07Z</time>
      </trkpt>
      <trkpt lat="40.443380" lon="0.445355">
        <ele>11.934</ele>
        <time>1970-01-01T02:31:08Z</time>
      </trkpt>
      <trkpt lat="40.443325" lon="0.445306">
        <ele>12.091</ele>
        <time>1970-01-01T02:31:09Z</time>
      </trkpt>
      <trkpt lat="40.443271" lon="0.445254">
        <ele>12.081</ele>
        <time>1970-01-01T02:31:10Z</time>
      </trkpt>
      <trkpt lat="40.443217" lon="0.445201">
        <ele>12.119</ele>
        <time>1970-01-01T02:31:11Z</time>
      </trkpt>
      <trkpt lat="40.443163" lon="0.445149">
        <ele>12.308</ele>
        <time>1970-01-01T02:31:12Z</time>
      </trkpt>
      <trkpt lat="40.443109" lon="0.445096">
        <ele>12.566</ele>
        <time>1970-01-01T02:31:13Z</time>
      </trkpt>
      <trkpt lat="40.443055" lon="0.445045">
        <ele>12.883</ele>
        <time>1970-01-01T02:31:14Z</time>
      </trkpt>
      <trkpt lat="40.443002" lon="0.444994">
        <ele>13.014</ele>
        <time>1970-01-01T02:31:15Z</time>
      </trkpt>
      <trkpt lat="40.442948" lon="0.444941">
        <ele>13.027</ele>
        <time>1970-01-01T02:31:16Z</time>
      </trkpt>
      <trkpt lat="40.442892" lon="0.444891">
        <ele>13.097</ele>
        <time>1970-01-01T02:31:17Z</time>
      </trkpt>
      <trkpt lat="40.442839" lon="0.444840">
        <ele>13.083</ele>
        <time>1970-01-01T02:31:18Z</time>
      </trkpt>
      <trkpt lat="40.442787" lon="0.444788">
        <ele>13.077</ele>
        <time>1970-01-01T02:31:19Z</time>
      </trkpt>
      <trkpt lat="40.442735" lon="0.444736">
        <ele>13.028</ele>
        <time>1970-01-01T02:31:20Z</time>
      </trkpt>
      <trkpt lat="40.442684" lon="0.444686">
        <ele>13.027</ele>
        <time>1970-01-01T02:31:21Z</time>
      </trkpt>
      <trkpt lat="40.442633" lon="0.444637">
        <ele>13.268</ele>
        <time>1970-01-01T02:31:22Z</time>
      </trkpt>
      <trkpt lat="40.442581" lon="0.444589">
        <ele>13.314</ele>
        <time>1970-01-01T02:31:23Z</time>
      </trkpt>
      <trkpt lat="40.442530" lon="0.444539">
        <ele>13.608</ele>
        <time>1970-01-01T02:31:24Z</time>
      </trkpt>
      <trkpt lat="40.442477" lon="0.444490">
        <ele>13.899</ele>
        <time>1970-01-01T02:31:25Z</time>
      </trkpt>
      <trkpt lat="40.442426" lon="0.444443">
        <ele>14.046</ele>
        <time>1970-01-01T02:31:26Z</time>
      </trkpt>
      <trkpt lat="40.442375" lon="0.444396">
        <ele>14.157</ele>
        <time>1970-01-01T02:31:27Z</time>
      </trkpt>
      <trkpt lat="40.442325" lon="0.444346">
        <ele>14.180</ele>
        <time>1970-01-01T02:31:28Z</time>
      </trkpt>
      <trkpt lat="40.442275" lon="0.444297">
        <ele>14.180</ele>
        <time>1970-01-01T02:31:29Z</time>
      </trkpt>
      <trkpt lat="40.442224" lon="0.444250">
        <ele>14.026</ele>
        <time>1970-01-01T02:31:30Z</time>
      </trkpt>
      <trkpt lat="40.442172" lon="0.444203">
        <ele>13.820</ele>
        <time>1970-01-01T02:31:31Z</time>
      </trkpt>
      <trkpt lat="40.442120" lon="0.444155">
        <ele>13.611</ele>
        <time>1970-01-01T02:31:32Z</time>
      </trkpt>
      <trkpt lat="40.442069" lon="0.444107">
        <ele>13.482</ele>
        <time>1970-01-01T02:31:33Z</time>
      </trkpt>
      <trkpt lat="40.442016" lon="0.444061">
        <ele>13.143</ele>
        <time>1970-01-01T02:31:34Z</time>
      </trkpt>
      <trkpt lat="40.441966" lon="0.444014">
        <ele>12.617</ele>
        <time>1970-01-01T02:31:35Z</time>
      </trkpt>
      <trkpt lat="40.441917" lon="0.443965">
        <ele>12.108</ele>
        <time>1970-01-01T02:31:36Z</time>
      </trkpt>
      <trkpt lat="40.441867" lon="0.443917">
        <ele>11.535</ele>
        <time>1970-01-01T02:31:37Z</time>
      </trkpt>
      <trkpt lat="40.441817" lon="0.443869">
        <ele>11.172</ele>
        <time>1970-01-01T02:31:38Z</time>
      </trkpt>
      <trkpt lat="40.441766" lon="0.443820">
        <ele>10.833</ele>
        <time>1970-01-01T02:31:39Z</time>
      </trkpt>
      <trkpt lat="40.441713" lon="0.443768">
        <ele>10.426</ele>
        <time>1970-01-01T02:31:40Z</time>
      </trkpt>
      <trkpt lat="40.441661" lon="0.443718">
        <ele>10.016</ele>
        <time>1970-01-01T02:31:41Z</time>
      </trkpt>
      <trkpt lat="40.441607" lon="0.443666">
        <ele>10.022</ele>
        <time>1970-01-01T02:31:42Z</time>
      </trkpt>
      <trkpt lat="40.441551" lon="0.443612">
        <ele>10.096</ele>
        <time>1970-01-01T02:31:43Z</time>
      </trkpt>
      <trkpt lat="40.441495" lon="0.443557">
        <ele>10.147</ele>
        <time>1970-01-01T02:31:44Z</time>
      </trkpt>
      <trkpt lat="40.441438" lon="0.443502">
        <ele>10.153</ele>
        <time>1970-01-01T02:31:45Z</time>
      </trkpt>
      <trkpt lat="40.441381" lon="0.443446">
        <ele>10.104</ele>
        <time>1970-01-01T02:31:46Z</time>
      </trkpt>
      <trkpt lat="40.441325" lon="0.443388">
        <ele>10.514</ele>
        <time>1970-01-01T02:31:47Z</time>
      </trkpt>
      <trkpt lat="40.441269" lon="0.443332">
        <ele>10.908</ele>
        <time>1970-01-01T02:31:48Z</time>
      </trkpt>
      <trkpt lat="40.441213" lon="0.443279">
        <ele>11.362</ele>
        <time>1970-01-01T02:31:49Z</time>
      </trkpt>
      <trkpt lat="40.441157" lon="0.443224">
        <ele>11.729</ele>
        <time>1970-01-01T02:31:50Z</time>
      </trkpt>
      <trkpt lat="40.441101" lon="0.443172">
        <ele>12.170</ele>
        <time>1970-01-01T02:31:51Z</time>
      </trkpt>
      <trkpt lat="40.441045" lon="0.443117">
        <ele>12.453</ele>
        <time>1970-01-01T02:31:52Z</time>
      </trkpt>
      <trkpt lat="40.440989" lon="0.443063">
        <ele>12.933</ele>
        <time>1970-01-01T02:31:53Z</time>
      </trkpt>
      <trkpt lat="40.440934" lon="0.443009">
        <ele>13.379</ele>
        <time>1970-01-01T02:31:54Z</time>
      </trkpt>
      <trkpt lat="40.440879" lon="0.442957">
        <ele>13.793</ele>
        <time>1970-01-01T02:31:55Z</time>
      </trkpt>
      <trkpt lat="40.440824" lon="0.442907">
        <ele>14.044</ele>
        <time>1970-01-01T02:31:56Z</time>
      </trkpt>
      <trkpt lat="40.440767" lon="0.442856">
        <ele>13.848</ele>
        <time>1970-01-01T02:31:57Z</time>
      </trkpt>
      <trkpt lat="40.440709" lon="0.442806">
        <ele>13.661</ele>
        <time>1970-01-01T02:31:58Z</time>
      </trkpt>
      <trkpt lat="40.440654" lon="0.442755">
        <ele>13.317</ele>
        <time>1970-01-01T02:31:59Z</time>
      </trkpt>
      <trkpt lat="40.440598" lon="0.442704">
        <ele>12.908</ele>
        <time>1970-01-01T02:32:00Z</time>
      </trkpt>
      <trkpt lat="40.440542" lon="0.442652">
        <ele>12.571</ele>
        <time>1970-01-01T02:32:01Z</time>
      </trkpt>
      <trkpt lat="40.440486" lon="0.442598">
        <ele>12.468</ele>
        <time>1970-01-01T02:32:02Z</time>
      </trkpt>
      <trkpt lat="40.440429" lon="0.442546">
        <ele>12.279</ele>
        <time>1970-01-01T02:32:03Z</time>
      </trkpt>
      <trkpt lat="40.440372" lon="0.442493">
        <ele>12.052</ele>
        <time>1970-01-01T02:32:04Z</time>
      </trkpt>
      <trkpt lat="40.440315" lon="0.442440">
        <ele>11.852</ele>
        <time>1970-01-01T02:32:05Z</time>
      </trkpt>
      <trkpt lat="40.440257" lon="0.442386">
        <ele>11.778</ele>
        <time>1970-01-01T02:32:06Z</time>
      </trkpt>
      <trkpt lat="40.440201" lon="0.442335">
        <ele>11.742</ele>
        <time>1970-01-01T02:32:07Z</time>
      </trkpt>
      <trkpt lat="40.440143" lon="0.442282">
        <ele>11.783</ele>
        <time>1970-01-01T02:32:08Z</time>
      </trkpt>
      <trkpt lat="40.440086" lon="0.442229">
        <ele>11.794</ele>
        <time>1970-01-01T02:32:09Z</time>
      </trkpt>
      <trkpt lat="40.440029" lon="0.442176">
        <ele>11.957</ele>
        <time>1970-01-01T02:32:10Z</time>
      </trkpt>
      <trkpt lat="40.439970" lon="0.442125">
        <ele>12.122</ele>
        <time>1970-01-01T02:32:11Z</time>
      </trkpt>
      <trkpt lat="40.439912" lon="0.442073">
        <ele>12.108</ele>
        <time>1970-01-01T02:32:12Z</time>
      </trkpt>
      <trkpt lat="40.439853" lon="0.442021">
        <ele>12.196</ele>
        <time>1970-01-01T02:32:13Z</time>
      </trkpt>
      <trkpt lat="40.439795" lon="0.441970">
        <ele>12.153</ele>
        <time>1970-01-01T02:32:14Z</time>
      </trkpt>
      <trkpt lat="40.439739" lon="0.441918">
        <ele>12.054</ele>
        <time>1970-01-01T02:32:15Z</time>
      </trkpt>
      <trkpt lat="40.439684" lon="0.441866">
        <ele>12.027</ele>
        <time>1970-01-01T02:32:16Z</time>
      </trkpt>
      <trkpt lat="40.439629" lon="0.441814">
        <ele>12.077</ele>
        <time>1970-01-01T02:32:17Z</time>
      </trkpt>
      <trkpt lat="40.439573" lon="0.441764">
        <ele>12.093</ele>
        <time>1970-01-01T02:32:18Z</time>
      </trkpt>
      <trkpt lat="40.439518" lon="0.441716">
        <ele>12.017</ele>
        <time>1970-01-01T02:32:19Z</time>
      </trkpt>
      <trkpt lat="40.439463" lon="0.441671">
        <ele>12.068</ele>
        <time>1970-01-01T02:32:20Z</time>
      </trkpt>
      <trkpt lat="40.439411" lon="0.441627">
        <ele>12.366</ele>
        <time>1970-01-01T02:32:21Z</time>
      </trkpt>
      <trkpt lat="40.439362" lon="0.441585">
        <ele>12.629</ele>
        <time>1970-01-01T02:32:22Z</time>
      </trkpt>
      <trkpt lat="40.439313" lon="0.441546">
        <ele>12.921</ele>
        <time>1970-01-01T02:32:23Z</time>
      </trkpt>
      <trkpt lat="40.439268" lon="0.441506">
        <ele>13.208</ele>
        <time>1970-01-01T02:32:24Z</time>
      </trkpt>
      <trkpt lat="40.439226" lon="0.441467">
        <ele>13.563</ele>
        <time>1970-01-01T02:32:25Z</time>
      </trkpt>
      <trkpt lat="40.439184" lon="0.441433">
        <ele>13.870</ele>
        <time>1970-01-01T02:32:26Z</time>
      </trkpt>
      <trkpt lat="40.439143" lon="0.441400">
        <ele>14.031</ele>
        <time>1970-01-01T02:32:27Z</time>
      </trkpt>
      <trkpt lat="40.439107" lon="0.441374">
        <ele>14.054</ele>
        <time>1970-01-01T02:32:28Z</time>
      </trkpt>
      <trkpt lat="40.439075" lon="0.441352">
        <ele>14.084</ele>
        <time>1970-01-01T02:32:29Z</time>
      </trkpt>
      <trkpt lat="40.439044" lon="0.441334">
        <ele>14.130</ele>
        <time>1970-01-01T02:32:30Z</time>
      </trkpt>
      <trkpt lat="40.439008" lon="0.441330">
        <ele>14.174</ele>
        <time>1970-01-01T02:32:31Z</time>
      </trkpt>
      <trkpt lat="40.438973" lon="0.441354">
        <ele>14.185</ele>
        <time>1970-01-01T02:32:32Z</time>
      </trkpt>
      <trkpt lat="40.438947" lon="0.441400">
        <ele>14.098</ele>
        <time>1970-01-01T02:32:33Z</time>
      </trkpt>
      <trkpt lat="40.438925" lon="0.441456">
        <ele>13.815</ele>
        <time>1970-01-01T02:32:34Z</time>
      </trkpt>
      <trkpt lat="40.438906" lon="0.441514">
        <ele>13.626</ele>
        <time>1970-01-01T02:32:35Z</time>
      </trkpt>
      <trkpt lat="40.438887" lon="0.441570">
        <ele>13.308</ele>
        <time>1970-01-01T02:32:36Z</time>
      </trkpt>
      <trkpt lat="40.438861" lon="0.441623">
        <ele>13.026</ele>
        <time>1970-01-01T02:32:37Z</time>
      </trkpt>
      <trkpt lat="40.438829" lon="0.441671">
        <ele>12.623</ele>
        <time>1970-01-01T02:32:38Z</time>
      </trkpt>
      <trkpt lat="40.438797" lon="0.441722">
        <ele>12.164</ele>
        <time>1970-01-01T02:32:39Z</time>
      </trkpt>
      <trkpt lat="40.438768" lon="0.441777">
        <ele>11.717</ele>
        <time>1970-01-01T02:32:40Z</time>
      </trkpt>
      <trkpt lat="40.438740" lon="0.441837">
        <ele>11.367</ele>
        <time>1970-01-01T02:32:41Z</time>
      </trkpt>
      <trkpt lat="40.438711" lon="0.441898">
        <ele>10.973</ele>
        <time>1970-01-01T02:32:42Z</time>
      </trkpt>
      <trkpt lat="40.438681" lon="0.441961">
        <ele>10.527</ele>
        <time>1970-01-01T02:32:43Z</time>
      </trkpt>
      <trkpt lat="40.438651" lon="0.442026">
        <ele>10.298</ele>
        <time>1970-01-01T02:32:44Z</time>
      </trkpt>
      <trkpt lat="40.438621" lon="0.442092">
        <ele>10.154</ele>
        <time>1970-01-01T02:32:45Z</time>
      </trkpt>
      <trkpt lat="40.438589" lon="0.442157">
        <ele>9.956</ele>
        <time>1970-01-01T02:32:46Z</time>
      </trkpt>
      <trkpt lat="40.438556" lon="0.442224">
        <ele>9.811</ele>
        <time>1970-01-01T02:32:47Z</time>
      </trkpt>
      <trkpt lat="40.438521" lon="0.442289">
        <ele>9.808</ele>
        <time>1970-01-01T02:32:48Z</time>
      </trkpt>
      <trkpt lat="40.438485" lon="0.442351">
        <ele>9.842</ele>
        <time>1970-01-01T02:32:49Z</time>
      </trkpt>
      <trkpt lat="40.438452" lon="0.442414">
        <ele>9.889</ele>
        <time>1970-01-01T02:32:50Z</time>
      </trkpt>
      <trkpt lat="40.438421" lon="0.442478">
        <ele>9.920</ele>
        <time>1970-01-01T02:32:51Z</time>
      </trkpt>
      <trkpt lat="40.438389" lon="0.442541">
        <ele>10.013</ele>
        <time>1970-01-01T02:32:52Z</time>
      </trkpt>
      <trkpt lat="40.438359" lon="0.442602">
        <ele>10.013</ele>
        <time>1970-01-01T02:32:53Z</time>
      </trkpt>
      <trkpt lat="40.438327" lon="0.442663">
        <ele>10.019</ele>
        <time>1970-01-01T02:32:54Z</time>
      </trkpt>
      <trkpt lat="40.438297" lon="0.442722">
        <ele>10.013</ele>
        <time>1970-01-01T02:32:55Z</time>
      </trkpt>
      <trkpt lat="40.438268" lon="0.442781">
        <ele>10.094</ele>
        <time>1970-01-01T02:32:56Z</time>
      </trkpt>
      <trkpt lat="40.438240" lon="0.442842">
        <ele>10.091</ele>
        <time>1970-01-01T02:32:57Z</time>
      </trkpt>
      <trkpt lat="40.438212" lon="0.442904">
        <ele>10.081</ele>
        <time>1970-01-01T02:32:58Z</time>
      </trkpt>
      <trkpt lat="40.438186" lon="0.442969">
        <ele>10.019</ele>
        <time>1970-01-01T02:32:59Z</time>
      </trkpt>
      <trkpt lat="40.438161" lon="0.443032">
        <ele>10.008</ele>
        <time>1970-01-01T02:33:00Z</time>
      </trkpt>
      <trkpt lat="40.438135" lon="0.443096">
        <ele>10.036</ele>
        <time>1970-01-01T02:33:01Z</time>
      </trkpt>
      <trkpt lat="40.438108" lon="0.443160">
        <ele>10.043</ele>
        <time>1970-01-01T02:33:02Z</time>
      </trkpt>
      <trkpt lat="40.438081" lon="0.443224">
        <ele>10.044</ele>
        <time>1970-01-01T02:33:03Z</time>
      </trkpt>
      <trkpt lat="40.438053" lon="0.443289">
        <ele>10.027</ele>
        <time>1970-01-01T02:33:04Z</time>
      </trkpt>
      <trkpt lat="40.438026" lon="0.443352">
        <ele>9.967</ele>
        <time>1970-01-01T02:33:05Z</time>
      </trkpt>
      <trkpt lat="40.437999" lon="0.443416">
        <ele>9.823</ele>
        <time>1970-01-01T02:33:06Z</time>
      </trkpt>
      <trkpt lat="40.437973" lon="0.443477">
        <ele>9.617</ele>
        <time>1970-01-01T02:33:07Z</time>
      </trkpt>
      <trkpt lat="40.437947" lon="0.443537">
        <ele>9.648</ele>
        <time>1970-01-01T02:33:08Z</time>
      </trkpt>
      <trkpt lat="40.437918" lon="0.443597">
        <ele>9.567</ele>
        <time>1970-01-01T02:33:09Z</time>
      </trkpt>
      <trkpt lat="40.437890" lon="0.443652">
        <ele>9.681</ele>
        <time>1970-01-01T02:33:10Z</time>
      </trkpt>
      <trkpt lat="40.437863" lon="0.443708">
        <ele>9.719</ele>
        <time>1970-01-01T02:33:11Z</time>
      </trkpt>
      <trkpt lat="40.437835" lon="0.443767">
        <ele>9.808</ele>
        <time>1970-01-01T02:33:12Z</time>
      </trkpt>
      <trkpt lat="40.437807" lon="0.443825">
        <ele>9.943</ele>
        <time>1970-01-01T02:33:13Z</time>
      </trkpt>
      <trkpt lat="40.437777" lon="0.443881">
        <ele>10.010</ele>
        <time>1970-01-01T02:33:14Z</time>
      </trkpt>
      <trkpt lat="40.437745" lon="0.443935">
        <ele>9.921</ele>
        <time>1970-01-01T02:33:15Z</time>
      </trkpt>
      <trkpt lat="40.437716" lon="0.443991">
        <ele>9.934</ele>
        <time>1970-01-01T02:33:16Z</time>
      </trkpt>
      <trkpt lat="40.437686" lon="0.444049">
        <ele>9.974</ele>
        <time>1970-01-01T02:33:17Z</time>
      </trkpt>
      <trkpt lat="40.437656" lon="0.444105">
        <ele>9.940</ele>
        <time>1970-01-01T02:33:18Z</time>
      </trkpt>
      <trkpt lat="40.437626" lon="0.444162">
        <ele>10.054</ele>
        <time>1970-01-01T02:33:19Z</time>
      </trkpt>
      <trkpt lat="40.437601" lon="0.444224">
        <ele>10.175</ele>
        <time>1970-01-01T02:33:20Z</time>
      </trkpt>
      <trkpt lat="40.437580" lon="0.444287">
        <ele>10.159</ele>
        <time>1970-01-01T02:33:21Z</time>
      </trkpt>
      <trkpt lat="40.437561" lon="0.444351">
        <ele>10.103</ele>
        <time>1970-01-01T02:33:22Z</time>
      </trkpt>
      <trkpt lat="40.437545" lon="0.444415">
        <ele>10.123</ele>
        <time>1970-01-01T02:33:23Z</time>
      </trkpt>
      <trkpt lat="40.437527" lon="0.444479">
        <ele>10.108</ele>
        <time>1970-01-01T02:33:24Z</time>
      </trkpt>
      <trkpt lat="40.437505" lon="0.444540">
        <ele>10.092</ele>
        <time>1970-01-01T02:33:25Z</time>
      </trkpt>
      <trkpt lat="40.437481" lon="0.444596">
        <ele>9.989</ele>
        <time>1970-01-01T02:33:26Z</time>
      </trkpt>
      <trkpt lat="40.437456" lon="0.444651">
        <ele>9.740</ele>
        <time>1970-01-01T02:33:27Z</time>
      </trkpt>
      <trkpt lat="40.437429" lon="0.444710">
        <ele>9.583</ele>
        <time>1970-01-01T02:33:28Z</time>
      </trkpt>
      <trkpt lat="40.437402" lon="0.444767">
        <ele>9.223</ele>
        <time>1970-01-01T02:33:29Z</time>
      </trkpt>
      <trkpt lat="40.437372" lon="0.444825">
        <ele>9.069</ele>
        <time>1970-01-01T02:33:30Z</time>
      </trkpt>
      <trkpt lat="40.437343" lon="0.444884">
        <ele>8.933</ele>
        <time>1970-01-01T02:33:31Z</time>
      </trkpt>
      <trkpt lat="40.437310" lon="0.444944">
        <ele>8.994</ele>
        <time>1970-01-01T02:33:32Z</time>
      </trkpt>
      <trkpt lat="40.437274" lon="0.445004">
        <ele>9.041</ele>
        <time>1970-01-01T02:33:33Z</time>
      </trkpt>
      <trkpt lat="40.437235" lon="0.445061">
        <ele>9.281</ele>
        <time>1970-01-01T02:33:34Z</time>
      </trkpt>
      <trkpt lat="40.437192" lon="0.445117">
        <ele>9.409</ele>
        <time>1970-01-01T02:33:35Z</time>
      </trkpt>
      <trkpt lat="40.437149" lon="0.445164">
        <ele>9.508</ele>
        <time>1970-01-01T02:33:36Z</time>
      </trkpt>
      <trkpt lat="40.437103" lon="0.445203">
        <ele>9.671</ele>
        <time>1970-01-01T02:33:37Z</time>
      </trkpt>
      <trkpt lat="40.437055" lon="0.445229">
        <ele>9.788</ele>
        <time>1970-01-01T02:33:38Z</time>
      </trkpt>
      <trkpt lat="40.437005" lon="0.445236">
        <ele>9.789</ele>
        <time>1970-01-01T02:33:39Z</time>
      </trkpt>
      <trkpt lat="40.436954" lon="0.445225">
        <ele>9.642</ele>
        <time>1970-01-01T02:33:40Z</time>
      </trkpt>
      <trkpt lat="40.436898" lon="0.445202">
        <ele>9.022</ele>
        <time>1970-01-01T02:33:41Z</time>
      </trkpt>
      <trkpt lat="40.436840" lon="0.445174">
        <ele>8.468</ele>
        <time>1970-01-01T02:33:42Z</time>
      </trkpt>
      <trkpt lat="40.436781" lon="0.445144">
        <ele>7.872</ele>
        <time>1970-01-01T02:33:43Z</time>
      </trkpt>
      <trkpt lat="40.436723" lon="0.445111">
        <ele>7.463</ele>
        <time>1970-01-01T02:33:44Z</time>
      </trkpt>
      <trkpt lat="40.436667" lon="0.445073">
        <ele>7.096</ele>
        <time>1970-01-01T02:33:45Z</time>
      </trkpt>
      <trkpt lat="40.436613" lon="0.445036">
        <ele>6.831</ele>
        <time>1970-01-01T02:33:46Z</time>
      </trkpt>
      <trkpt lat="40.436560" lon="0.444997">
        <ele>6.624</ele>
        <time>1970-01-01T02:33:47Z</time>
      </trkpt>
      <trkpt lat="40.436504" lon="0.444962">
        <ele>6.508</ele>
        <time>1970-01-01T02:33:48Z</time>
      </trkpt>
      <trkpt lat="40.436446" lon="0.444930">
        <ele>6.486</ele>
        <time>1970-01-01T02:33:49Z</time>
      </trkpt>
      <trkpt lat="40.436387" lon="0.444900">
        <ele>6.423</ele>
        <time>1970-01-01T02:33:50Z</time>
      </trkpt>
      <trkpt lat="40.436329" lon="0.444869">
        <ele>6.634</ele>
        <time>1970-01-01T02:33:51Z</time>
      </trkpt>
      <trkpt lat="40.436269" lon="0.444840">
        <ele>6.887</ele>
        <time>1970-01-01T02:33:52Z</time>
      </trkpt>
      <trkpt lat="40.436207" lon="0.444809">
        <ele>6.917</ele>
        <time>1970-01-01T02:33:53Z</time>
      </trkpt>
      <trkpt lat="40.436146" lon="0.444774">
        <ele>7.053</ele>
        <time>1970-01-01T02:33:54Z</time>
      </trkpt>
      <trkpt lat="40.436086" lon="0.444737">
        <ele>6.947</ele>
        <time>1970-01-01T02:33:55Z</time>
      </trkpt>
      <trkpt lat="40.436025" lon="0.444699">
        <ele>6.868</ele>
        <time>1970-01-01T02:33:56Z</time>
      </trkpt>
      <trkpt lat="40.435965" lon="0.444660">
        <ele>6.792</ele>
        <time>1970-01-01T02:33:57Z</time>
      </trkpt>
      <trkpt lat="40.435906" lon="0.444617">
        <ele>6.673</ele>
        <time>1970-01-01T02:33:58Z</time>
      </trkpt>
      <trkpt lat="40.435848" lon="0.444573">
        <ele>6.620</ele>
        <time>1970-01-01T02:33:59Z</time>
      </trkpt>
      <trkpt lat="40.435787" lon="0.444532">
        <ele>6.508</ele>
        <time>1970-01-01T02:34:00Z</time>
      </trkpt>
      <trkpt lat="40.435725" lon="0.444496">
        <ele>6.436</ele>
        <time>1970-01-01T02:34:01Z</time>
      </trkpt>
      <trkpt lat="40.435663" lon="0.444461">
        <ele>6.323</ele>
        <time>1970-01-01T02:34:02Z</time>
      </trkpt>
      <trkpt lat="40.435602" lon="0.444426">
        <ele>6.294</ele>
        <time>1970-01-01T02:34:03Z</time>
      </trkpt>
      <trkpt lat="40.435541" lon="0.444391">
        <ele>6.167</ele>
        <time>1970-01-01T02:34:04Z</time>
      </trkpt>
      <trkpt lat="40.435479" lon="0.444356">
        <ele>6.087</ele>
        <time>1970-01-01T02:34:05Z</time>
      </trkpt>
      <trkpt lat="40.435417" lon="0.444321">
        <ele>5.953</ele>
        <time>1970-01-01T02:34:06Z</time>
      </trkpt>
      <trkpt lat="40.435356" lon="0.444286">
        <ele>5.917</ele>
        <time>1970-01-01T02:34:07Z</time>
      </trkpt>
      <trkpt lat="40.435295" lon="0.444253">
        <ele>5.848</ele>
        <time>1970-01-01T02:34:08Z</time>
      </trkpt>
      <trkpt lat="40.435237" lon="0.444218">
        <ele>6.095</ele>
        <time>1970-01-01T02:34:09Z</time>
      </trkpt>
      <trkpt lat="40.435187" lon="0.444180">
        <ele>6.349</ele>
        <time>1970-01-01T02:34:10Z</time>
      </trkpt>
      <trkpt lat="40.435141" lon="0.444152">
        <ele>6.523</ele>
        <time>1970-01-01T02:34:11Z</time>
      </trkpt>
      <trkpt lat="40.435107" lon="0.444136">
        <ele>6.708</ele>
        <time>1970-01-01T02:34:12Z</time>
      </trkpt>
      <trkpt lat="40.435085" lon="0.444124">
        <ele>6.826</ele>
        <time>1970-01-01T02:34:13Z</time>
      </trkpt>
      <trkpt lat="40.435073" lon="0.444122">
        <ele>6.953</ele>
        <time>1970-01-01T02:34:14Z</time>
      </trkpt>
      <trkpt lat="40.435071" lon="0.444117">
        <ele>6.934</ele>
        <time>1970-01-01T02:34:15Z</time>
      </trkpt>
      <trkpt lat="40.435075" lon="0.444116">
        <ele>6.987</ele>
        <time>1970-01-01T02:34:16Z</time>
      </trkpt>
      <trkpt lat="40.435077" lon="0.444114">
        <ele>6.987</ele>
        <time>1970-01-01T02:34:17Z</time>
      </trkpt>
      <trkpt lat="40.435008" lon="0.444070">
        <ele>7.323</ele>
        <time>1970-01-01T02:35:59Z</time>
      </trkpt>
      <trkpt lat="40.434982" lon="0.444060">
        <ele>7.597</ele>
        <time>1970-01-01T02:36:00Z</time>
      </trkpt>
      <trkpt lat="40.434954" lon="0.444046">
        <ele>7.668</ele>
        <time>1970-01-01T02:36:01Z</time>
      </trkpt>
      <trkpt lat="40.434920" lon="0.444028">
        <ele>7.833</ele>
        <time>1970-01-01T02:36:02Z</time>
      </trkpt>
      <trkpt lat="40.434883" lon="0.444005">
        <ele>7.923</ele>
        <time>1970-01-01T02:36:03Z</time>
      </trkpt>
      <trkpt lat="40.434843" lon="0.443981">
        <ele>8.015</ele>
        <time>1970-01-01T02:36:04Z</time>
      </trkpt>
      <trkpt lat="40.434801" lon="0.443954">
        <ele>8.108</ele>
        <time>1970-01-01T02:36:05Z</time>
      </trkpt>
      <trkpt lat="40.434756" lon="0.443928">
        <ele>8.180</ele>
        <time>1970-01-01T02:36:06Z</time>
      </trkpt>
      <trkpt lat="40.434710" lon="0.443903">
        <ele>8.097</ele>
        <time>1970-01-01T02:36:07Z</time>
      </trkpt>
      <trkpt lat="40.434663" lon="0.443876">
        <ele>7.918</ele>
        <time>1970-01-01T02:36:08Z</time>
      </trkpt>
      <trkpt lat="40.434616" lon="0.443848">
        <ele>8.041</ele>
        <time>1970-01-01T02:36:09Z</time>
      </trkpt>
      <trkpt lat="40.434568" lon="0.443818">
        <ele>8.191</ele>
        <time>1970-01-01T02:36:10Z</time>
      </trkpt>
      <trkpt lat="40.434518" lon="0.443786">
        <ele>8.387</ele>
        <time>1970-01-01T02:36:11Z</time>
      </trkpt>
      <trkpt lat="40.434466" lon="0.443753">
        <ele>8.521</ele>
        <time>1970-01-01T02:36:12Z</time>
      </trkpt>
      <trkpt lat="40.434411" lon="0.443723">
        <ele>8.712</ele>
        <time>1970-01-01T02:36:13Z</time>
      </trkpt>
      <trkpt lat="40.434353" lon="0.443693">
        <ele>8.834</ele>
        <time>1970-01-01T02:36:14Z</time>
      </trkpt>
      <trkpt lat="40.434293" lon="0.443660">
        <ele>8.955</ele>
        <time>1970-01-01T02:36:15Z</time>
      </trkpt>
      <trkpt lat="40.434230" lon="0.443627">
        <ele>9.110</ele>
        <time>1970-01-01T02:36:16Z</time>
      </trkpt>
      <trkpt lat="40.434165" lon="0.443592">
        <ele>9.008</ele>
        <time>1970-01-01T02:36:17Z</time>
      </trkpt>
      <trkpt lat="40.434098" lon="0.443558">
        <ele>8.530</ele>
        <time>1970-01-01T02:36:18Z</time>
      </trkpt>
      <trkpt lat="40.434033" lon="0.443521">
        <ele>7.977</ele>
        <time>1970-01-01T02:36:19Z</time>
      </trkpt>
      <trkpt lat="40.433964" lon="0.443486">
        <ele>7.288</ele>
        <time>1970-01-01T02:36:20Z</time>
      </trkpt>
      <trkpt lat="40.433895" lon="0.443450">
        <ele>6.591</ele>
        <time>1970-01-01T02:36:21Z</time>
      </trkpt>
      <trkpt lat="40.433760" lon="0.443377">
        <ele>5.771</ele>
        <time>1970-01-01T02:36:22Z</time>
      </trkpt>
      <trkpt lat="40.433727" lon="0.443358">
        <ele>5.597</ele>
        <time>1970-01-01T02:36:23Z</time>
      </trkpt>
      <trkpt lat="40.433693" lon="0.443339">
        <ele>5.381</ele>
        <time>1970-01-01T02:36:24Z</time>
      </trkpt>
      <trkpt lat="40.433625" lon="0.443302">
        <ele>5.182</ele>
        <time>1970-01-01T02:36:25Z</time>
      </trkpt>
      <trkpt lat="40.433560" lon="0.443265">
        <ele>5.084</ele>
        <time>1970-01-01T02:36:26Z</time>
      </trkpt>
      <trkpt lat="40.433496" lon="0.443226">
        <ele>5.007</ele>
        <time>1970-01-01T02:36:27Z</time>
      </trkpt>
      <trkpt lat="40.433431" lon="0.443188">
        <ele>5.017</ele>
        <time>1970-01-01T02:36:28Z</time>
      </trkpt>
      <trkpt lat="40.433363" lon="0.443154">
        <ele>5.008</ele>
        <time>1970-01-01T02:36:29Z</time>
      </trkpt>
      <trkpt lat="40.433298" lon="0.443116">
        <ele>5.085</ele>
        <time>1970-01-01T02:36:30Z</time>
      </trkpt>
      <trkpt lat="40.433234" lon="0.443076">
        <ele>5.092</ele>
        <time>1970-01-01T02:36:31Z</time>
      </trkpt>
      <trkpt lat="40.433171" lon="0.443037">
        <ele>5.163</ele>
        <time>1970-01-01T02:36:32Z</time>
      </trkpt>
      <trkpt lat="40.433107" lon="0.443002">
        <ele>5.216</ele>
        <time>1970-01-01T02:36:33Z</time>
      </trkpt>
      <trkpt lat="40.433043" lon="0.442966">
        <ele>5.446</ele>
        <time>1970-01-01T02:36:34Z</time>
      </trkpt>
      <trkpt lat="40.432979" lon="0.442930">
        <ele>5.712</ele>
        <time>1970-01-01T02:36:35Z</time>
      </trkpt>
      <trkpt lat="40.432916" lon="0.442894">
        <ele>6.176</ele>
        <time>1970-01-01T02:36:36Z</time>
      </trkpt>
      <trkpt lat="40.432854" lon="0.442859">
        <ele>6.497</ele>
        <time>1970-01-01T02:36:37Z</time>
      </trkpt>
      <trkpt lat="40.432794" lon="0.442821">
        <ele>6.832</ele>
        <time>1970-01-01T02:36:38Z</time>
      </trkpt>
      <trkpt lat="40.432734" lon="0.442784">
        <ele>6.892</ele>
        <time>1970-01-01T02:36:39Z</time>
      </trkpt>
      <trkpt lat="40.432670" lon="0.442750">
        <ele>6.711</ele>
        <time>1970-01-01T02:36:40Z</time>
      </trkpt>
      <trkpt lat="40.432608" lon="0.442713">
        <ele>6.608</ele>
        <time>1970-01-01T02:36:41Z</time>
      </trkpt>
      <trkpt lat="40.432546" lon="0.442678">
        <ele>6.590</ele>
        <time>1970-01-01T02:36:42Z</time>
      </trkpt>
      <trkpt lat="40.432486" lon="0.442644">
        <ele>6.437</ele>
        <time>1970-01-01T02:36:43Z</time>
      </trkpt>
      <trkpt lat="40.432427" lon="0.442609">
        <ele>6.218</ele>
        <time>1970-01-01T02:36:44Z</time>
      </trkpt>
      <trkpt lat="40.432371" lon="0.442576">
        <ele>5.981</ele>
        <time>1970-01-01T02:36:45Z</time>
      </trkpt>
      <trkpt lat="40.432314" lon="0.442539">
        <ele>5.691</ele>
        <time>1970-01-01T02:36:46Z</time>
      </trkpt>
      <trkpt lat="40.432255" lon="0.442506">
        <ele>5.247</ele>
        <time>1970-01-01T02:36:47Z</time>
      </trkpt>
      <trkpt lat="40.432192" lon="0.442473">
        <ele>5.181</ele>
        <time>1970-01-01T02:36:48Z</time>
      </trkpt>
      <trkpt lat="40.432127" lon="0.442440">
        <ele>5.212</ele>
        <time>1970-01-01T02:36:49Z</time>
      </trkpt>
      <trkpt lat="40.432064" lon="0.442410">
        <ele>5.325</ele>
        <time>1970-01-01T02:36:50Z</time>
      </trkpt>
      <trkpt lat="40.432003" lon="0.442382">
        <ele>5.426</ele>
        <time>1970-01-01T02:36:51Z</time>
      </trkpt>
      <trkpt lat="40.431944" lon="0.442350">
        <ele>5.508</ele>
        <time>1970-01-01T02:36:52Z</time>
      </trkpt>
      <trkpt lat="40.431884" lon="0.442317">
        <ele>5.308</ele>
        <time>1970-01-01T02:36:53Z</time>
      </trkpt>
      <trkpt lat="40.431825" lon="0.442289">
        <ele>5.099</ele>
        <time>1970-01-01T02:36:54Z</time>
      </trkpt>
      <trkpt lat="40.431765" lon="0.442261">
        <ele>4.746</ele>
        <time>1970-01-01T02:36:55Z</time>
      </trkpt>
      <trkpt lat="40.431702" lon="0.442226">
        <ele>4.347</ele>
        <time>1970-01-01T02:36:56Z</time>
      </trkpt>
      <trkpt lat="40.431640" lon="0.442191">
        <ele>3.780</ele>
        <time>1970-01-01T02:36:57Z</time>
      </trkpt>
      <trkpt lat="40.431576" lon="0.442161">
        <ele>3.030</ele>
        <time>1970-01-01T02:36:58Z</time>
      </trkpt>
      <trkpt lat="40.431516" lon="0.442134">
        <ele>2.466</ele>
        <time>1970-01-01T02:36:59Z</time>
      </trkpt>
      <trkpt lat="40.431457" lon="0.442104">
        <ele>1.780</ele>
        <time>1970-01-01T02:37:00Z</time>
      </trkpt>
      <trkpt lat="40.431397" lon="0.442066">
        <ele>1.151</ele>
        <time>1970-01-01T02:37:01Z</time>
      </trkpt>
      <trkpt lat="40.431338" lon="0.442027">
        <ele>1.451</ele>
        <time>1970-01-01T02:37:02Z</time>
      </trkpt>
      <trkpt lat="40.431282" lon="0.441992">
        <ele>2.001</ele>
        <time>1970-01-01T02:37:03Z</time>
      </trkpt>
      <trkpt lat="40.431235" lon="0.441961">
        <ele>2.611</ele>
        <time>1970-01-01T02:37:04Z</time>
      </trkpt>
      <trkpt lat="40.431199" lon="0.441934">
        <ele>3.108</ele>
        <time>1970-01-01T02:37:05Z</time>
      </trkpt>
      <trkpt lat="40.431173" lon="0.441907">
        <ele>3.632</ele>
        <time>1970-01-01T02:37:06Z</time>
      </trkpt>
      <trkpt lat="40.431159" lon="0.441869">
        <ele>4.119</ele>
        <time>1970-01-01T02:37:07Z</time>
      </trkpt>
      <trkpt lat="40.431154" lon="0.441823">
        <ele>4.560</ele>
        <time>1970-01-01T02:37:08Z</time>
      </trkpt>
      <trkpt lat="40.431157" lon="0.441772">
        <ele>4.873</ele>
        <time>1970-01-01T02:37:09Z</time>
      </trkpt>
      <trkpt lat="40.431167" lon="0.441720">
        <ele>5.273</ele>
        <time>1970-01-01T02:37:10Z</time>
      </trkpt>
      <trkpt lat="40.431177" lon="0.441668">
        <ele>5.589</ele>
        <time>1970-01-01T02:37:11Z</time>
      </trkpt>
      <trkpt lat="40.431187" lon="0.441616">
        <ele>5.773</ele>
        <time>1970-01-01T02:37:12Z</time>
      </trkpt>
      <trkpt lat="40.431200" lon="0.441562">
        <ele>6.094</ele>
        <time>1970-01-01T02:37:13Z</time>
      </trkpt>
      <trkpt lat="40.431216" lon="0.441507">
        <ele>6.372</ele>
        <time>1970-01-01T02:37:14Z</time>
      </trkpt>
      <trkpt lat="40.431233" lon="0.441454">
        <ele>6.613</ele>
        <time>1970-01-01T02:37:15Z</time>
      </trkpt>
      <trkpt lat="40.431248" lon="0.441403">
        <ele>6.914</ele>
        <time>1970-01-01T02:37:16Z</time>
      </trkpt>
      <trkpt lat="40.431254" lon="0.441353">
        <ele>7.108</ele>
        <time>1970-01-01T02:37:17Z</time>
      </trkpt>
      <trkpt lat="40.431247" lon="0.441308">
        <ele>7.324</ele>
        <time>1970-01-01T02:37:18Z</time>
      </trkpt>
      <trkpt lat="40.431221" lon="0.441271">
        <ele>7.481</ele>
        <time>1970-01-01T02:37:19Z</time>
      </trkpt>
      <trkpt lat="40.431185" lon="0.441241">
        <ele>7.562</ele>
        <time>1970-01-01T02:37:20Z</time>
      </trkpt>
      <trkpt lat="40.431147" lon="0.441219">
        <ele>7.635</ele>
        <time>1970-01-01T02:37:21Z</time>
      </trkpt>
      <trkpt lat="40.431108" lon="0.441202">
        <ele>7.725</ele>
        <time>1970-01-01T02:37:22Z</time>
      </trkpt>
      <trkpt lat="40.431068" lon="0.441186">
        <ele>7.781</ele>
        <time>1970-01-01T02:37:23Z</time>
      </trkpt>
      <trkpt lat="40.431031" lon="0.441166">
        <ele>7.685</ele>
        <time>1970-01-01T02:37:24Z</time>
      </trkpt>
      <trkpt lat="40.430998" lon="0.441137">
        <ele>7.646</ele>
        <time>1970-01-01T02:37:25Z</time>
      </trkpt>
      <trkpt lat="40.430969" lon="0.441104">
        <ele>7.592</ele>
        <time>1970-01-01T02:37:26Z</time>
      </trkpt>
      <trkpt lat="40.430942" lon="0.441070">
        <ele>7.373</ele>
        <time>1970-01-01T02:37:27Z</time>
      </trkpt>
      <trkpt lat="40.430911" lon="0.441038">
        <ele>7.220</ele>
        <time>1970-01-01T02:37:28Z</time>
      </trkpt>
      <trkpt lat="40.430880" lon="0.441008">
        <ele>7.108</ele>
        <time>1970-01-01T02:37:29Z</time>
      </trkpt>
      <trkpt lat="40.430849" lon="0.440978">
        <ele>7.086</ele>
        <time>1970-01-01T02:37:30Z</time>
      </trkpt>
      <trkpt lat="40.430819" lon="0.440950">
        <ele>7.183</ele>
        <time>1970-01-01T02:37:31Z</time>
      </trkpt>
      <trkpt lat="40.430786" lon="0.440924">
        <ele>7.274</ele>
        <time>1970-01-01T02:37:32Z</time>
      </trkpt>
      <trkpt lat="40.430751" lon="0.440898">
        <ele>7.347</ele>
        <time>1970-01-01T02:37:33Z</time>
      </trkpt>
      <trkpt lat="40.430717" lon="0.440869">
        <ele>7.477</ele>
        <time>1970-01-01T02:37:34Z</time>
      </trkpt>
      <trkpt lat="40.430681" lon="0.440841">
        <ele>7.563</ele>
        <time>1970-01-01T02:37:35Z</time>
      </trkpt>
      <trkpt lat="40.430645" lon="0.440813">
        <ele>7.757</ele>
        <time>1970-01-01T02:37:36Z</time>
      </trkpt>
      <trkpt lat="40.430607" lon="0.440785">
        <ele>7.918</ele>
        <time>1970-01-01T02:37:37Z</time>
      </trkpt>
      <trkpt lat="40.430573" lon="0.440757">
        <ele>8.217</ele>
        <time>1970-01-01T02:37:38Z</time>
      </trkpt>
      <trkpt lat="40.430539" lon="0.440728">
        <ele>8.587</ele>
        <time>1970-01-01T02:37:39Z</time>
      </trkpt>
      <trkpt lat="40.430505" lon="0.440699">
        <ele>8.715</ele>
        <time>1970-01-01T02:37:40Z</time>
      </trkpt>
      <trkpt lat="40.430470" lon="0.440670">
        <ele>8.808</ele>
        <time>1970-01-01T02:37:41Z</time>
      </trkpt>
      <trkpt lat="40.430435" lon="0.440639">
        <ele>9.038</ele>
        <time>1970-01-01T02:37:42Z</time>
      </trkpt>
      <trkpt lat="40.430397" lon="0.440609">
        <ele>9.095</ele>
        <time>1970-01-01T02:37:43Z</time>
      </trkpt>
      <trkpt lat="40.430361" lon="0.440581">
        <ele>9.056</ele>
        <time>1970-01-01T02:37:44Z</time>
      </trkpt>
      <trkpt lat="40.430327" lon="0.440552">
        <ele>9.079</ele>
        <time>1970-01-01T02:37:45Z</time>
      </trkpt>
      <trkpt lat="40.430291" lon="0.440525">
        <ele>8.999</ele>
        <time>1970-01-01T02:37:46Z</time>
      </trkpt>
      <trkpt lat="40.430256" lon="0.440497">
        <ele>8.965</ele>
        <time>1970-01-01T02:37:47Z</time>
      </trkpt>
      <trkpt lat="40.430222" lon="0.440468">
        <ele>8.829</ele>
        <time>1970-01-01T02:37:48Z</time>
      </trkpt>
      <trkpt lat="40.430187" lon="0.440437">
        <ele>8.860</ele>
        <time>1970-01-01T02:37:49Z</time>
      </trkpt>
      <trkpt lat="40.430150" lon="0.440407">
        <ele>8.748</ele>
        <time>1970-01-01T02:37:50Z</time>
      </trkpt>
      <trkpt lat="40.430112" lon="0.440382">
        <ele>8.661</ele>
        <time>1970-01-01T02:37:51Z</time>
      </trkpt>
      <trkpt lat="40.430074" lon="0.440356">
        <ele>8.517</ele>
        <time>1970-01-01T02:37:52Z</time>
      </trkpt>
      <trkpt lat="40.430036" lon="0.440326">
        <ele>8.308</ele>
        <time>1970-01-01T02:37:53Z</time>
      </trkpt>
      <trkpt lat="40.429997" lon="0.440294">
        <ele>8.151</ele>
        <time>1970-01-01T02:37:54Z</time>
      </trkpt>
      <trkpt lat="40.429957" lon="0.440260">
        <ele>8.488</ele>
        <time>1970-01-01T02:37:55Z</time>
      </trkpt>
      <trkpt lat="40.429915" lon="0.440225">
        <ele>8.779</ele>
        <time>1970-01-01T02:37:56Z</time>
      </trkpt>
      <trkpt lat="40.429873" lon="0.440190">
        <ele>9.152</ele>
        <time>1970-01-01T02:37:57Z</time>
      </trkpt>
      <trkpt lat="40.429831" lon="0.440155">
        <ele>9.472</ele>
        <time>1970-01-01T02:37:58Z</time>
      </trkpt>
      <trkpt lat="40.429789" lon="0.440121">
        <ele>9.758</ele>
        <time>1970-01-01T02:37:59Z</time>
      </trkpt>
      <trkpt lat="40.429745" lon="0.440084">
        <ele>9.932</ele>
        <time>1970-01-01T02:38:00Z</time>
      </trkpt>
      <trkpt lat="40.429702" lon="0.440045">
        <ele>9.923</ele>
        <time>1970-01-01T02:38:01Z</time>
      </trkpt>
      <trkpt lat="40.429659" lon="0.440007">
        <ele>9.829</ele>
        <time>1970-01-01T02:38:02Z</time>
      </trkpt>
      <trkpt lat="40.429614" lon="0.439969">
        <ele>9.600</ele>
        <time>1970-01-01T02:38:03Z</time>
      </trkpt>
      <trkpt lat="40.429569" lon="0.439932">
        <ele>9.420</ele>
        <time>1970-01-01T02:38:04Z</time>
      </trkpt>
      <trkpt lat="40.429524" lon="0.439894">
        <ele>9.308</ele>
        <time>1970-01-01T02:38:05Z</time>
      </trkpt>
      <trkpt lat="40.429478" lon="0.439856">
        <ele>9.119</ele>
        <time>1970-01-01T02:38:06Z</time>
      </trkpt>
      <trkpt lat="40.429430" lon="0.439818">
        <ele>8.996</ele>
        <time>1970-01-01T02:38:07Z</time>
      </trkpt>
      <trkpt lat="40.429380" lon="0.439779">
        <ele>8.687</ele>
        <time>1970-01-01T02:38:08Z</time>
      </trkpt>
      <trkpt lat="40.429330" lon="0.439742">
        <ele>8.240</ele>
        <time>1970-01-01T02:38:09Z</time>
      </trkpt>
      <trkpt lat="40.429279" lon="0.439702">
        <ele>7.970</ele>
        <time>1970-01-01T02:38:10Z</time>
      </trkpt>
      <trkpt lat="40.429227" lon="0.439662">
        <ele>7.886</ele>
        <time>1970-01-01T02:38:11Z</time>
      </trkpt>
      <trkpt lat="40.429176" lon="0.439623">
        <ele>7.870</ele>
        <time>1970-01-01T02:38:12Z</time>
      </trkpt>
      <trkpt lat="40.429125" lon="0.439583">
        <ele>8.251</ele>
        <time>1970-01-01T02:38:13Z</time>
      </trkpt>
      <trkpt lat="40.429073" lon="0.439541">
        <ele>8.553</ele>
        <time>1970-01-01T02:38:14Z</time>
      </trkpt>
      <trkpt lat="40.429020" lon="0.439500">
        <ele>8.804</ele>
        <time>1970-01-01T02:38:15Z</time>
      </trkpt>
      <trkpt lat="40.428967" lon="0.439460">
        <ele>9.014</ele>
        <time>1970-01-01T02:38:16Z</time>
      </trkpt>
      <trkpt lat="40.428915" lon="0.439420">
        <ele>9.208</ele>
        <time>1970-01-01T02:38:17Z</time>
      </trkpt>
      <trkpt lat="40.428864" lon="0.439378">
        <ele>9.512</ele>
        <time>1970-01-01T02:38:18Z</time>
      </trkpt>
      <trkpt lat="40.428813" lon="0.439335">
        <ele>10.069</ele>
        <time>1970-01-01T02:38:19Z</time>
      </trkpt>
      <trkpt lat="40.428761" lon="0.439293">
        <ele>10.360</ele>
        <time>1970-01-01T02:38:20Z</time>
      </trkpt>
      <trkpt lat="40.428709" lon="0.439253">
        <ele>10.623</ele>
        <time>1970-01-01T02:38:21Z</time>
      </trkpt>
      <trkpt lat="40.428656" lon="0.439212">
        <ele>10.873</ele>
        <time>1970-01-01T02:38:22Z</time>
      </trkpt>
      <trkpt lat="40.428604" lon="0.439171">
        <ele>10.979</ele>
        <time>1970-01-01T02:38:23Z</time>
      </trkpt>
      <trkpt lat="40.428552" lon="0.439131">
        <ele>10.743</ele>
        <time>1970-01-01T02:38:24Z</time>
      </trkpt>
      <trkpt lat="40.428501" lon="0.439092">
        <ele>10.684</ele>
        <time>1970-01-01T02:38:25Z</time>
      </trkpt>
      <trkpt lat="40.428449" lon="0.439051">
        <ele>10.588</ele>
        <time>1970-01-01T02:38:26Z</time>
      </trkpt>
      <trkpt lat="40.428397" lon="0.439013">
        <ele>10.424</ele>
        <time>1970-01-01T02:38:27Z</time>
      </trkpt>
      <trkpt lat="40.428345" lon="0.438973">
        <ele>10.426</ele>
        <time>1970-01-01T02:38:28Z</time>
      </trkpt>
      <trkpt lat="40.428293" lon="0.438934">
        <ele>10.408</ele>
        <time>1970-01-01T02:38:29Z</time>
      </trkpt>
      <trkpt lat="40.428240" lon="0.438895">
        <ele>10.335</ele>
        <time>1970-01-01T02:38:30Z</time>
      </trkpt>
      <trkpt lat="40.428187" lon="0.438854">
        <ele>10.072</ele>
        <time>1970-01-01T02:38:31Z</time>
      </trkpt>
      <trkpt lat="40.428134" lon="0.438812">
        <ele>9.913</ele>
        <time>1970-01-01T02:38:32Z</time>
      </trkpt>
      <trkpt lat="40.428082" lon="0.438771">
        <ele>9.956</ele>
        <time>1970-01-01T02:38:33Z</time>
      </trkpt>
      <trkpt lat="40.428029" lon="0.438732">
        <ele>10.096</ele>
        <time>1970-01-01T02:38:34Z</time>
      </trkpt>
      <trkpt lat="40.427980" lon="0.438695">
        <ele>10.112</ele>
        <time>1970-01-01T02:38:35Z</time>
      </trkpt>
      <trkpt lat="40.427931" lon="0.438660">
        <ele>10.256</ele>
        <time>1970-01-01T02:38:36Z</time>
      </trkpt>
      <trkpt lat="40.427881" lon="0.438626">
        <ele>10.347</ele>
        <time>1970-01-01T02:38:37Z</time>
      </trkpt>
      <trkpt lat="40.427828" lon="0.438592">
        <ele>10.371</ele>
        <time>1970-01-01T02:38:38Z</time>
      </trkpt>
      <trkpt lat="40.427776" lon="0.438557">
        <ele>10.441</ele>
        <time>1970-01-01T02:38:39Z</time>
      </trkpt>
      <trkpt lat="40.427724" lon="0.438526">
        <ele>10.615</ele>
        <time>1970-01-01T02:38:40Z</time>
      </trkpt>
      <trkpt lat="40.427672" lon="0.438492">
        <ele>10.908</ele>
        <time>1970-01-01T02:38:41Z</time>
      </trkpt>
      <trkpt lat="40.427621" lon="0.438456">
        <ele>11.154</ele>
        <time>1970-01-01T02:38:42Z</time>
      </trkpt>
      <trkpt lat="40.427566" lon="0.438421">
        <ele>11.451</ele>
        <time>1970-01-01T02:38:43Z</time>
      </trkpt>
      <trkpt lat="40.427513" lon="0.438384">
        <ele>11.652</ele>
        <time>1970-01-01T02:38:44Z</time>
      </trkpt>
      <trkpt lat="40.427460" lon="0.438343">
        <ele>11.785</ele>
        <time>1970-01-01T02:38:45Z</time>
      </trkpt>
      <trkpt lat="40.427408" lon="0.438301">
        <ele>11.495</ele>
        <time>1970-01-01T02:38:46Z</time>
      </trkpt>
      <trkpt lat="40.427355" lon="0.438257">
        <ele>11.141</ele>
        <time>1970-01-01T02:38:47Z</time>
      </trkpt>
      <trkpt lat="40.427303" lon="0.438210">
        <ele>10.925</ele>
        <time>1970-01-01T02:38:48Z</time>
      </trkpt>
      <trkpt lat="40.427250" lon="0.438160">
        <ele>10.866</ele>
        <time>1970-01-01T02:38:49Z</time>
      </trkpt>
      <trkpt lat="40.427197" lon="0.438111">
        <ele>10.689</ele>
        <time>1970-01-01T02:38:50Z</time>
      </trkpt>
      <trkpt lat="40.427145" lon="0.438064">
        <ele>10.406</ele>
        <time>1970-01-01T02:38:51Z</time>
      </trkpt>
      <trkpt lat="40.427093" lon="0.438019">
        <ele>9.926</ele>
        <time>1970-01-01T02:38:52Z</time>
      </trkpt>
      <trkpt lat="40.427040" lon="0.437977">
        <ele>9.408</ele>
        <time>1970-01-01T02:38:53Z</time>
      </trkpt>
      <trkpt lat="40.426986" lon="0.437934">
        <ele>8.915</ele>
        <time>1970-01-01T02:38:54Z</time>
      </trkpt>
      <trkpt lat="40.426934" lon="0.437889">
        <ele>8.412</ele>
        <time>1970-01-01T02:38:55Z</time>
      </trkpt>
      <trkpt lat="40.426884" lon="0.437845">
        <ele>8.133</ele>
        <time>1970-01-01T02:38:56Z</time>
      </trkpt>
      <trkpt lat="40.426833" lon="0.437799">
        <ele>8.096</ele>
        <time>1970-01-01T02:38:57Z</time>
      </trkpt>
      <trkpt lat="40.426782" lon="0.437753">
        <ele>8.046</ele>
        <time>1970-01-01T02:38:58Z</time>
      </trkpt>
      <trkpt lat="40.426731" lon="0.437708">
        <ele>7.932</ele>
        <time>1970-01-01T02:38:59Z</time>
      </trkpt>
      <trkpt lat="40.426683" lon="0.437661">
        <ele>8.026</ele>
        <time>1970-01-01T02:39:00Z</time>
      </trkpt>
      <trkpt lat="40.426633" lon="0.437614">
        <ele>8.047</ele>
        <time>1970-01-01T02:39:01Z</time>
      </trkpt>
      <trkpt lat="40.426584" lon="0.437566">
        <ele>8.029</ele>
        <time>1970-01-01T02:39:02Z</time>
      </trkpt>
      <trkpt lat="40.426535" lon="0.437514">
        <ele>8.000</ele>
        <time>1970-01-01T02:39:03Z</time>
      </trkpt>
      <trkpt lat="40.426486" lon="0.437466">
        <ele>8.020</ele>
        <time>1970-01-01T02:39:04Z</time>
      </trkpt>
      <trkpt lat="40.426436" lon="0.437420">
        <ele>8.008</ele>
        <time>1970-01-01T02:39:05Z</time>
      </trkpt>
      <trkpt lat="40.426387" lon="0.437372">
        <ele>8.089</ele>
        <time>1970-01-01T02:39:06Z</time>
      </trkpt>
      <trkpt lat="40.426339" lon="0.437324">
        <ele>8.146</ele>
        <time>1970-01-01T02:39:07Z</time>
      </trkpt>
      <trkpt lat="40.426290" lon="0.437277">
        <ele>8.117</ele>
        <time>1970-01-01T02:39:08Z</time>
      </trkpt>
      <trkpt lat="40.426241" lon="0.437228">
        <ele>8.050</ele>
        <time>1970-01-01T02:39:09Z</time>
      </trkpt>
      <trkpt lat="40.426192" lon="0.437179">
        <ele>8.040</ele>
        <time>1970-01-01T02:39:10Z</time>
      </trkpt>
      <trkpt lat="40.426145" lon="0.437131">
        <ele>8.026</ele>
        <time>1970-01-01T02:39:11Z</time>
      </trkpt>
      <trkpt lat="40.426097" lon="0.437084">
        <ele>7.940</ele>
        <time>1970-01-01T02:39:12Z</time>
      </trkpt>
      <trkpt lat="40.426047" lon="0.437038">
        <ele>7.851</ele>
        <time>1970-01-01T02:39:13Z</time>
      </trkpt>
      <trkpt lat="40.425996" lon="0.436993">
        <ele>7.661</ele>
        <time>1970-01-01T02:39:14Z</time>
      </trkpt>
      <trkpt lat="40.425944" lon="0.436950">
        <ele>7.421</ele>
        <time>1970-01-01T02:39:15Z</time>
      </trkpt>
      <trkpt lat="40.425892" lon="0.436908">
        <ele>7.313</ele>
        <time>1970-01-01T02:39:16Z</time>
      </trkpt>
      <trkpt lat="40.425841" lon="0.436863">
        <ele>7.308</ele>
        <time>1970-01-01T02:39:17Z</time>
      </trkpt>
      <trkpt lat="40.425792" lon="0.436819">
        <ele>7.383</ele>
        <time>1970-01-01T02:39:18Z</time>
      </trkpt>
      <trkpt lat="40.425740" lon="0.436774">
        <ele>7.380</ele>
        <time>1970-01-01T02:39:19Z</time>
      </trkpt>
      <trkpt lat="40.425687" lon="0.436730">
        <ele>7.271</ele>
        <time>1970-01-01T02:39:20Z</time>
      </trkpt>
      <trkpt lat="40.425633" lon="0.436683">
        <ele>7.284</ele>
        <time>1970-01-01T02:39:21Z</time>
      </trkpt>
      <trkpt lat="40.425580" lon="0.436636">
        <ele>7.134</ele>
        <time>1970-01-01T02:39:22Z</time>
      </trkpt>
      <trkpt lat="40.425530" lon="0.436587">
        <ele>6.980</ele>
        <time>1970-01-01T02:39:23Z</time>
      </trkpt>
      <trkpt lat="40.425482" lon="0.436538">
        <ele>6.734</ele>
        <time>1970-01-01T02:39:24Z</time>
      </trkpt>
      <trkpt lat="40.425434" lon="0.436490">
        <ele>6.675</ele>
        <time>1970-01-01T02:39:25Z</time>
      </trkpt>
      <trkpt lat="40.425386" lon="0.436443">
        <ele>6.491</ele>
        <time>1970-01-01T02:39:26Z</time>
      </trkpt>
      <trkpt lat="40.425338" lon="0.436396">
        <ele>6.281</ele>
        <time>1970-01-01T02:39:27Z</time>
      </trkpt>
      <trkpt lat="40.425291" lon="0.436350">
        <ele>6.019</ele>
        <time>1970-01-01T02:39:28Z</time>
      </trkpt>
      <trkpt lat="40.425243" lon="0.436309">
        <ele>6.008</ele>
        <time>1970-01-01T02:39:29Z</time>
      </trkpt>
      <trkpt lat="40.425191" lon="0.436285">
        <ele>6.066</ele>
        <time>1970-01-01T02:39:30Z</time>
      </trkpt>
      <trkpt lat="40.425134" lon="0.436290">
        <ele>6.013</ele>
        <time>1970-01-01T02:39:31Z</time>
      </trkpt>
      <trkpt lat="40.425079" lon="0.436317">
        <ele>6.014</ele>
        <time>1970-01-01T02:39:32Z</time>
      </trkpt>
      <trkpt lat="40.425027" lon="0.436358">
        <ele>6.027</ele>
        <time>1970-01-01T02:39:33Z</time>
      </trkpt>
      <trkpt lat="40.424979" lon="0.436406">
        <ele>5.947</ele>
        <time>1970-01-01T02:39:34Z</time>
      </trkpt>
      <trkpt lat="40.424930" lon="0.436448">
        <ele>5.883</ele>
        <time>1970-01-01T02:39:35Z</time>
      </trkpt>
      <trkpt lat="40.424876" lon="0.436479">
        <ele>5.837</ele>
        <time>1970-01-01T02:39:36Z</time>
      </trkpt>
      <trkpt lat="40.424818" lon="0.436504">
        <ele>5.968</ele>
        <time>1970-01-01T02:39:37Z</time>
      </trkpt>
      <trkpt lat="40.424758" lon="0.436527">
        <ele>5.976</ele>
        <time>1970-01-01T02:39:38Z</time>
      </trkpt>
      <trkpt lat="40.424693" lon="0.436553">
        <ele>6.090</ele>
        <time>1970-01-01T02:39:39Z</time>
      </trkpt>
      <trkpt lat="40.424629" lon="0.436580">
        <ele>5.919</ele>
        <time>1970-01-01T02:39:40Z</time>
      </trkpt>
      <trkpt lat="40.424565" lon="0.436613">
        <ele>5.708</ele>
        <time>1970-01-01T02:39:41Z</time>
      </trkpt>
      <trkpt lat="40.424504" lon="0.436648">
        <ele>5.354</ele>
        <time>1970-01-01T02:39:42Z</time>
      </trkpt>
      <trkpt lat="40.424446" lon="0.436684">
        <ele>5.011</ele>
        <time>1970-01-01T02:39:43Z</time>
      </trkpt>
      <trkpt lat="40.424389" lon="0.436714">
        <ele>5.092</ele>
        <time>1970-01-01T02:39:44Z</time>
      </trkpt>
      <trkpt lat="40.424332" lon="0.436741">
        <ele>5.075</ele>
        <time>1970-01-01T02:39:45Z</time>
      </trkpt>
      <trkpt lat="40.424275" lon="0.436763">
        <ele>5.065</ele>
        <time>1970-01-01T02:39:46Z</time>
      </trkpt>
      <trkpt lat="40.424218" lon="0.436781">
        <ele>5.041</ele>
        <time>1970-01-01T02:39:47Z</time>
      </trkpt>
      <trkpt lat="40.424157" lon="0.436799">
        <ele>5.055</ele>
        <time>1970-01-01T02:39:48Z</time>
      </trkpt>
      <trkpt lat="40.424092" lon="0.436822">
        <ele>5.166</ele>
        <time>1970-01-01T02:39:49Z</time>
      </trkpt>
      <trkpt lat="40.424025" lon="0.436850">
        <ele>5.285</ele>
        <time>1970-01-01T02:39:50Z</time>
      </trkpt>
      <trkpt lat="40.423962" lon="0.436884">
        <ele>5.289</ele>
        <time>1970-01-01T02:39:51Z</time>
      </trkpt>
      <trkpt lat="40.423899" lon="0.436931">
        <ele>5.017</ele>
        <time>1970-01-01T02:39:52Z</time>
      </trkpt>
      <trkpt lat="40.423843" lon="0.436982">
        <ele>5.208</ele>
        <time>1970-01-01T02:39:53Z</time>
      </trkpt>
      <trkpt lat="40.423783" lon="0.437042">
        <ele>5.445</ele>
        <time>1970-01-01T02:39:54Z</time>
      </trkpt>
      <trkpt lat="40.423730" lon="0.437109">
        <ele>5.622</ele>
        <time>1970-01-01T02:39:55Z</time>
      </trkpt>
      <trkpt lat="40.423682" lon="0.437181">
        <ele>5.763</ele>
        <time>1970-01-01T02:39:56Z</time>
      </trkpt>
      <trkpt lat="40.423636" lon="0.437257">
        <ele>5.936</ele>
        <time>1970-01-01T02:39:57Z</time>
      </trkpt>
      <trkpt lat="40.423592" lon="0.437334">
        <ele>6.116</ele>
        <time>1970-01-01T02:39:58Z</time>
      </trkpt>
      <trkpt lat="40.423548" lon="0.437405">
        <ele>6.262</ele>
        <time>1970-01-01T02:39:59Z</time>
      </trkpt>
      <trkpt lat="40.423507" lon="0.437476">
        <ele>6.436</ele>
        <time>1970-01-01T02:40:00Z</time>
      </trkpt>
      <trkpt lat="40.423470" lon="0.437547">
        <ele>6.567</ele>
        <time>1970-01-01T02:40:01Z</time>
      </trkpt>
      <trkpt lat="40.423433" lon="0.437616">
        <ele>6.666</ele>
        <time>1970-01-01T02:40:02Z</time>
      </trkpt>
      <trkpt lat="40.423397" lon="0.437686">
        <ele>6.829</ele>
        <time>1970-01-01T02:40:03Z</time>
      </trkpt>
      <trkpt lat="40.423360" lon="0.437753">
        <ele>6.921</ele>
        <time>1970-01-01T02:40:04Z</time>
      </trkpt>
      <trkpt lat="40.423326" lon="0.437820">
        <ele>6.808</ele>
        <time>1970-01-01T02:40:05Z</time>
      </trkpt>
      <trkpt lat="40.423288" lon="0.437885">
        <ele>6.623</ele>
        <time>1970-01-01T02:40:06Z</time>
      </trkpt>
      <trkpt lat="40.423258" lon="0.437942">
        <ele>6.250</ele>
        <time>1970-01-01T02:40:07Z</time>
      </trkpt>
      <trkpt lat="40.423228" lon="0.437987">
        <ele>6.071</ele>
        <time>1970-01-01T02:40:08Z</time>
      </trkpt>
      <trkpt lat="40.423194" lon="0.438019">
        <ele>5.744</ele>
        <time>1970-01-01T02:40:09Z</time>
      </trkpt>
      <trkpt lat="40.423155" lon="0.438027">
        <ele>5.564</ele>
        <time>1970-01-01T02:40:10Z</time>
      </trkpt>
      <trkpt lat="40.423110" lon="0.438025">
        <ele>5.470</ele>
        <time>1970-01-01T02:40:11Z</time>
      </trkpt>
      <trkpt lat="40.423053" lon="0.438014">
        <ele>5.334</ele>
        <time>1970-01-01T02:40:12Z</time>
      </trkpt>
      <trkpt lat="40.422999" lon="0.438001">
        <ele>5.165</ele>
        <time>1970-01-01T02:40:13Z</time>
      </trkpt>
      <trkpt lat="40.422946" lon="0.437987">
        <ele>5.038</ele>
        <time>1970-01-01T02:40:14Z</time>
      </trkpt>
      <trkpt lat="40.422891" lon="0.437973">
        <ele>4.870</ele>
        <time>1970-01-01T02:40:15Z</time>
      </trkpt>
      <trkpt lat="40.422837" lon="0.437959">
        <ele>4.617</ele>
        <time>1970-01-01T02:40:16Z</time>
      </trkpt>
      <trkpt lat="40.422784" lon="0.437944">
        <ele>4.408</ele>
        <time>1970-01-01T02:40:17Z</time>
      </trkpt>
      <trkpt lat="40.422728" lon="0.437925">
        <ele>4.430</ele>
        <time>1970-01-01T02:40:18Z</time>
      </trkpt>
      <trkpt lat="40.422674" lon="0.437905">
        <ele>4.437</ele>
        <time>1970-01-01T02:40:19Z</time>
      </trkpt>
      <trkpt lat="40.422620" lon="0.437881">
        <ele>4.478</ele>
        <time>1970-01-01T02:40:20Z</time>
      </trkpt>
      <trkpt lat="40.422564" lon="0.437855">
        <ele>4.581</ele>
        <time>1970-01-01T02:40:21Z</time>
      </trkpt>
      <trkpt lat="40.422508" lon="0.437828">
        <ele>4.691</ele>
        <time>1970-01-01T02:40:22Z</time>
      </trkpt>
      <trkpt lat="40.422452" lon="0.437801">
        <ele>4.897</ele>
        <time>1970-01-01T02:40:23Z</time>
      </trkpt>
      <trkpt lat="40.422394" lon="0.437773">
        <ele>5.091</ele>
        <time>1970-01-01T02:40:24Z</time>
      </trkpt>
      <trkpt lat="40.422338" lon="0.437745">
        <ele>5.132</ele>
        <time>1970-01-01T02:40:25Z</time>
      </trkpt>
      <trkpt lat="40.422281" lon="0.437714">
        <ele>5.248</ele>
        <time>1970-01-01T02:40:26Z</time>
      </trkpt>
      <trkpt lat="40.422223" lon="0.437684">
        <ele>5.361</ele>
        <time>1970-01-01T02:40:27Z</time>
      </trkpt>
      <trkpt lat="40.422163" lon="0.437653">
        <ele>5.417</ele>
        <time>1970-01-01T02:40:28Z</time>
      </trkpt>
      <trkpt lat="40.422104" lon="0.437622">
        <ele>5.308</ele>
        <time>1970-01-01T02:40:29Z</time>
      </trkpt>
      <trkpt lat="40.422044" lon="0.437595">
        <ele>5.231</ele>
        <time>1970-01-01T02:40:30Z</time>
      </trkpt>
      <trkpt lat="40.421983" lon="0.437572">
        <ele>5.158</ele>
        <time>1970-01-01T02:40:31Z</time>
      </trkpt>
      <trkpt lat="40.421922" lon="0.437549">
        <ele>4.949</ele>
        <time>1970-01-01T02:40:32Z</time>
      </trkpt>
      <trkpt lat="40.421862" lon="0.437526">
        <ele>4.792</ele>
        <time>1970-01-01T02:40:33Z</time>
      </trkpt>
      <trkpt lat="40.421801" lon="0.437503">
        <ele>4.562</ele>
        <time>1970-01-01T02:40:34Z</time>
      </trkpt>
      <trkpt lat="40.421740" lon="0.437481">
        <ele>4.398</ele>
        <time>1970-01-01T02:40:35Z</time>
      </trkpt>
      <trkpt lat="40.421678" lon="0.437460">
        <ele>4.052</ele>
        <time>1970-01-01T02:40:36Z</time>
      </trkpt>
      <trkpt lat="40.421616" lon="0.437438">
        <ele>3.853</ele>
        <time>1970-01-01T02:40:37Z</time>
      </trkpt>
      <trkpt lat="40.421554" lon="0.437415">
        <ele>3.689</ele>
        <time>1970-01-01T02:40:38Z</time>
      </trkpt>
      <trkpt lat="40.421491" lon="0.437392">
        <ele>3.406</ele>
        <time>1970-01-01T02:40:39Z</time>
      </trkpt>
      <trkpt lat="40.421428" lon="0.437371">
        <ele>3.126</ele>
        <time>1970-01-01T02:40:40Z</time>
      </trkpt>
      <trkpt lat="40.421365" lon="0.437351">
        <ele>2.908</ele>
        <time>1970-01-01T02:40:41Z</time>
      </trkpt>
      <trkpt lat="40.421301" lon="0.437331">
        <ele>2.715</ele>
        <time>1970-01-01T02:40:42Z</time>
      </trkpt>
      <trkpt lat="40.421238" lon="0.437309">
        <ele>2.572</ele>
        <time>1970-01-01T02:40:43Z</time>
      </trkpt>
      <trkpt lat="40.421174" lon="0.437287">
        <ele>2.273</ele>
        <time>1970-01-01T02:40:44Z</time>
      </trkpt>
      <trkpt lat="40.421110" lon="0.437263">
        <ele>2.076</ele>
        <time>1970-01-01T02:40:45Z</time>
      </trkpt>
      <trkpt lat="40.421045" lon="0.437238">
        <ele>1.826</ele>
        <time>1970-01-01T02:40:46Z</time>
      </trkpt>
      <trkpt lat="40.420979" lon="0.437215">
        <ele>1.612</ele>
        <time>1970-01-01T02:40:47Z</time>
      </trkpt>
      <trkpt lat="40.420914" lon="0.437193">
        <ele>1.416</ele>
        <time>1970-01-01T02:40:48Z</time>
      </trkpt>
      <trkpt lat="40.420848" lon="0.437171">
        <ele>1.267</ele>
        <time>1970-01-01T02:40:49Z</time>
      </trkpt>
      <trkpt lat="40.420785" lon="0.437148">
        <ele>1.272</ele>
        <time>1970-01-01T02:40:50Z</time>
      </trkpt>
      <trkpt lat="40.420722" lon="0.437122">
        <ele>1.113</ele>
        <time>1970-01-01T02:40:51Z</time>
      </trkpt>
      <trkpt lat="40.420660" lon="0.437098">
        <ele>0.914</ele>
        <time>1970-01-01T02:40:52Z</time>
      </trkpt>
      <trkpt lat="40.420599" lon="0.437072">
        <ele>0.608</ele>
        <time>1970-01-01T02:40:53Z</time>
      </trkpt>
      <trkpt lat="40.420539" lon="0.437045">
        <ele>0.394</ele>
        <time>1970-01-01T02:40:54Z</time>
      </trkpt>
      <trkpt lat="40.420479" lon="0.437016">
        <ele>-0.041</ele>
        <time>1970-01-01T02:40:55Z</time>
      </trkpt>
      <trkpt lat="40.420421" lon="0.436986">
        <ele>-0.322</ele>
        <time>1970-01-01T02:40:56Z</time>
      </trkpt>
      <trkpt lat="40.420365" lon="0.436955">
        <ele>-0.655</ele>
        <time>1970-01-01T02:40:57Z</time>
      </trkpt>
      <trkpt lat="40.420308" lon="0.436926">
        <ele>-0.815</ele>
        <time>1970-01-01T02:40:58Z</time>
      </trkpt>
      <trkpt lat="40.420248" lon="0.436896">
        <ele>-0.671</ele>
        <time>1970-01-01T02:40:59Z</time>
      </trkpt>
      <trkpt lat="40.420182" lon="0.436865">
        <ele>-0.145</ele>
        <time>1970-01-01T02:41:00Z</time>
      </trkpt>
      <trkpt lat="40.420114" lon="0.436833">
        <ele>0.316</ele>
        <time>1970-01-01T02:41:01Z</time>
      </trkpt>
      <trkpt lat="40.420046" lon="0.436800">
        <ele>0.828</ele>
        <time>1970-01-01T02:41:02Z</time>
      </trkpt>
      <trkpt lat="40.419974" lon="0.436763">
        <ele>1.089</ele>
        <time>1970-01-01T02:41:03Z</time>
      </trkpt>
      <trkpt lat="40.419902" lon="0.436727">
        <ele>1.017</ele>
        <time>1970-01-01T02:41:04Z</time>
      </trkpt>
      <trkpt lat="40.419831" lon="0.436697">
        <ele>1.008</ele>
        <time>1970-01-01T02:41:05Z</time>
      </trkpt>
      <trkpt lat="40.419759" lon="0.436673">
        <ele>1.069</ele>
        <time>1970-01-01T02:41:06Z</time>
      </trkpt>
      <trkpt lat="40.419688" lon="0.436650">
        <ele>0.876</ele>
        <time>1970-01-01T02:41:07Z</time>
      </trkpt>
      <trkpt lat="40.419619" lon="0.436625">
        <ele>0.497</ele>
        <time>1970-01-01T02:41:08Z</time>
      </trkpt>
      <trkpt lat="40.419551" lon="0.436595">
        <ele>0.020</ele>
        <time>1970-01-01T02:41:09Z</time>
      </trkpt>
      <trkpt lat="40.419485" lon="0.436563">
        <ele>-0.370</ele>
        <time>1970-01-01T02:41:10Z</time>
      </trkpt>
      <trkpt lat="40.419419" lon="0.436528">
        <ele>-0.516</ele>
        <time>1970-01-01T02:41:11Z</time>
      </trkpt>
      <trkpt lat="40.419354" lon="0.436491">
        <ele>-0.510</ele>
        <time>1970-01-01T02:41:12Z</time>
      </trkpt>
      <trkpt lat="40.419289" lon="0.436448">
        <ele>-0.741</ele>
        <time>1970-01-01T02:41:13Z</time>
      </trkpt>
      <trkpt lat="40.419226" lon="0.436404">
        <ele>-0.974</ele>
        <time>1970-01-01T02:41:14Z</time>
      </trkpt>
      <trkpt lat="40.419166" lon="0.436356">
        <ele>-1.156</ele>
        <time>1970-01-01T02:41:15Z</time>
      </trkpt>
      <trkpt lat="40.419108" lon="0.436306">
        <ele>-0.721</ele>
        <time>1970-01-01T02:41:16Z</time>
      </trkpt>
      <trkpt lat="40.419052" lon="0.436257">
        <ele>-0.408</ele>
        <time>1970-01-01T02:41:17Z</time>
      </trkpt>
      <trkpt lat="40.419002" lon="0.436208">
        <ele>-0.384</ele>
        <time>1970-01-01T02:41:18Z</time>
      </trkpt>
      <trkpt lat="40.418960" lon="0.436165">
        <ele>-0.281</ele>
        <time>1970-01-01T02:41:19Z</time>
      </trkpt>
      <trkpt lat="40.418922" lon="0.436131">
        <ele>-0.152</ele>
        <time>1970-01-01T02:41:20Z</time>
      </trkpt>
      <trkpt lat="40.418883" lon="0.436109">
        <ele>0.075</ele>
        <time>1970-01-01T02:41:21Z</time>
      </trkpt>
      <trkpt lat="40.418838" lon="0.436096">
        <ele>0.265</ele>
        <time>1970-01-01T02:41:22Z</time>
      </trkpt>
      <trkpt lat="40.418790" lon="0.436089">
        <ele>0.411</ele>
        <time>1970-01-01T02:41:23Z</time>
      </trkpt>
      <trkpt lat="40.418735" lon="0.436088">
        <ele>0.625</ele>
        <time>1970-01-01T02:41:24Z</time>
      </trkpt>
      <trkpt lat="40.418676" lon="0.436092">
        <ele>0.846</ele>
        <time>1970-01-01T02:41:25Z</time>
      </trkpt>
      <trkpt lat="40.418617" lon="0.436097">
        <ele>1.056</ele>
        <time>1970-01-01T02:41:26Z</time>
      </trkpt>
      <trkpt lat="40.418556" lon="0.436104">
        <ele>1.059</ele>
        <time>1970-01-01T02:41:27Z</time>
      </trkpt>
      <trkpt lat="40.418494" lon="0.436113">
        <ele>1.014</ele>
        <time>1970-01-01T02:41:28Z</time>
      </trkpt>
      <trkpt lat="40.418432" lon="0.436123">
        <ele>1.008</ele>
        <time>1970-01-01T02:41:29Z</time>
      </trkpt>
      <trkpt lat="40.418370" lon="0.436127">
        <ele>1.142</ele>
        <time>1970-01-01T02:41:30Z</time>
      </trkpt>
      <trkpt lat="40.418308" lon="0.436124">
        <ele>1.059</ele>
        <time>1970-01-01T02:41:31Z</time>
      </trkpt>
      <trkpt lat="40.418245" lon="0.436119">
        <ele>1.030</ele>
        <time>1970-01-01T02:41:32Z</time>
      </trkpt>
      <trkpt lat="40.418181" lon="0.436116">
        <ele>1.013</ele>
        <time>1970-01-01T02:41:33Z</time>
      </trkpt>
      <trkpt lat="40.418118" lon="0.436113">
        <ele>1.053</ele>
        <time>1970-01-01T02:41:34Z</time>
      </trkpt>
      <trkpt lat="40.418055" lon="0.436110">
        <ele>1.099</ele>
        <time>1970-01-01T02:41:35Z</time>
      </trkpt>
      <trkpt lat="40.417991" lon="0.436107">
        <ele>1.083</ele>
        <time>1970-01-01T02:41:36Z</time>
      </trkpt>
      <trkpt lat="40.417929" lon="0.436102">
        <ele>1.014</ele>
        <time>1970-01-01T02:41:37Z</time>
      </trkpt>
      <trkpt lat="40.417866" lon="0.436093">
        <ele>1.197</ele>
        <time>1970-01-01T02:41:38Z</time>
      </trkpt>
      <trkpt lat="40.417806" lon="0.436080">
        <ele>1.123</ele>
        <time>1970-01-01T02:41:39Z</time>
      </trkpt>
      <trkpt lat="40.417746" lon="0.436060">
        <ele>1.125</ele>
        <time>1970-01-01T02:41:40Z</time>
      </trkpt>
      <trkpt lat="40.417688" lon="0.436032">
        <ele>1.008</ele>
        <time>1970-01-01T02:41:41Z</time>
      </trkpt>
      <trkpt lat="40.417634" lon="0.435993">
        <ele>0.946</ele>
        <time>1970-01-01T02:41:42Z</time>
      </trkpt>
      <trkpt lat="40.417583" lon="0.435946">
        <ele>0.973</ele>
        <time>1970-01-01T02:41:43Z</time>
      </trkpt>
      <trkpt lat="40.417538" lon="0.435893">
        <ele>0.934</ele>
        <time>1970-01-01T02:41:44Z</time>
      </trkpt>
      <trkpt lat="40.417495" lon="0.435839">
        <ele>0.927</ele>
        <time>1970-01-01T02:41:45Z</time>
      </trkpt>
      <trkpt lat="40.417451" lon="0.435785">
        <ele>1.057</ele>
        <time>1970-01-01T02:41:46Z</time>
      </trkpt>
      <trkpt lat="40.417412" lon="0.435729">
        <ele>1.193</ele>
        <time>1970-01-01T02:41:47Z</time>
      </trkpt>
      <trkpt lat="40.417375" lon="0.435670">
        <ele>1.377</ele>
        <time>1970-01-01T02:41:48Z</time>
      </trkpt>
      <trkpt lat="40.417345" lon="0.435606">
        <ele>1.518</ele>
        <time>1970-01-01T02:41:49Z</time>
      </trkpt>
      <trkpt lat="40.417323" lon="0.435531">
        <ele>1.846</ele>
        <time>1970-01-01T02:41:50Z</time>
      </trkpt>
      <trkpt lat="40.417306" lon="0.435453">
        <ele>1.988</ele>
        <time>1970-01-01T02:41:51Z</time>
      </trkpt>
      <trkpt lat="40.417295" lon="0.435373">
        <ele>2.016</ele>
        <time>1970-01-01T02:41:52Z</time>
      </trkpt>
      <trkpt lat="40.417281" lon="0.435294">
        <ele>2.208</ele>
        <time>1970-01-01T02:41:53Z</time>
      </trkpt>
      <trkpt lat="40.417265" lon="0.435215">
        <ele>2.481</ele>
        <time>1970-01-01T02:41:54Z</time>
      </trkpt>
      <trkpt lat="40.417244" lon="0.435137">
        <ele>2.698</ele>
        <time>1970-01-01T02:41:55Z</time>
      </trkpt>
      <trkpt lat="40.417219" lon="0.435065">
        <ele>2.839</ele>
        <time>1970-01-01T02:41:56Z</time>
      </trkpt>
      <trkpt lat="40.417188" lon="0.434998">
        <ele>3.192</ele>
        <time>1970-01-01T02:41:57Z</time>
      </trkpt>
      <trkpt lat="40.417153" lon="0.434934">
        <ele>3.772</ele>
        <time>1970-01-01T02:41:58Z</time>
      </trkpt>
      <trkpt lat="40.417116" lon="0.434868">
        <ele>4.328</ele>
        <time>1970-01-01T02:41:59Z</time>
      </trkpt>
      <trkpt lat="40.417080" lon="0.434802">
        <ele>4.952</ele>
        <time>1970-01-01T02:42:00Z</time>
      </trkpt>
      <trkpt lat="40.417043" lon="0.434741">
        <ele>5.553</ele>
        <time>1970-01-01T02:42:01Z</time>
      </trkpt>
      <trkpt lat="40.417003" lon="0.434678">
        <ele>6.184</ele>
        <time>1970-01-01T02:42:02Z</time>
      </trkpt>
      <trkpt lat="40.416963" lon="0.434612">
        <ele>6.707</ele>
        <time>1970-01-01T02:42:03Z</time>
      </trkpt>
      <trkpt lat="40.416925" lon="0.434548">
        <ele>7.217</ele>
        <time>1970-01-01T02:42:04Z</time>
      </trkpt>
      <trkpt lat="40.416886" lon="0.434487">
        <ele>7.508</ele>
        <time>1970-01-01T02:42:05Z</time>
      </trkpt>
      <trkpt lat="40.416846" lon="0.434427">
        <ele>7.655</ele>
        <time>1970-01-01T02:42:06Z</time>
      </trkpt>
      <trkpt lat="40.416806" lon="0.434369">
        <ele>7.592</ele>
        <time>1970-01-01T02:42:07Z</time>
      </trkpt>
      <trkpt lat="40.416766" lon="0.434309">
        <ele>7.593</ele>
        <time>1970-01-01T02:42:08Z</time>
      </trkpt>
      <trkpt lat="40.416725" lon="0.434250">
        <ele>7.686</ele>
        <time>1970-01-01T02:42:09Z</time>
      </trkpt>
      <trkpt lat="40.416687" lon="0.434189">
        <ele>7.996</ele>
        <time>1970-01-01T02:42:10Z</time>
      </trkpt>
      <trkpt lat="40.416649" lon="0.434130">
        <ele>7.682</ele>
        <time>1970-01-01T02:42:11Z</time>
      </trkpt>
      <trkpt lat="40.416612" lon="0.434069">
        <ele>7.186</ele>
        <time>1970-01-01T02:42:12Z</time>
      </trkpt>
      <trkpt lat="40.416577" lon="0.434007">
        <ele>6.827</ele>
        <time>1970-01-01T02:42:13Z</time>
      </trkpt>
      <trkpt lat="40.416544" lon="0.433941">
        <ele>6.649</ele>
        <time>1970-01-01T02:42:14Z</time>
      </trkpt>
      <trkpt lat="40.416512" lon="0.433873">
        <ele>6.502</ele>
        <time>1970-01-01T02:42:15Z</time>
      </trkpt>
      <trkpt lat="40.416479" lon="0.433804">
        <ele>6.222</ele>
        <time>1970-01-01T02:42:16Z</time>
      </trkpt>
      <trkpt lat="40.416444" lon="0.433739">
        <ele>5.808</ele>
        <time>1970-01-01T02:42:17Z</time>
      </trkpt>
      <trkpt lat="40.416407" lon="0.433675">
        <ele>5.431</ele>
        <time>1970-01-01T02:42:18Z</time>
      </trkpt>
      <trkpt lat="40.416367" lon="0.433610">
        <ele>5.198</ele>
        <time>1970-01-01T02:42:19Z</time>
      </trkpt>
      <trkpt lat="40.416331" lon="0.433546">
        <ele>5.429</ele>
        <time>1970-01-01T02:42:20Z</time>
      </trkpt>
      <trkpt lat="40.416295" lon="0.433485">
        <ele>5.872</ele>
        <time>1970-01-01T02:42:21Z</time>
      </trkpt>
      <trkpt lat="40.416258" lon="0.433425">
        <ele>6.132</ele>
        <time>1970-01-01T02:42:22Z</time>
      </trkpt>
      <trkpt lat="40.416215" lon="0.433366">
        <ele>6.548</ele>
        <time>1970-01-01T02:42:23Z</time>
      </trkpt>
      <trkpt lat="40.416178" lon="0.433303">
        <ele>7.192</ele>
        <time>1970-01-01T02:42:24Z</time>
      </trkpt>
      <trkpt lat="40.416144" lon="0.433241">
        <ele>7.833</ele>
        <time>1970-01-01T02:42:25Z</time>
      </trkpt>
      <trkpt lat="40.416109" lon="0.433177">
        <ele>8.756</ele>
        <time>1970-01-01T02:42:26Z</time>
      </trkpt>
      <trkpt lat="40.416074" lon="0.433114">
        <ele>9.559</ele>
        <time>1970-01-01T02:42:27Z</time>
      </trkpt>
      <trkpt lat="40.416037" lon="0.433054">
        <ele>10.314</ele>
        <time>1970-01-01T02:42:28Z</time>
      </trkpt>
      <trkpt lat="40.416000" lon="0.432996">
        <ele>10.908</ele>
        <time>1970-01-01T02:42:29Z</time>
      </trkpt>
      <trkpt lat="40.415963" lon="0.432938">
        <ele>11.422</ele>
        <time>1970-01-01T02:42:30Z</time>
      </trkpt>
      <trkpt lat="40.415929" lon="0.432879">
        <ele>11.779</ele>
        <time>1970-01-01T02:42:31Z</time>
      </trkpt>
      <trkpt lat="40.415897" lon="0.432817">
        <ele>12.030</ele>
        <time>1970-01-01T02:42:32Z</time>
      </trkpt>
      <trkpt lat="40.415863" lon="0.432758">
        <ele>12.083</ele>
        <time>1970-01-01T02:42:33Z</time>
      </trkpt>
      <trkpt lat="40.415825" lon="0.432704">
        <ele>11.723</ele>
        <time>1970-01-01T02:42:34Z</time>
      </trkpt>
      <trkpt lat="40.415787" lon="0.432647">
        <ele>11.359</ele>
        <time>1970-01-01T02:42:35Z</time>
      </trkpt>
      <trkpt lat="40.415744" lon="0.432592">
        <ele>10.813</ele>
        <time>1970-01-01T02:42:36Z</time>
      </trkpt>
      <trkpt lat="40.415698" lon="0.432542">
        <ele>10.244</ele>
        <time>1970-01-01T02:42:37Z</time>
      </trkpt>
      <trkpt lat="40.415650" lon="0.432495">
        <ele>9.755</ele>
        <time>1970-01-01T02:42:38Z</time>
      </trkpt>
      <trkpt lat="40.415601" lon="0.432450">
        <ele>9.107</ele>
        <time>1970-01-01T02:42:39Z</time>
      </trkpt>
      <trkpt lat="40.415551" lon="0.432403">
        <ele>8.617</ele>
        <time>1970-01-01T02:42:40Z</time>
      </trkpt>
      <trkpt lat="40.415502" lon="0.432356">
        <ele>8.108</ele>
        <time>1970-01-01T02:42:41Z</time>
      </trkpt>
      <trkpt lat="40.415452" lon="0.432305">
        <ele>7.692</ele>
        <time>1970-01-01T02:42:42Z</time>
      </trkpt>
      <trkpt lat="40.415399" lon="0.432256">
        <ele>7.019</ele>
        <time>1970-01-01T02:42:43Z</time>
      </trkpt>
      <trkpt lat="40.415347" lon="0.432211">
        <ele>6.510</ele>
        <time>1970-01-01T02:42:44Z</time>
      </trkpt>
      <trkpt lat="40.415297" lon="0.432163">
        <ele>6.173</ele>
        <time>1970-01-01T02:42:45Z</time>
      </trkpt>
      <trkpt lat="40.415246" lon="0.432118">
        <ele>5.853</ele>
        <time>1970-01-01T02:42:46Z</time>
      </trkpt>
      <trkpt lat="40.415192" lon="0.432072">
        <ele>5.549</ele>
        <time>1970-01-01T02:42:47Z</time>
      </trkpt>
      <trkpt lat="40.415142" lon="0.432020">
        <ele>5.413</ele>
        <time>1970-01-01T02:42:48Z</time>
      </trkpt>
      <trkpt lat="40.415095" lon="0.431969">
        <ele>5.354</ele>
        <time>1970-01-01T02:42:49Z</time>
      </trkpt>
      <trkpt lat="40.415047" lon="0.431919">
        <ele>5.272</ele>
        <time>1970-01-01T02:42:50Z</time>
      </trkpt>
      <trkpt lat="40.414997" lon="0.431871">
        <ele>5.313</ele>
        <time>1970-01-01T02:42:51Z</time>
      </trkpt>
      <trkpt lat="40.414945" lon="0.431829">
        <ele>5.214</ele>
        <time>1970-01-01T02:42:52Z</time>
      </trkpt>
      <trkpt lat="40.414892" lon="0.431784">
        <ele>5.208</ele>
        <time>1970-01-01T02:42:53Z</time>
      </trkpt>
      <trkpt lat="40.414838" lon="0.431743">
        <ele>5.184</ele>
        <time>1970-01-01T02:42:54Z</time>
      </trkpt>
      <trkpt lat="40.414786" lon="0.431701">
        <ele>5.181</ele>
        <time>1970-01-01T02:42:55Z</time>
      </trkpt>
      <trkpt lat="40.414734" lon="0.431663">
        <ele>5.142</ele>
        <time>1970-01-01T02:42:56Z</time>
      </trkpt>
      <trkpt lat="40.414681" lon="0.431622">
        <ele>5.595</ele>
        <time>1970-01-01T02:42:57Z</time>
      </trkpt>
      <trkpt lat="40.414630" lon="0.431583">
        <ele>6.065</ele>
        <time>1970-01-01T02:42:58Z</time>
      </trkpt>
      <trkpt lat="40.414579" lon="0.431544">
        <ele>6.591</ele>
        <time>1970-01-01T02:42:59Z</time>
      </trkpt>
      <trkpt lat="40.414528" lon="0.431508">
        <ele>7.045</ele>
        <time>1970-01-01T02:43:00Z</time>
      </trkpt>
      <trkpt lat="40.414478" lon="0.431473">
        <ele>7.576</ele>
        <time>1970-01-01T02:43:01Z</time>
      </trkpt>
      <trkpt lat="40.414428" lon="0.431433">
        <ele>7.844</ele>
        <time>1970-01-01T02:43:02Z</time>
      </trkpt>
      <trkpt lat="40.414380" lon="0.431395">
        <ele>7.705</ele>
        <time>1970-01-01T02:43:03Z</time>
      </trkpt>
      <trkpt lat="40.414330" lon="0.431354">
        <ele>7.615</ele>
        <time>1970-01-01T02:43:04Z</time>
      </trkpt>
      <trkpt lat="40.414278" lon="0.431311">
        <ele>7.408</ele>
        <time>1970-01-01T02:43:05Z</time>
      </trkpt>
      <trkpt lat="40.414225" lon="0.431271">
        <ele>7.231</ele>
        <time>1970-01-01T02:43:06Z</time>
      </trkpt>
      <trkpt lat="40.414173" lon="0.431230">
        <ele>7.048</ele>
        <time>1970-01-01T02:43:07Z</time>
      </trkpt>
      <trkpt lat="40.414131" lon="0.431190">
        <ele>6.759</ele>
        <time>1970-01-01T02:43:08Z</time>
      </trkpt>
      <trkpt lat="40.414084" lon="0.431151">
        <ele>6.462</ele>
        <time>1970-01-01T02:43:09Z</time>
      </trkpt>
      <trkpt lat="40.414042" lon="0.431113">
        <ele>6.192</ele>
        <time>1970-01-01T02:43:10Z</time>
      </trkpt>
      <trkpt lat="40.413994" lon="0.431078">
        <ele>5.648</ele>
        <time>1970-01-01T02:43:11Z</time>
      </trkpt>
      <trkpt lat="40.413944" lon="0.431042">
        <ele>5.182</ele>
        <time>1970-01-01T02:43:12Z</time>
      </trkpt>
      <trkpt lat="40.413894" lon="0.431004">
        <ele>4.723</ele>
        <time>1970-01-01T02:43:13Z</time>
      </trkpt>
      <trkpt lat="40.413843" lon="0.430966">
        <ele>4.517</ele>
        <time>1970-01-01T02:43:14Z</time>
      </trkpt>
      <trkpt lat="40.413791" lon="0.430929">
        <ele>4.587</ele>
        <time>1970-01-01T02:43:15Z</time>
      </trkpt>
      <trkpt lat="40.413740" lon="0.430894">
        <ele>4.515</ele>
        <time>1970-01-01T02:43:16Z</time>
      </trkpt>
      <trkpt lat="40.413687" lon="0.430865">
        <ele>4.708</ele>
        <time>1970-01-01T02:43:17Z</time>
      </trkpt>
      <trkpt lat="40.413631" lon="0.430834">
        <ele>4.958</ele>
        <time>1970-01-01T02:43:18Z</time>
      </trkpt>
      <trkpt lat="40.413578" lon="0.430800">
        <ele>5.625</ele>
        <time>1970-01-01T02:43:19Z</time>
      </trkpt>
      <trkpt lat="40.413526" lon="0.430767">
        <ele>6.426</ele>
        <time>1970-01-01T02:43:20Z</time>
      </trkpt>
      <trkpt lat="40.413473" lon="0.430739">
        <ele>7.289</ele>
        <time>1970-01-01T02:43:21Z</time>
      </trkpt>
      <trkpt lat="40.413418" lon="0.430715">
        <ele>7.929</ele>
        <time>1970-01-01T02:43:22Z</time>
      </trkpt>
      <trkpt lat="40.413373" lon="0.430690">
        <ele>8.695</ele>
        <time>1970-01-01T02:43:23Z</time>
      </trkpt>
      <trkpt lat="40.413326" lon="0.430659">
        <ele>9.329</ele>
        <time>1970-01-01T02:43:24Z</time>
      </trkpt>
      <trkpt lat="40.413275" lon="0.430635">
        <ele>9.840</ele>
        <time>1970-01-01T02:43:25Z</time>
      </trkpt>
      <trkpt lat="40.413220" lon="0.430615">
        <ele>10.359</ele>
        <time>1970-01-01T02:43:26Z</time>
      </trkpt>
      <trkpt lat="40.413165" lon="0.430593">
        <ele>10.903</ele>
        <time>1970-01-01T02:43:27Z</time>
      </trkpt>
      <trkpt lat="40.413117" lon="0.430569">
        <ele>11.423</ele>
        <time>1970-01-01T02:43:28Z</time>
      </trkpt>
      <trkpt lat="40.413063" lon="0.430549">
        <ele>12.008</ele>
        <time>1970-01-01T02:43:29Z</time>
      </trkpt>
      <trkpt lat="40.413008" lon="0.430524">
        <ele>12.892</ele>
        <time>1970-01-01T02:43:30Z</time>
      </trkpt>
      <trkpt lat="40.412954" lon="0.430496">
        <ele>13.769</ele>
        <time>1970-01-01T02:43:31Z</time>
      </trkpt>
      <trkpt lat="40.412900" lon="0.430471">
        <ele>14.580</ele>
        <time>1970-01-01T02:43:32Z</time>
      </trkpt>
      <trkpt lat="40.412845" lon="0.430445">
        <ele>15.473</ele>
        <time>1970-01-01T02:43:33Z</time>
      </trkpt>
      <trkpt lat="40.412791" lon="0.430414">
        <ele>16.333</ele>
        <time>1970-01-01T02:43:34Z</time>
      </trkpt>
      <trkpt lat="40.412738" lon="0.430382">
        <ele>17.599</ele>
        <time>1970-01-01T02:43:35Z</time>
      </trkpt>
      <trkpt lat="40.412686" lon="0.430349">
        <ele>18.793</ele>
        <time>1970-01-01T02:43:36Z</time>
      </trkpt>
      <trkpt lat="40.412634" lon="0.430311">
        <ele>20.064</ele>
        <time>1970-01-01T02:43:37Z</time>
      </trkpt>
      <trkpt lat="40.412584" lon="0.430270">
        <ele>21.134</ele>
        <time>1970-01-01T02:43:38Z</time>
      </trkpt>
      <trkpt lat="40.412538" lon="0.430225">
        <ele>21.655</ele>
        <time>1970-01-01T02:43:39Z</time>
      </trkpt>
      <trkpt lat="40.412491" lon="0.430182">
        <ele>22.010</ele>
        <time>1970-01-01T02:43:40Z</time>
      </trkpt>
      <trkpt lat="40.412447" lon="0.430131">
        <ele>21.608</ele>
        <time>1970-01-01T02:43:41Z</time>
      </trkpt>
      <trkpt lat="40.412398" lon="0.430084">
        <ele>21.340</ele>
        <time>1970-01-01T02:43:42Z</time>
      </trkpt>
      <trkpt lat="40.412352" lon="0.430035">
        <ele>20.917</ele>
        <time>1970-01-01T02:43:43Z</time>
      </trkpt>
      <trkpt lat="40.412310" lon="0.429986">
        <ele>20.458</ele>
        <time>1970-01-01T02:43:44Z</time>
      </trkpt>
      <trkpt lat="40.412268" lon="0.429934">
        <ele>19.691</ele>
        <time>1970-01-01T02:43:45Z</time>
      </trkpt>
      <trkpt lat="40.412229" lon="0.429881">
        <ele>18.831</ele>
        <time>1970-01-01T02:43:46Z</time>
      </trkpt>
      <trkpt lat="40.412189" lon="0.429831">
        <ele>17.747</ele>
        <time>1970-01-01T02:43:47Z</time>
      </trkpt>
      <trkpt lat="40.412157" lon="0.429777">
        <ele>16.561</ele>
        <time>1970-01-01T02:43:48Z</time>
      </trkpt>
      <trkpt lat="40.412133" lon="0.429721">
        <ele>15.372</ele>
        <time>1970-01-01T02:43:49Z</time>
      </trkpt>
      <trkpt lat="40.412124" lon="0.429657">
        <ele>14.596</ele>
        <time>1970-01-01T02:43:50Z</time>
      </trkpt>
      <trkpt lat="40.412129" lon="0.429584">
        <ele>13.731</ele>
        <time>1970-01-01T02:43:51Z</time>
      </trkpt>
      <trkpt lat="40.412145" lon="0.429520">
        <ele>12.924</ele>
        <time>1970-01-01T02:43:52Z</time>
      </trkpt>
      <trkpt lat="40.412171" lon="0.429456">
        <ele>12.208</ele>
        <time>1970-01-01T02:43:53Z</time>
      </trkpt>
      <trkpt lat="40.412202" lon="0.429394">
        <ele>11.616</ele>
        <time>1970-01-01T02:43:54Z</time>
      </trkpt>
      <trkpt lat="40.412232" lon="0.429334">
        <ele>11.213</ele>
        <time>1970-01-01T02:43:55Z</time>
      </trkpt>
      <trkpt lat="40.412265" lon="0.429279">
        <ele>11.034</ele>
        <time>1970-01-01T02:43:56Z</time>
      </trkpt>
      <trkpt lat="40.412302" lon="0.429229">
        <ele>10.747</ele>
        <time>1970-01-01T02:43:57Z</time>
      </trkpt>
      <trkpt lat="40.412339" lon="0.429185">
        <ele>10.667</ele>
        <time>1970-01-01T02:43:58Z</time>
      </trkpt>
      <trkpt lat="40.412374" lon="0.429139">
        <ele>10.483</ele>
        <time>1970-01-01T02:43:59Z</time>
      </trkpt>
      <trkpt lat="40.412409" lon="0.429100">
        <ele>10.417</ele>
        <time>1970-01-01T02:44:00Z</time>
      </trkpt>
      <trkpt lat="40.412437" lon="0.429058">
        <ele>10.368</ele>
        <time>1970-01-01T02:44:01Z</time>
      </trkpt>
      <trkpt lat="40.412469" lon="0.429022">
        <ele>10.327</ele>
        <time>1970-01-01T02:44:02Z</time>
      </trkpt>
      <trkpt lat="40.412502" lon="0.428984">
        <ele>10.368</ele>
        <time>1970-01-01T02:44:03Z</time>
      </trkpt>
      <trkpt lat="40.412536" lon="0.428946">
        <ele>10.314</ele>
        <time>1970-01-01T02:44:04Z</time>
      </trkpt>
      <trkpt lat="40.412570" lon="0.428907">
        <ele>10.108</ele>
        <time>1970-01-01T02:44:05Z</time>
      </trkpt>
      <trkpt lat="40.412607" lon="0.428873">
        <ele>9.919</ele>
        <time>1970-01-01T02:44:06Z</time>
      </trkpt>
      <trkpt lat="40.412647" lon="0.428836">
        <ele>9.866</ele>
        <time>1970-01-01T02:44:07Z</time>
      </trkpt>
      <trkpt lat="40.412685" lon="0.428799">
        <ele>9.727</ele>
        <time>1970-01-01T02:44:08Z</time>
      </trkpt>
      <trkpt lat="40.412724" lon="0.428772">
        <ele>9.630</ele>
        <time>1970-01-01T02:44:09Z</time>
      </trkpt>
      <trkpt lat="40.412760" lon="0.428747">
        <ele>9.580</ele>
        <time>1970-01-01T02:44:10Z</time>
      </trkpt>
      <trkpt lat="40.412792" lon="0.428711">
        <ele>9.356</ele>
        <time>1970-01-01T02:44:11Z</time>
      </trkpt>
      <trkpt lat="40.412835" lon="0.428688">
        <ele>9.130</ele>
        <time>1970-01-01T02:44:12Z</time>
      </trkpt>
      <trkpt lat="40.412868" lon="0.428663">
        <ele>8.921</ele>
        <time>1970-01-01T02:44:13Z</time>
      </trkpt>
      <trkpt lat="40.412896" lon="0.428627">
        <ele>8.781</ele>
        <time>1970-01-01T02:44:14Z</time>
      </trkpt>
      <trkpt lat="40.412921" lon="0.428592">
        <ele>8.561</ele>
        <time>1970-01-01T02:44:15Z</time>
      </trkpt>
      <trkpt lat="40.412940" lon="0.428552">
        <ele>8.317</ele>
        <time>1970-01-01T02:44:16Z</time>
      </trkpt>
      <trkpt lat="40.412951" lon="0.428511">
        <ele>8.208</ele>
        <time>1970-01-01T02:44:17Z</time>
      </trkpt>
      <trkpt lat="40.412953" lon="0.428478">
        <ele>8.235</ele>
        <time>1970-01-01T02:44:18Z</time>
      </trkpt>
      <trkpt lat="40.412940" lon="0.428437">
        <ele>8.282</ele>
        <time>1970-01-01T02:44:19Z</time>
      </trkpt>
      <trkpt lat="40.412907" lon="0.428385">
        <ele>8.113</ele>
        <time>1970-01-01T02:44:20Z</time>
      </trkpt>
      <trkpt lat="40.412878" lon="0.428364">
        <ele>8.176</ele>
        <time>1970-01-01T02:44:21Z</time>
      </trkpt>
      <trkpt lat="40.412834" lon="0.428324">
        <ele>8.076</ele>
        <time>1970-01-01T02:44:22Z</time>
      </trkpt>
      <trkpt lat="40.412791" lon="0.428298">
        <ele>8.082</ele>
        <time>1970-01-01T02:44:23Z</time>
      </trkpt>
      <trkpt lat="40.412745" lon="0.428268">
        <ele>8.186</ele>
        <time>1970-01-01T02:44:24Z</time>
      </trkpt>
      <trkpt lat="40.412701" lon="0.428238">
        <ele>8.327</ele>
        <time>1970-01-01T02:44:25Z</time>
      </trkpt>
      <trkpt lat="40.412657" lon="0.428211">
        <ele>8.465</ele>
        <time>1970-01-01T02:44:26Z</time>
      </trkpt>
      <trkpt lat="40.412612" lon="0.428180">
        <ele>8.668</ele>
        <time>1970-01-01T02:44:27Z</time>
      </trkpt>
      <trkpt lat="40.412565" lon="0.428145">
        <ele>8.814</ele>
        <time>1970-01-01T02:44:28Z</time>
      </trkpt>
      <trkpt lat="40.412525" lon="0.428123">
        <ele>8.908</ele>
        <time>1970-01-01T02:44:29Z</time>
      </trkpt>
      <trkpt lat="40.412475" lon="0.428087">
        <ele>8.913</ele>
        <time>1970-01-01T02:44:30Z</time>
      </trkpt>
      <trkpt lat="40.412425" lon="0.428045">
        <ele>8.740</ele>
        <time>1970-01-01T02:44:31Z</time>
      </trkpt>
      <trkpt lat="40.412370" lon="0.428000">
        <ele>8.481</ele>
        <time>1970-01-01T02:44:32Z</time>
      </trkpt>
      <trkpt lat="40.412321" lon="0.427957">
        <ele>8.264</ele>
        <time>1970-01-01T02:44:33Z</time>
      </trkpt>
      <trkpt lat="40.412270" lon="0.427916">
        <ele>8.194</ele>
        <time>1970-01-01T02:44:34Z</time>
      </trkpt>
      <trkpt lat="40.412215" lon="0.427873">
        <ele>8.050</ele>
        <time>1970-01-01T02:44:35Z</time>
      </trkpt>
      <trkpt lat="40.412160" lon="0.427831">
        <ele>7.724</ele>
        <time>1970-01-01T02:44:36Z</time>
      </trkpt>
      <trkpt lat="40.412109" lon="0.427792">
        <ele>7.665</ele>
        <time>1970-01-01T02:44:37Z</time>
      </trkpt>
      <trkpt lat="40.412057" lon="0.427748">
        <ele>7.534</ele>
        <time>1970-01-01T02:44:38Z</time>
      </trkpt>
      <trkpt lat="40.412005" lon="0.427703">
        <ele>7.455</ele>
        <time>1970-01-01T02:44:39Z</time>
      </trkpt>
      <trkpt lat="40.411954" lon="0.427657">
        <ele>7.510</ele>
        <time>1970-01-01T02:44:40Z</time>
      </trkpt>
      <trkpt lat="40.411903" lon="0.427612">
        <ele>7.408</ele>
        <time>1970-01-01T02:44:41Z</time>
      </trkpt>
      <trkpt lat="40.411851" lon="0.427562">
        <ele>7.270</ele>
        <time>1970-01-01T02:44:42Z</time>
      </trkpt>
      <trkpt lat="40.411799" lon="0.427514">
        <ele>6.957</ele>
        <time>1970-01-01T02:44:43Z</time>
      </trkpt>
      <trkpt lat="40.411747" lon="0.427469">
        <ele>6.518</ele>
        <time>1970-01-01T02:44:44Z</time>
      </trkpt>
      <trkpt lat="40.411695" lon="0.427422">
        <ele>6.291</ele>
        <time>1970-01-01T02:44:45Z</time>
      </trkpt>
      <trkpt lat="40.411641" lon="0.427373">
        <ele>6.011</ele>
        <time>1970-01-01T02:44:46Z</time>
      </trkpt>
      <trkpt lat="40.411586" lon="0.427329">
        <ele>6.027</ele>
        <time>1970-01-01T02:44:47Z</time>
      </trkpt>
      <trkpt lat="40.411530" lon="0.427283">
        <ele>6.041</ele>
        <time>1970-01-01T02:44:48Z</time>
      </trkpt>
      <trkpt lat="40.411475" lon="0.427238">
        <ele>6.052</ele>
        <time>1970-01-01T02:44:49Z</time>
      </trkpt>
      <trkpt lat="40.411423" lon="0.427194">
        <ele>6.198</ele>
        <time>1970-01-01T02:44:50Z</time>
      </trkpt>
      <trkpt lat="40.411372" lon="0.427152">
        <ele>6.415</ele>
        <time>1970-01-01T02:44:51Z</time>
      </trkpt>
      <trkpt lat="40.411323" lon="0.427111">
        <ele>6.926</ele>
        <time>1970-01-01T02:44:52Z</time>
      </trkpt>
      <trkpt lat="40.411274" lon="0.427070">
        <ele>7.408</ele>
        <time>1970-01-01T02:44:53Z</time>
      </trkpt>
      <trkpt lat="40.411228" lon="0.427029">
        <ele>7.976</ele>
        <time>1970-01-01T02:44:54Z</time>
      </trkpt>
      <trkpt lat="40.411186" lon="0.426987">
        <ele>8.323</ele>
        <time>1970-01-01T02:44:55Z</time>
      </trkpt>
      <trkpt lat="40.411149" lon="0.426942">
        <ele>8.794</ele>
        <time>1970-01-01T02:44:56Z</time>
      </trkpt>
      <trkpt lat="40.411123" lon="0.426888">
        <ele>9.137</ele>
        <time>1970-01-01T02:44:57Z</time>
      </trkpt>
      <trkpt lat="40.411100" lon="0.426828">
        <ele>9.487</ele>
        <time>1970-01-01T02:44:58Z</time>
      </trkpt>
      <trkpt lat="40.411083" lon="0.426767">
        <ele>9.673</ele>
        <time>1970-01-01T02:44:59Z</time>
      </trkpt>
      <trkpt lat="40.411033" lon="0.426668">
        <ele>10.017</ele>
        <time>1970-01-01T02:45:00Z</time>
      </trkpt>
      <trkpt lat="40.411033" lon="0.426668">
        <ele>10.098</ele>
        <time>1970-01-01T02:45:01Z</time>
      </trkpt>
      <trkpt lat="40.411005" lon="0.426647">
        <ele>9.841</ele>
        <time>1970-01-01T02:45:02Z</time>
      </trkpt>
      <trkpt lat="40.410972" lon="0.426640">
        <ele>9.781</ele>
        <time>1970-01-01T02:45:03Z</time>
      </trkpt>
      <trkpt lat="40.410946" lon="0.426644">
        <ele>9.709</ele>
        <time>1970-01-01T02:45:04Z</time>
      </trkpt>
      <trkpt lat="40.410915" lon="0.426654">
        <ele>9.808</ele>
        <time>1970-01-01T02:45:05Z</time>
      </trkpt>
      <trkpt lat="40.410883" lon="0.426664">
        <ele>10.011</ele>
        <time>1970-01-01T02:45:06Z</time>
      </trkpt>
      <trkpt lat="40.410857" lon="0.426677">
        <ele>10.028</ele>
        <time>1970-01-01T02:45:07Z</time>
      </trkpt>
      <trkpt lat="40.410825" lon="0.426678">
        <ele>9.839</ele>
        <time>1970-01-01T02:45:08Z</time>
      </trkpt>
      <trkpt lat="40.410791" lon="0.426667">
        <ele>9.262</ele>
        <time>1970-01-01T02:45:09Z</time>
      </trkpt>
      <trkpt lat="40.410753" lon="0.426639">
        <ele>8.392</ele>
        <time>1970-01-01T02:45:10Z</time>
      </trkpt>
      <trkpt lat="40.410716" lon="0.426604">
        <ele>7.458</ele>
        <time>1970-01-01T02:45:11Z</time>
      </trkpt>
      <trkpt lat="40.410677" lon="0.426564">
        <ele>6.572</ele>
        <time>1970-01-01T02:45:12Z</time>
      </trkpt>
      <trkpt lat="40.410637" lon="0.426520">
        <ele>5.893</ele>
        <time>1970-01-01T02:45:13Z</time>
      </trkpt>
      <trkpt lat="40.410594" lon="0.426473">
        <ele>5.359</ele>
        <time>1970-01-01T02:45:14Z</time>
      </trkpt>
      <trkpt lat="40.410552" lon="0.426426">
        <ele>5.003</ele>
        <time>1970-01-01T02:45:15Z</time>
      </trkpt>
      <trkpt lat="40.410509" lon="0.426377">
        <ele>4.623</ele>
        <time>1970-01-01T02:45:16Z</time>
      </trkpt>
      <trkpt lat="40.410464" lon="0.426328">
        <ele>4.108</ele>
        <time>1970-01-01T02:45:17Z</time>
      </trkpt>
      <trkpt lat="40.410421" lon="0.426281">
        <ele>3.812</ele>
        <time>1970-01-01T02:45:18Z</time>
      </trkpt>
      <trkpt lat="40.410378" lon="0.426235">
        <ele>3.719</ele>
        <time>1970-01-01T02:45:19Z</time>
      </trkpt>
      <trkpt lat="40.410335" lon="0.426188">
        <ele>3.710</ele>
        <time>1970-01-01T02:45:20Z</time>
      </trkpt>
      <trkpt lat="40.410292" lon="0.426139">
        <ele>3.943</ele>
        <time>1970-01-01T02:45:21Z</time>
      </trkpt>
      <trkpt lat="40.410248" lon="0.426089">
        <ele>3.863</ele>
        <time>1970-01-01T02:45:22Z</time>
      </trkpt>
      <trkpt lat="40.410204" lon="0.426036">
        <ele>3.669</ele>
        <time>1970-01-01T02:45:23Z</time>
      </trkpt>
      <trkpt lat="40.410160" lon="0.425981">
        <ele>3.513</ele>
        <time>1970-01-01T02:45:24Z</time>
      </trkpt>
      <trkpt lat="40.410116" lon="0.425925">
        <ele>3.594</ele>
        <time>1970-01-01T02:45:25Z</time>
      </trkpt>
      <trkpt lat="40.410071" lon="0.425869">
        <ele>3.797</ele>
        <time>1970-01-01T02:45:26Z</time>
      </trkpt>
      <trkpt lat="40.410025" lon="0.425814">
        <ele>3.823</ele>
        <time>1970-01-01T02:45:27Z</time>
      </trkpt>
      <trkpt lat="40.409979" lon="0.425764">
        <ele>3.825</ele>
        <time>1970-01-01T02:45:28Z</time>
      </trkpt>
      <trkpt lat="40.409934" lon="0.425715">
        <ele>3.708</ele>
        <time>1970-01-01T02:45:29Z</time>
      </trkpt>
      <trkpt lat="40.409891" lon="0.425663">
        <ele>3.646</ele>
        <time>1970-01-01T02:45:30Z</time>
      </trkpt>
      <trkpt lat="40.409846" lon="0.425611">
        <ele>3.623</ele>
        <time>1970-01-01T02:45:31Z</time>
      </trkpt>
      <trkpt lat="40.409801" lon="0.425561">
        <ele>3.794</ele>
        <time>1970-01-01T02:45:32Z</time>
      </trkpt>
      <trkpt lat="40.409755" lon="0.425510">
        <ele>3.997</ele>
        <time>1970-01-01T02:45:33Z</time>
      </trkpt>
      <trkpt lat="40.409709" lon="0.425459">
        <ele>4.027</ele>
        <time>1970-01-01T02:45:34Z</time>
      </trkpt>
      <trkpt lat="40.409665" lon="0.425407">
        <ele>4.033</ele>
        <time>1970-01-01T02:45:35Z</time>
      </trkpt>
      <trkpt lat="40.409621" lon="0.425354">
        <ele>4.067</ele>
        <time>1970-01-01T02:45:36Z</time>
      </trkpt>
      <trkpt lat="40.409574" lon="0.425300">
        <ele>4.048</ele>
        <time>1970-01-01T02:45:37Z</time>
      </trkpt>
      <trkpt lat="40.409524" lon="0.425247">
        <ele>4.144</ele>
        <time>1970-01-01T02:45:38Z</time>
      </trkpt>
      <trkpt lat="40.409474" lon="0.425193">
        <ele>4.305</ele>
        <time>1970-01-01T02:45:39Z</time>
      </trkpt>
      <trkpt lat="40.409424" lon="0.425138">
        <ele>4.515</ele>
        <time>1970-01-01T02:45:40Z</time>
      </trkpt>
      <trkpt lat="40.409374" lon="0.425082">
        <ele>4.508</ele>
        <time>1970-01-01T02:45:41Z</time>
      </trkpt>
      <trkpt lat="40.409323" lon="0.425026">
        <ele>4.581</ele>
        <time>1970-01-01T02:45:42Z</time>
      </trkpt>
      <trkpt lat="40.409270" lon="0.424971">
        <ele>4.398</ele>
        <time>1970-01-01T02:45:43Z</time>
      </trkpt>
      <trkpt lat="40.409223" lon="0.424914">
        <ele>4.099</ele>
        <time>1970-01-01T02:45:44Z</time>
      </trkpt>
      <trkpt lat="40.409174" lon="0.424858">
        <ele>3.582</ele>
        <time>1970-01-01T02:45:45Z</time>
      </trkpt>
      <trkpt lat="40.409125" lon="0.424801">
        <ele>3.262</ele>
        <time>1970-01-01T02:45:46Z</time>
      </trkpt>
      <trkpt lat="40.409075" lon="0.424744">
        <ele>3.118</ele>
        <time>1970-01-01T02:45:47Z</time>
      </trkpt>
      <trkpt lat="40.409024" lon="0.424687">
        <ele>2.922</ele>
        <time>1970-01-01T02:45:48Z</time>
      </trkpt>
      <trkpt lat="40.408974" lon="0.424630">
        <ele>2.763</ele>
        <time>1970-01-01T02:45:49Z</time>
      </trkpt>
      <trkpt lat="40.408925" lon="0.424573">
        <ele>2.589</ele>
        <time>1970-01-01T02:45:50Z</time>
      </trkpt>
      <trkpt lat="40.408875" lon="0.424517">
        <ele>2.206</ele>
        <time>1970-01-01T02:45:51Z</time>
      </trkpt>
      <trkpt lat="40.408825" lon="0.424461">
        <ele>2.026</ele>
        <time>1970-01-01T02:45:52Z</time>
      </trkpt>
      <trkpt lat="40.408772" lon="0.424408">
        <ele>2.108</ele>
        <time>1970-01-01T02:45:53Z</time>
      </trkpt>
      <trkpt lat="40.408719" lon="0.424354">
        <ele>2.345</ele>
        <time>1970-01-01T02:45:54Z</time>
      </trkpt>
      <trkpt lat="40.408666" lon="0.424297">
        <ele>2.512</ele>
        <time>1970-01-01T02:45:55Z</time>
      </trkpt>
      <trkpt lat="40.408617" lon="0.424237">
        <ele>2.793</ele>
        <time>1970-01-01T02:45:56Z</time>
      </trkpt>
      <trkpt lat="40.408567" lon="0.424177">
        <ele>3.086</ele>
        <time>1970-01-01T02:45:57Z</time>
      </trkpt>
      <trkpt lat="40.408516" lon="0.424119">
        <ele>3.026</ele>
        <time>1970-01-01T02:45:58Z</time>
      </trkpt>
      <trkpt lat="40.408465" lon="0.424061">
        <ele>3.042</ele>
        <time>1970-01-01T02:45:59Z</time>
      </trkpt>
      <trkpt lat="40.408415" lon="0.424004">
        <ele>3.026</ele>
        <time>1970-01-01T02:46:00Z</time>
      </trkpt>
      <trkpt lat="40.408364" lon="0.423948">
        <ele>3.077</ele>
        <time>1970-01-01T02:46:01Z</time>
      </trkpt>
      <trkpt lat="40.408312" lon="0.423891">
        <ele>3.064</ele>
        <time>1970-01-01T02:46:02Z</time>
      </trkpt>
      <trkpt lat="40.408260" lon="0.423835">
        <ele>3.006</ele>
        <time>1970-01-01T02:46:03Z</time>
      </trkpt>
      <trkpt lat="40.408208" lon="0.423779">
        <ele>3.016</ele>
        <time>1970-01-01T02:46:04Z</time>
      </trkpt>
      <trkpt lat="40.408155" lon="0.423724">
        <ele>3.008</ele>
        <time>1970-01-01T02:46:05Z</time>
      </trkpt>
      <trkpt lat="40.408104" lon="0.423669">
        <ele>3.063</ele>
        <time>1970-01-01T02:46:06Z</time>
      </trkpt>
      <trkpt lat="40.408054" lon="0.423614">
        <ele>3.090</ele>
        <time>1970-01-01T02:46:07Z</time>
      </trkpt>
      <trkpt lat="40.408004" lon="0.423558">
        <ele>2.881</ele>
        <time>1970-01-01T02:46:08Z</time>
      </trkpt>
      <trkpt lat="40.407956" lon="0.423500">
        <ele>2.554</ele>
        <time>1970-01-01T02:46:09Z</time>
      </trkpt>
      <trkpt lat="40.407906" lon="0.423441">
        <ele>2.134</ele>
        <time>1970-01-01T02:46:10Z</time>
      </trkpt>
      <trkpt lat="40.407854" lon="0.423381">
        <ele>1.780</ele>
        <time>1970-01-01T02:46:11Z</time>
      </trkpt>
      <trkpt lat="40.407802" lon="0.423323">
        <ele>1.234</ele>
        <time>1970-01-01T02:46:12Z</time>
      </trkpt>
      <trkpt lat="40.407750" lon="0.423266">
        <ele>1.215</ele>
        <time>1970-01-01T02:46:13Z</time>
      </trkpt>
      <trkpt lat="40.407696" lon="0.423209">
        <ele>1.452</ele>
        <time>1970-01-01T02:46:14Z</time>
      </trkpt>
      <trkpt lat="40.407641" lon="0.423153">
        <ele>1.653</ele>
        <time>1970-01-01T02:46:15Z</time>
      </trkpt>
      <trkpt lat="40.407589" lon="0.423095">
        <ele>1.908</ele>
        <time>1970-01-01T02:46:16Z</time>
      </trkpt>
      <trkpt lat="40.407538" lon="0.423037">
        <ele>2.008</ele>
        <time>1970-01-01T02:46:17Z</time>
      </trkpt>
      <trkpt lat="40.407486" lon="0.422979">
        <ele>2.012</ele>
        <time>1970-01-01T02:46:18Z</time>
      </trkpt>
      <trkpt lat="40.407433" lon="0.422921">
        <ele>2.019</ele>
        <time>1970-01-01T02:46:19Z</time>
      </trkpt>
      <trkpt lat="40.407381" lon="0.422862">
        <ele>2.020</ele>
        <time>1970-01-01T02:46:20Z</time>
      </trkpt>
      <trkpt lat="40.407327" lon="0.422805">
        <ele>2.023</ele>
        <time>1970-01-01T02:46:21Z</time>
      </trkpt>
      <trkpt lat="40.407275" lon="0.422747">
        <ele>2.063</ele>
        <time>1970-01-01T02:46:22Z</time>
      </trkpt>
      <trkpt lat="40.407222" lon="0.422686">
        <ele>2.079</ele>
        <time>1970-01-01T02:46:23Z</time>
      </trkpt>
      <trkpt lat="40.407169" lon="0.422627">
        <ele>1.823</ele>
        <time>1970-01-01T02:46:24Z</time>
      </trkpt>
      <trkpt lat="40.407116" lon="0.422568">
        <ele>1.614</ele>
        <time>1970-01-01T02:46:25Z</time>
      </trkpt>
      <trkpt lat="40.407065" lon="0.422508">
        <ele>1.443</ele>
        <time>1970-01-01T02:46:26Z</time>
      </trkpt>
      <trkpt lat="40.407011" lon="0.422448">
        <ele>1.464</ele>
        <time>1970-01-01T02:46:27Z</time>
      </trkpt>
      <trkpt lat="40.406953" lon="0.422392">
        <ele>1.410</ele>
        <time>1970-01-01T02:46:28Z</time>
      </trkpt>
      <trkpt lat="40.406900" lon="0.422333">
        <ele>1.708</ele>
        <time>1970-01-01T02:46:29Z</time>
      </trkpt>
      <trkpt lat="40.406847" lon="0.422273">
        <ele>2.151</ele>
        <time>1970-01-01T02:46:30Z</time>
      </trkpt>
      <trkpt lat="40.406797" lon="0.422213">
        <ele>2.698</ele>
        <time>1970-01-01T02:46:31Z</time>
      </trkpt>
      <trkpt lat="40.406742" lon="0.422155">
        <ele>3.099</ele>
        <time>1970-01-01T02:46:32Z</time>
      </trkpt>
      <trkpt lat="40.406687" lon="0.422099">
        <ele>3.422</ele>
        <time>1970-01-01T02:46:33Z</time>
      </trkpt>
      <trkpt lat="40.406633" lon="0.422041">
        <ele>3.762</ele>
        <time>1970-01-01T02:46:34Z</time>
      </trkpt>
      <trkpt lat="40.406576" lon="0.421983">
        <ele>3.978</ele>
        <time>1970-01-01T02:46:35Z</time>
      </trkpt>
      <trkpt lat="40.406517" lon="0.421927">
        <ele>4.032</ele>
        <time>1970-01-01T02:46:36Z</time>
      </trkpt>
      <trkpt lat="40.406465" lon="0.421866">
        <ele>4.123</ele>
        <time>1970-01-01T02:46:37Z</time>
      </trkpt>
      <trkpt lat="40.406414" lon="0.421803">
        <ele>4.097</ele>
        <time>1970-01-01T02:46:38Z</time>
      </trkpt>
      <trkpt lat="40.406363" lon="0.421741">
        <ele>3.923</ele>
        <time>1970-01-01T02:46:39Z</time>
      </trkpt>
      <trkpt lat="40.406312" lon="0.421681">
        <ele>3.725</ele>
        <time>1970-01-01T02:46:40Z</time>
      </trkpt>
      <trkpt lat="40.406261" lon="0.421622">
        <ele>3.408</ele>
        <time>1970-01-01T02:46:41Z</time>
      </trkpt>
      <trkpt lat="40.406210" lon="0.421564">
        <ele>3.046</ele>
        <time>1970-01-01T02:46:42Z</time>
      </trkpt>
      <trkpt lat="40.406155" lon="0.421507">
        <ele>2.683</ele>
        <time>1970-01-01T02:46:43Z</time>
      </trkpt>
      <trkpt lat="40.406098" lon="0.421452">
        <ele>2.224</ele>
        <time>1970-01-01T02:46:44Z</time>
      </trkpt>
      <trkpt lat="40.406046" lon="0.421393">
        <ele>1.847</ele>
        <time>1970-01-01T02:46:45Z</time>
      </trkpt>
      <trkpt lat="40.405992" lon="0.421334">
        <ele>1.597</ele>
        <time>1970-01-01T02:46:46Z</time>
      </trkpt>
      <trkpt lat="40.405940" lon="0.421277">
        <ele>1.293</ele>
        <time>1970-01-01T02:46:47Z</time>
      </trkpt>
      <trkpt lat="40.405885" lon="0.421220">
        <ele>1.197</ele>
        <time>1970-01-01T02:46:48Z</time>
      </trkpt>
      <trkpt lat="40.405831" lon="0.421162">
        <ele>1.028</ele>
        <time>1970-01-01T02:46:49Z</time>
      </trkpt>
      <trkpt lat="40.405778" lon="0.421103">
        <ele>1.092</ele>
        <time>1970-01-01T02:46:50Z</time>
      </trkpt>
      <trkpt lat="40.405728" lon="0.421044">
        <ele>1.273</ele>
        <time>1970-01-01T02:46:51Z</time>
      </trkpt>
      <trkpt lat="40.405677" lon="0.420985">
        <ele>1.520</ele>
        <time>1970-01-01T02:46:52Z</time>
      </trkpt>
      <trkpt lat="40.405626" lon="0.420928">
        <ele>1.708</ele>
        <time>1970-01-01T02:46:53Z</time>
      </trkpt>
      <trkpt lat="40.405576" lon="0.420868">
        <ele>1.916</ele>
        <time>1970-01-01T02:46:54Z</time>
      </trkpt>
      <trkpt lat="40.405526" lon="0.420807">
        <ele>2.243</ele>
        <time>1970-01-01T02:46:55Z</time>
      </trkpt>
      <trkpt lat="40.405477" lon="0.420749">
        <ele>2.514</ele>
        <time>1970-01-01T02:46:56Z</time>
      </trkpt>
      <trkpt lat="40.405426" lon="0.420692">
        <ele>2.767</ele>
        <time>1970-01-01T02:46:57Z</time>
      </trkpt>
      <trkpt lat="40.405376" lon="0.420635">
        <ele>2.997</ele>
        <time>1970-01-01T02:46:58Z</time>
      </trkpt>
      <trkpt lat="40.405328" lon="0.420576">
        <ele>3.043</ele>
        <time>1970-01-01T02:46:59Z</time>
      </trkpt>
      <trkpt lat="40.405277" lon="0.420519">
        <ele>3.127</ele>
        <time>1970-01-01T02:47:00Z</time>
      </trkpt>
      <trkpt lat="40.405226" lon="0.420462">
        <ele>3.578</ele>
        <time>1970-01-01T02:47:01Z</time>
      </trkpt>
      <trkpt lat="40.405175" lon="0.420403">
        <ele>3.733</ele>
        <time>1970-01-01T02:47:02Z</time>
      </trkpt>
      <trkpt lat="40.405126" lon="0.420345">
        <ele>3.923</ele>
        <time>1970-01-01T02:47:03Z</time>
      </trkpt>
      <trkpt lat="40.405077" lon="0.420287">
        <ele>4.015</ele>
        <time>1970-01-01T02:47:04Z</time>
      </trkpt>
      <trkpt lat="40.405026" lon="0.420229">
        <ele>3.808</ele>
        <time>1970-01-01T02:47:05Z</time>
      </trkpt>
      <trkpt lat="40.404974" lon="0.420172">
        <ele>3.490</ele>
        <time>1970-01-01T02:47:06Z</time>
      </trkpt>
      <trkpt lat="40.404924" lon="0.420117">
        <ele>2.967</ele>
        <time>1970-01-01T02:47:07Z</time>
      </trkpt>
      <trkpt lat="40.404874" lon="0.420059">
        <ele>2.358</ele>
        <time>1970-01-01T02:47:08Z</time>
      </trkpt>
      <trkpt lat="40.404825" lon="0.420001">
        <ele>1.771</ele>
        <time>1970-01-01T02:47:09Z</time>
      </trkpt>
      <trkpt lat="40.404776" lon="0.419944">
        <ele>1.251</ele>
        <time>1970-01-01T02:47:10Z</time>
      </trkpt>
      <trkpt lat="40.404726" lon="0.419890">
        <ele>0.687</ele>
        <time>1970-01-01T02:47:11Z</time>
      </trkpt>
      <trkpt lat="40.404674" lon="0.419838">
        <ele>0.671</ele>
        <time>1970-01-01T02:47:12Z</time>
      </trkpt>
      <trkpt lat="40.404621" lon="0.419788">
        <ele>0.632</ele>
        <time>1970-01-01T02:47:13Z</time>
      </trkpt>
      <trkpt lat="40.404568" lon="0.419739">
        <ele>0.659</ele>
        <time>1970-01-01T02:47:14Z</time>
      </trkpt>
      <trkpt lat="40.404515" lon="0.419693">
        <ele>0.803</ele>
        <time>1970-01-01T02:47:15Z</time>
      </trkpt>
      <trkpt lat="40.404462" lon="0.419648">
        <ele>1.023</ele>
        <time>1970-01-01T02:47:16Z</time>
      </trkpt>
      <trkpt lat="40.404406" lon="0.419599">
        <ele>1.208</ele>
        <time>1970-01-01T02:47:17Z</time>
      </trkpt>
      <trkpt lat="40.404349" lon="0.419553">
        <ele>1.532</ele>
        <time>1970-01-01T02:47:18Z</time>
      </trkpt>
      <trkpt lat="40.404291" lon="0.419509">
        <ele>1.759</ele>
        <time>1970-01-01T02:47:19Z</time>
      </trkpt>
      <trkpt lat="40.404229" lon="0.419466">
        <ele>1.830</ele>
        <time>1970-01-01T02:47:20Z</time>
      </trkpt>
      <trkpt lat="40.404163" lon="0.419423">
        <ele>2.013</ele>
        <time>1970-01-01T02:47:21Z</time>
      </trkpt>
      <trkpt lat="40.404099" lon="0.419378">
        <ele>1.873</ele>
        <time>1970-01-01T02:47:22Z</time>
      </trkpt>
      <trkpt lat="40.404036" lon="0.419332">
        <ele>1.529</ele>
        <time>1970-01-01T02:47:23Z</time>
      </trkpt>
      <trkpt lat="40.403975" lon="0.419291">
        <ele>1.353</ele>
        <time>1970-01-01T02:47:24Z</time>
      </trkpt>
      <trkpt lat="40.403914" lon="0.419251">
        <ele>1.194</ele>
        <time>1970-01-01T02:47:25Z</time>
      </trkpt>
      <trkpt lat="40.403857" lon="0.419211">
        <ele>1.185</ele>
        <time>1970-01-01T02:47:26Z</time>
      </trkpt>
      <trkpt lat="40.403801" lon="0.419170">
        <ele>1.389</ele>
        <time>1970-01-01T02:47:27Z</time>
      </trkpt>
      <trkpt lat="40.403745" lon="0.419130">
        <ele>1.617</ele>
        <time>1970-01-01T02:47:28Z</time>
      </trkpt>
      <trkpt lat="40.403689" lon="0.419090">
        <ele>1.808</ele>
        <time>1970-01-01T02:47:29Z</time>
      </trkpt>
      <trkpt lat="40.403632" lon="0.419053">
        <ele>2.035</ele>
        <time>1970-01-01T02:47:30Z</time>
      </trkpt>
      <trkpt lat="40.403570" lon="0.419020">
        <ele>2.112</ele>
        <time>1970-01-01T02:47:31Z</time>
      </trkpt>
      <trkpt lat="40.403507" lon="0.418987">
        <ele>2.423</ele>
        <time>1970-01-01T02:47:32Z</time>
      </trkpt>
      <trkpt lat="40.403441" lon="0.418950">
        <ele>2.656</ele>
        <time>1970-01-01T02:47:33Z</time>
      </trkpt>
      <trkpt lat="40.403376" lon="0.418909">
        <ele>2.846</ele>
        <time>1970-01-01T02:47:34Z</time>
      </trkpt>
      <trkpt lat="40.403313" lon="0.418863">
        <ele>3.112</ele>
        <time>1970-01-01T02:47:35Z</time>
      </trkpt>
      <trkpt lat="40.403253" lon="0.418814">
        <ele>3.566</ele>
        <time>1970-01-01T02:47:36Z</time>
      </trkpt>
      <trkpt lat="40.403193" lon="0.418764">
        <ele>3.827</ele>
        <time>1970-01-01T02:47:37Z</time>
      </trkpt>
      <trkpt lat="40.403134" lon="0.418717">
        <ele>4.052</ele>
        <time>1970-01-01T02:47:38Z</time>
      </trkpt>
      <trkpt lat="40.403076" lon="0.418671">
        <ele>4.153</ele>
        <time>1970-01-01T02:47:39Z</time>
      </trkpt>
      <trkpt lat="40.403017" lon="0.418629">
        <ele>4.208</ele>
        <time>1970-01-01T02:47:40Z</time>
      </trkpt>
      <trkpt lat="40.402961" lon="0.418589">
        <ele>4.208</ele>
        <time>1970-01-01T02:47:41Z</time>
      </trkpt>
      <trkpt lat="40.402903" lon="0.418551">
        <ele>4.212</ele>
        <time>1970-01-01T02:47:42Z</time>
      </trkpt>
      <trkpt lat="40.402846" lon="0.418516">
        <ele>4.259</ele>
        <time>1970-01-01T02:47:43Z</time>
      </trkpt>
      <trkpt lat="40.402786" lon="0.418484">
        <ele>4.110</ele>
        <time>1970-01-01T02:47:44Z</time>
      </trkpt>
      <trkpt lat="40.402726" lon="0.418450">
        <ele>3.963</ele>
        <time>1970-01-01T02:47:45Z</time>
      </trkpt>
      <trkpt lat="40.402663" lon="0.418418">
        <ele>3.983</ele>
        <time>1970-01-01T02:47:46Z</time>
      </trkpt>
      <trkpt lat="40.402599" lon="0.418386">
        <ele>3.979</ele>
        <time>1970-01-01T02:47:47Z</time>
      </trkpt>
      <trkpt lat="40.402539" lon="0.418357">
        <ele>4.053</ele>
        <time>1970-01-01T02:47:48Z</time>
      </trkpt>
      <trkpt lat="40.402479" lon="0.418326">
        <ele>4.094</ele>
        <time>1970-01-01T02:47:49Z</time>
      </trkpt>
      <trkpt lat="40.402414" lon="0.418298">
        <ele>4.052</ele>
        <time>1970-01-01T02:47:50Z</time>
      </trkpt>
      <trkpt lat="40.402352" lon="0.418271">
        <ele>4.053</ele>
        <time>1970-01-01T02:47:51Z</time>
      </trkpt>
      <trkpt lat="40.402288" lon="0.418240">
        <ele>4.008</ele>
        <time>1970-01-01T02:47:52Z</time>
      </trkpt>
      <trkpt lat="40.402224" lon="0.418208">
        <ele>4.008</ele>
        <time>1970-01-01T02:47:53Z</time>
      </trkpt>
      <trkpt lat="40.402162" lon="0.418177">
        <ele>3.952</ele>
        <time>1970-01-01T02:47:54Z</time>
      </trkpt>
      <trkpt lat="40.402097" lon="0.418144">
        <ele>3.969</ele>
        <time>1970-01-01T02:47:55Z</time>
      </trkpt>
      <trkpt lat="40.402034" lon="0.418115">
        <ele>3.990</ele>
        <time>1970-01-01T02:47:56Z</time>
      </trkpt>
      <trkpt lat="40.401970" lon="0.418083">
        <ele>3.943</ele>
        <time>1970-01-01T02:47:57Z</time>
      </trkpt>
      <trkpt lat="40.401903" lon="0.418052">
        <ele>3.943</ele>
        <time>1970-01-01T02:47:58Z</time>
      </trkpt>
      <trkpt lat="40.401839" lon="0.418019">
        <ele>3.889</ele>
        <time>1970-01-01T02:47:59Z</time>
      </trkpt>
      <trkpt lat="40.401774" lon="0.417986">
        <ele>3.833</ele>
        <time>1970-01-01T02:48:00Z</time>
      </trkpt>
      <trkpt lat="40.401712" lon="0.417951">
        <ele>3.934</ele>
        <time>1970-01-01T02:48:01Z</time>
      </trkpt>
      <trkpt lat="40.401652" lon="0.417915">
        <ele>4.129</ele>
        <time>1970-01-01T02:48:02Z</time>
      </trkpt>
      <trkpt lat="40.401594" lon="0.417879">
        <ele>4.500</ele>
        <time>1970-01-01T02:48:03Z</time>
      </trkpt>
      <trkpt lat="40.401535" lon="0.417848">
        <ele>4.720</ele>
        <time>1970-01-01T02:48:04Z</time>
      </trkpt>
      <trkpt lat="40.401474" lon="0.417817">
        <ele>4.908</ele>
        <time>1970-01-01T02:48:05Z</time>
      </trkpt>
      <trkpt lat="40.401413" lon="0.417786">
        <ele>5.019</ele>
        <time>1970-01-01T02:48:06Z</time>
      </trkpt>
      <trkpt lat="40.401351" lon="0.417752">
        <ele>5.026</ele>
        <time>1970-01-01T02:48:07Z</time>
      </trkpt>
      <trkpt lat="40.401292" lon="0.417719">
        <ele>5.177</ele>
        <time>1970-01-01T02:48:08Z</time>
      </trkpt>
      <trkpt lat="40.401232" lon="0.417689">
        <ele>5.240</ele>
        <time>1970-01-01T02:48:09Z</time>
      </trkpt>
      <trkpt lat="40.401170" lon="0.417661">
        <ele>5.460</ele>
        <time>1970-01-01T02:48:10Z</time>
      </trkpt>
      <trkpt lat="40.401105" lon="0.417631">
        <ele>5.516</ele>
        <time>1970-01-01T02:48:11Z</time>
      </trkpt>
      <trkpt lat="40.401044" lon="0.417598">
        <ele>5.720</ele>
        <time>1970-01-01T02:48:12Z</time>
      </trkpt>
      <trkpt lat="40.400980" lon="0.417564">
        <ele>5.811</ele>
        <time>1970-01-01T02:48:13Z</time>
      </trkpt>
      <trkpt lat="40.400917" lon="0.417531">
        <ele>5.936</ele>
        <time>1970-01-01T02:48:14Z</time>
      </trkpt>
      <trkpt lat="40.400856" lon="0.417500">
        <ele>5.917</ele>
        <time>1970-01-01T02:48:15Z</time>
      </trkpt>
      <trkpt lat="40.400793" lon="0.417468">
        <ele>6.018</ele>
        <time>1970-01-01T02:48:16Z</time>
      </trkpt>
      <trkpt lat="40.400732" lon="0.417438">
        <ele>6.108</ele>
        <time>1970-01-01T02:48:17Z</time>
      </trkpt>
      <trkpt lat="40.400672" lon="0.417408">
        <ele>6.290</ele>
        <time>1970-01-01T02:48:18Z</time>
      </trkpt>
      <trkpt lat="40.400612" lon="0.417376">
        <ele>6.367</ele>
        <time>1970-01-01T02:48:19Z</time>
      </trkpt>
      <trkpt lat="40.400550" lon="0.417343">
        <ele>6.548</ele>
        <time>1970-01-01T02:48:20Z</time>
      </trkpt>
      <trkpt lat="40.400489" lon="0.417309">
        <ele>6.911</ele>
        <time>1970-01-01T02:48:21Z</time>
      </trkpt>
      <trkpt lat="40.400427" lon="0.417277">
        <ele>7.221</ele>
        <time>1970-01-01T02:48:22Z</time>
      </trkpt>
      <trkpt lat="40.400366" lon="0.417246">
        <ele>7.537</ele>
        <time>1970-01-01T02:48:23Z</time>
      </trkpt>
      <trkpt lat="40.400306" lon="0.417218">
        <ele>7.851</ele>
        <time>1970-01-01T02:48:24Z</time>
      </trkpt>
      <trkpt lat="40.400244" lon="0.417188">
        <ele>7.632</ele>
        <time>1970-01-01T02:48:25Z</time>
      </trkpt>
      <trkpt lat="40.400180" lon="0.417157">
        <ele>7.398</ele>
        <time>1970-01-01T02:48:26Z</time>
      </trkpt>
      <trkpt lat="40.400113" lon="0.417125">
        <ele>7.015</ele>
        <time>1970-01-01T02:48:27Z</time>
      </trkpt>
      <trkpt lat="40.400052" lon="0.417097">
        <ele>6.626</ele>
        <time>1970-01-01T02:48:28Z</time>
      </trkpt>
      <trkpt lat="40.399992" lon="0.417067">
        <ele>6.308</ele>
        <time>1970-01-01T02:48:29Z</time>
      </trkpt>
      <trkpt lat="40.399932" lon="0.417036">
        <ele>5.596</ele>
        <time>1970-01-01T02:48:30Z</time>
      </trkpt>
      <trkpt lat="40.399874" lon="0.417003">
        <ele>4.713</ele>
        <time>1970-01-01T02:48:31Z</time>
      </trkpt>
      <trkpt lat="40.399817" lon="0.416968">
        <ele>3.994</ele>
        <time>1970-01-01T02:48:32Z</time>
      </trkpt>
      <trkpt lat="40.399764" lon="0.416933">
        <ele>3.327</ele>
        <time>1970-01-01T02:48:33Z</time>
      </trkpt>
      <trkpt lat="40.399718" lon="0.416896">
        <ele>2.837</ele>
        <time>1970-01-01T02:48:34Z</time>
      </trkpt>
      <trkpt lat="40.399674" lon="0.416856">
        <ele>2.993</ele>
        <time>1970-01-01T02:48:35Z</time>
      </trkpt>
      <trkpt lat="40.399630" lon="0.416817">
        <ele>2.987</ele>
        <time>1970-01-01T02:48:36Z</time>
      </trkpt>
      <trkpt lat="40.399587" lon="0.416780">
        <ele>2.988</ele>
        <time>1970-01-01T02:48:37Z</time>
      </trkpt>
      <trkpt lat="40.399542" lon="0.416745">
        <ele>2.926</ele>
        <time>1970-01-01T02:48:38Z</time>
      </trkpt>
      <trkpt lat="40.399495" lon="0.416721">
        <ele>3.047</ele>
        <time>1970-01-01T02:48:39Z</time>
      </trkpt>
      <trkpt lat="40.399444" lon="0.416706">
        <ele>3.111</ele>
        <time>1970-01-01T02:48:40Z</time>
      </trkpt>
      <trkpt lat="40.399392" lon="0.416692">
        <ele>3.908</ele>
        <time>1970-01-01T02:48:41Z</time>
      </trkpt>
      <trkpt lat="40.399341" lon="0.416672">
        <ele>4.529</ele>
        <time>1970-01-01T02:48:42Z</time>
      </trkpt>
      <trkpt lat="40.399288" lon="0.416648">
        <ele>5.176</ele>
        <time>1970-01-01T02:48:43Z</time>
      </trkpt>
      <trkpt lat="40.399233" lon="0.416620">
        <ele>5.687</ele>
        <time>1970-01-01T02:48:44Z</time>
      </trkpt>
      <trkpt lat="40.399179" lon="0.416592">
        <ele>6.090</ele>
        <time>1970-01-01T02:48:45Z</time>
      </trkpt>
      <trkpt lat="40.399127" lon="0.416567">
        <ele>6.250</ele>
        <time>1970-01-01T02:48:46Z</time>
      </trkpt>
      <trkpt lat="40.399076" lon="0.416541">
        <ele>6.376</ele>
        <time>1970-01-01T02:48:47Z</time>
      </trkpt>
      <trkpt lat="40.399024" lon="0.416514">
        <ele>6.450</ele>
        <time>1970-01-01T02:48:48Z</time>
      </trkpt>
      <trkpt lat="40.398971" lon="0.416487">
        <ele>6.521</ele>
        <time>1970-01-01T02:48:49Z</time>
      </trkpt>
      <trkpt lat="40.398919" lon="0.416460">
        <ele>6.664</ele>
        <time>1970-01-01T02:48:50Z</time>
      </trkpt>
      <trkpt lat="40.398866" lon="0.416434">
        <ele>6.406</ele>
        <time>1970-01-01T02:48:51Z</time>
      </trkpt>
      <trkpt lat="40.398815" lon="0.416409">
        <ele>5.916</ele>
        <time>1970-01-01T02:48:52Z</time>
      </trkpt>
      <trkpt lat="40.398763" lon="0.416384">
        <ele>5.508</ele>
        <time>1970-01-01T02:48:53Z</time>
      </trkpt>
      <trkpt lat="40.398713" lon="0.416359">
        <ele>5.343</ele>
        <time>1970-01-01T02:48:54Z</time>
      </trkpt>
      <trkpt lat="40.398663" lon="0.416335">
        <ele>5.260</ele>
        <time>1970-01-01T02:48:55Z</time>
      </trkpt>
      <trkpt lat="40.398613" lon="0.416310">
        <ele>5.041</ele>
        <time>1970-01-01T02:48:56Z</time>
      </trkpt>
      <trkpt lat="40.398563" lon="0.416287">
        <ele>5.034</ele>
        <time>1970-01-01T02:48:57Z</time>
      </trkpt>
      <trkpt lat="40.398516" lon="0.416264">
        <ele>5.014</ele>
        <time>1970-01-01T02:48:58Z</time>
      </trkpt>
      <trkpt lat="40.398467" lon="0.416241">
        <ele>5.070</ele>
        <time>1970-01-01T02:48:59Z</time>
      </trkpt>
      <trkpt lat="40.398420" lon="0.416219">
        <ele>5.054</ele>
        <time>1970-01-01T02:49:00Z</time>
      </trkpt>
      <trkpt lat="40.398375" lon="0.416196">
        <ele>5.045</ele>
        <time>1970-01-01T02:49:01Z</time>
      </trkpt>
      <trkpt lat="40.398333" lon="0.416172">
        <ele>5.095</ele>
        <time>1970-01-01T02:49:02Z</time>
      </trkpt>
      <trkpt lat="40.398293" lon="0.416143">
        <ele>4.949</ele>
        <time>1970-01-01T02:49:03Z</time>
      </trkpt>
      <trkpt lat="40.398256" lon="0.416106">
        <ele>4.723</ele>
        <time>1970-01-01T02:49:04Z</time>
      </trkpt>
      <trkpt lat="40.398217" lon="0.416069">
        <ele>4.608</ele>
        <time>1970-01-01T02:49:05Z</time>
      </trkpt>
      <trkpt lat="40.398178" lon="0.416040">
        <ele>4.446</ele>
        <time>1970-01-01T02:49:06Z</time>
      </trkpt>
      <trkpt lat="40.398136" lon="0.416014">
        <ele>4.383</ele>
        <time>1970-01-01T02:49:07Z</time>
      </trkpt>
      <trkpt lat="40.398092" lon="0.415992">
        <ele>4.134</ele>
        <time>1970-01-01T02:49:08Z</time>
      </trkpt>
      <trkpt lat="40.398048" lon="0.415970">
        <ele>4.087</ele>
        <time>1970-01-01T02:49:09Z</time>
      </trkpt>
      <trkpt lat="40.398005" lon="0.415949">
        <ele>4.037</ele>
        <time>1970-01-01T02:49:10Z</time>
      </trkpt>
      <trkpt lat="40.397962" lon="0.415928">
        <ele>4.063</ele>
        <time>1970-01-01T02:49:11Z</time>
      </trkpt>
      <trkpt lat="40.397920" lon="0.415909">
        <ele>4.037</ele>
        <time>1970-01-01T02:49:12Z</time>
      </trkpt>
      <trkpt lat="40.397877" lon="0.415889">
        <ele>4.098</ele>
        <time>1970-01-01T02:49:13Z</time>
      </trkpt>
      <trkpt lat="40.397835" lon="0.415868">
        <ele>4.026</ele>
        <time>1970-01-01T02:49:14Z</time>
      </trkpt>
      <trkpt lat="40.397793" lon="0.415846">
        <ele>4.047</ele>
        <time>1970-01-01T02:49:15Z</time>
      </trkpt>
      <trkpt lat="40.397751" lon="0.415821">
        <ele>4.411</ele>
        <time>1970-01-01T02:49:16Z</time>
      </trkpt>
      <trkpt lat="40.397709" lon="0.415801">
        <ele>5.008</ele>
        <time>1970-01-01T02:49:17Z</time>
      </trkpt>
      <trkpt lat="40.397665" lon="0.415780">
        <ele>5.659</ele>
        <time>1970-01-01T02:49:18Z</time>
      </trkpt>
      <trkpt lat="40.397623" lon="0.415758">
        <ele>6.216</ele>
        <time>1970-01-01T02:49:19Z</time>
      </trkpt>
      <trkpt lat="40.397582" lon="0.415734">
        <ele>6.877</ele>
        <time>1970-01-01T02:49:20Z</time>
      </trkpt>
      <trkpt lat="40.397541" lon="0.415713">
        <ele>7.480</ele>
        <time>1970-01-01T02:49:21Z</time>
      </trkpt>
      <trkpt lat="40.397501" lon="0.415697">
        <ele>8.040</ele>
        <time>1970-01-01T02:49:22Z</time>
      </trkpt>
      <trkpt lat="40.397462" lon="0.415682">
        <ele>8.256</ele>
        <time>1970-01-01T02:49:23Z</time>
      </trkpt>
      <trkpt lat="40.397424" lon="0.415663">
        <ele>8.430</ele>
        <time>1970-01-01T02:49:24Z</time>
      </trkpt>
      <trkpt lat="40.397384" lon="0.415645">
        <ele>8.631</ele>
        <time>1970-01-01T02:49:25Z</time>
      </trkpt>
      <trkpt lat="40.397342" lon="0.415632">
        <ele>8.982</ele>
        <time>1970-01-01T02:49:26Z</time>
      </trkpt>
      <trkpt lat="40.397293" lon="0.415626">
        <ele>9.043</ele>
        <time>1970-01-01T02:49:27Z</time>
      </trkpt>
      <trkpt lat="40.397246" lon="0.415619">
        <ele>9.217</ele>
        <time>1970-01-01T02:49:28Z</time>
      </trkpt>
      <trkpt lat="40.397199" lon="0.415605">
        <ele>9.208</ele>
        <time>1970-01-01T02:49:29Z</time>
      </trkpt>
      <trkpt lat="40.397150" lon="0.415585">
        <ele>8.745</ele>
        <time>1970-01-01T02:49:30Z</time>
      </trkpt>
      <trkpt lat="40.397098" lon="0.415561">
        <ele>8.242</ele>
        <time>1970-01-01T02:49:31Z</time>
      </trkpt>
      <trkpt lat="40.397043" lon="0.415535">
        <ele>7.443</ele>
        <time>1970-01-01T02:49:32Z</time>
      </trkpt>
      <trkpt lat="40.396989" lon="0.415505">
        <ele>6.896</ele>
        <time>1970-01-01T02:49:33Z</time>
      </trkpt>
      <trkpt lat="40.396934" lon="0.415476">
        <ele>6.286</ele>
        <time>1970-01-01T02:49:34Z</time>
      </trkpt>
      <trkpt lat="40.396880" lon="0.415448">
        <ele>6.162</ele>
        <time>1970-01-01T02:49:35Z</time>
      </trkpt>
      <trkpt lat="40.396825" lon="0.415419">
        <ele>5.896</ele>
        <time>1970-01-01T02:49:36Z</time>
      </trkpt>
      <trkpt lat="40.396771" lon="0.415392">
        <ele>5.667</ele>
        <time>1970-01-01T02:49:37Z</time>
      </trkpt>
      <trkpt lat="40.396715" lon="0.415365">
        <ele>5.354</ele>
        <time>1970-01-01T02:49:38Z</time>
      </trkpt>
      <trkpt lat="40.396659" lon="0.415337">
        <ele>5.056</ele>
        <time>1970-01-01T02:49:39Z</time>
      </trkpt>
      <trkpt lat="40.396603" lon="0.415308">
        <ele>4.611</ele>
        <time>1970-01-01T02:49:40Z</time>
      </trkpt>
      <trkpt lat="40.396548" lon="0.415281">
        <ele>4.208</ele>
        <time>1970-01-01T02:49:41Z</time>
      </trkpt>
      <trkpt lat="40.396493" lon="0.415254">
        <ele>3.882</ele>
        <time>1970-01-01T02:49:42Z</time>
      </trkpt>
      <trkpt lat="40.396438" lon="0.415226">
        <ele>3.589</ele>
        <time>1970-01-01T02:49:43Z</time>
      </trkpt>
      <trkpt lat="40.396383" lon="0.415199">
        <ele>3.320</ele>
        <time>1970-01-01T02:49:44Z</time>
      </trkpt>
      <trkpt lat="40.396328" lon="0.415171">
        <ele>3.143</ele>
        <time>1970-01-01T02:49:45Z</time>
      </trkpt>
      <trkpt lat="40.396273" lon="0.415144">
        <ele>2.913</ele>
        <time>1970-01-01T02:49:46Z</time>
      </trkpt>
      <trkpt lat="40.396219" lon="0.415117">
        <ele>2.689</ele>
        <time>1970-01-01T02:49:47Z</time>
      </trkpt>
      <trkpt lat="40.396165" lon="0.415089">
        <ele>2.343</ele>
        <time>1970-01-01T02:49:48Z</time>
      </trkpt>
      <trkpt lat="40.396112" lon="0.415061">
        <ele>2.064</ele>
        <time>1970-01-01T02:49:49Z</time>
      </trkpt>
      <trkpt lat="40.396059" lon="0.415034">
        <ele>2.215</ele>
        <time>1970-01-01T02:49:50Z</time>
      </trkpt>
      <trkpt lat="40.396007" lon="0.415006">
        <ele>2.465</ele>
        <time>1970-01-01T02:49:51Z</time>
      </trkpt>
      <trkpt lat="40.395959" lon="0.414975">
        <ele>2.711</ele>
        <time>1970-01-01T02:49:52Z</time>
      </trkpt>
      <trkpt lat="40.395915" lon="0.414938">
        <ele>3.008</ele>
        <time>1970-01-01T02:49:53Z</time>
      </trkpt>
      <trkpt lat="40.395871" lon="0.414899">
        <ele>3.378</ele>
        <time>1970-01-01T02:49:54Z</time>
      </trkpt>
      <trkpt lat="40.395827" lon="0.414868">
        <ele>3.515</ele>
        <time>1970-01-01T02:49:55Z</time>
      </trkpt>
      <trkpt lat="40.395779" lon="0.414842">
        <ele>3.426</ele>
        <time>1970-01-01T02:49:56Z</time>
      </trkpt>
      <trkpt lat="40.395728" lon="0.414815">
        <ele>3.339</ele>
        <time>1970-01-01T02:49:57Z</time>
      </trkpt>
      <trkpt lat="40.395676" lon="0.414793">
        <ele>3.279</ele>
        <time>1970-01-01T02:49:58Z</time>
      </trkpt>
      <trkpt lat="40.395622" lon="0.414773">
        <ele>3.115</ele>
        <time>1970-01-01T02:49:59Z</time>
      </trkpt>
      <trkpt lat="40.395568" lon="0.414749">
        <ele>2.969</ele>
        <time>1970-01-01T02:50:00Z</time>
      </trkpt>
      <trkpt lat="40.395514" lon="0.414722">
        <ele>2.950</ele>
        <time>1970-01-01T02:50:01Z</time>
      </trkpt>
      <trkpt lat="40.395459" lon="0.414696">
        <ele>2.742</ele>
        <time>1970-01-01T02:50:02Z</time>
      </trkpt>
      <trkpt lat="40.395403" lon="0.414667">
        <ele>2.722</ele>
        <time>1970-01-01T02:50:03Z</time>
      </trkpt>
      <trkpt lat="40.395348" lon="0.414639">
        <ele>2.714</ele>
        <time>1970-01-01T02:50:04Z</time>
      </trkpt>
      <trkpt lat="40.395292" lon="0.414611">
        <ele>2.808</ele>
        <time>1970-01-01T02:50:05Z</time>
      </trkpt>
      <trkpt lat="40.395235" lon="0.414582">
        <ele>3.561</ele>
        <time>1970-01-01T02:50:06Z</time>
      </trkpt>
      <trkpt lat="40.395179" lon="0.414555">
        <ele>4.318</ele>
        <time>1970-01-01T02:50:07Z</time>
      </trkpt>
      <trkpt lat="40.395122" lon="0.414527">
        <ele>5.369</ele>
        <time>1970-01-01T02:50:08Z</time>
      </trkpt>
      <trkpt lat="40.395066" lon="0.414499">
        <ele>6.472</ele>
        <time>1970-01-01T02:50:09Z</time>
      </trkpt>
      <trkpt lat="40.395009" lon="0.414471">
        <ele>7.542</ele>
        <time>1970-01-01T02:50:10Z</time>
      </trkpt>
      <trkpt lat="40.394954" lon="0.414443">
        <ele>8.098</ele>
        <time>1970-01-01T02:50:11Z</time>
      </trkpt>
      <trkpt lat="40.394901" lon="0.414417">
        <ele>8.192</ele>
        <time>1970-01-01T02:50:12Z</time>
      </trkpt>
      <trkpt lat="40.394848" lon="0.414391">
        <ele>8.313</ele>
        <time>1970-01-01T02:50:13Z</time>
      </trkpt>
      <trkpt lat="40.394795" lon="0.414364">
        <ele>8.554</ele>
        <time>1970-01-01T02:50:14Z</time>
      </trkpt>
      <trkpt lat="40.394742" lon="0.414338">
        <ele>8.756</ele>
        <time>1970-01-01T02:50:15Z</time>
      </trkpt>
      <trkpt lat="40.394688" lon="0.414311">
        <ele>8.511</ele>
        <time>1970-01-01T02:50:16Z</time>
      </trkpt>
      <trkpt lat="40.394635" lon="0.414280">
        <ele>8.108</ele>
        <time>1970-01-01T02:50:17Z</time>
      </trkpt>
      <trkpt lat="40.394581" lon="0.414249">
        <ele>7.542</ele>
        <time>1970-01-01T02:50:18Z</time>
      </trkpt>
      <trkpt lat="40.394525" lon="0.414221">
        <ele>6.929</ele>
        <time>1970-01-01T02:50:19Z</time>
      </trkpt>
      <trkpt lat="40.394470" lon="0.414195">
        <ele>6.380</ele>
        <time>1970-01-01T02:50:20Z</time>
      </trkpt>
      <trkpt lat="40.394417" lon="0.414164">
        <ele>5.723</ele>
        <time>1970-01-01T02:50:21Z</time>
      </trkpt>
      <trkpt lat="40.394360" lon="0.414136">
        <ele>5.193</ele>
        <time>1970-01-01T02:50:22Z</time>
      </trkpt>
      <trkpt lat="40.394302" lon="0.414114">
        <ele>4.629</ele>
        <time>1970-01-01T02:50:23Z</time>
      </trkpt>
      <trkpt lat="40.394249" lon="0.414089">
        <ele>4.153</ele>
        <time>1970-01-01T02:50:24Z</time>
      </trkpt>
      <trkpt lat="40.394195" lon="0.414064">
        <ele>3.644</ele>
        <time>1970-01-01T02:50:25Z</time>
      </trkpt>
      <trkpt lat="40.394140" lon="0.414035">
        <ele>3.453</ele>
        <time>1970-01-01T02:50:26Z</time>
      </trkpt>
      <trkpt lat="40.394086" lon="0.414007">
        <ele>3.304</ele>
        <time>1970-01-01T02:50:27Z</time>
      </trkpt>
      <trkpt lat="40.394033" lon="0.413981">
        <ele>3.214</ele>
        <time>1970-01-01T02:50:28Z</time>
      </trkpt>
      <trkpt lat="40.393979" lon="0.413953">
        <ele>3.108</ele>
        <time>1970-01-01T02:50:29Z</time>
      </trkpt>
      <trkpt lat="40.393927" lon="0.413926">
        <ele>3.082</ele>
        <time>1970-01-01T02:50:30Z</time>
      </trkpt>
      <trkpt lat="40.393876" lon="0.413897">
        <ele>2.979</ele>
        <time>1970-01-01T02:50:31Z</time>
      </trkpt>
      <trkpt lat="40.393825" lon="0.413870">
        <ele>2.670</ele>
        <time>1970-01-01T02:50:32Z</time>
      </trkpt>
      <trkpt lat="40.393772" lon="0.413845">
        <ele>2.383</ele>
        <time>1970-01-01T02:50:33Z</time>
      </trkpt>
      <trkpt lat="40.393720" lon="0.413817">
        <ele>2.093</ele>
        <time>1970-01-01T02:50:34Z</time>
      </trkpt>
      <trkpt lat="40.393667" lon="0.413792">
        <ele>1.839</ele>
        <time>1970-01-01T02:50:35Z</time>
      </trkpt>
      <trkpt lat="40.393612" lon="0.413765">
        <ele>1.563</ele>
        <time>1970-01-01T02:50:36Z</time>
      </trkpt>
      <trkpt lat="40.393558" lon="0.413737">
        <ele>1.554</ele>
        <time>1970-01-01T02:50:37Z</time>
      </trkpt>
      <trkpt lat="40.393502" lon="0.413711">
        <ele>1.617</ele>
        <time>1970-01-01T02:50:38Z</time>
      </trkpt>
      <trkpt lat="40.393445" lon="0.413686">
        <ele>1.787</ele>
        <time>1970-01-01T02:50:39Z</time>
      </trkpt>
      <trkpt lat="40.393390" lon="0.413663">
        <ele>1.815</ele>
        <time>1970-01-01T02:50:40Z</time>
      </trkpt>
      <trkpt lat="40.393335" lon="0.413640">
        <ele>1.908</ele>
        <time>1970-01-01T02:50:41Z</time>
      </trkpt>
      <trkpt lat="40.393280" lon="0.413614">
        <ele>2.228</ele>
        <time>1970-01-01T02:50:42Z</time>
      </trkpt>
      <trkpt lat="40.393224" lon="0.413587">
        <ele>2.575</ele>
        <time>1970-01-01T02:50:43Z</time>
      </trkpt>
      <trkpt lat="40.393171" lon="0.413559">
        <ele>2.926</ele>
        <time>1970-01-01T02:50:44Z</time>
      </trkpt>
      <trkpt lat="40.393117" lon="0.413528">
        <ele>3.399</ele>
        <time>1970-01-01T02:50:45Z</time>
      </trkpt>
      <trkpt lat="40.393063" lon="0.413501">
        <ele>3.879</ele>
        <time>1970-01-01T02:50:46Z</time>
      </trkpt>
      <trkpt lat="40.393007" lon="0.413473">
        <ele>4.335</ele>
        <time>1970-01-01T02:50:47Z</time>
      </trkpt>
      <trkpt lat="40.392951" lon="0.413445">
        <ele>4.869</ele>
        <time>1970-01-01T02:50:48Z</time>
      </trkpt>
      <trkpt lat="40.392897" lon="0.413417">
        <ele>5.470</ele>
        <time>1970-01-01T02:50:49Z</time>
      </trkpt>
      <trkpt lat="40.392842" lon="0.413388">
        <ele>6.092</ele>
        <time>1970-01-01T02:50:50Z</time>
      </trkpt>
      <trkpt lat="40.392732" lon="0.413331">
        <ele>6.273</ele>
        <time>1970-01-01T02:50:51Z</time>
      </trkpt>
      <trkpt lat="40.392676" lon="0.413306">
        <ele>5.020</ele>
        <time>1970-01-01T02:50:52Z</time>
      </trkpt>
      <trkpt lat="40.392649" lon="0.413294">
        <ele>4.408</ele>
        <time>1970-01-01T02:50:53Z</time>
      </trkpt>
      <trkpt lat="40.392621" lon="0.413283">
        <ele>3.886</ele>
        <time>1970-01-01T02:50:54Z</time>
      </trkpt>
      <trkpt lat="40.392565" lon="0.413258">
        <ele>2.653</ele>
        <time>1970-01-01T02:50:55Z</time>
      </trkpt>
      <trkpt lat="40.392511" lon="0.413230">
        <ele>1.554</ele>
        <time>1970-01-01T02:50:56Z</time>
      </trkpt>
      <trkpt lat="40.392459" lon="0.413201">
        <ele>1.067</ele>
        <time>1970-01-01T02:50:57Z</time>
      </trkpt>
      <trkpt lat="40.392405" lon="0.413172">
        <ele>0.757</ele>
        <time>1970-01-01T02:50:58Z</time>
      </trkpt>
      <trkpt lat="40.392351" lon="0.413146">
        <ele>0.593</ele>
        <time>1970-01-01T02:50:59Z</time>
      </trkpt>
      <trkpt lat="40.392297" lon="0.413119">
        <ele>0.327</ele>
        <time>1970-01-01T02:51:00Z</time>
      </trkpt>
      <trkpt lat="40.392243" lon="0.413089">
        <ele>0.118</ele>
        <time>1970-01-01T02:51:01Z</time>
      </trkpt>
      <trkpt lat="40.392190" lon="0.413057">
        <ele>0.138</ele>
        <time>1970-01-01T02:51:02Z</time>
      </trkpt>
      <trkpt lat="40.392137" lon="0.413027">
        <ele>0.470</ele>
        <time>1970-01-01T02:51:03Z</time>
      </trkpt>
      <trkpt lat="40.392084" lon="0.413004">
        <ele>0.817</ele>
        <time>1970-01-01T02:51:04Z</time>
      </trkpt>
      <trkpt lat="40.392032" lon="0.412978">
        <ele>1.208</ele>
        <time>1970-01-01T02:51:05Z</time>
      </trkpt>
      <trkpt lat="40.391978" lon="0.412953">
        <ele>1.680</ele>
        <time>1970-01-01T02:51:06Z</time>
      </trkpt>
      <trkpt lat="40.391924" lon="0.412930">
        <ele>2.197</ele>
        <time>1970-01-01T02:51:07Z</time>
      </trkpt>
      <trkpt lat="40.391873" lon="0.412903">
        <ele>2.668</ele>
        <time>1970-01-01T02:51:08Z</time>
      </trkpt>
      <trkpt lat="40.391826" lon="0.412877">
        <ele>3.151</ele>
        <time>1970-01-01T02:51:09Z</time>
      </trkpt>
      <trkpt lat="40.391780" lon="0.412855">
        <ele>3.641</ele>
        <time>1970-01-01T02:51:10Z</time>
      </trkpt>
      <trkpt lat="40.391735" lon="0.412842">
        <ele>4.047</ele>
        <time>1970-01-01T02:51:11Z</time>
      </trkpt>
      <trkpt lat="40.391691" lon="0.412839">
        <ele>4.411</ele>
        <time>1970-01-01T02:51:12Z</time>
      </trkpt>
      <trkpt lat="40.391648" lon="0.412832">
        <ele>4.622</ele>
        <time>1970-01-01T02:51:13Z</time>
      </trkpt>
      <trkpt lat="40.391605" lon="0.412820">
        <ele>4.587</ele>
        <time>1970-01-01T02:51:14Z</time>
      </trkpt>
      <trkpt lat="40.391559" lon="0.412803">
        <ele>4.542</ele>
        <time>1970-01-01T02:51:15Z</time>
      </trkpt>
      <trkpt lat="40.391510" lon="0.412782">
        <ele>4.426</ele>
        <time>1970-01-01T02:51:16Z</time>
      </trkpt>
      <trkpt lat="40.391460" lon="0.412757">
        <ele>4.308</ele>
        <time>1970-01-01T02:51:17Z</time>
      </trkpt>
      <trkpt lat="40.391412" lon="0.412731">
        <ele>4.175</ele>
        <time>1970-01-01T02:51:18Z</time>
      </trkpt>
      <trkpt lat="40.391363" lon="0.412705">
        <ele>4.092</ele>
        <time>1970-01-01T02:51:19Z</time>
      </trkpt>
      <trkpt lat="40.391312" lon="0.412681">
        <ele>3.913</ele>
        <time>1970-01-01T02:51:20Z</time>
      </trkpt>
      <trkpt lat="40.391262" lon="0.412656">
        <ele>3.876</ele>
        <time>1970-01-01T02:51:21Z</time>
      </trkpt>
      <trkpt lat="40.391214" lon="0.412631">
        <ele>3.776</ele>
        <time>1970-01-01T02:51:22Z</time>
      </trkpt>
      <trkpt lat="40.391165" lon="0.412607">
        <ele>3.532</ele>
        <time>1970-01-01T02:51:23Z</time>
      </trkpt>
      <trkpt lat="40.391115" lon="0.412584">
        <ele>3.386</ele>
        <time>1970-01-01T02:51:24Z</time>
      </trkpt>
      <trkpt lat="40.391067" lon="0.412557">
        <ele>3.227</ele>
        <time>1970-01-01T02:51:25Z</time>
      </trkpt>
      <trkpt lat="40.391019" lon="0.412528">
        <ele>3.144</ele>
        <time>1970-01-01T02:51:26Z</time>
      </trkpt>
      <trkpt lat="40.390971" lon="0.412504">
        <ele>3.005</ele>
        <time>1970-01-01T02:51:27Z</time>
      </trkpt>
      <trkpt lat="40.390924" lon="0.412480">
        <ele>3.015</ele>
        <time>1970-01-01T02:51:28Z</time>
      </trkpt>
      <trkpt lat="40.390877" lon="0.412455">
        <ele>2.908</ele>
        <time>1970-01-01T02:51:29Z</time>
      </trkpt>
      <trkpt lat="40.390833" lon="0.412433">
        <ele>2.831</ele>
        <time>1970-01-01T02:51:30Z</time>
      </trkpt>
      <trkpt lat="40.390789" lon="0.412412">
        <ele>2.418</ele>
        <time>1970-01-01T02:51:31Z</time>
      </trkpt>
      <trkpt lat="40.390747" lon="0.412386">
        <ele>2.119</ele>
        <time>1970-01-01T02:51:32Z</time>
      </trkpt>
      <trkpt lat="40.390706" lon="0.412357">
        <ele>1.822</ele>
        <time>1970-01-01T02:51:33Z</time>
      </trkpt>
      <trkpt lat="40.390668" lon="0.412325">
        <ele>1.672</ele>
        <time>1970-01-01T02:51:34Z</time>
      </trkpt>
      <trkpt lat="40.390631" lon="0.412297">
        <ele>1.318</ele>
        <time>1970-01-01T02:51:35Z</time>
      </trkpt>
      <trkpt lat="40.390592" lon="0.412274">
        <ele>1.292</ele>
        <time>1970-01-01T02:51:36Z</time>
      </trkpt>
      <trkpt lat="40.390554" lon="0.412257">
        <ele>1.033</ele>
        <time>1970-01-01T02:51:37Z</time>
      </trkpt>
      <trkpt lat="40.390512" lon="0.412240">
        <ele>0.999</ele>
        <time>1970-01-01T02:51:38Z</time>
      </trkpt>
      <trkpt lat="40.390468" lon="0.412223">
        <ele>0.707</ele>
        <time>1970-01-01T02:51:39Z</time>
      </trkpt>
      <trkpt lat="40.390421" lon="0.412203">
        <ele>0.627</ele>
        <time>1970-01-01T02:51:40Z</time>
      </trkpt>
      <trkpt lat="40.390372" lon="0.412180">
        <ele>0.608</ele>
        <time>1970-01-01T02:51:41Z</time>
      </trkpt>
      <trkpt lat="40.390320" lon="0.412161">
        <ele>0.646</ele>
        <time>1970-01-01T02:51:42Z</time>
      </trkpt>
      <trkpt lat="40.390266" lon="0.412141">
        <ele>0.693</ele>
        <time>1970-01-01T02:51:43Z</time>
      </trkpt>
      <trkpt lat="40.390212" lon="0.412117">
        <ele>0.984</ele>
        <time>1970-01-01T02:51:44Z</time>
      </trkpt>
      <trkpt lat="40.390159" lon="0.412086">
        <ele>1.257</ele>
        <time>1970-01-01T02:51:45Z</time>
      </trkpt>
      <trkpt lat="40.390106" lon="0.412054">
        <ele>1.597</ele>
        <time>1970-01-01T02:51:46Z</time>
      </trkpt>
      <trkpt lat="40.390052" lon="0.412024">
        <ele>1.763</ele>
        <time>1970-01-01T02:51:47Z</time>
      </trkpt>
      <trkpt lat="40.389996" lon="0.411996">
        <ele>1.867</ele>
        <time>1970-01-01T02:51:48Z</time>
      </trkpt>
      <trkpt lat="40.389940" lon="0.411970">
        <ele>1.558</ele>
        <time>1970-01-01T02:51:49Z</time>
      </trkpt>
      <trkpt lat="40.389885" lon="0.411940">
        <ele>1.257</ele>
        <time>1970-01-01T02:51:50Z</time>
      </trkpt>
      <trkpt lat="40.389830" lon="0.411913">
        <ele>1.100</ele>
        <time>1970-01-01T02:51:51Z</time>
      </trkpt>
      <trkpt lat="40.389773" lon="0.411888">
        <ele>0.920</ele>
        <time>1970-01-01T02:51:52Z</time>
      </trkpt>
      <trkpt lat="40.389715" lon="0.411862">
        <ele>0.908</ele>
        <time>1970-01-01T02:51:53Z</time>
      </trkpt>
      <trkpt lat="40.389658" lon="0.411836">
        <ele>1.372</ele>
        <time>1970-01-01T02:51:54Z</time>
      </trkpt>
      <trkpt lat="40.389600" lon="0.411808">
        <ele>1.779</ele>
        <time>1970-01-01T02:51:55Z</time>
      </trkpt>
      <trkpt lat="40.389544" lon="0.411780">
        <ele>2.040</ele>
        <time>1970-01-01T02:51:56Z</time>
      </trkpt>
      <trkpt lat="40.389488" lon="0.411750">
        <ele>2.453</ele>
        <time>1970-01-01T02:51:57Z</time>
      </trkpt>
      <trkpt lat="40.389433" lon="0.411721">
        <ele>2.663</ele>
        <time>1970-01-01T02:51:58Z</time>
      </trkpt>
      <trkpt lat="40.389378" lon="0.411695">
        <ele>2.869</ele>
        <time>1970-01-01T02:51:59Z</time>
      </trkpt>
      <trkpt lat="40.389325" lon="0.411672">
        <ele>3.063</ele>
        <time>1970-01-01T02:52:00Z</time>
      </trkpt>
      <trkpt lat="40.389274" lon="0.411647">
        <ele>3.254</ele>
        <time>1970-01-01T02:52:01Z</time>
      </trkpt>
      <trkpt lat="40.389226" lon="0.411619">
        <ele>3.457</ele>
        <time>1970-01-01T02:52:02Z</time>
      </trkpt>
      <trkpt lat="40.389180" lon="0.411586">
        <ele>3.600</ele>
        <time>1970-01-01T02:52:03Z</time>
      </trkpt>
      <trkpt lat="40.389135" lon="0.411549">
        <ele>3.920</ele>
        <time>1970-01-01T02:52:04Z</time>
      </trkpt>
      <trkpt lat="40.389094" lon="0.411511">
        <ele>4.208</ele>
        <time>1970-01-01T02:52:05Z</time>
      </trkpt>
      <trkpt lat="40.389055" lon="0.411470">
        <ele>4.592</ele>
        <time>1970-01-01T02:52:06Z</time>
      </trkpt>
      <trkpt lat="40.389014" lon="0.411430">
        <ele>4.829</ele>
        <time>1970-01-01T02:52:07Z</time>
      </trkpt>
      <trkpt lat="40.388974" lon="0.411386">
        <ele>5.060</ele>
        <time>1970-01-01T02:52:08Z</time>
      </trkpt>
      <trkpt lat="40.388889" lon="0.411302">
        <ele>5.063</ele>
        <time>1970-01-01T02:52:09Z</time>
      </trkpt>
      <trkpt lat="40.388867" lon="0.411282">
        <ele>5.093</ele>
        <time>1970-01-01T02:52:10Z</time>
      </trkpt>
      <trkpt lat="40.388845" lon="0.411263">
        <ele>5.179</ele>
        <time>1970-01-01T02:52:11Z</time>
      </trkpt>
      <trkpt lat="40.388799" lon="0.411224">
        <ele>5.293</ele>
        <time>1970-01-01T02:52:12Z</time>
      </trkpt>
      <trkpt lat="40.388753" lon="0.411179">
        <ele>5.424</ele>
        <time>1970-01-01T02:52:13Z</time>
      </trkpt>
      <trkpt lat="40.388704" lon="0.411132">
        <ele>5.635</ele>
        <time>1970-01-01T02:52:14Z</time>
      </trkpt>
      <trkpt lat="40.388653" lon="0.411079">
        <ele>6.086</ele>
        <time>1970-01-01T02:52:15Z</time>
      </trkpt>
      <trkpt lat="40.388603" lon="0.411027">
        <ele>6.614</ele>
        <time>1970-01-01T02:52:16Z</time>
      </trkpt>
      <trkpt lat="40.388554" lon="0.410976">
        <ele>6.908</ele>
        <time>1970-01-01T02:52:17Z</time>
      </trkpt>
      <trkpt lat="40.388505" lon="0.410926">
        <ele>7.150</ele>
        <time>1970-01-01T02:52:18Z</time>
      </trkpt>
      <trkpt lat="40.388455" lon="0.410876">
        <ele>7.237</ele>
        <time>1970-01-01T02:52:19Z</time>
      </trkpt>
      <trkpt lat="40.388406" lon="0.410824">
        <ele>7.268</ele>
        <time>1970-01-01T02:52:20Z</time>
      </trkpt>
      <trkpt lat="40.388357" lon="0.410773">
        <ele>7.081</ele>
        <time>1970-01-01T02:52:21Z</time>
      </trkpt>
      <trkpt lat="40.388306" lon="0.410723">
        <ele>6.951</ele>
        <time>1970-01-01T02:52:22Z</time>
      </trkpt>
      <trkpt lat="40.388258" lon="0.410676">
        <ele>6.637</ele>
        <time>1970-01-01T02:52:23Z</time>
      </trkpt>
      <trkpt lat="40.388210" lon="0.410629">
        <ele>6.241</ele>
        <time>1970-01-01T02:52:24Z</time>
      </trkpt>
      <trkpt lat="40.388162" lon="0.410582">
        <ele>5.812</ele>
        <time>1970-01-01T02:52:25Z</time>
      </trkpt>
      <trkpt lat="40.388115" lon="0.410536">
        <ele>5.312</ele>
        <time>1970-01-01T02:52:26Z</time>
      </trkpt>
      <trkpt lat="40.388065" lon="0.410492">
        <ele>4.832</ele>
        <time>1970-01-01T02:52:27Z</time>
      </trkpt>
      <trkpt lat="40.388004" lon="0.410458">
        <ele>4.605</ele>
        <time>1970-01-01T02:52:28Z</time>
      </trkpt>
      <trkpt lat="40.387944" lon="0.410423">
        <ele>4.508</ele>
        <time>1970-01-01T02:52:29Z</time>
      </trkpt>
      <trkpt lat="40.387890" lon="0.410388">
        <ele>4.428</ele>
        <time>1970-01-01T02:52:30Z</time>
      </trkpt>
      <trkpt lat="40.387837" lon="0.410344">
        <ele>4.245</ele>
        <time>1970-01-01T02:52:31Z</time>
      </trkpt>
      <trkpt lat="40.387786" lon="0.410297">
        <ele>4.156</ele>
        <time>1970-01-01T02:52:32Z</time>
      </trkpt>
      <trkpt lat="40.387732" lon="0.410250">
        <ele>4.029</ele>
        <time>1970-01-01T02:52:33Z</time>
      </trkpt>
      <trkpt lat="40.387675" lon="0.410206">
        <ele>4.019</ele>
        <time>1970-01-01T02:52:34Z</time>
      </trkpt>
      <trkpt lat="40.387622" lon="0.410159">
        <ele>3.955</ele>
        <time>1970-01-01T02:52:35Z</time>
      </trkpt>
      <trkpt lat="40.387570" lon="0.410107">
        <ele>3.719</ele>
        <time>1970-01-01T02:52:36Z</time>
      </trkpt>
      <trkpt lat="40.387518" lon="0.410055">
        <ele>3.480</ele>
        <time>1970-01-01T02:52:37Z</time>
      </trkpt>
      <trkpt lat="40.387467" lon="0.410004">
        <ele>3.346</ele>
        <time>1970-01-01T02:52:38Z</time>
      </trkpt>
      <trkpt lat="40.387415" lon="0.409953">
        <ele>3.688</ele>
        <time>1970-01-01T02:52:39Z</time>
      </trkpt>
      <trkpt lat="40.387364" lon="0.409901">
        <ele>3.816</ele>
        <time>1970-01-01T02:52:40Z</time>
      </trkpt>
      <trkpt lat="40.387312" lon="0.409848">
        <ele>4.008</ele>
        <time>1970-01-01T02:52:41Z</time>
      </trkpt>
      <trkpt lat="40.387260" lon="0.409795">
        <ele>4.161</ele>
        <time>1970-01-01T02:52:42Z</time>
      </trkpt>
      <trkpt lat="40.387206" lon="0.409743">
        <ele>4.328</ele>
        <time>1970-01-01T02:52:43Z</time>
      </trkpt>
      <trkpt lat="40.387152" lon="0.409690">
        <ele>5.049</ele>
        <time>1970-01-01T02:52:44Z</time>
      </trkpt>
      <trkpt lat="40.387100" lon="0.409634">
        <ele>5.532</ele>
        <time>1970-01-01T02:52:45Z</time>
      </trkpt>
      <trkpt lat="40.387045" lon="0.409580">
        <ele>5.942</ele>
        <time>1970-01-01T02:52:46Z</time>
      </trkpt>
      <trkpt lat="40.386991" lon="0.409528">
        <ele>6.288</ele>
        <time>1970-01-01T02:52:47Z</time>
      </trkpt>
      <trkpt lat="40.386939" lon="0.409476">
        <ele>6.332</ele>
        <time>1970-01-01T02:52:48Z</time>
      </trkpt>
      <trkpt lat="40.386888" lon="0.409426">
        <ele>6.083</ele>
        <time>1970-01-01T02:52:49Z</time>
      </trkpt>
      <trkpt lat="40.386837" lon="0.409378">
        <ele>5.787</ele>
        <time>1970-01-01T02:52:50Z</time>
      </trkpt>
      <trkpt lat="40.386792" lon="0.409328">
        <ele>5.342</ele>
        <time>1970-01-01T02:52:51Z</time>
      </trkpt>
      <trkpt lat="40.386752" lon="0.409278">
        <ele>4.926</ele>
        <time>1970-01-01T02:52:52Z</time>
      </trkpt>
      <trkpt lat="40.386709" lon="0.409218">
        <ele>4.408</ele>
        <time>1970-01-01T02:52:53Z</time>
      </trkpt>
      <trkpt lat="40.386664" lon="0.409160">
        <ele>4.095</ele>
        <time>1970-01-01T02:52:54Z</time>
      </trkpt>
      <trkpt lat="40.386621" lon="0.409112">
        <ele>3.952</ele>
        <time>1970-01-01T02:52:55Z</time>
      </trkpt>
      <trkpt lat="40.386584" lon="0.409071">
        <ele>3.963</ele>
        <time>1970-01-01T02:52:56Z</time>
      </trkpt>
      <trkpt lat="40.386552" lon="0.409033">
        <ele>3.926</ele>
        <time>1970-01-01T02:52:57Z</time>
      </trkpt>
      <trkpt lat="40.386532" lon="0.409002">
        <ele>3.876</ele>
        <time>1970-01-01T02:52:58Z</time>
      </trkpt>
      <trkpt lat="40.386519" lon="0.408979">
        <ele>3.752</ele>
        <time>1970-01-01T02:52:59Z</time>
      </trkpt>
      <trkpt lat="40.386508" lon="0.408963">
        <ele>3.796</ele>
        <time>1970-01-01T02:53:00Z</time>
      </trkpt>
      <trkpt lat="40.386498" lon="0.408963">
        <ele>3.767</ele>
        <time>1970-01-01T02:53:01Z</time>
      </trkpt>
      <trkpt lat="40.386510" lon="0.408960">
        <ele>3.697</ele>
        <time>1970-01-01T02:53:02Z</time>
      </trkpt>
      <trkpt lat="40.386512" lon="0.408959">
        <ele>3.623</ele>
        <time>1970-01-01T02:53:03Z</time>
      </trkpt>
      <trkpt lat="40.386514" lon="0.408958">
        <ele>3.625</ele>
        <time>1970-01-01T02:53:04Z</time>
      </trkpt>
      <trkpt lat="40.386466" lon="0.408962">
        <ele>4.008</ele>
        <time>1970-01-01T02:55:52Z</time>
      </trkpt>
      <trkpt lat="40.386450" lon="0.408951">
        <ele>4.046</ele>
        <time>1970-01-01T02:55:53Z</time>
      </trkpt>
      <trkpt lat="40.386430" lon="0.408940">
        <ele>4.183</ele>
        <time>1970-01-01T02:55:54Z</time>
      </trkpt>
      <trkpt lat="40.386409" lon="0.408926">
        <ele>4.154</ele>
        <time>1970-01-01T02:55:55Z</time>
      </trkpt>
      <trkpt lat="40.386387" lon="0.408909">
        <ele>4.237</ele>
        <time>1970-01-01T02:55:56Z</time>
      </trkpt>
      <trkpt lat="40.386363" lon="0.408888">
        <ele>4.127</ele>
        <time>1970-01-01T02:55:57Z</time>
      </trkpt>
      <trkpt lat="40.386339" lon="0.408865">
        <ele>4.123</ele>
        <time>1970-01-01T02:55:58Z</time>
      </trkpt>
      <trkpt lat="40.386312" lon="0.408840">
        <ele>4.137</ele>
        <time>1970-01-01T02:55:59Z</time>
      </trkpt>
      <trkpt lat="40.386285" lon="0.408814">
        <ele>4.028</ele>
        <time>1970-01-01T02:56:00Z</time>
      </trkpt>
      <trkpt lat="40.386257" lon="0.408788">
        <ele>3.967</ele>
        <time>1970-01-01T02:56:01Z</time>
      </trkpt>
      <trkpt lat="40.386229" lon="0.408761">
        <ele>3.981</ele>
        <time>1970-01-01T02:56:02Z</time>
      </trkpt>
      <trkpt lat="40.386198" lon="0.408732">
        <ele>3.719</ele>
        <time>1970-01-01T02:56:03Z</time>
      </trkpt>
      <trkpt lat="40.386167" lon="0.408704">
        <ele>3.608</ele>
        <time>1970-01-01T02:56:04Z</time>
      </trkpt>
      <trkpt lat="40.386135" lon="0.408676">
        <ele>3.463</ele>
        <time>1970-01-01T02:56:05Z</time>
      </trkpt>
      <trkpt lat="40.386104" lon="0.408645">
        <ele>3.270</ele>
        <time>1970-01-01T02:56:06Z</time>
      </trkpt>
      <trkpt lat="40.386075" lon="0.408610">
        <ele>3.091</ele>
        <time>1970-01-01T02:56:07Z</time>
      </trkpt>
      <trkpt lat="40.386044" lon="0.408572">
        <ele>3.044</ele>
        <time>1970-01-01T02:56:08Z</time>
      </trkpt>
      <trkpt lat="40.386010" lon="0.408536">
        <ele>2.944</ele>
        <time>1970-01-01T02:56:09Z</time>
      </trkpt>
      <trkpt lat="40.385974" lon="0.408498">
        <ele>2.830</ele>
        <time>1970-01-01T02:56:10Z</time>
      </trkpt>
      <trkpt lat="40.385935" lon="0.408461">
        <ele>2.764</ele>
        <time>1970-01-01T02:56:11Z</time>
      </trkpt>
      <trkpt lat="40.385895" lon="0.408425">
        <ele>2.555</ele>
        <time>1970-01-01T02:56:12Z</time>
      </trkpt>
      <trkpt lat="40.385854" lon="0.408388">
        <ele>2.389</ele>
        <time>1970-01-01T02:56:13Z</time>
      </trkpt>
      <trkpt lat="40.385811" lon="0.408350">
        <ele>2.406</ele>
        <time>1970-01-01T02:56:14Z</time>
      </trkpt>
      <trkpt lat="40.385770" lon="0.408312">
        <ele>2.926</ele>
        <time>1970-01-01T02:56:15Z</time>
      </trkpt>
      <trkpt lat="40.385731" lon="0.408272">
        <ele>3.208</ele>
        <time>1970-01-01T02:56:16Z</time>
      </trkpt>
      <trkpt lat="40.385690" lon="0.408232">
        <ele>3.565</ele>
        <time>1970-01-01T02:56:17Z</time>
      </trkpt>
      <trkpt lat="40.385647" lon="0.408192">
        <ele>3.732</ele>
        <time>1970-01-01T02:56:18Z</time>
      </trkpt>
      <trkpt lat="40.385604" lon="0.408152">
        <ele>3.723</ele>
        <time>1970-01-01T02:56:19Z</time>
      </trkpt>
      <trkpt lat="40.385562" lon="0.408114">
        <ele>3.636</ele>
        <time>1970-01-01T02:56:20Z</time>
      </trkpt>
      <trkpt lat="40.385516" lon="0.408073">
        <ele>3.596</ele>
        <time>1970-01-01T02:56:21Z</time>
      </trkpt>
      <trkpt lat="40.385471" lon="0.408031">
        <ele>3.592</ele>
        <time>1970-01-01T02:56:22Z</time>
      </trkpt>
      <trkpt lat="40.385386" lon="0.407947">
        <ele>3.496</ele>
        <time>1970-01-01T02:56:23Z</time>
      </trkpt>
      <trkpt lat="40.385366" lon="0.407925">
        <ele>3.357</ele>
        <time>1970-01-01T02:56:24Z</time>
      </trkpt>
      <trkpt lat="40.385345" lon="0.407903">
        <ele>3.186</ele>
        <time>1970-01-01T02:56:25Z</time>
      </trkpt>
      <trkpt lat="40.385304" lon="0.407859">
        <ele>2.860</ele>
        <time>1970-01-01T02:56:26Z</time>
      </trkpt>
      <trkpt lat="40.385263" lon="0.407818">
        <ele>2.526</ele>
        <time>1970-01-01T02:56:27Z</time>
      </trkpt>
      <trkpt lat="40.385229" lon="0.407774">
        <ele>2.208</ele>
        <time>1970-01-01T02:56:28Z</time>
      </trkpt>
      <trkpt lat="40.385184" lon="0.407736">
        <ele>2.335</ele>
        <time>1970-01-01T02:56:29Z</time>
      </trkpt>
      <trkpt lat="40.385143" lon="0.407693">
        <ele>2.332</ele>
        <time>1970-01-01T02:56:30Z</time>
      </trkpt>
      <trkpt lat="40.385103" lon="0.407648">
        <ele>2.253</ele>
        <time>1970-01-01T02:56:31Z</time>
      </trkpt>
      <trkpt lat="40.385056" lon="0.407604">
        <ele>1.976</ele>
        <time>1970-01-01T02:56:32Z</time>
      </trkpt>
      <trkpt lat="40.385012" lon="0.407555">
        <ele>1.516</ele>
        <time>1970-01-01T02:56:33Z</time>
      </trkpt>
      <trkpt lat="40.384967" lon="0.407510">
        <ele>1.232</ele>
        <time>1970-01-01T02:56:34Z</time>
      </trkpt>
      <trkpt lat="40.384921" lon="0.407465">
        <ele>1.496</ele>
        <time>1970-01-01T02:56:35Z</time>
      </trkpt>
      <trkpt lat="40.384868" lon="0.407423">
        <ele>1.667</ele>
        <time>1970-01-01T02:56:36Z</time>
      </trkpt>
      <trkpt lat="40.384814" lon="0.407383">
        <ele>1.875</ele>
        <time>1970-01-01T02:56:37Z</time>
      </trkpt>
      <trkpt lat="40.384759" lon="0.407343">
        <ele>1.928</ele>
        <time>1970-01-01T02:56:38Z</time>
      </trkpt>
      <trkpt lat="40.384708" lon="0.407302">
        <ele>2.020</ele>
        <time>1970-01-01T02:56:39Z</time>
      </trkpt>
      <trkpt lat="40.384652" lon="0.407261">
        <ele>2.008</ele>
        <time>1970-01-01T02:56:40Z</time>
      </trkpt>
      <trkpt lat="40.384599" lon="0.407220">
        <ele>2.034</ele>
        <time>1970-01-01T02:56:41Z</time>
      </trkpt>
      <trkpt lat="40.384549" lon="0.407175">
        <ele>2.081</ele>
        <time>1970-01-01T02:56:42Z</time>
      </trkpt>
      <trkpt lat="40.384506" lon="0.407122">
        <ele>2.082</ele>
        <time>1970-01-01T02:56:43Z</time>
      </trkpt>
      <trkpt lat="40.384465" lon="0.407063">
        <ele>2.055</ele>
        <time>1970-01-01T02:56:44Z</time>
      </trkpt>
      <trkpt lat="40.384423" lon="0.407007">
        <ele>2.035</ele>
        <time>1970-01-01T02:56:45Z</time>
      </trkpt>
      <trkpt lat="40.384376" lon="0.406954">
        <ele>2.011</ele>
        <time>1970-01-01T02:56:46Z</time>
      </trkpt>
      <trkpt lat="40.384328" lon="0.406906">
        <ele>2.145</ele>
        <time>1970-01-01T02:56:47Z</time>
      </trkpt>
      <trkpt lat="40.384280" lon="0.406862">
        <ele>2.146</ele>
        <time>1970-01-01T02:56:48Z</time>
      </trkpt>
      <trkpt lat="40.384234" lon="0.406820">
        <ele>2.155</ele>
        <time>1970-01-01T02:56:49Z</time>
      </trkpt>
      <trkpt lat="40.384188" lon="0.406777">
        <ele>2.007</ele>
        <time>1970-01-01T02:56:50Z</time>
      </trkpt>
      <trkpt lat="40.384144" lon="0.406735">
        <ele>2.117</ele>
        <time>1970-01-01T02:56:51Z</time>
      </trkpt>
      <trkpt lat="40.384100" lon="0.406695">
        <ele>2.208</ele>
        <time>1970-01-01T02:56:52Z</time>
      </trkpt>
      <trkpt lat="40.384055" lon="0.406657">
        <ele>2.482</ele>
        <time>1970-01-01T02:56:53Z</time>
      </trkpt>
      <trkpt lat="40.384003" lon="0.406635">
        <ele>2.589</ele>
        <time>1970-01-01T02:56:54Z</time>
      </trkpt>
      <trkpt lat="40.383947" lon="0.406630">
        <ele>2.760</ele>
        <time>1970-01-01T02:56:55Z</time>
      </trkpt>
      <trkpt lat="40.383892" lon="0.406641">
        <ele>2.913</ele>
        <time>1970-01-01T02:56:56Z</time>
      </trkpt>
      <trkpt lat="40.383842" lon="0.406676">
        <ele>3.183</ele>
        <time>1970-01-01T02:56:57Z</time>
      </trkpt>
      <trkpt lat="40.383798" lon="0.406723">
        <ele>3.349</ele>
        <time>1970-01-01T02:56:58Z</time>
      </trkpt>
      <trkpt lat="40.383757" lon="0.406775">
        <ele>3.543</ele>
        <time>1970-01-01T02:56:59Z</time>
      </trkpt>
      <trkpt lat="40.383715" lon="0.406830">
        <ele>3.894</ele>
        <time>1970-01-01T02:57:00Z</time>
      </trkpt>
      <trkpt lat="40.383675" lon="0.406883">
        <ele>4.263</ele>
        <time>1970-01-01T02:57:01Z</time>
      </trkpt>
      <trkpt lat="40.383633" lon="0.406939">
        <ele>4.744</ele>
        <time>1970-01-01T02:57:02Z</time>
      </trkpt>
      <trkpt lat="40.383590" lon="0.406993">
        <ele>5.318</ele>
        <time>1970-01-01T02:57:03Z</time>
      </trkpt>
      <trkpt lat="40.383547" lon="0.407049">
        <ele>5.808</ele>
        <time>1970-01-01T02:57:04Z</time>
      </trkpt>
      <trkpt lat="40.383506" lon="0.407111">
        <ele>6.433</ele>
        <time>1970-01-01T02:57:05Z</time>
      </trkpt>
      <trkpt lat="40.383465" lon="0.407179">
        <ele>6.980</ele>
        <time>1970-01-01T02:57:06Z</time>
      </trkpt>
      <trkpt lat="40.383424" lon="0.407246">
        <ele>7.441</ele>
        <time>1970-01-01T02:57:07Z</time>
      </trkpt>
      <trkpt lat="40.383379" lon="0.407309">
        <ele>7.714</ele>
        <time>1970-01-01T02:57:08Z</time>
      </trkpt>
      <trkpt lat="40.383337" lon="0.407379">
        <ele>8.054</ele>
        <time>1970-01-01T02:57:09Z</time>
      </trkpt>
      <trkpt lat="40.383299" lon="0.407449">
        <ele>8.030</ele>
        <time>1970-01-01T02:57:10Z</time>
      </trkpt>
      <trkpt lat="40.383255" lon="0.407512">
        <ele>8.064</ele>
        <time>1970-01-01T02:57:11Z</time>
      </trkpt>
      <trkpt lat="40.383218" lon="0.407577">
        <ele>8.085</ele>
        <time>1970-01-01T02:57:12Z</time>
      </trkpt>
      <trkpt lat="40.383180" lon="0.407639">
        <ele>8.045</ele>
        <time>1970-01-01T02:57:13Z</time>
      </trkpt>
      <trkpt lat="40.383142" lon="0.407705">
        <ele>8.047</ele>
        <time>1970-01-01T02:57:14Z</time>
      </trkpt>
      <trkpt lat="40.383101" lon="0.407769">
        <ele>8.011</ele>
        <time>1970-01-01T02:57:15Z</time>
      </trkpt>
      <trkpt lat="40.383059" lon="0.407830">
        <ele>7.808</ele>
        <time>1970-01-01T02:57:16Z</time>
      </trkpt>
      <trkpt lat="40.383021" lon="0.407893">
        <ele>7.321</ele>
        <time>1970-01-01T02:57:17Z</time>
      </trkpt>
      <trkpt lat="40.382987" lon="0.407956">
        <ele>6.718</ele>
        <time>1970-01-01T02:57:18Z</time>
      </trkpt>
      <trkpt lat="40.382956" lon="0.408020">
        <ele>6.189</ele>
        <time>1970-01-01T02:57:19Z</time>
      </trkpt>
      <trkpt lat="40.382917" lon="0.408081">
        <ele>5.462</ele>
        <time>1970-01-01T02:57:20Z</time>
      </trkpt>
      <trkpt lat="40.382879" lon="0.408134">
        <ele>4.812</ele>
        <time>1970-01-01T02:57:21Z</time>
      </trkpt>
      <trkpt lat="40.382840" lon="0.408181">
        <ele>4.258</ele>
        <time>1970-01-01T02:57:22Z</time>
      </trkpt>
      <trkpt lat="40.382799" lon="0.408222">
        <ele>3.662</ele>
        <time>1970-01-01T02:57:23Z</time>
      </trkpt>
      <trkpt lat="40.382747" lon="0.408238">
        <ele>3.353</ele>
        <time>1970-01-01T02:57:24Z</time>
      </trkpt>
      <trkpt lat="40.382692" lon="0.408228">
        <ele>3.493</ele>
        <time>1970-01-01T02:57:25Z</time>
      </trkpt>
      <trkpt lat="40.382632" lon="0.408208">
        <ele>3.565</ele>
        <time>1970-01-01T02:57:26Z</time>
      </trkpt>
      <trkpt lat="40.382565" lon="0.408177">
        <ele>3.621</ele>
        <time>1970-01-01T02:57:27Z</time>
      </trkpt>
      <trkpt lat="40.382498" lon="0.408140">
        <ele>3.708</ele>
        <time>1970-01-01T02:57:28Z</time>
      </trkpt>
      <trkpt lat="40.382437" lon="0.408105">
        <ele>4.266</ele>
        <time>1970-01-01T02:57:29Z</time>
      </trkpt>
      <trkpt lat="40.382372" lon="0.408066">
        <ele>4.953</ele>
        <time>1970-01-01T02:57:30Z</time>
      </trkpt>
      <trkpt lat="40.382312" lon="0.408033">
        <ele>5.574</ele>
        <time>1970-01-01T02:57:31Z</time>
      </trkpt>
      <trkpt lat="40.382249" lon="0.408002">
        <ele>6.217</ele>
        <time>1970-01-01T02:57:32Z</time>
      </trkpt>
      <trkpt lat="40.382185" lon="0.407974">
        <ele>6.587</ele>
        <time>1970-01-01T02:57:33Z</time>
      </trkpt>
      <trkpt lat="40.382122" lon="0.407949">
        <ele>6.493</ele>
        <time>1970-01-01T02:57:34Z</time>
      </trkpt>
      <trkpt lat="40.382058" lon="0.407924">
        <ele>6.487</ele>
        <time>1970-01-01T02:57:35Z</time>
      </trkpt>
      <trkpt lat="40.381996" lon="0.407899">
        <ele>6.378</ele>
        <time>1970-01-01T02:57:36Z</time>
      </trkpt>
      <trkpt lat="40.381936" lon="0.407874">
        <ele>6.345</ele>
        <time>1970-01-01T02:57:37Z</time>
      </trkpt>
      <trkpt lat="40.381878" lon="0.407847">
        <ele>6.147</ele>
        <time>1970-01-01T02:57:38Z</time>
      </trkpt>
      <trkpt lat="40.381819" lon="0.407820">
        <ele>5.911</ele>
        <time>1970-01-01T02:57:39Z</time>
      </trkpt>
      <trkpt lat="40.381760" lon="0.407793">
        <ele>5.608</ele>
        <time>1970-01-01T02:57:40Z</time>
      </trkpt>
      <trkpt lat="40.381702" lon="0.407765">
        <ele>5.211</ele>
        <time>1970-01-01T02:57:41Z</time>
      </trkpt>
      <trkpt lat="40.381642" lon="0.407735">
        <ele>5.188</ele>
        <time>1970-01-01T02:57:42Z</time>
      </trkpt>
      <trkpt lat="40.381584" lon="0.407706">
        <ele>5.199</ele>
        <time>1970-01-01T02:57:43Z</time>
      </trkpt>
      <trkpt lat="40.381527" lon="0.407676">
        <ele>5.182</ele>
        <time>1970-01-01T02:57:44Z</time>
      </trkpt>
      <trkpt lat="40.381468" lon="0.407646">
        <ele>5.012</ele>
        <time>1970-01-01T02:57:45Z</time>
      </trkpt>
      <trkpt lat="40.381410" lon="0.407615">
        <ele>4.818</ele>
        <time>1970-01-01T02:57:46Z</time>
      </trkpt>
      <trkpt lat="40.381349" lon="0.407582">
        <ele>4.772</ele>
        <time>1970-01-01T02:57:47Z</time>
      </trkpt>
      <trkpt lat="40.381287" lon="0.407551">
        <ele>4.793</ele>
        <time>1970-01-01T02:57:48Z</time>
      </trkpt>
      <trkpt lat="40.381225" lon="0.407520">
        <ele>4.796</ele>
        <time>1970-01-01T02:57:49Z</time>
      </trkpt>
      <trkpt lat="40.381164" lon="0.407490">
        <ele>4.731</ele>
        <time>1970-01-01T02:57:50Z</time>
      </trkpt>
      <trkpt lat="40.381103" lon="0.407461">
        <ele>4.724</ele>
        <time>1970-01-01T02:57:51Z</time>
      </trkpt>
      <trkpt lat="40.381041" lon="0.407434">
        <ele>4.608</ele>
        <time>1970-01-01T02:57:52Z</time>
      </trkpt>
      <trkpt lat="40.380979" lon="0.407408">
        <ele>4.516</ele>
        <time>1970-01-01T02:57:53Z</time>
      </trkpt>
      <trkpt lat="40.380919" lon="0.407385">
        <ele>4.553</ele>
        <time>1970-01-01T02:57:54Z</time>
      </trkpt>
      <trkpt lat="40.380857" lon="0.407360">
        <ele>4.544</ele>
        <time>1970-01-01T02:57:55Z</time>
      </trkpt>
      <trkpt lat="40.380799" lon="0.407336">
        <ele>4.317</ele>
        <time>1970-01-01T02:57:56Z</time>
      </trkpt>
      <trkpt lat="40.380741" lon="0.407315">
        <ele>4.067</ele>
        <time>1970-01-01T02:57:57Z</time>
      </trkpt>
      <trkpt lat="40.380680" lon="0.407292">
        <ele>3.753</ele>
        <time>1970-01-01T02:57:58Z</time>
      </trkpt>
      <trkpt lat="40.380617" lon="0.407269">
        <ele>3.497</ele>
        <time>1970-01-01T02:57:59Z</time>
      </trkpt>
      <trkpt lat="40.380554" lon="0.407247">
        <ele>3.188</ele>
        <time>1970-01-01T02:58:00Z</time>
      </trkpt>
      <trkpt lat="40.380491" lon="0.407226">
        <ele>2.816</ele>
        <time>1970-01-01T02:58:01Z</time>
      </trkpt>
      <trkpt lat="40.380436" lon="0.407201">
        <ele>2.576</ele>
        <time>1970-01-01T02:58:02Z</time>
      </trkpt>
      <trkpt lat="40.380375" lon="0.407181">
        <ele>2.313</ele>
        <time>1970-01-01T02:58:03Z</time>
      </trkpt>
      <trkpt lat="40.380311" lon="0.407163">
        <ele>2.108</ele>
        <time>1970-01-01T02:58:04Z</time>
      </trkpt>
      <trkpt lat="40.380244" lon="0.407144">
        <ele>2.058</ele>
        <time>1970-01-01T02:58:05Z</time>
      </trkpt>
      <trkpt lat="40.380177" lon="0.407126">
        <ele>2.195</ele>
        <time>1970-01-01T02:58:06Z</time>
      </trkpt>
      <trkpt lat="40.380110" lon="0.407106">
        <ele>2.336</ele>
        <time>1970-01-01T02:58:07Z</time>
      </trkpt>
      <trkpt lat="40.380042" lon="0.407088">
        <ele>2.459</ele>
        <time>1970-01-01T02:58:08Z</time>
      </trkpt>
      <trkpt lat="40.379976" lon="0.407065">
        <ele>2.539</ele>
        <time>1970-01-01T02:58:09Z</time>
      </trkpt>
      <trkpt lat="40.379910" lon="0.407041">
        <ele>2.435</ele>
        <time>1970-01-01T02:58:10Z</time>
      </trkpt>
      <trkpt lat="40.379845" lon="0.407016">
        <ele>2.349</ele>
        <time>1970-01-01T02:58:11Z</time>
      </trkpt>
      <trkpt lat="40.379780" lon="0.406994">
        <ele>2.240</ele>
        <time>1970-01-01T02:58:12Z</time>
      </trkpt>
      <trkpt lat="40.379716" lon="0.406974">
        <ele>2.038</ele>
        <time>1970-01-01T02:58:13Z</time>
      </trkpt>
      <trkpt lat="40.379650" lon="0.406950">
        <ele>2.070</ele>
        <time>1970-01-01T02:58:14Z</time>
      </trkpt>
      <trkpt lat="40.379587" lon="0.406926">
        <ele>2.117</ele>
        <time>1970-01-01T02:58:15Z</time>
      </trkpt>
      <trkpt lat="40.379523" lon="0.406901">
        <ele>2.208</ele>
        <time>1970-01-01T02:58:16Z</time>
      </trkpt>
      <trkpt lat="40.379460" lon="0.406877">
        <ele>2.280</ele>
        <time>1970-01-01T02:58:17Z</time>
      </trkpt>
      <trkpt lat="40.379398" lon="0.406854">
        <ele>2.447</ele>
        <time>1970-01-01T02:58:18Z</time>
      </trkpt>
      <trkpt lat="40.379335" lon="0.406832">
        <ele>2.658</ele>
        <time>1970-01-01T02:58:19Z</time>
      </trkpt>
      <trkpt lat="40.379273" lon="0.406809">
        <ele>2.831</ele>
        <time>1970-01-01T02:58:20Z</time>
      </trkpt>
      <trkpt lat="40.379211" lon="0.406787">
        <ele>2.921</ele>
        <time>1970-01-01T02:58:21Z</time>
      </trkpt>
      <trkpt lat="40.379149" lon="0.406766">
        <ele>3.117</ele>
        <time>1970-01-01T02:58:22Z</time>
      </trkpt>
      <trkpt lat="40.379090" lon="0.406746">
        <ele>3.671</ele>
        <time>1970-01-01T02:58:23Z</time>
      </trkpt>
      <trkpt lat="40.379031" lon="0.406724">
        <ele>4.092</ele>
        <time>1970-01-01T02:58:24Z</time>
      </trkpt>
      <trkpt lat="40.378972" lon="0.406701">
        <ele>4.469</ele>
        <time>1970-01-01T02:58:25Z</time>
      </trkpt>
      <trkpt lat="40.378912" lon="0.406675">
        <ele>4.804</ele>
        <time>1970-01-01T02:58:26Z</time>
      </trkpt>
      <trkpt lat="40.378852" lon="0.406650">
        <ele>4.924</ele>
        <time>1970-01-01T02:58:27Z</time>
      </trkpt>
      <trkpt lat="40.378791" lon="0.406629">
        <ele>4.708</ele>
        <time>1970-01-01T02:58:28Z</time>
      </trkpt>
      <trkpt lat="40.378729" lon="0.406608">
        <ele>4.673</ele>
        <time>1970-01-01T02:58:29Z</time>
      </trkpt>
      <trkpt lat="40.378669" lon="0.406586">
        <ele>4.490</ele>
        <time>1970-01-01T02:58:30Z</time>
      </trkpt>
      <trkpt lat="40.378610" lon="0.406566">
        <ele>4.321</ele>
        <time>1970-01-01T02:58:31Z</time>
      </trkpt>
      <trkpt lat="40.378547" lon="0.406550">
        <ele>4.224</ele>
        <time>1970-01-01T02:58:32Z</time>
      </trkpt>
      <trkpt lat="40.378479" lon="0.406547">
        <ele>4.144</ele>
        <time>1970-01-01T02:58:33Z</time>
      </trkpt>
      <trkpt lat="40.378411" lon="0.406569">
        <ele>4.390</ele>
        <time>1970-01-01T02:58:34Z</time>
      </trkpt>
      <trkpt lat="40.378352" lon="0.406614">
        <ele>4.694</ele>
        <time>1970-01-01T02:58:35Z</time>
      </trkpt>
      <trkpt lat="40.378308" lon="0.406675">
        <ele>5.675</ele>
        <time>1970-01-01T02:58:36Z</time>
      </trkpt>
      <trkpt lat="40.378275" lon="0.406743">
        <ele>6.919</ele>
        <time>1970-01-01T02:58:37Z</time>
      </trkpt>
      <trkpt lat="40.378244" lon="0.406812">
        <ele>8.009</ele>
        <time>1970-01-01T02:58:38Z</time>
      </trkpt>
      <trkpt lat="40.378208" lon="0.406876">
        <ele>8.919</ele>
        <time>1970-01-01T02:58:39Z</time>
      </trkpt>
      <trkpt lat="40.378173" lon="0.406939">
        <ele>9.508</ele>
        <time>1970-01-01T02:58:40Z</time>
      </trkpt>
      <trkpt lat="40.378138" lon="0.407003">
        <ele>9.888</ele>
        <time>1970-01-01T02:58:41Z</time>
      </trkpt>
      <trkpt lat="40.378105" lon="0.407067">
        <ele>9.965</ele>
        <time>1970-01-01T02:58:42Z</time>
      </trkpt>
      <trkpt lat="40.378074" lon="0.407130">
        <ele>10.016</ele>
        <time>1970-01-01T02:58:43Z</time>
      </trkpt>
      <trkpt lat="40.378036" lon="0.407189">
        <ele>10.059</ele>
        <time>1970-01-01T02:58:44Z</time>
      </trkpt>
      <trkpt lat="40.377996" lon="0.407244">
        <ele>9.779</ele>
        <time>1970-01-01T02:58:45Z</time>
      </trkpt>
      <trkpt lat="40.377953" lon="0.407291">
        <ele>9.215</ele>
        <time>1970-01-01T02:58:46Z</time>
      </trkpt>
      <trkpt lat="40.377904" lon="0.407321">
        <ele>8.789</ele>
        <time>1970-01-01T02:58:47Z</time>
      </trkpt>
      <trkpt lat="40.377850" lon="0.407327">
        <ele>8.660</ele>
        <time>1970-01-01T02:58:48Z</time>
      </trkpt>
      <trkpt lat="40.377790" lon="0.407318">
        <ele>8.697</ele>
        <time>1970-01-01T02:58:49Z</time>
      </trkpt>
      <trkpt lat="40.377725" lon="0.407296">
        <ele>8.123</ele>
        <time>1970-01-01T02:58:50Z</time>
      </trkpt>
      <trkpt lat="40.377660" lon="0.407271">
        <ele>7.425</ele>
        <time>1970-01-01T02:58:51Z</time>
      </trkpt>
      <trkpt lat="40.377595" lon="0.407247">
        <ele>6.508</ele>
        <time>1970-01-01T02:58:52Z</time>
      </trkpt>
      <trkpt lat="40.377533" lon="0.407224">
        <ele>5.636</ele>
        <time>1970-01-01T02:58:53Z</time>
      </trkpt>
      <trkpt lat="40.377471" lon="0.407203">
        <ele>5.073</ele>
        <time>1970-01-01T02:58:54Z</time>
      </trkpt>
      <trkpt lat="40.377407" lon="0.407182">
        <ele>4.724</ele>
        <time>1970-01-01T02:58:55Z</time>
      </trkpt>
      <trkpt lat="40.377345" lon="0.407161">
        <ele>4.457</ele>
        <time>1970-01-01T02:58:56Z</time>
      </trkpt>
      <trkpt lat="40.377286" lon="0.407139">
        <ele>4.127</ele>
        <time>1970-01-01T02:58:57Z</time>
      </trkpt>
      <trkpt lat="40.377228" lon="0.407116">
        <ele>3.833</ele>
        <time>1970-01-01T02:58:58Z</time>
      </trkpt>
      <trkpt lat="40.377168" lon="0.407093">
        <ele>4.147</ele>
        <time>1970-01-01T02:58:59Z</time>
      </trkpt>
      <trkpt lat="40.377100" lon="0.407078">
        <ele>4.558</ele>
        <time>1970-01-01T02:59:00Z</time>
      </trkpt>
      <trkpt lat="40.377036" lon="0.407059">
        <ele>4.826</ele>
        <time>1970-01-01T02:59:01Z</time>
      </trkpt>
      <trkpt lat="40.376972" lon="0.407038">
        <ele>5.247</ele>
        <time>1970-01-01T02:59:02Z</time>
      </trkpt>
      <trkpt lat="40.376909" lon="0.407015">
        <ele>5.511</ele>
        <time>1970-01-01T02:59:03Z</time>
      </trkpt>
      <trkpt lat="40.376847" lon="0.406991">
        <ele>5.708</ele>
        <time>1970-01-01T02:59:04Z</time>
      </trkpt>
      <trkpt lat="40.376784" lon="0.406969">
        <ele>5.829</ele>
        <time>1970-01-01T02:59:05Z</time>
      </trkpt>
      <trkpt lat="40.376722" lon="0.406950">
        <ele>6.056</ele>
        <time>1970-01-01T02:59:06Z</time>
      </trkpt>
      <trkpt lat="40.376660" lon="0.406928">
        <ele>6.097</ele>
        <time>1970-01-01T02:59:07Z</time>
      </trkpt>
      <trkpt lat="40.376598" lon="0.406906">
        <ele>5.860</ele>
        <time>1970-01-01T02:59:08Z</time>
      </trkpt>
      <trkpt lat="40.376535" lon="0.406883">
        <ele>5.540</ele>
        <time>1970-01-01T02:59:09Z</time>
      </trkpt>
      <trkpt lat="40.376471" lon="0.406863">
        <ele>5.356</ele>
        <time>1970-01-01T02:59:10Z</time>
      </trkpt>
      <trkpt lat="40.376409" lon="0.406841">
        <ele>5.120</ele>
        <time>1970-01-01T02:59:11Z</time>
      </trkpt>
      <trkpt lat="40.376347" lon="0.406816">
        <ele>5.311</ele>
        <time>1970-01-01T02:59:12Z</time>
      </trkpt>
      <trkpt lat="40.376284" lon="0.406792">
        <ele>5.835</ele>
        <time>1970-01-01T02:59:13Z</time>
      </trkpt>
      <trkpt lat="40.376222" lon="0.406766">
        <ele>6.486</ele>
        <time>1970-01-01T02:59:14Z</time>
      </trkpt>
      <trkpt lat="40.376160" lon="0.406738">
        <ele>7.014</ele>
        <time>1970-01-01T02:59:15Z</time>
      </trkpt>
      <trkpt lat="40.376098" lon="0.406714">
        <ele>7.708</ele>
        <time>1970-01-01T02:59:16Z</time>
      </trkpt>
      <trkpt lat="40.376034" lon="0.406690">
        <ele>8.130</ele>
        <time>1970-01-01T02:59:17Z</time>
      </trkpt>
      <trkpt lat="40.375970" lon="0.406669">
        <ele>8.587</ele>
        <time>1970-01-01T02:59:18Z</time>
      </trkpt>
      <trkpt lat="40.375908" lon="0.406646">
        <ele>8.838</ele>
        <time>1970-01-01T02:59:19Z</time>
      </trkpt>
      <trkpt lat="40.375845" lon="0.406622">
        <ele>9.121</ele>
        <time>1970-01-01T02:59:20Z</time>
      </trkpt>
      <trkpt lat="40.375782" lon="0.406598">
        <ele>8.621</ele>
        <time>1970-01-01T02:59:21Z</time>
      </trkpt>
      <trkpt lat="40.375721" lon="0.406575">
        <ele>7.847</ele>
        <time>1970-01-01T02:59:22Z</time>
      </trkpt>
      <trkpt lat="40.375659" lon="0.406553">
        <ele>7.281</ele>
        <time>1970-01-01T02:59:23Z</time>
      </trkpt>
      <trkpt lat="40.375597" lon="0.406529">
        <ele>6.542</ele>
        <time>1970-01-01T02:59:24Z</time>
      </trkpt>
      <trkpt lat="40.375535" lon="0.406506">
        <ele>5.962</ele>
        <time>1970-01-01T02:59:25Z</time>
      </trkpt>
      <trkpt lat="40.375472" lon="0.406481">
        <ele>5.383</ele>
        <time>1970-01-01T02:59:26Z</time>
      </trkpt>
      <trkpt lat="40.375410" lon="0.406456">
        <ele>4.811</ele>
        <time>1970-01-01T02:59:27Z</time>
      </trkpt>
      <trkpt lat="40.375347" lon="0.406431">
        <ele>4.308</ele>
        <time>1970-01-01T02:59:28Z</time>
      </trkpt>
      <trkpt lat="40.375284" lon="0.406411">
        <ele>3.883</ele>
        <time>1970-01-01T02:59:29Z</time>
      </trkpt>
      <trkpt lat="40.375221" lon="0.406392">
        <ele>3.480</ele>
        <time>1970-01-01T02:59:30Z</time>
      </trkpt>
      <trkpt lat="40.375158" lon="0.406371">
        <ele>2.831</ele>
        <time>1970-01-01T02:59:31Z</time>
      </trkpt>
      <trkpt lat="40.375094" lon="0.406350">
        <ele>2.324</ele>
        <time>1970-01-01T02:59:32Z</time>
      </trkpt>
      <trkpt lat="40.375032" lon="0.406325">
        <ele>2.034</ele>
        <time>1970-01-01T02:59:33Z</time>
      </trkpt>
      <trkpt lat="40.374968" lon="0.406301">
        <ele>1.910</ele>
        <time>1970-01-01T02:59:34Z</time>
      </trkpt>
      <trkpt lat="40.374903" lon="0.406275">
        <ele>2.264</ele>
        <time>1970-01-01T02:59:35Z</time>
      </trkpt>
      <trkpt lat="40.374840" lon="0.406252">
        <ele>2.565</ele>
        <time>1970-01-01T02:59:36Z</time>
      </trkpt>
      <trkpt lat="40.374778" lon="0.406228">
        <ele>2.792</ele>
        <time>1970-01-01T02:59:37Z</time>
      </trkpt>
      <trkpt lat="40.374654" lon="0.406180">
        <ele>2.973</ele>
        <time>1970-01-01T02:59:38Z</time>
      </trkpt>
      <trkpt lat="40.374623" lon="0.406166">
        <ele>2.920</ele>
        <time>1970-01-01T02:59:39Z</time>
      </trkpt>
      <trkpt lat="40.374592" lon="0.406152">
        <ele>2.808</ele>
        <time>1970-01-01T02:59:40Z</time>
      </trkpt>
      <trkpt lat="40.374531" lon="0.406125">
        <ele>2.656</ele>
        <time>1970-01-01T02:59:41Z</time>
      </trkpt>
      <trkpt lat="40.374467" lon="0.406099">
        <ele>2.263</ele>
        <time>1970-01-01T02:59:42Z</time>
      </trkpt>
      <trkpt lat="40.374343" lon="0.406054">
        <ele>2.114</ele>
        <time>1970-01-01T02:59:43Z</time>
      </trkpt>
      <trkpt lat="40.374281" lon="0.406031">
        <ele>2.117</ele>
        <time>1970-01-01T02:59:44Z</time>
      </trkpt>
      <trkpt lat="40.374250" lon="0.406020">
        <ele>2.137</ele>
        <time>1970-01-01T02:59:45Z</time>
      </trkpt>
      <trkpt lat="40.374218" lon="0.406009">
        <ele>2.173</ele>
        <time>1970-01-01T02:59:46Z</time>
      </trkpt>
      <trkpt lat="40.374154" lon="0.405988">
        <ele>2.167</ele>
        <time>1970-01-01T02:59:47Z</time>
      </trkpt>
      <trkpt lat="40.374025" lon="0.405939">
        <ele>3.078</ele>
        <time>1970-01-01T02:59:48Z</time>
      </trkpt>
      <trkpt lat="40.373994" lon="0.405926">
        <ele>3.244</ele>
        <time>1970-01-01T02:59:49Z</time>
      </trkpt>
      <trkpt lat="40.373963" lon="0.405914">
        <ele>3.505</ele>
        <time>1970-01-01T02:59:50Z</time>
      </trkpt>
      <trkpt lat="40.373868" lon="0.405877">
        <ele>4.215</ele>
        <time>1970-01-01T02:59:51Z</time>
      </trkpt>
      <trkpt lat="40.373836" lon="0.405865">
        <ele>4.408</ele>
        <time>1970-01-01T02:59:52Z</time>
      </trkpt>
      <trkpt lat="40.373769" lon="0.405846">
        <ele>4.921</ele>
        <time>1970-01-01T02:59:53Z</time>
      </trkpt>
      <trkpt lat="40.373703" lon="0.405825">
        <ele>5.348</ele>
        <time>1970-01-01T02:59:54Z</time>
      </trkpt>
      <trkpt lat="40.373638" lon="0.405804">
        <ele>5.899</ele>
        <time>1970-01-01T02:59:55Z</time>
      </trkpt>
      <trkpt lat="40.373573" lon="0.405781">
        <ele>6.092</ele>
        <time>1970-01-01T02:59:56Z</time>
      </trkpt>
      <trkpt lat="40.373507" lon="0.405753">
        <ele>6.142</ele>
        <time>1970-01-01T02:59:57Z</time>
      </trkpt>
      <trkpt lat="40.373443" lon="0.405725">
        <ele>6.248</ele>
        <time>1970-01-01T02:59:58Z</time>
      </trkpt>
      <trkpt lat="40.373314" lon="0.405662">
        <ele>6.732</ele>
        <time>1970-01-01T02:59:59Z</time>
      </trkpt>
      <trkpt lat="40.373282" lon="0.405645">
        <ele>6.983</ele>
        <time>1970-01-01T03:00:00Z</time>
      </trkpt>
      <trkpt lat="40.373249" lon="0.405629">
        <ele>7.227</ele>
        <time>1970-01-01T03:00:01Z</time>
      </trkpt>
      <trkpt lat="40.373186" lon="0.405599">
        <ele>7.768</ele>
        <time>1970-01-01T03:00:02Z</time>
      </trkpt>
      <trkpt lat="40.373121" lon="0.405573">
        <ele>8.414</ele>
        <time>1970-01-01T03:00:03Z</time>
      </trkpt>
      <trkpt lat="40.373056" lon="0.405548">
        <ele>9.008</ele>
        <time>1970-01-01T03:00:04Z</time>
      </trkpt>
      <trkpt lat="40.372993" lon="0.405523">
        <ele>8.489</ele>
        <time>1970-01-01T03:00:05Z</time>
      </trkpt>
      <trkpt lat="40.372930" lon="0.405493">
        <ele>7.886</ele>
        <time>1970-01-01T03:00:06Z</time>
      </trkpt>
      <trkpt lat="40.372870" lon="0.405465">
        <ele>7.477</ele>
        <time>1970-01-01T03:00:07Z</time>
      </trkpt>
      <trkpt lat="40.372809" lon="0.405438">
        <ele>7.110</ele>
        <time>1970-01-01T03:00:08Z</time>
      </trkpt>
      <trkpt lat="40.372748" lon="0.405411">
        <ele>6.640</ele>
        <time>1970-01-01T03:00:09Z</time>
      </trkpt>
      <trkpt lat="40.372687" lon="0.405382">
        <ele>5.966</ele>
        <time>1970-01-01T03:00:10Z</time>
      </trkpt>
      <trkpt lat="40.372625" lon="0.405352">
        <ele>5.010</ele>
        <time>1970-01-01T03:00:11Z</time>
      </trkpt>
      <trkpt lat="40.372563" lon="0.405322">
        <ele>4.151</ele>
        <time>1970-01-01T03:00:12Z</time>
      </trkpt>
      <trkpt lat="40.372501" lon="0.405292">
        <ele>3.073</ele>
        <time>1970-01-01T03:00:13Z</time>
      </trkpt>
      <trkpt lat="40.372439" lon="0.405262">
        <ele>2.785</ele>
        <time>1970-01-01T03:00:14Z</time>
      </trkpt>
      <trkpt lat="40.372377" lon="0.405234">
        <ele>2.313</ele>
        <time>1970-01-01T03:00:15Z</time>
      </trkpt>
      <trkpt lat="40.372318" lon="0.405208">
        <ele>1.908</ele>
        <time>1970-01-01T03:00:16Z</time>
      </trkpt>
      <trkpt lat="40.372199" lon="0.405154">
        <ele>1.134</ele>
        <time>1970-01-01T03:00:17Z</time>
      </trkpt>
      <trkpt lat="40.372171" lon="0.405140">
        <ele>1.151</ele>
        <time>1970-01-01T03:00:18Z</time>
      </trkpt>
      <trkpt lat="40.372142" lon="0.405127">
        <ele>1.132</ele>
        <time>1970-01-01T03:00:19Z</time>
      </trkpt>
      <trkpt lat="40.372084" lon="0.405100">
        <ele>1.015</ele>
        <time>1970-01-01T03:00:20Z</time>
      </trkpt>
      <trkpt lat="40.372025" lon="0.405075">
        <ele>1.175</ele>
        <time>1970-01-01T03:00:21Z</time>
      </trkpt>
      <trkpt lat="40.371966" lon="0.405048">
        <ele>1.171</ele>
        <time>1970-01-01T03:00:22Z</time>
      </trkpt>
      <trkpt lat="40.371907" lon="0.405019">
        <ele>1.245</ele>
        <time>1970-01-01T03:00:23Z</time>
      </trkpt>
      <trkpt lat="40.371847" lon="0.404987">
        <ele>1.346</ele>
        <time>1970-01-01T03:00:24Z</time>
      </trkpt>
      <trkpt lat="40.371788" lon="0.404955">
        <ele>1.537</ele>
        <time>1970-01-01T03:00:25Z</time>
      </trkpt>
      <trkpt lat="40.371728" lon="0.404926">
        <ele>1.749</ele>
        <time>1970-01-01T03:00:26Z</time>
      </trkpt>
      <trkpt lat="40.371670" lon="0.404897">
        <ele>2.013</ele>
        <time>1970-01-01T03:00:27Z</time>
      </trkpt>
      <trkpt lat="40.371612" lon="0.404868">
        <ele>2.008</ele>
        <time>1970-01-01T03:00:28Z</time>
      </trkpt>
      <trkpt lat="40.371555" lon="0.404838">
        <ele>2.080</ele>
        <time>1970-01-01T03:00:29Z</time>
      </trkpt>
      <trkpt lat="40.371495" lon="0.404808">
        <ele>2.077</ele>
        <time>1970-01-01T03:00:30Z</time>
      </trkpt>
      <trkpt lat="40.371435" lon="0.404775">
        <ele>2.028</ele>
        <time>1970-01-01T03:00:31Z</time>
      </trkpt>
      <trkpt lat="40.371378" lon="0.404743">
        <ele>2.041</ele>
        <time>1970-01-01T03:00:32Z</time>
      </trkpt>
      <trkpt lat="40.371319" lon="0.404714">
        <ele>1.721</ele>
        <time>1970-01-01T03:00:33Z</time>
      </trkpt>
      <trkpt lat="40.371256" lon="0.404688">
        <ele>1.597</ele>
        <time>1970-01-01T03:00:34Z</time>
      </trkpt>
      <trkpt lat="40.371198" lon="0.404660">
        <ele>1.241</ele>
        <time>1970-01-01T03:00:35Z</time>
      </trkpt>
      <trkpt lat="40.371137" lon="0.404635">
        <ele>1.182</ele>
        <time>1970-01-01T03:00:36Z</time>
      </trkpt>
      <trkpt lat="40.371076" lon="0.404611">
        <ele>1.044</ele>
        <time>1970-01-01T03:00:37Z</time>
      </trkpt>
      <trkpt lat="40.370951" lon="0.404568">
        <ele>1.005</ele>
        <time>1970-01-01T03:00:38Z</time>
      </trkpt>
      <trkpt lat="40.370919" lon="0.404557">
        <ele>1.015</ele>
        <time>1970-01-01T03:00:39Z</time>
      </trkpt>
      <trkpt lat="40.370887" lon="0.404547">
        <ele>1.008</ele>
        <time>1970-01-01T03:00:40Z</time>
      </trkpt>
      <trkpt lat="40.370825" lon="0.404530">
        <ele>1.161</ele>
        <time>1970-01-01T03:00:41Z</time>
      </trkpt>
      <trkpt lat="40.370760" lon="0.404517">
        <ele>1.578</ele>
        <time>1970-01-01T03:00:42Z</time>
      </trkpt>
      <trkpt lat="40.370699" lon="0.404499">
        <ele>1.959</ele>
        <time>1970-01-01T03:00:43Z</time>
      </trkpt>
      <trkpt lat="40.370637" lon="0.404478">
        <ele>2.342</ele>
        <time>1970-01-01T03:00:44Z</time>
      </trkpt>
      <trkpt lat="40.370574" lon="0.404457">
        <ele>2.812</ele>
        <time>1970-01-01T03:00:45Z</time>
      </trkpt>
      <trkpt lat="40.370511" lon="0.404440">
        <ele>3.098</ele>
        <time>1970-01-01T03:00:46Z</time>
      </trkpt>
      <trkpt lat="40.370452" lon="0.404424">
        <ele>3.092</ele>
        <time>1970-01-01T03:00:47Z</time>
      </trkpt>
      <trkpt lat="40.370390" lon="0.404408">
        <ele>3.113</ele>
        <time>1970-01-01T03:00:48Z</time>
      </trkpt>
      <trkpt lat="40.370326" lon="0.404393">
        <ele>3.231</ele>
        <time>1970-01-01T03:00:49Z</time>
      </trkpt>
      <trkpt lat="40.370263" lon="0.404378">
        <ele>3.261</ele>
        <time>1970-01-01T03:00:50Z</time>
      </trkpt>
      <trkpt lat="40.370198" lon="0.404364">
        <ele>3.107</ele>
        <time>1970-01-01T03:00:51Z</time>
      </trkpt>
      <trkpt lat="40.370133" lon="0.404348">
        <ele>3.008</ele>
        <time>1970-01-01T03:00:52Z</time>
      </trkpt>
      <trkpt lat="40.370069" lon="0.404330">
        <ele>3.070</ele>
        <time>1970-01-01T03:00:53Z</time>
      </trkpt>
      <trkpt lat="40.370003" lon="0.404312">
        <ele>3.017</ele>
        <time>1970-01-01T03:00:54Z</time>
      </trkpt>
      <trkpt lat="40.369937" lon="0.404296">
        <ele>3.288</ele>
        <time>1970-01-01T03:00:55Z</time>
      </trkpt>
      <trkpt lat="40.369873" lon="0.404281">
        <ele>3.431</ele>
        <time>1970-01-01T03:00:56Z</time>
      </trkpt>
      <trkpt lat="40.369807" lon="0.404266">
        <ele>3.541</ele>
        <time>1970-01-01T03:00:57Z</time>
      </trkpt>
      <trkpt lat="40.369741" lon="0.404250">
        <ele>3.727</ele>
        <time>1970-01-01T03:00:58Z</time>
      </trkpt>
      <trkpt lat="40.369675" lon="0.404232">
        <ele>3.971</ele>
        <time>1970-01-01T03:00:59Z</time>
      </trkpt>
      <trkpt lat="40.369610" lon="0.404211">
        <ele>4.282</ele>
        <time>1970-01-01T03:01:00Z</time>
      </trkpt>
      <trkpt lat="40.369548" lon="0.404190">
        <ele>4.595</ele>
        <time>1970-01-01T03:01:01Z</time>
      </trkpt>
      <trkpt lat="40.369483" lon="0.404166">
        <ele>4.949</ele>
        <time>1970-01-01T03:01:02Z</time>
      </trkpt>
      <trkpt lat="40.369419" lon="0.404144">
        <ele>5.123</ele>
        <time>1970-01-01T03:01:03Z</time>
      </trkpt>
      <trkpt lat="40.369353" lon="0.404124">
        <ele>5.208</ele>
        <time>1970-01-01T03:01:04Z</time>
      </trkpt>
      <trkpt lat="40.369287" lon="0.404106">
        <ele>5.296</ele>
        <time>1970-01-01T03:01:05Z</time>
      </trkpt>
      <trkpt lat="40.369217" lon="0.404091">
        <ele>5.363</ele>
        <time>1970-01-01T03:01:06Z</time>
      </trkpt>
      <trkpt lat="40.369147" lon="0.404077">
        <ele>5.344</ele>
        <time>1970-01-01T03:01:07Z</time>
      </trkpt>
      <trkpt lat="40.369081" lon="0.404062">
        <ele>5.327</ele>
        <time>1970-01-01T03:01:08Z</time>
      </trkpt>
      <trkpt lat="40.369017" lon="0.404046">
        <ele>5.237</ele>
        <time>1970-01-01T03:01:09Z</time>
      </trkpt>
      <trkpt lat="40.368952" lon="0.404027">
        <ele>5.113</ele>
        <time>1970-01-01T03:01:10Z</time>
      </trkpt>
      <trkpt lat="40.368886" lon="0.404010">
        <ele>5.097</ele>
        <time>1970-01-01T03:01:11Z</time>
      </trkpt>
      <trkpt lat="40.368819" lon="0.403996">
        <ele>5.298</ele>
        <time>1970-01-01T03:01:12Z</time>
      </trkpt>
      <trkpt lat="40.368752" lon="0.403982">
        <ele>5.334</ele>
        <time>1970-01-01T03:01:13Z</time>
      </trkpt>
      <trkpt lat="40.368686" lon="0.403969">
        <ele>5.555</ele>
        <time>1970-01-01T03:01:14Z</time>
      </trkpt>
      <trkpt lat="40.368623" lon="0.403957">
        <ele>5.710</ele>
        <time>1970-01-01T03:01:15Z</time>
      </trkpt>
      <trkpt lat="40.368558" lon="0.403945">
        <ele>6.008</ele>
        <time>1970-01-01T03:01:16Z</time>
      </trkpt>
      <trkpt lat="40.368494" lon="0.403933">
        <ele>6.240</ele>
        <time>1970-01-01T03:01:17Z</time>
      </trkpt>
      <trkpt lat="40.368426" lon="0.403918">
        <ele>6.587</ele>
        <time>1970-01-01T03:01:18Z</time>
      </trkpt>
      <trkpt lat="40.368361" lon="0.403904">
        <ele>6.838</ele>
        <time>1970-01-01T03:01:19Z</time>
      </trkpt>
      <trkpt lat="40.368298" lon="0.403890">
        <ele>7.141</ele>
        <time>1970-01-01T03:01:20Z</time>
      </trkpt>
      <trkpt lat="40.368235" lon="0.403875">
        <ele>7.451</ele>
        <time>1970-01-01T03:01:21Z</time>
      </trkpt>
      <trkpt lat="40.368171" lon="0.403861">
        <ele>7.737</ele>
        <time>1970-01-01T03:01:22Z</time>
      </trkpt>
      <trkpt lat="40.368108" lon="0.403845">
        <ele>8.091</ele>
        <time>1970-01-01T03:01:23Z</time>
      </trkpt>
      <trkpt lat="40.368043" lon="0.403828">
        <ele>8.122</ele>
        <time>1970-01-01T03:01:24Z</time>
      </trkpt>
      <trkpt lat="40.367977" lon="0.403808">
        <ele>7.745</ele>
        <time>1970-01-01T03:01:25Z</time>
      </trkpt>
      <trkpt lat="40.367911" lon="0.403787">
        <ele>7.347</ele>
        <time>1970-01-01T03:01:26Z</time>
      </trkpt>
      <trkpt lat="40.367846" lon="0.403767">
        <ele>6.911</ele>
        <time>1970-01-01T03:01:27Z</time>
      </trkpt>
      <trkpt lat="40.367783" lon="0.403747">
        <ele>6.508</ele>
        <time>1970-01-01T03:01:28Z</time>
      </trkpt>
      <trkpt lat="40.367717" lon="0.403727">
        <ele>5.871</ele>
        <time>1970-01-01T03:01:29Z</time>
      </trkpt>
      <trkpt lat="40.367651" lon="0.403711">
        <ele>5.098</ele>
        <time>1970-01-01T03:01:30Z</time>
      </trkpt>
      <trkpt lat="40.367524" lon="0.403681">
        <ele>3.359</ele>
        <time>1970-01-01T03:01:31Z</time>
      </trkpt>
      <trkpt lat="40.367459" lon="0.403665">
        <ele>2.992</ele>
        <time>1970-01-01T03:01:32Z</time>
      </trkpt>
      <trkpt lat="40.367428" lon="0.403657">
        <ele>2.912</ele>
        <time>1970-01-01T03:01:33Z</time>
      </trkpt>
      <trkpt lat="40.367397" lon="0.403649">
        <ele>2.988</ele>
        <time>1970-01-01T03:01:34Z</time>
      </trkpt>
      <trkpt lat="40.367337" lon="0.403632">
        <ele>2.962</ele>
        <time>1970-01-01T03:01:35Z</time>
      </trkpt>
      <trkpt lat="40.367277" lon="0.403616">
        <ele>3.023</ele>
        <time>1970-01-01T03:01:36Z</time>
      </trkpt>
      <trkpt lat="40.367214" lon="0.403602">
        <ele>3.154</ele>
        <time>1970-01-01T03:01:37Z</time>
      </trkpt>
      <trkpt lat="40.367153" lon="0.403588">
        <ele>3.656</ele>
        <time>1970-01-01T03:01:38Z</time>
      </trkpt>
      <trkpt lat="40.367033" lon="0.403562">
        <ele>4.611</ele>
        <time>1970-01-01T03:01:39Z</time>
      </trkpt>
      <trkpt lat="40.367003" lon="0.403552">
        <ele>4.808</ele>
        <time>1970-01-01T03:01:40Z</time>
      </trkpt>
      <trkpt lat="40.366972" lon="0.403543">
        <ele>5.192</ele>
        <time>1970-01-01T03:01:41Z</time>
      </trkpt>
      <trkpt lat="40.366910" lon="0.403524">
        <ele>5.469</ele>
        <time>1970-01-01T03:01:42Z</time>
      </trkpt>
      <trkpt lat="40.366849" lon="0.403506">
        <ele>5.770</ele>
        <time>1970-01-01T03:01:43Z</time>
      </trkpt>
      <trkpt lat="40.366791" lon="0.403492">
        <ele>6.023</ele>
        <time>1970-01-01T03:01:44Z</time>
      </trkpt>
      <trkpt lat="40.366733" lon="0.403475">
        <ele>6.393</ele>
        <time>1970-01-01T03:01:45Z</time>
      </trkpt>
      <trkpt lat="40.366673" lon="0.403458">
        <ele>6.599</ele>
        <time>1970-01-01T03:01:46Z</time>
      </trkpt>
      <trkpt lat="40.366550" lon="0.403432">
        <ele>7.133</ele>
        <time>1970-01-01T03:01:47Z</time>
      </trkpt>
      <trkpt lat="40.366490" lon="0.403417">
        <ele>7.374</ele>
        <time>1970-01-01T03:01:48Z</time>
      </trkpt>
      <trkpt lat="40.366460" lon="0.403410">
        <ele>7.529</ele>
        <time>1970-01-01T03:01:49Z</time>
      </trkpt>
      <trkpt lat="40.366430" lon="0.403404">
        <ele>7.600</ele>
        <time>1970-01-01T03:01:50Z</time>
      </trkpt>
      <trkpt lat="40.366372" lon="0.403392">
        <ele>7.720</ele>
        <time>1970-01-01T03:01:51Z</time>
      </trkpt>
      <trkpt lat="40.366312" lon="0.403384">
        <ele>7.608</ele>
        <time>1970-01-01T03:01:52Z</time>
      </trkpt>
      <trkpt lat="40.366251" lon="0.403375">
        <ele>7.449</ele>
        <time>1970-01-01T03:01:53Z</time>
      </trkpt>
      <trkpt lat="40.366194" lon="0.403362">
        <ele>7.326</ele>
        <time>1970-01-01T03:01:54Z</time>
      </trkpt>
      <trkpt lat="40.366136" lon="0.403349">
        <ele>7.127</ele>
        <time>1970-01-01T03:01:55Z</time>
      </trkpt>
      <trkpt lat="40.366075" lon="0.403337">
        <ele>7.350</ele>
        <time>1970-01-01T03:01:56Z</time>
      </trkpt>
      <trkpt lat="40.366017" lon="0.403326">
        <ele>7.730</ele>
        <time>1970-01-01T03:01:57Z</time>
      </trkpt>
      <trkpt lat="40.365961" lon="0.403312">
        <ele>8.286</ele>
        <time>1970-01-01T03:01:58Z</time>
      </trkpt>
      <trkpt lat="40.365904" lon="0.403291">
        <ele>8.650</ele>
        <time>1970-01-01T03:01:59Z</time>
      </trkpt>
      <trkpt lat="40.365845" lon="0.403273">
        <ele>9.151</ele>
        <time>1970-01-01T03:02:00Z</time>
      </trkpt>
      <trkpt lat="40.365787" lon="0.403256">
        <ele>9.715</ele>
        <time>1970-01-01T03:02:01Z</time>
      </trkpt>
      <trkpt lat="40.365729" lon="0.403238">
        <ele>10.265</ele>
        <time>1970-01-01T03:02:02Z</time>
      </trkpt>
      <trkpt lat="40.365669" lon="0.403219">
        <ele>10.711</ele>
        <time>1970-01-01T03:02:03Z</time>
      </trkpt>
      <trkpt lat="40.365545" lon="0.403183">
        <ele>11.308</ele>
        <time>1970-01-01T03:02:04Z</time>
      </trkpt>
      <trkpt lat="40.365502" lon="0.403166">
        <ele>10.638</ele>
        <time>1970-01-01T03:02:05Z</time>
      </trkpt>
      <trkpt lat="40.365458" lon="0.403150">
        <ele>9.915</ele>
        <time>1970-01-01T03:02:06Z</time>
      </trkpt>
      <trkpt lat="40.365370" lon="0.403118">
        <ele>8.886</ele>
        <time>1970-01-01T03:02:07Z</time>
      </trkpt>
      <trkpt lat="40.365342" lon="0.403109">
        <ele>8.499</ele>
        <time>1970-01-01T03:02:08Z</time>
      </trkpt>
      <trkpt lat="40.365314" lon="0.403101">
        <ele>8.119</ele>
        <time>1970-01-01T03:02:09Z</time>
      </trkpt>
      <trkpt lat="40.365261" lon="0.403088">
        <ele>7.575</ele>
        <time>1970-01-01T03:02:10Z</time>
      </trkpt>
      <trkpt lat="40.365218" lon="0.403079">
        <ele>6.849</ele>
        <time>1970-01-01T03:02:11Z</time>
      </trkpt>
      <trkpt lat="40.365188" lon="0.403073">
        <ele>6.310</ele>
        <time>1970-01-01T03:02:12Z</time>
      </trkpt>
      <trkpt lat="40.365163" lon="0.403074">
        <ele>5.824</ele>
        <time>1970-01-01T03:02:13Z</time>
      </trkpt>
      <trkpt lat="40.365141" lon="0.403076">
        <ele>5.404</ele>
        <time>1970-01-01T03:02:14Z</time>
      </trkpt>
      <trkpt lat="40.365119" lon="0.403075">
        <ele>5.014</ele>
        <time>1970-01-01T03:02:15Z</time>
      </trkpt>
      <trkpt lat="40.365089" lon="0.403068">
        <ele>4.508</ele>
        <time>1970-01-01T03:02:16Z</time>
      </trkpt>
      <trkpt lat="40.365054" lon="0.403057">
        <ele>4.029</ele>
        <time>1970-01-01T03:02:17Z</time>
      </trkpt>
      <trkpt lat="40.365013" lon="0.403052">
        <ele>3.276</ele>
        <time>1970-01-01T03:02:18Z</time>
      </trkpt>
      <trkpt lat="40.364963" lon="0.403043">
        <ele>3.327</ele>
        <time>1970-01-01T03:02:19Z</time>
      </trkpt>
      <trkpt lat="40.364909" lon="0.403030">
        <ele>3.710</ele>
        <time>1970-01-01T03:02:20Z</time>
      </trkpt>
      <trkpt lat="40.364852" lon="0.403012">
        <ele>4.210</ele>
        <time>1970-01-01T03:02:21Z</time>
      </trkpt>
      <trkpt lat="40.364783" lon="0.402998">
        <ele>4.896</ele>
        <time>1970-01-01T03:02:22Z</time>
      </trkpt>
      <trkpt lat="40.364715" lon="0.402991">
        <ele>5.350</ele>
        <time>1970-01-01T03:02:23Z</time>
      </trkpt>
      <trkpt lat="40.364653" lon="0.402984">
        <ele>5.891</ele>
        <time>1970-01-01T03:02:24Z</time>
      </trkpt>
      <trkpt lat="40.364593" lon="0.402974">
        <ele>6.284</ele>
        <time>1970-01-01T03:02:25Z</time>
      </trkpt>
      <trkpt lat="40.364530" lon="0.402959">
        <ele>6.707</ele>
        <time>1970-01-01T03:02:26Z</time>
      </trkpt>
      <trkpt lat="40.364466" lon="0.402944">
        <ele>7.217</ele>
        <time>1970-01-01T03:02:27Z</time>
      </trkpt>
      <trkpt lat="40.364405" lon="0.402931">
        <ele>7.508</ele>
        <time>1970-01-01T03:02:28Z</time>
      </trkpt>
      <trkpt lat="40.364348" lon="0.402917">
        <ele>7.765</ele>
        <time>1970-01-01T03:02:29Z</time>
      </trkpt>
      <trkpt lat="40.364297" lon="0.402902">
        <ele>7.862</ele>
        <time>1970-01-01T03:02:30Z</time>
      </trkpt>
      <trkpt lat="40.364246" lon="0.402885">
        <ele>7.933</ele>
        <time>1970-01-01T03:02:31Z</time>
      </trkpt>
      <trkpt lat="40.364193" lon="0.402869">
        <ele>8.056</ele>
        <time>1970-01-01T03:02:32Z</time>
      </trkpt>
      <trkpt lat="40.364139" lon="0.402855">
        <ele>8.046</ele>
        <time>1970-01-01T03:02:33Z</time>
      </trkpt>
      <trkpt lat="40.364085" lon="0.402844">
        <ele>7.832</ele>
        <time>1970-01-01T03:02:34Z</time>
      </trkpt>
      <trkpt lat="40.364029" lon="0.402832">
        <ele>7.756</ele>
        <time>1970-01-01T03:02:35Z</time>
      </trkpt>
      <trkpt lat="40.363974" lon="0.402823">
        <ele>7.587</ele>
        <time>1970-01-01T03:02:36Z</time>
      </trkpt>
      <trkpt lat="40.363917" lon="0.402809">
        <ele>7.321</ele>
        <time>1970-01-01T03:02:37Z</time>
      </trkpt>
      <trkpt lat="40.363862" lon="0.402793">
        <ele>6.841</ele>
        <time>1970-01-01T03:02:38Z</time>
      </trkpt>
      <trkpt lat="40.363807" lon="0.402781">
        <ele>6.105</ele>
        <time>1970-01-01T03:02:39Z</time>
      </trkpt>
      <trkpt lat="40.363751" lon="0.402770">
        <ele>5.608</ele>
        <time>1970-01-01T03:02:40Z</time>
      </trkpt>
      <trkpt lat="40.363695" lon="0.402758">
        <ele>5.169</ele>
        <time>1970-01-01T03:02:41Z</time>
      </trkpt>
      <trkpt lat="40.363643" lon="0.402747">
        <ele>4.616</ele>
        <time>1970-01-01T03:02:42Z</time>
      </trkpt>
      <trkpt lat="40.363590" lon="0.402737">
        <ele>4.447</ele>
        <time>1970-01-01T03:02:43Z</time>
      </trkpt>
      <trkpt lat="40.363541" lon="0.402728">
        <ele>4.390</ele>
        <time>1970-01-01T03:02:44Z</time>
      </trkpt>
      <trkpt lat="40.363493" lon="0.402714">
        <ele>4.390</ele>
        <time>1970-01-01T03:02:45Z</time>
      </trkpt>
      <trkpt lat="40.363442" lon="0.402697">
        <ele>4.346</ele>
        <time>1970-01-01T03:02:46Z</time>
      </trkpt>
      <trkpt lat="40.363387" lon="0.402681">
        <ele>4.260</ele>
        <time>1970-01-01T03:02:47Z</time>
      </trkpt>
      <trkpt lat="40.363330" lon="0.402666">
        <ele>4.291</ele>
        <time>1970-01-01T03:02:48Z</time>
      </trkpt>
      <trkpt lat="40.363273" lon="0.402650">
        <ele>4.396</ele>
        <time>1970-01-01T03:02:49Z</time>
      </trkpt>
      <trkpt lat="40.363215" lon="0.402632">
        <ele>4.431</ele>
        <time>1970-01-01T03:02:50Z</time>
      </trkpt>
      <trkpt lat="40.363156" lon="0.402614">
        <ele>4.424</ele>
        <time>1970-01-01T03:02:51Z</time>
      </trkpt>
      <trkpt lat="40.363098" lon="0.402600">
        <ele>4.408</ele>
        <time>1970-01-01T03:02:52Z</time>
      </trkpt>
      <trkpt lat="40.363038" lon="0.402587">
        <ele>4.386</ele>
        <time>1970-01-01T03:02:53Z</time>
      </trkpt>
      <trkpt lat="40.362979" lon="0.402575">
        <ele>4.183</ele>
        <time>1970-01-01T03:02:54Z</time>
      </trkpt>
      <trkpt lat="40.362919" lon="0.402563">
        <ele>3.964</ele>
        <time>1970-01-01T03:02:55Z</time>
      </trkpt>
      <trkpt lat="40.362860" lon="0.402551">
        <ele>3.657</ele>
        <time>1970-01-01T03:02:56Z</time>
      </trkpt>
      <trkpt lat="40.362801" lon="0.402538">
        <ele>3.327</ele>
        <time>1970-01-01T03:02:57Z</time>
      </trkpt>
      <trkpt lat="40.362743" lon="0.402525">
        <ele>3.353</ele>
        <time>1970-01-01T03:02:58Z</time>
      </trkpt>
      <trkpt lat="40.362684" lon="0.402511">
        <ele>3.737</ele>
        <time>1970-01-01T03:02:59Z</time>
      </trkpt>
      <trkpt lat="40.362627" lon="0.402497">
        <ele>4.148</ele>
        <time>1970-01-01T03:03:00Z</time>
      </trkpt>
      <trkpt lat="40.362571" lon="0.402483">
        <ele>4.549</ele>
        <time>1970-01-01T03:03:01Z</time>
      </trkpt>
      <trkpt lat="40.362515" lon="0.402471">
        <ele>4.802</ele>
        <time>1970-01-01T03:03:02Z</time>
      </trkpt>
      <trkpt lat="40.362460" lon="0.402460">
        <ele>5.022</ele>
        <time>1970-01-01T03:03:03Z</time>
      </trkpt>
      <trkpt lat="40.362405" lon="0.402448">
        <ele>5.208</ele>
        <time>1970-01-01T03:03:04Z</time>
      </trkpt>
      <trkpt lat="40.362351" lon="0.402434">
        <ele>5.481</ele>
        <time>1970-01-01T03:03:05Z</time>
      </trkpt>
      <trkpt lat="40.362295" lon="0.402422">
        <ele>5.788</ele>
        <time>1970-01-01T03:03:06Z</time>
      </trkpt>
      <trkpt lat="40.362239" lon="0.402412">
        <ele>5.989</ele>
        <time>1970-01-01T03:03:07Z</time>
      </trkpt>
      <trkpt lat="40.362185" lon="0.402399">
        <ele>5.982</ele>
        <time>1970-01-01T03:03:08Z</time>
      </trkpt>
      <trkpt lat="40.362130" lon="0.402381">
        <ele>5.742</ele>
        <time>1970-01-01T03:03:09Z</time>
      </trkpt>
      <trkpt lat="40.362070" lon="0.402361">
        <ele>5.598</ele>
        <time>1970-01-01T03:03:10Z</time>
      </trkpt>
      <trkpt lat="40.362012" lon="0.402345">
        <ele>5.272</ele>
        <time>1970-01-01T03:03:11Z</time>
      </trkpt>
      <trkpt lat="40.361954" lon="0.402331">
        <ele>5.013</ele>
        <time>1970-01-01T03:03:12Z</time>
      </trkpt>
      <trkpt lat="40.361897" lon="0.402320">
        <ele>4.764</ele>
        <time>1970-01-01T03:03:13Z</time>
      </trkpt>
      <trkpt lat="40.361840" lon="0.402309">
        <ele>4.206</ele>
        <time>1970-01-01T03:03:14Z</time>
      </trkpt>
      <trkpt lat="40.361785" lon="0.402298">
        <ele>3.916</ele>
        <time>1970-01-01T03:03:15Z</time>
      </trkpt>
      <trkpt lat="40.361734" lon="0.402284">
        <ele>3.508</ele>
        <time>1970-01-01T03:03:16Z</time>
      </trkpt>
      <trkpt lat="40.361684" lon="0.402265">
        <ele>3.143</ele>
        <time>1970-01-01T03:03:17Z</time>
      </trkpt>
      <trkpt lat="40.361640" lon="0.402238">
        <ele>3.180</ele>
        <time>1970-01-01T03:03:18Z</time>
      </trkpt>
      <trkpt lat="40.361599" lon="0.402202">
        <ele>3.321</ele>
        <time>1970-01-01T03:03:19Z</time>
      </trkpt>
      <trkpt lat="40.361566" lon="0.402160">
        <ele>3.694</ele>
        <time>1970-01-01T03:03:20Z</time>
      </trkpt>
      <trkpt lat="40.361541" lon="0.402116">
        <ele>3.844</ele>
        <time>1970-01-01T03:03:21Z</time>
      </trkpt>
      <trkpt lat="40.361521" lon="0.402078">
        <ele>4.010</ele>
        <time>1970-01-01T03:03:22Z</time>
      </trkpt>
      <trkpt lat="40.361500" lon="0.402027">
        <ele>4.334</ele>
        <time>1970-01-01T03:03:23Z</time>
      </trkpt>
      <trkpt lat="40.361500" lon="0.402027">
        <ele>4.375</ele>
        <time>1970-01-01T03:03:24Z</time>
      </trkpt>
      <trkpt lat="40.361495" lon="0.402015">
        <ele>4.457</ele>
        <time>1970-01-01T03:03:25Z</time>
      </trkpt>
      <trkpt lat="40.361494" lon="0.402003">
        <ele>4.400</ele>
        <time>1970-01-01T03:03:26Z</time>
      </trkpt>
      <trkpt lat="40.361498" lon="0.401986">
        <ele>4.520</ele>
        <time>1970-01-01T03:03:27Z</time>
      </trkpt>
      <trkpt lat="40.361508" lon="0.401959">
        <ele>4.508</ele>
        <time>1970-01-01T03:03:28Z</time>
      </trkpt>
      <trkpt lat="40.361521" lon="0.401929">
        <ele>4.562</ele>
        <time>1970-01-01T03:03:29Z</time>
      </trkpt>
      <trkpt lat="40.361535" lon="0.401906">
        <ele>4.599</ele>
        <time>1970-01-01T03:03:30Z</time>
      </trkpt>
      <trkpt lat="40.361545" lon="0.401891">
        <ele>4.450</ele>
        <time>1970-01-01T03:03:31Z</time>
      </trkpt>
      <trkpt lat="40.361554" lon="0.401881">
        <ele>4.473</ele>
        <time>1970-01-01T03:03:32Z</time>
      </trkpt>
      <trkpt lat="40.361568" lon="0.401864">
        <ele>4.463</ele>
        <time>1970-01-01T03:03:33Z</time>
      </trkpt>
      <trkpt lat="40.361586" lon="0.401835">
        <ele>4.359</ele>
        <time>1970-01-01T03:03:34Z</time>
      </trkpt>
      <trkpt lat="40.361604" lon="0.401801">
        <ele>4.213</ele>
        <time>1970-01-01T03:03:35Z</time>
      </trkpt>
      <trkpt lat="40.361628" lon="0.401763">
        <ele>4.134</ele>
        <time>1970-01-01T03:03:36Z</time>
      </trkpt>
      <trkpt lat="40.361641" lon="0.401715">
        <ele>4.129</ele>
        <time>1970-01-01T03:03:37Z</time>
      </trkpt>
      <trkpt lat="40.361644" lon="0.401657">
        <ele>4.000</ele>
        <time>1970-01-01T03:03:38Z</time>
      </trkpt>
      <trkpt lat="40.361642" lon="0.401596">
        <ele>3.820</ele>
        <time>1970-01-01T03:03:39Z</time>
      </trkpt>
      <trkpt lat="40.361642" lon="0.401539">
        <ele>3.608</ele>
        <time>1970-01-01T03:03:40Z</time>
      </trkpt>
      <trkpt lat="40.361654" lon="0.401489">
        <ele>3.479</ele>
        <time>1970-01-01T03:03:41Z</time>
      </trkpt>
      <trkpt lat="40.361674" lon="0.401449">
        <ele>3.316</ele>
        <time>1970-01-01T03:03:42Z</time>
      </trkpt>
      <trkpt lat="40.361700" lon="0.401419">
        <ele>3.367</ele>
        <time>1970-01-01T03:03:43Z</time>
      </trkpt>
      <trkpt lat="40.361737" lon="0.401396">
        <ele>3.560</ele>
        <time>1970-01-01T03:03:44Z</time>
      </trkpt>
      <trkpt lat="40.361779" lon="0.401369">
        <ele>3.880</ele>
        <time>1970-01-01T03:03:45Z</time>
      </trkpt>
      <trkpt lat="40.361825" lon="0.401341">
        <ele>4.086</ele>
        <time>1970-01-01T03:03:46Z</time>
      </trkpt>
      <trkpt lat="40.361874" lon="0.401307">
        <ele>4.370</ele>
        <time>1970-01-01T03:03:47Z</time>
      </trkpt>
      <trkpt lat="40.361920" lon="0.401268">
        <ele>4.441</ele>
        <time>1970-01-01T03:03:48Z</time>
      </trkpt>
      <trkpt lat="40.362019" lon="0.401188">
        <ele>4.795</ele>
        <time>1970-01-01T03:03:49Z</time>
      </trkpt>
      <trkpt lat="40.362045" lon="0.401166">
        <ele>4.849</ele>
        <time>1970-01-01T03:03:50Z</time>
      </trkpt>
      <trkpt lat="40.362070" lon="0.401144">
        <ele>4.923</ele>
        <time>1970-01-01T03:03:51Z</time>
      </trkpt>
      <trkpt lat="40.362169" lon="0.401049">
        <ele>5.208</ele>
        <time>1970-01-01T03:03:52Z</time>
      </trkpt>
      <trkpt lat="40.362193" lon="0.401024">
        <ele>5.256</ele>
        <time>1970-01-01T03:03:53Z</time>
      </trkpt>
      <trkpt lat="40.362216" lon="0.400999">
        <ele>5.273</ele>
        <time>1970-01-01T03:03:54Z</time>
      </trkpt>
      <trkpt lat="40.362264" lon="0.400948">
        <ele>4.934</ele>
        <time>1970-01-01T03:03:55Z</time>
      </trkpt>
      <trkpt lat="40.362310" lon="0.400895">
        <ele>4.667</ele>
        <time>1970-01-01T03:03:56Z</time>
      </trkpt>
      <trkpt lat="40.362355" lon="0.400843">
        <ele>4.547</ele>
        <time>1970-01-01T03:03:57Z</time>
      </trkpt>
      <trkpt lat="40.362399" lon="0.400792">
        <ele>4.483</ele>
        <time>1970-01-01T03:03:58Z</time>
      </trkpt>
      <trkpt lat="40.362434" lon="0.400730">
        <ele>4.217</ele>
        <time>1970-01-01T03:03:59Z</time>
      </trkpt>
      <trkpt lat="40.362468" lon="0.400670">
        <ele>3.818</ele>
        <time>1970-01-01T03:04:00Z</time>
      </trkpt>
      <trkpt lat="40.362493" lon="0.400605">
        <ele>3.452</ele>
        <time>1970-01-01T03:04:01Z</time>
      </trkpt>
      <trkpt lat="40.362510" lon="0.400542">
        <ele>3.053</ele>
        <time>1970-01-01T03:04:02Z</time>
      </trkpt>
      <trkpt lat="40.362515" lon="0.400487">
        <ele>2.808</ele>
        <time>1970-01-01T03:04:03Z</time>
      </trkpt>
      <trkpt lat="40.362504" lon="0.400442">
        <ele>2.608</ele>
        <time>1970-01-01T03:04:04Z</time>
      </trkpt>
      <trkpt lat="40.362481" lon="0.400406">
        <ele>2.542</ele>
        <time>1970-01-01T03:04:05Z</time>
      </trkpt>
      <trkpt lat="40.362450" lon="0.400379">
        <ele>2.569</ele>
        <time>1970-01-01T03:04:06Z</time>
      </trkpt>
      <trkpt lat="40.362415" lon="0.400360">
        <ele>2.610</ele>
        <time>1970-01-01T03:04:07Z</time>
      </trkpt>
      <trkpt lat="40.362372" lon="0.400351">
        <ele>2.793</ele>
        <time>1970-01-01T03:04:08Z</time>
      </trkpt>
      <trkpt lat="40.362327" lon="0.400328">
        <ele>2.843</ele>
        <time>1970-01-01T03:04:09Z</time>
      </trkpt>
      <trkpt lat="40.362280" lon="0.400317">
        <ele>2.979</ele>
        <time>1970-01-01T03:04:10Z</time>
      </trkpt>
      <trkpt lat="40.362223" lon="0.400312">
        <ele>3.173</ele>
        <time>1970-01-01T03:04:11Z</time>
      </trkpt>
      <trkpt lat="40.362164" lon="0.400307">
        <ele>3.344</ele>
        <time>1970-01-01T03:04:12Z</time>
      </trkpt>
      <trkpt lat="40.362110" lon="0.400300">
        <ele>3.486</ele>
        <time>1970-01-01T03:04:13Z</time>
      </trkpt>
      <trkpt lat="40.362053" lon="0.400299">
        <ele>3.660</ele>
        <time>1970-01-01T03:04:14Z</time>
      </trkpt>
      <trkpt lat="40.361996" lon="0.400292">
        <ele>3.826</ele>
        <time>1970-01-01T03:04:15Z</time>
      </trkpt>
      <trkpt lat="40.361938" lon="0.400285">
        <ele>4.008</ele>
        <time>1970-01-01T03:04:16Z</time>
      </trkpt>
      <trkpt lat="40.361877" lon="0.400289">
        <ele>3.765</ele>
        <time>1970-01-01T03:04:17Z</time>
      </trkpt>
      <trkpt lat="40.361817" lon="0.400287">
        <ele>3.582</ele>
        <time>1970-01-01T03:04:18Z</time>
      </trkpt>
      <trkpt lat="40.361757" lon="0.400287">
        <ele>3.333</ele>
        <time>1970-01-01T03:04:19Z</time>
      </trkpt>
      <trkpt lat="40.361627" lon="0.400310">
        <ele>2.936</ele>
        <time>1970-01-01T03:04:20Z</time>
      </trkpt>
      <trkpt lat="40.361559" lon="0.400319">
        <ele>2.626</ele>
        <time>1970-01-01T03:04:21Z</time>
      </trkpt>
      <trkpt lat="40.361527" lon="0.400322">
        <ele>2.582</ele>
        <time>1970-01-01T03:04:22Z</time>
      </trkpt>
      <trkpt lat="40.361494" lon="0.400324">
        <ele>2.456</ele>
        <time>1970-01-01T03:04:23Z</time>
      </trkpt>
      <trkpt lat="40.361428" lon="0.400327">
        <ele>2.187</ele>
        <time>1970-01-01T03:04:24Z</time>
      </trkpt>
      <trkpt lat="40.361362" lon="0.400330">
        <ele>1.948</ele>
        <time>1970-01-01T03:04:25Z</time>
      </trkpt>
      <trkpt lat="40.361298" lon="0.400329">
        <ele>1.761</ele>
        <time>1970-01-01T03:04:26Z</time>
      </trkpt>
      <trkpt lat="40.361236" lon="0.400327">
        <ele>1.517</ele>
        <time>1970-01-01T03:04:27Z</time>
      </trkpt>
      <trkpt lat="40.361176" lon="0.400321">
        <ele>1.408</ele>
        <time>1970-01-01T03:04:28Z</time>
      </trkpt>
      <trkpt lat="40.361117" lon="0.400315">
        <ele>1.271</ele>
        <time>1970-01-01T03:04:29Z</time>
      </trkpt>
      <trkpt lat="40.361060" lon="0.400303">
        <ele>1.128</ele>
        <time>1970-01-01T03:04:30Z</time>
      </trkpt>
      <trkpt lat="40.361004" lon="0.400288">
        <ele>1.159</ele>
        <time>1970-01-01T03:04:31Z</time>
      </trkpt>
      <trkpt lat="40.360947" lon="0.400273">
        <ele>1.052</ele>
        <time>1970-01-01T03:04:32Z</time>
      </trkpt>
      <trkpt lat="40.360883" lon="0.400264">
        <ele>1.042</ele>
        <time>1970-01-01T03:04:33Z</time>
      </trkpt>
      <trkpt lat="40.360822" lon="0.400248">
        <ele>1.188</ele>
        <time>1970-01-01T03:04:34Z</time>
      </trkpt>
      <trkpt lat="40.360767" lon="0.400231">
        <ele>1.432</ele>
        <time>1970-01-01T03:04:35Z</time>
      </trkpt>
      <trkpt lat="40.360710" lon="0.400214">
        <ele>1.863</ele>
        <time>1970-01-01T03:04:36Z</time>
      </trkpt>
      <trkpt lat="40.360643" lon="0.400203">
        <ele>2.253</ele>
        <time>1970-01-01T03:04:37Z</time>
      </trkpt>
      <trkpt lat="40.360528" lon="0.400178">
        <ele>2.704</ele>
        <time>1970-01-01T03:04:38Z</time>
      </trkpt>
      <trkpt lat="40.360502" lon="0.400171">
        <ele>2.714</ele>
        <time>1970-01-01T03:04:39Z</time>
      </trkpt>
      <trkpt lat="40.360475" lon="0.400164">
        <ele>2.708</ele>
        <time>1970-01-01T03:04:40Z</time>
      </trkpt>
      <trkpt lat="40.360421" lon="0.400145">
        <ele>2.862</ele>
        <time>1970-01-01T03:04:41Z</time>
      </trkpt>
      <trkpt lat="40.360372" lon="0.400127">
        <ele>2.879</ele>
        <time>1970-01-01T03:04:42Z</time>
      </trkpt>
      <trkpt lat="40.360325" lon="0.400109">
        <ele>2.920</ele>
        <time>1970-01-01T03:04:43Z</time>
      </trkpt>
      <trkpt lat="40.360279" lon="0.400091">
        <ele>3.043</ele>
        <time>1970-01-01T03:04:44Z</time>
      </trkpt>
      <trkpt lat="40.360231" lon="0.400073">
        <ele>3.233</ele>
        <time>1970-01-01T03:04:45Z</time>
      </trkpt>
      <trkpt lat="40.360184" lon="0.400053">
        <ele>3.329</ele>
        <time>1970-01-01T03:04:46Z</time>
      </trkpt>
      <trkpt lat="40.360137" lon="0.400037">
        <ele>3.533</ele>
        <time>1970-01-01T03:04:47Z</time>
      </trkpt>
      <trkpt lat="40.360090" lon="0.400019">
        <ele>3.714</ele>
        <time>1970-01-01T03:04:48Z</time>
      </trkpt>
      <trkpt lat="40.360045" lon="0.400000">
        <ele>3.837</ele>
        <time>1970-01-01T03:04:49Z</time>
      </trkpt>
      <trkpt lat="40.360001" lon="0.399981">
        <ele>4.149</ele>
        <time>1970-01-01T03:04:50Z</time>
      </trkpt>
      <trkpt lat="40.359958" lon="0.399961">
        <ele>4.313</ele>
        <time>1970-01-01T03:04:51Z</time>
      </trkpt>
      <trkpt lat="40.359921" lon="0.399941">
        <ele>4.408</ele>
        <time>1970-01-01T03:04:52Z</time>
      </trkpt>
      <trkpt lat="40.359889" lon="0.399917">
        <ele>4.640</ele>
        <time>1970-01-01T03:04:53Z</time>
      </trkpt>
      <trkpt lat="40.359862" lon="0.399886">
        <ele>4.877</ele>
        <time>1970-01-01T03:04:54Z</time>
      </trkpt>
      <trkpt lat="40.359835" lon="0.399849">
        <ele>5.178</ele>
        <time>1970-01-01T03:04:55Z</time>
      </trkpt>
      <trkpt lat="40.359789" lon="0.399835">
        <ele>5.261</ele>
        <time>1970-01-01T03:04:56Z</time>
      </trkpt>
      <trkpt lat="40.359744" lon="0.399823">
        <ele>5.391</ele>
        <time>1970-01-01T03:04:57Z</time>
      </trkpt>
      <trkpt lat="40.359694" lon="0.399817">
        <ele>5.327</ele>
        <time>1970-01-01T03:04:58Z</time>
      </trkpt>
      <trkpt lat="40.359648" lon="0.399817">
        <ele>5.381</ele>
        <time>1970-01-01T03:04:59Z</time>
      </trkpt>
      <trkpt lat="40.359605" lon="0.399826">
        <ele>5.312</ele>
        <time>1970-01-01T03:05:00Z</time>
      </trkpt>
      <trkpt lat="40.359561" lon="0.399836">
        <ele>5.222</ele>
        <time>1970-01-01T03:05:01Z</time>
      </trkpt>
      <trkpt lat="40.359518" lon="0.399851">
        <ele>5.162</ele>
        <time>1970-01-01T03:05:02Z</time>
      </trkpt>
      <trkpt lat="40.359474" lon="0.399869">
        <ele>4.908</ele>
        <time>1970-01-01T03:05:03Z</time>
      </trkpt>
      <trkpt lat="40.359431" lon="0.399890">
        <ele>4.808</ele>
        <time>1970-01-01T03:05:04Z</time>
      </trkpt>
      <trkpt lat="40.359387" lon="0.399902">
        <ele>4.829</ele>
        <time>1970-01-01T03:05:05Z</time>
      </trkpt>
      <trkpt lat="40.359338" lon="0.399916">
        <ele>4.836</ele>
        <time>1970-01-01T03:05:06Z</time>
      </trkpt>
      <trkpt lat="40.359293" lon="0.399917">
        <ele>4.857</ele>
        <time>1970-01-01T03:05:07Z</time>
      </trkpt>
      <trkpt lat="40.359250" lon="0.399907">
        <ele>4.920</ele>
        <time>1970-01-01T03:05:08Z</time>
      </trkpt>
      <trkpt lat="40.359211" lon="0.399893">
        <ele>5.040</ele>
        <time>1970-01-01T03:05:09Z</time>
      </trkpt>
      <trkpt lat="40.359179" lon="0.399872">
        <ele>5.046</ele>
        <time>1970-01-01T03:05:10Z</time>
      </trkpt>
      <trkpt lat="40.359150" lon="0.399847">
        <ele>5.010</ele>
        <time>1970-01-01T03:05:11Z</time>
      </trkpt>
      <trkpt lat="40.359125" lon="0.399818">
        <ele>5.091</ele>
        <time>1970-01-01T03:05:12Z</time>
      </trkpt>
      <trkpt lat="40.359098" lon="0.399785">
        <ele>4.934</ele>
        <time>1970-01-01T03:05:13Z</time>
      </trkpt>
      <trkpt lat="40.359075" lon="0.399740">
        <ele>4.755</ele>
        <time>1970-01-01T03:05:14Z</time>
      </trkpt>
      <trkpt lat="40.359059" lon="0.399681">
        <ele>4.610</ele>
        <time>1970-01-01T03:05:15Z</time>
      </trkpt>
      <trkpt lat="40.359053" lon="0.399616">
        <ele>4.408</ele>
        <time>1970-01-01T03:05:16Z</time>
      </trkpt>
      <trkpt lat="40.359052" lon="0.399548">
        <ele>4.320</ele>
        <time>1970-01-01T03:05:17Z</time>
      </trkpt>
      <trkpt lat="40.359049" lon="0.399479">
        <ele>4.297</ele>
        <time>1970-01-01T03:05:18Z</time>
      </trkpt>
      <trkpt lat="40.359040" lon="0.399410">
        <ele>4.068</ele>
        <time>1970-01-01T03:05:19Z</time>
      </trkpt>
      <trkpt lat="40.359023" lon="0.399345">
        <ele>3.811</ele>
        <time>1970-01-01T03:05:20Z</time>
      </trkpt>
      <trkpt lat="40.358996" lon="0.399285">
        <ele>3.521</ele>
        <time>1970-01-01T03:05:21Z</time>
      </trkpt>
      <trkpt lat="40.358962" lon="0.399233">
        <ele>3.317</ele>
        <time>1970-01-01T03:05:22Z</time>
      </trkpt>
      <trkpt lat="40.358919" lon="0.399190">
        <ele>3.141</ele>
        <time>1970-01-01T03:05:23Z</time>
      </trkpt>
      <trkpt lat="40.358871" lon="0.399160">
        <ele>3.052</ele>
        <time>1970-01-01T03:05:24Z</time>
      </trkpt>
      <trkpt lat="40.358818" lon="0.399138">
        <ele>3.164</ele>
        <time>1970-01-01T03:05:25Z</time>
      </trkpt>
      <trkpt lat="40.358760" lon="0.399129">
        <ele>3.206</ele>
        <time>1970-01-01T03:05:26Z</time>
      </trkpt>
      <trkpt lat="40.358704" lon="0.399136">
        <ele>3.216</ele>
        <time>1970-01-01T03:05:27Z</time>
      </trkpt>
      <trkpt lat="40.358656" lon="0.399137">
        <ele>3.208</ele>
        <time>1970-01-01T03:05:28Z</time>
      </trkpt>
      <trkpt lat="40.358581" lon="0.399086">
        <ele>3.783</ele>
        <time>1970-01-01T03:05:29Z</time>
      </trkpt>
      <trkpt lat="40.358567" lon="0.399062">
        <ele>3.940</ele>
        <time>1970-01-01T03:05:30Z</time>
      </trkpt>
      <trkpt lat="40.358552" lon="0.399038">
        <ele>4.011</ele>
        <time>1970-01-01T03:05:31Z</time>
      </trkpt>
      <trkpt lat="40.358533" lon="0.398986">
        <ele>4.424</ele>
        <time>1970-01-01T03:05:32Z</time>
      </trkpt>
      <trkpt lat="40.358522" lon="0.398924">
        <ele>4.884</ele>
        <time>1970-01-01T03:05:33Z</time>
      </trkpt>
      <trkpt lat="40.358517" lon="0.398863">
        <ele>5.250</ele>
        <time>1970-01-01T03:05:34Z</time>
      </trkpt>
      <trkpt lat="40.358520" lon="0.398795">
        <ele>5.634</ele>
        <time>1970-01-01T03:05:35Z</time>
      </trkpt>
      <trkpt lat="40.358527" lon="0.398724">
        <ele>6.025</ele>
        <time>1970-01-01T03:05:36Z</time>
      </trkpt>
      <trkpt lat="40.358539" lon="0.398653">
        <ele>6.529</ele>
        <time>1970-01-01T03:05:37Z</time>
      </trkpt>
      <trkpt lat="40.358552" lon="0.398584">
        <ele>6.800</ele>
        <time>1970-01-01T03:05:38Z</time>
      </trkpt>
      <trkpt lat="40.358564" lon="0.398518">
        <ele>6.920</ele>
        <time>1970-01-01T03:05:39Z</time>
      </trkpt>
      <trkpt lat="40.358570" lon="0.398455">
        <ele>6.908</ele>
        <time>1970-01-01T03:05:40Z</time>
      </trkpt>
      <trkpt lat="40.358574" lon="0.398407">
        <ele>7.059</ele>
        <time>1970-01-01T03:05:41Z</time>
      </trkpt>
      <trkpt lat="40.358565" lon="0.398366">
        <ele>7.026</ele>
        <time>1970-01-01T03:05:42Z</time>
      </trkpt>
      <trkpt lat="40.358537" lon="0.398323">
        <ele>7.187</ele>
        <time>1970-01-01T03:05:43Z</time>
      </trkpt>
      <trkpt lat="40.358498" lon="0.398286">
        <ele>7.220</ele>
        <time>1970-01-01T03:05:44Z</time>
      </trkpt>
      <trkpt lat="40.358452" lon="0.398260">
        <ele>7.270</ele>
        <time>1970-01-01T03:05:45Z</time>
      </trkpt>
      <trkpt lat="40.358403" lon="0.398250">
        <ele>7.236</ele>
        <time>1970-01-01T03:05:46Z</time>
      </trkpt>
      <trkpt lat="40.358354" lon="0.398254">
        <ele>7.030</ele>
        <time>1970-01-01T03:05:47Z</time>
      </trkpt>
      <trkpt lat="40.358309" lon="0.398270">
        <ele>7.111</ele>
        <time>1970-01-01T03:05:48Z</time>
      </trkpt>
      <trkpt lat="40.358261" lon="0.398288">
        <ele>7.396</ele>
        <time>1970-01-01T03:05:49Z</time>
      </trkpt>
      <trkpt lat="40.358216" lon="0.398303">
        <ele>7.531</ele>
        <time>1970-01-01T03:05:50Z</time>
      </trkpt>
      <trkpt lat="40.358170" lon="0.398320">
        <ele>7.624</ele>
        <time>1970-01-01T03:05:51Z</time>
      </trkpt>
      <trkpt lat="40.358123" lon="0.398334">
        <ele>7.808</ele>
        <time>1970-01-01T03:05:52Z</time>
      </trkpt>
      <trkpt lat="40.358077" lon="0.398346">
        <ele>7.816</ele>
        <time>1970-01-01T03:05:53Z</time>
      </trkpt>
      <trkpt lat="40.358027" lon="0.398359">
        <ele>7.963</ele>
        <time>1970-01-01T03:05:54Z</time>
      </trkpt>
      <trkpt lat="40.357979" lon="0.398374">
        <ele>7.994</ele>
        <time>1970-01-01T03:05:55Z</time>
      </trkpt>
      <trkpt lat="40.357926" lon="0.398390">
        <ele>8.027</ele>
        <time>1970-01-01T03:05:56Z</time>
      </trkpt>
      <trkpt lat="40.357871" lon="0.398406">
        <ele>8.037</ele>
        <time>1970-01-01T03:05:57Z</time>
      </trkpt>
      <trkpt lat="40.357818" lon="0.398420">
        <ele>8.023</ele>
        <time>1970-01-01T03:05:58Z</time>
      </trkpt>
      <trkpt lat="40.357764" lon="0.398432">
        <ele>7.927</ele>
        <time>1970-01-01T03:05:59Z</time>
      </trkpt>
      <trkpt lat="40.357711" lon="0.398445">
        <ele>7.888</ele>
        <time>1970-01-01T03:06:00Z</time>
      </trkpt>
      <trkpt lat="40.357659" lon="0.398460">
        <ele>7.672</ele>
        <time>1970-01-01T03:06:01Z</time>
      </trkpt>
      <trkpt lat="40.357599" lon="0.398471">
        <ele>7.513</ele>
        <time>1970-01-01T03:06:02Z</time>
      </trkpt>
      <trkpt lat="40.357541" lon="0.398477">
        <ele>7.414</ele>
        <time>1970-01-01T03:06:03Z</time>
      </trkpt>
      <trkpt lat="40.357484" lon="0.398472">
        <ele>7.408</ele>
        <time>1970-01-01T03:06:04Z</time>
      </trkpt>
      <trkpt lat="40.357430" lon="0.398454">
        <ele>7.354</ele>
        <time>1970-01-01T03:06:05Z</time>
      </trkpt>
      <trkpt lat="40.357380" lon="0.398423">
        <ele>7.351</ele>
        <time>1970-01-01T03:06:06Z</time>
      </trkpt>
      <trkpt lat="40.357334" lon="0.398381">
        <ele>7.462</ele>
        <time>1970-01-01T03:06:07Z</time>
      </trkpt>
      <trkpt lat="40.357291" lon="0.398337">
        <ele>7.535</ele>
        <time>1970-01-01T03:06:08Z</time>
      </trkpt>
      <trkpt lat="40.357251" lon="0.398293">
        <ele>7.895</ele>
        <time>1970-01-01T03:06:09Z</time>
      </trkpt>
      <trkpt lat="40.357212" lon="0.398251">
        <ele>8.251</ele>
        <time>1970-01-01T03:06:10Z</time>
      </trkpt>
      <trkpt lat="40.357175" lon="0.398210">
        <ele>8.645</ele>
        <time>1970-01-01T03:06:11Z</time>
      </trkpt>
      <trkpt lat="40.357140" lon="0.398172">
        <ele>9.016</ele>
        <time>1970-01-01T03:06:12Z</time>
      </trkpt>
      <trkpt lat="40.357108" lon="0.398136">
        <ele>9.313</ele>
        <time>1970-01-01T03:06:13Z</time>
      </trkpt>
      <trkpt lat="40.357078" lon="0.398099">
        <ele>9.543</ele>
        <time>1970-01-01T03:06:14Z</time>
      </trkpt>
      <trkpt lat="40.357018" lon="0.398033">
        <ele>9.907</ele>
        <time>1970-01-01T03:06:15Z</time>
      </trkpt>
      <trkpt lat="40.356993" lon="0.398000">
        <ele>10.308</ele>
        <time>1970-01-01T03:06:16Z</time>
      </trkpt>
      <trkpt lat="40.356968" lon="0.397968">
        <ele>10.788</ele>
        <time>1970-01-01T03:06:17Z</time>
      </trkpt>
      <trkpt lat="40.356968" lon="0.397968">
        <ele>10.745</ele>
        <time>1970-01-01T03:06:18Z</time>
      </trkpt>
      <trkpt lat="40.356945" lon="0.397937">
        <ele>11.166</ele>
        <time>1970-01-01T03:06:19Z</time>
      </trkpt>
      <trkpt lat="40.356900" lon="0.397885">
        <ele>12.559</ele>
        <time>1970-01-01T03:06:20Z</time>
      </trkpt>
      <trkpt lat="40.356876" lon="0.397865">
        <ele>13.039</ele>
        <time>1970-01-01T03:06:21Z</time>
      </trkpt>
      <trkpt lat="40.356853" lon="0.397843">
        <ele>13.615</ele>
        <time>1970-01-01T03:06:22Z</time>
      </trkpt>
      <trkpt lat="40.356831" lon="0.397823">
        <ele>14.159</ele>
        <time>1970-01-01T03:06:23Z</time>
      </trkpt>
      <trkpt lat="40.356808" lon="0.397807">
        <ele>14.520</ele>
        <time>1970-01-01T03:06:24Z</time>
      </trkpt>
      <trkpt lat="40.356781" lon="0.397794">
        <ele>14.929</ele>
        <time>1970-01-01T03:06:25Z</time>
      </trkpt>
      <trkpt lat="40.356781" lon="0.397794">
        <ele>14.900</ele>
        <time>1970-01-01T03:06:26Z</time>
      </trkpt>
      <trkpt lat="40.356753" lon="0.397789">
        <ele>15.220</ele>
        <time>1970-01-01T03:06:27Z</time>
      </trkpt>
      <trkpt lat="40.356702" lon="0.397804">
        <ele>15.408</ele>
        <time>1970-01-01T03:06:28Z</time>
      </trkpt>
      <trkpt lat="40.356678" lon="0.397819">
        <ele>15.339</ele>
        <time>1970-01-01T03:06:29Z</time>
      </trkpt>
      <trkpt lat="40.356653" lon="0.397836">
        <ele>15.496</ele>
        <time>1970-01-01T03:06:30Z</time>
      </trkpt>
      <trkpt lat="40.356629" lon="0.397862">
        <ele>15.477</ele>
        <time>1970-01-01T03:06:31Z</time>
      </trkpt>
      <trkpt lat="40.356609" lon="0.397885">
        <ele>15.340</ele>
        <time>1970-01-01T03:06:32Z</time>
      </trkpt>
      <trkpt lat="40.356590" lon="0.397910">
        <ele>15.250</ele>
        <time>1970-01-01T03:06:33Z</time>
      </trkpt>
      <trkpt lat="40.356569" lon="0.397935">
        <ele>15.156</ele>
        <time>1970-01-01T03:06:34Z</time>
      </trkpt>
      <trkpt lat="40.356548" lon="0.397959">
        <ele>15.010</ele>
        <time>1970-01-01T03:06:35Z</time>
      </trkpt>
      <trkpt lat="40.356527" lon="0.397981">
        <ele>14.911</ele>
        <time>1970-01-01T03:06:36Z</time>
      </trkpt>
      <trkpt lat="40.356527" lon="0.397981">
        <ele>14.976</ele>
        <time>1970-01-01T03:06:37Z</time>
      </trkpt>
      <trkpt lat="40.356508" lon="0.398003">
        <ele>14.790</ele>
        <time>1970-01-01T03:06:38Z</time>
      </trkpt>
      <trkpt lat="40.356470" lon="0.398066">
        <ele>14.019</ele>
        <time>1970-01-01T03:06:39Z</time>
      </trkpt>
      <trkpt lat="40.356470" lon="0.398066">
        <ele>14.008</ele>
        <time>1970-01-01T03:06:40Z</time>
      </trkpt>
      <trkpt lat="40.356450" lon="0.398100">
        <ele>13.924</ele>
        <time>1970-01-01T03:06:41Z</time>
      </trkpt>
      <trkpt lat="40.356436" lon="0.398137">
        <ele>13.641</ele>
        <time>1970-01-01T03:06:42Z</time>
      </trkpt>
      <trkpt lat="40.356419" lon="0.398169">
        <ele>13.492</ele>
        <time>1970-01-01T03:06:43Z</time>
      </trkpt>
      <trkpt lat="40.356399" lon="0.398192">
        <ele>13.445</ele>
        <time>1970-01-01T03:06:44Z</time>
      </trkpt>
      <trkpt lat="40.356378" lon="0.398211">
        <ele>13.695</ele>
        <time>1970-01-01T03:06:45Z</time>
      </trkpt>
      <trkpt lat="40.356357" lon="0.398233">
        <ele>13.861</ele>
        <time>1970-01-01T03:06:46Z</time>
      </trkpt>
      <trkpt lat="40.356336" lon="0.398253">
        <ele>14.045</ele>
        <time>1970-01-01T03:06:47Z</time>
      </trkpt>
      <trkpt lat="40.356316" lon="0.398274">
        <ele>14.176</ele>
        <time>1970-01-01T03:06:48Z</time>
      </trkpt>
      <trkpt lat="40.356295" lon="0.398296">
        <ele>14.226</ele>
        <time>1970-01-01T03:06:49Z</time>
      </trkpt>
      <trkpt lat="40.356275" lon="0.398317">
        <ele>14.347</ele>
        <time>1970-01-01T03:06:50Z</time>
      </trkpt>
      <trkpt lat="40.356239" lon="0.398357">
        <ele>14.311</ele>
        <time>1970-01-01T03:06:51Z</time>
      </trkpt>
      <trkpt lat="40.356239" lon="0.398357">
        <ele>14.308</ele>
        <time>1970-01-01T03:06:52Z</time>
      </trkpt>
      <trkpt lat="40.356216" lon="0.398372">
        <ele>14.589</ele>
        <time>1970-01-01T03:06:53Z</time>
      </trkpt>
      <trkpt lat="40.356194" lon="0.398384">
        <ele>14.616</ele>
        <time>1970-01-01T03:06:54Z</time>
      </trkpt>
      <trkpt lat="40.356170" lon="0.398389">
        <ele>14.987</ele>
        <time>1970-01-01T03:06:55Z</time>
      </trkpt>
      <trkpt lat="40.356143" lon="0.398389">
        <ele>15.330</ele>
        <time>1970-01-01T03:06:56Z</time>
      </trkpt>
      <trkpt lat="40.356118" lon="0.398383">
        <ele>15.820</ele>
        <time>1970-01-01T03:06:57Z</time>
      </trkpt>
      <trkpt lat="40.356064" lon="0.398370">
        <ele>17.466</ele>
        <time>1970-01-01T03:06:58Z</time>
      </trkpt>
      <trkpt lat="40.356032" lon="0.398375">
        <ele>18.110</ele>
        <time>1970-01-01T03:06:59Z</time>
      </trkpt>
      <trkpt lat="40.356004" lon="0.398385">
        <ele>18.591</ele>
        <time>1970-01-01T03:07:00Z</time>
      </trkpt>
      <trkpt lat="40.355974" lon="0.398396">
        <ele>18.945</ele>
        <time>1970-01-01T03:07:01Z</time>
      </trkpt>
      <trkpt lat="40.355945" lon="0.398408">
        <ele>19.247</ele>
        <time>1970-01-01T03:07:02Z</time>
      </trkpt>
      <trkpt lat="40.355914" lon="0.398410">
        <ele>19.811</ele>
        <time>1970-01-01T03:07:03Z</time>
      </trkpt>
      <trkpt lat="40.355882" lon="0.398411">
        <ele>20.508</ele>
        <time>1970-01-01T03:07:04Z</time>
      </trkpt>
      <trkpt lat="40.355850" lon="0.398406">
        <ele>21.561</ele>
        <time>1970-01-01T03:07:05Z</time>
      </trkpt>
      <trkpt lat="40.355817" lon="0.398401">
        <ele>22.518</ele>
        <time>1970-01-01T03:07:06Z</time>
      </trkpt>
      <trkpt lat="40.355784" lon="0.398394">
        <ele>23.869</ele>
        <time>1970-01-01T03:07:07Z</time>
      </trkpt>
      <trkpt lat="40.355751" lon="0.398389">
        <ele>25.062</ele>
        <time>1970-01-01T03:07:08Z</time>
      </trkpt>
      <trkpt lat="40.355715" lon="0.398384">
        <ele>26.352</ele>
        <time>1970-01-01T03:07:09Z</time>
      </trkpt>
      <trkpt lat="40.355678" lon="0.398384">
        <ele>27.388</ele>
        <time>1970-01-01T03:07:10Z</time>
      </trkpt>
      <trkpt lat="40.355642" lon="0.398388">
        <ele>28.222</ele>
        <time>1970-01-01T03:07:11Z</time>
      </trkpt>
      <trkpt lat="40.355605" lon="0.398389">
        <ele>29.263</ele>
        <time>1970-01-01T03:07:12Z</time>
      </trkpt>
      <trkpt lat="40.355567" lon="0.398391">
        <ele>30.164</ele>
        <time>1970-01-01T03:07:13Z</time>
      </trkpt>
      <trkpt lat="40.355527" lon="0.398394">
        <ele>30.306</ele>
        <time>1970-01-01T03:07:14Z</time>
      </trkpt>
      <trkpt lat="40.355487" lon="0.398404">
        <ele>29.816</ele>
        <time>1970-01-01T03:07:15Z</time>
      </trkpt>
      <trkpt lat="40.355443" lon="0.398409">
        <ele>29.608</ele>
        <time>1970-01-01T03:07:16Z</time>
      </trkpt>
      <trkpt lat="40.355395" lon="0.398410">
        <ele>29.693</ele>
        <time>1970-01-01T03:07:17Z</time>
      </trkpt>
      <trkpt lat="40.355345" lon="0.398406">
        <ele>29.950</ele>
        <time>1970-01-01T03:07:18Z</time>
      </trkpt>
      <trkpt lat="40.355305" lon="0.398393">
        <ele>30.911</ele>
        <time>1970-01-01T03:07:19Z</time>
      </trkpt>
      <trkpt lat="40.355265" lon="0.398381">
        <ele>31.574</ele>
        <time>1970-01-01T03:07:20Z</time>
      </trkpt>
      <trkpt lat="40.355184" lon="0.398357">
        <ele>31.474</ele>
        <time>1970-01-01T03:07:21Z</time>
      </trkpt>
      <trkpt lat="40.355126" lon="0.398331">
        <ele>31.870</ele>
        <time>1970-01-01T03:07:22Z</time>
      </trkpt>
      <trkpt lat="40.355067" lon="0.398300">
        <ele>31.294</ele>
        <time>1970-01-01T03:07:23Z</time>
      </trkpt>
      <trkpt lat="40.355005" lon="0.398261">
        <ele>30.985</ele>
        <time>1970-01-01T03:07:24Z</time>
      </trkpt>
      <trkpt lat="40.354941" lon="0.398219">
        <ele>29.852</ele>
        <time>1970-01-01T03:07:25Z</time>
      </trkpt>
      <trkpt lat="40.354871" lon="0.398181">
        <ele>28.253</ele>
        <time>1970-01-01T03:07:26Z</time>
      </trkpt>
      <trkpt lat="40.354799" lon="0.398147">
        <ele>26.508</ele>
        <time>1970-01-01T03:07:27Z</time>
      </trkpt>
      <trkpt lat="40.354734" lon="0.398119">
        <ele>24.808</ele>
        <time>1970-01-01T03:07:28Z</time>
      </trkpt>
      <trkpt lat="40.354672" lon="0.398089">
        <ele>23.652</ele>
        <time>1970-01-01T03:07:29Z</time>
      </trkpt>
      <trkpt lat="40.354618" lon="0.398046">
        <ele>22.879</ele>
        <time>1970-01-01T03:07:30Z</time>
      </trkpt>
      <trkpt lat="40.354576" lon="0.397985">
        <ele>22.480</ele>
        <time>1970-01-01T03:07:31Z</time>
      </trkpt>
      <trkpt lat="40.354551" lon="0.397897">
        <ele>23.293</ele>
        <time>1970-01-01T03:07:32Z</time>
      </trkpt>
      <trkpt lat="40.354535" lon="0.397801">
        <ele>24.563</ele>
        <time>1970-01-01T03:07:33Z</time>
      </trkpt>
      <trkpt lat="40.354521" lon="0.397704">
        <ele>25.989</ele>
        <time>1970-01-01T03:07:34Z</time>
      </trkpt>
      <trkpt lat="40.354496" lon="0.397610">
        <ele>26.893</ele>
        <time>1970-01-01T03:07:35Z</time>
      </trkpt>
      <trkpt lat="40.354454" lon="0.397524">
        <ele>26.914</ele>
        <time>1970-01-01T03:07:36Z</time>
      </trkpt>
      <trkpt lat="40.354396" lon="0.397455">
        <ele>26.526</ele>
        <time>1970-01-01T03:07:37Z</time>
      </trkpt>
      <trkpt lat="40.354328" lon="0.397406">
        <ele>25.547</ele>
        <time>1970-01-01T03:07:38Z</time>
      </trkpt>
      <trkpt lat="40.354247" lon="0.397368">
        <ele>23.811</ele>
        <time>1970-01-01T03:07:39Z</time>
      </trkpt>
      <trkpt lat="40.354175" lon="0.397331">
        <ele>22.308</ele>
        <time>1970-01-01T03:07:40Z</time>
      </trkpt>
      <trkpt lat="40.354106" lon="0.397289">
        <ele>21.079</ele>
        <time>1970-01-01T03:07:41Z</time>
      </trkpt>
      <trkpt lat="40.354041" lon="0.397236">
        <ele>19.836</ele>
        <time>1970-01-01T03:07:42Z</time>
      </trkpt>
      <trkpt lat="40.353985" lon="0.397175">
        <ele>19.347</ele>
        <time>1970-01-01T03:07:43Z</time>
      </trkpt>
      <trkpt lat="40.353934" lon="0.397111">
        <ele>19.320</ele>
        <time>1970-01-01T03:07:44Z</time>
      </trkpt>
      <trkpt lat="40.353887" lon="0.397047">
        <ele>19.450</ele>
        <time>1970-01-01T03:07:45Z</time>
      </trkpt>
      <trkpt lat="40.353845" lon="0.396986">
        <ele>19.326</ele>
        <time>1970-01-01T03:07:46Z</time>
      </trkpt>
      <trkpt lat="40.353801" lon="0.396924">
        <ele>18.880</ele>
        <time>1970-01-01T03:07:47Z</time>
      </trkpt>
      <trkpt lat="40.353759" lon="0.396862">
        <ele>17.931</ele>
        <time>1970-01-01T03:07:48Z</time>
      </trkpt>
      <trkpt lat="40.353718" lon="0.396796">
        <ele>17.038</ele>
        <time>1970-01-01T03:07:49Z</time>
      </trkpt>
      <trkpt lat="40.353678" lon="0.396726">
        <ele>16.270</ele>
        <time>1970-01-01T03:07:50Z</time>
      </trkpt>
      <trkpt lat="40.353637" lon="0.396652">
        <ele>15.217</ele>
        <time>1970-01-01T03:07:51Z</time>
      </trkpt>
      <trkpt lat="40.353600" lon="0.396572">
        <ele>14.008</ele>
        <time>1970-01-01T03:07:52Z</time>
      </trkpt>
      <trkpt lat="40.353572" lon="0.396485">
        <ele>13.680</ele>
        <time>1970-01-01T03:07:53Z</time>
      </trkpt>
      <trkpt lat="40.353556" lon="0.396392">
        <ele>13.467</ele>
        <time>1970-01-01T03:07:54Z</time>
      </trkpt>
      <trkpt lat="40.353555" lon="0.396296">
        <ele>13.738</ele>
        <time>1970-01-01T03:07:55Z</time>
      </trkpt>
      <trkpt lat="40.353561" lon="0.396199">
        <ele>14.271</ele>
        <time>1970-01-01T03:07:56Z</time>
      </trkpt>
      <trkpt lat="40.353568" lon="0.396106">
        <ele>14.851</ele>
        <time>1970-01-01T03:07:57Z</time>
      </trkpt>
      <trkpt lat="40.353574" lon="0.396013">
        <ele>14.987</ele>
        <time>1970-01-01T03:07:58Z</time>
      </trkpt>
      <trkpt lat="40.353575" lon="0.395924">
        <ele>15.021</ele>
        <time>1970-01-01T03:07:59Z</time>
      </trkpt>
      <trkpt lat="40.353574" lon="0.395836">
        <ele>14.982</ele>
        <time>1970-01-01T03:08:00Z</time>
      </trkpt>
      <trkpt lat="40.353571" lon="0.395751">
        <ele>14.655</ele>
        <time>1970-01-01T03:08:01Z</time>
      </trkpt>
      <trkpt lat="40.353565" lon="0.395668">
        <ele>14.207</ele>
        <time>1970-01-01T03:08:02Z</time>
      </trkpt>
      <trkpt lat="40.353553" lon="0.395584">
        <ele>13.617</ele>
        <time>1970-01-01T03:08:03Z</time>
      </trkpt>
      <trkpt lat="40.353535" lon="0.395502">
        <ele>13.108</ele>
        <time>1970-01-01T03:08:04Z</time>
      </trkpt>
      <trkpt lat="40.353511" lon="0.395421">
        <ele>12.542</ele>
        <time>1970-01-01T03:08:05Z</time>
      </trkpt>
      <trkpt lat="40.353483" lon="0.395339">
        <ele>11.869</ele>
        <time>1970-01-01T03:08:06Z</time>
      </trkpt>
      <trkpt lat="40.353453" lon="0.395257">
        <ele>11.010</ele>
        <time>1970-01-01T03:08:07Z</time>
      </trkpt>
      <trkpt lat="40.353423" lon="0.395173">
        <ele>10.493</ele>
        <time>1970-01-01T03:08:08Z</time>
      </trkpt>
      <trkpt lat="40.353393" lon="0.395087">
        <ele>9.743</ele>
        <time>1970-01-01T03:08:09Z</time>
      </trkpt>
      <trkpt lat="40.353366" lon="0.394998">
        <ele>8.969</ele>
        <time>1970-01-01T03:08:10Z</time>
      </trkpt>
      <trkpt lat="40.353342" lon="0.394909">
        <ele>8.663</ele>
        <time>1970-01-01T03:08:11Z</time>
      </trkpt>
      <trkpt lat="40.353318" lon="0.394819">
        <ele>8.564</ele>
        <time>1970-01-01T03:08:12Z</time>
      </trkpt>
      <trkpt lat="40.353292" lon="0.394730">
        <ele>8.555</ele>
        <time>1970-01-01T03:08:13Z</time>
      </trkpt>
      <trkpt lat="40.353263" lon="0.394640">
        <ele>8.807</ele>
        <time>1970-01-01T03:08:14Z</time>
      </trkpt>
      <trkpt lat="40.353231" lon="0.394548">
        <ele>8.917</ele>
        <time>1970-01-01T03:08:15Z</time>
      </trkpt>
      <trkpt lat="40.353196" lon="0.394455">
        <ele>9.008</ele>
        <time>1970-01-01T03:08:16Z</time>
      </trkpt>
      <trkpt lat="40.353159" lon="0.394364">
        <ele>8.892</ele>
        <time>1970-01-01T03:08:17Z</time>
      </trkpt>
      <trkpt lat="40.353120" lon="0.394272">
        <ele>8.539</ele>
        <time>1970-01-01T03:08:18Z</time>
      </trkpt>
      <trkpt lat="40.353077" lon="0.394181">
        <ele>8.380</ele>
        <time>1970-01-01T03:08:19Z</time>
      </trkpt>
      <trkpt lat="40.353033" lon="0.394092">
        <ele>7.473</ele>
        <time>1970-01-01T03:08:20Z</time>
      </trkpt>
      <trkpt lat="40.352988" lon="0.394003">
        <ele>6.453</ele>
        <time>1970-01-01T03:08:21Z</time>
      </trkpt>
      <trkpt lat="40.352944" lon="0.393914">
        <ele>5.599</ele>
        <time>1970-01-01T03:08:22Z</time>
      </trkpt>
      <trkpt lat="40.352900" lon="0.393827">
        <ele>4.683</ele>
        <time>1970-01-01T03:08:23Z</time>
      </trkpt>
      <trkpt lat="40.352856" lon="0.393738">
        <ele>3.764</ele>
        <time>1970-01-01T03:08:24Z</time>
      </trkpt>
      <trkpt lat="40.352812" lon="0.393648">
        <ele>2.779</ele>
        <time>1970-01-01T03:08:25Z</time>
      </trkpt>
      <trkpt lat="40.352770" lon="0.393557">
        <ele>2.405</ele>
        <time>1970-01-01T03:08:26Z</time>
      </trkpt>
      <trkpt lat="40.352730" lon="0.393466">
        <ele>3.025</ele>
        <time>1970-01-01T03:08:27Z</time>
      </trkpt>
      <trkpt lat="40.352690" lon="0.393373">
        <ele>3.408</ele>
        <time>1970-01-01T03:08:28Z</time>
      </trkpt>
      <trkpt lat="40.352652" lon="0.393283">
        <ele>3.734</ele>
        <time>1970-01-01T03:08:29Z</time>
      </trkpt>
      <trkpt lat="40.352613" lon="0.393197">
        <ele>3.941</ele>
        <time>1970-01-01T03:08:30Z</time>
      </trkpt>
      <trkpt lat="40.352573" lon="0.393114">
        <ele>4.122</ele>
        <time>1970-01-01T03:08:31Z</time>
      </trkpt>
      <trkpt lat="40.352531" lon="0.393031">
        <ele>4.275</ele>
        <time>1970-01-01T03:08:32Z</time>
      </trkpt>
      <trkpt lat="40.352491" lon="0.392949">
        <ele>4.445</ele>
        <time>1970-01-01T03:08:33Z</time>
      </trkpt>
      <trkpt lat="40.352450" lon="0.392870">
        <ele>4.751</ele>
        <time>1970-01-01T03:08:34Z</time>
      </trkpt>
      <trkpt lat="40.352408" lon="0.392795">
        <ele>5.255</ele>
        <time>1970-01-01T03:08:35Z</time>
      </trkpt>
      <trkpt lat="40.352368" lon="0.392724">
        <ele>5.996</ele>
        <time>1970-01-01T03:08:36Z</time>
      </trkpt>
      <trkpt lat="40.352329" lon="0.392655">
        <ele>6.423</ele>
        <time>1970-01-01T03:08:37Z</time>
      </trkpt>
      <trkpt lat="40.352291" lon="0.392588">
        <ele>6.883</ele>
        <time>1970-01-01T03:08:38Z</time>
      </trkpt>
      <trkpt lat="40.352253" lon="0.392523">
        <ele>7.011</ele>
        <time>1970-01-01T03:08:39Z</time>
      </trkpt>
      <trkpt lat="40.352212" lon="0.392462">
        <ele>7.108</ele>
        <time>1970-01-01T03:08:40Z</time>
      </trkpt>
      <trkpt lat="40.352170" lon="0.392403">
        <ele>7.039</ele>
        <time>1970-01-01T03:08:41Z</time>
      </trkpt>
      <trkpt lat="40.352130" lon="0.392342">
        <ele>6.996</ele>
        <time>1970-01-01T03:08:42Z</time>
      </trkpt>
      <trkpt lat="40.352090" lon="0.392282">
        <ele>6.657</ele>
        <time>1970-01-01T03:08:43Z</time>
      </trkpt>
      <trkpt lat="40.352049" lon="0.392225">
        <ele>6.180</ele>
        <time>1970-01-01T03:08:44Z</time>
      </trkpt>
      <trkpt lat="40.352005" lon="0.392173">
        <ele>5.660</ele>
        <time>1970-01-01T03:08:45Z</time>
      </trkpt>
      <trkpt lat="40.351956" lon="0.392124">
        <ele>5.186</ele>
        <time>1970-01-01T03:08:46Z</time>
      </trkpt>
      <trkpt lat="40.351904" lon="0.392075">
        <ele>4.790</ele>
        <time>1970-01-01T03:08:47Z</time>
      </trkpt>
      <trkpt lat="40.351850" lon="0.392026">
        <ele>4.391</ele>
        <time>1970-01-01T03:08:48Z</time>
      </trkpt>
      <trkpt lat="40.351793" lon="0.391978">
        <ele>3.946</ele>
        <time>1970-01-01T03:08:49Z</time>
      </trkpt>
      <trkpt lat="40.351735" lon="0.391929">
        <ele>3.688</ele>
        <time>1970-01-01T03:08:50Z</time>
      </trkpt>
      <trkpt lat="40.351674" lon="0.391881">
        <ele>3.516</ele>
        <time>1970-01-01T03:08:51Z</time>
      </trkpt>
      <trkpt lat="40.351609" lon="0.391838">
        <ele>3.608</ele>
        <time>1970-01-01T03:08:52Z</time>
      </trkpt>
      <trkpt lat="40.351541" lon="0.391802">
        <ele>3.661</ele>
        <time>1970-01-01T03:08:53Z</time>
      </trkpt>
      <trkpt lat="40.351469" lon="0.391772">
        <ele>3.528</ele>
        <time>1970-01-01T03:08:54Z</time>
      </trkpt>
      <trkpt lat="40.351413" lon="0.391764">
        <ele>3.469</ele>
        <time>1970-01-01T03:08:55Z</time>
      </trkpt>
      <trkpt lat="40.351357" lon="0.391757">
        <ele>3.472</ele>
        <time>1970-01-01T03:08:56Z</time>
      </trkpt>
      <trkpt lat="40.351245" lon="0.391743">
        <ele>3.532</ele>
        <time>1970-01-01T03:08:57Z</time>
      </trkpt>
      <trkpt lat="40.351172" lon="0.391754">
        <ele>3.478</ele>
        <time>1970-01-01T03:08:58Z</time>
      </trkpt>
      <trkpt lat="40.351103" lon="0.391767">
        <ele>3.332</ele>
        <time>1970-01-01T03:08:59Z</time>
      </trkpt>
      <trkpt lat="40.351059" lon="0.391769">
        <ele>3.683</ele>
        <time>1970-01-01T03:09:00Z</time>
      </trkpt>
      <trkpt lat="40.351014" lon="0.391771">
        <ele>3.811</ele>
        <time>1970-01-01T03:09:01Z</time>
      </trkpt>
      <trkpt lat="40.350924" lon="0.391774">
        <ele>4.321</ele>
        <time>1970-01-01T03:09:02Z</time>
      </trkpt>
      <trkpt lat="40.350868" lon="0.391783">
        <ele>4.503</ele>
        <time>1970-01-01T03:09:03Z</time>
      </trkpt>
      <trkpt lat="40.350814" lon="0.391795">
        <ele>4.608</ele>
        <time>1970-01-01T03:09:04Z</time>
      </trkpt>
      <trkpt lat="40.350760" lon="0.391805">
        <ele>4.588</ele>
        <time>1970-01-01T03:09:05Z</time>
      </trkpt>
      <trkpt lat="40.350707" lon="0.391808">
        <ele>4.515</ele>
        <time>1970-01-01T03:09:06Z</time>
      </trkpt>
      <trkpt lat="40.350656" lon="0.391810">
        <ele>4.416</ele>
        <time>1970-01-01T03:09:07Z</time>
      </trkpt>
      <trkpt lat="40.350606" lon="0.391814">
        <ele>4.479</ele>
        <time>1970-01-01T03:09:08Z</time>
      </trkpt>
      <trkpt lat="40.350554" lon="0.391819">
        <ele>4.369</ele>
        <time>1970-01-01T03:09:09Z</time>
      </trkpt>
      <trkpt lat="40.350503" lon="0.391826">
        <ele>4.835</ele>
        <time>1970-01-01T03:09:10Z</time>
      </trkpt>
      <trkpt lat="40.350451" lon="0.391834">
        <ele>5.379</ele>
        <time>1970-01-01T03:09:11Z</time>
      </trkpt>
      <trkpt lat="40.350399" lon="0.391840">
        <ele>5.840</ele>
        <time>1970-01-01T03:09:12Z</time>
      </trkpt>
      <trkpt lat="40.350346" lon="0.391846">
        <ele>6.357</ele>
        <time>1970-01-01T03:09:13Z</time>
      </trkpt>
      <trkpt lat="40.350295" lon="0.391853">
        <ele>6.800</ele>
        <time>1970-01-01T03:09:14Z</time>
      </trkpt>
      <trkpt lat="40.350244" lon="0.391860">
        <ele>7.220</ele>
        <time>1970-01-01T03:09:15Z</time>
      </trkpt>
      <trkpt lat="40.350195" lon="0.391868">
        <ele>7.508</ele>
        <time>1970-01-01T03:09:16Z</time>
      </trkpt>
      <trkpt lat="40.350148" lon="0.391875">
        <ele>7.872</ele>
        <time>1970-01-01T03:09:17Z</time>
      </trkpt>
      <trkpt lat="40.350106" lon="0.391881">
        <ele>8.119</ele>
        <time>1970-01-01T03:09:18Z</time>
      </trkpt>
      <trkpt lat="40.350068" lon="0.391886">
        <ele>8.450</ele>
        <time>1970-01-01T03:09:19Z</time>
      </trkpt>
      <trkpt lat="40.350033" lon="0.391891">
        <ele>8.643</ele>
        <time>1970-01-01T03:09:20Z</time>
      </trkpt>
      <trkpt lat="40.350002" lon="0.391893">
        <ele>8.913</ele>
        <time>1970-01-01T03:09:21Z</time>
      </trkpt>
      <trkpt lat="40.349974" lon="0.391891">
        <ele>8.829</ele>
        <time>1970-01-01T03:09:22Z</time>
      </trkpt>
      <trkpt lat="40.349951" lon="0.391886">
        <ele>8.873</ele>
        <time>1970-01-01T03:09:23Z</time>
      </trkpt>
      <trkpt lat="40.349933" lon="0.391878">
        <ele>8.924</ele>
        <time>1970-01-01T03:09:24Z</time>
      </trkpt>
      <trkpt lat="40.349922" lon="0.391866">
        <ele>9.177</ele>
        <time>1970-01-01T03:09:25Z</time>
      </trkpt>
      <trkpt lat="40.349918" lon="0.391850">
        <ele>9.361</ele>
        <time>1970-01-01T03:09:26Z</time>
      </trkpt>
      <trkpt lat="40.349920" lon="0.391835">
        <ele>9.627</ele>
        <time>1970-01-01T03:09:27Z</time>
      </trkpt>
      <trkpt lat="40.349920" lon="0.391835">
        <ele>9.608</ele>
        <time>1970-01-01T03:09:28Z</time>
      </trkpt>
      <trkpt lat="40.349948" lon="0.391821">
        <ele>10.064</ele>
        <time>1970-01-01T03:09:29Z</time>
      </trkpt>
      <trkpt lat="40.349977" lon="0.391818">
        <ele>10.231</ele>
        <time>1970-01-01T03:09:30Z</time>
      </trkpt>
      <trkpt lat="40.350016" lon="0.391817">
        <ele>10.172</ele>
        <time>1970-01-01T03:09:31Z</time>
      </trkpt>
      <trkpt lat="40.350055" lon="0.391816">
        <ele>9.885</ele>
        <time>1970-01-01T03:09:32Z</time>
      </trkpt>
      <trkpt lat="40.350102" lon="0.391820">
        <ele>9.345</ele>
        <time>1970-01-01T03:09:33Z</time>
      </trkpt>
      <trkpt lat="40.350153" lon="0.391825">
        <ele>8.741</ele>
        <time>1970-01-01T03:09:34Z</time>
      </trkpt>
      <trkpt lat="40.350210" lon="0.391830">
        <ele>8.195</ele>
        <time>1970-01-01T03:09:35Z</time>
      </trkpt>
      <trkpt lat="40.350273" lon="0.391826">
        <ele>7.666</ele>
        <time>1970-01-01T03:09:36Z</time>
      </trkpt>
      <trkpt lat="40.350338" lon="0.391817">
        <ele>7.019</ele>
        <time>1970-01-01T03:09:37Z</time>
      </trkpt>
      <trkpt lat="40.350404" lon="0.391808">
        <ele>6.409</ele>
        <time>1970-01-01T03:09:38Z</time>
      </trkpt>
      <trkpt lat="40.350471" lon="0.391800">
        <ele>5.719</ele>
        <time>1970-01-01T03:09:39Z</time>
      </trkpt>
      <trkpt lat="40.350546" lon="0.391798">
        <ele>4.808</ele>
        <time>1970-01-01T03:09:40Z</time>
      </trkpt>
      <trkpt lat="40.350622" lon="0.391795">
        <ele>4.768</ele>
        <time>1970-01-01T03:09:41Z</time>
      </trkpt>
      <trkpt lat="40.350701" lon="0.391793">
        <ele>4.715</ele>
        <time>1970-01-01T03:09:42Z</time>
      </trkpt>
      <trkpt lat="40.350779" lon="0.391790">
        <ele>4.726</ele>
        <time>1970-01-01T03:09:43Z</time>
      </trkpt>
      <trkpt lat="40.350860" lon="0.391786">
        <ele>4.689</ele>
        <time>1970-01-01T03:09:44Z</time>
      </trkpt>
      <trkpt lat="40.350940" lon="0.391782">
        <ele>4.129</ele>
        <time>1970-01-01T03:09:45Z</time>
      </trkpt>
      <trkpt lat="40.351023" lon="0.391780">
        <ele>3.785</ele>
        <time>1970-01-01T03:09:46Z</time>
      </trkpt>
      <trkpt lat="40.351100" lon="0.391774">
        <ele>3.369</ele>
        <time>1970-01-01T03:09:47Z</time>
      </trkpt>
      <trkpt lat="40.351176" lon="0.391768">
        <ele>3.380</ele>
        <time>1970-01-01T03:09:48Z</time>
      </trkpt>
      <trkpt lat="40.351249" lon="0.391760">
        <ele>3.314</ele>
        <time>1970-01-01T03:09:49Z</time>
      </trkpt>
      <trkpt lat="40.351319" lon="0.391757">
        <ele>3.454</ele>
        <time>1970-01-01T03:09:50Z</time>
      </trkpt>
      <trkpt lat="40.351384" lon="0.391759">
        <ele>3.309</ele>
        <time>1970-01-01T03:09:51Z</time>
      </trkpt>
      <trkpt lat="40.351445" lon="0.391770">
        <ele>3.508</ele>
        <time>1970-01-01T03:09:52Z</time>
      </trkpt>
      <trkpt lat="40.351501" lon="0.391786">
        <ele>3.558</ele>
        <time>1970-01-01T03:09:53Z</time>
      </trkpt>
      <trkpt lat="40.351554" lon="0.391811">
        <ele>3.655</ele>
        <time>1970-01-01T03:09:54Z</time>
      </trkpt>
      <trkpt lat="40.351602" lon="0.391842">
        <ele>3.556</ele>
        <time>1970-01-01T03:09:55Z</time>
      </trkpt>
      <trkpt lat="40.351650" lon="0.391878">
        <ele>3.449</ele>
        <time>1970-01-01T03:09:56Z</time>
      </trkpt>
      <trkpt lat="40.351696" lon="0.391916">
        <ele>3.419</ele>
        <time>1970-01-01T03:09:57Z</time>
      </trkpt>
      <trkpt lat="40.351741" lon="0.391956">
        <ele>3.535</ele>
        <time>1970-01-01T03:09:58Z</time>
      </trkpt>
      <trkpt lat="40.351787" lon="0.391997">
        <ele>3.999</ele>
        <time>1970-01-01T03:09:59Z</time>
      </trkpt>
      <trkpt lat="40.351834" lon="0.392037">
        <ele>4.220</ele>
        <time>1970-01-01T03:10:00Z</time>
      </trkpt>
      <trkpt lat="40.351881" lon="0.392075">
        <ele>4.579</ele>
        <time>1970-01-01T03:10:01Z</time>
      </trkpt>
      <trkpt lat="40.351929" lon="0.392111">
        <ele>4.905</ele>
        <time>1970-01-01T03:10:02Z</time>
      </trkpt>
      <trkpt lat="40.351977" lon="0.392146">
        <ele>5.325</ele>
        <time>1970-01-01T03:10:03Z</time>
      </trkpt>
      <trkpt lat="40.352023" lon="0.392186">
        <ele>5.808</ele>
        <time>1970-01-01T03:10:04Z</time>
      </trkpt>
      <trkpt lat="40.352066" lon="0.392229">
        <ele>6.344</ele>
        <time>1970-01-01T03:10:05Z</time>
      </trkpt>
      <trkpt lat="40.352108" lon="0.392275">
        <ele>6.761</ele>
        <time>1970-01-01T03:10:06Z</time>
      </trkpt>
      <trkpt lat="40.352147" lon="0.392326">
        <ele>7.062</ele>
        <time>1970-01-01T03:10:07Z</time>
      </trkpt>
      <trkpt lat="40.352183" lon="0.392380">
        <ele>7.295</ele>
        <time>1970-01-01T03:10:08Z</time>
      </trkpt>
      <trkpt lat="40.352217" lon="0.392437">
        <ele>7.275</ele>
        <time>1970-01-01T03:10:09Z</time>
      </trkpt>
      <trkpt lat="40.352250" lon="0.392497">
        <ele>7.121</ele>
        <time>1970-01-01T03:10:10Z</time>
      </trkpt>
      <trkpt lat="40.352282" lon="0.392559">
        <ele>6.975</ele>
        <time>1970-01-01T03:10:11Z</time>
      </trkpt>
      <trkpt lat="40.352313" lon="0.392623">
        <ele>6.636</ele>
        <time>1970-01-01T03:10:12Z</time>
      </trkpt>
      <trkpt lat="40.352345" lon="0.392689">
        <ele>6.239</ele>
        <time>1970-01-01T03:10:13Z</time>
      </trkpt>
      <trkpt lat="40.352379" lon="0.392754">
        <ele>5.601</ele>
        <time>1970-01-01T03:10:14Z</time>
      </trkpt>
      <trkpt lat="40.352415" lon="0.392819">
        <ele>5.121</ele>
        <time>1970-01-01T03:10:15Z</time>
      </trkpt>
      <trkpt lat="40.352451" lon="0.392885">
        <ele>4.708</ele>
        <time>1970-01-01T03:10:16Z</time>
      </trkpt>
      <trkpt lat="40.352485" lon="0.392952">
        <ele>4.440</ele>
        <time>1970-01-01T03:10:17Z</time>
      </trkpt>
      <trkpt lat="40.352519" lon="0.393019">
        <ele>4.277</ele>
        <time>1970-01-01T03:10:18Z</time>
      </trkpt>
      <trkpt lat="40.352554" lon="0.393086">
        <ele>4.118</ele>
        <time>1970-01-01T03:10:19Z</time>
      </trkpt>
      <trkpt lat="40.352589" lon="0.393152">
        <ele>4.011</ele>
        <time>1970-01-01T03:10:20Z</time>
      </trkpt>
      <trkpt lat="40.352624" lon="0.393219">
        <ele>3.961</ele>
        <time>1970-01-01T03:10:21Z</time>
      </trkpt>
      <trkpt lat="40.352647" lon="0.393271">
        <ele>3.867</ele>
        <time>1970-01-01T03:10:22Z</time>
      </trkpt>
      <trkpt lat="40.352669" lon="0.393324">
        <ele>3.691</ele>
        <time>1970-01-01T03:10:23Z</time>
      </trkpt>
      <trkpt lat="40.352713" lon="0.393429">
        <ele>3.212</ele>
        <time>1970-01-01T03:10:24Z</time>
      </trkpt>
      <trkpt lat="40.352741" lon="0.393499">
        <ele>2.832</ele>
        <time>1970-01-01T03:10:25Z</time>
      </trkpt>
      <trkpt lat="40.352773" lon="0.393568">
        <ele>2.392</ele>
        <time>1970-01-01T03:10:26Z</time>
      </trkpt>
      <trkpt lat="40.352807" lon="0.393636">
        <ele>2.611</ele>
        <time>1970-01-01T03:10:27Z</time>
      </trkpt>
      <trkpt lat="40.352841" lon="0.393702">
        <ele>3.408</ele>
        <time>1970-01-01T03:10:28Z</time>
      </trkpt>
      <trkpt lat="40.352875" lon="0.393767">
        <ele>4.150</ele>
        <time>1970-01-01T03:10:29Z</time>
      </trkpt>
      <trkpt lat="40.352905" lon="0.393832">
        <ele>4.737</ele>
        <time>1970-01-01T03:10:30Z</time>
      </trkpt>
      <trkpt lat="40.352935" lon="0.393896">
        <ele>5.328</ele>
        <time>1970-01-01T03:10:31Z</time>
      </trkpt>
      <trkpt lat="40.352965" lon="0.393962">
        <ele>6.091</ele>
        <time>1970-01-01T03:10:32Z</time>
      </trkpt>
      <trkpt lat="40.352995" lon="0.394024">
        <ele>6.611</ele>
        <time>1970-01-01T03:10:33Z</time>
      </trkpt>
      <trkpt lat="40.353026" lon="0.394084">
        <ele>7.367</ele>
        <time>1970-01-01T03:10:34Z</time>
      </trkpt>
      <trkpt lat="40.353056" lon="0.394144">
        <ele>7.991</ele>
        <time>1970-01-01T03:10:35Z</time>
      </trkpt>
      <trkpt lat="40.353082" lon="0.394205">
        <ele>8.272</ele>
        <time>1970-01-01T03:10:36Z</time>
      </trkpt>
      <trkpt lat="40.353107" lon="0.394269">
        <ele>8.422</ele>
        <time>1970-01-01T03:10:37Z</time>
      </trkpt>
      <trkpt lat="40.353131" lon="0.394332">
        <ele>8.562</ele>
        <time>1970-01-01T03:10:38Z</time>
      </trkpt>
      <trkpt lat="40.353153" lon="0.394395">
        <ele>8.608</ele>
        <time>1970-01-01T03:10:39Z</time>
      </trkpt>
      <trkpt lat="40.353175" lon="0.394455">
        <ele>8.708</ele>
        <time>1970-01-01T03:10:40Z</time>
      </trkpt>
      <trkpt lat="40.353198" lon="0.394517">
        <ele>8.789</ele>
        <time>1970-01-01T03:10:41Z</time>
      </trkpt>
      <trkpt lat="40.353219" lon="0.394580">
        <ele>8.656</ele>
        <time>1970-01-01T03:10:42Z</time>
      </trkpt>
      <trkpt lat="40.353239" lon="0.394643">
        <ele>8.537</ele>
        <time>1970-01-01T03:10:43Z</time>
      </trkpt>
      <trkpt lat="40.353260" lon="0.394704">
        <ele>8.340</ele>
        <time>1970-01-01T03:10:44Z</time>
      </trkpt>
      <trkpt lat="40.353280" lon="0.394765">
        <ele>8.320</ele>
        <time>1970-01-01T03:10:45Z</time>
      </trkpt>
      <trkpt lat="40.353299" lon="0.394825">
        <ele>8.376</ele>
        <time>1970-01-01T03:10:46Z</time>
      </trkpt>
      <trkpt lat="40.353314" lon="0.394884">
        <ele>8.260</ele>
        <time>1970-01-01T03:10:47Z</time>
      </trkpt>
      <trkpt lat="40.353327" lon="0.394943">
        <ele>8.121</ele>
        <time>1970-01-01T03:10:48Z</time>
      </trkpt>
      <trkpt lat="40.353341" lon="0.394999">
        <ele>8.225</ele>
        <time>1970-01-01T03:10:49Z</time>
      </trkpt>
      <trkpt lat="40.353356" lon="0.395053">
        <ele>8.626</ele>
        <time>1970-01-01T03:10:50Z</time>
      </trkpt>
      <trkpt lat="40.353369" lon="0.395104">
        <ele>9.008</ele>
        <time>1970-01-01T03:10:51Z</time>
      </trkpt>
      <trkpt lat="40.353385" lon="0.395150">
        <ele>9.408</ele>
        <time>1970-01-01T03:10:52Z</time>
      </trkpt>
      <trkpt lat="40.353409" lon="0.395190">
        <ele>10.039</ele>
        <time>1970-01-01T03:10:53Z</time>
      </trkpt>
      <trkpt lat="40.353446" lon="0.395199">
        <ele>11.086</ele>
        <time>1970-01-01T03:10:54Z</time>
      </trkpt>
      <trkpt lat="40.353473" lon="0.395179">
        <ele>11.737</ele>
        <time>1970-01-01T03:10:55Z</time>
      </trkpt>
      <trkpt lat="40.353484" lon="0.395141">
        <ele>12.180</ele>
        <time>1970-01-01T03:10:56Z</time>
      </trkpt>
      <trkpt lat="40.353479" lon="0.395099">
        <ele>12.070</ele>
        <time>1970-01-01T03:10:57Z</time>
      </trkpt>
      <trkpt lat="40.353469" lon="0.395055">
        <ele>11.846</ele>
        <time>1970-01-01T03:10:58Z</time>
      </trkpt>
      <trkpt lat="40.353458" lon="0.395003">
        <ele>11.640</ele>
        <time>1970-01-01T03:10:59Z</time>
      </trkpt>
      <trkpt lat="40.353447" lon="0.394948">
        <ele>11.591</ele>
        <time>1970-01-01T03:11:00Z</time>
      </trkpt>
      <trkpt lat="40.353439" lon="0.394893">
        <ele>11.467</ele>
        <time>1970-01-01T03:11:01Z</time>
      </trkpt>
      <trkpt lat="40.353433" lon="0.394836">
        <ele>11.581</ele>
        <time>1970-01-01T03:11:02Z</time>
      </trkpt>
      <trkpt lat="40.353428" lon="0.394776">
        <ele>11.519</ele>
        <time>1970-01-01T03:11:03Z</time>
      </trkpt>
      <trkpt lat="40.353421" lon="0.394717">
        <ele>11.608</ele>
        <time>1970-01-01T03:11:04Z</time>
      </trkpt>
      <trkpt lat="40.353412" lon="0.394659">
        <ele>11.743</ele>
        <time>1970-01-01T03:11:05Z</time>
      </trkpt>
      <trkpt lat="40.353403" lon="0.394601">
        <ele>11.880</ele>
        <time>1970-01-01T03:11:06Z</time>
      </trkpt>
      <trkpt lat="40.353394" lon="0.394542">
        <ele>11.941</ele>
        <time>1970-01-01T03:11:07Z</time>
      </trkpt>
      <trkpt lat="40.353384" lon="0.394485">
        <ele>12.044</ele>
        <time>1970-01-01T03:11:08Z</time>
      </trkpt>
      <trkpt lat="40.353374" lon="0.394427">
        <ele>12.184</ele>
        <time>1970-01-01T03:11:09Z</time>
      </trkpt>
      <trkpt lat="40.353367" lon="0.394369">
        <ele>12.110</ele>
        <time>1970-01-01T03:11:10Z</time>
      </trkpt>
      <trkpt lat="40.353364" lon="0.394312">
        <ele>12.224</ele>
        <time>1970-01-01T03:11:11Z</time>
      </trkpt>
      <trkpt lat="40.353362" lon="0.394253">
        <ele>12.455</ele>
        <time>1970-01-01T03:11:12Z</time>
      </trkpt>
      <trkpt lat="40.353362" lon="0.394194">
        <ele>12.662</ele>
        <time>1970-01-01T03:11:13Z</time>
      </trkpt>
      <trkpt lat="40.353361" lon="0.394131">
        <ele>12.883</ele>
        <time>1970-01-01T03:11:14Z</time>
      </trkpt>
      <trkpt lat="40.353361" lon="0.394066">
        <ele>13.011</ele>
        <time>1970-01-01T03:11:15Z</time>
      </trkpt>
      <trkpt lat="40.353361" lon="0.394002">
        <ele>13.208</ele>
        <time>1970-01-01T03:11:16Z</time>
      </trkpt>
      <trkpt lat="40.353358" lon="0.393934">
        <ele>13.353</ele>
        <time>1970-01-01T03:11:17Z</time>
      </trkpt>
      <trkpt lat="40.353354" lon="0.393866">
        <ele>13.370</ele>
        <time>1970-01-01T03:11:18Z</time>
      </trkpt>
      <trkpt lat="40.353349" lon="0.393799">
        <ele>12.911</ele>
        <time>1970-01-01T03:11:19Z</time>
      </trkpt>
      <trkpt lat="40.353343" lon="0.393732">
        <ele>12.634</ele>
        <time>1970-01-01T03:11:20Z</time>
      </trkpt>
      <trkpt lat="40.353335" lon="0.393666">
        <ele>12.254</ele>
        <time>1970-01-01T03:11:21Z</time>
      </trkpt>
      <trkpt lat="40.353327" lon="0.393601">
        <ele>11.940</ele>
        <time>1970-01-01T03:11:22Z</time>
      </trkpt>
      <trkpt lat="40.353321" lon="0.393536">
        <ele>12.064</ele>
        <time>1970-01-01T03:11:23Z</time>
      </trkpt>
      <trkpt lat="40.353314" lon="0.393471">
        <ele>12.185</ele>
        <time>1970-01-01T03:11:24Z</time>
      </trkpt>
      <trkpt lat="40.353307" lon="0.393407">
        <ele>12.295</ele>
        <time>1970-01-01T03:11:25Z</time>
      </trkpt>
      <trkpt lat="40.353300" lon="0.393342">
        <ele>12.349</ele>
        <time>1970-01-01T03:11:26Z</time>
      </trkpt>
      <trkpt lat="40.353291" lon="0.393277">
        <ele>12.723</ele>
        <time>1970-01-01T03:11:27Z</time>
      </trkpt>
      <trkpt lat="40.353284" lon="0.393210">
        <ele>13.308</ele>
        <time>1970-01-01T03:11:28Z</time>
      </trkpt>
      <trkpt lat="40.353276" lon="0.393145">
        <ele>13.996</ele>
        <time>1970-01-01T03:11:29Z</time>
      </trkpt>
      <trkpt lat="40.353267" lon="0.393080">
        <ele>14.543</ele>
        <time>1970-01-01T03:11:30Z</time>
      </trkpt>
      <trkpt lat="40.353261" lon="0.393015">
        <ele>14.734</ele>
        <time>1970-01-01T03:11:31Z</time>
      </trkpt>
      <trkpt lat="40.353257" lon="0.392950">
        <ele>14.687</ele>
        <time>1970-01-01T03:11:32Z</time>
      </trkpt>
      <trkpt lat="40.353251" lon="0.392881">
        <ele>14.517</ele>
        <time>1970-01-01T03:11:33Z</time>
      </trkpt>
      <trkpt lat="40.353244" lon="0.392815">
        <ele>14.463</ele>
        <time>1970-01-01T03:11:34Z</time>
      </trkpt>
      <trkpt lat="40.353235" lon="0.392752">
        <ele>14.457</ele>
        <time>1970-01-01T03:11:35Z</time>
      </trkpt>
      <trkpt lat="40.353233" lon="0.392693">
        <ele>14.878</ele>
        <time>1970-01-01T03:11:36Z</time>
      </trkpt>
      <trkpt lat="40.353228" lon="0.392637">
        <ele>15.145</ele>
        <time>1970-01-01T03:11:37Z</time>
      </trkpt>
      <trkpt lat="40.353222" lon="0.392581">
        <ele>15.447</ele>
        <time>1970-01-01T03:11:38Z</time>
      </trkpt>
      <trkpt lat="40.353208" lon="0.392525">
        <ele>15.611</ele>
        <time>1970-01-01T03:11:39Z</time>
      </trkpt>
      <trkpt lat="40.353196" lon="0.392467">
        <ele>15.608</ele>
        <time>1970-01-01T03:11:40Z</time>
      </trkpt>
      <trkpt lat="40.353188" lon="0.392407">
        <ele>15.751</ele>
        <time>1970-01-01T03:11:41Z</time>
      </trkpt>
      <trkpt lat="40.353179" lon="0.392348">
        <ele>15.858</ele>
        <time>1970-01-01T03:11:42Z</time>
      </trkpt>
      <trkpt lat="40.353173" lon="0.392292">
        <ele>15.959</ele>
        <time>1970-01-01T03:11:43Z</time>
      </trkpt>
      <trkpt lat="40.353166" lon="0.392237">
        <ele>15.922</ele>
        <time>1970-01-01T03:11:44Z</time>
      </trkpt>
      <trkpt lat="40.353161" lon="0.392185">
        <ele>16.052</ele>
        <time>1970-01-01T03:11:45Z</time>
      </trkpt>
      <trkpt lat="40.353156" lon="0.392133">
        <ele>16.148</ele>
        <time>1970-01-01T03:11:46Z</time>
      </trkpt>
      <trkpt lat="40.353152" lon="0.392082">
        <ele>16.252</ele>
        <time>1970-01-01T03:11:47Z</time>
      </trkpt>
      <trkpt lat="40.353148" lon="0.392033">
        <ele>16.313</ele>
        <time>1970-01-01T03:11:48Z</time>
      </trkpt>
      <trkpt lat="40.353144" lon="0.391983">
        <ele>16.575</ele>
        <time>1970-01-01T03:11:49Z</time>
      </trkpt>
      <trkpt lat="40.353138" lon="0.391933">
        <ele>16.628</ele>
        <time>1970-01-01T03:11:50Z</time>
      </trkpt>
      <trkpt lat="40.353132" lon="0.391882">
        <ele>16.920</ele>
        <time>1970-01-01T03:11:51Z</time>
      </trkpt>
      <trkpt lat="40.353126" lon="0.391834">
        <ele>17.208</ele>
        <time>1970-01-01T03:11:52Z</time>
      </trkpt>
      <trkpt lat="40.353120" lon="0.391783">
        <ele>17.544</ele>
        <time>1970-01-01T03:11:53Z</time>
      </trkpt>
      <trkpt lat="40.353115" lon="0.391736">
        <ele>17.781</ele>
        <time>1970-01-01T03:11:54Z</time>
      </trkpt>
      <trkpt lat="40.353109" lon="0.391689">
        <ele>18.052</ele>
        <time>1970-01-01T03:11:55Z</time>
      </trkpt>
      <trkpt lat="40.353104" lon="0.391643">
        <ele>18.335</ele>
        <time>1970-01-01T03:11:56Z</time>
      </trkpt>
      <trkpt lat="40.353100" lon="0.391597">
        <ele>18.625</ele>
        <time>1970-01-01T03:11:57Z</time>
      </trkpt>
      <trkpt lat="40.353095" lon="0.391551">
        <ele>19.071</ele>
        <time>1970-01-01T03:11:58Z</time>
      </trkpt>
      <trkpt lat="40.353089" lon="0.391507">
        <ele>19.345</ele>
        <time>1970-01-01T03:11:59Z</time>
      </trkpt>
      <trkpt lat="40.353084" lon="0.391464">
        <ele>19.756</ele>
        <time>1970-01-01T03:12:00Z</time>
      </trkpt>
      <trkpt lat="40.353083" lon="0.391421">
        <ele>20.145</ele>
        <time>1970-01-01T03:12:01Z</time>
      </trkpt>
      <trkpt lat="40.353080" lon="0.391377">
        <ele>20.447</ele>
        <time>1970-01-01T03:12:02Z</time>
      </trkpt>
      <trkpt lat="40.353077" lon="0.391332">
        <ele>20.311</ele>
        <time>1970-01-01T03:12:03Z</time>
      </trkpt>
      <trkpt lat="40.353073" lon="0.391288">
        <ele>20.308</ele>
        <time>1970-01-01T03:12:04Z</time>
      </trkpt>
      <trkpt lat="40.353071" lon="0.391246">
        <ele>20.291</ele>
        <time>1970-01-01T03:12:05Z</time>
      </trkpt>
      <trkpt lat="40.353069" lon="0.391204">
        <ele>20.288</ele>
        <time>1970-01-01T03:12:06Z</time>
      </trkpt>
      <trkpt lat="40.353067" lon="0.391160">
        <ele>20.299</ele>
        <time>1970-01-01T03:12:07Z</time>
      </trkpt>
      <trkpt lat="40.353063" lon="0.391117">
        <ele>20.112</ele>
        <time>1970-01-01T03:12:08Z</time>
      </trkpt>
      <trkpt lat="40.353056" lon="0.391074">
        <ele>20.152</ele>
        <time>1970-01-01T03:12:09Z</time>
      </trkpt>
      <trkpt lat="40.353047" lon="0.391028">
        <ele>20.278</ele>
        <time>1970-01-01T03:12:10Z</time>
      </trkpt>
      <trkpt lat="40.353040" lon="0.390983">
        <ele>20.352</ele>
        <time>1970-01-01T03:12:11Z</time>
      </trkpt>
      <trkpt lat="40.353036" lon="0.390936">
        <ele>20.453</ele>
        <time>1970-01-01T03:12:12Z</time>
      </trkpt>
      <trkpt lat="40.353030" lon="0.390890">
        <ele>20.511</ele>
        <time>1970-01-01T03:12:13Z</time>
      </trkpt>
      <trkpt lat="40.353023" lon="0.390845">
        <ele>20.621</ele>
        <time>1970-01-01T03:12:14Z</time>
      </trkpt>
      <trkpt lat="40.353017" lon="0.390800">
        <ele>20.803</ele>
        <time>1970-01-01T03:12:15Z</time>
      </trkpt>
      <trkpt lat="40.353012" lon="0.390753">
        <ele>21.108</ele>
        <time>1970-01-01T03:12:16Z</time>
      </trkpt>
      <trkpt lat="40.353008" lon="0.390709">
        <ele>21.458</ele>
        <time>1970-01-01T03:12:17Z</time>
      </trkpt>
      <trkpt lat="40.353002" lon="0.390664">
        <ele>21.695</ele>
        <time>1970-01-01T03:12:18Z</time>
      </trkpt>
      <trkpt lat="40.352995" lon="0.390619">
        <ele>21.986</ele>
        <time>1970-01-01T03:12:19Z</time>
      </trkpt>
      <trkpt lat="40.352988" lon="0.390575">
        <ele>22.149</ele>
        <time>1970-01-01T03:12:20Z</time>
      </trkpt>
      <trkpt lat="40.352980" lon="0.390532">
        <ele>22.439</ele>
        <time>1970-01-01T03:12:21Z</time>
      </trkpt>
      <trkpt lat="40.352974" lon="0.390487">
        <ele>22.675</ele>
        <time>1970-01-01T03:12:22Z</time>
      </trkpt>
      <trkpt lat="40.352974" lon="0.390487">
        <ele>22.669</ele>
        <time>1970-01-01T03:12:23Z</time>
      </trkpt>
      <trkpt lat="40.352974" lon="0.390448">
        <ele>22.970</ele>
        <time>1970-01-01T03:12:24Z</time>
      </trkpt>
      <trkpt lat="40.352967" lon="0.390366">
        <ele>23.485</ele>
        <time>1970-01-01T03:12:25Z</time>
      </trkpt>
      <trkpt lat="40.352959" lon="0.390329">
        <ele>23.689</ele>
        <time>1970-01-01T03:12:26Z</time>
      </trkpt>
      <trkpt lat="40.352947" lon="0.390293">
        <ele>23.717</ele>
        <time>1970-01-01T03:12:27Z</time>
      </trkpt>
      <trkpt lat="40.352935" lon="0.390257">
        <ele>24.008</ele>
        <time>1970-01-01T03:12:28Z</time>
      </trkpt>
      <trkpt lat="40.352918" lon="0.390222">
        <ele>24.485</ele>
        <time>1970-01-01T03:12:29Z</time>
      </trkpt>
      <trkpt lat="40.352900" lon="0.390187">
        <ele>24.832</ele>
        <time>1970-01-01T03:12:30Z</time>
      </trkpt>
      <trkpt lat="40.352884" lon="0.390154">
        <ele>25.113</ele>
        <time>1970-01-01T03:12:31Z</time>
      </trkpt>
      <trkpt lat="40.352864" lon="0.390122">
        <ele>25.376</ele>
        <time>1970-01-01T03:12:32Z</time>
      </trkpt>
      <trkpt lat="40.352842" lon="0.390093">
        <ele>25.586</ele>
        <time>1970-01-01T03:12:33Z</time>
      </trkpt>
      <trkpt lat="40.352819" lon="0.390066">
        <ele>25.642</ele>
        <time>1970-01-01T03:12:34Z</time>
      </trkpt>
      <trkpt lat="40.352796" lon="0.390039">
        <ele>25.766</ele>
        <time>1970-01-01T03:12:35Z</time>
      </trkpt>
      <trkpt lat="40.352773" lon="0.390013">
        <ele>25.837</ele>
        <time>1970-01-01T03:12:36Z</time>
      </trkpt>
      <trkpt lat="40.352750" lon="0.389987">
        <ele>26.128</ele>
        <time>1970-01-01T03:12:37Z</time>
      </trkpt>
      <trkpt lat="40.352727" lon="0.389961">
        <ele>26.589</ele>
        <time>1970-01-01T03:12:38Z</time>
      </trkpt>
      <trkpt lat="40.352702" lon="0.389933">
        <ele>27.017</ele>
        <time>1970-01-01T03:12:39Z</time>
      </trkpt>
      <trkpt lat="40.352678" lon="0.389908">
        <ele>27.408</ele>
        <time>1970-01-01T03:12:40Z</time>
      </trkpt>
      <trkpt lat="40.352652" lon="0.389884">
        <ele>27.889</ele>
        <time>1970-01-01T03:12:41Z</time>
      </trkpt>
      <trkpt lat="40.352626" lon="0.389861">
        <ele>28.216</ele>
        <time>1970-01-01T03:12:42Z</time>
      </trkpt>
      <trkpt lat="40.352599" lon="0.389839">
        <ele>28.627</ele>
        <time>1970-01-01T03:12:43Z</time>
      </trkpt>
      <trkpt lat="40.352570" lon="0.389821">
        <ele>29.040</ele>
        <time>1970-01-01T03:12:44Z</time>
      </trkpt>
      <trkpt lat="40.352540" lon="0.389807">
        <ele>29.210</ele>
        <time>1970-01-01T03:12:45Z</time>
      </trkpt>
      <trkpt lat="40.352510" lon="0.389794">
        <ele>29.576</ele>
        <time>1970-01-01T03:12:46Z</time>
      </trkpt>
      <trkpt lat="40.352479" lon="0.389781">
        <ele>29.760</ele>
        <time>1970-01-01T03:12:47Z</time>
      </trkpt>
      <trkpt lat="40.352448" lon="0.389770">
        <ele>29.811</ele>
        <time>1970-01-01T03:12:48Z</time>
      </trkpt>
      <trkpt lat="40.352417" lon="0.389760">
        <ele>30.029</ele>
        <time>1970-01-01T03:12:49Z</time>
      </trkpt>
      <trkpt lat="40.352386" lon="0.389749">
        <ele>30.100</ele>
        <time>1970-01-01T03:12:50Z</time>
      </trkpt>
      <trkpt lat="40.352354" lon="0.389737">
        <ele>30.220</ele>
        <time>1970-01-01T03:12:51Z</time>
      </trkpt>
      <trkpt lat="40.352322" lon="0.389722">
        <ele>30.408</ele>
        <time>1970-01-01T03:12:52Z</time>
      </trkpt>
      <trkpt lat="40.352289" lon="0.389707">
        <ele>30.489</ele>
        <time>1970-01-01T03:12:53Z</time>
      </trkpt>
      <trkpt lat="40.352256" lon="0.389692">
        <ele>30.366</ele>
        <time>1970-01-01T03:12:54Z</time>
      </trkpt>
      <trkpt lat="40.352222" lon="0.389677">
        <ele>30.327</ele>
        <time>1970-01-01T03:12:55Z</time>
      </trkpt>
      <trkpt lat="40.352188" lon="0.389662">
        <ele>30.290</ele>
        <time>1970-01-01T03:12:56Z</time>
      </trkpt>
      <trkpt lat="40.352155" lon="0.389648">
        <ele>30.270</ele>
        <time>1970-01-01T03:12:57Z</time>
      </trkpt>
      <trkpt lat="40.352123" lon="0.389636">
        <ele>30.126</ele>
        <time>1970-01-01T03:12:58Z</time>
      </trkpt>
      <trkpt lat="40.352089" lon="0.389627">
        <ele>30.180</ele>
        <time>1970-01-01T03:12:59Z</time>
      </trkpt>
      <trkpt lat="40.352055" lon="0.389623">
        <ele>29.931</ele>
        <time>1970-01-01T03:13:00Z</time>
      </trkpt>
      <trkpt lat="40.352023" lon="0.389620">
        <ele>29.816</ele>
        <time>1970-01-01T03:13:01Z</time>
      </trkpt>
      <trkpt lat="40.351991" lon="0.389619">
        <ele>29.776</ele>
        <time>1970-01-01T03:13:02Z</time>
      </trkpt>
      <trkpt lat="40.351959" lon="0.389615">
        <ele>29.613</ele>
        <time>1970-01-01T03:13:03Z</time>
      </trkpt>
      <trkpt lat="40.351928" lon="0.389609">
        <ele>29.608</ele>
        <time>1970-01-01T03:13:04Z</time>
      </trkpt>
      <trkpt lat="40.351898" lon="0.389601">
        <ele>29.748</ele>
        <time>1970-01-01T03:13:05Z</time>
      </trkpt>
      <trkpt lat="40.351869" lon="0.389592">
        <ele>29.755</ele>
        <time>1970-01-01T03:13:06Z</time>
      </trkpt>
      <trkpt lat="40.351842" lon="0.389577">
        <ele>29.976</ele>
        <time>1970-01-01T03:13:07Z</time>
      </trkpt>
      <trkpt lat="40.351842" lon="0.389577">
        <ele>29.929</ele>
        <time>1970-01-01T03:13:08Z</time>
      </trkpt>
      <trkpt lat="40.351819" lon="0.389552">
        <ele>30.289</ele>
        <time>1970-01-01T03:13:09Z</time>
      </trkpt>
      <trkpt lat="40.351799" lon="0.389480">
        <ele>31.095</ele>
        <time>1970-01-01T03:13:10Z</time>
      </trkpt>
      <trkpt lat="40.351799" lon="0.389480">
        <ele>31.049</ele>
        <time>1970-01-01T03:13:11Z</time>
      </trkpt>
      <trkpt lat="40.351801" lon="0.389437">
        <ele>31.590</ele>
        <time>1970-01-01T03:13:12Z</time>
      </trkpt>
      <trkpt lat="40.351827" lon="0.389349">
        <ele>31.826</ele>
        <time>1970-01-01T03:13:13Z</time>
      </trkpt>
      <trkpt lat="40.351838" lon="0.389329">
        <ele>31.947</ele>
        <time>1970-01-01T03:13:14Z</time>
      </trkpt>
      <trkpt lat="40.351848" lon="0.389309">
        <ele>32.011</ele>
        <time>1970-01-01T03:13:15Z</time>
      </trkpt>
      <trkpt lat="40.351899" lon="0.389235">
        <ele>32.508</ele>
        <time>1970-01-01T03:13:16Z</time>
      </trkpt>
      <trkpt lat="40.351926" lon="0.389199">
        <ele>32.819</ele>
        <time>1970-01-01T03:13:17Z</time>
      </trkpt>
      <trkpt lat="40.351951" lon="0.389163">
        <ele>33.036</ele>
        <time>1970-01-01T03:13:18Z</time>
      </trkpt>
      <trkpt lat="40.351976" lon="0.389130">
        <ele>33.347</ele>
        <time>1970-01-01T03:13:19Z</time>
      </trkpt>
      <trkpt lat="40.352000" lon="0.389098">
        <ele>33.530</ele>
        <time>1970-01-01T03:13:20Z</time>
      </trkpt>
      <trkpt lat="40.352021" lon="0.389064">
        <ele>33.740</ele>
        <time>1970-01-01T03:13:21Z</time>
      </trkpt>
      <trkpt lat="40.352043" lon="0.389030">
        <ele>34.036</ele>
        <time>1970-01-01T03:13:22Z</time>
      </trkpt>
      <trkpt lat="40.352063" lon="0.388995">
        <ele>34.310</ele>
        <time>1970-01-01T03:13:23Z</time>
      </trkpt>
      <trkpt lat="40.352081" lon="0.388958">
        <ele>34.621</ele>
        <time>1970-01-01T03:13:24Z</time>
      </trkpt>
      <trkpt lat="40.352096" lon="0.388920">
        <ele>34.995</ele>
        <time>1970-01-01T03:13:25Z</time>
      </trkpt>
      <trkpt lat="40.352109" lon="0.388881">
        <ele>35.249</ele>
        <time>1970-01-01T03:13:26Z</time>
      </trkpt>
      <trkpt lat="40.352120" lon="0.388839">
        <ele>35.423</ele>
        <time>1970-01-01T03:13:27Z</time>
      </trkpt>
      <trkpt lat="40.352128" lon="0.388794">
        <ele>35.508</ele>
        <time>1970-01-01T03:13:28Z</time>
      </trkpt>
      <trkpt lat="40.352131" lon="0.388770">
        <ele>35.666</ele>
        <time>1970-01-01T03:13:29Z</time>
      </trkpt>
      <trkpt lat="40.352133" lon="0.388745">
        <ele>35.763</ele>
        <time>1970-01-01T03:13:30Z</time>
      </trkpt>
      <trkpt lat="40.352135" lon="0.388692">
        <ele>35.954</ele>
        <time>1970-01-01T03:13:31Z</time>
      </trkpt>
      <trkpt lat="40.352121" lon="0.388580">
        <ele>35.867</ele>
        <time>1970-01-01T03:13:32Z</time>
      </trkpt>
      <trkpt lat="40.352112" lon="0.388521">
        <ele>35.627</ele>
        <time>1970-01-01T03:13:33Z</time>
      </trkpt>
      <trkpt lat="40.352103" lon="0.388463">
        <ele>35.493</ele>
        <time>1970-01-01T03:13:34Z</time>
      </trkpt>
      <trkpt lat="40.352092" lon="0.388402">
        <ele>35.217</ele>
        <time>1970-01-01T03:13:35Z</time>
      </trkpt>
      <trkpt lat="40.352084" lon="0.388340">
        <ele>35.038</ele>
        <time>1970-01-01T03:13:36Z</time>
      </trkpt>
      <trkpt lat="40.352071" lon="0.388276">
        <ele>34.872</ele>
        <time>1970-01-01T03:13:37Z</time>
      </trkpt>
      <trkpt lat="40.352059" lon="0.388212">
        <ele>34.613</ele>
        <time>1970-01-01T03:13:38Z</time>
      </trkpt>
      <trkpt lat="40.352045" lon="0.388146">
        <ele>34.314</ele>
        <time>1970-01-01T03:13:39Z</time>
      </trkpt>
      <trkpt lat="40.352035" lon="0.388080">
        <ele>34.008</ele>
        <time>1970-01-01T03:13:40Z</time>
      </trkpt>
      <trkpt lat="40.352021" lon="0.388010">
        <ele>33.924</ele>
        <time>1970-01-01T03:13:41Z</time>
      </trkpt>
      <trkpt lat="40.352011" lon="0.387942">
        <ele>34.061</ele>
        <time>1970-01-01T03:13:42Z</time>
      </trkpt>
      <trkpt lat="40.352001" lon="0.387870">
        <ele>34.192</ele>
        <time>1970-01-01T03:13:43Z</time>
      </trkpt>
      <trkpt lat="40.351991" lon="0.387795">
        <ele>34.355</ele>
        <time>1970-01-01T03:13:44Z</time>
      </trkpt>
      <trkpt lat="40.351987" lon="0.387721">
        <ele>34.845</ele>
        <time>1970-01-01T03:13:45Z</time>
      </trkpt>
      <trkpt lat="40.351984" lon="0.387644">
        <ele>35.431</ele>
        <time>1970-01-01T03:13:46Z</time>
      </trkpt>
      <trkpt lat="40.351987" lon="0.387571">
        <ele>36.095</ele>
        <time>1970-01-01T03:13:47Z</time>
      </trkpt>
      <trkpt lat="40.351993" lon="0.387500">
        <ele>36.756</ele>
        <time>1970-01-01T03:13:48Z</time>
      </trkpt>
      <trkpt lat="40.352000" lon="0.387430">
        <ele>37.176</ele>
        <time>1970-01-01T03:13:49Z</time>
      </trkpt>
      <trkpt lat="40.352009" lon="0.387361">
        <ele>37.490</ele>
        <time>1970-01-01T03:13:50Z</time>
      </trkpt>
      <trkpt lat="40.352016" lon="0.387293">
        <ele>37.819</ele>
        <time>1970-01-01T03:13:51Z</time>
      </trkpt>
      <trkpt lat="40.352024" lon="0.387229">
        <ele>38.108</ele>
        <time>1970-01-01T03:13:52Z</time>
      </trkpt>
      <trkpt lat="40.352034" lon="0.387165">
        <ele>38.114</ele>
        <time>1970-01-01T03:13:53Z</time>
      </trkpt>
      <trkpt lat="40.352043" lon="0.387102">
        <ele>38.081</ele>
        <time>1970-01-01T03:13:54Z</time>
      </trkpt>
      <trkpt lat="40.352052" lon="0.387039">
        <ele>37.942</ele>
        <time>1970-01-01T03:13:55Z</time>
      </trkpt>
      <trkpt lat="40.352061" lon="0.386976">
        <ele>37.895</ele>
        <time>1970-01-01T03:13:56Z</time>
      </trkpt>
      <trkpt lat="40.352069" lon="0.386915">
        <ele>37.965</ele>
        <time>1970-01-01T03:13:57Z</time>
      </trkpt>
      <trkpt lat="40.352076" lon="0.386856">
        <ele>38.251</ele>
        <time>1970-01-01T03:13:58Z</time>
      </trkpt>
      <trkpt lat="40.352083" lon="0.386797">
        <ele>38.575</ele>
        <time>1970-01-01T03:13:59Z</time>
      </trkpt>
      <trkpt lat="40.352089" lon="0.386738">
        <ele>38.886</ele>
        <time>1970-01-01T03:14:00Z</time>
      </trkpt>
      <trkpt lat="40.352097" lon="0.386681">
        <ele>39.166</ele>
        <time>1970-01-01T03:14:01Z</time>
      </trkpt>
      <trkpt lat="40.352104" lon="0.386622">
        <ele>39.329</ele>
        <time>1970-01-01T03:14:02Z</time>
      </trkpt>
      <trkpt lat="40.352112" lon="0.386563">
        <ele>39.421</ele>
        <time>1970-01-01T03:14:03Z</time>
      </trkpt>
      <trkpt lat="40.352117" lon="0.386506">
        <ele>39.508</ele>
        <time>1970-01-01T03:14:04Z</time>
      </trkpt>
      <trkpt lat="40.352122" lon="0.386448">
        <ele>39.663</ele>
        <time>1970-01-01T03:14:05Z</time>
      </trkpt>
      <trkpt lat="40.352126" lon="0.386391">
        <ele>39.690</ele>
        <time>1970-01-01T03:14:06Z</time>
      </trkpt>
      <trkpt lat="40.352133" lon="0.386334">
        <ele>39.611</ele>
        <time>1970-01-01T03:14:07Z</time>
      </trkpt>
      <trkpt lat="40.352138" lon="0.386279">
        <ele>39.524</ele>
        <time>1970-01-01T03:14:08Z</time>
      </trkpt>
      <trkpt lat="40.352139" lon="0.386223">
        <ele>39.444</ele>
        <time>1970-01-01T03:14:09Z</time>
      </trkpt>
      <trkpt lat="40.352145" lon="0.386169">
        <ele>39.390</ele>
        <time>1970-01-01T03:14:10Z</time>
      </trkpt>
      <trkpt lat="40.352151" lon="0.386117">
        <ele>39.254</ele>
        <time>1970-01-01T03:14:11Z</time>
      </trkpt>
      <trkpt lat="40.352156" lon="0.386063">
        <ele>39.235</ele>
        <time>1970-01-01T03:14:12Z</time>
      </trkpt>
      <trkpt lat="40.352162" lon="0.386009">
        <ele>39.382</ele>
        <time>1970-01-01T03:14:13Z</time>
      </trkpt>
      <trkpt lat="40.352166" lon="0.385954">
        <ele>39.343</ele>
        <time>1970-01-01T03:14:14Z</time>
      </trkpt>
      <trkpt lat="40.352173" lon="0.385899">
        <ele>39.317</ele>
        <time>1970-01-01T03:14:15Z</time>
      </trkpt>
      <trkpt lat="40.352179" lon="0.385846">
        <ele>39.408</ele>
        <time>1970-01-01T03:14:16Z</time>
      </trkpt>
      <trkpt lat="40.352187" lon="0.385791">
        <ele>39.555</ele>
        <time>1970-01-01T03:14:17Z</time>
      </trkpt>
      <trkpt lat="40.352194" lon="0.385740">
        <ele>39.662</ele>
        <time>1970-01-01T03:14:18Z</time>
      </trkpt>
      <trkpt lat="40.352199" lon="0.385691">
        <ele>39.713</ele>
        <time>1970-01-01T03:14:19Z</time>
      </trkpt>
      <trkpt lat="40.352205" lon="0.385646">
        <ele>39.866</ele>
        <time>1970-01-01T03:14:20Z</time>
      </trkpt>
      <trkpt lat="40.352209" lon="0.385603">
        <ele>39.886</ele>
        <time>1970-01-01T03:14:21Z</time>
      </trkpt>
      <trkpt lat="40.352215" lon="0.385562">
        <ele>39.912</ele>
        <time>1970-01-01T03:14:22Z</time>
      </trkpt>
      <trkpt lat="40.352219" lon="0.385524">
        <ele>40.016</ele>
        <time>1970-01-01T03:14:23Z</time>
      </trkpt>
      <trkpt lat="40.352223" lon="0.385487">
        <ele>40.097</ele>
        <time>1970-01-01T03:14:24Z</time>
      </trkpt>
      <trkpt lat="40.352224" lon="0.385450">
        <ele>40.098</ele>
        <time>1970-01-01T03:14:25Z</time>
      </trkpt>
      <trkpt lat="40.352226" lon="0.385412">
        <ele>40.015</ele>
        <time>1970-01-01T03:14:26Z</time>
      </trkpt>
      <trkpt lat="40.352230" lon="0.385380">
        <ele>40.126</ele>
        <time>1970-01-01T03:14:27Z</time>
      </trkpt>
      <trkpt lat="40.352234" lon="0.385351">
        <ele>40.108</ele>
        <time>1970-01-01T03:14:28Z</time>
      </trkpt>
      <trkpt lat="40.352234" lon="0.385323">
        <ele>40.196</ele>
        <time>1970-01-01T03:14:29Z</time>
      </trkpt>
      <trkpt lat="40.352236" lon="0.385302">
        <ele>40.243</ele>
        <time>1970-01-01T03:14:30Z</time>
      </trkpt>
      <trkpt lat="40.352240" lon="0.385280">
        <ele>40.294</ele>
        <time>1970-01-01T03:14:31Z</time>
      </trkpt>
      <trkpt lat="40.352243" lon="0.385261">
        <ele>40.237</ele>
        <time>1970-01-01T03:14:32Z</time>
      </trkpt>
      <trkpt lat="40.352245" lon="0.385243">
        <ele>40.217</ele>
        <time>1970-01-01T03:14:33Z</time>
      </trkpt>
      <trkpt lat="40.352243" lon="0.385225">
        <ele>40.233</ele>
        <time>1970-01-01T03:14:34Z</time>
      </trkpt>
      <trkpt lat="40.352246" lon="0.385207">
        <ele>40.327</ele>
        <time>1970-01-01T03:14:35Z</time>
      </trkpt>
      <trkpt lat="40.352253" lon="0.385193">
        <ele>40.348</ele>
        <time>1970-01-01T03:14:36Z</time>
      </trkpt>
      <trkpt lat="40.352255" lon="0.385187">
        <ele>40.423</ele>
        <time>1970-01-01T03:14:37Z</time>
      </trkpt>
      <trkpt lat="40.352258" lon="0.385187">
        <ele>40.483</ele>
        <time>1970-01-01T03:14:38Z</time>
      </trkpt>
      <trkpt lat="40.352284" lon="0.385123">
        <ele>40.711</ele>
        <time>1970-01-01T03:16:08Z</time>
      </trkpt>
      <trkpt lat="40.352286" lon="0.385088">
        <ele>40.708</ele>
        <time>1970-01-01T03:16:09Z</time>
      </trkpt>
      <trkpt lat="40.352288" lon="0.385046">
        <ele>40.739</ele>
        <time>1970-01-01T03:16:10Z</time>
      </trkpt>
      <trkpt lat="40.352287" lon="0.384991">
        <ele>40.766</ele>
        <time>1970-01-01T03:16:11Z</time>
      </trkpt>
      <trkpt lat="40.352290" lon="0.384932">
        <ele>40.767</ele>
        <time>1970-01-01T03:16:12Z</time>
      </trkpt>
      <trkpt lat="40.352297" lon="0.384874">
        <ele>40.740</ele>
        <time>1970-01-01T03:16:13Z</time>
      </trkpt>
      <trkpt lat="40.352307" lon="0.384818">
        <ele>40.770</ele>
        <time>1970-01-01T03:16:14Z</time>
      </trkpt>
      <trkpt lat="40.352324" lon="0.384762">
        <ele>40.866</ele>
        <time>1970-01-01T03:16:15Z</time>
      </trkpt>
      <trkpt lat="40.352341" lon="0.384706">
        <ele>40.820</ele>
        <time>1970-01-01T03:16:16Z</time>
      </trkpt>
      <trkpt lat="40.352358" lon="0.384641">
        <ele>40.871</ele>
        <time>1970-01-01T03:16:17Z</time>
      </trkpt>
      <trkpt lat="40.352361" lon="0.384607">
        <ele>40.849</ele>
        <time>1970-01-01T03:16:18Z</time>
      </trkpt>
      <trkpt lat="40.352363" lon="0.384572">
        <ele>40.702</ele>
        <time>1970-01-01T03:16:19Z</time>
      </trkpt>
      <trkpt lat="40.352357" lon="0.384451">
        <ele>40.522</ele>
        <time>1970-01-01T03:16:20Z</time>
      </trkpt>
      <trkpt lat="40.352345" lon="0.384400">
        <ele>40.308</ele>
        <time>1970-01-01T03:16:21Z</time>
      </trkpt>
      <trkpt lat="40.352322" lon="0.384299">
        <ele>39.991</ele>
        <time>1970-01-01T03:16:22Z</time>
      </trkpt>
      <trkpt lat="40.352303" lon="0.384229">
        <ele>39.668</ele>
        <time>1970-01-01T03:16:23Z</time>
      </trkpt>
      <trkpt lat="40.352284" lon="0.384161">
        <ele>39.529</ele>
        <time>1970-01-01T03:16:24Z</time>
      </trkpt>
      <trkpt lat="40.352266" lon="0.384090">
        <ele>39.872</ele>
        <time>1970-01-01T03:16:25Z</time>
      </trkpt>
      <trkpt lat="40.352255" lon="0.384034">
        <ele>40.172</ele>
        <time>1970-01-01T03:16:26Z</time>
      </trkpt>
      <trkpt lat="40.352243" lon="0.383978">
        <ele>40.558</ele>
        <time>1970-01-01T03:16:27Z</time>
      </trkpt>
      <trkpt lat="40.352219" lon="0.383867">
        <ele>41.112</ele>
        <time>1970-01-01T03:16:28Z</time>
      </trkpt>
      <trkpt lat="40.352201" lon="0.383788">
        <ele>41.363</ele>
        <time>1970-01-01T03:16:29Z</time>
      </trkpt>
      <trkpt lat="40.352181" lon="0.383708">
        <ele>41.456</ele>
        <time>1970-01-01T03:16:30Z</time>
      </trkpt>
      <trkpt lat="40.352169" lon="0.383666">
        <ele>41.559</ele>
        <time>1970-01-01T03:16:31Z</time>
      </trkpt>
      <trkpt lat="40.352157" lon="0.383624">
        <ele>41.514</ele>
        <time>1970-01-01T03:16:32Z</time>
      </trkpt>
      <trkpt lat="40.352118" lon="0.383499">
        <ele>41.208</ele>
        <time>1970-01-01T03:16:33Z</time>
      </trkpt>
      <trkpt lat="40.352102" lon="0.383458">
        <ele>41.172</ele>
        <time>1970-01-01T03:16:34Z</time>
      </trkpt>
      <trkpt lat="40.352052" lon="0.383337">
        <ele>40.849</ele>
        <time>1970-01-01T03:16:35Z</time>
      </trkpt>
      <trkpt lat="40.352033" lon="0.383299">
        <ele>40.780</ele>
        <time>1970-01-01T03:16:36Z</time>
      </trkpt>
      <trkpt lat="40.351990" lon="0.383224">
        <ele>40.433</ele>
        <time>1970-01-01T03:16:37Z</time>
      </trkpt>
      <trkpt lat="40.351896" lon="0.383074">
        <ele>39.743</ele>
        <time>1970-01-01T03:16:38Z</time>
      </trkpt>
      <trkpt lat="40.351845" lon="0.382997">
        <ele>39.569</ele>
        <time>1970-01-01T03:16:39Z</time>
      </trkpt>
      <trkpt lat="40.351794" lon="0.382919">
        <ele>39.433</ele>
        <time>1970-01-01T03:16:40Z</time>
      </trkpt>
      <trkpt lat="40.351739" lon="0.382840">
        <ele>39.384</ele>
        <time>1970-01-01T03:16:41Z</time>
      </trkpt>
      <trkpt lat="40.351710" lon="0.382801">
        <ele>39.244</ele>
        <time>1970-01-01T03:16:42Z</time>
      </trkpt>
      <trkpt lat="40.351681" lon="0.382762">
        <ele>39.205</ele>
        <time>1970-01-01T03:16:43Z</time>
      </trkpt>
      <trkpt lat="40.351555" lon="0.382612">
        <ele>38.415</ele>
        <time>1970-01-01T03:16:44Z</time>
      </trkpt>
      <trkpt lat="40.351486" lon="0.382540">
        <ele>37.908</ele>
        <time>1970-01-01T03:16:45Z</time>
      </trkpt>
      <trkpt lat="40.351450" lon="0.382503">
        <ele>37.671</ele>
        <time>1970-01-01T03:16:46Z</time>
      </trkpt>
      <trkpt lat="40.351414" lon="0.382467">
        <ele>37.448</ele>
        <time>1970-01-01T03:16:47Z</time>
      </trkpt>
      <trkpt lat="40.351342" lon="0.382393">
        <ele>37.049</ele>
        <time>1970-01-01T03:16:48Z</time>
      </trkpt>
      <trkpt lat="40.351269" lon="0.382320">
        <ele>36.822</ele>
        <time>1970-01-01T03:16:49Z</time>
      </trkpt>
      <trkpt lat="40.351129" lon="0.382176">
        <ele>36.332</ele>
        <time>1970-01-01T03:16:50Z</time>
      </trkpt>
      <trkpt lat="40.351094" lon="0.382139">
        <ele>36.348</ele>
        <time>1970-01-01T03:16:51Z</time>
      </trkpt>
      <trkpt lat="40.351058" lon="0.382102">
        <ele>36.542</ele>
        <time>1970-01-01T03:16:52Z</time>
      </trkpt>
      <trkpt lat="40.350988" lon="0.382028">
        <ele>36.563</ele>
        <time>1970-01-01T03:16:53Z</time>
      </trkpt>
      <trkpt lat="40.350920" lon="0.381952">
        <ele>36.369</ele>
        <time>1970-01-01T03:16:54Z</time>
      </trkpt>
      <trkpt lat="40.350851" lon="0.381876">
        <ele>36.104</ele>
        <time>1970-01-01T03:16:55Z</time>
      </trkpt>
      <trkpt lat="40.350780" lon="0.381799">
        <ele>35.824</ele>
        <time>1970-01-01T03:16:56Z</time>
      </trkpt>
      <trkpt lat="40.350709" lon="0.381722">
        <ele>35.608</ele>
        <time>1970-01-01T03:16:57Z</time>
      </trkpt>
      <trkpt lat="40.350637" lon="0.381645">
        <ele>35.413</ele>
        <time>1970-01-01T03:16:58Z</time>
      </trkpt>
      <trkpt lat="40.350566" lon="0.381565">
        <ele>35.450</ele>
        <time>1970-01-01T03:16:59Z</time>
      </trkpt>
      <trkpt lat="40.350494" lon="0.381483">
        <ele>35.281</ele>
        <time>1970-01-01T03:17:00Z</time>
      </trkpt>
      <trkpt lat="40.350355" lon="0.381315">
        <ele>35.124</ele>
        <time>1970-01-01T03:17:01Z</time>
      </trkpt>
      <trkpt lat="40.350324" lon="0.381273">
        <ele>35.224</ele>
        <time>1970-01-01T03:17:02Z</time>
      </trkpt>
      <trkpt lat="40.350292" lon="0.381231">
        <ele>35.210</ele>
        <time>1970-01-01T03:17:03Z</time>
      </trkpt>
      <trkpt lat="40.350198" lon="0.381105">
        <ele>35.884</ele>
        <time>1970-01-01T03:17:04Z</time>
      </trkpt>
      <trkpt lat="40.350168" lon="0.381063">
        <ele>36.155</ele>
        <time>1970-01-01T03:17:05Z</time>
      </trkpt>
      <trkpt lat="40.350110" lon="0.380976">
        <ele>36.687</ele>
        <time>1970-01-01T03:17:06Z</time>
      </trkpt>
      <trkpt lat="40.350005" lon="0.380792">
        <ele>37.342</ele>
        <time>1970-01-01T03:17:07Z</time>
      </trkpt>
      <trkpt lat="40.349979" lon="0.380745">
        <ele>37.626</ele>
        <time>1970-01-01T03:17:08Z</time>
      </trkpt>
      <trkpt lat="40.349953" lon="0.380699">
        <ele>37.908</ele>
        <time>1970-01-01T03:17:09Z</time>
      </trkpt>
      <trkpt lat="40.349901" lon="0.380612">
        <ele>38.345</ele>
        <time>1970-01-01T03:17:10Z</time>
      </trkpt>
      <trkpt lat="40.349790" lon="0.380455">
        <ele>38.662</ele>
        <time>1970-01-01T03:17:11Z</time>
      </trkpt>
      <trkpt lat="40.349751" lon="0.380398">
        <ele>38.753</ele>
        <time>1970-01-01T03:17:12Z</time>
      </trkpt>
      <trkpt lat="40.349712" lon="0.380342">
        <ele>38.796</ele>
        <time>1970-01-01T03:17:13Z</time>
      </trkpt>
      <trkpt lat="40.349633" lon="0.380230">
        <ele>39.026</ele>
        <time>1970-01-01T03:17:14Z</time>
      </trkpt>
      <trkpt lat="40.349608" lon="0.380196">
        <ele>39.212</ele>
        <time>1970-01-01T03:17:15Z</time>
      </trkpt>
      <trkpt lat="40.349583" lon="0.380163">
        <ele>39.346</ele>
        <time>1970-01-01T03:17:16Z</time>
      </trkpt>
      <trkpt lat="40.349488" lon="0.380044">
        <ele>39.887</ele>
        <time>1970-01-01T03:17:17Z</time>
      </trkpt>
      <trkpt lat="40.349440" lon="0.379990">
        <ele>40.015</ele>
        <time>1970-01-01T03:17:18Z</time>
      </trkpt>
      <trkpt lat="40.349392" lon="0.379939">
        <ele>39.965</ele>
        <time>1970-01-01T03:17:19Z</time>
      </trkpt>
      <trkpt lat="40.349345" lon="0.379891">
        <ele>39.811</ele>
        <time>1970-01-01T03:17:20Z</time>
      </trkpt>
      <trkpt lat="40.349323" lon="0.379866">
        <ele>39.808</ele>
        <time>1970-01-01T03:17:21Z</time>
      </trkpt>
      <trkpt lat="40.349300" lon="0.379842">
        <ele>39.878</ele>
        <time>1970-01-01T03:17:22Z</time>
      </trkpt>
      <trkpt lat="40.349259" lon="0.379789">
        <ele>39.955</ele>
        <time>1970-01-01T03:17:23Z</time>
      </trkpt>
      <trkpt lat="40.349192" lon="0.379668">
        <ele>40.536</ele>
        <time>1970-01-01T03:17:24Z</time>
      </trkpt>
      <trkpt lat="40.349162" lon="0.379602">
        <ele>40.839</ele>
        <time>1970-01-01T03:17:25Z</time>
      </trkpt>
      <trkpt lat="40.349147" lon="0.379569">
        <ele>41.089</ele>
        <time>1970-01-01T03:17:26Z</time>
      </trkpt>
      <trkpt lat="40.349131" lon="0.379537">
        <ele>41.295</ele>
        <time>1970-01-01T03:17:27Z</time>
      </trkpt>
      <trkpt lat="40.349063" lon="0.379405">
        <ele>42.049</ele>
        <time>1970-01-01T03:17:28Z</time>
      </trkpt>
      <trkpt lat="40.349027" lon="0.379339">
        <ele>42.480</ele>
        <time>1970-01-01T03:17:29Z</time>
      </trkpt>
      <trkpt lat="40.348989" lon="0.379271">
        <ele>43.084</ele>
        <time>1970-01-01T03:17:30Z</time>
      </trkpt>
      <trkpt lat="40.348948" lon="0.379204">
        <ele>43.607</ele>
        <time>1970-01-01T03:17:31Z</time>
      </trkpt>
      <trkpt lat="40.348927" lon="0.379173">
        <ele>43.917</ele>
        <time>1970-01-01T03:17:32Z</time>
      </trkpt>
      <trkpt lat="40.348905" lon="0.379142">
        <ele>44.208</ele>
        <time>1970-01-01T03:17:33Z</time>
      </trkpt>
      <trkpt lat="40.348831" lon="0.379041">
        <ele>44.675</ele>
        <time>1970-01-01T03:17:34Z</time>
      </trkpt>
      <trkpt lat="40.348800" lon="0.379002">
        <ele>44.792</ele>
        <time>1970-01-01T03:17:35Z</time>
      </trkpt>
      <trkpt lat="40.348738" lon="0.378923">
        <ele>45.183</ele>
        <time>1970-01-01T03:17:36Z</time>
      </trkpt>
      <trkpt lat="40.348720" lon="0.378898">
        <ele>45.366</ele>
        <time>1970-01-01T03:17:37Z</time>
      </trkpt>
      <trkpt lat="40.348702" lon="0.378873">
        <ele>45.546</ele>
        <time>1970-01-01T03:17:38Z</time>
      </trkpt>
      <trkpt lat="40.348648" lon="0.378799">
        <ele>46.162</ele>
        <time>1970-01-01T03:17:39Z</time>
      </trkpt>
      <trkpt lat="40.348630" lon="0.378774">
        <ele>46.386</ele>
        <time>1970-01-01T03:17:40Z</time>
      </trkpt>
      <trkpt lat="40.348595" lon="0.378729">
        <ele>46.627</ele>
        <time>1970-01-01T03:17:41Z</time>
      </trkpt>
      <trkpt lat="40.348560" lon="0.378683">
        <ele>46.939</ele>
        <time>1970-01-01T03:17:42Z</time>
      </trkpt>
      <trkpt lat="40.348529" lon="0.378636">
        <ele>47.101</ele>
        <time>1970-01-01T03:17:43Z</time>
      </trkpt>
      <trkpt lat="40.348479" lon="0.378544">
        <ele>47.421</ele>
        <time>1970-01-01T03:17:44Z</time>
      </trkpt>
      <trkpt lat="40.348455" lon="0.378499">
        <ele>47.508</ele>
        <time>1970-01-01T03:17:45Z</time>
      </trkpt>
      <trkpt lat="40.348432" lon="0.378454">
        <ele>47.540</ele>
        <time>1970-01-01T03:17:46Z</time>
      </trkpt>
      <trkpt lat="40.348408" lon="0.378410">
        <ele>47.557</ele>
        <time>1970-01-01T03:17:47Z</time>
      </trkpt>
      <trkpt lat="40.348397" lon="0.378388">
        <ele>47.428</ele>
        <time>1970-01-01T03:17:48Z</time>
      </trkpt>
      <trkpt lat="40.348385" lon="0.378367">
        <ele>47.431</ele>
        <time>1970-01-01T03:17:49Z</time>
      </trkpt>
      <trkpt lat="40.348360" lon="0.378325">
        <ele>47.421</ele>
        <time>1970-01-01T03:17:50Z</time>
      </trkpt>
      <trkpt lat="40.348308" lon="0.378244">
        <ele>47.497</ele>
        <time>1970-01-01T03:17:51Z</time>
      </trkpt>
      <trkpt lat="40.348283" lon="0.378202">
        <ele>47.511</ele>
        <time>1970-01-01T03:17:52Z</time>
      </trkpt>
      <trkpt lat="40.348270" lon="0.378180">
        <ele>47.542</ele>
        <time>1970-01-01T03:17:53Z</time>
      </trkpt>
      <trkpt lat="40.348257" lon="0.378158">
        <ele>47.592</ele>
        <time>1970-01-01T03:17:54Z</time>
      </trkpt>
      <trkpt lat="40.348198" lon="0.378072">
        <ele>47.473</ele>
        <time>1970-01-01T03:17:55Z</time>
      </trkpt>
      <trkpt lat="40.348168" lon="0.378026">
        <ele>47.420</ele>
        <time>1970-01-01T03:17:56Z</time>
      </trkpt>
      <trkpt lat="40.348138" lon="0.377977">
        <ele>47.508</ele>
        <time>1970-01-01T03:17:57Z</time>
      </trkpt>
      <trkpt lat="40.348124" lon="0.377953">
        <ele>47.566</ele>
        <time>1970-01-01T03:17:58Z</time>
      </trkpt>
      <trkpt lat="40.348110" lon="0.377929">
        <ele>47.593</ele>
        <time>1970-01-01T03:17:59Z</time>
      </trkpt>
      <trkpt lat="40.348080" lon="0.377882">
        <ele>47.544</ele>
        <time>1970-01-01T03:18:00Z</time>
      </trkpt>
      <trkpt lat="40.348046" lon="0.377834">
        <ele>47.557</ele>
        <time>1970-01-01T03:18:01Z</time>
      </trkpt>
      <trkpt lat="40.347974" lon="0.377739">
        <ele>47.767</ele>
        <time>1970-01-01T03:18:02Z</time>
      </trkpt>
      <trkpt lat="40.347938" lon="0.377691">
        <ele>47.963</ele>
        <time>1970-01-01T03:18:03Z</time>
      </trkpt>
      <trkpt lat="40.347921" lon="0.377665">
        <ele>48.067</ele>
        <time>1970-01-01T03:18:04Z</time>
      </trkpt>
      <trkpt lat="40.347903" lon="0.377639">
        <ele>48.268</ele>
        <time>1970-01-01T03:18:05Z</time>
      </trkpt>
      <trkpt lat="40.347845" lon="0.377527">
        <ele>49.065</ele>
        <time>1970-01-01T03:18:06Z</time>
      </trkpt>
      <trkpt lat="40.347820" lon="0.377470">
        <ele>49.468</ele>
        <time>1970-01-01T03:18:07Z</time>
      </trkpt>
      <trkpt lat="40.347795" lon="0.377411">
        <ele>49.714</ele>
        <time>1970-01-01T03:18:08Z</time>
      </trkpt>
      <trkpt lat="40.347769" lon="0.377353">
        <ele>50.008</ele>
        <time>1970-01-01T03:18:09Z</time>
      </trkpt>
      <trkpt lat="40.347750" lon="0.377311">
        <ele>50.253</ele>
        <time>1970-01-01T03:18:10Z</time>
      </trkpt>
      <trkpt lat="40.347731" lon="0.377269">
        <ele>50.580</ele>
        <time>1970-01-01T03:18:11Z</time>
      </trkpt>
      <trkpt lat="40.347692" lon="0.377185">
        <ele>50.831</ele>
        <time>1970-01-01T03:18:12Z</time>
      </trkpt>
      <trkpt lat="40.347666" lon="0.377130">
        <ele>50.924</ele>
        <time>1970-01-01T03:18:13Z</time>
      </trkpt>
      <trkpt lat="40.347640" lon="0.377076">
        <ele>51.054</ele>
        <time>1970-01-01T03:18:14Z</time>
      </trkpt>
      <trkpt lat="40.347627" lon="0.377048">
        <ele>51.170</ele>
        <time>1970-01-01T03:18:15Z</time>
      </trkpt>
      <trkpt lat="40.347614" lon="0.377021">
        <ele>51.194</ele>
        <time>1970-01-01T03:18:16Z</time>
      </trkpt>
      <trkpt lat="40.347562" lon="0.376913">
        <ele>51.315</ele>
        <time>1970-01-01T03:18:17Z</time>
      </trkpt>
      <trkpt lat="40.347533" lon="0.376860">
        <ele>51.455</ele>
        <time>1970-01-01T03:18:18Z</time>
      </trkpt>
      <trkpt lat="40.347504" lon="0.376808">
        <ele>51.507</ele>
        <time>1970-01-01T03:18:19Z</time>
      </trkpt>
      <trkpt lat="40.347476" lon="0.376756">
        <ele>51.517</ele>
        <time>1970-01-01T03:18:20Z</time>
      </trkpt>
      <trkpt lat="40.347448" lon="0.376705">
        <ele>51.508</ele>
        <time>1970-01-01T03:18:21Z</time>
      </trkpt>
      <trkpt lat="40.347419" lon="0.376654">
        <ele>51.582</ele>
        <time>1970-01-01T03:18:22Z</time>
      </trkpt>
      <trkpt lat="40.347392" lon="0.376605">
        <ele>51.529</ele>
        <time>1970-01-01T03:18:23Z</time>
      </trkpt>
      <trkpt lat="40.347368" lon="0.376556">
        <ele>51.680</ele>
        <time>1970-01-01T03:18:24Z</time>
      </trkpt>
      <trkpt lat="40.347348" lon="0.376506">
        <ele>51.853</ele>
        <time>1970-01-01T03:18:25Z</time>
      </trkpt>
      <trkpt lat="40.347331" lon="0.376454">
        <ele>52.083</ele>
        <time>1970-01-01T03:18:26Z</time>
      </trkpt>
      <trkpt lat="40.347324" lon="0.376426">
        <ele>52.149</ele>
        <time>1970-01-01T03:18:27Z</time>
      </trkpt>
      <trkpt lat="40.347316" lon="0.376399">
        <ele>52.383</ele>
        <time>1970-01-01T03:18:28Z</time>
      </trkpt>
      <trkpt lat="40.347289" lon="0.376288">
        <ele>53.024</ele>
        <time>1970-01-01T03:18:29Z</time>
      </trkpt>
      <trkpt lat="40.347279" lon="0.376233">
        <ele>53.395</ele>
        <time>1970-01-01T03:18:30Z</time>
      </trkpt>
      <trkpt lat="40.347268" lon="0.376179">
        <ele>53.749</ele>
        <time>1970-01-01T03:18:31Z</time>
      </trkpt>
      <trkpt lat="40.347256" lon="0.376128">
        <ele>54.023</ele>
        <time>1970-01-01T03:18:32Z</time>
      </trkpt>
      <trkpt lat="40.347243" lon="0.376077">
        <ele>54.408</ele>
        <time>1970-01-01T03:18:33Z</time>
      </trkpt>
      <trkpt lat="40.347228" lon="0.376028">
        <ele>54.976</ele>
        <time>1970-01-01T03:18:34Z</time>
      </trkpt>
      <trkpt lat="40.347212" lon="0.375980">
        <ele>55.483</ele>
        <time>1970-01-01T03:18:35Z</time>
      </trkpt>
      <trkpt lat="40.347197" lon="0.375932">
        <ele>55.934</ele>
        <time>1970-01-01T03:18:36Z</time>
      </trkpt>
      <trkpt lat="40.347183" lon="0.375885">
        <ele>56.337</ele>
        <time>1970-01-01T03:18:37Z</time>
      </trkpt>
      <trkpt lat="40.347172" lon="0.375838">
        <ele>56.857</ele>
        <time>1970-01-01T03:18:38Z</time>
      </trkpt>
      <trkpt lat="40.347160" lon="0.375792">
        <ele>57.263</ele>
        <time>1970-01-01T03:18:39Z</time>
      </trkpt>
      <trkpt lat="40.347148" lon="0.375748">
        <ele>57.677</ele>
        <time>1970-01-01T03:18:40Z</time>
      </trkpt>
      <trkpt lat="40.347136" lon="0.375704">
        <ele>57.978</ele>
        <time>1970-01-01T03:18:41Z</time>
      </trkpt>
      <trkpt lat="40.347123" lon="0.375662">
        <ele>58.357</ele>
        <time>1970-01-01T03:18:42Z</time>
      </trkpt>
      <trkpt lat="40.347123" lon="0.375662">
        <ele>58.300</ele>
        <time>1970-01-01T03:18:43Z</time>
      </trkpt>
      <trkpt lat="40.347111" lon="0.375620">
        <ele>58.620</ele>
        <time>1970-01-01T03:18:44Z</time>
      </trkpt>
      <trkpt lat="40.347087" lon="0.375545">
        <ele>59.108</ele>
        <time>1970-01-01T03:18:45Z</time>
      </trkpt>
      <trkpt lat="40.347074" lon="0.375508">
        <ele>59.312</ele>
        <time>1970-01-01T03:18:46Z</time>
      </trkpt>
      <trkpt lat="40.347060" lon="0.375472">
        <ele>59.469</ele>
        <time>1970-01-01T03:18:47Z</time>
      </trkpt>
      <trkpt lat="40.347047" lon="0.375434">
        <ele>59.620</ele>
        <time>1970-01-01T03:18:48Z</time>
      </trkpt>
      <trkpt lat="40.347035" lon="0.375399">
        <ele>59.813</ele>
        <time>1970-01-01T03:18:49Z</time>
      </trkpt>
      <trkpt lat="40.347022" lon="0.375364">
        <ele>59.913</ele>
        <time>1970-01-01T03:18:50Z</time>
      </trkpt>
      <trkpt lat="40.347013" lon="0.375325">
        <ele>60.269</ele>
        <time>1970-01-01T03:18:51Z</time>
      </trkpt>
      <trkpt lat="40.347004" lon="0.375286">
        <ele>60.473</ele>
        <time>1970-01-01T03:18:52Z</time>
      </trkpt>
      <trkpt lat="40.347002" lon="0.375248">
        <ele>60.684</ele>
        <time>1970-01-01T03:18:53Z</time>
      </trkpt>
      <trkpt lat="40.346998" lon="0.375211">
        <ele>60.974</ele>
        <time>1970-01-01T03:18:54Z</time>
      </trkpt>
      <trkpt lat="40.346991" lon="0.375174">
        <ele>61.156</ele>
        <time>1970-01-01T03:18:55Z</time>
      </trkpt>
      <trkpt lat="40.346982" lon="0.375135">
        <ele>61.321</ele>
        <time>1970-01-01T03:18:56Z</time>
      </trkpt>
      <trkpt lat="40.346972" lon="0.375097">
        <ele>61.508</ele>
        <time>1970-01-01T03:18:57Z</time>
      </trkpt>
      <trkpt lat="40.346959" lon="0.375059">
        <ele>61.744</ele>
        <time>1970-01-01T03:18:58Z</time>
      </trkpt>
      <trkpt lat="40.346944" lon="0.375024">
        <ele>61.841</ele>
        <time>1970-01-01T03:18:59Z</time>
      </trkpt>
      <trkpt lat="40.346930" lon="0.374990">
        <ele>62.072</ele>
        <time>1970-01-01T03:19:00Z</time>
      </trkpt>
      <trkpt lat="40.346915" lon="0.374956">
        <ele>62.155</ele>
        <time>1970-01-01T03:19:01Z</time>
      </trkpt>
      <trkpt lat="40.346898" lon="0.374923">
        <ele>62.215</ele>
        <time>1970-01-01T03:19:02Z</time>
      </trkpt>
      <trkpt lat="40.346881" lon="0.374891">
        <ele>62.381</ele>
        <time>1970-01-01T03:19:03Z</time>
      </trkpt>
      <trkpt lat="40.346861" lon="0.374858">
        <ele>62.415</ele>
        <time>1970-01-01T03:19:04Z</time>
      </trkpt>
      <trkpt lat="40.346840" lon="0.374825">
        <ele>62.546</ele>
        <time>1970-01-01T03:19:05Z</time>
      </trkpt>
      <trkpt lat="40.346817" lon="0.374791">
        <ele>62.627</ele>
        <time>1970-01-01T03:19:06Z</time>
      </trkpt>
      <trkpt lat="40.346794" lon="0.374758">
        <ele>62.768</ele>
        <time>1970-01-01T03:19:07Z</time>
      </trkpt>
      <trkpt lat="40.346770" lon="0.374727">
        <ele>62.714</ele>
        <time>1970-01-01T03:19:08Z</time>
      </trkpt>
      <trkpt lat="40.346745" lon="0.374696">
        <ele>62.708</ele>
        <time>1970-01-01T03:19:09Z</time>
      </trkpt>
      <trkpt lat="40.346718" lon="0.374665">
        <ele>62.699</ele>
        <time>1970-01-01T03:19:10Z</time>
      </trkpt>
      <trkpt lat="40.346686" lon="0.374636">
        <ele>62.546</ele>
        <time>1970-01-01T03:19:11Z</time>
      </trkpt>
      <trkpt lat="40.346654" lon="0.374607">
        <ele>62.357</ele>
        <time>1970-01-01T03:19:12Z</time>
      </trkpt>
      <trkpt lat="40.346621" lon="0.374576">
        <ele>62.230</ele>
        <time>1970-01-01T03:19:13Z</time>
      </trkpt>
      <trkpt lat="40.346586" lon="0.374545">
        <ele>62.130</ele>
        <time>1970-01-01T03:19:14Z</time>
      </trkpt>
      <trkpt lat="40.346568" lon="0.374531">
        <ele>62.026</ele>
        <time>1970-01-01T03:19:15Z</time>
      </trkpt>
      <trkpt lat="40.346549" lon="0.374518">
        <ele>61.980</ele>
        <time>1970-01-01T03:19:16Z</time>
      </trkpt>
      <trkpt lat="40.346511" lon="0.374495">
        <ele>61.721</ele>
        <time>1970-01-01T03:19:17Z</time>
      </trkpt>
      <trkpt lat="40.346431" lon="0.374458">
        <ele>61.387</ele>
        <time>1970-01-01T03:19:18Z</time>
      </trkpt>
      <trkpt lat="40.346387" lon="0.374440">
        <ele>61.042</ele>
        <time>1970-01-01T03:19:19Z</time>
      </trkpt>
      <trkpt lat="40.346344" lon="0.374428">
        <ele>60.826</ele>
        <time>1970-01-01T03:19:20Z</time>
      </trkpt>
      <trkpt lat="40.346301" lon="0.374416">
        <ele>60.708</ele>
        <time>1970-01-01T03:19:21Z</time>
      </trkpt>
      <trkpt lat="40.346254" lon="0.374401">
        <ele>60.475</ele>
        <time>1970-01-01T03:19:22Z</time>
      </trkpt>
      <trkpt lat="40.346207" lon="0.374386">
        <ele>60.212</ele>
        <time>1970-01-01T03:19:23Z</time>
      </trkpt>
      <trkpt lat="40.346158" lon="0.374377">
        <ele>60.053</ele>
        <time>1970-01-01T03:19:24Z</time>
      </trkpt>
      <trkpt lat="40.346107" lon="0.374371">
        <ele>59.716</ele>
        <time>1970-01-01T03:19:25Z</time>
      </trkpt>
      <trkpt lat="40.346055" lon="0.374369">
        <ele>59.516</ele>
        <time>1970-01-01T03:19:26Z</time>
      </trkpt>
      <trkpt lat="40.346003" lon="0.374375">
        <ele>59.372</ele>
        <time>1970-01-01T03:19:27Z</time>
      </trkpt>
      <trkpt lat="40.345950" lon="0.374384">
        <ele>59.116</ele>
        <time>1970-01-01T03:19:28Z</time>
      </trkpt>
      <trkpt lat="40.345894" lon="0.374393">
        <ele>58.987</ele>
        <time>1970-01-01T03:19:29Z</time>
      </trkpt>
      <trkpt lat="40.345837" lon="0.374401">
        <ele>58.776</ele>
        <time>1970-01-01T03:19:30Z</time>
      </trkpt>
      <trkpt lat="40.345778" lon="0.374409">
        <ele>58.690</ele>
        <time>1970-01-01T03:19:31Z</time>
      </trkpt>
      <trkpt lat="40.345719" lon="0.374418">
        <ele>58.419</ele>
        <time>1970-01-01T03:19:32Z</time>
      </trkpt>
      <trkpt lat="40.345673" lon="0.374428">
        <ele>58.308</ele>
        <time>1970-01-01T03:19:33Z</time>
      </trkpt>
      <trkpt lat="40.345627" lon="0.374437">
        <ele>58.254</ele>
        <time>1970-01-01T03:19:34Z</time>
      </trkpt>
      <trkpt lat="40.345534" lon="0.374455">
        <ele>57.911</ele>
        <time>1970-01-01T03:19:35Z</time>
      </trkpt>
      <trkpt lat="40.345469" lon="0.374471">
        <ele>57.592</ele>
        <time>1970-01-01T03:19:36Z</time>
      </trkpt>
      <trkpt lat="40.345419" lon="0.374484">
        <ele>57.265</ele>
        <time>1970-01-01T03:19:37Z</time>
      </trkpt>
      <trkpt lat="40.345368" lon="0.374496">
        <ele>56.845</ele>
        <time>1970-01-01T03:19:38Z</time>
      </trkpt>
      <trkpt lat="40.345266" lon="0.374520">
        <ele>56.121</ele>
        <time>1970-01-01T03:19:39Z</time>
      </trkpt>
      <trkpt lat="40.345193" lon="0.374537">
        <ele>55.345</ele>
        <time>1970-01-01T03:19:40Z</time>
      </trkpt>
      <trkpt lat="40.345119" lon="0.374554">
        <ele>54.576</ele>
        <time>1970-01-01T03:19:41Z</time>
      </trkpt>
      <trkpt lat="40.345042" lon="0.374571">
        <ele>53.568</ele>
        <time>1970-01-01T03:19:42Z</time>
      </trkpt>
      <trkpt lat="40.345002" lon="0.374581">
        <ele>53.042</ele>
        <time>1970-01-01T03:19:43Z</time>
      </trkpt>
      <trkpt lat="40.344962" lon="0.374590">
        <ele>52.926</ele>
        <time>1970-01-01T03:19:44Z</time>
      </trkpt>
      <trkpt lat="40.344793" lon="0.374636">
        <ele>52.508</ele>
        <time>1970-01-01T03:19:45Z</time>
      </trkpt>
      <trkpt lat="40.344705" lon="0.374657">
        <ele>52.533</ele>
        <time>1970-01-01T03:19:46Z</time>
      </trkpt>
      <trkpt lat="40.344615" lon="0.374679">
        <ele>52.260</ele>
        <time>1970-01-01T03:19:47Z</time>
      </trkpt>
      <trkpt lat="40.344524" lon="0.374708">
        <ele>52.131</ele>
        <time>1970-01-01T03:19:48Z</time>
      </trkpt>
      <trkpt lat="40.344479" lon="0.374727">
        <ele>52.164</ele>
        <time>1970-01-01T03:19:49Z</time>
      </trkpt>
      <trkpt lat="40.344434" lon="0.374746">
        <ele>52.064</ele>
        <time>1970-01-01T03:19:50Z</time>
      </trkpt>
      <trkpt lat="40.344345" lon="0.374793">
        <ele>51.680</ele>
        <time>1970-01-01T03:19:51Z</time>
      </trkpt>
      <trkpt lat="40.344261" lon="0.374851">
        <ele>51.474</ele>
        <time>1970-01-01T03:19:52Z</time>
      </trkpt>
      <trkpt lat="40.344107" lon="0.374997">
        <ele>51.335</ele>
        <time>1970-01-01T03:19:53Z</time>
      </trkpt>
      <trkpt lat="40.344032" lon="0.375076">
        <ele>50.541</ele>
        <time>1970-01-01T03:19:54Z</time>
      </trkpt>
      <trkpt lat="40.343994" lon="0.375116">
        <ele>50.181</ele>
        <time>1970-01-01T03:19:55Z</time>
      </trkpt>
      <trkpt lat="40.343956" lon="0.375156">
        <ele>49.709</ele>
        <time>1970-01-01T03:19:56Z</time>
      </trkpt>
      <trkpt lat="40.343806" lon="0.375321">
        <ele>48.508</ele>
        <time>1970-01-01T03:19:57Z</time>
      </trkpt>
      <trkpt lat="40.343732" lon="0.375405">
        <ele>48.071</ele>
        <time>1970-01-01T03:19:58Z</time>
      </trkpt>
      <trkpt lat="40.343655" lon="0.375488">
        <ele>47.428</ele>
        <time>1970-01-01T03:19:59Z</time>
      </trkpt>
      <trkpt lat="40.343576" lon="0.375568">
        <ele>46.919</ele>
        <time>1970-01-01T03:20:00Z</time>
      </trkpt>
      <trkpt lat="40.343496" lon="0.375649">
        <ele>46.652</ele>
        <time>1970-01-01T03:20:01Z</time>
      </trkpt>
      <trkpt lat="40.343415" lon="0.375731">
        <ele>46.352</ele>
        <time>1970-01-01T03:20:02Z</time>
      </trkpt>
      <trkpt lat="40.343333" lon="0.375816">
        <ele>46.038</ele>
        <time>1970-01-01T03:20:03Z</time>
      </trkpt>
      <trkpt lat="40.343250" lon="0.375902">
        <ele>45.492</ele>
        <time>1970-01-01T03:20:04Z</time>
      </trkpt>
      <trkpt lat="40.343167" lon="0.375990">
        <ele>44.863</ele>
        <time>1970-01-01T03:20:05Z</time>
      </trkpt>
      <trkpt lat="40.343126" lon="0.376035">
        <ele>44.578</ele>
        <time>1970-01-01T03:20:06Z</time>
      </trkpt>
      <trkpt lat="40.343084" lon="0.376080">
        <ele>44.233</ele>
        <time>1970-01-01T03:20:07Z</time>
      </trkpt>
      <trkpt lat="40.342939" lon="0.376234">
        <ele>42.726</ele>
        <time>1970-01-01T03:20:08Z</time>
      </trkpt>
      <trkpt lat="40.342876" lon="0.376299">
        <ele>42.108</ele>
        <time>1970-01-01T03:20:09Z</time>
      </trkpt>
      <trkpt lat="40.342750" lon="0.376428">
        <ele>40.894</ele>
        <time>1970-01-01T03:20:10Z</time>
      </trkpt>
      <trkpt lat="40.342667" lon="0.376512">
        <ele>40.211</ele>
        <time>1970-01-01T03:20:11Z</time>
      </trkpt>
      <trkpt lat="40.342587" lon="0.376596">
        <ele>39.692</ele>
        <time>1970-01-01T03:20:12Z</time>
      </trkpt>
      <trkpt lat="40.342506" lon="0.376674">
        <ele>39.095</ele>
        <time>1970-01-01T03:20:13Z</time>
      </trkpt>
      <trkpt lat="40.342467" lon="0.376714">
        <ele>38.685</ele>
        <time>1970-01-01T03:20:14Z</time>
      </trkpt>
      <trkpt lat="40.342427" lon="0.376753">
        <ele>38.281</ele>
        <time>1970-01-01T03:20:15Z</time>
      </trkpt>
      <trkpt lat="40.342349" lon="0.376835">
        <ele>37.495</ele>
        <time>1970-01-01T03:20:16Z</time>
      </trkpt>
      <trkpt lat="40.342216" lon="0.376973">
        <ele>35.856</ele>
        <time>1970-01-01T03:20:17Z</time>
      </trkpt>
      <trkpt lat="40.342162" lon="0.377029">
        <ele>35.176</ele>
        <time>1970-01-01T03:20:18Z</time>
      </trkpt>
      <trkpt lat="40.342053" lon="0.377141">
        <ele>33.990</ele>
        <time>1970-01-01T03:20:19Z</time>
      </trkpt>
      <trkpt lat="40.341945" lon="0.377254">
        <ele>32.919</ele>
        <time>1970-01-01T03:20:20Z</time>
      </trkpt>
      <trkpt lat="40.341860" lon="0.377340">
        <ele>32.108</ele>
        <time>1970-01-01T03:20:21Z</time>
      </trkpt>
      <trkpt lat="40.341773" lon="0.377427">
        <ele>31.594</ele>
        <time>1970-01-01T03:20:22Z</time>
      </trkpt>
      <trkpt lat="40.341684" lon="0.377513">
        <ele>31.181</ele>
        <time>1970-01-01T03:20:23Z</time>
      </trkpt>
      <trkpt lat="40.341617" lon="0.377580">
        <ele>30.952</ele>
        <time>1970-01-01T03:20:24Z</time>
      </trkpt>
      <trkpt lat="40.341550" lon="0.377646">
        <ele>30.875</ele>
        <time>1970-01-01T03:20:25Z</time>
      </trkpt>
      <trkpt lat="40.341415" lon="0.377778">
        <ele>31.015</ele>
        <time>1970-01-01T03:20:26Z</time>
      </trkpt>
      <trkpt lat="40.341327" lon="0.377872">
        <ele>30.571</ele>
        <time>1970-01-01T03:20:27Z</time>
      </trkpt>
      <trkpt lat="40.341239" lon="0.377966">
        <ele>30.175</ele>
        <time>1970-01-01T03:20:28Z</time>
      </trkpt>
      <trkpt lat="40.341150" lon="0.378057">
        <ele>30.046</ele>
        <time>1970-01-01T03:20:29Z</time>
      </trkpt>
      <trkpt lat="40.341061" lon="0.378145">
        <ele>29.114</ele>
        <time>1970-01-01T03:20:30Z</time>
      </trkpt>
      <trkpt lat="40.340972" lon="0.378232">
        <ele>28.054</ele>
        <time>1970-01-01T03:20:31Z</time>
      </trkpt>
      <trkpt lat="40.340885" lon="0.378319">
        <ele>27.209</ele>
        <time>1970-01-01T03:20:32Z</time>
      </trkpt>
      <trkpt lat="40.340798" lon="0.378406">
        <ele>26.508</ele>
        <time>1970-01-01T03:20:33Z</time>
      </trkpt>
      <trkpt lat="40.340714" lon="0.378494">
        <ele>25.898</ele>
        <time>1970-01-01T03:20:34Z</time>
      </trkpt>
      <trkpt lat="40.340631" lon="0.378581">
        <ele>25.335</ele>
        <time>1970-01-01T03:20:35Z</time>
      </trkpt>
      <trkpt lat="40.340549" lon="0.378667">
        <ele>25.016</ele>
        <time>1970-01-01T03:20:36Z</time>
      </trkpt>
      <trkpt lat="40.340511" lon="0.378707">
        <ele>24.899</ele>
        <time>1970-01-01T03:20:37Z</time>
      </trkpt>
      <trkpt lat="40.340473" lon="0.378746">
        <ele>24.649</ele>
        <time>1970-01-01T03:20:38Z</time>
      </trkpt>
      <trkpt lat="40.340397" lon="0.378824">
        <ele>24.045</ele>
        <time>1970-01-01T03:20:39Z</time>
      </trkpt>
      <trkpt lat="40.340328" lon="0.378894">
        <ele>23.329</ele>
        <time>1970-01-01T03:20:40Z</time>
      </trkpt>
      <trkpt lat="40.340265" lon="0.378957">
        <ele>22.750</ele>
        <time>1970-01-01T03:20:41Z</time>
      </trkpt>
      <trkpt lat="40.340210" lon="0.379015">
        <ele>22.184</ele>
        <time>1970-01-01T03:20:42Z</time>
      </trkpt>
      <trkpt lat="40.340164" lon="0.379062">
        <ele>21.607</ele>
        <time>1970-01-01T03:20:43Z</time>
      </trkpt>
      <trkpt lat="40.340127" lon="0.379092">
        <ele>21.217</ele>
        <time>1970-01-01T03:20:44Z</time>
      </trkpt>
      <trkpt lat="40.340073" lon="0.379129">
        <ele>20.708</ele>
        <time>1970-01-01T03:20:45Z</time>
      </trkpt>
      <trkpt lat="40.340073" lon="0.379129">
        <ele>20.725</ele>
        <time>1970-01-01T03:20:46Z</time>
      </trkpt>
      <trkpt lat="40.340045" lon="0.379135">
        <ele>20.432</ele>
        <time>1970-01-01T03:20:47Z</time>
      </trkpt>
      <trkpt lat="40.340019" lon="0.379118">
        <ele>20.333</ele>
        <time>1970-01-01T03:20:48Z</time>
      </trkpt>
      <trkpt lat="40.339976" lon="0.379040">
        <ele>20.416</ele>
        <time>1970-01-01T03:20:49Z</time>
      </trkpt>
      <trkpt lat="40.339953" lon="0.378990">
        <ele>20.566</ele>
        <time>1970-01-01T03:20:50Z</time>
      </trkpt>
      <trkpt lat="40.339929" lon="0.378940">
        <ele>20.682</ele>
        <time>1970-01-01T03:20:51Z</time>
      </trkpt>
      <trkpt lat="40.339902" lon="0.378886">
        <ele>20.756</ele>
        <time>1970-01-01T03:20:52Z</time>
      </trkpt>
      <trkpt lat="40.339879" lon="0.378842">
        <ele>20.757</ele>
        <time>1970-01-01T03:20:53Z</time>
      </trkpt>
      <trkpt lat="40.339856" lon="0.378799">
        <ele>20.884</ele>
        <time>1970-01-01T03:20:54Z</time>
      </trkpt>
      <trkpt lat="40.339809" lon="0.378712">
        <ele>20.907</ele>
        <time>1970-01-01T03:20:55Z</time>
      </trkpt>
      <trkpt lat="40.339776" lon="0.378653">
        <ele>21.017</ele>
        <time>1970-01-01T03:20:56Z</time>
      </trkpt>
      <trkpt lat="40.339759" lon="0.378623">
        <ele>21.108</ele>
        <time>1970-01-01T03:20:57Z</time>
      </trkpt>
      <trkpt lat="40.339742" lon="0.378593">
        <ele>21.115</ele>
        <time>1970-01-01T03:20:58Z</time>
      </trkpt>
      <trkpt lat="40.339705" lon="0.378532">
        <ele>21.212</ele>
        <time>1970-01-01T03:20:59Z</time>
      </trkpt>
      <trkpt lat="40.339628" lon="0.378403">
        <ele>21.253</ele>
        <time>1970-01-01T03:21:00Z</time>
      </trkpt>
      <trkpt lat="40.339594" lon="0.378333">
        <ele>21.176</ele>
        <time>1970-01-01T03:21:01Z</time>
      </trkpt>
      <trkpt lat="40.339559" lon="0.378260">
        <ele>20.716</ele>
        <time>1970-01-01T03:21:02Z</time>
      </trkpt>
      <trkpt lat="40.339519" lon="0.378187">
        <ele>20.422</ele>
        <time>1970-01-01T03:21:03Z</time>
      </trkpt>
      <trkpt lat="40.339477" lon="0.378113">
        <ele>20.176</ele>
        <time>1970-01-01T03:21:04Z</time>
      </trkpt>
      <trkpt lat="40.339432" lon="0.378042">
        <ele>20.077</ele>
        <time>1970-01-01T03:21:05Z</time>
      </trkpt>
      <trkpt lat="40.339385" lon="0.377970">
        <ele>20.177</ele>
        <time>1970-01-01T03:21:06Z</time>
      </trkpt>
      <trkpt lat="40.339334" lon="0.377902">
        <ele>20.261</ele>
        <time>1970-01-01T03:21:07Z</time>
      </trkpt>
      <trkpt lat="40.339306" lon="0.377868">
        <ele>20.327</ele>
        <time>1970-01-01T03:21:08Z</time>
      </trkpt>
      <trkpt lat="40.339278" lon="0.377835">
        <ele>20.508</ele>
        <time>1970-01-01T03:21:09Z</time>
      </trkpt>
      <trkpt lat="40.339153" lon="0.377717">
        <ele>21.264</ele>
        <time>1970-01-01T03:21:10Z</time>
      </trkpt>
      <trkpt lat="40.339087" lon="0.377663">
        <ele>21.451</ele>
        <time>1970-01-01T03:21:11Z</time>
      </trkpt>
      <trkpt lat="40.339035" lon="0.377629">
        <ele>21.522</ele>
        <time>1970-01-01T03:21:12Z</time>
      </trkpt>
      <trkpt lat="40.338983" lon="0.377595">
        <ele>21.795</ele>
        <time>1970-01-01T03:21:13Z</time>
      </trkpt>
      <trkpt lat="40.338879" lon="0.377528">
        <ele>21.975</ele>
        <time>1970-01-01T03:21:14Z</time>
      </trkpt>
      <trkpt lat="40.338809" lon="0.377483">
        <ele>21.771</ele>
        <time>1970-01-01T03:21:15Z</time>
      </trkpt>
      <trkpt lat="40.338777" lon="0.377457">
        <ele>21.615</ele>
        <time>1970-01-01T03:21:16Z</time>
      </trkpt>
      <trkpt lat="40.338745" lon="0.377432">
        <ele>21.546</ele>
        <time>1970-01-01T03:21:17Z</time>
      </trkpt>
      <trkpt lat="40.338683" lon="0.377373">
        <ele>21.325</ele>
        <time>1970-01-01T03:21:18Z</time>
      </trkpt>
      <trkpt lat="40.338572" lon="0.377228">
        <ele>20.726</ele>
        <time>1970-01-01T03:21:19Z</time>
      </trkpt>
      <trkpt lat="40.338521" lon="0.377149">
        <ele>20.208</ele>
        <time>1970-01-01T03:21:20Z</time>
      </trkpt>
      <trkpt lat="40.338472" lon="0.377068">
        <ele>19.708</ele>
        <time>1970-01-01T03:21:21Z</time>
      </trkpt>
      <trkpt lat="40.338422" lon="0.376986">
        <ele>19.489</ele>
        <time>1970-01-01T03:21:22Z</time>
      </trkpt>
      <trkpt lat="40.338389" lon="0.376921">
        <ele>19.186</ele>
        <time>1970-01-01T03:21:23Z</time>
      </trkpt>
      <trkpt lat="40.338355" lon="0.376857">
        <ele>18.877</ele>
        <time>1970-01-01T03:21:24Z</time>
      </trkpt>
      <trkpt lat="40.338288" lon="0.376728">
        <ele>18.260</ele>
        <time>1970-01-01T03:21:25Z</time>
      </trkpt>
      <trkpt lat="40.338247" lon="0.376642">
        <ele>18.160</ele>
        <time>1970-01-01T03:21:26Z</time>
      </trkpt>
      <trkpt lat="40.338207" lon="0.376558">
        <ele>18.616</ele>
        <time>1970-01-01T03:21:27Z</time>
      </trkpt>
      <trkpt lat="40.338167" lon="0.376475">
        <ele>19.080</ele>
        <time>1970-01-01T03:21:28Z</time>
      </trkpt>
      <trkpt lat="40.338125" lon="0.376390">
        <ele>19.261</ele>
        <time>1970-01-01T03:21:29Z</time>
      </trkpt>
      <trkpt lat="40.338082" lon="0.376305">
        <ele>19.454</ele>
        <time>1970-01-01T03:21:30Z</time>
      </trkpt>
      <trkpt lat="40.338039" lon="0.376219">
        <ele>19.656</ele>
        <time>1970-01-01T03:21:31Z</time>
      </trkpt>
      <trkpt lat="40.337997" lon="0.376134">
        <ele>19.711</ele>
        <time>1970-01-01T03:21:32Z</time>
      </trkpt>
      <trkpt lat="40.337954" lon="0.376048">
        <ele>19.608</ele>
        <time>1970-01-01T03:21:33Z</time>
      </trkpt>
      <trkpt lat="40.337912" lon="0.375963">
        <ele>19.562</ele>
        <time>1970-01-01T03:21:34Z</time>
      </trkpt>
      <trkpt lat="40.337869" lon="0.375881">
        <ele>19.329</ele>
        <time>1970-01-01T03:21:35Z</time>
      </trkpt>
      <trkpt lat="40.337846" lon="0.375840">
        <ele>19.250</ele>
        <time>1970-01-01T03:21:36Z</time>
      </trkpt>
      <trkpt lat="40.337823" lon="0.375799">
        <ele>19.323</ele>
        <time>1970-01-01T03:21:37Z</time>
      </trkpt>
      <trkpt lat="40.337752" lon="0.375676">
        <ele>19.683</ele>
        <time>1970-01-01T03:21:38Z</time>
      </trkpt>
      <trkpt lat="40.337727" lon="0.375635">
        <ele>19.819</ele>
        <time>1970-01-01T03:21:39Z</time>
      </trkpt>
      <trkpt lat="40.337631" lon="0.375502">
        <ele>20.743</ele>
        <time>1970-01-01T03:21:40Z</time>
      </trkpt>
      <trkpt lat="40.337584" lon="0.375453">
        <ele>21.144</ele>
        <time>1970-01-01T03:21:41Z</time>
      </trkpt>
      <trkpt lat="40.337491" lon="0.375354">
        <ele>21.781</ele>
        <time>1970-01-01T03:21:42Z</time>
      </trkpt>
      <trkpt lat="40.337441" lon="0.375318">
        <ele>21.861</ele>
        <time>1970-01-01T03:21:43Z</time>
      </trkpt>
      <trkpt lat="40.337390" lon="0.375283">
        <ele>22.017</ele>
        <time>1970-01-01T03:21:44Z</time>
      </trkpt>
      <trkpt lat="40.337288" lon="0.375213">
        <ele>22.208</ele>
        <time>1970-01-01T03:21:45Z</time>
      </trkpt>
      <trkpt lat="40.337222" lon="0.375173">
        <ele>22.445</ele>
        <time>1970-01-01T03:21:46Z</time>
      </trkpt>
      <trkpt lat="40.337159" lon="0.375134">
        <ele>22.442</ele>
        <time>1970-01-01T03:21:47Z</time>
      </trkpt>
      <trkpt lat="40.337097" lon="0.375097">
        <ele>22.593</ele>
        <time>1970-01-01T03:21:48Z</time>
      </trkpt>
      <trkpt lat="40.337034" lon="0.375060">
        <ele>22.696</ele>
        <time>1970-01-01T03:21:49Z</time>
      </trkpt>
      <trkpt lat="40.336973" lon="0.375024">
        <ele>22.826</ele>
        <time>1970-01-01T03:21:50Z</time>
      </trkpt>
      <trkpt lat="40.336916" lon="0.374989">
        <ele>22.912</ele>
        <time>1970-01-01T03:21:51Z</time>
      </trkpt>
      <trkpt lat="40.336860" lon="0.374954">
        <ele>22.896</ele>
        <time>1970-01-01T03:21:52Z</time>
      </trkpt>
      <trkpt lat="40.336806" lon="0.374920">
        <ele>22.847</ele>
        <time>1970-01-01T03:21:53Z</time>
      </trkpt>
      <trkpt lat="40.336753" lon="0.374885">
        <ele>22.956</ele>
        <time>1970-01-01T03:21:54Z</time>
      </trkpt>
      <trkpt lat="40.336705" lon="0.374846">
        <ele>23.159</ele>
        <time>1970-01-01T03:21:55Z</time>
      </trkpt>
      <trkpt lat="40.336660" lon="0.374805">
        <ele>23.414</ele>
        <time>1970-01-01T03:21:56Z</time>
      </trkpt>
      <trkpt lat="40.336630" lon="0.374770">
        <ele>23.408</ele>
        <time>1970-01-01T03:21:57Z</time>
      </trkpt>
      <trkpt lat="40.336599" lon="0.374736">
        <ele>23.452</ele>
        <time>1970-01-01T03:21:58Z</time>
      </trkpt>
      <trkpt lat="40.336537" lon="0.374668">
        <ele>23.479</ele>
        <time>1970-01-01T03:21:59Z</time>
      </trkpt>
      <trkpt lat="40.336498" lon="0.374622">
        <ele>23.430</ele>
        <time>1970-01-01T03:22:00Z</time>
      </trkpt>
      <trkpt lat="40.336462" lon="0.374575">
        <ele>23.473</ele>
        <time>1970-01-01T03:22:01Z</time>
      </trkpt>
      <trkpt lat="40.336423" lon="0.374529">
        <ele>23.653</ele>
        <time>1970-01-01T03:22:02Z</time>
      </trkpt>
      <trkpt lat="40.336395" lon="0.374495">
        <ele>23.719</ele>
        <time>1970-01-01T03:22:03Z</time>
      </trkpt>
      <trkpt lat="40.336366" lon="0.374461">
        <ele>23.673</ele>
        <time>1970-01-01T03:22:04Z</time>
      </trkpt>
      <trkpt lat="40.336308" lon="0.374394">
        <ele>23.114</ele>
        <time>1970-01-01T03:22:05Z</time>
      </trkpt>
      <trkpt lat="40.336271" lon="0.374347">
        <ele>22.827</ele>
        <time>1970-01-01T03:22:06Z</time>
      </trkpt>
      <trkpt lat="40.336234" lon="0.374298">
        <ele>22.668</ele>
        <time>1970-01-01T03:22:07Z</time>
      </trkpt>
      <trkpt lat="40.336194" lon="0.374251">
        <ele>22.414</ele>
        <time>1970-01-01T03:22:08Z</time>
      </trkpt>
      <trkpt lat="40.336157" lon="0.374205">
        <ele>22.208</ele>
        <time>1970-01-01T03:22:09Z</time>
      </trkpt>
      <trkpt lat="40.336121" lon="0.374156">
        <ele>22.189</ele>
        <time>1970-01-01T03:22:10Z</time>
      </trkpt>
      <trkpt lat="40.336083" lon="0.374105">
        <ele>22.166</ele>
        <time>1970-01-01T03:22:11Z</time>
      </trkpt>
      <trkpt lat="40.336048" lon="0.374054">
        <ele>22.347</ele>
        <time>1970-01-01T03:22:12Z</time>
      </trkpt>
      <trkpt lat="40.336015" lon="0.374002">
        <ele>22.550</ele>
        <time>1970-01-01T03:22:13Z</time>
      </trkpt>
      <trkpt lat="40.335983" lon="0.373953">
        <ele>22.730</ele>
        <time>1970-01-01T03:22:14Z</time>
      </trkpt>
      <trkpt lat="40.335953" lon="0.373904">
        <ele>22.936</ele>
        <time>1970-01-01T03:22:15Z</time>
      </trkpt>
      <trkpt lat="40.335925" lon="0.373860">
        <ele>23.290</ele>
        <time>1970-01-01T03:22:16Z</time>
      </trkpt>
      <trkpt lat="40.335910" lon="0.373841">
        <ele>23.311</ele>
        <time>1970-01-01T03:22:17Z</time>
      </trkpt>
      <trkpt lat="40.335895" lon="0.373822">
        <ele>23.562</ele>
        <time>1970-01-01T03:22:18Z</time>
      </trkpt>
      <trkpt lat="40.335860" lon="0.373794">
        <ele>23.783</ele>
        <time>1970-01-01T03:22:19Z</time>
      </trkpt>
      <trkpt lat="40.335771" lon="0.373801">
        <ele>23.511</ele>
        <time>1970-01-01T03:22:20Z</time>
      </trkpt>
      <trkpt lat="40.335721" lon="0.373816">
        <ele>23.208</ele>
        <time>1970-01-01T03:22:21Z</time>
      </trkpt>
      <trkpt lat="40.335668" lon="0.373829">
        <ele>23.073</ele>
        <time>1970-01-01T03:22:22Z</time>
      </trkpt>
      <trkpt lat="40.335614" lon="0.373840">
        <ele>22.770</ele>
        <time>1970-01-01T03:22:23Z</time>
      </trkpt>
      <trkpt lat="40.335559" lon="0.373854">
        <ele>22.481</ele>
        <time>1970-01-01T03:22:24Z</time>
      </trkpt>
      <trkpt lat="40.335506" lon="0.373866">
        <ele>22.174</ele>
        <time>1970-01-01T03:22:25Z</time>
      </trkpt>
      <trkpt lat="40.335452" lon="0.373877">
        <ele>21.714</ele>
        <time>1970-01-01T03:22:26Z</time>
      </trkpt>
      <trkpt lat="40.335397" lon="0.373884">
        <ele>21.520</ele>
        <time>1970-01-01T03:22:27Z</time>
      </trkpt>
      <trkpt lat="40.335341" lon="0.373890">
        <ele>21.224</ele>
        <time>1970-01-01T03:22:28Z</time>
      </trkpt>
      <trkpt lat="40.335282" lon="0.373895">
        <ele>21.045</ele>
        <time>1970-01-01T03:22:29Z</time>
      </trkpt>
      <trkpt lat="40.335251" lon="0.373898">
        <ele>21.095</ele>
        <time>1970-01-01T03:22:30Z</time>
      </trkpt>
      <trkpt lat="40.335219" lon="0.373901">
        <ele>20.949</ele>
        <time>1970-01-01T03:22:31Z</time>
      </trkpt>
      <trkpt lat="40.335105" lon="0.373945">
        <ele>20.723</ele>
        <time>1970-01-01T03:22:32Z</time>
      </trkpt>
      <trkpt lat="40.335059" lon="0.373980">
        <ele>20.408</ele>
        <time>1970-01-01T03:22:33Z</time>
      </trkpt>
      <trkpt lat="40.335018" lon="0.374016">
        <ele>20.166</ele>
        <time>1970-01-01T03:22:34Z</time>
      </trkpt>
      <trkpt lat="40.334976" lon="0.374048">
        <ele>19.813</ele>
        <time>1970-01-01T03:22:35Z</time>
      </trkpt>
      <trkpt lat="40.334954" lon="0.374060">
        <ele>19.654</ele>
        <time>1970-01-01T03:22:36Z</time>
      </trkpt>
      <trkpt lat="40.334932" lon="0.374072">
        <ele>19.467</ele>
        <time>1970-01-01T03:22:37Z</time>
      </trkpt>
      <trkpt lat="40.334884" lon="0.374085">
        <ele>19.257</ele>
        <time>1970-01-01T03:22:38Z</time>
      </trkpt>
      <trkpt lat="40.334788" lon="0.374079">
        <ele>18.943</ele>
        <time>1970-01-01T03:22:39Z</time>
      </trkpt>
      <trkpt lat="40.334744" lon="0.374056">
        <ele>18.987</ele>
        <time>1970-01-01T03:22:40Z</time>
      </trkpt>
      <trkpt lat="40.334700" lon="0.374033">
        <ele>18.948</ele>
        <time>1970-01-01T03:22:41Z</time>
      </trkpt>
      <trkpt lat="40.334658" lon="0.374002">
        <ele>19.026</ele>
        <time>1970-01-01T03:22:42Z</time>
      </trkpt>
      <trkpt lat="40.334619" lon="0.373968">
        <ele>19.147</ele>
        <time>1970-01-01T03:22:43Z</time>
      </trkpt>
      <trkpt lat="40.334601" lon="0.373949">
        <ele>19.111</ele>
        <time>1970-01-01T03:22:44Z</time>
      </trkpt>
      <trkpt lat="40.334582" lon="0.373931">
        <ele>19.208</ele>
        <time>1970-01-01T03:22:45Z</time>
      </trkpt>
      <trkpt lat="40.334543" lon="0.373895">
        <ele>19.319</ele>
        <time>1970-01-01T03:22:46Z</time>
      </trkpt>
      <trkpt lat="40.334498" lon="0.373855">
        <ele>19.386</ele>
        <time>1970-01-01T03:22:47Z</time>
      </trkpt>
      <trkpt lat="40.334454" lon="0.373826">
        <ele>19.357</ele>
        <time>1970-01-01T03:22:48Z</time>
      </trkpt>
      <trkpt lat="40.334409" lon="0.373814">
        <ele>19.170</ele>
        <time>1970-01-01T03:22:49Z</time>
      </trkpt>
      <trkpt lat="40.334312" lon="0.373834">
        <ele>18.710</ele>
        <time>1970-01-01T03:22:50Z</time>
      </trkpt>
      <trkpt lat="40.334265" lon="0.373863">
        <ele>18.476</ele>
        <time>1970-01-01T03:22:51Z</time>
      </trkpt>
      <trkpt lat="40.334241" lon="0.373881">
        <ele>18.390</ele>
        <time>1970-01-01T03:22:52Z</time>
      </trkpt>
      <trkpt lat="40.334217" lon="0.373899">
        <ele>18.191</ele>
        <time>1970-01-01T03:22:53Z</time>
      </trkpt>
      <trkpt lat="40.334139" lon="0.374009">
        <ele>17.185</ele>
        <time>1970-01-01T03:22:54Z</time>
      </trkpt>
      <trkpt lat="40.334102" lon="0.374070">
        <ele>16.689</ele>
        <time>1970-01-01T03:22:55Z</time>
      </trkpt>
      <trkpt lat="40.334061" lon="0.374119">
        <ele>16.317</ele>
        <time>1970-01-01T03:22:56Z</time>
      </trkpt>
      <trkpt lat="40.334011" lon="0.374142">
        <ele>16.108</ele>
        <time>1970-01-01T03:22:57Z</time>
      </trkpt>
      <trkpt lat="40.333963" lon="0.374137">
        <ele>16.165</ele>
        <time>1970-01-01T03:22:58Z</time>
      </trkpt>
      <trkpt lat="40.333926" lon="0.374102">
        <ele>16.322</ele>
        <time>1970-01-01T03:22:59Z</time>
      </trkpt>
      <trkpt lat="40.333889" lon="0.374049">
        <ele>16.423</ele>
        <time>1970-01-01T03:23:00Z</time>
      </trkpt>
      <trkpt lat="40.333856" lon="0.373984">
        <ele>16.376</ele>
        <time>1970-01-01T03:23:01Z</time>
      </trkpt>
      <trkpt lat="40.333824" lon="0.373943">
        <ele>16.146</ele>
        <time>1970-01-01T03:23:02Z</time>
      </trkpt>
      <trkpt lat="40.333791" lon="0.373903">
        <ele>15.932</ele>
        <time>1970-01-01T03:23:03Z</time>
      </trkpt>
      <trkpt lat="40.333726" lon="0.373822">
        <ele>15.656</ele>
        <time>1970-01-01T03:23:04Z</time>
      </trkpt>
      <trkpt lat="40.333664" lon="0.373793">
        <ele>15.227</ele>
        <time>1970-01-01T03:23:05Z</time>
      </trkpt>
      <trkpt lat="40.333603" lon="0.373787">
        <ele>14.681</ele>
        <time>1970-01-01T03:23:06Z</time>
      </trkpt>
      <trkpt lat="40.333546" lon="0.373798">
        <ele>14.061</ele>
        <time>1970-01-01T03:23:07Z</time>
      </trkpt>
      <trkpt lat="40.333492" lon="0.373816">
        <ele>13.217</ele>
        <time>1970-01-01T03:23:08Z</time>
      </trkpt>
      <trkpt lat="40.333439" lon="0.373837">
        <ele>12.508</ele>
        <time>1970-01-01T03:23:09Z</time>
      </trkpt>
      <trkpt lat="40.333384" lon="0.373859">
        <ele>11.845</ele>
        <time>1970-01-01T03:23:10Z</time>
      </trkpt>
      <trkpt lat="40.333328" lon="0.373877">
        <ele>11.142</ele>
        <time>1970-01-01T03:23:11Z</time>
      </trkpt>
      <trkpt lat="40.333271" lon="0.373885">
        <ele>10.813</ele>
        <time>1970-01-01T03:23:12Z</time>
      </trkpt>
      <trkpt lat="40.333227" lon="0.373874">
        <ele>10.736</ele>
        <time>1970-01-01T03:23:13Z</time>
      </trkpt>
      <trkpt lat="40.333182" lon="0.373864">
        <ele>10.616</ele>
        <time>1970-01-01T03:23:14Z</time>
      </trkpt>
      <trkpt lat="40.333093" lon="0.373844">
        <ele>10.382</ele>
        <time>1970-01-01T03:23:15Z</time>
      </trkpt>
      <trkpt lat="40.333037" lon="0.373821">
        <ele>10.216</ele>
        <time>1970-01-01T03:23:16Z</time>
      </trkpt>
      <trkpt lat="40.332981" lon="0.373797">
        <ele>10.017</ele>
        <time>1970-01-01T03:23:17Z</time>
      </trkpt>
      <trkpt lat="40.332924" lon="0.373771">
        <ele>9.827</ele>
        <time>1970-01-01T03:23:18Z</time>
      </trkpt>
      <trkpt lat="40.332864" lon="0.373751">
        <ele>9.568</ele>
        <time>1970-01-01T03:23:19Z</time>
      </trkpt>
      <trkpt lat="40.332805" lon="0.373739">
        <ele>9.214</ele>
        <time>1970-01-01T03:23:20Z</time>
      </trkpt>
      <trkpt lat="40.332745" lon="0.373730">
        <ele>9.008</ele>
        <time>1970-01-01T03:23:21Z</time>
      </trkpt>
      <trkpt lat="40.332684" lon="0.373720">
        <ele>9.069</ele>
        <time>1970-01-01T03:23:22Z</time>
      </trkpt>
      <trkpt lat="40.332623" lon="0.373703">
        <ele>9.036</ele>
        <time>1970-01-01T03:23:23Z</time>
      </trkpt>
      <trkpt lat="40.332565" lon="0.373681">
        <ele>9.077</ele>
        <time>1970-01-01T03:23:24Z</time>
      </trkpt>
      <trkpt lat="40.332507" lon="0.373659">
        <ele>9.030</ele>
        <time>1970-01-01T03:23:25Z</time>
      </trkpt>
      <trkpt lat="40.332449" lon="0.373639">
        <ele>9.080</ele>
        <time>1970-01-01T03:23:26Z</time>
      </trkpt>
      <trkpt lat="40.332396" lon="0.373615">
        <ele>9.056</ele>
        <time>1970-01-01T03:23:27Z</time>
      </trkpt>
      <trkpt lat="40.332342" lon="0.373586">
        <ele>9.180</ele>
        <time>1970-01-01T03:23:28Z</time>
      </trkpt>
      <trkpt lat="40.332291" lon="0.373556">
        <ele>9.111</ele>
        <time>1970-01-01T03:23:29Z</time>
      </trkpt>
      <trkpt lat="40.332239" lon="0.373529">
        <ele>9.355</ele>
        <time>1970-01-01T03:23:30Z</time>
      </trkpt>
      <trkpt lat="40.332186" lon="0.373504">
        <ele>9.207</ele>
        <time>1970-01-01T03:23:31Z</time>
      </trkpt>
      <trkpt lat="40.332134" lon="0.373479">
        <ele>9.017</ele>
        <time>1970-01-01T03:23:32Z</time>
      </trkpt>
      <trkpt lat="40.332082" lon="0.373456">
        <ele>8.808</ele>
        <time>1970-01-01T03:23:33Z</time>
      </trkpt>
      <trkpt lat="40.332030" lon="0.373435">
        <ele>8.782</ele>
        <time>1970-01-01T03:23:34Z</time>
      </trkpt>
      <trkpt lat="40.331978" lon="0.373416">
        <ele>8.629</ele>
        <time>1970-01-01T03:23:35Z</time>
      </trkpt>
      <trkpt lat="40.331927" lon="0.373398">
        <ele>8.470</ele>
        <time>1970-01-01T03:23:36Z</time>
      </trkpt>
      <trkpt lat="40.331904" lon="0.373386">
        <ele>8.463</ele>
        <time>1970-01-01T03:23:37Z</time>
      </trkpt>
      <trkpt lat="40.331880" lon="0.373375">
        <ele>8.343</ele>
        <time>1970-01-01T03:23:38Z</time>
      </trkpt>
      <trkpt lat="40.331838" lon="0.373343">
        <ele>8.249</ele>
        <time>1970-01-01T03:23:39Z</time>
      </trkpt>
      <trkpt lat="40.331804" lon="0.373302">
        <ele>8.393</ele>
        <time>1970-01-01T03:23:40Z</time>
      </trkpt>
      <trkpt lat="40.331776" lon="0.373256">
        <ele>8.584</ele>
        <time>1970-01-01T03:23:41Z</time>
      </trkpt>
      <trkpt lat="40.331745" lon="0.373151">
        <ele>9.313</ele>
        <time>1970-01-01T03:23:42Z</time>
      </trkpt>
      <trkpt lat="40.331734" lon="0.373096">
        <ele>9.843</ele>
        <time>1970-01-01T03:23:43Z</time>
      </trkpt>
      <trkpt lat="40.331719" lon="0.373043">
        <ele>10.207</ele>
        <time>1970-01-01T03:23:44Z</time>
      </trkpt>
      <trkpt lat="40.331703" lon="0.372990">
        <ele>10.408</ele>
        <time>1970-01-01T03:23:45Z</time>
      </trkpt>
      <trkpt lat="40.331694" lon="0.372962">
        <ele>10.468</ele>
        <time>1970-01-01T03:23:46Z</time>
      </trkpt>
      <trkpt lat="40.331684" lon="0.372935">
        <ele>10.525</ele>
        <time>1970-01-01T03:23:47Z</time>
      </trkpt>
      <trkpt lat="40.331662" lon="0.372874">
        <ele>10.636</ele>
        <time>1970-01-01T03:23:48Z</time>
      </trkpt>
      <trkpt lat="40.331612" lon="0.372736">
        <ele>10.769</ele>
        <time>1970-01-01T03:23:49Z</time>
      </trkpt>
      <trkpt lat="40.331585" lon="0.372653">
        <ele>10.729</ele>
        <time>1970-01-01T03:23:50Z</time>
      </trkpt>
      <trkpt lat="40.331557" lon="0.372569">
        <ele>10.735</ele>
        <time>1970-01-01T03:23:51Z</time>
      </trkpt>
      <trkpt lat="40.331524" lon="0.372490">
        <ele>10.589</ele>
        <time>1970-01-01T03:23:52Z</time>
      </trkpt>
      <trkpt lat="40.331483" lon="0.372422">
        <ele>10.120</ele>
        <time>1970-01-01T03:23:53Z</time>
      </trkpt>
      <trkpt lat="40.331434" lon="0.372372">
        <ele>9.858</ele>
        <time>1970-01-01T03:23:54Z</time>
      </trkpt>
      <trkpt lat="40.331382" lon="0.372333">
        <ele>9.652</ele>
        <time>1970-01-01T03:23:55Z</time>
      </trkpt>
      <trkpt lat="40.331329" lon="0.372301">
        <ele>9.717</ele>
        <time>1970-01-01T03:23:56Z</time>
      </trkpt>
      <trkpt lat="40.331278" lon="0.372276">
        <ele>9.708</ele>
        <time>1970-01-01T03:23:57Z</time>
      </trkpt>
      <trkpt lat="40.331232" lon="0.372261">
        <ele>9.812</ele>
        <time>1970-01-01T03:23:58Z</time>
      </trkpt>
      <trkpt lat="40.331194" lon="0.372257">
        <ele>9.819</ele>
        <time>1970-01-01T03:23:59Z</time>
      </trkpt>
      <trkpt lat="40.331162" lon="0.372264">
        <ele>9.780</ele>
        <time>1970-01-01T03:24:00Z</time>
      </trkpt>
      <trkpt lat="40.331130" lon="0.372271">
        <ele>9.713</ele>
        <time>1970-01-01T03:24:01Z</time>
      </trkpt>
      <trkpt lat="40.331104" lon="0.372268">
        <ele>9.753</ele>
        <time>1970-01-01T03:24:02Z</time>
      </trkpt>
      <trkpt lat="40.331077" lon="0.372265">
        <ele>9.729</ele>
        <time>1970-01-01T03:24:03Z</time>
      </trkpt>
      <trkpt lat="40.331052" lon="0.372255">
        <ele>9.883</ele>
        <time>1970-01-01T03:24:04Z</time>
      </trkpt>
      <trkpt lat="40.331029" lon="0.372242">
        <ele>9.944</ele>
        <time>1970-01-01T03:24:05Z</time>
      </trkpt>
      <trkpt lat="40.331016" lon="0.372223">
        <ele>10.067</ele>
        <time>1970-01-01T03:24:06Z</time>
      </trkpt>
      <trkpt lat="40.331002" lon="0.372205">
        <ele>10.381</ele>
        <time>1970-01-01T03:24:07Z</time>
      </trkpt>
      <trkpt lat="40.330989" lon="0.372181">
        <ele>10.719</ele>
        <time>1970-01-01T03:24:08Z</time>
      </trkpt>
      <trkpt lat="40.330972" lon="0.372158">
        <ele>11.208</ele>
        <time>1970-01-01T03:24:09Z</time>
      </trkpt>
      <trkpt lat="40.330955" lon="0.372137">
        <ele>11.673</ele>
        <time>1970-01-01T03:24:10Z</time>
      </trkpt>
      <trkpt lat="40.330937" lon="0.372115">
        <ele>12.080</ele>
        <time>1970-01-01T03:24:11Z</time>
      </trkpt>
      <trkpt lat="40.330919" lon="0.372093">
        <ele>12.531</ele>
        <time>1970-01-01T03:24:12Z</time>
      </trkpt>
      <trkpt lat="40.330902" lon="0.372071">
        <ele>13.074</ele>
        <time>1970-01-01T03:24:13Z</time>
      </trkpt>
      <trkpt lat="40.330887" lon="0.372048">
        <ele>13.574</ele>
        <time>1970-01-01T03:24:14Z</time>
      </trkpt>
      <trkpt lat="40.330874" lon="0.372024">
        <ele>14.150</ele>
        <time>1970-01-01T03:24:15Z</time>
      </trkpt>
      <trkpt lat="40.330861" lon="0.372001">
        <ele>14.614</ele>
        <time>1970-01-01T03:24:16Z</time>
      </trkpt>
      <trkpt lat="40.330850" lon="0.371977">
        <ele>15.265</ele>
        <time>1970-01-01T03:24:17Z</time>
      </trkpt>
      <trkpt lat="40.330840" lon="0.371953">
        <ele>15.862</ele>
        <time>1970-01-01T03:24:18Z</time>
      </trkpt>
      <trkpt lat="40.330831" lon="0.371930">
        <ele>16.383</ele>
        <time>1970-01-01T03:24:19Z</time>
      </trkpt>
      <trkpt lat="40.330822" lon="0.371908">
        <ele>16.811</ele>
        <time>1970-01-01T03:24:20Z</time>
      </trkpt>
      <trkpt lat="40.330814" lon="0.371888">
        <ele>17.208</ele>
        <time>1970-01-01T03:24:21Z</time>
      </trkpt>
      <trkpt lat="40.330806" lon="0.371869">
        <ele>17.653</ele>
        <time>1970-01-01T03:24:22Z</time>
      </trkpt>
      <trkpt lat="40.330799" lon="0.371849">
        <ele>18.050</ele>
        <time>1970-01-01T03:24:23Z</time>
      </trkpt>
      <trkpt lat="40.330794" lon="0.371828">
        <ele>18.411</ele>
        <time>1970-01-01T03:24:24Z</time>
      </trkpt>
      <trkpt lat="40.330791" lon="0.371805">
        <ele>18.954</ele>
        <time>1970-01-01T03:24:25Z</time>
      </trkpt>
      <trkpt lat="40.330786" lon="0.371782">
        <ele>19.354</ele>
        <time>1970-01-01T03:24:26Z</time>
      </trkpt>
      <trkpt lat="40.330780" lon="0.371760">
        <ele>19.720</ele>
        <time>1970-01-01T03:24:27Z</time>
      </trkpt>
      <trkpt lat="40.330773" lon="0.371740">
        <ele>20.184</ele>
        <time>1970-01-01T03:24:28Z</time>
      </trkpt>
      <trkpt lat="40.330767" lon="0.371719">
        <ele>20.545</ele>
        <time>1970-01-01T03:24:29Z</time>
      </trkpt>
      <trkpt lat="40.330760" lon="0.371698">
        <ele>20.923</ele>
        <time>1970-01-01T03:24:30Z</time>
      </trkpt>
      <trkpt lat="40.330753" lon="0.371678">
        <ele>21.283</ele>
        <time>1970-01-01T03:24:31Z</time>
      </trkpt>
      <trkpt lat="40.330743" lon="0.371658">
        <ele>21.511</ele>
        <time>1970-01-01T03:24:32Z</time>
      </trkpt>
      <trkpt lat="40.330735" lon="0.371637">
        <ele>21.708</ele>
        <time>1970-01-01T03:24:33Z</time>
      </trkpt>
      <trkpt lat="40.330728" lon="0.371616">
        <ele>22.029</ele>
        <time>1970-01-01T03:24:34Z</time>
      </trkpt>
      <trkpt lat="40.330722" lon="0.371594">
        <ele>22.236</ele>
        <time>1970-01-01T03:24:35Z</time>
      </trkpt>
      <trkpt lat="40.330715" lon="0.371574">
        <ele>22.557</ele>
        <time>1970-01-01T03:24:36Z</time>
      </trkpt>
      <trkpt lat="40.330706" lon="0.371556">
        <ele>22.750</ele>
        <time>1970-01-01T03:24:37Z</time>
      </trkpt>
      <trkpt lat="40.330696" lon="0.371538">
        <ele>22.910</ele>
        <time>1970-01-01T03:24:38Z</time>
      </trkpt>
      <trkpt lat="40.330689" lon="0.371519">
        <ele>23.186</ele>
        <time>1970-01-01T03:24:39Z</time>
      </trkpt>
      <trkpt lat="40.330682" lon="0.371500">
        <ele>23.350</ele>
        <time>1970-01-01T03:24:40Z</time>
      </trkpt>
      <trkpt lat="40.330675" lon="0.371481">
        <ele>23.581</ele>
        <time>1970-01-01T03:24:41Z</time>
      </trkpt>
      <trkpt lat="40.330669" lon="0.371462">
        <ele>23.819</ele>
        <time>1970-01-01T03:24:42Z</time>
      </trkpt>
      <trkpt lat="40.330662" lon="0.371442">
        <ele>24.009</ele>
        <time>1970-01-01T03:24:43Z</time>
      </trkpt>
      <trkpt lat="40.330655" lon="0.371421">
        <ele>24.319</ele>
        <time>1970-01-01T03:24:44Z</time>
      </trkpt>
      <trkpt lat="40.330648" lon="0.371398">
        <ele>24.508</ele>
        <time>1970-01-01T03:24:45Z</time>
      </trkpt>
      <trkpt lat="40.330642" lon="0.371375">
        <ele>24.818</ele>
        <time>1970-01-01T03:24:46Z</time>
      </trkpt>
      <trkpt lat="40.330636" lon="0.371352">
        <ele>25.125</ele>
        <time>1970-01-01T03:24:47Z</time>
      </trkpt>
      <trkpt lat="40.330628" lon="0.371332">
        <ele>25.496</ele>
        <time>1970-01-01T03:24:48Z</time>
      </trkpt>
      <trkpt lat="40.330620" lon="0.371312">
        <ele>25.669</ele>
        <time>1970-01-01T03:24:49Z</time>
      </trkpt>
      <trkpt lat="40.330614" lon="0.371292">
        <ele>25.919</ele>
        <time>1970-01-01T03:24:50Z</time>
      </trkpt>
      <trkpt lat="40.330608" lon="0.371272">
        <ele>26.185</ele>
        <time>1970-01-01T03:24:51Z</time>
      </trkpt>
      <trkpt lat="40.330601" lon="0.371253">
        <ele>26.469</ele>
        <time>1970-01-01T03:24:52Z</time>
      </trkpt>
      <trkpt lat="40.330591" lon="0.371235">
        <ele>26.550</ele>
        <time>1970-01-01T03:24:53Z</time>
      </trkpt>
      <trkpt lat="40.330580" lon="0.371215">
        <ele>26.717</ele>
        <time>1970-01-01T03:24:54Z</time>
      </trkpt>
      <trkpt lat="40.330572" lon="0.371194">
        <ele>27.087</ele>
        <time>1970-01-01T03:24:55Z</time>
      </trkpt>
      <trkpt lat="40.330564" lon="0.371172">
        <ele>27.215</ele>
        <time>1970-01-01T03:24:56Z</time>
      </trkpt>
      <trkpt lat="40.330556" lon="0.371150">
        <ele>27.408</ele>
        <time>1970-01-01T03:24:57Z</time>
      </trkpt>
      <trkpt lat="40.330547" lon="0.371128">
        <ele>27.788</ele>
        <time>1970-01-01T03:24:58Z</time>
      </trkpt>
      <trkpt lat="40.330537" lon="0.371107">
        <ele>27.825</ele>
        <time>1970-01-01T03:24:59Z</time>
      </trkpt>
      <trkpt lat="40.330527" lon="0.371084">
        <ele>28.046</ele>
        <time>1970-01-01T03:25:00Z</time>
      </trkpt>
      <trkpt lat="40.330518" lon="0.371062">
        <ele>28.199</ele>
        <time>1970-01-01T03:25:01Z</time>
      </trkpt>
      <trkpt lat="40.330509" lon="0.371040">
        <ele>28.319</ele>
        <time>1970-01-01T03:25:02Z</time>
      </trkpt>
      <trkpt lat="40.330499" lon="0.371017">
        <ele>28.565</ele>
        <time>1970-01-01T03:25:03Z</time>
      </trkpt>
      <trkpt lat="40.330491" lon="0.370994">
        <ele>28.799</ele>
        <time>1970-01-01T03:25:04Z</time>
      </trkpt>
      <trkpt lat="40.330482" lon="0.370970">
        <ele>28.990</ele>
        <time>1970-01-01T03:25:05Z</time>
      </trkpt>
      <trkpt lat="40.330474" lon="0.370945">
        <ele>29.126</ele>
        <time>1970-01-01T03:25:06Z</time>
      </trkpt>
      <trkpt lat="40.330467" lon="0.370920">
        <ele>29.347</ele>
        <time>1970-01-01T03:25:07Z</time>
      </trkpt>
      <trkpt lat="40.330460" lon="0.370898">
        <ele>29.511</ele>
        <time>1970-01-01T03:25:08Z</time>
      </trkpt>
      <trkpt lat="40.330453" lon="0.370877">
        <ele>29.708</ele>
        <time>1970-01-01T03:25:09Z</time>
      </trkpt>
      <trkpt lat="40.330446" lon="0.370855">
        <ele>29.969</ele>
        <time>1970-01-01T03:25:10Z</time>
      </trkpt>
      <trkpt lat="40.330437" lon="0.370835">
        <ele>30.166</ele>
        <time>1970-01-01T03:25:11Z</time>
      </trkpt>
      <trkpt lat="40.330429" lon="0.370814">
        <ele>30.487</ele>
        <time>1970-01-01T03:25:12Z</time>
      </trkpt>
      <trkpt lat="40.330424" lon="0.370792">
        <ele>30.630</ele>
        <time>1970-01-01T03:25:13Z</time>
      </trkpt>
      <trkpt lat="40.330418" lon="0.370770">
        <ele>30.980</ele>
        <time>1970-01-01T03:25:14Z</time>
      </trkpt>
      <trkpt lat="40.330414" lon="0.370749">
        <ele>31.216</ele>
        <time>1970-01-01T03:25:15Z</time>
      </trkpt>
      <trkpt lat="40.330409" lon="0.370726">
        <ele>31.510</ele>
        <time>1970-01-01T03:25:16Z</time>
      </trkpt>
      <trkpt lat="40.330404" lon="0.370705">
        <ele>31.891</ele>
        <time>1970-01-01T03:25:17Z</time>
      </trkpt>
      <trkpt lat="40.330397" lon="0.370684">
        <ele>32.078</ele>
        <time>1970-01-01T03:25:18Z</time>
      </trkpt>
      <trkpt lat="40.330393" lon="0.370663">
        <ele>32.333</ele>
        <time>1970-01-01T03:25:19Z</time>
      </trkpt>
      <trkpt lat="40.330387" lon="0.370641">
        <ele>32.626</ele>
        <time>1970-01-01T03:25:20Z</time>
      </trkpt>
      <trkpt lat="40.330381" lon="0.370621">
        <ele>32.808</ele>
        <time>1970-01-01T03:25:21Z</time>
      </trkpt>
      <trkpt lat="40.330373" lon="0.370602">
        <ele>33.014</ele>
        <time>1970-01-01T03:25:22Z</time>
      </trkpt>
      <trkpt lat="40.330363" lon="0.370582">
        <ele>33.281</ele>
        <time>1970-01-01T03:25:23Z</time>
      </trkpt>
      <trkpt lat="40.330363" lon="0.370582">
        <ele>33.232</ele>
        <time>1970-01-01T03:25:24Z</time>
      </trkpt>
      <trkpt lat="40.330344" lon="0.370544">
        <ele>33.825</ele>
        <time>1970-01-01T03:25:25Z</time>
      </trkpt>
      <trkpt lat="40.330336" lon="0.370526">
        <ele>34.245</ele>
        <time>1970-01-01T03:25:26Z</time>
      </trkpt>
      <trkpt lat="40.330329" lon="0.370507">
        <ele>34.661</ele>
        <time>1970-01-01T03:25:27Z</time>
      </trkpt>
      <trkpt lat="40.330322" lon="0.370489">
        <ele>35.025</ele>
        <time>1970-01-01T03:25:28Z</time>
      </trkpt>
      <trkpt lat="40.330313" lon="0.370470">
        <ele>35.486</ele>
        <time>1970-01-01T03:25:29Z</time>
      </trkpt>
      <trkpt lat="40.330305" lon="0.370451">
        <ele>35.886</ele>
        <time>1970-01-01T03:25:30Z</time>
      </trkpt>
      <trkpt lat="40.330298" lon="0.370433">
        <ele>36.260</ele>
        <time>1970-01-01T03:25:31Z</time>
      </trkpt>
      <trkpt lat="40.330291" lon="0.370416">
        <ele>36.626</ele>
        <time>1970-01-01T03:25:32Z</time>
      </trkpt>
      <trkpt lat="40.330283" lon="0.370398">
        <ele>37.008</ele>
        <time>1970-01-01T03:25:33Z</time>
      </trkpt>
      <trkpt lat="40.330273" lon="0.370381">
        <ele>37.395</ele>
        <time>1970-01-01T03:25:34Z</time>
      </trkpt>
      <trkpt lat="40.330262" lon="0.370364">
        <ele>37.662</ele>
        <time>1970-01-01T03:25:35Z</time>
      </trkpt>
      <trkpt lat="40.330251" lon="0.370348">
        <ele>37.943</ele>
        <time>1970-01-01T03:25:36Z</time>
      </trkpt>
      <trkpt lat="40.330239" lon="0.370330">
        <ele>38.286</ele>
        <time>1970-01-01T03:25:37Z</time>
      </trkpt>
      <trkpt lat="40.330228" lon="0.370311">
        <ele>38.546</ele>
        <time>1970-01-01T03:25:38Z</time>
      </trkpt>
      <trkpt lat="40.330218" lon="0.370292">
        <ele>38.832</ele>
        <time>1970-01-01T03:25:39Z</time>
      </trkpt>
      <trkpt lat="40.330207" lon="0.370273">
        <ele>39.186</ele>
        <time>1970-01-01T03:25:40Z</time>
      </trkpt>
      <trkpt lat="40.330198" lon="0.370253">
        <ele>39.487</ele>
        <time>1970-01-01T03:25:41Z</time>
      </trkpt>
      <trkpt lat="40.330185" lon="0.370236">
        <ele>39.624</ele>
        <time>1970-01-01T03:25:42Z</time>
      </trkpt>
      <trkpt lat="40.330171" lon="0.370221">
        <ele>39.704</ele>
        <time>1970-01-01T03:25:43Z</time>
      </trkpt>
      <trkpt lat="40.330156" lon="0.370206">
        <ele>39.814</ele>
        <time>1970-01-01T03:25:44Z</time>
      </trkpt>
      <trkpt lat="40.330141" lon="0.370191">
        <ele>39.908</ele>
        <time>1970-01-01T03:25:45Z</time>
      </trkpt>
      <trkpt lat="40.330126" lon="0.370177">
        <ele>40.069</ele>
        <time>1970-01-01T03:25:46Z</time>
      </trkpt>
      <trkpt lat="40.330110" lon="0.370163">
        <ele>40.166</ele>
        <time>1970-01-01T03:25:47Z</time>
      </trkpt>
      <trkpt lat="40.330095" lon="0.370149">
        <ele>40.127</ele>
        <time>1970-01-01T03:25:48Z</time>
      </trkpt>
      <trkpt lat="40.330080" lon="0.370134">
        <ele>40.320</ele>
        <time>1970-01-01T03:25:49Z</time>
      </trkpt>
      <trkpt lat="40.330066" lon="0.370119">
        <ele>40.440</ele>
        <time>1970-01-01T03:25:50Z</time>
      </trkpt>
      <trkpt lat="40.330052" lon="0.370104">
        <ele>40.586</ele>
        <time>1970-01-01T03:25:51Z</time>
      </trkpt>
      <trkpt lat="40.330040" lon="0.370090">
        <ele>40.640</ele>
        <time>1970-01-01T03:25:52Z</time>
      </trkpt>
      <trkpt lat="40.330027" lon="0.370075">
        <ele>40.811</ele>
        <time>1970-01-01T03:25:53Z</time>
      </trkpt>
      <trkpt lat="40.330015" lon="0.370059">
        <ele>40.948</ele>
        <time>1970-01-01T03:25:54Z</time>
      </trkpt>
      <trkpt lat="40.330002" lon="0.370043">
        <ele>41.161</ele>
        <time>1970-01-01T03:25:55Z</time>
      </trkpt>
      <trkpt lat="40.329989" lon="0.370026">
        <ele>41.317</ele>
        <time>1970-01-01T03:25:56Z</time>
      </trkpt>
      <trkpt lat="40.329974" lon="0.370010">
        <ele>41.408</ele>
        <time>1970-01-01T03:25:57Z</time>
      </trkpt>
      <trkpt lat="40.329960" lon="0.369992">
        <ele>41.671</ele>
        <time>1970-01-01T03:25:58Z</time>
      </trkpt>
      <trkpt lat="40.329945" lon="0.369974">
        <ele>41.948</ele>
        <time>1970-01-01T03:25:59Z</time>
      </trkpt>
      <trkpt lat="40.329930" lon="0.369955">
        <ele>42.149</ele>
        <time>1970-01-01T03:26:00Z</time>
      </trkpt>
      <trkpt lat="40.329915" lon="0.369939">
        <ele>42.332</ele>
        <time>1970-01-01T03:26:01Z</time>
      </trkpt>
      <trkpt lat="40.329899" lon="0.369924">
        <ele>42.542</ele>
        <time>1970-01-01T03:26:02Z</time>
      </trkpt>
      <trkpt lat="40.329884" lon="0.369908">
        <ele>42.668</ele>
        <time>1970-01-01T03:26:03Z</time>
      </trkpt>
      <trkpt lat="40.329870" lon="0.369892">
        <ele>42.952</ele>
        <time>1970-01-01T03:26:04Z</time>
      </trkpt>
      <trkpt lat="40.329856" lon="0.369874">
        <ele>43.183</ele>
        <time>1970-01-01T03:26:05Z</time>
      </trkpt>
      <trkpt lat="40.329841" lon="0.369858">
        <ele>43.353</ele>
        <time>1970-01-01T03:26:06Z</time>
      </trkpt>
      <trkpt lat="40.329826" lon="0.369843">
        <ele>43.504</ele>
        <time>1970-01-01T03:26:07Z</time>
      </trkpt>
      <trkpt lat="40.329811" lon="0.369828">
        <ele>43.614</ele>
        <time>1970-01-01T03:26:08Z</time>
      </trkpt>
      <trkpt lat="40.329796" lon="0.369812">
        <ele>43.808</ele>
        <time>1970-01-01T03:26:09Z</time>
      </trkpt>
      <trkpt lat="40.329781" lon="0.369795">
        <ele>44.042</ele>
        <time>1970-01-01T03:26:10Z</time>
      </trkpt>
      <trkpt lat="40.329767" lon="0.369779">
        <ele>44.239</ele>
        <time>1970-01-01T03:26:11Z</time>
      </trkpt>
      <trkpt lat="40.329753" lon="0.369763">
        <ele>44.460</ele>
        <time>1970-01-01T03:26:12Z</time>
      </trkpt>
      <trkpt lat="40.329739" lon="0.369748">
        <ele>44.633</ele>
        <time>1970-01-01T03:26:13Z</time>
      </trkpt>
      <trkpt lat="40.329726" lon="0.369732">
        <ele>44.853</ele>
        <time>1970-01-01T03:26:14Z</time>
      </trkpt>
      <trkpt lat="40.329713" lon="0.369716">
        <ele>45.099</ele>
        <time>1970-01-01T03:26:15Z</time>
      </trkpt>
      <trkpt lat="40.329700" lon="0.369699">
        <ele>45.173</ele>
        <time>1970-01-01T03:26:16Z</time>
      </trkpt>
      <trkpt lat="40.329685" lon="0.369683">
        <ele>45.234</ele>
        <time>1970-01-01T03:26:17Z</time>
      </trkpt>
      <trkpt lat="40.329670" lon="0.369669">
        <ele>45.251</ele>
        <time>1970-01-01T03:26:18Z</time>
      </trkpt>
      <trkpt lat="40.329656" lon="0.369654">
        <ele>45.301</ele>
        <time>1970-01-01T03:26:19Z</time>
      </trkpt>
      <trkpt lat="40.329646" lon="0.369636">
        <ele>45.511</ele>
        <time>1970-01-01T03:26:20Z</time>
      </trkpt>
      <trkpt lat="40.329636" lon="0.369616">
        <ele>45.708</ele>
        <time>1970-01-01T03:26:21Z</time>
      </trkpt>
      <trkpt lat="40.329625" lon="0.369596">
        <ele>46.022</ele>
        <time>1970-01-01T03:26:22Z</time>
      </trkpt>
      <trkpt lat="40.329613" lon="0.369575">
        <ele>46.289</ele>
        <time>1970-01-01T03:26:23Z</time>
      </trkpt>
      <trkpt lat="40.329599" lon="0.369554">
        <ele>46.430</ele>
        <time>1970-01-01T03:26:24Z</time>
      </trkpt>
      <trkpt lat="40.329585" lon="0.369530">
        <ele>46.723</ele>
        <time>1970-01-01T03:26:25Z</time>
      </trkpt>
      <trkpt lat="40.329572" lon="0.369506">
        <ele>47.013</ele>
        <time>1970-01-01T03:26:26Z</time>
      </trkpt>
      <trkpt lat="40.329558" lon="0.369483">
        <ele>47.299</ele>
        <time>1970-01-01T03:26:27Z</time>
      </trkpt>
      <trkpt lat="40.329542" lon="0.369460">
        <ele>47.443</ele>
        <time>1970-01-01T03:26:28Z</time>
      </trkpt>
      <trkpt lat="40.329528" lon="0.369436">
        <ele>47.724</ele>
        <time>1970-01-01T03:26:29Z</time>
      </trkpt>
      <trkpt lat="40.329514" lon="0.369409">
        <ele>48.138</ele>
        <time>1970-01-01T03:26:30Z</time>
      </trkpt>
      <trkpt lat="40.329500" lon="0.369384">
        <ele>48.470</ele>
        <time>1970-01-01T03:26:31Z</time>
      </trkpt>
      <trkpt lat="40.329485" lon="0.369358">
        <ele>48.717</ele>
        <time>1970-01-01T03:26:32Z</time>
      </trkpt>
      <trkpt lat="40.329471" lon="0.369332">
        <ele>49.008</ele>
        <time>1970-01-01T03:26:33Z</time>
      </trkpt>
      <trkpt lat="40.329457" lon="0.369304">
        <ele>49.390</ele>
        <time>1970-01-01T03:26:34Z</time>
      </trkpt>
      <trkpt lat="40.329443" lon="0.369275">
        <ele>49.657</ele>
        <time>1970-01-01T03:26:35Z</time>
      </trkpt>
      <trkpt lat="40.329428" lon="0.369246">
        <ele>49.948</ele>
        <time>1970-01-01T03:26:36Z</time>
      </trkpt>
      <trkpt lat="40.329415" lon="0.369215">
        <ele>50.361</ele>
        <time>1970-01-01T03:26:37Z</time>
      </trkpt>
      <trkpt lat="40.329402" lon="0.369185">
        <ele>50.761</ele>
        <time>1970-01-01T03:26:38Z</time>
      </trkpt>
      <trkpt lat="40.329390" lon="0.369155">
        <ele>51.267</ele>
        <time>1970-01-01T03:26:39Z</time>
      </trkpt>
      <trkpt lat="40.329379" lon="0.369123">
        <ele>52.031</ele>
        <time>1970-01-01T03:26:40Z</time>
      </trkpt>
      <trkpt lat="40.329369" lon="0.369091">
        <ele>52.842</ele>
        <time>1970-01-01T03:26:41Z</time>
      </trkpt>
      <trkpt lat="40.329361" lon="0.369059">
        <ele>53.761</ele>
        <time>1970-01-01T03:26:42Z</time>
      </trkpt>
      <trkpt lat="40.329351" lon="0.369026">
        <ele>54.521</ele>
        <time>1970-01-01T03:26:43Z</time>
      </trkpt>
      <trkpt lat="40.329341" lon="0.368994">
        <ele>55.413</ele>
        <time>1970-01-01T03:26:44Z</time>
      </trkpt>
      <trkpt lat="40.329331" lon="0.368959">
        <ele>56.308</ele>
        <time>1970-01-01T03:26:45Z</time>
      </trkpt>
      <trkpt lat="40.329321" lon="0.368925">
        <ele>57.213</ele>
        <time>1970-01-01T03:26:46Z</time>
      </trkpt>
      <trkpt lat="40.329306" lon="0.368890">
        <ele>58.070</ele>
        <time>1970-01-01T03:26:47Z</time>
      </trkpt>
      <trkpt lat="40.329289" lon="0.368856">
        <ele>58.611</ele>
        <time>1970-01-01T03:26:48Z</time>
      </trkpt>
      <trkpt lat="40.329270" lon="0.368822">
        <ele>59.264</ele>
        <time>1970-01-01T03:26:49Z</time>
      </trkpt>
      <trkpt lat="40.329247" lon="0.368789">
        <ele>59.634</ele>
        <time>1970-01-01T03:26:50Z</time>
      </trkpt>
      <trkpt lat="40.329220" lon="0.368763">
        <ele>59.870</ele>
        <time>1970-01-01T03:26:51Z</time>
      </trkpt>
      <trkpt lat="40.329190" lon="0.368742">
        <ele>59.784</ele>
        <time>1970-01-01T03:26:52Z</time>
      </trkpt>
      <trkpt lat="40.329159" lon="0.368726">
        <ele>59.565</ele>
        <time>1970-01-01T03:26:53Z</time>
      </trkpt>
      <trkpt lat="40.329127" lon="0.368714">
        <ele>59.186</ele>
        <time>1970-01-01T03:26:54Z</time>
      </trkpt>
      <trkpt lat="40.329096" lon="0.368704">
        <ele>58.660</ele>
        <time>1970-01-01T03:26:55Z</time>
      </trkpt>
      <trkpt lat="40.329065" lon="0.368697">
        <ele>58.126</ele>
        <time>1970-01-01T03:26:56Z</time>
      </trkpt>
      <trkpt lat="40.329033" lon="0.368693">
        <ele>57.508</ele>
        <time>1970-01-01T03:26:57Z</time>
      </trkpt>
      <trkpt lat="40.329000" lon="0.368691">
        <ele>56.845</ele>
        <time>1970-01-01T03:26:58Z</time>
      </trkpt>
      <trkpt lat="40.328967" lon="0.368688">
        <ele>56.142</ele>
        <time>1970-01-01T03:26:59Z</time>
      </trkpt>
      <trkpt lat="40.328935" lon="0.368686">
        <ele>55.463</ele>
        <time>1970-01-01T03:27:00Z</time>
      </trkpt>
      <trkpt lat="40.328903" lon="0.368683">
        <ele>54.746</ele>
        <time>1970-01-01T03:27:01Z</time>
      </trkpt>
      <trkpt lat="40.328872" lon="0.368678">
        <ele>54.016</ele>
        <time>1970-01-01T03:27:02Z</time>
      </trkpt>
      <trkpt lat="40.328844" lon="0.368671">
        <ele>53.262</ele>
        <time>1970-01-01T03:27:03Z</time>
      </trkpt>
      <trkpt lat="40.328814" lon="0.368664">
        <ele>52.346</ele>
        <time>1970-01-01T03:27:04Z</time>
      </trkpt>
      <trkpt lat="40.328785" lon="0.368658">
        <ele>51.437</ele>
        <time>1970-01-01T03:27:05Z</time>
      </trkpt>
      <trkpt lat="40.328754" lon="0.368652">
        <ele>50.577</ele>
        <time>1970-01-01T03:27:06Z</time>
      </trkpt>
      <trkpt lat="40.328723" lon="0.368642">
        <ele>49.861</ele>
        <time>1970-01-01T03:27:07Z</time>
      </trkpt>
      <trkpt lat="40.328693" lon="0.368629">
        <ele>49.227</ele>
        <time>1970-01-01T03:27:08Z</time>
      </trkpt>
      <trkpt lat="40.328663" lon="0.368613">
        <ele>48.808</ele>
        <time>1970-01-01T03:27:09Z</time>
      </trkpt>
      <trkpt lat="40.328632" lon="0.368598">
        <ele>48.124</ele>
        <time>1970-01-01T03:27:10Z</time>
      </trkpt>
      <trkpt lat="40.328601" lon="0.368581">
        <ele>47.691</ele>
        <time>1970-01-01T03:27:11Z</time>
      </trkpt>
      <trkpt lat="40.328571" lon="0.368558">
        <ele>47.452</ele>
        <time>1970-01-01T03:27:12Z</time>
      </trkpt>
      <trkpt lat="40.328545" lon="0.368530">
        <ele>47.615</ele>
        <time>1970-01-01T03:27:13Z</time>
      </trkpt>
      <trkpt lat="40.328522" lon="0.368493">
        <ele>48.165</ele>
        <time>1970-01-01T03:27:14Z</time>
      </trkpt>
      <trkpt lat="40.328500" lon="0.368452">
        <ele>48.841</ele>
        <time>1970-01-01T03:27:15Z</time>
      </trkpt>
      <trkpt lat="40.328476" lon="0.368408">
        <ele>49.795</ele>
        <time>1970-01-01T03:27:16Z</time>
      </trkpt>
      <trkpt lat="40.328454" lon="0.368358">
        <ele>50.836</ele>
        <time>1970-01-01T03:27:17Z</time>
      </trkpt>
      <trkpt lat="40.328441" lon="0.368300">
        <ele>51.991</ele>
        <time>1970-01-01T03:27:18Z</time>
      </trkpt>
      <trkpt lat="40.328436" lon="0.368238">
        <ele>52.881</ele>
        <time>1970-01-01T03:27:19Z</time>
      </trkpt>
      <trkpt lat="40.328434" lon="0.368176">
        <ele>53.919</ele>
        <time>1970-01-01T03:27:20Z</time>
      </trkpt>
      <trkpt lat="40.328432" lon="0.368114">
        <ele>54.908</ele>
        <time>1970-01-01T03:27:21Z</time>
      </trkpt>
      <trkpt lat="40.328429" lon="0.368055">
        <ele>55.896</ele>
        <time>1970-01-01T03:27:22Z</time>
      </trkpt>
      <trkpt lat="40.328420" lon="0.367997">
        <ele>56.893</ele>
        <time>1970-01-01T03:27:23Z</time>
      </trkpt>
      <trkpt lat="40.328405" lon="0.367940">
        <ele>57.634</ele>
        <time>1970-01-01T03:27:24Z</time>
      </trkpt>
      <trkpt lat="40.328384" lon="0.367887">
        <ele>58.197</ele>
        <time>1970-01-01T03:27:25Z</time>
      </trkpt>
      <trkpt lat="40.328355" lon="0.367841">
        <ele>58.317</ele>
        <time>1970-01-01T03:27:26Z</time>
      </trkpt>
      <trkpt lat="40.328313" lon="0.367807">
        <ele>57.853</ele>
        <time>1970-01-01T03:27:27Z</time>
      </trkpt>
      <trkpt lat="40.328266" lon="0.367788">
        <ele>56.817</ele>
        <time>1970-01-01T03:27:28Z</time>
      </trkpt>
      <trkpt lat="40.328219" lon="0.367779">
        <ele>55.758</ele>
        <time>1970-01-01T03:27:29Z</time>
      </trkpt>
      <trkpt lat="40.328173" lon="0.367776">
        <ele>54.429</ele>
        <time>1970-01-01T03:27:30Z</time>
      </trkpt>
      <trkpt lat="40.328130" lon="0.367771">
        <ele>53.400</ele>
        <time>1970-01-01T03:27:31Z</time>
      </trkpt>
      <trkpt lat="40.328094" lon="0.367766">
        <ele>52.620</ele>
        <time>1970-01-01T03:27:32Z</time>
      </trkpt>
      <trkpt lat="40.328063" lon="0.367753">
        <ele>52.208</ele>
        <time>1970-01-01T03:27:33Z</time>
      </trkpt>
      <trkpt lat="40.328033" lon="0.367738">
        <ele>52.219</ele>
        <time>1970-01-01T03:27:34Z</time>
      </trkpt>
      <trkpt lat="40.328003" lon="0.367723">
        <ele>52.356</ele>
        <time>1970-01-01T03:27:35Z</time>
      </trkpt>
      <trkpt lat="40.327973" lon="0.367709">
        <ele>52.327</ele>
        <time>1970-01-01T03:27:36Z</time>
      </trkpt>
      <trkpt lat="40.327944" lon="0.367692">
        <ele>52.510</ele>
        <time>1970-01-01T03:27:37Z</time>
      </trkpt>
      <trkpt lat="40.327916" lon="0.367675">
        <ele>52.740</ele>
        <time>1970-01-01T03:27:38Z</time>
      </trkpt>
      <trkpt lat="40.327886" lon="0.367659">
        <ele>52.916</ele>
        <time>1970-01-01T03:27:39Z</time>
      </trkpt>
      <trkpt lat="40.327855" lon="0.367643">
        <ele>53.170</ele>
        <time>1970-01-01T03:27:40Z</time>
      </trkpt>
      <trkpt lat="40.327824" lon="0.367629">
        <ele>53.291</ele>
        <time>1970-01-01T03:27:41Z</time>
      </trkpt>
      <trkpt lat="40.327796" lon="0.367616">
        <ele>53.385</ele>
        <time>1970-01-01T03:27:42Z</time>
      </trkpt>
      <trkpt lat="40.327767" lon="0.367607">
        <ele>53.189</ele>
        <time>1970-01-01T03:27:43Z</time>
      </trkpt>
      <trkpt lat="40.327739" lon="0.367598">
        <ele>52.617</ele>
        <time>1970-01-01T03:27:44Z</time>
      </trkpt>
      <trkpt lat="40.327714" lon="0.367589">
        <ele>52.308</ele>
        <time>1970-01-01T03:27:45Z</time>
      </trkpt>
      <trkpt lat="40.327690" lon="0.367576">
        <ele>52.215</ele>
        <time>1970-01-01T03:27:46Z</time>
      </trkpt>
      <trkpt lat="40.327665" lon="0.367562">
        <ele>52.122</ele>
        <time>1970-01-01T03:27:47Z</time>
      </trkpt>
      <trkpt lat="40.327638" lon="0.367551">
        <ele>51.863</ele>
        <time>1970-01-01T03:27:48Z</time>
      </trkpt>
      <trkpt lat="40.327613" lon="0.367540">
        <ele>51.526</ele>
        <time>1970-01-01T03:27:49Z</time>
      </trkpt>
      <trkpt lat="40.327588" lon="0.367525">
        <ele>51.526</ele>
        <time>1970-01-01T03:27:50Z</time>
      </trkpt>
      <trkpt lat="40.327562" lon="0.367508">
        <ele>51.442</ele>
        <time>1970-01-01T03:27:51Z</time>
      </trkpt>
      <trkpt lat="40.327537" lon="0.367490">
        <ele>51.466</ele>
        <time>1970-01-01T03:27:52Z</time>
      </trkpt>
      <trkpt lat="40.327514" lon="0.367470">
        <ele>51.577</ele>
        <time>1970-01-01T03:27:53Z</time>
      </trkpt>
      <trkpt lat="40.327489" lon="0.367449">
        <ele>51.428</ele>
        <time>1970-01-01T03:27:54Z</time>
      </trkpt>
      <trkpt lat="40.327465" lon="0.367428">
        <ele>51.289</ele>
        <time>1970-01-01T03:27:55Z</time>
      </trkpt>
      <trkpt lat="40.327440" lon="0.367407">
        <ele>51.017</ele>
        <time>1970-01-01T03:27:56Z</time>
      </trkpt>
      <trkpt lat="40.327418" lon="0.367384">
        <ele>50.908</ele>
        <time>1970-01-01T03:27:57Z</time>
      </trkpt>
      <trkpt lat="40.327394" lon="0.367362">
        <ele>50.829</ele>
        <time>1970-01-01T03:27:58Z</time>
      </trkpt>
      <trkpt lat="40.327372" lon="0.367339">
        <ele>50.776</ele>
        <time>1970-01-01T03:27:59Z</time>
      </trkpt>
      <trkpt lat="40.327353" lon="0.367316">
        <ele>50.827</ele>
        <time>1970-01-01T03:28:00Z</time>
      </trkpt>
      <trkpt lat="40.327336" lon="0.367290">
        <ele>51.160</ele>
        <time>1970-01-01T03:28:01Z</time>
      </trkpt>
      <trkpt lat="40.327320" lon="0.367262">
        <ele>51.470</ele>
        <time>1970-01-01T03:28:02Z</time>
      </trkpt>
      <trkpt lat="40.327303" lon="0.367237">
        <ele>51.766</ele>
        <time>1970-01-01T03:28:03Z</time>
      </trkpt>
      <trkpt lat="40.327286" lon="0.367214">
        <ele>51.910</ele>
        <time>1970-01-01T03:28:04Z</time>
      </trkpt>
      <trkpt lat="40.327271" lon="0.367191">
        <ele>52.251</ele>
        <time>1970-01-01T03:28:05Z</time>
      </trkpt>
      <trkpt lat="40.327257" lon="0.367169">
        <ele>52.678</ele>
        <time>1970-01-01T03:28:06Z</time>
      </trkpt>
      <trkpt lat="40.327245" lon="0.367146">
        <ele>53.133</ele>
        <time>1970-01-01T03:28:07Z</time>
      </trkpt>
      <trkpt lat="40.327232" lon="0.367120">
        <ele>53.826</ele>
        <time>1970-01-01T03:28:08Z</time>
      </trkpt>
      <trkpt lat="40.327217" lon="0.367094">
        <ele>54.408</ele>
        <time>1970-01-01T03:28:09Z</time>
      </trkpt>
      <trkpt lat="40.327204" lon="0.367065">
        <ele>55.264</ele>
        <time>1970-01-01T03:28:10Z</time>
      </trkpt>
      <trkpt lat="40.327193" lon="0.367035">
        <ele>56.031</ele>
        <time>1970-01-01T03:28:11Z</time>
      </trkpt>
      <trkpt lat="40.327183" lon="0.367005">
        <ele>56.972</ele>
        <time>1970-01-01T03:28:12Z</time>
      </trkpt>
      <trkpt lat="40.327174" lon="0.366973">
        <ele>57.995</ele>
        <time>1970-01-01T03:28:13Z</time>
      </trkpt>
      <trkpt lat="40.327166" lon="0.366941">
        <ele>58.835</ele>
        <time>1970-01-01T03:28:14Z</time>
      </trkpt>
      <trkpt lat="40.327158" lon="0.366908">
        <ele>59.161</ele>
        <time>1970-01-01T03:28:15Z</time>
      </trkpt>
      <trkpt lat="40.327152" lon="0.366872">
        <ele>59.695</ele>
        <time>1970-01-01T03:28:16Z</time>
      </trkpt>
      <trkpt lat="40.327148" lon="0.366834">
        <ele>60.296</ele>
        <time>1970-01-01T03:28:17Z</time>
      </trkpt>
      <trkpt lat="40.327145" lon="0.366794">
        <ele>60.876</ele>
        <time>1970-01-01T03:28:18Z</time>
      </trkpt>
      <trkpt lat="40.327143" lon="0.366754">
        <ele>61.590</ele>
        <time>1970-01-01T03:28:19Z</time>
      </trkpt>
      <trkpt lat="40.327141" lon="0.366715">
        <ele>62.219</ele>
        <time>1970-01-01T03:28:20Z</time>
      </trkpt>
      <trkpt lat="40.327139" lon="0.366678">
        <ele>62.808</ele>
        <time>1970-01-01T03:28:21Z</time>
      </trkpt>
      <trkpt lat="40.327137" lon="0.366640">
        <ele>63.594</ele>
        <time>1970-01-01T03:28:22Z</time>
      </trkpt>
      <trkpt lat="40.327132" lon="0.366605">
        <ele>64.031</ele>
        <time>1970-01-01T03:28:23Z</time>
      </trkpt>
      <trkpt lat="40.327122" lon="0.366572">
        <ele>64.392</ele>
        <time>1970-01-01T03:28:24Z</time>
      </trkpt>
      <trkpt lat="40.327111" lon="0.366538">
        <ele>64.685</ele>
        <time>1970-01-01T03:28:25Z</time>
      </trkpt>
      <trkpt lat="40.327100" lon="0.366505">
        <ele>64.865</ele>
        <time>1970-01-01T03:28:26Z</time>
      </trkpt>
      <trkpt lat="40.327093" lon="0.366472">
        <ele>65.281</ele>
        <time>1970-01-01T03:28:27Z</time>
      </trkpt>
      <trkpt lat="40.327084" lon="0.366440">
        <ele>65.565</ele>
        <time>1970-01-01T03:28:28Z</time>
      </trkpt>
      <trkpt lat="40.327075" lon="0.366408">
        <ele>65.856</ele>
        <time>1970-01-01T03:28:29Z</time>
      </trkpt>
      <trkpt lat="40.327067" lon="0.366377">
        <ele>66.277</ele>
        <time>1970-01-01T03:28:30Z</time>
      </trkpt>
      <trkpt lat="40.327059" lon="0.366346">
        <ele>67.061</ele>
        <time>1970-01-01T03:28:31Z</time>
      </trkpt>
      <trkpt lat="40.327052" lon="0.366314">
        <ele>67.727</ele>
        <time>1970-01-01T03:28:32Z</time>
      </trkpt>
      <trkpt lat="40.327044" lon="0.366283">
        <ele>68.508</ele>
        <time>1970-01-01T03:28:33Z</time>
      </trkpt>
      <trkpt lat="40.327039" lon="0.366253">
        <ele>69.314</ele>
        <time>1970-01-01T03:28:34Z</time>
      </trkpt>
      <trkpt lat="40.327032" lon="0.366225">
        <ele>70.031</ele>
        <time>1970-01-01T03:28:35Z</time>
      </trkpt>
      <trkpt lat="40.327027" lon="0.366199">
        <ele>70.772</ele>
        <time>1970-01-01T03:28:36Z</time>
      </trkpt>
      <trkpt lat="40.327022" lon="0.366172">
        <ele>71.435</ele>
        <time>1970-01-01T03:28:37Z</time>
      </trkpt>
      <trkpt lat="40.327019" lon="0.366142">
        <ele>72.435</ele>
        <time>1970-01-01T03:28:38Z</time>
      </trkpt>
      <trkpt lat="40.327016" lon="0.366110">
        <ele>73.451</ele>
        <time>1970-01-01T03:28:39Z</time>
      </trkpt>
      <trkpt lat="40.327012" lon="0.366078">
        <ele>74.435</ele>
        <time>1970-01-01T03:28:40Z</time>
      </trkpt>
      <trkpt lat="40.327005" lon="0.366048">
        <ele>75.276</ele>
        <time>1970-01-01T03:28:41Z</time>
      </trkpt>
      <trkpt lat="40.326997" lon="0.366020">
        <ele>75.969</ele>
        <time>1970-01-01T03:28:42Z</time>
      </trkpt>
      <trkpt lat="40.326988" lon="0.365994">
        <ele>76.604</ele>
        <time>1970-01-01T03:28:43Z</time>
      </trkpt>
      <trkpt lat="40.326977" lon="0.365969">
        <ele>77.124</ele>
        <time>1970-01-01T03:28:44Z</time>
      </trkpt>
      <trkpt lat="40.326961" lon="0.365946">
        <ele>77.408</ele>
        <time>1970-01-01T03:28:45Z</time>
      </trkpt>
      <trkpt lat="40.326943" lon="0.365923">
        <ele>77.773</ele>
        <time>1970-01-01T03:28:46Z</time>
      </trkpt>
      <trkpt lat="40.326918" lon="0.365902">
        <ele>77.680</ele>
        <time>1970-01-01T03:28:47Z</time>
      </trkpt>
      <trkpt lat="40.326890" lon="0.365882">
        <ele>77.581</ele>
        <time>1970-01-01T03:28:48Z</time>
      </trkpt>
      <trkpt lat="40.326860" lon="0.365867">
        <ele>77.084</ele>
        <time>1970-01-01T03:28:49Z</time>
      </trkpt>
      <trkpt lat="40.326826" lon="0.365852">
        <ele>76.524</ele>
        <time>1970-01-01T03:28:50Z</time>
      </trkpt>
      <trkpt lat="40.326791" lon="0.365837">
        <ele>75.990</ele>
        <time>1970-01-01T03:28:51Z</time>
      </trkpt>
      <trkpt lat="40.326754" lon="0.365820">
        <ele>75.234</ele>
        <time>1970-01-01T03:28:52Z</time>
      </trkpt>
      <trkpt lat="40.326717" lon="0.365802">
        <ele>74.615</ele>
        <time>1970-01-01T03:28:53Z</time>
      </trkpt>
      <trkpt lat="40.326683" lon="0.365782">
        <ele>74.249</ele>
        <time>1970-01-01T03:28:54Z</time>
      </trkpt>
      <trkpt lat="40.326647" lon="0.365759">
        <ele>73.702</ele>
        <time>1970-01-01T03:28:55Z</time>
      </trkpt>
      <trkpt lat="40.326614" lon="0.365736">
        <ele>73.222</ele>
        <time>1970-01-01T03:28:56Z</time>
      </trkpt>
      <trkpt lat="40.326579" lon="0.365712">
        <ele>72.608</ele>
        <time>1970-01-01T03:28:57Z</time>
      </trkpt>
      <trkpt lat="40.326544" lon="0.365693">
        <ele>71.961</ele>
        <time>1970-01-01T03:28:58Z</time>
      </trkpt>
      <trkpt lat="40.326510" lon="0.365673">
        <ele>71.228</ele>
        <time>1970-01-01T03:28:59Z</time>
      </trkpt>
      <trkpt lat="40.326477" lon="0.365653">
        <ele>70.689</ele>
        <time>1970-01-01T03:29:00Z</time>
      </trkpt>
      <trkpt lat="40.326446" lon="0.365628">
        <ele>70.142</ele>
        <time>1970-01-01T03:29:01Z</time>
      </trkpt>
      <trkpt lat="40.326416" lon="0.365601">
        <ele>69.732</ele>
        <time>1970-01-01T03:29:02Z</time>
      </trkpt>
      <trkpt lat="40.326388" lon="0.365574">
        <ele>69.448</ele>
        <time>1970-01-01T03:29:03Z</time>
      </trkpt>
      <trkpt lat="40.326359" lon="0.365545">
        <ele>69.522</ele>
        <time>1970-01-01T03:29:04Z</time>
      </trkpt>
      <trkpt lat="40.326331" lon="0.365514">
        <ele>69.783</ele>
        <time>1970-01-01T03:29:05Z</time>
      </trkpt>
      <trkpt lat="40.326304" lon="0.365482">
        <ele>70.091</ele>
        <time>1970-01-01T03:29:06Z</time>
      </trkpt>
      <trkpt lat="40.326277" lon="0.365450">
        <ele>70.181</ele>
        <time>1970-01-01T03:29:07Z</time>
      </trkpt>
      <trkpt lat="40.326252" lon="0.365417">
        <ele>70.319</ele>
        <time>1970-01-01T03:29:08Z</time>
      </trkpt>
      <trkpt lat="40.326228" lon="0.365384">
        <ele>70.508</ele>
        <time>1970-01-01T03:29:09Z</time>
      </trkpt>
      <trkpt lat="40.326207" lon="0.365349">
        <ele>70.796</ele>
        <time>1970-01-01T03:29:10Z</time>
      </trkpt>
      <trkpt lat="40.326188" lon="0.365315">
        <ele>71.013</ele>
        <time>1970-01-01T03:29:11Z</time>
      </trkpt>
      <trkpt lat="40.326171" lon="0.365283">
        <ele>71.244</ele>
        <time>1970-01-01T03:29:12Z</time>
      </trkpt>
      <trkpt lat="40.326155" lon="0.365253">
        <ele>71.967</ele>
        <time>1970-01-01T03:29:13Z</time>
      </trkpt>
      <trkpt lat="40.326138" lon="0.365233">
        <ele>72.047</ele>
        <time>1970-01-01T03:29:14Z</time>
      </trkpt>
      <trkpt lat="40.326124" lon="0.365215">
        <ele>72.313</ele>
        <time>1970-01-01T03:29:15Z</time>
      </trkpt>
      <trkpt lat="40.326110" lon="0.365195">
        <ele>72.557</ele>
        <time>1970-01-01T03:29:16Z</time>
      </trkpt>
      <trkpt lat="40.326097" lon="0.365172">
        <ele>73.068</ele>
        <time>1970-01-01T03:29:17Z</time>
      </trkpt>
      <trkpt lat="40.326082" lon="0.365149">
        <ele>73.359</ele>
        <time>1970-01-01T03:29:18Z</time>
      </trkpt>
      <trkpt lat="40.326066" lon="0.365124">
        <ele>73.603</ele>
        <time>1970-01-01T03:29:19Z</time>
      </trkpt>
      <trkpt lat="40.326050" lon="0.365097">
        <ele>74.023</ele>
        <time>1970-01-01T03:29:20Z</time>
      </trkpt>
      <trkpt lat="40.326035" lon="0.365069">
        <ele>74.408</ele>
        <time>1970-01-01T03:29:21Z</time>
      </trkpt>
      <trkpt lat="40.326020" lon="0.365038">
        <ele>74.952</ele>
        <time>1970-01-01T03:29:22Z</time>
      </trkpt>
      <trkpt lat="40.326006" lon="0.365007">
        <ele>75.489</ele>
        <time>1970-01-01T03:29:23Z</time>
      </trkpt>
      <trkpt lat="40.325991" lon="0.364978">
        <ele>75.940</ele>
        <time>1970-01-01T03:29:24Z</time>
      </trkpt>
      <trkpt lat="40.325975" lon="0.364950">
        <ele>76.233</ele>
        <time>1970-01-01T03:29:25Z</time>
      </trkpt>
      <trkpt lat="40.325955" lon="0.364920">
        <ele>76.323</ele>
        <time>1970-01-01T03:29:26Z</time>
      </trkpt>
      <trkpt lat="40.325931" lon="0.364888">
        <ele>76.139</ele>
        <time>1970-01-01T03:29:27Z</time>
      </trkpt>
      <trkpt lat="40.325906" lon="0.364855">
        <ele>75.843</ele>
        <time>1970-01-01T03:29:28Z</time>
      </trkpt>
      <trkpt lat="40.325879" lon="0.364820">
        <ele>75.274</ele>
        <time>1970-01-01T03:29:29Z</time>
      </trkpt>
      <trkpt lat="40.325853" lon="0.364781">
        <ele>74.747</ele>
        <time>1970-01-01T03:29:30Z</time>
      </trkpt>
      <trkpt lat="40.325830" lon="0.364737">
        <ele>74.429</ele>
        <time>1970-01-01T03:29:31Z</time>
      </trkpt>
      <trkpt lat="40.325808" lon="0.364692">
        <ele>75.121</ele>
        <time>1970-01-01T03:29:32Z</time>
      </trkpt>
      <trkpt lat="40.325787" lon="0.364650">
        <ele>75.708</ele>
        <time>1970-01-01T03:29:33Z</time>
      </trkpt>
      <trkpt lat="40.325765" lon="0.364611">
        <ele>76.291</ele>
        <time>1970-01-01T03:29:34Z</time>
      </trkpt>
      <trkpt lat="40.325741" lon="0.364573">
        <ele>76.448</ele>
        <time>1970-01-01T03:29:35Z</time>
      </trkpt>
      <trkpt lat="40.325715" lon="0.364534">
        <ele>76.539</ele>
        <time>1970-01-01T03:29:36Z</time>
      </trkpt>
      <trkpt lat="40.325688" lon="0.364496">
        <ele>76.442</ele>
        <time>1970-01-01T03:29:37Z</time>
      </trkpt>
      <trkpt lat="40.325659" lon="0.364459">
        <ele>76.192</ele>
        <time>1970-01-01T03:29:38Z</time>
      </trkpt>
      <trkpt lat="40.325630" lon="0.364422">
        <ele>75.228</ele>
        <time>1970-01-01T03:29:39Z</time>
      </trkpt>
      <trkpt lat="40.325601" lon="0.364382">
        <ele>73.952</ele>
        <time>1970-01-01T03:29:40Z</time>
      </trkpt>
      <trkpt lat="40.325572" lon="0.364340">
        <ele>72.793</ele>
        <time>1970-01-01T03:29:41Z</time>
      </trkpt>
      <trkpt lat="40.325546" lon="0.364293">
        <ele>71.753</ele>
        <time>1970-01-01T03:29:42Z</time>
      </trkpt>
      <trkpt lat="40.325520" lon="0.364243">
        <ele>71.104</ele>
        <time>1970-01-01T03:29:43Z</time>
      </trkpt>
      <trkpt lat="40.325497" lon="0.364190">
        <ele>70.714</ele>
        <time>1970-01-01T03:29:44Z</time>
      </trkpt>
      <trkpt lat="40.325477" lon="0.364136">
        <ele>70.508</ele>
        <time>1970-01-01T03:29:45Z</time>
      </trkpt>
      <trkpt lat="40.325459" lon="0.364081">
        <ele>70.332</ele>
        <time>1970-01-01T03:29:46Z</time>
      </trkpt>
      <trkpt lat="40.325444" lon="0.364026">
        <ele>70.349</ele>
        <time>1970-01-01T03:29:47Z</time>
      </trkpt>
      <trkpt lat="40.325433" lon="0.363970">
        <ele>70.420</ele>
        <time>1970-01-01T03:29:48Z</time>
      </trkpt>
      <trkpt lat="40.325428" lon="0.363914">
        <ele>70.753</ele>
        <time>1970-01-01T03:29:49Z</time>
      </trkpt>
      <trkpt lat="40.325428" lon="0.363858">
        <ele>71.633</ele>
        <time>1970-01-01T03:29:50Z</time>
      </trkpt>
      <trkpt lat="40.325433" lon="0.363806">
        <ele>72.829</ele>
        <time>1970-01-01T03:29:51Z</time>
      </trkpt>
      <trkpt lat="40.325443" lon="0.363754">
        <ele>74.243</ele>
        <time>1970-01-01T03:29:52Z</time>
      </trkpt>
      <trkpt lat="40.325449" lon="0.363699">
        <ele>75.514</ele>
        <time>1970-01-01T03:29:53Z</time>
      </trkpt>
      <trkpt lat="40.325456" lon="0.363645">
        <ele>76.857</ele>
        <time>1970-01-01T03:29:54Z</time>
      </trkpt>
      <trkpt lat="40.325461" lon="0.363590">
        <ele>78.000</ele>
        <time>1970-01-01T03:29:55Z</time>
      </trkpt>
      <trkpt lat="40.325459" lon="0.363538">
        <ele>78.920</ele>
        <time>1970-01-01T03:29:56Z</time>
      </trkpt>
      <trkpt lat="40.325437" lon="0.363490">
        <ele>79.108</ele>
        <time>1970-01-01T03:29:57Z</time>
      </trkpt>
      <trkpt lat="40.325403" lon="0.363449">
        <ele>78.712</ele>
        <time>1970-01-01T03:29:58Z</time>
      </trkpt>
      <trkpt lat="40.325364" lon="0.363409">
        <ele>78.249</ele>
        <time>1970-01-01T03:29:59Z</time>
      </trkpt>
      <trkpt lat="40.325326" lon="0.363365">
        <ele>77.970</ele>
        <time>1970-01-01T03:30:00Z</time>
      </trkpt>
      <trkpt lat="40.325292" lon="0.363316">
        <ele>77.983</ele>
        <time>1970-01-01T03:30:01Z</time>
      </trkpt>
      <trkpt lat="40.325259" lon="0.363270">
        <ele>78.493</ele>
        <time>1970-01-01T03:30:02Z</time>
      </trkpt>
      <trkpt lat="40.325224" lon="0.363232">
        <ele>79.149</ele>
        <time>1970-01-01T03:30:03Z</time>
      </trkpt>
      <trkpt lat="40.325176" lon="0.363209">
        <ele>79.553</ele>
        <time>1970-01-01T03:30:04Z</time>
      </trkpt>
      <trkpt lat="40.325126" lon="0.363206">
        <ele>79.334</ele>
        <time>1970-01-01T03:30:05Z</time>
      </trkpt>
      <trkpt lat="40.325079" lon="0.363223">
        <ele>78.322</ele>
        <time>1970-01-01T03:30:06Z</time>
      </trkpt>
      <trkpt lat="40.325028" lon="0.363252">
        <ele>76.862</ele>
        <time>1970-01-01T03:30:07Z</time>
      </trkpt>
      <trkpt lat="40.324974" lon="0.363290">
        <ele>74.908</ele>
        <time>1970-01-01T03:30:08Z</time>
      </trkpt>
      <trkpt lat="40.324914" lon="0.363334">
        <ele>73.008</ele>
        <time>1970-01-01T03:30:09Z</time>
      </trkpt>
      <trkpt lat="40.324850" lon="0.363374">
        <ele>71.819</ele>
        <time>1970-01-01T03:30:10Z</time>
      </trkpt>
      <trkpt lat="40.324781" lon="0.363410">
        <ele>70.686</ele>
        <time>1970-01-01T03:30:11Z</time>
      </trkpt>
      <trkpt lat="40.324714" lon="0.363437">
        <ele>69.697</ele>
        <time>1970-01-01T03:30:12Z</time>
      </trkpt>
      <trkpt lat="40.324651" lon="0.363462">
        <ele>68.530</ele>
        <time>1970-01-01T03:30:13Z</time>
      </trkpt>
      <trkpt lat="40.324593" lon="0.363478">
        <ele>67.650</ele>
        <time>1970-01-01T03:30:14Z</time>
      </trkpt>
      <trkpt lat="40.324539" lon="0.363489">
        <ele>66.896</ele>
        <time>1970-01-01T03:30:15Z</time>
      </trkpt>
      <trkpt lat="40.324486" lon="0.363492">
        <ele>66.470</ele>
        <time>1970-01-01T03:30:16Z</time>
      </trkpt>
      <trkpt lat="40.324432" lon="0.363487">
        <ele>66.241</ele>
        <time>1970-01-01T03:30:17Z</time>
      </trkpt>
      <trkpt lat="40.324378" lon="0.363475">
        <ele>66.288</ele>
        <time>1970-01-01T03:30:18Z</time>
      </trkpt>
      <trkpt lat="40.324325" lon="0.363458">
        <ele>66.324</ele>
        <time>1970-01-01T03:30:19Z</time>
      </trkpt>
      <trkpt lat="40.324272" lon="0.363436">
        <ele>66.726</ele>
        <time>1970-01-01T03:30:20Z</time>
      </trkpt>
      <trkpt lat="40.324222" lon="0.363410">
        <ele>67.308</ele>
        <time>1970-01-01T03:30:21Z</time>
      </trkpt>
      <trkpt lat="40.324174" lon="0.363381">
        <ele>68.025</ele>
        <time>1970-01-01T03:30:22Z</time>
      </trkpt>
      <trkpt lat="40.324127" lon="0.363351">
        <ele>69.232</ele>
        <time>1970-01-01T03:30:23Z</time>
      </trkpt>
      <trkpt lat="40.324082" lon="0.363320">
        <ele>70.533</ele>
        <time>1970-01-01T03:30:24Z</time>
      </trkpt>
      <trkpt lat="40.324040" lon="0.363289">
        <ele>71.536</ele>
        <time>1970-01-01T03:30:25Z</time>
      </trkpt>
      <trkpt lat="40.323998" lon="0.363262">
        <ele>72.466</ele>
        <time>1970-01-01T03:30:26Z</time>
      </trkpt>
      <trkpt lat="40.323953" lon="0.363239">
        <ele>73.012</ele>
        <time>1970-01-01T03:30:27Z</time>
      </trkpt>
      <trkpt lat="40.323907" lon="0.363221">
        <ele>73.336</ele>
        <time>1970-01-01T03:30:28Z</time>
      </trkpt>
      <trkpt lat="40.323859" lon="0.363207">
        <ele>73.427</ele>
        <time>1970-01-01T03:30:29Z</time>
      </trkpt>
      <trkpt lat="40.323809" lon="0.363199">
        <ele>73.126</ele>
        <time>1970-01-01T03:30:30Z</time>
      </trkpt>
      <trkpt lat="40.323757" lon="0.363196">
        <ele>72.847</ele>
        <time>1970-01-01T03:30:31Z</time>
      </trkpt>
      <trkpt lat="40.323703" lon="0.363203">
        <ele>72.111</ele>
        <time>1970-01-01T03:30:32Z</time>
      </trkpt>
      <trkpt lat="40.323653" lon="0.363219">
        <ele>71.108</ele>
        <time>1970-01-01T03:30:33Z</time>
      </trkpt>
      <trkpt lat="40.323605" lon="0.363237">
        <ele>70.079</ele>
        <time>1970-01-01T03:30:34Z</time>
      </trkpt>
      <trkpt lat="40.323558" lon="0.363256">
        <ele>68.856</ele>
        <time>1970-01-01T03:30:35Z</time>
      </trkpt>
      <trkpt lat="40.323513" lon="0.363270">
        <ele>67.897</ele>
        <time>1970-01-01T03:30:36Z</time>
      </trkpt>
      <trkpt lat="40.323468" lon="0.363280">
        <ele>67.050</ele>
        <time>1970-01-01T03:30:37Z</time>
      </trkpt>
      <trkpt lat="40.323425" lon="0.363285">
        <ele>66.330</ele>
        <time>1970-01-01T03:30:38Z</time>
      </trkpt>
      <trkpt lat="40.323383" lon="0.363286">
        <ele>65.876</ele>
        <time>1970-01-01T03:30:39Z</time>
      </trkpt>
      <trkpt lat="40.323338" lon="0.363282">
        <ele>65.380</ele>
        <time>1970-01-01T03:30:40Z</time>
      </trkpt>
      <trkpt lat="40.323293" lon="0.363274">
        <ele>65.141</ele>
        <time>1970-01-01T03:30:41Z</time>
      </trkpt>
      <trkpt lat="40.323249" lon="0.363261">
        <ele>65.095</ele>
        <time>1970-01-01T03:30:42Z</time>
      </trkpt>
      <trkpt lat="40.323201" lon="0.363245">
        <ele>64.849</ele>
        <time>1970-01-01T03:30:43Z</time>
      </trkpt>
      <trkpt lat="40.323154" lon="0.363230">
        <ele>64.623</ele>
        <time>1970-01-01T03:30:44Z</time>
      </trkpt>
      <trkpt lat="40.323110" lon="0.363216">
        <ele>64.308</ele>
        <time>1970-01-01T03:30:45Z</time>
      </trkpt>
      <trkpt lat="40.323067" lon="0.363201">
        <ele>64.056</ele>
        <time>1970-01-01T03:30:46Z</time>
      </trkpt>
      <trkpt lat="40.323027" lon="0.363179">
        <ele>63.993</ele>
        <time>1970-01-01T03:30:47Z</time>
      </trkpt>
      <trkpt lat="40.322992" lon="0.363149">
        <ele>63.874</ele>
        <time>1970-01-01T03:30:48Z</time>
      </trkpt>
      <trkpt lat="40.322960" lon="0.363116">
        <ele>63.837</ele>
        <time>1970-01-01T03:30:49Z</time>
      </trkpt>
      <trkpt lat="40.322932" lon="0.363081">
        <ele>63.917</ele>
        <time>1970-01-01T03:30:50Z</time>
      </trkpt>
      <trkpt lat="40.322908" lon="0.363041">
        <ele>63.963</ele>
        <time>1970-01-01T03:30:51Z</time>
      </trkpt>
      <trkpt lat="40.322876" lon="0.363001">
        <ele>63.367</ele>
        <time>1970-01-01T03:30:52Z</time>
      </trkpt>
      <trkpt lat="40.322838" lon="0.362972">
        <ele>62.568</ele>
        <time>1970-01-01T03:30:53Z</time>
      </trkpt>
      <trkpt lat="40.322793" lon="0.362953">
        <ele>61.616</ele>
        <time>1970-01-01T03:30:54Z</time>
      </trkpt>
      <trkpt lat="40.322741" lon="0.362942">
        <ele>60.776</ele>
        <time>1970-01-01T03:30:55Z</time>
      </trkpt>
      <trkpt lat="40.322681" lon="0.362935">
        <ele>59.913</ele>
        <time>1970-01-01T03:30:56Z</time>
      </trkpt>
      <trkpt lat="40.322620" lon="0.362932">
        <ele>59.108</ele>
        <time>1970-01-01T03:30:57Z</time>
      </trkpt>
      <trkpt lat="40.322558" lon="0.362927">
        <ele>58.378</ele>
        <time>1970-01-01T03:30:58Z</time>
      </trkpt>
      <trkpt lat="40.322498" lon="0.362920">
        <ele>57.575</ele>
        <time>1970-01-01T03:30:59Z</time>
      </trkpt>
      <trkpt lat="40.322436" lon="0.362910">
        <ele>57.266</ele>
        <time>1970-01-01T03:31:00Z</time>
      </trkpt>
      <trkpt lat="40.322374" lon="0.362903">
        <ele>57.049</ele>
        <time>1970-01-01T03:31:01Z</time>
      </trkpt>
      <trkpt lat="40.322311" lon="0.362895">
        <ele>56.789</ele>
        <time>1970-01-01T03:31:02Z</time>
      </trkpt>
      <trkpt lat="40.322248" lon="0.362886">
        <ele>56.515</ele>
        <time>1970-01-01T03:31:03Z</time>
      </trkpt>
      <trkpt lat="40.322185" lon="0.362877">
        <ele>55.919</ele>
        <time>1970-01-01T03:31:04Z</time>
      </trkpt>
      <trkpt lat="40.322120" lon="0.362868">
        <ele>55.050</ele>
        <time>1970-01-01T03:31:05Z</time>
      </trkpt>
      <trkpt lat="40.322054" lon="0.362863">
        <ele>54.179</ele>
        <time>1970-01-01T03:31:06Z</time>
      </trkpt>
      <trkpt lat="40.321990" lon="0.362861">
        <ele>53.205</ele>
        <time>1970-01-01T03:31:07Z</time>
      </trkpt>
      <trkpt lat="40.321923" lon="0.362863">
        <ele>52.125</ele>
        <time>1970-01-01T03:31:08Z</time>
      </trkpt>
      <trkpt lat="40.321856" lon="0.362869">
        <ele>50.508</ele>
        <time>1970-01-01T03:31:09Z</time>
      </trkpt>
      <trkpt lat="40.321789" lon="0.362874">
        <ele>48.964</ele>
        <time>1970-01-01T03:31:10Z</time>
      </trkpt>
      <trkpt lat="40.321721" lon="0.362881">
        <ele>47.341</ele>
        <time>1970-01-01T03:31:11Z</time>
      </trkpt>
      <trkpt lat="40.321654" lon="0.362888">
        <ele>45.692</ele>
        <time>1970-01-01T03:31:12Z</time>
      </trkpt>
      <trkpt lat="40.321589" lon="0.362895">
        <ele>43.495</ele>
        <time>1970-01-01T03:31:13Z</time>
      </trkpt>
      <trkpt lat="40.321528" lon="0.362907">
        <ele>41.335</ele>
        <time>1970-01-01T03:31:14Z</time>
      </trkpt>
      <trkpt lat="40.321461" lon="0.362917">
        <ele>39.011</ele>
        <time>1970-01-01T03:31:15Z</time>
      </trkpt>
      <trkpt lat="40.321393" lon="0.362931">
        <ele>36.645</ele>
        <time>1970-01-01T03:31:16Z</time>
      </trkpt>
      <trkpt lat="40.321332" lon="0.362954">
        <ele>35.426</ele>
        <time>1970-01-01T03:31:17Z</time>
      </trkpt>
      <trkpt lat="40.321270" lon="0.362977">
        <ele>34.179</ele>
        <time>1970-01-01T03:31:18Z</time>
      </trkpt>
      <trkpt lat="40.321217" lon="0.363004">
        <ele>32.805</ele>
        <time>1970-01-01T03:31:19Z</time>
      </trkpt>
      <trkpt lat="40.321165" lon="0.363016">
        <ele>31.725</ele>
        <time>1970-01-01T03:31:20Z</time>
      </trkpt>
      <trkpt lat="40.321120" lon="0.363003">
        <ele>30.908</ele>
        <time>1970-01-01T03:31:21Z</time>
      </trkpt>
      <trkpt lat="40.321093" lon="0.362972">
        <ele>31.184</ele>
        <time>1970-01-01T03:31:22Z</time>
      </trkpt>
      <trkpt lat="40.321084" lon="0.362931">
        <ele>31.621</ele>
        <time>1970-01-01T03:31:23Z</time>
      </trkpt>
      <trkpt lat="40.321090" lon="0.362886">
        <ele>32.212</ele>
        <time>1970-01-01T03:31:24Z</time>
      </trkpt>
      <trkpt lat="40.321105" lon="0.362842">
        <ele>33.025</ele>
        <time>1970-01-01T03:31:25Z</time>
      </trkpt>
      <trkpt lat="40.321125" lon="0.362805">
        <ele>33.875</ele>
        <time>1970-01-01T03:31:26Z</time>
      </trkpt>
      <trkpt lat="40.321145" lon="0.362781">
        <ele>34.361</ele>
        <time>1970-01-01T03:31:27Z</time>
      </trkpt>
      <trkpt lat="40.321163" lon="0.362765">
        <ele>34.565</ele>
        <time>1970-01-01T03:31:28Z</time>
      </trkpt>
      <trkpt lat="40.321183" lon="0.362750">
        <ele>34.796</ele>
        <time>1970-01-01T03:31:29Z</time>
      </trkpt>
      <trkpt lat="40.321205" lon="0.362733">
        <ele>34.915</ele>
        <time>1970-01-01T03:31:30Z</time>
      </trkpt>
      <trkpt lat="40.321230" lon="0.362717">
        <ele>35.165</ele>
        <time>1970-01-01T03:31:31Z</time>
      </trkpt>
      <trkpt lat="40.321262" lon="0.362704">
        <ele>35.411</ele>
        <time>1970-01-01T03:31:32Z</time>
      </trkpt>
      <trkpt lat="40.321301" lon="0.362687">
        <ele>35.708</ele>
        <time>1970-01-01T03:31:33Z</time>
      </trkpt>
      <trkpt lat="40.321341" lon="0.362662">
        <ele>36.138</ele>
        <time>1970-01-01T03:31:34Z</time>
      </trkpt>
      <trkpt lat="40.321382" lon="0.362635">
        <ele>36.465</ele>
        <time>1970-01-01T03:31:35Z</time>
      </trkpt>
      <trkpt lat="40.321427" lon="0.362607">
        <ele>37.586</ele>
        <time>1970-01-01T03:31:36Z</time>
      </trkpt>
      <trkpt lat="40.321480" lon="0.362585">
        <ele>38.889</ele>
        <time>1970-01-01T03:31:37Z</time>
      </trkpt>
      <trkpt lat="40.321535" lon="0.362564">
        <ele>40.269</ele>
        <time>1970-01-01T03:31:38Z</time>
      </trkpt>
      <trkpt lat="40.321595" lon="0.362541">
        <ele>41.695</ele>
        <time>1970-01-01T03:31:39Z</time>
      </trkpt>
      <trkpt lat="40.321656" lon="0.362518">
        <ele>42.979</ele>
        <time>1970-01-01T03:31:40Z</time>
      </trkpt>
      <trkpt lat="40.321717" lon="0.362491">
        <ele>43.540</ele>
        <time>1970-01-01T03:31:41Z</time>
      </trkpt>
      <trkpt lat="40.321777" lon="0.362464">
        <ele>43.974</ele>
        <time>1970-01-01T03:31:42Z</time>
      </trkpt>
      <trkpt lat="40.321838" lon="0.362439">
        <ele>44.356</ele>
        <time>1970-01-01T03:31:43Z</time>
      </trkpt>
      <trkpt lat="40.321898" lon="0.362418">
        <ele>44.821</ele>
        <time>1970-01-01T03:31:44Z</time>
      </trkpt>
      <trkpt lat="40.321960" lon="0.362401">
        <ele>45.408</ele>
        <time>1970-01-01T03:31:45Z</time>
      </trkpt>
      <trkpt lat="40.322015" lon="0.362381">
        <ele>45.624</ele>
        <time>1970-01-01T03:31:46Z</time>
      </trkpt>
      <trkpt lat="40.322056" lon="0.362349">
        <ele>45.571</ele>
        <time>1970-01-01T03:31:47Z</time>
      </trkpt>
      <trkpt lat="40.322077" lon="0.362307">
        <ele>45.052</ele>
        <time>1970-01-01T03:31:48Z</time>
      </trkpt>
      <trkpt lat="40.322054" lon="0.362276">
        <ele>44.245</ele>
        <time>1970-01-01T03:31:49Z</time>
      </trkpt>
      <trkpt lat="40.322013" lon="0.362265">
        <ele>43.585</ele>
        <time>1970-01-01T03:31:50Z</time>
      </trkpt>
      <trkpt lat="40.321959" lon="0.362271">
        <ele>43.021</ele>
        <time>1970-01-01T03:31:51Z</time>
      </trkpt>
      <trkpt lat="40.321897" lon="0.362285">
        <ele>42.395</ele>
        <time>1970-01-01T03:31:52Z</time>
      </trkpt>
      <trkpt lat="40.321830" lon="0.362299">
        <ele>41.466</ele>
        <time>1970-01-01T03:31:53Z</time>
      </trkpt>
      <trkpt lat="40.321753" lon="0.362309">
        <ele>40.368</ele>
        <time>1970-01-01T03:31:54Z</time>
      </trkpt>
      <trkpt lat="40.321675" lon="0.362316">
        <ele>39.242</ele>
        <time>1970-01-01T03:31:55Z</time>
      </trkpt>
      <trkpt lat="40.321596" lon="0.362319">
        <ele>37.826</ele>
        <time>1970-01-01T03:31:56Z</time>
      </trkpt>
      <trkpt lat="40.321513" lon="0.362317">
        <ele>36.308</ele>
        <time>1970-01-01T03:31:57Z</time>
      </trkpt>
      <trkpt lat="40.321424" lon="0.362308">
        <ele>34.573</ele>
        <time>1970-01-01T03:31:58Z</time>
      </trkpt>
      <trkpt lat="40.321337" lon="0.362298">
        <ele>33.420</ele>
        <time>1970-01-01T03:31:59Z</time>
      </trkpt>
      <trkpt lat="40.321253" lon="0.362288">
        <ele>32.631</ele>
        <time>1970-01-01T03:32:00Z</time>
      </trkpt>
      <trkpt lat="40.321171" lon="0.362279">
        <ele>31.944</ele>
        <time>1970-01-01T03:32:01Z</time>
      </trkpt>
      <trkpt lat="40.321091" lon="0.362273">
        <ele>31.044</ele>
        <time>1970-01-01T03:32:02Z</time>
      </trkpt>
      <trkpt lat="40.321014" lon="0.362270">
        <ele>29.790</ele>
        <time>1970-01-01T03:32:03Z</time>
      </trkpt>
      <trkpt lat="40.320941" lon="0.362272">
        <ele>28.534</ele>
        <time>1970-01-01T03:32:04Z</time>
      </trkpt>
      <trkpt lat="40.320870" lon="0.362278">
        <ele>27.485</ele>
        <time>1970-01-01T03:32:05Z</time>
      </trkpt>
      <trkpt lat="40.320799" lon="0.362287">
        <ele>26.343</ele>
        <time>1970-01-01T03:32:06Z</time>
      </trkpt>
      <trkpt lat="40.320728" lon="0.362302">
        <ele>25.164</ele>
        <time>1970-01-01T03:32:07Z</time>
      </trkpt>
      <trkpt lat="40.320658" lon="0.362327">
        <ele>24.110</ele>
        <time>1970-01-01T03:32:08Z</time>
      </trkpt>
      <trkpt lat="40.320595" lon="0.362368">
        <ele>23.408</ele>
        <time>1970-01-01T03:32:09Z</time>
      </trkpt>
      <trkpt lat="40.320542" lon="0.362424">
        <ele>22.841</ele>
        <time>1970-01-01T03:32:10Z</time>
      </trkpt>
      <trkpt lat="40.320501" lon="0.362479">
        <ele>22.238</ele>
        <time>1970-01-01T03:32:11Z</time>
      </trkpt>
      <trkpt lat="40.320465" lon="0.362520">
        <ele>21.519</ele>
        <time>1970-01-01T03:32:12Z</time>
      </trkpt>
      <trkpt lat="40.320431" lon="0.362540">
        <ele>20.612</ele>
        <time>1970-01-01T03:32:13Z</time>
      </trkpt>
      <trkpt lat="40.320403" lon="0.362540">
        <ele>19.892</ele>
        <time>1970-01-01T03:32:14Z</time>
      </trkpt>
      <trkpt lat="40.320388" lon="0.362531">
        <ele>19.378</ele>
        <time>1970-01-01T03:32:15Z</time>
      </trkpt>
      <trkpt lat="40.320382" lon="0.362517">
        <ele>19.162</ele>
        <time>1970-01-01T03:32:16Z</time>
      </trkpt>
      <trkpt lat="40.320380" lon="0.362495">
        <ele>18.923</ele>
        <time>1970-01-01T03:32:17Z</time>
      </trkpt>
      <trkpt lat="40.320384" lon="0.362463">
        <ele>18.713</ele>
        <time>1970-01-01T03:32:18Z</time>
      </trkpt>
      <trkpt lat="40.320392" lon="0.362424">
        <ele>18.643</ele>
        <time>1970-01-01T03:32:19Z</time>
      </trkpt>
      <trkpt lat="40.320411" lon="0.362384">
        <ele>18.807</ele>
        <time>1970-01-01T03:32:20Z</time>
      </trkpt>
      <trkpt lat="40.320439" lon="0.362348">
        <ele>19.208</ele>
        <time>1970-01-01T03:32:21Z</time>
      </trkpt>
      <trkpt lat="40.320471" lon="0.362314">
        <ele>19.818</ele>
        <time>1970-01-01T03:32:22Z</time>
      </trkpt>
      <trkpt lat="40.320505" lon="0.362276">
        <ele>20.365</ele>
        <time>1970-01-01T03:32:23Z</time>
      </trkpt>
      <trkpt lat="40.320545" lon="0.362242">
        <ele>20.996</ele>
        <time>1970-01-01T03:32:24Z</time>
      </trkpt>
      <trkpt lat="40.320587" lon="0.362209">
        <ele>21.469</ele>
        <time>1970-01-01T03:32:25Z</time>
      </trkpt>
      <trkpt lat="40.320632" lon="0.362178">
        <ele>21.799</ele>
        <time>1970-01-01T03:32:26Z</time>
      </trkpt>
      <trkpt lat="40.320679" lon="0.362149">
        <ele>22.165</ele>
        <time>1970-01-01T03:32:27Z</time>
      </trkpt>
      <trkpt lat="40.320729" lon="0.362120">
        <ele>22.489</ele>
        <time>1970-01-01T03:32:28Z</time>
      </trkpt>
      <trkpt lat="40.320779" lon="0.362088">
        <ele>22.770</ele>
        <time>1970-01-01T03:32:29Z</time>
      </trkpt>
      <trkpt lat="40.320833" lon="0.362055">
        <ele>23.042</ele>
        <time>1970-01-01T03:32:30Z</time>
      </trkpt>
      <trkpt lat="40.320887" lon="0.362022">
        <ele>23.422</ele>
        <time>1970-01-01T03:32:31Z</time>
      </trkpt>
      <trkpt lat="40.320945" lon="0.361990">
        <ele>23.814</ele>
        <time>1970-01-01T03:32:32Z</time>
      </trkpt>
      <trkpt lat="40.321007" lon="0.361961">
        <ele>24.408</ele>
        <time>1970-01-01T03:32:33Z</time>
      </trkpt>
      <trkpt lat="40.321071" lon="0.361935">
        <ele>25.271</ele>
        <time>1970-01-01T03:32:34Z</time>
      </trkpt>
      <trkpt lat="40.321135" lon="0.361915">
        <ele>26.178</ele>
        <time>1970-01-01T03:32:35Z</time>
      </trkpt>
      <trkpt lat="40.321194" lon="0.361904">
        <ele>26.979</ele>
        <time>1970-01-01T03:32:36Z</time>
      </trkpt>
      <trkpt lat="40.321247" lon="0.361892">
        <ele>27.712</ele>
        <time>1970-01-01T03:32:37Z</time>
      </trkpt>
      <trkpt lat="40.321282" lon="0.361865">
        <ele>28.142</ele>
        <time>1970-01-01T03:32:38Z</time>
      </trkpt>
      <trkpt lat="40.321287" lon="0.361830">
        <ele>28.068</ele>
        <time>1970-01-01T03:32:39Z</time>
      </trkpt>
      <trkpt lat="40.321271" lon="0.361796">
        <ele>27.532</ele>
        <time>1970-01-01T03:32:40Z</time>
      </trkpt>
      <trkpt lat="40.321240" lon="0.361765">
        <ele>26.953</ele>
        <time>1970-01-01T03:32:41Z</time>
      </trkpt>
      <trkpt lat="40.321206" lon="0.361742">
        <ele>26.283</ele>
        <time>1970-01-01T03:32:42Z</time>
      </trkpt>
      <trkpt lat="40.321167" lon="0.361730">
        <ele>25.425</ele>
        <time>1970-01-01T03:32:43Z</time>
      </trkpt>
      <trkpt lat="40.321127" lon="0.361723">
        <ele>24.717</ele>
        <time>1970-01-01T03:32:44Z</time>
      </trkpt>
      <trkpt lat="40.321093" lon="0.361713">
        <ele>24.108</ele>
        <time>1970-01-01T03:32:45Z</time>
      </trkpt>
      <trkpt lat="40.321061" lon="0.361705">
        <ele>23.595</ele>
        <time>1970-01-01T03:32:46Z</time>
      </trkpt>
      <trkpt lat="40.321022" lon="0.361702">
        <ele>22.952</ele>
        <time>1970-01-01T03:32:47Z</time>
      </trkpt>
      <trkpt lat="40.320976" lon="0.361700">
        <ele>22.253</ele>
        <time>1970-01-01T03:32:48Z</time>
      </trkpt>
      <trkpt lat="40.320927" lon="0.361696">
        <ele>21.536</ele>
        <time>1970-01-01T03:32:49Z</time>
      </trkpt>
      <trkpt lat="40.320872" lon="0.361692">
        <ele>20.766</ele>
        <time>1970-01-01T03:32:50Z</time>
      </trkpt>
      <trkpt lat="40.320809" lon="0.361689">
        <ele>19.832</ele>
        <time>1970-01-01T03:32:51Z</time>
      </trkpt>
      <trkpt lat="40.320740" lon="0.361688">
        <ele>19.076</ele>
        <time>1970-01-01T03:32:52Z</time>
      </trkpt>
      <trkpt lat="40.320665" lon="0.361690">
        <ele>18.277</ele>
        <time>1970-01-01T03:32:53Z</time>
      </trkpt>
      <trkpt lat="40.320587" lon="0.361695">
        <ele>17.443</ele>
        <time>1970-01-01T03:32:54Z</time>
      </trkpt>
      <trkpt lat="40.320505" lon="0.361691">
        <ele>16.464</ele>
        <time>1970-01-01T03:32:55Z</time>
      </trkpt>
      <trkpt lat="40.320422" lon="0.361674">
        <ele>15.510</ele>
        <time>1970-01-01T03:32:56Z</time>
      </trkpt>
      <trkpt lat="40.320337" lon="0.361644">
        <ele>14.908</ele>
        <time>1970-01-01T03:32:57Z</time>
      </trkpt>
      <trkpt lat="40.320250" lon="0.361617">
        <ele>14.431</ele>
        <time>1970-01-01T03:32:58Z</time>
      </trkpt>
      <trkpt lat="40.320159" lon="0.361613">
        <ele>13.588</ele>
        <time>1970-01-01T03:32:59Z</time>
      </trkpt>
      <trkpt lat="40.320073" lon="0.361634">
        <ele>12.379</ele>
        <time>1970-01-01T03:33:00Z</time>
      </trkpt>
      <trkpt lat="40.319997" lon="0.361664">
        <ele>11.042</ele>
        <time>1970-01-01T03:33:01Z</time>
      </trkpt>
      <trkpt lat="40.319920" lon="0.361683">
        <ele>10.392</ele>
        <time>1970-01-01T03:33:02Z</time>
      </trkpt>
      <trkpt lat="40.319851" lon="0.361692">
        <ele>9.718</ele>
        <time>1970-01-01T03:33:03Z</time>
      </trkpt>
      <trkpt lat="40.319783" lon="0.361682">
        <ele>9.372</ele>
        <time>1970-01-01T03:33:04Z</time>
      </trkpt>
      <trkpt lat="40.319730" lon="0.361652">
        <ele>9.273</ele>
        <time>1970-01-01T03:33:05Z</time>
      </trkpt>
      <trkpt lat="40.319690" lon="0.361606">
        <ele>9.291</ele>
        <time>1970-01-01T03:33:06Z</time>
      </trkpt>
      <trkpt lat="40.319675" lon="0.361551">
        <ele>9.681</ele>
        <time>1970-01-01T03:33:07Z</time>
      </trkpt>
      <trkpt lat="40.319672" lon="0.361503">
        <ele>9.919</ele>
        <time>1970-01-01T03:33:08Z</time>
      </trkpt>
      <trkpt lat="40.319669" lon="0.361463">
        <ele>10.208</ele>
        <time>1970-01-01T03:33:09Z</time>
      </trkpt>
      <trkpt lat="40.319665" lon="0.361430">
        <ele>10.516</ele>
        <time>1970-01-01T03:33:10Z</time>
      </trkpt>
      <trkpt lat="40.319667" lon="0.361400">
        <ele>10.773</ele>
        <time>1970-01-01T03:33:11Z</time>
      </trkpt>
      <trkpt lat="40.319671" lon="0.361368">
        <ele>11.234</ele>
        <time>1970-01-01T03:33:12Z</time>
      </trkpt>
      <trkpt lat="40.319672" lon="0.361335">
        <ele>11.827</ele>
        <time>1970-01-01T03:33:13Z</time>
      </trkpt>
      <trkpt lat="40.319671" lon="0.361300">
        <ele>12.477</ele>
        <time>1970-01-01T03:33:14Z</time>
      </trkpt>
      <trkpt lat="40.319666" lon="0.361266">
        <ele>13.033</ele>
        <time>1970-01-01T03:33:15Z</time>
      </trkpt>
      <trkpt lat="40.319655" lon="0.361231">
        <ele>13.667</ele>
        <time>1970-01-01T03:33:16Z</time>
      </trkpt>
      <trkpt lat="40.319643" lon="0.361197">
        <ele>14.298</ele>
        <time>1970-01-01T03:33:17Z</time>
      </trkpt>
      <trkpt lat="40.319629" lon="0.361163">
        <ele>14.757</ele>
        <time>1970-01-01T03:33:18Z</time>
      </trkpt>
      <trkpt lat="40.319614" lon="0.361132">
        <ele>15.200</ele>
        <time>1970-01-01T03:33:19Z</time>
      </trkpt>
      <trkpt lat="40.319599" lon="0.361104">
        <ele>15.720</ele>
        <time>1970-01-01T03:33:20Z</time>
      </trkpt>
      <trkpt lat="40.319582" lon="0.361077">
        <ele>16.008</ele>
        <time>1970-01-01T03:33:21Z</time>
      </trkpt>
      <trkpt lat="40.319563" lon="0.361051">
        <ele>16.322</ele>
        <time>1970-01-01T03:33:22Z</time>
      </trkpt>
      <trkpt lat="40.319541" lon="0.361021">
        <ele>16.629</ele>
        <time>1970-01-01T03:33:23Z</time>
      </trkpt>
      <trkpt lat="40.319515" lon="0.360989">
        <ele>17.080</ele>
        <time>1970-01-01T03:33:24Z</time>
      </trkpt>
      <trkpt lat="40.319488" lon="0.360960">
        <ele>17.393</ele>
        <time>1970-01-01T03:33:25Z</time>
      </trkpt>
      <trkpt lat="40.319462" lon="0.360935">
        <ele>17.653</ele>
        <time>1970-01-01T03:33:26Z</time>
      </trkpt>
      <trkpt lat="40.319437" lon="0.360912">
        <ele>17.849</ele>
        <time>1970-01-01T03:33:27Z</time>
      </trkpt>
      <trkpt lat="40.319412" lon="0.360893">
        <ele>17.933</ele>
        <time>1970-01-01T03:33:28Z</time>
      </trkpt>
      <trkpt lat="40.319388" lon="0.360872">
        <ele>17.954</ele>
        <time>1970-01-01T03:33:29Z</time>
      </trkpt>
      <trkpt lat="40.319366" lon="0.360846">
        <ele>18.086</ele>
        <time>1970-01-01T03:33:30Z</time>
      </trkpt>
      <trkpt lat="40.319344" lon="0.360820">
        <ele>18.060</ele>
        <time>1970-01-01T03:33:31Z</time>
      </trkpt>
      <trkpt lat="40.319319" lon="0.360795">
        <ele>17.926</ele>
        <time>1970-01-01T03:33:32Z</time>
      </trkpt>
      <trkpt lat="40.319295" lon="0.360767">
        <ele>17.708</ele>
        <time>1970-01-01T03:33:33Z</time>
      </trkpt>
      <trkpt lat="40.319272" lon="0.360734">
        <ele>17.675</ele>
        <time>1970-01-01T03:33:34Z</time>
      </trkpt>
      <trkpt lat="40.319245" lon="0.360702">
        <ele>17.522</ele>
        <time>1970-01-01T03:33:35Z</time>
      </trkpt>
      <trkpt lat="40.319217" lon="0.360669">
        <ele>17.253</ele>
        <time>1970-01-01T03:33:36Z</time>
      </trkpt>
      <trkpt lat="40.319189" lon="0.360633">
        <ele>17.096</ele>
        <time>1970-01-01T03:33:37Z</time>
      </trkpt>
      <trkpt lat="40.319160" lon="0.360598">
        <ele>16.786</ele>
        <time>1970-01-01T03:33:38Z</time>
      </trkpt>
      <trkpt lat="40.319130" lon="0.360563">
        <ele>16.392</ele>
        <time>1970-01-01T03:33:39Z</time>
      </trkpt>
      <trkpt lat="40.319101" lon="0.360523">
        <ele>16.066</ele>
        <time>1970-01-01T03:33:40Z</time>
      </trkpt>
      <trkpt lat="40.319073" lon="0.360480">
        <ele>15.737</ele>
        <time>1970-01-01T03:33:41Z</time>
      </trkpt>
      <trkpt lat="40.319045" lon="0.360432">
        <ele>15.329</ele>
        <time>1970-01-01T03:33:42Z</time>
      </trkpt>
      <trkpt lat="40.319018" lon="0.360381">
        <ele>14.900</ele>
        <time>1970-01-01T03:33:43Z</time>
      </trkpt>
      <trkpt lat="40.318992" lon="0.360324">
        <ele>14.520</ele>
        <time>1970-01-01T03:33:44Z</time>
      </trkpt>
      <trkpt lat="40.318970" lon="0.360263">
        <ele>14.208</ele>
        <time>1970-01-01T03:33:45Z</time>
      </trkpt>
      <trkpt lat="40.318949" lon="0.360202">
        <ele>14.279</ele>
        <time>1970-01-01T03:33:46Z</time>
      </trkpt>
      <trkpt lat="40.318924" lon="0.360144">
        <ele>14.246</ele>
        <time>1970-01-01T03:33:47Z</time>
      </trkpt>
      <trkpt lat="40.318897" lon="0.360089">
        <ele>14.257</ele>
        <time>1970-01-01T03:33:48Z</time>
      </trkpt>
      <trkpt lat="40.318869" lon="0.360036">
        <ele>14.390</ele>
        <time>1970-01-01T03:33:49Z</time>
      </trkpt>
      <trkpt lat="40.318837" lon="0.359986">
        <ele>14.410</ele>
        <time>1970-01-01T03:33:50Z</time>
      </trkpt>
      <trkpt lat="40.318804" lon="0.359939">
        <ele>14.356</ele>
        <time>1970-01-01T03:33:51Z</time>
      </trkpt>
      <trkpt lat="40.318770" lon="0.359893">
        <ele>14.230</ele>
        <time>1970-01-01T03:33:52Z</time>
      </trkpt>
      <trkpt lat="40.318733" lon="0.359849">
        <ele>14.191</ele>
        <time>1970-01-01T03:33:53Z</time>
      </trkpt>
      <trkpt lat="40.318687" lon="0.359811">
        <ele>13.986</ele>
        <time>1970-01-01T03:33:54Z</time>
      </trkpt>
      <trkpt lat="40.318641" lon="0.359788">
        <ele>13.660</ele>
        <time>1970-01-01T03:33:55Z</time>
      </trkpt>
      <trkpt lat="40.318593" lon="0.359765">
        <ele>13.526</ele>
        <time>1970-01-01T03:33:56Z</time>
      </trkpt>
      <trkpt lat="40.318538" lon="0.359738">
        <ele>13.608</ele>
        <time>1970-01-01T03:33:57Z</time>
      </trkpt>
      <trkpt lat="40.318478" lon="0.359710">
        <ele>13.745</ele>
        <time>1970-01-01T03:33:58Z</time>
      </trkpt>
      <trkpt lat="40.318414" lon="0.359679">
        <ele>13.882</ele>
        <time>1970-01-01T03:33:59Z</time>
      </trkpt>
      <trkpt lat="40.318347" lon="0.359647">
        <ele>13.983</ele>
        <time>1970-01-01T03:34:00Z</time>
      </trkpt>
      <trkpt lat="40.318280" lon="0.359613">
        <ele>13.956</ele>
        <time>1970-01-01T03:34:01Z</time>
      </trkpt>
      <trkpt lat="40.318218" lon="0.359575">
        <ele>14.016</ele>
        <time>1970-01-01T03:34:02Z</time>
      </trkpt>
      <trkpt lat="40.318157" lon="0.359537">
        <ele>14.212</ele>
        <time>1970-01-01T03:34:03Z</time>
      </trkpt>
      <trkpt lat="40.318100" lon="0.359495">
        <ele>14.526</ele>
        <time>1970-01-01T03:34:04Z</time>
      </trkpt>
      <trkpt lat="40.318044" lon="0.359457">
        <ele>14.787</ele>
        <time>1970-01-01T03:34:05Z</time>
      </trkpt>
      <trkpt lat="40.317984" lon="0.359436">
        <ele>14.664</ele>
        <time>1970-01-01T03:34:06Z</time>
      </trkpt>
      <trkpt lat="40.317923" lon="0.359428">
        <ele>14.306</ele>
        <time>1970-01-01T03:34:07Z</time>
      </trkpt>
      <trkpt lat="40.317864" lon="0.359427">
        <ele>13.916</ele>
        <time>1970-01-01T03:34:08Z</time>
      </trkpt>
      <trkpt lat="40.317805" lon="0.359430">
        <ele>13.408</ele>
        <time>1970-01-01T03:34:09Z</time>
      </trkpt>
      <trkpt lat="40.317748" lon="0.359432">
        <ele>12.843</ele>
        <time>1970-01-01T03:34:10Z</time>
      </trkpt>
      <trkpt lat="40.317692" lon="0.359433">
        <ele>11.970</ele>
        <time>1970-01-01T03:34:11Z</time>
      </trkpt>
      <trkpt lat="40.317639" lon="0.359437">
        <ele>11.131</ele>
        <time>1970-01-01T03:34:12Z</time>
      </trkpt>
      <trkpt lat="40.317585" lon="0.359432">
        <ele>10.484</ele>
        <time>1970-01-01T03:34:13Z</time>
      </trkpt>
      <trkpt lat="40.317532" lon="0.359416">
        <ele>9.914</ele>
        <time>1970-01-01T03:34:14Z</time>
      </trkpt>
      <trkpt lat="40.317481" lon="0.359397">
        <ele>9.560</ele>
        <time>1970-01-01T03:34:15Z</time>
      </trkpt>
      <trkpt lat="40.317432" lon="0.359373">
        <ele>9.364</ele>
        <time>1970-01-01T03:34:16Z</time>
      </trkpt>
      <trkpt lat="40.317387" lon="0.359343">
        <ele>9.285</ele>
        <time>1970-01-01T03:34:17Z</time>
      </trkpt>
      <trkpt lat="40.317343" lon="0.359311">
        <ele>9.084</ele>
        <time>1970-01-01T03:34:18Z</time>
      </trkpt>
      <trkpt lat="40.317299" lon="0.359278">
        <ele>8.607</ele>
        <time>1970-01-01T03:34:19Z</time>
      </trkpt>
      <trkpt lat="40.317256" lon="0.359245">
        <ele>8.217</ele>
        <time>1970-01-01T03:34:20Z</time>
      </trkpt>
      <trkpt lat="40.317215" lon="0.359207">
        <ele>7.808</ele>
        <time>1970-01-01T03:34:21Z</time>
      </trkpt>
      <trkpt lat="40.317179" lon="0.359163">
        <ele>7.715</ele>
        <time>1970-01-01T03:34:22Z</time>
      </trkpt>
      <trkpt lat="40.317141" lon="0.359117">
        <ele>8.072</ele>
        <time>1970-01-01T03:34:23Z</time>
      </trkpt>
      <trkpt lat="40.317103" lon="0.359068">
        <ele>8.343</ele>
        <time>1970-01-01T03:34:24Z</time>
      </trkpt>
      <trkpt lat="40.317067" lon="0.359016">
        <ele>8.486</ele>
        <time>1970-01-01T03:34:25Z</time>
      </trkpt>
      <trkpt lat="40.317035" lon="0.358958">
        <ele>8.616</ele>
        <time>1970-01-01T03:34:26Z</time>
      </trkpt>
      <trkpt lat="40.317003" lon="0.358896">
        <ele>8.822</ele>
        <time>1970-01-01T03:34:27Z</time>
      </trkpt>
      <trkpt lat="40.316970" lon="0.358833">
        <ele>9.026</ele>
        <time>1970-01-01T03:34:28Z</time>
      </trkpt>
      <trkpt lat="40.316936" lon="0.358772">
        <ele>9.137</ele>
        <time>1970-01-01T03:34:29Z</time>
      </trkpt>
      <trkpt lat="40.316900" lon="0.358713">
        <ele>9.381</ele>
        <time>1970-01-01T03:34:30Z</time>
      </trkpt>
      <trkpt lat="40.316862" lon="0.358657">
        <ele>9.361</ele>
        <time>1970-01-01T03:34:31Z</time>
      </trkpt>
      <trkpt lat="40.316821" lon="0.358609">
        <ele>9.217</ele>
        <time>1970-01-01T03:34:32Z</time>
      </trkpt>
      <trkpt lat="40.316778" lon="0.358565">
        <ele>8.908</ele>
        <time>1970-01-01T03:34:33Z</time>
      </trkpt>
      <trkpt lat="40.316736" lon="0.358521">
        <ele>8.675</ele>
        <time>1970-01-01T03:34:34Z</time>
      </trkpt>
      <trkpt lat="40.316697" lon="0.358476">
        <ele>8.452</ele>
        <time>1970-01-01T03:34:35Z</time>
      </trkpt>
      <trkpt lat="40.316661" lon="0.358429">
        <ele>8.393</ele>
        <time>1970-01-01T03:34:36Z</time>
      </trkpt>
      <trkpt lat="40.316631" lon="0.358377">
        <ele>8.476</ele>
        <time>1970-01-01T03:34:37Z</time>
      </trkpt>
      <trkpt lat="40.316614" lon="0.358319">
        <ele>8.766</ele>
        <time>1970-01-01T03:34:38Z</time>
      </trkpt>
      <trkpt lat="40.316612" lon="0.358260">
        <ele>9.272</ele>
        <time>1970-01-01T03:34:39Z</time>
      </trkpt>
      <trkpt lat="40.316625" lon="0.358203">
        <ele>9.796</ele>
        <time>1970-01-01T03:34:40Z</time>
      </trkpt>
      <trkpt lat="40.316650" lon="0.358149">
        <ele>10.257</ele>
        <time>1970-01-01T03:34:41Z</time>
      </trkpt>
      <trkpt lat="40.316677" lon="0.358097">
        <ele>10.843</ele>
        <time>1970-01-01T03:34:42Z</time>
      </trkpt>
      <trkpt lat="40.316702" lon="0.358045">
        <ele>11.564</ele>
        <time>1970-01-01T03:34:43Z</time>
      </trkpt>
      <trkpt lat="40.316716" lon="0.357990">
        <ele>12.210</ele>
        <time>1970-01-01T03:34:44Z</time>
      </trkpt>
      <trkpt lat="40.316712" lon="0.357936">
        <ele>12.708</ele>
        <time>1970-01-01T03:34:45Z</time>
      </trkpt>
      <trkpt lat="40.316697" lon="0.357895">
        <ele>13.051</ele>
        <time>1970-01-01T03:34:46Z</time>
      </trkpt>
      <trkpt lat="40.316654" lon="0.357874">
        <ele>12.918</ele>
        <time>1970-01-01T03:34:47Z</time>
      </trkpt>
      <trkpt lat="40.316612" lon="0.357870">
        <ele>12.599</ele>
        <time>1970-01-01T03:34:48Z</time>
      </trkpt>
      <trkpt lat="40.316573" lon="0.357885">
        <ele>12.122</ele>
        <time>1970-01-01T03:34:49Z</time>
      </trkpt>
      <trkpt lat="40.316538" lon="0.357910">
        <ele>11.632</ele>
        <time>1970-01-01T03:34:50Z</time>
      </trkpt>
      <trkpt lat="40.316508" lon="0.357938">
        <ele>11.218</ele>
        <time>1970-01-01T03:34:51Z</time>
      </trkpt>
      <trkpt lat="40.316482" lon="0.357965">
        <ele>10.972</ele>
        <time>1970-01-01T03:34:52Z</time>
      </trkpt>
      <trkpt lat="40.316456" lon="0.357989">
        <ele>10.683</ele>
        <time>1970-01-01T03:34:53Z</time>
      </trkpt>
      <trkpt lat="40.316430" lon="0.358017">
        <ele>10.323</ele>
        <time>1970-01-01T03:34:54Z</time>
      </trkpt>
      <trkpt lat="40.316400" lon="0.358047">
        <ele>10.183</ele>
        <time>1970-01-01T03:34:55Z</time>
      </trkpt>
      <trkpt lat="40.316370" lon="0.358079">
        <ele>9.711</ele>
        <time>1970-01-01T03:34:56Z</time>
      </trkpt>
      <trkpt lat="40.316338" lon="0.358113">
        <ele>9.208</ele>
        <time>1970-01-01T03:34:57Z</time>
      </trkpt>
      <trkpt lat="40.316302" lon="0.358143">
        <ele>8.829</ele>
        <time>1970-01-01T03:34:58Z</time>
      </trkpt>
      <trkpt lat="40.316261" lon="0.358167">
        <ele>8.536</ele>
        <time>1970-01-01T03:34:59Z</time>
      </trkpt>
      <trkpt lat="40.316216" lon="0.358176">
        <ele>8.357</ele>
        <time>1970-01-01T03:35:00Z</time>
      </trkpt>
      <trkpt lat="40.316173" lon="0.358170">
        <ele>8.320</ele>
        <time>1970-01-01T03:35:01Z</time>
      </trkpt>
      <trkpt lat="40.316133" lon="0.358151">
        <ele>8.460</ele>
        <time>1970-01-01T03:35:02Z</time>
      </trkpt>
      <trkpt lat="40.316100" lon="0.358131">
        <ele>8.466</ele>
        <time>1970-01-01T03:35:03Z</time>
      </trkpt>
      <trkpt lat="40.316070" lon="0.358110">
        <ele>8.580</ele>
        <time>1970-01-01T03:35:04Z</time>
      </trkpt>
      <trkpt lat="40.316043" lon="0.358091">
        <ele>8.531</ele>
        <time>1970-01-01T03:35:05Z</time>
      </trkpt>
      <trkpt lat="40.316009" lon="0.358070">
        <ele>8.561</ele>
        <time>1970-01-01T03:35:06Z</time>
      </trkpt>
      <trkpt lat="40.315972" lon="0.358047">
        <ele>8.521</ele>
        <time>1970-01-01T03:35:07Z</time>
      </trkpt>
      <trkpt lat="40.315935" lon="0.358022">
        <ele>8.613</ele>
        <time>1970-01-01T03:35:08Z</time>
      </trkpt>
      <trkpt lat="40.315897" lon="0.358000">
        <ele>8.608</ele>
        <time>1970-01-01T03:35:09Z</time>
      </trkpt>
      <trkpt lat="40.315863" lon="0.357978">
        <ele>8.643</ele>
        <time>1970-01-01T03:35:10Z</time>
      </trkpt>
      <trkpt lat="40.315829" lon="0.357951">
        <ele>8.780</ele>
        <time>1970-01-01T03:35:11Z</time>
      </trkpt>
      <trkpt lat="40.315795" lon="0.357913">
        <ele>8.791</ele>
        <time>1970-01-01T03:35:12Z</time>
      </trkpt>
      <trkpt lat="40.315759" lon="0.357872">
        <ele>8.764</ele>
        <time>1970-01-01T03:35:13Z</time>
      </trkpt>
      <trkpt lat="40.315722" lon="0.357827">
        <ele>8.674</ele>
        <time>1970-01-01T03:35:14Z</time>
      </trkpt>
      <trkpt lat="40.315689" lon="0.357780">
        <ele>8.440</ele>
        <time>1970-01-01T03:35:15Z</time>
      </trkpt>
      <trkpt lat="40.315659" lon="0.357736">
        <ele>8.164</ele>
        <time>1970-01-01T03:35:16Z</time>
      </trkpt>
      <trkpt lat="40.315632" lon="0.357697">
        <ele>7.745</ele>
        <time>1970-01-01T03:35:17Z</time>
      </trkpt>
      <trkpt lat="40.315609" lon="0.357660">
        <ele>7.548</ele>
        <time>1970-01-01T03:35:18Z</time>
      </trkpt>
      <trkpt lat="40.315590" lon="0.357626">
        <ele>7.361</ele>
        <time>1970-01-01T03:35:19Z</time>
      </trkpt>
      <trkpt lat="40.315571" lon="0.357597">
        <ele>7.117</ele>
        <time>1970-01-01T03:35:20Z</time>
      </trkpt>
      <trkpt lat="40.315557" lon="0.357571">
        <ele>7.008</ele>
        <time>1970-01-01T03:35:21Z</time>
      </trkpt>
      <trkpt lat="40.315546" lon="0.357547">
        <ele>6.921</ele>
        <time>1970-01-01T03:35:22Z</time>
      </trkpt>
      <trkpt lat="40.315535" lon="0.357525">
        <ele>6.928</ele>
        <time>1970-01-01T03:35:23Z</time>
      </trkpt>
      <trkpt lat="40.315522" lon="0.357505">
        <ele>6.889</ele>
        <time>1970-01-01T03:35:24Z</time>
      </trkpt>
      <trkpt lat="40.315506" lon="0.357484">
        <ele>6.742</ele>
        <time>1970-01-01T03:35:25Z</time>
      </trkpt>
      <trkpt lat="40.315488" lon="0.357462">
        <ele>6.522</ele>
        <time>1970-01-01T03:35:26Z</time>
      </trkpt>
      <trkpt lat="40.315465" lon="0.357439">
        <ele>6.438</ele>
        <time>1970-01-01T03:35:27Z</time>
      </trkpt>
      <trkpt lat="40.315443" lon="0.357414">
        <ele>6.332</ele>
        <time>1970-01-01T03:35:28Z</time>
      </trkpt>
      <trkpt lat="40.315422" lon="0.357390">
        <ele>6.253</ele>
        <time>1970-01-01T03:35:29Z</time>
      </trkpt>
      <trkpt lat="40.315398" lon="0.357368">
        <ele>6.187</ele>
        <time>1970-01-01T03:35:30Z</time>
      </trkpt>
      <trkpt lat="40.315373" lon="0.357348">
        <ele>6.042</ele>
        <time>1970-01-01T03:35:31Z</time>
      </trkpt>
      <trkpt lat="40.315350" lon="0.357327">
        <ele>6.026</ele>
        <time>1970-01-01T03:35:32Z</time>
      </trkpt>
      <trkpt lat="40.315329" lon="0.357303">
        <ele>5.908</ele>
        <time>1970-01-01T03:35:33Z</time>
      </trkpt>
      <trkpt lat="40.315308" lon="0.357279">
        <ele>5.955</ele>
        <time>1970-01-01T03:35:34Z</time>
      </trkpt>
      <trkpt lat="40.315287" lon="0.357254">
        <ele>5.952</ele>
        <time>1970-01-01T03:35:35Z</time>
      </trkpt>
      <trkpt lat="40.315265" lon="0.357232">
        <ele>5.973</ele>
        <time>1970-01-01T03:35:36Z</time>
      </trkpt>
      <trkpt lat="40.315240" lon="0.357213">
        <ele>5.846</ele>
        <time>1970-01-01T03:35:37Z</time>
      </trkpt>
      <trkpt lat="40.315212" lon="0.357196">
        <ele>5.766</ele>
        <time>1970-01-01T03:35:38Z</time>
      </trkpt>
      <trkpt lat="40.315180" lon="0.357177">
        <ele>5.682</ele>
        <time>1970-01-01T03:35:39Z</time>
      </trkpt>
      <trkpt lat="40.315144" lon="0.357156">
        <ele>5.546</ele>
        <time>1970-01-01T03:35:40Z</time>
      </trkpt>
      <trkpt lat="40.315105" lon="0.357137">
        <ele>5.487</ele>
        <time>1970-01-01T03:35:41Z</time>
      </trkpt>
      <trkpt lat="40.315069" lon="0.357116">
        <ele>5.559</ele>
        <time>1970-01-01T03:35:42Z</time>
      </trkpt>
      <trkpt lat="40.315036" lon="0.357091">
        <ele>5.603</ele>
        <time>1970-01-01T03:35:43Z</time>
      </trkpt>
      <trkpt lat="40.315003" lon="0.357073">
        <ele>5.623</ele>
        <time>1970-01-01T03:35:44Z</time>
      </trkpt>
      <trkpt lat="40.314972" lon="0.357066">
        <ele>5.508</ele>
        <time>1970-01-01T03:35:45Z</time>
      </trkpt>
      <trkpt lat="40.314942" lon="0.357063">
        <ele>5.382</ele>
        <time>1970-01-01T03:35:46Z</time>
      </trkpt>
      <trkpt lat="40.314910" lon="0.357055">
        <ele>5.119</ele>
        <time>1970-01-01T03:35:47Z</time>
      </trkpt>
      <trkpt lat="40.314883" lon="0.357039">
        <ele>5.020</ele>
        <time>1970-01-01T03:35:48Z</time>
      </trkpt>
      <trkpt lat="40.314862" lon="0.357015">
        <ele>5.043</ele>
        <time>1970-01-01T03:35:49Z</time>
      </trkpt>
      <trkpt lat="40.314842" lon="0.356985">
        <ele>5.093</ele>
        <time>1970-01-01T03:35:50Z</time>
      </trkpt>
      <trkpt lat="40.314826" lon="0.356962">
        <ele>5.039</ele>
        <time>1970-01-01T03:35:51Z</time>
      </trkpt>
      <trkpt lat="40.314814" lon="0.356950">
        <ele>5.083</ele>
        <time>1970-01-01T03:35:52Z</time>
      </trkpt>
      <trkpt lat="40.314810" lon="0.356943">
        <ele>5.024</ele>
        <time>1970-01-01T03:35:53Z</time>
      </trkpt>
      <trkpt lat="40.314809" lon="0.356940">
        <ele>5.053</ele>
        <time>1970-01-01T03:35:54Z</time>
      </trkpt>
      <trkpt lat="40.314811" lon="0.356935">
        <ele>5.004</ele>
        <time>1970-01-01T03:35:55Z</time>
      </trkpt>
      <trkpt lat="40.314698" lon="0.356737">
        <ele>6.114</ele>
        <time>1970-01-01T03:39:45Z</time>
      </trkpt>
      <trkpt lat="40.314681" lon="0.356715">
        <ele>6.208</ele>
        <time>1970-01-01T03:39:46Z</time>
      </trkpt>
      <trkpt lat="40.314665" lon="0.356687">
        <ele>6.412</ele>
        <time>1970-01-01T03:39:47Z</time>
      </trkpt>
      <trkpt lat="40.314648" lon="0.356656">
        <ele>6.659</ele>
        <time>1970-01-01T03:39:48Z</time>
      </trkpt>
      <trkpt lat="40.314627" lon="0.356625">
        <ele>6.830</ele>
        <time>1970-01-01T03:39:49Z</time>
      </trkpt>
      <trkpt lat="40.314604" lon="0.356593">
        <ele>6.923</ele>
        <time>1970-01-01T03:39:50Z</time>
      </trkpt>
      <trkpt lat="40.314581" lon="0.356564">
        <ele>7.133</ele>
        <time>1970-01-01T03:39:51Z</time>
      </trkpt>
      <trkpt lat="40.314559" lon="0.356533">
        <ele>7.329</ele>
        <time>1970-01-01T03:39:52Z</time>
      </trkpt>
      <trkpt lat="40.314533" lon="0.356502">
        <ele>7.463</ele>
        <time>1970-01-01T03:39:53Z</time>
      </trkpt>
      <trkpt lat="40.314506" lon="0.356469">
        <ele>7.624</ele>
        <time>1970-01-01T03:39:54Z</time>
      </trkpt>
      <trkpt lat="40.314482" lon="0.356435">
        <ele>7.838</ele>
        <time>1970-01-01T03:39:55Z</time>
      </trkpt>
      <trkpt lat="40.314456" lon="0.356399">
        <ele>8.070</ele>
        <time>1970-01-01T03:39:56Z</time>
      </trkpt>
      <trkpt lat="40.314429" lon="0.356363">
        <ele>7.917</ele>
        <time>1970-01-01T03:39:57Z</time>
      </trkpt>
      <trkpt lat="40.314401" lon="0.356327">
        <ele>7.808</ele>
        <time>1970-01-01T03:39:58Z</time>
      </trkpt>
      <trkpt lat="40.314372" lon="0.356292">
        <ele>7.620</ele>
        <time>1970-01-01T03:39:59Z</time>
      </trkpt>
      <trkpt lat="40.314343" lon="0.356253">
        <ele>7.437</ele>
        <time>1970-01-01T03:40:00Z</time>
      </trkpt>
      <trkpt lat="40.314312" lon="0.356212">
        <ele>7.288</ele>
        <time>1970-01-01T03:40:01Z</time>
      </trkpt>
      <trkpt lat="40.314279" lon="0.356169">
        <ele>7.051</ele>
        <time>1970-01-01T03:40:02Z</time>
      </trkpt>
      <trkpt lat="40.314244" lon="0.356126">
        <ele>6.831</ele>
        <time>1970-01-01T03:40:03Z</time>
      </trkpt>
      <trkpt lat="40.314208" lon="0.356085">
        <ele>6.427</ele>
        <time>1970-01-01T03:40:04Z</time>
      </trkpt>
      <trkpt lat="40.314169" lon="0.356050">
        <ele>5.851</ele>
        <time>1970-01-01T03:40:05Z</time>
      </trkpt>
      <trkpt lat="40.314129" lon="0.356023">
        <ele>5.472</ele>
        <time>1970-01-01T03:40:06Z</time>
      </trkpt>
      <trkpt lat="40.314086" lon="0.355999">
        <ele>5.098</ele>
        <time>1970-01-01T03:40:07Z</time>
      </trkpt>
      <trkpt lat="40.314044" lon="0.355975">
        <ele>4.615</ele>
        <time>1970-01-01T03:40:08Z</time>
      </trkpt>
      <trkpt lat="40.314001" lon="0.355952">
        <ele>4.226</ele>
        <time>1970-01-01T03:40:09Z</time>
      </trkpt>
      <trkpt lat="40.313958" lon="0.355929">
        <ele>3.808</ele>
        <time>1970-01-01T03:40:10Z</time>
      </trkpt>
      <trkpt lat="40.313915" lon="0.355903">
        <ele>3.456</ele>
        <time>1970-01-01T03:40:11Z</time>
      </trkpt>
      <trkpt lat="40.313873" lon="0.355877">
        <ele>3.233</ele>
        <time>1970-01-01T03:40:12Z</time>
      </trkpt>
      <trkpt lat="40.313831" lon="0.355849">
        <ele>3.394</ele>
        <time>1970-01-01T03:40:13Z</time>
      </trkpt>
      <trkpt lat="40.313792" lon="0.355817">
        <ele>3.487</ele>
        <time>1970-01-01T03:40:14Z</time>
      </trkpt>
      <trkpt lat="40.313757" lon="0.355782">
        <ele>3.727</ele>
        <time>1970-01-01T03:40:15Z</time>
      </trkpt>
      <trkpt lat="40.313723" lon="0.355743">
        <ele>3.923</ele>
        <time>1970-01-01T03:40:16Z</time>
      </trkpt>
      <trkpt lat="40.313689" lon="0.355707">
        <ele>4.027</ele>
        <time>1970-01-01T03:40:17Z</time>
      </trkpt>
      <trkpt lat="40.313656" lon="0.355670">
        <ele>4.018</ele>
        <time>1970-01-01T03:40:18Z</time>
      </trkpt>
      <trkpt lat="40.313623" lon="0.355633">
        <ele>4.076</ele>
        <time>1970-01-01T03:40:19Z</time>
      </trkpt>
      <trkpt lat="40.313589" lon="0.355591">
        <ele>3.990</ele>
        <time>1970-01-01T03:40:20Z</time>
      </trkpt>
      <trkpt lat="40.313553" lon="0.355550">
        <ele>3.819</ele>
        <time>1970-01-01T03:40:21Z</time>
      </trkpt>
      <trkpt lat="40.313518" lon="0.355504">
        <ele>3.708</ele>
        <time>1970-01-01T03:40:22Z</time>
      </trkpt>
      <trkpt lat="40.313479" lon="0.355460">
        <ele>3.594</ele>
        <time>1970-01-01T03:40:23Z</time>
      </trkpt>
      <trkpt lat="40.313439" lon="0.355417">
        <ele>3.471</ele>
        <time>1970-01-01T03:40:24Z</time>
      </trkpt>
      <trkpt lat="40.313400" lon="0.355366">
        <ele>3.222</ele>
        <time>1970-01-01T03:40:25Z</time>
      </trkpt>
      <trkpt lat="40.313363" lon="0.355312">
        <ele>3.125</ele>
        <time>1970-01-01T03:40:26Z</time>
      </trkpt>
      <trkpt lat="40.313326" lon="0.355261">
        <ele>3.035</ele>
        <time>1970-01-01T03:40:27Z</time>
      </trkpt>
      <trkpt lat="40.313290" lon="0.355210">
        <ele>3.041</ele>
        <time>1970-01-01T03:40:28Z</time>
      </trkpt>
      <trkpt lat="40.313253" lon="0.355159">
        <ele>3.065</ele>
        <time>1970-01-01T03:40:29Z</time>
      </trkpt>
      <trkpt lat="40.313219" lon="0.355108">
        <ele>3.046</ele>
        <time>1970-01-01T03:40:30Z</time>
      </trkpt>
      <trkpt lat="40.313186" lon="0.355055">
        <ele>3.015</ele>
        <time>1970-01-01T03:40:31Z</time>
      </trkpt>
      <trkpt lat="40.313156" lon="0.355000">
        <ele>3.065</ele>
        <time>1970-01-01T03:40:32Z</time>
      </trkpt>
      <trkpt lat="40.313129" lon="0.354945">
        <ele>3.111</ele>
        <time>1970-01-01T03:40:33Z</time>
      </trkpt>
      <trkpt lat="40.313103" lon="0.354887">
        <ele>3.108</ele>
        <time>1970-01-01T03:40:34Z</time>
      </trkpt>
      <trkpt lat="40.313075" lon="0.354829">
        <ele>3.198</ele>
        <time>1970-01-01T03:40:35Z</time>
      </trkpt>
      <trkpt lat="40.313047" lon="0.354770">
        <ele>3.085</ele>
        <time>1970-01-01T03:40:36Z</time>
      </trkpt>
      <trkpt lat="40.313021" lon="0.354709">
        <ele>3.176</ele>
        <time>1970-01-01T03:40:37Z</time>
      </trkpt>
      <trkpt lat="40.312994" lon="0.354650">
        <ele>3.329</ele>
        <time>1970-01-01T03:40:38Z</time>
      </trkpt>
      <trkpt lat="40.312965" lon="0.354592">
        <ele>3.549</ele>
        <time>1970-01-01T03:40:39Z</time>
      </trkpt>
      <trkpt lat="40.312934" lon="0.354535">
        <ele>3.575</ele>
        <time>1970-01-01T03:40:40Z</time>
      </trkpt>
      <trkpt lat="40.312903" lon="0.354479">
        <ele>3.389</ele>
        <time>1970-01-01T03:40:41Z</time>
      </trkpt>
      <trkpt lat="40.312872" lon="0.354425">
        <ele>3.180</ele>
        <time>1970-01-01T03:40:42Z</time>
      </trkpt>
      <trkpt lat="40.312840" lon="0.354368">
        <ele>3.069</ele>
        <time>1970-01-01T03:40:43Z</time>
      </trkpt>
      <trkpt lat="40.312810" lon="0.354311">
        <ele>2.904</ele>
        <time>1970-01-01T03:40:44Z</time>
      </trkpt>
      <trkpt lat="40.312782" lon="0.354256">
        <ele>2.724</ele>
        <time>1970-01-01T03:40:45Z</time>
      </trkpt>
      <trkpt lat="40.312754" lon="0.354201">
        <ele>2.808</ele>
        <time>1970-01-01T03:40:46Z</time>
      </trkpt>
      <trkpt lat="40.312725" lon="0.354149">
        <ele>2.963</ele>
        <time>1970-01-01T03:40:47Z</time>
      </trkpt>
      <trkpt lat="40.312698" lon="0.354096">
        <ele>2.980</ele>
        <time>1970-01-01T03:40:48Z</time>
      </trkpt>
      <trkpt lat="40.312670" lon="0.354044">
        <ele>2.941</ele>
        <time>1970-01-01T03:40:49Z</time>
      </trkpt>
      <trkpt lat="40.312641" lon="0.353990">
        <ele>2.844</ele>
        <time>1970-01-01T03:40:50Z</time>
      </trkpt>
      <trkpt lat="40.312611" lon="0.353936">
        <ele>2.714</ele>
        <time>1970-01-01T03:40:51Z</time>
      </trkpt>
      <trkpt lat="40.312577" lon="0.353884">
        <ele>2.620</ele>
        <time>1970-01-01T03:40:52Z</time>
      </trkpt>
      <trkpt lat="40.312538" lon="0.353836">
        <ele>2.724</ele>
        <time>1970-01-01T03:40:53Z</time>
      </trkpt>
      <trkpt lat="40.312497" lon="0.353789">
        <ele>2.755</ele>
        <time>1970-01-01T03:40:54Z</time>
      </trkpt>
      <trkpt lat="40.312454" lon="0.353746">
        <ele>2.925</ele>
        <time>1970-01-01T03:40:55Z</time>
      </trkpt>
      <trkpt lat="40.312409" lon="0.353705">
        <ele>2.926</ele>
        <time>1970-01-01T03:40:56Z</time>
      </trkpt>
      <trkpt lat="40.312363" lon="0.353666">
        <ele>2.808</ele>
        <time>1970-01-01T03:40:57Z</time>
      </trkpt>
      <trkpt lat="40.312314" lon="0.353633">
        <ele>2.608</ele>
        <time>1970-01-01T03:40:58Z</time>
      </trkpt>
      <trkpt lat="40.312264" lon="0.353607">
        <ele>2.339</ele>
        <time>1970-01-01T03:40:59Z</time>
      </trkpt>
      <trkpt lat="40.312214" lon="0.353584">
        <ele>2.346</ele>
        <time>1970-01-01T03:41:00Z</time>
      </trkpt>
      <trkpt lat="40.312164" lon="0.353562">
        <ele>2.517</ele>
        <time>1970-01-01T03:41:01Z</time>
      </trkpt>
      <trkpt lat="40.312114" lon="0.353538">
        <ele>2.740</ele>
        <time>1970-01-01T03:41:02Z</time>
      </trkpt>
      <trkpt lat="40.312065" lon="0.353514">
        <ele>2.950</ele>
        <time>1970-01-01T03:41:03Z</time>
      </trkpt>
      <trkpt lat="40.312015" lon="0.353494">
        <ele>3.066</ele>
        <time>1970-01-01T03:41:04Z</time>
      </trkpt>
      <trkpt lat="40.311966" lon="0.353475">
        <ele>3.020</ele>
        <time>1970-01-01T03:41:05Z</time>
      </trkpt>
      <trkpt lat="40.311917" lon="0.353461">
        <ele>3.191</ele>
        <time>1970-01-01T03:41:06Z</time>
      </trkpt>
      <trkpt lat="40.311867" lon="0.353452">
        <ele>3.353</ele>
        <time>1970-01-01T03:41:07Z</time>
      </trkpt>
      <trkpt lat="40.311815" lon="0.353445">
        <ele>3.504</ele>
        <time>1970-01-01T03:41:08Z</time>
      </trkpt>
      <trkpt lat="40.311763" lon="0.353441">
        <ele>3.614</ele>
        <time>1970-01-01T03:41:09Z</time>
      </trkpt>
      <trkpt lat="40.311710" lon="0.353443">
        <ele>3.708</ele>
        <time>1970-01-01T03:41:10Z</time>
      </trkpt>
      <trkpt lat="40.311656" lon="0.353447">
        <ele>3.842</ele>
        <time>1970-01-01T03:41:11Z</time>
      </trkpt>
      <trkpt lat="40.311601" lon="0.353445">
        <ele>3.939</ele>
        <time>1970-01-01T03:41:12Z</time>
      </trkpt>
      <trkpt lat="40.311548" lon="0.353436">
        <ele>4.270</ele>
        <time>1970-01-01T03:41:13Z</time>
      </trkpt>
      <trkpt lat="40.311497" lon="0.353420">
        <ele>4.593</ele>
        <time>1970-01-01T03:41:14Z</time>
      </trkpt>
      <trkpt lat="40.311447" lon="0.353397">
        <ele>4.923</ele>
        <time>1970-01-01T03:41:15Z</time>
      </trkpt>
      <trkpt lat="40.311397" lon="0.353369">
        <ele>5.529</ele>
        <time>1970-01-01T03:41:16Z</time>
      </trkpt>
      <trkpt lat="40.311347" lon="0.353338">
        <ele>5.943</ele>
        <time>1970-01-01T03:41:17Z</time>
      </trkpt>
      <trkpt lat="40.311297" lon="0.353305">
        <ele>6.154</ele>
        <time>1970-01-01T03:41:18Z</time>
      </trkpt>
      <trkpt lat="40.311248" lon="0.353273">
        <ele>6.255</ele>
        <time>1970-01-01T03:41:19Z</time>
      </trkpt>
      <trkpt lat="40.311198" lon="0.353243">
        <ele>6.307</ele>
        <time>1970-01-01T03:41:20Z</time>
      </trkpt>
      <trkpt lat="40.311147" lon="0.353217">
        <ele>6.417</ele>
        <time>1970-01-01T03:41:21Z</time>
      </trkpt>
      <trkpt lat="40.311095" lon="0.353188">
        <ele>6.308</ele>
        <time>1970-01-01T03:41:22Z</time>
      </trkpt>
      <trkpt lat="40.311044" lon="0.353157">
        <ele>5.952</ele>
        <time>1970-01-01T03:41:23Z</time>
      </trkpt>
      <trkpt lat="40.310994" lon="0.353124">
        <ele>5.519</ele>
        <time>1970-01-01T03:41:24Z</time>
      </trkpt>
      <trkpt lat="40.310944" lon="0.353094">
        <ele>5.110</ele>
        <time>1970-01-01T03:41:25Z</time>
      </trkpt>
      <trkpt lat="40.310893" lon="0.353070">
        <ele>4.613</ele>
        <time>1970-01-01T03:41:26Z</time>
      </trkpt>
      <trkpt lat="40.310841" lon="0.353048">
        <ele>4.133</ele>
        <time>1970-01-01T03:41:27Z</time>
      </trkpt>
      <trkpt lat="40.310788" lon="0.353025">
        <ele>4.139</ele>
        <time>1970-01-01T03:41:28Z</time>
      </trkpt>
      <trkpt lat="40.310734" lon="0.352999">
        <ele>4.043</ele>
        <time>1970-01-01T03:41:29Z</time>
      </trkpt>
      <trkpt lat="40.310680" lon="0.352973">
        <ele>4.074</ele>
        <time>1970-01-01T03:41:30Z</time>
      </trkpt>
      <trkpt lat="40.310626" lon="0.352945">
        <ele>4.041</ele>
        <time>1970-01-01T03:41:31Z</time>
      </trkpt>
      <trkpt lat="40.310571" lon="0.352922">
        <ele>4.081</ele>
        <time>1970-01-01T03:41:32Z</time>
      </trkpt>
      <trkpt lat="40.310516" lon="0.352901">
        <ele>4.009</ele>
        <time>1970-01-01T03:41:33Z</time>
      </trkpt>
      <trkpt lat="40.310461" lon="0.352883">
        <ele>4.008</ele>
        <time>1970-01-01T03:41:34Z</time>
      </trkpt>
      <trkpt lat="40.310405" lon="0.352867">
        <ele>4.061</ele>
        <time>1970-01-01T03:41:35Z</time>
      </trkpt>
      <trkpt lat="40.310349" lon="0.352845">
        <ele>4.038</ele>
        <time>1970-01-01T03:41:36Z</time>
      </trkpt>
      <trkpt lat="40.310296" lon="0.352813">
        <ele>3.999</ele>
        <time>1970-01-01T03:41:37Z</time>
      </trkpt>
      <trkpt lat="40.310243" lon="0.352777">
        <ele>3.942</ele>
        <time>1970-01-01T03:41:38Z</time>
      </trkpt>
      <trkpt lat="40.310190" lon="0.352743">
        <ele>3.712</ele>
        <time>1970-01-01T03:41:39Z</time>
      </trkpt>
      <trkpt lat="40.310140" lon="0.352707">
        <ele>3.588</ele>
        <time>1970-01-01T03:41:40Z</time>
      </trkpt>
      <trkpt lat="40.310091" lon="0.352670">
        <ele>3.342</ele>
        <time>1970-01-01T03:41:41Z</time>
      </trkpt>
      <trkpt lat="40.310045" lon="0.352630">
        <ele>3.223</ele>
        <time>1970-01-01T03:41:42Z</time>
      </trkpt>
      <trkpt lat="40.309999" lon="0.352590">
        <ele>3.011</ele>
        <time>1970-01-01T03:41:43Z</time>
      </trkpt>
      <trkpt lat="40.309953" lon="0.352550">
        <ele>3.021</ele>
        <time>1970-01-01T03:41:44Z</time>
      </trkpt>
      <trkpt lat="40.309907" lon="0.352509">
        <ele>3.003</ele>
        <time>1970-01-01T03:41:45Z</time>
      </trkpt>
      <trkpt lat="40.309862" lon="0.352466">
        <ele>3.208</ele>
        <time>1970-01-01T03:41:46Z</time>
      </trkpt>
      <trkpt lat="40.309817" lon="0.352422">
        <ele>3.418</ele>
        <time>1970-01-01T03:41:47Z</time>
      </trkpt>
      <trkpt lat="40.309773" lon="0.352380">
        <ele>3.555</ele>
        <time>1970-01-01T03:41:48Z</time>
      </trkpt>
      <trkpt lat="40.309727" lon="0.352341">
        <ele>3.626</ele>
        <time>1970-01-01T03:41:49Z</time>
      </trkpt>
      <trkpt lat="40.309682" lon="0.352305">
        <ele>3.759</ele>
        <time>1970-01-01T03:41:50Z</time>
      </trkpt>
      <trkpt lat="40.309637" lon="0.352271">
        <ele>3.829</ele>
        <time>1970-01-01T03:41:51Z</time>
      </trkpt>
      <trkpt lat="40.309595" lon="0.352233">
        <ele>4.095</ele>
        <time>1970-01-01T03:41:52Z</time>
      </trkpt>
      <trkpt lat="40.309554" lon="0.352192">
        <ele>4.259</ele>
        <time>1970-01-01T03:41:53Z</time>
      </trkpt>
      <trkpt lat="40.309514" lon="0.352148">
        <ele>4.560</ele>
        <time>1970-01-01T03:41:54Z</time>
      </trkpt>
      <trkpt lat="40.309474" lon="0.352100">
        <ele>4.923</ele>
        <time>1970-01-01T03:41:55Z</time>
      </trkpt>
      <trkpt lat="40.309435" lon="0.352047">
        <ele>5.383</ele>
        <time>1970-01-01T03:41:56Z</time>
      </trkpt>
      <trkpt lat="40.309396" lon="0.351990">
        <ele>5.711</ele>
        <time>1970-01-01T03:41:57Z</time>
      </trkpt>
      <trkpt lat="40.309358" lon="0.351934">
        <ele>6.008</ele>
        <time>1970-01-01T03:41:58Z</time>
      </trkpt>
      <trkpt lat="40.309320" lon="0.351884">
        <ele>6.349</ele>
        <time>1970-01-01T03:41:59Z</time>
      </trkpt>
      <trkpt lat="40.309283" lon="0.351836">
        <ele>6.656</ele>
        <time>1970-01-01T03:42:00Z</time>
      </trkpt>
      <trkpt lat="40.309246" lon="0.351791">
        <ele>6.987</ele>
        <time>1970-01-01T03:42:01Z</time>
      </trkpt>
      <trkpt lat="40.309206" lon="0.351753">
        <ele>7.340</ele>
        <time>1970-01-01T03:42:02Z</time>
      </trkpt>
      <trkpt lat="40.309162" lon="0.351721">
        <ele>7.610</ele>
        <time>1970-01-01T03:42:03Z</time>
      </trkpt>
      <trkpt lat="40.309116" lon="0.351694">
        <ele>7.886</ele>
        <time>1970-01-01T03:42:04Z</time>
      </trkpt>
      <trkpt lat="40.309069" lon="0.351668">
        <ele>8.090</ele>
        <time>1970-01-01T03:42:05Z</time>
      </trkpt>
      <trkpt lat="40.309021" lon="0.351646">
        <ele>8.011</ele>
        <time>1970-01-01T03:42:06Z</time>
      </trkpt>
      <trkpt lat="40.308971" lon="0.351627">
        <ele>7.985</ele>
        <time>1970-01-01T03:42:07Z</time>
      </trkpt>
      <trkpt lat="40.308918" lon="0.351617">
        <ele>7.889</ele>
        <time>1970-01-01T03:42:08Z</time>
      </trkpt>
      <trkpt lat="40.308864" lon="0.351613">
        <ele>7.817</ele>
        <time>1970-01-01T03:42:09Z</time>
      </trkpt>
      <trkpt lat="40.308807" lon="0.351618">
        <ele>7.808</ele>
        <time>1970-01-01T03:42:10Z</time>
      </trkpt>
      <trkpt lat="40.308750" lon="0.351630">
        <ele>7.915</ele>
        <time>1970-01-01T03:42:11Z</time>
      </trkpt>
      <trkpt lat="40.308694" lon="0.351643">
        <ele>7.922</ele>
        <time>1970-01-01T03:42:12Z</time>
      </trkpt>
      <trkpt lat="40.308639" lon="0.351655">
        <ele>8.083</ele>
        <time>1970-01-01T03:42:13Z</time>
      </trkpt>
      <trkpt lat="40.308587" lon="0.351668">
        <ele>8.096</ele>
        <time>1970-01-01T03:42:14Z</time>
      </trkpt>
      <trkpt lat="40.308537" lon="0.351679">
        <ele>7.936</ele>
        <time>1970-01-01T03:42:15Z</time>
      </trkpt>
      <trkpt lat="40.308487" lon="0.351689">
        <ele>7.962</ele>
        <time>1970-01-01T03:42:16Z</time>
      </trkpt>
      <trkpt lat="40.308437" lon="0.351692">
        <ele>7.916</ele>
        <time>1970-01-01T03:42:17Z</time>
      </trkpt>
      <trkpt lat="40.308386" lon="0.351685">
        <ele>7.987</ele>
        <time>1970-01-01T03:42:18Z</time>
      </trkpt>
      <trkpt lat="40.308335" lon="0.351667">
        <ele>8.057</ele>
        <time>1970-01-01T03:42:19Z</time>
      </trkpt>
      <trkpt lat="40.308286" lon="0.351639">
        <ele>7.700</ele>
        <time>1970-01-01T03:42:20Z</time>
      </trkpt>
      <trkpt lat="40.308243" lon="0.351601">
        <ele>7.320</ele>
        <time>1970-01-01T03:42:21Z</time>
      </trkpt>
      <trkpt lat="40.308203" lon="0.351557">
        <ele>7.108</ele>
        <time>1970-01-01T03:42:22Z</time>
      </trkpt>
      <trkpt lat="40.308165" lon="0.351511">
        <ele>6.832</ele>
        <time>1970-01-01T03:42:23Z</time>
      </trkpt>
      <trkpt lat="40.308132" lon="0.351463">
        <ele>6.529</ele>
        <time>1970-01-01T03:42:24Z</time>
      </trkpt>
      <trkpt lat="40.308102" lon="0.351420">
        <ele>6.310</ele>
        <time>1970-01-01T03:42:25Z</time>
      </trkpt>
      <trkpt lat="40.308079" lon="0.351371">
        <ele>6.213</ele>
        <time>1970-01-01T03:42:26Z</time>
      </trkpt>
      <trkpt lat="40.308064" lon="0.351318">
        <ele>6.123</ele>
        <time>1970-01-01T03:42:27Z</time>
      </trkpt>
      <trkpt lat="40.308053" lon="0.351263">
        <ele>6.079</ele>
        <time>1970-01-01T03:42:28Z</time>
      </trkpt>
      <trkpt lat="40.308041" lon="0.351207">
        <ele>5.923</ele>
        <time>1970-01-01T03:42:29Z</time>
      </trkpt>
      <trkpt lat="40.308030" lon="0.351152">
        <ele>5.874</ele>
        <time>1970-01-01T03:42:30Z</time>
      </trkpt>
      <trkpt lat="40.308016" lon="0.351094">
        <ele>5.786</ele>
        <time>1970-01-01T03:42:31Z</time>
      </trkpt>
      <trkpt lat="40.308004" lon="0.351035">
        <ele>5.760</ele>
        <time>1970-01-01T03:42:32Z</time>
      </trkpt>
      <trkpt lat="40.307990" lon="0.350977">
        <ele>5.626</ele>
        <time>1970-01-01T03:42:33Z</time>
      </trkpt>
      <trkpt lat="40.307966" lon="0.350924">
        <ele>5.608</ele>
        <time>1970-01-01T03:42:34Z</time>
      </trkpt>
      <trkpt lat="40.307925" lon="0.350883">
        <ele>5.435</ele>
        <time>1970-01-01T03:42:35Z</time>
      </trkpt>
      <trkpt lat="40.307873" lon="0.350861">
        <ele>5.342</ele>
        <time>1970-01-01T03:42:36Z</time>
      </trkpt>
      <trkpt lat="40.307818" lon="0.350868">
        <ele>5.063</ele>
        <time>1970-01-01T03:42:37Z</time>
      </trkpt>
      <trkpt lat="40.307765" lon="0.350887">
        <ele>4.846</ele>
        <time>1970-01-01T03:42:38Z</time>
      </trkpt>
      <trkpt lat="40.307714" lon="0.350915">
        <ele>4.836</ele>
        <time>1970-01-01T03:42:39Z</time>
      </trkpt>
      <trkpt lat="40.307665" lon="0.350940">
        <ele>4.842</ele>
        <time>1970-01-01T03:42:40Z</time>
      </trkpt>
      <trkpt lat="40.307622" lon="0.350965">
        <ele>4.876</ele>
        <time>1970-01-01T03:42:41Z</time>
      </trkpt>
      <trkpt lat="40.307581" lon="0.350985">
        <ele>4.857</ele>
        <time>1970-01-01T03:42:42Z</time>
      </trkpt>
      <trkpt lat="40.307541" lon="0.350995">
        <ele>4.938</ele>
        <time>1970-01-01T03:42:43Z</time>
      </trkpt>
      <trkpt lat="40.307501" lon="0.350996">
        <ele>5.070</ele>
        <time>1970-01-01T03:42:44Z</time>
      </trkpt>
      <trkpt lat="40.307461" lon="0.350994">
        <ele>5.117</ele>
        <time>1970-01-01T03:42:45Z</time>
      </trkpt>
      <trkpt lat="40.307422" lon="0.350988">
        <ele>5.108</ele>
        <time>1970-01-01T03:42:46Z</time>
      </trkpt>
      <trkpt lat="40.307380" lon="0.350978">
        <ele>5.260</ele>
        <time>1970-01-01T03:42:47Z</time>
      </trkpt>
      <trkpt lat="40.307336" lon="0.350973">
        <ele>5.397</ele>
        <time>1970-01-01T03:42:48Z</time>
      </trkpt>
      <trkpt lat="40.307291" lon="0.350972">
        <ele>5.468</ele>
        <time>1970-01-01T03:42:49Z</time>
      </trkpt>
      <trkpt lat="40.307247" lon="0.350971">
        <ele>5.581</ele>
        <time>1970-01-01T03:42:50Z</time>
      </trkpt>
      <trkpt lat="40.307202" lon="0.350963">
        <ele>5.621</ele>
        <time>1970-01-01T03:42:51Z</time>
      </trkpt>
      <trkpt lat="40.307156" lon="0.350951">
        <ele>5.797</ele>
        <time>1970-01-01T03:42:52Z</time>
      </trkpt>
      <trkpt lat="40.307111" lon="0.350939">
        <ele>5.891</ele>
        <time>1970-01-01T03:42:53Z</time>
      </trkpt>
      <trkpt lat="40.307063" lon="0.350927">
        <ele>5.922</ele>
        <time>1970-01-01T03:42:54Z</time>
      </trkpt>
      <trkpt lat="40.307014" lon="0.350912">
        <ele>5.917</ele>
        <time>1970-01-01T03:42:55Z</time>
      </trkpt>
      <trkpt lat="40.306965" lon="0.350896">
        <ele>6.087</ele>
        <time>1970-01-01T03:42:56Z</time>
      </trkpt>
      <trkpt lat="40.306916" lon="0.350883">
        <ele>6.015</ele>
        <time>1970-01-01T03:42:57Z</time>
      </trkpt>
      <trkpt lat="40.306870" lon="0.350871">
        <ele>6.008</ele>
        <time>1970-01-01T03:42:58Z</time>
      </trkpt>
      <trkpt lat="40.306820" lon="0.350863">
        <ele>6.088</ele>
        <time>1970-01-01T03:42:59Z</time>
      </trkpt>
      <trkpt lat="40.306771" lon="0.350855">
        <ele>6.065</ele>
        <time>1970-01-01T03:43:00Z</time>
      </trkpt>
      <trkpt lat="40.306721" lon="0.350846">
        <ele>6.066</ele>
        <time>1970-01-01T03:43:01Z</time>
      </trkpt>
      <trkpt lat="40.306672" lon="0.350837">
        <ele>6.069</ele>
        <time>1970-01-01T03:43:02Z</time>
      </trkpt>
      <trkpt lat="40.306622" lon="0.350835">
        <ele>6.299</ele>
        <time>1970-01-01T03:43:03Z</time>
      </trkpt>
      <trkpt lat="40.306573" lon="0.350836">
        <ele>6.385</ele>
        <time>1970-01-01T03:43:04Z</time>
      </trkpt>
      <trkpt lat="40.306524" lon="0.350836">
        <ele>6.579</ele>
        <time>1970-01-01T03:43:05Z</time>
      </trkpt>
      <trkpt lat="40.306476" lon="0.350835">
        <ele>6.790</ele>
        <time>1970-01-01T03:43:06Z</time>
      </trkpt>
      <trkpt lat="40.306429" lon="0.350832">
        <ele>6.979</ele>
        <time>1970-01-01T03:43:07Z</time>
      </trkpt>
      <trkpt lat="40.306382" lon="0.350827">
        <ele>7.005</ele>
        <time>1970-01-01T03:43:08Z</time>
      </trkpt>
      <trkpt lat="40.306333" lon="0.350821">
        <ele>6.825</ele>
        <time>1970-01-01T03:43:09Z</time>
      </trkpt>
      <trkpt lat="40.306286" lon="0.350813">
        <ele>6.708</ele>
        <time>1970-01-01T03:43:10Z</time>
      </trkpt>
      <trkpt lat="40.306238" lon="0.350806">
        <ele>6.524</ele>
        <time>1970-01-01T03:43:11Z</time>
      </trkpt>
      <trkpt lat="40.306188" lon="0.350801">
        <ele>6.431</ele>
        <time>1970-01-01T03:43:12Z</time>
      </trkpt>
      <trkpt lat="40.306139" lon="0.350793">
        <ele>6.272</ele>
        <time>1970-01-01T03:43:13Z</time>
      </trkpt>
      <trkpt lat="40.306090" lon="0.350787">
        <ele>6.125</ele>
        <time>1970-01-01T03:43:14Z</time>
      </trkpt>
      <trkpt lat="40.306041" lon="0.350781">
        <ele>5.965</ele>
        <time>1970-01-01T03:43:15Z</time>
      </trkpt>
      <trkpt lat="40.305991" lon="0.350767">
        <ele>5.851</ele>
        <time>1970-01-01T03:43:16Z</time>
      </trkpt>
      <trkpt lat="40.305942" lon="0.350753">
        <ele>5.775</ele>
        <time>1970-01-01T03:43:17Z</time>
      </trkpt>
      <trkpt lat="40.305893" lon="0.350739">
        <ele>5.626</ele>
        <time>1970-01-01T03:43:18Z</time>
      </trkpt>
      <trkpt lat="40.305843" lon="0.350724">
        <ele>5.411</ele>
        <time>1970-01-01T03:43:19Z</time>
      </trkpt>
      <trkpt lat="40.305796" lon="0.350704">
        <ele>5.521</ele>
        <time>1970-01-01T03:43:20Z</time>
      </trkpt>
      <trkpt lat="40.305753" lon="0.350677">
        <ele>5.603</ele>
        <time>1970-01-01T03:43:21Z</time>
      </trkpt>
      <trkpt lat="40.305709" lon="0.350648">
        <ele>5.708</ele>
        <time>1970-01-01T03:43:22Z</time>
      </trkpt>
      <trkpt lat="40.305666" lon="0.350619">
        <ele>5.818</ele>
        <time>1970-01-01T03:43:23Z</time>
      </trkpt>
      <trkpt lat="40.305621" lon="0.350591">
        <ele>5.915</ele>
        <time>1970-01-01T03:43:24Z</time>
      </trkpt>
      <trkpt lat="40.305576" lon="0.350563">
        <ele>6.096</ele>
        <time>1970-01-01T03:43:25Z</time>
      </trkpt>
      <trkpt lat="40.305529" lon="0.350535">
        <ele>6.299</ele>
        <time>1970-01-01T03:43:26Z</time>
      </trkpt>
      <trkpt lat="40.305482" lon="0.350506">
        <ele>6.469</ele>
        <time>1970-01-01T03:43:27Z</time>
      </trkpt>
      <trkpt lat="40.305434" lon="0.350478">
        <ele>6.785</ele>
        <time>1970-01-01T03:43:28Z</time>
      </trkpt>
      <trkpt lat="40.305386" lon="0.350452">
        <ele>7.039</ele>
        <time>1970-01-01T03:43:29Z</time>
      </trkpt>
      <trkpt lat="40.305337" lon="0.350429">
        <ele>7.230</ele>
        <time>1970-01-01T03:43:30Z</time>
      </trkpt>
      <trkpt lat="40.305287" lon="0.350411">
        <ele>7.534</ele>
        <time>1970-01-01T03:43:31Z</time>
      </trkpt>
      <trkpt lat="40.305237" lon="0.350398">
        <ele>7.655</ele>
        <time>1970-01-01T03:43:32Z</time>
      </trkpt>
      <trkpt lat="40.305187" lon="0.350391">
        <ele>7.610</ele>
        <time>1970-01-01T03:43:33Z</time>
      </trkpt>
      <trkpt lat="40.305138" lon="0.350388">
        <ele>7.608</ele>
        <time>1970-01-01T03:43:34Z</time>
      </trkpt>
      <trkpt lat="40.305088" lon="0.350391">
        <ele>7.630</ele>
        <time>1970-01-01T03:43:35Z</time>
      </trkpt>
      <trkpt lat="40.305038" lon="0.350398">
        <ele>7.627</ele>
        <time>1970-01-01T03:43:36Z</time>
      </trkpt>
      <trkpt lat="40.304988" lon="0.350408">
        <ele>7.588</ele>
        <time>1970-01-01T03:43:37Z</time>
      </trkpt>
      <trkpt lat="40.304938" lon="0.350418">
        <ele>7.551</ele>
        <time>1970-01-01T03:43:38Z</time>
      </trkpt>
      <trkpt lat="40.304889" lon="0.350420">
        <ele>7.551</ele>
        <time>1970-01-01T03:43:39Z</time>
      </trkpt>
      <trkpt lat="40.304839" lon="0.350415">
        <ele>7.557</ele>
        <time>1970-01-01T03:43:40Z</time>
      </trkpt>
      <trkpt lat="40.304787" lon="0.350410">
        <ele>7.551</ele>
        <time>1970-01-01T03:43:41Z</time>
      </trkpt>
      <trkpt lat="40.304735" lon="0.350404">
        <ele>7.562</ele>
        <time>1970-01-01T03:43:42Z</time>
      </trkpt>
      <trkpt lat="40.304682" lon="0.350396">
        <ele>7.669</ele>
        <time>1970-01-01T03:43:43Z</time>
      </trkpt>
      <trkpt lat="40.304628" lon="0.350386">
        <ele>7.604</ele>
        <time>1970-01-01T03:43:44Z</time>
      </trkpt>
      <trkpt lat="40.304574" lon="0.350379">
        <ele>7.624</ele>
        <time>1970-01-01T03:43:45Z</time>
      </trkpt>
      <trkpt lat="40.304519" lon="0.350371">
        <ele>7.708</ele>
        <time>1970-01-01T03:43:46Z</time>
      </trkpt>
      <trkpt lat="40.304466" lon="0.350362">
        <ele>7.793</ele>
        <time>1970-01-01T03:43:47Z</time>
      </trkpt>
      <trkpt lat="40.304413" lon="0.350353">
        <ele>7.790</ele>
        <time>1970-01-01T03:43:48Z</time>
      </trkpt>
      <trkpt lat="40.304360" lon="0.350345">
        <ele>7.891</ele>
        <time>1970-01-01T03:43:49Z</time>
      </trkpt>
      <trkpt lat="40.304308" lon="0.350340">
        <ele>7.824</ele>
        <time>1970-01-01T03:43:50Z</time>
      </trkpt>
      <trkpt lat="40.304253" lon="0.350337">
        <ele>7.824</ele>
        <time>1970-01-01T03:43:51Z</time>
      </trkpt>
      <trkpt lat="40.304199" lon="0.350334">
        <ele>7.820</ele>
        <time>1970-01-01T03:43:52Z</time>
      </trkpt>
      <trkpt lat="40.304144" lon="0.350331">
        <ele>7.834</ele>
        <time>1970-01-01T03:43:53Z</time>
      </trkpt>
      <trkpt lat="40.304090" lon="0.350330">
        <ele>7.865</ele>
        <time>1970-01-01T03:43:54Z</time>
      </trkpt>
      <trkpt lat="40.304037" lon="0.350326">
        <ele>7.855</ele>
        <time>1970-01-01T03:43:55Z</time>
      </trkpt>
      <trkpt lat="40.303984" lon="0.350321">
        <ele>7.807</ele>
        <time>1970-01-01T03:43:56Z</time>
      </trkpt>
      <trkpt lat="40.303932" lon="0.350317">
        <ele>7.917</ele>
        <time>1970-01-01T03:43:57Z</time>
      </trkpt>
      <trkpt lat="40.303881" lon="0.350314">
        <ele>7.908</ele>
        <time>1970-01-01T03:43:58Z</time>
      </trkpt>
      <trkpt lat="40.303830" lon="0.350311">
        <ele>7.942</ele>
        <time>1970-01-01T03:43:59Z</time>
      </trkpt>
      <trkpt lat="40.303784" lon="0.350308">
        <ele>7.979</ele>
        <time>1970-01-01T03:44:00Z</time>
      </trkpt>
      <trkpt lat="40.303736" lon="0.350303">
        <ele>7.980</ele>
        <time>1970-01-01T03:44:01Z</time>
      </trkpt>
      <trkpt lat="40.303687" lon="0.350299">
        <ele>7.963</ele>
        <time>1970-01-01T03:44:02Z</time>
      </trkpt>
      <trkpt lat="40.303638" lon="0.350297">
        <ele>7.993</ele>
        <time>1970-01-01T03:44:03Z</time>
      </trkpt>
      <trkpt lat="40.303589" lon="0.350292">
        <ele>7.979</ele>
        <time>1970-01-01T03:44:04Z</time>
      </trkpt>
      <trkpt lat="40.303541" lon="0.350282">
        <ele>8.063</ele>
        <time>1970-01-01T03:44:05Z</time>
      </trkpt>
      <trkpt lat="40.303493" lon="0.350270">
        <ele>8.054</ele>
        <time>1970-01-01T03:44:06Z</time>
      </trkpt>
      <trkpt lat="40.303444" lon="0.350260">
        <ele>8.171</ele>
        <time>1970-01-01T03:44:07Z</time>
      </trkpt>
      <trkpt lat="40.303395" lon="0.350249">
        <ele>8.141</ele>
        <time>1970-01-01T03:44:08Z</time>
      </trkpt>
      <trkpt lat="40.303346" lon="0.350237">
        <ele>8.115</ele>
        <time>1970-01-01T03:44:09Z</time>
      </trkpt>
      <trkpt lat="40.303298" lon="0.350227">
        <ele>8.208</ele>
        <time>1970-01-01T03:44:10Z</time>
      </trkpt>
      <trkpt lat="40.303249" lon="0.350217">
        <ele>8.254</ele>
        <time>1970-01-01T03:44:11Z</time>
      </trkpt>
      <trkpt lat="40.303200" lon="0.350200">
        <ele>8.341</ele>
        <time>1970-01-01T03:44:12Z</time>
      </trkpt>
      <trkpt lat="40.303152" lon="0.350172">
        <ele>8.442</ele>
        <time>1970-01-01T03:44:13Z</time>
      </trkpt>
      <trkpt lat="40.303108" lon="0.350140">
        <ele>8.515</ele>
        <time>1970-01-01T03:44:14Z</time>
      </trkpt>
      <trkpt lat="40.303064" lon="0.350106">
        <ele>8.635</ele>
        <time>1970-01-01T03:44:15Z</time>
      </trkpt>
      <trkpt lat="40.303017" lon="0.350069">
        <ele>8.811</ele>
        <time>1970-01-01T03:44:16Z</time>
      </trkpt>
      <trkpt lat="40.302967" lon="0.350037">
        <ele>8.955</ele>
        <time>1970-01-01T03:44:17Z</time>
      </trkpt>
      <trkpt lat="40.302918" lon="0.350009">
        <ele>9.086</ele>
        <time>1970-01-01T03:44:18Z</time>
      </trkpt>
      <trkpt lat="40.302868" lon="0.349982">
        <ele>9.013</ele>
        <time>1970-01-01T03:44:19Z</time>
      </trkpt>
      <trkpt lat="40.302817" lon="0.349959">
        <ele>9.043</ele>
        <time>1970-01-01T03:44:20Z</time>
      </trkpt>
      <trkpt lat="40.302764" lon="0.349942">
        <ele>9.007</ele>
        <time>1970-01-01T03:44:21Z</time>
      </trkpt>
      <trkpt lat="40.302710" lon="0.349934">
        <ele>9.008</ele>
        <time>1970-01-01T03:44:22Z</time>
      </trkpt>
      <trkpt lat="40.302656" lon="0.349928">
        <ele>9.048</ele>
        <time>1970-01-01T03:44:23Z</time>
      </trkpt>
      <trkpt lat="40.302604" lon="0.349922">
        <ele>9.045</ele>
        <time>1970-01-01T03:44:24Z</time>
      </trkpt>
      <trkpt lat="40.302552" lon="0.349909">
        <ele>9.096</ele>
        <time>1970-01-01T03:44:25Z</time>
      </trkpt>
      <trkpt lat="40.302504" lon="0.349885">
        <ele>9.059</ele>
        <time>1970-01-01T03:44:26Z</time>
      </trkpt>
      <trkpt lat="40.302459" lon="0.349853">
        <ele>8.929</ele>
        <time>1970-01-01T03:44:27Z</time>
      </trkpt>
      <trkpt lat="40.302414" lon="0.349818">
        <ele>8.815</ele>
        <time>1970-01-01T03:44:28Z</time>
      </trkpt>
      <trkpt lat="40.302365" lon="0.349781">
        <ele>8.879</ele>
        <time>1970-01-01T03:44:29Z</time>
      </trkpt>
      <trkpt lat="40.302313" lon="0.349748">
        <ele>8.910</ele>
        <time>1970-01-01T03:44:30Z</time>
      </trkpt>
      <trkpt lat="40.302263" lon="0.349715">
        <ele>9.013</ele>
        <time>1970-01-01T03:44:31Z</time>
      </trkpt>
      <trkpt lat="40.302214" lon="0.349683">
        <ele>9.143</ele>
        <time>1970-01-01T03:44:32Z</time>
      </trkpt>
      <trkpt lat="40.302162" lon="0.349652">
        <ele>8.707</ele>
        <time>1970-01-01T03:44:33Z</time>
      </trkpt>
      <trkpt lat="40.302109" lon="0.349623">
        <ele>8.308</ele>
        <time>1970-01-01T03:44:34Z</time>
      </trkpt>
      <trkpt lat="40.302057" lon="0.349597">
        <ele>7.998</ele>
        <time>1970-01-01T03:44:35Z</time>
      </trkpt>
      <trkpt lat="40.302004" lon="0.349575">
        <ele>7.685</ele>
        <time>1970-01-01T03:44:36Z</time>
      </trkpt>
      <trkpt lat="40.301951" lon="0.349552">
        <ele>7.336</ele>
        <time>1970-01-01T03:44:37Z</time>
      </trkpt>
      <trkpt lat="40.301899" lon="0.349530">
        <ele>7.179</ele>
        <time>1970-01-01T03:44:38Z</time>
      </trkpt>
      <trkpt lat="40.301846" lon="0.349507">
        <ele>6.939</ele>
        <time>1970-01-01T03:44:39Z</time>
      </trkpt>
      <trkpt lat="40.301792" lon="0.349485">
        <ele>6.745</ele>
        <time>1970-01-01T03:44:40Z</time>
      </trkpt>
      <trkpt lat="40.301739" lon="0.349463">
        <ele>6.489</ele>
        <time>1970-01-01T03:44:41Z</time>
      </trkpt>
      <trkpt lat="40.301688" lon="0.349442">
        <ele>6.210</ele>
        <time>1970-01-01T03:44:42Z</time>
      </trkpt>
      <trkpt lat="40.301636" lon="0.349420">
        <ele>6.463</ele>
        <time>1970-01-01T03:44:43Z</time>
      </trkpt>
      <trkpt lat="40.301584" lon="0.349398">
        <ele>6.844</ele>
        <time>1970-01-01T03:44:44Z</time>
      </trkpt>
      <trkpt lat="40.301532" lon="0.349380">
        <ele>7.218</ele>
        <time>1970-01-01T03:44:45Z</time>
      </trkpt>
      <trkpt lat="40.301479" lon="0.349367">
        <ele>7.508</ele>
        <time>1970-01-01T03:44:46Z</time>
      </trkpt>
      <trkpt lat="40.301423" lon="0.349358">
        <ele>7.893</ele>
        <time>1970-01-01T03:44:47Z</time>
      </trkpt>
      <trkpt lat="40.301368" lon="0.349352">
        <ele>8.090</ele>
        <time>1970-01-01T03:44:48Z</time>
      </trkpt>
      <trkpt lat="40.301310" lon="0.349351">
        <ele>8.161</ele>
        <time>1970-01-01T03:44:49Z</time>
      </trkpt>
      <trkpt lat="40.301252" lon="0.349351">
        <ele>8.254</ele>
        <time>1970-01-01T03:44:50Z</time>
      </trkpt>
      <trkpt lat="40.301195" lon="0.349349">
        <ele>8.294</ele>
        <time>1970-01-01T03:44:51Z</time>
      </trkpt>
      <trkpt lat="40.301137" lon="0.349347">
        <ele>8.370</ele>
        <time>1970-01-01T03:44:52Z</time>
      </trkpt>
      <trkpt lat="40.301078" lon="0.349344">
        <ele>8.374</ele>
        <time>1970-01-01T03:44:53Z</time>
      </trkpt>
      <trkpt lat="40.301018" lon="0.349339">
        <ele>8.345</ele>
        <time>1970-01-01T03:44:54Z</time>
      </trkpt>
      <trkpt lat="40.300960" lon="0.349337">
        <ele>8.289</ele>
        <time>1970-01-01T03:44:55Z</time>
      </trkpt>
      <trkpt lat="40.300904" lon="0.349331">
        <ele>8.106</ele>
        <time>1970-01-01T03:44:56Z</time>
      </trkpt>
      <trkpt lat="40.300849" lon="0.349320">
        <ele>8.026</ele>
        <time>1970-01-01T03:44:57Z</time>
      </trkpt>
      <trkpt lat="40.300795" lon="0.349303">
        <ele>8.108</ele>
        <time>1970-01-01T03:44:58Z</time>
      </trkpt>
      <trkpt lat="40.300742" lon="0.349282">
        <ele>8.295</ele>
        <time>1970-01-01T03:44:59Z</time>
      </trkpt>
      <trkpt lat="40.300688" lon="0.349261">
        <ele>8.312</ele>
        <time>1970-01-01T03:45:00Z</time>
      </trkpt>
      <trkpt lat="40.300634" lon="0.349236">
        <ele>8.563</ele>
        <time>1970-01-01T03:45:01Z</time>
      </trkpt>
      <trkpt lat="40.300584" lon="0.349206">
        <ele>8.896</ele>
        <time>1970-01-01T03:45:02Z</time>
      </trkpt>
      <trkpt lat="40.300531" lon="0.349176">
        <ele>9.066</ele>
        <time>1970-01-01T03:45:03Z</time>
      </trkpt>
      <trkpt lat="40.300477" lon="0.349149">
        <ele>9.032</ele>
        <time>1970-01-01T03:45:04Z</time>
      </trkpt>
      <trkpt lat="40.300424" lon="0.349124">
        <ele>9.136</ele>
        <time>1970-01-01T03:45:05Z</time>
      </trkpt>
      <trkpt lat="40.300369" lon="0.349100">
        <ele>9.267</ele>
        <time>1970-01-01T03:45:06Z</time>
      </trkpt>
      <trkpt lat="40.300313" lon="0.349077">
        <ele>9.367</ele>
        <time>1970-01-01T03:45:07Z</time>
      </trkpt>
      <trkpt lat="40.300255" lon="0.349056">
        <ele>9.381</ele>
        <time>1970-01-01T03:45:08Z</time>
      </trkpt>
      <trkpt lat="40.300199" lon="0.349042">
        <ele>9.019</ele>
        <time>1970-01-01T03:45:09Z</time>
      </trkpt>
      <trkpt lat="40.300143" lon="0.349028">
        <ele>8.808</ele>
        <time>1970-01-01T03:45:10Z</time>
      </trkpt>
      <trkpt lat="40.300088" lon="0.349016">
        <ele>8.593</ele>
        <time>1970-01-01T03:45:11Z</time>
      </trkpt>
      <trkpt lat="40.300034" lon="0.348998">
        <ele>8.450</ele>
        <time>1970-01-01T03:45:12Z</time>
      </trkpt>
      <trkpt lat="40.299984" lon="0.348968">
        <ele>8.341</ele>
        <time>1970-01-01T03:45:13Z</time>
      </trkpt>
      <trkpt lat="40.299938" lon="0.348925">
        <ele>8.444</ele>
        <time>1970-01-01T03:45:14Z</time>
      </trkpt>
      <trkpt lat="40.299894" lon="0.348873">
        <ele>8.374</ele>
        <time>1970-01-01T03:45:15Z</time>
      </trkpt>
      <trkpt lat="40.299848" lon="0.348820">
        <ele>8.220</ele>
        <time>1970-01-01T03:45:16Z</time>
      </trkpt>
      <trkpt lat="40.299800" lon="0.348766">
        <ele>8.034</ele>
        <time>1970-01-01T03:45:17Z</time>
      </trkpt>
      <trkpt lat="40.299749" lon="0.348712">
        <ele>7.845</ele>
        <time>1970-01-01T03:45:18Z</time>
      </trkpt>
      <trkpt lat="40.299698" lon="0.348661">
        <ele>7.798</ele>
        <time>1970-01-01T03:45:19Z</time>
      </trkpt>
      <trkpt lat="40.299647" lon="0.348616">
        <ele>7.715</ele>
        <time>1970-01-01T03:45:20Z</time>
      </trkpt>
      <trkpt lat="40.299595" lon="0.348572">
        <ele>7.726</ele>
        <time>1970-01-01T03:45:21Z</time>
      </trkpt>
      <trkpt lat="40.299546" lon="0.348532">
        <ele>7.708</ele>
        <time>1970-01-01T03:45:22Z</time>
      </trkpt>
      <trkpt lat="40.299496" lon="0.348491">
        <ele>7.656</ele>
        <time>1970-01-01T03:45:23Z</time>
      </trkpt>
      <trkpt lat="40.299451" lon="0.348443">
        <ele>7.663</ele>
        <time>1970-01-01T03:45:24Z</time>
      </trkpt>
      <trkpt lat="40.299409" lon="0.348389">
        <ele>7.734</ele>
        <time>1970-01-01T03:45:25Z</time>
      </trkpt>
      <trkpt lat="40.299369" lon="0.348332">
        <ele>7.757</ele>
        <time>1970-01-01T03:45:26Z</time>
      </trkpt>
      <trkpt lat="40.299329" lon="0.348273">
        <ele>7.877</ele>
        <time>1970-01-01T03:45:27Z</time>
      </trkpt>
      <trkpt lat="40.299286" lon="0.348220">
        <ele>7.873</ele>
        <time>1970-01-01T03:45:28Z</time>
      </trkpt>
      <trkpt lat="40.299238" lon="0.348172">
        <ele>7.857</ele>
        <time>1970-01-01T03:45:29Z</time>
      </trkpt>
      <trkpt lat="40.299186" lon="0.348129">
        <ele>7.868</ele>
        <time>1970-01-01T03:45:30Z</time>
      </trkpt>
      <trkpt lat="40.299133" lon="0.348091">
        <ele>7.683</ele>
        <time>1970-01-01T03:45:31Z</time>
      </trkpt>
      <trkpt lat="40.299082" lon="0.348050">
        <ele>7.425</ele>
        <time>1970-01-01T03:45:32Z</time>
      </trkpt>
      <trkpt lat="40.299032" lon="0.348000">
        <ele>7.217</ele>
        <time>1970-01-01T03:45:33Z</time>
      </trkpt>
      <trkpt lat="40.298983" lon="0.347947">
        <ele>7.108</ele>
        <time>1970-01-01T03:45:34Z</time>
      </trkpt>
      <trkpt lat="40.298933" lon="0.347896">
        <ele>6.915</ele>
        <time>1970-01-01T03:45:35Z</time>
      </trkpt>
      <trkpt lat="40.298883" lon="0.347847">
        <ele>6.732</ele>
        <time>1970-01-01T03:45:36Z</time>
      </trkpt>
      <trkpt lat="40.298835" lon="0.347797">
        <ele>6.713</ele>
        <time>1970-01-01T03:45:37Z</time>
      </trkpt>
      <trkpt lat="40.298788" lon="0.347746">
        <ele>6.936</ele>
        <time>1970-01-01T03:45:38Z</time>
      </trkpt>
      <trkpt lat="40.298742" lon="0.347695">
        <ele>7.166</ele>
        <time>1970-01-01T03:45:39Z</time>
      </trkpt>
      <trkpt lat="40.298697" lon="0.347648">
        <ele>7.272</ele>
        <time>1970-01-01T03:45:40Z</time>
      </trkpt>
      <trkpt lat="40.298651" lon="0.347606">
        <ele>7.416</ele>
        <time>1970-01-01T03:45:41Z</time>
      </trkpt>
      <trkpt lat="40.298603" lon="0.347571">
        <ele>7.457</ele>
        <time>1970-01-01T03:45:42Z</time>
      </trkpt>
      <trkpt lat="40.298551" lon="0.347542">
        <ele>7.314</ele>
        <time>1970-01-01T03:45:43Z</time>
      </trkpt>
      <trkpt lat="40.298497" lon="0.347514">
        <ele>7.154</ele>
        <time>1970-01-01T03:45:44Z</time>
      </trkpt>
      <trkpt lat="40.298447" lon="0.347477">
        <ele>6.909</ele>
        <time>1970-01-01T03:45:45Z</time>
      </trkpt>
      <trkpt lat="40.298401" lon="0.347432">
        <ele>6.708</ele>
        <time>1970-01-01T03:45:46Z</time>
      </trkpt>
      <trkpt lat="40.298356" lon="0.347382">
        <ele>6.628</ele>
        <time>1970-01-01T03:45:47Z</time>
      </trkpt>
      <trkpt lat="40.298308" lon="0.347335">
        <ele>6.545</ele>
        <time>1970-01-01T03:45:48Z</time>
      </trkpt>
      <trkpt lat="40.298255" lon="0.347294">
        <ele>6.426</ele>
        <time>1970-01-01T03:45:49Z</time>
      </trkpt>
      <trkpt lat="40.298200" lon="0.347258">
        <ele>6.379</ele>
        <time>1970-01-01T03:45:50Z</time>
      </trkpt>
      <trkpt lat="40.298145" lon="0.347225">
        <ele>6.379</ele>
        <time>1970-01-01T03:45:51Z</time>
      </trkpt>
      <trkpt lat="40.298090" lon="0.347196">
        <ele>6.155</ele>
        <time>1970-01-01T03:45:52Z</time>
      </trkpt>
      <trkpt lat="40.298033" lon="0.347169">
        <ele>5.969</ele>
        <time>1970-01-01T03:45:53Z</time>
      </trkpt>
      <trkpt lat="40.297979" lon="0.347138">
        <ele>5.580</ele>
        <time>1970-01-01T03:45:54Z</time>
      </trkpt>
      <trkpt lat="40.297929" lon="0.347100">
        <ele>5.382</ele>
        <time>1970-01-01T03:45:55Z</time>
      </trkpt>
      <trkpt lat="40.297880" lon="0.347058">
        <ele>5.143</ele>
        <time>1970-01-01T03:45:56Z</time>
      </trkpt>
      <trkpt lat="40.297831" lon="0.347018">
        <ele>5.017</ele>
        <time>1970-01-01T03:45:57Z</time>
      </trkpt>
      <trkpt lat="40.297780" lon="0.346982">
        <ele>4.908</ele>
        <time>1970-01-01T03:45:58Z</time>
      </trkpt>
      <trkpt lat="40.297729" lon="0.346949">
        <ele>4.845</ele>
        <time>1970-01-01T03:45:59Z</time>
      </trkpt>
      <trkpt lat="40.297678" lon="0.346919">
        <ele>4.782</ele>
        <time>1970-01-01T03:46:00Z</time>
      </trkpt>
      <trkpt lat="40.297627" lon="0.346889">
        <ele>4.663</ele>
        <time>1970-01-01T03:46:01Z</time>
      </trkpt>
      <trkpt lat="40.297575" lon="0.346856">
        <ele>4.516</ele>
        <time>1970-01-01T03:46:02Z</time>
      </trkpt>
      <trkpt lat="40.297524" lon="0.346818">
        <ele>4.586</ele>
        <time>1970-01-01T03:46:03Z</time>
      </trkpt>
      <trkpt lat="40.297475" lon="0.346769">
        <ele>4.582</ele>
        <time>1970-01-01T03:46:04Z</time>
      </trkpt>
      <trkpt lat="40.297431" lon="0.346709">
        <ele>4.666</ele>
        <time>1970-01-01T03:46:05Z</time>
      </trkpt>
      <trkpt lat="40.297388" lon="0.346648">
        <ele>4.637</ele>
        <time>1970-01-01T03:46:06Z</time>
      </trkpt>
      <trkpt lat="40.297345" lon="0.346586">
        <ele>4.447</ele>
        <time>1970-01-01T03:46:07Z</time>
      </trkpt>
      <trkpt lat="40.297301" lon="0.346527">
        <ele>4.329</ele>
        <time>1970-01-01T03:46:08Z</time>
      </trkpt>
      <trkpt lat="40.297252" lon="0.346477">
        <ele>4.121</ele>
        <time>1970-01-01T03:46:09Z</time>
      </trkpt>
      <trkpt lat="40.297198" lon="0.346438">
        <ele>3.808</ele>
        <time>1970-01-01T03:46:10Z</time>
      </trkpt>
      <trkpt lat="40.297142" lon="0.346406">
        <ele>3.471</ele>
        <time>1970-01-01T03:46:11Z</time>
      </trkpt>
      <trkpt lat="40.297087" lon="0.346376">
        <ele>3.078</ele>
        <time>1970-01-01T03:46:12Z</time>
      </trkpt>
      <trkpt lat="40.297033" lon="0.346349">
        <ele>2.529</ele>
        <time>1970-01-01T03:46:13Z</time>
      </trkpt>
      <trkpt lat="40.296980" lon="0.346327">
        <ele>2.072</ele>
        <time>1970-01-01T03:46:14Z</time>
      </trkpt>
      <trkpt lat="40.296927" lon="0.346315">
        <ele>1.732</ele>
        <time>1970-01-01T03:46:15Z</time>
      </trkpt>
      <trkpt lat="40.296878" lon="0.346301">
        <ele>1.588</ele>
        <time>1970-01-01T03:46:16Z</time>
      </trkpt>
      <trkpt lat="40.296836" lon="0.346274">
        <ele>1.482</ele>
        <time>1970-01-01T03:46:17Z</time>
      </trkpt>
      <trkpt lat="40.296800" lon="0.346233">
        <ele>1.223</ele>
        <time>1970-01-01T03:46:18Z</time>
      </trkpt>
      <trkpt lat="40.296773" lon="0.346176">
        <ele>1.195</ele>
        <time>1970-01-01T03:46:19Z</time>
      </trkpt>
      <trkpt lat="40.296757" lon="0.346103">
        <ele>1.049</ele>
        <time>1970-01-01T03:46:20Z</time>
      </trkpt>
      <trkpt lat="40.296743" lon="0.346025">
        <ele>0.823</ele>
        <time>1970-01-01T03:46:21Z</time>
      </trkpt>
      <trkpt lat="40.296730" lon="0.345947">
        <ele>0.508</ele>
        <time>1970-01-01T03:46:22Z</time>
      </trkpt>
      <trkpt lat="40.296711" lon="0.345868">
        <ele>0.366</ele>
        <time>1970-01-01T03:46:23Z</time>
      </trkpt>
      <trkpt lat="40.296684" lon="0.345789">
        <ele>0.213</ele>
        <time>1970-01-01T03:46:24Z</time>
      </trkpt>
      <trkpt lat="40.296654" lon="0.345718">
        <ele>0.454</ele>
        <time>1970-01-01T03:46:25Z</time>
      </trkpt>
      <trkpt lat="40.296622" lon="0.345649">
        <ele>0.747</ele>
        <time>1970-01-01T03:46:26Z</time>
      </trkpt>
      <trkpt lat="40.296592" lon="0.345582">
        <ele>0.937</ele>
        <time>1970-01-01T03:46:27Z</time>
      </trkpt>
      <trkpt lat="40.296561" lon="0.345522">
        <ele>1.293</ele>
        <time>1970-01-01T03:46:28Z</time>
      </trkpt>
      <trkpt lat="40.296533" lon="0.345466">
        <ele>1.587</ele>
        <time>1970-01-01T03:46:29Z</time>
      </trkpt>
      <trkpt lat="40.296506" lon="0.345415">
        <ele>1.788</ele>
        <time>1970-01-01T03:46:30Z</time>
      </trkpt>
      <trkpt lat="40.296481" lon="0.345366">
        <ele>1.918</ele>
        <time>1970-01-01T03:46:31Z</time>
      </trkpt>
      <trkpt lat="40.296458" lon="0.345317">
        <ele>2.198</ele>
        <time>1970-01-01T03:46:32Z</time>
      </trkpt>
      <trkpt lat="40.296434" lon="0.345266">
        <ele>2.217</ele>
        <time>1970-01-01T03:46:33Z</time>
      </trkpt>
      <trkpt lat="40.296405" lon="0.345211">
        <ele>2.308</ele>
        <time>1970-01-01T03:46:34Z</time>
      </trkpt>
      <trkpt lat="40.296377" lon="0.345157">
        <ele>2.428</ele>
        <time>1970-01-01T03:46:35Z</time>
      </trkpt>
      <trkpt lat="40.296350" lon="0.345099">
        <ele>2.655</ele>
        <time>1970-01-01T03:46:36Z</time>
      </trkpt>
      <trkpt lat="40.296324" lon="0.345039">
        <ele>2.716</ele>
        <time>1970-01-01T03:46:37Z</time>
      </trkpt>
      <trkpt lat="40.296296" lon="0.344979">
        <ele>2.729</ele>
        <time>1970-01-01T03:46:38Z</time>
      </trkpt>
      <trkpt lat="40.296262" lon="0.344917">
        <ele>2.589</ele>
        <time>1970-01-01T03:46:39Z</time>
      </trkpt>
      <trkpt lat="40.296221" lon="0.344867">
        <ele>2.445</ele>
        <time>1970-01-01T03:46:40Z</time>
      </trkpt>
      <trkpt lat="40.296177" lon="0.344826">
        <ele>2.279</ele>
        <time>1970-01-01T03:46:41Z</time>
      </trkpt>
      <trkpt lat="40.296132" lon="0.344789">
        <ele>2.120</ele>
        <time>1970-01-01T03:46:42Z</time>
      </trkpt>
      <trkpt lat="40.296084" lon="0.344752">
        <ele>1.967</ele>
        <time>1970-01-01T03:46:43Z</time>
      </trkpt>
      <trkpt lat="40.296039" lon="0.344709">
        <ele>1.881</ele>
        <time>1970-01-01T03:46:44Z</time>
      </trkpt>
      <trkpt lat="40.296002" lon="0.344655">
        <ele>1.819</ele>
        <time>1970-01-01T03:46:45Z</time>
      </trkpt>
      <trkpt lat="40.295971" lon="0.344593">
        <ele>1.708</ele>
        <time>1970-01-01T03:46:46Z</time>
      </trkpt>
      <trkpt lat="40.295945" lon="0.344527">
        <ele>1.773</ele>
        <time>1970-01-01T03:46:47Z</time>
      </trkpt>
      <trkpt lat="40.295916" lon="0.344458">
        <ele>1.670</ele>
        <time>1970-01-01T03:46:48Z</time>
      </trkpt>
      <trkpt lat="40.295881" lon="0.344395">
        <ele>1.511</ele>
        <time>1970-01-01T03:46:49Z</time>
      </trkpt>
      <trkpt lat="40.295842" lon="0.344338">
        <ele>1.444</ele>
        <time>1970-01-01T03:46:50Z</time>
      </trkpt>
      <trkpt lat="40.295803" lon="0.344280">
        <ele>1.574</ele>
        <time>1970-01-01T03:46:51Z</time>
      </trkpt>
      <trkpt lat="40.295766" lon="0.344222">
        <ele>1.610</ele>
        <time>1970-01-01T03:46:52Z</time>
      </trkpt>
      <trkpt lat="40.295734" lon="0.344157">
        <ele>1.784</ele>
        <time>1970-01-01T03:46:53Z</time>
      </trkpt>
      <trkpt lat="40.295708" lon="0.344091">
        <ele>1.855</ele>
        <time>1970-01-01T03:46:54Z</time>
      </trkpt>
      <trkpt lat="40.295684" lon="0.344026">
        <ele>2.045</ele>
        <time>1970-01-01T03:46:55Z</time>
      </trkpt>
      <trkpt lat="40.295659" lon="0.343962">
        <ele>2.147</ele>
        <time>1970-01-01T03:46:56Z</time>
      </trkpt>
      <trkpt lat="40.295636" lon="0.343895">
        <ele>2.311</ele>
        <time>1970-01-01T03:46:57Z</time>
      </trkpt>
      <trkpt lat="40.295615" lon="0.343829">
        <ele>2.408</ele>
        <time>1970-01-01T03:46:58Z</time>
      </trkpt>
      <trkpt lat="40.295594" lon="0.343762">
        <ele>2.511</ele>
        <time>1970-01-01T03:46:59Z</time>
      </trkpt>
      <trkpt lat="40.295574" lon="0.343696">
        <ele>2.728</ele>
        <time>1970-01-01T03:47:00Z</time>
      </trkpt>
      <trkpt lat="40.295553" lon="0.343628">
        <ele>2.929</ele>
        <time>1970-01-01T03:47:01Z</time>
      </trkpt>
      <trkpt lat="40.295532" lon="0.343560">
        <ele>2.722</ele>
        <time>1970-01-01T03:47:02Z</time>
      </trkpt>
      <trkpt lat="40.295510" lon="0.343494">
        <ele>2.472</ele>
        <time>1970-01-01T03:47:03Z</time>
      </trkpt>
      <trkpt lat="40.295485" lon="0.343430">
        <ele>2.158</ele>
        <time>1970-01-01T03:47:04Z</time>
      </trkpt>
      <trkpt lat="40.295459" lon="0.343366">
        <ele>1.822</ele>
        <time>1970-01-01T03:47:05Z</time>
      </trkpt>
      <trkpt lat="40.295434" lon="0.343303">
        <ele>1.683</ele>
        <time>1970-01-01T03:47:06Z</time>
      </trkpt>
      <trkpt lat="40.295408" lon="0.343242">
        <ele>1.698</ele>
        <time>1970-01-01T03:47:07Z</time>
      </trkpt>
      <trkpt lat="40.295384" lon="0.343181">
        <ele>1.615</ele>
        <time>1970-01-01T03:47:08Z</time>
      </trkpt>
      <trkpt lat="40.295362" lon="0.343122">
        <ele>1.526</ele>
        <time>1970-01-01T03:47:09Z</time>
      </trkpt>
      <trkpt lat="40.295342" lon="0.343067">
        <ele>1.508</ele>
        <time>1970-01-01T03:47:10Z</time>
      </trkpt>
      <trkpt lat="40.295326" lon="0.343015">
        <ele>1.386</ele>
        <time>1970-01-01T03:47:11Z</time>
      </trkpt>
      <trkpt lat="40.295316" lon="0.342967">
        <ele>1.253</ele>
        <time>1970-01-01T03:47:12Z</time>
      </trkpt>
      <trkpt lat="40.295311" lon="0.342913">
        <ele>1.224</ele>
        <time>1970-01-01T03:47:13Z</time>
      </trkpt>
      <trkpt lat="40.295311" lon="0.342852">
        <ele>1.247</ele>
        <time>1970-01-01T03:47:14Z</time>
      </trkpt>
      <trkpt lat="40.295309" lon="0.342786">
        <ele>1.127</ele>
        <time>1970-01-01T03:47:15Z</time>
      </trkpt>
      <trkpt lat="40.295309" lon="0.342722">
        <ele>1.143</ele>
        <time>1970-01-01T03:47:16Z</time>
      </trkpt>
      <trkpt lat="40.295310" lon="0.342657">
        <ele>1.147</ele>
        <time>1970-01-01T03:47:17Z</time>
      </trkpt>
      <trkpt lat="40.295308" lon="0.342594">
        <ele>1.188</ele>
        <time>1970-01-01T03:47:18Z</time>
      </trkpt>
      <trkpt lat="40.295301" lon="0.342527">
        <ele>1.159</ele>
        <time>1970-01-01T03:47:19Z</time>
      </trkpt>
      <trkpt lat="40.295290" lon="0.342459">
        <ele>0.903</ele>
        <time>1970-01-01T03:47:20Z</time>
      </trkpt>
      <trkpt lat="40.295278" lon="0.342390">
        <ele>0.623</ele>
        <time>1970-01-01T03:47:21Z</time>
      </trkpt>
      <trkpt lat="40.295267" lon="0.342324">
        <ele>0.408</ele>
        <time>1970-01-01T03:47:22Z</time>
      </trkpt>
      <trkpt lat="40.295258" lon="0.342255">
        <ele>0.152</ele>
        <time>1970-01-01T03:47:23Z</time>
      </trkpt>
      <trkpt lat="40.295249" lon="0.342186">
        <ele>0.159</ele>
        <time>1970-01-01T03:47:24Z</time>
      </trkpt>
      <trkpt lat="40.295241" lon="0.342112">
        <ele>0.320</ele>
        <time>1970-01-01T03:47:25Z</time>
      </trkpt>
      <trkpt lat="40.295234" lon="0.342042">
        <ele>0.553</ele>
        <time>1970-01-01T03:47:26Z</time>
      </trkpt>
      <trkpt lat="40.295227" lon="0.341976">
        <ele>0.713</ele>
        <time>1970-01-01T03:47:27Z</time>
      </trkpt>
      <trkpt lat="40.295222" lon="0.341909">
        <ele>0.969</ele>
        <time>1970-01-01T03:47:28Z</time>
      </trkpt>
      <trkpt lat="40.295218" lon="0.341843">
        <ele>1.113</ele>
        <time>1970-01-01T03:47:29Z</time>
      </trkpt>
      <trkpt lat="40.295209" lon="0.341780">
        <ele>1.254</ele>
        <time>1970-01-01T03:47:30Z</time>
      </trkpt>
      <trkpt lat="40.295197" lon="0.341716">
        <ele>1.359</ele>
        <time>1970-01-01T03:47:31Z</time>
      </trkpt>
      <trkpt lat="40.295186" lon="0.341649">
        <ele>1.403</ele>
        <time>1970-01-01T03:47:32Z</time>
      </trkpt>
      <trkpt lat="40.295174" lon="0.341581">
        <ele>1.623</ele>
        <time>1970-01-01T03:47:33Z</time>
      </trkpt>
      <trkpt lat="40.295158" lon="0.341510">
        <ele>1.708</ele>
        <time>1970-01-01T03:47:34Z</time>
      </trkpt>
      <trkpt lat="40.295138" lon="0.341441">
        <ele>1.842</ele>
        <time>1970-01-01T03:47:35Z</time>
      </trkpt>
      <trkpt lat="40.295119" lon="0.341373">
        <ele>1.979</ele>
        <time>1970-01-01T03:47:36Z</time>
      </trkpt>
      <trkpt lat="40.295099" lon="0.341303">
        <ele>1.730</ele>
        <time>1970-01-01T03:47:37Z</time>
      </trkpt>
      <trkpt lat="40.295078" lon="0.341231">
        <ele>1.683</ele>
        <time>1970-01-01T03:47:38Z</time>
      </trkpt>
      <trkpt lat="40.295055" lon="0.341159">
        <ele>1.473</ele>
        <time>1970-01-01T03:47:39Z</time>
      </trkpt>
      <trkpt lat="40.295030" lon="0.341089">
        <ele>1.269</ele>
        <time>1970-01-01T03:47:40Z</time>
      </trkpt>
      <trkpt lat="40.295008" lon="0.341021">
        <ele>1.063</ele>
        <time>1970-01-01T03:47:41Z</time>
      </trkpt>
      <trkpt lat="40.294986" lon="0.340954">
        <ele>1.064</ele>
        <time>1970-01-01T03:47:42Z</time>
      </trkpt>
      <trkpt lat="40.294964" lon="0.340885">
        <ele>1.189</ele>
        <time>1970-01-01T03:47:43Z</time>
      </trkpt>
      <trkpt lat="40.294943" lon="0.340818">
        <ele>1.206</ele>
        <time>1970-01-01T03:47:44Z</time>
      </trkpt>
      <trkpt lat="40.294921" lon="0.340751">
        <ele>1.526</ele>
        <time>1970-01-01T03:47:45Z</time>
      </trkpt>
      <trkpt lat="40.294899" lon="0.340684">
        <ele>1.708</ele>
        <time>1970-01-01T03:47:46Z</time>
      </trkpt>
      <trkpt lat="40.294878" lon="0.340617">
        <ele>1.995</ele>
        <time>1970-01-01T03:47:47Z</time>
      </trkpt>
      <trkpt lat="40.294858" lon="0.340551">
        <ele>2.062</ele>
        <time>1970-01-01T03:47:48Z</time>
      </trkpt>
      <trkpt lat="40.294839" lon="0.340490">
        <ele>2.493</ele>
        <time>1970-01-01T03:47:49Z</time>
      </trkpt>
      <trkpt lat="40.294818" lon="0.340431">
        <ele>2.816</ele>
        <time>1970-01-01T03:47:50Z</time>
      </trkpt>
      <trkpt lat="40.294796" lon="0.340365">
        <ele>3.066</ele>
        <time>1970-01-01T03:47:51Z</time>
      </trkpt>
      <trkpt lat="40.294773" lon="0.340298">
        <ele>3.322</ele>
        <time>1970-01-01T03:47:52Z</time>
      </trkpt>
      <trkpt lat="40.294752" lon="0.340235">
        <ele>3.286</ele>
        <time>1970-01-01T03:47:53Z</time>
      </trkpt>
      <trkpt lat="40.294729" lon="0.340172">
        <ele>3.127</ele>
        <time>1970-01-01T03:47:54Z</time>
      </trkpt>
      <trkpt lat="40.294705" lon="0.340109">
        <ele>2.925</ele>
        <time>1970-01-01T03:47:55Z</time>
      </trkpt>
      <trkpt lat="40.294683" lon="0.340045">
        <ele>2.726</ele>
        <time>1970-01-01T03:47:56Z</time>
      </trkpt>
      <trkpt lat="40.294661" lon="0.339980">
        <ele>2.608</ele>
        <time>1970-01-01T03:47:57Z</time>
      </trkpt>
      <trkpt lat="40.294639" lon="0.339916">
        <ele>2.408</ele>
        <time>1970-01-01T03:47:58Z</time>
      </trkpt>
      <trkpt lat="40.294616" lon="0.339851">
        <ele>2.289</ele>
        <time>1970-01-01T03:47:59Z</time>
      </trkpt>
      <trkpt lat="40.294593" lon="0.339784">
        <ele>2.136</ele>
        <time>1970-01-01T03:48:00Z</time>
      </trkpt>
      <trkpt lat="40.294570" lon="0.339719">
        <ele>1.927</ele>
        <time>1970-01-01T03:48:01Z</time>
      </trkpt>
      <trkpt lat="40.294547" lon="0.339651">
        <ele>1.740</ele>
        <time>1970-01-01T03:48:02Z</time>
      </trkpt>
      <trkpt lat="40.294525" lon="0.339586">
        <ele>1.650</ele>
        <time>1970-01-01T03:48:03Z</time>
      </trkpt>
      <trkpt lat="40.294502" lon="0.339520">
        <ele>1.436</ele>
        <time>1970-01-01T03:48:04Z</time>
      </trkpt>
      <trkpt lat="40.294479" lon="0.339453">
        <ele>1.280</ele>
        <time>1970-01-01T03:48:05Z</time>
      </trkpt>
      <trkpt lat="40.294455" lon="0.339385">
        <ele>1.391</ele>
        <time>1970-01-01T03:48:06Z</time>
      </trkpt>
      <trkpt lat="40.294431" lon="0.339317">
        <ele>1.584</ele>
        <time>1970-01-01T03:48:07Z</time>
      </trkpt>
      <trkpt lat="40.294405" lon="0.339249">
        <ele>1.807</ele>
        <time>1970-01-01T03:48:08Z</time>
      </trkpt>
      <trkpt lat="40.294381" lon="0.339184">
        <ele>2.217</ele>
        <time>1970-01-01T03:48:09Z</time>
      </trkpt>
      <trkpt lat="40.294357" lon="0.339120">
        <ele>2.408</ele>
        <time>1970-01-01T03:48:10Z</time>
      </trkpt>
      <trkpt lat="40.294337" lon="0.339056">
        <ele>2.665</ele>
        <time>1970-01-01T03:48:11Z</time>
      </trkpt>
      <trkpt lat="40.294318" lon="0.338992">
        <ele>2.822</ele>
        <time>1970-01-01T03:48:12Z</time>
      </trkpt>
      <trkpt lat="40.294296" lon="0.338925">
        <ele>2.983</ele>
        <time>1970-01-01T03:48:13Z</time>
      </trkpt>
      <trkpt lat="40.294272" lon="0.338859">
        <ele>3.126</ele>
        <time>1970-01-01T03:48:14Z</time>
      </trkpt>
      <trkpt lat="40.294247" lon="0.338793">
        <ele>3.226</ele>
        <time>1970-01-01T03:48:15Z</time>
      </trkpt>
      <trkpt lat="40.294221" lon="0.338726">
        <ele>3.212</ele>
        <time>1970-01-01T03:48:16Z</time>
      </trkpt>
      <trkpt lat="40.294194" lon="0.338658">
        <ele>3.256</ele>
        <time>1970-01-01T03:48:17Z</time>
      </trkpt>
      <trkpt lat="40.294167" lon="0.338590">
        <ele>3.137</ele>
        <time>1970-01-01T03:48:18Z</time>
      </trkpt>
      <trkpt lat="40.294145" lon="0.338519">
        <ele>3.351</ele>
        <time>1970-01-01T03:48:19Z</time>
      </trkpt>
      <trkpt lat="40.294130" lon="0.338447">
        <ele>3.501</ele>
        <time>1970-01-01T03:48:20Z</time>
      </trkpt>
      <trkpt lat="40.294115" lon="0.338374">
        <ele>3.711</ele>
        <time>1970-01-01T03:48:21Z</time>
      </trkpt>
      <trkpt lat="40.294100" lon="0.338299">
        <ele>3.908</ele>
        <time>1970-01-01T03:48:22Z</time>
      </trkpt>
      <trkpt lat="40.294081" lon="0.338221">
        <ele>4.162</ele>
        <time>1970-01-01T03:48:23Z</time>
      </trkpt>
      <trkpt lat="40.294056" lon="0.338148">
        <ele>4.339</ele>
        <time>1970-01-01T03:48:24Z</time>
      </trkpt>
      <trkpt lat="40.294024" lon="0.338079">
        <ele>4.470</ele>
        <time>1970-01-01T03:48:25Z</time>
      </trkpt>
      <trkpt lat="40.293990" lon="0.338017">
        <ele>4.443</ele>
        <time>1970-01-01T03:48:26Z</time>
      </trkpt>
      <trkpt lat="40.293953" lon="0.337960">
        <ele>4.313</ele>
        <time>1970-01-01T03:48:27Z</time>
      </trkpt>
      <trkpt lat="40.293916" lon="0.337902">
        <ele>4.249</ele>
        <time>1970-01-01T03:48:28Z</time>
      </trkpt>
      <trkpt lat="40.293878" lon="0.337844">
        <ele>3.973</ele>
        <time>1970-01-01T03:48:29Z</time>
      </trkpt>
      <trkpt lat="40.293841" lon="0.337786">
        <ele>3.744</ele>
        <time>1970-01-01T03:48:30Z</time>
      </trkpt>
      <trkpt lat="40.293806" lon="0.337724">
        <ele>3.818</ele>
        <time>1970-01-01T03:48:31Z</time>
      </trkpt>
      <trkpt lat="40.293771" lon="0.337666">
        <ele>4.098</ele>
        <time>1970-01-01T03:48:32Z</time>
      </trkpt>
      <trkpt lat="40.293738" lon="0.337606">
        <ele>4.217</ele>
        <time>1970-01-01T03:48:33Z</time>
      </trkpt>
      <trkpt lat="40.293706" lon="0.337546">
        <ele>4.408</ele>
        <time>1970-01-01T03:48:34Z</time>
      </trkpt>
      <trkpt lat="40.293675" lon="0.337484">
        <ele>4.538</ele>
        <time>1970-01-01T03:48:35Z</time>
      </trkpt>
      <trkpt lat="40.293646" lon="0.337422">
        <ele>4.665</ele>
        <time>1970-01-01T03:48:36Z</time>
      </trkpt>
      <trkpt lat="40.293617" lon="0.337361">
        <ele>4.676</ele>
        <time>1970-01-01T03:48:37Z</time>
      </trkpt>
      <trkpt lat="40.293588" lon="0.337303">
        <ele>4.629</ele>
        <time>1970-01-01T03:48:38Z</time>
      </trkpt>
      <trkpt lat="40.293559" lon="0.337245">
        <ele>4.749</ele>
        <time>1970-01-01T03:48:39Z</time>
      </trkpt>
      <trkpt lat="40.293530" lon="0.337187">
        <ele>5.045</ele>
        <time>1970-01-01T03:48:40Z</time>
      </trkpt>
      <trkpt lat="40.293504" lon="0.337126">
        <ele>5.479</ele>
        <time>1970-01-01T03:48:41Z</time>
      </trkpt>
      <trkpt lat="40.293475" lon="0.337065">
        <ele>5.760</ele>
        <time>1970-01-01T03:48:42Z</time>
      </trkpt>
      <trkpt lat="40.293442" lon="0.337009">
        <ele>5.838</ele>
        <time>1970-01-01T03:48:43Z</time>
      </trkpt>
      <trkpt lat="40.293407" lon="0.336955">
        <ele>5.770</ele>
        <time>1970-01-01T03:48:44Z</time>
      </trkpt>
      <trkpt lat="40.293371" lon="0.336899">
        <ele>5.717</ele>
        <time>1970-01-01T03:48:45Z</time>
      </trkpt>
      <trkpt lat="40.293333" lon="0.336846">
        <ele>5.708</ele>
        <time>1970-01-01T03:48:46Z</time>
      </trkpt>
      <trkpt lat="40.293292" lon="0.336794">
        <ele>5.660</ele>
        <time>1970-01-01T03:48:47Z</time>
      </trkpt>
      <trkpt lat="40.293252" lon="0.336743">
        <ele>5.687</ele>
        <time>1970-01-01T03:48:48Z</time>
      </trkpt>
      <trkpt lat="40.293211" lon="0.336694">
        <ele>5.598</ele>
        <time>1970-01-01T03:48:49Z</time>
      </trkpt>
      <trkpt lat="40.293170" lon="0.336645">
        <ele>5.481</ele>
        <time>1970-01-01T03:48:50Z</time>
      </trkpt>
      <trkpt lat="40.293127" lon="0.336595">
        <ele>5.211</ele>
        <time>1970-01-01T03:48:51Z</time>
      </trkpt>
      <trkpt lat="40.293083" lon="0.336546">
        <ele>5.147</ele>
        <time>1970-01-01T03:48:52Z</time>
      </trkpt>
      <trkpt lat="40.293040" lon="0.336496">
        <ele>5.271</ele>
        <time>1970-01-01T03:48:53Z</time>
      </trkpt>
      <trkpt lat="40.292998" lon="0.336444">
        <ele>5.492</ele>
        <time>1970-01-01T03:48:54Z</time>
      </trkpt>
      <trkpt lat="40.292957" lon="0.336393">
        <ele>5.629</ele>
        <time>1970-01-01T03:48:55Z</time>
      </trkpt>
      <trkpt lat="40.292917" lon="0.336341">
        <ele>5.900</ele>
        <time>1970-01-01T03:48:56Z</time>
      </trkpt>
      <trkpt lat="40.292878" lon="0.336289">
        <ele>6.220</ele>
        <time>1970-01-01T03:48:57Z</time>
      </trkpt>
      <trkpt lat="40.292840" lon="0.336237">
        <ele>6.408</ele>
        <time>1970-01-01T03:48:58Z</time>
      </trkpt>
      <trkpt lat="40.292800" lon="0.336188">
        <ele>6.649</ele>
        <time>1970-01-01T03:48:59Z</time>
      </trkpt>
      <trkpt lat="40.292759" lon="0.336142">
        <ele>6.546</ele>
        <time>1970-01-01T03:49:00Z</time>
      </trkpt>
      <trkpt lat="40.292719" lon="0.336095">
        <ele>6.377</ele>
        <time>1970-01-01T03:49:01Z</time>
      </trkpt>
      <trkpt lat="40.292679" lon="0.336047">
        <ele>6.040</ele>
        <time>1970-01-01T03:49:02Z</time>
      </trkpt>
      <trkpt lat="40.292637" lon="0.335998">
        <ele>5.880</ele>
        <time>1970-01-01T03:49:03Z</time>
      </trkpt>
      <trkpt lat="40.292595" lon="0.335950">
        <ele>5.556</ele>
        <time>1970-01-01T03:49:04Z</time>
      </trkpt>
      <trkpt lat="40.292552" lon="0.335899">
        <ele>5.380</ele>
        <time>1970-01-01T03:49:05Z</time>
      </trkpt>
      <trkpt lat="40.292509" lon="0.335845">
        <ele>5.031</ele>
        <time>1970-01-01T03:49:06Z</time>
      </trkpt>
      <trkpt lat="40.292465" lon="0.335794">
        <ele>4.917</ele>
        <time>1970-01-01T03:49:07Z</time>
      </trkpt>
      <trkpt lat="40.292421" lon="0.335739">
        <ele>4.887</ele>
        <time>1970-01-01T03:49:08Z</time>
      </trkpt>
      <trkpt lat="40.292375" lon="0.335686">
        <ele>4.715</ele>
        <time>1970-01-01T03:49:09Z</time>
      </trkpt>
      <trkpt lat="40.292331" lon="0.335631">
        <ele>4.608</ele>
        <time>1970-01-01T03:49:10Z</time>
      </trkpt>
      <trkpt lat="40.292289" lon="0.335574">
        <ele>4.658</ele>
        <time>1970-01-01T03:49:11Z</time>
      </trkpt>
      <trkpt lat="40.292250" lon="0.335520">
        <ele>4.585</ele>
        <time>1970-01-01T03:49:12Z</time>
      </trkpt>
      <trkpt lat="40.292210" lon="0.335461">
        <ele>4.686</ele>
        <time>1970-01-01T03:49:13Z</time>
      </trkpt>
      <trkpt lat="40.292171" lon="0.335402">
        <ele>4.539</ele>
        <time>1970-01-01T03:49:14Z</time>
      </trkpt>
      <trkpt lat="40.292134" lon="0.335342">
        <ele>4.419</ele>
        <time>1970-01-01T03:49:15Z</time>
      </trkpt>
      <trkpt lat="40.292096" lon="0.335278">
        <ele>4.295</ele>
        <time>1970-01-01T03:49:16Z</time>
      </trkpt>
      <trkpt lat="40.292053" lon="0.335215">
        <ele>3.999</ele>
        <time>1970-01-01T03:49:17Z</time>
      </trkpt>
      <trkpt lat="40.292005" lon="0.335160">
        <ele>3.690</ele>
        <time>1970-01-01T03:49:18Z</time>
      </trkpt>
      <trkpt lat="40.291954" lon="0.335110">
        <ele>3.359</ele>
        <time>1970-01-01T03:49:19Z</time>
      </trkpt>
      <trkpt lat="40.291903" lon="0.335067">
        <ele>3.003</ele>
        <time>1970-01-01T03:49:20Z</time>
      </trkpt>
      <trkpt lat="40.291851" lon="0.335030">
        <ele>2.523</ele>
        <time>1970-01-01T03:49:21Z</time>
      </trkpt>
      <trkpt lat="40.291799" lon="0.334995">
        <ele>1.908</ele>
        <time>1970-01-01T03:49:22Z</time>
      </trkpt>
      <trkpt lat="40.291747" lon="0.334963">
        <ele>1.532</ele>
        <time>1970-01-01T03:49:23Z</time>
      </trkpt>
      <trkpt lat="40.291695" lon="0.334930">
        <ele>0.949</ele>
        <time>1970-01-01T03:49:24Z</time>
      </trkpt>
      <trkpt lat="40.291644" lon="0.334895">
        <ele>0.740</ele>
        <time>1970-01-01T03:49:25Z</time>
      </trkpt>
      <trkpt lat="40.291593" lon="0.334859">
        <ele>0.953</ele>
        <time>1970-01-01T03:49:26Z</time>
      </trkpt>
      <trkpt lat="40.291542" lon="0.334824">
        <ele>1.153</ele>
        <time>1970-01-01T03:49:27Z</time>
      </trkpt>
      <trkpt lat="40.291491" lon="0.334789">
        <ele>1.419</ele>
        <time>1970-01-01T03:49:28Z</time>
      </trkpt>
      <trkpt lat="40.291439" lon="0.334757">
        <ele>1.693</ele>
        <time>1970-01-01T03:49:29Z</time>
      </trkpt>
      <trkpt lat="40.291389" lon="0.334727">
        <ele>1.944</ele>
        <time>1970-01-01T03:49:30Z</time>
      </trkpt>
      <trkpt lat="40.291340" lon="0.334699">
        <ele>1.925</ele>
        <time>1970-01-01T03:49:31Z</time>
      </trkpt>
      <trkpt lat="40.291292" lon="0.334669">
        <ele>1.926</ele>
        <time>1970-01-01T03:49:32Z</time>
      </trkpt>
      <trkpt lat="40.291245" lon="0.334639">
        <ele>1.908</ele>
        <time>1970-01-01T03:49:33Z</time>
      </trkpt>
      <trkpt lat="40.291198" lon="0.334610">
        <ele>1.808</ele>
        <time>1970-01-01T03:49:34Z</time>
      </trkpt>
      <trkpt lat="40.291151" lon="0.334580">
        <ele>1.869</ele>
        <time>1970-01-01T03:49:35Z</time>
      </trkpt>
      <trkpt lat="40.291105" lon="0.334548">
        <ele>1.976</ele>
        <time>1970-01-01T03:49:36Z</time>
      </trkpt>
      <trkpt lat="40.291058" lon="0.334518">
        <ele>2.177</ele>
        <time>1970-01-01T03:49:37Z</time>
      </trkpt>
      <trkpt lat="40.291011" lon="0.334487">
        <ele>2.340</ele>
        <time>1970-01-01T03:49:38Z</time>
      </trkpt>
      <trkpt lat="40.290964" lon="0.334452">
        <ele>2.450</ele>
        <time>1970-01-01T03:49:39Z</time>
      </trkpt>
      <trkpt lat="40.290917" lon="0.334418">
        <ele>2.546</ele>
        <time>1970-01-01T03:49:40Z</time>
      </trkpt>
      <trkpt lat="40.290871" lon="0.334385">
        <ele>2.670</ele>
        <time>1970-01-01T03:49:41Z</time>
      </trkpt>
      <trkpt lat="40.290825" lon="0.334354">
        <ele>2.751</ele>
        <time>1970-01-01T03:49:42Z</time>
      </trkpt>
      <trkpt lat="40.290779" lon="0.334321">
        <ele>3.198</ele>
        <time>1970-01-01T03:49:43Z</time>
      </trkpt>
      <trkpt lat="40.290733" lon="0.334289">
        <ele>3.515</ele>
        <time>1970-01-01T03:49:44Z</time>
      </trkpt>
      <trkpt lat="40.290687" lon="0.334257">
        <ele>3.926</ele>
        <time>1970-01-01T03:49:45Z</time>
      </trkpt>
      <trkpt lat="40.290639" lon="0.334228">
        <ele>4.308</ele>
        <time>1970-01-01T03:49:46Z</time>
      </trkpt>
      <trkpt lat="40.290589" lon="0.334198">
        <ele>4.736</ele>
        <time>1970-01-01T03:49:47Z</time>
      </trkpt>
      <trkpt lat="40.290539" lon="0.334164">
        <ele>4.933</ele>
        <time>1970-01-01T03:49:48Z</time>
      </trkpt>
      <trkpt lat="40.290488" lon="0.334129">
        <ele>4.574</ele>
        <time>1970-01-01T03:49:49Z</time>
      </trkpt>
      <trkpt lat="40.290435" lon="0.334094">
        <ele>4.297</ele>
        <time>1970-01-01T03:49:50Z</time>
      </trkpt>
      <trkpt lat="40.290381" lon="0.334059">
        <ele>4.027</ele>
        <time>1970-01-01T03:49:51Z</time>
      </trkpt>
      <trkpt lat="40.290327" lon="0.334022">
        <ele>3.893</ele>
        <time>1970-01-01T03:49:52Z</time>
      </trkpt>
      <trkpt lat="40.290274" lon="0.333984">
        <ele>3.697</ele>
        <time>1970-01-01T03:49:53Z</time>
      </trkpt>
      <trkpt lat="40.290222" lon="0.333945">
        <ele>3.658</ele>
        <time>1970-01-01T03:49:54Z</time>
      </trkpt>
      <trkpt lat="40.290169" lon="0.333905">
        <ele>3.524</ele>
        <time>1970-01-01T03:49:55Z</time>
      </trkpt>
      <trkpt lat="40.290116" lon="0.333867">
        <ele>3.504</ele>
        <time>1970-01-01T03:49:56Z</time>
      </trkpt>
      <trkpt lat="40.290064" lon="0.333831">
        <ele>3.414</ele>
        <time>1970-01-01T03:49:57Z</time>
      </trkpt>
      <trkpt lat="40.290011" lon="0.333792">
        <ele>3.408</ele>
        <time>1970-01-01T03:49:58Z</time>
      </trkpt>
      <trkpt lat="40.289958" lon="0.333754">
        <ele>3.499</ele>
        <time>1970-01-01T03:49:59Z</time>
      </trkpt>
      <trkpt lat="40.289905" lon="0.333719">
        <ele>3.416</ele>
        <time>1970-01-01T03:50:00Z</time>
      </trkpt>
      <trkpt lat="40.289850" lon="0.333684">
        <ele>3.327</ele>
        <time>1970-01-01T03:50:01Z</time>
      </trkpt>
      <trkpt lat="40.289795" lon="0.333651">
        <ele>3.240</ele>
        <time>1970-01-01T03:50:02Z</time>
      </trkpt>
      <trkpt lat="40.289742" lon="0.333613">
        <ele>3.150</ele>
        <time>1970-01-01T03:50:03Z</time>
      </trkpt>
      <trkpt lat="40.289689" lon="0.333576">
        <ele>3.256</ele>
        <time>1970-01-01T03:50:04Z</time>
      </trkpt>
      <trkpt lat="40.289635" lon="0.333540">
        <ele>3.480</ele>
        <time>1970-01-01T03:50:05Z</time>
      </trkpt>
      <trkpt lat="40.289581" lon="0.333504">
        <ele>3.421</ele>
        <time>1970-01-01T03:50:06Z</time>
      </trkpt>
      <trkpt lat="40.289527" lon="0.333467">
        <ele>3.347</ele>
        <time>1970-01-01T03:50:07Z</time>
      </trkpt>
      <trkpt lat="40.289471" lon="0.333432">
        <ele>3.129</ele>
        <time>1970-01-01T03:50:08Z</time>
      </trkpt>
      <trkpt lat="40.289414" lon="0.333400">
        <ele>2.821</ele>
        <time>1970-01-01T03:50:09Z</time>
      </trkpt>
      <trkpt lat="40.289353" lon="0.333380">
        <ele>2.308</ele>
        <time>1970-01-01T03:50:10Z</time>
      </trkpt>
      <trkpt lat="40.289290" lon="0.333366">
        <ele>1.911</ele>
        <time>1970-01-01T03:50:11Z</time>
      </trkpt>
      <trkpt lat="40.289230" lon="0.333350">
        <ele>1.518</ele>
        <time>1970-01-01T03:50:12Z</time>
      </trkpt>
      <trkpt lat="40.289169" lon="0.333334">
        <ele>1.039</ele>
        <time>1970-01-01T03:50:13Z</time>
      </trkpt>
      <trkpt lat="40.289107" lon="0.333315">
        <ele>0.872</ele>
        <time>1970-01-01T03:50:14Z</time>
      </trkpt>
      <trkpt lat="40.289047" lon="0.333291">
        <ele>0.752</ele>
        <time>1970-01-01T03:50:15Z</time>
      </trkpt>
      <trkpt lat="40.288987" lon="0.333266">
        <ele>0.758</ele>
        <time>1970-01-01T03:50:16Z</time>
      </trkpt>
      <trkpt lat="40.288928" lon="0.333242">
        <ele>0.782</ele>
        <time>1970-01-01T03:50:17Z</time>
      </trkpt>
      <trkpt lat="40.288867" lon="0.333222">
        <ele>0.923</ele>
        <time>1970-01-01T03:50:18Z</time>
      </trkpt>
      <trkpt lat="40.288805" lon="0.333203">
        <ele>1.271</ele>
        <time>1970-01-01T03:50:19Z</time>
      </trkpt>
      <trkpt lat="40.288742" lon="0.333190">
        <ele>1.641</ele>
        <time>1970-01-01T03:50:20Z</time>
      </trkpt>
      <trkpt lat="40.288681" lon="0.333180">
        <ele>1.915</ele>
        <time>1970-01-01T03:50:21Z</time>
      </trkpt>
      <trkpt lat="40.288623" lon="0.333173">
        <ele>2.108</ele>
        <time>1970-01-01T03:50:22Z</time>
      </trkpt>
      <trkpt lat="40.288566" lon="0.333166">
        <ele>2.454</ele>
        <time>1970-01-01T03:50:23Z</time>
      </trkpt>
      <trkpt lat="40.288508" lon="0.333159">
        <ele>2.691</ele>
        <time>1970-01-01T03:50:24Z</time>
      </trkpt>
      <trkpt lat="40.288450" lon="0.333160">
        <ele>2.842</ele>
        <time>1970-01-01T03:50:25Z</time>
      </trkpt>
      <trkpt lat="40.288392" lon="0.333176">
        <ele>2.945</ele>
        <time>1970-01-01T03:50:26Z</time>
      </trkpt>
      <trkpt lat="40.288335" lon="0.333192">
        <ele>3.025</ele>
        <time>1970-01-01T03:50:27Z</time>
      </trkpt>
      <trkpt lat="40.288278" lon="0.333206">
        <ele>2.851</ele>
        <time>1970-01-01T03:50:28Z</time>
      </trkpt>
      <trkpt lat="40.288219" lon="0.333214">
        <ele>2.645</ele>
        <time>1970-01-01T03:50:29Z</time>
      </trkpt>
      <trkpt lat="40.288160" lon="0.333214">
        <ele>2.566</ele>
        <time>1970-01-01T03:50:30Z</time>
      </trkpt>
      <trkpt lat="40.288102" lon="0.333208">
        <ele>2.498</ele>
        <time>1970-01-01T03:50:31Z</time>
      </trkpt>
      <trkpt lat="40.288044" lon="0.333192">
        <ele>2.515</ele>
        <time>1970-01-01T03:50:32Z</time>
      </trkpt>
      <trkpt lat="40.287986" lon="0.333169">
        <ele>2.926</ele>
        <time>1970-01-01T03:50:33Z</time>
      </trkpt>
      <trkpt lat="40.287930" lon="0.333144">
        <ele>3.208</ele>
        <time>1970-01-01T03:50:34Z</time>
      </trkpt>
      <trkpt lat="40.287876" lon="0.333112">
        <ele>3.586</ele>
        <time>1970-01-01T03:50:35Z</time>
      </trkpt>
      <trkpt lat="40.287825" lon="0.333073">
        <ele>3.943</ele>
        <time>1970-01-01T03:50:36Z</time>
      </trkpt>
      <trkpt lat="40.287778" lon="0.333030">
        <ele>4.144</ele>
        <time>1970-01-01T03:50:37Z</time>
      </trkpt>
      <trkpt lat="40.287730" lon="0.332982">
        <ele>4.397</ele>
        <time>1970-01-01T03:50:38Z</time>
      </trkpt>
      <trkpt lat="40.287688" lon="0.332930">
        <ele>4.627</ele>
        <time>1970-01-01T03:50:39Z</time>
      </trkpt>
      <trkpt lat="40.287650" lon="0.332875">
        <ele>4.973</ele>
        <time>1970-01-01T03:50:40Z</time>
      </trkpt>
      <trkpt lat="40.287620" lon="0.332816">
        <ele>5.457</ele>
        <time>1970-01-01T03:50:41Z</time>
      </trkpt>
      <trkpt lat="40.287602" lon="0.332751">
        <ele>5.718</ele>
        <time>1970-01-01T03:50:42Z</time>
      </trkpt>
      <trkpt lat="40.287590" lon="0.332682">
        <ele>6.085</ele>
        <time>1970-01-01T03:50:43Z</time>
      </trkpt>
      <trkpt lat="40.287573" lon="0.332614">
        <ele>6.389</ele>
        <time>1970-01-01T03:50:44Z</time>
      </trkpt>
      <trkpt lat="40.287554" lon="0.332548">
        <ele>6.617</ele>
        <time>1970-01-01T03:50:45Z</time>
      </trkpt>
      <trkpt lat="40.287531" lon="0.332492">
        <ele>6.908</ele>
        <time>1970-01-01T03:50:46Z</time>
      </trkpt>
      <trkpt lat="40.287501" lon="0.332442">
        <ele>7.045</ele>
        <time>1970-01-01T03:50:47Z</time>
      </trkpt>
      <trkpt lat="40.287470" lon="0.332392">
        <ele>6.992</ele>
        <time>1970-01-01T03:50:48Z</time>
      </trkpt>
      <trkpt lat="40.287441" lon="0.332342">
        <ele>6.983</ele>
        <time>1970-01-01T03:50:49Z</time>
      </trkpt>
      <trkpt lat="40.287411" lon="0.332292">
        <ele>6.976</ele>
        <time>1970-01-01T03:50:50Z</time>
      </trkpt>
      <trkpt lat="40.287381" lon="0.332242">
        <ele>7.056</ele>
        <time>1970-01-01T03:50:51Z</time>
      </trkpt>
      <trkpt lat="40.287355" lon="0.332182">
        <ele>7.152</ele>
        <time>1970-01-01T03:50:52Z</time>
      </trkpt>
      <trkpt lat="40.287337" lon="0.332121">
        <ele>7.216</ele>
        <time>1970-01-01T03:50:53Z</time>
      </trkpt>
      <trkpt lat="40.287327" lon="0.332060">
        <ele>7.437</ele>
        <time>1970-01-01T03:50:54Z</time>
      </trkpt>
      <trkpt lat="40.287324" lon="0.332000">
        <ele>7.578</ele>
        <time>1970-01-01T03:50:55Z</time>
      </trkpt>
      <trkpt lat="40.287325" lon="0.331938">
        <ele>7.633</ele>
        <time>1970-01-01T03:50:56Z</time>
      </trkpt>
      <trkpt lat="40.287325" lon="0.331878">
        <ele>7.726</ele>
        <time>1970-01-01T03:50:57Z</time>
      </trkpt>
      <trkpt lat="40.287326" lon="0.331821">
        <ele>7.808</ele>
        <time>1970-01-01T03:50:58Z</time>
      </trkpt>
      <trkpt lat="40.287328" lon="0.331762">
        <ele>7.994</ele>
        <time>1970-01-01T03:50:59Z</time>
      </trkpt>
      <trkpt lat="40.287331" lon="0.331705">
        <ele>7.971</ele>
        <time>1970-01-01T03:51:00Z</time>
      </trkpt>
      <trkpt lat="40.287330" lon="0.331648">
        <ele>8.012</ele>
        <time>1970-01-01T03:51:01Z</time>
      </trkpt>
      <trkpt lat="40.287324" lon="0.331592">
        <ele>8.075</ele>
        <time>1970-01-01T03:51:02Z</time>
      </trkpt>
      <trkpt lat="40.287310" lon="0.331536">
        <ele>8.025</ele>
        <time>1970-01-01T03:51:03Z</time>
      </trkpt>
      <trkpt lat="40.287295" lon="0.331482">
        <ele>8.091</ele>
        <time>1970-01-01T03:51:04Z</time>
      </trkpt>
      <trkpt lat="40.287275" lon="0.331430">
        <ele>8.085</ele>
        <time>1970-01-01T03:51:05Z</time>
      </trkpt>
      <trkpt lat="40.287252" lon="0.331378">
        <ele>8.046</ele>
        <time>1970-01-01T03:51:06Z</time>
      </trkpt>
      <trkpt lat="40.287225" lon="0.331344">
        <ele>8.059</ele>
        <time>1970-01-01T03:51:07Z</time>
      </trkpt>
      <trkpt lat="40.287196" lon="0.331306">
        <ele>8.003</ele>
        <time>1970-01-01T03:51:08Z</time>
      </trkpt>
      <trkpt lat="40.287170" lon="0.331268">
        <ele>8.123</ele>
        <time>1970-01-01T03:51:09Z</time>
      </trkpt>
      <trkpt lat="40.287145" lon="0.331228">
        <ele>8.208</ele>
        <time>1970-01-01T03:51:10Z</time>
      </trkpt>
      <trkpt lat="40.287120" lon="0.331187">
        <ele>8.382</ele>
        <time>1970-01-01T03:51:11Z</time>
      </trkpt>
      <trkpt lat="40.287096" lon="0.331147">
        <ele>8.419</ele>
        <time>1970-01-01T03:51:12Z</time>
      </trkpt>
      <trkpt lat="40.287071" lon="0.331110">
        <ele>8.540</ele>
        <time>1970-01-01T03:51:13Z</time>
      </trkpt>
      <trkpt lat="40.287045" lon="0.331072">
        <ele>8.823</ele>
        <time>1970-01-01T03:51:14Z</time>
      </trkpt>
      <trkpt lat="40.287020" lon="0.331035">
        <ele>9.013</ele>
        <time>1970-01-01T03:51:15Z</time>
      </trkpt>
      <trkpt lat="40.286993" lon="0.331000">
        <ele>9.219</ele>
        <time>1970-01-01T03:51:16Z</time>
      </trkpt>
      <trkpt lat="40.286965" lon="0.330964">
        <ele>9.563</ele>
        <time>1970-01-01T03:51:17Z</time>
      </trkpt>
      <trkpt lat="40.286938" lon="0.330927">
        <ele>9.744</ele>
        <time>1970-01-01T03:51:18Z</time>
      </trkpt>
      <trkpt lat="40.286912" lon="0.330888">
        <ele>9.993</ele>
        <time>1970-01-01T03:51:19Z</time>
      </trkpt>
      <trkpt lat="40.286890" lon="0.330844">
        <ele>10.265</ele>
        <time>1970-01-01T03:51:20Z</time>
      </trkpt>
      <trkpt lat="40.286872" lon="0.330799">
        <ele>10.321</ele>
        <time>1970-01-01T03:51:21Z</time>
      </trkpt>
      <trkpt lat="40.286861" lon="0.330751">
        <ele>10.408</ele>
        <time>1970-01-01T03:51:22Z</time>
      </trkpt>
      <trkpt lat="40.286852" lon="0.330702">
        <ele>10.576</ele>
        <time>1970-01-01T03:51:23Z</time>
      </trkpt>
      <trkpt lat="40.286842" lon="0.330655">
        <ele>10.623</ele>
        <time>1970-01-01T03:51:24Z</time>
      </trkpt>
      <trkpt lat="40.286824" lon="0.330612">
        <ele>10.824</ele>
        <time>1970-01-01T03:51:25Z</time>
      </trkpt>
      <trkpt lat="40.286800" lon="0.330571">
        <ele>11.027</ele>
        <time>1970-01-01T03:51:26Z</time>
      </trkpt>
      <trkpt lat="40.286771" lon="0.330538">
        <ele>11.347</ele>
        <time>1970-01-01T03:51:27Z</time>
      </trkpt>
      <trkpt lat="40.286740" lon="0.330511">
        <ele>11.653</ele>
        <time>1970-01-01T03:51:28Z</time>
      </trkpt>
      <trkpt lat="40.286709" lon="0.330485">
        <ele>11.947</ele>
        <time>1970-01-01T03:51:29Z</time>
      </trkpt>
      <trkpt lat="40.286683" lon="0.330452">
        <ele>12.368</ele>
        <time>1970-01-01T03:51:30Z</time>
      </trkpt>
      <trkpt lat="40.286660" lon="0.330414">
        <ele>12.542</ele>
        <time>1970-01-01T03:51:31Z</time>
      </trkpt>
      <trkpt lat="40.286638" lon="0.330375">
        <ele>12.522</ele>
        <time>1970-01-01T03:51:32Z</time>
      </trkpt>
      <trkpt lat="40.286618" lon="0.330335">
        <ele>12.614</ele>
        <time>1970-01-01T03:51:33Z</time>
      </trkpt>
      <trkpt lat="40.286599" lon="0.330294">
        <ele>12.708</ele>
        <time>1970-01-01T03:51:34Z</time>
      </trkpt>
      <trkpt lat="40.286582" lon="0.330254">
        <ele>12.861</ele>
        <time>1970-01-01T03:51:35Z</time>
      </trkpt>
      <trkpt lat="40.286562" lon="0.330214">
        <ele>12.978</ele>
        <time>1970-01-01T03:51:36Z</time>
      </trkpt>
      <trkpt lat="40.286545" lon="0.330174">
        <ele>12.969</ele>
        <time>1970-01-01T03:51:37Z</time>
      </trkpt>
      <trkpt lat="40.286528" lon="0.330127">
        <ele>13.022</ele>
        <time>1970-01-01T03:51:38Z</time>
      </trkpt>
      <trkpt lat="40.286512" lon="0.330075">
        <ele>13.282</ele>
        <time>1970-01-01T03:51:39Z</time>
      </trkpt>
      <trkpt lat="40.286495" lon="0.330023">
        <ele>13.358</ele>
        <time>1970-01-01T03:51:40Z</time>
      </trkpt>
      <trkpt lat="40.286477" lon="0.329969">
        <ele>13.412</ele>
        <time>1970-01-01T03:51:41Z</time>
      </trkpt>
      <trkpt lat="40.286460" lon="0.329915">
        <ele>13.553</ele>
        <time>1970-01-01T03:51:42Z</time>
      </trkpt>
      <trkpt lat="40.286446" lon="0.329859">
        <ele>13.635</ele>
        <time>1970-01-01T03:51:43Z</time>
      </trkpt>
      <trkpt lat="40.286430" lon="0.329806">
        <ele>13.786</ele>
        <time>1970-01-01T03:51:44Z</time>
      </trkpt>
      <trkpt lat="40.286411" lon="0.329754">
        <ele>13.914</ele>
        <time>1970-01-01T03:51:45Z</time>
      </trkpt>
      <trkpt lat="40.286392" lon="0.329704">
        <ele>14.008</ele>
        <time>1970-01-01T03:51:46Z</time>
      </trkpt>
      <trkpt lat="40.286375" lon="0.329652">
        <ele>14.010</ele>
        <time>1970-01-01T03:51:47Z</time>
      </trkpt>
      <trkpt lat="40.286362" lon="0.329600">
        <ele>13.947</ele>
        <time>1970-01-01T03:51:48Z</time>
      </trkpt>
      <trkpt lat="40.286352" lon="0.329546">
        <ele>14.018</ele>
        <time>1970-01-01T03:51:49Z</time>
      </trkpt>
      <trkpt lat="40.286345" lon="0.329496">
        <ele>14.071</ele>
        <time>1970-01-01T03:51:50Z</time>
      </trkpt>
      <trkpt lat="40.286338" lon="0.329447">
        <ele>14.051</ele>
        <time>1970-01-01T03:51:51Z</time>
      </trkpt>
      <trkpt lat="40.286326" lon="0.329396">
        <ele>14.367</ele>
        <time>1970-01-01T03:51:52Z</time>
      </trkpt>
      <trkpt lat="40.286311" lon="0.329347">
        <ele>14.691</ele>
        <time>1970-01-01T03:51:53Z</time>
      </trkpt>
      <trkpt lat="40.286293" lon="0.329300">
        <ele>14.932</ele>
        <time>1970-01-01T03:51:54Z</time>
      </trkpt>
      <trkpt lat="40.286273" lon="0.329256">
        <ele>15.122</ele>
        <time>1970-01-01T03:51:55Z</time>
      </trkpt>
      <trkpt lat="40.286251" lon="0.329216">
        <ele>15.262</ele>
        <time>1970-01-01T03:51:56Z</time>
      </trkpt>
      <trkpt lat="40.286228" lon="0.329177">
        <ele>15.408</ele>
        <time>1970-01-01T03:51:57Z</time>
      </trkpt>
      <trkpt lat="40.286206" lon="0.329141">
        <ele>15.508</ele>
        <time>1970-01-01T03:51:58Z</time>
      </trkpt>
      <trkpt lat="40.286185" lon="0.329102">
        <ele>15.779</ele>
        <time>1970-01-01T03:51:59Z</time>
      </trkpt>
      <trkpt lat="40.286162" lon="0.329066">
        <ele>15.876</ele>
        <time>1970-01-01T03:52:00Z</time>
      </trkpt>
      <trkpt lat="40.286144" lon="0.329020">
        <ele>16.157</ele>
        <time>1970-01-01T03:52:01Z</time>
      </trkpt>
      <trkpt lat="40.286131" lon="0.328972">
        <ele>16.480</ele>
        <time>1970-01-01T03:52:02Z</time>
      </trkpt>
      <trkpt lat="40.286126" lon="0.328924">
        <ele>16.830</ele>
        <time>1970-01-01T03:52:03Z</time>
      </trkpt>
      <trkpt lat="40.286122" lon="0.328872">
        <ele>17.166</ele>
        <time>1970-01-01T03:52:04Z</time>
      </trkpt>
      <trkpt lat="40.286118" lon="0.328820">
        <ele>17.570</ele>
        <time>1970-01-01T03:52:05Z</time>
      </trkpt>
      <trkpt lat="40.286113" lon="0.328769">
        <ele>17.941</ele>
        <time>1970-01-01T03:52:06Z</time>
      </trkpt>
      <trkpt lat="40.286105" lon="0.328721">
        <ele>18.255</ele>
        <time>1970-01-01T03:52:07Z</time>
      </trkpt>
      <trkpt lat="40.286095" lon="0.328674">
        <ele>18.507</ele>
        <time>1970-01-01T03:52:08Z</time>
      </trkpt>
      <trkpt lat="40.286081" lon="0.328628">
        <ele>18.917</ele>
        <time>1970-01-01T03:52:09Z</time>
      </trkpt>
      <trkpt lat="40.286064" lon="0.328585">
        <ele>19.008</ele>
        <time>1970-01-01T03:52:10Z</time>
      </trkpt>
      <trkpt lat="40.286045" lon="0.328546">
        <ele>19.012</ele>
        <time>1970-01-01T03:52:11Z</time>
      </trkpt>
      <trkpt lat="40.286023" lon="0.328511">
        <ele>19.029</ele>
        <time>1970-01-01T03:52:12Z</time>
      </trkpt>
      <trkpt lat="40.286001" lon="0.328477">
        <ele>19.080</ele>
        <time>1970-01-01T03:52:13Z</time>
      </trkpt>
      <trkpt lat="40.285977" lon="0.328444">
        <ele>19.033</ele>
        <time>1970-01-01T03:52:14Z</time>
      </trkpt>
      <trkpt lat="40.285950" lon="0.328408">
        <ele>19.063</ele>
        <time>1970-01-01T03:52:15Z</time>
      </trkpt>
      <trkpt lat="40.285925" lon="0.328369">
        <ele>19.069</ele>
        <time>1970-01-01T03:52:16Z</time>
      </trkpt>
      <trkpt lat="40.285901" lon="0.328328">
        <ele>19.043</ele>
        <time>1970-01-01T03:52:17Z</time>
      </trkpt>
      <trkpt lat="40.285879" lon="0.328284">
        <ele>19.194</ele>
        <time>1970-01-01T03:52:18Z</time>
      </trkpt>
      <trkpt lat="40.285860" lon="0.328237">
        <ele>19.388</ele>
        <time>1970-01-01T03:52:19Z</time>
      </trkpt>
      <trkpt lat="40.285845" lon="0.328189">
        <ele>19.524</ele>
        <time>1970-01-01T03:52:20Z</time>
      </trkpt>
      <trkpt lat="40.285837" lon="0.328141">
        <ele>19.726</ele>
        <time>1970-01-01T03:52:21Z</time>
      </trkpt>
      <trkpt lat="40.285838" lon="0.328091">
        <ele>19.908</ele>
        <time>1970-01-01T03:52:22Z</time>
      </trkpt>
      <trkpt lat="40.285839" lon="0.328042">
        <ele>20.025</ele>
        <time>1970-01-01T03:52:23Z</time>
      </trkpt>
      <trkpt lat="40.285839" lon="0.327994">
        <ele>20.252</ele>
        <time>1970-01-01T03:52:24Z</time>
      </trkpt>
      <trkpt lat="40.285839" lon="0.327944">
        <ele>20.473</ele>
        <time>1970-01-01T03:52:25Z</time>
      </trkpt>
      <trkpt lat="40.285838" lon="0.327895">
        <ele>20.686</ele>
        <time>1970-01-01T03:52:26Z</time>
      </trkpt>
      <trkpt lat="40.285837" lon="0.327846">
        <ele>20.736</ele>
        <time>1970-01-01T03:52:27Z</time>
      </trkpt>
      <trkpt lat="40.285837" lon="0.327802">
        <ele>20.942</ele>
        <time>1970-01-01T03:52:28Z</time>
      </trkpt>
      <trkpt lat="40.285841" lon="0.327756">
        <ele>21.156</ele>
        <time>1970-01-01T03:52:29Z</time>
      </trkpt>
      <trkpt lat="40.285844" lon="0.327708">
        <ele>21.267</ele>
        <time>1970-01-01T03:52:30Z</time>
      </trkpt>
      <trkpt lat="40.285844" lon="0.327662">
        <ele>21.443</ele>
        <time>1970-01-01T03:52:31Z</time>
      </trkpt>
      <trkpt lat="40.285843" lon="0.327615">
        <ele>21.664</ele>
        <time>1970-01-01T03:52:32Z</time>
      </trkpt>
      <trkpt lat="40.285842" lon="0.327568">
        <ele>21.710</ele>
        <time>1970-01-01T03:52:33Z</time>
      </trkpt>
      <trkpt lat="40.285838" lon="0.327522">
        <ele>21.908</ele>
        <time>1970-01-01T03:52:34Z</time>
      </trkpt>
      <trkpt lat="40.285828" lon="0.327478">
        <ele>22.271</ele>
        <time>1970-01-01T03:52:35Z</time>
      </trkpt>
      <trkpt lat="40.285814" lon="0.327439">
        <ele>22.588</ele>
        <time>1970-01-01T03:52:36Z</time>
      </trkpt>
      <trkpt lat="40.285798" lon="0.327393">
        <ele>22.899</ele>
        <time>1970-01-01T03:52:37Z</time>
      </trkpt>
      <trkpt lat="40.285781" lon="0.327344">
        <ele>23.262</ele>
        <time>1970-01-01T03:52:38Z</time>
      </trkpt>
      <trkpt lat="40.285769" lon="0.327293">
        <ele>23.582</ele>
        <time>1970-01-01T03:52:39Z</time>
      </trkpt>
      <trkpt lat="40.285759" lon="0.327242">
        <ele>23.958</ele>
        <time>1970-01-01T03:52:40Z</time>
      </trkpt>
      <trkpt lat="40.285750" lon="0.327190">
        <ele>24.272</ele>
        <time>1970-01-01T03:52:41Z</time>
      </trkpt>
      <trkpt lat="40.285741" lon="0.327139">
        <ele>24.643</ele>
        <time>1970-01-01T03:52:42Z</time>
      </trkpt>
      <trkpt lat="40.285729" lon="0.327090">
        <ele>25.013</ele>
        <time>1970-01-01T03:52:43Z</time>
      </trkpt>
      <trkpt lat="40.285716" lon="0.327041">
        <ele>25.343</ele>
        <time>1970-01-01T03:52:44Z</time>
      </trkpt>
      <trkpt lat="40.285703" lon="0.326991">
        <ele>25.707</ele>
        <time>1970-01-01T03:52:45Z</time>
      </trkpt>
      <trkpt lat="40.285688" lon="0.326943">
        <ele>26.008</ele>
        <time>1970-01-01T03:52:46Z</time>
      </trkpt>
      <trkpt lat="40.285670" lon="0.326897">
        <ele>26.248</ele>
        <time>1970-01-01T03:52:47Z</time>
      </trkpt>
      <trkpt lat="40.285650" lon="0.326850">
        <ele>26.385</ele>
        <time>1970-01-01T03:52:48Z</time>
      </trkpt>
      <trkpt lat="40.285633" lon="0.326806">
        <ele>26.576</ele>
        <time>1970-01-01T03:52:49Z</time>
      </trkpt>
      <trkpt lat="40.285614" lon="0.326764">
        <ele>26.649</ele>
        <time>1970-01-01T03:52:50Z</time>
      </trkpt>
      <trkpt lat="40.285593" lon="0.326720">
        <ele>26.899</ele>
        <time>1970-01-01T03:52:51Z</time>
      </trkpt>
      <trkpt lat="40.285571" lon="0.326677">
        <ele>27.085</ele>
        <time>1970-01-01T03:52:52Z</time>
      </trkpt>
      <trkpt lat="40.285547" lon="0.326635">
        <ele>27.179</ele>
        <time>1970-01-01T03:52:53Z</time>
      </trkpt>
      <trkpt lat="40.285520" lon="0.326592">
        <ele>27.340</ele>
        <time>1970-01-01T03:52:54Z</time>
      </trkpt>
      <trkpt lat="40.285491" lon="0.326558">
        <ele>27.589</ele>
        <time>1970-01-01T03:52:55Z</time>
      </trkpt>
      <trkpt lat="40.285463" lon="0.326523">
        <ele>27.706</ele>
        <time>1970-01-01T03:52:56Z</time>
      </trkpt>
      <trkpt lat="40.285440" lon="0.326486">
        <ele>27.926</ele>
        <time>1970-01-01T03:52:57Z</time>
      </trkpt>
      <trkpt lat="40.285423" lon="0.326446">
        <ele>28.208</ele>
        <time>1970-01-01T03:52:58Z</time>
      </trkpt>
      <trkpt lat="40.285408" lon="0.326405">
        <ele>28.485</ele>
        <time>1970-01-01T03:52:59Z</time>
      </trkpt>
      <trkpt lat="40.285392" lon="0.326363">
        <ele>28.762</ele>
        <time>1970-01-01T03:53:00Z</time>
      </trkpt>
      <trkpt lat="40.285377" lon="0.326321">
        <ele>28.933</ele>
        <time>1970-01-01T03:53:01Z</time>
      </trkpt>
      <trkpt lat="40.285360" lon="0.326284">
        <ele>29.166</ele>
        <time>1970-01-01T03:53:02Z</time>
      </trkpt>
      <trkpt lat="40.285339" lon="0.326248">
        <ele>29.326</ele>
        <time>1970-01-01T03:53:03Z</time>
      </trkpt>
      <trkpt lat="40.285310" lon="0.326223">
        <ele>29.542</ele>
        <time>1970-01-01T03:53:04Z</time>
      </trkpt>
      <trkpt lat="40.285277" lon="0.326201">
        <ele>29.736</ele>
        <time>1970-01-01T03:53:05Z</time>
      </trkpt>
      <trkpt lat="40.285245" lon="0.326178">
        <ele>29.867</ele>
        <time>1970-01-01T03:53:06Z</time>
      </trkpt>
      <trkpt lat="40.285210" lon="0.326158">
        <ele>29.848</ele>
        <time>1970-01-01T03:53:07Z</time>
      </trkpt>
      <trkpt lat="40.285177" lon="0.326136">
        <ele>29.961</ele>
        <time>1970-01-01T03:53:08Z</time>
      </trkpt>
      <trkpt lat="40.285144" lon="0.326110">
        <ele>30.017</ele>
        <time>1970-01-01T03:53:09Z</time>
      </trkpt>
      <trkpt lat="40.285113" lon="0.326085">
        <ele>30.008</ele>
        <time>1970-01-01T03:53:10Z</time>
      </trkpt>
      <trkpt lat="40.285080" lon="0.326058">
        <ele>30.031</ele>
        <time>1970-01-01T03:53:11Z</time>
      </trkpt>
      <trkpt lat="40.285043" lon="0.326035">
        <ele>30.068</ele>
        <time>1970-01-01T03:53:12Z</time>
      </trkpt>
      <trkpt lat="40.285003" lon="0.326019">
        <ele>30.029</ele>
        <time>1970-01-01T03:53:13Z</time>
      </trkpt>
      <trkpt lat="40.284964" lon="0.326009">
        <ele>29.962</ele>
        <time>1970-01-01T03:53:14Z</time>
      </trkpt>
      <trkpt lat="40.284927" lon="0.325996">
        <ele>29.862</ele>
        <time>1970-01-01T03:53:15Z</time>
      </trkpt>
      <trkpt lat="40.284890" lon="0.325980">
        <ele>29.848</ele>
        <time>1970-01-01T03:53:16Z</time>
      </trkpt>
      <trkpt lat="40.284853" lon="0.325962">
        <ele>29.832</ele>
        <time>1970-01-01T03:53:17Z</time>
      </trkpt>
      <trkpt lat="40.284820" lon="0.325943">
        <ele>29.773</ele>
        <time>1970-01-01T03:53:18Z</time>
      </trkpt>
      <trkpt lat="40.284785" lon="0.325924">
        <ele>29.787</ele>
        <time>1970-01-01T03:53:19Z</time>
      </trkpt>
      <trkpt lat="40.284749" lon="0.325897">
        <ele>29.842</ele>
        <time>1970-01-01T03:53:20Z</time>
      </trkpt>
      <trkpt lat="40.284713" lon="0.325864">
        <ele>29.926</ele>
        <time>1970-01-01T03:53:21Z</time>
      </trkpt>
      <trkpt lat="40.284680" lon="0.325829">
        <ele>30.008</ele>
        <time>1970-01-01T03:53:22Z</time>
      </trkpt>
      <trkpt lat="40.284648" lon="0.325794">
        <ele>30.115</ele>
        <time>1970-01-01T03:53:23Z</time>
      </trkpt>
      <trkpt lat="40.284615" lon="0.325754">
        <ele>30.272</ele>
        <time>1970-01-01T03:53:24Z</time>
      </trkpt>
      <trkpt lat="40.284578" lon="0.325723">
        <ele>30.293</ele>
        <time>1970-01-01T03:53:25Z</time>
      </trkpt>
      <trkpt lat="40.284539" lon="0.325694">
        <ele>30.266</ele>
        <time>1970-01-01T03:53:26Z</time>
      </trkpt>
      <trkpt lat="40.284499" lon="0.325670">
        <ele>30.146</ele>
        <time>1970-01-01T03:53:27Z</time>
      </trkpt>
      <trkpt lat="40.284460" lon="0.325643">
        <ele>30.052</ele>
        <time>1970-01-01T03:53:28Z</time>
      </trkpt>
      <trkpt lat="40.284422" lon="0.325610">
        <ele>29.896</ele>
        <time>1970-01-01T03:53:29Z</time>
      </trkpt>
      <trkpt lat="40.284384" lon="0.325575">
        <ele>29.697</ele>
        <time>1970-01-01T03:53:30Z</time>
      </trkpt>
      <trkpt lat="40.284355" lon="0.325537">
        <ele>29.496</ele>
        <time>1970-01-01T03:53:31Z</time>
      </trkpt>
      <trkpt lat="40.284335" lon="0.325490">
        <ele>29.431</ele>
        <time>1970-01-01T03:53:32Z</time>
      </trkpt>
      <trkpt lat="40.284326" lon="0.325439">
        <ele>29.624</ele>
        <time>1970-01-01T03:53:33Z</time>
      </trkpt>
      <trkpt lat="40.284330" lon="0.325381">
        <ele>29.808</ele>
        <time>1970-01-01T03:53:34Z</time>
      </trkpt>
      <trkpt lat="40.284335" lon="0.325320">
        <ele>30.136</ele>
        <time>1970-01-01T03:53:35Z</time>
      </trkpt>
      <trkpt lat="40.284336" lon="0.325260">
        <ele>30.263</ele>
        <time>1970-01-01T03:53:36Z</time>
      </trkpt>
      <trkpt lat="40.284325" lon="0.325199">
        <ele>30.124</ele>
        <time>1970-01-01T03:53:37Z</time>
      </trkpt>
      <trkpt lat="40.284299" lon="0.325151">
        <ele>30.077</ele>
        <time>1970-01-01T03:53:38Z</time>
      </trkpt>
      <trkpt lat="40.284266" lon="0.325119">
        <ele>29.717</ele>
        <time>1970-01-01T03:53:39Z</time>
      </trkpt>
      <trkpt lat="40.284226" lon="0.325104">
        <ele>29.493</ele>
        <time>1970-01-01T03:53:40Z</time>
      </trkpt>
      <trkpt lat="40.284183" lon="0.325103">
        <ele>29.137</ele>
        <time>1970-01-01T03:53:41Z</time>
      </trkpt>
      <trkpt lat="40.284140" lon="0.325111">
        <ele>28.978</ele>
        <time>1970-01-01T03:53:42Z</time>
      </trkpt>
      <trkpt lat="40.284097" lon="0.325121">
        <ele>28.674</ele>
        <time>1970-01-01T03:53:43Z</time>
      </trkpt>
      <trkpt lat="40.284053" lon="0.325135">
        <ele>28.456</ele>
        <time>1970-01-01T03:53:44Z</time>
      </trkpt>
      <trkpt lat="40.284012" lon="0.325149">
        <ele>28.121</ele>
        <time>1970-01-01T03:53:45Z</time>
      </trkpt>
      <trkpt lat="40.283969" lon="0.325164">
        <ele>27.908</ele>
        <time>1970-01-01T03:53:46Z</time>
      </trkpt>
      <trkpt lat="40.283927" lon="0.325176">
        <ele>27.614</ele>
        <time>1970-01-01T03:53:47Z</time>
      </trkpt>
      <trkpt lat="40.283886" lon="0.325191">
        <ele>27.321</ele>
        <time>1970-01-01T03:53:48Z</time>
      </trkpt>
      <trkpt lat="40.283844" lon="0.325211">
        <ele>27.452</ele>
        <time>1970-01-01T03:53:49Z</time>
      </trkpt>
      <trkpt lat="40.283809" lon="0.325244">
        <ele>27.455</ele>
        <time>1970-01-01T03:53:50Z</time>
      </trkpt>
      <trkpt lat="40.283777" lon="0.325288">
        <ele>27.455</ele>
        <time>1970-01-01T03:53:51Z</time>
      </trkpt>
      <trkpt lat="40.283750" lon="0.325342">
        <ele>27.571</ele>
        <time>1970-01-01T03:53:52Z</time>
      </trkpt>
      <trkpt lat="40.283722" lon="0.325402">
        <ele>27.675</ele>
        <time>1970-01-01T03:53:53Z</time>
      </trkpt>
      <trkpt lat="40.283692" lon="0.325468">
        <ele>27.776</ele>
        <time>1970-01-01T03:53:54Z</time>
      </trkpt>
      <trkpt lat="40.283654" lon="0.325528">
        <ele>27.888</ele>
        <time>1970-01-01T03:53:55Z</time>
      </trkpt>
      <trkpt lat="40.283614" lon="0.325586">
        <ele>27.924</ele>
        <time>1970-01-01T03:53:56Z</time>
      </trkpt>
      <trkpt lat="40.283569" lon="0.325643">
        <ele>27.526</ele>
        <time>1970-01-01T03:53:57Z</time>
      </trkpt>
      <trkpt lat="40.283527" lon="0.325702">
        <ele>27.008</ele>
        <time>1970-01-01T03:53:58Z</time>
      </trkpt>
      <trkpt lat="40.283485" lon="0.325764">
        <ele>26.555</ele>
        <time>1970-01-01T03:53:59Z</time>
      </trkpt>
      <trkpt lat="40.283443" lon="0.325819">
        <ele>25.992</ele>
        <time>1970-01-01T03:54:00Z</time>
      </trkpt>
      <trkpt lat="40.283399" lon="0.325871">
        <ele>25.393</ele>
        <time>1970-01-01T03:54:01Z</time>
      </trkpt>
      <trkpt lat="40.283358" lon="0.325927">
        <ele>24.836</ele>
        <time>1970-01-01T03:54:02Z</time>
      </trkpt>
      <trkpt lat="40.283316" lon="0.325978">
        <ele>24.466</ele>
        <time>1970-01-01T03:54:03Z</time>
      </trkpt>
      <trkpt lat="40.283269" lon="0.326020">
        <ele>24.192</ele>
        <time>1970-01-01T03:54:04Z</time>
      </trkpt>
      <trkpt lat="40.283215" lon="0.326050">
        <ele>23.886</ele>
        <time>1970-01-01T03:54:05Z</time>
      </trkpt>
      <trkpt lat="40.283156" lon="0.326073">
        <ele>23.537</ele>
        <time>1970-01-01T03:54:06Z</time>
      </trkpt>
      <trkpt lat="40.283096" lon="0.326092">
        <ele>23.276</ele>
        <time>1970-01-01T03:54:07Z</time>
      </trkpt>
      <trkpt lat="40.283037" lon="0.326108">
        <ele>22.990</ele>
        <time>1970-01-01T03:54:08Z</time>
      </trkpt>
      <trkpt lat="40.282978" lon="0.326133">
        <ele>22.719</ele>
        <time>1970-01-01T03:54:09Z</time>
      </trkpt>
      <trkpt lat="40.282922" lon="0.326169">
        <ele>22.508</ele>
        <time>1970-01-01T03:54:10Z</time>
      </trkpt>
      <trkpt lat="40.282876" lon="0.326213">
        <ele>22.484</ele>
        <time>1970-01-01T03:54:11Z</time>
      </trkpt>
      <trkpt lat="40.282840" lon="0.326261">
        <ele>22.271</ele>
        <time>1970-01-01T03:54:12Z</time>
      </trkpt>
      <trkpt lat="40.282805" lon="0.326310">
        <ele>22.162</ele>
        <time>1970-01-01T03:54:13Z</time>
      </trkpt>
      <trkpt lat="40.282766" lon="0.326356">
        <ele>22.075</ele>
        <time>1970-01-01T03:54:14Z</time>
      </trkpt>
      <trkpt lat="40.282724" lon="0.326395">
        <ele>22.055</ele>
        <time>1970-01-01T03:54:15Z</time>
      </trkpt>
      <trkpt lat="40.282678" lon="0.326428">
        <ele>21.971</ele>
        <time>1970-01-01T03:54:16Z</time>
      </trkpt>
      <trkpt lat="40.282630" lon="0.326457">
        <ele>21.855</ele>
        <time>1970-01-01T03:54:17Z</time>
      </trkpt>
      <trkpt lat="40.282583" lon="0.326487">
        <ele>21.616</ele>
        <time>1970-01-01T03:54:18Z</time>
      </trkpt>
      <trkpt lat="40.282534" lon="0.326513">
        <ele>21.638</ele>
        <time>1970-01-01T03:54:19Z</time>
      </trkpt>
      <trkpt lat="40.282485" lon="0.326539">
        <ele>21.570</ele>
        <time>1970-01-01T03:54:20Z</time>
      </trkpt>
      <trkpt lat="40.282433" lon="0.326565">
        <ele>21.417</ele>
        <time>1970-01-01T03:54:21Z</time>
      </trkpt>
      <trkpt lat="40.282382" lon="0.326590">
        <ele>21.308</ele>
        <time>1970-01-01T03:54:22Z</time>
      </trkpt>
      <trkpt lat="40.282332" lon="0.326620">
        <ele>21.290</ele>
        <time>1970-01-01T03:54:23Z</time>
      </trkpt>
      <trkpt lat="40.282280" lon="0.326650">
        <ele>21.187</ele>
        <time>1970-01-01T03:54:24Z</time>
      </trkpt>
      <trkpt lat="40.282225" lon="0.326678">
        <ele>20.968</ele>
        <time>1970-01-01T03:54:25Z</time>
      </trkpt>
      <trkpt lat="40.282168" lon="0.326706">
        <ele>20.421</ele>
        <time>1970-01-01T03:54:26Z</time>
      </trkpt>
      <trkpt lat="40.282110" lon="0.326733">
        <ele>19.861</ele>
        <time>1970-01-01T03:54:27Z</time>
      </trkpt>
      <trkpt lat="40.282049" lon="0.326755">
        <ele>19.327</ele>
        <time>1970-01-01T03:54:28Z</time>
      </trkpt>
      <trkpt lat="40.281991" lon="0.326778">
        <ele>18.981</ele>
        <time>1970-01-01T03:54:29Z</time>
      </trkpt>
      <trkpt lat="40.281931" lon="0.326806">
        <ele>18.552</ele>
        <time>1970-01-01T03:54:30Z</time>
      </trkpt>
      <trkpt lat="40.281871" lon="0.326835">
        <ele>18.347</ele>
        <time>1970-01-01T03:54:31Z</time>
      </trkpt>
      <trkpt lat="40.281815" lon="0.326860">
        <ele>18.229</ele>
        <time>1970-01-01T03:54:32Z</time>
      </trkpt>
      <trkpt lat="40.281757" lon="0.326885">
        <ele>18.121</ele>
        <time>1970-01-01T03:54:33Z</time>
      </trkpt>
      <trkpt lat="40.281692" lon="0.326902">
        <ele>18.008</ele>
        <time>1970-01-01T03:54:34Z</time>
      </trkpt>
      <trkpt lat="40.281628" lon="0.326921">
        <ele>17.931</ele>
        <time>1970-01-01T03:54:35Z</time>
      </trkpt>
      <trkpt lat="40.281567" lon="0.326938">
        <ele>17.648</ele>
        <time>1970-01-01T03:54:36Z</time>
      </trkpt>
      <trkpt lat="40.281504" lon="0.326953">
        <ele>17.459</ele>
        <time>1970-01-01T03:54:37Z</time>
      </trkpt>
      <trkpt lat="40.281443" lon="0.326951">
        <ele>17.272</ele>
        <time>1970-01-01T03:54:38Z</time>
      </trkpt>
      <trkpt lat="40.281382" lon="0.326937">
        <ele>17.032</ele>
        <time>1970-01-01T03:54:39Z</time>
      </trkpt>
      <trkpt lat="40.281328" lon="0.326915">
        <ele>17.088</ele>
        <time>1970-01-01T03:54:40Z</time>
      </trkpt>
      <trkpt lat="40.281277" lon="0.326894">
        <ele>17.092</ele>
        <time>1970-01-01T03:54:41Z</time>
      </trkpt>
      <trkpt lat="40.281228" lon="0.326881">
        <ele>17.033</ele>
        <time>1970-01-01T03:54:42Z</time>
      </trkpt>
      <trkpt lat="40.281175" lon="0.326881">
        <ele>17.078</ele>
        <time>1970-01-01T03:54:43Z</time>
      </trkpt>
      <trkpt lat="40.281123" lon="0.326890">
        <ele>17.033</ele>
        <time>1970-01-01T03:54:44Z</time>
      </trkpt>
      <trkpt lat="40.281072" lon="0.326905">
        <ele>17.026</ele>
        <time>1970-01-01T03:54:45Z</time>
      </trkpt>
      <trkpt lat="40.281020" lon="0.326918">
        <ele>17.008</ele>
        <time>1970-01-01T03:54:46Z</time>
      </trkpt>
      <trkpt lat="40.280968" lon="0.326934">
        <ele>17.014</ele>
        <time>1970-01-01T03:54:47Z</time>
      </trkpt>
      <trkpt lat="40.280917" lon="0.326947">
        <ele>17.031</ele>
        <time>1970-01-01T03:54:48Z</time>
      </trkpt>
      <trkpt lat="40.280868" lon="0.326958">
        <ele>17.032</ele>
        <time>1970-01-01T03:54:49Z</time>
      </trkpt>
      <trkpt lat="40.280818" lon="0.326967">
        <ele>16.865</ele>
        <time>1970-01-01T03:54:50Z</time>
      </trkpt>
      <trkpt lat="40.280767" lon="0.326974">
        <ele>16.395</ele>
        <time>1970-01-01T03:54:51Z</time>
      </trkpt>
      <trkpt lat="40.280711" lon="0.326986">
        <ele>15.631</ele>
        <time>1970-01-01T03:54:52Z</time>
      </trkpt>
      <trkpt lat="40.280655" lon="0.327007">
        <ele>14.935</ele>
        <time>1970-01-01T03:54:53Z</time>
      </trkpt>
      <trkpt lat="40.280603" lon="0.327035">
        <ele>14.296</ele>
        <time>1970-01-01T03:54:54Z</time>
      </trkpt>
      <trkpt lat="40.280554" lon="0.327065">
        <ele>13.578</ele>
        <time>1970-01-01T03:54:55Z</time>
      </trkpt>
      <trkpt lat="40.280507" lon="0.327094">
        <ele>12.933</ele>
        <time>1970-01-01T03:54:56Z</time>
      </trkpt>
      <trkpt lat="40.280460" lon="0.327117">
        <ele>12.326</ele>
        <time>1970-01-01T03:54:57Z</time>
      </trkpt>
      <trkpt lat="40.280410" lon="0.327131">
        <ele>11.808</ele>
        <time>1970-01-01T03:54:58Z</time>
      </trkpt>
      <trkpt lat="40.280358" lon="0.327131">
        <ele>11.264</ele>
        <time>1970-01-01T03:54:59Z</time>
      </trkpt>
      <trkpt lat="40.280302" lon="0.327125">
        <ele>10.611</ele>
        <time>1970-01-01T03:55:00Z</time>
      </trkpt>
      <trkpt lat="40.280247" lon="0.327116">
        <ele>10.452</ele>
        <time>1970-01-01T03:55:01Z</time>
      </trkpt>
      <trkpt lat="40.280188" lon="0.327105">
        <ele>10.425</ele>
        <time>1970-01-01T03:55:02Z</time>
      </trkpt>
      <trkpt lat="40.280130" lon="0.327095">
        <ele>10.565</ele>
        <time>1970-01-01T03:55:03Z</time>
      </trkpt>
      <trkpt lat="40.280075" lon="0.327094">
        <ele>10.551</ele>
        <time>1970-01-01T03:55:04Z</time>
      </trkpt>
      <trkpt lat="40.280022" lon="0.327106">
        <ele>10.455</ele>
        <time>1970-01-01T03:55:05Z</time>
      </trkpt>
      <trkpt lat="40.279969" lon="0.327127">
        <ele>10.226</ele>
        <time>1970-01-01T03:55:06Z</time>
      </trkpt>
      <trkpt lat="40.279916" lon="0.327158">
        <ele>9.855</ele>
        <time>1970-01-01T03:55:07Z</time>
      </trkpt>
      <trkpt lat="40.279861" lon="0.327190">
        <ele>9.507</ele>
        <time>1970-01-01T03:55:08Z</time>
      </trkpt>
      <trkpt lat="40.279805" lon="0.327223">
        <ele>9.317</ele>
        <time>1970-01-01T03:55:09Z</time>
      </trkpt>
      <trkpt lat="40.279745" lon="0.327255">
        <ele>9.108</ele>
        <time>1970-01-01T03:55:10Z</time>
      </trkpt>
      <trkpt lat="40.279685" lon="0.327281">
        <ele>8.562</ele>
        <time>1970-01-01T03:55:11Z</time>
      </trkpt>
      <trkpt lat="40.279627" lon="0.327306">
        <ele>7.829</ele>
        <time>1970-01-01T03:55:12Z</time>
      </trkpt>
      <trkpt lat="40.279575" lon="0.327331">
        <ele>7.380</ele>
        <time>1970-01-01T03:55:13Z</time>
      </trkpt>
      <trkpt lat="40.279522" lon="0.327347">
        <ele>6.833</ele>
        <time>1970-01-01T03:55:14Z</time>
      </trkpt>
      <trkpt lat="40.279471" lon="0.327363">
        <ele>6.353</ele>
        <time>1970-01-01T03:55:15Z</time>
      </trkpt>
      <trkpt lat="40.279424" lon="0.327377">
        <ele>6.139</ele>
        <time>1970-01-01T03:55:16Z</time>
      </trkpt>
      <trkpt lat="40.279381" lon="0.327388">
        <ele>6.183</ele>
        <time>1970-01-01T03:55:17Z</time>
      </trkpt>
      <trkpt lat="40.279343" lon="0.327393">
        <ele>6.044</ele>
        <time>1970-01-01T03:55:18Z</time>
      </trkpt>
      <trkpt lat="40.279309" lon="0.327388">
        <ele>5.981</ele>
        <time>1970-01-01T03:55:19Z</time>
      </trkpt>
      <trkpt lat="40.279279" lon="0.327373">
        <ele>5.861</ele>
        <time>1970-01-01T03:55:20Z</time>
      </trkpt>
      <trkpt lat="40.279254" lon="0.327355">
        <ele>5.617</ele>
        <time>1970-01-01T03:55:21Z</time>
      </trkpt>
      <trkpt lat="40.279232" lon="0.327335">
        <ele>5.508</ele>
        <time>1970-01-01T03:55:22Z</time>
      </trkpt>
      <trkpt lat="40.279218" lon="0.327306">
        <ele>5.495</ele>
        <time>1970-01-01T03:55:23Z</time>
      </trkpt>
      <trkpt lat="40.279215" lon="0.327269">
        <ele>5.262</ele>
        <time>1970-01-01T03:55:24Z</time>
      </trkpt>
      <trkpt lat="40.279211" lon="0.327225">
        <ele>5.023</ele>
        <time>1970-01-01T03:55:25Z</time>
      </trkpt>
      <trkpt lat="40.279205" lon="0.327176">
        <ele>4.746</ele>
        <time>1970-01-01T03:55:26Z</time>
      </trkpt>
      <trkpt lat="40.279198" lon="0.327122">
        <ele>4.436</ele>
        <time>1970-01-01T03:55:27Z</time>
      </trkpt>
      <trkpt lat="40.279184" lon="0.327066">
        <ele>3.952</ele>
        <time>1970-01-01T03:55:28Z</time>
      </trkpt>
      <trkpt lat="40.279166" lon="0.327015">
        <ele>3.566</ele>
        <time>1970-01-01T03:55:29Z</time>
      </trkpt>
      <trkpt lat="40.279144" lon="0.326972">
        <ele>3.337</ele>
        <time>1970-01-01T03:55:30Z</time>
      </trkpt>
      <trkpt lat="40.279120" lon="0.326947">
        <ele>3.271</ele>
        <time>1970-01-01T03:55:31Z</time>
      </trkpt>
      <trkpt lat="40.279093" lon="0.326932">
        <ele>3.341</ele>
        <time>1970-01-01T03:55:32Z</time>
      </trkpt>
      <trkpt lat="40.279065" lon="0.326919">
        <ele>3.515</ele>
        <time>1970-01-01T03:55:33Z</time>
      </trkpt>
      <trkpt lat="40.279039" lon="0.326902">
        <ele>3.608</ele>
        <time>1970-01-01T03:55:34Z</time>
      </trkpt>
      <trkpt lat="40.279017" lon="0.326877">
        <ele>3.824</ele>
        <time>1970-01-01T03:55:35Z</time>
      </trkpt>
      <trkpt lat="40.279000" lon="0.326842">
        <ele>3.971</ele>
        <time>1970-01-01T03:55:36Z</time>
      </trkpt>
      <trkpt lat="40.278991" lon="0.326803">
        <ele>4.062</ele>
        <time>1970-01-01T03:55:37Z</time>
      </trkpt>
      <trkpt lat="40.279001" lon="0.326762">
        <ele>4.185</ele>
        <time>1970-01-01T03:55:38Z</time>
      </trkpt>
      <trkpt lat="40.279025" lon="0.326735">
        <ele>4.295</ele>
        <time>1970-01-01T03:55:39Z</time>
      </trkpt>
      <trkpt lat="40.279058" lon="0.326723">
        <ele>4.471</ele>
        <time>1970-01-01T03:55:40Z</time>
      </trkpt>
      <trkpt lat="40.279093" lon="0.326714">
        <ele>4.545</ele>
        <time>1970-01-01T03:55:41Z</time>
      </trkpt>
      <trkpt lat="40.279130" lon="0.326708">
        <ele>4.616</ele>
        <time>1970-01-01T03:55:42Z</time>
      </trkpt>
      <trkpt lat="40.279166" lon="0.326702">
        <ele>4.743</ele>
        <time>1970-01-01T03:55:43Z</time>
      </trkpt>
      <trkpt lat="40.279203" lon="0.326702">
        <ele>4.964</ele>
        <time>1970-01-01T03:55:44Z</time>
      </trkpt>
      <trkpt lat="40.279239" lon="0.326701">
        <ele>5.010</ele>
        <time>1970-01-01T03:55:45Z</time>
      </trkpt>
      <trkpt lat="40.279275" lon="0.326697">
        <ele>5.208</ele>
        <time>1970-01-01T03:55:46Z</time>
      </trkpt>
      <trkpt lat="40.279310" lon="0.326688">
        <ele>5.411</ele>
        <time>1970-01-01T03:55:47Z</time>
      </trkpt>
      <trkpt lat="40.279342" lon="0.326679">
        <ele>5.658</ele>
        <time>1970-01-01T03:55:48Z</time>
      </trkpt>
      <trkpt lat="40.279372" lon="0.326668">
        <ele>5.719</ele>
        <time>1970-01-01T03:55:49Z</time>
      </trkpt>
      <trkpt lat="40.279399" lon="0.326651">
        <ele>6.082</ele>
        <time>1970-01-01T03:55:50Z</time>
      </trkpt>
      <trkpt lat="40.279429" lon="0.326632">
        <ele>6.332</ele>
        <time>1970-01-01T03:55:51Z</time>
      </trkpt>
      <trkpt lat="40.279456" lon="0.326606">
        <ele>6.898</ele>
        <time>1970-01-01T03:55:52Z</time>
      </trkpt>
      <trkpt lat="40.279470" lon="0.326569">
        <ele>7.332</ele>
        <time>1970-01-01T03:55:53Z</time>
      </trkpt>
      <trkpt lat="40.279479" lon="0.326533">
        <ele>7.723</ele>
        <time>1970-01-01T03:55:54Z</time>
      </trkpt>
      <trkpt lat="40.279488" lon="0.326502">
        <ele>8.114</ele>
        <time>1970-01-01T03:55:55Z</time>
      </trkpt>
      <trkpt lat="40.279495" lon="0.326472">
        <ele>8.454</ele>
        <time>1970-01-01T03:55:56Z</time>
      </trkpt>
      <trkpt lat="40.279497" lon="0.326444">
        <ele>8.709</ele>
        <time>1970-01-01T03:55:57Z</time>
      </trkpt>
      <trkpt lat="40.279499" lon="0.326421">
        <ele>8.908</ele>
        <time>1970-01-01T03:55:58Z</time>
      </trkpt>
      <trkpt lat="40.279502" lon="0.326398">
        <ele>9.118</ele>
        <time>1970-01-01T03:55:59Z</time>
      </trkpt>
      <trkpt lat="40.279501" lon="0.326375">
        <ele>9.365</ele>
        <time>1970-01-01T03:56:00Z</time>
      </trkpt>
      <trkpt lat="40.279499" lon="0.326349">
        <ele>9.436</ele>
        <time>1970-01-01T03:56:01Z</time>
      </trkpt>
      <trkpt lat="40.279498" lon="0.326325">
        <ele>9.569</ele>
        <time>1970-01-01T03:56:02Z</time>
      </trkpt>
      <trkpt lat="40.279493" lon="0.326300">
        <ele>9.679</ele>
        <time>1970-01-01T03:56:03Z</time>
      </trkpt>
      <trkpt lat="40.279488" lon="0.326275">
        <ele>9.635</ele>
        <time>1970-01-01T03:56:04Z</time>
      </trkpt>
      <trkpt lat="40.279483" lon="0.326246">
        <ele>9.719</ele>
        <time>1970-01-01T03:56:05Z</time>
      </trkpt>
      <trkpt lat="40.279479" lon="0.326218">
        <ele>9.840</ele>
        <time>1970-01-01T03:56:06Z</time>
      </trkpt>
      <trkpt lat="40.279476" lon="0.326191">
        <ele>9.967</ele>
        <time>1970-01-01T03:56:07Z</time>
      </trkpt>
      <trkpt lat="40.279475" lon="0.326163">
        <ele>10.081</ele>
        <time>1970-01-01T03:56:08Z</time>
      </trkpt>
      <trkpt lat="40.279472" lon="0.326136">
        <ele>10.119</ele>
        <time>1970-01-01T03:56:09Z</time>
      </trkpt>
      <trkpt lat="40.279473" lon="0.326106">
        <ele>10.208</ele>
        <time>1970-01-01T03:56:10Z</time>
      </trkpt>
      <trkpt lat="40.279474" lon="0.326074">
        <ele>10.323</ele>
        <time>1970-01-01T03:56:11Z</time>
      </trkpt>
      <trkpt lat="40.279474" lon="0.326040">
        <ele>10.490</ele>
        <time>1970-01-01T03:56:12Z</time>
      </trkpt>
      <trkpt lat="40.279477" lon="0.326007">
        <ele>10.651</ele>
        <time>1970-01-01T03:56:13Z</time>
      </trkpt>
      <trkpt lat="40.279483" lon="0.325974">
        <ele>10.784</ele>
        <time>1970-01-01T03:56:14Z</time>
      </trkpt>
      <trkpt lat="40.279491" lon="0.325942">
        <ele>10.814</ele>
        <time>1970-01-01T03:56:15Z</time>
      </trkpt>
      <trkpt lat="40.279500" lon="0.325909">
        <ele>11.050</ele>
        <time>1970-01-01T03:56:16Z</time>
      </trkpt>
      <trkpt lat="40.279511" lon="0.325878">
        <ele>11.164</ele>
        <time>1970-01-01T03:56:17Z</time>
      </trkpt>
      <trkpt lat="40.279522" lon="0.325847">
        <ele>11.245</ele>
        <time>1970-01-01T03:56:18Z</time>
      </trkpt>
      <trkpt lat="40.279533" lon="0.325814">
        <ele>11.362</ele>
        <time>1970-01-01T03:56:19Z</time>
      </trkpt>
      <trkpt lat="40.279544" lon="0.325784">
        <ele>11.283</ele>
        <time>1970-01-01T03:56:20Z</time>
      </trkpt>
      <trkpt lat="40.279555" lon="0.325755">
        <ele>11.211</ele>
        <time>1970-01-01T03:56:21Z</time>
      </trkpt>
      <trkpt lat="40.279565" lon="0.325723">
        <ele>11.208</ele>
        <time>1970-01-01T03:56:22Z</time>
      </trkpt>
      <trkpt lat="40.279575" lon="0.325692">
        <ele>11.213</ele>
        <time>1970-01-01T03:56:23Z</time>
      </trkpt>
      <trkpt lat="40.279587" lon="0.325660">
        <ele>11.230</ele>
        <time>1970-01-01T03:56:24Z</time>
      </trkpt>
      <trkpt lat="40.279599" lon="0.325626">
        <ele>11.291</ele>
        <time>1970-01-01T03:56:25Z</time>
      </trkpt>
      <trkpt lat="40.279612" lon="0.325593">
        <ele>11.344</ele>
        <time>1970-01-01T03:56:26Z</time>
      </trkpt>
      <trkpt lat="40.279627" lon="0.325560">
        <ele>11.394</ele>
        <time>1970-01-01T03:56:27Z</time>
      </trkpt>
      <trkpt lat="40.279645" lon="0.325532">
        <ele>11.490</ele>
        <time>1970-01-01T03:56:28Z</time>
      </trkpt>
      <trkpt lat="40.279664" lon="0.325507">
        <ele>11.694</ele>
        <time>1970-01-01T03:56:29Z</time>
      </trkpt>
      <trkpt lat="40.279685" lon="0.325484">
        <ele>11.765</ele>
        <time>1970-01-01T03:56:30Z</time>
      </trkpt>
      <trkpt lat="40.279709" lon="0.325461">
        <ele>11.982</ele>
        <time>1970-01-01T03:56:31Z</time>
      </trkpt>
      <trkpt lat="40.279735" lon="0.325435">
        <ele>12.143</ele>
        <time>1970-01-01T03:56:32Z</time>
      </trkpt>
      <trkpt lat="40.279762" lon="0.325407">
        <ele>12.217</ele>
        <time>1970-01-01T03:56:33Z</time>
      </trkpt>
      <trkpt lat="40.279791" lon="0.325379">
        <ele>12.308</ele>
        <time>1970-01-01T03:56:34Z</time>
      </trkpt>
      <trkpt lat="40.279821" lon="0.325352">
        <ele>12.575</ele>
        <time>1970-01-01T03:56:35Z</time>
      </trkpt>
      <trkpt lat="40.279851" lon="0.325324">
        <ele>12.552</ele>
        <time>1970-01-01T03:56:36Z</time>
      </trkpt>
      <trkpt lat="40.279880" lon="0.325294">
        <ele>12.623</ele>
        <time>1970-01-01T03:56:37Z</time>
      </trkpt>
      <trkpt lat="40.279909" lon="0.325264">
        <ele>12.746</ele>
        <time>1970-01-01T03:56:38Z</time>
      </trkpt>
      <trkpt lat="40.279939" lon="0.325236">
        <ele>12.926</ele>
        <time>1970-01-01T03:56:39Z</time>
      </trkpt>
      <trkpt lat="40.279969" lon="0.325208">
        <ele>13.172</ele>
        <time>1970-01-01T03:56:40Z</time>
      </trkpt>
      <trkpt lat="40.280000" lon="0.325180">
        <ele>13.416</ele>
        <time>1970-01-01T03:56:41Z</time>
      </trkpt>
      <trkpt lat="40.280028" lon="0.325149">
        <ele>13.737</ele>
        <time>1970-01-01T03:56:42Z</time>
      </trkpt>
      <trkpt lat="40.280055" lon="0.325117">
        <ele>14.031</ele>
        <time>1970-01-01T03:56:43Z</time>
      </trkpt>
      <trkpt lat="40.280083" lon="0.325083">
        <ele>14.361</ele>
        <time>1970-01-01T03:56:44Z</time>
      </trkpt>
      <trkpt lat="40.280111" lon="0.325050">
        <ele>14.607</ele>
        <time>1970-01-01T03:56:45Z</time>
      </trkpt>
      <trkpt lat="40.280138" lon="0.325015">
        <ele>14.908</ele>
        <time>1970-01-01T03:56:46Z</time>
      </trkpt>
      <trkpt lat="40.280165" lon="0.324978">
        <ele>15.240</ele>
        <time>1970-01-01T03:56:47Z</time>
      </trkpt>
      <trkpt lat="40.280190" lon="0.324937">
        <ele>15.537</ele>
        <time>1970-01-01T03:56:48Z</time>
      </trkpt>
      <trkpt lat="40.280216" lon="0.324895">
        <ele>15.858</ele>
        <time>1970-01-01T03:56:49Z</time>
      </trkpt>
      <trkpt lat="40.280243" lon="0.324852">
        <ele>16.271</ele>
        <time>1970-01-01T03:56:50Z</time>
      </trkpt>
      <trkpt lat="40.280268" lon="0.324807">
        <ele>16.681</ele>
        <time>1970-01-01T03:56:51Z</time>
      </trkpt>
      <trkpt lat="40.280293" lon="0.324761">
        <ele>17.097</ele>
        <time>1970-01-01T03:56:52Z</time>
      </trkpt>
      <trkpt lat="40.280320" lon="0.324714">
        <ele>17.381</ele>
        <time>1970-01-01T03:56:53Z</time>
      </trkpt>
      <trkpt lat="40.280347" lon="0.324664">
        <ele>17.372</ele>
        <time>1970-01-01T03:56:54Z</time>
      </trkpt>
      <trkpt lat="40.280372" lon="0.324611">
        <ele>17.366</ele>
        <time>1970-01-01T03:56:55Z</time>
      </trkpt>
      <trkpt lat="40.280395" lon="0.324559">
        <ele>17.329</ele>
        <time>1970-01-01T03:56:56Z</time>
      </trkpt>
      <trkpt lat="40.280417" lon="0.324507">
        <ele>17.221</ele>
        <time>1970-01-01T03:56:57Z</time>
      </trkpt>
      <trkpt lat="40.280437" lon="0.324457">
        <ele>17.208</ele>
        <time>1970-01-01T03:56:58Z</time>
      </trkpt>
      <trkpt lat="40.280460" lon="0.324409">
        <ele>17.433</ele>
        <time>1970-01-01T03:56:59Z</time>
      </trkpt>
      <trkpt lat="40.280485" lon="0.324361">
        <ele>17.670</ele>
        <time>1970-01-01T03:57:00Z</time>
      </trkpt>
      <trkpt lat="40.280511" lon="0.324310">
        <ele>17.851</ele>
        <time>1970-01-01T03:57:01Z</time>
      </trkpt>
      <trkpt lat="40.280540" lon="0.324258">
        <ele>17.944</ele>
        <time>1970-01-01T03:57:02Z</time>
      </trkpt>
      <trkpt lat="40.280569" lon="0.324206">
        <ele>18.134</ele>
        <time>1970-01-01T03:57:03Z</time>
      </trkpt>
      <trkpt lat="40.280592" lon="0.324148">
        <ele>18.440</ele>
        <time>1970-01-01T03:57:04Z</time>
      </trkpt>
      <trkpt lat="40.280594" lon="0.324083">
        <ele>18.874</ele>
        <time>1970-01-01T03:57:05Z</time>
      </trkpt>
      <trkpt lat="40.280568" lon="0.324021">
        <ele>19.155</ele>
        <time>1970-01-01T03:57:06Z</time>
      </trkpt>
      <trkpt lat="40.280531" lon="0.323987">
        <ele>19.215</ele>
        <time>1970-01-01T03:57:07Z</time>
      </trkpt>
      <trkpt lat="40.280500" lon="0.323986">
        <ele>19.165</ele>
        <time>1970-01-01T03:57:08Z</time>
      </trkpt>
      <trkpt lat="40.280471" lon="0.324003">
        <ele>18.911</ele>
        <time>1970-01-01T03:57:09Z</time>
      </trkpt>
      <trkpt lat="40.280442" lon="0.324031">
        <ele>18.608</ele>
        <time>1970-01-01T03:57:10Z</time>
      </trkpt>
      <trkpt lat="40.280410" lon="0.324056">
        <ele>18.318</ele>
        <time>1970-01-01T03:57:11Z</time>
      </trkpt>
      <trkpt lat="40.280377" lon="0.324081">
        <ele>18.085</ele>
        <time>1970-01-01T03:57:12Z</time>
      </trkpt>
      <trkpt lat="40.280343" lon="0.324103">
        <ele>17.776</ele>
        <time>1970-01-01T03:57:13Z</time>
      </trkpt>
      <trkpt lat="40.280309" lon="0.324123">
        <ele>17.459</ele>
        <time>1970-01-01T03:57:14Z</time>
      </trkpt>
      <trkpt lat="40.280273" lon="0.324145">
        <ele>17.269</ele>
        <time>1970-01-01T03:57:15Z</time>
      </trkpt>
      <trkpt lat="40.280237" lon="0.324163">
        <ele>17.065</ele>
        <time>1970-01-01T03:57:16Z</time>
      </trkpt>
      <trkpt lat="40.280202" lon="0.324175">
        <ele>17.079</ele>
        <time>1970-01-01T03:57:17Z</time>
      </trkpt>
      <trkpt lat="40.280166" lon="0.324174">
        <ele>17.030</ele>
        <time>1970-01-01T03:57:18Z</time>
      </trkpt>
      <trkpt lat="40.280136" lon="0.324156">
        <ele>17.165</ele>
        <time>1970-01-01T03:57:19Z</time>
      </trkpt>
      <trkpt lat="40.280121" lon="0.324126">
        <ele>17.368</ele>
        <time>1970-01-01T03:57:20Z</time>
      </trkpt>
      <trkpt lat="40.280124" lon="0.324089">
        <ele>17.614</ele>
        <time>1970-01-01T03:57:21Z</time>
      </trkpt>
      <trkpt lat="40.280141" lon="0.324053">
        <ele>17.808</ele>
        <time>1970-01-01T03:57:22Z</time>
      </trkpt>
      <trkpt lat="40.280165" lon="0.324021">
        <ele>18.043</ele>
        <time>1970-01-01T03:57:23Z</time>
      </trkpt>
      <trkpt lat="40.280191" lon="0.323989">
        <ele>18.380</ele>
        <time>1970-01-01T03:57:24Z</time>
      </trkpt>
      <trkpt lat="40.280218" lon="0.323958">
        <ele>18.571</ele>
        <time>1970-01-01T03:57:25Z</time>
      </trkpt>
      <trkpt lat="40.280244" lon="0.323924">
        <ele>18.714</ele>
        <time>1970-01-01T03:57:26Z</time>
      </trkpt>
      <trkpt lat="40.280270" lon="0.323888">
        <ele>19.094</ele>
        <time>1970-01-01T03:57:27Z</time>
      </trkpt>
      <trkpt lat="40.280294" lon="0.323850">
        <ele>19.330</ele>
        <time>1970-01-01T03:57:28Z</time>
      </trkpt>
      <trkpt lat="40.280314" lon="0.323809">
        <ele>19.784</ele>
        <time>1970-01-01T03:57:29Z</time>
      </trkpt>
      <trkpt lat="40.280334" lon="0.323768">
        <ele>20.055</ele>
        <time>1970-01-01T03:57:30Z</time>
      </trkpt>
      <trkpt lat="40.280352" lon="0.323727">
        <ele>20.317</ele>
        <time>1970-01-01T03:57:31Z</time>
      </trkpt>
      <trkpt lat="40.280369" lon="0.323685">
        <ele>20.687</ele>
        <time>1970-01-01T03:57:32Z</time>
      </trkpt>
      <trkpt lat="40.280384" lon="0.323641">
        <ele>20.815</ele>
        <time>1970-01-01T03:57:33Z</time>
      </trkpt>
      <trkpt lat="40.280401" lon="0.323600">
        <ele>21.008</ele>
        <time>1970-01-01T03:57:34Z</time>
      </trkpt>
      <trkpt lat="40.280416" lon="0.323558">
        <ele>21.218</ele>
        <time>1970-01-01T03:57:35Z</time>
      </trkpt>
      <trkpt lat="40.280432" lon="0.323515">
        <ele>21.375</ele>
        <time>1970-01-01T03:57:36Z</time>
      </trkpt>
      <trkpt lat="40.280447" lon="0.323473">
        <ele>21.566</ele>
        <time>1970-01-01T03:57:37Z</time>
      </trkpt>
      <trkpt lat="40.280460" lon="0.323432">
        <ele>21.689</ele>
        <time>1970-01-01T03:57:38Z</time>
      </trkpt>
      <trkpt lat="40.280469" lon="0.323393">
        <ele>21.829</ele>
        <time>1970-01-01T03:57:39Z</time>
      </trkpt>
      <trkpt lat="40.280478" lon="0.323354">
        <ele>21.945</ele>
        <time>1970-01-01T03:57:40Z</time>
      </trkpt>
      <trkpt lat="40.280488" lon="0.323311">
        <ele>22.159</ele>
        <time>1970-01-01T03:57:41Z</time>
      </trkpt>
      <trkpt lat="40.280497" lon="0.323268">
        <ele>22.290</ele>
        <time>1970-01-01T03:57:42Z</time>
      </trkpt>
      <trkpt lat="40.280506" lon="0.323224">
        <ele>22.474</ele>
        <time>1970-01-01T03:57:43Z</time>
      </trkpt>
      <trkpt lat="40.280515" lon="0.323180">
        <ele>22.656</ele>
        <time>1970-01-01T03:57:44Z</time>
      </trkpt>
      <trkpt lat="40.280524" lon="0.323137">
        <ele>22.721</ele>
        <time>1970-01-01T03:57:45Z</time>
      </trkpt>
      <trkpt lat="40.280535" lon="0.323095">
        <ele>22.908</ele>
        <time>1970-01-01T03:57:46Z</time>
      </trkpt>
      <trkpt lat="40.280547" lon="0.323054">
        <ele>23.084</ele>
        <time>1970-01-01T03:57:47Z</time>
      </trkpt>
      <trkpt lat="40.280558" lon="0.323012">
        <ele>23.271</ele>
        <time>1970-01-01T03:57:48Z</time>
      </trkpt>
      <trkpt lat="40.280568" lon="0.322971">
        <ele>23.312</ele>
        <time>1970-01-01T03:57:49Z</time>
      </trkpt>
      <trkpt lat="40.280579" lon="0.322930">
        <ele>23.545</ele>
        <time>1970-01-01T03:57:50Z</time>
      </trkpt>
      <trkpt lat="40.280590" lon="0.322888">
        <ele>23.665</ele>
        <time>1970-01-01T03:57:51Z</time>
      </trkpt>
      <trkpt lat="40.280602" lon="0.322845">
        <ele>23.851</ele>
        <time>1970-01-01T03:57:52Z</time>
      </trkpt>
      <trkpt lat="40.280614" lon="0.322802">
        <ele>23.935</ele>
        <time>1970-01-01T03:57:53Z</time>
      </trkpt>
      <trkpt lat="40.280624" lon="0.322754">
        <ele>24.286</ele>
        <time>1970-01-01T03:57:54Z</time>
      </trkpt>
      <trkpt lat="40.280635" lon="0.322706">
        <ele>24.533</ele>
        <time>1970-01-01T03:57:55Z</time>
      </trkpt>
      <trkpt lat="40.280642" lon="0.322656">
        <ele>24.923</ele>
        <time>1970-01-01T03:57:56Z</time>
      </trkpt>
      <trkpt lat="40.280648" lon="0.322608">
        <ele>25.215</ele>
        <time>1970-01-01T03:57:57Z</time>
      </trkpt>
      <trkpt lat="40.280655" lon="0.322562">
        <ele>25.608</ele>
        <time>1970-01-01T03:57:58Z</time>
      </trkpt>
      <trkpt lat="40.280664" lon="0.322519">
        <ele>25.940</ele>
        <time>1970-01-01T03:57:59Z</time>
      </trkpt>
      <trkpt lat="40.280670" lon="0.322476">
        <ele>26.177</ele>
        <time>1970-01-01T03:58:00Z</time>
      </trkpt>
      <trkpt lat="40.280673" lon="0.322431">
        <ele>26.498</ele>
        <time>1970-01-01T03:58:01Z</time>
      </trkpt>
      <trkpt lat="40.280673" lon="0.322386">
        <ele>26.641</ele>
        <time>1970-01-01T03:58:02Z</time>
      </trkpt>
      <trkpt lat="40.280675" lon="0.322343">
        <ele>26.831</ele>
        <time>1970-01-01T03:58:03Z</time>
      </trkpt>
      <trkpt lat="40.280678" lon="0.322300">
        <ele>27.027</ele>
        <time>1970-01-01T03:58:04Z</time>
      </trkpt>
      <trkpt lat="40.280682" lon="0.322258">
        <ele>27.311</ele>
        <time>1970-01-01T03:58:05Z</time>
      </trkpt>
      <trkpt lat="40.280686" lon="0.322214">
        <ele>27.552</ele>
        <time>1970-01-01T03:58:06Z</time>
      </trkpt>
      <trkpt lat="40.280691" lon="0.322172">
        <ele>27.853</ele>
        <time>1970-01-01T03:58:07Z</time>
      </trkpt>
      <trkpt lat="40.280695" lon="0.322130">
        <ele>28.004</ele>
        <time>1970-01-01T03:58:08Z</time>
      </trkpt>
      <trkpt lat="40.280695" lon="0.322091">
        <ele>28.214</ele>
        <time>1970-01-01T03:58:09Z</time>
      </trkpt>
      <trkpt lat="40.280691" lon="0.322051">
        <ele>28.408</ele>
        <time>1970-01-01T03:58:10Z</time>
      </trkpt>
      <trkpt lat="40.280683" lon="0.322007">
        <ele>28.742</ele>
        <time>1970-01-01T03:58:11Z</time>
      </trkpt>
      <trkpt lat="40.280677" lon="0.321965">
        <ele>28.929</ele>
        <time>1970-01-01T03:58:12Z</time>
      </trkpt>
      <trkpt lat="40.280670" lon="0.321920">
        <ele>29.010</ele>
        <time>1970-01-01T03:58:13Z</time>
      </trkpt>
      <trkpt lat="40.280664" lon="0.321878">
        <ele>29.113</ele>
        <time>1970-01-01T03:58:14Z</time>
      </trkpt>
      <trkpt lat="40.280659" lon="0.321838">
        <ele>29.183</ele>
        <time>1970-01-01T03:58:15Z</time>
      </trkpt>
      <trkpt lat="40.280655" lon="0.321800">
        <ele>29.249</ele>
        <time>1970-01-01T03:58:16Z</time>
      </trkpt>
      <trkpt lat="40.280652" lon="0.321757">
        <ele>29.233</ele>
        <time>1970-01-01T03:58:17Z</time>
      </trkpt>
      <trkpt lat="40.280649" lon="0.321713">
        <ele>29.324</ele>
        <time>1970-01-01T03:58:18Z</time>
      </trkpt>
      <trkpt lat="40.280642" lon="0.321668">
        <ele>29.336</ele>
        <time>1970-01-01T03:58:19Z</time>
      </trkpt>
      <trkpt lat="40.280631" lon="0.321623">
        <ele>29.417</ele>
        <time>1970-01-01T03:58:20Z</time>
      </trkpt>
      <trkpt lat="40.280616" lon="0.321581">
        <ele>29.518</ele>
        <time>1970-01-01T03:58:21Z</time>
      </trkpt>
      <trkpt lat="40.280592" lon="0.321544">
        <ele>29.508</ele>
        <time>1970-01-01T03:58:22Z</time>
      </trkpt>
      <trkpt lat="40.280564" lon="0.321516">
        <ele>29.620</ele>
        <time>1970-01-01T03:58:23Z</time>
      </trkpt>
      <trkpt lat="40.280536" lon="0.321488">
        <ele>29.627</ele>
        <time>1970-01-01T03:58:24Z</time>
      </trkpt>
      <trkpt lat="40.280509" lon="0.321463">
        <ele>29.728</ele>
        <time>1970-01-01T03:58:25Z</time>
      </trkpt>
      <trkpt lat="40.280482" lon="0.321439">
        <ele>29.851</ele>
        <time>1970-01-01T03:58:26Z</time>
      </trkpt>
      <trkpt lat="40.280454" lon="0.321419">
        <ele>29.951</ele>
        <time>1970-01-01T03:58:27Z</time>
      </trkpt>
      <trkpt lat="40.280428" lon="0.321396">
        <ele>30.077</ele>
        <time>1970-01-01T03:58:28Z</time>
      </trkpt>
      <trkpt lat="40.280400" lon="0.321370">
        <ele>30.031</ele>
        <time>1970-01-01T03:58:29Z</time>
      </trkpt>
      <trkpt lat="40.280372" lon="0.321346">
        <ele>30.142</ele>
        <time>1970-01-01T03:58:30Z</time>
      </trkpt>
      <trkpt lat="40.280343" lon="0.321323">
        <ele>30.232</ele>
        <time>1970-01-01T03:58:31Z</time>
      </trkpt>
      <trkpt lat="40.280312" lon="0.321297">
        <ele>30.392</ele>
        <time>1970-01-01T03:58:32Z</time>
      </trkpt>
      <trkpt lat="40.280280" lon="0.321272">
        <ele>30.411</ele>
        <time>1970-01-01T03:58:33Z</time>
      </trkpt>
      <trkpt lat="40.280247" lon="0.321246">
        <ele>30.408</ele>
        <time>1970-01-01T03:58:34Z</time>
      </trkpt>
      <trkpt lat="40.280213" lon="0.321216">
        <ele>30.460</ele>
        <time>1970-01-01T03:58:35Z</time>
      </trkpt>
      <trkpt lat="40.280177" lon="0.321184">
        <ele>30.427</ele>
        <time>1970-01-01T03:58:36Z</time>
      </trkpt>
      <trkpt lat="40.280138" lon="0.321154">
        <ele>30.378</ele>
        <time>1970-01-01T03:58:37Z</time>
      </trkpt>
      <trkpt lat="40.280098" lon="0.321127">
        <ele>30.331</ele>
        <time>1970-01-01T03:58:38Z</time>
      </trkpt>
      <trkpt lat="40.280058" lon="0.321099">
        <ele>30.211</ele>
        <time>1970-01-01T03:58:39Z</time>
      </trkpt>
      <trkpt lat="40.280019" lon="0.321071">
        <ele>30.187</ele>
        <time>1970-01-01T03:58:40Z</time>
      </trkpt>
      <trkpt lat="40.279978" lon="0.321047">
        <ele>29.931</ele>
        <time>1970-01-01T03:58:41Z</time>
      </trkpt>
      <trkpt lat="40.279935" lon="0.321029">
        <ele>29.832</ele>
        <time>1970-01-01T03:58:42Z</time>
      </trkpt>
      <trkpt lat="40.279894" lon="0.321010">
        <ele>29.835</ele>
        <time>1970-01-01T03:58:43Z</time>
      </trkpt>
      <trkpt lat="40.279854" lon="0.320987">
        <ele>29.786</ele>
        <time>1970-01-01T03:58:44Z</time>
      </trkpt>
      <trkpt lat="40.279811" lon="0.320961">
        <ele>29.714</ele>
        <time>1970-01-01T03:58:45Z</time>
      </trkpt>
      <trkpt lat="40.279771" lon="0.320936">
        <ele>29.708</ele>
        <time>1970-01-01T03:58:46Z</time>
      </trkpt>
      <trkpt lat="40.279731" lon="0.320908">
        <ele>29.740</ele>
        <time>1970-01-01T03:58:47Z</time>
      </trkpt>
      <trkpt lat="40.279694" lon="0.320874">
        <ele>29.967</ele>
        <time>1970-01-01T03:58:48Z</time>
      </trkpt>
      <trkpt lat="40.279657" lon="0.320838">
        <ele>30.048</ele>
        <time>1970-01-01T03:58:49Z</time>
      </trkpt>
      <trkpt lat="40.279619" lon="0.320803">
        <ele>30.041</ele>
        <time>1970-01-01T03:58:50Z</time>
      </trkpt>
      <trkpt lat="40.279582" lon="0.320770">
        <ele>30.091</ele>
        <time>1970-01-01T03:58:51Z</time>
      </trkpt>
      <trkpt lat="40.279544" lon="0.320737">
        <ele>30.027</ele>
        <time>1970-01-01T03:58:52Z</time>
      </trkpt>
      <trkpt lat="40.279510" lon="0.320702">
        <ele>30.081</ele>
        <time>1970-01-01T03:58:53Z</time>
      </trkpt>
      <trkpt lat="40.279478" lon="0.320664">
        <ele>30.082</ele>
        <time>1970-01-01T03:58:54Z</time>
      </trkpt>
      <trkpt lat="40.279443" lon="0.320625">
        <ele>30.024</ele>
        <time>1970-01-01T03:58:55Z</time>
      </trkpt>
      <trkpt lat="40.279403" lon="0.320592">
        <ele>30.004</ele>
        <time>1970-01-01T03:58:56Z</time>
      </trkpt>
      <trkpt lat="40.279361" lon="0.320558">
        <ele>30.014</ele>
        <time>1970-01-01T03:58:57Z</time>
      </trkpt>
      <trkpt lat="40.279318" lon="0.320524">
        <ele>30.208</ele>
        <time>1970-01-01T03:58:58Z</time>
      </trkpt>
      <trkpt lat="40.279278" lon="0.320490">
        <ele>30.349</ele>
        <time>1970-01-01T03:58:59Z</time>
      </trkpt>
      <trkpt lat="40.279240" lon="0.320456">
        <ele>30.516</ele>
        <time>1970-01-01T03:59:00Z</time>
      </trkpt>
      <trkpt lat="40.279200" lon="0.320428">
        <ele>30.577</ele>
        <time>1970-01-01T03:59:01Z</time>
      </trkpt>
      <trkpt lat="40.279160" lon="0.320399">
        <ele>30.650</ele>
        <time>1970-01-01T03:59:02Z</time>
      </trkpt>
      <trkpt lat="40.279119" lon="0.320369">
        <ele>30.790</ele>
        <time>1970-01-01T03:59:03Z</time>
      </trkpt>
      <trkpt lat="40.279081" lon="0.320334">
        <ele>30.916</ele>
        <time>1970-01-01T03:59:04Z</time>
      </trkpt>
      <trkpt lat="40.279044" lon="0.320294">
        <ele>31.040</ele>
        <time>1970-01-01T03:59:05Z</time>
      </trkpt>
      <trkpt lat="40.279012" lon="0.320254">
        <ele>31.041</ele>
        <time>1970-01-01T03:59:06Z</time>
      </trkpt>
      <trkpt lat="40.278985" lon="0.320219">
        <ele>31.191</ele>
        <time>1970-01-01T03:59:07Z</time>
      </trkpt>
      <trkpt lat="40.278965" lon="0.320171">
        <ele>31.181</ele>
        <time>1970-01-01T03:59:08Z</time>
      </trkpt>
      <trkpt lat="40.278956" lon="0.320123">
        <ele>31.119</ele>
        <time>1970-01-01T03:59:09Z</time>
      </trkpt>
      <trkpt lat="40.278947" lon="0.320071">
        <ele>31.208</ele>
        <time>1970-01-01T03:59:10Z</time>
      </trkpt>
      <trkpt lat="40.278939" lon="0.320024">
        <ele>31.226</ele>
        <time>1970-01-01T03:59:11Z</time>
      </trkpt>
      <trkpt lat="40.278932" lon="0.319975">
        <ele>31.233</ele>
        <time>1970-01-01T03:59:12Z</time>
      </trkpt>
      <trkpt lat="40.278927" lon="0.319922">
        <ele>31.424</ele>
        <time>1970-01-01T03:59:13Z</time>
      </trkpt>
      <trkpt lat="40.278922" lon="0.319866">
        <ele>31.697</ele>
        <time>1970-01-01T03:59:14Z</time>
      </trkpt>
      <trkpt lat="40.278914" lon="0.319809">
        <ele>31.887</ele>
        <time>1970-01-01T03:59:15Z</time>
      </trkpt>
      <trkpt lat="40.278906" lon="0.319753">
        <ele>32.063</ele>
        <time>1970-01-01T03:59:16Z</time>
      </trkpt>
      <trkpt lat="40.278897" lon="0.319698">
        <ele>32.267</ele>
        <time>1970-01-01T03:59:17Z</time>
      </trkpt>
      <trkpt lat="40.278888" lon="0.319639">
        <ele>32.628</ele>
        <time>1970-01-01T03:59:18Z</time>
      </trkpt>
      <trkpt lat="40.278881" lon="0.319579">
        <ele>33.077</ele>
        <time>1970-01-01T03:59:19Z</time>
      </trkpt>
      <trkpt lat="40.278873" lon="0.319524">
        <ele>33.461</ele>
        <time>1970-01-01T03:59:20Z</time>
      </trkpt>
      <trkpt lat="40.278868" lon="0.319470">
        <ele>33.827</ele>
        <time>1970-01-01T03:59:21Z</time>
      </trkpt>
      <trkpt lat="40.278866" lon="0.319416">
        <ele>34.208</ele>
        <time>1970-01-01T03:59:22Z</time>
      </trkpt>
      <trkpt lat="40.278868" lon="0.319361">
        <ele>34.634</ele>
        <time>1970-01-01T03:59:23Z</time>
      </trkpt>
      <trkpt lat="40.278868" lon="0.319307">
        <ele>35.051</ele>
        <time>1970-01-01T03:59:24Z</time>
      </trkpt>
      <trkpt lat="40.278864" lon="0.319252">
        <ele>35.412</ele>
        <time>1970-01-01T03:59:25Z</time>
      </trkpt>
      <trkpt lat="40.278856" lon="0.319197">
        <ele>35.895</ele>
        <time>1970-01-01T03:59:26Z</time>
      </trkpt>
      <trkpt lat="40.278845" lon="0.319143">
        <ele>36.225</ele>
        <time>1970-01-01T03:59:27Z</time>
      </trkpt>
      <trkpt lat="40.278834" lon="0.319090">
        <ele>36.511</ele>
        <time>1970-01-01T03:59:28Z</time>
      </trkpt>
      <trkpt lat="40.278824" lon="0.319043">
        <ele>36.825</ele>
        <time>1970-01-01T03:59:29Z</time>
      </trkpt>
      <trkpt lat="40.278816" lon="0.319001">
        <ele>37.056</ele>
        <time>1970-01-01T03:59:30Z</time>
      </trkpt>
      <trkpt lat="40.278806" lon="0.318962">
        <ele>37.369</ele>
        <time>1970-01-01T03:59:31Z</time>
      </trkpt>
      <trkpt lat="40.278797" lon="0.318923">
        <ele>37.504</ele>
        <time>1970-01-01T03:59:32Z</time>
      </trkpt>
      <trkpt lat="40.278787" lon="0.318886">
        <ele>37.624</ele>
        <time>1970-01-01T03:59:33Z</time>
      </trkpt>
      <trkpt lat="40.278776" lon="0.318848">
        <ele>37.808</ele>
        <time>1970-01-01T03:59:34Z</time>
      </trkpt>
      <trkpt lat="40.278767" lon="0.318807">
        <ele>38.033</ele>
        <time>1970-01-01T03:59:35Z</time>
      </trkpt>
      <trkpt lat="40.278761" lon="0.318762">
        <ele>38.270</ele>
        <time>1970-01-01T03:59:36Z</time>
      </trkpt>
      <trkpt lat="40.278761" lon="0.318724">
        <ele>38.581</ele>
        <time>1970-01-01T03:59:37Z</time>
      </trkpt>
      <trkpt lat="40.278764" lon="0.318681">
        <ele>38.784</ele>
        <time>1970-01-01T03:59:38Z</time>
      </trkpt>
      <trkpt lat="40.278772" lon="0.318638">
        <ele>39.094</ele>
        <time>1970-01-01T03:59:39Z</time>
      </trkpt>
      <trkpt lat="40.278784" lon="0.318597">
        <ele>39.360</ele>
        <time>1970-01-01T03:59:40Z</time>
      </trkpt>
      <trkpt lat="40.278796" lon="0.318555">
        <ele>39.454</ele>
        <time>1970-01-01T03:59:41Z</time>
      </trkpt>
      <trkpt lat="40.278807" lon="0.318513">
        <ele>39.555</ele>
        <time>1970-01-01T03:59:42Z</time>
      </trkpt>
      <trkpt lat="40.278820" lon="0.318474">
        <ele>39.612</ele>
        <time>1970-01-01T03:59:43Z</time>
      </trkpt>
      <trkpt lat="40.278835" lon="0.318435">
        <ele>39.732</ele>
        <time>1970-01-01T03:59:44Z</time>
      </trkpt>
      <trkpt lat="40.278855" lon="0.318396">
        <ele>39.905</ele>
        <time>1970-01-01T03:59:45Z</time>
      </trkpt>
      <trkpt lat="40.278877" lon="0.318360">
        <ele>40.008</ele>
        <time>1970-01-01T03:59:46Z</time>
      </trkpt>
      <trkpt lat="40.278899" lon="0.318325">
        <ele>40.048</ele>
        <time>1970-01-01T03:59:47Z</time>
      </trkpt>
      <trkpt lat="40.278923" lon="0.318290">
        <ele>40.195</ele>
        <time>1970-01-01T03:59:48Z</time>
      </trkpt>
      <trkpt lat="40.278945" lon="0.318255">
        <ele>40.296</ele>
        <time>1970-01-01T03:59:49Z</time>
      </trkpt>
      <trkpt lat="40.278964" lon="0.318223">
        <ele>40.359</ele>
        <time>1970-01-01T03:59:50Z</time>
      </trkpt>
      <trkpt lat="40.278980" lon="0.318190">
        <ele>40.319</ele>
        <time>1970-01-01T03:59:51Z</time>
      </trkpt>
      <trkpt lat="40.279001" lon="0.318153">
        <ele>40.445</ele>
        <time>1970-01-01T03:59:52Z</time>
      </trkpt>
      <trkpt lat="40.279022" lon="0.318113">
        <ele>40.479</ele>
        <time>1970-01-01T03:59:53Z</time>
      </trkpt>
      <trkpt lat="40.279041" lon="0.318072">
        <ele>40.490</ele>
        <time>1970-01-01T03:59:54Z</time>
      </trkpt>
      <trkpt lat="40.279049" lon="0.318031">
        <ele>40.558</ele>
        <time>1970-01-01T03:59:55Z</time>
      </trkpt>
      <trkpt lat="40.279049" lon="0.317990">
        <ele>40.652</ele>
        <time>1970-01-01T03:59:56Z</time>
      </trkpt>
      <trkpt lat="40.279044" lon="0.317953">
        <ele>40.617</ele>
        <time>1970-01-01T03:59:57Z</time>
      </trkpt>
      <trkpt lat="40.279038" lon="0.317917">
        <ele>40.708</ele>
        <time>1970-01-01T03:59:58Z</time>
      </trkpt>
      <trkpt lat="40.279031" lon="0.317878">
        <ele>40.892</ele>
        <time>1970-01-01T03:59:59Z</time>
      </trkpt>
      <trkpt lat="40.279023" lon="0.317843">
        <ele>40.919</ele>
        <time>1970-01-01T04:00:00Z</time>
      </trkpt>
      <trkpt lat="40.279019" lon="0.317805">
        <ele>41.040</ele>
        <time>1970-01-01T04:00:01Z</time>
      </trkpt>
      <trkpt lat="40.279016" lon="0.317768">
        <ele>41.193</ele>
        <time>1970-01-01T04:00:02Z</time>
      </trkpt>
      <trkpt lat="40.279014" lon="0.317732">
        <ele>41.473</ele>
        <time>1970-01-01T04:00:03Z</time>
      </trkpt>
      <trkpt lat="40.279014" lon="0.317695">
        <ele>41.899</ele>
        <time>1970-01-01T04:00:04Z</time>
      </trkpt>
      <trkpt lat="40.279015" lon="0.317657">
        <ele>42.153</ele>
        <time>1970-01-01T04:00:05Z</time>
      </trkpt>
      <trkpt lat="40.279019" lon="0.317622">
        <ele>42.424</ele>
        <time>1970-01-01T04:00:06Z</time>
      </trkpt>
      <trkpt lat="40.279026" lon="0.317585">
        <ele>42.716</ele>
        <time>1970-01-01T04:00:07Z</time>
      </trkpt>
      <trkpt lat="40.279035" lon="0.317550">
        <ele>43.076</ele>
        <time>1970-01-01T04:00:08Z</time>
      </trkpt>
      <trkpt lat="40.279044" lon="0.317510">
        <ele>43.413</ele>
        <time>1970-01-01T04:00:09Z</time>
      </trkpt>
      <trkpt lat="40.279049" lon="0.317470">
        <ele>43.708</ele>
        <time>1970-01-01T04:00:10Z</time>
      </trkpt>
      <trkpt lat="40.279053" lon="0.317437">
        <ele>43.998</ele>
        <time>1970-01-01T04:00:11Z</time>
      </trkpt>
      <trkpt lat="40.279057" lon="0.317402">
        <ele>44.265</ele>
        <time>1970-01-01T04:00:12Z</time>
      </trkpt>
      <trkpt lat="40.279063" lon="0.317367">
        <ele>44.566</ele>
        <time>1970-01-01T04:00:13Z</time>
      </trkpt>
      <trkpt lat="40.279072" lon="0.317330">
        <ele>44.879</ele>
        <time>1970-01-01T04:00:14Z</time>
      </trkpt>
      <trkpt lat="40.279082" lon="0.317296">
        <ele>45.159</ele>
        <time>1970-01-01T04:00:15Z</time>
      </trkpt>
      <trkpt lat="40.279092" lon="0.317259">
        <ele>45.455</ele>
        <time>1970-01-01T04:00:16Z</time>
      </trkpt>
      <trkpt lat="40.279100" lon="0.317221">
        <ele>45.899</ele>
        <time>1970-01-01T04:00:17Z</time>
      </trkpt>
      <trkpt lat="40.279106" lon="0.317185">
        <ele>46.080</ele>
        <time>1970-01-01T04:00:18Z</time>
      </trkpt>
      <trkpt lat="40.279110" lon="0.317148">
        <ele>46.388</ele>
        <time>1970-01-01T04:00:19Z</time>
      </trkpt>
      <trkpt lat="40.279115" lon="0.317111">
        <ele>46.524</ele>
        <time>1970-01-01T04:00:20Z</time>
      </trkpt>
      <trkpt lat="40.279121" lon="0.317074">
        <ele>46.826</ele>
        <time>1970-01-01T04:00:21Z</time>
      </trkpt>
      <trkpt lat="40.279126" lon="0.317035">
        <ele>47.108</ele>
        <time>1970-01-01T04:00:22Z</time>
      </trkpt>
      <trkpt lat="40.279129" lon="0.316996">
        <ele>47.485</ele>
        <time>1970-01-01T04:00:23Z</time>
      </trkpt>
      <trkpt lat="40.279131" lon="0.316958">
        <ele>47.762</ele>
        <time>1970-01-01T04:00:24Z</time>
      </trkpt>
      <trkpt lat="40.279132" lon="0.316919">
        <ele>47.843</ele>
        <time>1970-01-01T04:00:25Z</time>
      </trkpt>
      <trkpt lat="40.279133" lon="0.316877">
        <ele>48.026</ele>
        <time>1970-01-01T04:00:26Z</time>
      </trkpt>
      <trkpt lat="40.279133" lon="0.316835">
        <ele>48.146</ele>
        <time>1970-01-01T04:00:27Z</time>
      </trkpt>
      <trkpt lat="40.279132" lon="0.316790">
        <ele>48.242</ele>
        <time>1970-01-01T04:00:28Z</time>
      </trkpt>
      <trkpt lat="40.279127" lon="0.316745">
        <ele>48.356</ele>
        <time>1970-01-01T04:00:29Z</time>
      </trkpt>
      <trkpt lat="40.279118" lon="0.316699">
        <ele>48.457</ele>
        <time>1970-01-01T04:00:30Z</time>
      </trkpt>
      <trkpt lat="40.279106" lon="0.316649">
        <ele>48.427</ele>
        <time>1970-01-01T04:00:31Z</time>
      </trkpt>
      <trkpt lat="40.279091" lon="0.316598">
        <ele>48.268</ele>
        <time>1970-01-01T04:00:32Z</time>
      </trkpt>
      <trkpt lat="40.279073" lon="0.316543">
        <ele>48.114</ele>
        <time>1970-01-01T04:00:33Z</time>
      </trkpt>
      <trkpt lat="40.279049" lon="0.316487">
        <ele>48.008</ele>
        <time>1970-01-01T04:00:34Z</time>
      </trkpt>
      <trkpt lat="40.279020" lon="0.316435">
        <ele>47.969</ele>
        <time>1970-01-01T04:00:35Z</time>
      </trkpt>
      <trkpt lat="40.278989" lon="0.316388">
        <ele>47.796</ele>
        <time>1970-01-01T04:00:36Z</time>
      </trkpt>
      <trkpt lat="40.278960" lon="0.316341">
        <ele>47.717</ele>
        <time>1970-01-01T04:00:37Z</time>
      </trkpt>
      <trkpt lat="40.278932" lon="0.316293">
        <ele>47.720</ele>
        <time>1970-01-01T04:00:38Z</time>
      </trkpt>
      <trkpt lat="40.278905" lon="0.316248">
        <ele>47.680</ele>
        <time>1970-01-01T04:00:39Z</time>
      </trkpt>
      <trkpt lat="40.278875" lon="0.316207">
        <ele>47.656</ele>
        <time>1970-01-01T04:00:40Z</time>
      </trkpt>
      <trkpt lat="40.278845" lon="0.316169">
        <ele>47.850</ele>
        <time>1970-01-01T04:00:41Z</time>
      </trkpt>
      <trkpt lat="40.278814" lon="0.316129">
        <ele>47.971</ele>
        <time>1970-01-01T04:00:42Z</time>
      </trkpt>
      <trkpt lat="40.278782" lon="0.316087">
        <ele>48.198</ele>
        <time>1970-01-01T04:00:43Z</time>
      </trkpt>
      <trkpt lat="40.278752" lon="0.316051">
        <ele>48.215</ele>
        <time>1970-01-01T04:00:44Z</time>
      </trkpt>
      <trkpt lat="40.278723" lon="0.316012">
        <ele>48.326</ele>
        <time>1970-01-01T04:00:45Z</time>
      </trkpt>
      <trkpt lat="40.278694" lon="0.315971">
        <ele>48.308</ele>
        <time>1970-01-01T04:00:46Z</time>
      </trkpt>
      <trkpt lat="40.278663" lon="0.315931">
        <ele>48.236</ele>
        <time>1970-01-01T04:00:47Z</time>
      </trkpt>
      <trkpt lat="40.278631" lon="0.315892">
        <ele>48.183</ele>
        <time>1970-01-01T04:00:48Z</time>
      </trkpt>
      <trkpt lat="40.278596" lon="0.315857">
        <ele>48.094</ele>
        <time>1970-01-01T04:00:49Z</time>
      </trkpt>
      <trkpt lat="40.278562" lon="0.315818">
        <ele>48.017</ele>
        <time>1970-01-01T04:00:50Z</time>
      </trkpt>
      <trkpt lat="40.278533" lon="0.315771">
        <ele>48.257</ele>
        <time>1970-01-01T04:00:51Z</time>
      </trkpt>
      <trkpt lat="40.278509" lon="0.315726">
        <ele>48.253</ele>
        <time>1970-01-01T04:00:52Z</time>
      </trkpt>
      <trkpt lat="40.278487" lon="0.315675">
        <ele>48.327</ele>
        <time>1970-01-01T04:00:53Z</time>
      </trkpt>
      <trkpt lat="40.278468" lon="0.315617">
        <ele>48.478</ele>
        <time>1970-01-01T04:00:54Z</time>
      </trkpt>
      <trkpt lat="40.278448" lon="0.315560">
        <ele>48.427</ele>
        <time>1970-01-01T04:00:55Z</time>
      </trkpt>
      <trkpt lat="40.278424" lon="0.315500">
        <ele>48.568</ele>
        <time>1970-01-01T04:00:56Z</time>
      </trkpt>
      <trkpt lat="40.278396" lon="0.315444">
        <ele>48.614</ele>
        <time>1970-01-01T04:00:57Z</time>
      </trkpt>
      <trkpt lat="40.278365" lon="0.315390">
        <ele>48.708</ele>
        <time>1970-01-01T04:00:58Z</time>
      </trkpt>
      <trkpt lat="40.278334" lon="0.315343">
        <ele>48.889</ele>
        <time>1970-01-01T04:00:59Z</time>
      </trkpt>
      <trkpt lat="40.278304" lon="0.315300">
        <ele>48.876</ele>
        <time>1970-01-01T04:01:00Z</time>
      </trkpt>
      <trkpt lat="40.278274" lon="0.315257">
        <ele>48.917</ele>
        <time>1970-01-01T04:01:01Z</time>
      </trkpt>
      <trkpt lat="40.278243" lon="0.315212">
        <ele>48.920</ele>
        <time>1970-01-01T04:01:02Z</time>
      </trkpt>
      <trkpt lat="40.278212" lon="0.315168">
        <ele>49.070</ele>
        <time>1970-01-01T04:01:03Z</time>
      </trkpt>
      <trkpt lat="40.278179" lon="0.315128">
        <ele>49.026</ele>
        <time>1970-01-01T04:01:04Z</time>
      </trkpt>
      <trkpt lat="40.278143" lon="0.315088">
        <ele>49.020</ele>
        <time>1970-01-01T04:01:05Z</time>
      </trkpt>
      <trkpt lat="40.278104" lon="0.315048">
        <ele>49.061</ele>
        <time>1970-01-01T04:01:06Z</time>
      </trkpt>
      <trkpt lat="40.278064" lon="0.315012">
        <ele>49.086</ele>
        <time>1970-01-01T04:01:07Z</time>
      </trkpt>
      <trkpt lat="40.278024" lon="0.314975">
        <ele>48.860</ele>
        <time>1970-01-01T04:01:08Z</time>
      </trkpt>
      <trkpt lat="40.277991" lon="0.314934">
        <ele>48.626</ele>
        <time>1970-01-01T04:01:09Z</time>
      </trkpt>
      <trkpt lat="40.277968" lon="0.314882">
        <ele>48.608</ele>
        <time>1970-01-01T04:01:10Z</time>
      </trkpt>
      <trkpt lat="40.277957" lon="0.314825">
        <ele>48.825</ele>
        <time>1970-01-01T04:01:11Z</time>
      </trkpt>
      <trkpt lat="40.277957" lon="0.314771">
        <ele>49.192</ele>
        <time>1970-01-01T04:01:12Z</time>
      </trkpt>
      <trkpt lat="40.277960" lon="0.314715">
        <ele>49.313</ele>
        <time>1970-01-01T04:01:13Z</time>
      </trkpt>
      <trkpt lat="40.277960" lon="0.314657">
        <ele>49.546</ele>
        <time>1970-01-01T04:01:14Z</time>
      </trkpt>
      <trkpt lat="40.277951" lon="0.314599">
        <ele>49.746</ele>
        <time>1970-01-01T04:01:15Z</time>
      </trkpt>
      <trkpt lat="40.277935" lon="0.314546">
        <ele>49.882</ele>
        <time>1970-01-01T04:01:16Z</time>
      </trkpt>
      <trkpt lat="40.277918" lon="0.314497">
        <ele>49.846</ele>
        <time>1970-01-01T04:01:17Z</time>
      </trkpt>
      <trkpt lat="40.277905" lon="0.314446">
        <ele>49.937</ele>
        <time>1970-01-01T04:01:18Z</time>
      </trkpt>
      <trkpt lat="40.277894" lon="0.314393">
        <ele>49.812</ele>
        <time>1970-01-01T04:01:19Z</time>
      </trkpt>
      <trkpt lat="40.277884" lon="0.314336">
        <ele>49.832</ele>
        <time>1970-01-01T04:01:20Z</time>
      </trkpt>
      <trkpt lat="40.277878" lon="0.314281">
        <ele>49.705</ele>
        <time>1970-01-01T04:01:21Z</time>
      </trkpt>
      <trkpt lat="40.277879" lon="0.314227">
        <ele>49.708</ele>
        <time>1970-01-01T04:01:22Z</time>
      </trkpt>
      <trkpt lat="40.277888" lon="0.314172">
        <ele>49.898</ele>
        <time>1970-01-01T04:01:23Z</time>
      </trkpt>
      <trkpt lat="40.277907" lon="0.314119">
        <ele>49.915</ele>
        <time>1970-01-01T04:01:24Z</time>
      </trkpt>
      <trkpt lat="40.277932" lon="0.314067">
        <ele>50.136</ele>
        <time>1970-01-01T04:01:25Z</time>
      </trkpt>
      <trkpt lat="40.277960" lon="0.314018">
        <ele>50.379</ele>
        <time>1970-01-01T04:01:26Z</time>
      </trkpt>
      <trkpt lat="40.277985" lon="0.313965">
        <ele>50.539</ele>
        <time>1970-01-01T04:01:27Z</time>
      </trkpt>
      <trkpt lat="40.278002" lon="0.313911">
        <ele>50.635</ele>
        <time>1970-01-01T04:01:28Z</time>
      </trkpt>
      <trkpt lat="40.278008" lon="0.313859">
        <ele>50.799</ele>
        <time>1970-01-01T04:01:29Z</time>
      </trkpt>
      <trkpt lat="40.278009" lon="0.313810">
        <ele>50.720</ele>
        <time>1970-01-01T04:01:30Z</time>
      </trkpt>
      <trkpt lat="40.278005" lon="0.313762">
        <ele>50.773</ele>
        <time>1970-01-01T04:01:31Z</time>
      </trkpt>
      <trkpt lat="40.277997" lon="0.313715">
        <ele>50.785</ele>
        <time>1970-01-01T04:01:32Z</time>
      </trkpt>
      <trkpt lat="40.277987" lon="0.313666">
        <ele>50.713</ele>
        <time>1970-01-01T04:01:33Z</time>
      </trkpt>
      <trkpt lat="40.277971" lon="0.313614">
        <ele>50.708</ele>
        <time>1970-01-01T04:01:34Z</time>
      </trkpt>
      <trkpt lat="40.277947" lon="0.313560">
        <ele>50.744</ele>
        <time>1970-01-01T04:01:35Z</time>
      </trkpt>
      <trkpt lat="40.277915" lon="0.313521">
        <ele>50.741</ele>
        <time>1970-01-01T04:01:36Z</time>
      </trkpt>
      <trkpt lat="40.277875" lon="0.313494">
        <ele>50.562</ele>
        <time>1970-01-01T04:01:37Z</time>
      </trkpt>
      <trkpt lat="40.277835" lon="0.313468">
        <ele>50.355</ele>
        <time>1970-01-01T04:01:38Z</time>
      </trkpt>
      <trkpt lat="40.277798" lon="0.313436">
        <ele>50.135</ele>
        <time>1970-01-01T04:01:39Z</time>
      </trkpt>
      <trkpt lat="40.277766" lon="0.313396">
        <ele>49.941</ele>
        <time>1970-01-01T04:01:40Z</time>
      </trkpt>
      <trkpt lat="40.277739" lon="0.313346">
        <ele>49.775</ele>
        <time>1970-01-01T04:01:41Z</time>
      </trkpt>
      <trkpt lat="40.277719" lon="0.313291">
        <ele>49.656</ele>
        <time>1970-01-01T04:01:42Z</time>
      </trkpt>
      <trkpt lat="40.277701" lon="0.313235">
        <ele>49.411</ele>
        <time>1970-01-01T04:01:43Z</time>
      </trkpt>
      <trkpt lat="40.277685" lon="0.313179">
        <ele>49.321</ele>
        <time>1970-01-01T04:01:44Z</time>
      </trkpt>
      <trkpt lat="40.277667" lon="0.313123">
        <ele>49.203</ele>
        <time>1970-01-01T04:01:45Z</time>
      </trkpt>
      <trkpt lat="40.277648" lon="0.313068">
        <ele>49.108</ele>
        <time>1970-01-01T04:01:46Z</time>
      </trkpt>
      <trkpt lat="40.277627" lon="0.313013">
        <ele>49.068</ele>
        <time>1970-01-01T04:01:47Z</time>
      </trkpt>
      <trkpt lat="40.277603" lon="0.312962">
        <ele>48.925</ele>
        <time>1970-01-01T04:01:48Z</time>
      </trkpt>
      <trkpt lat="40.277570" lon="0.312911">
        <ele>48.686</ele>
        <time>1970-01-01T04:01:49Z</time>
      </trkpt>
      <trkpt lat="40.277530" lon="0.312861">
        <ele>48.369</ele>
        <time>1970-01-01T04:01:50Z</time>
      </trkpt>
      <trkpt lat="40.277483" lon="0.312810">
        <ele>47.929</ele>
        <time>1970-01-01T04:01:51Z</time>
      </trkpt>
      <trkpt lat="40.277432" lon="0.312753">
        <ele>47.835</ele>
        <time>1970-01-01T04:01:52Z</time>
      </trkpt>
      <trkpt lat="40.277377" lon="0.312691">
        <ele>47.679</ele>
        <time>1970-01-01T04:01:53Z</time>
      </trkpt>
      <trkpt lat="40.277320" lon="0.312627">
        <ele>47.480</ele>
        <time>1970-01-01T04:01:54Z</time>
      </trkpt>
      <trkpt lat="40.277264" lon="0.312567">
        <ele>47.146</ele>
        <time>1970-01-01T04:01:55Z</time>
      </trkpt>
      <trkpt lat="40.277209" lon="0.312509">
        <ele>46.988</ele>
        <time>1970-01-01T04:01:56Z</time>
      </trkpt>
      <trkpt lat="40.277156" lon="0.312452">
        <ele>46.716</ele>
        <time>1970-01-01T04:01:57Z</time>
      </trkpt>
      <trkpt lat="40.277105" lon="0.312398">
        <ele>46.408</ele>
        <time>1970-01-01T04:01:58Z</time>
      </trkpt>
      <trkpt lat="40.277056" lon="0.312343">
        <ele>46.071</ele>
        <time>1970-01-01T04:01:59Z</time>
      </trkpt>
      <trkpt lat="40.277010" lon="0.312281">
        <ele>45.748</ele>
        <time>1970-01-01T04:02:00Z</time>
      </trkpt>
      <trkpt lat="40.276967" lon="0.312217">
        <ele>45.399</ele>
        <time>1970-01-01T04:02:01Z</time>
      </trkpt>
      <trkpt lat="40.276929" lon="0.312150">
        <ele>45.492</ele>
        <time>1970-01-01T04:02:02Z</time>
      </trkpt>
      <trkpt lat="40.276895" lon="0.312078">
        <ele>45.682</ele>
        <time>1970-01-01T04:02:03Z</time>
      </trkpt>
      <trkpt lat="40.276863" lon="0.312003">
        <ele>45.818</ele>
        <time>1970-01-01T04:02:04Z</time>
      </trkpt>
      <trkpt lat="40.276834" lon="0.311926">
        <ele>45.942</ele>
        <time>1970-01-01T04:02:05Z</time>
      </trkpt>
      <trkpt lat="40.276807" lon="0.311851">
        <ele>46.253</ele>
        <time>1970-01-01T04:02:06Z</time>
      </trkpt>
      <trkpt lat="40.276782" lon="0.311780">
        <ele>46.456</ele>
        <time>1970-01-01T04:02:07Z</time>
      </trkpt>
      <trkpt lat="40.276751" lon="0.311713">
        <ele>46.659</ele>
        <time>1970-01-01T04:02:08Z</time>
      </trkpt>
      <trkpt lat="40.276712" lon="0.311650">
        <ele>46.614</ele>
        <time>1970-01-01T04:02:09Z</time>
      </trkpt>
      <trkpt lat="40.276663" lon="0.311600">
        <ele>46.508</ele>
        <time>1970-01-01T04:02:10Z</time>
      </trkpt>
      <trkpt lat="40.276606" lon="0.311565">
        <ele>46.462</ele>
        <time>1970-01-01T04:02:11Z</time>
      </trkpt>
      <trkpt lat="40.276546" lon="0.311550">
        <ele>46.259</ele>
        <time>1970-01-01T04:02:12Z</time>
      </trkpt>
      <trkpt lat="40.276483" lon="0.311551">
        <ele>45.940</ele>
        <time>1970-01-01T04:02:13Z</time>
      </trkpt>
      <trkpt lat="40.276421" lon="0.311571">
        <ele>45.563</ele>
        <time>1970-01-01T04:02:14Z</time>
      </trkpt>
      <trkpt lat="40.276360" lon="0.311603">
        <ele>45.143</ele>
        <time>1970-01-01T04:02:15Z</time>
      </trkpt>
      <trkpt lat="40.276297" lon="0.311648">
        <ele>44.719</ele>
        <time>1970-01-01T04:02:16Z</time>
      </trkpt>
      <trkpt lat="40.276231" lon="0.311691">
        <ele>44.353</ele>
        <time>1970-01-01T04:02:17Z</time>
      </trkpt>
      <trkpt lat="40.276164" lon="0.311727">
        <ele>44.014</ele>
        <time>1970-01-01T04:02:18Z</time>
      </trkpt>
      <trkpt lat="40.276096" lon="0.311754">
        <ele>43.637</ele>
        <time>1970-01-01T04:02:19Z</time>
      </trkpt>
      <trkpt lat="40.276028" lon="0.311772">
        <ele>43.149</ele>
        <time>1970-01-01T04:02:20Z</time>
      </trkpt>
      <trkpt lat="40.275962" lon="0.311780">
        <ele>42.713</ele>
        <time>1970-01-01T04:02:21Z</time>
      </trkpt>
      <trkpt lat="40.275897" lon="0.311775">
        <ele>42.408</ele>
        <time>1970-01-01T04:02:22Z</time>
      </trkpt>
      <trkpt lat="40.275830" lon="0.311757">
        <ele>42.040</ele>
        <time>1970-01-01T04:02:23Z</time>
      </trkpt>
      <trkpt lat="40.275764" lon="0.311734">
        <ele>41.737</ele>
        <time>1970-01-01T04:02:24Z</time>
      </trkpt>
      <trkpt lat="40.275695" lon="0.311713">
        <ele>41.498</ele>
        <time>1970-01-01T04:02:25Z</time>
      </trkpt>
      <trkpt lat="40.275621" lon="0.311709">
        <ele>41.181</ele>
        <time>1970-01-01T04:02:26Z</time>
      </trkpt>
      <trkpt lat="40.275545" lon="0.311717">
        <ele>40.861</ele>
        <time>1970-01-01T04:02:27Z</time>
      </trkpt>
      <trkpt lat="40.275469" lon="0.311731">
        <ele>40.577</ele>
        <time>1970-01-01T04:02:28Z</time>
      </trkpt>
      <trkpt lat="40.275390" lon="0.311744">
        <ele>40.161</ele>
        <time>1970-01-01T04:02:29Z</time>
      </trkpt>
      <trkpt lat="40.275311" lon="0.311751">
        <ele>39.882</ele>
        <time>1970-01-01T04:02:30Z</time>
      </trkpt>
      <trkpt lat="40.275233" lon="0.311748">
        <ele>39.418</ele>
        <time>1970-01-01T04:02:31Z</time>
      </trkpt>
      <trkpt lat="40.275159" lon="0.311735">
        <ele>38.998</ele>
        <time>1970-01-01T04:02:32Z</time>
      </trkpt>
      <trkpt lat="40.275086" lon="0.311722">
        <ele>38.417</ele>
        <time>1970-01-01T04:02:33Z</time>
      </trkpt>
      <trkpt lat="40.275013" lon="0.311712">
        <ele>37.908</ele>
        <time>1970-01-01T04:02:34Z</time>
      </trkpt>
      <trkpt lat="40.274942" lon="0.311702">
        <ele>37.458</ele>
        <time>1970-01-01T04:02:35Z</time>
      </trkpt>
      <trkpt lat="40.274871" lon="0.311686">
        <ele>37.065</ele>
        <time>1970-01-01T04:02:36Z</time>
      </trkpt>
      <trkpt lat="40.274801" lon="0.311665">
        <ele>36.616</ele>
        <time>1970-01-01T04:02:37Z</time>
      </trkpt>
      <trkpt lat="40.274734" lon="0.311639">
        <ele>36.149</ele>
        <time>1970-01-01T04:02:38Z</time>
      </trkpt>
      <trkpt lat="40.274671" lon="0.311605">
        <ele>35.699</ele>
        <time>1970-01-01T04:02:39Z</time>
      </trkpt>
      <trkpt lat="40.274613" lon="0.311561">
        <ele>35.275</ele>
        <time>1970-01-01T04:02:40Z</time>
      </trkpt>
      <trkpt lat="40.274563" lon="0.311505">
        <ele>34.979</ele>
        <time>1970-01-01T04:02:41Z</time>
      </trkpt>
      <trkpt lat="40.274519" lon="0.311441">
        <ele>34.580</ele>
        <time>1970-01-01T04:02:42Z</time>
      </trkpt>
      <trkpt lat="40.274478" lon="0.311373">
        <ele>34.267</ele>
        <time>1970-01-01T04:02:43Z</time>
      </trkpt>
      <trkpt lat="40.274434" lon="0.311309">
        <ele>33.981</ele>
        <time>1970-01-01T04:02:44Z</time>
      </trkpt>
      <trkpt lat="40.274384" lon="0.311248">
        <ele>33.519</ele>
        <time>1970-01-01T04:02:45Z</time>
      </trkpt>
      <trkpt lat="40.274327" lon="0.311196">
        <ele>33.008</ele>
        <time>1970-01-01T04:02:46Z</time>
      </trkpt>
      <trkpt lat="40.274267" lon="0.311153">
        <ele>32.643</ele>
        <time>1970-01-01T04:02:47Z</time>
      </trkpt>
      <trkpt lat="40.274208" lon="0.311107">
        <ele>32.390</ele>
        <time>1970-01-01T04:02:48Z</time>
      </trkpt>
      <trkpt lat="40.274151" lon="0.311053">
        <ele>31.811</ele>
        <time>1970-01-01T04:02:49Z</time>
      </trkpt>
      <trkpt lat="40.274099" lon="0.310992">
        <ele>31.314</ele>
        <time>1970-01-01T04:02:50Z</time>
      </trkpt>
      <trkpt lat="40.274053" lon="0.310925">
        <ele>30.894</ele>
        <time>1970-01-01T04:02:51Z</time>
      </trkpt>
      <trkpt lat="40.274016" lon="0.310852">
        <ele>30.480</ele>
        <time>1970-01-01T04:02:52Z</time>
      </trkpt>
      <trkpt lat="40.273986" lon="0.310775">
        <ele>30.074</ele>
        <time>1970-01-01T04:02:53Z</time>
      </trkpt>
      <trkpt lat="40.273963" lon="0.310693">
        <ele>29.715</ele>
        <time>1970-01-01T04:02:54Z</time>
      </trkpt>
      <trkpt lat="40.273947" lon="0.310608">
        <ele>29.599</ele>
        <time>1970-01-01T04:02:55Z</time>
      </trkpt>
      <trkpt lat="40.273939" lon="0.310521">
        <ele>29.407</ele>
        <time>1970-01-01T04:02:56Z</time>
      </trkpt>
      <trkpt lat="40.273935" lon="0.310430">
        <ele>29.427</ele>
        <time>1970-01-01T04:02:57Z</time>
      </trkpt>
      <trkpt lat="40.273930" lon="0.310337">
        <ele>29.408</ele>
        <time>1970-01-01T04:02:58Z</time>
      </trkpt>
      <trkpt lat="40.273910" lon="0.310242">
        <ele>29.226</ele>
        <time>1970-01-01T04:02:59Z</time>
      </trkpt>
      <trkpt lat="40.273881" lon="0.310159">
        <ele>28.933</ele>
        <time>1970-01-01T04:03:00Z</time>
      </trkpt>
      <trkpt lat="40.273843" lon="0.310081">
        <ele>28.584</ele>
        <time>1970-01-01T04:03:01Z</time>
      </trkpt>
      <trkpt lat="40.273800" lon="0.310009">
        <ele>28.077</ele>
        <time>1970-01-01T04:03:02Z</time>
      </trkpt>
      <trkpt lat="40.273757" lon="0.309940">
        <ele>27.967</ele>
        <time>1970-01-01T04:03:03Z</time>
      </trkpt>
      <trkpt lat="40.273714" lon="0.309871">
        <ele>27.953</ele>
        <time>1970-01-01T04:03:04Z</time>
      </trkpt>
      <trkpt lat="40.273670" lon="0.309801">
        <ele>27.927</ele>
        <time>1970-01-01T04:03:05Z</time>
      </trkpt>
      <trkpt lat="40.273625" lon="0.309726">
        <ele>28.118</ele>
        <time>1970-01-01T04:03:06Z</time>
      </trkpt>
      <trkpt lat="40.273582" lon="0.309651">
        <ele>28.382</ele>
        <time>1970-01-01T04:03:07Z</time>
      </trkpt>
      <trkpt lat="40.273539" lon="0.309577">
        <ele>28.543</ele>
        <time>1970-01-01T04:03:08Z</time>
      </trkpt>
      <trkpt lat="40.273497" lon="0.309505">
        <ele>28.717</ele>
        <time>1970-01-01T04:03:09Z</time>
      </trkpt>
      <trkpt lat="40.273455" lon="0.309437">
        <ele>28.908</ele>
        <time>1970-01-01T04:03:10Z</time>
      </trkpt>
      <trkpt lat="40.273420" lon="0.309371">
        <ele>29.325</ele>
        <time>1970-01-01T04:03:11Z</time>
      </trkpt>
      <trkpt lat="40.273386" lon="0.309308">
        <ele>29.892</ele>
        <time>1970-01-01T04:03:12Z</time>
      </trkpt>
      <trkpt lat="40.273354" lon="0.309245">
        <ele>30.233</ele>
        <time>1970-01-01T04:03:13Z</time>
      </trkpt>
      <trkpt lat="40.273323" lon="0.309183">
        <ele>30.866</ele>
        <time>1970-01-01T04:03:14Z</time>
      </trkpt>
      <trkpt lat="40.273296" lon="0.309125">
        <ele>31.086</ele>
        <time>1970-01-01T04:03:15Z</time>
      </trkpt>
      <trkpt lat="40.273272" lon="0.309066">
        <ele>31.222</ele>
        <time>1970-01-01T04:03:16Z</time>
      </trkpt>
      <trkpt lat="40.273249" lon="0.309010">
        <ele>31.436</ele>
        <time>1970-01-01T04:03:17Z</time>
      </trkpt>
      <trkpt lat="40.273228" lon="0.308958">
        <ele>31.747</ele>
        <time>1970-01-01T04:03:18Z</time>
      </trkpt>
      <trkpt lat="40.273208" lon="0.308910">
        <ele>31.923</ele>
        <time>1970-01-01T04:03:19Z</time>
      </trkpt>
      <trkpt lat="40.273191" lon="0.308866">
        <ele>32.083</ele>
        <time>1970-01-01T04:03:20Z</time>
      </trkpt>
      <trkpt lat="40.273174" lon="0.308820">
        <ele>32.111</ele>
        <time>1970-01-01T04:03:21Z</time>
      </trkpt>
      <trkpt lat="40.273157" lon="0.308772">
        <ele>32.208</ele>
        <time>1970-01-01T04:03:22Z</time>
      </trkpt>
      <trkpt lat="40.273142" lon="0.308725">
        <ele>32.269</ele>
        <time>1970-01-01T04:03:23Z</time>
      </trkpt>
      <trkpt lat="40.273124" lon="0.308674">
        <ele>32.226</ele>
        <time>1970-01-01T04:03:24Z</time>
      </trkpt>
      <trkpt lat="40.273105" lon="0.308626">
        <ele>32.287</ele>
        <time>1970-01-01T04:03:25Z</time>
      </trkpt>
      <trkpt lat="40.273089" lon="0.308572">
        <ele>32.390</ele>
        <time>1970-01-01T04:03:26Z</time>
      </trkpt>
      <trkpt lat="40.273075" lon="0.308529">
        <ele>32.460</ele>
        <time>1970-01-01T04:03:27Z</time>
      </trkpt>
      <trkpt lat="40.273061" lon="0.308476">
        <ele>32.536</ele>
        <time>1970-01-01T04:03:28Z</time>
      </trkpt>
      <trkpt lat="40.273046" lon="0.308425">
        <ele>32.770</ele>
        <time>1970-01-01T04:03:29Z</time>
      </trkpt>
      <trkpt lat="40.273032" lon="0.308375">
        <ele>32.961</ele>
        <time>1970-01-01T04:03:30Z</time>
      </trkpt>
      <trkpt lat="40.273021" lon="0.308325">
        <ele>33.247</ele>
        <time>1970-01-01T04:03:31Z</time>
      </trkpt>
      <trkpt lat="40.273011" lon="0.308279">
        <ele>33.329</ele>
        <time>1970-01-01T04:03:32Z</time>
      </trkpt>
      <trkpt lat="40.272997" lon="0.308238">
        <ele>33.521</ele>
        <time>1970-01-01T04:03:33Z</time>
      </trkpt>
      <trkpt lat="40.272984" lon="0.308201">
        <ele>33.608</ele>
        <time>1970-01-01T04:03:34Z</time>
      </trkpt>
      <trkpt lat="40.272967" lon="0.308166">
        <ele>33.741</ele>
        <time>1970-01-01T04:03:35Z</time>
      </trkpt>
      <trkpt lat="40.272947" lon="0.308134">
        <ele>33.868</ele>
        <time>1970-01-01T04:03:36Z</time>
      </trkpt>
      <trkpt lat="40.272927" lon="0.308095">
        <ele>33.959</ele>
        <time>1970-01-01T04:03:37Z</time>
      </trkpt>
      <trkpt lat="40.272910" lon="0.308050">
        <ele>34.032</ele>
        <time>1970-01-01T04:03:38Z</time>
      </trkpt>
      <trkpt lat="40.272894" lon="0.308009">
        <ele>34.382</ele>
        <time>1970-01-01T04:03:39Z</time>
      </trkpt>
      <trkpt lat="40.272882" lon="0.307964">
        <ele>34.668</ele>
        <time>1970-01-01T04:03:40Z</time>
      </trkpt>
      <trkpt lat="40.272873" lon="0.307921">
        <ele>34.882</ele>
        <time>1970-01-01T04:03:41Z</time>
      </trkpt>
      <trkpt lat="40.272866" lon="0.307875">
        <ele>35.133</ele>
        <time>1970-01-01T04:03:42Z</time>
      </trkpt>
      <trkpt lat="40.272860" lon="0.307828">
        <ele>35.348</ele>
        <time>1970-01-01T04:03:43Z</time>
      </trkpt>
      <trkpt lat="40.272855" lon="0.307781">
        <ele>35.561</ele>
        <time>1970-01-01T04:03:44Z</time>
      </trkpt>
      <trkpt lat="40.272849" lon="0.307741">
        <ele>35.717</ele>
        <time>1970-01-01T04:03:45Z</time>
      </trkpt>
      <trkpt lat="40.272843" lon="0.307696">
        <ele>36.008</ele>
        <time>1970-01-01T04:03:46Z</time>
      </trkpt>
      <trkpt lat="40.272841" lon="0.307663">
        <ele>36.261</ele>
        <time>1970-01-01T04:03:47Z</time>
      </trkpt>
      <trkpt lat="40.272842" lon="0.307618">
        <ele>36.558</ele>
        <time>1970-01-01T04:03:48Z</time>
      </trkpt>
      <trkpt lat="40.272843" lon="0.307580">
        <ele>36.789</ele>
        <time>1970-01-01T04:03:49Z</time>
      </trkpt>
      <trkpt lat="40.272844" lon="0.307535">
        <ele>37.082</ele>
        <time>1970-01-01T04:03:50Z</time>
      </trkpt>
      <trkpt lat="40.272844" lon="0.307497">
        <ele>37.252</ele>
        <time>1970-01-01T04:03:51Z</time>
      </trkpt>
      <trkpt lat="40.272844" lon="0.307452">
        <ele>37.438</ele>
        <time>1970-01-01T04:03:52Z</time>
      </trkpt>
      <trkpt lat="40.272845" lon="0.307405">
        <ele>37.572</ele>
        <time>1970-01-01T04:03:53Z</time>
      </trkpt>
      <trkpt lat="40.272848" lon="0.307362">
        <ele>37.673</ele>
        <time>1970-01-01T04:03:54Z</time>
      </trkpt>
      <trkpt lat="40.272849" lon="0.307319">
        <ele>37.775</ele>
        <time>1970-01-01T04:03:55Z</time>
      </trkpt>
      <trkpt lat="40.272849" lon="0.307274">
        <ele>37.928</ele>
        <time>1970-01-01T04:03:56Z</time>
      </trkpt>
      <trkpt lat="40.272846" lon="0.307229">
        <ele>38.020</ele>
        <time>1970-01-01T04:03:57Z</time>
      </trkpt>
      <trkpt lat="40.272845" lon="0.307181">
        <ele>38.208</ele>
        <time>1970-01-01T04:03:58Z</time>
      </trkpt>
      <trkpt lat="40.272842" lon="0.307133">
        <ele>38.484</ele>
        <time>1970-01-01T04:03:59Z</time>
      </trkpt>
      <trkpt lat="40.272837" lon="0.307085">
        <ele>38.621</ele>
        <time>1970-01-01T04:04:00Z</time>
      </trkpt>
      <trkpt lat="40.272830" lon="0.307035">
        <ele>38.822</ele>
        <time>1970-01-01T04:04:01Z</time>
      </trkpt>
      <trkpt lat="40.272821" lon="0.306988">
        <ele>39.095</ele>
        <time>1970-01-01T04:04:02Z</time>
      </trkpt>
      <trkpt lat="40.272807" lon="0.306944">
        <ele>39.185</ele>
        <time>1970-01-01T04:04:03Z</time>
      </trkpt>
      <trkpt lat="40.272790" lon="0.306899">
        <ele>39.431</ele>
        <time>1970-01-01T04:04:04Z</time>
      </trkpt>
      <trkpt lat="40.272774" lon="0.306855">
        <ele>39.645</ele>
        <time>1970-01-01T04:04:05Z</time>
      </trkpt>
      <trkpt lat="40.272756" lon="0.306807">
        <ele>39.836</ele>
        <time>1970-01-01T04:04:06Z</time>
      </trkpt>
      <trkpt lat="40.272737" lon="0.306757">
        <ele>40.156</ele>
        <time>1970-01-01T04:04:07Z</time>
      </trkpt>
      <trkpt lat="40.272716" lon="0.306705">
        <ele>40.359</ele>
        <time>1970-01-01T04:04:08Z</time>
      </trkpt>
      <trkpt lat="40.272694" lon="0.306650">
        <ele>40.414</ele>
        <time>1970-01-01T04:04:09Z</time>
      </trkpt>
      <trkpt lat="40.272668" lon="0.306592">
        <ele>40.208</ele>
        <time>1970-01-01T04:04:10Z</time>
      </trkpt>
      <trkpt lat="40.272638" lon="0.306536">
        <ele>40.042</ele>
        <time>1970-01-01T04:04:11Z</time>
      </trkpt>
      <trkpt lat="40.272603" lon="0.306485">
        <ele>39.779</ele>
        <time>1970-01-01T04:04:12Z</time>
      </trkpt>
      <trkpt lat="40.272564" lon="0.306437">
        <ele>39.540</ele>
        <time>1970-01-01T04:04:13Z</time>
      </trkpt>
      <trkpt lat="40.272525" lon="0.306393">
        <ele>39.283</ele>
        <time>1970-01-01T04:04:14Z</time>
      </trkpt>
      <trkpt lat="40.272483" lon="0.306352">
        <ele>38.713</ele>
        <time>1970-01-01T04:04:15Z</time>
      </trkpt>
      <trkpt lat="40.272441" lon="0.306317">
        <ele>38.369</ele>
        <time>1970-01-01T04:04:16Z</time>
      </trkpt>
      <trkpt lat="40.272394" lon="0.306283">
        <ele>37.743</ele>
        <time>1970-01-01T04:04:17Z</time>
      </trkpt>
      <trkpt lat="40.272344" lon="0.306251">
        <ele>37.164</ele>
        <time>1970-01-01T04:04:18Z</time>
      </trkpt>
      <trkpt lat="40.272293" lon="0.306217">
        <ele>36.428</ele>
        <time>1970-01-01T04:04:19Z</time>
      </trkpt>
      <trkpt lat="40.272242" lon="0.306180">
        <ele>35.789</ele>
        <time>1970-01-01T04:04:20Z</time>
      </trkpt>
      <trkpt lat="40.272188" lon="0.306137">
        <ele>34.917</ele>
        <time>1970-01-01T04:04:21Z</time>
      </trkpt>
      <trkpt lat="40.272133" lon="0.306088">
        <ele>34.408</ele>
        <time>1970-01-01T04:04:22Z</time>
      </trkpt>
      <trkpt lat="40.272077" lon="0.306035">
        <ele>34.039</ele>
        <time>1970-01-01T04:04:23Z</time>
      </trkpt>
      <trkpt lat="40.272026" lon="0.305982">
        <ele>33.626</ele>
        <time>1970-01-01T04:04:24Z</time>
      </trkpt>
      <trkpt lat="40.271978" lon="0.305919">
        <ele>33.227</ele>
        <time>1970-01-01T04:04:25Z</time>
      </trkpt>
      <trkpt lat="40.271923" lon="0.305852">
        <ele>32.930</ele>
        <time>1970-01-01T04:04:26Z</time>
      </trkpt>
      <trkpt lat="40.271863" lon="0.305795">
        <ele>32.750</ele>
        <time>1970-01-01T04:04:27Z</time>
      </trkpt>
      <trkpt lat="40.271799" lon="0.305741">
        <ele>32.556</ele>
        <time>1970-01-01T04:04:28Z</time>
      </trkpt>
      <trkpt lat="40.271737" lon="0.305678">
        <ele>32.350</ele>
        <time>1970-01-01T04:04:29Z</time>
      </trkpt>
      <trkpt lat="40.271682" lon="0.305609">
        <ele>32.151</ele>
        <time>1970-01-01T04:04:30Z</time>
      </trkpt>
      <trkpt lat="40.271627" lon="0.305532">
        <ele>31.748</ele>
        <time>1970-01-01T04:04:31Z</time>
      </trkpt>
      <trkpt lat="40.271571" lon="0.305458">
        <ele>31.461</ele>
        <time>1970-01-01T04:04:32Z</time>
      </trkpt>
      <trkpt lat="40.271515" lon="0.305390">
        <ele>31.217</ele>
        <time>1970-01-01T04:04:33Z</time>
      </trkpt>
      <trkpt lat="40.271458" lon="0.305328">
        <ele>31.108</ele>
        <time>1970-01-01T04:04:34Z</time>
      </trkpt>
      <trkpt lat="40.271402" lon="0.305270">
        <ele>31.081</ele>
        <time>1970-01-01T04:04:35Z</time>
      </trkpt>
      <trkpt lat="40.271350" lon="0.305207">
        <ele>30.928</ele>
        <time>1970-01-01T04:04:36Z</time>
      </trkpt>
      <trkpt lat="40.271301" lon="0.305148">
        <ele>30.899</ele>
        <time>1970-01-01T04:04:37Z</time>
      </trkpt>
      <trkpt lat="40.271253" lon="0.305094">
        <ele>30.892</ele>
        <time>1970-01-01T04:04:38Z</time>
      </trkpt>
      <trkpt lat="40.271209" lon="0.305040">
        <ele>30.972</ele>
        <time>1970-01-01T04:04:39Z</time>
      </trkpt>
      <trkpt lat="40.271168" lon="0.304981">
        <ele>31.058</ele>
        <time>1970-01-01T04:04:40Z</time>
      </trkpt>
      <trkpt lat="40.271132" lon="0.304919">
        <ele>31.092</ele>
        <time>1970-01-01T04:04:41Z</time>
      </trkpt>
      <trkpt lat="40.271102" lon="0.304851">
        <ele>31.053</ele>
        <time>1970-01-01T04:04:42Z</time>
      </trkpt>
      <trkpt lat="40.271070" lon="0.304788">
        <ele>31.083</ele>
        <time>1970-01-01T04:04:43Z</time>
      </trkpt>
      <trkpt lat="40.271034" lon="0.304728">
        <ele>31.025</ele>
        <time>1970-01-01T04:04:44Z</time>
      </trkpt>
      <trkpt lat="40.270993" lon="0.304667">
        <ele>31.117</ele>
        <time>1970-01-01T04:04:45Z</time>
      </trkpt>
      <trkpt lat="40.270947" lon="0.304621">
        <ele>31.108</ele>
        <time>1970-01-01T04:04:46Z</time>
      </trkpt>
      <trkpt lat="40.270895" lon="0.304590">
        <ele>31.135</ele>
        <time>1970-01-01T04:04:47Z</time>
      </trkpt>
      <trkpt lat="40.270842" lon="0.304563">
        <ele>31.012</ele>
        <time>1970-01-01T04:04:48Z</time>
      </trkpt>
      <trkpt lat="40.270787" lon="0.304537">
        <ele>30.723</ele>
        <time>1970-01-01T04:04:49Z</time>
      </trkpt>
      <trkpt lat="40.270731" lon="0.304509">
        <ele>30.586</ele>
        <time>1970-01-01T04:04:50Z</time>
      </trkpt>
      <trkpt lat="40.270672" lon="0.304481">
        <ele>30.386</ele>
        <time>1970-01-01T04:04:51Z</time>
      </trkpt>
      <trkpt lat="40.270612" lon="0.304452">
        <ele>30.262</ele>
        <time>1970-01-01T04:04:52Z</time>
      </trkpt>
      <trkpt lat="40.270556" lon="0.304417">
        <ele>30.236</ele>
        <time>1970-01-01T04:04:53Z</time>
      </trkpt>
      <trkpt lat="40.270508" lon="0.304366">
        <ele>30.247</ele>
        <time>1970-01-01T04:04:54Z</time>
      </trkpt>
      <trkpt lat="40.270466" lon="0.304300">
        <ele>30.467</ele>
        <time>1970-01-01T04:04:55Z</time>
      </trkpt>
      <trkpt lat="40.270430" lon="0.304226">
        <ele>30.781</ele>
        <time>1970-01-01T04:04:56Z</time>
      </trkpt>
      <trkpt lat="40.270394" lon="0.304151">
        <ele>30.919</ele>
        <time>1970-01-01T04:04:57Z</time>
      </trkpt>
      <trkpt lat="40.270362" lon="0.304071">
        <ele>31.208</ele>
        <time>1970-01-01T04:04:58Z</time>
      </trkpt>
      <trkpt lat="40.270334" lon="0.303996">
        <ele>31.513</ele>
        <time>1970-01-01T04:04:59Z</time>
      </trkpt>
      <trkpt lat="40.270305" lon="0.303936">
        <ele>31.810</ele>
        <time>1970-01-01T04:05:00Z</time>
      </trkpt>
      <trkpt lat="40.270275" lon="0.303888">
        <ele>32.071</ele>
        <time>1970-01-01T04:05:01Z</time>
      </trkpt>
      <trkpt lat="40.270246" lon="0.303843">
        <ele>32.224</ele>
        <time>1970-01-01T04:05:02Z</time>
      </trkpt>
      <trkpt lat="40.270217" lon="0.303805">
        <ele>32.334</ele>
        <time>1970-01-01T04:05:03Z</time>
      </trkpt>
      <trkpt lat="40.270190" lon="0.303766">
        <ele>32.490</ele>
        <time>1970-01-01T04:05:04Z</time>
      </trkpt>
      <trkpt lat="40.270165" lon="0.303727">
        <ele>32.564</ele>
        <time>1970-01-01T04:05:05Z</time>
      </trkpt>
      <trkpt lat="40.270140" lon="0.303691">
        <ele>32.655</ele>
        <time>1970-01-01T04:05:06Z</time>
      </trkpt>
      <trkpt lat="40.270112" lon="0.303648">
        <ele>32.677</ele>
        <time>1970-01-01T04:05:07Z</time>
      </trkpt>
      <trkpt lat="40.270082" lon="0.303606">
        <ele>32.661</ele>
        <time>1970-01-01T04:05:08Z</time>
      </trkpt>
      <trkpt lat="40.270052" lon="0.303565">
        <ele>32.727</ele>
        <time>1970-01-01T04:05:09Z</time>
      </trkpt>
      <trkpt lat="40.270022" lon="0.303522">
        <ele>32.808</ele>
        <time>1970-01-01T04:05:10Z</time>
      </trkpt>
      <trkpt lat="40.269994" lon="0.303482">
        <ele>32.954</ele>
        <time>1970-01-01T04:05:11Z</time>
      </trkpt>
      <trkpt lat="40.269967" lon="0.303442">
        <ele>33.371</ele>
        <time>1970-01-01T04:05:12Z</time>
      </trkpt>
      <trkpt lat="40.269937" lon="0.303400">
        <ele>33.692</ele>
        <time>1970-01-01T04:05:13Z</time>
      </trkpt>
      <trkpt lat="40.269909" lon="0.303360">
        <ele>33.895</ele>
        <time>1970-01-01T04:05:14Z</time>
      </trkpt>
      <trkpt lat="40.269880" lon="0.303319">
        <ele>34.145</ele>
        <time>1970-01-01T04:05:15Z</time>
      </trkpt>
      <trkpt lat="40.269849" lon="0.303279">
        <ele>34.551</ele>
        <time>1970-01-01T04:05:16Z</time>
      </trkpt>
      <trkpt lat="40.269817" lon="0.303242">
        <ele>34.875</ele>
        <time>1970-01-01T04:05:17Z</time>
      </trkpt>
      <trkpt lat="40.269784" lon="0.303204">
        <ele>35.036</ele>
        <time>1970-01-01T04:05:18Z</time>
      </trkpt>
      <trkpt lat="40.269751" lon="0.303166">
        <ele>35.376</ele>
        <time>1970-01-01T04:05:19Z</time>
      </trkpt>
      <trkpt lat="40.269718" lon="0.303128">
        <ele>35.590</ele>
        <time>1970-01-01T04:05:20Z</time>
      </trkpt>
      <trkpt lat="40.269686" lon="0.303092">
        <ele>35.719</ele>
        <time>1970-01-01T04:05:21Z</time>
      </trkpt>
      <trkpt lat="40.269652" lon="0.303056">
        <ele>36.008</ele>
        <time>1970-01-01T04:05:22Z</time>
      </trkpt>
      <trkpt lat="40.269616" lon="0.303014">
        <ele>36.384</ele>
        <time>1970-01-01T04:05:23Z</time>
      </trkpt>
      <trkpt lat="40.269584" lon="0.302973">
        <ele>36.611</ele>
        <time>1970-01-01T04:05:24Z</time>
      </trkpt>
      <trkpt lat="40.269549" lon="0.302930">
        <ele>36.912</ele>
        <time>1970-01-01T04:05:25Z</time>
      </trkpt>
      <trkpt lat="40.269514" lon="0.302890">
        <ele>37.245</ele>
        <time>1970-01-01T04:05:26Z</time>
      </trkpt>
      <trkpt lat="40.269481" lon="0.302842">
        <ele>37.515</ele>
        <time>1970-01-01T04:05:27Z</time>
      </trkpt>
      <trkpt lat="40.269449" lon="0.302791">
        <ele>37.941</ele>
        <time>1970-01-01T04:05:28Z</time>
      </trkpt>
      <trkpt lat="40.269417" lon="0.302738">
        <ele>38.255</ele>
        <time>1970-01-01T04:05:29Z</time>
      </trkpt>
      <trkpt lat="40.269382" lon="0.302689">
        <ele>38.536</ele>
        <time>1970-01-01T04:05:30Z</time>
      </trkpt>
      <trkpt lat="40.269344" lon="0.302645">
        <ele>38.819</ele>
        <time>1970-01-01T04:05:31Z</time>
      </trkpt>
      <trkpt lat="40.269307" lon="0.302603">
        <ele>39.109</ele>
        <time>1970-01-01T04:05:32Z</time>
      </trkpt>
      <trkpt lat="40.269270" lon="0.302561">
        <ele>39.419</ele>
        <time>1970-01-01T04:05:33Z</time>
      </trkpt>
      <trkpt lat="40.269234" lon="0.302517">
        <ele>39.808</ele>
        <time>1970-01-01T04:05:34Z</time>
      </trkpt>
      <trkpt lat="40.269197" lon="0.302472">
        <ele>40.088</ele>
        <time>1970-01-01T04:05:35Z</time>
      </trkpt>
      <trkpt lat="40.269159" lon="0.302427">
        <ele>40.015</ele>
        <time>1970-01-01T04:05:36Z</time>
      </trkpt>
      <trkpt lat="40.269120" lon="0.302383">
        <ele>39.796</ele>
        <time>1970-01-01T04:05:37Z</time>
      </trkpt>
      <trkpt lat="40.269082" lon="0.302342">
        <ele>39.659</ele>
        <time>1970-01-01T04:05:38Z</time>
      </trkpt>
      <trkpt lat="40.269044" lon="0.302297">
        <ele>39.469</ele>
        <time>1970-01-01T04:05:39Z</time>
      </trkpt>
      <trkpt lat="40.269003" lon="0.302249">
        <ele>39.495</ele>
        <time>1970-01-01T04:05:40Z</time>
      </trkpt>
      <trkpt lat="40.268962" lon="0.302201">
        <ele>39.369</ele>
        <time>1970-01-01T04:05:41Z</time>
      </trkpt>
      <trkpt lat="40.268919" lon="0.302153">
        <ele>39.120</ele>
        <time>1970-01-01T04:05:42Z</time>
      </trkpt>
      <trkpt lat="40.268877" lon="0.302107">
        <ele>39.065</ele>
        <time>1970-01-01T04:05:43Z</time>
      </trkpt>
      <trkpt lat="40.268833" lon="0.302060">
        <ele>39.268</ele>
        <time>1970-01-01T04:05:44Z</time>
      </trkpt>
      <trkpt lat="40.268788" lon="0.302020">
        <ele>39.414</ele>
        <time>1970-01-01T04:05:45Z</time>
      </trkpt>
      <trkpt lat="40.268739" lon="0.301990">
        <ele>39.808</ele>
        <time>1970-01-01T04:05:46Z</time>
      </trkpt>
      <trkpt lat="40.268690" lon="0.301961">
        <ele>40.353</ele>
        <time>1970-01-01T04:05:47Z</time>
      </trkpt>
      <trkpt lat="40.268641" lon="0.301940">
        <ele>40.850</ele>
        <time>1970-01-01T04:05:48Z</time>
      </trkpt>
      <trkpt lat="40.268590" lon="0.301928">
        <ele>40.961</ele>
        <time>1970-01-01T04:05:49Z</time>
      </trkpt>
      <trkpt lat="40.268540" lon="0.301912">
        <ele>40.814</ele>
        <time>1970-01-01T04:05:50Z</time>
      </trkpt>
      <trkpt lat="40.268497" lon="0.301893">
        <ele>40.754</ele>
        <time>1970-01-01T04:05:51Z</time>
      </trkpt>
      <trkpt lat="40.268461" lon="0.301862">
        <ele>40.820</ele>
        <time>1970-01-01T04:05:52Z</time>
      </trkpt>
      <trkpt lat="40.268422" lon="0.301825">
        <ele>40.984</ele>
        <time>1970-01-01T04:05:53Z</time>
      </trkpt>
      <trkpt lat="40.268379" lon="0.301792">
        <ele>41.135</ele>
        <time>1970-01-01T04:05:54Z</time>
      </trkpt>
      <trkpt lat="40.268333" lon="0.301762">
        <ele>41.366</ele>
        <time>1970-01-01T04:05:55Z</time>
      </trkpt>
      <trkpt lat="40.268289" lon="0.301730">
        <ele>41.229</ele>
        <time>1970-01-01T04:05:56Z</time>
      </trkpt>
      <trkpt lat="40.268248" lon="0.301692">
        <ele>41.221</ele>
        <time>1970-01-01T04:05:57Z</time>
      </trkpt>
      <trkpt lat="40.268208" lon="0.301654">
        <ele>41.208</ele>
        <time>1970-01-01T04:05:58Z</time>
      </trkpt>
      <trkpt lat="40.268166" lon="0.301615">
        <ele>41.283</ele>
        <time>1970-01-01T04:05:59Z</time>
      </trkpt>
      <trkpt lat="40.268124" lon="0.301575">
        <ele>41.280</ele>
        <time>1970-01-01T04:06:00Z</time>
      </trkpt>
      <trkpt lat="40.268081" lon="0.301540">
        <ele>41.121</ele>
        <time>1970-01-01T04:06:01Z</time>
      </trkpt>
      <trkpt lat="40.268036" lon="0.301501">
        <ele>41.024</ele>
        <time>1970-01-01T04:06:02Z</time>
      </trkpt>
      <trkpt lat="40.267994" lon="0.301463">
        <ele>40.724</ele>
        <time>1970-01-01T04:06:03Z</time>
      </trkpt>
      <trkpt lat="40.267955" lon="0.301422">
        <ele>40.420</ele>
        <time>1970-01-01T04:06:04Z</time>
      </trkpt>
      <trkpt lat="40.267918" lon="0.301380">
        <ele>40.134</ele>
        <time>1970-01-01T04:06:05Z</time>
      </trkpt>
      <trkpt lat="40.267880" lon="0.301332">
        <ele>39.785</ele>
        <time>1970-01-01T04:06:06Z</time>
      </trkpt>
      <trkpt lat="40.267845" lon="0.301280">
        <ele>39.446</ele>
        <time>1970-01-01T04:06:07Z</time>
      </trkpt>
      <trkpt lat="40.267812" lon="0.301223">
        <ele>39.188</ele>
        <time>1970-01-01T04:06:08Z</time>
      </trkpt>
      <trkpt lat="40.267780" lon="0.301163">
        <ele>38.816</ele>
        <time>1970-01-01T04:06:09Z</time>
      </trkpt>
      <trkpt lat="40.267745" lon="0.301107">
        <ele>38.808</ele>
        <time>1970-01-01T04:06:10Z</time>
      </trkpt>
      <trkpt lat="40.267706" lon="0.301059">
        <ele>38.991</ele>
        <time>1970-01-01T04:06:11Z</time>
      </trkpt>
      <trkpt lat="40.267664" lon="0.301011">
        <ele>38.938</ele>
        <time>1970-01-01T04:06:12Z</time>
      </trkpt>
      <trkpt lat="40.267625" lon="0.300968">
        <ele>38.949</ele>
        <time>1970-01-01T04:06:13Z</time>
      </trkpt>
      <trkpt lat="40.267584" lon="0.300929">
        <ele>38.942</ele>
        <time>1970-01-01T04:06:14Z</time>
      </trkpt>
      <trkpt lat="40.267540" lon="0.300890">
        <ele>38.982</ele>
        <time>1970-01-01T04:06:15Z</time>
      </trkpt>
      <trkpt lat="40.267495" lon="0.300851">
        <ele>38.948</ele>
        <time>1970-01-01T04:06:16Z</time>
      </trkpt>
      <trkpt lat="40.267452" lon="0.300813">
        <ele>39.162</ele>
        <time>1970-01-01T04:06:17Z</time>
      </trkpt>
      <trkpt lat="40.267408" lon="0.300776">
        <ele>39.433</ele>
        <time>1970-01-01T04:06:18Z</time>
      </trkpt>
      <trkpt lat="40.267364" lon="0.300737">
        <ele>39.777</ele>
        <time>1970-01-01T04:06:19Z</time>
      </trkpt>
      <trkpt lat="40.267320" lon="0.300698">
        <ele>40.061</ele>
        <time>1970-01-01T04:06:20Z</time>
      </trkpt>
      <trkpt lat="40.267275" lon="0.300658">
        <ele>40.327</ele>
        <time>1970-01-01T04:06:21Z</time>
      </trkpt>
      <trkpt lat="40.267232" lon="0.300622">
        <ele>40.508</ele>
        <time>1970-01-01T04:06:22Z</time>
      </trkpt>
      <trkpt lat="40.267187" lon="0.300583">
        <ele>40.824</ele>
        <time>1970-01-01T04:06:23Z</time>
      </trkpt>
      <trkpt lat="40.267138" lon="0.300554">
        <ele>41.051</ele>
        <time>1970-01-01T04:06:24Z</time>
      </trkpt>
      <trkpt lat="40.267090" lon="0.300525">
        <ele>41.162</ele>
        <time>1970-01-01T04:06:25Z</time>
      </trkpt>
      <trkpt lat="40.267042" lon="0.300501">
        <ele>41.265</ele>
        <time>1970-01-01T04:06:26Z</time>
      </trkpt>
      <trkpt lat="40.266992" lon="0.300474">
        <ele>41.345</ele>
        <time>1970-01-01T04:06:27Z</time>
      </trkpt>
      <trkpt lat="40.266940" lon="0.300453">
        <ele>41.411</ele>
        <time>1970-01-01T04:06:28Z</time>
      </trkpt>
      <trkpt lat="40.266888" lon="0.300437">
        <ele>41.275</ele>
        <time>1970-01-01T04:06:29Z</time>
      </trkpt>
      <trkpt lat="40.266836" lon="0.300413">
        <ele>41.176</ele>
        <time>1970-01-01T04:06:30Z</time>
      </trkpt>
      <trkpt lat="40.266782" lon="0.300387">
        <ele>41.047</ele>
        <time>1970-01-01T04:06:31Z</time>
      </trkpt>
      <trkpt lat="40.266728" lon="0.300354">
        <ele>40.929</ele>
        <time>1970-01-01T04:06:32Z</time>
      </trkpt>
      <trkpt lat="40.266676" lon="0.300317">
        <ele>40.921</ele>
        <time>1970-01-01T04:06:33Z</time>
      </trkpt>
      <trkpt lat="40.266624" lon="0.300278">
        <ele>40.808</ele>
        <time>1970-01-01T04:06:34Z</time>
      </trkpt>
      <trkpt lat="40.266571" lon="0.300238">
        <ele>40.871</ele>
        <time>1970-01-01T04:06:35Z</time>
      </trkpt>
      <trkpt lat="40.266517" lon="0.300191">
        <ele>40.818</ele>
        <time>1970-01-01T04:06:36Z</time>
      </trkpt>
      <trkpt lat="40.266464" lon="0.300140">
        <ele>40.899</ele>
        <time>1970-01-01T04:06:37Z</time>
      </trkpt>
      <trkpt lat="40.266409" lon="0.300097">
        <ele>40.742</ele>
        <time>1970-01-01T04:06:38Z</time>
      </trkpt>
      <trkpt lat="40.266354" lon="0.300056">
        <ele>40.642</ele>
        <time>1970-01-01T04:06:39Z</time>
      </trkpt>
      <trkpt lat="40.266298" lon="0.300007">
        <ele>40.648</ele>
        <time>1970-01-01T04:06:40Z</time>
      </trkpt>
      <trkpt lat="40.266246" lon="0.299957">
        <ele>40.642</ele>
        <time>1970-01-01T04:06:41Z</time>
      </trkpt>
      <trkpt lat="40.266192" lon="0.299912">
        <ele>40.423</ele>
        <time>1970-01-01T04:06:42Z</time>
      </trkpt>
      <trkpt lat="40.266139" lon="0.299868">
        <ele>40.136</ele>
        <time>1970-01-01T04:06:43Z</time>
      </trkpt>
      <trkpt lat="40.266082" lon="0.299825">
        <ele>39.817</ele>
        <time>1970-01-01T04:06:44Z</time>
      </trkpt>
      <trkpt lat="40.266022" lon="0.299798">
        <ele>39.418</ele>
        <time>1970-01-01T04:06:45Z</time>
      </trkpt>
      <trkpt lat="40.265956" lon="0.299780">
        <ele>39.008</ele>
        <time>1970-01-01T04:06:46Z</time>
      </trkpt>
      <trkpt lat="40.265887" lon="0.299774">
        <ele>38.540</ele>
        <time>1970-01-01T04:06:47Z</time>
      </trkpt>
      <trkpt lat="40.265821" lon="0.299767">
        <ele>38.147</ele>
        <time>1970-01-01T04:06:48Z</time>
      </trkpt>
      <trkpt lat="40.265756" lon="0.299760">
        <ele>37.858</ele>
        <time>1970-01-01T04:06:49Z</time>
      </trkpt>
      <trkpt lat="40.265690" lon="0.299755">
        <ele>37.521</ele>
        <time>1970-01-01T04:06:50Z</time>
      </trkpt>
      <trkpt lat="40.265622" lon="0.299748">
        <ele>37.361</ele>
        <time>1970-01-01T04:06:51Z</time>
      </trkpt>
      <trkpt lat="40.265554" lon="0.299742">
        <ele>37.067</ele>
        <time>1970-01-01T04:06:52Z</time>
      </trkpt>
      <trkpt lat="40.265481" lon="0.299732">
        <ele>36.741</ele>
        <time>1970-01-01T04:06:53Z</time>
      </trkpt>
      <trkpt lat="40.265404" lon="0.299732">
        <ele>36.562</ele>
        <time>1970-01-01T04:06:54Z</time>
      </trkpt>
      <trkpt lat="40.265321" lon="0.299744">
        <ele>36.248</ele>
        <time>1970-01-01T04:06:55Z</time>
      </trkpt>
      <trkpt lat="40.265241" lon="0.299762">
        <ele>36.061</ele>
        <time>1970-01-01T04:06:56Z</time>
      </trkpt>
      <trkpt lat="40.265164" lon="0.299776">
        <ele>35.617</ele>
        <time>1970-01-01T04:06:57Z</time>
      </trkpt>
      <trkpt lat="40.265094" lon="0.299786">
        <ele>35.308</ele>
        <time>1970-01-01T04:06:58Z</time>
      </trkpt>
      <trkpt lat="40.265028" lon="0.299789">
        <ele>34.991</ele>
        <time>1970-01-01T04:06:59Z</time>
      </trkpt>
      <trkpt lat="40.264964" lon="0.299786">
        <ele>34.458</ele>
        <time>1970-01-01T04:07:00Z</time>
      </trkpt>
      <trkpt lat="40.264906" lon="0.299767">
        <ele>33.839</ele>
        <time>1970-01-01T04:07:01Z</time>
      </trkpt>
      <trkpt lat="40.264853" lon="0.299740">
        <ele>33.362</ele>
        <time>1970-01-01T04:07:02Z</time>
      </trkpt>
      <trkpt lat="40.264805" lon="0.299699">
        <ele>33.262</ele>
        <time>1970-01-01T04:07:03Z</time>
      </trkpt>
      <trkpt lat="40.264758" lon="0.299650">
        <ele>33.458</ele>
        <time>1970-01-01T04:07:04Z</time>
      </trkpt>
      <trkpt lat="40.264710" lon="0.299597">
        <ele>33.772</ele>
        <time>1970-01-01T04:07:05Z</time>
      </trkpt>
      <trkpt lat="40.264666" lon="0.299542">
        <ele>34.113</ele>
        <time>1970-01-01T04:07:06Z</time>
      </trkpt>
      <trkpt lat="40.264618" lon="0.299482">
        <ele>34.422</ele>
        <time>1970-01-01T04:07:07Z</time>
      </trkpt>
      <trkpt lat="40.264569" lon="0.299428">
        <ele>34.662</ele>
        <time>1970-01-01T04:07:08Z</time>
      </trkpt>
      <trkpt lat="40.264515" lon="0.299379">
        <ele>34.708</ele>
        <time>1970-01-01T04:07:09Z</time>
      </trkpt>
      <trkpt lat="40.264455" lon="0.299336">
        <ele>34.708</ele>
        <time>1970-01-01T04:07:10Z</time>
      </trkpt>
      <trkpt lat="40.264393" lon="0.299299">
        <ele>34.669</ele>
        <time>1970-01-01T04:07:11Z</time>
      </trkpt>
      <trkpt lat="40.264325" lon="0.299267">
        <ele>34.486</ele>
        <time>1970-01-01T04:07:12Z</time>
      </trkpt>
      <trkpt lat="40.264257" lon="0.299239">
        <ele>34.127</ele>
        <time>1970-01-01T04:07:13Z</time>
      </trkpt>
      <trkpt lat="40.264186" lon="0.299212">
        <ele>33.770</ele>
        <time>1970-01-01T04:07:14Z</time>
      </trkpt>
      <trkpt lat="40.264115" lon="0.299185">
        <ele>33.390</ele>
        <time>1970-01-01T04:07:15Z</time>
      </trkpt>
      <trkpt lat="40.264043" lon="0.299158">
        <ele>32.886</ele>
        <time>1970-01-01T04:07:16Z</time>
      </trkpt>
      <trkpt lat="40.263972" lon="0.299132">
        <ele>32.590</ele>
        <time>1970-01-01T04:07:17Z</time>
      </trkpt>
      <trkpt lat="40.263903" lon="0.299108">
        <ele>32.231</ele>
        <time>1970-01-01T04:07:18Z</time>
      </trkpt>
      <trkpt lat="40.263833" lon="0.299084">
        <ele>32.161</ele>
        <time>1970-01-01T04:07:19Z</time>
      </trkpt>
      <trkpt lat="40.263761" lon="0.299059">
        <ele>31.921</ele>
        <time>1970-01-01T04:07:20Z</time>
      </trkpt>
      <trkpt lat="40.263689" lon="0.299038">
        <ele>31.613</ele>
        <time>1970-01-01T04:07:21Z</time>
      </trkpt>
      <trkpt lat="40.263615" lon="0.299018">
        <ele>31.108</ele>
        <time>1970-01-01T04:07:22Z</time>
      </trkpt>
      <trkpt lat="40.263541" lon="0.298994">
        <ele>30.833</ele>
        <time>1970-01-01T04:07:23Z</time>
      </trkpt>
      <trkpt lat="40.263466" lon="0.298970">
        <ele>30.580</ele>
        <time>1970-01-01T04:07:24Z</time>
      </trkpt>
      <trkpt lat="40.263388" lon="0.298945">
        <ele>30.281</ele>
        <time>1970-01-01T04:07:25Z</time>
      </trkpt>
      <trkpt lat="40.263305" lon="0.298922">
        <ele>29.794</ele>
        <time>1970-01-01T04:07:26Z</time>
      </trkpt>
      <trkpt lat="40.263227" lon="0.298907">
        <ele>29.114</ele>
        <time>1970-01-01T04:07:27Z</time>
      </trkpt>
      <trkpt lat="40.263150" lon="0.298889">
        <ele>28.740</ele>
        <time>1970-01-01T04:07:28Z</time>
      </trkpt>
      <trkpt lat="40.263074" lon="0.298869">
        <ele>28.224</ele>
        <time>1970-01-01T04:07:29Z</time>
      </trkpt>
      <trkpt lat="40.262997" lon="0.298850">
        <ele>27.735</ele>
        <time>1970-01-01T04:07:30Z</time>
      </trkpt>
      <trkpt lat="40.262921" lon="0.298829">
        <ele>27.273</ele>
        <time>1970-01-01T04:07:31Z</time>
      </trkpt>
      <trkpt lat="40.262847" lon="0.298811">
        <ele>26.885</ele>
        <time>1970-01-01T04:07:32Z</time>
      </trkpt>
      <trkpt lat="40.262775" lon="0.298791">
        <ele>26.313</ele>
        <time>1970-01-01T04:07:33Z</time>
      </trkpt>
      <trkpt lat="40.262703" lon="0.298767">
        <ele>26.108</ele>
        <time>1970-01-01T04:07:34Z</time>
      </trkpt>
      <trkpt lat="40.262632" lon="0.298740">
        <ele>25.744</ele>
        <time>1970-01-01T04:07:35Z</time>
      </trkpt>
      <trkpt lat="40.262561" lon="0.298713">
        <ele>25.461</ele>
        <time>1970-01-01T04:07:36Z</time>
      </trkpt>
      <trkpt lat="40.262491" lon="0.298685">
        <ele>25.032</ele>
        <time>1970-01-01T04:07:37Z</time>
      </trkpt>
      <trkpt lat="40.262421" lon="0.298658">
        <ele>24.775</ele>
        <time>1970-01-01T04:07:38Z</time>
      </trkpt>
      <trkpt lat="40.262352" lon="0.298631">
        <ele>24.555</ele>
        <time>1970-01-01T04:07:39Z</time>
      </trkpt>
      <trkpt lat="40.262283" lon="0.298603">
        <ele>24.221</ele>
        <time>1970-01-01T04:07:40Z</time>
      </trkpt>
      <trkpt lat="40.262215" lon="0.298573">
        <ele>24.135</ele>
        <time>1970-01-01T04:07:41Z</time>
      </trkpt>
      <trkpt lat="40.262146" lon="0.298539">
        <ele>23.696</ele>
        <time>1970-01-01T04:07:42Z</time>
      </trkpt>
      <trkpt lat="40.262077" lon="0.298504">
        <ele>23.114</ele>
        <time>1970-01-01T04:07:43Z</time>
      </trkpt>
      <trkpt lat="40.262013" lon="0.298463">
        <ele>22.654</ele>
        <time>1970-01-01T04:07:44Z</time>
      </trkpt>
      <trkpt lat="40.261953" lon="0.298413">
        <ele>22.109</ele>
        <time>1970-01-01T04:07:45Z</time>
      </trkpt>
      <trkpt lat="40.261901" lon="0.298356">
        <ele>21.508</ele>
        <time>1970-01-01T04:07:46Z</time>
      </trkpt>
      <trkpt lat="40.261854" lon="0.298294">
        <ele>21.278</ele>
        <time>1970-01-01T04:07:47Z</time>
      </trkpt>
      <trkpt lat="40.261806" lon="0.298232">
        <ele>20.975</ele>
        <time>1970-01-01T04:07:48Z</time>
      </trkpt>
      <trkpt lat="40.261758" lon="0.298174">
        <ele>20.626</ele>
        <time>1970-01-01T04:07:49Z</time>
      </trkpt>
      <trkpt lat="40.261706" lon="0.298122">
        <ele>20.279</ele>
        <time>1970-01-01T04:07:50Z</time>
      </trkpt>
      <trkpt lat="40.261653" lon="0.298075">
        <ele>19.899</ele>
        <time>1970-01-01T04:07:51Z</time>
      </trkpt>
      <trkpt lat="40.261600" lon="0.298028">
        <ele>19.565</ele>
        <time>1970-01-01T04:07:52Z</time>
      </trkpt>
      <trkpt lat="40.261542" lon="0.297986">
        <ele>19.119</ele>
        <time>1970-01-01T04:07:53Z</time>
      </trkpt>
      <trkpt lat="40.261478" lon="0.297957">
        <ele>18.680</ele>
        <time>1970-01-01T04:07:54Z</time>
      </trkpt>
      <trkpt lat="40.261414" lon="0.297942">
        <ele>18.293</ele>
        <time>1970-01-01T04:07:55Z</time>
      </trkpt>
      <trkpt lat="40.261350" lon="0.297936">
        <ele>17.865</ele>
        <time>1970-01-01T04:07:56Z</time>
      </trkpt>
      <trkpt lat="40.261283" lon="0.297923">
        <ele>17.421</ele>
        <time>1970-01-01T04:07:57Z</time>
      </trkpt>
      <trkpt lat="40.261213" lon="0.297901">
        <ele>17.108</ele>
        <time>1970-01-01T04:07:58Z</time>
      </trkpt>
      <trkpt lat="40.261146" lon="0.297871">
        <ele>16.816</ele>
        <time>1970-01-01T04:07:59Z</time>
      </trkpt>
      <trkpt lat="40.261088" lon="0.297830">
        <ele>16.613</ele>
        <time>1970-01-01T04:08:00Z</time>
      </trkpt>
      <trkpt lat="40.261030" lon="0.297776">
        <ele>16.194</ele>
        <time>1970-01-01T04:08:01Z</time>
      </trkpt>
      <trkpt lat="40.260973" lon="0.297716">
        <ele>15.597</ele>
        <time>1970-01-01T04:08:02Z</time>
      </trkpt>
      <trkpt lat="40.260917" lon="0.297651">
        <ele>14.917</ele>
        <time>1970-01-01T04:08:03Z</time>
      </trkpt>
      <trkpt lat="40.260854" lon="0.297581">
        <ele>14.293</ele>
        <time>1970-01-01T04:08:04Z</time>
      </trkpt>
      <trkpt lat="40.260791" lon="0.297516">
        <ele>13.617</ele>
        <time>1970-01-01T04:08:05Z</time>
      </trkpt>
      <trkpt lat="40.260734" lon="0.297457">
        <ele>13.048</ele>
        <time>1970-01-01T04:08:06Z</time>
      </trkpt>
      <trkpt lat="40.260670" lon="0.297400">
        <ele>12.427</ele>
        <time>1970-01-01T04:08:07Z</time>
      </trkpt>
      <trkpt lat="40.260607" lon="0.297344">
        <ele>12.068</ele>
        <time>1970-01-01T04:08:08Z</time>
      </trkpt>
      <trkpt lat="40.260547" lon="0.297295">
        <ele>11.714</ele>
        <time>1970-01-01T04:08:09Z</time>
      </trkpt>
      <trkpt lat="40.260486" lon="0.297242">
        <ele>11.408</ele>
        <time>1970-01-01T04:08:10Z</time>
      </trkpt>
      <trkpt lat="40.260425" lon="0.297188">
        <ele>11.239</ele>
        <time>1970-01-01T04:08:11Z</time>
      </trkpt>
      <trkpt lat="40.260366" lon="0.297138">
        <ele>11.086</ele>
        <time>1970-01-01T04:08:12Z</time>
      </trkpt>
      <trkpt lat="40.260308" lon="0.297088">
        <ele>10.867</ele>
        <time>1970-01-01T04:08:13Z</time>
      </trkpt>
      <trkpt lat="40.260249" lon="0.297037">
        <ele>10.630</ele>
        <time>1970-01-01T04:08:14Z</time>
      </trkpt>
      <trkpt lat="40.260187" lon="0.296991">
        <ele>10.590</ele>
        <time>1970-01-01T04:08:15Z</time>
      </trkpt>
      <trkpt lat="40.260123" lon="0.296950">
        <ele>10.446</ele>
        <time>1970-01-01T04:08:16Z</time>
      </trkpt>
      <trkpt lat="40.260059" lon="0.296908">
        <ele>10.330</ele>
        <time>1970-01-01T04:08:17Z</time>
      </trkpt>
      <trkpt lat="40.259996" lon="0.296861">
        <ele>10.341</ele>
        <time>1970-01-01T04:08:18Z</time>
      </trkpt>
      <trkpt lat="40.259932" lon="0.296808">
        <ele>10.462</ele>
        <time>1970-01-01T04:08:19Z</time>
      </trkpt>
      <trkpt lat="40.259869" lon="0.296752">
        <ele>10.583</ele>
        <time>1970-01-01T04:08:20Z</time>
      </trkpt>
      <trkpt lat="40.259811" lon="0.296698">
        <ele>10.811</ele>
        <time>1970-01-01T04:08:21Z</time>
      </trkpt>
      <trkpt lat="40.259755" lon="0.296647">
        <ele>11.108</ele>
        <time>1970-01-01T04:08:22Z</time>
      </trkpt>
      <trkpt lat="40.259699" lon="0.296595">
        <ele>11.593</ele>
        <time>1970-01-01T04:08:23Z</time>
      </trkpt>
      <trkpt lat="40.259646" lon="0.296542">
        <ele>11.860</ele>
        <time>1970-01-01T04:08:24Z</time>
      </trkpt>
      <trkpt lat="40.259595" lon="0.296487">
        <ele>12.051</ele>
        <time>1970-01-01T04:08:25Z</time>
      </trkpt>
      <trkpt lat="40.259546" lon="0.296433">
        <ele>12.194</ele>
        <time>1970-01-01T04:08:26Z</time>
      </trkpt>
      <trkpt lat="40.259496" lon="0.296380">
        <ele>12.244</ele>
        <time>1970-01-01T04:08:27Z</time>
      </trkpt>
      <trkpt lat="40.259444" lon="0.296331">
        <ele>12.040</ele>
        <time>1970-01-01T04:08:28Z</time>
      </trkpt>
      <trkpt lat="40.259387" lon="0.296286">
        <ele>11.634</ele>
        <time>1970-01-01T04:08:29Z</time>
      </trkpt>
      <trkpt lat="40.259328" lon="0.296256">
        <ele>11.255</ele>
        <time>1970-01-01T04:08:30Z</time>
      </trkpt>
      <trkpt lat="40.259268" lon="0.296231">
        <ele>10.767</ele>
        <time>1970-01-01T04:08:31Z</time>
      </trkpt>
      <trkpt lat="40.259204" lon="0.296214">
        <ele>10.381</ele>
        <time>1970-01-01T04:08:32Z</time>
      </trkpt>
      <trkpt lat="40.259141" lon="0.296201">
        <ele>9.819</ele>
        <time>1970-01-01T04:08:33Z</time>
      </trkpt>
      <trkpt lat="40.259082" lon="0.296189">
        <ele>9.308</ele>
        <time>1970-01-01T04:08:34Z</time>
      </trkpt>
      <trkpt lat="40.259021" lon="0.296176">
        <ele>8.873</ele>
        <time>1970-01-01T04:08:35Z</time>
      </trkpt>
      <trkpt lat="40.258963" lon="0.296156">
        <ele>8.480</ele>
        <time>1970-01-01T04:08:36Z</time>
      </trkpt>
      <trkpt lat="40.258911" lon="0.296132">
        <ele>8.191</ele>
        <time>1970-01-01T04:08:37Z</time>
      </trkpt>
      <trkpt lat="40.258872" lon="0.296099">
        <ele>7.964</ele>
        <time>1970-01-01T04:08:38Z</time>
      </trkpt>
      <trkpt lat="40.258841" lon="0.296057">
        <ele>7.784</ele>
        <time>1970-01-01T04:08:39Z</time>
      </trkpt>
      <trkpt lat="40.258821" lon="0.296003">
        <ele>7.510</ele>
        <time>1970-01-01T04:08:40Z</time>
      </trkpt>
      <trkpt lat="40.258808" lon="0.295945">
        <ele>7.444</ele>
        <time>1970-01-01T04:08:41Z</time>
      </trkpt>
      <trkpt lat="40.258802" lon="0.295888">
        <ele>7.485</ele>
        <time>1970-01-01T04:08:42Z</time>
      </trkpt>
      <trkpt lat="40.258800" lon="0.295824">
        <ele>7.467</ele>
        <time>1970-01-01T04:08:43Z</time>
      </trkpt>
      <trkpt lat="40.258796" lon="0.295757">
        <ele>7.981</ele>
        <time>1970-01-01T04:08:44Z</time>
      </trkpt>
      <trkpt lat="40.258794" lon="0.295689">
        <ele>8.419</ele>
        <time>1970-01-01T04:08:45Z</time>
      </trkpt>
      <trkpt lat="40.258793" lon="0.295624">
        <ele>8.808</ele>
        <time>1970-01-01T04:08:46Z</time>
      </trkpt>
      <trkpt lat="40.258788" lon="0.295560">
        <ele>9.213</ele>
        <time>1970-01-01T04:08:47Z</time>
      </trkpt>
      <trkpt lat="40.258779" lon="0.295503">
        <ele>9.250</ele>
        <time>1970-01-01T04:08:48Z</time>
      </trkpt>
      <trkpt lat="40.258764" lon="0.295452">
        <ele>9.171</ele>
        <time>1970-01-01T04:08:49Z</time>
      </trkpt>
      <trkpt lat="40.258745" lon="0.295403">
        <ele>9.054</ele>
        <time>1970-01-01T04:08:50Z</time>
      </trkpt>
      <trkpt lat="40.258721" lon="0.295355">
        <ele>8.974</ele>
        <time>1970-01-01T04:08:51Z</time>
      </trkpt>
      <trkpt lat="40.258693" lon="0.295311">
        <ele>9.050</ele>
        <time>1970-01-01T04:08:52Z</time>
      </trkpt>
      <trkpt lat="40.258659" lon="0.295268">
        <ele>9.044</ele>
        <time>1970-01-01T04:08:53Z</time>
      </trkpt>
      <trkpt lat="40.258618" lon="0.295226">
        <ele>8.885</ele>
        <time>1970-01-01T04:08:54Z</time>
      </trkpt>
      <trkpt lat="40.258575" lon="0.295186">
        <ele>8.665</ele>
        <time>1970-01-01T04:08:55Z</time>
      </trkpt>
      <trkpt lat="40.258527" lon="0.295148">
        <ele>8.468</ele>
        <time>1970-01-01T04:08:56Z</time>
      </trkpt>
      <trkpt lat="40.258480" lon="0.295117">
        <ele>8.214</ele>
        <time>1970-01-01T04:08:57Z</time>
      </trkpt>
      <trkpt lat="40.258435" lon="0.295089">
        <ele>8.108</ele>
        <time>1970-01-01T04:08:58Z</time>
      </trkpt>
      <trkpt lat="40.258392" lon="0.295066">
        <ele>8.193</ele>
        <time>1970-01-01T04:08:59Z</time>
      </trkpt>
      <trkpt lat="40.258349" lon="0.295044">
        <ele>8.040</ele>
        <time>1970-01-01T04:09:00Z</time>
      </trkpt>
      <trkpt lat="40.258304" lon="0.295020">
        <ele>7.951</ele>
        <time>1970-01-01T04:09:01Z</time>
      </trkpt>
      <trkpt lat="40.258260" lon="0.294996">
        <ele>7.784</ele>
        <time>1970-01-01T04:09:02Z</time>
      </trkpt>
      <trkpt lat="40.258218" lon="0.294971">
        <ele>7.514</ele>
        <time>1970-01-01T04:09:03Z</time>
      </trkpt>
      <trkpt lat="40.258177" lon="0.294941">
        <ele>7.370</ele>
        <time>1970-01-01T04:09:04Z</time>
      </trkpt>
      <trkpt lat="40.258141" lon="0.294904">
        <ele>7.294</ele>
        <time>1970-01-01T04:09:05Z</time>
      </trkpt>
      <trkpt lat="40.258110" lon="0.294858">
        <ele>7.195</ele>
        <time>1970-01-01T04:09:06Z</time>
      </trkpt>
      <trkpt lat="40.258080" lon="0.294801">
        <ele>7.062</ele>
        <time>1970-01-01T04:09:07Z</time>
      </trkpt>
      <trkpt lat="40.258051" lon="0.294740">
        <ele>7.083</ele>
        <time>1970-01-01T04:09:08Z</time>
      </trkpt>
      <trkpt lat="40.258016" lon="0.294684">
        <ele>7.011</ele>
        <time>1970-01-01T04:09:09Z</time>
      </trkpt>
      <trkpt lat="40.257983" lon="0.294629">
        <ele>7.108</ele>
        <time>1970-01-01T04:09:10Z</time>
      </trkpt>
      <trkpt lat="40.257952" lon="0.294573">
        <ele>7.263</ele>
        <time>1970-01-01T04:09:11Z</time>
      </trkpt>
      <trkpt lat="40.257920" lon="0.294519">
        <ele>7.230</ele>
        <time>1970-01-01T04:09:12Z</time>
      </trkpt>
      <trkpt lat="40.257888" lon="0.294467">
        <ele>7.351</ele>
        <time>1970-01-01T04:09:13Z</time>
      </trkpt>
      <trkpt lat="40.257855" lon="0.294414">
        <ele>7.454</ele>
        <time>1970-01-01T04:09:14Z</time>
      </trkpt>
      <trkpt lat="40.257821" lon="0.294362">
        <ele>7.424</ele>
        <time>1970-01-01T04:09:15Z</time>
      </trkpt>
      <trkpt lat="40.257788" lon="0.294309">
        <ele>7.520</ele>
        <time>1970-01-01T04:09:16Z</time>
      </trkpt>
      <trkpt lat="40.257754" lon="0.294255">
        <ele>7.654</ele>
        <time>1970-01-01T04:09:17Z</time>
      </trkpt>
      <trkpt lat="40.257718" lon="0.294201">
        <ele>7.735</ele>
        <time>1970-01-01T04:09:18Z</time>
      </trkpt>
      <trkpt lat="40.257682" lon="0.294148">
        <ele>7.652</ele>
        <time>1970-01-01T04:09:19Z</time>
      </trkpt>
      <trkpt lat="40.257646" lon="0.294097">
        <ele>7.553</ele>
        <time>1970-01-01T04:09:20Z</time>
      </trkpt>
      <trkpt lat="40.257611" lon="0.294043">
        <ele>7.508</ele>
        <time>1970-01-01T04:09:21Z</time>
      </trkpt>
      <trkpt lat="40.257575" lon="0.293993">
        <ele>7.608</ele>
        <time>1970-01-01T04:09:22Z</time>
      </trkpt>
      <trkpt lat="40.257538" lon="0.293946">
        <ele>7.762</ele>
        <time>1970-01-01T04:09:23Z</time>
      </trkpt>
      <trkpt lat="40.257500" lon="0.293902">
        <ele>8.029</ele>
        <time>1970-01-01T04:09:24Z</time>
      </trkpt>
      <trkpt lat="40.257464" lon="0.293857">
        <ele>7.930</ele>
        <time>1970-01-01T04:09:25Z</time>
      </trkpt>
      <trkpt lat="40.257427" lon="0.293813">
        <ele>7.713</ele>
        <time>1970-01-01T04:09:26Z</time>
      </trkpt>
      <trkpt lat="40.257392" lon="0.293771">
        <ele>7.663</ele>
        <time>1970-01-01T04:09:27Z</time>
      </trkpt>
      <trkpt lat="40.257355" lon="0.293732">
        <ele>7.529</ele>
        <time>1970-01-01T04:09:28Z</time>
      </trkpt>
      <trkpt lat="40.257314" lon="0.293696">
        <ele>7.313</ele>
        <time>1970-01-01T04:09:29Z</time>
      </trkpt>
      <trkpt lat="40.257272" lon="0.293663">
        <ele>7.234</ele>
        <time>1970-01-01T04:09:30Z</time>
      </trkpt>
      <trkpt lat="40.257230" lon="0.293629">
        <ele>7.088</ele>
        <time>1970-01-01T04:09:31Z</time>
      </trkpt>
      <trkpt lat="40.257195" lon="0.293591">
        <ele>7.224</ele>
        <time>1970-01-01T04:09:32Z</time>
      </trkpt>
      <trkpt lat="40.257165" lon="0.293545">
        <ele>7.626</ele>
        <time>1970-01-01T04:09:33Z</time>
      </trkpt>
      <trkpt lat="40.257134" lon="0.293491">
        <ele>7.908</ele>
        <time>1970-01-01T04:09:34Z</time>
      </trkpt>
      <trkpt lat="40.257098" lon="0.293438">
        <ele>8.175</ele>
        <time>1970-01-01T04:09:35Z</time>
      </trkpt>
      <trkpt lat="40.257058" lon="0.293390">
        <ele>8.212</ele>
        <time>1970-01-01T04:09:36Z</time>
      </trkpt>
      <trkpt lat="40.257016" lon="0.293347">
        <ele>8.243</ele>
        <time>1970-01-01T04:09:37Z</time>
      </trkpt>
      <trkpt lat="40.256971" lon="0.293303">
        <ele>8.256</ele>
        <time>1970-01-01T04:09:38Z</time>
      </trkpt>
      <trkpt lat="40.256926" lon="0.293260">
        <ele>8.226</ele>
        <time>1970-01-01T04:09:39Z</time>
      </trkpt>
      <trkpt lat="40.256881" lon="0.293213">
        <ele>8.232</ele>
        <time>1970-01-01T04:09:40Z</time>
      </trkpt>
      <trkpt lat="40.256837" lon="0.293170">
        <ele>8.126</ele>
        <time>1970-01-01T04:09:41Z</time>
      </trkpt>
      <trkpt lat="40.256797" lon="0.293129">
        <ele>8.037</ele>
        <time>1970-01-01T04:09:42Z</time>
      </trkpt>
      <trkpt lat="40.256760" lon="0.293089">
        <ele>7.776</ele>
        <time>1970-01-01T04:09:43Z</time>
      </trkpt>
      <trkpt lat="40.256722" lon="0.293046">
        <ele>7.490</ele>
        <time>1970-01-01T04:09:44Z</time>
      </trkpt>
      <trkpt lat="40.256685" lon="0.293005">
        <ele>7.319</ele>
        <time>1970-01-01T04:09:45Z</time>
      </trkpt>
      <trkpt lat="40.256647" lon="0.292965">
        <ele>7.208</ele>
        <time>1970-01-01T04:09:46Z</time>
      </trkpt>
      <trkpt lat="40.256612" lon="0.292924">
        <ele>7.274</ele>
        <time>1970-01-01T04:09:47Z</time>
      </trkpt>
      <trkpt lat="40.256573" lon="0.292881">
        <ele>7.181</ele>
        <time>1970-01-01T04:09:48Z</time>
      </trkpt>
      <trkpt lat="40.256532" lon="0.292841">
        <ele>6.992</ele>
        <time>1970-01-01T04:09:49Z</time>
      </trkpt>
      <trkpt lat="40.256489" lon="0.292800">
        <ele>6.755</ele>
        <time>1970-01-01T04:09:50Z</time>
      </trkpt>
      <trkpt lat="40.256450" lon="0.292760">
        <ele>6.525</ele>
        <time>1970-01-01T04:09:51Z</time>
      </trkpt>
      <trkpt lat="40.256409" lon="0.292717">
        <ele>6.441</ele>
        <time>1970-01-01T04:09:52Z</time>
      </trkpt>
      <trkpt lat="40.256366" lon="0.292672">
        <ele>6.335</ele>
        <time>1970-01-01T04:09:53Z</time>
      </trkpt>
      <trkpt lat="40.256324" lon="0.292629">
        <ele>6.456</ele>
        <time>1970-01-01T04:09:54Z</time>
      </trkpt>
      <trkpt lat="40.256281" lon="0.292586">
        <ele>6.488</ele>
        <time>1970-01-01T04:09:55Z</time>
      </trkpt>
      <trkpt lat="40.256240" lon="0.292541">
        <ele>6.424</ele>
        <time>1970-01-01T04:09:56Z</time>
      </trkpt>
      <trkpt lat="40.256197" lon="0.292497">
        <ele>6.326</ele>
        <time>1970-01-01T04:09:57Z</time>
      </trkpt>
      <trkpt lat="40.256154" lon="0.292452">
        <ele>6.408</ele>
        <time>1970-01-01T04:09:58Z</time>
      </trkpt>
      <trkpt lat="40.256113" lon="0.292407">
        <ele>6.385</ele>
        <time>1970-01-01T04:09:59Z</time>
      </trkpt>
      <trkpt lat="40.256070" lon="0.292357">
        <ele>6.642</ele>
        <time>1970-01-01T04:10:00Z</time>
      </trkpt>
      <trkpt lat="40.256026" lon="0.292308">
        <ele>6.813</ele>
        <time>1970-01-01T04:10:01Z</time>
      </trkpt>
      <trkpt lat="40.255983" lon="0.292261">
        <ele>6.946</ele>
        <time>1970-01-01T04:10:02Z</time>
      </trkpt>
      <trkpt lat="40.255940" lon="0.292214">
        <ele>7.116</ele>
        <time>1970-01-01T04:10:03Z</time>
      </trkpt>
      <trkpt lat="40.255898" lon="0.292167">
        <ele>7.412</ele>
        <time>1970-01-01T04:10:04Z</time>
      </trkpt>
      <trkpt lat="40.255857" lon="0.292116">
        <ele>7.876</ele>
        <time>1970-01-01T04:10:05Z</time>
      </trkpt>
      <trkpt lat="40.255819" lon="0.292066">
        <ele>8.097</ele>
        <time>1970-01-01T04:10:06Z</time>
      </trkpt>
      <trkpt lat="40.255782" lon="0.292015">
        <ele>8.281</ele>
        <time>1970-01-01T04:10:07Z</time>
      </trkpt>
      <trkpt lat="40.255746" lon="0.291969">
        <ele>8.261</ele>
        <time>1970-01-01T04:10:08Z</time>
      </trkpt>
      <trkpt lat="40.255709" lon="0.291918">
        <ele>8.317</ele>
        <time>1970-01-01T04:10:09Z</time>
      </trkpt>
      <trkpt lat="40.255673" lon="0.291870">
        <ele>8.408</ele>
        <time>1970-01-01T04:10:10Z</time>
      </trkpt>
      <trkpt lat="40.255637" lon="0.291822">
        <ele>8.575</ele>
        <time>1970-01-01T04:10:11Z</time>
      </trkpt>
      <trkpt lat="40.255600" lon="0.291777">
        <ele>8.562</ele>
        <time>1970-01-01T04:10:12Z</time>
      </trkpt>
      <trkpt lat="40.255564" lon="0.291731">
        <ele>8.613</ele>
        <time>1970-01-01T04:10:13Z</time>
      </trkpt>
      <trkpt lat="40.255532" lon="0.291680">
        <ele>8.716</ele>
        <time>1970-01-01T04:10:14Z</time>
      </trkpt>
      <trkpt lat="40.255501" lon="0.291627">
        <ele>8.986</ele>
        <time>1970-01-01T04:10:15Z</time>
      </trkpt>
      <trkpt lat="40.255469" lon="0.291575">
        <ele>9.072</ele>
        <time>1970-01-01T04:10:16Z</time>
      </trkpt>
      <trkpt lat="40.255434" lon="0.291525">
        <ele>9.136</ele>
        <time>1970-01-01T04:10:17Z</time>
      </trkpt>
      <trkpt lat="40.255400" lon="0.291475">
        <ele>9.377</ele>
        <time>1970-01-01T04:10:18Z</time>
      </trkpt>
      <trkpt lat="40.255366" lon="0.291424">
        <ele>9.414</ele>
        <time>1970-01-01T04:10:19Z</time>
      </trkpt>
      <trkpt lat="40.255334" lon="0.291371">
        <ele>9.554</ele>
        <time>1970-01-01T04:10:20Z</time>
      </trkpt>
      <trkpt lat="40.255303" lon="0.291316">
        <ele>9.409</ele>
        <time>1970-01-01T04:10:21Z</time>
      </trkpt>
      <trkpt lat="40.255274" lon="0.291258">
        <ele>9.408</ele>
        <time>1970-01-01T04:10:22Z</time>
      </trkpt>
      <trkpt lat="40.255246" lon="0.291202">
        <ele>9.088</ele>
        <time>1970-01-01T04:10:23Z</time>
      </trkpt>
      <trkpt lat="40.255215" lon="0.291145">
        <ele>8.675</ele>
        <time>1970-01-01T04:10:24Z</time>
      </trkpt>
      <trkpt lat="40.255182" lon="0.291089">
        <ele>8.016</ele>
        <time>1970-01-01T04:10:25Z</time>
      </trkpt>
      <trkpt lat="40.255149" lon="0.291032">
        <ele>7.619</ele>
        <time>1970-01-01T04:10:26Z</time>
      </trkpt>
      <trkpt lat="40.255116" lon="0.290974">
        <ele>7.369</ele>
        <time>1970-01-01T04:10:27Z</time>
      </trkpt>
      <trkpt lat="40.255083" lon="0.290916">
        <ele>7.095</ele>
        <time>1970-01-01T04:10:28Z</time>
      </trkpt>
      <trkpt lat="40.255050" lon="0.290857">
        <ele>6.729</ele>
        <time>1970-01-01T04:10:29Z</time>
      </trkpt>
      <trkpt lat="40.255018" lon="0.290799">
        <ele>6.640</ele>
        <time>1970-01-01T04:10:30Z</time>
      </trkpt>
      <trkpt lat="40.254987" lon="0.290740">
        <ele>6.514</ele>
        <time>1970-01-01T04:10:31Z</time>
      </trkpt>
      <trkpt lat="40.254954" lon="0.290683">
        <ele>6.554</ele>
        <time>1970-01-01T04:10:32Z</time>
      </trkpt>
      <trkpt lat="40.254919" lon="0.290627">
        <ele>6.509</ele>
        <time>1970-01-01T04:10:33Z</time>
      </trkpt>
      <trkpt lat="40.254886" lon="0.290569">
        <ele>6.708</ele>
        <time>1970-01-01T04:10:34Z</time>
      </trkpt>
      <trkpt lat="40.254851" lon="0.290510">
        <ele>6.768</ele>
        <time>1970-01-01T04:10:35Z</time>
      </trkpt>
      <trkpt lat="40.254816" lon="0.290452">
        <ele>6.855</ele>
        <time>1970-01-01T04:10:36Z</time>
      </trkpt>
      <trkpt lat="40.254780" lon="0.290390">
        <ele>6.836</ele>
        <time>1970-01-01T04:10:37Z</time>
      </trkpt>
      <trkpt lat="40.254747" lon="0.290332">
        <ele>6.919</ele>
        <time>1970-01-01T04:10:38Z</time>
      </trkpt>
      <trkpt lat="40.254714" lon="0.290273">
        <ele>7.079</ele>
        <time>1970-01-01T04:10:39Z</time>
      </trkpt>
      <trkpt lat="40.254678" lon="0.290211">
        <ele>6.925</ele>
        <time>1970-01-01T04:10:40Z</time>
      </trkpt>
      <trkpt lat="40.254643" lon="0.290150">
        <ele>6.989</ele>
        <time>1970-01-01T04:10:41Z</time>
      </trkpt>
      <trkpt lat="40.254613" lon="0.290085">
        <ele>6.990</ele>
        <time>1970-01-01T04:10:42Z</time>
      </trkpt>
      <trkpt lat="40.254591" lon="0.290017">
        <ele>7.017</ele>
        <time>1970-01-01T04:10:43Z</time>
      </trkpt>
      <trkpt lat="40.254592" lon="0.289947">
        <ele>7.187</ele>
        <time>1970-01-01T04:10:44Z</time>
      </trkpt>
      <trkpt lat="40.254604" lon="0.289878">
        <ele>7.215</ele>
        <time>1970-01-01T04:10:45Z</time>
      </trkpt>
      <trkpt lat="40.254623" lon="0.289814">
        <ele>7.508</ele>
        <time>1970-01-01T04:10:46Z</time>
      </trkpt>
      <trkpt lat="40.254647" lon="0.289758">
        <ele>7.968</ele>
        <time>1970-01-01T04:10:47Z</time>
      </trkpt>
      <trkpt lat="40.254676" lon="0.289709">
        <ele>8.365</ele>
        <time>1970-01-01T04:10:48Z</time>
      </trkpt>
      <trkpt lat="40.254707" lon="0.289667">
        <ele>8.836</ele>
        <time>1970-01-01T04:10:49Z</time>
      </trkpt>
      <trkpt lat="40.254737" lon="0.289627">
        <ele>9.179</ele>
        <time>1970-01-01T04:10:50Z</time>
      </trkpt>
      <trkpt lat="40.254764" lon="0.289588">
        <ele>9.239</ele>
        <time>1970-01-01T04:10:51Z</time>
      </trkpt>
      <trkpt lat="40.254792" lon="0.289551">
        <ele>9.465</ele>
        <time>1970-01-01T04:10:52Z</time>
      </trkpt>
      <trkpt lat="40.254821" lon="0.289512">
        <ele>9.689</ele>
        <time>1970-01-01T04:10:53Z</time>
      </trkpt>
      <trkpt lat="40.254848" lon="0.289474">
        <ele>9.990</ele>
        <time>1970-01-01T04:10:54Z</time>
      </trkpt>
      <trkpt lat="40.254873" lon="0.289439">
        <ele>10.135</ele>
        <time>1970-01-01T04:10:55Z</time>
      </trkpt>
      <trkpt lat="40.254899" lon="0.289403">
        <ele>10.486</ele>
        <time>1970-01-01T04:10:56Z</time>
      </trkpt>
      <trkpt lat="40.254927" lon="0.289368">
        <ele>10.814</ele>
        <time>1970-01-01T04:10:57Z</time>
      </trkpt>
      <trkpt lat="40.254953" lon="0.289332">
        <ele>11.108</ele>
        <time>1970-01-01T04:10:58Z</time>
      </trkpt>
      <trkpt lat="40.254982" lon="0.289298">
        <ele>11.490</ele>
        <time>1970-01-01T04:10:59Z</time>
      </trkpt>
      <trkpt lat="40.255011" lon="0.289262">
        <ele>11.717</ele>
        <time>1970-01-01T04:11:00Z</time>
      </trkpt>
      <trkpt lat="40.255038" lon="0.289227">
        <ele>11.988</ele>
        <time>1970-01-01T04:11:01Z</time>
      </trkpt>
      <trkpt lat="40.255066" lon="0.289193">
        <ele>12.261</ele>
        <time>1970-01-01T04:11:02Z</time>
      </trkpt>
      <trkpt lat="40.255096" lon="0.289163">
        <ele>12.471</ele>
        <time>1970-01-01T04:11:03Z</time>
      </trkpt>
      <trkpt lat="40.255127" lon="0.289134">
        <ele>12.577</ele>
        <time>1970-01-01T04:11:04Z</time>
      </trkpt>
      <trkpt lat="40.255157" lon="0.289108">
        <ele>12.791</ele>
        <time>1970-01-01T04:11:05Z</time>
      </trkpt>
      <trkpt lat="40.255189" lon="0.289084">
        <ele>12.822</ele>
        <time>1970-01-01T04:11:06Z</time>
      </trkpt>
      <trkpt lat="40.255222" lon="0.289067">
        <ele>12.942</ele>
        <time>1970-01-01T04:11:07Z</time>
      </trkpt>
      <trkpt lat="40.255254" lon="0.289053">
        <ele>12.922</ele>
        <time>1970-01-01T04:11:08Z</time>
      </trkpt>
      <trkpt lat="40.255287" lon="0.289042">
        <ele>13.014</ele>
        <time>1970-01-01T04:11:09Z</time>
      </trkpt>
      <trkpt lat="40.255321" lon="0.289033">
        <ele>13.208</ele>
        <time>1970-01-01T04:11:10Z</time>
      </trkpt>
      <trkpt lat="40.255355" lon="0.289022">
        <ele>13.351</ele>
        <time>1970-01-01T04:11:11Z</time>
      </trkpt>
      <trkpt lat="40.255391" lon="0.289012">
        <ele>13.478</ele>
        <time>1970-01-01T04:11:12Z</time>
      </trkpt>
      <trkpt lat="40.255428" lon="0.289001">
        <ele>13.569</ele>
        <time>1970-01-01T04:11:13Z</time>
      </trkpt>
      <trkpt lat="40.255462" lon="0.288986">
        <ele>13.772</ele>
        <time>1970-01-01T04:11:14Z</time>
      </trkpt>
      <trkpt lat="40.255496" lon="0.288969">
        <ele>13.862</ele>
        <time>1970-01-01T04:11:15Z</time>
      </trkpt>
      <trkpt lat="40.255528" lon="0.288951">
        <ele>13.988</ele>
        <time>1970-01-01T04:11:16Z</time>
      </trkpt>
      <trkpt lat="40.255559" lon="0.288933">
        <ele>14.062</ele>
        <time>1970-01-01T04:11:17Z</time>
      </trkpt>
      <trkpt lat="40.255592" lon="0.288917">
        <ele>14.233</ele>
        <time>1970-01-01T04:11:18Z</time>
      </trkpt>
      <trkpt lat="40.255626" lon="0.288905">
        <ele>14.589</ele>
        <time>1970-01-01T04:11:19Z</time>
      </trkpt>
      <trkpt lat="40.255661" lon="0.288896">
        <ele>14.706</ele>
        <time>1970-01-01T04:11:20Z</time>
      </trkpt>
      <trkpt lat="40.255696" lon="0.288886">
        <ele>15.026</ele>
        <time>1970-01-01T04:11:21Z</time>
      </trkpt>
      <trkpt lat="40.255729" lon="0.288873">
        <ele>15.308</ele>
        <time>1970-01-01T04:11:22Z</time>
      </trkpt>
      <trkpt lat="40.255762" lon="0.288858">
        <ele>15.715</ele>
        <time>1970-01-01T04:11:23Z</time>
      </trkpt>
      <trkpt lat="40.255796" lon="0.288844">
        <ele>16.072</ele>
        <time>1970-01-01T04:11:24Z</time>
      </trkpt>
      <trkpt lat="40.255830" lon="0.288833">
        <ele>16.453</ele>
        <time>1970-01-01T04:11:25Z</time>
      </trkpt>
      <trkpt lat="40.255861" lon="0.288819">
        <ele>16.756</ele>
        <time>1970-01-01T04:11:26Z</time>
      </trkpt>
      <trkpt lat="40.255890" lon="0.288799">
        <ele>17.156</ele>
        <time>1970-01-01T04:11:27Z</time>
      </trkpt>
      <trkpt lat="40.255921" lon="0.288780">
        <ele>17.442</ele>
        <time>1970-01-01T04:11:28Z</time>
      </trkpt>
      <trkpt lat="40.255954" lon="0.288760">
        <ele>17.826</ele>
        <time>1970-01-01T04:11:29Z</time>
      </trkpt>
      <trkpt lat="40.255986" lon="0.288740">
        <ele>18.287</ele>
        <time>1970-01-01T04:11:30Z</time>
      </trkpt>
      <trkpt lat="40.256021" lon="0.288723">
        <ele>18.578</ele>
        <time>1970-01-01T04:11:31Z</time>
      </trkpt>
      <trkpt lat="40.256057" lon="0.288704">
        <ele>18.933</ele>
        <time>1970-01-01T04:11:32Z</time>
      </trkpt>
      <trkpt lat="40.256091" lon="0.288684">
        <ele>19.326</ele>
        <time>1970-01-01T04:11:33Z</time>
      </trkpt>
      <trkpt lat="40.256124" lon="0.288667">
        <ele>19.608</ele>
        <time>1970-01-01T04:11:34Z</time>
      </trkpt>
      <trkpt lat="40.256159" lon="0.288651">
        <ele>19.744</ele>
        <time>1970-01-01T04:11:35Z</time>
      </trkpt>
      <trkpt lat="40.256194" lon="0.288638">
        <ele>19.811</ele>
        <time>1970-01-01T04:11:36Z</time>
      </trkpt>
      <trkpt lat="40.256228" lon="0.288630">
        <ele>19.972</ele>
        <time>1970-01-01T04:11:37Z</time>
      </trkpt>
      <trkpt lat="40.256268" lon="0.288627">
        <ele>19.945</ele>
        <time>1970-01-01T04:11:38Z</time>
      </trkpt>
      <trkpt lat="40.256306" lon="0.288626">
        <ele>19.965</ele>
        <time>1970-01-01T04:11:39Z</time>
      </trkpt>
      <trkpt lat="40.256344" lon="0.288627">
        <ele>19.931</ele>
        <time>1970-01-01T04:11:40Z</time>
      </trkpt>
      <trkpt lat="40.256379" lon="0.288620">
        <ele>19.965</ele>
        <time>1970-01-01T04:11:41Z</time>
      </trkpt>
      <trkpt lat="40.256413" lon="0.288615">
        <ele>20.056</ele>
        <time>1970-01-01T04:11:42Z</time>
      </trkpt>
      <trkpt lat="40.256447" lon="0.288613">
        <ele>20.026</ele>
        <time>1970-01-01T04:11:43Z</time>
      </trkpt>
      <trkpt lat="40.256481" lon="0.288605">
        <ele>20.047</ele>
        <time>1970-01-01T04:11:44Z</time>
      </trkpt>
      <trkpt lat="40.256511" lon="0.288598">
        <ele>20.011</ele>
        <time>1970-01-01T04:11:45Z</time>
      </trkpt>
      <trkpt lat="40.256536" lon="0.288594">
        <ele>20.008</ele>
        <time>1970-01-01T04:11:46Z</time>
      </trkpt>
      <trkpt lat="40.256554" lon="0.288585">
        <ele>20.119</ele>
        <time>1970-01-01T04:11:47Z</time>
      </trkpt>
      <trkpt lat="40.256568" lon="0.288574">
        <ele>20.116</ele>
        <time>1970-01-01T04:11:48Z</time>
      </trkpt>
      <trkpt lat="40.256577" lon="0.288554">
        <ele>20.187</ele>
        <time>1970-01-01T04:11:49Z</time>
      </trkpt>
      <trkpt lat="40.256579" lon="0.288530">
        <ele>20.250</ele>
        <time>1970-01-01T04:11:50Z</time>
      </trkpt>
      <trkpt lat="40.256578" lon="0.288503">
        <ele>20.370</ele>
        <time>1970-01-01T04:11:51Z</time>
      </trkpt>
      <trkpt lat="40.256572" lon="0.288469">
        <ele>20.356</ele>
        <time>1970-01-01T04:11:52Z</time>
      </trkpt>
      <trkpt lat="40.256563" lon="0.288431">
        <ele>20.430</ele>
        <time>1970-01-01T04:11:53Z</time>
      </trkpt>
      <trkpt lat="40.256552" lon="0.288388">
        <ele>20.521</ele>
        <time>1970-01-01T04:11:54Z</time>
      </trkpt>
      <trkpt lat="40.256537" lon="0.288343">
        <ele>20.585</ele>
        <time>1970-01-01T04:11:55Z</time>
      </trkpt>
      <trkpt lat="40.256518" lon="0.288301">
        <ele>20.689</ele>
        <time>1970-01-01T04:11:56Z</time>
      </trkpt>
      <trkpt lat="40.256494" lon="0.288259">
        <ele>20.717</ele>
        <time>1970-01-01T04:11:57Z</time>
      </trkpt>
      <trkpt lat="40.256466" lon="0.288219">
        <ele>20.808</ele>
        <time>1970-01-01T04:11:58Z</time>
      </trkpt>
      <trkpt lat="40.256439" lon="0.288181">
        <ele>20.845</ele>
        <time>1970-01-01T04:11:59Z</time>
      </trkpt>
      <trkpt lat="40.256413" lon="0.288145">
        <ele>20.832</ele>
        <time>1970-01-01T04:12:00Z</time>
      </trkpt>
      <trkpt lat="40.256390" lon="0.288106">
        <ele>20.833</ele>
        <time>1970-01-01T04:12:01Z</time>
      </trkpt>
      <trkpt lat="40.256367" lon="0.288069">
        <ele>21.096</ele>
        <time>1970-01-01T04:12:02Z</time>
      </trkpt>
      <trkpt lat="40.256345" lon="0.288034">
        <ele>21.126</ele>
        <time>1970-01-01T04:12:03Z</time>
      </trkpt>
      <trkpt lat="40.256324" lon="0.288002">
        <ele>21.262</ele>
        <time>1970-01-01T04:12:04Z</time>
      </trkpt>
      <trkpt lat="40.256303" lon="0.287971">
        <ele>21.366</ele>
        <time>1970-01-01T04:12:05Z</time>
      </trkpt>
      <trkpt lat="40.256280" lon="0.287938">
        <ele>21.437</ele>
        <time>1970-01-01T04:12:06Z</time>
      </trkpt>
      <trkpt lat="40.256258" lon="0.287905">
        <ele>21.587</ele>
        <time>1970-01-01T04:12:07Z</time>
      </trkpt>
      <trkpt lat="40.256240" lon="0.287874">
        <ele>21.742</ele>
        <time>1970-01-01T04:12:08Z</time>
      </trkpt>
      <trkpt lat="40.256220" lon="0.287844">
        <ele>21.826</ele>
        <time>1970-01-01T04:12:09Z</time>
      </trkpt>
      <trkpt lat="40.256203" lon="0.287815">
        <ele>21.908</ele>
        <time>1970-01-01T04:12:10Z</time>
      </trkpt>
      <trkpt lat="40.256186" lon="0.287775">
        <ele>22.045</ele>
        <time>1970-01-01T04:12:11Z</time>
      </trkpt>
      <trkpt lat="40.256173" lon="0.287733">
        <ele>22.222</ele>
        <time>1970-01-01T04:12:12Z</time>
      </trkpt>
      <trkpt lat="40.256174" lon="0.287691">
        <ele>22.493</ele>
        <time>1970-01-01T04:12:13Z</time>
      </trkpt>
      <trkpt lat="40.256174" lon="0.287640">
        <ele>22.656</ele>
        <time>1970-01-01T04:12:14Z</time>
      </trkpt>
      <trkpt lat="40.256169" lon="0.287586">
        <ele>22.896</ele>
        <time>1970-01-01T04:12:15Z</time>
      </trkpt>
      <trkpt lat="40.256156" lon="0.287531">
        <ele>23.022</ele>
        <time>1970-01-01T04:12:16Z</time>
      </trkpt>
      <trkpt lat="40.256135" lon="0.287479">
        <ele>23.286</ele>
        <time>1970-01-01T04:12:17Z</time>
      </trkpt>
      <trkpt lat="40.256099" lon="0.287432">
        <ele>23.517</ele>
        <time>1970-01-01T04:12:18Z</time>
      </trkpt>
      <trkpt lat="40.256057" lon="0.287394">
        <ele>23.699</ele>
        <time>1970-01-01T04:12:19Z</time>
      </trkpt>
      <trkpt lat="40.256014" lon="0.287359">
        <ele>23.707</ele>
        <time>1970-01-01T04:12:20Z</time>
      </trkpt>
      <trkpt lat="40.255976" lon="0.287327">
        <ele>23.627</ele>
        <time>1970-01-01T04:12:21Z</time>
      </trkpt>
      <trkpt lat="40.255937" lon="0.287276">
        <ele>23.608</ele>
        <time>1970-01-01T04:12:22Z</time>
      </trkpt>
      <trkpt lat="40.255901" lon="0.287218">
        <ele>23.556</ele>
        <time>1970-01-01T04:12:23Z</time>
      </trkpt>
      <trkpt lat="40.255866" lon="0.287164">
        <ele>23.733</ele>
        <time>1970-01-01T04:12:24Z</time>
      </trkpt>
      <trkpt lat="40.255830" lon="0.287105">
        <ele>23.894</ele>
        <time>1970-01-01T04:12:25Z</time>
      </trkpt>
      <trkpt lat="40.255798" lon="0.287047">
        <ele>24.257</ele>
        <time>1970-01-01T04:12:26Z</time>
      </trkpt>
      <trkpt lat="40.255766" lon="0.286987">
        <ele>24.527</ele>
        <time>1970-01-01T04:12:27Z</time>
      </trkpt>
      <trkpt lat="40.255732" lon="0.286928">
        <ele>24.713</ele>
        <time>1970-01-01T04:12:28Z</time>
      </trkpt>
      <trkpt lat="40.255703" lon="0.286871">
        <ele>24.997</ele>
        <time>1970-01-01T04:12:29Z</time>
      </trkpt>
      <trkpt lat="40.255674" lon="0.286818">
        <ele>25.188</ele>
        <time>1970-01-01T04:12:30Z</time>
      </trkpt>
      <trkpt lat="40.255648" lon="0.286763">
        <ele>25.239</ele>
        <time>1970-01-01T04:12:31Z</time>
      </trkpt>
      <trkpt lat="40.255627" lon="0.286711">
        <ele>25.301</ele>
        <time>1970-01-01T04:12:32Z</time>
      </trkpt>
      <trkpt lat="40.255606" lon="0.286665">
        <ele>25.421</ele>
        <time>1970-01-01T04:12:33Z</time>
      </trkpt>
      <trkpt lat="40.255582" lon="0.286618">
        <ele>25.608</ele>
        <time>1970-01-01T04:12:34Z</time>
      </trkpt>
      <trkpt lat="40.255556" lon="0.286570">
        <ele>25.750</ele>
        <time>1970-01-01T04:12:35Z</time>
      </trkpt>
      <trkpt lat="40.255528" lon="0.286524">
        <ele>25.937</ele>
        <time>1970-01-01T04:12:36Z</time>
      </trkpt>
      <trkpt lat="40.255501" lon="0.286481">
        <ele>26.178</ele>
        <time>1970-01-01T04:12:37Z</time>
      </trkpt>
      <trkpt lat="40.255475" lon="0.286433">
        <ele>26.251</ele>
        <time>1970-01-01T04:12:38Z</time>
      </trkpt>
      <trkpt lat="40.255448" lon="0.286386">
        <ele>26.211</ele>
        <time>1970-01-01T04:12:39Z</time>
      </trkpt>
      <trkpt lat="40.255422" lon="0.286345">
        <ele>26.337</ele>
        <time>1970-01-01T04:12:40Z</time>
      </trkpt>
      <trkpt lat="40.255399" lon="0.286303">
        <ele>26.341</ele>
        <time>1970-01-01T04:12:41Z</time>
      </trkpt>
      <trkpt lat="40.255376" lon="0.286261">
        <ele>26.342</ele>
        <time>1970-01-01T04:12:42Z</time>
      </trkpt>
      <trkpt lat="40.255351" lon="0.286220">
        <ele>26.324</ele>
        <time>1970-01-01T04:12:43Z</time>
      </trkpt>
      <trkpt lat="40.255329" lon="0.286177">
        <ele>26.304</ele>
        <time>1970-01-01T04:12:44Z</time>
      </trkpt>
      <trkpt lat="40.255308" lon="0.286134">
        <ele>26.214</ele>
        <time>1970-01-01T04:12:45Z</time>
      </trkpt>
      <trkpt lat="40.255285" lon="0.286088">
        <ele>26.208</ele>
        <time>1970-01-01T04:12:46Z</time>
      </trkpt>
      <trkpt lat="40.255259" lon="0.286043">
        <ele>26.589</ele>
        <time>1970-01-01T04:12:47Z</time>
      </trkpt>
      <trkpt lat="40.255232" lon="0.285998">
        <ele>26.776</ele>
        <time>1970-01-01T04:12:48Z</time>
      </trkpt>
      <trkpt lat="40.255206" lon="0.285956">
        <ele>27.067</ele>
        <time>1970-01-01T04:12:49Z</time>
      </trkpt>
      <trkpt lat="40.255181" lon="0.285913">
        <ele>27.250</ele>
        <time>1970-01-01T04:12:50Z</time>
      </trkpt>
      <trkpt lat="40.255155" lon="0.285870">
        <ele>27.480</ele>
        <time>1970-01-01T04:12:51Z</time>
      </trkpt>
      <trkpt lat="40.255131" lon="0.285828">
        <ele>27.566</ele>
        <time>1970-01-01T04:12:52Z</time>
      </trkpt>
      <trkpt lat="40.255110" lon="0.285784">
        <ele>27.710</ele>
        <time>1970-01-01T04:12:53Z</time>
      </trkpt>
      <trkpt lat="40.255088" lon="0.285739">
        <ele>27.991</ele>
        <time>1970-01-01T04:12:54Z</time>
      </trkpt>
      <trkpt lat="40.255064" lon="0.285697">
        <ele>28.194</ele>
        <time>1970-01-01T04:12:55Z</time>
      </trkpt>
      <trkpt lat="40.255039" lon="0.285657">
        <ele>28.357</ele>
        <time>1970-01-01T04:12:56Z</time>
      </trkpt>
      <trkpt lat="40.255013" lon="0.285618">
        <ele>28.622</ele>
        <time>1970-01-01T04:12:57Z</time>
      </trkpt>
      <trkpt lat="40.254989" lon="0.285579">
        <ele>28.808</ele>
        <time>1970-01-01T04:12:58Z</time>
      </trkpt>
      <trkpt lat="40.254968" lon="0.285540">
        <ele>29.156</ele>
        <time>1970-01-01T04:12:59Z</time>
      </trkpt>
      <trkpt lat="40.254946" lon="0.285499">
        <ele>29.493</ele>
        <time>1970-01-01T04:13:00Z</time>
      </trkpt>
      <trkpt lat="40.254924" lon="0.285461">
        <ele>29.734</ele>
        <time>1970-01-01T04:13:01Z</time>
      </trkpt>
      <trkpt lat="40.254902" lon="0.285422">
        <ele>30.197</ele>
        <time>1970-01-01T04:13:02Z</time>
      </trkpt>
      <trkpt lat="40.254879" lon="0.285383">
        <ele>30.437</ele>
        <time>1970-01-01T04:13:03Z</time>
      </trkpt>
      <trkpt lat="40.254859" lon="0.285346">
        <ele>30.833</ele>
        <time>1970-01-01T04:13:04Z</time>
      </trkpt>
      <trkpt lat="40.254839" lon="0.285310">
        <ele>31.167</ele>
        <time>1970-01-01T04:13:05Z</time>
      </trkpt>
      <trkpt lat="40.254820" lon="0.285271">
        <ele>31.488</ele>
        <time>1970-01-01T04:13:06Z</time>
      </trkpt>
      <trkpt lat="40.254803" lon="0.285234">
        <ele>31.835</ele>
        <time>1970-01-01T04:13:07Z</time>
      </trkpt>
      <trkpt lat="40.254787" lon="0.285200">
        <ele>32.186</ele>
        <time>1970-01-01T04:13:08Z</time>
      </trkpt>
      <trkpt lat="40.254765" lon="0.285160">
        <ele>32.414</ele>
        <time>1970-01-01T04:13:09Z</time>
      </trkpt>
      <trkpt lat="40.254740" lon="0.285127">
        <ele>32.708</ele>
        <time>1970-01-01T04:13:10Z</time>
      </trkpt>
      <trkpt lat="40.254716" lon="0.285091">
        <ele>33.020</ele>
        <time>1970-01-01T04:13:11Z</time>
      </trkpt>
      <trkpt lat="40.254691" lon="0.285053">
        <ele>33.227</ele>
        <time>1970-01-01T04:13:12Z</time>
      </trkpt>
      <trkpt lat="40.254667" lon="0.285018">
        <ele>33.458</ele>
        <time>1970-01-01T04:13:13Z</time>
      </trkpt>
      <trkpt lat="40.254646" lon="0.284978">
        <ele>33.561</ele>
        <time>1970-01-01T04:13:14Z</time>
      </trkpt>
      <trkpt lat="40.254623" lon="0.284940">
        <ele>33.581</ele>
        <time>1970-01-01T04:13:15Z</time>
      </trkpt>
      <trkpt lat="40.254603" lon="0.284905">
        <ele>33.577</ele>
        <time>1970-01-01T04:13:16Z</time>
      </trkpt>
      <trkpt lat="40.254577" lon="0.284865">
        <ele>33.431</ele>
        <time>1970-01-01T04:13:17Z</time>
      </trkpt>
      <trkpt lat="40.254548" lon="0.284825">
        <ele>33.412</ele>
        <time>1970-01-01T04:13:18Z</time>
      </trkpt>
      <trkpt lat="40.254518" lon="0.284778">
        <ele>33.357</ele>
        <time>1970-01-01T04:13:19Z</time>
      </trkpt>
      <trkpt lat="40.254488" lon="0.284730">
        <ele>33.300</ele>
        <time>1970-01-01T04:13:20Z</time>
      </trkpt>
      <trkpt lat="40.254459" lon="0.284682">
        <ele>33.420</ele>
        <time>1970-01-01T04:13:21Z</time>
      </trkpt>
      <trkpt lat="40.254430" lon="0.284630">
        <ele>33.508</ele>
        <time>1970-01-01T04:13:22Z</time>
      </trkpt>
      <trkpt lat="40.254404" lon="0.284581">
        <ele>33.522</ele>
        <time>1970-01-01T04:13:23Z</time>
      </trkpt>
      <trkpt lat="40.254375" lon="0.284530">
        <ele>33.569</ele>
        <time>1970-01-01T04:13:24Z</time>
      </trkpt>
      <trkpt lat="40.254340" lon="0.284477">
        <ele>33.340</ele>
        <time>1970-01-01T04:13:25Z</time>
      </trkpt>
      <trkpt lat="40.254305" lon="0.284421">
        <ele>33.263</ele>
        <time>1970-01-01T04:13:26Z</time>
      </trkpt>
      <trkpt lat="40.254273" lon="0.284369">
        <ele>33.193</ele>
        <time>1970-01-01T04:13:27Z</time>
      </trkpt>
      <trkpt lat="40.254244" lon="0.284318">
        <ele>33.069</ele>
        <time>1970-01-01T04:13:28Z</time>
      </trkpt>
      <trkpt lat="40.254217" lon="0.284262">
        <ele>33.023</ele>
        <time>1970-01-01T04:13:29Z</time>
      </trkpt>
      <trkpt lat="40.254181" lon="0.284204">
        <ele>32.924</ele>
        <time>1970-01-01T04:13:30Z</time>
      </trkpt>
      <trkpt lat="40.254145" lon="0.284149">
        <ele>32.811</ele>
        <time>1970-01-01T04:13:31Z</time>
      </trkpt>
      <trkpt lat="40.254110" lon="0.284089">
        <ele>32.521</ele>
        <time>1970-01-01T04:13:32Z</time>
      </trkpt>
      <trkpt lat="40.254070" lon="0.284029">
        <ele>32.303</ele>
        <time>1970-01-01T04:13:33Z</time>
      </trkpt>
      <trkpt lat="40.254029" lon="0.283968">
        <ele>32.108</ele>
        <time>1970-01-01T04:13:34Z</time>
      </trkpt>
      <trkpt lat="40.253984" lon="0.283907">
        <ele>31.958</ele>
        <time>1970-01-01T04:13:35Z</time>
      </trkpt>
      <trkpt lat="40.253938" lon="0.283846">
        <ele>31.625</ele>
        <time>1970-01-01T04:13:36Z</time>
      </trkpt>
      <trkpt lat="40.253893" lon="0.283790">
        <ele>31.136</ele>
        <time>1970-01-01T04:13:37Z</time>
      </trkpt>
      <trkpt lat="40.253845" lon="0.283736">
        <ele>30.479</ele>
        <time>1970-01-01T04:13:38Z</time>
      </trkpt>
      <trkpt lat="40.253796" lon="0.283685">
        <ele>29.799</ele>
        <time>1970-01-01T04:13:39Z</time>
      </trkpt>
      <trkpt lat="40.253745" lon="0.283638">
        <ele>28.995</ele>
        <time>1970-01-01T04:13:40Z</time>
      </trkpt>
      <trkpt lat="40.253694" lon="0.283599">
        <ele>28.369</ele>
        <time>1970-01-01T04:13:41Z</time>
      </trkpt>
      <trkpt lat="40.253641" lon="0.283560">
        <ele>27.960</ele>
        <time>1970-01-01T04:13:42Z</time>
      </trkpt>
      <trkpt lat="40.253591" lon="0.283523">
        <ele>27.834</ele>
        <time>1970-01-01T04:13:43Z</time>
      </trkpt>
      <trkpt lat="40.253539" lon="0.283493">
        <ele>27.655</ele>
        <time>1970-01-01T04:13:44Z</time>
      </trkpt>
      <trkpt lat="40.253483" lon="0.283456">
        <ele>27.510</ele>
        <time>1970-01-01T04:13:45Z</time>
      </trkpt>
      <trkpt lat="40.253423" lon="0.283421">
        <ele>27.208</ele>
        <time>1970-01-01T04:13:46Z</time>
      </trkpt>
      <trkpt lat="40.253365" lon="0.283390">
        <ele>26.950</ele>
        <time>1970-01-01T04:13:47Z</time>
      </trkpt>
      <trkpt lat="40.253311" lon="0.283360">
        <ele>26.657</ele>
        <time>1970-01-01T04:13:48Z</time>
      </trkpt>
      <trkpt lat="40.253254" lon="0.283322">
        <ele>26.328</ele>
        <time>1970-01-01T04:13:49Z</time>
      </trkpt>
      <trkpt lat="40.253190" lon="0.283281">
        <ele>26.051</ele>
        <time>1970-01-01T04:13:50Z</time>
      </trkpt>
      <trkpt lat="40.253123" lon="0.283241">
        <ele>25.641</ele>
        <time>1970-01-01T04:13:51Z</time>
      </trkpt>
      <trkpt lat="40.253057" lon="0.283200">
        <ele>25.017</ele>
        <time>1970-01-01T04:13:52Z</time>
      </trkpt>
      <trkpt lat="40.252996" lon="0.283163">
        <ele>25.071</ele>
        <time>1970-01-01T04:13:53Z</time>
      </trkpt>
      <trkpt lat="40.252931" lon="0.283121">
        <ele>24.872</ele>
        <time>1970-01-01T04:13:54Z</time>
      </trkpt>
      <trkpt lat="40.252864" lon="0.283085">
        <ele>24.668</ele>
        <time>1970-01-01T04:13:55Z</time>
      </trkpt>
      <trkpt lat="40.252796" lon="0.283033">
        <ele>24.342</ele>
        <time>1970-01-01T04:13:56Z</time>
      </trkpt>
      <trkpt lat="40.252732" lon="0.282979">
        <ele>24.526</ele>
        <time>1970-01-01T04:13:57Z</time>
      </trkpt>
      <trkpt lat="40.252672" lon="0.282918">
        <ele>24.808</ele>
        <time>1970-01-01T04:13:58Z</time>
      </trkpt>
      <trkpt lat="40.252611" lon="0.282840">
        <ele>25.183</ele>
        <time>1970-01-01T04:13:59Z</time>
      </trkpt>
      <trkpt lat="40.252554" lon="0.282765">
        <ele>25.350</ele>
        <time>1970-01-01T04:14:00Z</time>
      </trkpt>
      <trkpt lat="40.252500" lon="0.282694">
        <ele>25.351</ele>
        <time>1970-01-01T04:14:01Z</time>
      </trkpt>
      <trkpt lat="40.252444" lon="0.282618">
        <ele>25.334</ele>
        <time>1970-01-01T04:14:02Z</time>
      </trkpt>
      <trkpt lat="40.252391" lon="0.282542">
        <ele>25.484</ele>
        <time>1970-01-01T04:14:03Z</time>
      </trkpt>
      <trkpt lat="40.252339" lon="0.282476">
        <ele>25.720</ele>
        <time>1970-01-01T04:14:04Z</time>
      </trkpt>
      <trkpt lat="40.252294" lon="0.282410">
        <ele>26.174</ele>
        <time>1970-01-01T04:14:05Z</time>
      </trkpt>
      <trkpt lat="40.252256" lon="0.282342">
        <ele>26.465</ele>
        <time>1970-01-01T04:14:06Z</time>
      </trkpt>
      <trkpt lat="40.252217" lon="0.282282">
        <ele>26.582</ele>
        <time>1970-01-01T04:14:07Z</time>
      </trkpt>
      <trkpt lat="40.252179" lon="0.282230">
        <ele>26.643</ele>
        <time>1970-01-01T04:14:08Z</time>
      </trkpt>
      <trkpt lat="40.252143" lon="0.282183">
        <ele>27.017</ele>
        <time>1970-01-01T04:14:09Z</time>
      </trkpt>
      <trkpt lat="40.252109" lon="0.282139">
        <ele>27.308</ele>
        <time>1970-01-01T04:14:10Z</time>
      </trkpt>
      <trkpt lat="40.252080" lon="0.282096">
        <ele>27.675</ele>
        <time>1970-01-01T04:14:11Z</time>
      </trkpt>
      <trkpt lat="40.252053" lon="0.282053">
        <ele>27.842</ele>
        <time>1970-01-01T04:14:12Z</time>
      </trkpt>
      <trkpt lat="40.252028" lon="0.282018">
        <ele>28.063</ele>
        <time>1970-01-01T04:14:13Z</time>
      </trkpt>
      <trkpt lat="40.251999" lon="0.281981">
        <ele>28.246</ele>
        <time>1970-01-01T04:14:14Z</time>
      </trkpt>
      <trkpt lat="40.251968" lon="0.281943">
        <ele>28.326</ele>
        <time>1970-01-01T04:14:15Z</time>
      </trkpt>
      <trkpt lat="40.251936" lon="0.281902">
        <ele>28.532</ele>
        <time>1970-01-01T04:14:16Z</time>
      </trkpt>
      <trkpt lat="40.251906" lon="0.281865">
        <ele>28.816</ele>
        <time>1970-01-01T04:14:17Z</time>
      </trkpt>
      <trkpt lat="40.251876" lon="0.281824">
        <ele>29.257</ele>
        <time>1970-01-01T04:14:18Z</time>
      </trkpt>
      <trkpt lat="40.251845" lon="0.281783">
        <ele>29.553</ele>
        <time>1970-01-01T04:14:19Z</time>
      </trkpt>
      <trkpt lat="40.251813" lon="0.281739">
        <ele>29.904</ele>
        <time>1970-01-01T04:14:20Z</time>
      </trkpt>
      <trkpt lat="40.251782" lon="0.281696">
        <ele>30.214</ele>
        <time>1970-01-01T04:14:21Z</time>
      </trkpt>
      <trkpt lat="40.251751" lon="0.281654">
        <ele>30.408</ele>
        <time>1970-01-01T04:14:22Z</time>
      </trkpt>
      <trkpt lat="40.251720" lon="0.281616">
        <ele>30.752</ele>
        <time>1970-01-01T04:14:23Z</time>
      </trkpt>
      <trkpt lat="40.251688" lon="0.281578">
        <ele>30.859</ele>
        <time>1970-01-01T04:14:24Z</time>
      </trkpt>
      <trkpt lat="40.251657" lon="0.281538">
        <ele>30.970</ele>
        <time>1970-01-01T04:14:25Z</time>
      </trkpt>
      <trkpt lat="40.251626" lon="0.281499">
        <ele>31.263</ele>
        <time>1970-01-01T04:14:26Z</time>
      </trkpt>
      <trkpt lat="40.251594" lon="0.281456">
        <ele>31.583</ele>
        <time>1970-01-01T04:14:27Z</time>
      </trkpt>
      <trkpt lat="40.251561" lon="0.281413">
        <ele>31.869</ele>
        <time>1970-01-01T04:14:28Z</time>
      </trkpt>
      <trkpt lat="40.251530" lon="0.281371">
        <ele>32.163</ele>
        <time>1970-01-01T04:14:29Z</time>
      </trkpt>
      <trkpt lat="40.251499" lon="0.281330">
        <ele>32.414</ele>
        <time>1970-01-01T04:14:30Z</time>
      </trkpt>
      <trkpt lat="40.251473" lon="0.281288">
        <ele>32.697</ele>
        <time>1970-01-01T04:14:31Z</time>
      </trkpt>
      <trkpt lat="40.251455" lon="0.281243">
        <ele>32.823</ele>
        <time>1970-01-01T04:14:32Z</time>
      </trkpt>
      <trkpt lat="40.251443" lon="0.281190">
        <ele>33.025</ele>
        <time>1970-01-01T04:14:33Z</time>
      </trkpt>
      <trkpt lat="40.251432" lon="0.281138">
        <ele>33.208</ele>
        <time>1970-01-01T04:14:34Z</time>
      </trkpt>
      <trkpt lat="40.251419" lon="0.281086">
        <ele>33.356</ele>
        <time>1970-01-01T04:14:35Z</time>
      </trkpt>
      <trkpt lat="40.251398" lon="0.281042">
        <ele>33.343</ele>
        <time>1970-01-01T04:14:36Z</time>
      </trkpt>
      <trkpt lat="40.251368" lon="0.281001">
        <ele>33.224</ele>
        <time>1970-01-01T04:14:37Z</time>
      </trkpt>
      <trkpt lat="40.251325" lon="0.280977">
        <ele>33.067</ele>
        <time>1970-01-01T04:14:38Z</time>
      </trkpt>
      <trkpt lat="40.251276" lon="0.280964">
        <ele>32.797</ele>
        <time>1970-01-01T04:14:39Z</time>
      </trkpt>
      <trkpt lat="40.251228" lon="0.280949">
        <ele>32.463</ele>
        <time>1970-01-01T04:14:40Z</time>
      </trkpt>
      <trkpt lat="40.251182" lon="0.280927">
        <ele>32.277</ele>
        <time>1970-01-01T04:14:41Z</time>
      </trkpt>
      <trkpt lat="40.251143" lon="0.280894">
        <ele>32.038</ele>
        <time>1970-01-01T04:14:42Z</time>
      </trkpt>
      <trkpt lat="40.251112" lon="0.280852">
        <ele>31.938</ele>
        <time>1970-01-01T04:14:43Z</time>
      </trkpt>
      <trkpt lat="40.251089" lon="0.280795">
        <ele>32.170</ele>
        <time>1970-01-01T04:14:44Z</time>
      </trkpt>
      <trkpt lat="40.251067" lon="0.280735">
        <ele>32.417</ele>
        <time>1970-01-01T04:14:45Z</time>
      </trkpt>
      <trkpt lat="40.251044" lon="0.280666">
        <ele>32.708</ele>
        <time>1970-01-01T04:14:46Z</time>
      </trkpt>
      <trkpt lat="40.251024" lon="0.280601">
        <ele>33.010</ele>
        <time>1970-01-01T04:14:47Z</time>
      </trkpt>
      <trkpt lat="40.251007" lon="0.280533">
        <ele>33.217</ele>
        <time>1970-01-01T04:14:48Z</time>
      </trkpt>
      <trkpt lat="40.250994" lon="0.280467">
        <ele>33.018</ele>
        <time>1970-01-01T04:14:49Z</time>
      </trkpt>
      <trkpt lat="40.250983" lon="0.280403">
        <ele>32.881</ele>
        <time>1970-01-01T04:14:50Z</time>
      </trkpt>
      <trkpt lat="40.250973" lon="0.280337">
        <ele>32.631</ele>
        <time>1970-01-01T04:14:51Z</time>
      </trkpt>
      <trkpt lat="40.250961" lon="0.280271">
        <ele>32.527</ele>
        <time>1970-01-01T04:14:52Z</time>
      </trkpt>
      <trkpt lat="40.250953" lon="0.280204">
        <ele>32.441</ele>
        <time>1970-01-01T04:14:53Z</time>
      </trkpt>
      <trkpt lat="40.250947" lon="0.280138">
        <ele>32.462</ele>
        <time>1970-01-01T04:14:54Z</time>
      </trkpt>
      <trkpt lat="40.250939" lon="0.280070">
        <ele>32.419</ele>
        <time>1970-01-01T04:14:55Z</time>
      </trkpt>
      <trkpt lat="40.250932" lon="0.280004">
        <ele>32.409</ele>
        <time>1970-01-01T04:14:56Z</time>
      </trkpt>
      <trkpt lat="40.250925" lon="0.279936">
        <ele>32.319</ele>
        <time>1970-01-01T04:14:57Z</time>
      </trkpt>
      <trkpt lat="40.250918" lon="0.279869">
        <ele>32.308</ele>
        <time>1970-01-01T04:14:58Z</time>
      </trkpt>
      <trkpt lat="40.250914" lon="0.279801">
        <ele>32.348</ele>
        <time>1970-01-01T04:14:59Z</time>
      </trkpt>
      <trkpt lat="40.250913" lon="0.279734">
        <ele>32.395</ele>
        <time>1970-01-01T04:15:00Z</time>
      </trkpt>
      <trkpt lat="40.250911" lon="0.279667">
        <ele>32.356</ele>
        <time>1970-01-01T04:15:01Z</time>
      </trkpt>
      <trkpt lat="40.250910" lon="0.279600">
        <ele>32.339</ele>
        <time>1970-01-01T04:15:02Z</time>
      </trkpt>
      <trkpt lat="40.250912" lon="0.279533">
        <ele>32.389</ele>
        <time>1970-01-01T04:15:03Z</time>
      </trkpt>
      <trkpt lat="40.250915" lon="0.279469">
        <ele>32.325</ele>
        <time>1970-01-01T04:15:04Z</time>
      </trkpt>
      <trkpt lat="40.250920" lon="0.279406">
        <ele>32.319</ele>
        <time>1970-01-01T04:15:05Z</time>
      </trkpt>
      <trkpt lat="40.250927" lon="0.279345">
        <ele>32.360</ele>
        <time>1970-01-01T04:15:06Z</time>
      </trkpt>
      <trkpt lat="40.250935" lon="0.279284">
        <ele>32.477</ele>
        <time>1970-01-01T04:15:07Z</time>
      </trkpt>
      <trkpt lat="40.250945" lon="0.279224">
        <ele>32.461</ele>
        <time>1970-01-01T04:15:08Z</time>
      </trkpt>
      <trkpt lat="40.250955" lon="0.279163">
        <ele>32.427</ele>
        <time>1970-01-01T04:15:09Z</time>
      </trkpt>
      <trkpt lat="40.250966" lon="0.279103">
        <ele>32.608</ele>
        <time>1970-01-01T04:15:10Z</time>
      </trkpt>
      <trkpt lat="40.250979" lon="0.279041">
        <ele>32.764</ele>
        <time>1970-01-01T04:15:11Z</time>
      </trkpt>
      <trkpt lat="40.250991" lon="0.278978">
        <ele>32.961</ele>
        <time>1970-01-01T04:15:12Z</time>
      </trkpt>
      <trkpt lat="40.251003" lon="0.278918">
        <ele>33.042</ele>
        <time>1970-01-01T04:15:13Z</time>
      </trkpt>
      <trkpt lat="40.251019" lon="0.278860">
        <ele>33.025</ele>
        <time>1970-01-01T04:15:14Z</time>
      </trkpt>
      <trkpt lat="40.251035" lon="0.278802">
        <ele>33.045</ele>
        <time>1970-01-01T04:15:15Z</time>
      </trkpt>
      <trkpt lat="40.251051" lon="0.278745">
        <ele>33.021</ele>
        <time>1970-01-01T04:15:16Z</time>
      </trkpt>
      <trkpt lat="40.251067" lon="0.278687">
        <ele>33.065</ele>
        <time>1970-01-01T04:15:17Z</time>
      </trkpt>
      <trkpt lat="40.251083" lon="0.278630">
        <ele>33.036</ele>
        <time>1970-01-01T04:15:18Z</time>
      </trkpt>
      <trkpt lat="40.251096" lon="0.278571">
        <ele>33.157</ele>
        <time>1970-01-01T04:15:19Z</time>
      </trkpt>
      <trkpt lat="40.251108" lon="0.278514">
        <ele>33.300</ele>
        <time>1970-01-01T04:15:20Z</time>
      </trkpt>
      <trkpt lat="40.251120" lon="0.278456">
        <ele>33.620</ele>
        <time>1970-01-01T04:15:21Z</time>
      </trkpt>
      <trkpt lat="40.251132" lon="0.278399">
        <ele>33.908</ele>
        <time>1970-01-01T04:15:22Z</time>
      </trkpt>
      <trkpt lat="40.251141" lon="0.278340">
        <ele>34.232</ele>
        <time>1970-01-01T04:15:23Z</time>
      </trkpt>
      <trkpt lat="40.251150" lon="0.278279">
        <ele>34.319</ele>
        <time>1970-01-01T04:15:24Z</time>
      </trkpt>
      <trkpt lat="40.251158" lon="0.278219">
        <ele>34.370</ele>
        <time>1970-01-01T04:15:25Z</time>
      </trkpt>
      <trkpt lat="40.251163" lon="0.278159">
        <ele>34.493</ele>
        <time>1970-01-01T04:15:26Z</time>
      </trkpt>
      <trkpt lat="40.251162" lon="0.278098">
        <ele>34.413</ele>
        <time>1970-01-01T04:15:27Z</time>
      </trkpt>
      <trkpt lat="40.251156" lon="0.278038">
        <ele>34.499</ele>
        <time>1970-01-01T04:15:28Z</time>
      </trkpt>
      <trkpt lat="40.251146" lon="0.277979">
        <ele>34.593</ele>
        <time>1970-01-01T04:15:29Z</time>
      </trkpt>
      <trkpt lat="40.251131" lon="0.277922">
        <ele>34.624</ele>
        <time>1970-01-01T04:15:30Z</time>
      </trkpt>
      <trkpt lat="40.251114" lon="0.277865">
        <ele>34.799</ele>
        <time>1970-01-01T04:15:31Z</time>
      </trkpt>
      <trkpt lat="40.251092" lon="0.277807">
        <ele>34.807</ele>
        <time>1970-01-01T04:15:32Z</time>
      </trkpt>
      <trkpt lat="40.251067" lon="0.277753">
        <ele>34.827</ele>
        <time>1970-01-01T04:15:33Z</time>
      </trkpt>
      <trkpt lat="40.251038" lon="0.277699">
        <ele>34.808</ele>
        <time>1970-01-01T04:15:34Z</time>
      </trkpt>
      <trkpt lat="40.251007" lon="0.277646">
        <ele>34.716</ele>
        <time>1970-01-01T04:15:35Z</time>
      </trkpt>
      <trkpt lat="40.250975" lon="0.277590">
        <ele>34.753</ele>
        <time>1970-01-01T04:15:36Z</time>
      </trkpt>
      <trkpt lat="40.250943" lon="0.277533">
        <ele>34.764</ele>
        <time>1970-01-01T04:15:37Z</time>
      </trkpt>
      <trkpt lat="40.250913" lon="0.277477">
        <ele>34.717</ele>
        <time>1970-01-01T04:15:38Z</time>
      </trkpt>
      <trkpt lat="40.250883" lon="0.277421">
        <ele>34.957</ele>
        <time>1970-01-01T04:15:39Z</time>
      </trkpt>
      <trkpt lat="40.250854" lon="0.277363">
        <ele>35.133</ele>
        <time>1970-01-01T04:15:40Z</time>
      </trkpt>
      <trkpt lat="40.250825" lon="0.277303">
        <ele>35.367</ele>
        <time>1970-01-01T04:15:41Z</time>
      </trkpt>
      <trkpt lat="40.250799" lon="0.277242">
        <ele>35.558</ele>
        <time>1970-01-01T04:15:42Z</time>
      </trkpt>
      <trkpt lat="40.250776" lon="0.277181">
        <ele>35.736</ele>
        <time>1970-01-01T04:15:43Z</time>
      </trkpt>
      <trkpt lat="40.250752" lon="0.277119">
        <ele>35.917</ele>
        <time>1970-01-01T04:15:44Z</time>
      </trkpt>
      <trkpt lat="40.250732" lon="0.277057">
        <ele>36.118</ele>
        <time>1970-01-01T04:15:45Z</time>
      </trkpt>
      <trkpt lat="40.250712" lon="0.276993">
        <ele>36.308</ele>
        <time>1970-01-01T04:15:46Z</time>
      </trkpt>
      <trkpt lat="40.250693" lon="0.276929">
        <ele>36.650</ele>
        <time>1970-01-01T04:15:47Z</time>
      </trkpt>
      <trkpt lat="40.250678" lon="0.276863">
        <ele>36.897</ele>
        <time>1970-01-01T04:15:48Z</time>
      </trkpt>
      <trkpt lat="40.250666" lon="0.276797">
        <ele>37.018</ele>
        <time>1970-01-01T04:15:49Z</time>
      </trkpt>
      <trkpt lat="40.250655" lon="0.276732">
        <ele>37.371</ele>
        <time>1970-01-01T04:15:50Z</time>
      </trkpt>
      <trkpt lat="40.250646" lon="0.276672">
        <ele>37.671</ele>
        <time>1970-01-01T04:15:51Z</time>
      </trkpt>
      <trkpt lat="40.250634" lon="0.276611">
        <ele>37.667</ele>
        <time>1970-01-01T04:15:52Z</time>
      </trkpt>
      <trkpt lat="40.250622" lon="0.276552">
        <ele>37.631</ele>
        <time>1970-01-01T04:15:53Z</time>
      </trkpt>
      <trkpt lat="40.250612" lon="0.276496">
        <ele>37.542</ele>
        <time>1970-01-01T04:15:54Z</time>
      </trkpt>
      <trkpt lat="40.250604" lon="0.276439">
        <ele>37.535</ele>
        <time>1970-01-01T04:15:55Z</time>
      </trkpt>
      <trkpt lat="40.250592" lon="0.276385">
        <ele>37.486</ele>
        <time>1970-01-01T04:15:56Z</time>
      </trkpt>
      <trkpt lat="40.250572" lon="0.276342">
        <ele>37.314</ele>
        <time>1970-01-01T04:15:57Z</time>
      </trkpt>
      <trkpt lat="40.250540" lon="0.276321">
        <ele>37.108</ele>
        <time>1970-01-01T04:15:58Z</time>
      </trkpt>
      <trkpt lat="40.250501" lon="0.276323">
        <ele>36.870</ele>
        <time>1970-01-01T04:15:59Z</time>
      </trkpt>
      <trkpt lat="40.250460" lon="0.276340">
        <ele>36.557</ele>
        <time>1970-01-01T04:16:00Z</time>
      </trkpt>
      <trkpt lat="40.250419" lon="0.276375">
        <ele>36.198</ele>
        <time>1970-01-01T04:16:01Z</time>
      </trkpt>
      <trkpt lat="40.250374" lon="0.276416">
        <ele>35.691</ele>
        <time>1970-01-01T04:16:02Z</time>
      </trkpt>
      <trkpt lat="40.250324" lon="0.276462">
        <ele>35.151</ele>
        <time>1970-01-01T04:16:03Z</time>
      </trkpt>
      <trkpt lat="40.250273" lon="0.276506">
        <ele>34.567</ele>
        <time>1970-01-01T04:16:04Z</time>
      </trkpt>
      <trkpt lat="40.250219" lon="0.276555">
        <ele>33.981</ele>
        <time>1970-01-01T04:16:05Z</time>
      </trkpt>
      <trkpt lat="40.250162" lon="0.276604">
        <ele>33.332</ele>
        <time>1970-01-01T04:16:06Z</time>
      </trkpt>
      <trkpt lat="40.250103" lon="0.276653">
        <ele>32.822</ele>
        <time>1970-01-01T04:16:07Z</time>
      </trkpt>
      <trkpt lat="40.250042" lon="0.276701">
        <ele>32.362</ele>
        <time>1970-01-01T04:16:08Z</time>
      </trkpt>
      <trkpt lat="40.249982" lon="0.276750">
        <ele>31.908</ele>
        <time>1970-01-01T04:16:09Z</time>
      </trkpt>
      <trkpt lat="40.249919" lon="0.276798">
        <ele>31.608</ele>
        <time>1970-01-01T04:16:10Z</time>
      </trkpt>
      <trkpt lat="40.249853" lon="0.276846">
        <ele>31.149</ele>
        <time>1970-01-01T04:16:11Z</time>
      </trkpt>
      <trkpt lat="40.249790" lon="0.276890">
        <ele>30.656</ele>
        <time>1970-01-01T04:16:12Z</time>
      </trkpt>
      <trkpt lat="40.249734" lon="0.276924">
        <ele>30.297</ele>
        <time>1970-01-01T04:16:13Z</time>
      </trkpt>
      <trkpt lat="40.249687" lon="0.276937">
        <ele>30.020</ele>
        <time>1970-01-01T04:16:14Z</time>
      </trkpt>
      <trkpt lat="40.249647" lon="0.276913">
        <ele>30.110</ele>
        <time>1970-01-01T04:16:15Z</time>
      </trkpt>
      <trkpt lat="40.249613" lon="0.276866">
        <ele>30.386</ele>
        <time>1970-01-01T04:16:16Z</time>
      </trkpt>
      <trkpt lat="40.249581" lon="0.276808">
        <ele>30.530</ele>
        <time>1970-01-01T04:16:17Z</time>
      </trkpt>
      <trkpt lat="40.249549" lon="0.276749">
        <ele>30.731</ele>
        <time>1970-01-01T04:16:18Z</time>
      </trkpt>
      <trkpt lat="40.249510" lon="0.276695">
        <ele>30.965</ele>
        <time>1970-01-01T04:16:19Z</time>
      </trkpt>
      <trkpt lat="40.249466" lon="0.276640">
        <ele>31.068</ele>
        <time>1970-01-01T04:16:20Z</time>
      </trkpt>
      <trkpt lat="40.249423" lon="0.276588">
        <ele>31.014</ele>
        <time>1970-01-01T04:16:21Z</time>
      </trkpt>
      <trkpt lat="40.249381" lon="0.276538">
        <ele>31.108</ele>
        <time>1970-01-01T04:16:22Z</time>
      </trkpt>
      <trkpt lat="40.249341" lon="0.276487">
        <ele>31.243</ele>
        <time>1970-01-01T04:16:23Z</time>
      </trkpt>
      <trkpt lat="40.249300" lon="0.276435">
        <ele>31.480</ele>
        <time>1970-01-01T04:16:24Z</time>
      </trkpt>
      <trkpt lat="40.249259" lon="0.276383">
        <ele>31.751</ele>
        <time>1970-01-01T04:16:25Z</time>
      </trkpt>
      <trkpt lat="40.249220" lon="0.276333">
        <ele>31.984</ele>
        <time>1970-01-01T04:16:26Z</time>
      </trkpt>
      <trkpt lat="40.249177" lon="0.276279">
        <ele>32.014</ele>
        <time>1970-01-01T04:16:27Z</time>
      </trkpt>
      <trkpt lat="40.249133" lon="0.276227">
        <ele>31.910</ele>
        <time>1970-01-01T04:16:28Z</time>
      </trkpt>
      <trkpt lat="40.249089" lon="0.276175">
        <ele>31.914</ele>
        <time>1970-01-01T04:16:29Z</time>
      </trkpt>
      <trkpt lat="40.249048" lon="0.276127">
        <ele>32.025</ele>
        <time>1970-01-01T04:16:30Z</time>
      </trkpt>
      <trkpt lat="40.249006" lon="0.276076">
        <ele>32.213</ele>
        <time>1970-01-01T04:16:31Z</time>
      </trkpt>
      <trkpt lat="40.248967" lon="0.276024">
        <ele>32.443</ele>
        <time>1970-01-01T04:16:32Z</time>
      </trkpt>
      <trkpt lat="40.248928" lon="0.275972">
        <ele>32.607</ele>
        <time>1970-01-01T04:16:33Z</time>
      </trkpt>
      <trkpt lat="40.248890" lon="0.275917">
        <ele>32.708</ele>
        <time>1970-01-01T04:16:34Z</time>
      </trkpt>
      <trkpt lat="40.248853" lon="0.275860">
        <ele>32.548</ele>
        <time>1970-01-01T04:16:35Z</time>
      </trkpt>
      <trkpt lat="40.248817" lon="0.275805">
        <ele>32.285</ele>
        <time>1970-01-01T04:16:36Z</time>
      </trkpt>
      <trkpt lat="40.248789" lon="0.275749">
        <ele>31.846</ele>
        <time>1970-01-01T04:16:37Z</time>
      </trkpt>
      <trkpt lat="40.248761" lon="0.275688">
        <ele>31.439</ele>
        <time>1970-01-01T04:16:38Z</time>
      </trkpt>
      <trkpt lat="40.248731" lon="0.275624">
        <ele>30.929</ele>
        <time>1970-01-01T04:16:39Z</time>
      </trkpt>
      <trkpt lat="40.248697" lon="0.275564">
        <ele>30.335</ele>
        <time>1970-01-01T04:16:40Z</time>
      </trkpt>
      <trkpt lat="40.248661" lon="0.275503">
        <ele>29.739</ele>
        <time>1970-01-01T04:16:41Z</time>
      </trkpt>
      <trkpt lat="40.248623" lon="0.275441">
        <ele>29.230</ele>
        <time>1970-01-01T04:16:42Z</time>
      </trkpt>
      <trkpt lat="40.248586" lon="0.275379">
        <ele>28.871</ele>
        <time>1970-01-01T04:16:43Z</time>
      </trkpt>
      <trkpt lat="40.248549" lon="0.275318">
        <ele>28.441</ele>
        <time>1970-01-01T04:16:44Z</time>
      </trkpt>
      <trkpt lat="40.248512" lon="0.275255">
        <ele>28.115</ele>
        <time>1970-01-01T04:16:45Z</time>
      </trkpt>
      <trkpt lat="40.248476" lon="0.275192">
        <ele>28.008</ele>
        <time>1970-01-01T04:16:46Z</time>
      </trkpt>
      <trkpt lat="40.248440" lon="0.275127">
        <ele>27.914</ele>
        <time>1970-01-01T04:16:47Z</time>
      </trkpt>
      <trkpt lat="40.248404" lon="0.275059">
        <ele>27.871</ele>
        <time>1970-01-01T04:16:48Z</time>
      </trkpt>
      <trkpt lat="40.248370" lon="0.274992">
        <ele>27.662</ele>
        <time>1970-01-01T04:16:49Z</time>
      </trkpt>
      <trkpt lat="40.248337" lon="0.274923">
        <ele>27.985</ele>
        <time>1970-01-01T04:16:50Z</time>
      </trkpt>
      <trkpt lat="40.248305" lon="0.274854">
        <ele>28.545</ele>
        <time>1970-01-01T04:16:51Z</time>
      </trkpt>
      <trkpt lat="40.248275" lon="0.274784">
        <ele>29.081</ele>
        <time>1970-01-01T04:16:52Z</time>
      </trkpt>
      <trkpt lat="40.248247" lon="0.274710">
        <ele>29.515</ele>
        <time>1970-01-01T04:16:53Z</time>
      </trkpt>
      <trkpt lat="40.248221" lon="0.274634">
        <ele>29.816</ele>
        <time>1970-01-01T04:16:54Z</time>
      </trkpt>
      <trkpt lat="40.248202" lon="0.274559">
        <ele>30.271</ele>
        <time>1970-01-01T04:16:55Z</time>
      </trkpt>
      <trkpt lat="40.248182" lon="0.274490">
        <ele>30.641</ele>
        <time>1970-01-01T04:16:56Z</time>
      </trkpt>
      <trkpt lat="40.248151" lon="0.274425">
        <ele>30.715</ele>
        <time>1970-01-01T04:16:57Z</time>
      </trkpt>
      <trkpt lat="40.248110" lon="0.274379">
        <ele>30.408</ele>
        <time>1970-01-01T04:16:58Z</time>
      </trkpt>
      <trkpt lat="40.248068" lon="0.274337">
        <ele>30.134</ele>
        <time>1970-01-01T04:16:59Z</time>
      </trkpt>
      <trkpt lat="40.248035" lon="0.274284">
        <ele>29.911</ele>
        <time>1970-01-01T04:17:00Z</time>
      </trkpt>
      <trkpt lat="40.248007" lon="0.274223">
        <ele>29.692</ele>
        <time>1970-01-01T04:17:01Z</time>
      </trkpt>
      <trkpt lat="40.247980" lon="0.274157">
        <ele>29.515</ele>
        <time>1970-01-01T04:17:02Z</time>
      </trkpt>
      <trkpt lat="40.247955" lon="0.274086">
        <ele>29.985</ele>
        <time>1970-01-01T04:17:03Z</time>
      </trkpt>
      <trkpt lat="40.247932" lon="0.274011">
        <ele>30.261</ele>
        <time>1970-01-01T04:17:04Z</time>
      </trkpt>
      <trkpt lat="40.247906" lon="0.273937">
        <ele>30.685</ele>
        <time>1970-01-01T04:17:05Z</time>
      </trkpt>
      <trkpt lat="40.247880" lon="0.273865">
        <ele>30.816</ele>
        <time>1970-01-01T04:17:06Z</time>
      </trkpt>
      <trkpt lat="40.247855" lon="0.273795">
        <ele>30.958</ele>
        <time>1970-01-01T04:17:07Z</time>
      </trkpt>
      <trkpt lat="40.247830" lon="0.273725">
        <ele>31.052</ele>
        <time>1970-01-01T04:17:08Z</time>
      </trkpt>
      <trkpt lat="40.247807" lon="0.273655">
        <ele>31.117</ele>
        <time>1970-01-01T04:17:09Z</time>
      </trkpt>
      <trkpt lat="40.247784" lon="0.273584">
        <ele>31.008</ele>
        <time>1970-01-01T04:17:10Z</time>
      </trkpt>
      <trkpt lat="40.247759" lon="0.273514">
        <ele>30.962</ele>
        <time>1970-01-01T04:17:11Z</time>
      </trkpt>
      <trkpt lat="40.247735" lon="0.273446">
        <ele>30.759</ele>
        <time>1970-01-01T04:17:12Z</time>
      </trkpt>
      <trkpt lat="40.247708" lon="0.273375">
        <ele>30.540</ele>
        <time>1970-01-01T04:17:13Z</time>
      </trkpt>
      <trkpt lat="40.247680" lon="0.273301">
        <ele>30.333</ele>
        <time>1970-01-01T04:17:14Z</time>
      </trkpt>
      <trkpt lat="40.247651" lon="0.273224">
        <ele>29.933</ele>
        <time>1970-01-01T04:17:15Z</time>
      </trkpt>
      <trkpt lat="40.247620" lon="0.273147">
        <ele>29.529</ele>
        <time>1970-01-01T04:17:16Z</time>
      </trkpt>
      <trkpt lat="40.247590" lon="0.273071">
        <ele>29.083</ele>
        <time>1970-01-01T04:17:17Z</time>
      </trkpt>
      <trkpt lat="40.247557" lon="0.272996">
        <ele>28.664</ele>
        <time>1970-01-01T04:17:18Z</time>
      </trkpt>
      <trkpt lat="40.247525" lon="0.272918">
        <ele>28.325</ele>
        <time>1970-01-01T04:17:19Z</time>
      </trkpt>
      <trkpt lat="40.247494" lon="0.272841">
        <ele>28.026</ele>
        <time>1970-01-01T04:17:20Z</time>
      </trkpt>
      <trkpt lat="40.247465" lon="0.272762">
        <ele>27.808</ele>
        <time>1970-01-01T04:17:21Z</time>
      </trkpt>
      <trkpt lat="40.247433" lon="0.272681">
        <ele>27.808</ele>
        <time>1970-01-01T04:17:22Z</time>
      </trkpt>
      <trkpt lat="40.247403" lon="0.272601">
        <ele>27.749</ele>
        <time>1970-01-01T04:17:23Z</time>
      </trkpt>
      <trkpt lat="40.247370" lon="0.272526">
        <ele>27.526</ele>
        <time>1970-01-01T04:17:24Z</time>
      </trkpt>
      <trkpt lat="40.247331" lon="0.272457">
        <ele>27.317</ele>
        <time>1970-01-01T04:17:25Z</time>
      </trkpt>
      <trkpt lat="40.247287" lon="0.272390">
        <ele>27.120</ele>
        <time>1970-01-01T04:17:26Z</time>
      </trkpt>
      <trkpt lat="40.247240" lon="0.272325">
        <ele>26.820</ele>
        <time>1970-01-01T04:17:27Z</time>
      </trkpt>
      <trkpt lat="40.247192" lon="0.272260">
        <ele>26.636</ele>
        <time>1970-01-01T04:17:28Z</time>
      </trkpt>
      <trkpt lat="40.247141" lon="0.272192">
        <ele>26.160</ele>
        <time>1970-01-01T04:17:29Z</time>
      </trkpt>
      <trkpt lat="40.247090" lon="0.272125">
        <ele>25.681</ele>
        <time>1970-01-01T04:17:30Z</time>
      </trkpt>
      <trkpt lat="40.247035" lon="0.272055">
        <ele>25.091</ele>
        <time>1970-01-01T04:17:31Z</time>
      </trkpt>
      <trkpt lat="40.246979" lon="0.271986">
        <ele>24.481</ele>
        <time>1970-01-01T04:17:32Z</time>
      </trkpt>
      <trkpt lat="40.246920" lon="0.271915">
        <ele>23.719</ele>
        <time>1970-01-01T04:17:33Z</time>
      </trkpt>
      <trkpt lat="40.246857" lon="0.271841">
        <ele>23.008</ele>
        <time>1970-01-01T04:17:34Z</time>
      </trkpt>
      <trkpt lat="40.246791" lon="0.271764">
        <ele>22.236</ele>
        <time>1970-01-01T04:17:35Z</time>
      </trkpt>
      <trkpt lat="40.246723" lon="0.271685">
        <ele>21.513</ele>
        <time>1970-01-01T04:17:36Z</time>
      </trkpt>
      <trkpt lat="40.246654" lon="0.271610">
        <ele>20.814</ele>
        <time>1970-01-01T04:17:37Z</time>
      </trkpt>
      <trkpt lat="40.246580" lon="0.271533">
        <ele>20.287</ele>
        <time>1970-01-01T04:17:38Z</time>
      </trkpt>
      <trkpt lat="40.246502" lon="0.271459">
        <ele>19.767</ele>
        <time>1970-01-01T04:17:39Z</time>
      </trkpt>
      <trkpt lat="40.246422" lon="0.271381">
        <ele>19.193</ele>
        <time>1970-01-01T04:17:40Z</time>
      </trkpt>
      <trkpt lat="40.246341" lon="0.271306">
        <ele>18.557</ele>
        <time>1970-01-01T04:17:41Z</time>
      </trkpt>
      <trkpt lat="40.246258" lon="0.271231">
        <ele>18.098</ele>
        <time>1970-01-01T04:17:42Z</time>
      </trkpt>
      <trkpt lat="40.246175" lon="0.271161">
        <ele>17.427</ele>
        <time>1970-01-01T04:17:43Z</time>
      </trkpt>
      <trkpt lat="40.246088" lon="0.271089">
        <ele>17.068</ele>
        <time>1970-01-01T04:17:44Z</time>
      </trkpt>
      <trkpt lat="40.246000" lon="0.271013">
        <ele>16.914</ele>
        <time>1970-01-01T04:17:45Z</time>
      </trkpt>
      <trkpt lat="40.245910" lon="0.270939">
        <ele>16.608</ele>
        <time>1970-01-01T04:17:46Z</time>
      </trkpt>
      <trkpt lat="40.245820" lon="0.270866">
        <ele>16.159</ele>
        <time>1970-01-01T04:17:47Z</time>
      </trkpt>
      <trkpt lat="40.245728" lon="0.270800">
        <ele>15.896</ele>
        <time>1970-01-01T04:17:48Z</time>
      </trkpt>
      <trkpt lat="40.245631" lon="0.270734">
        <ele>15.477</ele>
        <time>1970-01-01T04:17:49Z</time>
      </trkpt>
      <trkpt lat="40.245537" lon="0.270675">
        <ele>14.820</ele>
        <time>1970-01-01T04:17:50Z</time>
      </trkpt>
      <trkpt lat="40.245447" lon="0.270621">
        <ele>14.310</ele>
        <time>1970-01-01T04:17:51Z</time>
      </trkpt>
      <trkpt lat="40.245359" lon="0.270570">
        <ele>14.036</ele>
        <time>1970-01-01T04:17:52Z</time>
      </trkpt>
      <trkpt lat="40.245275" lon="0.270523">
        <ele>14.030</ele>
        <time>1970-01-01T04:17:53Z</time>
      </trkpt>
      <trkpt lat="40.245193" lon="0.270484">
        <ele>14.191</ele>
        <time>1970-01-01T04:17:54Z</time>
      </trkpt>
      <trkpt lat="40.245108" lon="0.270447">
        <ele>14.253</ele>
        <time>1970-01-01T04:17:55Z</time>
      </trkpt>
      <trkpt lat="40.245028" lon="0.270419">
        <ele>14.404</ele>
        <time>1970-01-01T04:17:56Z</time>
      </trkpt>
      <trkpt lat="40.244950" lon="0.270397">
        <ele>14.614</ele>
        <time>1970-01-01T04:17:57Z</time>
      </trkpt>
      <trkpt lat="40.244874" lon="0.270380">
        <ele>14.608</ele>
        <time>1970-01-01T04:17:58Z</time>
      </trkpt>
      <trkpt lat="40.244799" lon="0.270369">
        <ele>14.762</ele>
        <time>1970-01-01T04:17:59Z</time>
      </trkpt>
      <trkpt lat="40.244730" lon="0.270363">
        <ele>14.739</ele>
        <time>1970-01-01T04:18:00Z</time>
      </trkpt>
      <trkpt lat="40.244670" lon="0.270367">
        <ele>14.380</ele>
        <time>1970-01-01T04:18:01Z</time>
      </trkpt>
      <trkpt lat="40.244618" lon="0.270375">
        <ele>13.933</ele>
        <time>1970-01-01T04:18:02Z</time>
      </trkpt>
      <trkpt lat="40.244573" lon="0.270385">
        <ele>13.523</ele>
        <time>1970-01-01T04:18:03Z</time>
      </trkpt>
      <trkpt lat="40.244542" lon="0.270399">
        <ele>13.329</ele>
        <time>1970-01-01T04:18:04Z</time>
      </trkpt>
      <trkpt lat="40.244515" lon="0.270407">
        <ele>13.073</ele>
        <time>1970-01-01T04:18:05Z</time>
      </trkpt>
      <trkpt lat="40.244492" lon="0.270412">
        <ele>12.974</ele>
        <time>1970-01-01T04:18:06Z</time>
      </trkpt>
      <trkpt lat="40.244473" lon="0.270417">
        <ele>12.722</ele>
        <time>1970-01-01T04:18:07Z</time>
      </trkpt>
      <trkpt lat="40.244452" lon="0.270426">
        <ele>12.562</ele>
        <time>1970-01-01T04:18:08Z</time>
      </trkpt>
      <trkpt lat="40.244429" lon="0.270443">
        <ele>12.308</ele>
        <time>1970-01-01T04:18:09Z</time>
      </trkpt>
      <trkpt lat="40.244408" lon="0.270470">
        <ele>12.108</ele>
        <time>1970-01-01T04:18:10Z</time>
      </trkpt>
      <trkpt lat="40.244387" lon="0.270508">
        <ele>11.999</ele>
        <time>1970-01-01T04:18:11Z</time>
      </trkpt>
      <trkpt lat="40.244363" lon="0.270555">
        <ele>11.716</ele>
        <time>1970-01-01T04:18:12Z</time>
      </trkpt>
      <trkpt lat="40.244347" lon="0.270614">
        <ele>11.717</ele>
        <time>1970-01-01T04:18:13Z</time>
      </trkpt>
      <trkpt lat="40.244332" lon="0.270679">
        <ele>11.880</ele>
        <time>1970-01-01T04:18:14Z</time>
      </trkpt>
      <trkpt lat="40.244318" lon="0.270747">
        <ele>11.980</ele>
        <time>1970-01-01T04:18:15Z</time>
      </trkpt>
      <trkpt lat="40.244302" lon="0.270819">
        <ele>12.026</ele>
        <time>1970-01-01T04:18:16Z</time>
      </trkpt>
      <trkpt lat="40.244281" lon="0.270889">
        <ele>12.090</ele>
        <time>1970-01-01T04:18:17Z</time>
      </trkpt>
      <trkpt lat="40.244261" lon="0.270962">
        <ele>12.081</ele>
        <time>1970-01-01T04:18:18Z</time>
      </trkpt>
      <trkpt lat="40.244246" lon="0.271036">
        <ele>12.098</ele>
        <time>1970-01-01T04:18:19Z</time>
      </trkpt>
      <trkpt lat="40.244233" lon="0.271110">
        <ele>12.015</ele>
        <time>1970-01-01T04:18:20Z</time>
      </trkpt>
      <trkpt lat="40.244221" lon="0.271186">
        <ele>12.326</ele>
        <time>1970-01-01T04:18:21Z</time>
      </trkpt>
      <trkpt lat="40.244210" lon="0.271266">
        <ele>12.608</ele>
        <time>1970-01-01T04:18:22Z</time>
      </trkpt>
      <trkpt lat="40.244197" lon="0.271343">
        <ele>12.826</ele>
        <time>1970-01-01T04:18:23Z</time>
      </trkpt>
      <trkpt lat="40.244184" lon="0.271420">
        <ele>12.943</ele>
        <time>1970-01-01T04:18:24Z</time>
      </trkpt>
      <trkpt lat="40.244172" lon="0.271497">
        <ele>12.654</ele>
        <time>1970-01-01T04:18:25Z</time>
      </trkpt>
      <trkpt lat="40.244159" lon="0.271573">
        <ele>12.377</ele>
        <time>1970-01-01T04:18:26Z</time>
      </trkpt>
      <trkpt lat="40.244146" lon="0.271651">
        <ele>12.137</ele>
        <time>1970-01-01T04:18:27Z</time>
      </trkpt>
      <trkpt lat="40.244134" lon="0.271728">
        <ele>11.613</ele>
        <time>1970-01-01T04:18:28Z</time>
      </trkpt>
      <trkpt lat="40.244122" lon="0.271803">
        <ele>11.167</ele>
        <time>1970-01-01T04:18:29Z</time>
      </trkpt>
      <trkpt lat="40.244109" lon="0.271879">
        <ele>10.688</ele>
        <time>1970-01-01T04:18:30Z</time>
      </trkpt>
      <trkpt lat="40.244096" lon="0.271956">
        <ele>10.293</ele>
        <time>1970-01-01T04:18:31Z</time>
      </trkpt>
      <trkpt lat="40.244083" lon="0.272034">
        <ele>9.965</ele>
        <time>1970-01-01T04:18:32Z</time>
      </trkpt>
      <trkpt lat="40.244069" lon="0.272112">
        <ele>9.521</ele>
        <time>1970-01-01T04:18:33Z</time>
      </trkpt>
      <trkpt lat="40.244056" lon="0.272187">
        <ele>9.208</ele>
        <time>1970-01-01T04:18:34Z</time>
      </trkpt>
      <trkpt lat="40.244042" lon="0.272260">
        <ele>9.016</ele>
        <time>1970-01-01T04:18:35Z</time>
      </trkpt>
      <trkpt lat="40.244029" lon="0.272333">
        <ele>9.093</ele>
        <time>1970-01-01T04:18:36Z</time>
      </trkpt>
      <trkpt lat="40.244016" lon="0.272404">
        <ele>9.084</ele>
        <time>1970-01-01T04:18:37Z</time>
      </trkpt>
      <trkpt lat="40.244003" lon="0.272471">
        <ele>9.047</ele>
        <time>1970-01-01T04:18:38Z</time>
      </trkpt>
      <trkpt lat="40.243990" lon="0.272536">
        <ele>9.287</ele>
        <time>1970-01-01T04:18:39Z</time>
      </trkpt>
      <trkpt lat="40.243979" lon="0.272599">
        <ele>9.543</ele>
        <time>1970-01-01T04:18:40Z</time>
      </trkpt>
      <trkpt lat="40.243970" lon="0.272664">
        <ele>9.817</ele>
        <time>1970-01-01T04:18:41Z</time>
      </trkpt>
      <trkpt lat="40.243960" lon="0.272726">
        <ele>10.028</ele>
        <time>1970-01-01T04:18:42Z</time>
      </trkpt>
      <trkpt lat="40.243952" lon="0.272788">
        <ele>10.389</ele>
        <time>1970-01-01T04:18:43Z</time>
      </trkpt>
      <trkpt lat="40.243942" lon="0.272850">
        <ele>11.006</ele>
        <time>1970-01-01T04:18:44Z</time>
      </trkpt>
      <trkpt lat="40.243925" lon="0.272905">
        <ele>11.526</ele>
        <time>1970-01-01T04:18:45Z</time>
      </trkpt>
      <trkpt lat="40.243900" lon="0.272946">
        <ele>11.908</ele>
        <time>1970-01-01T04:18:46Z</time>
      </trkpt>
      <trkpt lat="40.243871" lon="0.272975">
        <ele>12.175</ele>
        <time>1970-01-01T04:18:47Z</time>
      </trkpt>
      <trkpt lat="40.243844" lon="0.272988">
        <ele>12.152</ele>
        <time>1970-01-01T04:18:48Z</time>
      </trkpt>
      <trkpt lat="40.243814" lon="0.272968">
        <ele>11.993</ele>
        <time>1970-01-01T04:18:49Z</time>
      </trkpt>
      <trkpt lat="40.243768" lon="0.272930">
        <ele>11.416</ele>
        <time>1970-01-01T04:18:50Z</time>
      </trkpt>
      <trkpt lat="40.243724" lon="0.272888">
        <ele>11.076</ele>
        <time>1970-01-01T04:18:51Z</time>
      </trkpt>
      <trkpt lat="40.243676" lon="0.272842">
        <ele>10.572</ele>
        <time>1970-01-01T04:18:52Z</time>
      </trkpt>
      <trkpt lat="40.243628" lon="0.272800">
        <ele>10.256</ele>
        <time>1970-01-01T04:18:53Z</time>
      </trkpt>
      <trkpt lat="40.243583" lon="0.272755">
        <ele>9.967</ele>
        <time>1970-01-01T04:18:54Z</time>
      </trkpt>
      <trkpt lat="40.243535" lon="0.272713">
        <ele>9.769</ele>
        <time>1970-01-01T04:18:55Z</time>
      </trkpt>
      <trkpt lat="40.243484" lon="0.272671">
        <ele>9.504</ele>
        <time>1970-01-01T04:18:56Z</time>
      </trkpt>
      <trkpt lat="40.243431" lon="0.272627">
        <ele>9.424</ele>
        <time>1970-01-01T04:18:57Z</time>
      </trkpt>
      <trkpt lat="40.243384" lon="0.272587">
        <ele>9.208</ele>
        <time>1970-01-01T04:18:58Z</time>
      </trkpt>
      <trkpt lat="40.243335" lon="0.272542">
        <ele>9.053</ele>
        <time>1970-01-01T04:18:59Z</time>
      </trkpt>
      <trkpt lat="40.243283" lon="0.272500">
        <ele>8.870</ele>
        <time>1970-01-01T04:19:00Z</time>
      </trkpt>
      <trkpt lat="40.243230" lon="0.272457">
        <ele>8.711</ele>
        <time>1970-01-01T04:19:01Z</time>
      </trkpt>
      <trkpt lat="40.243176" lon="0.272412">
        <ele>8.674</ele>
        <time>1970-01-01T04:19:02Z</time>
      </trkpt>
      <trkpt lat="40.243126" lon="0.272368">
        <ele>8.494</ele>
        <time>1970-01-01T04:19:03Z</time>
      </trkpt>
      <trkpt lat="40.243076" lon="0.272326">
        <ele>8.170</ele>
        <time>1970-01-01T04:19:04Z</time>
      </trkpt>
      <trkpt lat="40.243025" lon="0.272286">
        <ele>7.844</ele>
        <time>1970-01-01T04:19:05Z</time>
      </trkpt>
      <trkpt lat="40.242974" lon="0.272248">
        <ele>7.435</ele>
        <time>1970-01-01T04:19:06Z</time>
      </trkpt>
      <trkpt lat="40.242924" lon="0.272210">
        <ele>7.133</ele>
        <time>1970-01-01T04:19:07Z</time>
      </trkpt>
      <trkpt lat="40.242872" lon="0.272173">
        <ele>6.923</ele>
        <time>1970-01-01T04:19:08Z</time>
      </trkpt>
      <trkpt lat="40.242821" lon="0.272132">
        <ele>6.615</ele>
        <time>1970-01-01T04:19:09Z</time>
      </trkpt>
      <trkpt lat="40.242772" lon="0.272094">
        <ele>6.408</ele>
        <time>1970-01-01T04:19:10Z</time>
      </trkpt>
      <trkpt lat="40.242726" lon="0.272055">
        <ele>6.450</ele>
        <time>1970-01-01T04:19:11Z</time>
      </trkpt>
      <trkpt lat="40.242678" lon="0.272015">
        <ele>6.417</ele>
        <time>1970-01-01T04:19:12Z</time>
      </trkpt>
      <trkpt lat="40.242627" lon="0.271975">
        <ele>6.368</ele>
        <time>1970-01-01T04:19:13Z</time>
      </trkpt>
      <trkpt lat="40.242580" lon="0.271927">
        <ele>6.381</ele>
        <time>1970-01-01T04:19:14Z</time>
      </trkpt>
      <trkpt lat="40.242533" lon="0.271876">
        <ele>6.321</ele>
        <time>1970-01-01T04:19:15Z</time>
      </trkpt>
      <trkpt lat="40.242487" lon="0.271824">
        <ele>6.567</ele>
        <time>1970-01-01T04:19:16Z</time>
      </trkpt>
      <trkpt lat="40.242446" lon="0.271766">
        <ele>7.061</ele>
        <time>1970-01-01T04:19:17Z</time>
      </trkpt>
      <trkpt lat="40.242405" lon="0.271708">
        <ele>7.552</ele>
        <time>1970-01-01T04:19:18Z</time>
      </trkpt>
      <trkpt lat="40.242367" lon="0.271649">
        <ele>8.191</ele>
        <time>1970-01-01T04:19:19Z</time>
      </trkpt>
      <trkpt lat="40.242335" lon="0.271583">
        <ele>8.781</ele>
        <time>1970-01-01T04:19:20Z</time>
      </trkpt>
      <trkpt lat="40.242311" lon="0.271510">
        <ele>9.319</ele>
        <time>1970-01-01T04:19:21Z</time>
      </trkpt>
      <trkpt lat="40.242284" lon="0.271430">
        <ele>10.108</ele>
        <time>1970-01-01T04:19:22Z</time>
      </trkpt>
      <trkpt lat="40.242257" lon="0.271352">
        <ele>10.616</ele>
        <time>1970-01-01T04:19:23Z</time>
      </trkpt>
      <trkpt lat="40.242229" lon="0.271275">
        <ele>10.933</ele>
        <time>1970-01-01T04:19:24Z</time>
      </trkpt>
      <trkpt lat="40.242188" lon="0.271197">
        <ele>11.084</ele>
        <time>1970-01-01T04:19:25Z</time>
      </trkpt>
      <trkpt lat="40.242141" lon="0.271128">
        <ele>11.087</ele>
        <time>1970-01-01T04:19:26Z</time>
      </trkpt>
      <trkpt lat="40.242090" lon="0.271064">
        <ele>10.737</ele>
        <time>1970-01-01T04:19:27Z</time>
      </trkpt>
      <trkpt lat="40.242034" lon="0.271004">
        <ele>10.553</ele>
        <time>1970-01-01T04:19:28Z</time>
      </trkpt>
      <trkpt lat="40.241977" lon="0.270951">
        <ele>10.457</ele>
        <time>1970-01-01T04:19:29Z</time>
      </trkpt>
      <trkpt lat="40.241918" lon="0.270893">
        <ele>10.088</ele>
        <time>1970-01-01T04:19:30Z</time>
      </trkpt>
      <trkpt lat="40.241863" lon="0.270836">
        <ele>9.478</ele>
        <time>1970-01-01T04:19:31Z</time>
      </trkpt>
      <trkpt lat="40.241811" lon="0.270777">
        <ele>8.633</ele>
        <time>1970-01-01T04:19:32Z</time>
      </trkpt>
      <trkpt lat="40.241763" lon="0.270716">
        <ele>8.026</ele>
        <time>1970-01-01T04:19:33Z</time>
      </trkpt>
      <trkpt lat="40.241718" lon="0.270650">
        <ele>7.508</ele>
        <time>1970-01-01T04:19:34Z</time>
      </trkpt>
      <trkpt lat="40.241682" lon="0.270579">
        <ele>7.134</ele>
        <time>1970-01-01T04:19:35Z</time>
      </trkpt>
      <trkpt lat="40.241656" lon="0.270503">
        <ele>6.881</ele>
        <time>1970-01-01T04:19:36Z</time>
      </trkpt>
      <trkpt lat="40.241649" lon="0.270427">
        <ele>6.592</ele>
        <time>1970-01-01T04:19:37Z</time>
      </trkpt>
      <trkpt lat="40.241658" lon="0.270344">
        <ele>6.255</ele>
        <time>1970-01-01T04:19:38Z</time>
      </trkpt>
      <trkpt lat="40.241673" lon="0.270265">
        <ele>6.095</ele>
        <time>1970-01-01T04:19:39Z</time>
      </trkpt>
      <trkpt lat="40.241680" lon="0.270184">
        <ele>6.051</ele>
        <time>1970-01-01T04:19:40Z</time>
      </trkpt>
      <trkpt lat="40.241668" lon="0.270100">
        <ele>6.065</ele>
        <time>1970-01-01T04:19:41Z</time>
      </trkpt>
      <trkpt lat="40.241636" lon="0.270028">
        <ele>6.126</ele>
        <time>1970-01-01T04:19:42Z</time>
      </trkpt>
      <trkpt lat="40.241590" lon="0.269970">
        <ele>6.434</ele>
        <time>1970-01-01T04:19:43Z</time>
      </trkpt>
      <trkpt lat="40.241537" lon="0.269916">
        <ele>6.655</ele>
        <time>1970-01-01T04:19:44Z</time>
      </trkpt>
      <trkpt lat="40.241484" lon="0.269866">
        <ele>6.810</ele>
        <time>1970-01-01T04:19:45Z</time>
      </trkpt>
      <trkpt lat="40.241431" lon="0.269816">
        <ele>6.908</ele>
        <time>1970-01-01T04:19:46Z</time>
      </trkpt>
      <trkpt lat="40.241376" lon="0.269768">
        <ele>7.070</ele>
        <time>1970-01-01T04:19:47Z</time>
      </trkpt>
      <trkpt lat="40.241324" lon="0.269723">
        <ele>7.237</ele>
        <time>1970-01-01T04:19:48Z</time>
      </trkpt>
      <trkpt lat="40.241275" lon="0.269681">
        <ele>7.428</ele>
        <time>1970-01-01T04:19:49Z</time>
      </trkpt>
      <trkpt lat="40.241223" lon="0.269640">
        <ele>7.631</ele>
        <time>1970-01-01T04:19:50Z</time>
      </trkpt>
      <trkpt lat="40.241170" lon="0.269597">
        <ele>7.841</ele>
        <time>1970-01-01T04:19:51Z</time>
      </trkpt>
      <trkpt lat="40.241121" lon="0.269553">
        <ele>8.067</ele>
        <time>1970-01-01T04:19:52Z</time>
      </trkpt>
      <trkpt lat="40.241079" lon="0.269506">
        <ele>8.271</ele>
        <time>1970-01-01T04:19:53Z</time>
      </trkpt>
      <trkpt lat="40.241045" lon="0.269451">
        <ele>8.572</ele>
        <time>1970-01-01T04:19:54Z</time>
      </trkpt>
      <trkpt lat="40.241012" lon="0.269395">
        <ele>8.649</ele>
        <time>1970-01-01T04:19:55Z</time>
      </trkpt>
      <trkpt lat="40.240977" lon="0.269338">
        <ele>8.802</ele>
        <time>1970-01-01T04:19:56Z</time>
      </trkpt>
      <trkpt lat="40.240943" lon="0.269280">
        <ele>9.022</ele>
        <time>1970-01-01T04:19:57Z</time>
      </trkpt>
      <trkpt lat="40.240908" lon="0.269225">
        <ele>9.208</ele>
        <time>1970-01-01T04:19:58Z</time>
      </trkpt>
      <trkpt lat="40.240869" lon="0.269176">
        <ele>9.651</ele>
        <time>1970-01-01T04:19:59Z</time>
      </trkpt>
      <trkpt lat="40.240825" lon="0.269134">
        <ele>9.918</ele>
        <time>1970-01-01T04:20:00Z</time>
      </trkpt>
      <trkpt lat="40.240782" lon="0.269092">
        <ele>9.879</ele>
        <time>1970-01-01T04:20:01Z</time>
      </trkpt>
      <trkpt lat="40.240736" lon="0.269052">
        <ele>9.772</ele>
        <time>1970-01-01T04:20:02Z</time>
      </trkpt>
      <trkpt lat="40.240691" lon="0.269012">
        <ele>9.722</ele>
        <time>1970-01-01T04:20:03Z</time>
      </trkpt>
      <trkpt lat="40.240646" lon="0.268973">
        <ele>9.828</ele>
        <time>1970-01-01T04:20:04Z</time>
      </trkpt>
      <trkpt lat="40.240601" lon="0.268935">
        <ele>9.932</ele>
        <time>1970-01-01T04:20:05Z</time>
      </trkpt>
      <trkpt lat="40.240556" lon="0.268897">
        <ele>10.013</ele>
        <time>1970-01-01T04:20:06Z</time>
      </trkpt>
      <trkpt lat="40.240512" lon="0.268857">
        <ele>9.893</ele>
        <time>1970-01-01T04:20:07Z</time>
      </trkpt>
      <trkpt lat="40.240468" lon="0.268817">
        <ele>9.765</ele>
        <time>1970-01-01T04:20:08Z</time>
      </trkpt>
      <trkpt lat="40.240422" lon="0.268774">
        <ele>9.521</ele>
        <time>1970-01-01T04:20:09Z</time>
      </trkpt>
      <trkpt lat="40.240375" lon="0.268729">
        <ele>9.308</ele>
        <time>1970-01-01T04:20:10Z</time>
      </trkpt>
      <trkpt lat="40.240327" lon="0.268684">
        <ele>9.276</ele>
        <time>1970-01-01T04:20:11Z</time>
      </trkpt>
      <trkpt lat="40.240278" lon="0.268638">
        <ele>9.033</ele>
        <time>1970-01-01T04:20:12Z</time>
      </trkpt>
      <trkpt lat="40.240229" lon="0.268596">
        <ele>9.224</ele>
        <time>1970-01-01T04:20:13Z</time>
      </trkpt>
      <trkpt lat="40.240181" lon="0.268556">
        <ele>9.317</ele>
        <time>1970-01-01T04:20:14Z</time>
      </trkpt>
      <trkpt lat="40.240131" lon="0.268516">
        <ele>9.587</ele>
        <time>1970-01-01T04:20:15Z</time>
      </trkpt>
      <trkpt lat="40.240079" lon="0.268477">
        <ele>9.723</ele>
        <time>1970-01-01T04:20:16Z</time>
      </trkpt>
      <trkpt lat="40.240028" lon="0.268437">
        <ele>9.967</ele>
        <time>1970-01-01T04:20:17Z</time>
      </trkpt>
      <trkpt lat="40.239980" lon="0.268397">
        <ele>10.258</ele>
        <time>1970-01-01T04:20:18Z</time>
      </trkpt>
      <trkpt lat="40.239934" lon="0.268356">
        <ele>10.715</ele>
        <time>1970-01-01T04:20:19Z</time>
      </trkpt>
      <trkpt lat="40.239885" lon="0.268313">
        <ele>11.265</ele>
        <time>1970-01-01T04:20:20Z</time>
      </trkpt>
      <trkpt lat="40.239838" lon="0.268270">
        <ele>11.511</ele>
        <time>1970-01-01T04:20:21Z</time>
      </trkpt>
      <trkpt lat="40.239793" lon="0.268227">
        <ele>11.908</ele>
        <time>1970-01-01T04:20:22Z</time>
      </trkpt>
      <trkpt lat="40.239746" lon="0.268185">
        <ele>12.248</ele>
        <time>1970-01-01T04:20:23Z</time>
      </trkpt>
      <trkpt lat="40.239699" lon="0.268145">
        <ele>12.555</ele>
        <time>1970-01-01T04:20:24Z</time>
      </trkpt>
      <trkpt lat="40.239653" lon="0.268106">
        <ele>12.716</ele>
        <time>1970-01-01T04:20:25Z</time>
      </trkpt>
      <trkpt lat="40.239607" lon="0.268066">
        <ele>12.969</ele>
        <time>1970-01-01T04:20:26Z</time>
      </trkpt>
      <trkpt lat="40.239564" lon="0.268024">
        <ele>12.999</ele>
        <time>1970-01-01T04:20:27Z</time>
      </trkpt>
      <trkpt lat="40.239522" lon="0.267981">
        <ele>12.945</ele>
        <time>1970-01-01T04:20:28Z</time>
      </trkpt>
      <trkpt lat="40.239478" lon="0.267939">
        <ele>12.999</ele>
        <time>1970-01-01T04:20:29Z</time>
      </trkpt>
      <trkpt lat="40.239437" lon="0.267897">
        <ele>12.920</ele>
        <time>1970-01-01T04:20:30Z</time>
      </trkpt>
      <trkpt lat="40.239398" lon="0.267848">
        <ele>12.826</ele>
        <time>1970-01-01T04:20:31Z</time>
      </trkpt>
      <trkpt lat="40.239358" lon="0.267800">
        <ele>12.747</ele>
        <time>1970-01-01T04:20:32Z</time>
      </trkpt>
      <trkpt lat="40.239318" lon="0.267762">
        <ele>12.911</ele>
        <time>1970-01-01T04:20:33Z</time>
      </trkpt>
      <trkpt lat="40.239280" lon="0.267725">
        <ele>13.108</ele>
        <time>1970-01-01T04:20:34Z</time>
      </trkpt>
      <trkpt lat="40.239243" lon="0.267683">
        <ele>13.429</ele>
        <time>1970-01-01T04:20:35Z</time>
      </trkpt>
      <trkpt lat="40.239207" lon="0.267641">
        <ele>13.646</ele>
        <time>1970-01-01T04:20:36Z</time>
      </trkpt>
      <trkpt lat="40.239171" lon="0.267597">
        <ele>14.037</ele>
        <time>1970-01-01T04:20:37Z</time>
      </trkpt>
      <trkpt lat="40.239130" lon="0.267555">
        <ele>14.230</ele>
        <time>1970-01-01T04:20:38Z</time>
      </trkpt>
      <trkpt lat="40.239087" lon="0.267517">
        <ele>14.620</ele>
        <time>1970-01-01T04:20:39Z</time>
      </trkpt>
      <trkpt lat="40.239042" lon="0.267478">
        <ele>14.996</ele>
        <time>1970-01-01T04:20:40Z</time>
      </trkpt>
      <trkpt lat="40.238998" lon="0.267439">
        <ele>15.130</ele>
        <time>1970-01-01T04:20:41Z</time>
      </trkpt>
      <trkpt lat="40.238956" lon="0.267398">
        <ele>15.451</ele>
        <time>1970-01-01T04:20:42Z</time>
      </trkpt>
      <trkpt lat="40.238916" lon="0.267356">
        <ele>15.879</ele>
        <time>1970-01-01T04:20:43Z</time>
      </trkpt>
      <trkpt lat="40.238874" lon="0.267314">
        <ele>15.905</ele>
        <time>1970-01-01T04:20:44Z</time>
      </trkpt>
      <trkpt lat="40.238828" lon="0.267273">
        <ele>15.825</ele>
        <time>1970-01-01T04:20:45Z</time>
      </trkpt>
      <trkpt lat="40.238784" lon="0.267229">
        <ele>15.608</ele>
        <time>1970-01-01T04:20:46Z</time>
      </trkpt>
      <trkpt lat="40.238742" lon="0.267186">
        <ele>15.494</ele>
        <time>1970-01-01T04:20:47Z</time>
      </trkpt>
      <trkpt lat="40.238702" lon="0.267148">
        <ele>15.221</ele>
        <time>1970-01-01T04:20:48Z</time>
      </trkpt>
      <trkpt lat="40.238661" lon="0.267110">
        <ele>15.162</ele>
        <time>1970-01-01T04:20:49Z</time>
      </trkpt>
      <trkpt lat="40.238618" lon="0.267074">
        <ele>15.075</ele>
        <time>1970-01-01T04:20:50Z</time>
      </trkpt>
      <trkpt lat="40.238575" lon="0.267038">
        <ele>14.985</ele>
        <time>1970-01-01T04:20:51Z</time>
      </trkpt>
      <trkpt lat="40.238535" lon="0.267001">
        <ele>14.791</ele>
        <time>1970-01-01T04:20:52Z</time>
      </trkpt>
      <trkpt lat="40.238498" lon="0.266957">
        <ele>14.655</ele>
        <time>1970-01-01T04:20:53Z</time>
      </trkpt>
      <trkpt lat="40.238456" lon="0.266913">
        <ele>14.336</ele>
        <time>1970-01-01T04:20:54Z</time>
      </trkpt>
      <trkpt lat="40.238410" lon="0.266872">
        <ele>14.069</ele>
        <time>1970-01-01T04:20:55Z</time>
      </trkpt>
      <trkpt lat="40.238363" lon="0.266834">
        <ele>13.704</ele>
        <time>1970-01-01T04:20:56Z</time>
      </trkpt>
      <trkpt lat="40.238317" lon="0.266792">
        <ele>13.424</ele>
        <time>1970-01-01T04:20:57Z</time>
      </trkpt>
      <trkpt lat="40.238272" lon="0.266748">
        <ele>13.208</ele>
        <time>1970-01-01T04:20:58Z</time>
      </trkpt>
      <trkpt lat="40.238225" lon="0.266705">
        <ele>13.163</ele>
        <time>1970-01-01T04:20:59Z</time>
      </trkpt>
      <trkpt lat="40.238180" lon="0.266663">
        <ele>13.050</ele>
        <time>1970-01-01T04:21:00Z</time>
      </trkpt>
      <trkpt lat="40.238132" lon="0.266620">
        <ele>13.111</ele>
        <time>1970-01-01T04:21:01Z</time>
      </trkpt>
      <trkpt lat="40.238081" lon="0.266574">
        <ele>13.324</ele>
        <time>1970-01-01T04:21:02Z</time>
      </trkpt>
      <trkpt lat="40.238033" lon="0.266527">
        <ele>13.584</ele>
        <time>1970-01-01T04:21:03Z</time>
      </trkpt>
      <trkpt lat="40.237984" lon="0.266479">
        <ele>13.510</ele>
        <time>1970-01-01T04:21:04Z</time>
      </trkpt>
      <trkpt lat="40.237935" lon="0.266434">
        <ele>13.534</ele>
        <time>1970-01-01T04:21:05Z</time>
      </trkpt>
      <trkpt lat="40.237887" lon="0.266389">
        <ele>13.425</ele>
        <time>1970-01-01T04:21:06Z</time>
      </trkpt>
      <trkpt lat="40.237836" lon="0.266342">
        <ele>13.281</ele>
        <time>1970-01-01T04:21:07Z</time>
      </trkpt>
      <trkpt lat="40.237783" lon="0.266298">
        <ele>13.061</ele>
        <time>1970-01-01T04:21:08Z</time>
      </trkpt>
      <trkpt lat="40.237727" lon="0.266259">
        <ele>12.817</ele>
        <time>1970-01-01T04:21:09Z</time>
      </trkpt>
      <trkpt lat="40.237671" lon="0.266219">
        <ele>12.608</ele>
        <time>1970-01-01T04:21:10Z</time>
      </trkpt>
      <trkpt lat="40.237619" lon="0.266176">
        <ele>12.475</ele>
        <time>1970-01-01T04:21:11Z</time>
      </trkpt>
      <trkpt lat="40.237564" lon="0.266136">
        <ele>12.292</ele>
        <time>1970-01-01T04:21:12Z</time>
      </trkpt>
      <trkpt lat="40.237508" lon="0.266091">
        <ele>12.073</ele>
        <time>1970-01-01T04:21:13Z</time>
      </trkpt>
      <trkpt lat="40.237454" lon="0.266044">
        <ele>12.136</ele>
        <time>1970-01-01T04:21:14Z</time>
      </trkpt>
      <trkpt lat="40.237399" lon="0.265997">
        <ele>12.246</ele>
        <time>1970-01-01T04:21:15Z</time>
      </trkpt>
      <trkpt lat="40.237345" lon="0.265953">
        <ele>12.252</ele>
        <time>1970-01-01T04:21:16Z</time>
      </trkpt>
      <trkpt lat="40.237288" lon="0.265910">
        <ele>12.296</ele>
        <time>1970-01-01T04:21:17Z</time>
      </trkpt>
      <trkpt lat="40.237230" lon="0.265865">
        <ele>12.137</ele>
        <time>1970-01-01T04:21:18Z</time>
      </trkpt>
      <trkpt lat="40.237173" lon="0.265820">
        <ele>12.442</ele>
        <time>1970-01-01T04:21:19Z</time>
      </trkpt>
      <trkpt lat="40.237117" lon="0.265776">
        <ele>12.822</ele>
        <time>1970-01-01T04:21:20Z</time>
      </trkpt>
      <trkpt lat="40.237059" lon="0.265732">
        <ele>13.414</ele>
        <time>1970-01-01T04:21:21Z</time>
      </trkpt>
      <trkpt lat="40.237001" lon="0.265690">
        <ele>14.008</ele>
        <time>1970-01-01T04:21:22Z</time>
      </trkpt>
      <trkpt lat="40.236947" lon="0.265647">
        <ele>14.661</ele>
        <time>1970-01-01T04:21:23Z</time>
      </trkpt>
      <trkpt lat="40.236893" lon="0.265602">
        <ele>14.618</ele>
        <time>1970-01-01T04:21:24Z</time>
      </trkpt>
      <trkpt lat="40.236837" lon="0.265561">
        <ele>14.679</ele>
        <time>1970-01-01T04:21:25Z</time>
      </trkpt>
      <trkpt lat="40.236784" lon="0.265522">
        <ele>14.472</ele>
        <time>1970-01-01T04:21:26Z</time>
      </trkpt>
      <trkpt lat="40.236732" lon="0.265481">
        <ele>14.432</ele>
        <time>1970-01-01T04:21:27Z</time>
      </trkpt>
      <trkpt lat="40.236679" lon="0.265437">
        <ele>14.438</ele>
        <time>1970-01-01T04:21:28Z</time>
      </trkpt>
      <trkpt lat="40.236626" lon="0.265393">
        <ele>14.472</ele>
        <time>1970-01-01T04:21:29Z</time>
      </trkpt>
      <trkpt lat="40.236573" lon="0.265349">
        <ele>14.423</ele>
        <time>1970-01-01T04:21:30Z</time>
      </trkpt>
      <trkpt lat="40.236519" lon="0.265309">
        <ele>14.453</ele>
        <time>1970-01-01T04:21:31Z</time>
      </trkpt>
      <trkpt lat="40.236464" lon="0.265268">
        <ele>14.304</ele>
        <time>1970-01-01T04:21:32Z</time>
      </trkpt>
      <trkpt lat="40.236412" lon="0.265228">
        <ele>14.114</ele>
        <time>1970-01-01T04:21:33Z</time>
      </trkpt>
      <trkpt lat="40.236361" lon="0.265190">
        <ele>13.908</ele>
        <time>1970-01-01T04:21:34Z</time>
      </trkpt>
      <trkpt lat="40.236313" lon="0.265154">
        <ele>13.752</ele>
        <time>1970-01-01T04:21:35Z</time>
      </trkpt>
      <trkpt lat="40.236263" lon="0.265116">
        <ele>13.599</ele>
        <time>1970-01-01T04:21:36Z</time>
      </trkpt>
      <trkpt lat="40.236211" lon="0.265080">
        <ele>13.480</ele>
        <time>1970-01-01T04:21:37Z</time>
      </trkpt>
      <trkpt lat="40.236161" lon="0.265043">
        <ele>13.253</ele>
        <time>1970-01-01T04:21:38Z</time>
      </trkpt>
      <trkpt lat="40.236114" lon="0.265005">
        <ele>13.083</ele>
        <time>1970-01-01T04:21:39Z</time>
      </trkpt>
      <trkpt lat="40.236067" lon="0.264970">
        <ele>12.959</ele>
        <time>1970-01-01T04:21:40Z</time>
      </trkpt>
      <trkpt lat="40.236019" lon="0.264933">
        <ele>12.713</ele>
        <time>1970-01-01T04:21:41Z</time>
      </trkpt>
      <trkpt lat="40.235970" lon="0.264895">
        <ele>12.764</ele>
        <time>1970-01-01T04:21:42Z</time>
      </trkpt>
      <trkpt lat="40.235919" lon="0.264855">
        <ele>12.754</ele>
        <time>1970-01-01T04:21:43Z</time>
      </trkpt>
      <trkpt lat="40.235869" lon="0.264816">
        <ele>12.756</ele>
        <time>1970-01-01T04:21:44Z</time>
      </trkpt>
      <trkpt lat="40.235820" lon="0.264775">
        <ele>12.911</ele>
        <time>1970-01-01T04:21:45Z</time>
      </trkpt>
      <trkpt lat="40.235777" lon="0.264734">
        <ele>13.408</ele>
        <time>1970-01-01T04:21:46Z</time>
      </trkpt>
      <trkpt lat="40.235735" lon="0.264692">
        <ele>13.982</ele>
        <time>1970-01-01T04:21:47Z</time>
      </trkpt>
      <trkpt lat="40.235690" lon="0.264649">
        <ele>14.429</ele>
        <time>1970-01-01T04:21:48Z</time>
      </trkpt>
      <trkpt lat="40.235645" lon="0.264605">
        <ele>14.970</ele>
        <time>1970-01-01T04:21:49Z</time>
      </trkpt>
      <trkpt lat="40.235601" lon="0.264563">
        <ele>15.373</ele>
        <time>1970-01-01T04:21:50Z</time>
      </trkpt>
      <trkpt lat="40.235559" lon="0.264522">
        <ele>15.753</ele>
        <time>1970-01-01T04:21:51Z</time>
      </trkpt>
      <trkpt lat="40.235518" lon="0.264482">
        <ele>16.299</ele>
        <time>1970-01-01T04:21:52Z</time>
      </trkpt>
      <trkpt lat="40.235476" lon="0.264443">
        <ele>16.633</ele>
        <time>1970-01-01T04:21:53Z</time>
      </trkpt>
      <trkpt lat="40.235435" lon="0.264407">
        <ele>16.934</ele>
        <time>1970-01-01T04:21:54Z</time>
      </trkpt>
      <trkpt lat="40.235393" lon="0.264370">
        <ele>17.167</ele>
        <time>1970-01-01T04:21:55Z</time>
      </trkpt>
      <trkpt lat="40.235355" lon="0.264333">
        <ele>17.381</ele>
        <time>1970-01-01T04:21:56Z</time>
      </trkpt>
      <trkpt lat="40.235317" lon="0.264299">
        <ele>17.319</ele>
        <time>1970-01-01T04:21:57Z</time>
      </trkpt>
      <trkpt lat="40.235278" lon="0.264270">
        <ele>17.408</ele>
        <time>1970-01-01T04:21:58Z</time>
      </trkpt>
      <trkpt lat="40.235234" lon="0.264249">
        <ele>17.363</ele>
        <time>1970-01-01T04:21:59Z</time>
      </trkpt>
      <trkpt lat="40.235187" lon="0.264230">
        <ele>17.240</ele>
        <time>1970-01-01T04:22:00Z</time>
      </trkpt>
      <trkpt lat="40.235142" lon="0.264215">
        <ele>17.241</ele>
        <time>1970-01-01T04:22:01Z</time>
      </trkpt>
      <trkpt lat="40.235096" lon="0.264199">
        <ele>17.144</ele>
        <time>1970-01-01T04:22:02Z</time>
      </trkpt>
      <trkpt lat="40.235048" lon="0.264182">
        <ele>17.144</ele>
        <time>1970-01-01T04:22:03Z</time>
      </trkpt>
      <trkpt lat="40.235000" lon="0.264162">
        <ele>17.010</ele>
        <time>1970-01-01T04:22:04Z</time>
      </trkpt>
      <trkpt lat="40.234951" lon="0.264149">
        <ele>16.714</ele>
        <time>1970-01-01T04:22:05Z</time>
      </trkpt>
      <trkpt lat="40.234901" lon="0.264141">
        <ele>16.515</ele>
        <time>1970-01-01T04:22:06Z</time>
      </trkpt>
      <trkpt lat="40.234849" lon="0.264137">
        <ele>16.364</ele>
        <time>1970-01-01T04:22:07Z</time>
      </trkpt>
      <trkpt lat="40.234793" lon="0.264132">
        <ele>16.106</ele>
        <time>1970-01-01T04:22:08Z</time>
      </trkpt>
      <trkpt lat="40.234736" lon="0.264125">
        <ele>15.916</ele>
        <time>1970-01-01T04:22:09Z</time>
      </trkpt>
      <trkpt lat="40.234679" lon="0.264114">
        <ele>16.008</ele>
        <time>1970-01-01T04:22:10Z</time>
      </trkpt>
      <trkpt lat="40.234624" lon="0.264101">
        <ele>16.163</ele>
        <time>1970-01-01T04:22:11Z</time>
      </trkpt>
      <trkpt lat="40.234569" lon="0.264089">
        <ele>16.320</ele>
        <time>1970-01-01T04:22:12Z</time>
      </trkpt>
      <trkpt lat="40.234512" lon="0.264085">
        <ele>16.541</ele>
        <time>1970-01-01T04:22:13Z</time>
      </trkpt>
      <trkpt lat="40.234455" lon="0.264081">
        <ele>16.764</ele>
        <time>1970-01-01T04:22:14Z</time>
      </trkpt>
      <trkpt lat="40.234397" lon="0.264078">
        <ele>16.714</ele>
        <time>1970-01-01T04:22:15Z</time>
      </trkpt>
      <trkpt lat="40.234340" lon="0.264075">
        <ele>16.710</ele>
        <time>1970-01-01T04:22:16Z</time>
      </trkpt>
      <trkpt lat="40.234280" lon="0.264073">
        <ele>16.744</ele>
        <time>1970-01-01T04:22:17Z</time>
      </trkpt>
      <trkpt lat="40.234221" lon="0.264069">
        <ele>16.665</ele>
        <time>1970-01-01T04:22:18Z</time>
      </trkpt>
      <trkpt lat="40.234163" lon="0.264064">
        <ele>16.673</ele>
        <time>1970-01-01T04:22:19Z</time>
      </trkpt>
      <trkpt lat="40.234104" lon="0.264060">
        <ele>16.385</ele>
        <time>1970-01-01T04:22:20Z</time>
      </trkpt>
      <trkpt lat="40.234045" lon="0.264051">
        <ele>16.113</ele>
        <time>1970-01-01T04:22:21Z</time>
      </trkpt>
      <trkpt lat="40.233985" lon="0.264044">
        <ele>15.808</ele>
        <time>1970-01-01T04:22:22Z</time>
      </trkpt>
      <trkpt lat="40.233928" lon="0.264040">
        <ele>15.664</ele>
        <time>1970-01-01T04:22:23Z</time>
      </trkpt>
      <trkpt lat="40.233872" lon="0.264038">
        <ele>15.411</ele>
        <time>1970-01-01T04:22:24Z</time>
      </trkpt>
      <trkpt lat="40.233814" lon="0.264038">
        <ele>15.372</ele>
        <time>1970-01-01T04:22:25Z</time>
      </trkpt>
      <trkpt lat="40.233753" lon="0.264037">
        <ele>15.235</ele>
        <time>1970-01-01T04:22:26Z</time>
      </trkpt>
      <trkpt lat="40.233695" lon="0.264034">
        <ele>15.125</ele>
        <time>1970-01-01T04:22:27Z</time>
      </trkpt>
      <trkpt lat="40.233638" lon="0.264029">
        <ele>15.031</ele>
        <time>1970-01-01T04:22:28Z</time>
      </trkpt>
      <trkpt lat="40.233578" lon="0.264027">
        <ele>15.155</ele>
        <time>1970-01-01T04:22:29Z</time>
      </trkpt>
      <trkpt lat="40.233517" lon="0.264025">
        <ele>15.246</ele>
        <time>1970-01-01T04:22:30Z</time>
      </trkpt>
      <trkpt lat="40.233453" lon="0.264024">
        <ele>15.335</ele>
        <time>1970-01-01T04:22:31Z</time>
      </trkpt>
      <trkpt lat="40.233389" lon="0.264023">
        <ele>15.486</ele>
        <time>1970-01-01T04:22:32Z</time>
      </trkpt>
      <trkpt lat="40.233326" lon="0.264022">
        <ele>15.514</ele>
        <time>1970-01-01T04:22:33Z</time>
      </trkpt>
      <trkpt lat="40.233262" lon="0.264020">
        <ele>15.208</ele>
        <time>1970-01-01T04:22:34Z</time>
      </trkpt>
      <trkpt lat="40.233200" lon="0.264016">
        <ele>15.030</ele>
        <time>1970-01-01T04:22:35Z</time>
      </trkpt>
      <trkpt lat="40.233138" lon="0.264013">
        <ele>14.747</ele>
        <time>1970-01-01T04:22:36Z</time>
      </trkpt>
      <trkpt lat="40.233073" lon="0.264009">
        <ele>14.588</ele>
        <time>1970-01-01T04:22:37Z</time>
      </trkpt>
      <trkpt lat="40.233009" lon="0.264001">
        <ele>14.521</ele>
        <time>1970-01-01T04:22:38Z</time>
      </trkpt>
      <trkpt lat="40.232947" lon="0.263984">
        <ele>14.641</ele>
        <time>1970-01-01T04:22:39Z</time>
      </trkpt>
      <trkpt lat="40.232887" lon="0.263960">
        <ele>14.767</ele>
        <time>1970-01-01T04:22:40Z</time>
      </trkpt>
      <trkpt lat="40.232829" lon="0.263925">
        <ele>14.891</ele>
        <time>1970-01-01T04:22:41Z</time>
      </trkpt>
      <trkpt lat="40.232774" lon="0.263885">
        <ele>15.022</ele>
        <time>1970-01-01T04:22:42Z</time>
      </trkpt>
      <trkpt lat="40.232722" lon="0.263840">
        <ele>15.076</ele>
        <time>1970-01-01T04:22:43Z</time>
      </trkpt>
      <trkpt lat="40.232670" lon="0.263792">
        <ele>15.190</ele>
        <time>1970-01-01T04:22:44Z</time>
      </trkpt>
      <trkpt lat="40.232621" lon="0.263745">
        <ele>15.319</ele>
        <time>1970-01-01T04:22:45Z</time>
      </trkpt>
      <trkpt lat="40.232571" lon="0.263696">
        <ele>15.508</ele>
        <time>1970-01-01T04:22:46Z</time>
      </trkpt>
      <trkpt lat="40.232520" lon="0.263648">
        <ele>15.824</ele>
        <time>1970-01-01T04:22:47Z</time>
      </trkpt>
      <trkpt lat="40.232467" lon="0.263600">
        <ele>15.741</ele>
        <time>1970-01-01T04:22:48Z</time>
      </trkpt>
      <trkpt lat="40.232413" lon="0.263551">
        <ele>15.272</ele>
        <time>1970-01-01T04:22:49Z</time>
      </trkpt>
      <trkpt lat="40.232360" lon="0.263502">
        <ele>14.645</ele>
        <time>1970-01-01T04:22:50Z</time>
      </trkpt>
      <trkpt lat="40.232306" lon="0.263455">
        <ele>14.035</ele>
        <time>1970-01-01T04:22:51Z</time>
      </trkpt>
      <trkpt lat="40.232252" lon="0.263408">
        <ele>13.521</ele>
        <time>1970-01-01T04:22:52Z</time>
      </trkpt>
      <trkpt lat="40.232201" lon="0.263358">
        <ele>13.175</ele>
        <time>1970-01-01T04:22:53Z</time>
      </trkpt>
      <trkpt lat="40.232149" lon="0.263308">
        <ele>12.916</ele>
        <time>1970-01-01T04:22:54Z</time>
      </trkpt>
      <trkpt lat="40.232097" lon="0.263256">
        <ele>12.817</ele>
        <time>1970-01-01T04:22:55Z</time>
      </trkpt>
      <trkpt lat="40.232049" lon="0.263204">
        <ele>12.887</ele>
        <time>1970-01-01T04:22:56Z</time>
      </trkpt>
      <trkpt lat="40.231998" lon="0.263150">
        <ele>12.915</ele>
        <time>1970-01-01T04:22:57Z</time>
      </trkpt>
      <trkpt lat="40.231947" lon="0.263101">
        <ele>13.008</ele>
        <time>1970-01-01T04:22:58Z</time>
      </trkpt>
      <trkpt lat="40.231899" lon="0.263049">
        <ele>13.148</ele>
        <time>1970-01-01T04:22:59Z</time>
      </trkpt>
      <trkpt lat="40.231851" lon="0.262996">
        <ele>13.115</ele>
        <time>1970-01-01T04:23:00Z</time>
      </trkpt>
      <trkpt lat="40.231803" lon="0.262943">
        <ele>13.196</ele>
        <time>1970-01-01T04:23:01Z</time>
      </trkpt>
      <trkpt lat="40.231753" lon="0.262891">
        <ele>13.169</ele>
        <time>1970-01-01T04:23:02Z</time>
      </trkpt>
      <trkpt lat="40.231703" lon="0.262842">
        <ele>13.159</ele>
        <time>1970-01-01T04:23:03Z</time>
      </trkpt>
      <trkpt lat="40.231651" lon="0.262793">
        <ele>13.215</ele>
        <time>1970-01-01T04:23:04Z</time>
      </trkpt>
      <trkpt lat="40.231602" lon="0.262744">
        <ele>13.489</ele>
        <time>1970-01-01T04:23:05Z</time>
      </trkpt>
      <trkpt lat="40.231549" lon="0.262693">
        <ele>13.710</ele>
        <time>1970-01-01T04:23:06Z</time>
      </trkpt>
      <trkpt lat="40.231498" lon="0.262643">
        <ele>13.932</ele>
        <time>1970-01-01T04:23:07Z</time>
      </trkpt>
      <trkpt lat="40.231448" lon="0.262594">
        <ele>14.192</ele>
        <time>1970-01-01T04:23:08Z</time>
      </trkpt>
      <trkpt lat="40.231395" lon="0.262542">
        <ele>14.111</ele>
        <time>1970-01-01T04:23:09Z</time>
      </trkpt>
      <trkpt lat="40.231341" lon="0.262489">
        <ele>14.208</ele>
        <time>1970-01-01T04:23:10Z</time>
      </trkpt>
      <trkpt lat="40.231289" lon="0.262439">
        <ele>14.470</ele>
        <time>1970-01-01T04:23:11Z</time>
      </trkpt>
      <trkpt lat="40.231238" lon="0.262388">
        <ele>14.567</ele>
        <time>1970-01-01T04:23:12Z</time>
      </trkpt>
      <trkpt lat="40.231189" lon="0.262336">
        <ele>14.768</ele>
        <time>1970-01-01T04:23:13Z</time>
      </trkpt>
      <trkpt lat="40.231140" lon="0.262286">
        <ele>14.921</ele>
        <time>1970-01-01T04:23:14Z</time>
      </trkpt>
      <trkpt lat="40.231092" lon="0.262235">
        <ele>15.011</ele>
        <time>1970-01-01T04:23:15Z</time>
      </trkpt>
      <trkpt lat="40.231044" lon="0.262184">
        <ele>14.877</ele>
        <time>1970-01-01T04:23:16Z</time>
      </trkpt>
      <trkpt lat="40.230995" lon="0.262135">
        <ele>14.661</ele>
        <time>1970-01-01T04:23:17Z</time>
      </trkpt>
      <trkpt lat="40.230949" lon="0.262087">
        <ele>14.652</ele>
        <time>1970-01-01T04:23:18Z</time>
      </trkpt>
      <trkpt lat="40.230905" lon="0.262040">
        <ele>14.743</ele>
        <time>1970-01-01T04:23:19Z</time>
      </trkpt>
      <trkpt lat="40.230858" lon="0.261994">
        <ele>14.964</ele>
        <time>1970-01-01T04:23:20Z</time>
      </trkpt>
      <trkpt lat="40.230812" lon="0.261950">
        <ele>15.010</ele>
        <time>1970-01-01T04:23:21Z</time>
      </trkpt>
      <trkpt lat="40.230767" lon="0.261908">
        <ele>14.808</ele>
        <time>1970-01-01T04:23:22Z</time>
      </trkpt>
      <trkpt lat="40.230720" lon="0.261866">
        <ele>14.741</ele>
        <time>1970-01-01T04:23:23Z</time>
      </trkpt>
      <trkpt lat="40.230669" lon="0.261826">
        <ele>14.728</ele>
        <time>1970-01-01T04:23:24Z</time>
      </trkpt>
      <trkpt lat="40.230618" lon="0.261785">
        <ele>14.769</ele>
        <time>1970-01-01T04:23:25Z</time>
      </trkpt>
      <trkpt lat="40.230568" lon="0.261743">
        <ele>14.942</ele>
        <time>1970-01-01T04:23:26Z</time>
      </trkpt>
      <trkpt lat="40.230517" lon="0.261701">
        <ele>15.042</ele>
        <time>1970-01-01T04:23:27Z</time>
      </trkpt>
      <trkpt lat="40.230466" lon="0.261658">
        <ele>15.048</ele>
        <time>1970-01-01T04:23:28Z</time>
      </trkpt>
      <trkpt lat="40.230415" lon="0.261619">
        <ele>15.012</ele>
        <time>1970-01-01T04:23:29Z</time>
      </trkpt>
      <trkpt lat="40.230362" lon="0.261583">
        <ele>15.033</ele>
        <time>1970-01-01T04:23:30Z</time>
      </trkpt>
      <trkpt lat="40.230306" lon="0.261549">
        <ele>15.048</ele>
        <time>1970-01-01T04:23:31Z</time>
      </trkpt>
      <trkpt lat="40.230247" lon="0.261517">
        <ele>14.961</ele>
        <time>1970-01-01T04:23:32Z</time>
      </trkpt>
      <trkpt lat="40.230188" lon="0.261489">
        <ele>14.717</ele>
        <time>1970-01-01T04:23:33Z</time>
      </trkpt>
      <trkpt lat="40.230127" lon="0.261464">
        <ele>14.508</ele>
        <time>1970-01-01T04:23:34Z</time>
      </trkpt>
      <trkpt lat="40.230064" lon="0.261445">
        <ele>14.211</ele>
        <time>1970-01-01T04:23:35Z</time>
      </trkpt>
      <trkpt lat="40.229998" lon="0.261431">
        <ele>14.098</ele>
        <time>1970-01-01T04:23:36Z</time>
      </trkpt>
      <trkpt lat="40.229934" lon="0.261422">
        <ele>14.029</ele>
        <time>1970-01-01T04:23:37Z</time>
      </trkpt>
      <trkpt lat="40.229869" lon="0.261412">
        <ele>14.012</ele>
        <time>1970-01-01T04:23:38Z</time>
      </trkpt>
      <trkpt lat="40.229805" lon="0.261402">
        <ele>14.052</ele>
        <time>1970-01-01T04:23:39Z</time>
      </trkpt>
      <trkpt lat="40.229741" lon="0.261390">
        <ele>14.058</ele>
        <time>1970-01-01T04:23:40Z</time>
      </trkpt>
      <trkpt lat="40.229678" lon="0.261377">
        <ele>14.042</ele>
        <time>1970-01-01T04:23:41Z</time>
      </trkpt>
      <trkpt lat="40.229614" lon="0.261368">
        <ele>14.013</ele>
        <time>1970-01-01T04:23:42Z</time>
      </trkpt>
      <trkpt lat="40.229552" lon="0.261362">
        <ele>14.189</ele>
        <time>1970-01-01T04:23:43Z</time>
      </trkpt>
      <trkpt lat="40.229492" lon="0.261364">
        <ele>14.106</ele>
        <time>1970-01-01T04:23:44Z</time>
      </trkpt>
      <trkpt lat="40.229438" lon="0.261381">
        <ele>14.026</ele>
        <time>1970-01-01T04:23:45Z</time>
      </trkpt>
      <trkpt lat="40.229390" lon="0.261419">
        <ele>14.008</ele>
        <time>1970-01-01T04:23:46Z</time>
      </trkpt>
      <trkpt lat="40.229349" lon="0.261471">
        <ele>14.175</ele>
        <time>1970-01-01T04:23:47Z</time>
      </trkpt>
      <trkpt lat="40.229312" lon="0.261525">
        <ele>14.262</ele>
        <time>1970-01-01T04:23:48Z</time>
      </trkpt>
      <trkpt lat="40.229277" lon="0.261580">
        <ele>14.443</ele>
        <time>1970-01-01T04:23:49Z</time>
      </trkpt>
      <trkpt lat="40.229241" lon="0.261634">
        <ele>14.616</ele>
        <time>1970-01-01T04:23:50Z</time>
      </trkpt>
      <trkpt lat="40.229206" lon="0.261687">
        <ele>14.996</ele>
        <time>1970-01-01T04:23:51Z</time>
      </trkpt>
      <trkpt lat="40.229172" lon="0.261737">
        <ele>15.032</ele>
        <time>1970-01-01T04:23:52Z</time>
      </trkpt>
      <trkpt lat="40.229140" lon="0.261784">
        <ele>15.136</ele>
        <time>1970-01-01T04:23:53Z</time>
      </trkpt>
      <trkpt lat="40.229109" lon="0.261828">
        <ele>15.297</ele>
        <time>1970-01-01T04:23:54Z</time>
      </trkpt>
      <trkpt lat="40.229080" lon="0.261869">
        <ele>15.567</ele>
        <time>1970-01-01T04:23:55Z</time>
      </trkpt>
      <trkpt lat="40.229054" lon="0.261910">
        <ele>15.781</ele>
        <time>1970-01-01T04:23:56Z</time>
      </trkpt>
      <trkpt lat="40.229030" lon="0.261946">
        <ele>16.019</ele>
        <time>1970-01-01T04:23:57Z</time>
      </trkpt>
      <trkpt lat="40.229008" lon="0.261978">
        <ele>16.208</ele>
        <time>1970-01-01T04:23:58Z</time>
      </trkpt>
      <trkpt lat="40.228995" lon="0.262012">
        <ele>16.333</ele>
        <time>1970-01-01T04:23:59Z</time>
      </trkpt>
      <trkpt lat="40.228991" lon="0.262049">
        <ele>16.480</ele>
        <time>1970-01-01T04:24:00Z</time>
      </trkpt>
      <trkpt lat="40.229000" lon="0.262081">
        <ele>16.441</ele>
        <time>1970-01-01T04:24:01Z</time>
      </trkpt>
      <trkpt lat="40.229015" lon="0.262086">
        <ele>16.384</ele>
        <time>1970-01-01T04:24:02Z</time>
      </trkpt>
      <trkpt lat="40.229025" lon="0.262066">
        <ele>16.264</ele>
        <time>1970-01-01T04:24:03Z</time>
      </trkpt>
      <trkpt lat="40.229035" lon="0.262029">
        <ele>16.130</ele>
        <time>1970-01-01T04:24:04Z</time>
      </trkpt>
      <trkpt lat="40.229053" lon="0.261985">
        <ele>15.954</ele>
        <time>1970-01-01T04:24:05Z</time>
      </trkpt>
      <trkpt lat="40.229076" lon="0.261939">
        <ele>15.695</ele>
        <time>1970-01-01T04:24:06Z</time>
      </trkpt>
      <trkpt lat="40.229109" lon="0.261891">
        <ele>15.331</ele>
        <time>1970-01-01T04:24:07Z</time>
      </trkpt>
      <trkpt lat="40.229142" lon="0.261845">
        <ele>15.161</ele>
        <time>1970-01-01T04:24:08Z</time>
      </trkpt>
      <trkpt lat="40.229176" lon="0.261797">
        <ele>15.007</ele>
        <time>1970-01-01T04:24:09Z</time>
      </trkpt>
      <trkpt lat="40.229207" lon="0.261749">
        <ele>14.908</ele>
        <time>1970-01-01T04:24:10Z</time>
      </trkpt>
      <trkpt lat="40.229239" lon="0.261702">
        <ele>14.750</ele>
        <time>1970-01-01T04:24:11Z</time>
      </trkpt>
      <trkpt lat="40.229257" lon="0.261644">
        <ele>14.627</ele>
        <time>1970-01-01T04:24:12Z</time>
      </trkpt>
      <trkpt lat="40.229256" lon="0.261583">
        <ele>14.528</ele>
        <time>1970-01-01T04:24:13Z</time>
      </trkpt>
      <trkpt lat="40.229239" lon="0.261522">
        <ele>14.471</ele>
        <time>1970-01-01T04:24:14Z</time>
      </trkpt>
      <trkpt lat="40.229214" lon="0.261463">
        <ele>14.291</ele>
        <time>1970-01-01T04:24:15Z</time>
      </trkpt>
      <trkpt lat="40.229184" lon="0.261405">
        <ele>14.117</ele>
        <time>1970-01-01T04:24:16Z</time>
      </trkpt>
      <trkpt lat="40.229151" lon="0.261346">
        <ele>14.081</ele>
        <time>1970-01-01T04:24:17Z</time>
      </trkpt>
      <trkpt lat="40.229114" lon="0.261290">
        <ele>13.972</ele>
        <time>1970-01-01T04:24:18Z</time>
      </trkpt>
      <trkpt lat="40.229067" lon="0.261247">
        <ele>13.836</ele>
        <time>1970-01-01T04:24:19Z</time>
      </trkpt>
      <trkpt lat="40.229013" lon="0.261221">
        <ele>13.717</ele>
        <time>1970-01-01T04:24:20Z</time>
      </trkpt>
      <trkpt lat="40.228952" lon="0.261213">
        <ele>13.518</ele>
        <time>1970-01-01T04:24:21Z</time>
      </trkpt>
      <trkpt lat="40.228890" lon="0.261222">
        <ele>13.408</ele>
        <time>1970-01-01T04:24:22Z</time>
      </trkpt>
      <trkpt lat="40.228828" lon="0.261244">
        <ele>13.350</ele>
        <time>1970-01-01T04:24:23Z</time>
      </trkpt>
      <trkpt lat="40.228764" lon="0.261272">
        <ele>13.147</ele>
        <time>1970-01-01T04:24:24Z</time>
      </trkpt>
      <trkpt lat="40.228697" lon="0.261300">
        <ele>13.088</ele>
        <time>1970-01-01T04:24:25Z</time>
      </trkpt>
      <trkpt lat="40.228628" lon="0.261325">
        <ele>12.861</ele>
        <time>1970-01-01T04:24:26Z</time>
      </trkpt>
      <trkpt lat="40.228560" lon="0.261351">
        <ele>12.931</ele>
        <time>1970-01-01T04:24:27Z</time>
      </trkpt>
      <trkpt lat="40.228490" lon="0.261380">
        <ele>13.077</ele>
        <time>1970-01-01T04:24:28Z</time>
      </trkpt>
      <trkpt lat="40.228422" lon="0.261412">
        <ele>13.191</ele>
        <time>1970-01-01T04:24:29Z</time>
      </trkpt>
      <trkpt lat="40.228355" lon="0.261447">
        <ele>13.272</ele>
        <time>1970-01-01T04:24:30Z</time>
      </trkpt>
      <trkpt lat="40.228287" lon="0.261485">
        <ele>13.084</ele>
        <time>1970-01-01T04:24:31Z</time>
      </trkpt>
      <trkpt lat="40.228220" lon="0.261522">
        <ele>12.707</ele>
        <time>1970-01-01T04:24:32Z</time>
      </trkpt>
      <trkpt lat="40.228151" lon="0.261550">
        <ele>12.317</ele>
        <time>1970-01-01T04:24:33Z</time>
      </trkpt>
      <trkpt lat="40.228083" lon="0.261567">
        <ele>11.808</ele>
        <time>1970-01-01T04:24:34Z</time>
      </trkpt>
      <trkpt lat="40.228015" lon="0.261569">
        <ele>11.365</ele>
        <time>1970-01-01T04:24:35Z</time>
      </trkpt>
      <trkpt lat="40.227952" lon="0.261547">
        <ele>10.672</ele>
        <time>1970-01-01T04:24:36Z</time>
      </trkpt>
      <trkpt lat="40.227894" lon="0.261503">
        <ele>10.053</ele>
        <time>1970-01-01T04:24:37Z</time>
      </trkpt>
      <trkpt lat="40.227840" lon="0.261445">
        <ele>9.566</ele>
        <time>1970-01-01T04:24:38Z</time>
      </trkpt>
      <trkpt lat="40.227789" lon="0.261378">
        <ele>9.156</ele>
        <time>1970-01-01T04:24:39Z</time>
      </trkpt>
      <trkpt lat="40.227738" lon="0.261308">
        <ele>9.342</ele>
        <time>1970-01-01T04:24:40Z</time>
      </trkpt>
      <trkpt lat="40.227675" lon="0.261239">
        <ele>9.516</ele>
        <time>1970-01-01T04:24:41Z</time>
      </trkpt>
      <trkpt lat="40.227613" lon="0.261172">
        <ele>9.817</ele>
        <time>1970-01-01T04:24:42Z</time>
      </trkpt>
      <trkpt lat="40.227548" lon="0.261106">
        <ele>10.071</ele>
        <time>1970-01-01T04:24:43Z</time>
      </trkpt>
      <trkpt lat="40.227480" lon="0.261042">
        <ele>10.341</ele>
        <time>1970-01-01T04:24:44Z</time>
      </trkpt>
      <trkpt lat="40.227415" lon="0.260983">
        <ele>10.815</ele>
        <time>1970-01-01T04:24:45Z</time>
      </trkpt>
      <trkpt lat="40.227351" lon="0.260931">
        <ele>11.208</ele>
        <time>1970-01-01T04:24:46Z</time>
      </trkpt>
      <trkpt lat="40.227292" lon="0.260884">
        <ele>11.634</ele>
        <time>1970-01-01T04:24:47Z</time>
      </trkpt>
      <trkpt lat="40.227239" lon="0.260840">
        <ele>11.951</ele>
        <time>1970-01-01T04:24:48Z</time>
      </trkpt>
      <trkpt lat="40.227187" lon="0.260796">
        <ele>12.072</ele>
        <time>1970-01-01T04:24:49Z</time>
      </trkpt>
      <trkpt lat="40.227135" lon="0.260751">
        <ele>12.085</ele>
        <time>1970-01-01T04:24:50Z</time>
      </trkpt>
      <trkpt lat="40.227084" lon="0.260705">
        <ele>12.085</ele>
        <time>1970-01-01T04:24:51Z</time>
      </trkpt>
      <trkpt lat="40.227033" lon="0.260664">
        <ele>11.991</ele>
        <time>1970-01-01T04:24:52Z</time>
      </trkpt>
      <trkpt lat="40.226980" lon="0.260629">
        <ele>11.995</ele>
        <time>1970-01-01T04:24:53Z</time>
      </trkpt>
      <trkpt lat="40.226923" lon="0.260605">
        <ele>11.766</ele>
        <time>1970-01-01T04:24:54Z</time>
      </trkpt>
      <trkpt lat="40.226863" lon="0.260590">
        <ele>11.554</ele>
        <time>1970-01-01T04:24:55Z</time>
      </trkpt>
      <trkpt lat="40.226801" lon="0.260581">
        <ele>11.356</ele>
        <time>1970-01-01T04:24:56Z</time>
      </trkpt>
      <trkpt lat="40.226741" lon="0.260582">
        <ele>11.111</ele>
        <time>1970-01-01T04:24:57Z</time>
      </trkpt>
      <trkpt lat="40.226681" lon="0.260588">
        <ele>10.808</ele>
        <time>1970-01-01T04:24:58Z</time>
      </trkpt>
      <trkpt lat="40.226621" lon="0.260598">
        <ele>10.752</ele>
        <time>1970-01-01T04:24:59Z</time>
      </trkpt>
      <trkpt lat="40.226563" lon="0.260608">
        <ele>10.789</ele>
        <time>1970-01-01T04:25:00Z</time>
      </trkpt>
      <trkpt lat="40.226506" lon="0.260618">
        <ele>10.790</ele>
        <time>1970-01-01T04:25:01Z</time>
      </trkpt>
      <trkpt lat="40.226450" lon="0.260627">
        <ele>10.753</ele>
        <time>1970-01-01T04:25:02Z</time>
      </trkpt>
      <trkpt lat="40.226393" lon="0.260632">
        <ele>10.783</ele>
        <time>1970-01-01T04:25:03Z</time>
      </trkpt>
      <trkpt lat="40.226344" lon="0.260630">
        <ele>10.849</ele>
        <time>1970-01-01T04:25:04Z</time>
      </trkpt>
      <trkpt lat="40.226297" lon="0.260620">
        <ele>10.863</ele>
        <time>1970-01-01T04:25:05Z</time>
      </trkpt>
      <trkpt lat="40.226253" lon="0.260604">
        <ele>10.984</ele>
        <time>1970-01-01T04:25:06Z</time>
      </trkpt>
      <trkpt lat="40.226213" lon="0.260582">
        <ele>11.014</ele>
        <time>1970-01-01T04:25:07Z</time>
      </trkpt>
      <trkpt lat="40.226174" lon="0.260552">
        <ele>11.054</ele>
        <time>1970-01-01T04:25:08Z</time>
      </trkpt>
      <trkpt lat="40.226134" lon="0.260515">
        <ele>11.209</ele>
        <time>1970-01-01T04:25:09Z</time>
      </trkpt>
      <trkpt lat="40.226094" lon="0.260475">
        <ele>11.308</ele>
        <time>1970-01-01T04:25:10Z</time>
      </trkpt>
      <trkpt lat="40.226053" lon="0.260430">
        <ele>11.458</ele>
        <time>1970-01-01T04:25:11Z</time>
      </trkpt>
      <trkpt lat="40.226015" lon="0.260387">
        <ele>11.445</ele>
        <time>1970-01-01T04:25:12Z</time>
      </trkpt>
      <trkpt lat="40.225974" lon="0.260343">
        <ele>11.466</ele>
        <time>1970-01-01T04:25:13Z</time>
      </trkpt>
      <trkpt lat="40.225932" lon="0.260299">
        <ele>11.349</ele>
        <time>1970-01-01T04:25:14Z</time>
      </trkpt>
      <trkpt lat="40.225892" lon="0.260253">
        <ele>11.269</ele>
        <time>1970-01-01T04:25:15Z</time>
      </trkpt>
      <trkpt lat="40.225852" lon="0.260206">
        <ele>11.135</ele>
        <time>1970-01-01T04:25:16Z</time>
      </trkpt>
      <trkpt lat="40.225811" lon="0.260159">
        <ele>11.069</ele>
        <time>1970-01-01T04:25:17Z</time>
      </trkpt>
      <trkpt lat="40.225769" lon="0.260112">
        <ele>11.140</ele>
        <time>1970-01-01T04:25:18Z</time>
      </trkpt>
      <trkpt lat="40.225729" lon="0.260066">
        <ele>11.328</ele>
        <time>1970-01-01T04:25:19Z</time>
      </trkpt>
      <trkpt lat="40.225690" lon="0.260019">
        <ele>11.589</ele>
        <time>1970-01-01T04:25:20Z</time>
      </trkpt>
      <trkpt lat="40.225648" lon="0.259974">
        <ele>11.717</ele>
        <time>1970-01-01T04:25:21Z</time>
      </trkpt>
      <trkpt lat="40.225604" lon="0.259928">
        <ele>11.908</ele>
        <time>1970-01-01T04:25:22Z</time>
      </trkpt>
      <trkpt lat="40.225562" lon="0.259881">
        <ele>12.089</ele>
        <time>1970-01-01T04:25:23Z</time>
      </trkpt>
      <trkpt lat="40.225522" lon="0.259833">
        <ele>12.176</ele>
        <time>1970-01-01T04:25:24Z</time>
      </trkpt>
      <trkpt lat="40.225483" lon="0.259785">
        <ele>12.337</ele>
        <time>1970-01-01T04:25:25Z</time>
      </trkpt>
      <trkpt lat="40.225443" lon="0.259735">
        <ele>12.450</ele>
        <time>1970-01-01T04:25:26Z</time>
      </trkpt>
      <trkpt lat="40.225405" lon="0.259685">
        <ele>12.540</ele>
        <time>1970-01-01T04:25:27Z</time>
      </trkpt>
      <trkpt lat="40.225366" lon="0.259638">
        <ele>12.796</ele>
        <time>1970-01-01T04:25:28Z</time>
      </trkpt>
      <trkpt lat="40.225325" lon="0.259593">
        <ele>12.890</ele>
        <time>1970-01-01T04:25:29Z</time>
      </trkpt>
      <trkpt lat="40.225283" lon="0.259549">
        <ele>13.061</ele>
        <time>1970-01-01T04:25:30Z</time>
      </trkpt>
      <trkpt lat="40.225242" lon="0.259504">
        <ele>13.118</ele>
        <time>1970-01-01T04:25:31Z</time>
      </trkpt>
      <trkpt lat="40.225202" lon="0.259457">
        <ele>13.398</ele>
        <time>1970-01-01T04:25:32Z</time>
      </trkpt>
      <trkpt lat="40.225165" lon="0.259404">
        <ele>13.417</ele>
        <time>1970-01-01T04:25:33Z</time>
      </trkpt>
      <trkpt lat="40.225136" lon="0.259344">
        <ele>13.508</ele>
        <time>1970-01-01T04:25:34Z</time>
      </trkpt>
      <trkpt lat="40.225117" lon="0.259277">
        <ele>13.618</ele>
        <time>1970-01-01T04:25:35Z</time>
      </trkpt>
      <trkpt lat="40.225100" lon="0.259208">
        <ele>13.685</ele>
        <time>1970-01-01T04:25:36Z</time>
      </trkpt>
      <trkpt lat="40.225082" lon="0.259139">
        <ele>13.756</ele>
        <time>1970-01-01T04:25:37Z</time>
      </trkpt>
      <trkpt lat="40.225061" lon="0.259070">
        <ele>13.989</ele>
        <time>1970-01-01T04:25:38Z</time>
      </trkpt>
      <trkpt lat="40.225035" lon="0.259003">
        <ele>13.969</ele>
        <time>1970-01-01T04:25:39Z</time>
      </trkpt>
      <trkpt lat="40.225000" lon="0.258943">
        <ele>14.065</ele>
        <time>1970-01-01T04:25:40Z</time>
      </trkpt>
      <trkpt lat="40.224956" lon="0.258892">
        <ele>13.849</ele>
        <time>1970-01-01T04:25:41Z</time>
      </trkpt>
      <trkpt lat="40.224912" lon="0.258841">
        <ele>13.970</ele>
        <time>1970-01-01T04:25:42Z</time>
      </trkpt>
      <trkpt lat="40.224865" lon="0.258789">
        <ele>13.914</ele>
        <time>1970-01-01T04:25:43Z</time>
      </trkpt>
      <trkpt lat="40.224820" lon="0.258734">
        <ele>13.954</ele>
        <time>1970-01-01T04:25:44Z</time>
      </trkpt>
      <trkpt lat="40.224774" lon="0.258681">
        <ele>13.909</ele>
        <time>1970-01-01T04:25:45Z</time>
      </trkpt>
      <trkpt lat="40.224729" lon="0.258629">
        <ele>14.008</ele>
        <time>1970-01-01T04:25:46Z</time>
      </trkpt>
      <trkpt lat="40.224681" lon="0.258577">
        <ele>13.988</ele>
        <time>1970-01-01T04:25:47Z</time>
      </trkpt>
      <trkpt lat="40.224634" lon="0.258525">
        <ele>13.825</ele>
        <time>1970-01-01T04:25:48Z</time>
      </trkpt>
      <trkpt lat="40.224589" lon="0.258473">
        <ele>13.876</ele>
        <time>1970-01-01T04:25:49Z</time>
      </trkpt>
      <trkpt lat="40.224543" lon="0.258420">
        <ele>13.859</ele>
        <time>1970-01-01T04:25:50Z</time>
      </trkpt>
      <trkpt lat="40.224496" lon="0.258370">
        <ele>13.989</ele>
        <time>1970-01-01T04:25:51Z</time>
      </trkpt>
      <trkpt lat="40.224450" lon="0.258321">
        <ele>14.085</ele>
        <time>1970-01-01T04:25:52Z</time>
      </trkpt>
      <trkpt lat="40.224406" lon="0.258272">
        <ele>13.969</ele>
        <time>1970-01-01T04:25:53Z</time>
      </trkpt>
      <trkpt lat="40.224362" lon="0.258226">
        <ele>13.790</ele>
        <time>1970-01-01T04:25:54Z</time>
      </trkpt>
      <trkpt lat="40.224318" lon="0.258179">
        <ele>13.576</ele>
        <time>1970-01-01T04:25:55Z</time>
      </trkpt>
      <trkpt lat="40.224275" lon="0.258132">
        <ele>13.490</ele>
        <time>1970-01-01T04:25:56Z</time>
      </trkpt>
      <trkpt lat="40.224231" lon="0.258086">
        <ele>13.219</ele>
        <time>1970-01-01T04:25:57Z</time>
      </trkpt>
      <trkpt lat="40.224189" lon="0.258039">
        <ele>13.108</ele>
        <time>1970-01-01T04:25:58Z</time>
      </trkpt>
      <trkpt lat="40.224147" lon="0.257990">
        <ele>13.034</ele>
        <time>1970-01-01T04:25:59Z</time>
      </trkpt>
      <trkpt lat="40.224106" lon="0.257942">
        <ele>12.951</ele>
        <time>1970-01-01T04:26:00Z</time>
      </trkpt>
      <trkpt lat="40.224060" lon="0.257892">
        <ele>12.892</ele>
        <time>1970-01-01T04:26:01Z</time>
      </trkpt>
      <trkpt lat="40.224012" lon="0.257843">
        <ele>12.665</ele>
        <time>1970-01-01T04:26:02Z</time>
      </trkpt>
      <trkpt lat="40.223967" lon="0.257791">
        <ele>12.315</ele>
        <time>1970-01-01T04:26:03Z</time>
      </trkpt>
      <trkpt lat="40.223924" lon="0.257740">
        <ele>12.161</ele>
        <time>1970-01-01T04:26:04Z</time>
      </trkpt>
      <trkpt lat="40.223881" lon="0.257689">
        <ele>12.015</ele>
        <time>1970-01-01T04:26:05Z</time>
      </trkpt>
      <trkpt lat="40.223839" lon="0.257639">
        <ele>12.056</ele>
        <time>1970-01-01T04:26:06Z</time>
      </trkpt>
      <trkpt lat="40.223792" lon="0.257588">
        <ele>12.021</ele>
        <time>1970-01-01T04:26:07Z</time>
      </trkpt>
      <trkpt lat="40.223743" lon="0.257537">
        <ele>12.041</ele>
        <time>1970-01-01T04:26:08Z</time>
      </trkpt>
      <trkpt lat="40.223698" lon="0.257485">
        <ele>12.105</ele>
        <time>1970-01-01T04:26:09Z</time>
      </trkpt>
      <trkpt lat="40.223653" lon="0.257430">
        <ele>12.308</ele>
        <time>1970-01-01T04:26:10Z</time>
      </trkpt>
      <trkpt lat="40.223610" lon="0.257374">
        <ele>12.589</ele>
        <time>1970-01-01T04:26:11Z</time>
      </trkpt>
      <trkpt lat="40.223569" lon="0.257318">
        <ele>12.756</ele>
        <time>1970-01-01T04:26:12Z</time>
      </trkpt>
      <trkpt lat="40.223531" lon="0.257258">
        <ele>12.917</ele>
        <time>1970-01-01T04:26:13Z</time>
      </trkpt>
      <trkpt lat="40.223500" lon="0.257193">
        <ele>13.140</ele>
        <time>1970-01-01T04:26:14Z</time>
      </trkpt>
      <trkpt lat="40.223474" lon="0.257126">
        <ele>13.250</ele>
        <time>1970-01-01T04:26:15Z</time>
      </trkpt>
      <trkpt lat="40.223449" lon="0.257053">
        <ele>13.336</ele>
        <time>1970-01-01T04:26:16Z</time>
      </trkpt>
      <trkpt lat="40.223422" lon="0.256982">
        <ele>13.370</ele>
        <time>1970-01-01T04:26:17Z</time>
      </trkpt>
      <trkpt lat="40.223391" lon="0.256912">
        <ele>13.361</ele>
        <time>1970-01-01T04:26:18Z</time>
      </trkpt>
      <trkpt lat="40.223356" lon="0.256847">
        <ele>13.461</ele>
        <time>1970-01-01T04:26:19Z</time>
      </trkpt>
      <trkpt lat="40.223319" lon="0.256784">
        <ele>13.521</ele>
        <time>1970-01-01T04:26:20Z</time>
      </trkpt>
      <trkpt lat="40.223280" lon="0.256722">
        <ele>13.613</ele>
        <time>1970-01-01T04:26:21Z</time>
      </trkpt>
      <trkpt lat="40.223241" lon="0.256661">
        <ele>13.708</ele>
        <time>1970-01-01T04:26:22Z</time>
      </trkpt>
      <trkpt lat="40.223204" lon="0.256598">
        <ele>13.563</ele>
        <time>1970-01-01T04:26:23Z</time>
      </trkpt>
      <trkpt lat="40.223169" lon="0.256535">
        <ele>13.450</ele>
        <time>1970-01-01T04:26:24Z</time>
      </trkpt>
      <trkpt lat="40.223133" lon="0.256472">
        <ele>13.341</ele>
        <time>1970-01-01T04:26:25Z</time>
      </trkpt>
      <trkpt lat="40.223097" lon="0.256412">
        <ele>13.134</ele>
        <time>1970-01-01T04:26:26Z</time>
      </trkpt>
      <trkpt lat="40.223060" lon="0.256351">
        <ele>13.044</ele>
        <time>1970-01-01T04:26:27Z</time>
      </trkpt>
      <trkpt lat="40.223025" lon="0.256290">
        <ele>12.960</ele>
        <time>1970-01-01T04:26:28Z</time>
      </trkpt>
      <trkpt lat="40.222987" lon="0.256231">
        <ele>12.824</ele>
        <time>1970-01-01T04:26:29Z</time>
      </trkpt>
      <trkpt lat="40.222950" lon="0.256174">
        <ele>12.645</ele>
        <time>1970-01-01T04:26:30Z</time>
      </trkpt>
      <trkpt lat="40.222908" lon="0.256117">
        <ele>12.533</ele>
        <time>1970-01-01T04:26:31Z</time>
      </trkpt>
      <trkpt lat="40.222868" lon="0.256061">
        <ele>12.423</ele>
        <time>1970-01-01T04:26:32Z</time>
      </trkpt>
      <trkpt lat="40.222828" lon="0.256003">
        <ele>12.515</ele>
        <time>1970-01-01T04:26:33Z</time>
      </trkpt>
      <trkpt lat="40.222789" lon="0.255945">
        <ele>12.608</ele>
        <time>1970-01-01T04:26:34Z</time>
      </trkpt>
      <trkpt lat="40.222752" lon="0.255887">
        <ele>12.720</ele>
        <time>1970-01-01T04:26:35Z</time>
      </trkpt>
      <trkpt lat="40.222715" lon="0.255828">
        <ele>12.817</ele>
        <time>1970-01-01T04:26:36Z</time>
      </trkpt>
      <trkpt lat="40.222677" lon="0.255771">
        <ele>12.928</ele>
        <time>1970-01-01T04:26:37Z</time>
      </trkpt>
      <trkpt lat="40.222642" lon="0.255714">
        <ele>12.981</ele>
        <time>1970-01-01T04:26:38Z</time>
      </trkpt>
      <trkpt lat="40.222608" lon="0.255658">
        <ele>13.041</ele>
        <time>1970-01-01T04:26:39Z</time>
      </trkpt>
      <trkpt lat="40.222577" lon="0.255600">
        <ele>13.127</ele>
        <time>1970-01-01T04:26:40Z</time>
      </trkpt>
      <trkpt lat="40.222550" lon="0.255541">
        <ele>13.291</ele>
        <time>1970-01-01T04:26:41Z</time>
      </trkpt>
      <trkpt lat="40.222529" lon="0.255491">
        <ele>13.382</ele>
        <time>1970-01-01T04:26:42Z</time>
      </trkpt>
      <trkpt lat="40.222513" lon="0.255456">
        <ele>13.427</ele>
        <time>1970-01-01T04:26:43Z</time>
      </trkpt>
      <trkpt lat="40.222500" lon="0.255435">
        <ele>13.468</ele>
        <time>1970-01-01T04:26:44Z</time>
      </trkpt>
      <trkpt lat="40.222477" lon="0.255424">
        <ele>13.314</ele>
        <time>1970-01-01T04:26:45Z</time>
      </trkpt>
      <trkpt lat="40.222446" lon="0.255421">
        <ele>13.108</ele>
        <time>1970-01-01T04:26:46Z</time>
      </trkpt>
      <trkpt lat="40.222411" lon="0.255427">
        <ele>12.839</ele>
        <time>1970-01-01T04:26:47Z</time>
      </trkpt>
      <trkpt lat="40.222372" lon="0.255440">
        <ele>12.586</ele>
        <time>1970-01-01T04:26:48Z</time>
      </trkpt>
      <trkpt lat="40.222329" lon="0.255458">
        <ele>12.157</ele>
        <time>1970-01-01T04:26:49Z</time>
      </trkpt>
      <trkpt lat="40.222286" lon="0.255483">
        <ele>11.730</ele>
        <time>1970-01-01T04:26:50Z</time>
      </trkpt>
      <trkpt lat="40.222241" lon="0.255512">
        <ele>11.390</ele>
        <time>1970-01-01T04:26:51Z</time>
      </trkpt>
      <trkpt lat="40.222195" lon="0.255541">
        <ele>11.056</ele>
        <time>1970-01-01T04:26:52Z</time>
      </trkpt>
      <trkpt lat="40.222146" lon="0.255570">
        <ele>10.750</ele>
        <time>1970-01-01T04:26:53Z</time>
      </trkpt>
      <trkpt lat="40.222096" lon="0.255601">
        <ele>10.431</ele>
        <time>1970-01-01T04:26:54Z</time>
      </trkpt>
      <trkpt lat="40.222045" lon="0.255631">
        <ele>10.115</ele>
        <time>1970-01-01T04:26:55Z</time>
      </trkpt>
      <trkpt lat="40.221991" lon="0.255660">
        <ele>9.865</ele>
        <time>1970-01-01T04:26:56Z</time>
      </trkpt>
      <trkpt lat="40.221938" lon="0.255690">
        <ele>9.511</ele>
        <time>1970-01-01T04:26:57Z</time>
      </trkpt>
      <trkpt lat="40.221885" lon="0.255723">
        <ele>9.508</ele>
        <time>1970-01-01T04:26:58Z</time>
      </trkpt>
      <trkpt lat="40.221832" lon="0.255758">
        <ele>9.698</ele>
        <time>1970-01-01T04:26:59Z</time>
      </trkpt>
      <trkpt lat="40.221778" lon="0.255791">
        <ele>9.735</ele>
        <time>1970-01-01T04:27:00Z</time>
      </trkpt>
      <trkpt lat="40.221723" lon="0.255822">
        <ele>9.836</ele>
        <time>1970-01-01T04:27:01Z</time>
      </trkpt>
      <trkpt lat="40.221667" lon="0.255851">
        <ele>10.059</ele>
        <time>1970-01-01T04:27:02Z</time>
      </trkpt>
      <trkpt lat="40.221610" lon="0.255877">
        <ele>10.059</ele>
        <time>1970-01-01T04:27:03Z</time>
      </trkpt>
      <trkpt lat="40.221552" lon="0.255900">
        <ele>10.125</ele>
        <time>1970-01-01T04:27:04Z</time>
      </trkpt>
      <trkpt lat="40.221494" lon="0.255921">
        <ele>10.279</ele>
        <time>1970-01-01T04:27:05Z</time>
      </trkpt>
      <trkpt lat="40.221436" lon="0.255939">
        <ele>10.340</ele>
        <time>1970-01-01T04:27:06Z</time>
      </trkpt>
      <trkpt lat="40.221378" lon="0.255958">
        <ele>10.486</ele>
        <time>1970-01-01T04:27:07Z</time>
      </trkpt>
      <trkpt lat="40.221321" lon="0.255978">
        <ele>10.460</ele>
        <time>1970-01-01T04:27:08Z</time>
      </trkpt>
      <trkpt lat="40.221263" lon="0.255997">
        <ele>10.326</ele>
        <time>1970-01-01T04:27:09Z</time>
      </trkpt>
      <trkpt lat="40.221206" lon="0.256017">
        <ele>10.208</ele>
        <time>1970-01-01T04:27:10Z</time>
      </trkpt>
      <trkpt lat="40.221147" lon="0.256035">
        <ele>10.175</ele>
        <time>1970-01-01T04:27:11Z</time>
      </trkpt>
      <trkpt lat="40.221089" lon="0.256054">
        <ele>10.042</ele>
        <time>1970-01-01T04:27:12Z</time>
      </trkpt>
      <trkpt lat="40.221031" lon="0.256072">
        <ele>10.073</ele>
        <time>1970-01-01T04:27:13Z</time>
      </trkpt>
      <trkpt lat="40.220973" lon="0.256092">
        <ele>10.086</ele>
        <time>1970-01-01T04:27:14Z</time>
      </trkpt>
      <trkpt lat="40.220917" lon="0.256118">
        <ele>10.026</ele>
        <time>1970-01-01T04:27:15Z</time>
      </trkpt>
      <trkpt lat="40.220861" lon="0.256147">
        <ele>10.082</ele>
        <time>1970-01-01T04:27:16Z</time>
      </trkpt>
      <trkpt lat="40.220805" lon="0.256176">
        <ele>10.036</ele>
        <time>1970-01-01T04:27:17Z</time>
      </trkpt>
      <trkpt lat="40.220750" lon="0.256204">
        <ele>10.077</ele>
        <time>1970-01-01T04:27:18Z</time>
      </trkpt>
      <trkpt lat="40.220695" lon="0.256230">
        <ele>10.014</ele>
        <time>1970-01-01T04:27:19Z</time>
      </trkpt>
      <trkpt lat="40.220639" lon="0.256254">
        <ele>10.054</ele>
        <time>1970-01-01T04:27:20Z</time>
      </trkpt>
      <trkpt lat="40.220581" lon="0.256273">
        <ele>10.009</ele>
        <time>1970-01-01T04:27:21Z</time>
      </trkpt>
      <trkpt lat="40.220523" lon="0.256283">
        <ele>10.008</ele>
        <time>1970-01-01T04:27:22Z</time>
      </trkpt>
      <trkpt lat="40.220463" lon="0.256276">
        <ele>9.998</ele>
        <time>1970-01-01T04:27:23Z</time>
      </trkpt>
      <trkpt lat="40.220405" lon="0.256255">
        <ele>9.745</ele>
        <time>1970-01-01T04:27:24Z</time>
      </trkpt>
      <trkpt lat="40.220345" lon="0.256228">
        <ele>9.666</ele>
        <time>1970-01-01T04:27:25Z</time>
      </trkpt>
      <trkpt lat="40.220282" lon="0.256200">
        <ele>9.329</ele>
        <time>1970-01-01T04:27:26Z</time>
      </trkpt>
      <trkpt lat="40.220215" lon="0.256169">
        <ele>9.039</ele>
        <time>1970-01-01T04:27:27Z</time>
      </trkpt>
      <trkpt lat="40.220141" lon="0.256137">
        <ele>8.695</ele>
        <time>1970-01-01T04:27:28Z</time>
      </trkpt>
      <trkpt lat="40.220067" lon="0.256100">
        <ele>8.219</ele>
        <time>1970-01-01T04:27:29Z</time>
      </trkpt>
      <trkpt lat="40.219994" lon="0.256063">
        <ele>7.820</ele>
        <time>1970-01-01T04:27:30Z</time>
      </trkpt>
      <trkpt lat="40.219919" lon="0.256024">
        <ele>7.789</ele>
        <time>1970-01-01T04:27:31Z</time>
      </trkpt>
      <trkpt lat="40.219844" lon="0.255983">
        <ele>7.506</ele>
        <time>1970-01-01T04:27:32Z</time>
      </trkpt>
      <trkpt lat="40.219770" lon="0.255939">
        <ele>7.426</ele>
        <time>1970-01-01T04:27:33Z</time>
      </trkpt>
      <trkpt lat="40.219698" lon="0.255897">
        <ele>7.208</ele>
        <time>1970-01-01T04:27:34Z</time>
      </trkpt>
      <trkpt lat="40.219628" lon="0.255858">
        <ele>7.115</ele>
        <time>1970-01-01T04:27:35Z</time>
      </trkpt>
      <trkpt lat="40.219560" lon="0.255820">
        <ele>7.012</ele>
        <time>1970-01-01T04:27:36Z</time>
      </trkpt>
      <trkpt lat="40.219495" lon="0.255783">
        <ele>7.093</ele>
        <time>1970-01-01T04:27:37Z</time>
      </trkpt>
      <trkpt lat="40.219431" lon="0.255746">
        <ele>7.056</ele>
        <time>1970-01-01T04:27:38Z</time>
      </trkpt>
      <trkpt lat="40.219373" lon="0.255716">
        <ele>7.396</ele>
        <time>1970-01-01T04:27:39Z</time>
      </trkpt>
      <trkpt lat="40.219320" lon="0.255695">
        <ele>7.492</ele>
        <time>1970-01-01T04:27:40Z</time>
      </trkpt>
      <trkpt lat="40.219274" lon="0.255697">
        <ele>7.616</ele>
        <time>1970-01-01T04:27:41Z</time>
      </trkpt>
      <trkpt lat="40.219238" lon="0.255726">
        <ele>7.757</ele>
        <time>1970-01-01T04:27:42Z</time>
      </trkpt>
      <trkpt lat="40.219211" lon="0.255774">
        <ele>7.844</ele>
        <time>1970-01-01T04:27:43Z</time>
      </trkpt>
      <trkpt lat="40.219193" lon="0.255837">
        <ele>7.905</ele>
        <time>1970-01-01T04:27:44Z</time>
      </trkpt>
      <trkpt lat="40.219175" lon="0.255905">
        <ele>8.015</ele>
        <time>1970-01-01T04:27:45Z</time>
      </trkpt>
      <trkpt lat="40.219158" lon="0.255974">
        <ele>8.008</ele>
        <time>1970-01-01T04:27:46Z</time>
      </trkpt>
      <trkpt lat="40.219137" lon="0.256042">
        <ele>8.041</ele>
        <time>1970-01-01T04:27:47Z</time>
      </trkpt>
      <trkpt lat="40.219117" lon="0.256112">
        <ele>8.068</ele>
        <time>1970-01-01T04:27:48Z</time>
      </trkpt>
      <trkpt lat="40.219093" lon="0.256182">
        <ele>8.079</ele>
        <time>1970-01-01T04:27:49Z</time>
      </trkpt>
      <trkpt lat="40.219059" lon="0.256240">
        <ele>8.052</ele>
        <time>1970-01-01T04:27:50Z</time>
      </trkpt>
      <trkpt lat="40.219010" lon="0.256284">
        <ele>8.042</ele>
        <time>1970-01-01T04:27:51Z</time>
      </trkpt>
      <trkpt lat="40.218955" lon="0.256307">
        <ele>8.098</ele>
        <time>1970-01-01T04:27:52Z</time>
      </trkpt>
      <trkpt lat="40.218906" lon="0.256310">
        <ele>8.022</ele>
        <time>1970-01-01T04:27:53Z</time>
      </trkpt>
      <trkpt lat="40.218860" lon="0.256298">
        <ele>8.023</ele>
        <time>1970-01-01T04:27:54Z</time>
      </trkpt>
      <trkpt lat="40.218814" lon="0.256280">
        <ele>8.077</ele>
        <time>1970-01-01T04:27:55Z</time>
      </trkpt>
      <trkpt lat="40.218765" lon="0.256264">
        <ele>8.061</ele>
        <time>1970-01-01T04:27:56Z</time>
      </trkpt>
      <trkpt lat="40.218717" lon="0.256259">
        <ele>8.027</ele>
        <time>1970-01-01T04:27:57Z</time>
      </trkpt>
      <trkpt lat="40.218667" lon="0.256269">
        <ele>8.008</ele>
        <time>1970-01-01T04:27:58Z</time>
      </trkpt>
      <trkpt lat="40.218622" lon="0.256293">
        <ele>8.014</ele>
        <time>1970-01-01T04:27:59Z</time>
      </trkpt>
      <trkpt lat="40.218579" lon="0.256327">
        <ele>8.021</ele>
        <time>1970-01-01T04:28:00Z</time>
      </trkpt>
      <trkpt lat="40.218538" lon="0.256366">
        <ele>8.012</ele>
        <time>1970-01-01T04:28:01Z</time>
      </trkpt>
      <trkpt lat="40.218494" lon="0.256403">
        <ele>8.065</ele>
        <time>1970-01-01T04:28:02Z</time>
      </trkpt>
      <trkpt lat="40.218452" lon="0.256442">
        <ele>8.145</ele>
        <time>1970-01-01T04:28:03Z</time>
      </trkpt>
      <trkpt lat="40.218406" lon="0.256481">
        <ele>8.191</ele>
        <time>1970-01-01T04:28:04Z</time>
      </trkpt>
      <trkpt lat="40.218356" lon="0.256510">
        <ele>8.085</ele>
        <time>1970-01-01T04:28:05Z</time>
      </trkpt>
      <trkpt lat="40.218302" lon="0.256532">
        <ele>8.056</ele>
        <time>1970-01-01T04:28:06Z</time>
      </trkpt>
      <trkpt lat="40.218246" lon="0.256547">
        <ele>8.056</ele>
        <time>1970-01-01T04:28:07Z</time>
      </trkpt>
      <trkpt lat="40.218189" lon="0.256560">
        <ele>8.059</ele>
        <time>1970-01-01T04:28:08Z</time>
      </trkpt>
      <trkpt lat="40.218130" lon="0.256573">
        <ele>8.014</ele>
        <time>1970-01-01T04:28:09Z</time>
      </trkpt>
      <trkpt lat="40.218072" lon="0.256591">
        <ele>8.008</ele>
        <time>1970-01-01T04:28:10Z</time>
      </trkpt>
      <trkpt lat="40.218014" lon="0.256611">
        <ele>8.222</ele>
        <time>1970-01-01T04:28:11Z</time>
      </trkpt>
      <trkpt lat="40.217957" lon="0.256634">
        <ele>8.479</ele>
        <time>1970-01-01T04:28:12Z</time>
      </trkpt>
      <trkpt lat="40.217900" lon="0.256661">
        <ele>8.660</ele>
        <time>1970-01-01T04:28:13Z</time>
      </trkpt>
      <trkpt lat="40.217844" lon="0.256692">
        <ele>8.843</ele>
        <time>1970-01-01T04:28:14Z</time>
      </trkpt>
      <trkpt lat="40.217788" lon="0.256724">
        <ele>9.063</ele>
        <time>1970-01-01T04:28:15Z</time>
      </trkpt>
      <trkpt lat="40.217732" lon="0.256753">
        <ele>9.059</ele>
        <time>1970-01-01T04:28:16Z</time>
      </trkpt>
      <trkpt lat="40.217675" lon="0.256781">
        <ele>9.033</ele>
        <time>1970-01-01T04:28:17Z</time>
      </trkpt>
      <trkpt lat="40.217618" lon="0.256811">
        <ele>9.024</ele>
        <time>1970-01-01T04:28:18Z</time>
      </trkpt>
      <trkpt lat="40.217563" lon="0.256843">
        <ele>9.051</ele>
        <time>1970-01-01T04:28:19Z</time>
      </trkpt>
      <trkpt lat="40.217507" lon="0.256876">
        <ele>9.001</ele>
        <time>1970-01-01T04:28:20Z</time>
      </trkpt>
      <trkpt lat="40.217450" lon="0.256908">
        <ele>8.811</ele>
        <time>1970-01-01T04:28:21Z</time>
      </trkpt>
      <trkpt lat="40.217393" lon="0.256942">
        <ele>8.608</ele>
        <time>1970-01-01T04:28:22Z</time>
      </trkpt>
      <trkpt lat="40.217336" lon="0.256977">
        <ele>8.572</ele>
        <time>1970-01-01T04:28:23Z</time>
      </trkpt>
      <trkpt lat="40.217276" lon="0.257009">
        <ele>8.479</ele>
        <time>1970-01-01T04:28:24Z</time>
      </trkpt>
      <trkpt lat="40.217216" lon="0.257040">
        <ele>8.320</ele>
        <time>1970-01-01T04:28:25Z</time>
      </trkpt>
      <trkpt lat="40.217156" lon="0.257071">
        <ele>8.133</ele>
        <time>1970-01-01T04:28:26Z</time>
      </trkpt>
      <trkpt lat="40.217096" lon="0.257103">
        <ele>7.993</ele>
        <time>1970-01-01T04:28:27Z</time>
      </trkpt>
      <trkpt lat="40.217036" lon="0.257136">
        <ele>7.649</ele>
        <time>1970-01-01T04:28:28Z</time>
      </trkpt>
      <trkpt lat="40.216975" lon="0.257166">
        <ele>7.293</ele>
        <time>1970-01-01T04:28:29Z</time>
      </trkpt>
      <trkpt lat="40.216913" lon="0.257193">
        <ele>7.034</ele>
        <time>1970-01-01T04:28:30Z</time>
      </trkpt>
      <trkpt lat="40.216850" lon="0.257221">
        <ele>7.031</ele>
        <time>1970-01-01T04:28:31Z</time>
      </trkpt>
      <trkpt lat="40.216788" lon="0.257252">
        <ele>7.161</ele>
        <time>1970-01-01T04:28:32Z</time>
      </trkpt>
      <trkpt lat="40.216725" lon="0.257282">
        <ele>7.207</ele>
        <time>1970-01-01T04:28:33Z</time>
      </trkpt>
      <trkpt lat="40.216662" lon="0.257312">
        <ele>7.308</ele>
        <time>1970-01-01T04:28:34Z</time>
      </trkpt>
      <trkpt lat="40.216599" lon="0.257341">
        <ele>7.490</ele>
        <time>1970-01-01T04:28:35Z</time>
      </trkpt>
      <trkpt lat="40.216538" lon="0.257369">
        <ele>7.577</ele>
        <time>1970-01-01T04:28:36Z</time>
      </trkpt>
      <trkpt lat="40.216477" lon="0.257398">
        <ele>7.658</ele>
        <time>1970-01-01T04:28:37Z</time>
      </trkpt>
      <trkpt lat="40.216416" lon="0.257430">
        <ele>7.761</ele>
        <time>1970-01-01T04:28:38Z</time>
      </trkpt>
      <trkpt lat="40.216352" lon="0.257462">
        <ele>7.731</ele>
        <time>1970-01-01T04:28:39Z</time>
      </trkpt>
      <trkpt lat="40.216286" lon="0.257491">
        <ele>7.637</ele>
        <time>1970-01-01T04:28:40Z</time>
      </trkpt>
      <trkpt lat="40.216220" lon="0.257512">
        <ele>7.481</ele>
        <time>1970-01-01T04:28:41Z</time>
      </trkpt>
      <trkpt lat="40.216153" lon="0.257527">
        <ele>7.122</ele>
        <time>1970-01-01T04:28:42Z</time>
      </trkpt>
      <trkpt lat="40.216085" lon="0.257541">
        <ele>6.819</ele>
        <time>1970-01-01T04:28:43Z</time>
      </trkpt>
      <trkpt lat="40.216018" lon="0.257556">
        <ele>6.709</ele>
        <time>1970-01-01T04:28:44Z</time>
      </trkpt>
      <trkpt lat="40.215951" lon="0.257572">
        <ele>6.619</ele>
        <time>1970-01-01T04:28:45Z</time>
      </trkpt>
      <trkpt lat="40.215886" lon="0.257588">
        <ele>6.408</ele>
        <time>1970-01-01T04:28:46Z</time>
      </trkpt>
      <trkpt lat="40.215822" lon="0.257605">
        <ele>6.378</ele>
        <time>1970-01-01T04:28:47Z</time>
      </trkpt>
      <trkpt lat="40.215756" lon="0.257622">
        <ele>6.255</ele>
        <time>1970-01-01T04:28:48Z</time>
      </trkpt>
      <trkpt lat="40.215690" lon="0.257635">
        <ele>6.316</ele>
        <time>1970-01-01T04:28:49Z</time>
      </trkpt>
      <trkpt lat="40.215625" lon="0.257647">
        <ele>6.359</ele>
        <time>1970-01-01T04:28:50Z</time>
      </trkpt>
      <trkpt lat="40.215561" lon="0.257660">
        <ele>6.419</ele>
        <time>1970-01-01T04:28:51Z</time>
      </trkpt>
      <trkpt lat="40.215497" lon="0.257676">
        <ele>6.525</ele>
        <time>1970-01-01T04:28:52Z</time>
      </trkpt>
      <trkpt lat="40.215432" lon="0.257692">
        <ele>6.679</ele>
        <time>1970-01-01T04:28:53Z</time>
      </trkpt>
      <trkpt lat="40.215368" lon="0.257708">
        <ele>6.870</ele>
        <time>1970-01-01T04:28:54Z</time>
      </trkpt>
      <trkpt lat="40.215304" lon="0.257728">
        <ele>6.936</ele>
        <time>1970-01-01T04:28:55Z</time>
      </trkpt>
      <trkpt lat="40.215242" lon="0.257751">
        <ele>7.017</ele>
        <time>1970-01-01T04:28:56Z</time>
      </trkpt>
      <trkpt lat="40.215179" lon="0.257775">
        <ele>7.018</ele>
        <time>1970-01-01T04:28:57Z</time>
      </trkpt>
      <trkpt lat="40.215116" lon="0.257801">
        <ele>7.008</ele>
        <time>1970-01-01T04:28:58Z</time>
      </trkpt>
      <trkpt lat="40.215056" lon="0.257829">
        <ele>7.060</ele>
        <time>1970-01-01T04:28:59Z</time>
      </trkpt>
      <trkpt lat="40.214996" lon="0.257857">
        <ele>7.097</ele>
        <time>1970-01-01T04:29:00Z</time>
      </trkpt>
      <trkpt lat="40.214935" lon="0.257884">
        <ele>6.828</ele>
        <time>1970-01-01T04:29:01Z</time>
      </trkpt>
      <trkpt lat="40.214875" lon="0.257910">
        <ele>6.561</ele>
        <time>1970-01-01T04:29:02Z</time>
      </trkpt>
      <trkpt lat="40.214813" lon="0.257935">
        <ele>6.361</ele>
        <time>1970-01-01T04:29:03Z</time>
      </trkpt>
      <trkpt lat="40.214754" lon="0.257960">
        <ele>6.187</ele>
        <time>1970-01-01T04:29:04Z</time>
      </trkpt>
      <trkpt lat="40.214695" lon="0.257989">
        <ele>5.941</ele>
        <time>1970-01-01T04:29:05Z</time>
      </trkpt>
      <trkpt lat="40.214639" lon="0.258019">
        <ele>5.732</ele>
        <time>1970-01-01T04:29:06Z</time>
      </trkpt>
      <trkpt lat="40.214581" lon="0.258052">
        <ele>5.531</ele>
        <time>1970-01-01T04:29:07Z</time>
      </trkpt>
      <trkpt lat="40.214524" lon="0.258085">
        <ele>5.361</ele>
        <time>1970-01-01T04:29:08Z</time>
      </trkpt>
      <trkpt lat="40.214466" lon="0.258118">
        <ele>5.107</ele>
        <time>1970-01-01T04:29:09Z</time>
      </trkpt>
      <trkpt lat="40.214407" lon="0.258149">
        <ele>5.008</ele>
        <time>1970-01-01T04:29:10Z</time>
      </trkpt>
      <trkpt lat="40.214348" lon="0.258178">
        <ele>5.050</ele>
        <time>1970-01-01T04:29:11Z</time>
      </trkpt>
      <trkpt lat="40.214289" lon="0.258205">
        <ele>5.037</ele>
        <time>1970-01-01T04:29:12Z</time>
      </trkpt>
      <trkpt lat="40.214230" lon="0.258230">
        <ele>5.028</ele>
        <time>1970-01-01T04:29:13Z</time>
      </trkpt>
      <trkpt lat="40.214174" lon="0.258256">
        <ele>5.011</ele>
        <time>1970-01-01T04:29:14Z</time>
      </trkpt>
      <trkpt lat="40.214118" lon="0.258287">
        <ele>5.081</ele>
        <time>1970-01-01T04:29:15Z</time>
      </trkpt>
      <trkpt lat="40.214063" lon="0.258318">
        <ele>5.047</ele>
        <time>1970-01-01T04:29:16Z</time>
      </trkpt>
      <trkpt lat="40.214009" lon="0.258350">
        <ele>5.021</ele>
        <time>1970-01-01T04:29:17Z</time>
      </trkpt>
      <trkpt lat="40.213957" lon="0.258382">
        <ele>5.072</ele>
        <time>1970-01-01T04:29:18Z</time>
      </trkpt>
      <trkpt lat="40.213905" lon="0.258413">
        <ele>5.052</ele>
        <time>1970-01-01T04:29:19Z</time>
      </trkpt>
      <trkpt lat="40.213852" lon="0.258443">
        <ele>5.053</ele>
        <time>1970-01-01T04:29:20Z</time>
      </trkpt>
      <trkpt lat="40.213800" lon="0.258474">
        <ele>5.008</ele>
        <time>1970-01-01T04:29:21Z</time>
      </trkpt>
      <trkpt lat="40.213748" lon="0.258507">
        <ele>5.008</ele>
        <time>1970-01-01T04:29:22Z</time>
      </trkpt>
      <trkpt lat="40.213695" lon="0.258541">
        <ele>5.012</ele>
        <time>1970-01-01T04:29:23Z</time>
      </trkpt>
      <trkpt lat="40.213640" lon="0.258574">
        <ele>5.059</ele>
        <time>1970-01-01T04:29:24Z</time>
      </trkpt>
      <trkpt lat="40.213582" lon="0.258607">
        <ele>5.160</ele>
        <time>1970-01-01T04:29:25Z</time>
      </trkpt>
      <trkpt lat="40.213525" lon="0.258642">
        <ele>5.213</ele>
        <time>1970-01-01T04:29:26Z</time>
      </trkpt>
      <trkpt lat="40.213468" lon="0.258676">
        <ele>5.373</ele>
        <time>1970-01-01T04:29:27Z</time>
      </trkpt>
      <trkpt lat="40.213410" lon="0.258708">
        <ele>5.419</ele>
        <time>1970-01-01T04:29:28Z</time>
      </trkpt>
      <trkpt lat="40.213353" lon="0.258739">
        <ele>5.553</ele>
        <time>1970-01-01T04:29:29Z</time>
      </trkpt>
      <trkpt lat="40.213296" lon="0.258772">
        <ele>5.594</ele>
        <time>1970-01-01T04:29:30Z</time>
      </trkpt>
      <trkpt lat="40.213240" lon="0.258805">
        <ele>5.556</ele>
        <time>1970-01-01T04:29:31Z</time>
      </trkpt>
      <trkpt lat="40.213185" lon="0.258840">
        <ele>5.659</ele>
        <time>1970-01-01T04:29:32Z</time>
      </trkpt>
      <trkpt lat="40.213131" lon="0.258874">
        <ele>5.714</ele>
        <time>1970-01-01T04:29:33Z</time>
      </trkpt>
      <trkpt lat="40.213077" lon="0.258910">
        <ele>5.808</ele>
        <time>1970-01-01T04:29:34Z</time>
      </trkpt>
      <trkpt lat="40.213026" lon="0.258948">
        <ele>5.762</ele>
        <time>1970-01-01T04:29:35Z</time>
      </trkpt>
      <trkpt lat="40.212976" lon="0.258993">
        <ele>5.439</ele>
        <time>1970-01-01T04:29:36Z</time>
      </trkpt>
      <trkpt lat="40.212930" lon="0.259044">
        <ele>5.270</ele>
        <time>1970-01-01T04:29:37Z</time>
      </trkpt>
      <trkpt lat="40.212885" lon="0.259100">
        <ele>5.143</ele>
        <time>1970-01-01T04:29:38Z</time>
      </trkpt>
      <trkpt lat="40.212840" lon="0.259155">
        <ele>5.013</ele>
        <time>1970-01-01T04:29:39Z</time>
      </trkpt>
      <trkpt lat="40.212793" lon="0.259209">
        <ele>4.829</ele>
        <time>1970-01-01T04:29:40Z</time>
      </trkpt>
      <trkpt lat="40.212744" lon="0.259258">
        <ele>4.633</ele>
        <time>1970-01-01T04:29:41Z</time>
      </trkpt>
      <trkpt lat="40.212697" lon="0.259307">
        <ele>4.474</ele>
        <time>1970-01-01T04:29:42Z</time>
      </trkpt>
      <trkpt lat="40.212649" lon="0.259359">
        <ele>4.298</ele>
        <time>1970-01-01T04:29:43Z</time>
      </trkpt>
      <trkpt lat="40.212600" lon="0.259413">
        <ele>4.015</ele>
        <time>1970-01-01T04:29:44Z</time>
      </trkpt>
      <trkpt lat="40.212549" lon="0.259467">
        <ele>4.026</ele>
        <time>1970-01-01T04:29:45Z</time>
      </trkpt>
      <trkpt lat="40.212498" lon="0.259522">
        <ele>4.008</ele>
        <time>1970-01-01T04:29:46Z</time>
      </trkpt>
      <trkpt lat="40.212448" lon="0.259578">
        <ele>4.216</ele>
        <time>1970-01-01T04:29:47Z</time>
      </trkpt>
      <trkpt lat="40.212397" lon="0.259633">
        <ele>4.473</ele>
        <time>1970-01-01T04:29:48Z</time>
      </trkpt>
      <trkpt lat="40.212348" lon="0.259688">
        <ele>4.574</ele>
        <time>1970-01-01T04:29:49Z</time>
      </trkpt>
      <trkpt lat="40.212298" lon="0.259743">
        <ele>4.717</ele>
        <time>1970-01-01T04:29:50Z</time>
      </trkpt>
      <trkpt lat="40.212250" lon="0.259796">
        <ele>4.737</ele>
        <time>1970-01-01T04:29:51Z</time>
      </trkpt>
      <trkpt lat="40.212199" lon="0.259844">
        <ele>4.513</ele>
        <time>1970-01-01T04:29:52Z</time>
      </trkpt>
      <trkpt lat="40.212147" lon="0.259881">
        <ele>4.377</ele>
        <time>1970-01-01T04:29:53Z</time>
      </trkpt>
      <trkpt lat="40.212095" lon="0.259900">
        <ele>4.288</ele>
        <time>1970-01-01T04:29:54Z</time>
      </trkpt>
      <trkpt lat="40.212042" lon="0.259896">
        <ele>4.129</ele>
        <time>1970-01-01T04:29:55Z</time>
      </trkpt>
      <trkpt lat="40.211993" lon="0.259871">
        <ele>4.100</ele>
        <time>1970-01-01T04:29:56Z</time>
      </trkpt>
      <trkpt lat="40.211943" lon="0.259837">
        <ele>4.020</ele>
        <time>1970-01-01T04:29:57Z</time>
      </trkpt>
      <trkpt lat="40.211895" lon="0.259797">
        <ele>3.908</ele>
        <time>1970-01-01T04:29:58Z</time>
      </trkpt>
      <trkpt lat="40.211844" lon="0.259755">
        <ele>3.759</ele>
        <time>1970-01-01T04:29:59Z</time>
      </trkpt>
      <trkpt lat="40.211791" lon="0.259712">
        <ele>3.416</ele>
        <time>1970-01-01T04:30:00Z</time>
      </trkpt>
      <trkpt lat="40.211739" lon="0.259668">
        <ele>3.187</ele>
        <time>1970-01-01T04:30:01Z</time>
      </trkpt>
      <trkpt lat="40.211686" lon="0.259623">
        <ele>2.760</ele>
        <time>1970-01-01T04:30:02Z</time>
      </trkpt>
      <trkpt lat="40.211631" lon="0.259579">
        <ele>2.560</ele>
        <time>1970-01-01T04:30:03Z</time>
      </trkpt>
      <trkpt lat="40.211577" lon="0.259540">
        <ele>2.376</ele>
        <time>1970-01-01T04:30:04Z</time>
      </trkpt>
      <trkpt lat="40.211520" lon="0.259515">
        <ele>2.320</ele>
        <time>1970-01-01T04:30:05Z</time>
      </trkpt>
      <trkpt lat="40.211462" lon="0.259515">
        <ele>2.341</ele>
        <time>1970-01-01T04:30:06Z</time>
      </trkpt>
      <trkpt lat="40.211407" lon="0.259539">
        <ele>2.349</ele>
        <time>1970-01-01T04:30:07Z</time>
      </trkpt>
      <trkpt lat="40.211359" lon="0.259578">
        <ele>2.402</ele>
        <time>1970-01-01T04:30:08Z</time>
      </trkpt>
      <trkpt lat="40.211313" lon="0.259625">
        <ele>2.522</ele>
        <time>1970-01-01T04:30:09Z</time>
      </trkpt>
      <trkpt lat="40.211269" lon="0.259679">
        <ele>2.508</ele>
        <time>1970-01-01T04:30:10Z</time>
      </trkpt>
      <trkpt lat="40.211225" lon="0.259734">
        <ele>2.561</ele>
        <time>1970-01-01T04:30:11Z</time>
      </trkpt>
      <trkpt lat="40.211178" lon="0.259788">
        <ele>2.578</ele>
        <time>1970-01-01T04:30:12Z</time>
      </trkpt>
      <trkpt lat="40.211126" lon="0.259841">
        <ele>2.589</ele>
        <time>1970-01-01T04:30:13Z</time>
      </trkpt>
      <trkpt lat="40.211073" lon="0.259893">
        <ele>2.462</ele>
        <time>1970-01-01T04:30:14Z</time>
      </trkpt>
      <trkpt lat="40.211022" lon="0.259944">
        <ele>2.262</ele>
        <time>1970-01-01T04:30:15Z</time>
      </trkpt>
      <trkpt lat="40.210968" lon="0.259990">
        <ele>2.048</ele>
        <time>1970-01-01T04:30:16Z</time>
      </trkpt>
      <trkpt lat="40.210908" lon="0.260024">
        <ele>1.592</ele>
        <time>1970-01-01T04:30:17Z</time>
      </trkpt>
      <trkpt lat="40.210845" lon="0.260051">
        <ele>1.153</ele>
        <time>1970-01-01T04:30:18Z</time>
      </trkpt>
      <trkpt lat="40.210780" lon="0.260075">
        <ele>1.242</ele>
        <time>1970-01-01T04:30:19Z</time>
      </trkpt>
      <trkpt lat="40.210714" lon="0.260100">
        <ele>1.422</ele>
        <time>1970-01-01T04:30:20Z</time>
      </trkpt>
      <trkpt lat="40.210650" lon="0.260125">
        <ele>1.714</ele>
        <time>1970-01-01T04:30:21Z</time>
      </trkpt>
      <trkpt lat="40.210585" lon="0.260149">
        <ele>1.908</ele>
        <time>1970-01-01T04:30:22Z</time>
      </trkpt>
      <trkpt lat="40.210522" lon="0.260173">
        <ele>2.041</ele>
        <time>1970-01-01T04:30:23Z</time>
      </trkpt>
      <trkpt lat="40.210461" lon="0.260197">
        <ele>2.118</ele>
        <time>1970-01-01T04:30:24Z</time>
      </trkpt>
      <trkpt lat="40.210400" lon="0.260220">
        <ele>2.199</ele>
        <time>1970-01-01T04:30:25Z</time>
      </trkpt>
      <trkpt lat="40.210339" lon="0.260237">
        <ele>2.142</ele>
        <time>1970-01-01T04:30:26Z</time>
      </trkpt>
      <trkpt lat="40.210281" lon="0.260254">
        <ele>2.142</ele>
        <time>1970-01-01T04:30:27Z</time>
      </trkpt>
      <trkpt lat="40.210227" lon="0.260269">
        <ele>2.088</ele>
        <time>1970-01-01T04:30:28Z</time>
      </trkpt>
      <trkpt lat="40.210173" lon="0.260288">
        <ele>2.012</ele>
        <time>1970-01-01T04:30:29Z</time>
      </trkpt>
      <trkpt lat="40.210124" lon="0.260316">
        <ele>2.023</ele>
        <time>1970-01-01T04:30:30Z</time>
      </trkpt>
      <trkpt lat="40.210078" lon="0.260351">
        <ele>2.027</ele>
        <time>1970-01-01T04:30:31Z</time>
      </trkpt>
      <trkpt lat="40.210035" lon="0.260389">
        <ele>2.068</ele>
        <time>1970-01-01T04:30:32Z</time>
      </trkpt>
      <trkpt lat="40.209993" lon="0.260429">
        <ele>2.014</ele>
        <time>1970-01-01T04:30:33Z</time>
      </trkpt>
      <trkpt lat="40.209953" lon="0.260473">
        <ele>2.208</ele>
        <time>1970-01-01T04:30:34Z</time>
      </trkpt>
      <trkpt lat="40.209916" lon="0.260519">
        <ele>2.329</ele>
        <time>1970-01-01T04:30:35Z</time>
      </trkpt>
      <trkpt lat="40.209880" lon="0.260566">
        <ele>2.526</ele>
        <time>1970-01-01T04:30:36Z</time>
      </trkpt>
      <trkpt lat="40.209849" lon="0.260614">
        <ele>2.847</ele>
        <time>1970-01-01T04:30:37Z</time>
      </trkpt>
      <trkpt lat="40.209818" lon="0.260660">
        <ele>3.050</ele>
        <time>1970-01-01T04:30:38Z</time>
      </trkpt>
      <trkpt lat="40.209786" lon="0.260706">
        <ele>3.340</ele>
        <time>1970-01-01T04:30:39Z</time>
      </trkpt>
      <trkpt lat="40.209755" lon="0.260754">
        <ele>3.626</ele>
        <time>1970-01-01T04:30:40Z</time>
      </trkpt>
      <trkpt lat="40.209724" lon="0.260805">
        <ele>3.910</ele>
        <time>1970-01-01T04:30:41Z</time>
      </trkpt>
      <trkpt lat="40.209690" lon="0.260858">
        <ele>4.081</ele>
        <time>1970-01-01T04:30:42Z</time>
      </trkpt>
      <trkpt lat="40.209655" lon="0.260912">
        <ele>4.092</ele>
        <time>1970-01-01T04:30:43Z</time>
      </trkpt>
      <trkpt lat="40.209620" lon="0.260968">
        <ele>4.073</ele>
        <time>1970-01-01T04:30:44Z</time>
      </trkpt>
      <trkpt lat="40.209585" lon="0.261025">
        <ele>4.020</ele>
        <time>1970-01-01T04:30:45Z</time>
      </trkpt>
      <trkpt lat="40.209551" lon="0.261084">
        <ele>4.008</ele>
        <time>1970-01-01T04:30:46Z</time>
      </trkpt>
      <trkpt lat="40.209518" lon="0.261144">
        <ele>4.036</ele>
        <time>1970-01-01T04:30:47Z</time>
      </trkpt>
      <trkpt lat="40.209481" lon="0.261201">
        <ele>4.073</ele>
        <time>1970-01-01T04:30:48Z</time>
      </trkpt>
      <trkpt lat="40.209444" lon="0.261255">
        <ele>4.034</ele>
        <time>1970-01-01T04:30:49Z</time>
      </trkpt>
      <trkpt lat="40.209406" lon="0.261304">
        <ele>4.087</ele>
        <time>1970-01-01T04:30:50Z</time>
      </trkpt>
      <trkpt lat="40.209368" lon="0.261343">
        <ele>4.017</ele>
        <time>1970-01-01T04:30:51Z</time>
      </trkpt>
      <trkpt lat="40.209332" lon="0.261372">
        <ele>4.093</ele>
        <time>1970-01-01T04:30:52Z</time>
      </trkpt>
      <trkpt lat="40.209293" lon="0.261384">
        <ele>4.087</ele>
        <time>1970-01-01T04:30:53Z</time>
      </trkpt>
      <trkpt lat="40.209254" lon="0.261383">
        <ele>4.048</ele>
        <time>1970-01-01T04:30:54Z</time>
      </trkpt>
      <trkpt lat="40.209212" lon="0.261361">
        <ele>4.035</ele>
        <time>1970-01-01T04:30:55Z</time>
      </trkpt>
      <trkpt lat="40.209173" lon="0.261326">
        <ele>4.086</ele>
        <time>1970-01-01T04:30:56Z</time>
      </trkpt>
      <trkpt lat="40.209135" lon="0.261284">
        <ele>4.014</ele>
        <time>1970-01-01T04:30:57Z</time>
      </trkpt>
      <trkpt lat="40.209094" lon="0.261236">
        <ele>4.008</ele>
        <time>1970-01-01T04:30:58Z</time>
      </trkpt>
      <trkpt lat="40.209051" lon="0.261185">
        <ele>4.030</ele>
        <time>1970-01-01T04:30:59Z</time>
      </trkpt>
      <trkpt lat="40.209005" lon="0.261133">
        <ele>4.047</ele>
        <time>1970-01-01T04:31:00Z</time>
      </trkpt>
      <trkpt lat="40.208960" lon="0.261081">
        <ele>3.998</ele>
        <time>1970-01-01T04:31:01Z</time>
      </trkpt>
      <trkpt lat="40.208916" lon="0.261032">
        <ele>3.711</ele>
        <time>1970-01-01T04:31:02Z</time>
      </trkpt>
      <trkpt lat="40.208872" lon="0.260986">
        <ele>3.521</ele>
        <time>1970-01-01T04:31:03Z</time>
      </trkpt>
      <trkpt lat="40.208827" lon="0.260940">
        <ele>3.357</ele>
        <time>1970-01-01T04:31:04Z</time>
      </trkpt>
      <trkpt lat="40.208784" lon="0.260896">
        <ele>3.171</ele>
        <time>1970-01-01T04:31:05Z</time>
      </trkpt>
      <trkpt lat="40.208740" lon="0.260853">
        <ele>3.032</ele>
        <time>1970-01-01T04:31:06Z</time>
      </trkpt>
      <trkpt lat="40.208700" lon="0.260814">
        <ele>2.994</ele>
        <time>1970-01-01T04:31:07Z</time>
      </trkpt>
      <trkpt lat="40.208659" lon="0.260777">
        <ele>2.857</ele>
        <time>1970-01-01T04:31:08Z</time>
      </trkpt>
      <trkpt lat="40.208617" lon="0.260738">
        <ele>2.722</ele>
        <time>1970-01-01T04:31:09Z</time>
      </trkpt>
      <trkpt lat="40.208576" lon="0.260697">
        <ele>2.408</ele>
        <time>1970-01-01T04:31:10Z</time>
      </trkpt>
      <trkpt lat="40.208532" lon="0.260654">
        <ele>2.246</ele>
        <time>1970-01-01T04:31:11Z</time>
      </trkpt>
      <trkpt lat="40.208481" lon="0.260616">
        <ele>2.063</ele>
        <time>1970-01-01T04:31:12Z</time>
      </trkpt>
      <trkpt lat="40.208431" lon="0.260572">
        <ele>2.014</ele>
        <time>1970-01-01T04:31:13Z</time>
      </trkpt>
      <trkpt lat="40.208374" lon="0.260518">
        <ele>2.097</ele>
        <time>1970-01-01T04:31:14Z</time>
      </trkpt>
      <trkpt lat="40.208315" lon="0.260462">
        <ele>1.997</ele>
        <time>1970-01-01T04:31:15Z</time>
      </trkpt>
      <trkpt lat="40.208255" lon="0.260406">
        <ele>1.683</ele>
        <time>1970-01-01T04:31:16Z</time>
      </trkpt>
      <trkpt lat="40.208196" lon="0.260353">
        <ele>1.477</ele>
        <time>1970-01-01T04:31:17Z</time>
      </trkpt>
      <trkpt lat="40.208136" lon="0.260307">
        <ele>1.278</ele>
        <time>1970-01-01T04:31:18Z</time>
      </trkpt>
      <trkpt lat="40.208078" lon="0.260265">
        <ele>1.192</ele>
        <time>1970-01-01T04:31:19Z</time>
      </trkpt>
      <trkpt lat="40.208018" lon="0.260220">
        <ele>1.073</ele>
        <time>1970-01-01T04:31:20Z</time>
      </trkpt>
      <trkpt lat="40.207958" lon="0.260177">
        <ele>1.020</ele>
        <time>1970-01-01T04:31:21Z</time>
      </trkpt>
      <trkpt lat="40.207904" lon="0.260135">
        <ele>1.008</ele>
        <time>1970-01-01T04:31:22Z</time>
      </trkpt>
      <trkpt lat="40.207850" lon="0.260095">
        <ele>1.056</ele>
        <time>1970-01-01T04:31:23Z</time>
      </trkpt>
      <trkpt lat="40.207799" lon="0.260056">
        <ele>1.073</ele>
        <time>1970-01-01T04:31:24Z</time>
      </trkpt>
      <trkpt lat="40.207752" lon="0.260020">
        <ele>1.014</ele>
        <time>1970-01-01T04:31:25Z</time>
      </trkpt>
      <trkpt lat="40.207708" lon="0.259985">
        <ele>1.097</ele>
        <time>1970-01-01T04:31:26Z</time>
      </trkpt>
      <trkpt lat="40.207662" lon="0.259949">
        <ele>0.947</ele>
        <time>1970-01-01T04:31:27Z</time>
      </trkpt>
      <trkpt lat="40.207617" lon="0.259914">
        <ele>0.893</ele>
        <time>1970-01-01T04:31:28Z</time>
      </trkpt>
      <trkpt lat="40.207571" lon="0.259874">
        <ele>0.797</ele>
        <time>1970-01-01T04:31:29Z</time>
      </trkpt>
      <trkpt lat="40.207527" lon="0.259836">
        <ele>0.548</ele>
        <time>1970-01-01T04:31:30Z</time>
      </trkpt>
      <trkpt lat="40.207483" lon="0.259798">
        <ele>0.339</ele>
        <time>1970-01-01T04:31:31Z</time>
      </trkpt>
      <trkpt lat="40.207437" lon="0.259756">
        <ele>0.301</ele>
        <time>1970-01-01T04:31:32Z</time>
      </trkpt>
      <trkpt lat="40.207394" lon="0.259713">
        <ele>0.421</ele>
        <time>1970-01-01T04:31:33Z</time>
      </trkpt>
      <trkpt lat="40.207352" lon="0.259666">
        <ele>0.408</ele>
        <time>1970-01-01T04:31:34Z</time>
      </trkpt>
      <trkpt lat="40.207306" lon="0.259619">
        <ele>0.430</ele>
        <time>1970-01-01T04:31:35Z</time>
      </trkpt>
      <trkpt lat="40.207261" lon="0.259582">
        <ele>0.427</ele>
        <time>1970-01-01T04:31:36Z</time>
      </trkpt>
      <trkpt lat="40.207217" lon="0.259546">
        <ele>0.428</ele>
        <time>1970-01-01T04:31:37Z</time>
      </trkpt>
      <trkpt lat="40.207176" lon="0.259507">
        <ele>0.221</ele>
        <time>1970-01-01T04:31:38Z</time>
      </trkpt>
      <trkpt lat="40.207141" lon="0.259464">
        <ele>0.171</ele>
        <time>1970-01-01T04:31:39Z</time>
      </trkpt>
      <trkpt lat="40.207115" lon="0.259413">
        <ele>0.057</ele>
        <time>1970-01-01T04:31:40Z</time>
      </trkpt>
      <trkpt lat="40.207102" lon="0.259360">
        <ele>0.011</ele>
        <time>1970-01-01T04:31:41Z</time>
      </trkpt>
      <trkpt lat="40.207100" lon="0.259304">
        <ele>0.052</ele>
        <time>1970-01-01T04:31:42Z</time>
      </trkpt>
      <trkpt lat="40.207111" lon="0.259250">
        <ele>0.053</ele>
        <time>1970-01-01T04:31:43Z</time>
      </trkpt>
      <trkpt lat="40.207132" lon="0.259201">
        <ele>0.004</ele>
        <time>1970-01-01T04:31:44Z</time>
      </trkpt>
      <trkpt lat="40.207153" lon="0.259153">
        <ele>0.014</ele>
        <time>1970-01-01T04:31:45Z</time>
      </trkpt>
      <trkpt lat="40.207174" lon="0.259108">
        <ele>0.208</ele>
        <time>1970-01-01T04:31:46Z</time>
      </trkpt>
      <trkpt lat="40.207193" lon="0.259064">
        <ele>0.492</ele>
        <time>1970-01-01T04:31:47Z</time>
      </trkpt>
      <trkpt lat="40.207209" lon="0.259018">
        <ele>0.539</ele>
        <time>1970-01-01T04:31:48Z</time>
      </trkpt>
      <trkpt lat="40.207221" lon="0.258973">
        <ele>0.740</ele>
        <time>1970-01-01T04:31:49Z</time>
      </trkpt>
      <trkpt lat="40.207231" lon="0.258929">
        <ele>0.983</ele>
        <time>1970-01-01T04:31:50Z</time>
      </trkpt>
      <trkpt lat="40.207240" lon="0.258887">
        <ele>1.053</ele>
        <time>1970-01-01T04:31:51Z</time>
      </trkpt>
      <trkpt lat="40.207246" lon="0.258850">
        <ele>1.159</ele>
        <time>1970-01-01T04:31:52Z</time>
      </trkpt>
      <trkpt lat="40.207248" lon="0.258817">
        <ele>1.333</ele>
        <time>1970-01-01T04:31:53Z</time>
      </trkpt>
      <trkpt lat="40.207248" lon="0.258799">
        <ele>1.384</ele>
        <time>1970-01-01T04:31:54Z</time>
      </trkpt>
      <trkpt lat="40.207250" lon="0.258791">
        <ele>1.414</ele>
        <time>1970-01-01T04:31:55Z</time>
      </trkpt>
      <trkpt lat="40.207253" lon="0.258790">
        <ele>1.454</ele>
        <time>1970-01-01T04:31:56Z</time>
      </trkpt>
      <trkpt lat="40.207292" lon="0.258745">
        <ele>1.509</ele>
        <time>1970-01-01T04:36:32Z</time>
      </trkpt>
      <trkpt lat="40.207309" lon="0.258733">
        <ele>1.608</ele>
        <time>1970-01-01T04:36:33Z</time>
      </trkpt>
      <trkpt lat="40.207322" lon="0.258713">
        <ele>1.638</ele>
        <time>1970-01-01T04:36:34Z</time>
      </trkpt>
      <trkpt lat="40.207334" lon="0.258685">
        <ele>1.795</ele>
        <time>1970-01-01T04:36:35Z</time>
      </trkpt>
      <trkpt lat="40.207346" lon="0.258653">
        <ele>1.876</ele>
        <time>1970-01-01T04:36:36Z</time>
      </trkpt>
      <trkpt lat="40.207360" lon="0.258622">
        <ele>2.069</ele>
        <time>1970-01-01T04:36:37Z</time>
      </trkpt>
      <trkpt lat="40.207374" lon="0.258590">
        <ele>2.069</ele>
        <time>1970-01-01T04:36:38Z</time>
      </trkpt>
      <trkpt lat="40.207389" lon="0.258554">
        <ele>2.115</ele>
        <time>1970-01-01T04:36:39Z</time>
      </trkpt>
      <trkpt lat="40.207407" lon="0.258521">
        <ele>2.139</ele>
        <time>1970-01-01T04:36:40Z</time>
      </trkpt>
      <trkpt lat="40.207426" lon="0.258485">
        <ele>2.120</ele>
        <time>1970-01-01T04:36:41Z</time>
      </trkpt>
      <trkpt lat="40.207441" lon="0.258451">
        <ele>2.181</ele>
        <time>1970-01-01T04:36:42Z</time>
      </trkpt>
      <trkpt lat="40.207453" lon="0.258419">
        <ele>2.161</ele>
        <time>1970-01-01T04:36:43Z</time>
      </trkpt>
      <trkpt lat="40.207468" lon="0.258388">
        <ele>2.117</ele>
        <time>1970-01-01T04:36:44Z</time>
      </trkpt>
      <trkpt lat="40.207483" lon="0.258359">
        <ele>2.108</ele>
        <time>1970-01-01T04:36:45Z</time>
      </trkpt>
      <trkpt lat="40.207498" lon="0.258326">
        <ele>2.095</ele>
        <time>1970-01-01T04:36:46Z</time>
      </trkpt>
      <trkpt lat="40.207512" lon="0.258286">
        <ele>2.022</ele>
        <time>1970-01-01T04:36:47Z</time>
      </trkpt>
      <trkpt lat="40.207523" lon="0.258241">
        <ele>2.013</ele>
        <time>1970-01-01T04:36:48Z</time>
      </trkpt>
      <trkpt lat="40.207537" lon="0.258195">
        <ele>1.996</ele>
        <time>1970-01-01T04:36:49Z</time>
      </trkpt>
      <trkpt lat="40.207552" lon="0.258145">
        <ele>1.946</ele>
        <time>1970-01-01T04:36:50Z</time>
      </trkpt>
      <trkpt lat="40.207572" lon="0.258094">
        <ele>1.812</ele>
        <time>1970-01-01T04:36:51Z</time>
      </trkpt>
      <trkpt lat="40.207597" lon="0.258048">
        <ele>1.696</ele>
        <time>1970-01-01T04:36:52Z</time>
      </trkpt>
      <trkpt lat="40.207623" lon="0.258008">
        <ele>1.577</ele>
        <time>1970-01-01T04:36:53Z</time>
      </trkpt>
      <trkpt lat="40.207649" lon="0.257969">
        <ele>1.323</ele>
        <time>1970-01-01T04:36:54Z</time>
      </trkpt>
      <trkpt lat="40.207670" lon="0.257928">
        <ele>1.283</ele>
        <time>1970-01-01T04:36:55Z</time>
      </trkpt>
      <trkpt lat="40.207690" lon="0.257886">
        <ele>1.111</ele>
        <time>1970-01-01T04:36:56Z</time>
      </trkpt>
      <trkpt lat="40.207705" lon="0.257843">
        <ele>1.108</ele>
        <time>1970-01-01T04:36:57Z</time>
      </trkpt>
      <trkpt lat="40.207716" lon="0.257794">
        <ele>1.049</ele>
        <time>1970-01-01T04:36:58Z</time>
      </trkpt>
      <trkpt lat="40.207722" lon="0.257737">
        <ele>1.036</ele>
        <time>1970-01-01T04:36:59Z</time>
      </trkpt>
      <trkpt lat="40.207723" lon="0.257674">
        <ele>1.127</ele>
        <time>1970-01-01T04:37:00Z</time>
      </trkpt>
      <trkpt lat="40.207719" lon="0.257612">
        <ele>1.180</ele>
        <time>1970-01-01T04:37:01Z</time>
      </trkpt>
      <trkpt lat="40.207715" lon="0.257550">
        <ele>1.210</ele>
        <time>1970-01-01T04:37:02Z</time>
      </trkpt>
      <trkpt lat="40.207713" lon="0.257488">
        <ele>1.366</ele>
        <time>1970-01-01T04:37:03Z</time>
      </trkpt>
      <trkpt lat="40.207709" lon="0.257431">
        <ele>1.550</ele>
        <time>1970-01-01T04:37:04Z</time>
      </trkpt>
      <trkpt lat="40.207711" lon="0.257372">
        <ele>1.741</ele>
        <time>1970-01-01T04:37:05Z</time>
      </trkpt>
      <trkpt lat="40.207721" lon="0.257312">
        <ele>1.997</ele>
        <time>1970-01-01T04:37:06Z</time>
      </trkpt>
      <trkpt lat="40.207738" lon="0.257258">
        <ele>2.023</ele>
        <time>1970-01-01T04:37:07Z</time>
      </trkpt>
      <trkpt lat="40.207758" lon="0.257207">
        <ele>2.125</ele>
        <time>1970-01-01T04:37:08Z</time>
      </trkpt>
      <trkpt lat="40.207787" lon="0.257161">
        <ele>2.008</ele>
        <time>1970-01-01T04:37:09Z</time>
      </trkpt>
      <trkpt lat="40.207819" lon="0.257121">
        <ele>2.196</ele>
        <time>1970-01-01T04:37:10Z</time>
      </trkpt>
      <trkpt lat="40.207854" lon="0.257079">
        <ele>2.163</ele>
        <time>1970-01-01T04:37:11Z</time>
      </trkpt>
      <trkpt lat="40.207889" lon="0.257039">
        <ele>2.364</ele>
        <time>1970-01-01T04:37:12Z</time>
      </trkpt>
      <trkpt lat="40.207923" lon="0.256999">
        <ele>2.427</ele>
        <time>1970-01-01T04:37:13Z</time>
      </trkpt>
      <trkpt lat="40.207958" lon="0.256960">
        <ele>2.637</ele>
        <time>1970-01-01T04:37:14Z</time>
      </trkpt>
      <trkpt lat="40.207994" lon="0.256919">
        <ele>2.863</ele>
        <time>1970-01-01T04:37:15Z</time>
      </trkpt>
      <trkpt lat="40.208031" lon="0.256880">
        <ele>2.947</ele>
        <time>1970-01-01T04:37:16Z</time>
      </trkpt>
      <trkpt lat="40.208069" lon="0.256841">
        <ele>3.028</ele>
        <time>1970-01-01T04:37:17Z</time>
      </trkpt>
      <trkpt lat="40.208106" lon="0.256802">
        <ele>3.195</ele>
        <time>1970-01-01T04:37:18Z</time>
      </trkpt>
      <trkpt lat="40.208142" lon="0.256761">
        <ele>3.249</ele>
        <time>1970-01-01T04:37:19Z</time>
      </trkpt>
      <trkpt lat="40.208178" lon="0.256719">
        <ele>3.423</ele>
        <time>1970-01-01T04:37:20Z</time>
      </trkpt>
      <trkpt lat="40.208212" lon="0.256672">
        <ele>3.608</ele>
        <time>1970-01-01T04:37:21Z</time>
      </trkpt>
      <trkpt lat="40.208246" lon="0.256626">
        <ele>3.726</ele>
        <time>1970-01-01T04:37:22Z</time>
      </trkpt>
      <trkpt lat="40.208281" lon="0.256582">
        <ele>3.853</ele>
        <time>1970-01-01T04:37:23Z</time>
      </trkpt>
      <trkpt lat="40.208315" lon="0.256537">
        <ele>3.974</ele>
        <time>1970-01-01T04:37:24Z</time>
      </trkpt>
      <trkpt lat="40.208349" lon="0.256492">
        <ele>4.077</ele>
        <time>1970-01-01T04:37:25Z</time>
      </trkpt>
      <trkpt lat="40.208383" lon="0.256448">
        <ele>4.057</ele>
        <time>1970-01-01T04:37:26Z</time>
      </trkpt>
      <trkpt lat="40.208417" lon="0.256403">
        <ele>4.023</ele>
        <time>1970-01-01T04:37:27Z</time>
      </trkpt>
      <trkpt lat="40.208450" lon="0.256357">
        <ele>4.057</ele>
        <time>1970-01-01T04:37:28Z</time>
      </trkpt>
      <trkpt lat="40.208483" lon="0.256310">
        <ele>4.048</ele>
        <time>1970-01-01T04:37:29Z</time>
      </trkpt>
      <trkpt lat="40.208516" lon="0.256263">
        <ele>4.038</ele>
        <time>1970-01-01T04:37:30Z</time>
      </trkpt>
      <trkpt lat="40.208550" lon="0.256217">
        <ele>4.070</ele>
        <time>1970-01-01T04:37:31Z</time>
      </trkpt>
      <trkpt lat="40.208585" lon="0.256172">
        <ele>4.017</ele>
        <time>1970-01-01T04:37:32Z</time>
      </trkpt>
      <trkpt lat="40.208621" lon="0.256127">
        <ele>4.008</ele>
        <time>1970-01-01T04:37:33Z</time>
      </trkpt>
      <trkpt lat="40.208660" lon="0.256083">
        <ele>4.120</ele>
        <time>1970-01-01T04:37:34Z</time>
      </trkpt>
      <trkpt lat="40.208703" lon="0.256037">
        <ele>4.367</ele>
        <time>1970-01-01T04:37:35Z</time>
      </trkpt>
      <trkpt lat="40.208744" lon="0.255992">
        <ele>4.468</ele>
        <time>1970-01-01T04:37:36Z</time>
      </trkpt>
      <trkpt lat="40.208780" lon="0.255946">
        <ele>4.691</ele>
        <time>1970-01-01T04:37:37Z</time>
      </trkpt>
      <trkpt lat="40.208816" lon="0.255896">
        <ele>4.821</ele>
        <time>1970-01-01T04:37:38Z</time>
      </trkpt>
      <trkpt lat="40.208848" lon="0.255840">
        <ele>5.027</ele>
        <time>1970-01-01T04:37:39Z</time>
      </trkpt>
      <trkpt lat="40.208871" lon="0.255775">
        <ele>5.091</ele>
        <time>1970-01-01T04:37:40Z</time>
      </trkpt>
      <trkpt lat="40.208874" lon="0.255704">
        <ele>5.072</ele>
        <time>1970-01-01T04:37:41Z</time>
      </trkpt>
      <trkpt lat="40.208861" lon="0.255636">
        <ele>5.037</ele>
        <time>1970-01-01T04:37:42Z</time>
      </trkpt>
      <trkpt lat="40.208845" lon="0.255567">
        <ele>5.049</ele>
        <time>1970-01-01T04:37:43Z</time>
      </trkpt>
      <trkpt lat="40.208828" lon="0.255500">
        <ele>4.813</ele>
        <time>1970-01-01T04:37:44Z</time>
      </trkpt>
      <trkpt lat="40.208799" lon="0.255436">
        <ele>4.608</ele>
        <time>1970-01-01T04:37:45Z</time>
      </trkpt>
      <trkpt lat="40.208762" lon="0.255379">
        <ele>4.470</ele>
        <time>1970-01-01T04:37:46Z</time>
      </trkpt>
      <trkpt lat="40.208721" lon="0.255327">
        <ele>4.257</ele>
        <time>1970-01-01T04:37:47Z</time>
      </trkpt>
      <trkpt lat="40.208679" lon="0.255276">
        <ele>4.098</ele>
        <time>1970-01-01T04:37:48Z</time>
      </trkpt>
      <trkpt lat="40.208634" lon="0.255226">
        <ele>3.871</ele>
        <time>1970-01-01T04:37:49Z</time>
      </trkpt>
      <trkpt lat="40.208594" lon="0.255173">
        <ele>3.611</ele>
        <time>1970-01-01T04:37:50Z</time>
      </trkpt>
      <trkpt lat="40.208550" lon="0.255121">
        <ele>3.317</ele>
        <time>1970-01-01T04:37:51Z</time>
      </trkpt>
      <trkpt lat="40.208508" lon="0.255070">
        <ele>3.091</ele>
        <time>1970-01-01T04:37:52Z</time>
      </trkpt>
      <trkpt lat="40.208463" lon="0.255018">
        <ele>2.672</ele>
        <time>1970-01-01T04:37:53Z</time>
      </trkpt>
      <trkpt lat="40.208418" lon="0.254966">
        <ele>2.366</ele>
        <time>1970-01-01T04:37:54Z</time>
      </trkpt>
      <trkpt lat="40.208373" lon="0.254912">
        <ele>2.129</ele>
        <time>1970-01-01T04:37:55Z</time>
      </trkpt>
      <trkpt lat="40.208326" lon="0.254857">
        <ele>2.021</ele>
        <time>1970-01-01T04:37:56Z</time>
      </trkpt>
      <trkpt lat="40.208279" lon="0.254801">
        <ele>2.108</ele>
        <time>1970-01-01T04:37:57Z</time>
      </trkpt>
      <trkpt lat="40.208231" lon="0.254744">
        <ele>2.093</ele>
        <time>1970-01-01T04:37:58Z</time>
      </trkpt>
      <trkpt lat="40.208184" lon="0.254686">
        <ele>2.070</ele>
        <time>1970-01-01T04:37:59Z</time>
      </trkpt>
      <trkpt lat="40.208136" lon="0.254628">
        <ele>2.051</ele>
        <time>1970-01-01T04:38:00Z</time>
      </trkpt>
      <trkpt lat="40.208089" lon="0.254571">
        <ele>2.064</ele>
        <time>1970-01-01T04:38:01Z</time>
      </trkpt>
      <trkpt lat="40.208041" lon="0.254513">
        <ele>2.074</ele>
        <time>1970-01-01T04:38:02Z</time>
      </trkpt>
      <trkpt lat="40.207991" lon="0.254455">
        <ele>2.010</ele>
        <time>1970-01-01T04:38:03Z</time>
      </trkpt>
      <trkpt lat="40.207942" lon="0.254398">
        <ele>2.024</ele>
        <time>1970-01-01T04:38:04Z</time>
      </trkpt>
      <trkpt lat="40.207894" lon="0.254340">
        <ele>2.025</ele>
        <time>1970-01-01T04:38:05Z</time>
      </trkpt>
      <trkpt lat="40.207844" lon="0.254279">
        <ele>2.094</ele>
        <time>1970-01-01T04:38:06Z</time>
      </trkpt>
      <trkpt lat="40.207792" lon="0.254220">
        <ele>2.057</ele>
        <time>1970-01-01T04:38:07Z</time>
      </trkpt>
      <trkpt lat="40.207741" lon="0.254163">
        <ele>2.122</ele>
        <time>1970-01-01T04:38:08Z</time>
      </trkpt>
      <trkpt lat="40.207703" lon="0.254099">
        <ele>2.308</ele>
        <time>1970-01-01T04:38:09Z</time>
      </trkpt>
      <trkpt lat="40.207685" lon="0.254038">
        <ele>2.346</ele>
        <time>1970-01-01T04:38:10Z</time>
      </trkpt>
      <trkpt lat="40.207690" lon="0.253981">
        <ele>2.393</ele>
        <time>1970-01-01T04:38:11Z</time>
      </trkpt>
      <trkpt lat="40.207720" lon="0.253937">
        <ele>2.274</ele>
        <time>1970-01-01T04:38:12Z</time>
      </trkpt>
      <trkpt lat="40.207768" lon="0.253918">
        <ele>2.077</ele>
        <time>1970-01-01T04:38:13Z</time>
      </trkpt>
      <trkpt lat="40.207821" lon="0.253917">
        <ele>2.077</ele>
        <time>1970-01-01T04:38:14Z</time>
      </trkpt>
      <trkpt lat="40.207874" lon="0.253917">
        <ele>2.083</ele>
        <time>1970-01-01T04:38:15Z</time>
      </trkpt>
      <trkpt lat="40.207930" lon="0.253916">
        <ele>2.067</ele>
        <time>1970-01-01T04:38:16Z</time>
      </trkpt>
      <trkpt lat="40.207986" lon="0.253911">
        <ele>2.068</ele>
        <time>1970-01-01T04:38:17Z</time>
      </trkpt>
      <trkpt lat="40.208043" lon="0.253909">
        <ele>2.078</ele>
        <time>1970-01-01T04:38:18Z</time>
      </trkpt>
      <trkpt lat="40.208097" lon="0.253901">
        <ele>2.033</ele>
        <time>1970-01-01T04:38:19Z</time>
      </trkpt>
      <trkpt lat="40.208153" lon="0.253886">
        <ele>2.026</ele>
        <time>1970-01-01T04:38:20Z</time>
      </trkpt>
      <trkpt lat="40.208208" lon="0.253863">
        <ele>2.108</ele>
        <time>1970-01-01T04:38:21Z</time>
      </trkpt>
      <trkpt lat="40.208260" lon="0.253835">
        <ele>2.174</ele>
        <time>1970-01-01T04:38:22Z</time>
      </trkpt>
      <trkpt lat="40.208310" lon="0.253804">
        <ele>2.321</ele>
        <time>1970-01-01T04:38:23Z</time>
      </trkpt>
      <trkpt lat="40.208361" lon="0.253773">
        <ele>2.412</ele>
        <time>1970-01-01T04:38:24Z</time>
      </trkpt>
      <trkpt lat="40.208410" lon="0.253742">
        <ele>2.545</ele>
        <time>1970-01-01T04:38:25Z</time>
      </trkpt>
      <trkpt lat="40.208457" lon="0.253707">
        <ele>2.765</ele>
        <time>1970-01-01T04:38:26Z</time>
      </trkpt>
      <trkpt lat="40.208505" lon="0.253671">
        <ele>2.871</ele>
        <time>1970-01-01T04:38:27Z</time>
      </trkpt>
      <trkpt lat="40.208550" lon="0.253630">
        <ele>2.945</ele>
        <time>1970-01-01T04:38:28Z</time>
      </trkpt>
      <trkpt lat="40.208591" lon="0.253587">
        <ele>3.116</ele>
        <time>1970-01-01T04:38:29Z</time>
      </trkpt>
      <trkpt lat="40.208623" lon="0.253536">
        <ele>3.271</ele>
        <time>1970-01-01T04:38:30Z</time>
      </trkpt>
      <trkpt lat="40.208638" lon="0.253472">
        <ele>3.441</ele>
        <time>1970-01-01T04:38:31Z</time>
      </trkpt>
      <trkpt lat="40.208640" lon="0.253405">
        <ele>3.615</ele>
        <time>1970-01-01T04:38:32Z</time>
      </trkpt>
      <trkpt lat="40.208634" lon="0.253341">
        <ele>3.908</ele>
        <time>1970-01-01T04:38:33Z</time>
      </trkpt>
      <trkpt lat="40.208627" lon="0.253278">
        <ele>4.124</ele>
        <time>1970-01-01T04:38:34Z</time>
      </trkpt>
      <trkpt lat="40.208618" lon="0.253214">
        <ele>4.411</ele>
        <time>1970-01-01T04:38:35Z</time>
      </trkpt>
      <trkpt lat="40.208610" lon="0.253150">
        <ele>4.742</ele>
        <time>1970-01-01T04:38:36Z</time>
      </trkpt>
      <trkpt lat="40.208601" lon="0.253084">
        <ele>4.935</ele>
        <time>1970-01-01T04:38:37Z</time>
      </trkpt>
      <trkpt lat="40.208593" lon="0.253018">
        <ele>5.185</ele>
        <time>1970-01-01T04:38:38Z</time>
      </trkpt>
      <trkpt lat="40.208586" lon="0.252951">
        <ele>5.391</ele>
        <time>1970-01-01T04:38:39Z</time>
      </trkpt>
      <trkpt lat="40.208578" lon="0.252884">
        <ele>5.525</ele>
        <time>1970-01-01T04:38:40Z</time>
      </trkpt>
      <trkpt lat="40.208570" lon="0.252815">
        <ele>5.796</ele>
        <time>1970-01-01T04:38:41Z</time>
      </trkpt>
      <trkpt lat="40.208560" lon="0.252745">
        <ele>5.892</ele>
        <time>1970-01-01T04:38:42Z</time>
      </trkpt>
      <trkpt lat="40.208550" lon="0.252676">
        <ele>5.973</ele>
        <time>1970-01-01T04:38:43Z</time>
      </trkpt>
      <trkpt lat="40.208539" lon="0.252606">
        <ele>5.920</ele>
        <time>1970-01-01T04:38:44Z</time>
      </trkpt>
      <trkpt lat="40.208527" lon="0.252535">
        <ele>6.008</ele>
        <time>1970-01-01T04:38:45Z</time>
      </trkpt>
      <trkpt lat="40.208517" lon="0.252464">
        <ele>6.046</ele>
        <time>1970-01-01T04:38:46Z</time>
      </trkpt>
      <trkpt lat="40.208506" lon="0.252394">
        <ele>6.043</ele>
        <time>1970-01-01T04:38:47Z</time>
      </trkpt>
      <trkpt lat="40.208497" lon="0.252321">
        <ele>6.054</ele>
        <time>1970-01-01T04:38:48Z</time>
      </trkpt>
      <trkpt lat="40.208487" lon="0.252248">
        <ele>6.047</ele>
        <time>1970-01-01T04:38:49Z</time>
      </trkpt>
      <trkpt lat="40.208478" lon="0.252175">
        <ele>5.977</ele>
        <time>1970-01-01T04:38:50Z</time>
      </trkpt>
      <trkpt lat="40.208469" lon="0.252103">
        <ele>5.853</ele>
        <time>1970-01-01T04:38:51Z</time>
      </trkpt>
      <trkpt lat="40.208462" lon="0.252032">
        <ele>5.657</ele>
        <time>1970-01-01T04:38:52Z</time>
      </trkpt>
      <trkpt lat="40.208454" lon="0.251957">
        <ele>5.588</ele>
        <time>1970-01-01T04:38:53Z</time>
      </trkpt>
      <trkpt lat="40.208445" lon="0.251880">
        <ele>5.386</ele>
        <time>1970-01-01T04:38:54Z</time>
      </trkpt>
      <trkpt lat="40.208436" lon="0.251804">
        <ele>5.160</ele>
        <time>1970-01-01T04:38:55Z</time>
      </trkpt>
      <trkpt lat="40.208426" lon="0.251729">
        <ele>4.826</ele>
        <time>1970-01-01T04:38:56Z</time>
      </trkpt>
      <trkpt lat="40.208415" lon="0.251650">
        <ele>4.608</ele>
        <time>1970-01-01T04:38:57Z</time>
      </trkpt>
      <trkpt lat="40.208406" lon="0.251571">
        <ele>4.435</ele>
        <time>1970-01-01T04:38:58Z</time>
      </trkpt>
      <trkpt lat="40.208398" lon="0.251491">
        <ele>4.322</ele>
        <time>1970-01-01T04:38:59Z</time>
      </trkpt>
      <trkpt lat="40.208393" lon="0.251410">
        <ele>4.273</ele>
        <time>1970-01-01T04:39:00Z</time>
      </trkpt>
      <trkpt lat="40.208387" lon="0.251329">
        <ele>4.236</ele>
        <time>1970-01-01T04:39:01Z</time>
      </trkpt>
      <trkpt lat="40.208383" lon="0.251248">
        <ele>4.186</ele>
        <time>1970-01-01T04:39:02Z</time>
      </trkpt>
      <trkpt lat="40.208379" lon="0.251166">
        <ele>4.082</ele>
        <time>1970-01-01T04:39:03Z</time>
      </trkpt>
      <trkpt lat="40.208377" lon="0.251084">
        <ele>4.056</ele>
        <time>1970-01-01T04:39:04Z</time>
      </trkpt>
      <trkpt lat="40.208373" lon="0.251003">
        <ele>4.037</ele>
        <time>1970-01-01T04:39:05Z</time>
      </trkpt>
      <trkpt lat="40.208368" lon="0.250922">
        <ele>4.038</ele>
        <time>1970-01-01T04:39:06Z</time>
      </trkpt>
      <trkpt lat="40.208361" lon="0.250841">
        <ele>4.070</ele>
        <time>1970-01-01T04:39:07Z</time>
      </trkpt>
      <trkpt lat="40.208353" lon="0.250761">
        <ele>3.517</ele>
        <time>1970-01-01T04:39:08Z</time>
      </trkpt>
      <trkpt lat="40.208344" lon="0.250680">
        <ele>2.908</ele>
        <time>1970-01-01T04:39:09Z</time>
      </trkpt>
      <trkpt lat="40.208333" lon="0.250599">
        <ele>2.380</ele>
        <time>1970-01-01T04:39:10Z</time>
      </trkpt>
      <trkpt lat="40.208319" lon="0.250518">
        <ele>1.867</ele>
        <time>1970-01-01T04:39:11Z</time>
      </trkpt>
      <trkpt lat="40.208301" lon="0.250438">
        <ele>1.558</ele>
        <time>1970-01-01T04:39:12Z</time>
      </trkpt>
      <trkpt lat="40.208277" lon="0.250359">
        <ele>1.161</ele>
        <time>1970-01-01T04:39:13Z</time>
      </trkpt>
      <trkpt lat="40.208246" lon="0.250283">
        <ele>0.761</ele>
        <time>1970-01-01T04:39:14Z</time>
      </trkpt>
      <trkpt lat="40.208209" lon="0.250212">
        <ele>0.497</ele>
        <time>1970-01-01T04:39:15Z</time>
      </trkpt>
      <trkpt lat="40.208168" lon="0.250143">
        <ele>0.221</ele>
        <time>1970-01-01T04:39:16Z</time>
      </trkpt>
      <trkpt lat="40.208125" lon="0.250076">
        <ele>0.172</ele>
        <time>1970-01-01T04:39:17Z</time>
      </trkpt>
      <trkpt lat="40.208079" lon="0.250009">
        <ele>0.022</ele>
        <time>1970-01-01T04:39:18Z</time>
      </trkpt>
      <trkpt lat="40.208033" lon="0.249945">
        <ele>0.362</ele>
        <time>1970-01-01T04:39:19Z</time>
      </trkpt>
      <trkpt lat="40.207987" lon="0.249880">
        <ele>0.708</ele>
        <time>1970-01-01T04:39:20Z</time>
      </trkpt>
      <trkpt lat="40.207941" lon="0.249814">
        <ele>1.108</ele>
        <time>1970-01-01T04:39:21Z</time>
      </trkpt>
      <trkpt lat="40.207894" lon="0.249749">
        <ele>1.579</ele>
        <time>1970-01-01T04:39:22Z</time>
      </trkpt>
      <trkpt lat="40.207848" lon="0.249685">
        <ele>1.856</ele>
        <time>1970-01-01T04:39:23Z</time>
      </trkpt>
      <trkpt lat="40.207804" lon="0.249620">
        <ele>1.927</ele>
        <time>1970-01-01T04:39:24Z</time>
      </trkpt>
      <trkpt lat="40.207760" lon="0.249555">
        <ele>2.110</ele>
        <time>1970-01-01T04:39:25Z</time>
      </trkpt>
      <trkpt lat="40.207716" lon="0.249488">
        <ele>2.430</ele>
        <time>1970-01-01T04:39:26Z</time>
      </trkpt>
      <trkpt lat="40.207673" lon="0.249421">
        <ele>2.766</ele>
        <time>1970-01-01T04:39:27Z</time>
      </trkpt>
      <trkpt lat="40.207628" lon="0.249357">
        <ele>2.920</ele>
        <time>1970-01-01T04:39:28Z</time>
      </trkpt>
      <trkpt lat="40.207584" lon="0.249293">
        <ele>3.021</ele>
        <time>1970-01-01T04:39:29Z</time>
      </trkpt>
      <trkpt lat="40.207540" lon="0.249228">
        <ele>3.062</ele>
        <time>1970-01-01T04:39:30Z</time>
      </trkpt>
      <trkpt lat="40.207495" lon="0.249165">
        <ele>3.083</ele>
        <time>1970-01-01T04:39:31Z</time>
      </trkpt>
      <trkpt lat="40.207450" lon="0.249104">
        <ele>3.011</ele>
        <time>1970-01-01T04:39:32Z</time>
      </trkpt>
      <trkpt lat="40.207406" lon="0.249040">
        <ele>2.908</ele>
        <time>1970-01-01T04:39:33Z</time>
      </trkpt>
      <trkpt lat="40.207361" lon="0.248976">
        <ele>2.853</ele>
        <time>1970-01-01T04:39:34Z</time>
      </trkpt>
      <trkpt lat="40.207317" lon="0.248913">
        <ele>2.770</ele>
        <time>1970-01-01T04:39:35Z</time>
      </trkpt>
      <trkpt lat="40.207272" lon="0.248853">
        <ele>2.841</ele>
        <time>1970-01-01T04:39:36Z</time>
      </trkpt>
      <trkpt lat="40.207230" lon="0.248791">
        <ele>3.084</ele>
        <time>1970-01-01T04:39:37Z</time>
      </trkpt>
      <trkpt lat="40.207187" lon="0.248731">
        <ele>3.034</ele>
        <time>1970-01-01T04:39:38Z</time>
      </trkpt>
      <trkpt lat="40.207144" lon="0.248671">
        <ele>3.020</ele>
        <time>1970-01-01T04:39:39Z</time>
      </trkpt>
      <trkpt lat="40.207100" lon="0.248612">
        <ele>3.014</ele>
        <time>1970-01-01T04:39:40Z</time>
      </trkpt>
      <trkpt lat="40.207055" lon="0.248555">
        <ele>3.025</ele>
        <time>1970-01-01T04:39:41Z</time>
      </trkpt>
      <trkpt lat="40.207015" lon="0.248495">
        <ele>3.035</ele>
        <time>1970-01-01T04:39:42Z</time>
      </trkpt>
      <trkpt lat="40.206977" lon="0.248429">
        <ele>3.086</ele>
        <time>1970-01-01T04:39:43Z</time>
      </trkpt>
      <trkpt lat="40.206936" lon="0.248366">
        <ele>3.014</ele>
        <time>1970-01-01T04:39:44Z</time>
      </trkpt>
      <trkpt lat="40.206896" lon="0.248304">
        <ele>3.008</ele>
        <time>1970-01-01T04:39:45Z</time>
      </trkpt>
      <trkpt lat="40.206859" lon="0.248239">
        <ele>2.930</ele>
        <time>1970-01-01T04:39:46Z</time>
      </trkpt>
      <trkpt lat="40.206821" lon="0.248176">
        <ele>2.777</ele>
        <time>1970-01-01T04:39:47Z</time>
      </trkpt>
      <trkpt lat="40.206782" lon="0.248113">
        <ele>2.548</ele>
        <time>1970-01-01T04:39:48Z</time>
      </trkpt>
      <trkpt lat="40.206744" lon="0.248051">
        <ele>2.351</ele>
        <time>1970-01-01T04:39:49Z</time>
      </trkpt>
      <trkpt lat="40.206704" lon="0.247990">
        <ele>1.971</ele>
        <time>1970-01-01T04:39:50Z</time>
      </trkpt>
      <trkpt lat="40.206664" lon="0.247931">
        <ele>1.687</ele>
        <time>1970-01-01T04:39:51Z</time>
      </trkpt>
      <trkpt lat="40.206625" lon="0.247874">
        <ele>1.411</ele>
        <time>1970-01-01T04:39:52Z</time>
      </trkpt>
      <trkpt lat="40.206587" lon="0.247815">
        <ele>1.422</ele>
        <time>1970-01-01T04:39:53Z</time>
      </trkpt>
      <trkpt lat="40.206549" lon="0.247756">
        <ele>1.415</ele>
        <time>1970-01-01T04:39:54Z</time>
      </trkpt>
      <trkpt lat="40.206510" lon="0.247697">
        <ele>1.665</ele>
        <time>1970-01-01T04:39:55Z</time>
      </trkpt>
      <trkpt lat="40.206470" lon="0.247638">
        <ele>1.711</ele>
        <time>1970-01-01T04:39:56Z</time>
      </trkpt>
      <trkpt lat="40.206433" lon="0.247578">
        <ele>1.808</ele>
        <time>1970-01-01T04:39:57Z</time>
      </trkpt>
      <trkpt lat="40.206394" lon="0.247518">
        <ele>2.068</ele>
        <time>1970-01-01T04:39:58Z</time>
      </trkpt>
      <trkpt lat="40.206354" lon="0.247459">
        <ele>1.995</ele>
        <time>1970-01-01T04:39:59Z</time>
      </trkpt>
      <trkpt lat="40.206314" lon="0.247398">
        <ele>1.656</ele>
        <time>1970-01-01T04:40:00Z</time>
      </trkpt>
      <trkpt lat="40.206274" lon="0.247338">
        <ele>1.419</ele>
        <time>1970-01-01T04:40:01Z</time>
      </trkpt>
      <trkpt lat="40.206234" lon="0.247278">
        <ele>1.249</ele>
        <time>1970-01-01T04:40:02Z</time>
      </trkpt>
      <trkpt lat="40.206191" lon="0.247220">
        <ele>1.025</ele>
        <time>1970-01-01T04:40:03Z</time>
      </trkpt>
      <trkpt lat="40.206148" lon="0.247162">
        <ele>0.849</ele>
        <time>1970-01-01T04:40:04Z</time>
      </trkpt>
      <trkpt lat="40.206106" lon="0.247104">
        <ele>0.630</ele>
        <time>1970-01-01T04:40:05Z</time>
      </trkpt>
      <trkpt lat="40.206065" lon="0.247045">
        <ele>0.579</ele>
        <time>1970-01-01T04:40:06Z</time>
      </trkpt>
      <trkpt lat="40.206023" lon="0.246985">
        <ele>0.405</ele>
        <time>1970-01-01T04:40:07Z</time>
      </trkpt>
      <trkpt lat="40.205982" lon="0.246924">
        <ele>0.525</ele>
        <time>1970-01-01T04:40:08Z</time>
      </trkpt>
      <trkpt lat="40.205942" lon="0.246863">
        <ele>0.608</ele>
        <time>1970-01-01T04:40:09Z</time>
      </trkpt>
      <trkpt lat="40.205902" lon="0.246801">
        <ele>0.854</ele>
        <time>1970-01-01T04:40:10Z</time>
      </trkpt>
      <trkpt lat="40.205861" lon="0.246737">
        <ele>0.951</ele>
        <time>1970-01-01T04:40:11Z</time>
      </trkpt>
      <trkpt lat="40.205818" lon="0.246675">
        <ele>1.062</ele>
        <time>1970-01-01T04:40:12Z</time>
      </trkpt>
      <trkpt lat="40.205775" lon="0.246614">
        <ele>1.055</ele>
        <time>1970-01-01T04:40:13Z</time>
      </trkpt>
      <trkpt lat="40.205733" lon="0.246552">
        <ele>1.175</ele>
        <time>1970-01-01T04:40:14Z</time>
      </trkpt>
      <trkpt lat="40.205693" lon="0.246488">
        <ele>1.321</ele>
        <time>1970-01-01T04:40:15Z</time>
      </trkpt>
      <trkpt lat="40.205654" lon="0.246422">
        <ele>1.655</ele>
        <time>1970-01-01T04:40:16Z</time>
      </trkpt>
      <trkpt lat="40.205618" lon="0.246356">
        <ele>1.856</ele>
        <time>1970-01-01T04:40:17Z</time>
      </trkpt>
      <trkpt lat="40.205580" lon="0.246291">
        <ele>1.937</ele>
        <time>1970-01-01T04:40:18Z</time>
      </trkpt>
      <trkpt lat="40.205541" lon="0.246227">
        <ele>2.049</ele>
        <time>1970-01-01T04:40:19Z</time>
      </trkpt>
      <trkpt lat="40.205504" lon="0.246163">
        <ele>2.013</ele>
        <time>1970-01-01T04:40:20Z</time>
      </trkpt>
      <trkpt lat="40.205469" lon="0.246098">
        <ele>2.008</ele>
        <time>1970-01-01T04:40:21Z</time>
      </trkpt>
      <trkpt lat="40.205435" lon="0.246034">
        <ele>2.080</ele>
        <time>1970-01-01T04:40:22Z</time>
      </trkpt>
      <trkpt lat="40.205400" lon="0.245969">
        <ele>2.037</ele>
        <time>1970-01-01T04:40:23Z</time>
      </trkpt>
      <trkpt lat="40.205363" lon="0.245906">
        <ele>2.078</ele>
        <time>1970-01-01T04:40:24Z</time>
      </trkpt>
      <trkpt lat="40.205324" lon="0.245844">
        <ele>2.071</ele>
        <time>1970-01-01T04:40:25Z</time>
      </trkpt>
      <trkpt lat="40.205285" lon="0.245783">
        <ele>2.091</ele>
        <time>1970-01-01T04:40:26Z</time>
      </trkpt>
      <trkpt lat="40.205246" lon="0.245724">
        <ele>2.087</ele>
        <time>1970-01-01T04:40:27Z</time>
      </trkpt>
      <trkpt lat="40.205206" lon="0.245665">
        <ele>2.271</ele>
        <time>1970-01-01T04:40:28Z</time>
      </trkpt>
      <trkpt lat="40.205165" lon="0.245607">
        <ele>2.392</ele>
        <time>1970-01-01T04:40:29Z</time>
      </trkpt>
      <trkpt lat="40.205125" lon="0.245552">
        <ele>2.595</ele>
        <time>1970-01-01T04:40:30Z</time>
      </trkpt>
      <trkpt lat="40.205087" lon="0.245496">
        <ele>2.749</ele>
        <time>1970-01-01T04:40:31Z</time>
      </trkpt>
      <trkpt lat="40.205050" lon="0.245437">
        <ele>2.823</ele>
        <time>1970-01-01T04:40:32Z</time>
      </trkpt>
      <trkpt lat="40.205016" lon="0.245377">
        <ele>2.908</ele>
        <time>1970-01-01T04:40:33Z</time>
      </trkpt>
      <trkpt lat="40.204980" lon="0.245318">
        <ele>3.076</ele>
        <time>1970-01-01T04:40:34Z</time>
      </trkpt>
      <trkpt lat="40.204943" lon="0.245259">
        <ele>2.993</ele>
        <time>1970-01-01T04:40:35Z</time>
      </trkpt>
      <trkpt lat="40.204907" lon="0.245199">
        <ele>2.734</ele>
        <time>1970-01-01T04:40:36Z</time>
      </trkpt>
      <trkpt lat="40.204875" lon="0.245139">
        <ele>2.537</ele>
        <time>1970-01-01T04:40:37Z</time>
      </trkpt>
      <trkpt lat="40.204844" lon="0.245076">
        <ele>2.347</ele>
        <time>1970-01-01T04:40:38Z</time>
      </trkpt>
      <trkpt lat="40.204814" lon="0.245010">
        <ele>2.013</ele>
        <time>1970-01-01T04:40:39Z</time>
      </trkpt>
      <trkpt lat="40.204783" lon="0.244945">
        <ele>1.877</ele>
        <time>1970-01-01T04:40:40Z</time>
      </trkpt>
      <trkpt lat="40.204752" lon="0.244881">
        <ele>1.628</ele>
        <time>1970-01-01T04:40:41Z</time>
      </trkpt>
      <trkpt lat="40.204721" lon="0.244817">
        <ele>1.346</ele>
        <time>1970-01-01T04:40:42Z</time>
      </trkpt>
      <trkpt lat="40.204689" lon="0.244753">
        <ele>1.288</ele>
        <time>1970-01-01T04:40:43Z</time>
      </trkpt>
      <trkpt lat="40.204657" lon="0.244690">
        <ele>1.216</ele>
        <time>1970-01-01T04:40:44Z</time>
      </trkpt>
      <trkpt lat="40.204625" lon="0.244628">
        <ele>1.208</ele>
        <time>1970-01-01T04:40:45Z</time>
      </trkpt>
      <trkpt lat="40.204593" lon="0.244563">
        <ele>1.251</ele>
        <time>1970-01-01T04:40:46Z</time>
      </trkpt>
      <trkpt lat="40.204562" lon="0.244497">
        <ele>1.148</ele>
        <time>1970-01-01T04:40:47Z</time>
      </trkpt>
      <trkpt lat="40.204530" lon="0.244428">
        <ele>1.059</ele>
        <time>1970-01-01T04:40:48Z</time>
      </trkpt>
      <trkpt lat="40.204498" lon="0.244358">
        <ele>0.972</ele>
        <time>1970-01-01T04:40:49Z</time>
      </trkpt>
      <trkpt lat="40.204464" lon="0.244288">
        <ele>1.092</ele>
        <time>1970-01-01T04:40:50Z</time>
      </trkpt>
      <trkpt lat="40.204429" lon="0.244218">
        <ele>1.198</ele>
        <time>1970-01-01T04:40:51Z</time>
      </trkpt>
      <trkpt lat="40.204395" lon="0.244147">
        <ele>1.262</ele>
        <time>1970-01-01T04:40:52Z</time>
      </trkpt>
      <trkpt lat="40.204360" lon="0.244076">
        <ele>1.263</ele>
        <time>1970-01-01T04:40:53Z</time>
      </trkpt>
      <trkpt lat="40.204327" lon="0.244004">
        <ele>1.224</ele>
        <time>1970-01-01T04:40:54Z</time>
      </trkpt>
      <trkpt lat="40.204298" lon="0.243934">
        <ele>1.104</ele>
        <time>1970-01-01T04:40:55Z</time>
      </trkpt>
      <trkpt lat="40.204268" lon="0.243866">
        <ele>0.914</ele>
        <time>1970-01-01T04:40:56Z</time>
      </trkpt>
      <trkpt lat="40.204240" lon="0.243798">
        <ele>0.408</ele>
        <time>1970-01-01T04:40:57Z</time>
      </trkpt>
      <trkpt lat="40.204211" lon="0.243728">
        <ele>-0.129</ele>
        <time>1970-01-01T04:40:58Z</time>
      </trkpt>
      <trkpt lat="40.204184" lon="0.243658">
        <ele>-0.626</ele>
        <time>1970-01-01T04:40:59Z</time>
      </trkpt>
      <trkpt lat="40.204157" lon="0.243587">
        <ele>-1.157</ele>
        <time>1970-01-01T04:41:00Z</time>
      </trkpt>
      <trkpt lat="40.204130" lon="0.243515">
        <ele>-1.330</ele>
        <time>1970-01-01T04:41:01Z</time>
      </trkpt>
      <trkpt lat="40.204104" lon="0.243444">
        <ele>-1.630</ele>
        <time>1970-01-01T04:41:02Z</time>
      </trkpt>
      <trkpt lat="40.204077" lon="0.243372">
        <ele>-1.966</ele>
        <time>1970-01-01T04:41:03Z</time>
      </trkpt>
      <trkpt lat="40.204051" lon="0.243301">
        <ele>-2.090</ele>
        <time>1970-01-01T04:41:04Z</time>
      </trkpt>
      <trkpt lat="40.204024" lon="0.243230">
        <ele>-2.031</ele>
        <time>1970-01-01T04:41:05Z</time>
      </trkpt>
      <trkpt lat="40.203994" lon="0.243160">
        <ele>-2.072</ele>
        <time>1970-01-01T04:41:06Z</time>
      </trkpt>
      <trkpt lat="40.203962" lon="0.243090">
        <ele>-2.013</ele>
        <time>1970-01-01T04:41:07Z</time>
      </trkpt>
      <trkpt lat="40.203933" lon="0.243021">
        <ele>-1.914</ele>
        <time>1970-01-01T04:41:08Z</time>
      </trkpt>
      <trkpt lat="40.203905" lon="0.242950">
        <ele>-1.608</ele>
        <time>1970-01-01T04:41:09Z</time>
      </trkpt>
      <trkpt lat="40.203875" lon="0.242879">
        <ele>-1.394</ele>
        <time>1970-01-01T04:41:10Z</time>
      </trkpt>
      <trkpt lat="40.203846" lon="0.242809">
        <ele>-0.981</ele>
        <time>1970-01-01T04:41:11Z</time>
      </trkpt>
      <trkpt lat="40.203816" lon="0.242740">
        <ele>-0.872</ele>
        <time>1970-01-01T04:41:12Z</time>
      </trkpt>
      <trkpt lat="40.203787" lon="0.242670">
        <ele>-0.865</ele>
        <time>1970-01-01T04:41:13Z</time>
      </trkpt>
      <trkpt lat="40.203761" lon="0.242600">
        <ele>-0.815</ele>
        <time>1970-01-01T04:41:14Z</time>
      </trkpt>
      <trkpt lat="40.203738" lon="0.242526">
        <ele>-0.971</ele>
        <time>1970-01-01T04:41:15Z</time>
      </trkpt>
      <trkpt lat="40.203722" lon="0.242450">
        <ele>-1.065</ele>
        <time>1970-01-01T04:41:16Z</time>
      </trkpt>
      <trkpt lat="40.203710" lon="0.242372">
        <ele>-1.036</ele>
        <time>1970-01-01T04:41:17Z</time>
      </trkpt>
      <trkpt lat="40.203700" lon="0.242294">
        <ele>-1.044</ele>
        <time>1970-01-01T04:41:18Z</time>
      </trkpt>
      <trkpt lat="40.203691" lon="0.242216">
        <ele>-1.005</ele>
        <time>1970-01-01T04:41:19Z</time>
      </trkpt>
      <trkpt lat="40.203682" lon="0.242137">
        <ele>-1.215</ele>
        <time>1970-01-01T04:41:20Z</time>
      </trkpt>
      <trkpt lat="40.203671" lon="0.242059">
        <ele>-1.508</ele>
        <time>1970-01-01T04:41:21Z</time>
      </trkpt>
      <trkpt lat="40.203656" lon="0.241982">
        <ele>-1.721</ele>
        <time>1970-01-01T04:41:22Z</time>
      </trkpt>
      <trkpt lat="40.203635" lon="0.241907">
        <ele>-1.878</ele>
        <time>1970-01-01T04:41:23Z</time>
      </trkpt>
      <trkpt lat="40.203612" lon="0.241836">
        <ele>-1.619</ele>
        <time>1970-01-01T04:41:24Z</time>
      </trkpt>
      <trkpt lat="40.203587" lon="0.241768">
        <ele>-1.472</ele>
        <time>1970-01-01T04:41:25Z</time>
      </trkpt>
      <trkpt lat="40.203558" lon="0.241704">
        <ele>-1.112</ele>
        <time>1970-01-01T04:41:26Z</time>
      </trkpt>
      <trkpt lat="40.203524" lon="0.241642">
        <ele>-0.978</ele>
        <time>1970-01-01T04:41:27Z</time>
      </trkpt>
      <trkpt lat="40.203488" lon="0.241583">
        <ele>-0.822</ele>
        <time>1970-01-01T04:41:28Z</time>
      </trkpt>
      <trkpt lat="40.203452" lon="0.241525">
        <ele>-0.853</ele>
        <time>1970-01-01T04:41:29Z</time>
      </trkpt>
      <trkpt lat="40.203416" lon="0.241468">
        <ele>-0.838</ele>
        <time>1970-01-01T04:41:30Z</time>
      </trkpt>
      <trkpt lat="40.203382" lon="0.241410">
        <ele>-0.870</ele>
        <time>1970-01-01T04:41:31Z</time>
      </trkpt>
      <trkpt lat="40.203348" lon="0.241350">
        <ele>-0.717</ele>
        <time>1970-01-01T04:41:32Z</time>
      </trkpt>
      <trkpt lat="40.203313" lon="0.241292">
        <ele>-0.408</ele>
        <time>1970-01-01T04:41:33Z</time>
      </trkpt>
      <trkpt lat="40.203277" lon="0.241234">
        <ele>-0.180</ele>
        <time>1970-01-01T04:41:34Z</time>
      </trkpt>
      <trkpt lat="40.203242" lon="0.241176">
        <ele>0.227</ele>
        <time>1970-01-01T04:41:35Z</time>
      </trkpt>
      <trkpt lat="40.203205" lon="0.241118">
        <ele>0.598</ele>
        <time>1970-01-01T04:41:36Z</time>
      </trkpt>
      <trkpt lat="40.203165" lon="0.241062">
        <ele>0.451</ele>
        <time>1970-01-01T04:41:37Z</time>
      </trkpt>
      <trkpt lat="40.203125" lon="0.241007">
        <ele>0.471</ele>
        <time>1970-01-01T04:41:38Z</time>
      </trkpt>
      <trkpt lat="40.203084" lon="0.240952">
        <ele>0.667</ele>
        <time>1970-01-01T04:41:39Z</time>
      </trkpt>
      <trkpt lat="40.203041" lon="0.240893">
        <ele>0.751</ele>
        <time>1970-01-01T04:41:40Z</time>
      </trkpt>
      <trkpt lat="40.202998" lon="0.240835">
        <ele>0.812</ele>
        <time>1970-01-01T04:41:41Z</time>
      </trkpt>
      <trkpt lat="40.202955" lon="0.240777">
        <ele>0.758</ele>
        <time>1970-01-01T04:41:42Z</time>
      </trkpt>
      <trkpt lat="40.202912" lon="0.240718">
        <ele>0.752</ele>
        <time>1970-01-01T04:41:43Z</time>
      </trkpt>
      <trkpt lat="40.202868" lon="0.240659">
        <ele>0.717</ele>
        <time>1970-01-01T04:41:44Z</time>
      </trkpt>
      <trkpt lat="40.202825" lon="0.240596">
        <ele>0.908</ele>
        <time>1970-01-01T04:41:45Z</time>
      </trkpt>
      <trkpt lat="40.202786" lon="0.240530">
        <ele>0.972</ele>
        <time>1970-01-01T04:41:46Z</time>
      </trkpt>
      <trkpt lat="40.202752" lon="0.240458">
        <ele>0.679</ele>
        <time>1970-01-01T04:41:47Z</time>
      </trkpt>
      <trkpt lat="40.202723" lon="0.240383">
        <ele>0.280</ele>
        <time>1970-01-01T04:41:48Z</time>
      </trkpt>
      <trkpt lat="40.202698" lon="0.240307">
        <ele>-0.293</ele>
        <time>1970-01-01T04:41:49Z</time>
      </trkpt>
      <trkpt lat="40.202673" lon="0.240230">
        <ele>-0.433</ele>
        <time>1970-01-01T04:41:50Z</time>
      </trkpt>
      <trkpt lat="40.202645" lon="0.240153">
        <ele>-0.559</ele>
        <time>1970-01-01T04:41:51Z</time>
      </trkpt>
      <trkpt lat="40.202617" lon="0.240076">
        <ele>-0.673</ele>
        <time>1970-01-01T04:41:52Z</time>
      </trkpt>
      <trkpt lat="40.202590" lon="0.240001">
        <ele>-0.774</ele>
        <time>1970-01-01T04:41:53Z</time>
      </trkpt>
      <trkpt lat="40.202560" lon="0.239926">
        <ele>-0.753</ele>
        <time>1970-01-01T04:41:54Z</time>
      </trkpt>
      <trkpt lat="40.202532" lon="0.239850">
        <ele>-0.804</ele>
        <time>1970-01-01T04:41:55Z</time>
      </trkpt>
      <trkpt lat="40.202501" lon="0.239776">
        <ele>-1.014</ele>
        <time>1970-01-01T04:41:56Z</time>
      </trkpt>
      <trkpt lat="40.202470" lon="0.239703">
        <ele>-1.008</ele>
        <time>1970-01-01T04:41:57Z</time>
      </trkpt>
      <trkpt lat="40.202440" lon="0.239629">
        <ele>-1.092</ele>
        <time>1970-01-01T04:41:58Z</time>
      </trkpt>
      <trkpt lat="40.202409" lon="0.239556">
        <ele>-0.919</ele>
        <time>1970-01-01T04:41:59Z</time>
      </trkpt>
      <trkpt lat="40.202379" lon="0.239484">
        <ele>-1.040</ele>
        <time>1970-01-01T04:42:00Z</time>
      </trkpt>
      <trkpt lat="40.202350" lon="0.239414">
        <ele>-1.113</ele>
        <time>1970-01-01T04:42:01Z</time>
      </trkpt>
      <trkpt lat="40.202322" lon="0.239341">
        <ele>-1.323</ele>
        <time>1970-01-01T04:42:02Z</time>
      </trkpt>
      <trkpt lat="40.202297" lon="0.239268">
        <ele>-1.579</ele>
        <time>1970-01-01T04:42:03Z</time>
      </trkpt>
      <trkpt lat="40.202274" lon="0.239195">
        <ele>-1.623</ele>
        <time>1970-01-01T04:42:04Z</time>
      </trkpt>
      <trkpt lat="40.202252" lon="0.239123">
        <ele>-1.744</ele>
        <time>1970-01-01T04:42:05Z</time>
      </trkpt>
      <trkpt lat="40.202227" lon="0.239051">
        <ele>-1.621</ele>
        <time>1970-01-01T04:42:06Z</time>
      </trkpt>
      <trkpt lat="40.202204" lon="0.238978">
        <ele>-1.341</ele>
        <time>1970-01-01T04:42:07Z</time>
      </trkpt>
      <trkpt lat="40.202179" lon="0.238903">
        <ele>-1.205</ele>
        <time>1970-01-01T04:42:08Z</time>
      </trkpt>
      <trkpt lat="40.202155" lon="0.238828">
        <ele>-1.208</ele>
        <time>1970-01-01T04:42:09Z</time>
      </trkpt>
      <trkpt lat="40.202132" lon="0.238753">
        <ele>-1.219</ele>
        <time>1970-01-01T04:42:10Z</time>
      </trkpt>
      <trkpt lat="40.202108" lon="0.238679">
        <ele>-1.156</ele>
        <time>1970-01-01T04:42:11Z</time>
      </trkpt>
      <trkpt lat="40.202083" lon="0.238607">
        <ele>-1.087</ele>
        <time>1970-01-01T04:42:12Z</time>
      </trkpt>
      <trkpt lat="40.202057" lon="0.238539">
        <ele>-1.040</ele>
        <time>1970-01-01T04:42:13Z</time>
      </trkpt>
      <trkpt lat="40.202030" lon="0.238472">
        <ele>-1.050</ele>
        <time>1970-01-01T04:42:14Z</time>
      </trkpt>
      <trkpt lat="40.202001" lon="0.238408">
        <ele>-1.016</ele>
        <time>1970-01-01T04:42:15Z</time>
      </trkpt>
      <trkpt lat="40.201971" lon="0.238344">
        <ele>-1.080</ele>
        <time>1970-01-01T04:42:16Z</time>
      </trkpt>
      <trkpt lat="40.201939" lon="0.238280">
        <ele>-1.081</ele>
        <time>1970-01-01T04:42:17Z</time>
      </trkpt>
      <trkpt lat="40.201907" lon="0.238218">
        <ele>-1.143</ele>
        <time>1970-01-01T04:42:18Z</time>
      </trkpt>
      <trkpt lat="40.201877" lon="0.238155">
        <ele>-1.164</ele>
        <time>1970-01-01T04:42:19Z</time>
      </trkpt>
      <trkpt lat="40.201842" lon="0.238098">
        <ele>-1.110</ele>
        <time>1970-01-01T04:42:20Z</time>
      </trkpt>
      <trkpt lat="40.201809" lon="0.238036">
        <ele>-0.908</ele>
        <time>1970-01-01T04:42:21Z</time>
      </trkpt>
      <trkpt lat="40.201779" lon="0.237974">
        <ele>-0.731</ele>
        <time>1970-01-01T04:42:22Z</time>
      </trkpt>
      <trkpt lat="40.201749" lon="0.237912">
        <ele>-0.588</ele>
        <time>1970-01-01T04:42:23Z</time>
      </trkpt>
      <trkpt lat="40.201720" lon="0.237849">
        <ele>-0.319</ele>
        <time>1970-01-01T04:42:24Z</time>
      </trkpt>
      <trkpt lat="40.201688" lon="0.237787">
        <ele>-0.062</ele>
        <time>1970-01-01T04:42:25Z</time>
      </trkpt>
      <trkpt lat="40.201654" lon="0.237725">
        <ele>-0.092</ele>
        <time>1970-01-01T04:42:26Z</time>
      </trkpt>
      <trkpt lat="40.201621" lon="0.237663">
        <ele>-0.048</ele>
        <time>1970-01-01T04:42:27Z</time>
      </trkpt>
      <trkpt lat="40.201588" lon="0.237597">
        <ele>0.162</ele>
        <time>1970-01-01T04:42:28Z</time>
      </trkpt>
      <trkpt lat="40.201556" lon="0.237531">
        <ele>0.333</ele>
        <time>1970-01-01T04:42:29Z</time>
      </trkpt>
      <trkpt lat="40.201524" lon="0.237466">
        <ele>0.642</ele>
        <time>1970-01-01T04:42:30Z</time>
      </trkpt>
      <trkpt lat="40.201492" lon="0.237401">
        <ele>0.822</ele>
        <time>1970-01-01T04:42:31Z</time>
      </trkpt>
      <trkpt lat="40.201461" lon="0.237334">
        <ele>0.914</ele>
        <time>1970-01-01T04:42:32Z</time>
      </trkpt>
      <trkpt lat="40.201435" lon="0.237262">
        <ele>1.008</ele>
        <time>1970-01-01T04:42:33Z</time>
      </trkpt>
      <trkpt lat="40.201407" lon="0.237192">
        <ele>0.971</ele>
        <time>1970-01-01T04:42:34Z</time>
      </trkpt>
      <trkpt lat="40.201379" lon="0.237121">
        <ele>0.728</ele>
        <time>1970-01-01T04:42:35Z</time>
      </trkpt>
      <trkpt lat="40.201347" lon="0.237054">
        <ele>0.599</ele>
        <time>1970-01-01T04:42:36Z</time>
      </trkpt>
      <trkpt lat="40.201314" lon="0.236986">
        <ele>0.472</ele>
        <time>1970-01-01T04:42:37Z</time>
      </trkpt>
      <trkpt lat="40.201281" lon="0.236918">
        <ele>0.482</ele>
        <time>1970-01-01T04:42:38Z</time>
      </trkpt>
      <trkpt lat="40.201251" lon="0.236848">
        <ele>0.538</ele>
        <time>1970-01-01T04:42:39Z</time>
      </trkpt>
      <trkpt lat="40.201228" lon="0.236775">
        <ele>0.622</ele>
        <time>1970-01-01T04:42:40Z</time>
      </trkpt>
      <trkpt lat="40.201208" lon="0.236699">
        <ele>0.743</ele>
        <time>1970-01-01T04:42:41Z</time>
      </trkpt>
      <trkpt lat="40.201198" lon="0.236622">
        <ele>0.791</ele>
        <time>1970-01-01T04:42:42Z</time>
      </trkpt>
      <trkpt lat="40.201188" lon="0.236542">
        <ele>0.881</ele>
        <time>1970-01-01T04:42:43Z</time>
      </trkpt>
      <trkpt lat="40.201178" lon="0.236463">
        <ele>0.919</ele>
        <time>1970-01-01T04:42:44Z</time>
      </trkpt>
      <trkpt lat="40.201168" lon="0.236383">
        <ele>1.008</ele>
        <time>1970-01-01T04:42:45Z</time>
      </trkpt>
      <trkpt lat="40.201157" lon="0.236302">
        <ele>1.146</ele>
        <time>1970-01-01T04:42:46Z</time>
      </trkpt>
      <trkpt lat="40.201144" lon="0.236219">
        <ele>1.183</ele>
        <time>1970-01-01T04:42:47Z</time>
      </trkpt>
      <trkpt lat="40.201128" lon="0.236138">
        <ele>1.134</ele>
        <time>1970-01-01T04:42:48Z</time>
      </trkpt>
      <trkpt lat="40.201105" lon="0.236057">
        <ele>1.077</ele>
        <time>1970-01-01T04:42:49Z</time>
      </trkpt>
      <trkpt lat="40.201076" lon="0.235980">
        <ele>0.987</ele>
        <time>1970-01-01T04:42:50Z</time>
      </trkpt>
      <trkpt lat="40.201045" lon="0.235904">
        <ele>0.813</ele>
        <time>1970-01-01T04:42:51Z</time>
      </trkpt>
      <trkpt lat="40.201011" lon="0.235829">
        <ele>0.787</ele>
        <time>1970-01-01T04:42:52Z</time>
      </trkpt>
      <trkpt lat="40.200975" lon="0.235756">
        <ele>0.868</ele>
        <time>1970-01-01T04:42:53Z</time>
      </trkpt>
      <trkpt lat="40.200938" lon="0.235686">
        <ele>0.935</ele>
        <time>1970-01-01T04:42:54Z</time>
      </trkpt>
      <trkpt lat="40.200903" lon="0.235615">
        <ele>1.086</ele>
        <time>1970-01-01T04:42:55Z</time>
      </trkpt>
      <trkpt lat="40.200865" lon="0.235546">
        <ele>1.114</ele>
        <time>1970-01-01T04:42:56Z</time>
      </trkpt>
      <trkpt lat="40.200826" lon="0.235475">
        <ele>1.008</ele>
        <time>1970-01-01T04:42:57Z</time>
      </trkpt>
      <trkpt lat="40.200787" lon="0.235404">
        <ele>0.960</ele>
        <time>1970-01-01T04:42:58Z</time>
      </trkpt>
      <trkpt lat="40.200746" lon="0.235336">
        <ele>0.947</ele>
        <time>1970-01-01T04:42:59Z</time>
      </trkpt>
      <trkpt lat="40.200706" lon="0.235266">
        <ele>1.028</ele>
        <time>1970-01-01T04:43:00Z</time>
      </trkpt>
      <trkpt lat="40.200666" lon="0.235196">
        <ele>1.281</ele>
        <time>1970-01-01T04:43:01Z</time>
      </trkpt>
      <trkpt lat="40.200624" lon="0.235127">
        <ele>1.491</ele>
        <time>1970-01-01T04:43:02Z</time>
      </trkpt>
      <trkpt lat="40.200583" lon="0.235059">
        <ele>1.727</ele>
        <time>1970-01-01T04:43:03Z</time>
      </trkpt>
      <trkpt lat="40.200544" lon="0.234990">
        <ele>2.081</ele>
        <time>1970-01-01T04:43:04Z</time>
      </trkpt>
      <trkpt lat="40.200506" lon="0.234923">
        <ele>2.022</ele>
        <time>1970-01-01T04:43:05Z</time>
      </trkpt>
      <trkpt lat="40.200465" lon="0.234854">
        <ele>2.057</ele>
        <time>1970-01-01T04:43:06Z</time>
      </trkpt>
      <trkpt lat="40.200425" lon="0.234784">
        <ele>2.000</ele>
        <time>1970-01-01T04:43:07Z</time>
      </trkpt>
      <trkpt lat="40.200387" lon="0.234711">
        <ele>2.020</ele>
        <time>1970-01-01T04:43:08Z</time>
      </trkpt>
      <trkpt lat="40.200348" lon="0.234639">
        <ele>1.908</ele>
        <time>1970-01-01T04:43:09Z</time>
      </trkpt>
      <trkpt lat="40.200313" lon="0.234564">
        <ele>1.962</ele>
        <time>1970-01-01T04:43:10Z</time>
      </trkpt>
      <trkpt lat="40.200280" lon="0.234488">
        <ele>2.049</ele>
        <time>1970-01-01T04:43:11Z</time>
      </trkpt>
      <trkpt lat="40.200251" lon="0.234409">
        <ele>2.140</ele>
        <time>1970-01-01T04:43:12Z</time>
      </trkpt>
      <trkpt lat="40.200226" lon="0.234327">
        <ele>2.143</ele>
        <time>1970-01-01T04:43:13Z</time>
      </trkpt>
      <trkpt lat="40.200202" lon="0.234245">
        <ele>2.153</ele>
        <time>1970-01-01T04:43:14Z</time>
      </trkpt>
      <trkpt lat="40.200177" lon="0.234163">
        <ele>2.099</ele>
        <time>1970-01-01T04:43:15Z</time>
      </trkpt>
      <trkpt lat="40.200152" lon="0.234082">
        <ele>1.953</ele>
        <time>1970-01-01T04:43:16Z</time>
      </trkpt>
      <trkpt lat="40.200124" lon="0.234002">
        <ele>1.714</ele>
        <time>1970-01-01T04:43:17Z</time>
      </trkpt>
      <trkpt lat="40.200094" lon="0.233925">
        <ele>1.458</ele>
        <time>1970-01-01T04:43:18Z</time>
      </trkpt>
      <trkpt lat="40.200061" lon="0.233849">
        <ele>1.252</ele>
        <time>1970-01-01T04:43:19Z</time>
      </trkpt>
      <trkpt lat="40.200027" lon="0.233775">
        <ele>1.117</ele>
        <time>1970-01-01T04:43:20Z</time>
      </trkpt>
      <trkpt lat="40.199994" lon="0.233702">
        <ele>1.008</ele>
        <time>1970-01-01T04:43:21Z</time>
      </trkpt>
      <trkpt lat="40.199961" lon="0.233629">
        <ele>0.762</ele>
        <time>1970-01-01T04:43:22Z</time>
      </trkpt>
      <trkpt lat="40.199933" lon="0.233553">
        <ele>0.439</ele>
        <time>1970-01-01T04:43:23Z</time>
      </trkpt>
      <trkpt lat="40.199914" lon="0.233474">
        <ele>0.220</ele>
        <time>1970-01-01T04:43:24Z</time>
      </trkpt>
      <trkpt lat="40.199901" lon="0.233392">
        <ele>0.123</ele>
        <time>1970-01-01T04:43:25Z</time>
      </trkpt>
      <trkpt lat="40.199889" lon="0.233311">
        <ele>0.093</ele>
        <time>1970-01-01T04:43:26Z</time>
      </trkpt>
      <trkpt lat="40.199875" lon="0.233229">
        <ele>0.059</ele>
        <time>1970-01-01T04:43:27Z</time>
      </trkpt>
      <trkpt lat="40.199863" lon="0.233149">
        <ele>0.013</ele>
        <time>1970-01-01T04:43:28Z</time>
      </trkpt>
      <trkpt lat="40.199850" lon="0.233067">
        <ele>0.034</ele>
        <time>1970-01-01T04:43:29Z</time>
      </trkpt>
      <trkpt lat="40.199837" lon="0.232986">
        <ele>0.067</ele>
        <time>1970-01-01T04:43:30Z</time>
      </trkpt>
      <trkpt lat="40.199824" lon="0.232905">
        <ele>0.081</ele>
        <time>1970-01-01T04:43:31Z</time>
      </trkpt>
      <trkpt lat="40.199810" lon="0.232825">
        <ele>0.019</ele>
        <time>1970-01-01T04:43:32Z</time>
      </trkpt>
      <trkpt lat="40.199796" lon="0.232745">
        <ele>0.008</ele>
        <time>1970-01-01T04:43:33Z</time>
      </trkpt>
      <trkpt lat="40.199781" lon="0.232667">
        <ele>0.093</ele>
        <time>1970-01-01T04:43:34Z</time>
      </trkpt>
      <trkpt lat="40.199767" lon="0.232591">
        <ele>0.020</ele>
        <time>1970-01-01T04:43:35Z</time>
      </trkpt>
      <trkpt lat="40.199752" lon="0.232517">
        <ele>0.061</ele>
        <time>1970-01-01T04:43:36Z</time>
      </trkpt>
      <trkpt lat="40.199735" lon="0.232447">
        <ele>0.214</ele>
        <time>1970-01-01T04:43:37Z</time>
      </trkpt>
      <trkpt lat="40.199715" lon="0.232381">
        <ele>0.424</ele>
        <time>1970-01-01T04:43:38Z</time>
      </trkpt>
      <trkpt lat="40.199698" lon="0.232317">
        <ele>0.790</ele>
        <time>1970-01-01T04:43:39Z</time>
      </trkpt>
      <trkpt lat="40.199691" lon="0.232265">
        <ele>0.884</ele>
        <time>1970-01-01T04:43:40Z</time>
      </trkpt>
      <trkpt lat="40.199690" lon="0.232231">
        <ele>1.045</ele>
        <time>1970-01-01T04:43:41Z</time>
      </trkpt>
      <trkpt lat="40.199691" lon="0.232211">
        <ele>1.068</ele>
        <time>1970-01-01T04:43:42Z</time>
      </trkpt>
      <trkpt lat="40.199690" lon="0.232199">
        <ele>0.942</ele>
        <time>1970-01-01T04:43:43Z</time>
      </trkpt>
      <trkpt lat="40.199690" lon="0.232187">
        <ele>0.926</ele>
        <time>1970-01-01T04:43:44Z</time>
      </trkpt>
      <trkpt lat="40.199697" lon="0.232167">
        <ele>0.808</ele>
        <time>1970-01-01T04:43:45Z</time>
      </trkpt>
      <trkpt lat="40.199711" lon="0.232142">
        <ele>0.743</ele>
        <time>1970-01-01T04:43:46Z</time>
      </trkpt>
      <trkpt lat="40.199733" lon="0.232117">
        <ele>0.670</ele>
        <time>1970-01-01T04:43:47Z</time>
      </trkpt>
      <trkpt lat="40.199764" lon="0.232091">
        <ele>0.421</ele>
        <time>1970-01-01T04:43:48Z</time>
      </trkpt>
      <trkpt lat="40.199802" lon="0.232064">
        <ele>0.384</ele>
        <time>1970-01-01T04:43:49Z</time>
      </trkpt>
      <trkpt lat="40.199847" lon="0.232035">
        <ele>0.244</ele>
        <time>1970-01-01T04:43:50Z</time>
      </trkpt>
      <trkpt lat="40.199896" lon="0.232007">
        <ele>0.130</ele>
        <time>1970-01-01T04:43:51Z</time>
      </trkpt>
      <trkpt lat="40.199947" lon="0.231981">
        <ele>0.014</ele>
        <time>1970-01-01T04:43:52Z</time>
      </trkpt>
      <trkpt lat="40.199997" lon="0.231952">
        <ele>0.065</ele>
        <time>1970-01-01T04:43:53Z</time>
      </trkpt>
      <trkpt lat="40.200046" lon="0.231919">
        <ele>0.334</ele>
        <time>1970-01-01T04:43:54Z</time>
      </trkpt>
      <trkpt lat="40.200095" lon="0.231883">
        <ele>0.655</ele>
        <time>1970-01-01T04:43:55Z</time>
      </trkpt>
      <trkpt lat="40.200146" lon="0.231850">
        <ele>0.910</ele>
        <time>1970-01-01T04:43:56Z</time>
      </trkpt>
      <trkpt lat="40.200199" lon="0.231815">
        <ele>1.208</ele>
        <time>1970-01-01T04:43:57Z</time>
      </trkpt>
      <trkpt lat="40.200251" lon="0.231779">
        <ele>1.580</ele>
        <time>1970-01-01T04:43:58Z</time>
      </trkpt>
      <trkpt lat="40.200301" lon="0.231742">
        <ele>1.737</ele>
        <time>1970-01-01T04:43:59Z</time>
      </trkpt>
      <trkpt lat="40.200351" lon="0.231703">
        <ele>1.918</ele>
        <time>1970-01-01T04:44:00Z</time>
      </trkpt>
      <trkpt lat="40.200402" lon="0.231665">
        <ele>2.011</ele>
        <time>1970-01-01T04:44:01Z</time>
      </trkpt>
      <trkpt lat="40.200451" lon="0.231629">
        <ele>2.151</ele>
        <time>1970-01-01T04:44:02Z</time>
      </trkpt>
      <trkpt lat="40.200500" lon="0.231595">
        <ele>2.367</ele>
        <time>1970-01-01T04:44:03Z</time>
      </trkpt>
      <trkpt lat="40.200544" lon="0.231560">
        <ele>2.421</ele>
        <time>1970-01-01T04:44:04Z</time>
      </trkpt>
      <trkpt lat="40.200584" lon="0.231522">
        <ele>2.572</ele>
        <time>1970-01-01T04:44:05Z</time>
      </trkpt>
      <trkpt lat="40.200616" lon="0.231473">
        <ele>2.573</ele>
        <time>1970-01-01T04:44:06Z</time>
      </trkpt>
      <trkpt lat="40.200623" lon="0.231411">
        <ele>2.785</ele>
        <time>1970-01-01T04:44:07Z</time>
      </trkpt>
      <trkpt lat="40.200606" lon="0.231353">
        <ele>2.813</ele>
        <time>1970-01-01T04:44:08Z</time>
      </trkpt>
      <trkpt lat="40.200573" lon="0.231311">
        <ele>2.908</ele>
        <time>1970-01-01T04:44:09Z</time>
      </trkpt>
      <trkpt lat="40.200524" lon="0.231281">
        <ele>3.064</ele>
        <time>1970-01-01T04:44:10Z</time>
      </trkpt>
      <trkpt lat="40.200471" lon="0.231250">
        <ele>3.091</ele>
        <time>1970-01-01T04:44:11Z</time>
      </trkpt>
      <trkpt lat="40.200423" lon="0.231205">
        <ele>3.032</ele>
        <time>1970-01-01T04:44:12Z</time>
      </trkpt>
      <trkpt lat="40.200381" lon="0.231149">
        <ele>3.085</ele>
        <time>1970-01-01T04:44:13Z</time>
      </trkpt>
      <trkpt lat="40.200342" lon="0.231090">
        <ele>3.015</ele>
        <time>1970-01-01T04:44:14Z</time>
      </trkpt>
      <trkpt lat="40.200304" lon="0.231030">
        <ele>3.041</ele>
        <time>1970-01-01T04:44:15Z</time>
      </trkpt>
      <trkpt lat="40.200266" lon="0.230970">
        <ele>3.095</ele>
        <time>1970-01-01T04:44:16Z</time>
      </trkpt>
      <trkpt lat="40.200229" lon="0.230911">
        <ele>3.076</ele>
        <time>1970-01-01T04:44:17Z</time>
      </trkpt>
      <trkpt lat="40.200190" lon="0.230853">
        <ele>3.068</ele>
        <time>1970-01-01T04:44:18Z</time>
      </trkpt>
      <trkpt lat="40.200151" lon="0.230794">
        <ele>3.042</ele>
        <time>1970-01-01T04:44:19Z</time>
      </trkpt>
      <trkpt lat="40.200111" lon="0.230736">
        <ele>3.026</ele>
        <time>1970-01-01T04:44:20Z</time>
      </trkpt>
      <trkpt lat="40.200074" lon="0.230678">
        <ele>3.008</ele>
        <time>1970-01-01T04:44:21Z</time>
      </trkpt>
      <trkpt lat="40.200038" lon="0.230619">
        <ele>3.033</ele>
        <time>1970-01-01T04:44:22Z</time>
      </trkpt>
      <trkpt lat="40.200001" lon="0.230559">
        <ele>3.020</ele>
        <time>1970-01-01T04:44:23Z</time>
      </trkpt>
      <trkpt lat="40.199962" lon="0.230501">
        <ele>2.951</ele>
        <time>1970-01-01T04:44:24Z</time>
      </trkpt>
      <trkpt lat="40.199923" lon="0.230444">
        <ele>2.794</ele>
        <time>1970-01-01T04:44:25Z</time>
      </trkpt>
      <trkpt lat="40.199884" lon="0.230387">
        <ele>2.664</ele>
        <time>1970-01-01T04:44:26Z</time>
      </trkpt>
      <trkpt lat="40.199847" lon="0.230330">
        <ele>2.460</ele>
        <time>1970-01-01T04:44:27Z</time>
      </trkpt>
      <trkpt lat="40.199812" lon="0.230270">
        <ele>2.394</ele>
        <time>1970-01-01T04:44:28Z</time>
      </trkpt>
      <trkpt lat="40.199776" lon="0.230211">
        <ele>2.235</ele>
        <time>1970-01-01T04:44:29Z</time>
      </trkpt>
      <trkpt lat="40.199741" lon="0.230152">
        <ele>2.195</ele>
        <time>1970-01-01T04:44:30Z</time>
      </trkpt>
      <trkpt lat="40.199705" lon="0.230093">
        <ele>2.049</ele>
        <time>1970-01-01T04:44:31Z</time>
      </trkpt>
      <trkpt lat="40.199669" lon="0.230033">
        <ele>1.823</ele>
        <time>1970-01-01T04:44:32Z</time>
      </trkpt>
      <trkpt lat="40.199634" lon="0.229973">
        <ele>1.608</ele>
        <time>1970-01-01T04:44:33Z</time>
      </trkpt>
      <trkpt lat="40.199599" lon="0.229912">
        <ele>1.466</ele>
        <time>1970-01-01T04:44:34Z</time>
      </trkpt>
      <trkpt lat="40.199565" lon="0.229852">
        <ele>1.243</ele>
        <time>1970-01-01T04:44:35Z</time>
      </trkpt>
      <trkpt lat="40.199530" lon="0.229791">
        <ele>1.174</ele>
        <time>1970-01-01T04:44:36Z</time>
      </trkpt>
      <trkpt lat="40.199495" lon="0.229731">
        <ele>1.067</ele>
        <time>1970-01-01T04:44:37Z</time>
      </trkpt>
      <trkpt lat="40.199461" lon="0.229671">
        <ele>1.087</ele>
        <time>1970-01-01T04:44:38Z</time>
      </trkpt>
      <trkpt lat="40.199426" lon="0.229612">
        <ele>1.043</ele>
        <time>1970-01-01T04:44:39Z</time>
      </trkpt>
      <trkpt lat="40.199392" lon="0.229554">
        <ele>1.197</ele>
        <time>1970-01-01T04:44:40Z</time>
      </trkpt>
      <trkpt lat="40.199356" lon="0.229497">
        <ele>1.318</ele>
        <time>1970-01-01T04:44:41Z</time>
      </trkpt>
      <trkpt lat="40.199320" lon="0.229439">
        <ele>1.596</ele>
        <time>1970-01-01T04:44:42Z</time>
      </trkpt>
      <trkpt lat="40.199285" lon="0.229382">
        <ele>1.731</ele>
        <time>1970-01-01T04:44:43Z</time>
      </trkpt>
      <trkpt lat="40.199250" lon="0.229323">
        <ele>1.824</ele>
        <time>1970-01-01T04:44:44Z</time>
      </trkpt>
      <trkpt lat="40.199216" lon="0.229265">
        <ele>1.908</ele>
        <time>1970-01-01T04:44:45Z</time>
      </trkpt>
      <trkpt lat="40.199181" lon="0.229207">
        <ele>2.086</ele>
        <time>1970-01-01T04:44:46Z</time>
      </trkpt>
      <trkpt lat="40.199146" lon="0.229149">
        <ele>2.013</ele>
        <time>1970-01-01T04:44:47Z</time>
      </trkpt>
      <trkpt lat="40.199110" lon="0.229090">
        <ele>2.034</ele>
        <time>1970-01-01T04:44:48Z</time>
      </trkpt>
      <trkpt lat="40.199074" lon="0.229030">
        <ele>2.037</ele>
        <time>1970-01-01T04:44:49Z</time>
      </trkpt>
      <trkpt lat="40.199038" lon="0.228970">
        <ele>2.067</ele>
        <time>1970-01-01T04:44:50Z</time>
      </trkpt>
      <trkpt lat="40.199002" lon="0.228913">
        <ele>2.073</ele>
        <time>1970-01-01T04:44:51Z</time>
      </trkpt>
      <trkpt lat="40.198966" lon="0.228855">
        <ele>1.917</ele>
        <time>1970-01-01T04:44:52Z</time>
      </trkpt>
      <trkpt lat="40.198930" lon="0.228797">
        <ele>1.768</ele>
        <time>1970-01-01T04:44:53Z</time>
      </trkpt>
      <trkpt lat="40.198895" lon="0.228738">
        <ele>1.592</ele>
        <time>1970-01-01T04:44:54Z</time>
      </trkpt>
      <trkpt lat="40.198858" lon="0.228681">
        <ele>1.173</ele>
        <time>1970-01-01T04:44:55Z</time>
      </trkpt>
      <trkpt lat="40.198825" lon="0.228619">
        <ele>0.820</ele>
        <time>1970-01-01T04:44:56Z</time>
      </trkpt>
      <trkpt lat="40.198802" lon="0.228550">
        <ele>0.608</ele>
        <time>1970-01-01T04:44:57Z</time>
      </trkpt>
      <trkpt lat="40.198797" lon="0.228475">
        <ele>0.576</ele>
        <time>1970-01-01T04:44:58Z</time>
      </trkpt>
      <trkpt lat="40.198791" lon="0.228399">
        <ele>0.453</ele>
        <time>1970-01-01T04:44:59Z</time>
      </trkpt>
      <trkpt lat="40.198770" lon="0.228329">
        <ele>0.284</ele>
        <time>1970-01-01T04:45:00Z</time>
      </trkpt>
      <trkpt lat="40.198736" lon="0.228267">
        <ele>0.087</ele>
        <time>1970-01-01T04:45:01Z</time>
      </trkpt>
      <trkpt lat="40.198687" lon="0.228227">
        <ele>-0.247</ele>
        <time>1970-01-01T04:45:02Z</time>
      </trkpt>
      <trkpt lat="40.198629" lon="0.228213">
        <ele>-0.523</ele>
        <time>1970-01-01T04:45:03Z</time>
      </trkpt>
      <trkpt lat="40.198567" lon="0.228222">
        <ele>-0.687</ele>
        <time>1970-01-01T04:45:04Z</time>
      </trkpt>
      <trkpt lat="40.198505" lon="0.228240">
        <ele>-0.748</ele>
        <time>1970-01-01T04:45:05Z</time>
      </trkpt>
      <trkpt lat="40.198443" lon="0.228252">
        <ele>-0.742</ele>
        <time>1970-01-01T04:45:06Z</time>
      </trkpt>
      <trkpt lat="40.198382" lon="0.228251">
        <ele>-0.722</ele>
        <time>1970-01-01T04:45:07Z</time>
      </trkpt>
      <trkpt lat="40.198322" lon="0.228237">
        <ele>-0.614</ele>
        <time>1970-01-01T04:45:08Z</time>
      </trkpt>
      <trkpt lat="40.198263" lon="0.228214">
        <ele>-0.408</ele>
        <time>1970-01-01T04:45:09Z</time>
      </trkpt>
      <trkpt lat="40.198205" lon="0.228187">
        <ele>-0.381</ele>
        <time>1970-01-01T04:45:10Z</time>
      </trkpt>
      <trkpt lat="40.198149" lon="0.228157">
        <ele>-0.178</ele>
        <time>1970-01-01T04:45:11Z</time>
      </trkpt>
      <trkpt lat="40.198095" lon="0.228121">
        <ele>-0.079</ele>
        <time>1970-01-01T04:45:12Z</time>
      </trkpt>
      <trkpt lat="40.198043" lon="0.228079">
        <ele>0.112</ele>
        <time>1970-01-01T04:45:13Z</time>
      </trkpt>
      <trkpt lat="40.197994" lon="0.228031">
        <ele>0.532</ele>
        <time>1970-01-01T04:45:14Z</time>
      </trkpt>
      <trkpt lat="40.197946" lon="0.227979">
        <ele>0.858</ele>
        <time>1970-01-01T04:45:15Z</time>
      </trkpt>
      <trkpt lat="40.197900" lon="0.227924">
        <ele>1.152</ele>
        <time>1970-01-01T04:45:16Z</time>
      </trkpt>
      <trkpt lat="40.197855" lon="0.227867">
        <ele>1.153</ele>
        <time>1970-01-01T04:45:17Z</time>
      </trkpt>
      <trkpt lat="40.197810" lon="0.227807">
        <ele>1.157</ele>
        <time>1970-01-01T04:45:18Z</time>
      </trkpt>
      <trkpt lat="40.197766" lon="0.227744">
        <ele>1.000</ele>
        <time>1970-01-01T04:45:19Z</time>
      </trkpt>
      <trkpt lat="40.197722" lon="0.227678">
        <ele>1.120</ele>
        <time>1970-01-01T04:45:20Z</time>
      </trkpt>
      <trkpt lat="40.197682" lon="0.227606">
        <ele>1.108</ele>
        <time>1970-01-01T04:45:21Z</time>
      </trkpt>
      <trkpt lat="40.197649" lon="0.227529">
        <ele>1.072</ele>
        <time>1970-01-01T04:45:22Z</time>
      </trkpt>
      <trkpt lat="40.197616" lon="0.227456">
        <ele>0.869</ele>
        <time>1970-01-01T04:45:23Z</time>
      </trkpt>
      <trkpt lat="40.197585" lon="0.227386">
        <ele>0.670</ele>
        <time>1970-01-01T04:45:24Z</time>
      </trkpt>
      <trkpt lat="40.197550" lon="0.227320">
        <ele>0.433</ele>
        <time>1970-01-01T04:45:25Z</time>
      </trkpt>
      <trkpt lat="40.197513" lon="0.227259">
        <ele>0.133</ele>
        <time>1970-01-01T04:45:26Z</time>
      </trkpt>
      <trkpt lat="40.197474" lon="0.227201">
        <ele>0.139</ele>
        <time>1970-01-01T04:45:27Z</time>
      </trkpt>
      <trkpt lat="40.197436" lon="0.227140">
        <ele>0.363</ele>
        <time>1970-01-01T04:45:28Z</time>
      </trkpt>
      <trkpt lat="40.197399" lon="0.227077">
        <ele>0.634</ele>
        <time>1970-01-01T04:45:29Z</time>
      </trkpt>
      <trkpt lat="40.197364" lon="0.227013">
        <ele>0.921</ele>
        <time>1970-01-01T04:45:30Z</time>
      </trkpt>
      <trkpt lat="40.197331" lon="0.226949">
        <ele>1.241</ele>
        <time>1970-01-01T04:45:31Z</time>
      </trkpt>
      <trkpt lat="40.197296" lon="0.226883">
        <ele>1.605</ele>
        <time>1970-01-01T04:45:32Z</time>
      </trkpt>
      <trkpt lat="40.197259" lon="0.226819">
        <ele>2.108</ele>
        <time>1970-01-01T04:45:33Z</time>
      </trkpt>
      <trkpt lat="40.197221" lon="0.226756">
        <ele>2.779</ele>
        <time>1970-01-01T04:45:34Z</time>
      </trkpt>
      <trkpt lat="40.197184" lon="0.226690">
        <ele>3.396</ele>
        <time>1970-01-01T04:45:35Z</time>
      </trkpt>
      <trkpt lat="40.197148" lon="0.226624">
        <ele>3.887</ele>
        <time>1970-01-01T04:45:36Z</time>
      </trkpt>
      <trkpt lat="40.197110" lon="0.226559">
        <ele>4.460</ele>
        <time>1970-01-01T04:45:37Z</time>
      </trkpt>
      <trkpt lat="40.197073" lon="0.226492">
        <ele>4.950</ele>
        <time>1970-01-01T04:45:38Z</time>
      </trkpt>
      <trkpt lat="40.197033" lon="0.226427">
        <ele>5.696</ele>
        <time>1970-01-01T04:45:39Z</time>
      </trkpt>
      <trkpt lat="40.196993" lon="0.226363">
        <ele>6.130</ele>
        <time>1970-01-01T04:45:40Z</time>
      </trkpt>
      <trkpt lat="40.196954" lon="0.226295">
        <ele>6.271</ele>
        <time>1970-01-01T04:45:41Z</time>
      </trkpt>
      <trkpt lat="40.196914" lon="0.226230">
        <ele>5.991</ele>
        <time>1970-01-01T04:45:42Z</time>
      </trkpt>
      <trkpt lat="40.196874" lon="0.226164">
        <ele>5.481</ele>
        <time>1970-01-01T04:45:43Z</time>
      </trkpt>
      <trkpt lat="40.196834" lon="0.226097">
        <ele>4.919</ele>
        <time>1970-01-01T04:45:44Z</time>
      </trkpt>
      <trkpt lat="40.196796" lon="0.226028">
        <ele>4.608</ele>
        <time>1970-01-01T04:45:45Z</time>
      </trkpt>
      <trkpt lat="40.196762" lon="0.225958">
        <ele>4.386</ele>
        <time>1970-01-01T04:45:46Z</time>
      </trkpt>
      <trkpt lat="40.196730" lon="0.225886">
        <ele>4.033</ele>
        <time>1970-01-01T04:45:47Z</time>
      </trkpt>
      <trkpt lat="40.196697" lon="0.225813">
        <ele>3.854</ele>
        <time>1970-01-01T04:45:48Z</time>
      </trkpt>
      <trkpt lat="40.196661" lon="0.225743">
        <ele>3.757</ele>
        <time>1970-01-01T04:45:49Z</time>
      </trkpt>
      <trkpt lat="40.196626" lon="0.225672">
        <ele>3.887</ele>
        <time>1970-01-01T04:45:50Z</time>
      </trkpt>
      <trkpt lat="40.196592" lon="0.225602">
        <ele>3.913</ele>
        <time>1970-01-01T04:45:51Z</time>
      </trkpt>
      <trkpt lat="40.196557" lon="0.225532">
        <ele>4.227</ele>
        <time>1970-01-01T04:45:52Z</time>
      </trkpt>
      <trkpt lat="40.196520" lon="0.225462">
        <ele>4.478</ele>
        <time>1970-01-01T04:45:53Z</time>
      </trkpt>
      <trkpt lat="40.196483" lon="0.225392">
        <ele>4.676</ele>
        <time>1970-01-01T04:45:54Z</time>
      </trkpt>
      <trkpt lat="40.196445" lon="0.225323">
        <ele>4.790</ele>
        <time>1970-01-01T04:45:55Z</time>
      </trkpt>
      <trkpt lat="40.196407" lon="0.225254">
        <ele>4.819</ele>
        <time>1970-01-01T04:45:56Z</time>
      </trkpt>
      <trkpt lat="40.196367" lon="0.225186">
        <ele>4.708</ele>
        <time>1970-01-01T04:45:57Z</time>
      </trkpt>
      <trkpt lat="40.196330" lon="0.225117">
        <ele>4.534</ele>
        <time>1970-01-01T04:45:58Z</time>
      </trkpt>
      <trkpt lat="40.196294" lon="0.225047">
        <ele>4.281</ele>
        <time>1970-01-01T04:45:59Z</time>
      </trkpt>
      <trkpt lat="40.196257" lon="0.224977">
        <ele>4.082</ele>
        <time>1970-01-01T04:46:00Z</time>
      </trkpt>
      <trkpt lat="40.196219" lon="0.224907">
        <ele>3.885</ele>
        <time>1970-01-01T04:46:01Z</time>
      </trkpt>
      <trkpt lat="40.196183" lon="0.224838">
        <ele>3.635</ele>
        <time>1970-01-01T04:46:02Z</time>
      </trkpt>
      <trkpt lat="40.196149" lon="0.224772">
        <ele>3.321</ele>
        <time>1970-01-01T04:46:03Z</time>
      </trkpt>
      <trkpt lat="40.196114" lon="0.224708">
        <ele>3.055</ele>
        <time>1970-01-01T04:46:04Z</time>
      </trkpt>
      <trkpt lat="40.196081" lon="0.224640">
        <ele>2.786</ele>
        <time>1970-01-01T04:46:05Z</time>
      </trkpt>
      <trkpt lat="40.196049" lon="0.224574">
        <ele>2.565</ele>
        <time>1970-01-01T04:46:06Z</time>
      </trkpt>
      <trkpt lat="40.196016" lon="0.224511">
        <ele>2.268</ele>
        <time>1970-01-01T04:46:07Z</time>
      </trkpt>
      <trkpt lat="40.195981" lon="0.224455">
        <ele>2.014</ele>
        <time>1970-01-01T04:46:08Z</time>
      </trkpt>
      <trkpt lat="40.195947" lon="0.224402">
        <ele>1.908</ele>
        <time>1970-01-01T04:46:09Z</time>
      </trkpt>
      <trkpt lat="40.195914" lon="0.224348">
        <ele>1.943</ele>
        <time>1970-01-01T04:46:10Z</time>
      </trkpt>
      <trkpt lat="40.195881" lon="0.224296">
        <ele>1.960</ele>
        <time>1970-01-01T04:46:11Z</time>
      </trkpt>
      <trkpt lat="40.195851" lon="0.224245">
        <ele>2.051</ele>
        <time>1970-01-01T04:46:12Z</time>
      </trkpt>
      <trkpt lat="40.195823" lon="0.224193">
        <ele>2.094</ele>
        <time>1970-01-01T04:46:13Z</time>
      </trkpt>
      <trkpt lat="40.195796" lon="0.224140">
        <ele>2.164</ele>
        <time>1970-01-01T04:46:14Z</time>
      </trkpt>
      <trkpt lat="40.195775" lon="0.224090">
        <ele>2.270</ele>
        <time>1970-01-01T04:46:15Z</time>
      </trkpt>
      <trkpt lat="40.195762" lon="0.224042">
        <ele>2.344</ele>
        <time>1970-01-01T04:46:16Z</time>
      </trkpt>
      <trkpt lat="40.195760" lon="0.223994">
        <ele>2.515</ele>
        <time>1970-01-01T04:46:17Z</time>
      </trkpt>
      <trkpt lat="40.195772" lon="0.223944">
        <ele>2.669</ele>
        <time>1970-01-01T04:46:18Z</time>
      </trkpt>
      <trkpt lat="40.195798" lon="0.223901">
        <ele>2.804</ele>
        <time>1970-01-01T04:46:19Z</time>
      </trkpt>
      <trkpt lat="40.195836" lon="0.223855">
        <ele>2.924</ele>
        <time>1970-01-01T04:46:20Z</time>
      </trkpt>
      <trkpt lat="40.195876" lon="0.223807">
        <ele>2.408</ele>
        <time>1970-01-01T04:46:21Z</time>
      </trkpt>
      <trkpt lat="40.195918" lon="0.223756">
        <ele>2.183</ele>
        <time>1970-01-01T04:46:22Z</time>
      </trkpt>
      <trkpt lat="40.195960" lon="0.223706">
        <ele>1.730</ele>
        <time>1970-01-01T04:46:23Z</time>
      </trkpt>
      <trkpt lat="40.196003" lon="0.223656">
        <ele>1.521</ele>
        <time>1970-01-01T04:46:24Z</time>
      </trkpt>
      <trkpt lat="40.196046" lon="0.223602">
        <ele>1.294</ele>
        <time>1970-01-01T04:46:25Z</time>
      </trkpt>
      <trkpt lat="40.196090" lon="0.223548">
        <ele>1.174</ele>
        <time>1970-01-01T04:46:26Z</time>
      </trkpt>
      <trkpt lat="40.196133" lon="0.223495">
        <ele>1.080</ele>
        <time>1970-01-01T04:46:27Z</time>
      </trkpt>
      <trkpt lat="40.196180" lon="0.223441">
        <ele>0.964</ele>
        <time>1970-01-01T04:46:28Z</time>
      </trkpt>
      <trkpt lat="40.196226" lon="0.223389">
        <ele>0.975</ele>
        <time>1970-01-01T04:46:29Z</time>
      </trkpt>
      <trkpt lat="40.196274" lon="0.223334">
        <ele>1.023</ele>
        <time>1970-01-01T04:46:30Z</time>
      </trkpt>
      <trkpt lat="40.196319" lon="0.223283">
        <ele>1.283</ele>
        <time>1970-01-01T04:46:31Z</time>
      </trkpt>
      <trkpt lat="40.196364" lon="0.223230">
        <ele>1.411</ele>
        <time>1970-01-01T04:46:32Z</time>
      </trkpt>
      <trkpt lat="40.196411" lon="0.223181">
        <ele>1.508</ele>
        <time>1970-01-01T04:46:33Z</time>
      </trkpt>
      <trkpt lat="40.196459" lon="0.223132">
        <ele>1.729</ele>
        <time>1970-01-01T04:46:34Z</time>
      </trkpt>
      <trkpt lat="40.196507" lon="0.223082">
        <ele>1.916</ele>
        <time>1970-01-01T04:46:35Z</time>
      </trkpt>
      <trkpt lat="40.196554" lon="0.223032">
        <ele>2.147</ele>
        <time>1970-01-01T04:46:36Z</time>
      </trkpt>
      <trkpt lat="40.196600" lon="0.222977">
        <ele>2.470</ele>
        <time>1970-01-01T04:46:37Z</time>
      </trkpt>
      <trkpt lat="40.196645" lon="0.222921">
        <ele>2.580</ele>
        <time>1970-01-01T04:46:38Z</time>
      </trkpt>
      <trkpt lat="40.196691" lon="0.222868">
        <ele>2.516</ele>
        <time>1970-01-01T04:46:39Z</time>
      </trkpt>
      <trkpt lat="40.196737" lon="0.222811">
        <ele>2.430</ele>
        <time>1970-01-01T04:46:40Z</time>
      </trkpt>
      <trkpt lat="40.196786" lon="0.222756">
        <ele>2.231</ele>
        <time>1970-01-01T04:46:41Z</time>
      </trkpt>
      <trkpt lat="40.196834" lon="0.222701">
        <ele>2.145</ele>
        <time>1970-01-01T04:46:42Z</time>
      </trkpt>
      <trkpt lat="40.196882" lon="0.222646">
        <ele>1.947</ele>
        <time>1970-01-01T04:46:43Z</time>
      </trkpt>
      <trkpt lat="40.196930" lon="0.222591">
        <ele>1.811</ele>
        <time>1970-01-01T04:46:44Z</time>
      </trkpt>
      <trkpt lat="40.196978" lon="0.222533">
        <ele>1.708</ele>
        <time>1970-01-01T04:46:45Z</time>
      </trkpt>
      <trkpt lat="40.197024" lon="0.222473">
        <ele>1.921</ele>
        <time>1970-01-01T04:46:46Z</time>
      </trkpt>
      <trkpt lat="40.197075" lon="0.222411">
        <ele>2.298</ele>
        <time>1970-01-01T04:46:47Z</time>
      </trkpt>
      <trkpt lat="40.197129" lon="0.222356">
        <ele>2.459</ele>
        <time>1970-01-01T04:46:48Z</time>
      </trkpt>
      <trkpt lat="40.197183" lon="0.222304">
        <ele>2.662</ele>
        <time>1970-01-01T04:46:49Z</time>
      </trkpt>
      <trkpt lat="40.197236" lon="0.222250">
        <ele>2.732</ele>
        <time>1970-01-01T04:46:50Z</time>
      </trkpt>
      <trkpt lat="40.197287" lon="0.222194">
        <ele>2.588</ele>
        <time>1970-01-01T04:46:51Z</time>
      </trkpt>
      <trkpt lat="40.197337" lon="0.222135">
        <ele>2.332</ele>
        <time>1970-01-01T04:46:52Z</time>
      </trkpt>
      <trkpt lat="40.197389" lon="0.222077">
        <ele>1.973</ele>
        <time>1970-01-01T04:46:53Z</time>
      </trkpt>
      <trkpt lat="40.197440" lon="0.222018">
        <ele>1.517</ele>
        <time>1970-01-01T04:46:54Z</time>
      </trkpt>
      <trkpt lat="40.197490" lon="0.221960">
        <ele>1.187</ele>
        <time>1970-01-01T04:46:55Z</time>
      </trkpt>
      <trkpt lat="40.197540" lon="0.221900">
        <ele>1.015</ele>
        <time>1970-01-01T04:46:56Z</time>
      </trkpt>
      <trkpt lat="40.197591" lon="0.221842">
        <ele>1.008</ele>
        <time>1970-01-01T04:46:57Z</time>
      </trkpt>
      <trkpt lat="40.197641" lon="0.221783">
        <ele>0.998</ele>
        <time>1970-01-01T04:46:58Z</time>
      </trkpt>
      <trkpt lat="40.197689" lon="0.221723">
        <ele>0.715</ele>
        <time>1970-01-01T04:46:59Z</time>
      </trkpt>
      <trkpt lat="40.197738" lon="0.221662">
        <ele>0.456</ele>
        <time>1970-01-01T04:47:00Z</time>
      </trkpt>
      <trkpt lat="40.197788" lon="0.221604">
        <ele>0.249</ele>
        <time>1970-01-01T04:47:01Z</time>
      </trkpt>
      <trkpt lat="40.197839" lon="0.221545">
        <ele>0.249</ele>
        <time>1970-01-01T04:47:02Z</time>
      </trkpt>
      <trkpt lat="40.197890" lon="0.221486">
        <ele>0.285</ele>
        <time>1970-01-01T04:47:03Z</time>
      </trkpt>
      <trkpt lat="40.197940" lon="0.221428">
        <ele>0.319</ele>
        <time>1970-01-01T04:47:04Z</time>
      </trkpt>
      <trkpt lat="40.197989" lon="0.221370">
        <ele>0.370</ele>
        <time>1970-01-01T04:47:05Z</time>
      </trkpt>
      <trkpt lat="40.198039" lon="0.221313">
        <ele>0.371</ele>
        <time>1970-01-01T04:47:06Z</time>
      </trkpt>
      <trkpt lat="40.198089" lon="0.221256">
        <ele>0.341</ele>
        <time>1970-01-01T04:47:07Z</time>
      </trkpt>
      <trkpt lat="40.198139" lon="0.221200">
        <ele>0.215</ele>
        <time>1970-01-01T04:47:08Z</time>
      </trkpt>
      <trkpt lat="40.198188" lon="0.221143">
        <ele>-0.008</ele>
        <time>1970-01-01T04:47:09Z</time>
      </trkpt>
      <trkpt lat="40.198238" lon="0.221085">
        <ele>-0.374</ele>
        <time>1970-01-01T04:47:10Z</time>
      </trkpt>
      <trkpt lat="40.198288" lon="0.221028">
        <ele>-0.751</ele>
        <time>1970-01-01T04:47:11Z</time>
      </trkpt>
      <trkpt lat="40.198339" lon="0.220972">
        <ele>-1.012</ele>
        <time>1970-01-01T04:47:12Z</time>
      </trkpt>
      <trkpt lat="40.198390" lon="0.220917">
        <ele>-1.495</ele>
        <time>1970-01-01T04:47:13Z</time>
      </trkpt>
      <trkpt lat="40.198439" lon="0.220862">
        <ele>-1.885</ele>
        <time>1970-01-01T04:47:14Z</time>
      </trkpt>
      <trkpt lat="40.198487" lon="0.220806">
        <ele>-2.151</ele>
        <time>1970-01-01T04:47:15Z</time>
      </trkpt>
      <trkpt lat="40.198536" lon="0.220751">
        <ele>-2.235</ele>
        <time>1970-01-01T04:47:16Z</time>
      </trkpt>
      <trkpt lat="40.198585" lon="0.220697">
        <ele>-2.426</ele>
        <time>1970-01-01T04:47:17Z</time>
      </trkpt>
      <trkpt lat="40.198634" lon="0.220642">
        <ele>-2.372</ele>
        <time>1970-01-01T04:47:18Z</time>
      </trkpt>
      <trkpt lat="40.198684" lon="0.220587">
        <ele>-2.113</ele>
        <time>1970-01-01T04:47:19Z</time>
      </trkpt>
      <trkpt lat="40.198733" lon="0.220532">
        <ele>-1.914</ele>
        <time>1970-01-01T04:47:20Z</time>
      </trkpt>
      <trkpt lat="40.198782" lon="0.220475">
        <ele>-1.708</ele>
        <time>1970-01-01T04:47:21Z</time>
      </trkpt>
      <trkpt lat="40.198829" lon="0.220417">
        <ele>-1.574</ele>
        <time>1970-01-01T04:47:22Z</time>
      </trkpt>
      <trkpt lat="40.198876" lon="0.220364">
        <ele>-1.311</ele>
        <time>1970-01-01T04:47:23Z</time>
      </trkpt>
      <trkpt lat="40.198924" lon="0.220309">
        <ele>-1.022</ele>
        <time>1970-01-01T04:47:24Z</time>
      </trkpt>
      <trkpt lat="40.198972" lon="0.220258">
        <ele>-0.775</ele>
        <time>1970-01-01T04:47:25Z</time>
      </trkpt>
      <trkpt lat="40.199019" lon="0.220207">
        <ele>-0.425</ele>
        <time>1970-01-01T04:47:26Z</time>
      </trkpt>
      <trkpt lat="40.199063" lon="0.220155">
        <ele>-0.291</ele>
        <time>1970-01-01T04:47:27Z</time>
      </trkpt>
      <trkpt lat="40.199108" lon="0.220102">
        <ele>-0.195</ele>
        <time>1970-01-01T04:47:28Z</time>
      </trkpt>
      <trkpt lat="40.199153" lon="0.220050">
        <ele>-0.096</ele>
        <time>1970-01-01T04:47:29Z</time>
      </trkpt>
      <trkpt lat="40.199199" lon="0.219997">
        <ele>0.046</ele>
        <time>1970-01-01T04:47:30Z</time>
      </trkpt>
      <trkpt lat="40.199245" lon="0.219943">
        <ele>0.088</ele>
        <time>1970-01-01T04:47:31Z</time>
      </trkpt>
      <trkpt lat="40.199291" lon="0.219890">
        <ele>0.016</ele>
        <time>1970-01-01T04:47:32Z</time>
      </trkpt>
      <trkpt lat="40.199338" lon="0.219835">
        <ele>0.008</ele>
        <time>1970-01-01T04:47:33Z</time>
      </trkpt>
      <trkpt lat="40.199384" lon="0.219780">
        <ele>0.091</ele>
        <time>1970-01-01T04:47:34Z</time>
      </trkpt>
      <trkpt lat="40.199429" lon="0.219726">
        <ele>0.048</ele>
        <time>1970-01-01T04:47:35Z</time>
      </trkpt>
      <trkpt lat="40.199472" lon="0.219674">
        <ele>0.119</ele>
        <time>1970-01-01T04:47:36Z</time>
      </trkpt>
      <trkpt lat="40.199514" lon="0.219622">
        <ele>0.242</ele>
        <time>1970-01-01T04:47:37Z</time>
      </trkpt>
      <trkpt lat="40.199556" lon="0.219572">
        <ele>0.282</ele>
        <time>1970-01-01T04:47:38Z</time>
      </trkpt>
      <trkpt lat="40.199595" lon="0.219521">
        <ele>0.138</ele>
        <time>1970-01-01T04:47:39Z</time>
      </trkpt>
      <trkpt lat="40.199631" lon="0.219470">
        <ele>0.152</ele>
        <time>1970-01-01T04:47:40Z</time>
      </trkpt>
      <trkpt lat="40.199669" lon="0.219420">
        <ele>0.063</ele>
        <time>1970-01-01T04:47:41Z</time>
      </trkpt>
      <trkpt lat="40.199709" lon="0.219368">
        <ele>0.011</ele>
        <time>1970-01-01T04:47:42Z</time>
      </trkpt>
      <trkpt lat="40.199750" lon="0.219317">
        <ele>0.021</ele>
        <time>1970-01-01T04:47:43Z</time>
      </trkpt>
      <trkpt lat="40.199791" lon="0.219267">
        <ele>0.003</ele>
        <time>1970-01-01T04:47:44Z</time>
      </trkpt>
      <trkpt lat="40.199835" lon="0.219216">
        <ele>0.008</ele>
        <time>1970-01-01T04:47:45Z</time>
      </trkpt>
      <trkpt lat="40.199879" lon="0.219166">
        <ele>0.028</ele>
        <time>1970-01-01T04:47:46Z</time>
      </trkpt>
      <trkpt lat="40.199923" lon="0.219116">
        <ele>0.095</ele>
        <time>1970-01-01T04:47:47Z</time>
      </trkpt>
      <trkpt lat="40.199965" lon="0.219065">
        <ele>0.066</ele>
        <time>1970-01-01T04:47:48Z</time>
      </trkpt>
      <trkpt lat="40.200007" lon="0.219017">
        <ele>-0.059</ele>
        <time>1970-01-01T04:47:49Z</time>
      </trkpt>
      <trkpt lat="40.200049" lon="0.218969">
        <ele>-0.229</ele>
        <time>1970-01-01T04:47:50Z</time>
      </trkpt>
      <trkpt lat="40.200088" lon="0.218918">
        <ele>-0.385</ele>
        <time>1970-01-01T04:47:51Z</time>
      </trkpt>
      <trkpt lat="40.200126" lon="0.218868">
        <ele>-0.499</ele>
        <time>1970-01-01T04:47:52Z</time>
      </trkpt>
      <trkpt lat="40.200160" lon="0.218817">
        <ele>-0.390</ele>
        <time>1970-01-01T04:47:53Z</time>
      </trkpt>
      <trkpt lat="40.200187" lon="0.218762">
        <ele>-0.267</ele>
        <time>1970-01-01T04:47:54Z</time>
      </trkpt>
      <trkpt lat="40.200201" lon="0.218701">
        <ele>-0.081</ele>
        <time>1970-01-01T04:47:55Z</time>
      </trkpt>
      <trkpt lat="40.200195" lon="0.218637">
        <ele>0.219</ele>
        <time>1970-01-01T04:47:56Z</time>
      </trkpt>
      <trkpt lat="40.200167" lon="0.218585">
        <ele>0.608</ele>
        <time>1970-01-01T04:47:57Z</time>
      </trkpt>
      <trkpt lat="40.200120" lon="0.218559">
        <ele>0.933</ele>
        <time>1970-01-01T04:47:58Z</time>
      </trkpt>
      <trkpt lat="40.200071" lon="0.218543">
        <ele>1.220</ele>
        <time>1970-01-01T04:47:59Z</time>
      </trkpt>
      <trkpt lat="40.200023" lon="0.218528">
        <ele>1.571</ele>
        <time>1970-01-01T04:48:00Z</time>
      </trkpt>
      <trkpt lat="40.199974" lon="0.218511">
        <ele>1.724</ele>
        <time>1970-01-01T04:48:01Z</time>
      </trkpt>
      <trkpt lat="40.199926" lon="0.218491">
        <ele>1.854</ele>
        <time>1970-01-01T04:48:02Z</time>
      </trkpt>
      <trkpt lat="40.199876" lon="0.218471">
        <ele>1.820</ele>
        <time>1970-01-01T04:48:03Z</time>
      </trkpt>
      <trkpt lat="40.199825" lon="0.218451">
        <ele>1.874</ele>
        <time>1970-01-01T04:48:04Z</time>
      </trkpt>
      <trkpt lat="40.199773" lon="0.218431">
        <ele>1.815</ele>
        <time>1970-01-01T04:48:05Z</time>
      </trkpt>
      <trkpt lat="40.199722" lon="0.218409">
        <ele>1.715</ele>
        <time>1970-01-01T04:48:06Z</time>
      </trkpt>
      <trkpt lat="40.199670" lon="0.218387">
        <ele>1.865</ele>
        <time>1970-01-01T04:48:07Z</time>
      </trkpt>
      <trkpt lat="40.199618" lon="0.218366">
        <ele>1.911</ele>
        <time>1970-01-01T04:48:08Z</time>
      </trkpt>
      <trkpt lat="40.199567" lon="0.218343">
        <ele>2.008</ele>
        <time>1970-01-01T04:48:09Z</time>
      </trkpt>
      <trkpt lat="40.199516" lon="0.218321">
        <ele>2.068</ele>
        <time>1970-01-01T04:48:10Z</time>
      </trkpt>
      <trkpt lat="40.199464" lon="0.218298">
        <ele>2.055</ele>
        <time>1970-01-01T04:48:11Z</time>
      </trkpt>
      <trkpt lat="40.199414" lon="0.218278">
        <ele>2.046</ele>
        <time>1970-01-01T04:48:12Z</time>
      </trkpt>
      <trkpt lat="40.199365" lon="0.218257">
        <ele>2.189</ele>
        <time>1970-01-01T04:48:13Z</time>
      </trkpt>
      <trkpt lat="40.199324" lon="0.218231">
        <ele>2.289</ele>
        <time>1970-01-01T04:48:14Z</time>
      </trkpt>
      <trkpt lat="40.199292" lon="0.218193">
        <ele>2.355</ele>
        <time>1970-01-01T04:48:15Z</time>
      </trkpt>
      <trkpt lat="40.199277" lon="0.218150">
        <ele>2.429</ele>
        <time>1970-01-01T04:48:16Z</time>
      </trkpt>
      <trkpt lat="40.199275" lon="0.218100">
        <ele>2.580</ele>
        <time>1970-01-01T04:48:17Z</time>
      </trkpt>
      <trkpt lat="40.199284" lon="0.218047">
        <ele>2.668</ele>
        <time>1970-01-01T04:48:18Z</time>
      </trkpt>
      <trkpt lat="40.199297" lon="0.217993">
        <ele>2.642</ele>
        <time>1970-01-01T04:48:19Z</time>
      </trkpt>
      <trkpt lat="40.199319" lon="0.217937">
        <ele>2.726</ele>
        <time>1970-01-01T04:48:20Z</time>
      </trkpt>
      <trkpt lat="40.199343" lon="0.217878">
        <ele>2.808</ele>
        <time>1970-01-01T04:48:21Z</time>
      </trkpt>
      <trkpt lat="40.199370" lon="0.217821">
        <ele>2.973</ele>
        <time>1970-01-01T04:48:22Z</time>
      </trkpt>
      <trkpt lat="40.199395" lon="0.217759">
        <ele>3.080</ele>
        <time>1970-01-01T04:48:23Z</time>
      </trkpt>
      <trkpt lat="40.199418" lon="0.217696">
        <ele>3.071</ele>
        <time>1970-01-01T04:48:24Z</time>
      </trkpt>
      <trkpt lat="40.199440" lon="0.217631">
        <ele>3.044</ele>
        <time>1970-01-01T04:48:25Z</time>
      </trkpt>
      <trkpt lat="40.199460" lon="0.217565">
        <ele>3.034</ele>
        <time>1970-01-01T04:48:26Z</time>
      </trkpt>
      <trkpt lat="40.199485" lon="0.217498">
        <ele>3.040</ele>
        <time>1970-01-01T04:48:27Z</time>
      </trkpt>
      <trkpt lat="40.199512" lon="0.217432">
        <ele>3.034</ele>
        <time>1970-01-01T04:48:28Z</time>
      </trkpt>
      <trkpt lat="40.199539" lon="0.217366">
        <ele>3.025</ele>
        <time>1970-01-01T04:48:29Z</time>
      </trkpt>
      <trkpt lat="40.199567" lon="0.217302">
        <ele>3.013</ele>
        <time>1970-01-01T04:48:30Z</time>
      </trkpt>
      <trkpt lat="40.199593" lon="0.217234">
        <ele>3.043</ele>
        <time>1970-01-01T04:48:31Z</time>
      </trkpt>
      <trkpt lat="40.199618" lon="0.217162">
        <ele>2.907</ele>
        <time>1970-01-01T04:48:32Z</time>
      </trkpt>
      <trkpt lat="40.199639" lon="0.217090">
        <ele>2.908</ele>
        <time>1970-01-01T04:48:33Z</time>
      </trkpt>
      <trkpt lat="40.199659" lon="0.217019">
        <ele>2.888</ele>
        <time>1970-01-01T04:48:34Z</time>
      </trkpt>
      <trkpt lat="40.199680" lon="0.216949">
        <ele>2.975</ele>
        <time>1970-01-01T04:48:35Z</time>
      </trkpt>
      <trkpt lat="40.199703" lon="0.216878">
        <ele>2.746</ele>
        <time>1970-01-01T04:48:36Z</time>
      </trkpt>
      <trkpt lat="40.199729" lon="0.216807">
        <ele>2.559</ele>
        <time>1970-01-01T04:48:37Z</time>
      </trkpt>
      <trkpt lat="40.199755" lon="0.216736">
        <ele>2.129</ele>
        <time>1970-01-01T04:48:38Z</time>
      </trkpt>
      <trkpt lat="40.199780" lon="0.216664">
        <ele>1.845</ele>
        <time>1970-01-01T04:48:39Z</time>
      </trkpt>
      <trkpt lat="40.199805" lon="0.216592">
        <ele>1.439</ele>
        <time>1970-01-01T04:48:40Z</time>
      </trkpt>
      <trkpt lat="40.199828" lon="0.216521">
        <ele>1.190</ele>
        <time>1970-01-01T04:48:41Z</time>
      </trkpt>
      <trkpt lat="40.199848" lon="0.216449">
        <ele>0.875</ele>
        <time>1970-01-01T04:48:42Z</time>
      </trkpt>
      <trkpt lat="40.199866" lon="0.216377">
        <ele>0.428</ele>
        <time>1970-01-01T04:48:43Z</time>
      </trkpt>
      <trkpt lat="40.199885" lon="0.216304">
        <ele>0.120</ele>
        <time>1970-01-01T04:48:44Z</time>
      </trkpt>
      <trkpt lat="40.199906" lon="0.216230">
        <ele>-0.208</ele>
        <time>1970-01-01T04:48:45Z</time>
      </trkpt>
      <trkpt lat="40.199926" lon="0.216156">
        <ele>-0.644</ele>
        <time>1970-01-01T04:48:46Z</time>
      </trkpt>
      <trkpt lat="40.199948" lon="0.216082">
        <ele>-0.851</ele>
        <time>1970-01-01T04:48:47Z</time>
      </trkpt>
      <trkpt lat="40.199972" lon="0.216010">
        <ele>-0.992</ele>
        <time>1970-01-01T04:48:48Z</time>
      </trkpt>
      <trkpt lat="40.199995" lon="0.215939">
        <ele>-1.075</ele>
        <time>1970-01-01T04:48:49Z</time>
      </trkpt>
      <trkpt lat="40.200017" lon="0.215868">
        <ele>-0.995</ele>
        <time>1970-01-01T04:48:50Z</time>
      </trkpt>
      <trkpt lat="40.200040" lon="0.215796">
        <ele>-0.721</ele>
        <time>1970-01-01T04:48:51Z</time>
      </trkpt>
      <trkpt lat="40.200061" lon="0.215724">
        <ele>-0.415</ele>
        <time>1970-01-01T04:48:52Z</time>
      </trkpt>
      <trkpt lat="40.200082" lon="0.215651">
        <ele>-0.086</ele>
        <time>1970-01-01T04:48:53Z</time>
      </trkpt>
      <trkpt lat="40.200104" lon="0.215578">
        <ele>0.344</ele>
        <time>1970-01-01T04:48:54Z</time>
      </trkpt>
      <trkpt lat="40.200127" lon="0.215506">
        <ele>0.505</ele>
        <time>1970-01-01T04:48:55Z</time>
      </trkpt>
      <trkpt lat="40.200152" lon="0.215434">
        <ele>0.515</ele>
        <time>1970-01-01T04:48:56Z</time>
      </trkpt>
      <trkpt lat="40.200183" lon="0.215363">
        <ele>0.408</ele>
        <time>1970-01-01T04:48:57Z</time>
      </trkpt>
      <trkpt lat="40.200211" lon="0.215291">
        <ele>0.381</ele>
        <time>1970-01-01T04:48:58Z</time>
      </trkpt>
      <trkpt lat="40.200233" lon="0.215218">
        <ele>0.148</ele>
        <time>1970-01-01T04:48:59Z</time>
      </trkpt>
      <trkpt lat="40.200254" lon="0.215145">
        <ele>0.019</ele>
        <time>1970-01-01T04:49:00Z</time>
      </trkpt>
      <trkpt lat="40.200274" lon="0.215073">
        <ele>0.072</ele>
        <time>1970-01-01T04:49:01Z</time>
      </trkpt>
      <trkpt lat="40.200297" lon="0.215002">
        <ele>0.152</ele>
        <time>1970-01-01T04:49:02Z</time>
      </trkpt>
      <trkpt lat="40.200321" lon="0.214930">
        <ele>-0.138</ele>
        <time>1970-01-01T04:49:03Z</time>
      </trkpt>
      <trkpt lat="40.200343" lon="0.214858">
        <ele>-0.382</ele>
        <time>1970-01-01T04:49:04Z</time>
      </trkpt>
      <trkpt lat="40.200363" lon="0.214786">
        <ele>-0.573</ele>
        <time>1970-01-01T04:49:05Z</time>
      </trkpt>
      <trkpt lat="40.200385" lon="0.214715">
        <ele>-0.676</ele>
        <time>1970-01-01T04:49:06Z</time>
      </trkpt>
      <trkpt lat="40.200407" lon="0.214646">
        <ele>-0.590</ele>
        <time>1970-01-01T04:49:07Z</time>
      </trkpt>
      <trkpt lat="40.200429" lon="0.214576">
        <ele>-0.519</ele>
        <time>1970-01-01T04:49:08Z</time>
      </trkpt>
      <trkpt lat="40.200449" lon="0.214506">
        <ele>-0.408</ele>
        <time>1970-01-01T04:49:09Z</time>
      </trkpt>
      <trkpt lat="40.200471" lon="0.214435">
        <ele>-0.344</ele>
        <time>1970-01-01T04:49:10Z</time>
      </trkpt>
      <trkpt lat="40.200494" lon="0.214363">
        <ele>-0.271</ele>
        <time>1970-01-01T04:49:11Z</time>
      </trkpt>
      <trkpt lat="40.200518" lon="0.214289">
        <ele>-0.152</ele>
        <time>1970-01-01T04:49:12Z</time>
      </trkpt>
      <trkpt lat="40.200542" lon="0.214214">
        <ele>-0.095</ele>
        <time>1970-01-01T04:49:13Z</time>
      </trkpt>
      <trkpt lat="40.200567" lon="0.214140">
        <ele>-0.195</ele>
        <time>1970-01-01T04:49:14Z</time>
      </trkpt>
      <trkpt lat="40.200591" lon="0.214066">
        <ele>-0.351</ele>
        <time>1970-01-01T04:49:15Z</time>
      </trkpt>
      <trkpt lat="40.200616" lon="0.213989">
        <ele>-0.425</ele>
        <time>1970-01-01T04:49:16Z</time>
      </trkpt>
      <trkpt lat="40.200639" lon="0.213913">
        <ele>-0.696</ele>
        <time>1970-01-01T04:49:17Z</time>
      </trkpt>
      <trkpt lat="40.200664" lon="0.213837">
        <ele>-0.716</ele>
        <time>1970-01-01T04:49:18Z</time>
      </trkpt>
      <trkpt lat="40.200689" lon="0.213762">
        <ele>-0.776</ele>
        <time>1970-01-01T04:49:19Z</time>
      </trkpt>
      <trkpt lat="40.200714" lon="0.213688">
        <ele>-0.713</ele>
        <time>1970-01-01T04:49:20Z</time>
      </trkpt>
      <trkpt lat="40.200742" lon="0.213615">
        <ele>-0.708</ele>
        <time>1970-01-01T04:49:21Z</time>
      </trkpt>
      <trkpt lat="40.200768" lon="0.213544">
        <ele>-0.678</ele>
        <time>1970-01-01T04:49:22Z</time>
      </trkpt>
      <trkpt lat="40.200791" lon="0.213472">
        <ele>-0.445</ele>
        <time>1970-01-01T04:49:23Z</time>
      </trkpt>
      <trkpt lat="40.200812" lon="0.213400">
        <ele>-0.256</ele>
        <time>1970-01-01T04:49:24Z</time>
      </trkpt>
      <trkpt lat="40.200834" lon="0.213329">
        <ele>0.049</ele>
        <time>1970-01-01T04:49:25Z</time>
      </trkpt>
      <trkpt lat="40.200856" lon="0.213259">
        <ele>0.579</ele>
        <time>1970-01-01T04:49:26Z</time>
      </trkpt>
      <trkpt lat="40.200876" lon="0.213191">
        <ele>0.955</ele>
        <time>1970-01-01T04:49:27Z</time>
      </trkpt>
      <trkpt lat="40.200896" lon="0.213126">
        <ele>1.399</ele>
        <time>1970-01-01T04:49:28Z</time>
      </trkpt>
      <trkpt lat="40.200917" lon="0.213060">
        <ele>1.640</ele>
        <time>1970-01-01T04:49:29Z</time>
      </trkpt>
      <trkpt lat="40.200939" lon="0.212995">
        <ele>1.764</ele>
        <time>1970-01-01T04:49:30Z</time>
      </trkpt>
      <trkpt lat="40.200960" lon="0.212931">
        <ele>1.706</ele>
        <time>1970-01-01T04:49:31Z</time>
      </trkpt>
      <trkpt lat="40.200980" lon="0.212869">
        <ele>1.716</ele>
        <time>1970-01-01T04:49:32Z</time>
      </trkpt>
      <trkpt lat="40.201001" lon="0.212811">
        <ele>1.708</ele>
        <time>1970-01-01T04:49:33Z</time>
      </trkpt>
      <trkpt lat="40.201024" lon="0.212756">
        <ele>1.623</ele>
        <time>1970-01-01T04:49:34Z</time>
      </trkpt>
      <trkpt lat="40.201047" lon="0.212704">
        <ele>1.680</ele>
        <time>1970-01-01T04:49:35Z</time>
      </trkpt>
      <trkpt lat="40.201075" lon="0.212650">
        <ele>1.511</ele>
        <time>1970-01-01T04:49:36Z</time>
      </trkpt>
      <trkpt lat="40.201104" lon="0.212592">
        <ele>1.324</ele>
        <time>1970-01-01T04:49:37Z</time>
      </trkpt>
      <trkpt lat="40.201130" lon="0.212530">
        <ele>1.094</ele>
        <time>1970-01-01T04:49:38Z</time>
      </trkpt>
      <trkpt lat="40.201147" lon="0.212460">
        <ele>0.780</ele>
        <time>1970-01-01T04:49:39Z</time>
      </trkpt>
      <trkpt lat="40.201159" lon="0.212386">
        <ele>0.774</ele>
        <time>1970-01-01T04:49:40Z</time>
      </trkpt>
      <trkpt lat="40.201171" lon="0.212312">
        <ele>0.695</ele>
        <time>1970-01-01T04:49:41Z</time>
      </trkpt>
      <trkpt lat="40.201184" lon="0.212238">
        <ele>0.538</ele>
        <time>1970-01-01T04:49:42Z</time>
      </trkpt>
      <trkpt lat="40.201201" lon="0.212165">
        <ele>0.370</ele>
        <time>1970-01-01T04:49:43Z</time>
      </trkpt>
      <trkpt lat="40.201222" lon="0.212092">
        <ele>0.117</ele>
        <time>1970-01-01T04:49:44Z</time>
      </trkpt>
      <trkpt lat="40.201246" lon="0.212022">
        <ele>0.008</ele>
        <time>1970-01-01T04:49:45Z</time>
      </trkpt>
      <trkpt lat="40.201269" lon="0.211953">
        <ele>-0.090</ele>
        <time>1970-01-01T04:49:46Z</time>
      </trkpt>
      <trkpt lat="40.201290" lon="0.211885">
        <ele>-0.297</ele>
        <time>1970-01-01T04:49:47Z</time>
      </trkpt>
      <trkpt lat="40.201314" lon="0.211817">
        <ele>-0.578</ele>
        <time>1970-01-01T04:49:48Z</time>
      </trkpt>
      <trkpt lat="40.201338" lon="0.211749">
        <ele>-0.731</ele>
        <time>1970-01-01T04:49:49Z</time>
      </trkpt>
      <trkpt lat="40.201361" lon="0.211682">
        <ele>-0.961</ele>
        <time>1970-01-01T04:49:50Z</time>
      </trkpt>
      <trkpt lat="40.201387" lon="0.211617">
        <ele>-1.057</ele>
        <time>1970-01-01T04:49:51Z</time>
      </trkpt>
      <trkpt lat="40.201409" lon="0.211553">
        <ele>-0.951</ele>
        <time>1970-01-01T04:49:52Z</time>
      </trkpt>
      <trkpt lat="40.201425" lon="0.211489">
        <ele>-0.962</ele>
        <time>1970-01-01T04:49:53Z</time>
      </trkpt>
      <trkpt lat="40.201444" lon="0.211429">
        <ele>-0.847</ele>
        <time>1970-01-01T04:49:54Z</time>
      </trkpt>
      <trkpt lat="40.201467" lon="0.211368">
        <ele>-0.729</ele>
        <time>1970-01-01T04:49:55Z</time>
      </trkpt>
      <trkpt lat="40.201489" lon="0.211305">
        <ele>-0.621</ele>
        <time>1970-01-01T04:49:56Z</time>
      </trkpt>
      <trkpt lat="40.201509" lon="0.211241">
        <ele>-0.608</ele>
        <time>1970-01-01T04:49:57Z</time>
      </trkpt>
      <trkpt lat="40.201529" lon="0.211179">
        <ele>-0.531</ele>
        <time>1970-01-01T04:49:58Z</time>
      </trkpt>
      <trkpt lat="40.201549" lon="0.211119">
        <ele>-0.418</ele>
        <time>1970-01-01T04:49:59Z</time>
      </trkpt>
      <trkpt lat="40.201567" lon="0.211060">
        <ele>-0.499</ele>
        <time>1970-01-01T04:50:00Z</time>
      </trkpt>
      <trkpt lat="40.201586" lon="0.211002">
        <ele>-0.342</ele>
        <time>1970-01-01T04:50:01Z</time>
      </trkpt>
      <trkpt lat="40.201605" lon="0.210944">
        <ele>-0.292</ele>
        <time>1970-01-01T04:50:02Z</time>
      </trkpt>
      <trkpt lat="40.201627" lon="0.210884">
        <ele>-0.148</ele>
        <time>1970-01-01T04:50:03Z</time>
      </trkpt>
      <trkpt lat="40.201649" lon="0.210823">
        <ele>-0.182</ele>
        <time>1970-01-01T04:50:04Z</time>
      </trkpt>
      <trkpt lat="40.201668" lon="0.210759">
        <ele>0.073</ele>
        <time>1970-01-01T04:50:05Z</time>
      </trkpt>
      <trkpt lat="40.201686" lon="0.210693">
        <ele>0.126</ele>
        <time>1970-01-01T04:50:06Z</time>
      </trkpt>
      <trkpt lat="40.201707" lon="0.210628">
        <ele>0.347</ele>
        <time>1970-01-01T04:50:07Z</time>
      </trkpt>
      <trkpt lat="40.201730" lon="0.210563">
        <ele>0.511</ele>
        <time>1970-01-01T04:50:08Z</time>
      </trkpt>
      <trkpt lat="40.201752" lon="0.210498">
        <ele>0.608</ele>
        <time>1970-01-01T04:50:09Z</time>
      </trkpt>
      <trkpt lat="40.201775" lon="0.210432">
        <ele>0.649</ele>
        <time>1970-01-01T04:50:10Z</time>
      </trkpt>
      <trkpt lat="40.201796" lon="0.210364">
        <ele>0.646</ele>
        <time>1970-01-01T04:50:11Z</time>
      </trkpt>
      <trkpt lat="40.201816" lon="0.210294">
        <ele>0.627</ele>
        <time>1970-01-01T04:50:12Z</time>
      </trkpt>
      <trkpt lat="40.201837" lon="0.210223">
        <ele>0.610</ele>
        <time>1970-01-01T04:50:13Z</time>
      </trkpt>
      <trkpt lat="40.201859" lon="0.210152">
        <ele>0.720</ele>
        <time>1970-01-01T04:50:14Z</time>
      </trkpt>
      <trkpt lat="40.201882" lon="0.210081">
        <ele>0.856</ele>
        <time>1970-01-01T04:50:15Z</time>
      </trkpt>
      <trkpt lat="40.201905" lon="0.210010">
        <ele>0.920</ele>
        <time>1970-01-01T04:50:16Z</time>
      </trkpt>
      <trkpt lat="40.201930" lon="0.209940">
        <ele>0.891</ele>
        <time>1970-01-01T04:50:17Z</time>
      </trkpt>
      <trkpt lat="40.201955" lon="0.209869">
        <ele>0.592</ele>
        <time>1970-01-01T04:50:18Z</time>
      </trkpt>
      <trkpt lat="40.201981" lon="0.209798">
        <ele>0.073</ele>
        <time>1970-01-01T04:50:19Z</time>
      </trkpt>
      <trkpt lat="40.202008" lon="0.209727">
        <ele>-0.420</ele>
        <time>1970-01-01T04:50:20Z</time>
      </trkpt>
      <trkpt lat="40.202032" lon="0.209654">
        <ele>-0.608</ele>
        <time>1970-01-01T04:50:21Z</time>
      </trkpt>
      <trkpt lat="40.202057" lon="0.209581">
        <ele>-0.686</ele>
        <time>1970-01-01T04:50:22Z</time>
      </trkpt>
      <trkpt lat="40.202082" lon="0.209507">
        <ele>-0.673</ele>
        <time>1970-01-01T04:50:23Z</time>
      </trkpt>
      <trkpt lat="40.202101" lon="0.209430">
        <ele>-0.534</ele>
        <time>1970-01-01T04:50:24Z</time>
      </trkpt>
      <trkpt lat="40.202113" lon="0.209351">
        <ele>-0.497</ele>
        <time>1970-01-01T04:50:25Z</time>
      </trkpt>
      <trkpt lat="40.202119" lon="0.209269">
        <ele>-0.217</ele>
        <time>1970-01-01T04:50:26Z</time>
      </trkpt>
      <trkpt lat="40.202120" lon="0.209189">
        <ele>-0.163</ele>
        <time>1970-01-01T04:50:27Z</time>
      </trkpt>
      <trkpt lat="40.202114" lon="0.209109">
        <ele>0.187</ele>
        <time>1970-01-01T04:50:28Z</time>
      </trkpt>
      <trkpt lat="40.202099" lon="0.209033">
        <ele>0.318</ele>
        <time>1970-01-01T04:50:29Z</time>
      </trkpt>
      <trkpt lat="40.202076" lon="0.208962">
        <ele>0.377</ele>
        <time>1970-01-01T04:50:30Z</time>
      </trkpt>
      <trkpt lat="40.202047" lon="0.208894">
        <ele>0.461</ele>
        <time>1970-01-01T04:50:31Z</time>
      </trkpt>
      <trkpt lat="40.202012" lon="0.208831">
        <ele>0.227</ele>
        <time>1970-01-01T04:50:32Z</time>
      </trkpt>
      <trkpt lat="40.201970" lon="0.208774">
        <ele>0.108</ele>
        <time>1970-01-01T04:50:33Z</time>
      </trkpt>
      <trkpt lat="40.201925" lon="0.208719">
        <ele>-0.174</ele>
        <time>1970-01-01T04:50:34Z</time>
      </trkpt>
      <trkpt lat="40.201878" lon="0.208666">
        <ele>-0.291</ele>
        <time>1970-01-01T04:50:35Z</time>
      </trkpt>
      <trkpt lat="40.201829" lon="0.208614">
        <ele>-0.462</ele>
        <time>1970-01-01T04:50:36Z</time>
      </trkpt>
      <trkpt lat="40.201782" lon="0.208563">
        <ele>-0.745</ele>
        <time>1970-01-01T04:50:37Z</time>
      </trkpt>
      <trkpt lat="40.201738" lon="0.208511">
        <ele>-0.815</ele>
        <time>1970-01-01T04:50:38Z</time>
      </trkpt>
      <trkpt lat="40.201694" lon="0.208458">
        <ele>-1.071</ele>
        <time>1970-01-01T04:50:39Z</time>
      </trkpt>
      <trkpt lat="40.201652" lon="0.208401">
        <ele>-1.055</ele>
        <time>1970-01-01T04:50:40Z</time>
      </trkpt>
      <trkpt lat="40.201613" lon="0.208343">
        <ele>-1.036</ele>
        <time>1970-01-01T04:50:41Z</time>
      </trkpt>
      <trkpt lat="40.201573" lon="0.208285">
        <ele>-0.937</ele>
        <time>1970-01-01T04:50:42Z</time>
      </trkpt>
      <trkpt lat="40.201532" lon="0.208228">
        <ele>-0.849</ele>
        <time>1970-01-01T04:50:43Z</time>
      </trkpt>
      <trkpt lat="40.201490" lon="0.208170">
        <ele>-0.613</ele>
        <time>1970-01-01T04:50:44Z</time>
      </trkpt>
      <trkpt lat="40.201446" lon="0.208115">
        <ele>-0.408</ele>
        <time>1970-01-01T04:50:45Z</time>
      </trkpt>
      <trkpt lat="40.201403" lon="0.208061">
        <ele>-0.120</ele>
        <time>1970-01-01T04:50:46Z</time>
      </trkpt>
      <trkpt lat="40.201360" lon="0.208005">
        <ele>0.117</ele>
        <time>1970-01-01T04:50:47Z</time>
      </trkpt>
      <trkpt lat="40.201316" lon="0.207947">
        <ele>0.368</ele>
        <time>1970-01-01T04:50:48Z</time>
      </trkpt>
      <trkpt lat="40.201271" lon="0.207891">
        <ele>0.491</ele>
        <time>1970-01-01T04:50:49Z</time>
      </trkpt>
      <trkpt lat="40.201226" lon="0.207836">
        <ele>0.631</ele>
        <time>1970-01-01T04:50:50Z</time>
      </trkpt>
      <trkpt lat="40.201182" lon="0.207782">
        <ele>0.717</ele>
        <time>1970-01-01T04:50:51Z</time>
      </trkpt>
      <trkpt lat="40.201139" lon="0.207729">
        <ele>1.111</ele>
        <time>1970-01-01T04:50:52Z</time>
      </trkpt>
      <trkpt lat="40.201094" lon="0.207674">
        <ele>1.412</ele>
        <time>1970-01-01T04:50:53Z</time>
      </trkpt>
      <trkpt lat="40.201050" lon="0.207620">
        <ele>1.614</ele>
        <time>1970-01-01T04:50:54Z</time>
      </trkpt>
      <trkpt lat="40.201007" lon="0.207564">
        <ele>1.854</ele>
        <time>1970-01-01T04:50:55Z</time>
      </trkpt>
      <trkpt lat="40.200963" lon="0.207509">
        <ele>2.009</ele>
        <time>1970-01-01T04:50:56Z</time>
      </trkpt>
      <trkpt lat="40.200919" lon="0.207455">
        <ele>2.108</ele>
        <time>1970-01-01T04:50:57Z</time>
      </trkpt>
      <trkpt lat="40.200875" lon="0.207401">
        <ele>2.338</ele>
        <time>1970-01-01T04:50:58Z</time>
      </trkpt>
      <trkpt lat="40.200831" lon="0.207349">
        <ele>2.515</ele>
        <time>1970-01-01T04:50:59Z</time>
      </trkpt>
      <trkpt lat="40.200785" lon="0.207297">
        <ele>2.436</ele>
        <time>1970-01-01T04:51:00Z</time>
      </trkpt>
      <trkpt lat="40.200741" lon="0.207246">
        <ele>2.339</ele>
        <time>1970-01-01T04:51:01Z</time>
      </trkpt>
      <trkpt lat="40.200695" lon="0.207192">
        <ele>1.919</ele>
        <time>1970-01-01T04:51:02Z</time>
      </trkpt>
      <trkpt lat="40.200649" lon="0.207137">
        <ele>1.695</ele>
        <time>1970-01-01T04:51:03Z</time>
      </trkpt>
      <trkpt lat="40.200604" lon="0.207083">
        <ele>1.329</ele>
        <time>1970-01-01T04:51:04Z</time>
      </trkpt>
      <trkpt lat="40.200560" lon="0.207027">
        <ele>1.070</ele>
        <time>1970-01-01T04:51:05Z</time>
      </trkpt>
      <trkpt lat="40.200520" lon="0.206967">
        <ele>0.947</ele>
        <time>1970-01-01T04:51:06Z</time>
      </trkpt>
      <trkpt lat="40.200485" lon="0.206906">
        <ele>0.729</ele>
        <time>1970-01-01T04:51:07Z</time>
      </trkpt>
      <trkpt lat="40.200450" lon="0.206841">
        <ele>0.621</ele>
        <time>1970-01-01T04:51:08Z</time>
      </trkpt>
      <trkpt lat="40.200422" lon="0.206776">
        <ele>0.508</ele>
        <time>1970-01-01T04:51:09Z</time>
      </trkpt>
      <trkpt lat="40.200389" lon="0.206712">
        <ele>0.411</ele>
        <time>1970-01-01T04:51:10Z</time>
      </trkpt>
      <trkpt lat="40.200351" lon="0.206658">
        <ele>0.378</ele>
        <time>1970-01-01T04:51:11Z</time>
      </trkpt>
      <trkpt lat="40.200305" lon="0.206616">
        <ele>0.159</ele>
        <time>1970-01-01T04:51:12Z</time>
      </trkpt>
      <trkpt lat="40.200254" lon="0.206577">
        <ele>-0.042</ele>
        <time>1970-01-01T04:51:13Z</time>
      </trkpt>
      <trkpt lat="40.200204" lon="0.206533">
        <ele>-0.152</ele>
        <time>1970-01-01T04:51:14Z</time>
      </trkpt>
      <trkpt lat="40.200157" lon="0.206484">
        <ele>-0.318</ele>
        <time>1970-01-01T04:51:15Z</time>
      </trkpt>
      <trkpt lat="40.200111" lon="0.206433">
        <ele>-0.532</ele>
        <time>1970-01-01T04:51:16Z</time>
      </trkpt>
      <trkpt lat="40.200066" lon="0.206380">
        <ele>-0.893</ele>
        <time>1970-01-01T04:51:17Z</time>
      </trkpt>
      <trkpt lat="40.200023" lon="0.206322">
        <ele>-0.967</ele>
        <time>1970-01-01T04:51:18Z</time>
      </trkpt>
      <trkpt lat="40.199980" lon="0.206264">
        <ele>-1.081</ele>
        <time>1970-01-01T04:51:19Z</time>
      </trkpt>
      <trkpt lat="40.199935" lon="0.206206">
        <ele>-1.019</ele>
        <time>1970-01-01T04:51:20Z</time>
      </trkpt>
      <trkpt lat="40.199892" lon="0.206149">
        <ele>-1.008</ele>
        <time>1970-01-01T04:51:21Z</time>
      </trkpt>
      <trkpt lat="40.199850" lon="0.206092">
        <ele>-1.043</ele>
        <time>1970-01-01T04:51:22Z</time>
      </trkpt>
      <trkpt lat="40.199806" lon="0.206036">
        <ele>-1.040</ele>
        <time>1970-01-01T04:51:23Z</time>
      </trkpt>
      <trkpt lat="40.199762" lon="0.205981">
        <ele>-1.021</ele>
        <time>1970-01-01T04:51:24Z</time>
      </trkpt>
      <trkpt lat="40.199719" lon="0.205926">
        <ele>-1.054</ele>
        <time>1970-01-01T04:51:25Z</time>
      </trkpt>
      <trkpt lat="40.199675" lon="0.205870">
        <ele>-1.354</ele>
        <time>1970-01-01T04:51:26Z</time>
      </trkpt>
      <trkpt lat="40.199633" lon="0.205816">
        <ele>-1.610</ele>
        <time>1970-01-01T04:51:27Z</time>
      </trkpt>
      <trkpt lat="40.199590" lon="0.205762">
        <ele>-2.074</ele>
        <time>1970-01-01T04:51:28Z</time>
      </trkpt>
      <trkpt lat="40.199546" lon="0.205706">
        <ele>-2.355</ele>
        <time>1970-01-01T04:51:29Z</time>
      </trkpt>
      <trkpt lat="40.199502" lon="0.205649">
        <ele>-2.674</ele>
        <time>1970-01-01T04:51:30Z</time>
      </trkpt>
      <trkpt lat="40.199459" lon="0.205593">
        <ele>-2.956</ele>
        <time>1970-01-01T04:51:31Z</time>
      </trkpt>
      <trkpt lat="40.199415" lon="0.205538">
        <ele>-2.921</ele>
        <time>1970-01-01T04:51:32Z</time>
      </trkpt>
      <trkpt lat="40.199370" lon="0.205481">
        <ele>-2.708</ele>
        <time>1970-01-01T04:51:33Z</time>
      </trkpt>
      <trkpt lat="40.199324" lon="0.205423">
        <ele>-2.594</ele>
        <time>1970-01-01T04:51:34Z</time>
      </trkpt>
      <trkpt lat="40.199278" lon="0.205364">
        <ele>-2.391</ele>
        <time>1970-01-01T04:51:35Z</time>
      </trkpt>
      <trkpt lat="40.199233" lon="0.205306">
        <ele>-2.162</ele>
        <time>1970-01-01T04:51:36Z</time>
      </trkpt>
      <trkpt lat="40.199189" lon="0.205249">
        <ele>-1.965</ele>
        <time>1970-01-01T04:51:37Z</time>
      </trkpt>
      <trkpt lat="40.199145" lon="0.205194">
        <ele>-1.615</ele>
        <time>1970-01-01T04:51:38Z</time>
      </trkpt>
      <trkpt lat="40.199099" lon="0.205138">
        <ele>-1.491</ele>
        <time>1970-01-01T04:51:39Z</time>
      </trkpt>
      <trkpt lat="40.199054" lon="0.205081">
        <ele>-1.215</ele>
        <time>1970-01-01T04:51:40Z</time>
      </trkpt>
      <trkpt lat="40.199008" lon="0.205024">
        <ele>-1.096</ele>
        <time>1970-01-01T04:51:41Z</time>
      </trkpt>
      <trkpt lat="40.198962" lon="0.204966">
        <ele>-1.078</ele>
        <time>1970-01-01T04:51:42Z</time>
      </trkpt>
      <trkpt lat="40.198917" lon="0.204908">
        <ele>-1.033</ele>
        <time>1970-01-01T04:51:43Z</time>
      </trkpt>
      <trkpt lat="40.198871" lon="0.204851">
        <ele>-0.926</ele>
        <time>1970-01-01T04:51:44Z</time>
      </trkpt>
      <trkpt lat="40.198826" lon="0.204796">
        <ele>-0.808</ele>
        <time>1970-01-01T04:51:45Z</time>
      </trkpt>
      <trkpt lat="40.198779" lon="0.204740">
        <ele>-0.664</ele>
        <time>1970-01-01T04:51:46Z</time>
      </trkpt>
      <trkpt lat="40.198733" lon="0.204684">
        <ele>-0.551</ele>
        <time>1970-01-01T04:51:47Z</time>
      </trkpt>
      <trkpt lat="40.198688" lon="0.204628">
        <ele>-0.562</ele>
        <time>1970-01-01T04:51:48Z</time>
      </trkpt>
      <trkpt lat="40.198643" lon="0.204573">
        <ele>-0.695</ele>
        <time>1970-01-01T04:51:49Z</time>
      </trkpt>
      <trkpt lat="40.198599" lon="0.204519">
        <ele>-0.725</ele>
        <time>1970-01-01T04:51:50Z</time>
      </trkpt>
      <trkpt lat="40.198555" lon="0.204462">
        <ele>-0.571</ele>
        <time>1970-01-01T04:51:51Z</time>
      </trkpt>
      <trkpt lat="40.198509" lon="0.204407">
        <ele>-0.395</ele>
        <time>1970-01-01T04:51:52Z</time>
      </trkpt>
      <trkpt lat="40.198465" lon="0.204352">
        <ele>-0.126</ele>
        <time>1970-01-01T04:51:53Z</time>
      </trkpt>
      <trkpt lat="40.198423" lon="0.204297">
        <ele>-0.032</ele>
        <time>1970-01-01T04:51:54Z</time>
      </trkpt>
      <trkpt lat="40.198383" lon="0.204241">
        <ele>0.092</ele>
        <time>1970-01-01T04:51:55Z</time>
      </trkpt>
      <trkpt lat="40.198340" lon="0.204185">
        <ele>0.011</ele>
        <time>1970-01-01T04:51:56Z</time>
      </trkpt>
      <trkpt lat="40.198298" lon="0.204130">
        <ele>0.108</ele>
        <time>1970-01-01T04:51:57Z</time>
      </trkpt>
      <trkpt lat="40.198254" lon="0.204074">
        <ele>0.290</ele>
        <time>1970-01-01T04:51:58Z</time>
      </trkpt>
      <trkpt lat="40.198209" lon="0.204018">
        <ele>0.227</ele>
        <time>1970-01-01T04:51:59Z</time>
      </trkpt>
      <trkpt lat="40.198163" lon="0.203962">
        <ele>0.248</ele>
        <time>1970-01-01T04:52:00Z</time>
      </trkpt>
      <trkpt lat="40.198117" lon="0.203905">
        <ele>0.031</ele>
        <time>1970-01-01T04:52:01Z</time>
      </trkpt>
      <trkpt lat="40.198073" lon="0.203849">
        <ele>0.091</ele>
        <time>1970-01-01T04:52:02Z</time>
      </trkpt>
      <trkpt lat="40.198030" lon="0.203794">
        <ele>-0.097</ele>
        <time>1970-01-01T04:52:03Z</time>
      </trkpt>
      <trkpt lat="40.197988" lon="0.203740">
        <ele>-0.131</ele>
        <time>1970-01-01T04:52:04Z</time>
      </trkpt>
      <trkpt lat="40.197950" lon="0.203689">
        <ele>-0.392</ele>
        <time>1970-01-01T04:52:05Z</time>
      </trkpt>
      <trkpt lat="40.197908" lon="0.203635">
        <ele>-0.529</ele>
        <time>1970-01-01T04:52:06Z</time>
      </trkpt>
      <trkpt lat="40.197867" lon="0.203582">
        <ele>-0.700</ele>
        <time>1970-01-01T04:52:07Z</time>
      </trkpt>
      <trkpt lat="40.197825" lon="0.203533">
        <ele>-0.920</ele>
        <time>1970-01-01T04:52:08Z</time>
      </trkpt>
      <trkpt lat="40.197781" lon="0.203483">
        <ele>-1.008</ele>
        <time>1970-01-01T04:52:09Z</time>
      </trkpt>
      <trkpt lat="40.197739" lon="0.203433">
        <ele>-1.149</ele>
        <time>1970-01-01T04:52:10Z</time>
      </trkpt>
      <trkpt lat="40.197696" lon="0.203384">
        <ele>-1.316</ele>
        <time>1970-01-01T04:52:11Z</time>
      </trkpt>
      <trkpt lat="40.197654" lon="0.203331">
        <ele>-1.417</ele>
        <time>1970-01-01T04:52:12Z</time>
      </trkpt>
      <trkpt lat="40.197611" lon="0.203280">
        <ele>-1.670</ele>
        <time>1970-01-01T04:52:13Z</time>
      </trkpt>
      <trkpt lat="40.197566" lon="0.203229">
        <ele>-1.830</ele>
        <time>1970-01-01T04:52:14Z</time>
      </trkpt>
      <trkpt lat="40.197522" lon="0.203178">
        <ele>-1.956</ele>
        <time>1970-01-01T04:52:15Z</time>
      </trkpt>
      <trkpt lat="40.197478" lon="0.203126">
        <ele>-1.940</ele>
        <time>1970-01-01T04:52:16Z</time>
      </trkpt>
      <trkpt lat="40.197435" lon="0.203076">
        <ele>-1.831</ele>
        <time>1970-01-01T04:52:17Z</time>
      </trkpt>
      <trkpt lat="40.197392" lon="0.203026">
        <ele>-1.543</ele>
        <time>1970-01-01T04:52:18Z</time>
      </trkpt>
      <trkpt lat="40.197349" lon="0.202977">
        <ele>-1.364</ele>
        <time>1970-01-01T04:52:19Z</time>
      </trkpt>
      <trkpt lat="40.197304" lon="0.202929">
        <ele>-1.210</ele>
        <time>1970-01-01T04:52:20Z</time>
      </trkpt>
      <trkpt lat="40.197259" lon="0.202883">
        <ele>-1.108</ele>
        <time>1970-01-01T04:52:21Z</time>
      </trkpt>
      <trkpt lat="40.197213" lon="0.202840">
        <ele>-1.041</ele>
        <time>1970-01-01T04:52:22Z</time>
      </trkpt>
      <trkpt lat="40.197166" lon="0.202797">
        <ele>-0.838</ele>
        <time>1970-01-01T04:52:23Z</time>
      </trkpt>
      <trkpt lat="40.197121" lon="0.202749">
        <ele>-0.689</ele>
        <time>1970-01-01T04:52:24Z</time>
      </trkpt>
      <trkpt lat="40.197078" lon="0.202701">
        <ele>-0.352</ele>
        <time>1970-01-01T04:52:25Z</time>
      </trkpt>
      <trkpt lat="40.197034" lon="0.202654">
        <ele>-0.232</ele>
        <time>1970-01-01T04:52:26Z</time>
      </trkpt>
      <trkpt lat="40.196991" lon="0.202613">
        <ele>-0.178</ele>
        <time>1970-01-01T04:52:27Z</time>
      </trkpt>
      <trkpt lat="40.196946" lon="0.202569">
        <ele>-0.042</ele>
        <time>1970-01-01T04:52:28Z</time>
      </trkpt>
      <trkpt lat="40.196902" lon="0.202523">
        <ele>0.253</ele>
        <time>1970-01-01T04:52:29Z</time>
      </trkpt>
      <trkpt lat="40.196859" lon="0.202477">
        <ele>0.219</ele>
        <time>1970-01-01T04:52:30Z</time>
      </trkpt>
      <trkpt lat="40.196816" lon="0.202430">
        <ele>0.209</ele>
        <time>1970-01-01T04:52:31Z</time>
      </trkpt>
      <trkpt lat="40.196773" lon="0.202384">
        <ele>0.219</ele>
        <time>1970-01-01T04:52:32Z</time>
      </trkpt>
      <trkpt lat="40.196728" lon="0.202342">
        <ele>0.208</ele>
        <time>1970-01-01T04:52:33Z</time>
      </trkpt>
      <trkpt lat="40.196682" lon="0.202305">
        <ele>0.248</ele>
        <time>1970-01-01T04:52:34Z</time>
      </trkpt>
      <trkpt lat="40.196636" lon="0.202270">
        <ele>0.225</ele>
        <time>1970-01-01T04:52:35Z</time>
      </trkpt>
      <trkpt lat="40.196589" lon="0.202233">
        <ele>0.046</ele>
        <time>1970-01-01T04:52:36Z</time>
      </trkpt>
      <trkpt lat="40.196544" lon="0.202193">
        <ele>-0.139</ele>
        <time>1970-01-01T04:52:37Z</time>
      </trkpt>
      <trkpt lat="40.196500" lon="0.202154">
        <ele>-0.149</ele>
        <time>1970-01-01T04:52:38Z</time>
      </trkpt>
      <trkpt lat="40.196454" lon="0.202121">
        <ele>-0.185</ele>
        <time>1970-01-01T04:52:39Z</time>
      </trkpt>
      <trkpt lat="40.196409" lon="0.202090">
        <ele>-0.029</ele>
        <time>1970-01-01T04:52:40Z</time>
      </trkpt>
      <trkpt lat="40.196365" lon="0.202058">
        <ele>0.090</ele>
        <time>1970-01-01T04:52:41Z</time>
      </trkpt>
      <trkpt lat="40.196323" lon="0.202025">
        <ele>0.199</ele>
        <time>1970-01-01T04:52:42Z</time>
      </trkpt>
      <trkpt lat="40.196282" lon="0.201991">
        <ele>0.107</ele>
        <time>1970-01-01T04:52:43Z</time>
      </trkpt>
      <trkpt lat="40.196240" lon="0.201958">
        <ele>0.027</ele>
        <time>1970-01-01T04:52:44Z</time>
      </trkpt>
      <trkpt lat="40.196196" lon="0.201923">
        <ele>-0.108</ele>
        <time>1970-01-01T04:52:45Z</time>
      </trkpt>
      <trkpt lat="40.196153" lon="0.201887">
        <ele>-0.266</ele>
        <time>1970-01-01T04:52:46Z</time>
      </trkpt>
      <trkpt lat="40.196110" lon="0.201851">
        <ele>-0.333</ele>
        <time>1970-01-01T04:52:47Z</time>
      </trkpt>
      <trkpt lat="40.196066" lon="0.201814">
        <ele>-0.554</ele>
        <time>1970-01-01T04:52:48Z</time>
      </trkpt>
      <trkpt lat="40.196023" lon="0.201776">
        <ele>-0.697</ele>
        <time>1970-01-01T04:52:49Z</time>
      </trkpt>
      <trkpt lat="40.195980" lon="0.201739">
        <ele>-0.757</ele>
        <time>1970-01-01T04:52:50Z</time>
      </trkpt>
      <trkpt lat="40.195936" lon="0.201703">
        <ele>-0.933</ele>
        <time>1970-01-01T04:52:51Z</time>
      </trkpt>
      <trkpt lat="40.195892" lon="0.201667">
        <ele>-1.067</ele>
        <time>1970-01-01T04:52:52Z</time>
      </trkpt>
      <trkpt lat="40.195848" lon="0.201631">
        <ele>-1.178</ele>
        <time>1970-01-01T04:52:53Z</time>
      </trkpt>
      <trkpt lat="40.195803" lon="0.201593">
        <ele>-1.295</ele>
        <time>1970-01-01T04:52:54Z</time>
      </trkpt>
      <trkpt lat="40.195759" lon="0.201556">
        <ele>-1.349</ele>
        <time>1970-01-01T04:52:55Z</time>
      </trkpt>
      <trkpt lat="40.195714" lon="0.201519">
        <ele>-1.323</ele>
        <time>1970-01-01T04:52:56Z</time>
      </trkpt>
      <trkpt lat="40.195670" lon="0.201483">
        <ele>-1.308</ele>
        <time>1970-01-01T04:52:57Z</time>
      </trkpt>
      <trkpt lat="40.195625" lon="0.201447">
        <ele>-1.286</ele>
        <time>1970-01-01T04:52:58Z</time>
      </trkpt>
      <trkpt lat="40.195580" lon="0.201411">
        <ele>-1.123</ele>
        <time>1970-01-01T04:52:59Z</time>
      </trkpt>
      <trkpt lat="40.195535" lon="0.201375">
        <ele>-1.084</ele>
        <time>1970-01-01T04:53:00Z</time>
      </trkpt>
      <trkpt lat="40.195491" lon="0.201340">
        <ele>-1.047</ele>
        <time>1970-01-01T04:53:01Z</time>
      </trkpt>
      <trkpt lat="40.195447" lon="0.201303">
        <ele>-0.917</ele>
        <time>1970-01-01T04:53:02Z</time>
      </trkpt>
      <trkpt lat="40.195404" lon="0.201267">
        <ele>-0.823</ele>
        <time>1970-01-01T04:53:03Z</time>
      </trkpt>
      <trkpt lat="40.195362" lon="0.201232">
        <ele>-0.627</ele>
        <time>1970-01-01T04:53:04Z</time>
      </trkpt>
      <trkpt lat="40.195318" lon="0.201199">
        <ele>-0.438</ele>
        <time>1970-01-01T04:53:05Z</time>
      </trkpt>
      <trkpt lat="40.195274" lon="0.201168">
        <ele>-0.276</ele>
        <time>1970-01-01T04:53:06Z</time>
      </trkpt>
      <trkpt lat="40.195228" lon="0.201136">
        <ele>-0.190</ele>
        <time>1970-01-01T04:53:07Z</time>
      </trkpt>
      <trkpt lat="40.195183" lon="0.201099">
        <ele>-0.019</ele>
        <time>1970-01-01T04:53:08Z</time>
      </trkpt>
      <trkpt lat="40.195139" lon="0.201062">
        <ele>-0.108</ele>
        <time>1970-01-01T04:53:09Z</time>
      </trkpt>
      <trkpt lat="40.195094" lon="0.201025">
        <ele>-0.214</ele>
        <time>1970-01-01T04:53:10Z</time>
      </trkpt>
      <trkpt lat="40.195049" lon="0.200990">
        <ele>-0.471</ele>
        <time>1970-01-01T04:53:11Z</time>
      </trkpt>
      <trkpt lat="40.195006" lon="0.200954">
        <ele>-0.672</ele>
        <time>1970-01-01T04:53:12Z</time>
      </trkpt>
      <trkpt lat="40.194962" lon="0.200917">
        <ele>-0.815</ele>
        <time>1970-01-01T04:53:13Z</time>
      </trkpt>
      <trkpt lat="40.194919" lon="0.200879">
        <ele>-1.115</ele>
        <time>1970-01-01T04:53:14Z</time>
      </trkpt>
      <trkpt lat="40.194875" lon="0.200841">
        <ele>-1.491</ele>
        <time>1970-01-01T04:53:15Z</time>
      </trkpt>
      <trkpt lat="40.194831" lon="0.200803">
        <ele>-1.575</ele>
        <time>1970-01-01T04:53:16Z</time>
      </trkpt>
      <trkpt lat="40.194786" lon="0.200765">
        <ele>-1.646</ele>
        <time>1970-01-01T04:53:17Z</time>
      </trkpt>
      <trkpt lat="40.194740" lon="0.200727">
        <ele>-1.633</ele>
        <time>1970-01-01T04:53:18Z</time>
      </trkpt>
      <trkpt lat="40.194694" lon="0.200692">
        <ele>-1.523</ele>
        <time>1970-01-01T04:53:19Z</time>
      </trkpt>
      <trkpt lat="40.194648" lon="0.200659">
        <ele>-1.415</ele>
        <time>1970-01-01T04:53:20Z</time>
      </trkpt>
      <trkpt lat="40.194604" lon="0.200625">
        <ele>-1.208</ele>
        <time>1970-01-01T04:53:21Z</time>
      </trkpt>
      <trkpt lat="40.194559" lon="0.200589">
        <ele>-1.160</ele>
        <time>1970-01-01T04:53:22Z</time>
      </trkpt>
      <trkpt lat="40.194514" lon="0.200552">
        <ele>-1.077</ele>
        <time>1970-01-01T04:53:23Z</time>
      </trkpt>
      <trkpt lat="40.194468" lon="0.200516">
        <ele>-1.088</ele>
        <time>1970-01-01T04:53:24Z</time>
      </trkpt>
      <trkpt lat="40.194422" lon="0.200480">
        <ele>-1.041</ele>
        <time>1970-01-01T04:53:25Z</time>
      </trkpt>
      <trkpt lat="40.194377" lon="0.200444">
        <ele>-1.091</ele>
        <time>1970-01-01T04:53:26Z</time>
      </trkpt>
      <trkpt lat="40.194331" lon="0.200411">
        <ele>-1.047</ele>
        <time>1970-01-01T04:53:27Z</time>
      </trkpt>
      <trkpt lat="40.194284" lon="0.200377">
        <ele>-1.041</ele>
        <time>1970-01-01T04:53:28Z</time>
      </trkpt>
      <trkpt lat="40.194238" lon="0.200341">
        <ele>-1.042</ele>
        <time>1970-01-01T04:53:29Z</time>
      </trkpt>
      <trkpt lat="40.194193" lon="0.200304">
        <ele>-1.081</ele>
        <time>1970-01-01T04:53:30Z</time>
      </trkpt>
      <trkpt lat="40.194146" lon="0.200269">
        <ele>-0.961</ele>
        <time>1970-01-01T04:53:31Z</time>
      </trkpt>
      <trkpt lat="40.194101" lon="0.200235">
        <ele>-0.817</ele>
        <time>1970-01-01T04:53:32Z</time>
      </trkpt>
      <trkpt lat="40.194057" lon="0.200198">
        <ele>-0.608</ele>
        <time>1970-01-01T04:53:33Z</time>
      </trkpt>
      <trkpt lat="40.194011" lon="0.200164">
        <ele>-0.485</ele>
        <time>1970-01-01T04:53:34Z</time>
      </trkpt>
      <trkpt lat="40.193965" lon="0.200134">
        <ele>-0.382</ele>
        <time>1970-01-01T04:53:35Z</time>
      </trkpt>
      <trkpt lat="40.193921" lon="0.200104">
        <ele>-0.123</ele>
        <time>1970-01-01T04:53:36Z</time>
      </trkpt>
      <trkpt lat="40.193877" lon="0.200073">
        <ele>0.016</ele>
        <time>1970-01-01T04:53:37Z</time>
      </trkpt>
      <trkpt lat="40.193833" lon="0.200042">
        <ele>0.036</ele>
        <time>1970-01-01T04:53:38Z</time>
      </trkpt>
      <trkpt lat="40.193790" lon="0.200012">
        <ele>0.012</ele>
        <time>1970-01-01T04:53:39Z</time>
      </trkpt>
      <trkpt lat="40.193747" lon="0.199982">
        <ele>-0.096</ele>
        <time>1970-01-01T04:53:40Z</time>
      </trkpt>
      <trkpt lat="40.193702" lon="0.199953">
        <ele>-0.127</ele>
        <time>1970-01-01T04:53:41Z</time>
      </trkpt>
      <trkpt lat="40.193658" lon="0.199922">
        <ele>-0.075</ele>
        <time>1970-01-01T04:53:42Z</time>
      </trkpt>
      <trkpt lat="40.193612" lon="0.199894">
        <ele>-0.028</ele>
        <time>1970-01-01T04:53:43Z</time>
      </trkpt>
      <trkpt lat="40.193567" lon="0.199867">
        <ele>-0.120</ele>
        <time>1970-01-01T04:53:44Z</time>
      </trkpt>
      <trkpt lat="40.193523" lon="0.199837">
        <ele>-0.208</ele>
        <time>1970-01-01T04:53:45Z</time>
      </trkpt>
      <trkpt lat="40.193480" lon="0.199804">
        <ele>-0.334</ele>
        <time>1970-01-01T04:53:46Z</time>
      </trkpt>
      <trkpt lat="40.193438" lon="0.199771">
        <ele>-0.541</ele>
        <time>1970-01-01T04:53:47Z</time>
      </trkpt>
      <trkpt lat="40.193395" lon="0.199739">
        <ele>-0.742</ele>
        <time>1970-01-01T04:53:48Z</time>
      </trkpt>
      <trkpt lat="40.193351" lon="0.199710">
        <ele>-0.935</ele>
        <time>1970-01-01T04:53:49Z</time>
      </trkpt>
      <trkpt lat="40.193307" lon="0.199679">
        <ele>-0.985</ele>
        <time>1970-01-01T04:53:50Z</time>
      </trkpt>
      <trkpt lat="40.193264" lon="0.199647">
        <ele>-0.811</ele>
        <time>1970-01-01T04:53:51Z</time>
      </trkpt>
      <trkpt lat="40.193220" lon="0.199617">
        <ele>-0.675</ele>
        <time>1970-01-01T04:53:52Z</time>
      </trkpt>
      <trkpt lat="40.193175" lon="0.199588">
        <ele>-0.416</ele>
        <time>1970-01-01T04:53:53Z</time>
      </trkpt>
      <trkpt lat="40.193130" lon="0.199558">
        <ele>-0.382</ele>
        <time>1970-01-01T04:53:54Z</time>
      </trkpt>
      <trkpt lat="40.193086" lon="0.199528">
        <ele>-0.143</ele>
        <time>1970-01-01T04:53:55Z</time>
      </trkpt>
      <trkpt lat="40.193043" lon="0.199496">
        <ele>0.017</ele>
        <time>1970-01-01T04:53:56Z</time>
      </trkpt>
      <trkpt lat="40.193001" lon="0.199463">
        <ele>0.208</ele>
        <time>1970-01-01T04:53:57Z</time>
      </trkpt>
      <trkpt lat="40.192958" lon="0.199432">
        <ele>0.315</ele>
        <time>1970-01-01T04:53:58Z</time>
      </trkpt>
      <trkpt lat="40.192914" lon="0.199401">
        <ele>0.412</ele>
        <time>1970-01-01T04:53:59Z</time>
      </trkpt>
      <trkpt lat="40.192869" lon="0.199371">
        <ele>0.523</ele>
        <time>1970-01-01T04:54:00Z</time>
      </trkpt>
      <trkpt lat="40.192821" lon="0.199339">
        <ele>0.516</ele>
        <time>1970-01-01T04:54:01Z</time>
      </trkpt>
      <trkpt lat="40.192773" lon="0.199305">
        <ele>0.596</ele>
        <time>1970-01-01T04:54:02Z</time>
      </trkpt>
      <trkpt lat="40.192728" lon="0.199269">
        <ele>0.482</ele>
        <time>1970-01-01T04:54:03Z</time>
      </trkpt>
      <trkpt lat="40.192682" lon="0.199236">
        <ele>0.226</ele>
        <time>1970-01-01T04:54:04Z</time>
      </trkpt>
      <trkpt lat="40.192635" lon="0.199205">
        <ele>0.177</ele>
        <time>1970-01-01T04:54:05Z</time>
      </trkpt>
      <trkpt lat="40.192592" lon="0.199173">
        <ele>0.079</ele>
        <time>1970-01-01T04:54:06Z</time>
      </trkpt>
      <trkpt lat="40.192554" lon="0.199141">
        <ele>-0.105</ele>
        <time>1970-01-01T04:54:07Z</time>
      </trkpt>
      <trkpt lat="40.192518" lon="0.199110">
        <ele>-0.225</ele>
        <time>1970-01-01T04:54:08Z</time>
      </trkpt>
      <trkpt lat="40.192487" lon="0.199076">
        <ele>-0.408</ele>
        <time>1970-01-01T04:54:09Z</time>
      </trkpt>
      <trkpt lat="40.192468" lon="0.199044">
        <ele>-0.644</ele>
        <time>1970-01-01T04:54:10Z</time>
      </trkpt>
      <trkpt lat="40.192463" lon="0.199003">
        <ele>-0.791</ele>
        <time>1970-01-01T04:54:11Z</time>
      </trkpt>
      <trkpt lat="40.192474" lon="0.198958">
        <ele>-0.822</ele>
        <time>1970-01-01T04:54:12Z</time>
      </trkpt>
      <trkpt lat="40.192500" lon="0.198918">
        <ele>-0.935</ele>
        <time>1970-01-01T04:54:13Z</time>
      </trkpt>
      <trkpt lat="40.192531" lon="0.198880">
        <ele>-0.925</ele>
        <time>1970-01-01T04:54:14Z</time>
      </trkpt>
      <trkpt lat="40.192566" lon="0.198841">
        <ele>-0.661</ele>
        <time>1970-01-01T04:54:15Z</time>
      </trkpt>
      <trkpt lat="40.192599" lon="0.198799">
        <ele>-0.435</ele>
        <time>1970-01-01T04:54:16Z</time>
      </trkpt>
      <trkpt lat="40.192633" lon="0.198755">
        <ele>-0.326</ele>
        <time>1970-01-01T04:54:17Z</time>
      </trkpt>
      <trkpt lat="40.192666" lon="0.198711">
        <ele>-0.176</ele>
        <time>1970-01-01T04:54:18Z</time>
      </trkpt>
      <trkpt lat="40.192697" lon="0.198667">
        <ele>-0.190</ele>
        <time>1970-01-01T04:54:19Z</time>
      </trkpt>
      <trkpt lat="40.192727" lon="0.198623">
        <ele>-0.019</ele>
        <time>1970-01-01T04:54:20Z</time>
      </trkpt>
      <trkpt lat="40.192757" lon="0.198567">
        <ele>0.008</ele>
        <time>1970-01-01T04:54:21Z</time>
      </trkpt>
      <trkpt lat="40.192774" lon="0.198507">
        <ele>0.024</ele>
        <time>1970-01-01T04:54:22Z</time>
      </trkpt>
      <trkpt lat="40.192770" lon="0.198448">
        <ele>0.041</ele>
        <time>1970-01-01T04:54:23Z</time>
      </trkpt>
      <trkpt lat="40.192752" lon="0.198389">
        <ele>0.032</ele>
        <time>1970-01-01T04:54:24Z</time>
      </trkpt>
      <trkpt lat="40.192726" lon="0.198331">
        <ele>0.085</ele>
        <time>1970-01-01T04:54:25Z</time>
      </trkpt>
      <trkpt lat="40.192698" lon="0.198275">
        <ele>0.145</ele>
        <time>1970-01-01T04:54:26Z</time>
      </trkpt>
      <trkpt lat="40.192667" lon="0.198219">
        <ele>0.251</ele>
        <time>1970-01-01T04:54:27Z</time>
      </trkpt>
      <trkpt lat="40.192635" lon="0.198163">
        <ele>0.345</ele>
        <time>1970-01-01T04:54:28Z</time>
      </trkpt>
      <trkpt lat="40.192602" lon="0.198104">
        <ele>0.546</ele>
        <time>1970-01-01T04:54:29Z</time>
      </trkpt>
      <trkpt lat="40.192567" lon="0.198045">
        <ele>0.825</ele>
        <time>1970-01-01T04:54:30Z</time>
      </trkpt>
      <trkpt lat="40.192533" lon="0.197987">
        <ele>0.926</ele>
        <time>1970-01-01T04:54:31Z</time>
      </trkpt>
      <trkpt lat="40.192498" lon="0.197929">
        <ele>1.008</ele>
        <time>1970-01-01T04:54:32Z</time>
      </trkpt>
      <trkpt lat="40.192463" lon="0.197869">
        <ele>1.008</ele>
        <time>1970-01-01T04:54:33Z</time>
      </trkpt>
      <trkpt lat="40.192427" lon="0.197810">
        <ele>1.099</ele>
        <time>1970-01-01T04:54:34Z</time>
      </trkpt>
      <trkpt lat="40.192389" lon="0.197752">
        <ele>1.026</ele>
        <time>1970-01-01T04:54:35Z</time>
      </trkpt>
      <trkpt lat="40.192350" lon="0.197696">
        <ele>0.897</ele>
        <time>1970-01-01T04:54:36Z</time>
      </trkpt>
      <trkpt lat="40.192309" lon="0.197640">
        <ele>0.730</ele>
        <time>1970-01-01T04:54:37Z</time>
      </trkpt>
      <trkpt lat="40.192268" lon="0.197585">
        <ele>0.440</ele>
        <time>1970-01-01T04:54:38Z</time>
      </trkpt>
      <trkpt lat="40.192227" lon="0.197530">
        <ele>0.186</ele>
        <time>1970-01-01T04:54:39Z</time>
      </trkpt>
      <trkpt lat="40.192186" lon="0.197476">
        <ele>-0.040</ele>
        <time>1970-01-01T04:54:40Z</time>
      </trkpt>
      <trkpt lat="40.192144" lon="0.197421">
        <ele>-0.151</ele>
        <time>1970-01-01T04:54:41Z</time>
      </trkpt>
      <trkpt lat="40.192102" lon="0.197368">
        <ele>-0.213</ele>
        <time>1970-01-01T04:54:42Z</time>
      </trkpt>
      <trkpt lat="40.192060" lon="0.197314">
        <ele>-0.443</ele>
        <time>1970-01-01T04:54:43Z</time>
      </trkpt>
      <trkpt lat="40.192020" lon="0.197261">
        <ele>-0.607</ele>
        <time>1970-01-01T04:54:44Z</time>
      </trkpt>
      <trkpt lat="40.191980" lon="0.197209">
        <ele>-0.808</ele>
        <time>1970-01-01T04:54:45Z</time>
      </trkpt>
      <trkpt lat="40.191939" lon="0.197157">
        <ele>-0.828</ele>
        <time>1970-01-01T04:54:46Z</time>
      </trkpt>
      <trkpt lat="40.191898" lon="0.197105">
        <ele>-0.635</ele>
        <time>1970-01-01T04:54:47Z</time>
      </trkpt>
      <trkpt lat="40.191856" lon="0.197053">
        <ele>-0.486</ele>
        <time>1970-01-01T04:54:48Z</time>
      </trkpt>
      <trkpt lat="40.191813" lon="0.197001">
        <ele>-0.249</ele>
        <time>1970-01-01T04:54:49Z</time>
      </trkpt>
      <trkpt lat="40.191770" lon="0.196950">
        <ele>-0.019</ele>
        <time>1970-01-01T04:54:50Z</time>
      </trkpt>
      <trkpt lat="40.191725" lon="0.196901">
        <ele>0.145</ele>
        <time>1970-01-01T04:54:51Z</time>
      </trkpt>
      <trkpt lat="40.191682" lon="0.196851">
        <ele>0.389</ele>
        <time>1970-01-01T04:54:52Z</time>
      </trkpt>
      <trkpt lat="40.191639" lon="0.196800">
        <ele>0.570</ele>
        <time>1970-01-01T04:54:53Z</time>
      </trkpt>
      <trkpt lat="40.191597" lon="0.196746">
        <ele>0.573</ele>
        <time>1970-01-01T04:54:54Z</time>
      </trkpt>
      <trkpt lat="40.191554" lon="0.196692">
        <ele>0.585</ele>
        <time>1970-01-01T04:54:55Z</time>
      </trkpt>
      <trkpt lat="40.191513" lon="0.196637">
        <ele>0.413</ele>
        <time>1970-01-01T04:54:56Z</time>
      </trkpt>
      <trkpt lat="40.191470" lon="0.196584">
        <ele>0.208</ele>
        <time>1970-01-01T04:54:57Z</time>
      </trkpt>
      <trkpt lat="40.191425" lon="0.196532">
        <ele>0.184</ele>
        <time>1970-01-01T04:54:58Z</time>
      </trkpt>
      <trkpt lat="40.191383" lon="0.196480">
        <ele>0.081</ele>
        <time>1970-01-01T04:54:59Z</time>
      </trkpt>
      <trkpt lat="40.191342" lon="0.196425">
        <ele>0.082</ele>
        <time>1970-01-01T04:55:00Z</time>
      </trkpt>
      <trkpt lat="40.191302" lon="0.196370">
        <ele>0.045</ele>
        <time>1970-01-01T04:55:01Z</time>
      </trkpt>
      <trkpt lat="40.191261" lon="0.196315">
        <ele>0.045</ele>
        <time>1970-01-01T04:55:02Z</time>
      </trkpt>
      <trkpt lat="40.191217" lon="0.196261">
        <ele>0.021</ele>
        <time>1970-01-01T04:55:03Z</time>
      </trkpt>
      <trkpt lat="40.191173" lon="0.196209">
        <ele>0.025</ele>
        <time>1970-01-01T04:55:04Z</time>
      </trkpt>
      <trkpt lat="40.191129" lon="0.196153">
        <ele>0.096</ele>
        <time>1970-01-01T04:55:05Z</time>
      </trkpt>
      <trkpt lat="40.191089" lon="0.196097">
        <ele>0.185</ele>
        <time>1970-01-01T04:55:06Z</time>
      </trkpt>
      <trkpt lat="40.191049" lon="0.196041">
        <ele>0.389</ele>
        <time>1970-01-01T04:55:07Z</time>
      </trkpt>
      <trkpt lat="40.191007" lon="0.195986">
        <ele>0.517</ele>
        <time>1970-01-01T04:55:08Z</time>
      </trkpt>
      <trkpt lat="40.190964" lon="0.195930">
        <ele>0.708</ele>
        <time>1970-01-01T04:55:09Z</time>
      </trkpt>
      <trkpt lat="40.190920" lon="0.195875">
        <ele>0.855</ele>
        <time>1970-01-01T04:55:10Z</time>
      </trkpt>
      <trkpt lat="40.190878" lon="0.195820">
        <ele>1.012</ele>
        <time>1970-01-01T04:55:11Z</time>
      </trkpt>
      <trkpt lat="40.190837" lon="0.195764">
        <ele>1.083</ele>
        <time>1970-01-01T04:55:12Z</time>
      </trkpt>
      <trkpt lat="40.190797" lon="0.195709">
        <ele>0.996</ele>
        <time>1970-01-01T04:55:13Z</time>
      </trkpt>
      <trkpt lat="40.190756" lon="0.195653">
        <ele>0.776</ele>
        <time>1970-01-01T04:55:14Z</time>
      </trkpt>
      <trkpt lat="40.190714" lon="0.195601">
        <ele>0.612</ele>
        <time>1970-01-01T04:55:15Z</time>
      </trkpt>
      <trkpt lat="40.190673" lon="0.195550">
        <ele>0.416</ele>
        <time>1970-01-01T04:55:16Z</time>
      </trkpt>
      <trkpt lat="40.190633" lon="0.195496">
        <ele>0.217</ele>
        <time>1970-01-01T04:55:17Z</time>
      </trkpt>
      <trkpt lat="40.190593" lon="0.195442">
        <ele>0.124</ele>
        <time>1970-01-01T04:55:18Z</time>
      </trkpt>
      <trkpt lat="40.190552" lon="0.195387">
        <ele>-0.004</ele>
        <time>1970-01-01T04:55:19Z</time>
      </trkpt>
      <trkpt lat="40.190510" lon="0.195334">
        <ele>-0.114</ele>
        <time>1970-01-01T04:55:20Z</time>
      </trkpt>
      <trkpt lat="40.190468" lon="0.195281">
        <ele>-0.308</ele>
        <time>1970-01-01T04:55:21Z</time>
      </trkpt>
      <trkpt lat="40.190427" lon="0.195229">
        <ele>-0.659</ele>
        <time>1970-01-01T04:55:22Z</time>
      </trkpt>
      <trkpt lat="40.190385" lon="0.195176">
        <ele>-0.836</ele>
        <time>1970-01-01T04:55:23Z</time>
      </trkpt>
      <trkpt lat="40.190344" lon="0.195123">
        <ele>-0.967</ele>
        <time>1970-01-01T04:55:24Z</time>
      </trkpt>
      <trkpt lat="40.190303" lon="0.195070">
        <ele>-1.010</ele>
        <time>1970-01-01T04:55:25Z</time>
      </trkpt>
      <trkpt lat="40.190262" lon="0.195017">
        <ele>-1.040</ele>
        <time>1970-01-01T04:55:26Z</time>
      </trkpt>
      <trkpt lat="40.190221" lon="0.194964">
        <ele>-1.046</ele>
        <time>1970-01-01T04:55:27Z</time>
      </trkpt>
      <trkpt lat="40.190178" lon="0.194909">
        <ele>-1.020</ele>
        <time>1970-01-01T04:55:28Z</time>
      </trkpt>
      <trkpt lat="40.190136" lon="0.194857">
        <ele>-1.031</ele>
        <time>1970-01-01T04:55:29Z</time>
      </trkpt>
      <trkpt lat="40.190096" lon="0.194803">
        <ele>-1.013</ele>
        <time>1970-01-01T04:55:30Z</time>
      </trkpt>
      <trkpt lat="40.190055" lon="0.194749">
        <ele>-1.043</ele>
        <time>1970-01-01T04:55:31Z</time>
      </trkpt>
      <trkpt lat="40.190013" lon="0.194694">
        <ele>-1.007</ele>
        <time>1970-01-01T04:55:32Z</time>
      </trkpt>
      <trkpt lat="40.189971" lon="0.194640">
        <ele>-0.908</ele>
        <time>1970-01-01T04:55:33Z</time>
      </trkpt>
      <trkpt lat="40.189929" lon="0.194586">
        <ele>-0.738</ele>
        <time>1970-01-01T04:55:34Z</time>
      </trkpt>
      <trkpt lat="40.189887" lon="0.194534">
        <ele>-0.625</ele>
        <time>1970-01-01T04:55:35Z</time>
      </trkpt>
      <trkpt lat="40.189845" lon="0.194483">
        <ele>-0.476</ele>
        <time>1970-01-01T04:55:36Z</time>
      </trkpt>
      <trkpt lat="40.189804" lon="0.194431">
        <ele>-0.389</ele>
        <time>1970-01-01T04:55:37Z</time>
      </trkpt>
      <trkpt lat="40.189763" lon="0.194377">
        <ele>-0.159</ele>
        <time>1970-01-01T04:55:38Z</time>
      </trkpt>
      <trkpt lat="40.189723" lon="0.194322">
        <ele>-0.045</ele>
        <time>1970-01-01T04:55:39Z</time>
      </trkpt>
      <trkpt lat="40.189681" lon="0.194269">
        <ele>0.119</ele>
        <time>1970-01-01T04:55:40Z</time>
      </trkpt>
      <trkpt lat="40.189639" lon="0.194217">
        <ele>0.350</ele>
        <time>1970-01-01T04:55:41Z</time>
      </trkpt>
      <trkpt lat="40.189596" lon="0.194165">
        <ele>0.523</ele>
        <time>1970-01-01T04:55:42Z</time>
      </trkpt>
      <trkpt lat="40.189554" lon="0.194113">
        <ele>0.683</ele>
        <time>1970-01-01T04:55:43Z</time>
      </trkpt>
      <trkpt lat="40.189513" lon="0.194060">
        <ele>0.811</ele>
        <time>1970-01-01T04:55:44Z</time>
      </trkpt>
      <trkpt lat="40.189474" lon="0.194005">
        <ele>0.908</ele>
        <time>1970-01-01T04:55:45Z</time>
      </trkpt>
      <trkpt lat="40.189435" lon="0.193951">
        <ele>1.039</ele>
        <time>1970-01-01T04:55:46Z</time>
      </trkpt>
      <trkpt lat="40.189394" lon="0.193897">
        <ele>1.026</ele>
        <time>1970-01-01T04:55:47Z</time>
      </trkpt>
      <trkpt lat="40.189351" lon="0.193845">
        <ele>1.057</ele>
        <time>1970-01-01T04:55:48Z</time>
      </trkpt>
      <trkpt lat="40.189309" lon="0.193791">
        <ele>1.070</ele>
        <time>1970-01-01T04:55:49Z</time>
      </trkpt>
      <trkpt lat="40.189267" lon="0.193738">
        <ele>1.050</ele>
        <time>1970-01-01T04:55:50Z</time>
      </trkpt>
      <trkpt lat="40.189224" lon="0.193685">
        <ele>1.016</ele>
        <time>1970-01-01T04:55:51Z</time>
      </trkpt>
      <trkpt lat="40.189181" lon="0.193632">
        <ele>1.060</ele>
        <time>1970-01-01T04:55:52Z</time>
      </trkpt>
      <trkpt lat="40.189138" lon="0.193577">
        <ele>0.961</ele>
        <time>1970-01-01T04:55:53Z</time>
      </trkpt>
      <trkpt lat="40.189094" lon="0.193524">
        <ele>0.796</ele>
        <time>1970-01-01T04:55:54Z</time>
      </trkpt>
      <trkpt lat="40.189053" lon="0.193471">
        <ele>0.631</ele>
        <time>1970-01-01T04:55:55Z</time>
      </trkpt>
      <trkpt lat="40.189011" lon="0.193418">
        <ele>0.424</ele>
        <time>1970-01-01T04:55:56Z</time>
      </trkpt>
      <trkpt lat="40.188968" lon="0.193366">
        <ele>0.308</ele>
        <time>1970-01-01T04:55:57Z</time>
      </trkpt>
      <trkpt lat="40.188926" lon="0.193313">
        <ele>0.126</ele>
        <time>1970-01-01T04:55:58Z</time>
      </trkpt>
      <trkpt lat="40.188886" lon="0.193260">
        <ele>-0.063</ele>
        <time>1970-01-01T04:55:59Z</time>
      </trkpt>
      <trkpt lat="40.188846" lon="0.193206">
        <ele>-0.214</ele>
        <time>1970-01-01T04:56:00Z</time>
      </trkpt>
      <trkpt lat="40.188804" lon="0.193152">
        <ele>-0.557</ele>
        <time>1970-01-01T04:56:01Z</time>
      </trkpt>
      <trkpt lat="40.188762" lon="0.193101">
        <ele>-0.897</ele>
        <time>1970-01-01T04:56:02Z</time>
      </trkpt>
      <trkpt lat="40.188717" lon="0.193051">
        <ele>-1.263</ele>
        <time>1970-01-01T04:56:03Z</time>
      </trkpt>
      <trkpt lat="40.188673" lon="0.192999">
        <ele>-1.677</ele>
        <time>1970-01-01T04:56:04Z</time>
      </trkpt>
      <trkpt lat="40.188631" lon="0.192947">
        <ele>-1.988</ele>
        <time>1970-01-01T04:56:05Z</time>
      </trkpt>
      <trkpt lat="40.188590" lon="0.192893">
        <ele>-2.081</ele>
        <time>1970-01-01T04:56:06Z</time>
      </trkpt>
      <trkpt lat="40.188549" lon="0.192839">
        <ele>-2.061</ele>
        <time>1970-01-01T04:56:07Z</time>
      </trkpt>
      <trkpt lat="40.188506" lon="0.192787">
        <ele>-2.017</ele>
        <time>1970-01-01T04:56:08Z</time>
      </trkpt>
      <trkpt lat="40.188465" lon="0.192735">
        <ele>-1.908</ele>
        <time>1970-01-01T04:56:09Z</time>
      </trkpt>
      <trkpt lat="40.188425" lon="0.192684">
        <ele>-1.915</ele>
        <time>1970-01-01T04:56:10Z</time>
      </trkpt>
      <trkpt lat="40.188383" lon="0.192634">
        <ele>-1.922</ele>
        <time>1970-01-01T04:56:11Z</time>
      </trkpt>
      <trkpt lat="40.188341" lon="0.192583">
        <ele>-2.023</ele>
        <time>1970-01-01T04:56:12Z</time>
      </trkpt>
      <trkpt lat="40.188300" lon="0.192530">
        <ele>-1.946</ele>
        <time>1970-01-01T04:56:13Z</time>
      </trkpt>
      <trkpt lat="40.188257" lon="0.192477">
        <ele>-1.746</ele>
        <time>1970-01-01T04:56:14Z</time>
      </trkpt>
      <trkpt lat="40.188215" lon="0.192426">
        <ele>-1.792</ele>
        <time>1970-01-01T04:56:15Z</time>
      </trkpt>
      <trkpt lat="40.188174" lon="0.192374">
        <ele>-1.716</ele>
        <time>1970-01-01T04:56:16Z</time>
      </trkpt>
      <trkpt lat="40.188133" lon="0.192325">
        <ele>-1.787</ele>
        <time>1970-01-01T04:56:17Z</time>
      </trkpt>
      <trkpt lat="40.188093" lon="0.192276">
        <ele>-1.854</ele>
        <time>1970-01-01T04:56:18Z</time>
      </trkpt>
      <trkpt lat="40.188053" lon="0.192227">
        <ele>-2.056</ele>
        <time>1970-01-01T04:56:19Z</time>
      </trkpt>
      <trkpt lat="40.188013" lon="0.192178">
        <ele>-1.711</ele>
        <time>1970-01-01T04:56:20Z</time>
      </trkpt>
      <trkpt lat="40.187970" lon="0.192129">
        <ele>-1.408</ele>
        <time>1970-01-01T04:56:21Z</time>
      </trkpt>
      <trkpt lat="40.187929" lon="0.192081">
        <ele>-1.032</ele>
        <time>1970-01-01T04:56:22Z</time>
      </trkpt>
      <trkpt lat="40.187888" lon="0.192031">
        <ele>-0.729</ele>
        <time>1970-01-01T04:56:23Z</time>
      </trkpt>
      <trkpt lat="40.187848" lon="0.191983">
        <ele>-0.480</ele>
        <time>1970-01-01T04:56:24Z</time>
      </trkpt>
      <trkpt lat="40.187810" lon="0.191934">
        <ele>-0.173</ele>
        <time>1970-01-01T04:56:25Z</time>
      </trkpt>
      <trkpt lat="40.187771" lon="0.191887">
        <ele>0.093</ele>
        <time>1970-01-01T04:56:26Z</time>
      </trkpt>
      <trkpt lat="40.187732" lon="0.191840">
        <ele>0.279</ele>
        <time>1970-01-01T04:56:27Z</time>
      </trkpt>
      <trkpt lat="40.187694" lon="0.191789">
        <ele>0.363</ele>
        <time>1970-01-01T04:56:28Z</time>
      </trkpt>
      <trkpt lat="40.187656" lon="0.191737">
        <ele>0.464</ele>
        <time>1970-01-01T04:56:29Z</time>
      </trkpt>
      <trkpt lat="40.187617" lon="0.191689">
        <ele>0.682</ele>
        <time>1970-01-01T04:56:30Z</time>
      </trkpt>
      <trkpt lat="40.187578" lon="0.191641">
        <ele>0.743</ele>
        <time>1970-01-01T04:56:31Z</time>
      </trkpt>
      <trkpt lat="40.187539" lon="0.191595">
        <ele>0.617</ele>
        <time>1970-01-01T04:56:32Z</time>
      </trkpt>
      <trkpt lat="40.187500" lon="0.191547">
        <ele>0.608</ele>
        <time>1970-01-01T04:56:33Z</time>
      </trkpt>
      <trkpt lat="40.187461" lon="0.191497">
        <ele>0.435</ele>
        <time>1970-01-01T04:56:34Z</time>
      </trkpt>
      <trkpt lat="40.187422" lon="0.191449">
        <ele>0.242</ele>
        <time>1970-01-01T04:56:35Z</time>
      </trkpt>
      <trkpt lat="40.187383" lon="0.191401">
        <ele>0.093</ele>
        <time>1970-01-01T04:56:36Z</time>
      </trkpt>
      <trkpt lat="40.187344" lon="0.191352">
        <ele>-0.166</ele>
        <time>1970-01-01T04:56:37Z</time>
      </trkpt>
      <trkpt lat="40.187307" lon="0.191303">
        <ele>-0.156</ele>
        <time>1970-01-01T04:56:38Z</time>
      </trkpt>
      <trkpt lat="40.187267" lon="0.191257">
        <ele>-0.142</ele>
        <time>1970-01-01T04:56:39Z</time>
      </trkpt>
      <trkpt lat="40.187228" lon="0.191210">
        <ele>-0.046</ele>
        <time>1970-01-01T04:56:40Z</time>
      </trkpt>
      <trkpt lat="40.187189" lon="0.191164">
        <ele>0.037</ele>
        <time>1970-01-01T04:56:41Z</time>
      </trkpt>
      <trkpt lat="40.187151" lon="0.191118">
        <ele>0.031</ele>
        <time>1970-01-01T04:56:42Z</time>
      </trkpt>
      <trkpt lat="40.187114" lon="0.191070">
        <ele>0.061</ele>
        <time>1970-01-01T04:56:43Z</time>
      </trkpt>
      <trkpt lat="40.187076" lon="0.191021">
        <ele>0.007</ele>
        <time>1970-01-01T04:56:44Z</time>
      </trkpt>
      <trkpt lat="40.187036" lon="0.190972">
        <ele>0.008</ele>
        <time>1970-01-01T04:56:45Z</time>
      </trkpt>
      <trkpt lat="40.186994" lon="0.190923">
        <ele>0.020</ele>
        <time>1970-01-01T04:56:46Z</time>
      </trkpt>
      <trkpt lat="40.186954" lon="0.190874">
        <ele>0.087</ele>
        <time>1970-01-01T04:56:47Z</time>
      </trkpt>
      <trkpt lat="40.186915" lon="0.190826">
        <ele>-0.168</ele>
        <time>1970-01-01T04:56:48Z</time>
      </trkpt>
      <trkpt lat="40.186877" lon="0.190780">
        <ele>-0.261</ele>
        <time>1970-01-01T04:56:49Z</time>
      </trkpt>
      <trkpt lat="40.186840" lon="0.190737">
        <ele>-0.451</ele>
        <time>1970-01-01T04:56:50Z</time>
      </trkpt>
      <trkpt lat="40.186807" lon="0.190694">
        <ele>-0.537</ele>
        <time>1970-01-01T04:56:51Z</time>
      </trkpt>
      <trkpt lat="40.186777" lon="0.190650">
        <ele>-0.621</ele>
        <time>1970-01-01T04:56:52Z</time>
      </trkpt>
      <trkpt lat="40.186745" lon="0.190604">
        <ele>-0.712</ele>
        <time>1970-01-01T04:56:53Z</time>
      </trkpt>
      <trkpt lat="40.186712" lon="0.190561">
        <ele>-0.847</ele>
        <time>1970-01-01T04:56:54Z</time>
      </trkpt>
      <trkpt lat="40.186681" lon="0.190518">
        <ele>-1.029</ele>
        <time>1970-01-01T04:56:55Z</time>
      </trkpt>
      <trkpt lat="40.186661" lon="0.190470">
        <ele>-1.021</ele>
        <time>1970-01-01T04:56:56Z</time>
      </trkpt>
      <trkpt lat="40.186655" lon="0.190418">
        <ele>-1.008</ele>
        <time>1970-01-01T04:56:57Z</time>
      </trkpt>
      <trkpt lat="40.186658" lon="0.190363">
        <ele>-1.071</ele>
        <time>1970-01-01T04:56:58Z</time>
      </trkpt>
      <trkpt lat="40.186675" lon="0.190308">
        <ele>-1.058</ele>
        <time>1970-01-01T04:56:59Z</time>
      </trkpt>
      <trkpt lat="40.186703" lon="0.190260">
        <ele>-1.029</ele>
        <time>1970-01-01T04:57:00Z</time>
      </trkpt>
      <trkpt lat="40.186735" lon="0.190213">
        <ele>-1.082</ele>
        <time>1970-01-01T04:57:01Z</time>
      </trkpt>
      <trkpt lat="40.186769" lon="0.190162">
        <ele>-1.032</ele>
        <time>1970-01-01T04:57:02Z</time>
      </trkpt>
      <trkpt lat="40.186804" lon="0.190108">
        <ele>-1.098</ele>
        <time>1970-01-01T04:57:03Z</time>
      </trkpt>
      <trkpt lat="40.186836" lon="0.190052">
        <ele>-1.022</ele>
        <time>1970-01-01T04:57:04Z</time>
      </trkpt>
      <trkpt lat="40.186866" lon="0.189993">
        <ele>-1.033</ele>
        <time>1970-01-01T04:57:05Z</time>
      </trkpt>
      <trkpt lat="40.186893" lon="0.189933">
        <ele>-1.078</ele>
        <time>1970-01-01T04:57:06Z</time>
      </trkpt>
      <trkpt lat="40.186921" lon="0.189871">
        <ele>-1.033</ele>
        <time>1970-01-01T04:57:07Z</time>
      </trkpt>
      <trkpt lat="40.186950" lon="0.189808">
        <ele>-1.026</ele>
        <time>1970-01-01T04:57:08Z</time>
      </trkpt>
      <trkpt lat="40.186980" lon="0.189744">
        <ele>-1.008</ele>
        <time>1970-01-01T04:57:09Z</time>
      </trkpt>
      <trkpt lat="40.187012" lon="0.189682">
        <ele>-1.074</ele>
        <time>1970-01-01T04:57:10Z</time>
      </trkpt>
      <trkpt lat="40.187047" lon="0.189619">
        <ele>-0.911</ele>
        <time>1970-01-01T04:57:11Z</time>
      </trkpt>
      <trkpt lat="40.187084" lon="0.189557">
        <ele>-0.732</ele>
        <time>1970-01-01T04:57:12Z</time>
      </trkpt>
      <trkpt lat="40.187121" lon="0.189494">
        <ele>-0.565</ele>
        <time>1970-01-01T04:57:13Z</time>
      </trkpt>
      <trkpt lat="40.187159" lon="0.189435">
        <ele>-0.215</ele>
        <time>1970-01-01T04:57:14Z</time>
      </trkpt>
      <trkpt lat="40.187199" lon="0.189374">
        <ele>0.241</ele>
        <time>1970-01-01T04:57:15Z</time>
      </trkpt>
      <trkpt lat="40.187237" lon="0.189313">
        <ele>0.465</ele>
        <time>1970-01-01T04:57:16Z</time>
      </trkpt>
      <trkpt lat="40.187274" lon="0.189253">
        <ele>0.696</ele>
        <time>1970-01-01T04:57:17Z</time>
      </trkpt>
      <trkpt lat="40.187313" lon="0.189192">
        <ele>0.697</ele>
        <time>1970-01-01T04:57:18Z</time>
      </trkpt>
      <trkpt lat="40.187353" lon="0.189130">
        <ele>0.523</ele>
        <time>1970-01-01T04:57:19Z</time>
      </trkpt>
      <trkpt lat="40.187392" lon="0.189069">
        <ele>0.425</ele>
        <time>1970-01-01T04:57:20Z</time>
      </trkpt>
      <trkpt lat="40.187431" lon="0.189005">
        <ele>0.208</ele>
        <time>1970-01-01T04:57:21Z</time>
      </trkpt>
      <trkpt lat="40.187467" lon="0.188942">
        <ele>0.166</ele>
        <time>1970-01-01T04:57:22Z</time>
      </trkpt>
      <trkpt lat="40.187503" lon="0.188879">
        <ele>0.083</ele>
        <time>1970-01-01T04:57:23Z</time>
      </trkpt>
      <trkpt lat="40.187538" lon="0.188815">
        <ele>0.074</ele>
        <time>1970-01-01T04:57:24Z</time>
      </trkpt>
      <trkpt lat="40.187572" lon="0.188750">
        <ele>0.067</ele>
        <time>1970-01-01T04:57:25Z</time>
      </trkpt>
      <trkpt lat="40.187603" lon="0.188686">
        <ele>0.097</ele>
        <time>1970-01-01T04:57:26Z</time>
      </trkpt>
      <trkpt lat="40.187633" lon="0.188620">
        <ele>0.063</ele>
        <time>1970-01-01T04:57:27Z</time>
      </trkpt>
      <trkpt lat="40.187663" lon="0.188554">
        <ele>0.147</ele>
        <time>1970-01-01T04:57:28Z</time>
      </trkpt>
      <trkpt lat="40.187695" lon="0.188488">
        <ele>0.398</ele>
        <time>1970-01-01T04:57:29Z</time>
      </trkpt>
      <trkpt lat="40.187728" lon="0.188424">
        <ele>0.679</ele>
        <time>1970-01-01T04:57:30Z</time>
      </trkpt>
      <trkpt lat="40.187764" lon="0.188363">
        <ele>0.805</ele>
        <time>1970-01-01T04:57:31Z</time>
      </trkpt>
      <trkpt lat="40.187802" lon="0.188303">
        <ele>1.125</ele>
        <time>1970-01-01T04:57:32Z</time>
      </trkpt>
      <trkpt lat="40.187840" lon="0.188244">
        <ele>1.408</ele>
        <time>1970-01-01T04:57:33Z</time>
      </trkpt>
      <trkpt lat="40.187878" lon="0.188184">
        <ele>1.754</ele>
        <time>1970-01-01T04:57:34Z</time>
      </trkpt>
      <trkpt lat="40.187916" lon="0.188124">
        <ele>2.111</ele>
        <time>1970-01-01T04:57:35Z</time>
      </trkpt>
      <trkpt lat="40.187953" lon="0.188064">
        <ele>2.682</ele>
        <time>1970-01-01T04:57:36Z</time>
      </trkpt>
      <trkpt lat="40.187989" lon="0.188002">
        <ele>2.825</ele>
        <time>1970-01-01T04:57:37Z</time>
      </trkpt>
      <trkpt lat="40.188025" lon="0.187938">
        <ele>2.985</ele>
        <time>1970-01-01T04:57:38Z</time>
      </trkpt>
      <trkpt lat="40.188059" lon="0.187872">
        <ele>3.091</ele>
        <time>1970-01-01T04:57:39Z</time>
      </trkpt>
      <trkpt lat="40.188094" lon="0.187805">
        <ele>2.915</ele>
        <time>1970-01-01T04:57:40Z</time>
      </trkpt>
      <trkpt lat="40.188128" lon="0.187738">
        <ele>2.786</ele>
        <time>1970-01-01T04:57:41Z</time>
      </trkpt>
      <trkpt lat="40.188163" lon="0.187669">
        <ele>2.551</ele>
        <time>1970-01-01T04:57:42Z</time>
      </trkpt>
      <trkpt lat="40.188197" lon="0.187600">
        <ele>2.201</ele>
        <time>1970-01-01T04:57:43Z</time>
      </trkpt>
      <trkpt lat="40.188233" lon="0.187533">
        <ele>1.811</ele>
        <time>1970-01-01T04:57:44Z</time>
      </trkpt>
      <trkpt lat="40.188268" lon="0.187467">
        <ele>1.408</ele>
        <time>1970-01-01T04:57:45Z</time>
      </trkpt>
      <trkpt lat="40.188304" lon="0.187402">
        <ele>1.242</ele>
        <time>1970-01-01T04:57:46Z</time>
      </trkpt>
      <trkpt lat="40.188340" lon="0.187337">
        <ele>1.049</ele>
        <time>1970-01-01T04:57:47Z</time>
      </trkpt>
      <trkpt lat="40.188376" lon="0.187273">
        <ele>1.260</ele>
        <time>1970-01-01T04:57:48Z</time>
      </trkpt>
      <trkpt lat="40.188412" lon="0.187208">
        <ele>1.273</ele>
        <time>1970-01-01T04:57:49Z</time>
      </trkpt>
      <trkpt lat="40.188448" lon="0.187144">
        <ele>1.133</ele>
        <time>1970-01-01T04:57:50Z</time>
      </trkpt>
      <trkpt lat="40.188485" lon="0.187081">
        <ele>1.039</ele>
        <time>1970-01-01T04:57:51Z</time>
      </trkpt>
      <trkpt lat="40.188523" lon="0.187019">
        <ele>1.033</ele>
        <time>1970-01-01T04:57:52Z</time>
      </trkpt>
      <trkpt lat="40.188562" lon="0.186956">
        <ele>0.984</ele>
        <time>1970-01-01T04:57:53Z</time>
      </trkpt>
      <trkpt lat="40.188599" lon="0.186893">
        <ele>1.095</ele>
        <time>1970-01-01T04:57:54Z</time>
      </trkpt>
      <trkpt lat="40.188635" lon="0.186827">
        <ele>1.149</ele>
        <time>1970-01-01T04:57:55Z</time>
      </trkpt>
      <trkpt lat="40.188669" lon="0.186761">
        <ele>1.123</ele>
        <time>1970-01-01T04:57:56Z</time>
      </trkpt>
      <trkpt lat="40.188704" lon="0.186694">
        <ele>1.008</ele>
        <time>1970-01-01T04:57:57Z</time>
      </trkpt>
      <trkpt lat="40.188739" lon="0.186628">
        <ele>1.186</ele>
        <time>1970-01-01T04:57:58Z</time>
      </trkpt>
      <trkpt lat="40.188772" lon="0.186564">
        <ele>1.423</ele>
        <time>1970-01-01T04:57:59Z</time>
      </trkpt>
      <trkpt lat="40.188806" lon="0.186503">
        <ele>1.624</ele>
        <time>1970-01-01T04:58:00Z</time>
      </trkpt>
      <trkpt lat="40.188840" lon="0.186444">
        <ele>1.847</ele>
        <time>1970-01-01T04:58:01Z</time>
      </trkpt>
      <trkpt lat="40.188873" lon="0.186385">
        <ele>2.097</ele>
        <time>1970-01-01T04:58:02Z</time>
      </trkpt>
      <trkpt lat="40.188906" lon="0.186326">
        <ele>2.263</ele>
        <time>1970-01-01T04:58:03Z</time>
      </trkpt>
      <trkpt lat="40.188939" lon="0.186265">
        <ele>2.387</ele>
        <time>1970-01-01T04:58:04Z</time>
      </trkpt>
      <trkpt lat="40.188972" lon="0.186207">
        <ele>2.668</ele>
        <time>1970-01-01T04:58:05Z</time>
      </trkpt>
      <trkpt lat="40.189005" lon="0.186150">
        <ele>2.816</ele>
        <time>1970-01-01T04:58:06Z</time>
      </trkpt>
      <trkpt lat="40.189039" lon="0.186095">
        <ele>3.176</ele>
        <time>1970-01-01T04:58:07Z</time>
      </trkpt>
      <trkpt lat="40.189073" lon="0.186039">
        <ele>3.313</ele>
        <time>1970-01-01T04:58:08Z</time>
      </trkpt>
      <trkpt lat="40.189107" lon="0.185985">
        <ele>3.608</ele>
        <time>1970-01-01T04:58:09Z</time>
      </trkpt>
      <trkpt lat="40.189141" lon="0.185931">
        <ele>3.718</ele>
        <time>1970-01-01T04:58:10Z</time>
      </trkpt>
      <trkpt lat="40.189175" lon="0.185875">
        <ele>3.845</ele>
        <time>1970-01-01T04:58:11Z</time>
      </trkpt>
      <trkpt lat="40.189209" lon="0.185821">
        <ele>4.196</ele>
        <time>1970-01-01T04:58:12Z</time>
      </trkpt>
      <trkpt lat="40.189243" lon="0.185766">
        <ele>4.389</ele>
        <time>1970-01-01T04:58:13Z</time>
      </trkpt>
      <trkpt lat="40.189277" lon="0.185712">
        <ele>4.619</ele>
        <time>1970-01-01T04:58:14Z</time>
      </trkpt>
      <trkpt lat="40.189311" lon="0.185658">
        <ele>5.055</ele>
        <time>1970-01-01T04:58:15Z</time>
      </trkpt>
      <trkpt lat="40.189344" lon="0.185604">
        <ele>5.459</ele>
        <time>1970-01-01T04:58:16Z</time>
      </trkpt>
      <trkpt lat="40.189377" lon="0.185550">
        <ele>5.850</ele>
        <time>1970-01-01T04:58:17Z</time>
      </trkpt>
      <trkpt lat="40.189410" lon="0.185496">
        <ele>5.912</ele>
        <time>1970-01-01T04:58:18Z</time>
      </trkpt>
      <trkpt lat="40.189443" lon="0.185441">
        <ele>6.032</ele>
        <time>1970-01-01T04:58:19Z</time>
      </trkpt>
      <trkpt lat="40.189475" lon="0.185385">
        <ele>6.005</ele>
        <time>1970-01-01T04:58:20Z</time>
      </trkpt>
      <trkpt lat="40.189507" lon="0.185330">
        <ele>6.008</ele>
        <time>1970-01-01T04:58:21Z</time>
      </trkpt>
      <trkpt lat="40.189540" lon="0.185275">
        <ele>6.058</ele>
        <time>1970-01-01T04:58:22Z</time>
      </trkpt>
      <trkpt lat="40.189573" lon="0.185219">
        <ele>5.875</ele>
        <time>1970-01-01T04:58:23Z</time>
      </trkpt>
      <trkpt lat="40.189606" lon="0.185164">
        <ele>5.656</ele>
        <time>1970-01-01T04:58:24Z</time>
      </trkpt>
      <trkpt lat="40.189640" lon="0.185108">
        <ele>5.499</ele>
        <time>1970-01-01T04:58:25Z</time>
      </trkpt>
      <trkpt lat="40.189673" lon="0.185053">
        <ele>5.279</ele>
        <time>1970-01-01T04:58:26Z</time>
      </trkpt>
      <trkpt lat="40.189705" lon="0.184998">
        <ele>5.035</ele>
        <time>1970-01-01T04:58:27Z</time>
      </trkpt>
      <trkpt lat="40.189739" lon="0.184943">
        <ele>5.049</ele>
        <time>1970-01-01T04:58:28Z</time>
      </trkpt>
      <trkpt lat="40.189774" lon="0.184889">
        <ele>5.010</ele>
        <time>1970-01-01T04:58:29Z</time>
      </trkpt>
      <trkpt lat="40.189811" lon="0.184835">
        <ele>5.014</ele>
        <time>1970-01-01T04:58:30Z</time>
      </trkpt>
      <trkpt lat="40.189847" lon="0.184779">
        <ele>5.054</ele>
        <time>1970-01-01T04:58:31Z</time>
      </trkpt>
      <trkpt lat="40.189880" lon="0.184720">
        <ele>5.009</ele>
        <time>1970-01-01T04:58:32Z</time>
      </trkpt>
      <trkpt lat="40.189915" lon="0.184661">
        <ele>5.008</ele>
        <time>1970-01-01T04:58:33Z</time>
      </trkpt>
      <trkpt lat="40.189949" lon="0.184601">
        <ele>5.088</ele>
        <time>1970-01-01T04:58:34Z</time>
      </trkpt>
      <trkpt lat="40.189983" lon="0.184543">
        <ele>5.085</ele>
        <time>1970-01-01T04:58:35Z</time>
      </trkpt>
      <trkpt lat="40.190018" lon="0.184485">
        <ele>5.196</ele>
        <time>1970-01-01T04:58:36Z</time>
      </trkpt>
      <trkpt lat="40.190051" lon="0.184426">
        <ele>5.269</ele>
        <time>1970-01-01T04:58:37Z</time>
      </trkpt>
      <trkpt lat="40.190083" lon="0.184365">
        <ele>5.589</ele>
        <time>1970-01-01T04:58:38Z</time>
      </trkpt>
      <trkpt lat="40.190116" lon="0.184305">
        <ele>5.745</ele>
        <time>1970-01-01T04:58:39Z</time>
      </trkpt>
      <trkpt lat="40.190148" lon="0.184245">
        <ele>5.989</ele>
        <time>1970-01-01T04:58:40Z</time>
      </trkpt>
      <trkpt lat="40.190181" lon="0.184185">
        <ele>6.090</ele>
        <time>1970-01-01T04:58:41Z</time>
      </trkpt>
      <trkpt lat="40.190214" lon="0.184127">
        <ele>6.191</ele>
        <time>1970-01-01T04:58:42Z</time>
      </trkpt>
      <trkpt lat="40.190247" lon="0.184071">
        <ele>6.381</ele>
        <time>1970-01-01T04:58:43Z</time>
      </trkpt>
      <trkpt lat="40.190281" lon="0.184017">
        <ele>6.519</ele>
        <time>1970-01-01T04:58:44Z</time>
      </trkpt>
      <trkpt lat="40.190314" lon="0.183964">
        <ele>6.908</ele>
        <time>1970-01-01T04:58:45Z</time>
      </trkpt>
      <trkpt lat="40.190351" lon="0.183916">
        <ele>7.236</ele>
        <time>1970-01-01T04:58:46Z</time>
      </trkpt>
      <trkpt lat="40.190390" lon="0.183869">
        <ele>7.473</ele>
        <time>1970-01-01T04:58:47Z</time>
      </trkpt>
      <trkpt lat="40.190424" lon="0.183819">
        <ele>7.554</ele>
        <time>1970-01-01T04:58:48Z</time>
      </trkpt>
      <trkpt lat="40.190450" lon="0.183765">
        <ele>7.657</ele>
        <time>1970-01-01T04:58:49Z</time>
      </trkpt>
      <trkpt lat="40.190465" lon="0.183699">
        <ele>7.757</ele>
        <time>1970-01-01T04:58:50Z</time>
      </trkpt>
      <trkpt lat="40.190466" lon="0.183628">
        <ele>7.743</ele>
        <time>1970-01-01T04:58:51Z</time>
      </trkpt>
      <trkpt lat="40.190451" lon="0.183565">
        <ele>7.757</ele>
        <time>1970-01-01T04:58:52Z</time>
      </trkpt>
      <trkpt lat="40.190423" lon="0.183509">
        <ele>7.788</ele>
        <time>1970-01-01T04:58:53Z</time>
      </trkpt>
      <trkpt lat="40.190388" lon="0.183461">
        <ele>7.654</ele>
        <time>1970-01-01T04:58:54Z</time>
      </trkpt>
      <trkpt lat="40.190346" lon="0.183417">
        <ele>7.456</ele>
        <time>1970-01-01T04:58:55Z</time>
      </trkpt>
      <trkpt lat="40.190301" lon="0.183375">
        <ele>7.211</ele>
        <time>1970-01-01T04:58:56Z</time>
      </trkpt>
      <trkpt lat="40.190256" lon="0.183331">
        <ele>6.908</ele>
        <time>1970-01-01T04:58:57Z</time>
      </trkpt>
      <trkpt lat="40.190211" lon="0.183287">
        <ele>6.932</ele>
        <time>1970-01-01T04:58:58Z</time>
      </trkpt>
      <trkpt lat="40.190168" lon="0.183242">
        <ele>6.819</ele>
        <time>1970-01-01T04:58:59Z</time>
      </trkpt>
      <trkpt lat="40.190123" lon="0.183196">
        <ele>6.770</ele>
        <time>1970-01-01T04:59:00Z</time>
      </trkpt>
      <trkpt lat="40.190077" lon="0.183149">
        <ele>6.543</ele>
        <time>1970-01-01T04:59:01Z</time>
      </trkpt>
      <trkpt lat="40.190030" lon="0.183101">
        <ele>6.253</ele>
        <time>1970-01-01T04:59:02Z</time>
      </trkpt>
      <trkpt lat="40.189982" lon="0.183050">
        <ele>6.029</ele>
        <time>1970-01-01T04:59:03Z</time>
      </trkpt>
      <trkpt lat="40.189936" lon="0.182994">
        <ele>6.223</ele>
        <time>1970-01-01T04:59:04Z</time>
      </trkpt>
      <trkpt lat="40.189891" lon="0.182936">
        <ele>6.454</ele>
        <time>1970-01-01T04:59:05Z</time>
      </trkpt>
      <trkpt lat="40.189844" lon="0.182876">
        <ele>6.622</ele>
        <time>1970-01-01T04:59:06Z</time>
      </trkpt>
      <trkpt lat="40.189798" lon="0.182815">
        <ele>6.962</ele>
        <time>1970-01-01T04:59:07Z</time>
      </trkpt>
      <trkpt lat="40.189751" lon="0.182758">
        <ele>7.008</ele>
        <time>1970-01-01T04:59:08Z</time>
      </trkpt>
      <trkpt lat="40.189703" lon="0.182704">
        <ele>6.908</ele>
        <time>1970-01-01T04:59:09Z</time>
      </trkpt>
      <trkpt lat="40.189651" lon="0.182651">
        <ele>6.749</ele>
        <time>1970-01-01T04:59:10Z</time>
      </trkpt>
      <trkpt lat="40.189600" lon="0.182599">
        <ele>6.626</ele>
        <time>1970-01-01T04:59:11Z</time>
      </trkpt>
      <trkpt lat="40.189548" lon="0.182545">
        <ele>6.457</ele>
        <time>1970-01-01T04:59:12Z</time>
      </trkpt>
      <trkpt lat="40.189498" lon="0.182491">
        <ele>6.210</ele>
        <time>1970-01-01T04:59:13Z</time>
      </trkpt>
      <trkpt lat="40.189449" lon="0.182436">
        <ele>6.040</ele>
        <time>1970-01-01T04:59:14Z</time>
      </trkpt>
      <trkpt lat="40.189401" lon="0.182380">
        <ele>5.876</ele>
        <time>1970-01-01T04:59:15Z</time>
      </trkpt>
      <trkpt lat="40.189350" lon="0.182324">
        <ele>5.720</ele>
        <time>1970-01-01T04:59:16Z</time>
      </trkpt>
      <trkpt lat="40.189299" lon="0.182269">
        <ele>5.581</ele>
        <time>1970-01-01T04:59:17Z</time>
      </trkpt>
      <trkpt lat="40.189249" lon="0.182213">
        <ele>5.364</ele>
        <time>1970-01-01T04:59:18Z</time>
      </trkpt>
      <trkpt lat="40.189198" lon="0.182156">
        <ele>5.306</ele>
        <time>1970-01-01T04:59:19Z</time>
      </trkpt>
      <trkpt lat="40.189150" lon="0.182095">
        <ele>5.416</ele>
        <time>1970-01-01T04:59:20Z</time>
      </trkpt>
      <trkpt lat="40.189104" lon="0.182031">
        <ele>5.508</ele>
        <time>1970-01-01T04:59:21Z</time>
      </trkpt>
      <trkpt lat="40.189055" lon="0.181970">
        <ele>5.563</ele>
        <time>1970-01-01T04:59:22Z</time>
      </trkpt>
      <trkpt lat="40.189005" lon="0.181909">
        <ele>5.430</ele>
        <time>1970-01-01T04:59:23Z</time>
      </trkpt>
      <trkpt lat="40.188954" lon="0.181848">
        <ele>5.241</ele>
        <time>1970-01-01T04:59:24Z</time>
      </trkpt>
      <trkpt lat="40.188904" lon="0.181786">
        <ele>5.194</ele>
        <time>1970-01-01T04:59:25Z</time>
      </trkpt>
      <trkpt lat="40.188854" lon="0.181724">
        <ele>4.934</ele>
        <time>1970-01-01T04:59:26Z</time>
      </trkpt>
      <trkpt lat="40.188803" lon="0.181662">
        <ele>4.730</ele>
        <time>1970-01-01T04:59:27Z</time>
      </trkpt>
      <trkpt lat="40.188754" lon="0.181598">
        <ele>4.564</ele>
        <time>1970-01-01T04:59:28Z</time>
      </trkpt>
      <trkpt lat="40.188710" lon="0.181531">
        <ele>4.455</ele>
        <time>1970-01-01T04:59:29Z</time>
      </trkpt>
      <trkpt lat="40.188669" lon="0.181460">
        <ele>4.289</ele>
        <time>1970-01-01T04:59:30Z</time>
      </trkpt>
      <trkpt lat="40.188629" lon="0.181388">
        <ele>4.106</ele>
        <time>1970-01-01T04:59:31Z</time>
      </trkpt>
      <trkpt lat="40.188589" lon="0.181315">
        <ele>4.326</ele>
        <time>1970-01-01T04:59:32Z</time>
      </trkpt>
      <trkpt lat="40.188551" lon="0.181241">
        <ele>4.508</ele>
        <time>1970-01-01T04:59:33Z</time>
      </trkpt>
      <trkpt lat="40.188515" lon="0.181165">
        <ele>4.875</ele>
        <time>1970-01-01T04:59:34Z</time>
      </trkpt>
      <trkpt lat="40.188480" lon="0.181088">
        <ele>5.032</ele>
        <time>1970-01-01T04:59:35Z</time>
      </trkpt>
      <trkpt lat="40.188442" lon="0.181012">
        <ele>5.193</ele>
        <time>1970-01-01T04:59:36Z</time>
      </trkpt>
      <trkpt lat="40.188404" lon="0.180936">
        <ele>5.236</ele>
        <time>1970-01-01T04:59:37Z</time>
      </trkpt>
      <trkpt lat="40.188366" lon="0.180861">
        <ele>5.136</ele>
        <time>1970-01-01T04:59:38Z</time>
      </trkpt>
      <trkpt lat="40.188329" lon="0.180784">
        <ele>5.042</ele>
        <time>1970-01-01T04:59:39Z</time>
      </trkpt>
      <trkpt lat="40.188290" lon="0.180709">
        <ele>4.996</ele>
        <time>1970-01-01T04:59:40Z</time>
      </trkpt>
      <trkpt lat="40.188251" lon="0.180635">
        <ele>4.997</ele>
        <time>1970-01-01T04:59:41Z</time>
      </trkpt>
      <trkpt lat="40.188214" lon="0.180562">
        <ele>5.029</ele>
        <time>1970-01-01T04:59:42Z</time>
      </trkpt>
      <trkpt lat="40.188178" lon="0.180487">
        <ele>5.100</ele>
        <time>1970-01-01T04:59:43Z</time>
      </trkpt>
      <trkpt lat="40.188142" lon="0.180415">
        <ele>5.220</ele>
        <time>1970-01-01T04:59:44Z</time>
      </trkpt>
      <trkpt lat="40.188104" lon="0.180344">
        <ele>5.108</ele>
        <time>1970-01-01T04:59:45Z</time>
      </trkpt>
      <trkpt lat="40.188065" lon="0.180277">
        <ele>5.059</ele>
        <time>1970-01-01T04:59:46Z</time>
      </trkpt>
      <trkpt lat="40.188027" lon="0.180210">
        <ele>5.186</ele>
        <time>1970-01-01T04:59:47Z</time>
      </trkpt>
      <trkpt lat="40.187991" lon="0.180144">
        <ele>5.217</ele>
        <time>1970-01-01T04:59:48Z</time>
      </trkpt>
      <trkpt lat="40.187957" lon="0.180078">
        <ele>5.450</ele>
        <time>1970-01-01T04:59:49Z</time>
      </trkpt>
      <trkpt lat="40.187919" lon="0.180015">
        <ele>5.560</ele>
        <time>1970-01-01T04:59:50Z</time>
      </trkpt>
      <trkpt lat="40.187879" lon="0.179953">
        <ele>5.466</ele>
        <time>1970-01-01T04:59:51Z</time>
      </trkpt>
      <trkpt lat="40.187840" lon="0.179894">
        <ele>5.370</ele>
        <time>1970-01-01T04:59:52Z</time>
      </trkpt>
      <trkpt lat="40.187799" lon="0.179834">
        <ele>5.161</ele>
        <time>1970-01-01T04:59:53Z</time>
      </trkpt>
      <trkpt lat="40.187758" lon="0.179773">
        <ele>5.024</ele>
        <time>1970-01-01T04:59:54Z</time>
      </trkpt>
      <trkpt lat="40.187717" lon="0.179714">
        <ele>5.004</ele>
        <time>1970-01-01T04:59:55Z</time>
      </trkpt>
      <trkpt lat="40.187677" lon="0.179651">
        <ele>5.314</ele>
        <time>1970-01-01T04:59:56Z</time>
      </trkpt>
      <trkpt lat="40.187638" lon="0.179587">
        <ele>5.508</ele>
        <time>1970-01-01T04:59:57Z</time>
      </trkpt>
      <trkpt lat="40.187602" lon="0.179519">
        <ele>5.749</ele>
        <time>1970-01-01T04:59:58Z</time>
      </trkpt>
      <trkpt lat="40.187566" lon="0.179453">
        <ele>6.076</ele>
        <time>1970-01-01T04:59:59Z</time>
      </trkpt>
      <trkpt lat="40.187528" lon="0.179390">
        <ele>6.217</ele>
        <time>1970-01-01T05:00:00Z</time>
      </trkpt>
      <trkpt lat="40.187489" lon="0.179329">
        <ele>6.420</ele>
        <time>1970-01-01T05:00:01Z</time>
      </trkpt>
      <trkpt lat="40.187452" lon="0.179266">
        <ele>6.460</ele>
        <time>1970-01-01T05:00:02Z</time>
      </trkpt>
      <trkpt lat="40.187415" lon="0.179201">
        <ele>6.376</ele>
        <time>1970-01-01T05:00:03Z</time>
      </trkpt>
      <trkpt lat="40.187378" lon="0.179137">
        <ele>6.160</ele>
        <time>1970-01-01T05:00:04Z</time>
      </trkpt>
      <trkpt lat="40.187341" lon="0.179075">
        <ele>5.971</ele>
        <time>1970-01-01T05:00:05Z</time>
      </trkpt>
      <trkpt lat="40.187305" lon="0.179013">
        <ele>5.633</ele>
        <time>1970-01-01T05:00:06Z</time>
      </trkpt>
      <trkpt lat="40.187269" lon="0.178953">
        <ele>5.323</ele>
        <time>1970-01-01T05:00:07Z</time>
      </trkpt>
      <trkpt lat="40.187235" lon="0.178892">
        <ele>5.115</ele>
        <time>1970-01-01T05:00:08Z</time>
      </trkpt>
      <trkpt lat="40.187200" lon="0.178833">
        <ele>4.908</ele>
        <time>1970-01-01T05:00:09Z</time>
      </trkpt>
      <trkpt lat="40.187164" lon="0.178776">
        <ele>4.950</ele>
        <time>1970-01-01T05:00:10Z</time>
      </trkpt>
      <trkpt lat="40.187127" lon="0.178718">
        <ele>4.917</ele>
        <time>1970-01-01T05:00:11Z</time>
      </trkpt>
      <trkpt lat="40.187091" lon="0.178661">
        <ele>4.978</ele>
        <time>1970-01-01T05:00:12Z</time>
      </trkpt>
      <trkpt lat="40.187055" lon="0.178602">
        <ele>5.061</ele>
        <time>1970-01-01T05:00:13Z</time>
      </trkpt>
      <trkpt lat="40.187020" lon="0.178540">
        <ele>5.111</ele>
        <time>1970-01-01T05:00:14Z</time>
      </trkpt>
      <trkpt lat="40.186983" lon="0.178476">
        <ele>5.147</ele>
        <time>1970-01-01T05:00:15Z</time>
      </trkpt>
      <trkpt lat="40.186946" lon="0.178412">
        <ele>5.041</ele>
        <time>1970-01-01T05:00:16Z</time>
      </trkpt>
      <trkpt lat="40.186911" lon="0.178350">
        <ele>4.972</ele>
        <time>1970-01-01T05:00:17Z</time>
      </trkpt>
      <trkpt lat="40.186875" lon="0.178287">
        <ele>4.853</ele>
        <time>1970-01-01T05:00:18Z</time>
      </trkpt>
      <trkpt lat="40.186841" lon="0.178225">
        <ele>4.604</ele>
        <time>1970-01-01T05:00:19Z</time>
      </trkpt>
      <trkpt lat="40.186804" lon="0.178163">
        <ele>4.514</ele>
        <time>1970-01-01T05:00:20Z</time>
      </trkpt>
      <trkpt lat="40.186763" lon="0.178098">
        <ele>4.308</ele>
        <time>1970-01-01T05:00:21Z</time>
      </trkpt>
      <trkpt lat="40.186723" lon="0.178030">
        <ele>4.352</ele>
        <time>1970-01-01T05:00:22Z</time>
      </trkpt>
      <trkpt lat="40.186682" lon="0.177961">
        <ele>4.489</ele>
        <time>1970-01-01T05:00:23Z</time>
      </trkpt>
      <trkpt lat="40.186642" lon="0.177892">
        <ele>4.510</ele>
        <time>1970-01-01T05:00:24Z</time>
      </trkpt>
      <trkpt lat="40.186602" lon="0.177821">
        <ele>4.643</ele>
        <time>1970-01-01T05:00:25Z</time>
      </trkpt>
      <trkpt lat="40.186558" lon="0.177749">
        <ele>4.613</ele>
        <time>1970-01-01T05:00:26Z</time>
      </trkpt>
      <trkpt lat="40.186511" lon="0.177681">
        <ele>4.489</ele>
        <time>1970-01-01T05:00:27Z</time>
      </trkpt>
      <trkpt lat="40.186463" lon="0.177612">
        <ele>4.373</ele>
        <time>1970-01-01T05:00:28Z</time>
      </trkpt>
      <trkpt lat="40.186417" lon="0.177542">
        <ele>4.194</ele>
        <time>1970-01-01T05:00:29Z</time>
      </trkpt>
      <trkpt lat="40.186371" lon="0.177472">
        <ele>4.061</ele>
        <time>1970-01-01T05:00:30Z</time>
      </trkpt>
      <trkpt lat="40.186325" lon="0.177404">
        <ele>4.021</ele>
        <time>1970-01-01T05:00:31Z</time>
      </trkpt>
      <trkpt lat="40.186281" lon="0.177338">
        <ele>4.013</ele>
        <time>1970-01-01T05:00:32Z</time>
      </trkpt>
      <trkpt lat="40.186235" lon="0.177272">
        <ele>4.008</ele>
        <time>1970-01-01T05:00:33Z</time>
      </trkpt>
      <trkpt lat="40.186189" lon="0.177202">
        <ele>4.063</ele>
        <time>1970-01-01T05:00:34Z</time>
      </trkpt>
      <trkpt lat="40.186147" lon="0.177131">
        <ele>4.070</ele>
        <time>1970-01-01T05:00:35Z</time>
      </trkpt>
      <trkpt lat="40.186103" lon="0.177058">
        <ele>4.091</ele>
        <time>1970-01-01T05:00:36Z</time>
      </trkpt>
      <trkpt lat="40.186063" lon="0.176985">
        <ele>4.034</ele>
        <time>1970-01-01T05:00:37Z</time>
      </trkpt>
      <trkpt lat="40.186023" lon="0.176908">
        <ele>4.034</ele>
        <time>1970-01-01T05:00:38Z</time>
      </trkpt>
      <trkpt lat="40.185981" lon="0.176831">
        <ele>3.880</ele>
        <time>1970-01-01T05:00:39Z</time>
      </trkpt>
      <trkpt lat="40.185935" lon="0.176750">
        <ele>3.674</ele>
        <time>1970-01-01T05:00:40Z</time>
      </trkpt>
      <trkpt lat="40.185887" lon="0.176667">
        <ele>3.295</ele>
        <time>1970-01-01T05:00:41Z</time>
      </trkpt>
      <trkpt lat="40.185836" lon="0.176582">
        <ele>3.095</ele>
        <time>1970-01-01T05:00:42Z</time>
      </trkpt>
      <trkpt lat="40.185789" lon="0.176497">
        <ele>3.049</ele>
        <time>1970-01-01T05:00:43Z</time>
      </trkpt>
      <trkpt lat="40.185741" lon="0.176413">
        <ele>3.023</ele>
        <time>1970-01-01T05:00:44Z</time>
      </trkpt>
      <trkpt lat="40.185691" lon="0.176327">
        <ele>3.108</ele>
        <time>1970-01-01T05:00:45Z</time>
      </trkpt>
      <trkpt lat="40.185643" lon="0.176243">
        <ele>3.256</ele>
        <time>1970-01-01T05:00:46Z</time>
      </trkpt>
      <trkpt lat="40.185598" lon="0.176161">
        <ele>3.193</ele>
        <time>1970-01-01T05:00:47Z</time>
      </trkpt>
      <trkpt lat="40.185551" lon="0.176078">
        <ele>3.044</ele>
        <time>1970-01-01T05:00:48Z</time>
      </trkpt>
      <trkpt lat="40.185506" lon="0.175994">
        <ele>2.997</ele>
        <time>1970-01-01T05:00:49Z</time>
      </trkpt>
      <trkpt lat="40.185464" lon="0.175913">
        <ele>2.817</ele>
        <time>1970-01-01T05:00:50Z</time>
      </trkpt>
      <trkpt lat="40.185421" lon="0.175833">
        <ele>2.543</ele>
        <time>1970-01-01T05:00:51Z</time>
      </trkpt>
      <trkpt lat="40.185374" lon="0.175755">
        <ele>2.287</ele>
        <time>1970-01-01T05:00:52Z</time>
      </trkpt>
      <trkpt lat="40.185333" lon="0.175677">
        <ele>2.118</ele>
        <time>1970-01-01T05:00:53Z</time>
      </trkpt>
      <trkpt lat="40.185292" lon="0.175597">
        <ele>2.076</ele>
        <time>1970-01-01T05:00:54Z</time>
      </trkpt>
      <trkpt lat="40.185253" lon="0.175517">
        <ele>2.190</ele>
        <time>1970-01-01T05:00:55Z</time>
      </trkpt>
      <trkpt lat="40.185212" lon="0.175437">
        <ele>2.319</ele>
        <time>1970-01-01T05:00:56Z</time>
      </trkpt>
      <trkpt lat="40.185169" lon="0.175357">
        <ele>2.408</ele>
        <time>1970-01-01T05:00:57Z</time>
      </trkpt>
      <trkpt lat="40.185125" lon="0.175280">
        <ele>2.434</ele>
        <time>1970-01-01T05:00:58Z</time>
      </trkpt>
      <trkpt lat="40.185079" lon="0.175204">
        <ele>2.581</ele>
        <time>1970-01-01T05:00:59Z</time>
      </trkpt>
      <trkpt lat="40.185034" lon="0.175129">
        <ele>2.642</ele>
        <time>1970-01-01T05:01:00Z</time>
      </trkpt>
      <trkpt lat="40.184988" lon="0.175056">
        <ele>2.715</ele>
        <time>1970-01-01T05:01:01Z</time>
      </trkpt>
      <trkpt lat="40.184942" lon="0.174985">
        <ele>2.565</ele>
        <time>1970-01-01T05:01:02Z</time>
      </trkpt>
      <trkpt lat="40.184894" lon="0.174914">
        <ele>2.091</ele>
        <time>1970-01-01T05:01:03Z</time>
      </trkpt>
      <trkpt lat="40.184845" lon="0.174844">
        <ele>1.685</ele>
        <time>1970-01-01T05:01:04Z</time>
      </trkpt>
      <trkpt lat="40.184795" lon="0.174773">
        <ele>1.346</ele>
        <time>1970-01-01T05:01:05Z</time>
      </trkpt>
      <trkpt lat="40.184746" lon="0.174700">
        <ele>1.266</ele>
        <time>1970-01-01T05:01:06Z</time>
      </trkpt>
      <trkpt lat="40.184700" lon="0.174625">
        <ele>1.329</ele>
        <time>1970-01-01T05:01:07Z</time>
      </trkpt>
      <trkpt lat="40.184654" lon="0.174548">
        <ele>1.421</ele>
        <time>1970-01-01T05:01:08Z</time>
      </trkpt>
      <trkpt lat="40.184606" lon="0.174470">
        <ele>1.508</ele>
        <time>1970-01-01T05:01:09Z</time>
      </trkpt>
      <trkpt lat="40.184558" lon="0.174392">
        <ele>1.723</ele>
        <time>1970-01-01T05:01:10Z</time>
      </trkpt>
      <trkpt lat="40.184515" lon="0.174311">
        <ele>2.130</ele>
        <time>1970-01-01T05:01:11Z</time>
      </trkpt>
      <trkpt lat="40.184471" lon="0.174233">
        <ele>2.521</ele>
        <time>1970-01-01T05:01:12Z</time>
      </trkpt>
      <trkpt lat="40.184428" lon="0.174154">
        <ele>3.054</ele>
        <time>1970-01-01T05:01:13Z</time>
      </trkpt>
      <trkpt lat="40.184383" lon="0.174077">
        <ele>3.114</ele>
        <time>1970-01-01T05:01:14Z</time>
      </trkpt>
      <trkpt lat="40.184333" lon="0.174001">
        <ele>3.260</ele>
        <time>1970-01-01T05:01:15Z</time>
      </trkpt>
      <trkpt lat="40.184280" lon="0.173930">
        <ele>3.324</ele>
        <time>1970-01-01T05:01:16Z</time>
      </trkpt>
      <trkpt lat="40.184227" lon="0.173862">
        <ele>3.385</ele>
        <time>1970-01-01T05:01:17Z</time>
      </trkpt>
      <trkpt lat="40.184170" lon="0.173802">
        <ele>3.316</ele>
        <time>1970-01-01T05:01:18Z</time>
      </trkpt>
      <trkpt lat="40.184112" lon="0.173748">
        <ele>3.376</ele>
        <time>1970-01-01T05:01:19Z</time>
      </trkpt>
      <trkpt lat="40.184054" lon="0.173696">
        <ele>3.313</ele>
        <time>1970-01-01T05:01:20Z</time>
      </trkpt>
      <trkpt lat="40.183994" lon="0.173644">
        <ele>3.308</ele>
        <time>1970-01-01T05:01:21Z</time>
      </trkpt>
      <trkpt lat="40.183937" lon="0.173593">
        <ele>3.218</ele>
        <time>1970-01-01T05:01:22Z</time>
      </trkpt>
      <trkpt lat="40.183880" lon="0.173541">
        <ele>3.035</ele>
        <time>1970-01-01T05:01:23Z</time>
      </trkpt>
      <trkpt lat="40.183823" lon="0.173491">
        <ele>3.166</ele>
        <time>1970-01-01T05:01:24Z</time>
      </trkpt>
      <trkpt lat="40.183764" lon="0.173443">
        <ele>3.279</ele>
        <time>1970-01-01T05:01:25Z</time>
      </trkpt>
      <trkpt lat="40.183705" lon="0.173398">
        <ele>3.249</ele>
        <time>1970-01-01T05:01:26Z</time>
      </trkpt>
      <trkpt lat="40.183646" lon="0.173353">
        <ele>3.195</ele>
        <time>1970-01-01T05:01:27Z</time>
      </trkpt>
      <trkpt lat="40.183587" lon="0.173307">
        <ele>2.869</ele>
        <time>1970-01-01T05:01:28Z</time>
      </trkpt>
      <trkpt lat="40.183530" lon="0.173261">
        <ele>2.470</ele>
        <time>1970-01-01T05:01:29Z</time>
      </trkpt>
      <trkpt lat="40.183473" lon="0.173215">
        <ele>2.147</ele>
        <time>1970-01-01T05:01:30Z</time>
      </trkpt>
      <trkpt lat="40.183414" lon="0.173169">
        <ele>1.729</ele>
        <time>1970-01-01T05:01:31Z</time>
      </trkpt>
      <trkpt lat="40.183356" lon="0.173120">
        <ele>1.321</ele>
        <time>1970-01-01T05:01:32Z</time>
      </trkpt>
      <trkpt lat="40.183300" lon="0.173071">
        <ele>1.008</ele>
        <time>1970-01-01T05:01:33Z</time>
      </trkpt>
      <trkpt lat="40.183242" lon="0.173020">
        <ele>0.911</ele>
        <time>1970-01-01T05:01:34Z</time>
      </trkpt>
      <trkpt lat="40.183185" lon="0.172969">
        <ele>0.718</ele>
        <time>1970-01-01T05:01:35Z</time>
      </trkpt>
      <trkpt lat="40.183128" lon="0.172917">
        <ele>0.569</ele>
        <time>1970-01-01T05:01:36Z</time>
      </trkpt>
      <trkpt lat="40.183072" lon="0.172865">
        <ele>0.382</ele>
        <time>1970-01-01T05:01:37Z</time>
      </trkpt>
      <trkpt lat="40.183016" lon="0.172816">
        <ele>0.372</ele>
        <time>1970-01-01T05:01:38Z</time>
      </trkpt>
      <trkpt lat="40.182960" lon="0.172769">
        <ele>0.388</ele>
        <time>1970-01-01T05:01:39Z</time>
      </trkpt>
      <trkpt lat="40.182905" lon="0.172720">
        <ele>0.362</ele>
        <time>1970-01-01T05:01:40Z</time>
      </trkpt>
      <trkpt lat="40.182851" lon="0.172671">
        <ele>0.413</ele>
        <time>1970-01-01T05:01:41Z</time>
      </trkpt>
      <trkpt lat="40.182795" lon="0.172624">
        <ele>0.429</ele>
        <time>1970-01-01T05:01:42Z</time>
      </trkpt>
      <trkpt lat="40.182739" lon="0.172580">
        <ele>0.500</ele>
        <time>1970-01-01T05:01:43Z</time>
      </trkpt>
      <trkpt lat="40.182682" lon="0.172537">
        <ele>0.820</ele>
        <time>1970-01-01T05:01:44Z</time>
      </trkpt>
      <trkpt lat="40.182625" lon="0.172494">
        <ele>1.108</ele>
        <time>1970-01-01T05:01:45Z</time>
      </trkpt>
      <trkpt lat="40.182567" lon="0.172453">
        <ele>1.519</ele>
        <time>1970-01-01T05:01:46Z</time>
      </trkpt>
      <trkpt lat="40.182511" lon="0.172414">
        <ele>1.936</ele>
        <time>1970-01-01T05:01:47Z</time>
      </trkpt>
      <trkpt lat="40.182454" lon="0.172376">
        <ele>2.237</ele>
        <time>1970-01-01T05:01:48Z</time>
      </trkpt>
      <trkpt lat="40.182396" lon="0.172338">
        <ele>2.630</ele>
        <time>1970-01-01T05:01:49Z</time>
      </trkpt>
      <trkpt lat="40.182338" lon="0.172302">
        <ele>3.050</ele>
        <time>1970-01-01T05:01:50Z</time>
      </trkpt>
      <trkpt lat="40.182279" lon="0.172270">
        <ele>3.586</ele>
        <time>1970-01-01T05:01:51Z</time>
      </trkpt>
      <trkpt lat="40.182220" lon="0.172244">
        <ele>3.980</ele>
        <time>1970-01-01T05:01:52Z</time>
      </trkpt>
      <trkpt lat="40.182160" lon="0.172219">
        <ele>4.081</ele>
        <time>1970-01-01T05:01:53Z</time>
      </trkpt>
      <trkpt lat="40.182099" lon="0.172195">
        <ele>4.093</ele>
        <time>1970-01-01T05:01:54Z</time>
      </trkpt>
      <trkpt lat="40.182040" lon="0.172173">
        <ele>4.065</ele>
        <time>1970-01-01T05:01:55Z</time>
      </trkpt>
      <trkpt lat="40.181981" lon="0.172155">
        <ele>4.021</ele>
        <time>1970-01-01T05:01:56Z</time>
      </trkpt>
      <trkpt lat="40.181920" lon="0.172136">
        <ele>3.908</ele>
        <time>1970-01-01T05:01:57Z</time>
      </trkpt>
      <trkpt lat="40.181859" lon="0.172114">
        <ele>3.766</ele>
        <time>1970-01-01T05:01:58Z</time>
      </trkpt>
      <trkpt lat="40.181798" lon="0.172091">
        <ele>3.563</ele>
        <time>1970-01-01T05:01:59Z</time>
      </trkpt>
      <trkpt lat="40.181736" lon="0.172068">
        <ele>3.254</ele>
        <time>1970-01-01T05:02:00Z</time>
      </trkpt>
      <trkpt lat="40.181674" lon="0.172046">
        <ele>3.077</ele>
        <time>1970-01-01T05:02:01Z</time>
      </trkpt>
      <trkpt lat="40.181610" lon="0.172025">
        <ele>2.567</ele>
        <time>1970-01-01T05:02:02Z</time>
      </trkpt>
      <trkpt lat="40.181546" lon="0.172005">
        <ele>2.073</ele>
        <time>1970-01-01T05:02:03Z</time>
      </trkpt>
      <trkpt lat="40.181483" lon="0.171986">
        <ele>1.647</ele>
        <time>1970-01-01T05:02:04Z</time>
      </trkpt>
      <trkpt lat="40.181420" lon="0.171966">
        <ele>1.218</ele>
        <time>1970-01-01T05:02:05Z</time>
      </trkpt>
      <trkpt lat="40.181357" lon="0.171947">
        <ele>0.997</ele>
        <time>1970-01-01T05:02:06Z</time>
      </trkpt>
      <trkpt lat="40.181295" lon="0.171930">
        <ele>0.723</ele>
        <time>1970-01-01T05:02:07Z</time>
      </trkpt>
      <trkpt lat="40.181232" lon="0.171915">
        <ele>0.525</ele>
        <time>1970-01-01T05:02:08Z</time>
      </trkpt>
      <trkpt lat="40.181171" lon="0.171902">
        <ele>0.408</ele>
        <time>1970-01-01T05:02:09Z</time>
      </trkpt>
      <trkpt lat="40.181109" lon="0.171890">
        <ele>0.256</ele>
        <time>1970-01-01T05:02:10Z</time>
      </trkpt>
      <trkpt lat="40.181048" lon="0.171878">
        <ele>0.513</ele>
        <time>1970-01-01T05:02:11Z</time>
      </trkpt>
      <trkpt lat="40.180987" lon="0.171866">
        <ele>0.794</ele>
        <time>1970-01-01T05:02:12Z</time>
      </trkpt>
      <trkpt lat="40.180926" lon="0.171855">
        <ele>1.067</ele>
        <time>1970-01-01T05:02:13Z</time>
      </trkpt>
      <trkpt lat="40.180867" lon="0.171841">
        <ele>1.357</ele>
        <time>1970-01-01T05:02:14Z</time>
      </trkpt>
      <trkpt lat="40.180807" lon="0.171826">
        <ele>1.593</ele>
        <time>1970-01-01T05:02:15Z</time>
      </trkpt>
      <trkpt lat="40.180747" lon="0.171812">
        <ele>1.817</ele>
        <time>1970-01-01T05:02:16Z</time>
      </trkpt>
      <trkpt lat="40.180686" lon="0.171797">
        <ele>2.158</ele>
        <time>1970-01-01T05:02:17Z</time>
      </trkpt>
      <trkpt lat="40.180625" lon="0.171781">
        <ele>2.391</ele>
        <time>1970-01-01T05:02:18Z</time>
      </trkpt>
      <trkpt lat="40.180563" lon="0.171767">
        <ele>2.681</ele>
        <time>1970-01-01T05:02:19Z</time>
      </trkpt>
      <trkpt lat="40.180502" lon="0.171757">
        <ele>2.419</ele>
        <time>1970-01-01T05:02:20Z</time>
      </trkpt>
      <trkpt lat="40.180441" lon="0.171751">
        <ele>2.008</ele>
        <time>1970-01-01T05:02:21Z</time>
      </trkpt>
      <trkpt lat="40.180382" lon="0.171748">
        <ele>1.696</ele>
        <time>1970-01-01T05:02:22Z</time>
      </trkpt>
      <trkpt lat="40.180323" lon="0.171747">
        <ele>1.363</ele>
        <time>1970-01-01T05:02:23Z</time>
      </trkpt>
      <trkpt lat="40.180261" lon="0.171747">
        <ele>1.024</ele>
        <time>1970-01-01T05:02:24Z</time>
      </trkpt>
      <trkpt lat="40.180199" lon="0.171750">
        <ele>1.197</ele>
        <time>1970-01-01T05:02:25Z</time>
      </trkpt>
      <trkpt lat="40.180139" lon="0.171754">
        <ele>1.237</ele>
        <time>1970-01-01T05:02:26Z</time>
      </trkpt>
      <trkpt lat="40.180080" lon="0.171760">
        <ele>1.263</ele>
        <time>1970-01-01T05:02:27Z</time>
      </trkpt>
      <trkpt lat="40.180020" lon="0.171767">
        <ele>1.357</ele>
        <time>1970-01-01T05:02:28Z</time>
      </trkpt>
      <trkpt lat="40.179961" lon="0.171775">
        <ele>1.418</ele>
        <time>1970-01-01T05:02:29Z</time>
      </trkpt>
      <trkpt lat="40.179901" lon="0.171780">
        <ele>1.462</ele>
        <time>1970-01-01T05:02:30Z</time>
      </trkpt>
      <trkpt lat="40.179842" lon="0.171781">
        <ele>1.483</ele>
        <time>1970-01-01T05:02:31Z</time>
      </trkpt>
      <trkpt lat="40.179782" lon="0.171783">
        <ele>1.411</ele>
        <time>1970-01-01T05:02:32Z</time>
      </trkpt>
      <trkpt lat="40.179723" lon="0.171785">
        <ele>1.408</ele>
        <time>1970-01-01T05:02:33Z</time>
      </trkpt>
      <trkpt lat="40.179665" lon="0.171790">
        <ele>1.423</ele>
        <time>1970-01-01T05:02:34Z</time>
      </trkpt>
      <trkpt lat="40.179607" lon="0.171793">
        <ele>1.320</ele>
        <time>1970-01-01T05:02:35Z</time>
      </trkpt>
      <trkpt lat="40.179549" lon="0.171793">
        <ele>1.211</ele>
        <time>1970-01-01T05:02:36Z</time>
      </trkpt>
      <trkpt lat="40.179492" lon="0.171790">
        <ele>1.154</ele>
        <time>1970-01-01T05:02:37Z</time>
      </trkpt>
      <trkpt lat="40.179435" lon="0.171785">
        <ele>1.014</ele>
        <time>1970-01-01T05:02:38Z</time>
      </trkpt>
      <trkpt lat="40.179378" lon="0.171784">
        <ele>1.020</ele>
        <time>1970-01-01T05:02:39Z</time>
      </trkpt>
      <trkpt lat="40.179320" lon="0.171790">
        <ele>1.014</ele>
        <time>1970-01-01T05:02:40Z</time>
      </trkpt>
      <trkpt lat="40.179263" lon="0.171799">
        <ele>1.025</ele>
        <time>1970-01-01T05:02:41Z</time>
      </trkpt>
      <trkpt lat="40.179206" lon="0.171806">
        <ele>1.087</ele>
        <time>1970-01-01T05:02:42Z</time>
      </trkpt>
      <trkpt lat="40.179149" lon="0.171813">
        <ele>1.142</ele>
        <time>1970-01-01T05:02:43Z</time>
      </trkpt>
      <trkpt lat="40.179093" lon="0.171824">
        <ele>1.326</ele>
        <time>1970-01-01T05:02:44Z</time>
      </trkpt>
      <trkpt lat="40.179039" lon="0.171839">
        <ele>1.508</ele>
        <time>1970-01-01T05:02:45Z</time>
      </trkpt>
      <trkpt lat="40.178983" lon="0.171857">
        <ele>1.715</ele>
        <time>1970-01-01T05:02:46Z</time>
      </trkpt>
      <trkpt lat="40.178927" lon="0.171877">
        <ele>1.992</ele>
        <time>1970-01-01T05:02:47Z</time>
      </trkpt>
      <trkpt lat="40.178872" lon="0.171896">
        <ele>2.053</ele>
        <time>1970-01-01T05:02:48Z</time>
      </trkpt>
      <trkpt lat="40.178818" lon="0.171914">
        <ele>2.076</ele>
        <time>1970-01-01T05:02:49Z</time>
      </trkpt>
      <trkpt lat="40.178763" lon="0.171928">
        <ele>2.086</ele>
        <time>1970-01-01T05:02:50Z</time>
      </trkpt>
      <trkpt lat="40.178707" lon="0.171941">
        <ele>2.012</ele>
        <time>1970-01-01T05:02:51Z</time>
      </trkpt>
      <trkpt lat="40.178650" lon="0.171954">
        <ele>2.016</ele>
        <time>1970-01-01T05:02:52Z</time>
      </trkpt>
      <trkpt lat="40.178593" lon="0.171965">
        <ele>2.157</ele>
        <time>1970-01-01T05:02:53Z</time>
      </trkpt>
      <trkpt lat="40.178536" lon="0.171972">
        <ele>2.369</ele>
        <time>1970-01-01T05:02:54Z</time>
      </trkpt>
      <trkpt lat="40.178478" lon="0.171977">
        <ele>2.504</ele>
        <time>1970-01-01T05:02:55Z</time>
      </trkpt>
      <trkpt lat="40.178419" lon="0.171984">
        <ele>2.724</ele>
        <time>1970-01-01T05:02:56Z</time>
      </trkpt>
      <trkpt lat="40.178361" lon="0.171991">
        <ele>2.908</ele>
        <time>1970-01-01T05:02:57Z</time>
      </trkpt>
      <trkpt lat="40.178303" lon="0.172001">
        <ele>2.993</ele>
        <time>1970-01-01T05:02:58Z</time>
      </trkpt>
      <trkpt lat="40.178244" lon="0.172012">
        <ele>2.780</ele>
        <time>1970-01-01T05:02:59Z</time>
      </trkpt>
      <trkpt lat="40.178185" lon="0.172022">
        <ele>2.591</ele>
        <time>1970-01-01T05:03:00Z</time>
      </trkpt>
      <trkpt lat="40.178124" lon="0.172032">
        <ele>2.254</ele>
        <time>1970-01-01T05:03:01Z</time>
      </trkpt>
      <trkpt lat="40.178064" lon="0.172041">
        <ele>2.094</ele>
        <time>1970-01-01T05:03:02Z</time>
      </trkpt>
      <trkpt lat="40.178003" lon="0.172048">
        <ele>1.810</ele>
        <time>1970-01-01T05:03:03Z</time>
      </trkpt>
      <trkpt lat="40.177942" lon="0.172053">
        <ele>1.694</ele>
        <time>1970-01-01T05:03:04Z</time>
      </trkpt>
      <trkpt lat="40.177881" lon="0.172054">
        <ele>1.435</ele>
        <time>1970-01-01T05:03:05Z</time>
      </trkpt>
      <trkpt lat="40.177819" lon="0.172050">
        <ele>1.127</ele>
        <time>1970-01-01T05:03:06Z</time>
      </trkpt>
      <trkpt lat="40.177758" lon="0.172046">
        <ele>1.068</ele>
        <time>1970-01-01T05:03:07Z</time>
      </trkpt>
      <trkpt lat="40.177697" lon="0.172044">
        <ele>1.214</ele>
        <time>1970-01-01T05:03:08Z</time>
      </trkpt>
      <trkpt lat="40.177636" lon="0.172043">
        <ele>1.308</ele>
        <time>1970-01-01T05:03:09Z</time>
      </trkpt>
      <trkpt lat="40.177574" lon="0.172042">
        <ele>1.589</ele>
        <time>1970-01-01T05:03:10Z</time>
      </trkpt>
      <trkpt lat="40.177512" lon="0.172041">
        <ele>1.666</ele>
        <time>1970-01-01T05:03:11Z</time>
      </trkpt>
      <trkpt lat="40.177450" lon="0.172045">
        <ele>1.717</ele>
        <time>1970-01-01T05:03:12Z</time>
      </trkpt>
      <trkpt lat="40.177388" lon="0.172053">
        <ele>1.880</ele>
        <time>1970-01-01T05:03:13Z</time>
      </trkpt>
      <trkpt lat="40.177326" lon="0.172063">
        <ele>1.890</ele>
        <time>1970-01-01T05:03:14Z</time>
      </trkpt>
      <trkpt lat="40.177263" lon="0.172070">
        <ele>1.956</ele>
        <time>1970-01-01T05:03:15Z</time>
      </trkpt>
      <trkpt lat="40.177201" lon="0.172077">
        <ele>2.050</ele>
        <time>1970-01-01T05:03:16Z</time>
      </trkpt>
      <trkpt lat="40.177140" lon="0.172083">
        <ele>2.121</ele>
        <time>1970-01-01T05:03:17Z</time>
      </trkpt>
      <trkpt lat="40.177078" lon="0.172089">
        <ele>2.395</ele>
        <time>1970-01-01T05:03:18Z</time>
      </trkpt>
      <trkpt lat="40.177018" lon="0.172094">
        <ele>2.449</ele>
        <time>1970-01-01T05:03:19Z</time>
      </trkpt>
      <trkpt lat="40.176957" lon="0.172093">
        <ele>2.523</ele>
        <time>1970-01-01T05:03:20Z</time>
      </trkpt>
      <trkpt lat="40.176897" lon="0.172091">
        <ele>2.608</ele>
        <time>1970-01-01T05:03:21Z</time>
      </trkpt>
      <trkpt lat="40.176837" lon="0.172089">
        <ele>2.726</ele>
        <time>1970-01-01T05:03:22Z</time>
      </trkpt>
      <trkpt lat="40.176776" lon="0.172091">
        <ele>2.843</ele>
        <time>1970-01-01T05:03:23Z</time>
      </trkpt>
      <trkpt lat="40.176715" lon="0.172097">
        <ele>2.944</ele>
        <time>1970-01-01T05:03:24Z</time>
      </trkpt>
      <trkpt lat="40.176654" lon="0.172102">
        <ele>3.017</ele>
        <time>1970-01-01T05:03:25Z</time>
      </trkpt>
      <trkpt lat="40.176593" lon="0.172104">
        <ele>3.077</ele>
        <time>1970-01-01T05:03:26Z</time>
      </trkpt>
      <trkpt lat="40.176532" lon="0.172102">
        <ele>3.033</ele>
        <time>1970-01-01T05:03:27Z</time>
      </trkpt>
      <trkpt lat="40.176471" lon="0.172095">
        <ele>3.057</ele>
        <time>1970-01-01T05:03:28Z</time>
      </trkpt>
      <trkpt lat="40.176410" lon="0.172082">
        <ele>3.018</ele>
        <time>1970-01-01T05:03:29Z</time>
      </trkpt>
      <trkpt lat="40.176350" lon="0.172063">
        <ele>2.943</ele>
        <time>1970-01-01T05:03:30Z</time>
      </trkpt>
      <trkpt lat="40.176290" lon="0.172038">
        <ele>2.864</ele>
        <time>1970-01-01T05:03:31Z</time>
      </trkpt>
      <trkpt lat="40.176230" lon="0.172011">
        <ele>2.610</ele>
        <time>1970-01-01T05:03:32Z</time>
      </trkpt>
      <trkpt lat="40.176168" lon="0.171986">
        <ele>2.308</ele>
        <time>1970-01-01T05:03:33Z</time>
      </trkpt>
      <trkpt lat="40.176104" lon="0.171961">
        <ele>2.191</ele>
        <time>1970-01-01T05:03:34Z</time>
      </trkpt>
      <trkpt lat="40.176040" lon="0.171939">
        <ele>2.368</ele>
        <time>1970-01-01T05:03:35Z</time>
      </trkpt>
      <trkpt lat="40.175977" lon="0.171914">
        <ele>2.599</ele>
        <time>1970-01-01T05:03:36Z</time>
      </trkpt>
      <trkpt lat="40.175915" lon="0.171885">
        <ele>2.692</ele>
        <time>1970-01-01T05:03:37Z</time>
      </trkpt>
      <trkpt lat="40.175853" lon="0.171855">
        <ele>2.722</ele>
        <time>1970-01-01T05:03:38Z</time>
      </trkpt>
      <trkpt lat="40.175791" lon="0.171824">
        <ele>2.558</ele>
        <time>1970-01-01T05:03:39Z</time>
      </trkpt>
      <trkpt lat="40.175729" lon="0.171796">
        <ele>2.372</ele>
        <time>1970-01-01T05:03:40Z</time>
      </trkpt>
      <trkpt lat="40.175667" lon="0.171766">
        <ele>2.163</ele>
        <time>1970-01-01T05:03:41Z</time>
      </trkpt>
      <trkpt lat="40.175606" lon="0.171733">
        <ele>2.058</ele>
        <time>1970-01-01T05:03:42Z</time>
      </trkpt>
      <trkpt lat="40.175546" lon="0.171697">
        <ele>2.052</ele>
        <time>1970-01-01T05:03:43Z</time>
      </trkpt>
      <trkpt lat="40.175485" lon="0.171662">
        <ele>1.717</ele>
        <time>1970-01-01T05:03:44Z</time>
      </trkpt>
      <trkpt lat="40.175425" lon="0.171627">
        <ele>1.508</ele>
        <time>1970-01-01T05:03:45Z</time>
      </trkpt>
      <trkpt lat="40.175366" lon="0.171593">
        <ele>1.312</ele>
        <time>1970-01-01T05:03:46Z</time>
      </trkpt>
      <trkpt lat="40.175307" lon="0.171559">
        <ele>1.169</ele>
        <time>1970-01-01T05:03:47Z</time>
      </trkpt>
      <trkpt lat="40.175249" lon="0.171524">
        <ele>1.160</ele>
        <time>1970-01-01T05:03:48Z</time>
      </trkpt>
      <trkpt lat="40.175191" lon="0.171488">
        <ele>1.373</ele>
        <time>1970-01-01T05:03:49Z</time>
      </trkpt>
      <trkpt lat="40.175133" lon="0.171452">
        <ele>1.533</ele>
        <time>1970-01-01T05:03:50Z</time>
      </trkpt>
      <trkpt lat="40.175077" lon="0.171416">
        <ele>1.739</ele>
        <time>1970-01-01T05:03:51Z</time>
      </trkpt>
      <trkpt lat="40.175022" lon="0.171381">
        <ele>1.983</ele>
        <time>1970-01-01T05:03:52Z</time>
      </trkpt>
      <trkpt lat="40.174967" lon="0.171345">
        <ele>2.074</ele>
        <time>1970-01-01T05:03:53Z</time>
      </trkpt>
      <trkpt lat="40.174913" lon="0.171310">
        <ele>2.161</ele>
        <time>1970-01-01T05:03:54Z</time>
      </trkpt>
      <trkpt lat="40.174857" lon="0.171276">
        <ele>2.221</ele>
        <time>1970-01-01T05:03:55Z</time>
      </trkpt>
      <trkpt lat="40.174803" lon="0.171242">
        <ele>2.413</ele>
        <time>1970-01-01T05:03:56Z</time>
      </trkpt>
      <trkpt lat="40.174749" lon="0.171208">
        <ele>2.608</ele>
        <time>1970-01-01T05:03:57Z</time>
      </trkpt>
      <trkpt lat="40.174696" lon="0.171173">
        <ele>2.893</ele>
        <time>1970-01-01T05:03:58Z</time>
      </trkpt>
      <trkpt lat="40.174643" lon="0.171137">
        <ele>2.980</ele>
        <time>1970-01-01T05:03:59Z</time>
      </trkpt>
      <trkpt lat="40.174591" lon="0.171105">
        <ele>3.071</ele>
        <time>1970-01-01T05:04:00Z</time>
      </trkpt>
      <trkpt lat="40.174538" lon="0.171078">
        <ele>3.054</ele>
        <time>1970-01-01T05:04:01Z</time>
      </trkpt>
      <trkpt lat="40.174485" lon="0.171054">
        <ele>3.014</ele>
        <time>1970-01-01T05:04:02Z</time>
      </trkpt>
      <trkpt lat="40.174430" lon="0.171032">
        <ele>2.950</ele>
        <time>1970-01-01T05:04:03Z</time>
      </trkpt>
      <trkpt lat="40.174375" lon="0.171013">
        <ele>2.694</ele>
        <time>1970-01-01T05:04:04Z</time>
      </trkpt>
      <trkpt lat="40.174320" lon="0.170994">
        <ele>2.315</ele>
        <time>1970-01-01T05:04:05Z</time>
      </trkpt>
      <trkpt lat="40.174266" lon="0.170974">
        <ele>2.034</ele>
        <time>1970-01-01T05:04:06Z</time>
      </trkpt>
      <trkpt lat="40.174214" lon="0.170959">
        <ele>1.855</ele>
        <time>1970-01-01T05:04:07Z</time>
      </trkpt>
      <trkpt lat="40.174160" lon="0.170947">
        <ele>1.610</ele>
        <time>1970-01-01T05:04:08Z</time>
      </trkpt>
      <trkpt lat="40.174106" lon="0.170937">
        <ele>1.608</ele>
        <time>1970-01-01T05:04:09Z</time>
      </trkpt>
      <trkpt lat="40.174051" lon="0.170929">
        <ele>1.760</ele>
        <time>1970-01-01T05:04:10Z</time>
      </trkpt>
      <trkpt lat="40.173997" lon="0.170922">
        <ele>1.767</ele>
        <time>1970-01-01T05:04:11Z</time>
      </trkpt>
      <trkpt lat="40.173943" lon="0.170915">
        <ele>1.718</ele>
        <time>1970-01-01T05:04:12Z</time>
      </trkpt>
      <trkpt lat="40.173888" lon="0.170908">
        <ele>1.751</ele>
        <time>1970-01-01T05:04:13Z</time>
      </trkpt>
      <trkpt lat="40.173834" lon="0.170906">
        <ele>1.941</ele>
        <time>1970-01-01T05:04:14Z</time>
      </trkpt>
      <trkpt lat="40.173780" lon="0.170910">
        <ele>2.127</ele>
        <time>1970-01-01T05:04:15Z</time>
      </trkpt>
      <trkpt lat="40.173727" lon="0.170921">
        <ele>2.391</ele>
        <time>1970-01-01T05:04:16Z</time>
      </trkpt>
      <trkpt lat="40.173673" lon="0.170937">
        <ele>2.472</ele>
        <time>1970-01-01T05:04:17Z</time>
      </trkpt>
      <trkpt lat="40.173620" lon="0.170956">
        <ele>2.596</ele>
        <time>1970-01-01T05:04:18Z</time>
      </trkpt>
      <trkpt lat="40.173567" lon="0.170974">
        <ele>2.631</ele>
        <time>1970-01-01T05:04:19Z</time>
      </trkpt>
      <trkpt lat="40.173516" lon="0.170992">
        <ele>2.624</ele>
        <time>1970-01-01T05:04:20Z</time>
      </trkpt>
      <trkpt lat="40.173465" lon="0.171009">
        <ele>2.708</ele>
        <time>1970-01-01T05:04:21Z</time>
      </trkpt>
      <trkpt lat="40.173414" lon="0.171025">
        <ele>2.876</ele>
        <time>1970-01-01T05:04:22Z</time>
      </trkpt>
      <trkpt lat="40.173363" lon="0.171039">
        <ele>2.933</ele>
        <time>1970-01-01T05:04:23Z</time>
      </trkpt>
      <trkpt lat="40.173313" lon="0.171052">
        <ele>3.154</ele>
        <time>1970-01-01T05:04:24Z</time>
      </trkpt>
      <trkpt lat="40.173260" lon="0.171066">
        <ele>3.397</ele>
        <time>1970-01-01T05:04:25Z</time>
      </trkpt>
      <trkpt lat="40.173208" lon="0.171074">
        <ele>3.537</ele>
        <time>1970-01-01T05:04:26Z</time>
      </trkpt>
      <trkpt lat="40.173154" lon="0.171077">
        <ele>3.643</ele>
        <time>1970-01-01T05:04:27Z</time>
      </trkpt>
      <trkpt lat="40.173098" lon="0.171069">
        <ele>3.817</ele>
        <time>1970-01-01T05:04:28Z</time>
      </trkpt>
      <trkpt lat="40.173041" lon="0.171056">
        <ele>4.068</ele>
        <time>1970-01-01T05:04:29Z</time>
      </trkpt>
      <trkpt lat="40.172984" lon="0.171043">
        <ele>4.027</ele>
        <time>1970-01-01T05:04:30Z</time>
      </trkpt>
      <trkpt lat="40.172925" lon="0.171034">
        <ele>4.068</ele>
        <time>1970-01-01T05:04:31Z</time>
      </trkpt>
      <trkpt lat="40.172865" lon="0.171029">
        <ele>4.014</ele>
        <time>1970-01-01T05:04:32Z</time>
      </trkpt>
      <trkpt lat="40.172804" lon="0.171021">
        <ele>4.008</ele>
        <time>1970-01-01T05:04:33Z</time>
      </trkpt>
      <trkpt lat="40.172744" lon="0.171013">
        <ele>4.039</ele>
        <time>1970-01-01T05:04:34Z</time>
      </trkpt>
      <trkpt lat="40.172681" lon="0.171001">
        <ele>3.966</ele>
        <time>1970-01-01T05:04:35Z</time>
      </trkpt>
      <trkpt lat="40.172619" lon="0.170986">
        <ele>3.757</ele>
        <time>1970-01-01T05:04:36Z</time>
      </trkpt>
      <trkpt lat="40.172555" lon="0.170973">
        <ele>3.670</ele>
        <time>1970-01-01T05:04:37Z</time>
      </trkpt>
      <trkpt lat="40.172491" lon="0.170959">
        <ele>3.410</ele>
        <time>1970-01-01T05:04:38Z</time>
      </trkpt>
      <trkpt lat="40.172427" lon="0.170942">
        <ele>3.086</ele>
        <time>1970-01-01T05:04:39Z</time>
      </trkpt>
      <trkpt lat="40.172363" lon="0.170925">
        <ele>2.790</ele>
        <time>1970-01-01T05:04:40Z</time>
      </trkpt>
      <trkpt lat="40.172300" lon="0.170904">
        <ele>2.461</ele>
        <time>1970-01-01T05:04:41Z</time>
      </trkpt>
      <trkpt lat="40.172239" lon="0.170878">
        <ele>2.113</ele>
        <time>1970-01-01T05:04:42Z</time>
      </trkpt>
      <trkpt lat="40.172179" lon="0.170853">
        <ele>1.743</ele>
        <time>1970-01-01T05:04:43Z</time>
      </trkpt>
      <trkpt lat="40.172118" lon="0.170827">
        <ele>1.307</ele>
        <time>1970-01-01T05:04:44Z</time>
      </trkpt>
      <trkpt lat="40.172058" lon="0.170801">
        <ele>0.908</ele>
        <time>1970-01-01T05:04:45Z</time>
      </trkpt>
      <trkpt lat="40.171996" lon="0.170779">
        <ele>0.518</ele>
        <time>1970-01-01T05:04:46Z</time>
      </trkpt>
      <trkpt lat="40.171934" lon="0.170758">
        <ele>0.345</ele>
        <time>1970-01-01T05:04:47Z</time>
      </trkpt>
      <trkpt lat="40.171871" lon="0.170738">
        <ele>0.366</ele>
        <time>1970-01-01T05:04:48Z</time>
      </trkpt>
      <trkpt lat="40.171809" lon="0.170719">
        <ele>0.479</ele>
        <time>1970-01-01T05:04:49Z</time>
      </trkpt>
      <trkpt lat="40.171747" lon="0.170697">
        <ele>0.549</ele>
        <time>1970-01-01T05:04:50Z</time>
      </trkpt>
      <trkpt lat="40.171687" lon="0.170675">
        <ele>0.645</ele>
        <time>1970-01-01T05:04:51Z</time>
      </trkpt>
      <trkpt lat="40.171626" lon="0.170653">
        <ele>0.649</ele>
        <time>1970-01-01T05:04:52Z</time>
      </trkpt>
      <trkpt lat="40.171563" lon="0.170632">
        <ele>0.690</ele>
        <time>1970-01-01T05:04:53Z</time>
      </trkpt>
      <trkpt lat="40.171499" lon="0.170611">
        <ele>0.718</ele>
        <time>1970-01-01T05:04:54Z</time>
      </trkpt>
      <trkpt lat="40.171437" lon="0.170592">
        <ele>0.898</ele>
        <time>1970-01-01T05:04:55Z</time>
      </trkpt>
      <trkpt lat="40.171377" lon="0.170577">
        <ele>0.817</ele>
        <time>1970-01-01T05:04:56Z</time>
      </trkpt>
      <trkpt lat="40.171318" lon="0.170561">
        <ele>1.008</ele>
        <time>1970-01-01T05:04:57Z</time>
      </trkpt>
      <trkpt lat="40.171258" lon="0.170542">
        <ele>1.158</ele>
        <time>1970-01-01T05:04:58Z</time>
      </trkpt>
      <trkpt lat="40.171201" lon="0.170527">
        <ele>1.155</ele>
        <time>1970-01-01T05:04:59Z</time>
      </trkpt>
      <trkpt lat="40.171143" lon="0.170513">
        <ele>1.226</ele>
        <time>1970-01-01T05:05:00Z</time>
      </trkpt>
      <trkpt lat="40.171084" lon="0.170501">
        <ele>1.249</ele>
        <time>1970-01-01T05:05:01Z</time>
      </trkpt>
      <trkpt lat="40.171025" lon="0.170489">
        <ele>1.269</ele>
        <time>1970-01-01T05:05:02Z</time>
      </trkpt>
      <trkpt lat="40.170966" lon="0.170477">
        <ele>1.335</ele>
        <time>1970-01-01T05:05:03Z</time>
      </trkpt>
      <trkpt lat="40.170908" lon="0.170467">
        <ele>1.329</ele>
        <time>1970-01-01T05:05:04Z</time>
      </trkpt>
      <trkpt lat="40.170850" lon="0.170454">
        <ele>1.480</ele>
        <time>1970-01-01T05:05:05Z</time>
      </trkpt>
      <trkpt lat="40.170792" lon="0.170441">
        <ele>1.521</ele>
        <time>1970-01-01T05:05:06Z</time>
      </trkpt>
      <trkpt lat="40.170735" lon="0.170424">
        <ele>1.741</ele>
        <time>1970-01-01T05:05:07Z</time>
      </trkpt>
      <trkpt lat="40.170678" lon="0.170405">
        <ele>1.805</ele>
        <time>1970-01-01T05:05:08Z</time>
      </trkpt>
      <trkpt lat="40.170620" lon="0.170389">
        <ele>1.908</ele>
        <time>1970-01-01T05:05:09Z</time>
      </trkpt>
      <trkpt lat="40.170562" lon="0.170373">
        <ele>2.039</ele>
        <time>1970-01-01T05:05:10Z</time>
      </trkpt>
      <trkpt lat="40.170503" lon="0.170360">
        <ele>2.026</ele>
        <time>1970-01-01T05:05:11Z</time>
      </trkpt>
      <trkpt lat="40.170444" lon="0.170347">
        <ele>2.037</ele>
        <time>1970-01-01T05:05:12Z</time>
      </trkpt>
      <trkpt lat="40.170385" lon="0.170336">
        <ele>2.090</ele>
        <time>1970-01-01T05:05:13Z</time>
      </trkpt>
      <trkpt lat="40.170326" lon="0.170326">
        <ele>2.060</ele>
        <time>1970-01-01T05:05:14Z</time>
      </trkpt>
      <trkpt lat="40.170266" lon="0.170316">
        <ele>2.036</ele>
        <time>1970-01-01T05:05:15Z</time>
      </trkpt>
      <trkpt lat="40.170206" lon="0.170303">
        <ele>2.040</ele>
        <time>1970-01-01T05:05:16Z</time>
      </trkpt>
      <trkpt lat="40.170146" lon="0.170289">
        <ele>2.011</ele>
        <time>1970-01-01T05:05:17Z</time>
      </trkpt>
      <trkpt lat="40.170086" lon="0.170271">
        <ele>2.021</ele>
        <time>1970-01-01T05:05:18Z</time>
      </trkpt>
      <trkpt lat="40.170028" lon="0.170252">
        <ele>1.941</ele>
        <time>1970-01-01T05:05:19Z</time>
      </trkpt>
      <trkpt lat="40.169970" lon="0.170233">
        <ele>1.805</ele>
        <time>1970-01-01T05:05:20Z</time>
      </trkpt>
      <trkpt lat="40.169912" lon="0.170216">
        <ele>1.808</ele>
        <time>1970-01-01T05:05:21Z</time>
      </trkpt>
      <trkpt lat="40.169854" lon="0.170197">
        <ele>1.729</ele>
        <time>1970-01-01T05:05:22Z</time>
      </trkpt>
      <trkpt lat="40.169795" lon="0.170176">
        <ele>1.686</ele>
        <time>1970-01-01T05:05:23Z</time>
      </trkpt>
      <trkpt lat="40.169736" lon="0.170156">
        <ele>1.627</ele>
        <time>1970-01-01T05:05:24Z</time>
      </trkpt>
      <trkpt lat="40.169678" lon="0.170135">
        <ele>1.650</ele>
        <time>1970-01-01T05:05:25Z</time>
      </trkpt>
      <trkpt lat="40.169621" lon="0.170111">
        <ele>1.690</ele>
        <time>1970-01-01T05:05:26Z</time>
      </trkpt>
      <trkpt lat="40.169563" lon="0.170086">
        <ele>1.776</ele>
        <time>1970-01-01T05:05:27Z</time>
      </trkpt>
      <trkpt lat="40.169506" lon="0.170062">
        <ele>1.890</ele>
        <time>1970-01-01T05:05:28Z</time>
      </trkpt>
      <trkpt lat="40.169451" lon="0.170041">
        <ele>2.011</ele>
        <time>1970-01-01T05:05:29Z</time>
      </trkpt>
      <trkpt lat="40.169396" lon="0.170017">
        <ele>2.062</ele>
        <time>1970-01-01T05:05:30Z</time>
      </trkpt>
      <trkpt lat="40.169340" lon="0.169993">
        <ele>2.083</ele>
        <time>1970-01-01T05:05:31Z</time>
      </trkpt>
      <trkpt lat="40.169284" lon="0.169970">
        <ele>2.011</ele>
        <time>1970-01-01T05:05:32Z</time>
      </trkpt>
      <trkpt lat="40.169226" lon="0.169949">
        <ele>2.008</ele>
        <time>1970-01-01T05:05:33Z</time>
      </trkpt>
      <trkpt lat="40.169168" lon="0.169929">
        <ele>2.053</ele>
        <time>1970-01-01T05:05:34Z</time>
      </trkpt>
      <trkpt lat="40.169111" lon="0.169908">
        <ele>2.140</ele>
        <time>1970-01-01T05:05:35Z</time>
      </trkpt>
      <trkpt lat="40.169054" lon="0.169886">
        <ele>2.251</ele>
        <time>1970-01-01T05:05:36Z</time>
      </trkpt>
      <trkpt lat="40.168996" lon="0.169864">
        <ele>2.394</ele>
        <time>1970-01-01T05:05:37Z</time>
      </trkpt>
      <trkpt lat="40.168938" lon="0.169843">
        <ele>2.564</ele>
        <time>1970-01-01T05:05:38Z</time>
      </trkpt>
      <trkpt lat="40.168883" lon="0.169819">
        <ele>2.770</ele>
        <time>1970-01-01T05:05:39Z</time>
      </trkpt>
      <trkpt lat="40.168827" lon="0.169798">
        <ele>2.724</ele>
        <time>1970-01-01T05:05:40Z</time>
      </trkpt>
      <trkpt lat="40.168770" lon="0.169775">
        <ele>2.855</ele>
        <time>1970-01-01T05:05:41Z</time>
      </trkpt>
      <trkpt lat="40.168711" lon="0.169749">
        <ele>2.967</ele>
        <time>1970-01-01T05:05:42Z</time>
      </trkpt>
      <trkpt lat="40.168650" lon="0.169725">
        <ele>3.081</ele>
        <time>1970-01-01T05:05:43Z</time>
      </trkpt>
      <trkpt lat="40.168590" lon="0.169703">
        <ele>3.019</ele>
        <time>1970-01-01T05:05:44Z</time>
      </trkpt>
      <trkpt lat="40.168533" lon="0.169681">
        <ele>2.908</ele>
        <time>1970-01-01T05:05:45Z</time>
      </trkpt>
      <trkpt lat="40.168477" lon="0.169658">
        <ele>2.933</ele>
        <time>1970-01-01T05:05:46Z</time>
      </trkpt>
      <trkpt lat="40.168420" lon="0.169641">
        <ele>2.850</ele>
        <time>1970-01-01T05:05:47Z</time>
      </trkpt>
      <trkpt lat="40.168359" lon="0.169621">
        <ele>2.821</ele>
        <time>1970-01-01T05:05:48Z</time>
      </trkpt>
      <trkpt lat="40.168298" lon="0.169602">
        <ele>2.944</ele>
        <time>1970-01-01T05:05:49Z</time>
      </trkpt>
      <trkpt lat="40.168237" lon="0.169585">
        <ele>3.034</ele>
        <time>1970-01-01T05:05:50Z</time>
      </trkpt>
      <trkpt lat="40.168177" lon="0.169571">
        <ele>3.120</ele>
        <time>1970-01-01T05:05:51Z</time>
      </trkpt>
      <trkpt lat="40.168119" lon="0.169558">
        <ele>3.234</ele>
        <time>1970-01-01T05:05:52Z</time>
      </trkpt>
      <trkpt lat="40.168060" lon="0.169545">
        <ele>3.315</ele>
        <time>1970-01-01T05:05:53Z</time>
      </trkpt>
      <trkpt lat="40.168002" lon="0.169535">
        <ele>3.028</ele>
        <time>1970-01-01T05:05:54Z</time>
      </trkpt>
      <trkpt lat="40.167942" lon="0.169528">
        <ele>2.789</ele>
        <time>1970-01-01T05:05:55Z</time>
      </trkpt>
      <trkpt lat="40.167883" lon="0.169520">
        <ele>2.417</ele>
        <time>1970-01-01T05:05:56Z</time>
      </trkpt>
      <trkpt lat="40.167826" lon="0.169512">
        <ele>2.108</ele>
        <time>1970-01-01T05:05:57Z</time>
      </trkpt>
      <trkpt lat="40.167767" lon="0.169503">
        <ele>1.839</ele>
        <time>1970-01-01T05:05:58Z</time>
      </trkpt>
      <trkpt lat="40.167709" lon="0.169496">
        <ele>1.666</ele>
        <time>1970-01-01T05:05:59Z</time>
      </trkpt>
      <trkpt lat="40.167653" lon="0.169490">
        <ele>1.537</ele>
        <time>1970-01-01T05:06:00Z</time>
      </trkpt>
      <trkpt lat="40.167598" lon="0.169492">
        <ele>1.350</ele>
        <time>1970-01-01T05:06:01Z</time>
      </trkpt>
      <trkpt lat="40.167545" lon="0.169517">
        <ele>1.160</ele>
        <time>1970-01-01T05:06:02Z</time>
      </trkpt>
      <trkpt lat="40.167504" lon="0.169567">
        <ele>1.016</ele>
        <time>1970-01-01T05:06:03Z</time>
      </trkpt>
      <trkpt lat="40.167482" lon="0.169634">
        <ele>1.170</ele>
        <time>1970-01-01T05:06:04Z</time>
      </trkpt>
      <trkpt lat="40.167471" lon="0.169713">
        <ele>1.181</ele>
        <time>1970-01-01T05:06:05Z</time>
      </trkpt>
      <trkpt lat="40.167468" lon="0.169799">
        <ele>0.954</ele>
        <time>1970-01-01T05:06:06Z</time>
      </trkpt>
      <trkpt lat="40.167467" lon="0.169885">
        <ele>0.656</ele>
        <time>1970-01-01T05:06:07Z</time>
      </trkpt>
      <trkpt lat="40.167465" lon="0.169972">
        <ele>0.311</ele>
        <time>1970-01-01T05:06:08Z</time>
      </trkpt>
      <trkpt lat="40.167453" lon="0.170053">
        <ele>0.308</ele>
        <time>1970-01-01T05:06:09Z</time>
      </trkpt>
      <trkpt lat="40.167430" lon="0.170131">
        <ele>0.432</ele>
        <time>1970-01-01T05:06:10Z</time>
      </trkpt>
      <trkpt lat="40.167392" lon="0.170194">
        <ele>0.579</ele>
        <time>1970-01-01T05:06:11Z</time>
      </trkpt>
      <trkpt lat="40.167341" lon="0.170236">
        <ele>0.730</ele>
        <time>1970-01-01T05:06:12Z</time>
      </trkpt>
      <trkpt lat="40.167285" lon="0.170254">
        <ele>0.853</ele>
        <time>1970-01-01T05:06:13Z</time>
      </trkpt>
      <trkpt lat="40.167228" lon="0.170245">
        <ele>1.173</ele>
        <time>1970-01-01T05:06:14Z</time>
      </trkpt>
      <trkpt lat="40.167173" lon="0.170227">
        <ele>1.179</ele>
        <time>1970-01-01T05:06:15Z</time>
      </trkpt>
      <trkpt lat="40.167120" lon="0.170210">
        <ele>1.283</ele>
        <time>1970-01-01T05:06:16Z</time>
      </trkpt>
      <trkpt lat="40.167066" lon="0.170197">
        <ele>1.164</ele>
        <time>1970-01-01T05:06:17Z</time>
      </trkpt>
      <trkpt lat="40.167010" lon="0.170188">
        <ele>1.166</ele>
        <time>1970-01-01T05:06:18Z</time>
      </trkpt>
      <trkpt lat="40.166956" lon="0.170180">
        <ele>1.029</ele>
        <time>1970-01-01T05:06:19Z</time>
      </trkpt>
      <trkpt lat="40.166904" lon="0.170170">
        <ele>1.021</ele>
        <time>1970-01-01T05:06:20Z</time>
      </trkpt>
      <trkpt lat="40.166852" lon="0.170160">
        <ele>1.008</ele>
        <time>1970-01-01T05:06:21Z</time>
      </trkpt>
      <trkpt lat="40.166803" lon="0.170150">
        <ele>1.053</ele>
        <time>1970-01-01T05:06:22Z</time>
      </trkpt>
      <trkpt lat="40.166753" lon="0.170144">
        <ele>1.050</ele>
        <time>1970-01-01T05:06:23Z</time>
      </trkpt>
      <trkpt lat="40.166705" lon="0.170140">
        <ele>1.051</ele>
        <time>1970-01-01T05:06:24Z</time>
      </trkpt>
      <trkpt lat="40.166656" lon="0.170137">
        <ele>1.094</ele>
        <time>1970-01-01T05:06:25Z</time>
      </trkpt>
      <trkpt lat="40.166607" lon="0.170139">
        <ele>1.274</ele>
        <time>1970-01-01T05:06:26Z</time>
      </trkpt>
      <trkpt lat="40.166556" lon="0.170143">
        <ele>1.430</ele>
        <time>1970-01-01T05:06:27Z</time>
      </trkpt>
      <trkpt lat="40.166505" lon="0.170145">
        <ele>1.684</ele>
        <time>1970-01-01T05:06:28Z</time>
      </trkpt>
      <trkpt lat="40.166456" lon="0.170146">
        <ele>1.885</ele>
        <time>1970-01-01T05:06:29Z</time>
      </trkpt>
      <trkpt lat="40.166407" lon="0.170147">
        <ele>1.995</ele>
        <time>1970-01-01T05:06:30Z</time>
      </trkpt>
      <trkpt lat="40.166358" lon="0.170146">
        <ele>2.149</ele>
        <time>1970-01-01T05:06:31Z</time>
      </trkpt>
      <trkpt lat="40.166304" lon="0.170140">
        <ele>2.323</ele>
        <time>1970-01-01T05:06:32Z</time>
      </trkpt>
      <trkpt lat="40.166251" lon="0.170127">
        <ele>2.508</ele>
        <time>1970-01-01T05:06:33Z</time>
      </trkpt>
      <trkpt lat="40.166201" lon="0.170113">
        <ele>2.716</ele>
        <time>1970-01-01T05:06:34Z</time>
      </trkpt>
      <trkpt lat="40.166151" lon="0.170100">
        <ele>2.943</ele>
        <time>1970-01-01T05:06:35Z</time>
      </trkpt>
      <trkpt lat="40.166098" lon="0.170089">
        <ele>3.044</ele>
        <time>1970-01-01T05:06:36Z</time>
      </trkpt>
      <trkpt lat="40.166046" lon="0.170074">
        <ele>3.297</ele>
        <time>1970-01-01T05:06:37Z</time>
      </trkpt>
      <trkpt lat="40.165994" lon="0.170056">
        <ele>3.487</ele>
        <time>1970-01-01T05:06:38Z</time>
      </trkpt>
      <trkpt lat="40.165942" lon="0.170039">
        <ele>3.673</ele>
        <time>1970-01-01T05:06:39Z</time>
      </trkpt>
      <trkpt lat="40.165890" lon="0.170022">
        <ele>3.877</ele>
        <time>1970-01-01T05:06:40Z</time>
      </trkpt>
      <trkpt lat="40.165839" lon="0.170004">
        <ele>4.028</ele>
        <time>1970-01-01T05:06:41Z</time>
      </trkpt>
      <trkpt lat="40.165787" lon="0.169985">
        <ele>4.071</ele>
        <time>1970-01-01T05:06:42Z</time>
      </trkpt>
      <trkpt lat="40.165735" lon="0.169966">
        <ele>3.941</ele>
        <time>1970-01-01T05:06:43Z</time>
      </trkpt>
      <trkpt lat="40.165681" lon="0.169946">
        <ele>3.915</ele>
        <time>1970-01-01T05:06:44Z</time>
      </trkpt>
      <trkpt lat="40.165629" lon="0.169926">
        <ele>3.908</ele>
        <time>1970-01-01T05:06:45Z</time>
      </trkpt>
      <trkpt lat="40.165578" lon="0.169906">
        <ele>4.074</ele>
        <time>1970-01-01T05:06:46Z</time>
      </trkpt>
      <trkpt lat="40.165526" lon="0.169887">
        <ele>3.951</ele>
        <time>1970-01-01T05:06:47Z</time>
      </trkpt>
      <trkpt lat="40.165473" lon="0.169871">
        <ele>3.722</ele>
        <time>1970-01-01T05:06:48Z</time>
      </trkpt>
      <trkpt lat="40.165420" lon="0.169856">
        <ele>3.525</ele>
        <time>1970-01-01T05:06:49Z</time>
      </trkpt>
      <trkpt lat="40.165366" lon="0.169837">
        <ele>3.395</ele>
        <time>1970-01-01T05:06:50Z</time>
      </trkpt>
      <trkpt lat="40.165312" lon="0.169817">
        <ele>3.131</ele>
        <time>1970-01-01T05:06:51Z</time>
      </trkpt>
      <trkpt lat="40.165257" lon="0.169797">
        <ele>3.035</ele>
        <time>1970-01-01T05:06:52Z</time>
      </trkpt>
      <trkpt lat="40.165201" lon="0.169777">
        <ele>2.966</ele>
        <time>1970-01-01T05:06:53Z</time>
      </trkpt>
      <trkpt lat="40.165145" lon="0.169760">
        <ele>2.967</ele>
        <time>1970-01-01T05:06:54Z</time>
      </trkpt>
      <trkpt lat="40.165087" lon="0.169746">
        <ele>2.981</ele>
        <time>1970-01-01T05:06:55Z</time>
      </trkpt>
      <trkpt lat="40.165030" lon="0.169732">
        <ele>3.019</ele>
        <time>1970-01-01T05:06:56Z</time>
      </trkpt>
      <trkpt lat="40.164973" lon="0.169720">
        <ele>3.008</ele>
        <time>1970-01-01T05:06:57Z</time>
      </trkpt>
      <trkpt lat="40.164917" lon="0.169708">
        <ele>3.053</ele>
        <time>1970-01-01T05:06:58Z</time>
      </trkpt>
      <trkpt lat="40.164859" lon="0.169698">
        <ele>3.070</ele>
        <time>1970-01-01T05:06:59Z</time>
      </trkpt>
      <trkpt lat="40.164803" lon="0.169692">
        <ele>3.141</ele>
        <time>1970-01-01T05:07:00Z</time>
      </trkpt>
      <trkpt lat="40.164746" lon="0.169687">
        <ele>3.174</ele>
        <time>1970-01-01T05:07:01Z</time>
      </trkpt>
      <trkpt lat="40.164690" lon="0.169682">
        <ele>3.174</ele>
        <time>1970-01-01T05:07:02Z</time>
      </trkpt>
      <trkpt lat="40.164634" lon="0.169677">
        <ele>3.220</ele>
        <time>1970-01-01T05:07:03Z</time>
      </trkpt>
      <trkpt lat="40.164579" lon="0.169673">
        <ele>3.234</ele>
        <time>1970-01-01T05:07:04Z</time>
      </trkpt>
      <trkpt lat="40.164524" lon="0.169669">
        <ele>3.285</ele>
        <time>1970-01-01T05:07:05Z</time>
      </trkpt>
      <trkpt lat="40.164468" lon="0.169664">
        <ele>3.212</ele>
        <time>1970-01-01T05:07:06Z</time>
      </trkpt>
      <trkpt lat="40.164414" lon="0.169661">
        <ele>3.232</ele>
        <time>1970-01-01T05:07:07Z</time>
      </trkpt>
      <trkpt lat="40.164360" lon="0.169658">
        <ele>3.205</ele>
        <time>1970-01-01T05:07:08Z</time>
      </trkpt>
      <trkpt lat="40.164306" lon="0.169658">
        <ele>3.108</ele>
        <time>1970-01-01T05:07:09Z</time>
      </trkpt>
      <trkpt lat="40.164252" lon="0.169660">
        <ele>3.138</ele>
        <time>1970-01-01T05:07:10Z</time>
      </trkpt>
      <trkpt lat="40.164199" lon="0.169661">
        <ele>3.045</ele>
        <time>1970-01-01T05:07:11Z</time>
      </trkpt>
      <trkpt lat="40.164148" lon="0.169660">
        <ele>2.966</ele>
        <time>1970-01-01T05:07:12Z</time>
      </trkpt>
      <trkpt lat="40.164098" lon="0.169660">
        <ele>2.819</ele>
        <time>1970-01-01T05:07:13Z</time>
      </trkpt>
      <trkpt lat="40.164047" lon="0.169662">
        <ele>2.659</ele>
        <time>1970-01-01T05:07:14Z</time>
      </trkpt>
      <trkpt lat="40.163997" lon="0.169666">
        <ele>2.495</ele>
        <time>1970-01-01T05:07:15Z</time>
      </trkpt>
      <trkpt lat="40.163946" lon="0.169669">
        <ele>2.299</ele>
        <time>1970-01-01T05:07:16Z</time>
      </trkpt>
      <trkpt lat="40.163894" lon="0.169667">
        <ele>2.020</ele>
        <time>1970-01-01T05:07:17Z</time>
      </trkpt>
      <trkpt lat="40.163842" lon="0.169661">
        <ele>1.945</ele>
        <time>1970-01-01T05:07:18Z</time>
      </trkpt>
      <trkpt lat="40.163793" lon="0.169659">
        <ele>1.747</ele>
        <time>1970-01-01T05:07:19Z</time>
      </trkpt>
      <trkpt lat="40.163745" lon="0.169660">
        <ele>1.611</ele>
        <time>1970-01-01T05:07:20Z</time>
      </trkpt>
      <trkpt lat="40.163700" lon="0.169659">
        <ele>1.508</ele>
        <time>1970-01-01T05:07:21Z</time>
      </trkpt>
      <trkpt lat="40.163653" lon="0.169658">
        <ele>1.381</ele>
        <time>1970-01-01T05:07:22Z</time>
      </trkpt>
      <trkpt lat="40.163606" lon="0.169652">
        <ele>1.328</ele>
        <time>1970-01-01T05:07:23Z</time>
      </trkpt>
      <trkpt lat="40.163563" lon="0.169643">
        <ele>1.319</ele>
        <time>1970-01-01T05:07:24Z</time>
      </trkpt>
      <trkpt lat="40.163520" lon="0.169627">
        <ele>1.342</ele>
        <time>1970-01-01T05:07:25Z</time>
      </trkpt>
      <trkpt lat="40.163474" lon="0.169607">
        <ele>1.482</ele>
        <time>1970-01-01T05:07:26Z</time>
      </trkpt>
      <trkpt lat="40.163427" lon="0.169583">
        <ele>1.568</ele>
        <time>1970-01-01T05:07:27Z</time>
      </trkpt>
      <trkpt lat="40.163377" lon="0.169559">
        <ele>1.642</ele>
        <time>1970-01-01T05:07:28Z</time>
      </trkpt>
      <trkpt lat="40.163325" lon="0.169538">
        <ele>1.723</ele>
        <time>1970-01-01T05:07:29Z</time>
      </trkpt>
      <trkpt lat="40.163273" lon="0.169518">
        <ele>2.035</ele>
        <time>1970-01-01T05:07:30Z</time>
      </trkpt>
      <trkpt lat="40.163222" lon="0.169497">
        <ele>2.286</ele>
        <time>1970-01-01T05:07:31Z</time>
      </trkpt>
      <trkpt lat="40.163170" lon="0.169476">
        <ele>2.514</ele>
        <time>1970-01-01T05:07:32Z</time>
      </trkpt>
      <trkpt lat="40.163119" lon="0.169451">
        <ele>2.708</ele>
        <time>1970-01-01T05:07:33Z</time>
      </trkpt>
      <trkpt lat="40.163069" lon="0.169427">
        <ele>3.120</ele>
        <time>1970-01-01T05:07:34Z</time>
      </trkpt>
      <trkpt lat="40.163019" lon="0.169402">
        <ele>3.317</ele>
        <time>1970-01-01T05:07:35Z</time>
      </trkpt>
      <trkpt lat="40.162969" lon="0.169377">
        <ele>3.498</ele>
        <time>1970-01-01T05:07:36Z</time>
      </trkpt>
      <trkpt lat="40.162919" lon="0.169351">
        <ele>3.581</ele>
        <time>1970-01-01T05:07:37Z</time>
      </trkpt>
      <trkpt lat="40.162869" lon="0.169325">
        <ele>3.691</ele>
        <time>1970-01-01T05:07:38Z</time>
      </trkpt>
      <trkpt lat="40.162820" lon="0.169297">
        <ele>3.647</ele>
        <time>1970-01-01T05:07:39Z</time>
      </trkpt>
      <trkpt lat="40.162772" lon="0.169271">
        <ele>3.691</ele>
        <time>1970-01-01T05:07:40Z</time>
      </trkpt>
      <trkpt lat="40.162725" lon="0.169248">
        <ele>3.542</ele>
        <time>1970-01-01T05:07:41Z</time>
      </trkpt>
      <trkpt lat="40.162678" lon="0.169224">
        <ele>3.425</ele>
        <time>1970-01-01T05:07:42Z</time>
      </trkpt>
      <trkpt lat="40.162632" lon="0.169197">
        <ele>3.426</ele>
        <time>1970-01-01T05:07:43Z</time>
      </trkpt>
      <trkpt lat="40.162584" lon="0.169170">
        <ele>3.308</ele>
        <time>1970-01-01T05:07:44Z</time>
      </trkpt>
      <trkpt lat="40.162533" lon="0.169146">
        <ele>3.208</ele>
        <time>1970-01-01T05:07:45Z</time>
      </trkpt>
      <trkpt lat="40.162484" lon="0.169121">
        <ele>3.139</ele>
        <time>1970-01-01T05:07:46Z</time>
      </trkpt>
      <trkpt lat="40.162434" lon="0.169097">
        <ele>3.066</ele>
        <time>1970-01-01T05:07:47Z</time>
      </trkpt>
      <trkpt lat="40.162385" lon="0.169075">
        <ele>2.817</ele>
        <time>1970-01-01T05:07:48Z</time>
      </trkpt>
      <trkpt lat="40.162335" lon="0.169054">
        <ele>2.630</ele>
        <time>1970-01-01T05:07:49Z</time>
      </trkpt>
      <trkpt lat="40.162285" lon="0.169032">
        <ele>2.370</ele>
        <time>1970-01-01T05:07:50Z</time>
      </trkpt>
      <trkpt lat="40.162235" lon="0.169010">
        <ele>2.186</ele>
        <time>1970-01-01T05:07:51Z</time>
      </trkpt>
      <trkpt lat="40.162185" lon="0.168992">
        <ele>1.970</ele>
        <time>1970-01-01T05:07:52Z</time>
      </trkpt>
      <trkpt lat="40.162134" lon="0.168982">
        <ele>1.771</ele>
        <time>1970-01-01T05:07:53Z</time>
      </trkpt>
      <trkpt lat="40.162081" lon="0.168972">
        <ele>1.519</ele>
        <time>1970-01-01T05:07:54Z</time>
      </trkpt>
      <trkpt lat="40.162031" lon="0.168967">
        <ele>1.309</ele>
        <time>1970-01-01T05:07:55Z</time>
      </trkpt>
      <trkpt lat="40.161979" lon="0.168969">
        <ele>1.119</ele>
        <time>1970-01-01T05:07:56Z</time>
      </trkpt>
      <trkpt lat="40.161927" lon="0.168974">
        <ele>1.008</ele>
        <time>1970-01-01T05:07:57Z</time>
      </trkpt>
      <trkpt lat="40.161876" lon="0.168982">
        <ele>0.978</ele>
        <time>1970-01-01T05:07:58Z</time>
      </trkpt>
      <trkpt lat="40.161825" lon="0.168995">
        <ele>0.865</ele>
        <time>1970-01-01T05:07:59Z</time>
      </trkpt>
      <trkpt lat="40.161773" lon="0.169009">
        <ele>0.736</ele>
        <time>1970-01-01T05:08:00Z</time>
      </trkpt>
      <trkpt lat="40.161722" lon="0.169020">
        <ele>0.689</ele>
        <time>1970-01-01T05:08:01Z</time>
      </trkpt>
      <trkpt lat="40.161671" lon="0.169031">
        <ele>0.589</ele>
        <time>1970-01-01T05:08:02Z</time>
      </trkpt>
      <trkpt lat="40.161618" lon="0.169042">
        <ele>0.775</ele>
        <time>1970-01-01T05:08:03Z</time>
      </trkpt>
      <trkpt lat="40.161565" lon="0.169051">
        <ele>1.059</ele>
        <time>1970-01-01T05:08:04Z</time>
      </trkpt>
      <trkpt lat="40.161512" lon="0.169054">
        <ele>1.320</ele>
        <time>1970-01-01T05:08:05Z</time>
      </trkpt>
      <trkpt lat="40.161459" lon="0.169050">
        <ele>1.651</ele>
        <time>1970-01-01T05:08:06Z</time>
      </trkpt>
      <trkpt lat="40.161406" lon="0.169042">
        <ele>1.901</ele>
        <time>1970-01-01T05:08:07Z</time>
      </trkpt>
      <trkpt lat="40.161354" lon="0.169028">
        <ele>1.911</ele>
        <time>1970-01-01T05:08:08Z</time>
      </trkpt>
      <trkpt lat="40.161301" lon="0.169010">
        <ele>1.808</ele>
        <time>1970-01-01T05:08:09Z</time>
      </trkpt>
      <trkpt lat="40.161248" lon="0.168989">
        <ele>1.712</ele>
        <time>1970-01-01T05:08:10Z</time>
      </trkpt>
      <trkpt lat="40.161195" lon="0.168966">
        <ele>1.549</ele>
        <time>1970-01-01T05:08:11Z</time>
      </trkpt>
      <trkpt lat="40.161143" lon="0.168940">
        <ele>1.380</ele>
        <time>1970-01-01T05:08:12Z</time>
      </trkpt>
      <trkpt lat="40.161091" lon="0.168911">
        <ele>1.153</ele>
        <time>1970-01-01T05:08:13Z</time>
      </trkpt>
      <trkpt lat="40.161038" lon="0.168882">
        <ele>1.053</ele>
        <time>1970-01-01T05:08:14Z</time>
      </trkpt>
      <trkpt lat="40.160986" lon="0.168853">
        <ele>1.149</ele>
        <time>1970-01-01T05:08:15Z</time>
      </trkpt>
      <trkpt lat="40.160935" lon="0.168824">
        <ele>1.133</ele>
        <time>1970-01-01T05:08:16Z</time>
      </trkpt>
      <trkpt lat="40.160881" lon="0.168798">
        <ele>1.174</ele>
        <time>1970-01-01T05:08:17Z</time>
      </trkpt>
      <trkpt lat="40.160828" lon="0.168773">
        <ele>1.036</ele>
        <time>1970-01-01T05:08:18Z</time>
      </trkpt>
      <trkpt lat="40.160775" lon="0.168748">
        <ele>1.017</ele>
        <time>1970-01-01T05:08:19Z</time>
      </trkpt>
      <trkpt lat="40.160722" lon="0.168722">
        <ele>1.018</ele>
        <time>1970-01-01T05:08:20Z</time>
      </trkpt>
      <trkpt lat="40.160669" lon="0.168697">
        <ele>1.008</ele>
        <time>1970-01-01T05:08:21Z</time>
      </trkpt>
      <trkpt lat="40.160617" lon="0.168674">
        <ele>1.040</ele>
        <time>1970-01-01T05:08:22Z</time>
      </trkpt>
      <trkpt lat="40.160564" lon="0.168649">
        <ele>1.037</ele>
        <time>1970-01-01T05:08:23Z</time>
      </trkpt>
      <trkpt lat="40.160510" lon="0.168623">
        <ele>1.238</ele>
        <time>1970-01-01T05:08:24Z</time>
      </trkpt>
      <trkpt lat="40.160456" lon="0.168600">
        <ele>1.461</ele>
        <time>1970-01-01T05:08:25Z</time>
      </trkpt>
      <trkpt lat="40.160403" lon="0.168579">
        <ele>1.691</ele>
        <time>1970-01-01T05:08:26Z</time>
      </trkpt>
      <trkpt lat="40.160350" lon="0.168558">
        <ele>1.837</ele>
        <time>1970-01-01T05:08:27Z</time>
      </trkpt>
      <trkpt lat="40.160296" lon="0.168539">
        <ele>2.031</ele>
        <time>1970-01-01T05:08:28Z</time>
      </trkpt>
      <trkpt lat="40.160241" lon="0.168521">
        <ele>2.112</ele>
        <time>1970-01-01T05:08:29Z</time>
      </trkpt>
      <trkpt lat="40.160186" lon="0.168500">
        <ele>2.369</ele>
        <time>1970-01-01T05:08:30Z</time>
      </trkpt>
      <trkpt lat="40.160132" lon="0.168480">
        <ele>2.504</ele>
        <time>1970-01-01T05:08:31Z</time>
      </trkpt>
      <trkpt lat="40.160077" lon="0.168460">
        <ele>2.724</ele>
        <time>1970-01-01T05:08:32Z</time>
      </trkpt>
      <trkpt lat="40.160023" lon="0.168441">
        <ele>2.908</ele>
        <time>1970-01-01T05:08:33Z</time>
      </trkpt>
      <trkpt lat="40.159970" lon="0.168421">
        <ele>2.853</ele>
        <time>1970-01-01T05:08:34Z</time>
      </trkpt>
      <trkpt lat="40.159917" lon="0.168399">
        <ele>2.420</ele>
        <time>1970-01-01T05:08:35Z</time>
      </trkpt>
      <trkpt lat="40.159863" lon="0.168379">
        <ele>2.071</ele>
        <time>1970-01-01T05:08:36Z</time>
      </trkpt>
      <trkpt lat="40.159809" lon="0.168359">
        <ele>1.674</ele>
        <time>1970-01-01T05:08:37Z</time>
      </trkpt>
      <trkpt lat="40.159756" lon="0.168337">
        <ele>1.244</ele>
        <time>1970-01-01T05:08:38Z</time>
      </trkpt>
      <trkpt lat="40.159701" lon="0.168317">
        <ele>1.060</ele>
        <time>1970-01-01T05:08:39Z</time>
      </trkpt>
      <trkpt lat="40.159646" lon="0.168301">
        <ele>0.834</ele>
        <time>1970-01-01T05:08:40Z</time>
      </trkpt>
      <trkpt lat="40.159588" lon="0.168287">
        <ele>0.615</ele>
        <time>1970-01-01T05:08:41Z</time>
      </trkpt>
      <trkpt lat="40.159533" lon="0.168274">
        <ele>0.432</ele>
        <time>1970-01-01T05:08:42Z</time>
      </trkpt>
      <trkpt lat="40.159473" lon="0.168268">
        <ele>0.192</ele>
        <time>1970-01-01T05:08:43Z</time>
      </trkpt>
      <trkpt lat="40.159414" lon="0.168275">
        <ele>0.011</ele>
        <time>1970-01-01T05:08:44Z</time>
      </trkpt>
      <trkpt lat="40.159354" lon="0.168291">
        <ele>0.008</ele>
        <time>1970-01-01T05:08:45Z</time>
      </trkpt>
      <trkpt lat="40.159296" lon="0.168314">
        <ele>0.070</ele>
        <time>1970-01-01T05:08:46Z</time>
      </trkpt>
      <trkpt lat="40.159237" lon="0.168333">
        <ele>0.037</ele>
        <time>1970-01-01T05:08:47Z</time>
      </trkpt>
      <trkpt lat="40.159179" lon="0.168338">
        <ele>-0.058</ele>
        <time>1970-01-01T05:08:48Z</time>
      </trkpt>
      <trkpt lat="40.159120" lon="0.168334">
        <ele>0.281</ele>
        <time>1970-01-01T05:08:49Z</time>
      </trkpt>
      <trkpt lat="40.159063" lon="0.168321">
        <ele>0.431</ele>
        <time>1970-01-01T05:08:50Z</time>
      </trkpt>
      <trkpt lat="40.159008" lon="0.168300">
        <ele>0.637</ele>
        <time>1970-01-01T05:08:51Z</time>
      </trkpt>
      <trkpt lat="40.158952" lon="0.168276">
        <ele>0.831</ele>
        <time>1970-01-01T05:08:52Z</time>
      </trkpt>
      <trkpt lat="40.158896" lon="0.168252">
        <ele>1.082</ele>
        <time>1970-01-01T05:08:53Z</time>
      </trkpt>
      <trkpt lat="40.158839" lon="0.168230">
        <ele>1.253</ele>
        <time>1970-01-01T05:08:54Z</time>
      </trkpt>
      <trkpt lat="40.158782" lon="0.168211">
        <ele>1.404</ele>
        <time>1970-01-01T05:08:55Z</time>
      </trkpt>
      <trkpt lat="40.158724" lon="0.168189">
        <ele>1.614</ele>
        <time>1970-01-01T05:08:56Z</time>
      </trkpt>
      <trkpt lat="40.158667" lon="0.168165">
        <ele>1.808</ele>
        <time>1970-01-01T05:08:57Z</time>
      </trkpt>
      <trkpt lat="40.158612" lon="0.168137">
        <ele>2.082</ele>
        <time>1970-01-01T05:08:58Z</time>
      </trkpt>
      <trkpt lat="40.158557" lon="0.168108">
        <ele>2.089</ele>
        <time>1970-01-01T05:08:59Z</time>
      </trkpt>
      <trkpt lat="40.158502" lon="0.168076">
        <ele>2.080</ele>
        <time>1970-01-01T05:09:00Z</time>
      </trkpt>
      <trkpt lat="40.158448" lon="0.168041">
        <ele>2.063</ele>
        <time>1970-01-01T05:09:01Z</time>
      </trkpt>
      <trkpt lat="40.158395" lon="0.168005">
        <ele>2.063</ele>
        <time>1970-01-01T05:09:02Z</time>
      </trkpt>
      <trkpt lat="40.158340" lon="0.167973">
        <ele>2.069</ele>
        <time>1970-01-01T05:09:03Z</time>
      </trkpt>
      <trkpt lat="40.158285" lon="0.167945">
        <ele>2.023</ele>
        <time>1970-01-01T05:09:04Z</time>
      </trkpt>
      <trkpt lat="40.158232" lon="0.167916">
        <ele>2.034</ele>
        <time>1970-01-01T05:09:05Z</time>
      </trkpt>
      <trkpt lat="40.158179" lon="0.167887">
        <ele>2.033</ele>
        <time>1970-01-01T05:09:06Z</time>
      </trkpt>
      <trkpt lat="40.158124" lon="0.167859">
        <ele>2.023</ele>
        <time>1970-01-01T05:09:07Z</time>
      </trkpt>
      <trkpt lat="40.158069" lon="0.167833">
        <ele>2.015</ele>
        <time>1970-01-01T05:09:08Z</time>
      </trkpt>
      <trkpt lat="40.158014" lon="0.167806">
        <ele>2.108</ele>
        <time>1970-01-01T05:09:09Z</time>
      </trkpt>
      <trkpt lat="40.157960" lon="0.167779">
        <ele>2.390</ele>
        <time>1970-01-01T05:09:10Z</time>
      </trkpt>
      <trkpt lat="40.157904" lon="0.167751">
        <ele>2.477</ele>
        <time>1970-01-01T05:09:11Z</time>
      </trkpt>
      <trkpt lat="40.157848" lon="0.167723">
        <ele>2.558</ele>
        <time>1970-01-01T05:09:12Z</time>
      </trkpt>
      <trkpt lat="40.157793" lon="0.167694">
        <ele>2.631</ele>
        <time>1970-01-01T05:09:13Z</time>
      </trkpt>
      <trkpt lat="40.157740" lon="0.167662">
        <ele>2.551</ele>
        <time>1970-01-01T05:09:14Z</time>
      </trkpt>
      <trkpt lat="40.157688" lon="0.167628">
        <ele>2.397</ele>
        <time>1970-01-01T05:09:15Z</time>
      </trkpt>
      <trkpt lat="40.157633" lon="0.167598">
        <ele>2.251</ele>
        <time>1970-01-01T05:09:16Z</time>
      </trkpt>
      <trkpt lat="40.157579" lon="0.167576">
        <ele>2.172</ele>
        <time>1970-01-01T05:09:17Z</time>
      </trkpt>
      <trkpt lat="40.157526" lon="0.167554">
        <ele>2.062</ele>
        <time>1970-01-01T05:09:18Z</time>
      </trkpt>
      <trkpt lat="40.157474" lon="0.167526">
        <ele>1.983</ele>
        <time>1970-01-01T05:09:19Z</time>
      </trkpt>
      <trkpt lat="40.157423" lon="0.167497">
        <ele>1.711</ele>
        <time>1970-01-01T05:09:20Z</time>
      </trkpt>
      <trkpt lat="40.157371" lon="0.167469">
        <ele>1.708</ele>
        <time>1970-01-01T05:09:21Z</time>
      </trkpt>
      <trkpt lat="40.157319" lon="0.167443">
        <ele>1.773</ele>
        <time>1970-01-01T05:09:22Z</time>
      </trkpt>
      <trkpt lat="40.157266" lon="0.167419">
        <ele>1.710</ele>
        <time>1970-01-01T05:09:23Z</time>
      </trkpt>
      <trkpt lat="40.157213" lon="0.167398">
        <ele>1.731</ele>
        <time>1970-01-01T05:09:24Z</time>
      </trkpt>
      <trkpt lat="40.157161" lon="0.167378">
        <ele>1.864</ele>
        <time>1970-01-01T05:09:25Z</time>
      </trkpt>
      <trkpt lat="40.157109" lon="0.167361">
        <ele>1.884</ele>
        <time>1970-01-01T05:09:26Z</time>
      </trkpt>
      <trkpt lat="40.157058" lon="0.167341">
        <ele>1.890</ele>
        <time>1970-01-01T05:09:27Z</time>
      </trkpt>
      <trkpt lat="40.157006" lon="0.167322">
        <ele>1.884</ele>
        <time>1970-01-01T05:09:28Z</time>
      </trkpt>
      <trkpt lat="40.156956" lon="0.167304">
        <ele>1.715</ele>
        <time>1970-01-01T05:09:29Z</time>
      </trkpt>
      <trkpt lat="40.156905" lon="0.167285">
        <ele>1.884</ele>
        <time>1970-01-01T05:09:30Z</time>
      </trkpt>
      <trkpt lat="40.156853" lon="0.167266">
        <ele>1.807</ele>
        <time>1970-01-01T05:09:31Z</time>
      </trkpt>
      <trkpt lat="40.156799" lon="0.167251">
        <ele>1.917</ele>
        <time>1970-01-01T05:09:32Z</time>
      </trkpt>
      <trkpt lat="40.156747" lon="0.167241">
        <ele>1.908</ele>
        <time>1970-01-01T05:09:33Z</time>
      </trkpt>
      <trkpt lat="40.156693" lon="0.167234">
        <ele>2.055</ele>
        <time>1970-01-01T05:09:34Z</time>
      </trkpt>
      <trkpt lat="40.156638" lon="0.167230">
        <ele>2.082</ele>
        <time>1970-01-01T05:09:35Z</time>
      </trkpt>
      <trkpt lat="40.156582" lon="0.167226">
        <ele>2.053</ele>
        <time>1970-01-01T05:09:36Z</time>
      </trkpt>
      <trkpt lat="40.156522" lon="0.167224">
        <ele>2.096</ele>
        <time>1970-01-01T05:09:37Z</time>
      </trkpt>
      <trkpt lat="40.156456" lon="0.167226">
        <ele>2.036</ele>
        <time>1970-01-01T05:09:38Z</time>
      </trkpt>
      <trkpt lat="40.156385" lon="0.167228">
        <ele>2.092</ele>
        <time>1970-01-01T05:09:39Z</time>
      </trkpt>
      <trkpt lat="40.156314" lon="0.167227">
        <ele>2.356</ele>
        <time>1970-01-01T05:09:40Z</time>
      </trkpt>
      <trkpt lat="40.156250" lon="0.167222">
        <ele>2.547</ele>
        <time>1970-01-01T05:09:41Z</time>
      </trkpt>
      <trkpt lat="40.156194" lon="0.167214">
        <ele>2.758</ele>
        <time>1970-01-01T05:09:42Z</time>
      </trkpt>
      <trkpt lat="40.156142" lon="0.167207">
        <ele>2.952</ele>
        <time>1970-01-01T05:09:43Z</time>
      </trkpt>
      <trkpt lat="40.156086" lon="0.167200">
        <ele>3.017</ele>
        <time>1970-01-01T05:09:44Z</time>
      </trkpt>
      <trkpt lat="40.156028" lon="0.167194">
        <ele>3.008</ele>
        <time>1970-01-01T05:09:45Z</time>
      </trkpt>
      <trkpt lat="40.155968" lon="0.167186">
        <ele>3.092</ele>
        <time>1970-01-01T05:09:46Z</time>
      </trkpt>
      <trkpt lat="40.155908" lon="0.167178">
        <ele>3.079</ele>
        <time>1970-01-01T05:09:47Z</time>
      </trkpt>
      <trkpt lat="40.155846" lon="0.167170">
        <ele>3.040</ele>
        <time>1970-01-01T05:09:48Z</time>
      </trkpt>
      <trkpt lat="40.155782" lon="0.167161">
        <ele>3.063</ele>
        <time>1970-01-01T05:09:49Z</time>
      </trkpt>
      <trkpt lat="40.155721" lon="0.167145">
        <ele>3.063</ele>
        <time>1970-01-01T05:09:50Z</time>
      </trkpt>
      <trkpt lat="40.155664" lon="0.167118">
        <ele>3.019</ele>
        <time>1970-01-01T05:09:51Z</time>
      </trkpt>
      <trkpt lat="40.155612" lon="0.167082">
        <ele>3.063</ele>
        <time>1970-01-01T05:09:52Z</time>
      </trkpt>
      <trkpt lat="40.155564" lon="0.167042">
        <ele>3.014</ele>
        <time>1970-01-01T05:09:53Z</time>
      </trkpt>
      <trkpt lat="40.155515" lon="0.167005">
        <ele>2.975</ele>
        <time>1970-01-01T05:09:54Z</time>
      </trkpt>
      <trkpt lat="40.155464" lon="0.166969">
        <ele>2.728</ele>
        <time>1970-01-01T05:09:55Z</time>
      </trkpt>
      <trkpt lat="40.155412" lon="0.166929">
        <ele>2.520</ele>
        <time>1970-01-01T05:09:56Z</time>
      </trkpt>
      <trkpt lat="40.155360" lon="0.166887">
        <ele>2.408</ele>
        <time>1970-01-01T05:09:57Z</time>
      </trkpt>
      <trkpt lat="40.155307" lon="0.166846">
        <ele>2.474</ele>
        <time>1970-01-01T05:09:58Z</time>
      </trkpt>
      <trkpt lat="40.155257" lon="0.166803">
        <ele>2.561</ele>
        <time>1970-01-01T05:09:59Z</time>
      </trkpt>
      <trkpt lat="40.155204" lon="0.166767">
        <ele>2.632</ele>
        <time>1970-01-01T05:10:00Z</time>
      </trkpt>
      <trkpt lat="40.155152" lon="0.166729">
        <ele>2.845</ele>
        <time>1970-01-01T05:10:01Z</time>
      </trkpt>
      <trkpt lat="40.155100" lon="0.166693">
        <ele>2.945</ele>
        <time>1970-01-01T05:10:02Z</time>
      </trkpt>
      <trkpt lat="40.155048" lon="0.166656">
        <ele>3.091</ele>
        <time>1970-01-01T05:10:03Z</time>
      </trkpt>
      <trkpt lat="40.154997" lon="0.166621">
        <ele>3.275</ele>
        <time>1970-01-01T05:10:04Z</time>
      </trkpt>
      <trkpt lat="40.154947" lon="0.166587">
        <ele>3.486</ele>
        <time>1970-01-01T05:10:05Z</time>
      </trkpt>
      <trkpt lat="40.154899" lon="0.166551">
        <ele>3.689</ele>
        <time>1970-01-01T05:10:06Z</time>
      </trkpt>
      <trkpt lat="40.154853" lon="0.166511">
        <ele>3.806</ele>
        <time>1970-01-01T05:10:07Z</time>
      </trkpt>
      <trkpt lat="40.154807" lon="0.166473">
        <ele>3.926</ele>
        <time>1970-01-01T05:10:08Z</time>
      </trkpt>
      <trkpt lat="40.154759" lon="0.166437">
        <ele>4.008</ele>
        <time>1970-01-01T05:10:09Z</time>
      </trkpt>
      <trkpt lat="40.154713" lon="0.166399">
        <ele>4.035</ele>
        <time>1970-01-01T05:10:10Z</time>
      </trkpt>
      <trkpt lat="40.154666" lon="0.166359">
        <ele>4.022</ele>
        <time>1970-01-01T05:10:11Z</time>
      </trkpt>
      <trkpt lat="40.154619" lon="0.166322">
        <ele>4.063</ele>
        <time>1970-01-01T05:10:12Z</time>
      </trkpt>
      <trkpt lat="40.154572" lon="0.166283">
        <ele>4.046</ele>
        <time>1970-01-01T05:10:13Z</time>
      </trkpt>
      <trkpt lat="40.154524" lon="0.166244">
        <ele>4.046</ele>
        <time>1970-01-01T05:10:14Z</time>
      </trkpt>
      <trkpt lat="40.154475" lon="0.166208">
        <ele>4.032</ele>
        <time>1970-01-01T05:10:15Z</time>
      </trkpt>
      <trkpt lat="40.154426" lon="0.166172">
        <ele>4.036</ele>
        <time>1970-01-01T05:10:16Z</time>
      </trkpt>
      <trkpt lat="40.154376" lon="0.166139">
        <ele>4.017</ele>
        <time>1970-01-01T05:10:17Z</time>
      </trkpt>
      <trkpt lat="40.154324" lon="0.166106">
        <ele>4.031</ele>
        <time>1970-01-01T05:10:18Z</time>
      </trkpt>
      <trkpt lat="40.154273" lon="0.166072">
        <ele>4.161</ele>
        <time>1970-01-01T05:10:19Z</time>
      </trkpt>
      <trkpt lat="40.154222" lon="0.166037">
        <ele>4.107</ele>
        <time>1970-01-01T05:10:20Z</time>
      </trkpt>
      <trkpt lat="40.154170" lon="0.166000">
        <ele>4.008</ele>
        <time>1970-01-01T05:10:21Z</time>
      </trkpt>
      <trkpt lat="40.154118" lon="0.165963">
        <ele>3.780</ele>
        <time>1970-01-01T05:10:22Z</time>
      </trkpt>
      <trkpt lat="40.154067" lon="0.165924">
        <ele>3.487</ele>
        <time>1970-01-01T05:10:23Z</time>
      </trkpt>
      <trkpt lat="40.154017" lon="0.165883">
        <ele>3.038</ele>
        <time>1970-01-01T05:10:24Z</time>
      </trkpt>
      <trkpt lat="40.153968" lon="0.165840">
        <ele>2.681</ele>
        <time>1970-01-01T05:10:25Z</time>
      </trkpt>
      <trkpt lat="40.153921" lon="0.165791">
        <ele>2.291</ele>
        <time>1970-01-01T05:10:26Z</time>
      </trkpt>
      <trkpt lat="40.153877" lon="0.165739">
        <ele>2.097</ele>
        <time>1970-01-01T05:10:27Z</time>
      </trkpt>
      <trkpt lat="40.153835" lon="0.165683">
        <ele>1.911</ele>
        <time>1970-01-01T05:10:28Z</time>
      </trkpt>
      <trkpt lat="40.153793" lon="0.165628">
        <ele>1.712</ele>
        <time>1970-01-01T05:10:29Z</time>
      </trkpt>
      <trkpt lat="40.153750" lon="0.165575">
        <ele>1.558</ele>
        <time>1970-01-01T05:10:30Z</time>
      </trkpt>
      <trkpt lat="40.153704" lon="0.165526">
        <ele>1.352</ele>
        <time>1970-01-01T05:10:31Z</time>
      </trkpt>
      <trkpt lat="40.153659" lon="0.165476">
        <ele>1.217</ele>
        <time>1970-01-01T05:10:32Z</time>
      </trkpt>
      <trkpt lat="40.153614" lon="0.165426">
        <ele>1.008</ele>
        <time>1970-01-01T05:10:33Z</time>
      </trkpt>
      <trkpt lat="40.153568" lon="0.165377">
        <ele>0.992</ele>
        <time>1970-01-01T05:10:34Z</time>
      </trkpt>
      <trkpt lat="40.153523" lon="0.165329">
        <ele>0.769</ele>
        <time>1970-01-01T05:10:35Z</time>
      </trkpt>
      <trkpt lat="40.153477" lon="0.165283">
        <ele>0.580</ele>
        <time>1970-01-01T05:10:36Z</time>
      </trkpt>
      <trkpt lat="40.153431" lon="0.165239">
        <ele>0.563</ele>
        <time>1970-01-01T05:10:37Z</time>
      </trkpt>
      <trkpt lat="40.153386" lon="0.165194">
        <ele>0.553</ele>
        <time>1970-01-01T05:10:38Z</time>
      </trkpt>
      <trkpt lat="40.153341" lon="0.165148">
        <ele>0.519</ele>
        <time>1970-01-01T05:10:39Z</time>
      </trkpt>
      <trkpt lat="40.153297" lon="0.165099">
        <ele>0.613</ele>
        <time>1970-01-01T05:10:40Z</time>
      </trkpt>
      <trkpt lat="40.153255" lon="0.165049">
        <ele>0.624</ele>
        <time>1970-01-01T05:10:41Z</time>
      </trkpt>
      <trkpt lat="40.153214" lon="0.164997">
        <ele>0.638</ele>
        <time>1970-01-01T05:10:42Z</time>
      </trkpt>
      <trkpt lat="40.153177" lon="0.164944">
        <ele>0.670</ele>
        <time>1970-01-01T05:10:43Z</time>
      </trkpt>
      <trkpt lat="40.153141" lon="0.164893">
        <ele>0.617</ele>
        <time>1970-01-01T05:10:44Z</time>
      </trkpt>
      <trkpt lat="40.153107" lon="0.164844">
        <ele>0.608</ele>
        <time>1970-01-01T05:10:45Z</time>
      </trkpt>
      <trkpt lat="40.153072" lon="0.164799">
        <ele>0.770</ele>
        <time>1970-01-01T05:10:46Z</time>
      </trkpt>
      <trkpt lat="40.153038" lon="0.164754">
        <ele>0.927</ele>
        <time>1970-01-01T05:10:47Z</time>
      </trkpt>
      <trkpt lat="40.153004" lon="0.164708">
        <ele>1.098</ele>
        <time>1970-01-01T05:10:48Z</time>
      </trkpt>
      <trkpt lat="40.152969" lon="0.164660">
        <ele>0.961</ele>
        <time>1970-01-01T05:10:49Z</time>
      </trkpt>
      <trkpt lat="40.152936" lon="0.164609">
        <ele>0.831</ele>
        <time>1970-01-01T05:10:50Z</time>
      </trkpt>
      <trkpt lat="40.152900" lon="0.164557">
        <ele>0.727</ele>
        <time>1970-01-01T05:10:51Z</time>
      </trkpt>
      <trkpt lat="40.152862" lon="0.164508">
        <ele>0.521</ele>
        <time>1970-01-01T05:10:52Z</time>
      </trkpt>
      <trkpt lat="40.152822" lon="0.164459">
        <ele>0.232</ele>
        <time>1970-01-01T05:10:53Z</time>
      </trkpt>
      <trkpt lat="40.152781" lon="0.164408">
        <ele>0.018</ele>
        <time>1970-01-01T05:10:54Z</time>
      </trkpt>
      <trkpt lat="40.152738" lon="0.164356">
        <ele>0.098</ele>
        <time>1970-01-01T05:10:55Z</time>
      </trkpt>
      <trkpt lat="40.152696" lon="0.164306">
        <ele>0.017</ele>
        <time>1970-01-01T05:10:56Z</time>
      </trkpt>
      <trkpt lat="40.152651" lon="0.164259">
        <ele>0.008</ele>
        <time>1970-01-01T05:10:57Z</time>
      </trkpt>
      <trkpt lat="40.152603" lon="0.164216">
        <ele>0.098</ele>
        <time>1970-01-01T05:10:58Z</time>
      </trkpt>
      <trkpt lat="40.152553" lon="0.164175">
        <ele>0.065</ele>
        <time>1970-01-01T05:10:59Z</time>
      </trkpt>
      <trkpt lat="40.152501" lon="0.164136">
        <ele>0.126</ele>
        <time>1970-01-01T05:11:00Z</time>
      </trkpt>
      <trkpt lat="40.152450" lon="0.164101">
        <ele>0.479</ele>
        <time>1970-01-01T05:11:01Z</time>
      </trkpt>
      <trkpt lat="40.152398" lon="0.164065">
        <ele>0.789</ele>
        <time>1970-01-01T05:11:02Z</time>
      </trkpt>
      <trkpt lat="40.152346" lon="0.164025">
        <ele>1.145</ele>
        <time>1970-01-01T05:11:03Z</time>
      </trkpt>
      <trkpt lat="40.152297" lon="0.163981">
        <ele>1.449</ele>
        <time>1970-01-01T05:11:04Z</time>
      </trkpt>
      <trkpt lat="40.152249" lon="0.163934">
        <ele>1.710</ele>
        <time>1970-01-01T05:11:05Z</time>
      </trkpt>
      <trkpt lat="40.152205" lon="0.163882">
        <ele>2.152</ele>
        <time>1970-01-01T05:11:06Z</time>
      </trkpt>
      <trkpt lat="40.152163" lon="0.163827">
        <ele>2.253</ele>
        <time>1970-01-01T05:11:07Z</time>
      </trkpt>
      <trkpt lat="40.152126" lon="0.163767">
        <ele>2.308</ele>
        <time>1970-01-01T05:11:08Z</time>
      </trkpt>
      <trkpt lat="40.152092" lon="0.163704">
        <ele>2.508</ele>
        <time>1970-01-01T05:11:09Z</time>
      </trkpt>
      <trkpt lat="40.152059" lon="0.163639">
        <ele>2.612</ele>
        <time>1970-01-01T05:11:10Z</time>
      </trkpt>
      <trkpt lat="40.152026" lon="0.163575">
        <ele>2.699</ele>
        <time>1970-01-01T05:11:11Z</time>
      </trkpt>
      <trkpt lat="40.151990" lon="0.163515">
        <ele>2.590</ele>
        <time>1970-01-01T05:11:12Z</time>
      </trkpt>
      <trkpt lat="40.151949" lon="0.163460">
        <ele>2.413</ele>
        <time>1970-01-01T05:11:13Z</time>
      </trkpt>
      <trkpt lat="40.151904" lon="0.163410">
        <ele>2.213</ele>
        <time>1970-01-01T05:11:14Z</time>
      </trkpt>
      <trkpt lat="40.151859" lon="0.163362">
        <ele>2.159</ele>
        <time>1970-01-01T05:11:15Z</time>
      </trkpt>
      <trkpt lat="40.151814" lon="0.163315">
        <ele>2.053</ele>
        <time>1970-01-01T05:11:16Z</time>
      </trkpt>
      <trkpt lat="40.151771" lon="0.163267">
        <ele>2.084</ele>
        <time>1970-01-01T05:11:17Z</time>
      </trkpt>
      <trkpt lat="40.151726" lon="0.163220">
        <ele>2.063</ele>
        <time>1970-01-01T05:11:18Z</time>
      </trkpt>
      <trkpt lat="40.151681" lon="0.163172">
        <ele>2.044</ele>
        <time>1970-01-01T05:11:19Z</time>
      </trkpt>
      <trkpt lat="40.151636" lon="0.163125">
        <ele>1.918</ele>
        <time>1970-01-01T05:11:20Z</time>
      </trkpt>
      <trkpt lat="40.151591" lon="0.163075">
        <ele>1.708</ele>
        <time>1970-01-01T05:11:21Z</time>
      </trkpt>
      <trkpt lat="40.151550" lon="0.163022">
        <ele>1.643</ele>
        <time>1970-01-01T05:11:22Z</time>
      </trkpt>
      <trkpt lat="40.151513" lon="0.162968">
        <ele>1.470</ele>
        <time>1970-01-01T05:11:23Z</time>
      </trkpt>
      <trkpt lat="40.151471" lon="0.162917">
        <ele>1.351</ele>
        <time>1970-01-01T05:11:24Z</time>
      </trkpt>
      <trkpt lat="40.151430" lon="0.162871">
        <ele>1.184</ele>
        <time>1970-01-01T05:11:25Z</time>
      </trkpt>
      <trkpt lat="40.151389" lon="0.162828">
        <ele>1.074</ele>
        <time>1970-01-01T05:11:26Z</time>
      </trkpt>
      <trkpt lat="40.151352" lon="0.162782">
        <ele>0.940</ele>
        <time>1970-01-01T05:11:27Z</time>
      </trkpt>
      <trkpt lat="40.151316" lon="0.162736">
        <ele>0.684</ele>
        <time>1970-01-01T05:11:28Z</time>
      </trkpt>
      <trkpt lat="40.151281" lon="0.162690">
        <ele>0.445</ele>
        <time>1970-01-01T05:11:29Z</time>
      </trkpt>
      <trkpt lat="40.151244" lon="0.162644">
        <ele>0.271</ele>
        <time>1970-01-01T05:11:30Z</time>
      </trkpt>
      <trkpt lat="40.151207" lon="0.162599">
        <ele>0.141</ele>
        <time>1970-01-01T05:11:31Z</time>
      </trkpt>
      <trkpt lat="40.151170" lon="0.162556">
        <ele>0.015</ele>
        <time>1970-01-01T05:11:32Z</time>
      </trkpt>
      <trkpt lat="40.151133" lon="0.162512">
        <ele>0.008</ele>
        <time>1970-01-01T05:11:33Z</time>
      </trkpt>
      <trkpt lat="40.151094" lon="0.162470">
        <ele>0.144</ele>
        <time>1970-01-01T05:11:34Z</time>
      </trkpt>
      <trkpt lat="40.151055" lon="0.162428">
        <ele>0.211</ele>
        <time>1970-01-01T05:11:35Z</time>
      </trkpt>
      <trkpt lat="40.151013" lon="0.162385">
        <ele>0.472</ele>
        <time>1970-01-01T05:11:36Z</time>
      </trkpt>
      <trkpt lat="40.150971" lon="0.162341">
        <ele>0.555</ele>
        <time>1970-01-01T05:11:37Z</time>
      </trkpt>
      <trkpt lat="40.150930" lon="0.162298">
        <ele>0.775</ele>
        <time>1970-01-01T05:11:38Z</time>
      </trkpt>
      <trkpt lat="40.150889" lon="0.162255">
        <ele>0.861</ele>
        <time>1970-01-01T05:11:39Z</time>
      </trkpt>
      <trkpt lat="40.150848" lon="0.162210">
        <ele>0.985</ele>
        <time>1970-01-01T05:11:40Z</time>
      </trkpt>
      <trkpt lat="40.150808" lon="0.162162">
        <ele>0.996</ele>
        <time>1970-01-01T05:11:41Z</time>
      </trkpt>
      <trkpt lat="40.150769" lon="0.162111">
        <ele>0.993</ele>
        <time>1970-01-01T05:11:42Z</time>
      </trkpt>
      <trkpt lat="40.150730" lon="0.162062">
        <ele>1.065</ele>
        <time>1970-01-01T05:11:43Z</time>
      </trkpt>
      <trkpt lat="40.150688" lon="0.162015">
        <ele>1.221</ele>
        <time>1970-01-01T05:11:44Z</time>
      </trkpt>
      <trkpt lat="40.150647" lon="0.161966">
        <ele>1.408</ele>
        <time>1970-01-01T05:11:45Z</time>
      </trkpt>
      <trkpt lat="40.150606" lon="0.161917">
        <ele>1.626</ele>
        <time>1970-01-01T05:11:46Z</time>
      </trkpt>
      <trkpt lat="40.150565" lon="0.161866">
        <ele>1.783</ele>
        <time>1970-01-01T05:11:47Z</time>
      </trkpt>
      <trkpt lat="40.150522" lon="0.161815">
        <ele>1.684</ele>
        <time>1970-01-01T05:11:48Z</time>
      </trkpt>
      <trkpt lat="40.150479" lon="0.161764">
        <ele>1.527</ele>
        <time>1970-01-01T05:11:49Z</time>
      </trkpt>
      <trkpt lat="40.150436" lon="0.161715">
        <ele>1.547</ele>
        <time>1970-01-01T05:11:50Z</time>
      </trkpt>
      <trkpt lat="40.150392" lon="0.161667">
        <ele>1.663</ele>
        <time>1970-01-01T05:11:51Z</time>
      </trkpt>
      <trkpt lat="40.150347" lon="0.161623">
        <ele>1.617</ele>
        <time>1970-01-01T05:11:52Z</time>
      </trkpt>
      <trkpt lat="40.150301" lon="0.161580">
        <ele>1.688</ele>
        <time>1970-01-01T05:11:53Z</time>
      </trkpt>
      <trkpt lat="40.150253" lon="0.161534">
        <ele>1.545</ele>
        <time>1970-01-01T05:11:54Z</time>
      </trkpt>
      <trkpt lat="40.150206" lon="0.161487">
        <ele>1.447</ele>
        <time>1970-01-01T05:11:55Z</time>
      </trkpt>
      <trkpt lat="40.150160" lon="0.161443">
        <ele>1.211</ele>
        <time>1970-01-01T05:11:56Z</time>
      </trkpt>
      <trkpt lat="40.150113" lon="0.161402">
        <ele>1.008</ele>
        <time>1970-01-01T05:11:57Z</time>
      </trkpt>
      <trkpt lat="40.150064" lon="0.161363">
        <ele>1.051</ele>
        <time>1970-01-01T05:11:58Z</time>
      </trkpt>
      <trkpt lat="40.150012" lon="0.161331">
        <ele>1.018</ele>
        <time>1970-01-01T05:11:59Z</time>
      </trkpt>
      <trkpt lat="40.149957" lon="0.161304">
        <ele>1.199</ele>
        <time>1970-01-01T05:12:00Z</time>
      </trkpt>
      <trkpt lat="40.149902" lon="0.161280">
        <ele>1.262</ele>
        <time>1970-01-01T05:12:01Z</time>
      </trkpt>
      <trkpt lat="40.149846" lon="0.161257">
        <ele>1.392</ele>
        <time>1970-01-01T05:12:02Z</time>
      </trkpt>
      <trkpt lat="40.149792" lon="0.161236">
        <ele>1.338</ele>
        <time>1970-01-01T05:12:03Z</time>
      </trkpt>
      <trkpt lat="40.149737" lon="0.161212">
        <ele>1.322</ele>
        <time>1970-01-01T05:12:04Z</time>
      </trkpt>
      <trkpt lat="40.149683" lon="0.161186">
        <ele>1.253</ele>
        <time>1970-01-01T05:12:05Z</time>
      </trkpt>
      <trkpt lat="40.149629" lon="0.161157">
        <ele>1.145</ele>
        <time>1970-01-01T05:12:06Z</time>
      </trkpt>
      <trkpt lat="40.149578" lon="0.161127">
        <ele>1.047</ele>
        <time>1970-01-01T05:12:07Z</time>
      </trkpt>
      <trkpt lat="40.149528" lon="0.161096">
        <ele>1.011</ele>
        <time>1970-01-01T05:12:08Z</time>
      </trkpt>
      <trkpt lat="40.149477" lon="0.161066">
        <ele>1.008</ele>
        <time>1970-01-01T05:12:09Z</time>
      </trkpt>
      <trkpt lat="40.149426" lon="0.161037">
        <ele>0.921</ele>
        <time>1970-01-01T05:12:10Z</time>
      </trkpt>
      <trkpt lat="40.149376" lon="0.161011">
        <ele>0.678</ele>
        <time>1970-01-01T05:12:11Z</time>
      </trkpt>
      <trkpt lat="40.149325" lon="0.160986">
        <ele>0.369</ele>
        <time>1970-01-01T05:12:12Z</time>
      </trkpt>
      <trkpt lat="40.149274" lon="0.160958">
        <ele>0.142</ele>
        <time>1970-01-01T05:12:13Z</time>
      </trkpt>
      <trkpt lat="40.149223" lon="0.160932">
        <ele>-0.112</ele>
        <time>1970-01-01T05:12:14Z</time>
      </trkpt>
      <trkpt lat="40.149171" lon="0.160907">
        <ele>-0.218</ele>
        <time>1970-01-01T05:12:15Z</time>
      </trkpt>
      <trkpt lat="40.149117" lon="0.160882">
        <ele>-0.262</ele>
        <time>1970-01-01T05:12:16Z</time>
      </trkpt>
      <trkpt lat="40.149064" lon="0.160856">
        <ele>-0.153</ele>
        <time>1970-01-01T05:12:17Z</time>
      </trkpt>
      <trkpt lat="40.149010" lon="0.160829">
        <ele>0.062</ele>
        <time>1970-01-01T05:12:18Z</time>
      </trkpt>
      <trkpt lat="40.148955" lon="0.160805">
        <ele>0.383</ele>
        <time>1970-01-01T05:12:19Z</time>
      </trkpt>
      <trkpt lat="40.148902" lon="0.160782">
        <ele>0.511</ele>
        <time>1970-01-01T05:12:20Z</time>
      </trkpt>
      <trkpt lat="40.148850" lon="0.160756">
        <ele>0.908</ele>
        <time>1970-01-01T05:12:21Z</time>
      </trkpt>
      <trkpt lat="40.148799" lon="0.160730">
        <ele>1.393</ele>
        <time>1970-01-01T05:12:22Z</time>
      </trkpt>
      <trkpt lat="40.148747" lon="0.160705">
        <ele>1.730</ele>
        <time>1970-01-01T05:12:23Z</time>
      </trkpt>
      <trkpt lat="40.148694" lon="0.160681">
        <ele>2.011</ele>
        <time>1970-01-01T05:12:24Z</time>
      </trkpt>
      <trkpt lat="40.148640" lon="0.160658">
        <ele>2.214</ele>
        <time>1970-01-01T05:12:25Z</time>
      </trkpt>
      <trkpt lat="40.148586" lon="0.160635">
        <ele>2.364</ele>
        <time>1970-01-01T05:12:26Z</time>
      </trkpt>
      <trkpt lat="40.148531" lon="0.160611">
        <ele>2.110</ele>
        <time>1970-01-01T05:12:27Z</time>
      </trkpt>
      <trkpt lat="40.148477" lon="0.160585">
        <ele>1.924</ele>
        <time>1970-01-01T05:12:28Z</time>
      </trkpt>
      <trkpt lat="40.148424" lon="0.160560">
        <ele>1.635</ele>
        <time>1970-01-01T05:12:29Z</time>
      </trkpt>
      <trkpt lat="40.148369" lon="0.160535">
        <ele>1.395</ele>
        <time>1970-01-01T05:12:30Z</time>
      </trkpt>
      <trkpt lat="40.148313" lon="0.160511">
        <ele>1.149</ele>
        <time>1970-01-01T05:12:31Z</time>
      </trkpt>
      <trkpt lat="40.148257" lon="0.160493">
        <ele>0.923</ele>
        <time>1970-01-01T05:12:32Z</time>
      </trkpt>
      <trkpt lat="40.148199" lon="0.160485">
        <ele>0.808</ele>
        <time>1970-01-01T05:12:33Z</time>
      </trkpt>
      <trkpt lat="40.148138" lon="0.160485">
        <ele>0.686</ele>
        <time>1970-01-01T05:12:34Z</time>
      </trkpt>
      <trkpt lat="40.148077" lon="0.160491">
        <ele>0.383</ele>
        <time>1970-01-01T05:12:35Z</time>
      </trkpt>
      <trkpt lat="40.148017" lon="0.160499">
        <ele>0.134</ele>
        <time>1970-01-01T05:12:36Z</time>
      </trkpt>
      <trkpt lat="40.147955" lon="0.160507">
        <ele>-0.297</ele>
        <time>1970-01-01T05:12:37Z</time>
      </trkpt>
      <trkpt lat="40.147897" lon="0.160519">
        <ele>-0.447</ele>
        <time>1970-01-01T05:12:38Z</time>
      </trkpt>
      <trkpt lat="40.147840" lon="0.160526">
        <ele>-0.783</ele>
        <time>1970-01-01T05:12:39Z</time>
      </trkpt>
      <trkpt lat="40.147783" lon="0.160534">
        <ele>-0.957</ele>
        <time>1970-01-01T05:12:40Z</time>
      </trkpt>
      <trkpt lat="40.147726" lon="0.160543">
        <ele>-1.088</ele>
        <time>1970-01-01T05:12:41Z</time>
      </trkpt>
      <trkpt lat="40.147668" lon="0.160550">
        <ele>-1.093</ele>
        <time>1970-01-01T05:12:42Z</time>
      </trkpt>
      <trkpt lat="40.147612" lon="0.160559">
        <ele>-1.065</ele>
        <time>1970-01-01T05:12:43Z</time>
      </trkpt>
      <trkpt lat="40.147558" lon="0.160572">
        <ele>-1.021</ele>
        <time>1970-01-01T05:12:44Z</time>
      </trkpt>
      <trkpt lat="40.147502" lon="0.160586">
        <ele>-1.108</ele>
        <time>1970-01-01T05:12:45Z</time>
      </trkpt>
      <trkpt lat="40.147442" lon="0.160599">
        <ele>-1.176</ele>
        <time>1970-01-01T05:12:46Z</time>
      </trkpt>
      <trkpt lat="40.147384" lon="0.160609">
        <ele>-1.183</ele>
        <time>1970-01-01T05:12:47Z</time>
      </trkpt>
      <trkpt lat="40.147330" lon="0.160616">
        <ele>-1.124</ele>
        <time>1970-01-01T05:12:48Z</time>
      </trkpt>
      <trkpt lat="40.147277" lon="0.160623">
        <ele>-1.077</ele>
        <time>1970-01-01T05:12:49Z</time>
      </trkpt>
      <trkpt lat="40.147225" lon="0.160631">
        <ele>-1.097</ele>
        <time>1970-01-01T05:12:50Z</time>
      </trkpt>
      <trkpt lat="40.147174" lon="0.160641">
        <ele>-0.843</ele>
        <time>1970-01-01T05:12:51Z</time>
      </trkpt>
      <trkpt lat="40.147121" lon="0.160654">
        <ele>-0.647</ele>
        <time>1970-01-01T05:12:52Z</time>
      </trkpt>
      <trkpt lat="40.147067" lon="0.160665">
        <ele>-0.448</ele>
        <time>1970-01-01T05:12:53Z</time>
      </trkpt>
      <trkpt lat="40.147014" lon="0.160674">
        <ele>-0.269</ele>
        <time>1970-01-01T05:12:54Z</time>
      </trkpt>
      <trkpt lat="40.146960" lon="0.160685">
        <ele>-0.104</ele>
        <time>1970-01-01T05:12:55Z</time>
      </trkpt>
      <trkpt lat="40.146906" lon="0.160696">
        <ele>0.124</ele>
        <time>1970-01-01T05:12:56Z</time>
      </trkpt>
      <trkpt lat="40.146850" lon="0.160705">
        <ele>0.208</ele>
        <time>1970-01-01T05:12:57Z</time>
      </trkpt>
      <trkpt lat="40.146795" lon="0.160717">
        <ele>0.293</ele>
        <time>1970-01-01T05:12:58Z</time>
      </trkpt>
      <trkpt lat="40.146741" lon="0.160728">
        <ele>0.320</ele>
        <time>1970-01-01T05:12:59Z</time>
      </trkpt>
      <trkpt lat="40.146685" lon="0.160739">
        <ele>0.361</ele>
        <time>1970-01-01T05:13:00Z</time>
      </trkpt>
      <trkpt lat="40.146629" lon="0.160747">
        <ele>0.484</ele>
        <time>1970-01-01T05:13:01Z</time>
      </trkpt>
      <trkpt lat="40.146571" lon="0.160752">
        <ele>0.434</ele>
        <time>1970-01-01T05:13:02Z</time>
      </trkpt>
      <trkpt lat="40.146514" lon="0.160761">
        <ele>0.530</ele>
        <time>1970-01-01T05:13:03Z</time>
      </trkpt>
      <trkpt lat="40.146457" lon="0.160770">
        <ele>0.684</ele>
        <time>1970-01-01T05:13:04Z</time>
      </trkpt>
      <trkpt lat="40.146400" lon="0.160781">
        <ele>0.835</ele>
        <time>1970-01-01T05:13:05Z</time>
      </trkpt>
      <trkpt lat="40.146344" lon="0.160794">
        <ele>1.017</ele>
        <time>1970-01-01T05:13:06Z</time>
      </trkpt>
      <trkpt lat="40.146287" lon="0.160806">
        <ele>1.387</ele>
        <time>1970-01-01T05:13:07Z</time>
      </trkpt>
      <trkpt lat="40.146231" lon="0.160818">
        <ele>1.515</ele>
        <time>1970-01-01T05:13:08Z</time>
      </trkpt>
      <trkpt lat="40.146175" lon="0.160828">
        <ele>1.808</ele>
        <time>1970-01-01T05:13:09Z</time>
      </trkpt>
      <trkpt lat="40.146118" lon="0.160835">
        <ele>2.098</ele>
        <time>1970-01-01T05:13:10Z</time>
      </trkpt>
      <trkpt lat="40.146061" lon="0.160843">
        <ele>2.255</ele>
        <time>1970-01-01T05:13:11Z</time>
      </trkpt>
      <trkpt lat="40.146002" lon="0.160850">
        <ele>2.436</ele>
        <time>1970-01-01T05:13:12Z</time>
      </trkpt>
      <trkpt lat="40.145942" lon="0.160856">
        <ele>2.689</ele>
        <time>1970-01-01T05:13:13Z</time>
      </trkpt>
      <trkpt lat="40.145883" lon="0.160859">
        <ele>2.879</ele>
        <time>1970-01-01T05:13:14Z</time>
      </trkpt>
      <trkpt lat="40.145826" lon="0.160862">
        <ele>3.075</ele>
        <time>1970-01-01T05:13:15Z</time>
      </trkpt>
      <trkpt lat="40.145769" lon="0.160869">
        <ele>3.019</ele>
        <time>1970-01-01T05:13:16Z</time>
      </trkpt>
      <trkpt lat="40.145711" lon="0.160876">
        <ele>3.090</ele>
        <time>1970-01-01T05:13:17Z</time>
      </trkpt>
      <trkpt lat="40.145652" lon="0.160882">
        <ele>3.029</ele>
        <time>1970-01-01T05:13:18Z</time>
      </trkpt>
      <trkpt lat="40.145593" lon="0.160885">
        <ele>3.000</ele>
        <time>1970-01-01T05:13:19Z</time>
      </trkpt>
      <trkpt lat="40.145535" lon="0.160885">
        <ele>2.920</ele>
        <time>1970-01-01T05:13:20Z</time>
      </trkpt>
      <trkpt lat="40.145480" lon="0.160887">
        <ele>2.708</ele>
        <time>1970-01-01T05:13:21Z</time>
      </trkpt>
      <trkpt lat="40.145426" lon="0.160894">
        <ele>2.519</ele>
        <time>1970-01-01T05:13:22Z</time>
      </trkpt>
      <trkpt lat="40.145370" lon="0.160900">
        <ele>2.386</ele>
        <time>1970-01-01T05:13:23Z</time>
      </trkpt>
      <trkpt lat="40.145316" lon="0.160906">
        <ele>2.167</ele>
        <time>1970-01-01T05:13:24Z</time>
      </trkpt>
      <trkpt lat="40.145260" lon="0.160908">
        <ele>1.970</ele>
        <time>1970-01-01T05:13:25Z</time>
      </trkpt>
      <trkpt lat="40.145204" lon="0.160911">
        <ele>1.540</ele>
        <time>1970-01-01T05:13:26Z</time>
      </trkpt>
      <trkpt lat="40.145148" lon="0.160915">
        <ele>1.186</ele>
        <time>1970-01-01T05:13:27Z</time>
      </trkpt>
      <trkpt lat="40.145094" lon="0.160919">
        <ele>0.760</ele>
        <time>1970-01-01T05:13:28Z</time>
      </trkpt>
      <trkpt lat="40.145038" lon="0.160922">
        <ele>0.331</ele>
        <time>1970-01-01T05:13:29Z</time>
      </trkpt>
      <trkpt lat="40.144984" lon="0.160922">
        <ele>0.099</ele>
        <time>1970-01-01T05:13:30Z</time>
      </trkpt>
      <trkpt lat="40.144927" lon="0.160922">
        <ele>0.007</ele>
        <time>1970-01-01T05:13:31Z</time>
      </trkpt>
      <trkpt lat="40.144870" lon="0.160922">
        <ele>0.027</ele>
        <time>1970-01-01T05:13:32Z</time>
      </trkpt>
      <trkpt lat="40.144814" lon="0.160922">
        <ele>0.008</ele>
        <time>1970-01-01T05:13:33Z</time>
      </trkpt>
      <trkpt lat="40.144758" lon="0.160919">
        <ele>0.096</ele>
        <time>1970-01-01T05:13:34Z</time>
      </trkpt>
      <trkpt lat="40.144703" lon="0.160916">
        <ele>0.163</ele>
        <time>1970-01-01T05:13:35Z</time>
      </trkpt>
      <trkpt lat="40.144650" lon="0.160917">
        <ele>0.384</ele>
        <time>1970-01-01T05:13:36Z</time>
      </trkpt>
      <trkpt lat="40.144596" lon="0.160918">
        <ele>0.537</ele>
        <time>1970-01-01T05:13:37Z</time>
      </trkpt>
      <trkpt lat="40.144540" lon="0.160916">
        <ele>0.797</ele>
        <time>1970-01-01T05:13:38Z</time>
      </trkpt>
      <trkpt lat="40.144477" lon="0.160913">
        <ele>0.943</ele>
        <time>1970-01-01T05:13:39Z</time>
      </trkpt>
      <trkpt lat="40.144415" lon="0.160908">
        <ele>1.117</ele>
        <time>1970-01-01T05:13:40Z</time>
      </trkpt>
      <trkpt lat="40.144353" lon="0.160902">
        <ele>1.228</ele>
        <time>1970-01-01T05:13:41Z</time>
      </trkpt>
      <trkpt lat="40.144291" lon="0.160899">
        <ele>1.431</ele>
        <time>1970-01-01T05:13:42Z</time>
      </trkpt>
      <trkpt lat="40.144230" lon="0.160896">
        <ele>1.661</ele>
        <time>1970-01-01T05:13:43Z</time>
      </trkpt>
      <trkpt lat="40.144170" lon="0.160889">
        <ele>1.807</ele>
        <time>1970-01-01T05:13:44Z</time>
      </trkpt>
      <trkpt lat="40.144113" lon="0.160882">
        <ele>1.808</ele>
        <time>1970-01-01T05:13:45Z</time>
      </trkpt>
      <trkpt lat="40.144055" lon="0.160877">
        <ele>1.820</ele>
        <time>1970-01-01T05:13:46Z</time>
      </trkpt>
      <trkpt lat="40.143999" lon="0.160871">
        <ele>1.987</ele>
        <time>1970-01-01T05:13:47Z</time>
      </trkpt>
      <trkpt lat="40.143939" lon="0.160866">
        <ele>1.958</ele>
        <time>1970-01-01T05:13:48Z</time>
      </trkpt>
      <trkpt lat="40.143878" lon="0.160864">
        <ele>1.931</ele>
        <time>1970-01-01T05:13:49Z</time>
      </trkpt>
      <trkpt lat="40.143819" lon="0.160862">
        <ele>1.921</ele>
        <time>1970-01-01T05:13:50Z</time>
      </trkpt>
      <trkpt lat="40.143759" lon="0.160857">
        <ele>2.047</ele>
        <time>1970-01-01T05:13:51Z</time>
      </trkpt>
      <trkpt lat="40.143700" lon="0.160854">
        <ele>2.051</ele>
        <time>1970-01-01T05:13:52Z</time>
      </trkpt>
      <trkpt lat="40.143638" lon="0.160852">
        <ele>2.052</ele>
        <time>1970-01-01T05:13:53Z</time>
      </trkpt>
      <trkpt lat="40.143576" lon="0.160846">
        <ele>2.197</ele>
        <time>1970-01-01T05:13:54Z</time>
      </trkpt>
      <trkpt lat="40.143516" lon="0.160842">
        <ele>2.323</ele>
        <time>1970-01-01T05:13:55Z</time>
      </trkpt>
      <trkpt lat="40.143454" lon="0.160841">
        <ele>2.625</ele>
        <time>1970-01-01T05:13:56Z</time>
      </trkpt>
      <trkpt lat="40.143393" lon="0.160841">
        <ele>2.808</ele>
        <time>1970-01-01T05:13:57Z</time>
      </trkpt>
      <trkpt lat="40.143334" lon="0.160842">
        <ele>3.076</ele>
        <time>1970-01-01T05:13:58Z</time>
      </trkpt>
      <trkpt lat="40.143275" lon="0.160843">
        <ele>2.863</ele>
        <time>1970-01-01T05:13:59Z</time>
      </trkpt>
      <trkpt lat="40.143213" lon="0.160845">
        <ele>2.654</ele>
        <time>1970-01-01T05:14:00Z</time>
      </trkpt>
      <trkpt lat="40.143153" lon="0.160847">
        <ele>2.497</ele>
        <time>1970-01-01T05:14:01Z</time>
      </trkpt>
      <trkpt lat="40.143094" lon="0.160849">
        <ele>2.187</ele>
        <time>1970-01-01T05:14:02Z</time>
      </trkpt>
      <trkpt lat="40.143036" lon="0.160852">
        <ele>1.923</ele>
        <time>1970-01-01T05:14:03Z</time>
      </trkpt>
      <trkpt lat="40.142978" lon="0.160858">
        <ele>1.717</ele>
        <time>1970-01-01T05:14:04Z</time>
      </trkpt>
      <trkpt lat="40.142919" lon="0.160865">
        <ele>1.528</ele>
        <time>1970-01-01T05:14:05Z</time>
      </trkpt>
      <trkpt lat="40.142862" lon="0.160876">
        <ele>1.246</ele>
        <time>1970-01-01T05:14:06Z</time>
      </trkpt>
      <trkpt lat="40.142804" lon="0.160886">
        <ele>0.988</ele>
        <time>1970-01-01T05:14:07Z</time>
      </trkpt>
      <trkpt lat="40.142746" lon="0.160897">
        <ele>0.716</ele>
        <time>1970-01-01T05:14:08Z</time>
      </trkpt>
      <trkpt lat="40.142686" lon="0.160905">
        <ele>0.408</ele>
        <time>1970-01-01T05:14:09Z</time>
      </trkpt>
      <trkpt lat="40.142630" lon="0.160917">
        <ele>0.291</ele>
        <time>1970-01-01T05:14:10Z</time>
      </trkpt>
      <trkpt lat="40.142574" lon="0.160933">
        <ele>-0.188</ele>
        <time>1970-01-01T05:14:11Z</time>
      </trkpt>
      <trkpt lat="40.142516" lon="0.160949">
        <ele>-0.479</ele>
        <time>1970-01-01T05:14:12Z</time>
      </trkpt>
      <trkpt lat="40.142460" lon="0.160966">
        <ele>-0.342</ele>
        <time>1970-01-01T05:14:13Z</time>
      </trkpt>
      <trkpt lat="40.142406" lon="0.160983">
        <ele>-0.052</ele>
        <time>1970-01-01T05:14:14Z</time>
      </trkpt>
      <trkpt lat="40.142352" lon="0.160998">
        <ele>0.398</ele>
        <time>1970-01-01T05:14:15Z</time>
      </trkpt>
      <trkpt lat="40.142296" lon="0.161010">
        <ele>0.612</ele>
        <time>1970-01-01T05:14:16Z</time>
      </trkpt>
      <trkpt lat="40.142240" lon="0.161019">
        <ele>0.933</ele>
        <time>1970-01-01T05:14:17Z</time>
      </trkpt>
      <trkpt lat="40.142184" lon="0.161024">
        <ele>1.141</ele>
        <time>1970-01-01T05:14:18Z</time>
      </trkpt>
      <trkpt lat="40.142129" lon="0.161027">
        <ele>1.381</ele>
        <time>1970-01-01T05:14:19Z</time>
      </trkpt>
      <trkpt lat="40.142074" lon="0.161030">
        <ele>1.509</ele>
        <time>1970-01-01T05:14:20Z</time>
      </trkpt>
      <trkpt lat="40.142019" lon="0.161035">
        <ele>1.708</ele>
        <time>1970-01-01T05:14:21Z</time>
      </trkpt>
      <trkpt lat="40.141964" lon="0.161042">
        <ele>1.951</ele>
        <time>1970-01-01T05:14:22Z</time>
      </trkpt>
      <trkpt lat="40.141910" lon="0.161050">
        <ele>1.918</ele>
        <time>1970-01-01T05:14:23Z</time>
      </trkpt>
      <trkpt lat="40.141856" lon="0.161058">
        <ele>1.719</ele>
        <time>1970-01-01T05:14:24Z</time>
      </trkpt>
      <trkpt lat="40.141803" lon="0.161070">
        <ele>1.532</ele>
        <time>1970-01-01T05:14:25Z</time>
      </trkpt>
      <trkpt lat="40.141749" lon="0.161083">
        <ele>1.372</ele>
        <time>1970-01-01T05:14:26Z</time>
      </trkpt>
      <trkpt lat="40.141695" lon="0.161097">
        <ele>1.198</ele>
        <time>1970-01-01T05:14:27Z</time>
      </trkpt>
      <trkpt lat="40.141641" lon="0.161111">
        <ele>1.062</ele>
        <time>1970-01-01T05:14:28Z</time>
      </trkpt>
      <trkpt lat="40.141587" lon="0.161125">
        <ele>1.023</ele>
        <time>1970-01-01T05:14:29Z</time>
      </trkpt>
      <trkpt lat="40.141532" lon="0.161138">
        <ele>1.091</ele>
        <time>1970-01-01T05:14:30Z</time>
      </trkpt>
      <trkpt lat="40.141477" lon="0.161150">
        <ele>1.081</ele>
        <time>1970-01-01T05:14:31Z</time>
      </trkpt>
      <trkpt lat="40.141423" lon="0.161163">
        <ele>1.019</ele>
        <time>1970-01-01T05:14:32Z</time>
      </trkpt>
      <trkpt lat="40.141369" lon="0.161179">
        <ele>0.908</ele>
        <time>1970-01-01T05:14:33Z</time>
      </trkpt>
      <trkpt lat="40.141314" lon="0.161197">
        <ele>0.786</ele>
        <time>1970-01-01T05:14:34Z</time>
      </trkpt>
      <trkpt lat="40.141258" lon="0.161213">
        <ele>0.543</ele>
        <time>1970-01-01T05:14:35Z</time>
      </trkpt>
      <trkpt lat="40.141202" lon="0.161229">
        <ele>0.354</ele>
        <time>1970-01-01T05:14:36Z</time>
      </trkpt>
      <trkpt lat="40.141147" lon="0.161246">
        <ele>0.177</ele>
        <time>1970-01-01T05:14:37Z</time>
      </trkpt>
      <trkpt lat="40.141092" lon="0.161267">
        <ele>0.047</ele>
        <time>1970-01-01T05:14:38Z</time>
      </trkpt>
      <trkpt lat="40.141040" lon="0.161288">
        <ele>0.063</ele>
        <time>1970-01-01T05:14:39Z</time>
      </trkpt>
      <trkpt lat="40.140987" lon="0.161309">
        <ele>0.027</ele>
        <time>1970-01-01T05:14:40Z</time>
      </trkpt>
      <trkpt lat="40.140932" lon="0.161328">
        <ele>0.028</ele>
        <time>1970-01-01T05:14:41Z</time>
      </trkpt>
      <trkpt lat="40.140877" lon="0.161347">
        <ele>0.097</ele>
        <time>1970-01-01T05:14:42Z</time>
      </trkpt>
      <trkpt lat="40.140823" lon="0.161366">
        <ele>0.023</ele>
        <time>1970-01-01T05:14:43Z</time>
      </trkpt>
      <trkpt lat="40.140771" lon="0.161388">
        <ele>0.025</ele>
        <time>1970-01-01T05:14:44Z</time>
      </trkpt>
      <trkpt lat="40.140719" lon="0.161414">
        <ele>0.008</ele>
        <time>1970-01-01T05:14:45Z</time>
      </trkpt>
      <trkpt lat="40.140667" lon="0.161442">
        <ele>0.016</ele>
        <time>1970-01-01T05:14:46Z</time>
      </trkpt>
      <trkpt lat="40.140614" lon="0.161471">
        <ele>0.053</ele>
        <time>1970-01-01T05:14:47Z</time>
      </trkpt>
      <trkpt lat="40.140561" lon="0.161500">
        <ele>0.094</ele>
        <time>1970-01-01T05:14:48Z</time>
      </trkpt>
      <trkpt lat="40.140510" lon="0.161529">
        <ele>0.027</ele>
        <time>1970-01-01T05:14:49Z</time>
      </trkpt>
      <trkpt lat="40.140458" lon="0.161560">
        <ele>0.047</ele>
        <time>1970-01-01T05:14:50Z</time>
      </trkpt>
      <trkpt lat="40.140403" lon="0.161590">
        <ele>0.083</ele>
        <time>1970-01-01T05:14:51Z</time>
      </trkpt>
      <trkpt lat="40.140348" lon="0.161615">
        <ele>0.017</ele>
        <time>1970-01-01T05:14:52Z</time>
      </trkpt>
      <trkpt lat="40.140291" lon="0.161636">
        <ele>0.068</ele>
        <time>1970-01-01T05:14:53Z</time>
      </trkpt>
      <trkpt lat="40.140234" lon="0.161651">
        <ele>0.265</ele>
        <time>1970-01-01T05:14:54Z</time>
      </trkpt>
      <trkpt lat="40.140176" lon="0.161662">
        <ele>0.468</ele>
        <time>1970-01-01T05:14:55Z</time>
      </trkpt>
      <trkpt lat="40.140120" lon="0.161663">
        <ele>0.614</ele>
        <time>1970-01-01T05:14:56Z</time>
      </trkpt>
      <trkpt lat="40.140064" lon="0.161663">
        <ele>0.808</ele>
        <time>1970-01-01T05:14:57Z</time>
      </trkpt>
      <trkpt lat="40.140008" lon="0.161662">
        <ele>1.073</ele>
        <time>1970-01-01T05:14:58Z</time>
      </trkpt>
      <trkpt lat="40.139953" lon="0.161661">
        <ele>1.260</ele>
        <time>1970-01-01T05:14:59Z</time>
      </trkpt>
      <trkpt lat="40.139898" lon="0.161658">
        <ele>1.481</ele>
        <time>1970-01-01T05:15:00Z</time>
      </trkpt>
      <trkpt lat="40.139842" lon="0.161653">
        <ele>1.644</ele>
        <time>1970-01-01T05:15:01Z</time>
      </trkpt>
      <trkpt lat="40.139787" lon="0.161646">
        <ele>1.844</ele>
        <time>1970-01-01T05:15:02Z</time>
      </trkpt>
      <trkpt lat="40.139730" lon="0.161642">
        <ele>2.080</ele>
        <time>1970-01-01T05:15:03Z</time>
      </trkpt>
      <trkpt lat="40.139672" lon="0.161640">
        <ele>2.054</ele>
        <time>1970-01-01T05:15:04Z</time>
      </trkpt>
      <trkpt lat="40.139614" lon="0.161637">
        <ele>2.085</ele>
        <time>1970-01-01T05:15:05Z</time>
      </trkpt>
      <trkpt lat="40.139557" lon="0.161635">
        <ele>1.974</ele>
        <time>1970-01-01T05:15:06Z</time>
      </trkpt>
      <trkpt lat="40.139500" lon="0.161635">
        <ele>1.956</ele>
        <time>1970-01-01T05:15:07Z</time>
      </trkpt>
      <trkpt lat="40.139445" lon="0.161636">
        <ele>1.921</ele>
        <time>1970-01-01T05:15:08Z</time>
      </trkpt>
      <trkpt lat="40.139392" lon="0.161641">
        <ele>1.908</ele>
        <time>1970-01-01T05:15:09Z</time>
      </trkpt>
      <trkpt lat="40.139339" lon="0.161651">
        <ele>1.964</ele>
        <time>1970-01-01T05:15:10Z</time>
      </trkpt>
      <trkpt lat="40.139285" lon="0.161666">
        <ele>2.061</ele>
        <time>1970-01-01T05:15:11Z</time>
      </trkpt>
      <trkpt lat="40.139232" lon="0.161689">
        <ele>2.052</ele>
        <time>1970-01-01T05:15:12Z</time>
      </trkpt>
      <trkpt lat="40.139181" lon="0.161714">
        <ele>2.015</ele>
        <time>1970-01-01T05:15:13Z</time>
      </trkpt>
      <trkpt lat="40.139128" lon="0.161739">
        <ele>2.095</ele>
        <time>1970-01-01T05:15:14Z</time>
      </trkpt>
      <trkpt lat="40.139077" lon="0.161766">
        <ele>1.931</ele>
        <time>1970-01-01T05:15:15Z</time>
      </trkpt>
      <trkpt lat="40.139028" lon="0.161798">
        <ele>1.875</ele>
        <time>1970-01-01T05:15:16Z</time>
      </trkpt>
      <trkpt lat="40.138978" lon="0.161829">
        <ele>1.666</ele>
        <time>1970-01-01T05:15:17Z</time>
      </trkpt>
      <trkpt lat="40.138928" lon="0.161857">
        <ele>1.435</ele>
        <time>1970-01-01T05:15:18Z</time>
      </trkpt>
      <trkpt lat="40.138877" lon="0.161882">
        <ele>1.286</ele>
        <time>1970-01-01T05:15:19Z</time>
      </trkpt>
      <trkpt lat="40.138826" lon="0.161909">
        <ele>1.114</ele>
        <time>1970-01-01T05:15:20Z</time>
      </trkpt>
      <trkpt lat="40.138776" lon="0.161937">
        <ele>1.008</ele>
        <time>1970-01-01T05:15:21Z</time>
      </trkpt>
      <trkpt lat="40.138726" lon="0.161964">
        <ele>1.060</ele>
        <time>1970-01-01T05:15:22Z</time>
      </trkpt>
      <trkpt lat="40.138678" lon="0.161995">
        <ele>1.047</ele>
        <time>1970-01-01T05:15:23Z</time>
      </trkpt>
      <trkpt lat="40.138631" lon="0.162025">
        <ele>1.018</ele>
        <time>1970-01-01T05:15:24Z</time>
      </trkpt>
      <trkpt lat="40.138586" lon="0.162052">
        <ele>1.021</ele>
        <time>1970-01-01T05:15:25Z</time>
      </trkpt>
      <trkpt lat="40.138539" lon="0.162073">
        <ele>1.141</ele>
        <time>1970-01-01T05:15:26Z</time>
      </trkpt>
      <trkpt lat="40.138494" lon="0.162091">
        <ele>1.227</ele>
        <time>1970-01-01T05:15:27Z</time>
      </trkpt>
      <trkpt lat="40.138453" lon="0.162105">
        <ele>1.331</ele>
        <time>1970-01-01T05:15:28Z</time>
      </trkpt>
      <trkpt lat="40.138417" lon="0.162106">
        <ele>1.422</ele>
        <time>1970-01-01T05:15:29Z</time>
      </trkpt>
      <trkpt lat="40.138393" lon="0.162088">
        <ele>1.432</ele>
        <time>1970-01-01T05:15:30Z</time>
      </trkpt>
      <trkpt lat="40.138382" lon="0.162058">
        <ele>1.392</ele>
        <time>1970-01-01T05:15:31Z</time>
      </trkpt>
      <trkpt lat="40.138381" lon="0.162027">
        <ele>1.211</ele>
        <time>1970-01-01T05:15:32Z</time>
      </trkpt>
      <trkpt lat="40.138383" lon="0.161993">
        <ele>1.108</ele>
        <time>1970-01-01T05:15:33Z</time>
      </trkpt>
      <trkpt lat="40.138386" lon="0.161952">
        <ele>1.070</ele>
        <time>1970-01-01T05:15:34Z</time>
      </trkpt>
      <trkpt lat="40.138389" lon="0.161909">
        <ele>0.917</ele>
        <time>1970-01-01T05:15:35Z</time>
      </trkpt>
      <trkpt lat="40.138392" lon="0.161861">
        <ele>0.878</ele>
        <time>1970-01-01T05:15:36Z</time>
      </trkpt>
      <trkpt lat="40.138393" lon="0.161808">
        <ele>0.741</ele>
        <time>1970-01-01T05:15:37Z</time>
      </trkpt>
      <trkpt lat="40.138397" lon="0.161748">
        <ele>0.681</ele>
        <time>1970-01-01T05:15:38Z</time>
      </trkpt>
      <trkpt lat="40.138399" lon="0.161685">
        <ele>0.587</ele>
        <time>1970-01-01T05:15:39Z</time>
      </trkpt>
      <trkpt lat="40.138403" lon="0.161623">
        <ele>0.571</ele>
        <time>1970-01-01T05:15:40Z</time>
      </trkpt>
      <trkpt lat="40.138407" lon="0.161558">
        <ele>0.482</ele>
        <time>1970-01-01T05:15:41Z</time>
      </trkpt>
      <trkpt lat="40.138409" lon="0.161492">
        <ele>0.468</ele>
        <time>1970-01-01T05:15:42Z</time>
      </trkpt>
      <trkpt lat="40.138412" lon="0.161427">
        <ele>0.342</ele>
        <time>1970-01-01T05:15:43Z</time>
      </trkpt>
      <trkpt lat="40.138416" lon="0.161362">
        <ele>0.326</ele>
        <time>1970-01-01T05:15:44Z</time>
      </trkpt>
      <trkpt lat="40.138420" lon="0.161294">
        <ele>0.208</ele>
        <time>1970-01-01T05:15:45Z</time>
      </trkpt>
      <trkpt lat="40.138423" lon="0.161229">
        <ele>0.113</ele>
        <time>1970-01-01T05:15:46Z</time>
      </trkpt>
      <trkpt lat="40.138427" lon="0.161163">
        <ele>0.170</ele>
        <time>1970-01-01T05:15:47Z</time>
      </trkpt>
      <trkpt lat="40.138432" lon="0.161097">
        <ele>-0.171</ele>
        <time>1970-01-01T05:15:48Z</time>
      </trkpt>
      <trkpt lat="40.138434" lon="0.161031">
        <ele>-0.354</ele>
        <time>1970-01-01T05:15:49Z</time>
      </trkpt>
      <trkpt lat="40.138437" lon="0.160964">
        <ele>-0.554</ele>
        <time>1970-01-01T05:15:50Z</time>
      </trkpt>
      <trkpt lat="40.138441" lon="0.160897">
        <ele>-0.820</ele>
        <time>1970-01-01T05:15:51Z</time>
      </trkpt>
      <trkpt lat="40.138444" lon="0.160830">
        <ele>-1.064</ele>
        <time>1970-01-01T05:15:52Z</time>
      </trkpt>
      <trkpt lat="40.138448" lon="0.160762">
        <ele>-1.215</ele>
        <time>1970-01-01T05:15:53Z</time>
      </trkpt>
      <trkpt lat="40.138450" lon="0.160695">
        <ele>-1.446</ele>
        <time>1970-01-01T05:15:54Z</time>
      </trkpt>
      <trkpt lat="40.138452" lon="0.160627">
        <ele>-1.688</ele>
        <time>1970-01-01T05:15:55Z</time>
      </trkpt>
      <trkpt lat="40.138455" lon="0.160560">
        <ele>-1.916</ele>
        <time>1970-01-01T05:15:56Z</time>
      </trkpt>
      <trkpt lat="40.138458" lon="0.160492">
        <ele>-2.008</ele>
        <time>1970-01-01T05:15:57Z</time>
      </trkpt>
      <trkpt lat="40.138461" lon="0.160425">
        <ele>-2.291</ele>
        <time>1970-01-01T05:15:58Z</time>
      </trkpt>
      <trkpt lat="40.138466" lon="0.160357">
        <ele>-2.368</ele>
        <time>1970-01-01T05:15:59Z</time>
      </trkpt>
      <trkpt lat="40.138471" lon="0.160290">
        <ele>-2.589</ele>
        <time>1970-01-01T05:16:00Z</time>
      </trkpt>
      <trkpt lat="40.138476" lon="0.160224">
        <ele>-2.242</ele>
        <time>1970-01-01T05:16:01Z</time>
      </trkpt>
      <trkpt lat="40.138480" lon="0.160159">
        <ele>-1.942</ele>
        <time>1970-01-01T05:16:02Z</time>
      </trkpt>
      <trkpt lat="40.138483" lon="0.160095">
        <ele>-1.558</ele>
        <time>1970-01-01T05:16:03Z</time>
      </trkpt>
      <trkpt lat="40.138487" lon="0.160033">
        <ele>-1.262</ele>
        <time>1970-01-01T05:16:04Z</time>
      </trkpt>
      <trkpt lat="40.138490" lon="0.159972">
        <ele>-0.913</ele>
        <time>1970-01-01T05:16:05Z</time>
      </trkpt>
      <trkpt lat="40.138492" lon="0.159912">
        <ele>-0.739</ele>
        <time>1970-01-01T05:16:06Z</time>
      </trkpt>
      <trkpt lat="40.138494" lon="0.159854">
        <ele>-0.501</ele>
        <time>1970-01-01T05:16:07Z</time>
      </trkpt>
      <trkpt lat="40.138498" lon="0.159797">
        <ele>-0.321</ele>
        <time>1970-01-01T05:16:08Z</time>
      </trkpt>
      <trkpt lat="40.138500" lon="0.159742">
        <ele>-0.108</ele>
        <time>1970-01-01T05:16:09Z</time>
      </trkpt>
      <trkpt lat="40.138503" lon="0.159685">
        <ele>0.180</ele>
        <time>1970-01-01T05:16:10Z</time>
      </trkpt>
      <trkpt lat="40.138507" lon="0.159629">
        <ele>0.167</ele>
        <time>1970-01-01T05:16:11Z</time>
      </trkpt>
      <trkpt lat="40.138509" lon="0.159572">
        <ele>0.268</ele>
        <time>1970-01-01T05:16:12Z</time>
      </trkpt>
      <trkpt lat="40.138511" lon="0.159513">
        <ele>0.311</ele>
        <time>1970-01-01T05:16:13Z</time>
      </trkpt>
      <trkpt lat="40.138513" lon="0.159452">
        <ele>0.341</ele>
        <time>1970-01-01T05:16:14Z</time>
      </trkpt>
      <trkpt lat="40.138515" lon="0.159389">
        <ele>0.537</ele>
        <time>1970-01-01T05:16:15Z</time>
      </trkpt>
      <trkpt lat="40.138517" lon="0.159327">
        <ele>0.831</ele>
        <time>1970-01-01T05:16:16Z</time>
      </trkpt>
      <trkpt lat="40.138519" lon="0.159266">
        <ele>1.022</ele>
        <time>1970-01-01T05:16:17Z</time>
      </trkpt>
      <trkpt lat="40.138521" lon="0.159203">
        <ele>1.282</ele>
        <time>1970-01-01T05:16:18Z</time>
      </trkpt>
      <trkpt lat="40.138521" lon="0.159140">
        <ele>1.443</ele>
        <time>1970-01-01T05:16:19Z</time>
      </trkpt>
      <trkpt lat="40.138522" lon="0.159077">
        <ele>1.617</ele>
        <time>1970-01-01T05:16:20Z</time>
      </trkpt>
      <trkpt lat="40.138525" lon="0.159016">
        <ele>1.908</ele>
        <time>1970-01-01T05:16:21Z</time>
      </trkpt>
      <trkpt lat="40.138529" lon="0.158956">
        <ele>2.125</ele>
        <time>1970-01-01T05:16:22Z</time>
      </trkpt>
      <trkpt lat="40.138531" lon="0.158898">
        <ele>2.342</ele>
        <time>1970-01-01T05:16:23Z</time>
      </trkpt>
      <trkpt lat="40.138532" lon="0.158840">
        <ele>2.323</ele>
        <time>1970-01-01T05:16:24Z</time>
      </trkpt>
      <trkpt lat="40.138534" lon="0.158784">
        <ele>2.486</ele>
        <time>1970-01-01T05:16:25Z</time>
      </trkpt>
      <trkpt lat="40.138543" lon="0.158730">
        <ele>2.416</ele>
        <time>1970-01-01T05:16:26Z</time>
      </trkpt>
      <trkpt lat="40.138562" lon="0.158685">
        <ele>2.352</ele>
        <time>1970-01-01T05:16:27Z</time>
      </trkpt>
      <trkpt lat="40.138596" lon="0.158650">
        <ele>2.126</ele>
        <time>1970-01-01T05:16:28Z</time>
      </trkpt>
      <trkpt lat="40.138634" lon="0.158620">
        <ele>2.117</ele>
        <time>1970-01-01T05:16:29Z</time>
      </trkpt>
      <trkpt lat="40.138671" lon="0.158587">
        <ele>2.384</ele>
        <time>1970-01-01T05:16:30Z</time>
      </trkpt>
      <trkpt lat="40.138702" lon="0.158546">
        <ele>2.507</ele>
        <time>1970-01-01T05:16:31Z</time>
      </trkpt>
      <trkpt lat="40.138728" lon="0.158497">
        <ele>2.717</ele>
        <time>1970-01-01T05:16:32Z</time>
      </trkpt>
      <trkpt lat="40.138744" lon="0.158440">
        <ele>2.808</ele>
        <time>1970-01-01T05:16:33Z</time>
      </trkpt>
      <trkpt lat="40.138748" lon="0.158376">
        <ele>2.975</ele>
        <time>1970-01-01T05:16:34Z</time>
      </trkpt>
      <trkpt lat="40.138740" lon="0.158309">
        <ele>3.052</ele>
        <time>1970-01-01T05:16:35Z</time>
      </trkpt>
      <trkpt lat="40.138718" lon="0.158247">
        <ele>3.033</ele>
        <time>1970-01-01T05:16:36Z</time>
      </trkpt>
      <trkpt lat="40.138689" lon="0.158192">
        <ele>3.066</ele>
        <time>1970-01-01T05:16:37Z</time>
      </trkpt>
      <trkpt lat="40.138655" lon="0.158145">
        <ele>3.076</ele>
        <time>1970-01-01T05:16:38Z</time>
      </trkpt>
      <trkpt lat="40.138619" lon="0.158105">
        <ele>3.052</ele>
        <time>1970-01-01T05:16:39Z</time>
      </trkpt>
      <trkpt lat="40.138590" lon="0.158067">
        <ele>3.146</ele>
        <time>1970-01-01T05:16:40Z</time>
      </trkpt>
      <trkpt lat="40.138575" lon="0.158033">
        <ele>3.217</ele>
        <time>1970-01-01T05:16:41Z</time>
      </trkpt>
      <trkpt lat="40.138574" lon="0.158005">
        <ele>3.332</ele>
        <time>1970-01-01T05:16:42Z</time>
      </trkpt>
      <trkpt lat="40.138578" lon="0.157980">
        <ele>3.492</ele>
        <time>1970-01-01T05:16:43Z</time>
      </trkpt>
      <trkpt lat="40.138583" lon="0.157959">
        <ele>3.411</ele>
        <time>1970-01-01T05:16:44Z</time>
      </trkpt>
      <trkpt lat="40.138585" lon="0.157942">
        <ele>3.508</ele>
        <time>1970-01-01T05:16:45Z</time>
      </trkpt>
      <trkpt lat="40.138579" lon="0.157930">
        <ele>3.560</ele>
        <time>1970-01-01T05:16:46Z</time>
      </trkpt>
      <trkpt lat="40.138560" lon="0.157926">
        <ele>3.697</ele>
        <time>1970-01-01T05:16:47Z</time>
      </trkpt>
      <trkpt lat="40.138538" lon="0.157942">
        <ele>3.648</ele>
        <time>1970-01-01T05:16:48Z</time>
      </trkpt>
      <trkpt lat="40.138521" lon="0.157971">
        <ele>3.551</ele>
        <time>1970-01-01T05:16:49Z</time>
      </trkpt>
      <trkpt lat="40.138510" lon="0.158015">
        <ele>3.541</ele>
        <time>1970-01-01T05:16:50Z</time>
      </trkpt>
      <trkpt lat="40.138500" lon="0.158067">
        <ele>3.447</ele>
        <time>1970-01-01T05:16:51Z</time>
      </trkpt>
      <trkpt lat="40.138487" lon="0.158116">
        <ele>3.421</ele>
        <time>1970-01-01T05:16:52Z</time>
      </trkpt>
      <trkpt lat="40.138465" lon="0.158165">
        <ele>3.552</ele>
        <time>1970-01-01T05:16:53Z</time>
      </trkpt>
      <trkpt lat="40.138434" lon="0.158209">
        <ele>3.665</ele>
        <time>1970-01-01T05:16:54Z</time>
      </trkpt>
      <trkpt lat="40.138399" lon="0.158241">
        <ele>3.868</ele>
        <time>1970-01-01T05:16:55Z</time>
      </trkpt>
      <trkpt lat="40.138358" lon="0.158264">
        <ele>3.914</ele>
        <time>1970-01-01T05:16:56Z</time>
      </trkpt>
      <trkpt lat="40.138314" lon="0.158277">
        <ele>4.108</ele>
        <time>1970-01-01T05:16:57Z</time>
      </trkpt>
      <trkpt lat="40.138268" lon="0.158278">
        <ele>4.223</ele>
        <time>1970-01-01T05:16:58Z</time>
      </trkpt>
      <trkpt lat="40.138222" lon="0.158270">
        <ele>4.440</ele>
        <time>1970-01-01T05:16:59Z</time>
      </trkpt>
      <trkpt lat="40.138177" lon="0.158257">
        <ele>4.631</ele>
        <time>1970-01-01T05:17:00Z</time>
      </trkpt>
      <trkpt lat="40.138131" lon="0.158242">
        <ele>4.784</ele>
        <time>1970-01-01T05:17:01Z</time>
      </trkpt>
      <trkpt lat="40.138085" lon="0.158229">
        <ele>4.974</ele>
        <time>1970-01-01T05:17:02Z</time>
      </trkpt>
      <trkpt lat="40.138038" lon="0.158218">
        <ele>4.970</ele>
        <time>1970-01-01T05:17:03Z</time>
      </trkpt>
      <trkpt lat="40.137992" lon="0.158209">
        <ele>4.824</ele>
        <time>1970-01-01T05:17:04Z</time>
      </trkpt>
      <trkpt lat="40.137944" lon="0.158201">
        <ele>4.675</ele>
        <time>1970-01-01T05:17:05Z</time>
      </trkpt>
      <trkpt lat="40.137896" lon="0.158192">
        <ele>4.445</ele>
        <time>1970-01-01T05:17:06Z</time>
      </trkpt>
      <trkpt lat="40.137847" lon="0.158181">
        <ele>4.247</ele>
        <time>1970-01-01T05:17:07Z</time>
      </trkpt>
      <trkpt lat="40.137798" lon="0.158168">
        <ele>4.111</ele>
        <time>1970-01-01T05:17:08Z</time>
      </trkpt>
      <trkpt lat="40.137748" lon="0.158154">
        <ele>3.908</ele>
        <time>1970-01-01T05:17:09Z</time>
      </trkpt>
      <trkpt lat="40.137698" lon="0.158142">
        <ele>3.811</ele>
        <time>1970-01-01T05:17:10Z</time>
      </trkpt>
      <trkpt lat="40.137648" lon="0.158127">
        <ele>3.798</ele>
        <time>1970-01-01T05:17:11Z</time>
      </trkpt>
      <trkpt lat="40.137597" lon="0.158115">
        <ele>3.529</ele>
        <time>1970-01-01T05:17:12Z</time>
      </trkpt>
      <trkpt lat="40.137546" lon="0.158106">
        <ele>3.382</ele>
        <time>1970-01-01T05:17:13Z</time>
      </trkpt>
      <trkpt lat="40.137494" lon="0.158096">
        <ele>3.222</ele>
        <time>1970-01-01T05:17:14Z</time>
      </trkpt>
      <trkpt lat="40.137442" lon="0.158083">
        <ele>3.338</ele>
        <time>1970-01-01T05:17:15Z</time>
      </trkpt>
      <trkpt lat="40.137390" lon="0.158068">
        <ele>3.432</ele>
        <time>1970-01-01T05:17:16Z</time>
      </trkpt>
      <trkpt lat="40.137338" lon="0.158053">
        <ele>3.613</ele>
        <time>1970-01-01T05:17:17Z</time>
      </trkpt>
      <trkpt lat="40.137285" lon="0.158040">
        <ele>3.866</ele>
        <time>1970-01-01T05:17:18Z</time>
      </trkpt>
      <trkpt lat="40.137231" lon="0.158026">
        <ele>4.029</ele>
        <time>1970-01-01T05:17:19Z</time>
      </trkpt>
      <trkpt lat="40.137178" lon="0.158011">
        <ele>4.221</ele>
        <time>1970-01-01T05:17:20Z</time>
      </trkpt>
      <trkpt lat="40.137125" lon="0.157998">
        <ele>4.308</ele>
        <time>1970-01-01T05:17:21Z</time>
      </trkpt>
      <trkpt lat="40.137072" lon="0.157985">
        <ele>4.593</ele>
        <time>1970-01-01T05:17:22Z</time>
      </trkpt>
      <trkpt lat="40.137020" lon="0.157972">
        <ele>4.790</ele>
        <time>1970-01-01T05:17:23Z</time>
      </trkpt>
      <trkpt lat="40.136969" lon="0.157956">
        <ele>4.911</ele>
        <time>1970-01-01T05:17:24Z</time>
      </trkpt>
      <trkpt lat="40.136919" lon="0.157940">
        <ele>4.984</ele>
        <time>1970-01-01T05:17:25Z</time>
      </trkpt>
      <trkpt lat="40.136867" lon="0.157925">
        <ele>4.714</ele>
        <time>1970-01-01T05:17:26Z</time>
      </trkpt>
      <trkpt lat="40.136816" lon="0.157913">
        <ele>4.560</ele>
        <time>1970-01-01T05:17:27Z</time>
      </trkpt>
      <trkpt lat="40.136765" lon="0.157903">
        <ele>4.454</ele>
        <time>1970-01-01T05:17:28Z</time>
      </trkpt>
      <trkpt lat="40.136716" lon="0.157896">
        <ele>4.285</ele>
        <time>1970-01-01T05:17:29Z</time>
      </trkpt>
      <trkpt lat="40.136665" lon="0.157887">
        <ele>4.051</ele>
        <time>1970-01-01T05:17:30Z</time>
      </trkpt>
      <trkpt lat="40.136614" lon="0.157875">
        <ele>4.101</ele>
        <time>1970-01-01T05:17:31Z</time>
      </trkpt>
      <trkpt lat="40.136564" lon="0.157859">
        <ele>4.111</ele>
        <time>1970-01-01T05:17:32Z</time>
      </trkpt>
      <trkpt lat="40.136512" lon="0.157841">
        <ele>4.108</ele>
        <time>1970-01-01T05:17:33Z</time>
      </trkpt>
      <trkpt lat="40.136460" lon="0.157825">
        <ele>4.182</ele>
        <time>1970-01-01T05:17:34Z</time>
      </trkpt>
      <trkpt lat="40.136409" lon="0.157811">
        <ele>4.149</ele>
        <time>1970-01-01T05:17:35Z</time>
      </trkpt>
      <trkpt lat="40.136357" lon="0.157797">
        <ele>4.140</ele>
        <time>1970-01-01T05:17:36Z</time>
      </trkpt>
      <trkpt lat="40.136304" lon="0.157782">
        <ele>4.043</ele>
        <time>1970-01-01T05:17:37Z</time>
      </trkpt>
      <trkpt lat="40.136251" lon="0.157767">
        <ele>4.033</ele>
        <time>1970-01-01T05:17:38Z</time>
      </trkpt>
      <trkpt lat="40.136199" lon="0.157753">
        <ele>3.949</ele>
        <time>1970-01-01T05:17:39Z</time>
      </trkpt>
      <trkpt lat="40.136144" lon="0.157737">
        <ele>3.753</ele>
        <time>1970-01-01T05:17:40Z</time>
      </trkpt>
      <trkpt lat="40.136089" lon="0.157720">
        <ele>3.544</ele>
        <time>1970-01-01T05:17:41Z</time>
      </trkpt>
      <trkpt lat="40.136036" lon="0.157706">
        <ele>3.351</ele>
        <time>1970-01-01T05:17:42Z</time>
      </trkpt>
      <trkpt lat="40.135982" lon="0.157690">
        <ele>3.001</ele>
        <time>1970-01-01T05:17:43Z</time>
      </trkpt>
      <trkpt lat="40.135928" lon="0.157677">
        <ele>2.911</ele>
        <time>1970-01-01T05:17:44Z</time>
      </trkpt>
      <trkpt lat="40.135875" lon="0.157663">
        <ele>2.708</ele>
        <time>1970-01-01T05:17:45Z</time>
      </trkpt>
      <trkpt lat="40.135823" lon="0.157646">
        <ele>2.572</ele>
        <time>1970-01-01T05:17:46Z</time>
      </trkpt>
      <trkpt lat="40.135770" lon="0.157627">
        <ele>2.569</ele>
        <time>1970-01-01T05:17:47Z</time>
      </trkpt>
      <trkpt lat="40.135720" lon="0.157607">
        <ele>2.410</ele>
        <time>1970-01-01T05:17:48Z</time>
      </trkpt>
      <trkpt lat="40.135669" lon="0.157588">
        <ele>2.343</ele>
        <time>1970-01-01T05:17:49Z</time>
      </trkpt>
      <trkpt lat="40.135617" lon="0.157570">
        <ele>2.393</ele>
        <time>1970-01-01T05:17:50Z</time>
      </trkpt>
      <trkpt lat="40.135565" lon="0.157552">
        <ele>2.259</ele>
        <time>1970-01-01T05:17:51Z</time>
      </trkpt>
      <trkpt lat="40.135513" lon="0.157532">
        <ele>2.463</ele>
        <time>1970-01-01T05:17:52Z</time>
      </trkpt>
      <trkpt lat="40.135462" lon="0.157511">
        <ele>2.744</ele>
        <time>1970-01-01T05:17:53Z</time>
      </trkpt>
      <trkpt lat="40.135412" lon="0.157491">
        <ele>3.084</ele>
        <time>1970-01-01T05:17:54Z</time>
      </trkpt>
      <trkpt lat="40.135362" lon="0.157474">
        <ele>3.407</ele>
        <time>1970-01-01T05:17:55Z</time>
      </trkpt>
      <trkpt lat="40.135312" lon="0.157457">
        <ele>3.817</ele>
        <time>1970-01-01T05:17:56Z</time>
      </trkpt>
      <trkpt lat="40.135262" lon="0.157438">
        <ele>4.008</ele>
        <time>1970-01-01T05:17:57Z</time>
      </trkpt>
      <trkpt lat="40.135213" lon="0.157417">
        <ele>4.035</ele>
        <time>1970-01-01T05:17:58Z</time>
      </trkpt>
      <trkpt lat="40.135164" lon="0.157397">
        <ele>4.012</ele>
        <time>1970-01-01T05:17:59Z</time>
      </trkpt>
      <trkpt lat="40.135114" lon="0.157379">
        <ele>4.053</ele>
        <time>1970-01-01T05:18:00Z</time>
      </trkpt>
      <trkpt lat="40.135063" lon="0.157363">
        <ele>4.096</ele>
        <time>1970-01-01T05:18:01Z</time>
      </trkpt>
      <trkpt lat="40.135012" lon="0.157347">
        <ele>4.016</ele>
        <time>1970-01-01T05:18:02Z</time>
      </trkpt>
      <trkpt lat="40.134961" lon="0.157329">
        <ele>4.172</ele>
        <time>1970-01-01T05:18:03Z</time>
      </trkpt>
      <trkpt lat="40.134912" lon="0.157310">
        <ele>4.286</ele>
        <time>1970-01-01T05:18:04Z</time>
      </trkpt>
      <trkpt lat="40.134863" lon="0.157289">
        <ele>4.487</ele>
        <time>1970-01-01T05:18:05Z</time>
      </trkpt>
      <trkpt lat="40.134816" lon="0.157270">
        <ele>4.544</ele>
        <time>1970-01-01T05:18:06Z</time>
      </trkpt>
      <trkpt lat="40.134771" lon="0.157253">
        <ele>4.705</ele>
        <time>1970-01-01T05:18:07Z</time>
      </trkpt>
      <trkpt lat="40.134727" lon="0.157233">
        <ele>4.915</ele>
        <time>1970-01-01T05:18:08Z</time>
      </trkpt>
      <trkpt lat="40.134684" lon="0.157215">
        <ele>5.008</ele>
        <time>1970-01-01T05:18:09Z</time>
      </trkpt>
      <trkpt lat="40.134639" lon="0.157196">
        <ele>5.091</ele>
        <time>1970-01-01T05:18:10Z</time>
      </trkpt>
      <trkpt lat="40.134594" lon="0.157177">
        <ele>5.168</ele>
        <time>1970-01-01T05:18:11Z</time>
      </trkpt>
      <trkpt lat="40.134547" lon="0.157158">
        <ele>5.199</ele>
        <time>1970-01-01T05:18:12Z</time>
      </trkpt>
      <trkpt lat="40.134499" lon="0.157140">
        <ele>5.252</ele>
        <time>1970-01-01T05:18:13Z</time>
      </trkpt>
      <trkpt lat="40.134452" lon="0.157119">
        <ele>5.432</ele>
        <time>1970-01-01T05:18:14Z</time>
      </trkpt>
      <trkpt lat="40.134404" lon="0.157097">
        <ele>5.458</ele>
        <time>1970-01-01T05:18:15Z</time>
      </trkpt>
      <trkpt lat="40.134357" lon="0.157076">
        <ele>5.482</ele>
        <time>1970-01-01T05:18:16Z</time>
      </trkpt>
      <trkpt lat="40.134312" lon="0.157055">
        <ele>5.353</ele>
        <time>1970-01-01T05:18:17Z</time>
      </trkpt>
      <trkpt lat="40.134266" lon="0.157034">
        <ele>5.279</ele>
        <time>1970-01-01T05:18:18Z</time>
      </trkpt>
      <trkpt lat="40.134220" lon="0.157011">
        <ele>5.105</ele>
        <time>1970-01-01T05:18:19Z</time>
      </trkpt>
      <trkpt lat="40.134173" lon="0.156991">
        <ele>5.025</ele>
        <time>1970-01-01T05:18:20Z</time>
      </trkpt>
      <trkpt lat="40.134125" lon="0.156970">
        <ele>4.808</ele>
        <time>1970-01-01T05:18:21Z</time>
      </trkpt>
      <trkpt lat="40.134077" lon="0.156947">
        <ele>4.784</ele>
        <time>1970-01-01T05:18:22Z</time>
      </trkpt>
      <trkpt lat="40.134031" lon="0.156923">
        <ele>4.611</ele>
        <time>1970-01-01T05:18:23Z</time>
      </trkpt>
      <trkpt lat="40.133985" lon="0.156898">
        <ele>4.542</ele>
        <time>1970-01-01T05:18:24Z</time>
      </trkpt>
      <trkpt lat="40.133939" lon="0.156875">
        <ele>4.415</ele>
        <time>1970-01-01T05:18:25Z</time>
      </trkpt>
      <trkpt lat="40.133892" lon="0.156852">
        <ele>4.365</ele>
        <time>1970-01-01T05:18:26Z</time>
      </trkpt>
      <trkpt lat="40.133848" lon="0.156828">
        <ele>4.371</ele>
        <time>1970-01-01T05:18:27Z</time>
      </trkpt>
      <trkpt lat="40.133803" lon="0.156805">
        <ele>4.275</ele>
        <time>1970-01-01T05:18:28Z</time>
      </trkpt>
      <trkpt lat="40.133757" lon="0.156784">
        <ele>4.186</ele>
        <time>1970-01-01T05:18:29Z</time>
      </trkpt>
      <trkpt lat="40.133711" lon="0.156763">
        <ele>4.041</ele>
        <time>1970-01-01T05:18:30Z</time>
      </trkpt>
      <trkpt lat="40.133664" lon="0.156739">
        <ele>3.981</ele>
        <time>1970-01-01T05:18:31Z</time>
      </trkpt>
      <trkpt lat="40.133618" lon="0.156714">
        <ele>3.909</ele>
        <time>1970-01-01T05:18:32Z</time>
      </trkpt>
      <trkpt lat="40.133572" lon="0.156690">
        <ele>3.908</ele>
        <time>1970-01-01T05:18:33Z</time>
      </trkpt>
      <trkpt lat="40.133526" lon="0.156667">
        <ele>4.041</ele>
        <time>1970-01-01T05:18:34Z</time>
      </trkpt>
      <trkpt lat="40.133478" lon="0.156643">
        <ele>4.178</ele>
        <time>1970-01-01T05:18:35Z</time>
      </trkpt>
      <trkpt lat="40.133432" lon="0.156619">
        <ele>4.249</ele>
        <time>1970-01-01T05:18:36Z</time>
      </trkpt>
      <trkpt lat="40.133385" lon="0.156596">
        <ele>4.332</ele>
        <time>1970-01-01T05:18:37Z</time>
      </trkpt>
      <trkpt lat="40.133339" lon="0.156575">
        <ele>4.362</ele>
        <time>1970-01-01T05:18:38Z</time>
      </trkpt>
      <trkpt lat="40.133293" lon="0.156552">
        <ele>4.598</ele>
        <time>1970-01-01T05:18:39Z</time>
      </trkpt>
      <trkpt lat="40.133245" lon="0.156528">
        <ele>4.752</ele>
        <time>1970-01-01T05:18:40Z</time>
      </trkpt>
      <trkpt lat="40.133197" lon="0.156503">
        <ele>4.823</ele>
        <time>1970-01-01T05:18:41Z</time>
      </trkpt>
      <trkpt lat="40.133149" lon="0.156480">
        <ele>4.944</ele>
        <time>1970-01-01T05:18:42Z</time>
      </trkpt>
      <trkpt lat="40.133100" lon="0.156457">
        <ele>5.005</ele>
        <time>1970-01-01T05:18:43Z</time>
      </trkpt>
      <trkpt lat="40.133052" lon="0.156434">
        <ele>5.015</ele>
        <time>1970-01-01T05:18:44Z</time>
      </trkpt>
      <trkpt lat="40.133004" lon="0.156412">
        <ele>5.008</ele>
        <time>1970-01-01T05:18:45Z</time>
      </trkpt>
      <trkpt lat="40.132958" lon="0.156388">
        <ele>5.061</ele>
        <time>1970-01-01T05:18:46Z</time>
      </trkpt>
      <trkpt lat="40.132914" lon="0.156356">
        <ele>5.098</ele>
        <time>1970-01-01T05:18:47Z</time>
      </trkpt>
      <trkpt lat="40.132876" lon="0.156312">
        <ele>5.019</ele>
        <time>1970-01-01T05:18:48Z</time>
      </trkpt>
      <trkpt lat="40.132843" lon="0.156262">
        <ele>5.092</ele>
        <time>1970-01-01T05:18:49Z</time>
      </trkpt>
      <trkpt lat="40.132809" lon="0.156211">
        <ele>5.042</ele>
        <time>1970-01-01T05:18:50Z</time>
      </trkpt>
      <trkpt lat="40.132771" lon="0.156166">
        <ele>5.078</ele>
        <time>1970-01-01T05:18:51Z</time>
      </trkpt>
      <trkpt lat="40.132727" lon="0.156133">
        <ele>5.082</ele>
        <time>1970-01-01T05:18:52Z</time>
      </trkpt>
      <trkpt lat="40.132679" lon="0.156116">
        <ele>5.013</ele>
        <time>1970-01-01T05:18:53Z</time>
      </trkpt>
      <trkpt lat="40.132628" lon="0.156110">
        <ele>5.056</ele>
        <time>1970-01-01T05:18:54Z</time>
      </trkpt>
      <trkpt lat="40.132577" lon="0.156111">
        <ele>5.059</ele>
        <time>1970-01-01T05:18:55Z</time>
      </trkpt>
      <trkpt lat="40.132523" lon="0.156108">
        <ele>5.014</ele>
        <time>1970-01-01T05:18:56Z</time>
      </trkpt>
      <trkpt lat="40.132469" lon="0.156101">
        <ele>4.908</ele>
        <time>1970-01-01T05:18:57Z</time>
      </trkpt>
      <trkpt lat="40.132418" lon="0.156084">
        <ele>4.812</ele>
        <time>1970-01-01T05:18:58Z</time>
      </trkpt>
      <trkpt lat="40.132368" lon="0.156060">
        <ele>4.649</ele>
        <time>1970-01-01T05:18:59Z</time>
      </trkpt>
      <trkpt lat="40.132317" lon="0.156031">
        <ele>4.470</ele>
        <time>1970-01-01T05:19:00Z</time>
      </trkpt>
      <trkpt lat="40.132267" lon="0.156001">
        <ele>4.253</ele>
        <time>1970-01-01T05:19:01Z</time>
      </trkpt>
      <trkpt lat="40.132217" lon="0.155971">
        <ele>4.053</ele>
        <time>1970-01-01T05:19:02Z</time>
      </trkpt>
      <trkpt lat="40.132166" lon="0.155942">
        <ele>3.899</ele>
        <time>1970-01-01T05:19:03Z</time>
      </trkpt>
      <trkpt lat="40.132116" lon="0.155910">
        <ele>3.653</ele>
        <time>1970-01-01T05:19:04Z</time>
      </trkpt>
      <trkpt lat="40.132065" lon="0.155878">
        <ele>3.474</ele>
        <time>1970-01-01T05:19:05Z</time>
      </trkpt>
      <trkpt lat="40.132013" lon="0.155848">
        <ele>3.244</ele>
        <time>1970-01-01T05:19:06Z</time>
      </trkpt>
      <trkpt lat="40.131961" lon="0.155820">
        <ele>3.105</ele>
        <time>1970-01-01T05:19:07Z</time>
      </trkpt>
      <trkpt lat="40.131908" lon="0.155792">
        <ele>3.215</ele>
        <time>1970-01-01T05:19:08Z</time>
      </trkpt>
      <trkpt lat="40.131856" lon="0.155765">
        <ele>3.308</ele>
        <time>1970-01-01T05:19:09Z</time>
      </trkpt>
      <trkpt lat="40.131803" lon="0.155738">
        <ele>3.561</ele>
        <time>1970-01-01T05:19:10Z</time>
      </trkpt>
      <trkpt lat="40.131750" lon="0.155712">
        <ele>3.738</ele>
        <time>1970-01-01T05:19:11Z</time>
      </trkpt>
      <trkpt lat="40.131697" lon="0.155685">
        <ele>4.069</ele>
        <time>1970-01-01T05:19:12Z</time>
      </trkpt>
      <trkpt lat="40.131645" lon="0.155656">
        <ele>4.322</ele>
        <time>1970-01-01T05:19:13Z</time>
      </trkpt>
      <trkpt lat="40.131594" lon="0.155625">
        <ele>4.692</ele>
        <time>1970-01-01T05:19:14Z</time>
      </trkpt>
      <trkpt lat="40.131542" lon="0.155596">
        <ele>4.838</ele>
        <time>1970-01-01T05:19:15Z</time>
      </trkpt>
      <trkpt lat="40.131490" lon="0.155567">
        <ele>4.912</ele>
        <time>1970-01-01T05:19:16Z</time>
      </trkpt>
      <trkpt lat="40.131438" lon="0.155540">
        <ele>5.043</ele>
        <time>1970-01-01T05:19:17Z</time>
      </trkpt>
      <trkpt lat="40.131385" lon="0.155511">
        <ele>5.043</ele>
        <time>1970-01-01T05:19:18Z</time>
      </trkpt>
      <trkpt lat="40.131333" lon="0.155482">
        <ele>5.264</ele>
        <time>1970-01-01T05:19:19Z</time>
      </trkpt>
      <trkpt lat="40.131281" lon="0.155453">
        <ele>5.410</ele>
        <time>1970-01-01T05:19:20Z</time>
      </trkpt>
      <trkpt lat="40.131229" lon="0.155425">
        <ele>5.608</ele>
        <time>1970-01-01T05:19:21Z</time>
      </trkpt>
      <trkpt lat="40.131177" lon="0.155398">
        <ele>5.831</ele>
        <time>1970-01-01T05:19:22Z</time>
      </trkpt>
      <trkpt lat="40.131124" lon="0.155370">
        <ele>6.048</ele>
        <time>1970-01-01T05:19:23Z</time>
      </trkpt>
      <trkpt lat="40.131071" lon="0.155341">
        <ele>5.959</ele>
        <time>1970-01-01T05:19:24Z</time>
      </trkpt>
      <trkpt lat="40.131018" lon="0.155313">
        <ele>5.742</ele>
        <time>1970-01-01T05:19:25Z</time>
      </trkpt>
      <trkpt lat="40.130966" lon="0.155285">
        <ele>5.512</ele>
        <time>1970-01-01T05:19:26Z</time>
      </trkpt>
      <trkpt lat="40.130913" lon="0.155257">
        <ele>5.248</ele>
        <time>1970-01-01T05:19:27Z</time>
      </trkpt>
      <trkpt lat="40.130861" lon="0.155231">
        <ele>4.922</ele>
        <time>1970-01-01T05:19:28Z</time>
      </trkpt>
      <trkpt lat="40.130807" lon="0.155205">
        <ele>4.713</ele>
        <time>1970-01-01T05:19:29Z</time>
      </trkpt>
      <trkpt lat="40.130754" lon="0.155181">
        <ele>4.521</ele>
        <time>1970-01-01T05:19:30Z</time>
      </trkpt>
      <trkpt lat="40.130700" lon="0.155160">
        <ele>4.341</ele>
        <time>1970-01-01T05:19:31Z</time>
      </trkpt>
      <trkpt lat="40.130647" lon="0.155135">
        <ele>4.205</ele>
        <time>1970-01-01T05:19:32Z</time>
      </trkpt>
      <trkpt lat="40.130595" lon="0.155107">
        <ele>4.108</ele>
        <time>1970-01-01T05:19:33Z</time>
      </trkpt>
      <trkpt lat="40.130543" lon="0.155082">
        <ele>4.099</ele>
        <time>1970-01-01T05:19:34Z</time>
      </trkpt>
      <trkpt lat="40.130490" lon="0.155059">
        <ele>4.226</ele>
        <time>1970-01-01T05:19:35Z</time>
      </trkpt>
      <trkpt lat="40.130436" lon="0.155034">
        <ele>4.477</ele>
        <time>1970-01-01T05:19:36Z</time>
      </trkpt>
      <trkpt lat="40.130383" lon="0.155009">
        <ele>4.670</ele>
        <time>1970-01-01T05:19:37Z</time>
      </trkpt>
      <trkpt lat="40.130330" lon="0.154986">
        <ele>4.890</ele>
        <time>1970-01-01T05:19:38Z</time>
      </trkpt>
      <trkpt lat="40.130275" lon="0.154964">
        <ele>5.076</ele>
        <time>1970-01-01T05:19:39Z</time>
      </trkpt>
      <trkpt lat="40.130221" lon="0.154943">
        <ele>5.030</ele>
        <time>1970-01-01T05:19:40Z</time>
      </trkpt>
      <trkpt lat="40.130167" lon="0.154921">
        <ele>5.081</ele>
        <time>1970-01-01T05:19:41Z</time>
      </trkpt>
      <trkpt lat="40.130114" lon="0.154900">
        <ele>5.079</ele>
        <time>1970-01-01T05:19:42Z</time>
      </trkpt>
      <trkpt lat="40.130058" lon="0.154880">
        <ele>5.005</ele>
        <time>1970-01-01T05:19:43Z</time>
      </trkpt>
      <trkpt lat="40.130003" lon="0.154859">
        <ele>5.025</ele>
        <time>1970-01-01T05:19:44Z</time>
      </trkpt>
      <trkpt lat="40.129949" lon="0.154836">
        <ele>5.008</ele>
        <time>1970-01-01T05:19:45Z</time>
      </trkpt>
      <trkpt lat="40.129895" lon="0.154814">
        <ele>5.054</ele>
        <time>1970-01-01T05:19:46Z</time>
      </trkpt>
      <trkpt lat="40.129842" lon="0.154791">
        <ele>5.071</ele>
        <time>1970-01-01T05:19:47Z</time>
      </trkpt>
      <trkpt lat="40.129788" lon="0.154770">
        <ele>5.012</ele>
        <time>1970-01-01T05:19:48Z</time>
      </trkpt>
      <trkpt lat="40.129731" lon="0.154752">
        <ele>5.085</ele>
        <time>1970-01-01T05:19:49Z</time>
      </trkpt>
      <trkpt lat="40.129674" lon="0.154734">
        <ele>5.035</ele>
        <time>1970-01-01T05:19:50Z</time>
      </trkpt>
      <trkpt lat="40.129618" lon="0.154714">
        <ele>5.051</ele>
        <time>1970-01-01T05:19:51Z</time>
      </trkpt>
      <trkpt lat="40.129562" lon="0.154693">
        <ele>5.155</ele>
        <time>1970-01-01T05:19:52Z</time>
      </trkpt>
      <trkpt lat="40.129505" lon="0.154672">
        <ele>5.196</ele>
        <time>1970-01-01T05:19:53Z</time>
      </trkpt>
      <trkpt lat="40.129448" lon="0.154652">
        <ele>5.289</ele>
        <time>1970-01-01T05:19:54Z</time>
      </trkpt>
      <trkpt lat="40.129390" lon="0.154634">
        <ele>5.406</ele>
        <time>1970-01-01T05:19:55Z</time>
      </trkpt>
      <trkpt lat="40.129332" lon="0.154615">
        <ele>5.526</ele>
        <time>1970-01-01T05:19:56Z</time>
      </trkpt>
      <trkpt lat="40.129275" lon="0.154597">
        <ele>5.708</ele>
        <time>1970-01-01T05:19:57Z</time>
      </trkpt>
      <trkpt lat="40.129217" lon="0.154580">
        <ele>5.955</ele>
        <time>1970-01-01T05:19:58Z</time>
      </trkpt>
      <trkpt lat="40.129159" lon="0.154565">
        <ele>6.182</ele>
        <time>1970-01-01T05:19:59Z</time>
      </trkpt>
      <trkpt lat="40.129100" lon="0.154549">
        <ele>6.113</ele>
        <time>1970-01-01T05:20:00Z</time>
      </trkpt>
      <trkpt lat="40.129042" lon="0.154532">
        <ele>6.136</ele>
        <time>1970-01-01T05:20:01Z</time>
      </trkpt>
      <trkpt lat="40.128982" lon="0.154513">
        <ele>6.056</ele>
        <time>1970-01-01T05:20:02Z</time>
      </trkpt>
      <trkpt lat="40.128923" lon="0.154493">
        <ele>5.922</ele>
        <time>1970-01-01T05:20:03Z</time>
      </trkpt>
      <trkpt lat="40.128863" lon="0.154474">
        <ele>5.876</ele>
        <time>1970-01-01T05:20:04Z</time>
      </trkpt>
      <trkpt lat="40.128803" lon="0.154454">
        <ele>5.737</ele>
        <time>1970-01-01T05:20:05Z</time>
      </trkpt>
      <trkpt lat="40.128744" lon="0.154435">
        <ele>5.542</ele>
        <time>1970-01-01T05:20:06Z</time>
      </trkpt>
      <trkpt lat="40.128685" lon="0.154416">
        <ele>5.322</ele>
        <time>1970-01-01T05:20:07Z</time>
      </trkpt>
      <trkpt lat="40.128627" lon="0.154397">
        <ele>5.214</ele>
        <time>1970-01-01T05:20:08Z</time>
      </trkpt>
      <trkpt lat="40.128570" lon="0.154383">
        <ele>5.208</ele>
        <time>1970-01-01T05:20:09Z</time>
      </trkpt>
      <trkpt lat="40.128513" lon="0.154370">
        <ele>5.361</ele>
        <time>1970-01-01T05:20:10Z</time>
      </trkpt>
      <trkpt lat="40.128456" lon="0.154356">
        <ele>5.388</ele>
        <time>1970-01-01T05:20:11Z</time>
      </trkpt>
      <trkpt lat="40.128402" lon="0.154340">
        <ele>5.419</ele>
        <time>1970-01-01T05:20:12Z</time>
      </trkpt>
      <trkpt lat="40.128348" lon="0.154325">
        <ele>5.492</ele>
        <time>1970-01-01T05:20:13Z</time>
      </trkpt>
      <trkpt lat="40.128295" lon="0.154313">
        <ele>5.352</ele>
        <time>1970-01-01T05:20:14Z</time>
      </trkpt>
      <trkpt lat="40.128242" lon="0.154303">
        <ele>5.018</ele>
        <time>1970-01-01T05:20:15Z</time>
      </trkpt>
      <trkpt lat="40.128189" lon="0.154294">
        <ele>4.762</ele>
        <time>1970-01-01T05:20:16Z</time>
      </trkpt>
      <trkpt lat="40.128135" lon="0.154284">
        <ele>4.553</ele>
        <time>1970-01-01T05:20:17Z</time>
      </trkpt>
      <trkpt lat="40.128081" lon="0.154273">
        <ele>4.163</ele>
        <time>1970-01-01T05:20:18Z</time>
      </trkpt>
      <trkpt lat="40.128025" lon="0.154258">
        <ele>4.044</ele>
        <time>1970-01-01T05:20:19Z</time>
      </trkpt>
      <trkpt lat="40.127969" lon="0.154245">
        <ele>4.118</ele>
        <time>1970-01-01T05:20:20Z</time>
      </trkpt>
      <trkpt lat="40.127915" lon="0.154232">
        <ele>4.108</ele>
        <time>1970-01-01T05:20:21Z</time>
      </trkpt>
      <trkpt lat="40.127860" lon="0.154221">
        <ele>4.163</ele>
        <time>1970-01-01T05:20:22Z</time>
      </trkpt>
      <trkpt lat="40.127802" lon="0.154212">
        <ele>4.140</ele>
        <time>1970-01-01T05:20:23Z</time>
      </trkpt>
      <trkpt lat="40.127745" lon="0.154203">
        <ele>4.271</ele>
        <time>1970-01-01T05:20:24Z</time>
      </trkpt>
      <trkpt lat="40.127685" lon="0.154193">
        <ele>4.484</ele>
        <time>1970-01-01T05:20:25Z</time>
      </trkpt>
      <trkpt lat="40.127628" lon="0.154182">
        <ele>4.674</ele>
        <time>1970-01-01T05:20:26Z</time>
      </trkpt>
      <trkpt lat="40.127569" lon="0.154173">
        <ele>4.810</ele>
        <time>1970-01-01T05:20:27Z</time>
      </trkpt>
      <trkpt lat="40.127511" lon="0.154166">
        <ele>5.024</ele>
        <time>1970-01-01T05:20:28Z</time>
      </trkpt>
      <trkpt lat="40.127455" lon="0.154159">
        <ele>5.035</ele>
        <time>1970-01-01T05:20:29Z</time>
      </trkpt>
      <trkpt lat="40.127398" lon="0.154149">
        <ele>5.033</ele>
        <time>1970-01-01T05:20:30Z</time>
      </trkpt>
      <trkpt lat="40.127341" lon="0.154141">
        <ele>5.023</ele>
        <time>1970-01-01T05:20:31Z</time>
      </trkpt>
      <trkpt lat="40.127285" lon="0.154136">
        <ele>5.015</ele>
        <time>1970-01-01T05:20:32Z</time>
      </trkpt>
      <trkpt lat="40.127227" lon="0.154131">
        <ele>5.008</ele>
        <time>1970-01-01T05:20:33Z</time>
      </trkpt>
      <trkpt lat="40.127168" lon="0.154124">
        <ele>4.660</ele>
        <time>1970-01-01T05:20:34Z</time>
      </trkpt>
      <trkpt lat="40.127109" lon="0.154118">
        <ele>4.387</ele>
        <time>1970-01-01T05:20:35Z</time>
      </trkpt>
      <trkpt lat="40.127051" lon="0.154115">
        <ele>3.998</ele>
        <time>1970-01-01T05:20:36Z</time>
      </trkpt>
      <trkpt lat="40.126993" lon="0.154111">
        <ele>3.571</ele>
        <time>1970-01-01T05:20:37Z</time>
      </trkpt>
      <trkpt lat="40.126935" lon="0.154107">
        <ele>3.281</ele>
        <time>1970-01-01T05:20:38Z</time>
      </trkpt>
      <trkpt lat="40.126878" lon="0.154101">
        <ele>3.047</ele>
        <time>1970-01-01T05:20:39Z</time>
      </trkpt>
      <trkpt lat="40.126822" lon="0.154095">
        <ele>2.831</ele>
        <time>1970-01-01T05:20:40Z</time>
      </trkpt>
      <trkpt lat="40.126765" lon="0.154088">
        <ele>2.622</ele>
        <time>1970-01-01T05:20:41Z</time>
      </trkpt>
      <trkpt lat="40.126708" lon="0.154081">
        <ele>2.597</ele>
        <time>1970-01-01T05:20:42Z</time>
      </trkpt>
      <trkpt lat="40.126650" lon="0.154075">
        <ele>2.423</ele>
        <time>1970-01-01T05:20:43Z</time>
      </trkpt>
      <trkpt lat="40.126592" lon="0.154068">
        <ele>2.825</ele>
        <time>1970-01-01T05:20:44Z</time>
      </trkpt>
      <trkpt lat="40.126536" lon="0.154059">
        <ele>3.108</ele>
        <time>1970-01-01T05:20:45Z</time>
      </trkpt>
      <trkpt lat="40.126479" lon="0.154051">
        <ele>3.546</ele>
        <time>1970-01-01T05:20:46Z</time>
      </trkpt>
      <trkpt lat="40.126423" lon="0.154044">
        <ele>3.813</ele>
        <time>1970-01-01T05:20:47Z</time>
      </trkpt>
      <trkpt lat="40.126366" lon="0.154037">
        <ele>4.174</ele>
        <time>1970-01-01T05:20:48Z</time>
      </trkpt>
      <trkpt lat="40.126310" lon="0.154026">
        <ele>4.477</ele>
        <time>1970-01-01T05:20:49Z</time>
      </trkpt>
      <trkpt lat="40.126255" lon="0.154014">
        <ele>4.787</ele>
        <time>1970-01-01T05:20:50Z</time>
      </trkpt>
      <trkpt lat="40.126200" lon="0.154003">
        <ele>5.083</ele>
        <time>1970-01-01T05:20:51Z</time>
      </trkpt>
      <trkpt lat="40.126147" lon="0.153991">
        <ele>5.277</ele>
        <time>1970-01-01T05:20:52Z</time>
      </trkpt>
      <trkpt lat="40.126094" lon="0.153979">
        <ele>5.388</ele>
        <time>1970-01-01T05:20:53Z</time>
      </trkpt>
      <trkpt lat="40.126042" lon="0.153966">
        <ele>5.321</ele>
        <time>1970-01-01T05:20:54Z</time>
      </trkpt>
      <trkpt lat="40.125990" lon="0.153953">
        <ele>5.241</ele>
        <time>1970-01-01T05:20:55Z</time>
      </trkpt>
      <trkpt lat="40.125938" lon="0.153939">
        <ele>5.205</ele>
        <time>1970-01-01T05:20:56Z</time>
      </trkpt>
      <trkpt lat="40.125887" lon="0.153921">
        <ele>5.108</ele>
        <time>1970-01-01T05:20:57Z</time>
      </trkpt>
      <trkpt lat="40.125840" lon="0.153893">
        <ele>5.039</ele>
        <time>1970-01-01T05:20:58Z</time>
      </trkpt>
      <trkpt lat="40.125800" lon="0.153854">
        <ele>5.186</ele>
        <time>1970-01-01T05:20:59Z</time>
      </trkpt>
      <trkpt lat="40.125767" lon="0.153807">
        <ele>5.227</ele>
        <time>1970-01-01T05:21:00Z</time>
      </trkpt>
      <trkpt lat="40.125735" lon="0.153760">
        <ele>5.370</ele>
        <time>1970-01-01T05:21:01Z</time>
      </trkpt>
      <trkpt lat="40.125698" lon="0.153721">
        <ele>5.380</ele>
        <time>1970-01-01T05:21:02Z</time>
      </trkpt>
      <trkpt lat="40.125659" lon="0.153692">
        <ele>5.396</ele>
        <time>1970-01-01T05:21:03Z</time>
      </trkpt>
      <trkpt lat="40.125614" lon="0.153676">
        <ele>5.270</ele>
        <time>1970-01-01T05:21:04Z</time>
      </trkpt>
      <trkpt lat="40.125565" lon="0.153678">
        <ele>5.081</ele>
        <time>1970-01-01T05:21:05Z</time>
      </trkpt>
      <trkpt lat="40.125516" lon="0.153698">
        <ele>5.023</ele>
        <time>1970-01-01T05:21:06Z</time>
      </trkpt>
      <trkpt lat="40.125465" lon="0.153735">
        <ele>4.983</ele>
        <time>1970-01-01T05:21:07Z</time>
      </trkpt>
      <trkpt lat="40.125412" lon="0.153773">
        <ele>4.711</ele>
        <time>1970-01-01T05:21:08Z</time>
      </trkpt>
      <trkpt lat="40.125355" lon="0.153797">
        <ele>4.508</ele>
        <time>1970-01-01T05:21:09Z</time>
      </trkpt>
      <trkpt lat="40.125293" lon="0.153798">
        <ele>4.459</ele>
        <time>1970-01-01T05:21:10Z</time>
      </trkpt>
      <trkpt lat="40.125231" lon="0.153777">
        <ele>4.396</ele>
        <time>1970-01-01T05:21:11Z</time>
      </trkpt>
      <trkpt lat="40.125170" lon="0.153746">
        <ele>4.357</ele>
        <time>1970-01-01T05:21:12Z</time>
      </trkpt>
      <trkpt lat="40.125110" lon="0.153715">
        <ele>4.230</ele>
        <time>1970-01-01T05:21:13Z</time>
      </trkpt>
      <trkpt lat="40.125048" lon="0.153685">
        <ele>4.110</ele>
        <time>1970-01-01T05:21:14Z</time>
      </trkpt>
      <trkpt lat="40.124986" lon="0.153660">
        <ele>4.086</ele>
        <time>1970-01-01T05:21:15Z</time>
      </trkpt>
      <trkpt lat="40.124922" lon="0.153636">
        <ele>4.340</ele>
        <time>1970-01-01T05:21:16Z</time>
      </trkpt>
      <trkpt lat="40.124860" lon="0.153610">
        <ele>4.581</ele>
        <time>1970-01-01T05:21:17Z</time>
      </trkpt>
      <trkpt lat="40.124799" lon="0.153586">
        <ele>4.848</ele>
        <time>1970-01-01T05:21:18Z</time>
      </trkpt>
      <trkpt lat="40.124739" lon="0.153562">
        <ele>5.061</ele>
        <time>1970-01-01T05:21:19Z</time>
      </trkpt>
      <trkpt lat="40.124679" lon="0.153538">
        <ele>5.017</ele>
        <time>1970-01-01T05:21:20Z</time>
      </trkpt>
      <trkpt lat="40.124619" lon="0.153515">
        <ele>5.108</ele>
        <time>1970-01-01T05:21:21Z</time>
      </trkpt>
      <trkpt lat="40.124554" lon="0.153483">
        <ele>5.331</ele>
        <time>1970-01-01T05:21:22Z</time>
      </trkpt>
      <trkpt lat="40.124493" lon="0.153459">
        <ele>5.538</ele>
        <time>1970-01-01T05:21:23Z</time>
      </trkpt>
      <trkpt lat="40.124432" lon="0.153435">
        <ele>5.679</ele>
        <time>1970-01-01T05:21:24Z</time>
      </trkpt>
      <trkpt lat="40.124371" lon="0.153411">
        <ele>5.532</ele>
        <time>1970-01-01T05:21:25Z</time>
      </trkpt>
      <trkpt lat="40.124310" lon="0.153388">
        <ele>5.452</ele>
        <time>1970-01-01T05:21:26Z</time>
      </trkpt>
      <trkpt lat="40.124249" lon="0.153366">
        <ele>5.398</ele>
        <time>1970-01-01T05:21:27Z</time>
      </trkpt>
      <trkpt lat="40.124188" lon="0.153341">
        <ele>5.132</ele>
        <time>1970-01-01T05:21:28Z</time>
      </trkpt>
      <trkpt lat="40.124127" lon="0.153319">
        <ele>4.943</ele>
        <time>1970-01-01T05:21:29Z</time>
      </trkpt>
      <trkpt lat="40.124068" lon="0.153299">
        <ele>4.651</ele>
        <time>1970-01-01T05:21:30Z</time>
      </trkpt>
      <trkpt lat="40.124006" lon="0.153276">
        <ele>4.401</ele>
        <time>1970-01-01T05:21:31Z</time>
      </trkpt>
      <trkpt lat="40.123942" lon="0.153259">
        <ele>4.211</ele>
        <time>1970-01-01T05:21:32Z</time>
      </trkpt>
      <trkpt lat="40.123879" lon="0.153237">
        <ele>4.008</ele>
        <time>1970-01-01T05:21:33Z</time>
      </trkpt>
      <trkpt lat="40.123818" lon="0.153213">
        <ele>4.182</ele>
        <time>1970-01-01T05:21:34Z</time>
      </trkpt>
      <trkpt lat="40.123755" lon="0.153189">
        <ele>4.249</ele>
        <time>1970-01-01T05:21:35Z</time>
      </trkpt>
      <trkpt lat="40.123694" lon="0.153164">
        <ele>4.460</ele>
        <time>1970-01-01T05:21:36Z</time>
      </trkpt>
      <trkpt lat="40.123634" lon="0.153139">
        <ele>4.613</ele>
        <time>1970-01-01T05:21:37Z</time>
      </trkpt>
      <trkpt lat="40.123574" lon="0.153113">
        <ele>4.843</ele>
        <time>1970-01-01T05:21:38Z</time>
      </trkpt>
      <trkpt lat="40.123513" lon="0.153090">
        <ele>4.999</ele>
        <time>1970-01-01T05:21:39Z</time>
      </trkpt>
      <trkpt lat="40.123452" lon="0.153070">
        <ele>4.923</ele>
        <time>1970-01-01T05:21:40Z</time>
      </trkpt>
      <trkpt lat="40.123392" lon="0.153048">
        <ele>5.054</ele>
        <time>1970-01-01T05:21:41Z</time>
      </trkpt>
      <trkpt lat="40.123333" lon="0.153022">
        <ele>5.058</ele>
        <time>1970-01-01T05:21:42Z</time>
      </trkpt>
      <trkpt lat="40.123276" lon="0.152998">
        <ele>5.052</ele>
        <time>1970-01-01T05:21:43Z</time>
      </trkpt>
      <trkpt lat="40.123219" lon="0.152971">
        <ele>5.017</ele>
        <time>1970-01-01T05:21:44Z</time>
      </trkpt>
      <trkpt lat="40.123162" lon="0.152946">
        <ele>5.008</ele>
        <time>1970-01-01T05:21:45Z</time>
      </trkpt>
      <trkpt lat="40.123105" lon="0.152922">
        <ele>5.092</ele>
        <time>1970-01-01T05:21:46Z</time>
      </trkpt>
      <trkpt lat="40.123049" lon="0.152902">
        <ele>5.069</ele>
        <time>1970-01-01T05:21:47Z</time>
      </trkpt>
      <trkpt lat="40.122989" lon="0.152879">
        <ele>5.040</ele>
        <time>1970-01-01T05:21:48Z</time>
      </trkpt>
      <trkpt lat="40.122929" lon="0.152857">
        <ele>5.093</ele>
        <time>1970-01-01T05:21:49Z</time>
      </trkpt>
      <trkpt lat="40.122868" lon="0.152835">
        <ele>5.013</ele>
        <time>1970-01-01T05:21:50Z</time>
      </trkpt>
      <trkpt lat="40.122809" lon="0.152812">
        <ele>5.049</ele>
        <time>1970-01-01T05:21:51Z</time>
      </trkpt>
      <trkpt lat="40.122752" lon="0.152787">
        <ele>5.173</ele>
        <time>1970-01-01T05:21:52Z</time>
      </trkpt>
      <trkpt lat="40.122696" lon="0.152766">
        <ele>5.314</ele>
        <time>1970-01-01T05:21:53Z</time>
      </trkpt>
      <trkpt lat="40.122638" lon="0.152744">
        <ele>5.641</ele>
        <time>1970-01-01T05:21:54Z</time>
      </trkpt>
      <trkpt lat="40.122580" lon="0.152719">
        <ele>5.881</ele>
        <time>1970-01-01T05:21:55Z</time>
      </trkpt>
      <trkpt lat="40.122521" lon="0.152691">
        <ele>5.909</ele>
        <time>1970-01-01T05:21:56Z</time>
      </trkpt>
      <trkpt lat="40.122462" lon="0.152666">
        <ele>5.908</ele>
        <time>1970-01-01T05:21:57Z</time>
      </trkpt>
      <trkpt lat="40.122403" lon="0.152642">
        <ele>5.831</ele>
        <time>1970-01-01T05:21:58Z</time>
      </trkpt>
      <trkpt lat="40.122344" lon="0.152618">
        <ele>5.788</ele>
        <time>1970-01-01T05:21:59Z</time>
      </trkpt>
      <trkpt lat="40.122285" lon="0.152594">
        <ele>5.529</ele>
        <time>1970-01-01T05:22:00Z</time>
      </trkpt>
      <trkpt lat="40.122226" lon="0.152571">
        <ele>5.382</ele>
        <time>1970-01-01T05:22:01Z</time>
      </trkpt>
      <trkpt lat="40.122165" lon="0.152548">
        <ele>5.162</ele>
        <time>1970-01-01T05:22:02Z</time>
      </trkpt>
      <trkpt lat="40.122105" lon="0.152526">
        <ele>5.148</ele>
        <time>1970-01-01T05:22:03Z</time>
      </trkpt>
      <trkpt lat="40.122045" lon="0.152506">
        <ele>5.012</ele>
        <time>1970-01-01T05:22:04Z</time>
      </trkpt>
      <trkpt lat="40.121986" lon="0.152483">
        <ele>5.013</ele>
        <time>1970-01-01T05:22:05Z</time>
      </trkpt>
      <trkpt lat="40.121930" lon="0.152459">
        <ele>5.054</ele>
        <time>1970-01-01T05:22:06Z</time>
      </trkpt>
      <trkpt lat="40.121875" lon="0.152434">
        <ele>4.956</ele>
        <time>1970-01-01T05:22:07Z</time>
      </trkpt>
      <trkpt lat="40.121820" lon="0.152412">
        <ele>4.811</ele>
        <time>1970-01-01T05:22:08Z</time>
      </trkpt>
      <trkpt lat="40.121763" lon="0.152390">
        <ele>4.908</ele>
        <time>1970-01-01T05:22:09Z</time>
      </trkpt>
      <trkpt lat="40.121704" lon="0.152368">
        <ele>5.062</ele>
        <time>1970-01-01T05:22:10Z</time>
      </trkpt>
      <trkpt lat="40.121645" lon="0.152345">
        <ele>5.099</ele>
        <time>1970-01-01T05:22:11Z</time>
      </trkpt>
      <trkpt lat="40.121588" lon="0.152323">
        <ele>5.060</ele>
        <time>1970-01-01T05:22:12Z</time>
      </trkpt>
      <trkpt lat="40.121530" lon="0.152300">
        <ele>4.933</ele>
        <time>1970-01-01T05:22:13Z</time>
      </trkpt>
      <trkpt lat="40.121473" lon="0.152277">
        <ele>4.953</ele>
        <time>1970-01-01T05:22:14Z</time>
      </trkpt>
      <trkpt lat="40.121415" lon="0.152255">
        <ele>4.949</ele>
        <time>1970-01-01T05:22:15Z</time>
      </trkpt>
      <trkpt lat="40.121356" lon="0.152233">
        <ele>4.943</ele>
        <time>1970-01-01T05:22:16Z</time>
      </trkpt>
      <trkpt lat="40.121297" lon="0.152209">
        <ele>5.064</ele>
        <time>1970-01-01T05:22:17Z</time>
      </trkpt>
      <trkpt lat="40.121239" lon="0.152185">
        <ele>5.156</ele>
        <time>1970-01-01T05:22:18Z</time>
      </trkpt>
      <trkpt lat="40.121185" lon="0.152163">
        <ele>5.259</ele>
        <time>1970-01-01T05:22:19Z</time>
      </trkpt>
      <trkpt lat="40.121131" lon="0.152142">
        <ele>5.314</ele>
        <time>1970-01-01T05:22:20Z</time>
      </trkpt>
      <trkpt lat="40.121077" lon="0.152120">
        <ele>5.308</ele>
        <time>1970-01-01T05:22:21Z</time>
      </trkpt>
      <trkpt lat="40.121025" lon="0.152097">
        <ele>5.312</ele>
        <time>1970-01-01T05:22:22Z</time>
      </trkpt>
      <trkpt lat="40.120968" lon="0.152075">
        <ele>5.329</ele>
        <time>1970-01-01T05:22:23Z</time>
      </trkpt>
      <trkpt lat="40.120912" lon="0.152055">
        <ele>5.310</ele>
        <time>1970-01-01T05:22:24Z</time>
      </trkpt>
      <trkpt lat="40.120857" lon="0.152032">
        <ele>5.473</ele>
        <time>1970-01-01T05:22:25Z</time>
      </trkpt>
      <trkpt lat="40.120801" lon="0.152008">
        <ele>5.513</ele>
        <time>1970-01-01T05:22:26Z</time>
      </trkpt>
      <trkpt lat="40.120745" lon="0.151983">
        <ele>5.489</ele>
        <time>1970-01-01T05:22:27Z</time>
      </trkpt>
      <trkpt lat="40.120689" lon="0.151959">
        <ele>5.423</ele>
        <time>1970-01-01T05:22:28Z</time>
      </trkpt>
      <trkpt lat="40.120633" lon="0.151934">
        <ele>5.394</ele>
        <time>1970-01-01T05:22:29Z</time>
      </trkpt>
      <trkpt lat="40.120577" lon="0.151908">
        <ele>5.181</ele>
        <time>1970-01-01T05:22:30Z</time>
      </trkpt>
      <trkpt lat="40.120517" lon="0.151883">
        <ele>5.061</ele>
        <time>1970-01-01T05:22:31Z</time>
      </trkpt>
      <trkpt lat="40.120457" lon="0.151859">
        <ele>5.017</ele>
        <time>1970-01-01T05:22:32Z</time>
      </trkpt>
      <trkpt lat="40.120401" lon="0.151838">
        <ele>5.008</ele>
        <time>1970-01-01T05:22:33Z</time>
      </trkpt>
      <trkpt lat="40.120346" lon="0.151813">
        <ele>5.035</ele>
        <time>1970-01-01T05:22:34Z</time>
      </trkpt>
      <trkpt lat="40.120289" lon="0.151786">
        <ele>5.092</ele>
        <time>1970-01-01T05:22:35Z</time>
      </trkpt>
      <trkpt lat="40.120231" lon="0.151762">
        <ele>5.063</ele>
        <time>1970-01-01T05:22:36Z</time>
      </trkpt>
      <trkpt lat="40.120173" lon="0.151738">
        <ele>5.056</ele>
        <time>1970-01-01T05:22:37Z</time>
      </trkpt>
      <trkpt lat="40.120113" lon="0.151716">
        <ele>5.046</ele>
        <time>1970-01-01T05:22:38Z</time>
      </trkpt>
      <trkpt lat="40.120055" lon="0.151694">
        <ele>5.072</ele>
        <time>1970-01-01T05:22:39Z</time>
      </trkpt>
      <trkpt lat="40.119997" lon="0.151671">
        <ele>5.096</ele>
        <time>1970-01-01T05:22:40Z</time>
      </trkpt>
      <trkpt lat="40.119939" lon="0.151646">
        <ele>5.397</ele>
        <time>1970-01-01T05:22:41Z</time>
      </trkpt>
      <trkpt lat="40.119881" lon="0.151624">
        <ele>5.584</ele>
        <time>1970-01-01T05:22:42Z</time>
      </trkpt>
      <trkpt lat="40.119821" lon="0.151605">
        <ele>5.707</ele>
        <time>1970-01-01T05:22:43Z</time>
      </trkpt>
      <trkpt lat="40.119763" lon="0.151585">
        <ele>5.917</ele>
        <time>1970-01-01T05:22:44Z</time>
      </trkpt>
      <trkpt lat="40.119706" lon="0.151566">
        <ele>6.008</ele>
        <time>1970-01-01T05:22:45Z</time>
      </trkpt>
      <trkpt lat="40.119649" lon="0.151546">
        <ele>6.025</ele>
        <time>1970-01-01T05:22:46Z</time>
      </trkpt>
      <trkpt lat="40.119592" lon="0.151526">
        <ele>6.032</ele>
        <time>1970-01-01T05:22:47Z</time>
      </trkpt>
      <trkpt lat="40.119537" lon="0.151505">
        <ele>6.043</ele>
        <time>1970-01-01T05:22:48Z</time>
      </trkpt>
      <trkpt lat="40.119484" lon="0.151486">
        <ele>6.096</ele>
        <time>1970-01-01T05:22:49Z</time>
      </trkpt>
      <trkpt lat="40.119433" lon="0.151468">
        <ele>6.096</ele>
        <time>1970-01-01T05:22:50Z</time>
      </trkpt>
      <trkpt lat="40.119380" lon="0.151449">
        <ele>5.822</ele>
        <time>1970-01-01T05:22:51Z</time>
      </trkpt>
      <trkpt lat="40.119330" lon="0.151430">
        <ele>5.646</ele>
        <time>1970-01-01T05:22:52Z</time>
      </trkpt>
      <trkpt lat="40.119279" lon="0.151416">
        <ele>5.427</ele>
        <time>1970-01-01T05:22:53Z</time>
      </trkpt>
      <trkpt lat="40.119234" lon="0.151400">
        <ele>5.296</ele>
        <time>1970-01-01T05:22:54Z</time>
      </trkpt>
      <trkpt lat="40.119195" lon="0.151378">
        <ele>5.131</ele>
        <time>1970-01-01T05:22:55Z</time>
      </trkpt>
      <trkpt lat="40.119169" lon="0.151343">
        <ele>5.024</ele>
        <time>1970-01-01T05:22:56Z</time>
      </trkpt>
      <trkpt lat="40.119163" lon="0.151296">
        <ele>5.008</ele>
        <time>1970-01-01T05:22:57Z</time>
      </trkpt>
      <trkpt lat="40.119169" lon="0.151241">
        <ele>5.066</ele>
        <time>1970-01-01T05:22:58Z</time>
      </trkpt>
      <trkpt lat="40.119184" lon="0.151188">
        <ele>5.123</ele>
        <time>1970-01-01T05:22:59Z</time>
      </trkpt>
      <trkpt lat="40.119196" lon="0.151127">
        <ele>5.124</ele>
        <time>1970-01-01T05:23:00Z</time>
      </trkpt>
      <trkpt lat="40.119194" lon="0.151072">
        <ele>5.287</ele>
        <time>1970-01-01T05:23:01Z</time>
      </trkpt>
      <trkpt lat="40.119178" lon="0.151020">
        <ele>5.497</ele>
        <time>1970-01-01T05:23:02Z</time>
      </trkpt>
      <trkpt lat="40.119148" lon="0.150976">
        <ele>5.473</ele>
        <time>1970-01-01T05:23:03Z</time>
      </trkpt>
      <trkpt lat="40.119108" lon="0.150945">
        <ele>5.487</ele>
        <time>1970-01-01T05:23:04Z</time>
      </trkpt>
      <trkpt lat="40.119066" lon="0.150917">
        <ele>5.358</ele>
        <time>1970-01-01T05:23:05Z</time>
      </trkpt>
      <trkpt lat="40.119023" lon="0.150890">
        <ele>5.334</ele>
        <time>1970-01-01T05:23:06Z</time>
      </trkpt>
      <trkpt lat="40.118979" lon="0.150865">
        <ele>5.255</ele>
        <time>1970-01-01T05:23:07Z</time>
      </trkpt>
      <trkpt lat="40.118936" lon="0.150840">
        <ele>5.110</ele>
        <time>1970-01-01T05:23:08Z</time>
      </trkpt>
      <trkpt lat="40.118893" lon="0.150814">
        <ele>5.108</ele>
        <time>1970-01-01T05:23:09Z</time>
      </trkpt>
      <trkpt lat="40.118851" lon="0.150787">
        <ele>5.040</ele>
        <time>1970-01-01T05:23:10Z</time>
      </trkpt>
      <trkpt lat="40.118811" lon="0.150760">
        <ele>5.037</ele>
        <time>1970-01-01T05:23:11Z</time>
      </trkpt>
      <trkpt lat="40.118774" lon="0.150738">
        <ele>4.938</ele>
        <time>1970-01-01T05:23:12Z</time>
      </trkpt>
      <trkpt lat="40.118749" lon="0.150723">
        <ele>4.921</ele>
        <time>1970-01-01T05:23:13Z</time>
      </trkpt>
      <trkpt lat="40.118734" lon="0.150718">
        <ele>4.941</ele>
        <time>1970-01-01T05:23:14Z</time>
      </trkpt>
      <trkpt lat="40.118717" lon="0.150727">
        <ele>4.857</ele>
        <time>1970-01-01T05:23:15Z</time>
      </trkpt>
      <trkpt lat="40.118699" lon="0.150743">
        <ele>4.641</ele>
        <time>1970-01-01T05:23:16Z</time>
      </trkpt>
      <trkpt lat="40.118680" lon="0.150776">
        <ele>4.592</ele>
        <time>1970-01-01T05:23:17Z</time>
      </trkpt>
      <trkpt lat="40.118663" lon="0.150817">
        <ele>4.276</ele>
        <time>1970-01-01T05:23:18Z</time>
      </trkpt>
      <trkpt lat="40.118648" lon="0.150864">
        <ele>4.190</ele>
        <time>1970-01-01T05:23:19Z</time>
      </trkpt>
      <trkpt lat="40.118633" lon="0.150913">
        <ele>4.119</ele>
        <time>1970-01-01T05:23:20Z</time>
      </trkpt>
      <trkpt lat="40.118619" lon="0.150964">
        <ele>4.008</ele>
        <time>1970-01-01T05:23:21Z</time>
      </trkpt>
      <trkpt lat="40.118604" lon="0.151015">
        <ele>4.064</ele>
        <time>1970-01-01T05:23:22Z</time>
      </trkpt>
      <trkpt lat="40.118582" lon="0.151062">
        <ele>4.011</ele>
        <time>1970-01-01T05:23:23Z</time>
      </trkpt>
      <trkpt lat="40.118552" lon="0.151094">
        <ele>4.042</ele>
        <time>1970-01-01T05:23:24Z</time>
      </trkpt>
      <trkpt lat="40.118517" lon="0.151105">
        <ele>4.085</ele>
        <time>1970-01-01T05:23:25Z</time>
      </trkpt>
      <trkpt lat="40.118479" lon="0.151098">
        <ele>4.035</ele>
        <time>1970-01-01T05:23:26Z</time>
      </trkpt>
      <trkpt lat="40.118442" lon="0.151080">
        <ele>3.921</ele>
        <time>1970-01-01T05:23:27Z</time>
      </trkpt>
      <trkpt lat="40.118400" lon="0.151061">
        <ele>3.945</ele>
        <time>1970-01-01T05:23:28Z</time>
      </trkpt>
      <trkpt lat="40.118351" lon="0.151039">
        <ele>3.866</ele>
        <time>1970-01-01T05:23:29Z</time>
      </trkpt>
      <trkpt lat="40.118303" lon="0.151016">
        <ele>3.741</ele>
        <time>1970-01-01T05:23:30Z</time>
      </trkpt>
      <trkpt lat="40.118254" lon="0.150988">
        <ele>3.681</ele>
        <time>1970-01-01T05:23:31Z</time>
      </trkpt>
      <trkpt lat="40.118207" lon="0.150961">
        <ele>3.509</ele>
        <time>1970-01-01T05:23:32Z</time>
      </trkpt>
      <trkpt lat="40.118159" lon="0.150943">
        <ele>3.408</ele>
        <time>1970-01-01T05:23:33Z</time>
      </trkpt>
      <trkpt lat="40.118112" lon="0.150929">
        <ele>3.311</ele>
        <time>1970-01-01T05:23:34Z</time>
      </trkpt>
      <trkpt lat="40.118063" lon="0.150913">
        <ele>3.378</ele>
        <time>1970-01-01T05:23:35Z</time>
      </trkpt>
      <trkpt lat="40.118012" lon="0.150893">
        <ele>3.549</ele>
        <time>1970-01-01T05:23:36Z</time>
      </trkpt>
      <trkpt lat="40.117961" lon="0.150873">
        <ele>3.812</ele>
        <time>1970-01-01T05:23:37Z</time>
      </trkpt>
      <trkpt lat="40.117909" lon="0.150854">
        <ele>4.192</ele>
        <time>1970-01-01T05:23:38Z</time>
      </trkpt>
      <trkpt lat="40.117858" lon="0.150835">
        <ele>4.438</ele>
        <time>1970-01-01T05:23:39Z</time>
      </trkpt>
      <trkpt lat="40.117809" lon="0.150815">
        <ele>4.782</ele>
        <time>1970-01-01T05:23:40Z</time>
      </trkpt>
      <trkpt lat="40.117757" lon="0.150793">
        <ele>4.913</ele>
        <time>1970-01-01T05:23:41Z</time>
      </trkpt>
      <trkpt lat="40.117703" lon="0.150770">
        <ele>5.188</ele>
        <time>1970-01-01T05:23:42Z</time>
      </trkpt>
      <trkpt lat="40.117652" lon="0.150747">
        <ele>5.324</ele>
        <time>1970-01-01T05:23:43Z</time>
      </trkpt>
      <trkpt lat="40.117600" lon="0.150723">
        <ele>5.526</ele>
        <time>1970-01-01T05:23:44Z</time>
      </trkpt>
      <trkpt lat="40.117549" lon="0.150702">
        <ele>5.708</ele>
        <time>1970-01-01T05:23:45Z</time>
      </trkpt>
      <trkpt lat="40.117498" lon="0.150684">
        <ele>6.085</ele>
        <time>1970-01-01T05:23:46Z</time>
      </trkpt>
      <trkpt lat="40.117445" lon="0.150663">
        <ele>5.832</ele>
        <time>1970-01-01T05:23:47Z</time>
      </trkpt>
      <trkpt lat="40.117395" lon="0.150643">
        <ele>5.623</ele>
        <time>1970-01-01T05:23:48Z</time>
      </trkpt>
      <trkpt lat="40.117345" lon="0.150625">
        <ele>5.416</ele>
        <time>1970-01-01T05:23:49Z</time>
      </trkpt>
      <trkpt lat="40.117291" lon="0.150605">
        <ele>5.266</ele>
        <time>1970-01-01T05:23:50Z</time>
      </trkpt>
      <trkpt lat="40.117239" lon="0.150584">
        <ele>5.192</ele>
        <time>1970-01-01T05:23:51Z</time>
      </trkpt>
      <trkpt lat="40.117169" lon="0.150560">
        <ele>4.876</ele>
        <time>1970-01-01T05:23:52Z</time>
      </trkpt>
      <trkpt lat="40.117105" lon="0.150535">
        <ele>4.667</ele>
        <time>1970-01-01T05:23:53Z</time>
      </trkpt>
      <trkpt lat="40.117051" lon="0.150513">
        <ele>4.579</ele>
        <time>1970-01-01T05:23:54Z</time>
      </trkpt>
      <trkpt lat="40.116999" lon="0.150494">
        <ele>4.405</ele>
        <time>1970-01-01T05:23:55Z</time>
      </trkpt>
      <trkpt lat="40.116949" lon="0.150474">
        <ele>4.325</ele>
        <time>1970-01-01T05:23:56Z</time>
      </trkpt>
      <trkpt lat="40.116899" lon="0.150453">
        <ele>4.608</ele>
        <time>1970-01-01T05:23:57Z</time>
      </trkpt>
      <trkpt lat="40.116847" lon="0.150430">
        <ele>5.014</ele>
        <time>1970-01-01T05:23:58Z</time>
      </trkpt>
      <trkpt lat="40.116796" lon="0.150405">
        <ele>5.381</ele>
        <time>1970-01-01T05:23:59Z</time>
      </trkpt>
      <trkpt lat="40.116746" lon="0.150379">
        <ele>5.632</ele>
        <time>1970-01-01T05:24:00Z</time>
      </trkpt>
      <trkpt lat="40.116695" lon="0.150351">
        <ele>5.965</ele>
        <time>1970-01-01T05:24:01Z</time>
      </trkpt>
      <trkpt lat="40.116642" lon="0.150324">
        <ele>6.125</ele>
        <time>1970-01-01T05:24:02Z</time>
      </trkpt>
      <trkpt lat="40.116589" lon="0.150301">
        <ele>6.331</ele>
        <time>1970-01-01T05:24:03Z</time>
      </trkpt>
      <trkpt lat="40.116534" lon="0.150278">
        <ele>6.595</ele>
        <time>1970-01-01T05:24:04Z</time>
      </trkpt>
      <trkpt lat="40.116480" lon="0.150254">
        <ele>6.776</ele>
        <time>1970-01-01T05:24:05Z</time>
      </trkpt>
      <trkpt lat="40.116425" lon="0.150231">
        <ele>6.957</ele>
        <time>1970-01-01T05:24:06Z</time>
      </trkpt>
      <trkpt lat="40.116367" lon="0.150210">
        <ele>6.900</ele>
        <time>1970-01-01T05:24:07Z</time>
      </trkpt>
      <trkpt lat="40.116313" lon="0.150187">
        <ele>6.720</ele>
        <time>1970-01-01T05:24:08Z</time>
      </trkpt>
      <trkpt lat="40.116262" lon="0.150162">
        <ele>6.508</ele>
        <time>1970-01-01T05:24:09Z</time>
      </trkpt>
      <trkpt lat="40.116207" lon="0.150137">
        <ele>6.372</ele>
        <time>1970-01-01T05:24:10Z</time>
      </trkpt>
      <trkpt lat="40.116150" lon="0.150115">
        <ele>6.199</ele>
        <time>1970-01-01T05:24:11Z</time>
      </trkpt>
      <trkpt lat="40.116097" lon="0.150097">
        <ele>6.060</ele>
        <time>1970-01-01T05:24:12Z</time>
      </trkpt>
      <trkpt lat="40.116045" lon="0.150079">
        <ele>6.053</ele>
        <time>1970-01-01T05:24:13Z</time>
      </trkpt>
      <trkpt lat="40.115991" lon="0.150057">
        <ele>6.043</ele>
        <time>1970-01-01T05:24:14Z</time>
      </trkpt>
      <trkpt lat="40.115933" lon="0.150035">
        <ele>6.049</ele>
        <time>1970-01-01T05:24:15Z</time>
      </trkpt>
      <trkpt lat="40.115876" lon="0.150014">
        <ele>6.013</ele>
        <time>1970-01-01T05:24:16Z</time>
      </trkpt>
      <trkpt lat="40.115818" lon="0.149994">
        <ele>6.094</ele>
        <time>1970-01-01T05:24:17Z</time>
      </trkpt>
      <trkpt lat="40.115759" lon="0.149972">
        <ele>5.951</ele>
        <time>1970-01-01T05:24:18Z</time>
      </trkpt>
      <trkpt lat="40.115704" lon="0.149949">
        <ele>5.801</ele>
        <time>1970-01-01T05:24:19Z</time>
      </trkpt>
      <trkpt lat="40.115650" lon="0.149925">
        <ele>5.711</ele>
        <time>1970-01-01T05:24:20Z</time>
      </trkpt>
      <trkpt lat="40.115595" lon="0.149905">
        <ele>5.708</ele>
        <time>1970-01-01T05:24:21Z</time>
      </trkpt>
      <trkpt lat="40.115540" lon="0.149885">
        <ele>5.612</ele>
        <time>1970-01-01T05:24:22Z</time>
      </trkpt>
      <trkpt lat="40.115485" lon="0.149865">
        <ele>5.439</ele>
        <time>1970-01-01T05:24:23Z</time>
      </trkpt>
      <trkpt lat="40.115430" lon="0.149844">
        <ele>5.220</ele>
        <time>1970-01-01T05:24:24Z</time>
      </trkpt>
      <trkpt lat="40.115374" lon="0.149825">
        <ele>5.133</ele>
        <time>1970-01-01T05:24:25Z</time>
      </trkpt>
      <trkpt lat="40.115316" lon="0.149806">
        <ele>5.043</ele>
        <time>1970-01-01T05:24:26Z</time>
      </trkpt>
      <trkpt lat="40.115258" lon="0.149789">
        <ele>5.059</ele>
        <time>1970-01-01T05:24:27Z</time>
      </trkpt>
      <trkpt lat="40.115202" lon="0.149770">
        <ele>5.053</ele>
        <time>1970-01-01T05:24:28Z</time>
      </trkpt>
      <trkpt lat="40.115145" lon="0.149751">
        <ele>5.074</ele>
        <time>1970-01-01T05:24:29Z</time>
      </trkpt>
      <trkpt lat="40.115089" lon="0.149731">
        <ele>5.072</ele>
        <time>1970-01-01T05:24:30Z</time>
      </trkpt>
      <trkpt lat="40.115035" lon="0.149711">
        <ele>5.013</ele>
        <time>1970-01-01T05:24:31Z</time>
      </trkpt>
      <trkpt lat="40.114983" lon="0.149692">
        <ele>5.114</ele>
        <time>1970-01-01T05:24:32Z</time>
      </trkpt>
      <trkpt lat="40.114927" lon="0.149673">
        <ele>5.208</ele>
        <time>1970-01-01T05:24:33Z</time>
      </trkpt>
      <trkpt lat="40.114874" lon="0.149657">
        <ele>5.294</ele>
        <time>1970-01-01T05:24:34Z</time>
      </trkpt>
      <trkpt lat="40.114824" lon="0.149643">
        <ele>5.391</ele>
        <time>1970-01-01T05:24:35Z</time>
      </trkpt>
      <trkpt lat="40.114771" lon="0.149625">
        <ele>5.392</ele>
        <time>1970-01-01T05:24:36Z</time>
      </trkpt>
      <trkpt lat="40.114720" lon="0.149607">
        <ele>5.455</ele>
        <time>1970-01-01T05:24:37Z</time>
      </trkpt>
      <trkpt lat="40.114668" lon="0.149587">
        <ele>5.595</ele>
        <time>1970-01-01T05:24:38Z</time>
      </trkpt>
      <trkpt lat="40.114616" lon="0.149565">
        <ele>5.631</ele>
        <time>1970-01-01T05:24:39Z</time>
      </trkpt>
      <trkpt lat="40.114567" lon="0.149545">
        <ele>5.615</ele>
        <time>1970-01-01T05:24:40Z</time>
      </trkpt>
      <trkpt lat="40.114517" lon="0.149527">
        <ele>5.756</ele>
        <time>1970-01-01T05:24:41Z</time>
      </trkpt>
      <trkpt lat="40.114466" lon="0.149505">
        <ele>5.896</ele>
        <time>1970-01-01T05:24:42Z</time>
      </trkpt>
      <trkpt lat="40.114421" lon="0.149482">
        <ele>5.831</ele>
        <time>1970-01-01T05:24:43Z</time>
      </trkpt>
      <trkpt lat="40.114373" lon="0.149457">
        <ele>5.724</ele>
        <time>1970-01-01T05:24:44Z</time>
      </trkpt>
      <trkpt lat="40.114323" lon="0.149433">
        <ele>5.608</ele>
        <time>1970-01-01T05:24:45Z</time>
      </trkpt>
      <trkpt lat="40.114271" lon="0.149412">
        <ele>5.446</ele>
        <time>1970-01-01T05:24:46Z</time>
      </trkpt>
      <trkpt lat="40.114219" lon="0.149392">
        <ele>5.383</ele>
        <time>1970-01-01T05:24:47Z</time>
      </trkpt>
      <trkpt lat="40.114164" lon="0.149371">
        <ele>5.324</ele>
        <time>1970-01-01T05:24:48Z</time>
      </trkpt>
      <trkpt lat="40.114113" lon="0.149351">
        <ele>5.327</ele>
        <time>1970-01-01T05:24:49Z</time>
      </trkpt>
      <trkpt lat="40.114062" lon="0.149332">
        <ele>5.337</ele>
        <time>1970-01-01T05:24:50Z</time>
      </trkpt>
      <trkpt lat="40.114011" lon="0.149311">
        <ele>5.293</ele>
        <time>1970-01-01T05:24:51Z</time>
      </trkpt>
      <trkpt lat="40.113958" lon="0.149289">
        <ele>5.137</ele>
        <time>1970-01-01T05:24:52Z</time>
      </trkpt>
      <trkpt lat="40.113904" lon="0.149267">
        <ele>5.088</ele>
        <time>1970-01-01T05:24:53Z</time>
      </trkpt>
      <trkpt lat="40.113851" lon="0.149242">
        <ele>5.046</ele>
        <time>1970-01-01T05:24:54Z</time>
      </trkpt>
      <trkpt lat="40.113797" lon="0.149218">
        <ele>5.088</ele>
        <time>1970-01-01T05:24:55Z</time>
      </trkpt>
      <trkpt lat="40.113742" lon="0.149194">
        <ele>5.016</ele>
        <time>1970-01-01T05:24:56Z</time>
      </trkpt>
      <trkpt lat="40.113687" lon="0.149173">
        <ele>5.008</ele>
        <time>1970-01-01T05:24:57Z</time>
      </trkpt>
      <trkpt lat="40.113632" lon="0.149150">
        <ele>5.041</ele>
        <time>1970-01-01T05:24:58Z</time>
      </trkpt>
      <trkpt lat="40.113577" lon="0.149125">
        <ele>5.148</ele>
        <time>1970-01-01T05:24:59Z</time>
      </trkpt>
      <trkpt lat="40.113520" lon="0.149102">
        <ele>5.369</ele>
        <time>1970-01-01T05:25:00Z</time>
      </trkpt>
      <trkpt lat="40.113459" lon="0.149080">
        <ele>5.472</ele>
        <time>1970-01-01T05:25:01Z</time>
      </trkpt>
      <trkpt lat="40.113400" lon="0.149057">
        <ele>5.562</ele>
        <time>1970-01-01T05:25:02Z</time>
      </trkpt>
      <trkpt lat="40.113342" lon="0.149042">
        <ele>5.598</ele>
        <time>1970-01-01T05:25:03Z</time>
      </trkpt>
      <trkpt lat="40.113286" lon="0.149020">
        <ele>5.632</ele>
        <time>1970-01-01T05:25:04Z</time>
      </trkpt>
      <trkpt lat="40.113222" lon="0.149002">
        <ele>5.653</ele>
        <time>1970-01-01T05:25:05Z</time>
      </trkpt>
      <trkpt lat="40.113161" lon="0.148980">
        <ele>5.778</ele>
        <time>1970-01-01T05:25:06Z</time>
      </trkpt>
      <trkpt lat="40.113098" lon="0.148958">
        <ele>5.933</ele>
        <time>1970-01-01T05:25:07Z</time>
      </trkpt>
      <trkpt lat="40.113042" lon="0.148941">
        <ele>6.026</ele>
        <time>1970-01-01T05:25:08Z</time>
      </trkpt>
      <trkpt lat="40.112986" lon="0.148921">
        <ele>6.008</ele>
        <time>1970-01-01T05:25:09Z</time>
      </trkpt>
      <trkpt lat="40.112928" lon="0.148897">
        <ele>6.034</ele>
        <time>1970-01-01T05:25:10Z</time>
      </trkpt>
      <trkpt lat="40.112873" lon="0.148871">
        <ele>6.081</ele>
        <time>1970-01-01T05:25:11Z</time>
      </trkpt>
      <trkpt lat="40.112815" lon="0.148844">
        <ele>6.082</ele>
        <time>1970-01-01T05:25:12Z</time>
      </trkpt>
      <trkpt lat="40.112760" lon="0.148821">
        <ele>6.095</ele>
        <time>1970-01-01T05:25:13Z</time>
      </trkpt>
      <trkpt lat="40.112703" lon="0.148800">
        <ele>5.895</ele>
        <time>1970-01-01T05:25:14Z</time>
      </trkpt>
      <trkpt lat="40.112644" lon="0.148780">
        <ele>5.791</ele>
        <time>1970-01-01T05:25:15Z</time>
      </trkpt>
      <trkpt lat="40.112587" lon="0.148759">
        <ele>5.655</ele>
        <time>1970-01-01T05:25:16Z</time>
      </trkpt>
      <trkpt lat="40.112529" lon="0.148738">
        <ele>5.626</ele>
        <time>1970-01-01T05:25:17Z</time>
      </trkpt>
      <trkpt lat="40.112473" lon="0.148716">
        <ele>5.623</ele>
        <time>1970-01-01T05:25:18Z</time>
      </trkpt>
      <trkpt lat="40.112415" lon="0.148689">
        <ele>5.783</ele>
        <time>1970-01-01T05:25:19Z</time>
      </trkpt>
      <trkpt lat="40.112356" lon="0.148665">
        <ele>5.811</ele>
        <time>1970-01-01T05:25:20Z</time>
      </trkpt>
      <trkpt lat="40.112296" lon="0.148642">
        <ele>5.908</ele>
        <time>1970-01-01T05:25:21Z</time>
      </trkpt>
      <trkpt lat="40.112238" lon="0.148621">
        <ele>6.039</ele>
        <time>1970-01-01T05:25:22Z</time>
      </trkpt>
      <trkpt lat="40.112180" lon="0.148597">
        <ele>6.136</ele>
        <time>1970-01-01T05:25:23Z</time>
      </trkpt>
      <trkpt lat="40.112121" lon="0.148573">
        <ele>6.157</ele>
        <time>1970-01-01T05:25:24Z</time>
      </trkpt>
      <trkpt lat="40.112063" lon="0.148551">
        <ele>6.240</ele>
        <time>1970-01-01T05:25:25Z</time>
      </trkpt>
      <trkpt lat="40.112006" lon="0.148528">
        <ele>6.350</ele>
        <time>1970-01-01T05:25:26Z</time>
      </trkpt>
      <trkpt lat="40.111945" lon="0.148506">
        <ele>6.456</ele>
        <time>1970-01-01T05:25:27Z</time>
      </trkpt>
      <trkpt lat="40.111883" lon="0.148481">
        <ele>6.440</ele>
        <time>1970-01-01T05:25:28Z</time>
      </trkpt>
      <trkpt lat="40.111822" lon="0.148458">
        <ele>6.481</ele>
        <time>1970-01-01T05:25:29Z</time>
      </trkpt>
      <trkpt lat="40.111764" lon="0.148436">
        <ele>6.454</ele>
        <time>1970-01-01T05:25:30Z</time>
      </trkpt>
      <trkpt lat="40.111704" lon="0.148413">
        <ele>6.556</ele>
        <time>1970-01-01T05:25:31Z</time>
      </trkpt>
      <trkpt lat="40.111643" lon="0.148390">
        <ele>6.511</ele>
        <time>1970-01-01T05:25:32Z</time>
      </trkpt>
      <trkpt lat="40.111582" lon="0.148367">
        <ele>6.508</ele>
        <time>1970-01-01T05:25:33Z</time>
      </trkpt>
      <trkpt lat="40.111521" lon="0.148343">
        <ele>6.482</ele>
        <time>1970-01-01T05:25:34Z</time>
      </trkpt>
      <trkpt lat="40.111458" lon="0.148320">
        <ele>6.389</ele>
        <time>1970-01-01T05:25:35Z</time>
      </trkpt>
      <trkpt lat="40.111401" lon="0.148295">
        <ele>6.220</ele>
        <time>1970-01-01T05:25:36Z</time>
      </trkpt>
      <trkpt lat="40.111346" lon="0.148269">
        <ele>6.383</ele>
        <time>1970-01-01T05:25:37Z</time>
      </trkpt>
      <trkpt lat="40.111288" lon="0.148240">
        <ele>6.663</ele>
        <time>1970-01-01T05:25:38Z</time>
      </trkpt>
      <trkpt lat="40.111229" lon="0.148215">
        <ele>6.829</ele>
        <time>1970-01-01T05:25:39Z</time>
      </trkpt>
      <trkpt lat="40.111177" lon="0.148182">
        <ele>6.923</ele>
        <time>1970-01-01T05:25:40Z</time>
      </trkpt>
      <trkpt lat="40.111123" lon="0.148155">
        <ele>7.084</ele>
        <time>1970-01-01T05:25:41Z</time>
      </trkpt>
      <trkpt lat="40.111070" lon="0.148130">
        <ele>6.998</ele>
        <time>1970-01-01T05:25:42Z</time>
      </trkpt>
      <trkpt lat="40.111015" lon="0.148104">
        <ele>6.715</ele>
        <time>1970-01-01T05:25:43Z</time>
      </trkpt>
      <trkpt lat="40.110960" lon="0.148079">
        <ele>6.526</ele>
        <time>1970-01-01T05:25:44Z</time>
      </trkpt>
      <trkpt lat="40.110901" lon="0.148054">
        <ele>6.208</ele>
        <time>1970-01-01T05:25:45Z</time>
      </trkpt>
      <trkpt lat="40.110846" lon="0.148029">
        <ele>6.026</ele>
        <time>1970-01-01T05:25:46Z</time>
      </trkpt>
      <trkpt lat="40.110794" lon="0.148009">
        <ele>6.013</ele>
        <time>1970-01-01T05:25:47Z</time>
      </trkpt>
      <trkpt lat="40.110739" lon="0.147988">
        <ele>5.924</ele>
        <time>1970-01-01T05:25:48Z</time>
      </trkpt>
      <trkpt lat="40.110686" lon="0.147967">
        <ele>5.827</ele>
        <time>1970-01-01T05:25:49Z</time>
      </trkpt>
      <trkpt lat="40.110617" lon="0.147934">
        <ele>5.757</ele>
        <time>1970-01-01T05:25:50Z</time>
      </trkpt>
      <trkpt lat="40.110536" lon="0.147891">
        <ele>5.423</ele>
        <time>1970-01-01T05:25:51Z</time>
      </trkpt>
      <trkpt lat="40.110470" lon="0.147858">
        <ele>5.577</ele>
        <time>1970-01-01T05:25:52Z</time>
      </trkpt>
      <trkpt lat="40.110412" lon="0.147830">
        <ele>5.688</ele>
        <time>1970-01-01T05:25:53Z</time>
      </trkpt>
      <trkpt lat="40.110357" lon="0.147806">
        <ele>5.725</ele>
        <time>1970-01-01T05:25:54Z</time>
      </trkpt>
      <trkpt lat="40.110305" lon="0.147785">
        <ele>5.926</ele>
        <time>1970-01-01T05:25:55Z</time>
      </trkpt>
      <trkpt lat="40.110254" lon="0.147766">
        <ele>6.108</ele>
        <time>1970-01-01T05:25:56Z</time>
      </trkpt>
      <trkpt lat="40.110201" lon="0.147745">
        <ele>6.208</ele>
        <time>1970-01-01T05:25:57Z</time>
      </trkpt>
      <trkpt lat="40.110147" lon="0.147724">
        <ele>6.429</ele>
        <time>1970-01-01T05:25:58Z</time>
      </trkpt>
      <trkpt lat="40.110093" lon="0.147703">
        <ele>6.516</ele>
        <time>1970-01-01T05:25:59Z</time>
      </trkpt>
      <trkpt lat="40.110039" lon="0.147683">
        <ele>6.657</ele>
        <time>1970-01-01T05:26:00Z</time>
      </trkpt>
      <trkpt lat="40.109984" lon="0.147663">
        <ele>6.690</ele>
        <time>1970-01-01T05:26:01Z</time>
      </trkpt>
      <trkpt lat="40.109930" lon="0.147643">
        <ele>6.440</ele>
        <time>1970-01-01T05:26:02Z</time>
      </trkpt>
      <trkpt lat="40.109874" lon="0.147627">
        <ele>6.216</ele>
        <time>1970-01-01T05:26:03Z</time>
      </trkpt>
      <trkpt lat="40.109822" lon="0.147610">
        <ele>6.140</ele>
        <time>1970-01-01T05:26:04Z</time>
      </trkpt>
      <trkpt lat="40.109769" lon="0.147593">
        <ele>6.111</ele>
        <time>1970-01-01T05:26:05Z</time>
      </trkpt>
      <trkpt lat="40.109712" lon="0.147576">
        <ele>6.051</ele>
        <time>1970-01-01T05:26:06Z</time>
      </trkpt>
      <trkpt lat="40.109656" lon="0.147564">
        <ele>6.301</ele>
        <time>1970-01-01T05:26:07Z</time>
      </trkpt>
      <trkpt lat="40.109601" lon="0.147548">
        <ele>6.511</ele>
        <time>1970-01-01T05:26:08Z</time>
      </trkpt>
      <trkpt lat="40.109546" lon="0.147529">
        <ele>6.708</ele>
        <time>1970-01-01T05:26:09Z</time>
      </trkpt>
      <trkpt lat="40.109489" lon="0.147513">
        <ele>6.932</ele>
        <time>1970-01-01T05:26:10Z</time>
      </trkpt>
      <trkpt lat="40.109435" lon="0.147504">
        <ele>7.069</ele>
        <time>1970-01-01T05:26:11Z</time>
      </trkpt>
      <trkpt lat="40.109381" lon="0.147501">
        <ele>7.040</ele>
        <time>1970-01-01T05:26:12Z</time>
      </trkpt>
      <trkpt lat="40.109326" lon="0.147503">
        <ele>7.083</ele>
        <time>1970-01-01T05:26:13Z</time>
      </trkpt>
      <trkpt lat="40.109272" lon="0.147504">
        <ele>7.083</ele>
        <time>1970-01-01T05:26:14Z</time>
      </trkpt>
      <trkpt lat="40.109224" lon="0.147507">
        <ele>7.089</ele>
        <time>1970-01-01T05:26:15Z</time>
      </trkpt>
      <trkpt lat="40.109178" lon="0.147510">
        <ele>7.093</ele>
        <time>1970-01-01T05:26:16Z</time>
      </trkpt>
      <trkpt lat="40.109126" lon="0.147513">
        <ele>7.044</ele>
        <time>1970-01-01T05:26:17Z</time>
      </trkpt>
      <trkpt lat="40.109071" lon="0.147512">
        <ele>7.034</ele>
        <time>1970-01-01T05:26:18Z</time>
      </trkpt>
      <trkpt lat="40.109019" lon="0.147509">
        <ele>7.055</ele>
        <time>1970-01-01T05:26:19Z</time>
      </trkpt>
      <trkpt lat="40.108967" lon="0.147505">
        <ele>7.010</ele>
        <time>1970-01-01T05:26:20Z</time>
      </trkpt>
      <trkpt lat="40.108915" lon="0.147496">
        <ele>7.008</ele>
        <time>1970-01-01T05:26:21Z</time>
      </trkpt>
      <trkpt lat="40.108864" lon="0.147482">
        <ele>6.890</ele>
        <time>1970-01-01T05:26:22Z</time>
      </trkpt>
      <trkpt lat="40.108811" lon="0.147465">
        <ele>6.597</ele>
        <time>1970-01-01T05:26:23Z</time>
      </trkpt>
      <trkpt lat="40.108758" lon="0.147444">
        <ele>6.178</ele>
        <time>1970-01-01T05:26:24Z</time>
      </trkpt>
      <trkpt lat="40.108707" lon="0.147414">
        <ele>5.761</ele>
        <time>1970-01-01T05:26:25Z</time>
      </trkpt>
      <trkpt lat="40.108659" lon="0.147372">
        <ele>5.321</ele>
        <time>1970-01-01T05:26:26Z</time>
      </trkpt>
      <trkpt lat="40.108613" lon="0.147321">
        <ele>4.797</ele>
        <time>1970-01-01T05:26:27Z</time>
      </trkpt>
      <trkpt lat="40.108566" lon="0.147257">
        <ele>4.241</ele>
        <time>1970-01-01T05:26:28Z</time>
      </trkpt>
      <trkpt lat="40.108514" lon="0.147177">
        <ele>3.822</ele>
        <time>1970-01-01T05:26:29Z</time>
      </trkpt>
      <trkpt lat="40.108468" lon="0.147090">
        <ele>3.347</ele>
        <time>1970-01-01T05:26:30Z</time>
      </trkpt>
      <trkpt lat="40.108428" lon="0.146991">
        <ele>2.629</ele>
        <time>1970-01-01T05:26:31Z</time>
      </trkpt>
      <trkpt lat="40.108393" lon="0.146882">
        <ele>2.021</ele>
        <time>1970-01-01T05:26:32Z</time>
      </trkpt>
      <trkpt lat="40.108353" lon="0.146774">
        <ele>1.508</ele>
        <time>1970-01-01T05:26:33Z</time>
      </trkpt>
      <trkpt lat="40.108305" lon="0.146681">
        <ele>1.081</ele>
        <time>1970-01-01T05:26:34Z</time>
      </trkpt>
      <trkpt lat="40.108250" lon="0.146613">
        <ele>1.298</ele>
        <time>1970-01-01T05:26:35Z</time>
      </trkpt>
      <trkpt lat="40.108194" lon="0.146565">
        <ele>1.489</ele>
        <time>1970-01-01T05:26:36Z</time>
      </trkpt>
      <trkpt lat="40.108135" lon="0.146532">
        <ele>1.532</ele>
        <time>1970-01-01T05:26:37Z</time>
      </trkpt>
      <trkpt lat="40.108081" lon="0.146510">
        <ele>1.662</ele>
        <time>1970-01-01T05:26:38Z</time>
      </trkpt>
      <trkpt lat="40.108031" lon="0.146492">
        <ele>1.658</ele>
        <time>1970-01-01T05:26:39Z</time>
      </trkpt>
      <trkpt lat="40.107982" lon="0.146476">
        <ele>1.732</ele>
        <time>1970-01-01T05:26:40Z</time>
      </trkpt>
      <trkpt lat="40.107934" lon="0.146461">
        <ele>1.713</ele>
        <time>1970-01-01T05:26:41Z</time>
      </trkpt>
      <trkpt lat="40.107886" lon="0.146448">
        <ele>1.877</ele>
        <time>1970-01-01T05:26:42Z</time>
      </trkpt>
      <trkpt lat="40.107838" lon="0.146435">
        <ele>1.861</ele>
        <time>1970-01-01T05:26:43Z</time>
      </trkpt>
      <trkpt lat="40.107789" lon="0.146421">
        <ele>1.927</ele>
        <time>1970-01-01T05:26:44Z</time>
      </trkpt>
      <trkpt lat="40.107740" lon="0.146405">
        <ele>2.108</ele>
        <time>1970-01-01T05:26:45Z</time>
      </trkpt>
      <trkpt lat="40.107688" lon="0.146389">
        <ele>2.344</ele>
        <time>1970-01-01T05:26:46Z</time>
      </trkpt>
      <trkpt lat="40.107636" lon="0.146370">
        <ele>2.681</ele>
        <time>1970-01-01T05:26:47Z</time>
      </trkpt>
      <trkpt lat="40.107583" lon="0.146347">
        <ele>3.092</ele>
        <time>1970-01-01T05:26:48Z</time>
      </trkpt>
      <trkpt lat="40.107531" lon="0.146324">
        <ele>3.445</ele>
        <time>1970-01-01T05:26:49Z</time>
      </trkpt>
      <trkpt lat="40.107478" lon="0.146298">
        <ele>3.725</ele>
        <time>1970-01-01T05:26:50Z</time>
      </trkpt>
      <trkpt lat="40.107425" lon="0.146270">
        <ele>3.931</ele>
        <time>1970-01-01T05:26:51Z</time>
      </trkpt>
      <trkpt lat="40.107373" lon="0.146243">
        <ele>4.055</ele>
        <time>1970-01-01T05:26:52Z</time>
      </trkpt>
      <trkpt lat="40.107318" lon="0.146213">
        <ele>4.156</ele>
        <time>1970-01-01T05:26:53Z</time>
      </trkpt>
      <trkpt lat="40.107264" lon="0.146180">
        <ele>4.142</ele>
        <time>1970-01-01T05:26:54Z</time>
      </trkpt>
      <trkpt lat="40.107210" lon="0.146144">
        <ele>4.022</ele>
        <time>1970-01-01T05:26:55Z</time>
      </trkpt>
      <trkpt lat="40.107156" lon="0.146111">
        <ele>3.814</ele>
        <time>1970-01-01T05:26:56Z</time>
      </trkpt>
      <trkpt lat="40.107102" lon="0.146080">
        <ele>3.708</ele>
        <time>1970-01-01T05:26:57Z</time>
      </trkpt>
      <trkpt lat="40.107048" lon="0.146046">
        <ele>3.611</ele>
        <time>1970-01-01T05:26:58Z</time>
      </trkpt>
      <trkpt lat="40.106991" lon="0.146013">
        <ele>3.598</ele>
        <time>1970-01-01T05:26:59Z</time>
      </trkpt>
      <trkpt lat="40.106934" lon="0.145978">
        <ele>3.419</ele>
        <time>1970-01-01T05:27:00Z</time>
      </trkpt>
      <trkpt lat="40.106877" lon="0.145948">
        <ele>3.312</ele>
        <time>1970-01-01T05:27:01Z</time>
      </trkpt>
      <trkpt lat="40.106820" lon="0.145916">
        <ele>3.382</ele>
        <time>1970-01-01T05:27:02Z</time>
      </trkpt>
      <trkpt lat="40.106762" lon="0.145883">
        <ele>3.288</ele>
        <time>1970-01-01T05:27:03Z</time>
      </trkpt>
      <trkpt lat="40.106705" lon="0.145847">
        <ele>3.152</ele>
        <time>1970-01-01T05:27:04Z</time>
      </trkpt>
      <trkpt lat="40.106648" lon="0.145809">
        <ele>2.923</ele>
        <time>1970-01-01T05:27:05Z</time>
      </trkpt>
      <trkpt lat="40.106591" lon="0.145771">
        <ele>2.795</ele>
        <time>1970-01-01T05:27:06Z</time>
      </trkpt>
      <trkpt lat="40.106533" lon="0.145734">
        <ele>2.549</ele>
        <time>1970-01-01T05:27:07Z</time>
      </trkpt>
      <trkpt lat="40.106475" lon="0.145695">
        <ele>2.323</ele>
        <time>1970-01-01T05:27:08Z</time>
      </trkpt>
      <trkpt lat="40.106417" lon="0.145657">
        <ele>2.108</ele>
        <time>1970-01-01T05:27:09Z</time>
      </trkpt>
      <trkpt lat="40.106358" lon="0.145620">
        <ele>2.046</ele>
        <time>1970-01-01T05:27:10Z</time>
      </trkpt>
      <trkpt lat="40.106300" lon="0.145584">
        <ele>2.023</ele>
        <time>1970-01-01T05:27:11Z</time>
      </trkpt>
      <trkpt lat="40.106242" lon="0.145547">
        <ele>2.084</ele>
        <time>1970-01-01T05:27:12Z</time>
      </trkpt>
      <trkpt lat="40.106184" lon="0.145509">
        <ele>2.017</ele>
        <time>1970-01-01T05:27:13Z</time>
      </trkpt>
      <trkpt lat="40.106125" lon="0.145470">
        <ele>2.057</ele>
        <time>1970-01-01T05:27:14Z</time>
      </trkpt>
      <trkpt lat="40.106067" lon="0.145430">
        <ele>2.183</ele>
        <time>1970-01-01T05:27:15Z</time>
      </trkpt>
      <trkpt lat="40.106007" lon="0.145391">
        <ele>2.237</ele>
        <time>1970-01-01T05:27:16Z</time>
      </trkpt>
      <trkpt lat="40.105948" lon="0.145352">
        <ele>2.498</ele>
        <time>1970-01-01T05:27:17Z</time>
      </trkpt>
      <trkpt lat="40.105888" lon="0.145314">
        <ele>2.752</ele>
        <time>1970-01-01T05:27:18Z</time>
      </trkpt>
      <trkpt lat="40.105828" lon="0.145276">
        <ele>3.053</ele>
        <time>1970-01-01T05:27:19Z</time>
      </trkpt>
      <trkpt lat="40.105768" lon="0.145237">
        <ele>3.108</ele>
        <time>1970-01-01T05:27:20Z</time>
      </trkpt>
      <trkpt lat="40.105707" lon="0.145198">
        <ele>3.208</ele>
        <time>1970-01-01T05:27:21Z</time>
      </trkpt>
      <trkpt lat="40.105651" lon="0.145160">
        <ele>3.132</ele>
        <time>1970-01-01T05:27:22Z</time>
      </trkpt>
      <trkpt lat="40.105588" lon="0.145122">
        <ele>3.189</ele>
        <time>1970-01-01T05:27:23Z</time>
      </trkpt>
      <trkpt lat="40.105529" lon="0.145085">
        <ele>3.060</ele>
        <time>1970-01-01T05:27:24Z</time>
      </trkpt>
      <trkpt lat="40.105469" lon="0.145047">
        <ele>2.983</ele>
        <time>1970-01-01T05:27:25Z</time>
      </trkpt>
      <trkpt lat="40.105410" lon="0.145009">
        <ele>3.093</ele>
        <time>1970-01-01T05:27:26Z</time>
      </trkpt>
      <trkpt lat="40.105350" lon="0.144970">
        <ele>3.099</ele>
        <time>1970-01-01T05:27:27Z</time>
      </trkpt>
      <trkpt lat="40.105291" lon="0.144931">
        <ele>3.063</ele>
        <time>1970-01-01T05:27:28Z</time>
      </trkpt>
      <trkpt lat="40.105232" lon="0.144893">
        <ele>2.994</ele>
        <time>1970-01-01T05:27:29Z</time>
      </trkpt>
      <trkpt lat="40.105172" lon="0.144857">
        <ele>2.862</ele>
        <time>1970-01-01T05:27:30Z</time>
      </trkpt>
      <trkpt lat="40.105113" lon="0.144820">
        <ele>2.883</ele>
        <time>1970-01-01T05:27:31Z</time>
      </trkpt>
      <trkpt lat="40.105053" lon="0.144783">
        <ele>2.811</ele>
        <time>1970-01-01T05:27:32Z</time>
      </trkpt>
      <trkpt lat="40.104995" lon="0.144746">
        <ele>2.908</ele>
        <time>1970-01-01T05:27:33Z</time>
      </trkpt>
      <trkpt lat="40.104935" lon="0.144710">
        <ele>3.063</ele>
        <time>1970-01-01T05:27:34Z</time>
      </trkpt>
      <trkpt lat="40.104876" lon="0.144675">
        <ele>3.030</ele>
        <time>1970-01-01T05:27:35Z</time>
      </trkpt>
      <trkpt lat="40.104816" lon="0.144639">
        <ele>3.061</ele>
        <time>1970-01-01T05:27:36Z</time>
      </trkpt>
      <trkpt lat="40.104756" lon="0.144607">
        <ele>3.064</ele>
        <time>1970-01-01T05:27:37Z</time>
      </trkpt>
      <trkpt lat="40.104694" lon="0.144580">
        <ele>2.984</ele>
        <time>1970-01-01T05:27:38Z</time>
      </trkpt>
      <trkpt lat="40.104631" lon="0.144556">
        <ele>2.870</ele>
        <time>1970-01-01T05:27:39Z</time>
      </trkpt>
      <trkpt lat="40.104565" lon="0.144539">
        <ele>2.664</ele>
        <time>1970-01-01T05:27:40Z</time>
      </trkpt>
      <trkpt lat="40.104500" lon="0.144525">
        <ele>2.415</ele>
        <time>1970-01-01T05:27:41Z</time>
      </trkpt>
      <trkpt lat="40.104433" lon="0.144514">
        <ele>2.289</ele>
        <time>1970-01-01T05:27:42Z</time>
      </trkpt>
      <trkpt lat="40.104368" lon="0.144500">
        <ele>2.106</ele>
        <time>1970-01-01T05:27:43Z</time>
      </trkpt>
      <trkpt lat="40.104304" lon="0.144484">
        <ele>2.126</ele>
        <time>1970-01-01T05:27:44Z</time>
      </trkpt>
      <trkpt lat="40.104240" lon="0.144466">
        <ele>2.008</ele>
        <time>1970-01-01T05:27:45Z</time>
      </trkpt>
      <trkpt lat="40.104177" lon="0.144450">
        <ele>2.095</ele>
        <time>1970-01-01T05:27:46Z</time>
      </trkpt>
      <trkpt lat="40.104115" lon="0.144437">
        <ele>1.812</ele>
        <time>1970-01-01T05:27:47Z</time>
      </trkpt>
      <trkpt lat="40.104054" lon="0.144425">
        <ele>1.683</ele>
        <time>1970-01-01T05:27:48Z</time>
      </trkpt>
      <trkpt lat="40.103993" lon="0.144413">
        <ele>1.416</ele>
        <time>1970-01-01T05:27:49Z</time>
      </trkpt>
      <trkpt lat="40.103933" lon="0.144401">
        <ele>1.316</ele>
        <time>1970-01-01T05:27:50Z</time>
      </trkpt>
      <trkpt lat="40.103875" lon="0.144389">
        <ele>1.222</ele>
        <time>1970-01-01T05:27:51Z</time>
      </trkpt>
      <trkpt lat="40.103819" lon="0.144374">
        <ele>1.526</ele>
        <time>1970-01-01T05:27:52Z</time>
      </trkpt>
      <trkpt lat="40.103766" lon="0.144350">
        <ele>1.817</ele>
        <time>1970-01-01T05:27:53Z</time>
      </trkpt>
      <trkpt lat="40.103721" lon="0.144310">
        <ele>2.148</ele>
        <time>1970-01-01T05:27:54Z</time>
      </trkpt>
      <trkpt lat="40.103690" lon="0.144249">
        <ele>2.461</ele>
        <time>1970-01-01T05:27:55Z</time>
      </trkpt>
      <trkpt lat="40.103672" lon="0.144179">
        <ele>2.717</ele>
        <time>1970-01-01T05:27:56Z</time>
      </trkpt>
      <trkpt lat="40.103664" lon="0.144099">
        <ele>2.808</ele>
        <time>1970-01-01T05:27:57Z</time>
      </trkpt>
      <trkpt lat="40.103662" lon="0.144012">
        <ele>2.881</ele>
        <time>1970-01-01T05:27:58Z</time>
      </trkpt>
      <trkpt lat="40.103665" lon="0.143924">
        <ele>2.828</ele>
        <time>1970-01-01T05:27:59Z</time>
      </trkpt>
      <trkpt lat="40.103658" lon="0.143838">
        <ele>2.899</ele>
        <time>1970-01-01T05:28:00Z</time>
      </trkpt>
      <trkpt lat="40.103631" lon="0.143766">
        <ele>2.962</ele>
        <time>1970-01-01T05:28:01Z</time>
      </trkpt>
      <trkpt lat="40.103594" lon="0.143711">
        <ele>3.092</ele>
        <time>1970-01-01T05:28:02Z</time>
      </trkpt>
      <trkpt lat="40.103555" lon="0.143665">
        <ele>3.078</ele>
        <time>1970-01-01T05:28:03Z</time>
      </trkpt>
      <trkpt lat="40.103516" lon="0.143618">
        <ele>3.032</ele>
        <time>1970-01-01T05:28:04Z</time>
      </trkpt>
      <trkpt lat="40.103476" lon="0.143575">
        <ele>3.093</ele>
        <time>1970-01-01T05:28:05Z</time>
      </trkpt>
      <trkpt lat="40.103435" lon="0.143536">
        <ele>3.037</ele>
        <time>1970-01-01T05:28:06Z</time>
      </trkpt>
      <trkpt lat="40.103392" lon="0.143499">
        <ele>3.049</ele>
        <time>1970-01-01T05:28:07Z</time>
      </trkpt>
      <trkpt lat="40.103349" lon="0.143462">
        <ele>3.013</ele>
        <time>1970-01-01T05:28:08Z</time>
      </trkpt>
      <trkpt lat="40.103301" lon="0.143421">
        <ele>3.008</ele>
        <time>1970-01-01T05:28:09Z</time>
      </trkpt>
      <trkpt lat="40.103253" lon="0.143381">
        <ele>3.020</ele>
        <time>1970-01-01T05:28:10Z</time>
      </trkpt>
      <trkpt lat="40.103207" lon="0.143340">
        <ele>3.097</ele>
        <time>1970-01-01T05:28:11Z</time>
      </trkpt>
      <trkpt lat="40.103160" lon="0.143301">
        <ele>3.118</ele>
        <time>1970-01-01T05:28:12Z</time>
      </trkpt>
      <trkpt lat="40.103114" lon="0.143260">
        <ele>3.331</ele>
        <time>1970-01-01T05:28:13Z</time>
      </trkpt>
      <trkpt lat="40.103065" lon="0.143219">
        <ele>3.421</ele>
        <time>1970-01-01T05:28:14Z</time>
      </trkpt>
      <trkpt lat="40.103014" lon="0.143177">
        <ele>3.527</ele>
        <time>1970-01-01T05:28:15Z</time>
      </trkpt>
      <trkpt lat="40.102964" lon="0.143134">
        <ele>3.591</ele>
        <time>1970-01-01T05:28:16Z</time>
      </trkpt>
      <trkpt lat="40.102913" lon="0.143093">
        <ele>3.432</ele>
        <time>1970-01-01T05:28:17Z</time>
      </trkpt>
      <trkpt lat="40.102861" lon="0.143054">
        <ele>3.384</ele>
        <time>1970-01-01T05:28:18Z</time>
      </trkpt>
      <trkpt lat="40.102809" lon="0.143012">
        <ele>3.107</ele>
        <time>1970-01-01T05:28:19Z</time>
      </trkpt>
      <trkpt lat="40.102758" lon="0.142968">
        <ele>2.917</ele>
        <time>1970-01-01T05:28:20Z</time>
      </trkpt>
      <trkpt lat="40.102707" lon="0.142923">
        <ele>2.708</ele>
        <time>1970-01-01T05:28:21Z</time>
      </trkpt>
      <trkpt lat="40.102657" lon="0.142875">
        <ele>2.675</ele>
        <time>1970-01-01T05:28:22Z</time>
      </trkpt>
      <trkpt lat="40.102607" lon="0.142830">
        <ele>2.442</ele>
        <time>1970-01-01T05:28:23Z</time>
      </trkpt>
      <trkpt lat="40.102556" lon="0.142789">
        <ele>2.263</ele>
        <time>1970-01-01T05:28:24Z</time>
      </trkpt>
      <trkpt lat="40.102505" lon="0.142751">
        <ele>2.036</ele>
        <time>1970-01-01T05:28:25Z</time>
      </trkpt>
      <trkpt lat="40.102454" lon="0.142712">
        <ele>2.086</ele>
        <time>1970-01-01T05:28:26Z</time>
      </trkpt>
      <trkpt lat="40.102402" lon="0.142672">
        <ele>2.012</ele>
        <time>1970-01-01T05:28:27Z</time>
      </trkpt>
      <trkpt lat="40.102352" lon="0.142629">
        <ele>2.036</ele>
        <time>1970-01-01T05:28:28Z</time>
      </trkpt>
      <trkpt lat="40.102303" lon="0.142585">
        <ele>2.067</ele>
        <time>1970-01-01T05:28:29Z</time>
      </trkpt>
      <trkpt lat="40.102252" lon="0.142545">
        <ele>2.037</ele>
        <time>1970-01-01T05:28:30Z</time>
      </trkpt>
      <trkpt lat="40.102200" lon="0.142505">
        <ele>2.049</ele>
        <time>1970-01-01T05:28:31Z</time>
      </trkpt>
      <trkpt lat="40.102149" lon="0.142464">
        <ele>2.013</ele>
        <time>1970-01-01T05:28:32Z</time>
      </trkpt>
      <trkpt lat="40.102097" lon="0.142425">
        <ele>2.008</ele>
        <time>1970-01-01T05:28:33Z</time>
      </trkpt>
      <trkpt lat="40.102045" lon="0.142388">
        <ele>2.080</ele>
        <time>1970-01-01T05:28:34Z</time>
      </trkpt>
      <trkpt lat="40.101991" lon="0.142350">
        <ele>2.077</ele>
        <time>1970-01-01T05:28:35Z</time>
      </trkpt>
      <trkpt lat="40.101940" lon="0.142311">
        <ele>2.028</ele>
        <time>1970-01-01T05:28:36Z</time>
      </trkpt>
      <trkpt lat="40.101888" lon="0.142273">
        <ele>2.261</ele>
        <time>1970-01-01T05:28:37Z</time>
      </trkpt>
      <trkpt lat="40.101835" lon="0.142235">
        <ele>2.421</ele>
        <time>1970-01-01T05:28:38Z</time>
      </trkpt>
      <trkpt lat="40.101781" lon="0.142196">
        <ele>2.697</ele>
        <time>1970-01-01T05:28:39Z</time>
      </trkpt>
      <trkpt lat="40.101727" lon="0.142157">
        <ele>2.871</ele>
        <time>1970-01-01T05:28:40Z</time>
      </trkpt>
      <trkpt lat="40.101673" lon="0.142118">
        <ele>3.082</ele>
        <time>1970-01-01T05:28:41Z</time>
      </trkpt>
      <trkpt lat="40.101618" lon="0.142079">
        <ele>3.261</ele>
        <time>1970-01-01T05:28:42Z</time>
      </trkpt>
      <trkpt lat="40.101561" lon="0.142041">
        <ele>3.421</ele>
        <time>1970-01-01T05:28:43Z</time>
      </trkpt>
      <trkpt lat="40.101505" lon="0.142003">
        <ele>3.613</ele>
        <time>1970-01-01T05:28:44Z</time>
      </trkpt>
      <trkpt lat="40.101448" lon="0.141965">
        <ele>3.808</ele>
        <time>1970-01-01T05:28:45Z</time>
      </trkpt>
      <trkpt lat="40.101391" lon="0.141926">
        <ele>3.983</ele>
        <time>1970-01-01T05:28:46Z</time>
      </trkpt>
      <trkpt lat="40.101333" lon="0.141888">
        <ele>3.610</ele>
        <time>1970-01-01T05:28:47Z</time>
      </trkpt>
      <trkpt lat="40.101273" lon="0.141851">
        <ele>3.241</ele>
        <time>1970-01-01T05:28:48Z</time>
      </trkpt>
      <trkpt lat="40.101213" lon="0.141814">
        <ele>2.994</ele>
        <time>1970-01-01T05:28:49Z</time>
      </trkpt>
      <trkpt lat="40.101153" lon="0.141775">
        <ele>2.584</ele>
        <time>1970-01-01T05:28:50Z</time>
      </trkpt>
      <trkpt lat="40.101094" lon="0.141735">
        <ele>2.250</ele>
        <time>1970-01-01T05:28:51Z</time>
      </trkpt>
      <trkpt lat="40.101036" lon="0.141696">
        <ele>2.144</ele>
        <time>1970-01-01T05:28:52Z</time>
      </trkpt>
      <trkpt lat="40.100978" lon="0.141656">
        <ele>2.045</ele>
        <time>1970-01-01T05:28:53Z</time>
      </trkpt>
      <trkpt lat="40.100918" lon="0.141617">
        <ele>1.827</ele>
        <time>1970-01-01T05:28:54Z</time>
      </trkpt>
      <trkpt lat="40.100859" lon="0.141577">
        <ele>1.768</ele>
        <time>1970-01-01T05:28:55Z</time>
      </trkpt>
      <trkpt lat="40.100800" lon="0.141536">
        <ele>1.514</ele>
        <time>1970-01-01T05:28:56Z</time>
      </trkpt>
      <trkpt lat="40.100741" lon="0.141496">
        <ele>1.408</ele>
        <time>1970-01-01T05:28:57Z</time>
      </trkpt>
      <trkpt lat="40.100681" lon="0.141457">
        <ele>1.269</ele>
        <time>1970-01-01T05:28:58Z</time>
      </trkpt>
      <trkpt lat="40.100623" lon="0.141416">
        <ele>1.126</ele>
        <time>1970-01-01T05:28:59Z</time>
      </trkpt>
      <trkpt lat="40.100566" lon="0.141377">
        <ele>1.097</ele>
        <time>1970-01-01T05:29:00Z</time>
      </trkpt>
      <trkpt lat="40.100510" lon="0.141340">
        <ele>1.250</ele>
        <time>1970-01-01T05:29:01Z</time>
      </trkpt>
      <trkpt lat="40.100455" lon="0.141304">
        <ele>1.480</ele>
        <time>1970-01-01T05:29:02Z</time>
      </trkpt>
      <trkpt lat="40.100399" lon="0.141269">
        <ele>1.626</ele>
        <time>1970-01-01T05:29:03Z</time>
      </trkpt>
      <trkpt lat="40.100344" lon="0.141232">
        <ele>1.860</ele>
        <time>1970-01-01T05:29:04Z</time>
      </trkpt>
      <trkpt lat="40.100289" lon="0.141196">
        <ele>2.071</ele>
        <time>1970-01-01T05:29:05Z</time>
      </trkpt>
      <trkpt lat="40.100232" lon="0.141162">
        <ele>2.087</ele>
        <time>1970-01-01T05:29:06Z</time>
      </trkpt>
      <trkpt lat="40.100176" lon="0.141128">
        <ele>2.042</ele>
        <time>1970-01-01T05:29:07Z</time>
      </trkpt>
      <trkpt lat="40.100121" lon="0.141090">
        <ele>2.026</ele>
        <time>1970-01-01T05:29:08Z</time>
      </trkpt>
      <trkpt lat="40.100066" lon="0.141050">
        <ele>2.008</ele>
        <time>1970-01-01T05:29:09Z</time>
      </trkpt>
      <trkpt lat="40.100010" lon="0.141011">
        <ele>2.075</ele>
        <time>1970-01-01T05:29:10Z</time>
      </trkpt>
      <trkpt lat="40.099955" lon="0.140971">
        <ele>2.082</ele>
        <time>1970-01-01T05:29:11Z</time>
      </trkpt>
      <trkpt lat="40.099899" lon="0.140931">
        <ele>2.073</ele>
        <time>1970-01-01T05:29:12Z</time>
      </trkpt>
      <trkpt lat="40.099842" lon="0.140892">
        <ele>2.066</ele>
        <time>1970-01-01T05:29:13Z</time>
      </trkpt>
      <trkpt lat="40.099785" lon="0.140854">
        <ele>2.016</ele>
        <time>1970-01-01T05:29:14Z</time>
      </trkpt>
      <trkpt lat="40.099728" lon="0.140815">
        <ele>2.132</ele>
        <time>1970-01-01T05:29:15Z</time>
      </trkpt>
      <trkpt lat="40.099670" lon="0.140776">
        <ele>2.036</ele>
        <time>1970-01-01T05:29:16Z</time>
      </trkpt>
      <trkpt lat="40.099613" lon="0.140737">
        <ele>1.837</ele>
        <time>1970-01-01T05:29:17Z</time>
      </trkpt>
      <trkpt lat="40.099555" lon="0.140698">
        <ele>1.665</ele>
        <time>1970-01-01T05:29:18Z</time>
      </trkpt>
      <trkpt lat="40.099498" lon="0.140657">
        <ele>1.368</ele>
        <time>1970-01-01T05:29:19Z</time>
      </trkpt>
      <trkpt lat="40.099441" lon="0.140615">
        <ele>1.014</ele>
        <time>1970-01-01T05:29:20Z</time>
      </trkpt>
      <trkpt lat="40.099384" lon="0.140576">
        <ele>1.008</ele>
        <time>1970-01-01T05:29:21Z</time>
      </trkpt>
      <trkpt lat="40.099326" lon="0.140538">
        <ele>1.083</ele>
        <time>1970-01-01T05:29:22Z</time>
      </trkpt>
      <trkpt lat="40.099271" lon="0.140496">
        <ele>0.970</ele>
        <time>1970-01-01T05:29:23Z</time>
      </trkpt>
      <trkpt lat="40.099218" lon="0.140449">
        <ele>0.771</ele>
        <time>1970-01-01T05:29:24Z</time>
      </trkpt>
      <trkpt lat="40.099164" lon="0.140403">
        <ele>0.594</ele>
        <time>1970-01-01T05:29:25Z</time>
      </trkpt>
      <trkpt lat="40.099109" lon="0.140362">
        <ele>0.484</ele>
        <time>1970-01-01T05:29:26Z</time>
      </trkpt>
      <trkpt lat="40.099053" lon="0.140323">
        <ele>0.530</ele>
        <time>1970-01-01T05:29:27Z</time>
      </trkpt>
      <trkpt lat="40.098996" lon="0.140286">
        <ele>0.694</ele>
        <time>1970-01-01T05:29:28Z</time>
      </trkpt>
      <trkpt lat="40.098940" lon="0.140249">
        <ele>0.795</ele>
        <time>1970-01-01T05:29:29Z</time>
      </trkpt>
      <trkpt lat="40.098885" lon="0.140212">
        <ele>0.881</ele>
        <time>1970-01-01T05:29:30Z</time>
      </trkpt>
      <trkpt lat="40.098829" lon="0.140175">
        <ele>0.761</ele>
        <time>1970-01-01T05:29:31Z</time>
      </trkpt>
      <trkpt lat="40.098774" lon="0.140137">
        <ele>0.717</ele>
        <time>1970-01-01T05:29:32Z</time>
      </trkpt>
      <trkpt lat="40.098720" lon="0.140097">
        <ele>0.708</ele>
        <time>1970-01-01T05:29:33Z</time>
      </trkpt>
      <trkpt lat="40.098666" lon="0.140057">
        <ele>0.845</ele>
        <time>1970-01-01T05:29:34Z</time>
      </trkpt>
      <trkpt lat="40.098612" lon="0.140019">
        <ele>1.092</ele>
        <time>1970-01-01T05:29:35Z</time>
      </trkpt>
      <trkpt lat="40.098558" lon="0.139982">
        <ele>0.943</ele>
        <time>1970-01-01T05:29:36Z</time>
      </trkpt>
      <trkpt lat="40.098505" lon="0.139942">
        <ele>0.946</ele>
        <time>1970-01-01T05:29:37Z</time>
      </trkpt>
      <trkpt lat="40.098454" lon="0.139898">
        <ele>0.876</ele>
        <time>1970-01-01T05:29:38Z</time>
      </trkpt>
      <trkpt lat="40.098402" lon="0.139856">
        <ele>0.972</ele>
        <time>1970-01-01T05:29:39Z</time>
      </trkpt>
      <trkpt lat="40.098350" lon="0.139815">
        <ele>1.056</ele>
        <time>1970-01-01T05:29:40Z</time>
      </trkpt>
      <trkpt lat="40.098298" lon="0.139775">
        <ele>1.017</ele>
        <time>1970-01-01T05:29:41Z</time>
      </trkpt>
      <trkpt lat="40.098245" lon="0.139734">
        <ele>1.046</ele>
        <time>1970-01-01T05:29:42Z</time>
      </trkpt>
      <trkpt lat="40.098191" lon="0.139699">
        <ele>1.088</ele>
        <time>1970-01-01T05:29:43Z</time>
      </trkpt>
      <trkpt lat="40.098137" lon="0.139663">
        <ele>1.016</ele>
        <time>1970-01-01T05:29:44Z</time>
      </trkpt>
      <trkpt lat="40.098084" lon="0.139625">
        <ele>1.008</ele>
        <time>1970-01-01T05:29:45Z</time>
      </trkpt>
      <trkpt lat="40.098031" lon="0.139586">
        <ele>1.011</ele>
        <time>1970-01-01T05:29:46Z</time>
      </trkpt>
      <trkpt lat="40.097980" lon="0.139546">
        <ele>1.018</ele>
        <time>1970-01-01T05:29:47Z</time>
      </trkpt>
      <trkpt lat="40.097927" lon="0.139507">
        <ele>1.039</ele>
        <time>1970-01-01T05:29:48Z</time>
      </trkpt>
      <trkpt lat="40.097873" lon="0.139470">
        <ele>1.092</ele>
        <time>1970-01-01T05:29:49Z</time>
      </trkpt>
      <trkpt lat="40.097820" lon="0.139431">
        <ele>1.032</ele>
        <time>1970-01-01T05:29:50Z</time>
      </trkpt>
      <trkpt lat="40.097766" lon="0.139392">
        <ele>1.088</ele>
        <time>1970-01-01T05:29:51Z</time>
      </trkpt>
      <trkpt lat="40.097713" lon="0.139356">
        <ele>1.012</ele>
        <time>1970-01-01T05:29:52Z</time>
      </trkpt>
      <trkpt lat="40.097660" lon="0.139323">
        <ele>1.053</ele>
        <time>1970-01-01T05:29:53Z</time>
      </trkpt>
      <trkpt lat="40.097608" lon="0.139289">
        <ele>1.015</ele>
        <time>1970-01-01T05:29:54Z</time>
      </trkpt>
      <trkpt lat="40.097556" lon="0.139252">
        <ele>1.065</ele>
        <time>1970-01-01T05:29:55Z</time>
      </trkpt>
      <trkpt lat="40.097506" lon="0.139213">
        <ele>1.011</ele>
        <time>1970-01-01T05:29:56Z</time>
      </trkpt>
      <trkpt lat="40.097457" lon="0.139174">
        <ele>1.008</ele>
        <time>1970-01-01T05:29:57Z</time>
      </trkpt>
      <trkpt lat="40.097407" lon="0.139136">
        <ele>0.988</ele>
        <time>1970-01-01T05:29:58Z</time>
      </trkpt>
      <trkpt lat="40.097358" lon="0.139098">
        <ele>0.985</ele>
        <time>1970-01-01T05:29:59Z</time>
      </trkpt>
      <trkpt lat="40.097307" lon="0.139061">
        <ele>0.996</ele>
        <time>1970-01-01T05:30:00Z</time>
      </trkpt>
      <trkpt lat="40.097254" lon="0.139026">
        <ele>0.979</ele>
        <time>1970-01-01T05:30:01Z</time>
      </trkpt>
      <trkpt lat="40.097202" lon="0.138992">
        <ele>1.199</ele>
        <time>1970-01-01T05:30:02Z</time>
      </trkpt>
      <trkpt lat="40.097151" lon="0.138958">
        <ele>1.485</ele>
        <time>1970-01-01T05:30:03Z</time>
      </trkpt>
      <trkpt lat="40.097103" lon="0.138925">
        <ele>1.879</ele>
        <time>1970-01-01T05:30:04Z</time>
      </trkpt>
      <trkpt lat="40.097057" lon="0.138891">
        <ele>2.210</ele>
        <time>1970-01-01T05:30:05Z</time>
      </trkpt>
      <trkpt lat="40.097011" lon="0.138861">
        <ele>2.518</ele>
        <time>1970-01-01T05:30:06Z</time>
      </trkpt>
      <trkpt lat="40.096968" lon="0.138831">
        <ele>2.898</ele>
        <time>1970-01-01T05:30:07Z</time>
      </trkpt>
      <trkpt lat="40.096924" lon="0.138800">
        <ele>3.017</ele>
        <time>1970-01-01T05:30:08Z</time>
      </trkpt>
      <trkpt lat="40.096881" lon="0.138768">
        <ele>3.108</ele>
        <time>1970-01-01T05:30:09Z</time>
      </trkpt>
      <trkpt lat="40.096835" lon="0.138736">
        <ele>3.218</ele>
        <time>1970-01-01T05:30:10Z</time>
      </trkpt>
      <trkpt lat="40.096788" lon="0.138703">
        <ele>3.415</ele>
        <time>1970-01-01T05:30:11Z</time>
      </trkpt>
      <trkpt lat="40.096740" lon="0.138671">
        <ele>3.616</ele>
        <time>1970-01-01T05:30:12Z</time>
      </trkpt>
      <trkpt lat="40.096691" lon="0.138639">
        <ele>3.899</ele>
        <time>1970-01-01T05:30:13Z</time>
      </trkpt>
      <trkpt lat="40.096642" lon="0.138606">
        <ele>3.919</ele>
        <time>1970-01-01T05:30:14Z</time>
      </trkpt>
      <trkpt lat="40.096594" lon="0.138572">
        <ele>3.695</ele>
        <time>1970-01-01T05:30:15Z</time>
      </trkpt>
      <trkpt lat="40.096544" lon="0.138538">
        <ele>3.399</ele>
        <time>1970-01-01T05:30:16Z</time>
      </trkpt>
      <trkpt lat="40.096495" lon="0.138504">
        <ele>3.050</ele>
        <time>1970-01-01T05:30:17Z</time>
      </trkpt>
      <trkpt lat="40.096444" lon="0.138475">
        <ele>2.731</ele>
        <time>1970-01-01T05:30:18Z</time>
      </trkpt>
      <trkpt lat="40.096396" lon="0.138443">
        <ele>2.461</ele>
        <time>1970-01-01T05:30:19Z</time>
      </trkpt>
      <trkpt lat="40.096351" lon="0.138403">
        <ele>2.207</ele>
        <time>1970-01-01T05:30:20Z</time>
      </trkpt>
      <trkpt lat="40.096313" lon="0.138353">
        <ele>2.108</ele>
        <time>1970-01-01T05:30:21Z</time>
      </trkpt>
      <trkpt lat="40.096281" lon="0.138294">
        <ele>1.980</ele>
        <time>1970-01-01T05:30:22Z</time>
      </trkpt>
      <trkpt lat="40.096252" lon="0.138229">
        <ele>1.617</ele>
        <time>1970-01-01T05:30:23Z</time>
      </trkpt>
      <trkpt lat="40.096225" lon="0.138163">
        <ele>1.428</ele>
        <time>1970-01-01T05:30:24Z</time>
      </trkpt>
      <trkpt lat="40.096200" lon="0.138097">
        <ele>1.141</ele>
        <time>1970-01-01T05:30:25Z</time>
      </trkpt>
      <trkpt lat="40.096177" lon="0.138035">
        <ele>1.021</ele>
        <time>1970-01-01T05:30:26Z</time>
      </trkpt>
      <trkpt lat="40.096157" lon="0.137970">
        <ele>0.947</ele>
        <time>1970-01-01T05:30:27Z</time>
      </trkpt>
      <trkpt lat="40.096138" lon="0.137906">
        <ele>0.921</ele>
        <time>1970-01-01T05:30:28Z</time>
      </trkpt>
      <trkpt lat="40.096121" lon="0.137842">
        <ele>1.062</ele>
        <time>1970-01-01T05:30:29Z</time>
      </trkpt>
      <trkpt lat="40.096103" lon="0.137779">
        <ele>1.098</ele>
        <time>1970-01-01T05:30:30Z</time>
      </trkpt>
      <trkpt lat="40.096089" lon="0.137710">
        <ele>1.315</ele>
        <time>1970-01-01T05:30:31Z</time>
      </trkpt>
      <trkpt lat="40.096081" lon="0.137640">
        <ele>1.626</ele>
        <time>1970-01-01T05:30:32Z</time>
      </trkpt>
      <trkpt lat="40.096073" lon="0.137570">
        <ele>1.908</ele>
        <time>1970-01-01T05:30:33Z</time>
      </trkpt>
      <trkpt lat="40.096060" lon="0.137503">
        <ele>2.256</ele>
        <time>1970-01-01T05:30:34Z</time>
      </trkpt>
      <trkpt lat="40.096036" lon="0.137443">
        <ele>2.593</ele>
        <time>1970-01-01T05:30:35Z</time>
      </trkpt>
      <trkpt lat="40.095999" lon="0.137392">
        <ele>2.894</ele>
        <time>1970-01-01T05:30:36Z</time>
      </trkpt>
      <trkpt lat="40.095956" lon="0.137346">
        <ele>3.117</ele>
        <time>1970-01-01T05:30:37Z</time>
      </trkpt>
      <trkpt lat="40.095912" lon="0.137300">
        <ele>3.457</ele>
        <time>1970-01-01T05:30:38Z</time>
      </trkpt>
      <trkpt lat="40.095868" lon="0.137252">
        <ele>3.813</ele>
        <time>1970-01-01T05:30:39Z</time>
      </trkpt>
      <trkpt lat="40.095824" lon="0.137205">
        <ele>4.037</ele>
        <time>1970-01-01T05:30:40Z</time>
      </trkpt>
      <trkpt lat="40.095780" lon="0.137156">
        <ele>3.968</ele>
        <time>1970-01-01T05:30:41Z</time>
      </trkpt>
      <trkpt lat="40.095736" lon="0.137107">
        <ele>3.815</ele>
        <time>1970-01-01T05:30:42Z</time>
      </trkpt>
      <trkpt lat="40.095692" lon="0.137062">
        <ele>3.865</ele>
        <time>1970-01-01T05:30:43Z</time>
      </trkpt>
      <trkpt lat="40.095648" lon="0.137016">
        <ele>3.811</ele>
        <time>1970-01-01T05:30:44Z</time>
      </trkpt>
      <trkpt lat="40.095603" lon="0.136971">
        <ele>3.908</ele>
        <time>1970-01-01T05:30:45Z</time>
      </trkpt>
      <trkpt lat="40.095560" lon="0.136927">
        <ele>4.078</ele>
        <time>1970-01-01T05:30:46Z</time>
      </trkpt>
      <trkpt lat="40.095517" lon="0.136886">
        <ele>3.995</ele>
        <time>1970-01-01T05:30:47Z</time>
      </trkpt>
      <trkpt lat="40.095474" lon="0.136843">
        <ele>3.826</ele>
        <time>1970-01-01T05:30:48Z</time>
      </trkpt>
      <trkpt lat="40.095431" lon="0.136801">
        <ele>3.899</ele>
        <time>1970-01-01T05:30:49Z</time>
      </trkpt>
      <trkpt lat="40.095388" lon="0.136758">
        <ele>3.839</ele>
        <time>1970-01-01T05:30:50Z</time>
      </trkpt>
      <trkpt lat="40.095345" lon="0.136717">
        <ele>3.935</ele>
        <time>1970-01-01T05:30:51Z</time>
      </trkpt>
      <trkpt lat="40.095299" lon="0.136677">
        <ele>4.019</ele>
        <time>1970-01-01T05:30:52Z</time>
      </trkpt>
      <trkpt lat="40.095252" lon="0.136638">
        <ele>4.140</ele>
        <time>1970-01-01T05:30:53Z</time>
      </trkpt>
      <trkpt lat="40.095206" lon="0.136598">
        <ele>4.266</ele>
        <time>1970-01-01T05:30:54Z</time>
      </trkpt>
      <trkpt lat="40.095162" lon="0.136558">
        <ele>4.429</ele>
        <time>1970-01-01T05:30:55Z</time>
      </trkpt>
      <trkpt lat="40.095119" lon="0.136518">
        <ele>4.521</ele>
        <time>1970-01-01T05:30:56Z</time>
      </trkpt>
      <trkpt lat="40.095077" lon="0.136475">
        <ele>4.708</ele>
        <time>1970-01-01T05:30:57Z</time>
      </trkpt>
      <trkpt lat="40.095037" lon="0.136430">
        <ele>4.933</ele>
        <time>1970-01-01T05:30:58Z</time>
      </trkpt>
      <trkpt lat="40.094994" lon="0.136393">
        <ele>5.010</ele>
        <time>1970-01-01T05:30:59Z</time>
      </trkpt>
      <trkpt lat="40.094953" lon="0.136357">
        <ele>5.211</ele>
        <time>1970-01-01T05:31:00Z</time>
      </trkpt>
      <trkpt lat="40.094912" lon="0.136320">
        <ele>5.584</ele>
        <time>1970-01-01T05:31:01Z</time>
      </trkpt>
      <trkpt lat="40.094871" lon="0.136281">
        <ele>5.854</ele>
        <time>1970-01-01T05:31:02Z</time>
      </trkpt>
      <trkpt lat="40.094830" lon="0.136238">
        <ele>6.310</ele>
        <time>1970-01-01T05:31:03Z</time>
      </trkpt>
      <trkpt lat="40.094789" lon="0.136197">
        <ele>6.844</ele>
        <time>1970-01-01T05:31:04Z</time>
      </trkpt>
      <trkpt lat="40.094748" lon="0.136155">
        <ele>7.415</ele>
        <time>1970-01-01T05:31:05Z</time>
      </trkpt>
      <trkpt lat="40.094708" lon="0.136112">
        <ele>8.054</ele>
        <time>1970-01-01T05:31:06Z</time>
      </trkpt>
      <trkpt lat="40.094671" lon="0.136065">
        <ele>8.056</ele>
        <time>1970-01-01T05:31:07Z</time>
      </trkpt>
      <trkpt lat="40.094635" lon="0.136018">
        <ele>8.111</ele>
        <time>1970-01-01T05:31:08Z</time>
      </trkpt>
      <trkpt lat="40.094599" lon="0.135974">
        <ele>8.208</ele>
        <time>1970-01-01T05:31:09Z</time>
      </trkpt>
      <trkpt lat="40.094563" lon="0.135932">
        <ele>8.312</ele>
        <time>1970-01-01T05:31:10Z</time>
      </trkpt>
      <trkpt lat="40.094526" lon="0.135891">
        <ele>8.519</ele>
        <time>1970-01-01T05:31:11Z</time>
      </trkpt>
      <trkpt lat="40.094490" lon="0.135847">
        <ele>8.790</ele>
        <time>1970-01-01T05:31:12Z</time>
      </trkpt>
      <trkpt lat="40.094463" lon="0.135798">
        <ele>8.943</ele>
        <time>1970-01-01T05:31:13Z</time>
      </trkpt>
      <trkpt lat="40.094453" lon="0.135745">
        <ele>8.953</ele>
        <time>1970-01-01T05:31:14Z</time>
      </trkpt>
      <trkpt lat="40.094455" lon="0.135691">
        <ele>8.949</ele>
        <time>1970-01-01T05:31:15Z</time>
      </trkpt>
      <trkpt lat="40.094467" lon="0.135637">
        <ele>8.853</ele>
        <time>1970-01-01T05:31:16Z</time>
      </trkpt>
      <trkpt lat="40.094482" lon="0.135582">
        <ele>8.764</ele>
        <time>1970-01-01T05:31:17Z</time>
      </trkpt>
      <trkpt lat="40.094497" lon="0.135523">
        <ele>8.632</ele>
        <time>1970-01-01T05:31:18Z</time>
      </trkpt>
      <trkpt lat="40.094514" lon="0.135461">
        <ele>8.592</ele>
        <time>1970-01-01T05:31:19Z</time>
      </trkpt>
      <trkpt lat="40.094533" lon="0.135399">
        <ele>8.411</ele>
        <time>1970-01-01T05:31:20Z</time>
      </trkpt>
      <trkpt lat="40.094550" lon="0.135338">
        <ele>8.208</ele>
        <time>1970-01-01T05:31:21Z</time>
      </trkpt>
      <trkpt lat="40.094565" lon="0.135276">
        <ele>8.170</ele>
        <time>1970-01-01T05:31:22Z</time>
      </trkpt>
      <trkpt lat="40.094580" lon="0.135214">
        <ele>8.187</ele>
        <time>1970-01-01T05:31:23Z</time>
      </trkpt>
      <trkpt lat="40.094595" lon="0.135154">
        <ele>8.238</ele>
        <time>1970-01-01T05:31:24Z</time>
      </trkpt>
      <trkpt lat="40.094611" lon="0.135094">
        <ele>8.261</ele>
        <time>1970-01-01T05:31:25Z</time>
      </trkpt>
      <trkpt lat="40.094631" lon="0.135032">
        <ele>8.381</ele>
        <time>1970-01-01T05:31:26Z</time>
      </trkpt>
      <trkpt lat="40.094651" lon="0.134966">
        <ele>8.477</ele>
        <time>1970-01-01T05:31:27Z</time>
      </trkpt>
      <trkpt lat="40.094662" lon="0.134898">
        <ele>8.671</ele>
        <time>1970-01-01T05:31:28Z</time>
      </trkpt>
      <trkpt lat="40.094667" lon="0.134823">
        <ele>8.862</ele>
        <time>1970-01-01T05:31:29Z</time>
      </trkpt>
      <trkpt lat="40.094676" lon="0.134752">
        <ele>9.162</ele>
        <time>1970-01-01T05:31:30Z</time>
      </trkpt>
      <trkpt lat="40.094688" lon="0.134683">
        <ele>9.183</ele>
        <time>1970-01-01T05:31:31Z</time>
      </trkpt>
      <trkpt lat="40.094700" lon="0.134614">
        <ele>9.111</ele>
        <time>1970-01-01T05:31:32Z</time>
      </trkpt>
      <trkpt lat="40.094715" lon="0.134544">
        <ele>9.008</ele>
        <time>1970-01-01T05:31:33Z</time>
      </trkpt>
      <trkpt lat="40.094730" lon="0.134474">
        <ele>9.093</ele>
        <time>1970-01-01T05:31:34Z</time>
      </trkpt>
      <trkpt lat="40.094747" lon="0.134408">
        <ele>8.920</ele>
        <time>1970-01-01T05:31:35Z</time>
      </trkpt>
      <trkpt lat="40.094763" lon="0.134344">
        <ele>8.971</ele>
        <time>1970-01-01T05:31:36Z</time>
      </trkpt>
      <trkpt lat="40.094773" lon="0.134275">
        <ele>8.824</ele>
        <time>1970-01-01T05:31:37Z</time>
      </trkpt>
      <trkpt lat="40.094786" lon="0.134207">
        <ele>8.894</ele>
        <time>1970-01-01T05:31:38Z</time>
      </trkpt>
      <trkpt lat="40.094800" lon="0.134144">
        <ele>8.720</ele>
        <time>1970-01-01T05:31:39Z</time>
      </trkpt>
      <trkpt lat="40.094814" lon="0.134081">
        <ele>8.714</ele>
        <time>1970-01-01T05:31:40Z</time>
      </trkpt>
      <trkpt lat="40.094828" lon="0.134017">
        <ele>8.695</ele>
        <time>1970-01-01T05:31:41Z</time>
      </trkpt>
      <trkpt lat="40.094842" lon="0.133951">
        <ele>8.672</ele>
        <time>1970-01-01T05:31:42Z</time>
      </trkpt>
      <trkpt lat="40.094855" lon="0.133885">
        <ele>8.513</ele>
        <time>1970-01-01T05:31:43Z</time>
      </trkpt>
      <trkpt lat="40.094871" lon="0.133816">
        <ele>8.614</ele>
        <time>1970-01-01T05:31:44Z</time>
      </trkpt>
      <trkpt lat="40.094887" lon="0.133745">
        <ele>8.708</ele>
        <time>1970-01-01T05:31:45Z</time>
      </trkpt>
      <trkpt lat="40.094904" lon="0.133674">
        <ele>8.974</ele>
        <time>1970-01-01T05:31:46Z</time>
      </trkpt>
      <trkpt lat="40.094924" lon="0.133603">
        <ele>9.011</ele>
        <time>1970-01-01T05:31:47Z</time>
      </trkpt>
      <trkpt lat="40.094942" lon="0.133540">
        <ele>9.332</ele>
        <time>1970-01-01T05:31:48Z</time>
      </trkpt>
      <trkpt lat="40.094958" lon="0.133481">
        <ele>9.565</ele>
        <time>1970-01-01T05:31:49Z</time>
      </trkpt>
      <trkpt lat="40.094972" lon="0.133423">
        <ele>9.745</ele>
        <time>1970-01-01T05:31:50Z</time>
      </trkpt>
      <trkpt lat="40.094985" lon="0.133374">
        <ele>9.921</ele>
        <time>1970-01-01T05:31:51Z</time>
      </trkpt>
      <trkpt lat="40.094995" lon="0.133335">
        <ele>10.085</ele>
        <time>1970-01-01T05:31:52Z</time>
      </trkpt>
      <trkpt lat="40.095002" lon="0.133305">
        <ele>10.076</ele>
        <time>1970-01-01T05:31:53Z</time>
      </trkpt>
      <trkpt lat="40.095006" lon="0.133282">
        <ele>10.085</ele>
        <time>1970-01-01T05:31:54Z</time>
      </trkpt>
      <trkpt lat="40.095001" lon="0.133258">
        <ele>10.089</ele>
        <time>1970-01-01T05:31:55Z</time>
      </trkpt>
      <trkpt lat="40.094988" lon="0.133236">
        <ele>10.017</ele>
        <time>1970-01-01T05:31:56Z</time>
      </trkpt>
      <trkpt lat="40.094966" lon="0.133212">
        <ele>10.108</ele>
        <time>1970-01-01T05:31:57Z</time>
      </trkpt>
      <trkpt lat="40.094938" lon="0.133185">
        <ele>10.165</ele>
        <time>1970-01-01T05:31:58Z</time>
      </trkpt>
      <trkpt lat="40.094906" lon="0.133166">
        <ele>10.242</ele>
        <time>1970-01-01T05:31:59Z</time>
      </trkpt>
      <trkpt lat="40.094867" lon="0.133150">
        <ele>10.343</ele>
        <time>1970-01-01T05:32:00Z</time>
      </trkpt>
      <trkpt lat="40.094826" lon="0.133138">
        <ele>10.486</ele>
        <time>1970-01-01T05:32:01Z</time>
      </trkpt>
      <trkpt lat="40.094787" lon="0.133122">
        <ele>10.616</ele>
        <time>1970-01-01T05:32:02Z</time>
      </trkpt>
      <trkpt lat="40.094746" lon="0.133108">
        <ele>10.752</ele>
        <time>1970-01-01T05:32:03Z</time>
      </trkpt>
      <trkpt lat="40.094704" lon="0.133092">
        <ele>10.936</ele>
        <time>1970-01-01T05:32:04Z</time>
      </trkpt>
      <trkpt lat="40.094666" lon="0.133077">
        <ele>10.977</ele>
        <time>1970-01-01T05:32:05Z</time>
      </trkpt>
      <trkpt lat="40.094625" lon="0.133060">
        <ele>11.047</ele>
        <time>1970-01-01T05:32:06Z</time>
      </trkpt>
      <trkpt lat="40.094585" lon="0.133044">
        <ele>11.029</ele>
        <time>1970-01-01T05:32:07Z</time>
      </trkpt>
      <trkpt lat="40.094546" lon="0.133034">
        <ele>11.021</ele>
        <time>1970-01-01T05:32:08Z</time>
      </trkpt>
      <trkpt lat="40.094506" lon="0.133020">
        <ele>11.008</ele>
        <time>1970-01-01T05:32:09Z</time>
      </trkpt>
      <trkpt lat="40.094466" lon="0.133005">
        <ele>11.091</ele>
        <time>1970-01-01T05:32:10Z</time>
      </trkpt>
      <trkpt lat="40.094429" lon="0.132986">
        <ele>11.188</ele>
        <time>1970-01-01T05:32:11Z</time>
      </trkpt>
      <trkpt lat="40.094393" lon="0.132964">
        <ele>11.289</ele>
        <time>1970-01-01T05:32:12Z</time>
      </trkpt>
      <trkpt lat="40.094360" lon="0.132941">
        <ele>11.322</ele>
        <time>1970-01-01T05:32:13Z</time>
      </trkpt>
      <trkpt lat="40.094327" lon="0.132918">
        <ele>11.462</ele>
        <time>1970-01-01T05:32:14Z</time>
      </trkpt>
      <trkpt lat="40.094292" lon="0.132892">
        <ele>11.538</ele>
        <time>1970-01-01T05:32:15Z</time>
      </trkpt>
      <trkpt lat="40.094261" lon="0.132864">
        <ele>11.782</ele>
        <time>1970-01-01T05:32:16Z</time>
      </trkpt>
      <trkpt lat="40.094232" lon="0.132834">
        <ele>11.853</ele>
        <time>1970-01-01T05:32:17Z</time>
      </trkpt>
      <trkpt lat="40.094203" lon="0.132802">
        <ele>11.935</ele>
        <time>1970-01-01T05:32:18Z</time>
      </trkpt>
      <trkpt lat="40.094174" lon="0.132769">
        <ele>12.086</ele>
        <time>1970-01-01T05:32:19Z</time>
      </trkpt>
      <trkpt lat="40.094147" lon="0.132735">
        <ele>12.114</ele>
        <time>1970-01-01T05:32:20Z</time>
      </trkpt>
      <trkpt lat="40.094115" lon="0.132707">
        <ele>12.208</ele>
        <time>1970-01-01T05:32:21Z</time>
      </trkpt>
      <trkpt lat="40.094086" lon="0.132675">
        <ele>12.350</ele>
        <time>1970-01-01T05:32:22Z</time>
      </trkpt>
      <trkpt lat="40.094058" lon="0.132639">
        <ele>12.427</ele>
        <time>1970-01-01T05:32:23Z</time>
      </trkpt>
      <trkpt lat="40.094031" lon="0.132602">
        <ele>12.578</ele>
        <time>1970-01-01T05:32:24Z</time>
      </trkpt>
      <trkpt lat="40.094003" lon="0.132563">
        <ele>12.681</ele>
        <time>1970-01-01T05:32:25Z</time>
      </trkpt>
      <trkpt lat="40.093978" lon="0.132525">
        <ele>12.731</ele>
        <time>1970-01-01T05:32:26Z</time>
      </trkpt>
      <trkpt lat="40.093951" lon="0.132488">
        <ele>12.887</ele>
        <time>1970-01-01T05:32:27Z</time>
      </trkpt>
      <trkpt lat="40.093923" lon="0.132452">
        <ele>12.981</ele>
        <time>1970-01-01T05:32:28Z</time>
      </trkpt>
      <trkpt lat="40.093894" lon="0.132415">
        <ele>13.062</ele>
        <time>1970-01-01T05:32:29Z</time>
      </trkpt>
      <trkpt lat="40.093867" lon="0.132375">
        <ele>13.197</ele>
        <time>1970-01-01T05:32:30Z</time>
      </trkpt>
      <trkpt lat="40.093840" lon="0.132335">
        <ele>13.223</ele>
        <time>1970-01-01T05:32:31Z</time>
      </trkpt>
      <trkpt lat="40.093812" lon="0.132295">
        <ele>13.325</ele>
        <time>1970-01-01T05:32:32Z</time>
      </trkpt>
      <trkpt lat="40.093784" lon="0.132253">
        <ele>13.408</ele>
        <time>1970-01-01T05:32:33Z</time>
      </trkpt>
      <trkpt lat="40.093756" lon="0.132211">
        <ele>13.586</ele>
        <time>1970-01-01T05:32:34Z</time>
      </trkpt>
      <trkpt lat="40.093726" lon="0.132171">
        <ele>13.743</ele>
        <time>1970-01-01T05:32:35Z</time>
      </trkpt>
      <trkpt lat="40.093698" lon="0.132129">
        <ele>13.824</ele>
        <time>1970-01-01T05:32:36Z</time>
      </trkpt>
      <trkpt lat="40.093670" lon="0.132088">
        <ele>13.987</ele>
        <time>1970-01-01T05:32:37Z</time>
      </trkpt>
      <trkpt lat="40.093646" lon="0.132042">
        <ele>14.027</ele>
        <time>1970-01-01T05:32:38Z</time>
      </trkpt>
      <trkpt lat="40.093619" lon="0.132004">
        <ele>14.023</ele>
        <time>1970-01-01T05:32:39Z</time>
      </trkpt>
      <trkpt lat="40.093593" lon="0.131966">
        <ele>14.157</ele>
        <time>1970-01-01T05:32:40Z</time>
      </trkpt>
      <trkpt lat="40.093567" lon="0.131926">
        <ele>14.448</ele>
        <time>1970-01-01T05:32:41Z</time>
      </trkpt>
      <trkpt lat="40.093539" lon="0.131886">
        <ele>14.764</ele>
        <time>1970-01-01T05:32:42Z</time>
      </trkpt>
      <trkpt lat="40.093512" lon="0.131842">
        <ele>15.106</ele>
        <time>1970-01-01T05:32:43Z</time>
      </trkpt>
      <trkpt lat="40.093484" lon="0.131800">
        <ele>15.416</ele>
        <time>1970-01-01T05:32:44Z</time>
      </trkpt>
      <trkpt lat="40.093456" lon="0.131758">
        <ele>15.808</ele>
        <time>1970-01-01T05:32:45Z</time>
      </trkpt>
      <trkpt lat="40.093429" lon="0.131716">
        <ele>16.193</ele>
        <time>1970-01-01T05:32:46Z</time>
      </trkpt>
      <trkpt lat="40.093402" lon="0.131675">
        <ele>16.530</ele>
        <time>1970-01-01T05:32:47Z</time>
      </trkpt>
      <trkpt lat="40.093375" lon="0.131635">
        <ele>16.911</ele>
        <time>1970-01-01T05:32:48Z</time>
      </trkpt>
      <trkpt lat="40.093348" lon="0.131596">
        <ele>17.414</ele>
        <time>1970-01-01T05:32:49Z</time>
      </trkpt>
      <trkpt lat="40.093320" lon="0.131557">
        <ele>17.964</ele>
        <time>1970-01-01T05:32:50Z</time>
      </trkpt>
      <trkpt lat="40.093291" lon="0.131517">
        <ele>18.340</ele>
        <time>1970-01-01T05:32:51Z</time>
      </trkpt>
      <trkpt lat="40.093265" lon="0.131478">
        <ele>18.694</ele>
        <time>1970-01-01T05:32:52Z</time>
      </trkpt>
      <trkpt lat="40.093239" lon="0.131436">
        <ele>18.835</ele>
        <time>1970-01-01T05:32:53Z</time>
      </trkpt>
      <trkpt lat="40.093211" lon="0.131396">
        <ele>19.081</ele>
        <time>1970-01-01T05:32:54Z</time>
      </trkpt>
      <trkpt lat="40.093183" lon="0.131355">
        <ele>19.161</ele>
        <time>1970-01-01T05:32:55Z</time>
      </trkpt>
      <trkpt lat="40.093155" lon="0.131314">
        <ele>19.317</ele>
        <time>1970-01-01T05:32:56Z</time>
      </trkpt>
      <trkpt lat="40.093127" lon="0.131272">
        <ele>19.408</ele>
        <time>1970-01-01T05:32:57Z</time>
      </trkpt>
      <trkpt lat="40.093097" lon="0.131233">
        <ele>19.665</ele>
        <time>1970-01-01T05:32:58Z</time>
      </trkpt>
      <trkpt lat="40.093066" lon="0.131197">
        <ele>19.762</ele>
        <time>1970-01-01T05:32:59Z</time>
      </trkpt>
      <trkpt lat="40.093033" lon="0.131165">
        <ele>19.863</ele>
        <time>1970-01-01T05:33:00Z</time>
      </trkpt>
      <trkpt lat="40.092998" lon="0.131137">
        <ele>19.766</ele>
        <time>1970-01-01T05:33:01Z</time>
      </trkpt>
      <trkpt lat="40.092961" lon="0.131108">
        <ele>19.716</ele>
        <time>1970-01-01T05:33:02Z</time>
      </trkpt>
      <trkpt lat="40.092925" lon="0.131074">
        <ele>19.642</ele>
        <time>1970-01-01T05:33:03Z</time>
      </trkpt>
      <trkpt lat="40.092890" lon="0.131038">
        <ele>19.656</ele>
        <time>1970-01-01T05:33:04Z</time>
      </trkpt>
      <trkpt lat="40.092854" lon="0.131002">
        <ele>19.617</ele>
        <time>1970-01-01T05:33:05Z</time>
      </trkpt>
      <trkpt lat="40.092817" lon="0.130972">
        <ele>19.697</ele>
        <time>1970-01-01T05:33:06Z</time>
      </trkpt>
      <trkpt lat="40.092779" lon="0.130954">
        <ele>19.623</ele>
        <time>1970-01-01T05:33:07Z</time>
      </trkpt>
      <trkpt lat="40.092740" lon="0.130946">
        <ele>19.725</ele>
        <time>1970-01-01T05:33:08Z</time>
      </trkpt>
      <trkpt lat="40.092701" lon="0.130962">
        <ele>19.808</ele>
        <time>1970-01-01T05:33:09Z</time>
      </trkpt>
      <trkpt lat="40.092667" lon="0.130994">
        <ele>19.896</ele>
        <time>1970-01-01T05:33:10Z</time>
      </trkpt>
      <trkpt lat="40.092644" lon="0.131038">
        <ele>19.763</ele>
        <time>1970-01-01T05:33:11Z</time>
      </trkpt>
      <trkpt lat="40.092623" lon="0.131088">
        <ele>19.614</ele>
        <time>1970-01-01T05:33:12Z</time>
      </trkpt>
      <trkpt lat="40.092596" lon="0.131138">
        <ele>19.777</ele>
        <time>1970-01-01T05:33:13Z</time>
      </trkpt>
      <trkpt lat="40.092561" lon="0.131175">
        <ele>19.887</ele>
        <time>1970-01-01T05:33:14Z</time>
      </trkpt>
      <trkpt lat="40.092523" lon="0.131204">
        <ele>19.993</ele>
        <time>1970-01-01T05:33:15Z</time>
      </trkpt>
      <trkpt lat="40.092486" lon="0.131230">
        <ele>20.147</ele>
        <time>1970-01-01T05:33:16Z</time>
      </trkpt>
      <trkpt lat="40.092449" lon="0.131260">
        <ele>20.238</ele>
        <time>1970-01-01T05:33:17Z</time>
      </trkpt>
      <trkpt lat="40.092415" lon="0.131292">
        <ele>20.284</ele>
        <time>1970-01-01T05:33:18Z</time>
      </trkpt>
      <trkpt lat="40.092382" lon="0.131326">
        <ele>20.207</ele>
        <time>1970-01-01T05:33:19Z</time>
      </trkpt>
      <trkpt lat="40.092351" lon="0.131361">
        <ele>20.117</ele>
        <time>1970-01-01T05:33:20Z</time>
      </trkpt>
      <trkpt lat="40.092318" lon="0.131397">
        <ele>20.008</ele>
        <time>1970-01-01T05:33:21Z</time>
      </trkpt>
      <trkpt lat="40.092284" lon="0.131430">
        <ele>19.975</ele>
        <time>1970-01-01T05:33:22Z</time>
      </trkpt>
      <trkpt lat="40.092252" lon="0.131462">
        <ele>19.882</ele>
        <time>1970-01-01T05:33:23Z</time>
      </trkpt>
      <trkpt lat="40.092218" lon="0.131494">
        <ele>19.693</ele>
        <time>1970-01-01T05:33:24Z</time>
      </trkpt>
      <trkpt lat="40.092183" lon="0.131526">
        <ele>19.646</ele>
        <time>1970-01-01T05:33:25Z</time>
      </trkpt>
      <trkpt lat="40.092149" lon="0.131564">
        <ele>19.546</ele>
        <time>1970-01-01T05:33:26Z</time>
      </trkpt>
      <trkpt lat="40.092114" lon="0.131602">
        <ele>19.362</ele>
        <time>1970-01-01T05:33:27Z</time>
      </trkpt>
      <trkpt lat="40.092077" lon="0.131637">
        <ele>19.226</ele>
        <time>1970-01-01T05:33:28Z</time>
      </trkpt>
      <trkpt lat="40.092040" lon="0.131670">
        <ele>19.077</ele>
        <time>1970-01-01T05:33:29Z</time>
      </trkpt>
      <trkpt lat="40.092003" lon="0.131702">
        <ele>19.048</ele>
        <time>1970-01-01T05:33:30Z</time>
      </trkpt>
      <trkpt lat="40.091967" lon="0.131735">
        <ele>19.061</ele>
        <time>1970-01-01T05:33:31Z</time>
      </trkpt>
      <trkpt lat="40.091934" lon="0.131764">
        <ele>19.017</ele>
        <time>1970-01-01T05:33:32Z</time>
      </trkpt>
      <trkpt lat="40.091901" lon="0.131786">
        <ele>18.908</ele>
        <time>1970-01-01T05:33:33Z</time>
      </trkpt>
      <trkpt lat="40.091870" lon="0.131798">
        <ele>18.971</ele>
        <time>1970-01-01T05:33:34Z</time>
      </trkpt>
      <trkpt lat="40.091839" lon="0.131794">
        <ele>18.818</ele>
        <time>1970-01-01T05:33:35Z</time>
      </trkpt>
      <trkpt lat="40.091811" lon="0.131770">
        <ele>18.729</ele>
        <time>1970-01-01T05:33:36Z</time>
      </trkpt>
      <trkpt lat="40.091787" lon="0.131729">
        <ele>18.662</ele>
        <time>1970-01-01T05:33:37Z</time>
      </trkpt>
      <trkpt lat="40.091768" lon="0.131683">
        <ele>18.492</ele>
        <time>1970-01-01T05:33:38Z</time>
      </trkpt>
      <trkpt lat="40.091759" lon="0.131632">
        <ele>18.438</ele>
        <time>1970-01-01T05:33:39Z</time>
      </trkpt>
      <trkpt lat="40.091746" lon="0.131576">
        <ele>18.552</ele>
        <time>1970-01-01T05:33:40Z</time>
      </trkpt>
      <trkpt lat="40.091736" lon="0.131520">
        <ele>18.553</ele>
        <time>1970-01-01T05:33:41Z</time>
      </trkpt>
      <trkpt lat="40.091724" lon="0.131464">
        <ele>18.522</ele>
        <time>1970-01-01T05:33:42Z</time>
      </trkpt>
      <trkpt lat="40.091712" lon="0.131407">
        <ele>18.562</ele>
        <time>1970-01-01T05:33:43Z</time>
      </trkpt>
      <trkpt lat="40.091693" lon="0.131349">
        <ele>18.408</ele>
        <time>1970-01-01T05:33:44Z</time>
      </trkpt>
      <trkpt lat="40.091682" lon="0.131287">
        <ele>18.508</ele>
        <time>1970-01-01T05:33:45Z</time>
      </trkpt>
      <trkpt lat="40.091669" lon="0.131227">
        <ele>18.669</ele>
        <time>1970-01-01T05:33:46Z</time>
      </trkpt>
      <trkpt lat="40.091662" lon="0.131165">
        <ele>18.846</ele>
        <time>1970-01-01T05:33:47Z</time>
      </trkpt>
      <trkpt lat="40.091658" lon="0.131102">
        <ele>19.067</ele>
        <time>1970-01-01T05:33:48Z</time>
      </trkpt>
      <trkpt lat="40.091656" lon="0.131042">
        <ele>19.280</ele>
        <time>1970-01-01T05:33:49Z</time>
      </trkpt>
      <trkpt lat="40.091650" lon="0.130982">
        <ele>19.450</ele>
        <time>1970-01-01T05:33:50Z</time>
      </trkpt>
      <trkpt lat="40.091632" lon="0.130935">
        <ele>19.576</ele>
        <time>1970-01-01T05:33:51Z</time>
      </trkpt>
      <trkpt lat="40.091598" lon="0.130905">
        <ele>19.510</ele>
        <time>1970-01-01T05:33:52Z</time>
      </trkpt>
      <trkpt lat="40.091557" lon="0.130895">
        <ele>19.441</ele>
        <time>1970-01-01T05:33:53Z</time>
      </trkpt>
      <trkpt lat="40.091513" lon="0.130916">
        <ele>19.138</ele>
        <time>1970-01-01T05:33:54Z</time>
      </trkpt>
      <trkpt lat="40.091469" lon="0.130946">
        <ele>18.970</ele>
        <time>1970-01-01T05:33:55Z</time>
      </trkpt>
      <trkpt lat="40.091421" lon="0.130970">
        <ele>18.617</ele>
        <time>1970-01-01T05:33:56Z</time>
      </trkpt>
      <trkpt lat="40.091371" lon="0.130977">
        <ele>18.508</ele>
        <time>1970-01-01T05:33:57Z</time>
      </trkpt>
      <trkpt lat="40.091321" lon="0.130966">
        <ele>18.570</ele>
        <time>1970-01-01T05:33:58Z</time>
      </trkpt>
      <trkpt lat="40.091271" lon="0.130949">
        <ele>18.687</ele>
        <time>1970-01-01T05:33:59Z</time>
      </trkpt>
      <trkpt lat="40.091225" lon="0.130928">
        <ele>18.768</ele>
        <time>1970-01-01T05:34:00Z</time>
      </trkpt>
      <trkpt lat="40.091178" lon="0.130907">
        <ele>18.771</ele>
        <time>1970-01-01T05:34:01Z</time>
      </trkpt>
      <trkpt lat="40.091132" lon="0.130886">
        <ele>18.841</ele>
        <time>1970-01-01T05:34:02Z</time>
      </trkpt>
      <trkpt lat="40.091086" lon="0.130864">
        <ele>18.987</ele>
        <time>1970-01-01T05:34:03Z</time>
      </trkpt>
      <trkpt lat="40.091041" lon="0.130838">
        <ele>19.061</ele>
        <time>1970-01-01T05:34:04Z</time>
      </trkpt>
      <trkpt lat="40.090994" lon="0.130812">
        <ele>19.142</ele>
        <time>1970-01-01T05:34:05Z</time>
      </trkpt>
      <trkpt lat="40.090949" lon="0.130784">
        <ele>19.251</ele>
        <time>1970-01-01T05:34:06Z</time>
      </trkpt>
      <trkpt lat="40.090910" lon="0.130749">
        <ele>19.301</ele>
        <time>1970-01-01T05:34:07Z</time>
      </trkpt>
      <trkpt lat="40.090877" lon="0.130703">
        <ele>19.511</ele>
        <time>1970-01-01T05:34:08Z</time>
      </trkpt>
      <trkpt lat="40.090848" lon="0.130652">
        <ele>19.708</ele>
        <time>1970-01-01T05:34:09Z</time>
      </trkpt>
      <trkpt lat="40.090836" lon="0.130588">
        <ele>19.992</ele>
        <time>1970-01-01T05:34:10Z</time>
      </trkpt>
      <trkpt lat="40.090838" lon="0.130517">
        <ele>20.119</ele>
        <time>1970-01-01T05:34:11Z</time>
      </trkpt>
      <trkpt lat="40.090843" lon="0.130446">
        <ele>20.420</ele>
        <time>1970-01-01T05:34:12Z</time>
      </trkpt>
      <trkpt lat="40.090845" lon="0.130371">
        <ele>20.743</ele>
        <time>1970-01-01T05:34:13Z</time>
      </trkpt>
      <trkpt lat="40.090847" lon="0.130298">
        <ele>20.933</ele>
        <time>1970-01-01T05:34:14Z</time>
      </trkpt>
      <trkpt lat="40.090850" lon="0.130224">
        <ele>21.299</ele>
        <time>1970-01-01T05:34:15Z</time>
      </trkpt>
      <trkpt lat="40.090853" lon="0.130152">
        <ele>21.533</ele>
        <time>1970-01-01T05:34:16Z</time>
      </trkpt>
      <trkpt lat="40.090857" lon="0.130081">
        <ele>21.744</ele>
        <time>1970-01-01T05:34:17Z</time>
      </trkpt>
      <trkpt lat="40.090859" lon="0.130012">
        <ele>22.017</ele>
        <time>1970-01-01T05:34:18Z</time>
      </trkpt>
      <trkpt lat="40.090861" lon="0.129942">
        <ele>22.287</ele>
        <time>1970-01-01T05:34:19Z</time>
      </trkpt>
      <trkpt lat="40.090862" lon="0.129875">
        <ele>22.415</ele>
        <time>1970-01-01T05:34:20Z</time>
      </trkpt>
      <trkpt lat="40.090864" lon="0.129809">
        <ele>22.708</ele>
        <time>1970-01-01T05:34:21Z</time>
      </trkpt>
      <trkpt lat="40.090867" lon="0.129744">
        <ele>22.938</ele>
        <time>1970-01-01T05:34:22Z</time>
      </trkpt>
      <trkpt lat="40.090871" lon="0.129678">
        <ele>23.065</ele>
        <time>1970-01-01T05:34:23Z</time>
      </trkpt>
      <trkpt lat="40.090870" lon="0.129612">
        <ele>22.936</ele>
        <time>1970-01-01T05:34:24Z</time>
      </trkpt>
      <trkpt lat="40.090869" lon="0.129544">
        <ele>22.959</ele>
        <time>1970-01-01T05:34:25Z</time>
      </trkpt>
      <trkpt lat="40.090872" lon="0.129476">
        <ele>22.999</ele>
        <time>1970-01-01T05:34:26Z</time>
      </trkpt>
      <trkpt lat="40.090874" lon="0.129408">
        <ele>22.635</ele>
        <time>1970-01-01T05:34:27Z</time>
      </trkpt>
      <trkpt lat="40.090869" lon="0.129341">
        <ele>22.299</ele>
        <time>1970-01-01T05:34:28Z</time>
      </trkpt>
      <trkpt lat="40.090849" lon="0.129277">
        <ele>21.850</ele>
        <time>1970-01-01T05:34:29Z</time>
      </trkpt>
      <trkpt lat="40.090819" lon="0.129223">
        <ele>21.444</ele>
        <time>1970-01-01T05:34:30Z</time>
      </trkpt>
      <trkpt lat="40.090784" lon="0.129188">
        <ele>21.105</ele>
        <time>1970-01-01T05:34:31Z</time>
      </trkpt>
      <trkpt lat="40.090746" lon="0.129157">
        <ele>21.015</ele>
        <time>1970-01-01T05:34:32Z</time>
      </trkpt>
      <trkpt lat="40.090706" lon="0.129125">
        <ele>20.908</ele>
        <time>1970-01-01T05:34:33Z</time>
      </trkpt>
      <trkpt lat="40.090663" lon="0.129094">
        <ele>20.991</ele>
        <time>1970-01-01T05:34:34Z</time>
      </trkpt>
      <trkpt lat="40.090618" lon="0.129063">
        <ele>20.968</ele>
        <time>1970-01-01T05:34:35Z</time>
      </trkpt>
      <trkpt lat="40.090574" lon="0.129029">
        <ele>21.079</ele>
        <time>1970-01-01T05:34:36Z</time>
      </trkpt>
      <trkpt lat="40.090532" lon="0.128994">
        <ele>21.032</ele>
        <time>1970-01-01T05:34:37Z</time>
      </trkpt>
      <trkpt lat="40.090491" lon="0.128955">
        <ele>20.962</ele>
        <time>1970-01-01T05:34:38Z</time>
      </trkpt>
      <trkpt lat="40.090456" lon="0.128912">
        <ele>21.068</ele>
        <time>1970-01-01T05:34:39Z</time>
      </trkpt>
      <trkpt lat="40.090423" lon="0.128863">
        <ele>21.032</ele>
        <time>1970-01-01T05:34:40Z</time>
      </trkpt>
      <trkpt lat="40.090393" lon="0.128811">
        <ele>21.283</ele>
        <time>1970-01-01T05:34:41Z</time>
      </trkpt>
      <trkpt lat="40.090361" lon="0.128763">
        <ele>21.353</ele>
        <time>1970-01-01T05:34:42Z</time>
      </trkpt>
      <trkpt lat="40.090330" lon="0.128713">
        <ele>21.504</ele>
        <time>1970-01-01T05:34:43Z</time>
      </trkpt>
      <trkpt lat="40.090302" lon="0.128663">
        <ele>21.714</ele>
        <time>1970-01-01T05:34:44Z</time>
      </trkpt>
      <trkpt lat="40.090278" lon="0.128615">
        <ele>22.008</ele>
        <time>1970-01-01T05:34:45Z</time>
      </trkpt>
      <trkpt lat="40.090256" lon="0.128568">
        <ele>22.222</ele>
        <time>1970-01-01T05:34:46Z</time>
      </trkpt>
      <trkpt lat="40.090232" lon="0.128522">
        <ele>22.539</ele>
        <time>1970-01-01T05:34:47Z</time>
      </trkpt>
      <trkpt lat="40.090210" lon="0.128478">
        <ele>22.780</ele>
        <time>1970-01-01T05:34:48Z</time>
      </trkpt>
      <trkpt lat="40.090188" lon="0.128433">
        <ele>23.083</ele>
        <time>1970-01-01T05:34:49Z</time>
      </trkpt>
      <trkpt lat="40.090167" lon="0.128388">
        <ele>23.233</ele>
        <time>1970-01-01T05:34:50Z</time>
      </trkpt>
      <trkpt lat="40.090148" lon="0.128345">
        <ele>23.459</ele>
        <time>1970-01-01T05:34:51Z</time>
      </trkpt>
      <trkpt lat="40.090130" lon="0.128306">
        <ele>23.543</ele>
        <time>1970-01-01T05:34:52Z</time>
      </trkpt>
      <trkpt lat="40.090114" lon="0.128272">
        <ele>23.694</ele>
        <time>1970-01-01T05:34:53Z</time>
      </trkpt>
      <trkpt lat="40.090098" lon="0.128240">
        <ele>23.634</ele>
        <time>1970-01-01T05:34:54Z</time>
      </trkpt>
      <trkpt lat="40.090085" lon="0.128204">
        <ele>23.755</ele>
        <time>1970-01-01T05:34:55Z</time>
      </trkpt>
      <trkpt lat="40.090075" lon="0.128167">
        <ele>23.710</ele>
        <time>1970-01-01T05:34:56Z</time>
      </trkpt>
      <trkpt lat="40.090061" lon="0.128132">
        <ele>23.808</ele>
        <time>1970-01-01T05:34:57Z</time>
      </trkpt>
      <trkpt lat="40.090044" lon="0.128098">
        <ele>23.840</ele>
        <time>1970-01-01T05:34:58Z</time>
      </trkpt>
      <trkpt lat="40.090031" lon="0.128063">
        <ele>23.977</ele>
        <time>1970-01-01T05:34:59Z</time>
      </trkpt>
      <trkpt lat="40.090022" lon="0.128025">
        <ele>24.058</ele>
        <time>1970-01-01T05:35:00Z</time>
      </trkpt>
      <trkpt lat="40.090014" lon="0.127980">
        <ele>24.221</ele>
        <time>1970-01-01T05:35:01Z</time>
      </trkpt>
      <trkpt lat="40.090005" lon="0.127931">
        <ele>24.471</ele>
        <time>1970-01-01T05:35:02Z</time>
      </trkpt>
      <trkpt lat="40.089993" lon="0.127882">
        <ele>24.767</ele>
        <time>1970-01-01T05:35:03Z</time>
      </trkpt>
      <trkpt lat="40.089979" lon="0.127838">
        <ele>25.051</ele>
        <time>1970-01-01T05:35:04Z</time>
      </trkpt>
      <trkpt lat="40.089966" lon="0.127793">
        <ele>25.232</ele>
        <time>1970-01-01T05:35:05Z</time>
      </trkpt>
      <trkpt lat="40.089951" lon="0.127750">
        <ele>25.424</ele>
        <time>1970-01-01T05:35:06Z</time>
      </trkpt>
      <trkpt lat="40.089935" lon="0.127707">
        <ele>25.704</ele>
        <time>1970-01-01T05:35:07Z</time>
      </trkpt>
      <trkpt lat="40.089917" lon="0.127664">
        <ele>25.914</ele>
        <time>1970-01-01T05:35:08Z</time>
      </trkpt>
      <trkpt lat="40.089902" lon="0.127621">
        <ele>26.108</ele>
        <time>1970-01-01T05:35:09Z</time>
      </trkpt>
      <trkpt lat="40.089884" lon="0.127576">
        <ele>26.379</ele>
        <time>1970-01-01T05:35:10Z</time>
      </trkpt>
      <trkpt lat="40.089863" lon="0.127533">
        <ele>26.426</ele>
        <time>1970-01-01T05:35:11Z</time>
      </trkpt>
      <trkpt lat="40.089842" lon="0.127489">
        <ele>26.677</ele>
        <time>1970-01-01T05:35:12Z</time>
      </trkpt>
      <trkpt lat="40.089823" lon="0.127445">
        <ele>26.740</ele>
        <time>1970-01-01T05:35:13Z</time>
      </trkpt>
      <trkpt lat="40.089804" lon="0.127402">
        <ele>26.830</ele>
        <time>1970-01-01T05:35:14Z</time>
      </trkpt>
      <trkpt lat="40.089785" lon="0.127361">
        <ele>26.916</ele>
        <time>1970-01-01T05:35:15Z</time>
      </trkpt>
      <trkpt lat="40.089764" lon="0.127322">
        <ele>26.950</ele>
        <time>1970-01-01T05:35:16Z</time>
      </trkpt>
      <trkpt lat="40.089741" lon="0.127286">
        <ele>27.091</ele>
        <time>1970-01-01T05:35:17Z</time>
      </trkpt>
      <trkpt lat="40.089717" lon="0.127250">
        <ele>27.054</ele>
        <time>1970-01-01T05:35:18Z</time>
      </trkpt>
      <trkpt lat="40.089690" lon="0.127214">
        <ele>27.156</ele>
        <time>1970-01-01T05:35:19Z</time>
      </trkpt>
      <trkpt lat="40.089664" lon="0.127181">
        <ele>27.211</ele>
        <time>1970-01-01T05:35:20Z</time>
      </trkpt>
      <trkpt lat="40.089638" lon="0.127147">
        <ele>27.308</ele>
        <time>1970-01-01T05:35:21Z</time>
      </trkpt>
      <trkpt lat="40.089613" lon="0.127111">
        <ele>27.452</ele>
        <time>1970-01-01T05:35:22Z</time>
      </trkpt>
      <trkpt lat="40.089589" lon="0.127073">
        <ele>27.569</ele>
        <time>1970-01-01T05:35:23Z</time>
      </trkpt>
      <trkpt lat="40.089565" lon="0.127033">
        <ele>27.660</ele>
        <time>1970-01-01T05:35:24Z</time>
      </trkpt>
      <trkpt lat="40.089543" lon="0.126993">
        <ele>27.623</ele>
        <time>1970-01-01T05:35:25Z</time>
      </trkpt>
      <trkpt lat="40.089522" lon="0.126953">
        <ele>27.743</ele>
        <time>1970-01-01T05:35:26Z</time>
      </trkpt>
      <trkpt lat="40.089500" lon="0.126911">
        <ele>27.899</ele>
        <time>1970-01-01T05:35:27Z</time>
      </trkpt>
      <trkpt lat="40.089478" lon="0.126872">
        <ele>27.953</ele>
        <time>1970-01-01T05:35:28Z</time>
      </trkpt>
      <trkpt lat="40.089454" lon="0.126831">
        <ele>28.074</ele>
        <time>1970-01-01T05:35:29Z</time>
      </trkpt>
      <trkpt lat="40.089429" lon="0.126791">
        <ele>28.191</ele>
        <time>1970-01-01T05:35:30Z</time>
      </trkpt>
      <trkpt lat="40.089403" lon="0.126754">
        <ele>28.181</ele>
        <time>1970-01-01T05:35:31Z</time>
      </trkpt>
      <trkpt lat="40.089378" lon="0.126717">
        <ele>28.219</ele>
        <time>1970-01-01T05:35:32Z</time>
      </trkpt>
      <trkpt lat="40.089353" lon="0.126682">
        <ele>28.308</ele>
        <time>1970-01-01T05:35:33Z</time>
      </trkpt>
      <trkpt lat="40.089329" lon="0.126651">
        <ele>28.466</ele>
        <time>1970-01-01T05:35:34Z</time>
      </trkpt>
      <trkpt lat="40.089301" lon="0.126623">
        <ele>28.463</ele>
        <time>1970-01-01T05:35:35Z</time>
      </trkpt>
      <trkpt lat="40.089272" lon="0.126598">
        <ele>28.544</ele>
        <time>1970-01-01T05:35:36Z</time>
      </trkpt>
      <trkpt lat="40.089244" lon="0.126570">
        <ele>28.597</ele>
        <time>1970-01-01T05:35:37Z</time>
      </trkpt>
      <trkpt lat="40.089217" lon="0.126540">
        <ele>28.427</ele>
        <time>1970-01-01T05:35:38Z</time>
      </trkpt>
      <trkpt lat="40.089189" lon="0.126509">
        <ele>28.463</ele>
        <time>1970-01-01T05:35:39Z</time>
      </trkpt>
      <trkpt lat="40.089160" lon="0.126478">
        <ele>28.367</ele>
        <time>1970-01-01T05:35:40Z</time>
      </trkpt>
      <trkpt lat="40.089131" lon="0.126447">
        <ele>28.348</ele>
        <time>1970-01-01T05:35:41Z</time>
      </trkpt>
      <trkpt lat="40.089101" lon="0.126415">
        <ele>28.338</ele>
        <time>1970-01-01T05:35:42Z</time>
      </trkpt>
      <trkpt lat="40.089073" lon="0.126381">
        <ele>28.370</ele>
        <time>1970-01-01T05:35:43Z</time>
      </trkpt>
      <trkpt lat="40.089045" lon="0.126348">
        <ele>28.417</ele>
        <time>1970-01-01T05:35:44Z</time>
      </trkpt>
      <trkpt lat="40.089015" lon="0.126316">
        <ele>28.408</ele>
        <time>1970-01-01T05:35:45Z</time>
      </trkpt>
      <trkpt lat="40.088985" lon="0.126285">
        <ele>28.460</ele>
        <time>1970-01-01T05:35:46Z</time>
      </trkpt>
      <trkpt lat="40.088954" lon="0.126254">
        <ele>28.447</ele>
        <time>1970-01-01T05:35:47Z</time>
      </trkpt>
      <trkpt lat="40.088923" lon="0.126220">
        <ele>28.338</ele>
        <time>1970-01-01T05:35:48Z</time>
      </trkpt>
      <trkpt lat="40.088894" lon="0.126190">
        <ele>28.321</ele>
        <time>1970-01-01T05:35:49Z</time>
      </trkpt>
      <trkpt lat="40.088866" lon="0.126158">
        <ele>28.311</ele>
        <time>1970-01-01T05:35:50Z</time>
      </trkpt>
      <trkpt lat="40.088838" lon="0.126124">
        <ele>28.267</ele>
        <time>1970-01-01T05:35:51Z</time>
      </trkpt>
      <trkpt lat="40.088809" lon="0.126089">
        <ele>28.371</ele>
        <time>1970-01-01T05:35:52Z</time>
      </trkpt>
      <trkpt lat="40.088781" lon="0.126054">
        <ele>28.462</ele>
        <time>1970-01-01T05:35:53Z</time>
      </trkpt>
      <trkpt lat="40.088751" lon="0.126019">
        <ele>28.555</ele>
        <time>1970-01-01T05:35:54Z</time>
      </trkpt>
      <trkpt lat="40.088720" lon="0.125986">
        <ele>28.607</ele>
        <time>1970-01-01T05:35:55Z</time>
      </trkpt>
      <trkpt lat="40.088688" lon="0.125951">
        <ele>28.717</ele>
        <time>1970-01-01T05:35:56Z</time>
      </trkpt>
      <trkpt lat="40.088656" lon="0.125916">
        <ele>28.808</ele>
        <time>1970-01-01T05:35:57Z</time>
      </trkpt>
      <trkpt lat="40.088628" lon="0.125880">
        <ele>28.942</ele>
        <time>1970-01-01T05:35:58Z</time>
      </trkpt>
      <trkpt lat="40.088601" lon="0.125845">
        <ele>29.119</ele>
        <time>1970-01-01T05:35:59Z</time>
      </trkpt>
      <trkpt lat="40.088573" lon="0.125809">
        <ele>29.390</ele>
        <time>1970-01-01T05:36:00Z</time>
      </trkpt>
      <trkpt lat="40.088545" lon="0.125771">
        <ele>29.583</ele>
        <time>1970-01-01T05:36:01Z</time>
      </trkpt>
      <trkpt lat="40.088516" lon="0.125735">
        <ele>29.723</ele>
        <time>1970-01-01T05:36:02Z</time>
      </trkpt>
      <trkpt lat="40.088487" lon="0.125701">
        <ele>29.979</ele>
        <time>1970-01-01T05:36:03Z</time>
      </trkpt>
      <trkpt lat="40.088458" lon="0.125666">
        <ele>30.183</ele>
        <time>1970-01-01T05:36:04Z</time>
      </trkpt>
      <trkpt lat="40.088428" lon="0.125630">
        <ele>30.334</ele>
        <time>1970-01-01T05:36:05Z</time>
      </trkpt>
      <trkpt lat="40.088398" lon="0.125594">
        <ele>30.549</ele>
        <time>1970-01-01T05:36:06Z</time>
      </trkpt>
      <trkpt lat="40.088368" lon="0.125559">
        <ele>30.802</ele>
        <time>1970-01-01T05:36:07Z</time>
      </trkpt>
      <trkpt lat="40.088337" lon="0.125524">
        <ele>31.022</ele>
        <time>1970-01-01T05:36:08Z</time>
      </trkpt>
      <trkpt lat="40.088305" lon="0.125491">
        <ele>31.108</ele>
        <time>1970-01-01T05:36:09Z</time>
      </trkpt>
      <trkpt lat="40.088273" lon="0.125456">
        <ele>31.321</ele>
        <time>1970-01-01T05:36:10Z</time>
      </trkpt>
      <trkpt lat="40.088241" lon="0.125421">
        <ele>31.528</ele>
        <time>1970-01-01T05:36:11Z</time>
      </trkpt>
      <trkpt lat="40.088207" lon="0.125384">
        <ele>31.759</ele>
        <time>1970-01-01T05:36:12Z</time>
      </trkpt>
      <trkpt lat="40.088172" lon="0.125346">
        <ele>32.052</ele>
        <time>1970-01-01T05:36:13Z</time>
      </trkpt>
      <trkpt lat="40.088137" lon="0.125309">
        <ele>32.312</ele>
        <time>1970-01-01T05:36:14Z</time>
      </trkpt>
      <trkpt lat="40.088100" lon="0.125272">
        <ele>32.778</ele>
        <time>1970-01-01T05:36:15Z</time>
      </trkpt>
      <trkpt lat="40.088061" lon="0.125237">
        <ele>33.022</ele>
        <time>1970-01-01T05:36:16Z</time>
      </trkpt>
      <trkpt lat="40.088022" lon="0.125203">
        <ele>33.283</ele>
        <time>1970-01-01T05:36:17Z</time>
      </trkpt>
      <trkpt lat="40.087982" lon="0.125169">
        <ele>33.536</ele>
        <time>1970-01-01T05:36:18Z</time>
      </trkpt>
      <trkpt lat="40.087943" lon="0.125136">
        <ele>33.817</ele>
        <time>1970-01-01T05:36:19Z</time>
      </trkpt>
      <trkpt lat="40.087902" lon="0.125103">
        <ele>34.118</ele>
        <time>1970-01-01T05:36:20Z</time>
      </trkpt>
      <trkpt lat="40.087860" lon="0.125070">
        <ele>34.408</ele>
        <time>1970-01-01T05:36:21Z</time>
      </trkpt>
      <trkpt lat="40.087819" lon="0.125040">
        <ele>34.790</ele>
        <time>1970-01-01T05:36:22Z</time>
      </trkpt>
      <trkpt lat="40.087777" lon="0.125011">
        <ele>35.067</ele>
        <time>1970-01-01T05:36:23Z</time>
      </trkpt>
      <trkpt lat="40.087736" lon="0.124983">
        <ele>35.128</ele>
        <time>1970-01-01T05:36:24Z</time>
      </trkpt>
      <trkpt lat="40.087693" lon="0.124955">
        <ele>35.271</ele>
        <time>1970-01-01T05:36:25Z</time>
      </trkpt>
      <trkpt lat="40.087650" lon="0.124930">
        <ele>35.391</ele>
        <time>1970-01-01T05:36:26Z</time>
      </trkpt>
      <trkpt lat="40.087607" lon="0.124908">
        <ele>35.337</ele>
        <time>1970-01-01T05:36:27Z</time>
      </trkpt>
      <trkpt lat="40.087564" lon="0.124885">
        <ele>35.471</ele>
        <time>1970-01-01T05:36:28Z</time>
      </trkpt>
      <trkpt lat="40.087522" lon="0.124861">
        <ele>35.582</ele>
        <time>1970-01-01T05:36:29Z</time>
      </trkpt>
      <trkpt lat="40.087481" lon="0.124836">
        <ele>35.696</ele>
        <time>1970-01-01T05:36:30Z</time>
      </trkpt>
      <trkpt lat="40.087441" lon="0.124815">
        <ele>35.731</ele>
        <time>1970-01-01T05:36:31Z</time>
      </trkpt>
      <trkpt lat="40.087401" lon="0.124801">
        <ele>35.824</ele>
        <time>1970-01-01T05:36:32Z</time>
      </trkpt>
      <trkpt lat="40.087361" lon="0.124794">
        <ele>35.908</ele>
        <time>1970-01-01T05:36:33Z</time>
      </trkpt>
      <trkpt lat="40.087322" lon="0.124790">
        <ele>35.916</ele>
        <time>1970-01-01T05:36:34Z</time>
      </trkpt>
      <trkpt lat="40.087284" lon="0.124789">
        <ele>35.923</ele>
        <time>1970-01-01T05:36:35Z</time>
      </trkpt>
      <trkpt lat="40.087245" lon="0.124790">
        <ele>36.024</ele>
        <time>1970-01-01T05:36:36Z</time>
      </trkpt>
      <trkpt lat="40.087206" lon="0.124789">
        <ele>36.037</ele>
        <time>1970-01-01T05:36:37Z</time>
      </trkpt>
      <trkpt lat="40.087168" lon="0.124790">
        <ele>36.137</ele>
        <time>1970-01-01T05:36:38Z</time>
      </trkpt>
      <trkpt lat="40.087129" lon="0.124789">
        <ele>36.233</ele>
        <time>1970-01-01T05:36:39Z</time>
      </trkpt>
      <trkpt lat="40.087092" lon="0.124784">
        <ele>36.237</ele>
        <time>1970-01-01T05:36:40Z</time>
      </trkpt>
      <trkpt lat="40.087056" lon="0.124779">
        <ele>36.288</ele>
        <time>1970-01-01T05:36:41Z</time>
      </trkpt>
      <trkpt lat="40.087019" lon="0.124767">
        <ele>36.264</ele>
        <time>1970-01-01T05:36:42Z</time>
      </trkpt>
      <trkpt lat="40.086985" lon="0.124750">
        <ele>36.206</ele>
        <time>1970-01-01T05:36:43Z</time>
      </trkpt>
      <trkpt lat="40.086950" lon="0.124733">
        <ele>36.116</ele>
        <time>1970-01-01T05:36:44Z</time>
      </trkpt>
      <trkpt lat="40.086916" lon="0.124717">
        <ele>36.308</ele>
        <time>1970-01-01T05:36:45Z</time>
      </trkpt>
      <trkpt lat="40.086881" lon="0.124698">
        <ele>36.763</ele>
        <time>1970-01-01T05:36:46Z</time>
      </trkpt>
      <trkpt lat="40.086847" lon="0.124681">
        <ele>37.150</ele>
        <time>1970-01-01T05:36:47Z</time>
      </trkpt>
      <trkpt lat="40.086813" lon="0.124666">
        <ele>37.431</ele>
        <time>1970-01-01T05:36:48Z</time>
      </trkpt>
      <trkpt lat="40.086779" lon="0.124651">
        <ele>37.774</ele>
        <time>1970-01-01T05:36:49Z</time>
      </trkpt>
      <trkpt lat="40.086745" lon="0.124637">
        <ele>38.014</ele>
        <time>1970-01-01T05:36:50Z</time>
      </trkpt>
      <trkpt lat="40.086711" lon="0.124624">
        <ele>38.360</ele>
        <time>1970-01-01T05:36:51Z</time>
      </trkpt>
      <trkpt lat="40.086677" lon="0.124611">
        <ele>38.544</ele>
        <time>1970-01-01T05:36:52Z</time>
      </trkpt>
      <trkpt lat="40.086642" lon="0.124598">
        <ele>38.795</ele>
        <time>1970-01-01T05:36:53Z</time>
      </trkpt>
      <trkpt lat="40.086608" lon="0.124585">
        <ele>38.942</ele>
        <time>1970-01-01T05:36:54Z</time>
      </trkpt>
      <trkpt lat="40.086576" lon="0.124575">
        <ele>39.122</ele>
        <time>1970-01-01T05:36:55Z</time>
      </trkpt>
      <trkpt lat="40.086547" lon="0.124565">
        <ele>39.314</ele>
        <time>1970-01-01T05:36:56Z</time>
      </trkpt>
      <trkpt lat="40.086517" lon="0.124553">
        <ele>39.508</ele>
        <time>1970-01-01T05:36:57Z</time>
      </trkpt>
      <trkpt lat="40.086487" lon="0.124539">
        <ele>39.661</ele>
        <time>1970-01-01T05:36:58Z</time>
      </trkpt>
      <trkpt lat="40.086457" lon="0.124524">
        <ele>39.828</ele>
        <time>1970-01-01T05:36:59Z</time>
      </trkpt>
      <trkpt lat="40.086426" lon="0.124510">
        <ele>40.039</ele>
        <time>1970-01-01T05:37:00Z</time>
      </trkpt>
      <trkpt lat="40.086394" lon="0.124497">
        <ele>40.282</ele>
        <time>1970-01-01T05:37:01Z</time>
      </trkpt>
      <trkpt lat="40.086361" lon="0.124485">
        <ele>40.182</ele>
        <time>1970-01-01T05:37:02Z</time>
      </trkpt>
      <trkpt lat="40.086329" lon="0.124475">
        <ele>40.158</ele>
        <time>1970-01-01T05:37:03Z</time>
      </trkpt>
      <trkpt lat="40.086297" lon="0.124463">
        <ele>40.162</ele>
        <time>1970-01-01T05:37:04Z</time>
      </trkpt>
      <trkpt lat="40.086263" lon="0.124450">
        <ele>40.023</ele>
        <time>1970-01-01T05:37:05Z</time>
      </trkpt>
      <trkpt lat="40.086229" lon="0.124438">
        <ele>40.079</ele>
        <time>1970-01-01T05:37:06Z</time>
      </trkpt>
      <trkpt lat="40.086194" lon="0.124425">
        <ele>40.005</ele>
        <time>1970-01-01T05:37:07Z</time>
      </trkpt>
      <trkpt lat="40.086157" lon="0.124410">
        <ele>40.125</ele>
        <time>1970-01-01T05:37:08Z</time>
      </trkpt>
      <trkpt lat="40.086120" lon="0.124395">
        <ele>40.208</ele>
        <time>1970-01-01T05:37:09Z</time>
      </trkpt>
      <trkpt lat="40.086082" lon="0.124380">
        <ele>40.144</ele>
        <time>1970-01-01T05:37:10Z</time>
      </trkpt>
      <trkpt lat="40.086044" lon="0.124367">
        <ele>40.021</ele>
        <time>1970-01-01T05:37:11Z</time>
      </trkpt>
      <trkpt lat="40.086006" lon="0.124352">
        <ele>40.082</ele>
        <time>1970-01-01T05:37:12Z</time>
      </trkpt>
      <trkpt lat="40.085969" lon="0.124339">
        <ele>39.965</ele>
        <time>1970-01-01T05:37:13Z</time>
      </trkpt>
      <trkpt lat="40.085933" lon="0.124327">
        <ele>39.865</ele>
        <time>1970-01-01T05:37:14Z</time>
      </trkpt>
      <trkpt lat="40.085899" lon="0.124315">
        <ele>39.711</ele>
        <time>1970-01-01T05:37:15Z</time>
      </trkpt>
      <trkpt lat="40.085866" lon="0.124298">
        <ele>39.665</ele>
        <time>1970-01-01T05:37:16Z</time>
      </trkpt>
      <trkpt lat="40.085835" lon="0.124278">
        <ele>39.626</ele>
        <time>1970-01-01T05:37:17Z</time>
      </trkpt>
      <trkpt lat="40.085800" lon="0.124262">
        <ele>39.614</ele>
        <time>1970-01-01T05:37:18Z</time>
      </trkpt>
      <trkpt lat="40.085765" lon="0.124249">
        <ele>39.554</ele>
        <time>1970-01-01T05:37:19Z</time>
      </trkpt>
      <trkpt lat="40.085730" lon="0.124236">
        <ele>39.509</ele>
        <time>1970-01-01T05:37:20Z</time>
      </trkpt>
      <trkpt lat="40.085694" lon="0.124223">
        <ele>39.408</ele>
        <time>1970-01-01T05:37:21Z</time>
      </trkpt>
      <trkpt lat="40.085658" lon="0.124209">
        <ele>39.348</ele>
        <time>1970-01-01T05:37:22Z</time>
      </trkpt>
      <trkpt lat="40.085623" lon="0.124196">
        <ele>39.295</ele>
        <time>1970-01-01T05:37:23Z</time>
      </trkpt>
      <trkpt lat="40.085587" lon="0.124184">
        <ele>39.146</ele>
        <time>1970-01-01T05:37:24Z</time>
      </trkpt>
      <trkpt lat="40.085551" lon="0.124173">
        <ele>39.059</ele>
        <time>1970-01-01T05:37:25Z</time>
      </trkpt>
      <trkpt lat="40.085515" lon="0.124161">
        <ele>39.329</ele>
        <time>1970-01-01T05:37:26Z</time>
      </trkpt>
      <trkpt lat="40.085477" lon="0.124148">
        <ele>39.745</ele>
        <time>1970-01-01T05:37:27Z</time>
      </trkpt>
      <trkpt lat="40.085439" lon="0.124138">
        <ele>40.069</ele>
        <time>1970-01-01T05:37:28Z</time>
      </trkpt>
      <trkpt lat="40.085401" lon="0.124130">
        <ele>40.280</ele>
        <time>1970-01-01T05:37:29Z</time>
      </trkpt>
      <trkpt lat="40.085364" lon="0.124125">
        <ele>40.526</ele>
        <time>1970-01-01T05:37:30Z</time>
      </trkpt>
      <trkpt lat="40.085327" lon="0.124121">
        <ele>40.747</ele>
        <time>1970-01-01T05:37:31Z</time>
      </trkpt>
      <trkpt lat="40.085290" lon="0.124118">
        <ele>40.911</ele>
        <time>1970-01-01T05:37:32Z</time>
      </trkpt>
      <trkpt lat="40.085252" lon="0.124118">
        <ele>41.108</ele>
        <time>1970-01-01T05:37:33Z</time>
      </trkpt>
      <trkpt lat="40.085215" lon="0.124116">
        <ele>41.229</ele>
        <time>1970-01-01T05:37:34Z</time>
      </trkpt>
      <trkpt lat="40.085177" lon="0.124115">
        <ele>41.496</ele>
        <time>1970-01-01T05:37:35Z</time>
      </trkpt>
      <trkpt lat="40.085140" lon="0.124113">
        <ele>41.527</ele>
        <time>1970-01-01T05:37:36Z</time>
      </trkpt>
      <trkpt lat="40.085103" lon="0.124110">
        <ele>41.620</ele>
        <time>1970-01-01T05:37:37Z</time>
      </trkpt>
      <trkpt lat="40.085067" lon="0.124111">
        <ele>41.820</ele>
        <time>1970-01-01T05:37:38Z</time>
      </trkpt>
      <trkpt lat="40.085032" lon="0.124111">
        <ele>41.956</ele>
        <time>1970-01-01T05:37:39Z</time>
      </trkpt>
      <trkpt lat="40.084996" lon="0.124115">
        <ele>42.020</ele>
        <time>1970-01-01T05:37:40Z</time>
      </trkpt>
      <trkpt lat="40.084959" lon="0.124121">
        <ele>42.181</ele>
        <time>1970-01-01T05:37:41Z</time>
      </trkpt>
      <trkpt lat="40.084923" lon="0.124125">
        <ele>42.249</ele>
        <time>1970-01-01T05:37:42Z</time>
      </trkpt>
      <trkpt lat="40.084887" lon="0.124125">
        <ele>42.302</ele>
        <time>1970-01-01T05:37:43Z</time>
      </trkpt>
      <trkpt lat="40.084851" lon="0.124119">
        <ele>42.422</ele>
        <time>1970-01-01T05:37:44Z</time>
      </trkpt>
      <trkpt lat="40.084816" lon="0.124111">
        <ele>42.508</ele>
        <time>1970-01-01T05:37:45Z</time>
      </trkpt>
      <trkpt lat="40.084781" lon="0.124105">
        <ele>42.691</ele>
        <time>1970-01-01T05:37:46Z</time>
      </trkpt>
      <trkpt lat="40.084748" lon="0.124100">
        <ele>42.768</ele>
        <time>1970-01-01T05:37:47Z</time>
      </trkpt>
      <trkpt lat="40.084714" lon="0.124098">
        <ele>42.999</ele>
        <time>1970-01-01T05:37:48Z</time>
      </trkpt>
      <trkpt lat="40.084680" lon="0.124097">
        <ele>43.352</ele>
        <time>1970-01-01T05:37:49Z</time>
      </trkpt>
      <trkpt lat="40.084647" lon="0.124096">
        <ele>43.742</ele>
        <time>1970-01-01T05:37:50Z</time>
      </trkpt>
      <trkpt lat="40.084616" lon="0.124092">
        <ele>44.138</ele>
        <time>1970-01-01T05:37:51Z</time>
      </trkpt>
      <trkpt lat="40.084583" lon="0.124089">
        <ele>44.462</ele>
        <time>1970-01-01T05:37:52Z</time>
      </trkpt>
      <trkpt lat="40.084549" lon="0.124089">
        <ele>44.933</ele>
        <time>1970-01-01T05:37:53Z</time>
      </trkpt>
      <trkpt lat="40.084515" lon="0.124092">
        <ele>45.335</ele>
        <time>1970-01-01T05:37:54Z</time>
      </trkpt>
      <trkpt lat="40.084482" lon="0.124097">
        <ele>45.886</ele>
        <time>1970-01-01T05:37:55Z</time>
      </trkpt>
      <trkpt lat="40.084448" lon="0.124105">
        <ele>46.314</ele>
        <time>1970-01-01T05:37:56Z</time>
      </trkpt>
      <trkpt lat="40.084415" lon="0.124118">
        <ele>46.708</ele>
        <time>1970-01-01T05:37:57Z</time>
      </trkpt>
      <trkpt lat="40.084381" lon="0.124135">
        <ele>47.190</ele>
        <time>1970-01-01T05:37:58Z</time>
      </trkpt>
      <trkpt lat="40.084350" lon="0.124151">
        <ele>47.547</ele>
        <time>1970-01-01T05:37:59Z</time>
      </trkpt>
      <trkpt lat="40.084318" lon="0.124162">
        <ele>47.948</ele>
        <time>1970-01-01T05:38:00Z</time>
      </trkpt>
      <trkpt lat="40.084286" lon="0.124171">
        <ele>48.281</ele>
        <time>1970-01-01T05:38:01Z</time>
      </trkpt>
      <trkpt lat="40.084254" lon="0.124181">
        <ele>48.521</ele>
        <time>1970-01-01T05:38:02Z</time>
      </trkpt>
      <trkpt lat="40.084223" lon="0.124188">
        <ele>48.737</ele>
        <time>1970-01-01T05:38:03Z</time>
      </trkpt>
      <trkpt lat="40.084191" lon="0.124193">
        <ele>49.071</ele>
        <time>1970-01-01T05:38:04Z</time>
      </trkpt>
      <trkpt lat="40.084160" lon="0.124195">
        <ele>49.232</ele>
        <time>1970-01-01T05:38:05Z</time>
      </trkpt>
      <trkpt lat="40.084131" lon="0.124194">
        <ele>49.471</ele>
        <time>1970-01-01T05:38:06Z</time>
      </trkpt>
      <trkpt lat="40.084101" lon="0.124191">
        <ele>49.641</ele>
        <time>1970-01-01T05:38:07Z</time>
      </trkpt>
      <trkpt lat="40.084070" lon="0.124188">
        <ele>49.815</ele>
        <time>1970-01-01T05:38:08Z</time>
      </trkpt>
      <trkpt lat="40.084040" lon="0.124184">
        <ele>50.008</ele>
        <time>1970-01-01T05:38:09Z</time>
      </trkpt>
      <trkpt lat="40.084008" lon="0.124178">
        <ele>50.224</ele>
        <time>1970-01-01T05:38:10Z</time>
      </trkpt>
      <trkpt lat="40.083975" lon="0.124175">
        <ele>50.441</ele>
        <time>1970-01-01T05:38:11Z</time>
      </trkpt>
      <trkpt lat="40.083943" lon="0.124175">
        <ele>50.642</ele>
        <time>1970-01-01T05:38:12Z</time>
      </trkpt>
      <trkpt lat="40.083910" lon="0.124182">
        <ele>50.955</ele>
        <time>1970-01-01T05:38:13Z</time>
      </trkpt>
      <trkpt lat="40.083877" lon="0.124188">
        <ele>51.235</ele>
        <time>1970-01-01T05:38:14Z</time>
      </trkpt>
      <trkpt lat="40.083846" lon="0.124199">
        <ele>51.421</ele>
        <time>1970-01-01T05:38:15Z</time>
      </trkpt>
      <trkpt lat="40.083817" lon="0.124211">
        <ele>51.765</ele>
        <time>1970-01-01T05:38:16Z</time>
      </trkpt>
      <trkpt lat="40.083788" lon="0.124226">
        <ele>51.916</ele>
        <time>1970-01-01T05:38:17Z</time>
      </trkpt>
      <trkpt lat="40.083760" lon="0.124242">
        <ele>52.291</ele>
        <time>1970-01-01T05:38:18Z</time>
      </trkpt>
      <trkpt lat="40.083732" lon="0.124261">
        <ele>52.581</ele>
        <time>1970-01-01T05:38:19Z</time>
      </trkpt>
      <trkpt lat="40.083704" lon="0.124282">
        <ele>52.719</ele>
        <time>1970-01-01T05:38:20Z</time>
      </trkpt>
      <trkpt lat="40.083677" lon="0.124305">
        <ele>53.008</ele>
        <time>1970-01-01T05:38:21Z</time>
      </trkpt>
      <trkpt lat="40.083651" lon="0.124327">
        <ele>53.336</ele>
        <time>1970-01-01T05:38:22Z</time>
      </trkpt>
      <trkpt lat="40.083626" lon="0.124347">
        <ele>53.513</ele>
        <time>1970-01-01T05:38:23Z</time>
      </trkpt>
      <trkpt lat="40.083599" lon="0.124364">
        <ele>53.824</ele>
        <time>1970-01-01T05:38:24Z</time>
      </trkpt>
      <trkpt lat="40.083572" lon="0.124378">
        <ele>54.047</ele>
        <time>1970-01-01T05:38:25Z</time>
      </trkpt>
      <trkpt lat="40.083545" lon="0.124387">
        <ele>54.117</ele>
        <time>1970-01-01T05:38:26Z</time>
      </trkpt>
      <trkpt lat="40.083517" lon="0.124396">
        <ele>54.333</ele>
        <time>1970-01-01T05:38:27Z</time>
      </trkpt>
      <trkpt lat="40.083490" lon="0.124404">
        <ele>54.447</ele>
        <time>1970-01-01T05:38:28Z</time>
      </trkpt>
      <trkpt lat="40.083461" lon="0.124407">
        <ele>54.688</ele>
        <time>1970-01-01T05:38:29Z</time>
      </trkpt>
      <trkpt lat="40.083433" lon="0.124404">
        <ele>54.736</ele>
        <time>1970-01-01T05:38:30Z</time>
      </trkpt>
      <trkpt lat="40.083404" lon="0.124396">
        <ele>54.817</ele>
        <time>1970-01-01T05:38:31Z</time>
      </trkpt>
      <trkpt lat="40.083377" lon="0.124383">
        <ele>55.018</ele>
        <time>1970-01-01T05:38:32Z</time>
      </trkpt>
      <trkpt lat="40.083350" lon="0.124364">
        <ele>55.208</ele>
        <time>1970-01-01T05:38:33Z</time>
      </trkpt>
      <trkpt lat="40.083332" lon="0.124341">
        <ele>55.420</ele>
        <time>1970-01-01T05:38:34Z</time>
      </trkpt>
      <trkpt lat="40.083319" lon="0.124312">
        <ele>55.777</ele>
        <time>1970-01-01T05:38:35Z</time>
      </trkpt>
      <trkpt lat="40.083309" lon="0.124283">
        <ele>55.918</ele>
        <time>1970-01-01T05:38:36Z</time>
      </trkpt>
      <trkpt lat="40.083300" lon="0.124251">
        <ele>56.111</ele>
        <time>1970-01-01T05:38:37Z</time>
      </trkpt>
      <trkpt lat="40.083293" lon="0.124220">
        <ele>56.331</ele>
        <time>1970-01-01T05:38:38Z</time>
      </trkpt>
      <trkpt lat="40.083288" lon="0.124188">
        <ele>56.417</ele>
        <time>1970-01-01T05:38:39Z</time>
      </trkpt>
      <trkpt lat="40.083284" lon="0.124152">
        <ele>56.691</ele>
        <time>1970-01-01T05:38:40Z</time>
      </trkpt>
      <trkpt lat="40.083279" lon="0.124117">
        <ele>56.982</ele>
        <time>1970-01-01T05:38:41Z</time>
      </trkpt>
      <trkpt lat="40.083275" lon="0.124082">
        <ele>57.241</ele>
        <time>1970-01-01T05:38:42Z</time>
      </trkpt>
      <trkpt lat="40.083270" lon="0.124045">
        <ele>57.581</ele>
        <time>1970-01-01T05:38:43Z</time>
      </trkpt>
      <trkpt lat="40.083266" lon="0.124008">
        <ele>57.709</ele>
        <time>1970-01-01T05:38:44Z</time>
      </trkpt>
      <trkpt lat="40.083266" lon="0.123971">
        <ele>58.008</ele>
        <time>1970-01-01T05:38:45Z</time>
      </trkpt>
      <trkpt lat="40.083267" lon="0.123933">
        <ele>58.261</ele>
        <time>1970-01-01T05:38:46Z</time>
      </trkpt>
      <trkpt lat="40.083266" lon="0.123895">
        <ele>58.438</ele>
        <time>1970-01-01T05:38:47Z</time>
      </trkpt>
      <trkpt lat="40.083258" lon="0.123856">
        <ele>58.539</ele>
        <time>1970-01-01T05:38:48Z</time>
      </trkpt>
      <trkpt lat="40.083243" lon="0.123816">
        <ele>58.672</ele>
        <time>1970-01-01T05:38:49Z</time>
      </trkpt>
      <trkpt lat="40.083218" lon="0.123776">
        <ele>58.872</ele>
        <time>1970-01-01T05:38:50Z</time>
      </trkpt>
      <trkpt lat="40.083187" lon="0.123739">
        <ele>59.148</ele>
        <time>1970-01-01T05:38:51Z</time>
      </trkpt>
      <trkpt lat="40.083152" lon="0.123704">
        <ele>59.512</ele>
        <time>1970-01-01T05:38:52Z</time>
      </trkpt>
      <trkpt lat="40.083113" lon="0.123673">
        <ele>60.083</ele>
        <time>1970-01-01T05:38:53Z</time>
      </trkpt>
      <trkpt lat="40.083071" lon="0.123644">
        <ele>60.793</ele>
        <time>1970-01-01T05:38:54Z</time>
      </trkpt>
      <trkpt lat="40.083028" lon="0.123613">
        <ele>61.165</ele>
        <time>1970-01-01T05:38:55Z</time>
      </trkpt>
      <trkpt lat="40.082981" lon="0.123577">
        <ele>61.021</ele>
        <time>1970-01-01T05:38:56Z</time>
      </trkpt>
      <trkpt lat="40.082937" lon="0.123540">
        <ele>60.908</ele>
        <time>1970-01-01T05:38:57Z</time>
      </trkpt>
      <trkpt lat="40.082894" lon="0.123499">
        <ele>60.896</ele>
        <time>1970-01-01T05:38:58Z</time>
      </trkpt>
      <trkpt lat="40.082852" lon="0.123460">
        <ele>60.623</ele>
        <time>1970-01-01T05:38:59Z</time>
      </trkpt>
      <trkpt lat="40.082812" lon="0.123419">
        <ele>60.514</ele>
        <time>1970-01-01T05:39:00Z</time>
      </trkpt>
      <trkpt lat="40.082772" lon="0.123381">
        <ele>60.437</ele>
        <time>1970-01-01T05:39:01Z</time>
      </trkpt>
      <trkpt lat="40.082731" lon="0.123343">
        <ele>60.197</ele>
        <time>1970-01-01T05:39:02Z</time>
      </trkpt>
      <trkpt lat="40.082691" lon="0.123299">
        <ele>59.653</ele>
        <time>1970-01-01T05:39:03Z</time>
      </trkpt>
      <trkpt lat="40.082647" lon="0.123256">
        <ele>59.277</ele>
        <time>1970-01-01T05:39:04Z</time>
      </trkpt>
      <trkpt lat="40.082599" lon="0.123208">
        <ele>58.618</ele>
        <time>1970-01-01T05:39:05Z</time>
      </trkpt>
      <trkpt lat="40.082551" lon="0.123155">
        <ele>58.165</ele>
        <time>1970-01-01T05:39:06Z</time>
      </trkpt>
      <trkpt lat="40.082499" lon="0.123105">
        <ele>57.568</ele>
        <time>1970-01-01T05:39:07Z</time>
      </trkpt>
      <trkpt lat="40.082440" lon="0.123060">
        <ele>57.514</ele>
        <time>1970-01-01T05:39:08Z</time>
      </trkpt>
      <trkpt lat="40.082381" lon="0.123024">
        <ele>57.608</ele>
        <time>1970-01-01T05:39:09Z</time>
      </trkpt>
      <trkpt lat="40.082322" lon="0.122994">
        <ele>57.813</ele>
        <time>1970-01-01T05:39:10Z</time>
      </trkpt>
      <trkpt lat="40.082258" lon="0.122966">
        <ele>58.130</ele>
        <time>1970-01-01T05:39:11Z</time>
      </trkpt>
      <trkpt lat="40.082196" lon="0.122939">
        <ele>58.491</ele>
        <time>1970-01-01T05:39:12Z</time>
      </trkpt>
      <trkpt lat="40.082138" lon="0.122913">
        <ele>58.744</ele>
        <time>1970-01-01T05:39:13Z</time>
      </trkpt>
      <trkpt lat="40.082077" lon="0.122887">
        <ele>59.144</ele>
        <time>1970-01-01T05:39:14Z</time>
      </trkpt>
      <trkpt lat="40.082016" lon="0.122862">
        <ele>59.610</ele>
        <time>1970-01-01T05:39:15Z</time>
      </trkpt>
      <trkpt lat="40.081956" lon="0.122837">
        <ele>60.124</ele>
        <time>1970-01-01T05:39:16Z</time>
      </trkpt>
      <trkpt lat="40.081897" lon="0.122815">
        <ele>60.295</ele>
        <time>1970-01-01T05:39:17Z</time>
      </trkpt>
      <trkpt lat="40.081844" lon="0.122799">
        <ele>60.181</ele>
        <time>1970-01-01T05:39:18Z</time>
      </trkpt>
      <trkpt lat="40.081791" lon="0.122781">
        <ele>60.061</ele>
        <time>1970-01-01T05:39:19Z</time>
      </trkpt>
      <trkpt lat="40.081740" lon="0.122757">
        <ele>59.917</ele>
        <time>1970-01-01T05:39:20Z</time>
      </trkpt>
      <trkpt lat="40.081696" lon="0.122726">
        <ele>59.808</ele>
        <time>1970-01-01T05:39:21Z</time>
      </trkpt>
      <trkpt lat="40.081649" lon="0.122691">
        <ele>59.865</ele>
        <time>1970-01-01T05:39:22Z</time>
      </trkpt>
      <trkpt lat="40.081610" lon="0.122664">
        <ele>59.962</ele>
        <time>1970-01-01T05:39:23Z</time>
      </trkpt>
      <trkpt lat="40.081568" lon="0.122637">
        <ele>60.073</ele>
        <time>1970-01-01T05:39:24Z</time>
      </trkpt>
      <trkpt lat="40.081523" lon="0.122610">
        <ele>60.166</ele>
        <time>1970-01-01T05:39:25Z</time>
      </trkpt>
      <trkpt lat="40.081471" lon="0.122586">
        <ele>60.266</ele>
        <time>1970-01-01T05:39:26Z</time>
      </trkpt>
      <trkpt lat="40.081418" lon="0.122566">
        <ele>60.352</ele>
        <time>1970-01-01T05:39:27Z</time>
      </trkpt>
      <trkpt lat="40.081360" lon="0.122540">
        <ele>60.466</ele>
        <time>1970-01-01T05:39:28Z</time>
      </trkpt>
      <trkpt lat="40.081306" lon="0.122513">
        <ele>60.427</ele>
        <time>1970-01-01T05:39:29Z</time>
      </trkpt>
      <trkpt lat="40.081247" lon="0.122475">
        <ele>60.546</ele>
        <time>1970-01-01T05:39:30Z</time>
      </trkpt>
      <trkpt lat="40.081192" lon="0.122438">
        <ele>60.688</ele>
        <time>1970-01-01T05:39:31Z</time>
      </trkpt>
      <trkpt lat="40.081141" lon="0.122401">
        <ele>60.916</ele>
        <time>1970-01-01T05:39:32Z</time>
      </trkpt>
      <trkpt lat="40.081100" lon="0.122363">
        <ele>61.008</ele>
        <time>1970-01-01T05:39:33Z</time>
      </trkpt>
      <trkpt lat="40.081065" lon="0.122322">
        <ele>60.921</ele>
        <time>1970-01-01T05:39:34Z</time>
      </trkpt>
      <trkpt lat="40.081039" lon="0.122276">
        <ele>61.038</ele>
        <time>1970-01-01T05:39:35Z</time>
      </trkpt>
      <trkpt lat="40.081022" lon="0.122225">
        <ele>61.019</ele>
        <time>1970-01-01T05:39:36Z</time>
      </trkpt>
      <trkpt lat="40.081017" lon="0.122174">
        <ele>61.112</ele>
        <time>1970-01-01T05:39:37Z</time>
      </trkpt>
      <trkpt lat="40.081024" lon="0.122130">
        <ele>61.182</ele>
        <time>1970-01-01T05:39:38Z</time>
      </trkpt>
      <trkpt lat="40.081043" lon="0.122105">
        <ele>61.188</ele>
        <time>1970-01-01T05:39:39Z</time>
      </trkpt>
      <trkpt lat="40.081068" lon="0.122092">
        <ele>61.192</ele>
        <time>1970-01-01T05:39:40Z</time>
      </trkpt>
      <trkpt lat="40.081097" lon="0.122087">
        <ele>61.033</ele>
        <time>1970-01-01T05:39:41Z</time>
      </trkpt>
      <trkpt lat="40.081130" lon="0.122085">
        <ele>60.962</ele>
        <time>1970-01-01T05:39:42Z</time>
      </trkpt>
      <trkpt lat="40.081160" lon="0.122078">
        <ele>60.683</ele>
        <time>1970-01-01T05:39:43Z</time>
      </trkpt>
      <trkpt lat="40.081192" lon="0.122073">
        <ele>60.411</ele>
        <time>1970-01-01T05:39:44Z</time>
      </trkpt>
      <trkpt lat="40.081223" lon="0.122065">
        <ele>60.208</ele>
        <time>1970-01-01T05:39:45Z</time>
      </trkpt>
      <trkpt lat="40.081254" lon="0.122061">
        <ele>60.073</ele>
        <time>1970-01-01T05:39:46Z</time>
      </trkpt>
      <trkpt lat="40.081283" lon="0.122062">
        <ele>59.880</ele>
        <time>1970-01-01T05:39:47Z</time>
      </trkpt>
      <trkpt lat="40.081314" lon="0.122064">
        <ele>59.541</ele>
        <time>1970-01-01T05:39:48Z</time>
      </trkpt>
      <trkpt lat="40.081347" lon="0.122060">
        <ele>59.364</ele>
        <time>1970-01-01T05:39:49Z</time>
      </trkpt>
      <trkpt lat="40.081381" lon="0.122053">
        <ele>59.144</ele>
        <time>1970-01-01T05:39:50Z</time>
      </trkpt>
      <trkpt lat="40.081415" lon="0.122046">
        <ele>58.990</ele>
        <time>1970-01-01T05:39:51Z</time>
      </trkpt>
      <trkpt lat="40.081452" lon="0.122033">
        <ele>58.814</ele>
        <time>1970-01-01T05:39:52Z</time>
      </trkpt>
      <trkpt lat="40.081491" lon="0.122018">
        <ele>58.695</ele>
        <time>1970-01-01T05:39:53Z</time>
      </trkpt>
      <trkpt lat="40.081528" lon="0.121999">
        <ele>58.516</ele>
        <time>1970-01-01T05:39:54Z</time>
      </trkpt>
      <trkpt lat="40.081567" lon="0.121978">
        <ele>58.476</ele>
        <time>1970-01-01T05:39:55Z</time>
      </trkpt>
      <trkpt lat="40.081604" lon="0.121951">
        <ele>58.213</ele>
        <time>1970-01-01T05:39:56Z</time>
      </trkpt>
      <trkpt lat="40.081640" lon="0.121922">
        <ele>58.108</ele>
        <time>1970-01-01T05:39:57Z</time>
      </trkpt>
      <trkpt lat="40.081677" lon="0.121896">
        <ele>58.058</ele>
        <time>1970-01-01T05:39:58Z</time>
      </trkpt>
      <trkpt lat="40.081712" lon="0.121868">
        <ele>58.045</ele>
        <time>1970-01-01T05:39:59Z</time>
      </trkpt>
      <trkpt lat="40.081748" lon="0.121839">
        <ele>58.026</ele>
        <time>1970-01-01T05:40:00Z</time>
      </trkpt>
      <trkpt lat="40.081780" lon="0.121810">
        <ele>58.069</ele>
        <time>1970-01-01T05:40:01Z</time>
      </trkpt>
      <trkpt lat="40.081809" lon="0.121778">
        <ele>58.089</ele>
        <time>1970-01-01T05:40:02Z</time>
      </trkpt>
      <trkpt lat="40.081835" lon="0.121743">
        <ele>58.075</ele>
        <time>1970-01-01T05:40:03Z</time>
      </trkpt>
      <trkpt lat="40.081865" lon="0.121710">
        <ele>58.059</ele>
        <time>1970-01-01T05:40:04Z</time>
      </trkpt>
      <trkpt lat="40.081894" lon="0.121678">
        <ele>58.050</ele>
        <time>1970-01-01T05:40:05Z</time>
      </trkpt>
      <trkpt lat="40.081925" lon="0.121651">
        <ele>58.185</ele>
        <time>1970-01-01T05:40:06Z</time>
      </trkpt>
      <trkpt lat="40.081954" lon="0.121619">
        <ele>58.289</ele>
        <time>1970-01-01T05:40:07Z</time>
      </trkpt>
      <trkpt lat="40.081984" lon="0.121584">
        <ele>58.217</ele>
        <time>1970-01-01T05:40:08Z</time>
      </trkpt>
      <trkpt lat="40.082013" lon="0.121541">
        <ele>58.108</ele>
        <time>1970-01-01T05:40:09Z</time>
      </trkpt>
      <trkpt lat="40.082046" lon="0.121500">
        <ele>57.935</ele>
        <time>1970-01-01T05:40:10Z</time>
      </trkpt>
      <trkpt lat="40.082085" lon="0.121461">
        <ele>57.642</ele>
        <time>1970-01-01T05:40:11Z</time>
      </trkpt>
      <trkpt lat="40.082121" lon="0.121421">
        <ele>57.213</ele>
        <time>1970-01-01T05:40:12Z</time>
      </trkpt>
      <trkpt lat="40.082158" lon="0.121375">
        <ele>56.696</ele>
        <time>1970-01-01T05:40:13Z</time>
      </trkpt>
      <trkpt lat="40.082188" lon="0.121313">
        <ele>56.196</ele>
        <time>1970-01-01T05:40:14Z</time>
      </trkpt>
      <trkpt lat="40.082201" lon="0.121245">
        <ele>55.792</ele>
        <time>1970-01-01T05:40:15Z</time>
      </trkpt>
      <trkpt lat="40.082196" lon="0.121172">
        <ele>55.516</ele>
        <time>1970-01-01T05:40:16Z</time>
      </trkpt>
      <trkpt lat="40.082182" lon="0.121099">
        <ele>55.437</ele>
        <time>1970-01-01T05:40:17Z</time>
      </trkpt>
      <trkpt lat="40.082163" lon="0.121027">
        <ele>55.488</ele>
        <time>1970-01-01T05:40:18Z</time>
      </trkpt>
      <trkpt lat="40.082138" lon="0.120964">
        <ele>55.524</ele>
        <time>1970-01-01T05:40:19Z</time>
      </trkpt>
      <trkpt lat="40.082108" lon="0.120901">
        <ele>55.826</ele>
        <time>1970-01-01T05:40:20Z</time>
      </trkpt>
      <trkpt lat="40.082082" lon="0.120839">
        <ele>56.008</ele>
        <time>1970-01-01T05:40:21Z</time>
      </trkpt>
      <trkpt lat="40.082052" lon="0.120782">
        <ele>56.675</ele>
        <time>1970-01-01T05:40:22Z</time>
      </trkpt>
      <trkpt lat="40.082022" lon="0.120730">
        <ele>57.332</ele>
        <time>1970-01-01T05:40:23Z</time>
      </trkpt>
      <trkpt lat="40.081993" lon="0.120679">
        <ele>57.993</ele>
        <time>1970-01-01T05:40:24Z</time>
      </trkpt>
      <trkpt lat="40.081964" lon="0.120628">
        <ele>58.526</ele>
        <time>1970-01-01T05:40:25Z</time>
      </trkpt>
      <trkpt lat="40.081931" lon="0.120577">
        <ele>59.026</ele>
        <time>1970-01-01T05:40:26Z</time>
      </trkpt>
      <trkpt lat="40.081897" lon="0.120530">
        <ele>59.242</ele>
        <time>1970-01-01T05:40:27Z</time>
      </trkpt>
      <trkpt lat="40.081864" lon="0.120489">
        <ele>59.456</ele>
        <time>1970-01-01T05:40:28Z</time>
      </trkpt>
      <trkpt lat="40.081831" lon="0.120448">
        <ele>59.647</ele>
        <time>1970-01-01T05:40:29Z</time>
      </trkpt>
      <trkpt lat="40.081798" lon="0.120409">
        <ele>59.874</ele>
        <time>1970-01-01T05:40:30Z</time>
      </trkpt>
      <trkpt lat="40.081766" lon="0.120367">
        <ele>60.156</ele>
        <time>1970-01-01T05:40:31Z</time>
      </trkpt>
      <trkpt lat="40.081735" lon="0.120324">
        <ele>60.421</ele>
        <time>1970-01-01T05:40:32Z</time>
      </trkpt>
      <trkpt lat="40.081703" lon="0.120281">
        <ele>60.708</ele>
        <time>1970-01-01T05:40:33Z</time>
      </trkpt>
      <trkpt lat="40.081669" lon="0.120237">
        <ele>60.744</ele>
        <time>1970-01-01T05:40:34Z</time>
      </trkpt>
      <trkpt lat="40.081630" lon="0.120195">
        <ele>60.791</ele>
        <time>1970-01-01T05:40:35Z</time>
      </trkpt>
      <trkpt lat="40.081590" lon="0.120149">
        <ele>60.642</ele>
        <time>1970-01-01T05:40:36Z</time>
      </trkpt>
      <trkpt lat="40.081552" lon="0.120103">
        <ele>60.625</ele>
        <time>1970-01-01T05:40:37Z</time>
      </trkpt>
      <trkpt lat="40.081509" lon="0.120050">
        <ele>60.595</ele>
        <time>1970-01-01T05:40:38Z</time>
      </trkpt>
      <trkpt lat="40.081460" lon="0.119994">
        <ele>60.531</ele>
        <time>1970-01-01T05:40:39Z</time>
      </trkpt>
      <trkpt lat="40.081405" lon="0.119940">
        <ele>60.515</ele>
        <time>1970-01-01T05:40:40Z</time>
      </trkpt>
      <trkpt lat="40.081345" lon="0.119884">
        <ele>60.316</ele>
        <time>1970-01-01T05:40:41Z</time>
      </trkpt>
      <trkpt lat="40.081283" lon="0.119823">
        <ele>59.991</ele>
        <time>1970-01-01T05:40:42Z</time>
      </trkpt>
      <trkpt lat="40.081224" lon="0.119762">
        <ele>59.481</ele>
        <time>1970-01-01T05:40:43Z</time>
      </trkpt>
      <trkpt lat="40.081162" lon="0.119702">
        <ele>58.919</ele>
        <time>1970-01-01T05:40:44Z</time>
      </trkpt>
      <trkpt lat="40.081097" lon="0.119639">
        <ele>58.808</ele>
        <time>1970-01-01T05:40:45Z</time>
      </trkpt>
      <trkpt lat="40.081028" lon="0.119579">
        <ele>58.896</ele>
        <time>1970-01-01T05:40:46Z</time>
      </trkpt>
      <trkpt lat="40.080961" lon="0.119519">
        <ele>58.873</ele>
        <time>1970-01-01T05:40:47Z</time>
      </trkpt>
      <trkpt lat="40.080893" lon="0.119450">
        <ele>58.874</ele>
        <time>1970-01-01T05:40:48Z</time>
      </trkpt>
      <trkpt lat="40.080834" lon="0.119396">
        <ele>59.227</ele>
        <time>1970-01-01T05:40:49Z</time>
      </trkpt>
      <trkpt lat="40.080780" lon="0.119347">
        <ele>59.737</ele>
        <time>1970-01-01T05:40:50Z</time>
      </trkpt>
      <trkpt lat="40.080733" lon="0.119301">
        <ele>60.213</ele>
        <time>1970-01-01T05:40:51Z</time>
      </trkpt>
      <trkpt lat="40.080685" lon="0.119266">
        <ele>60.727</ele>
        <time>1970-01-01T05:40:52Z</time>
      </trkpt>
      <trkpt lat="40.080637" lon="0.119240">
        <ele>61.148</ele>
        <time>1970-01-01T05:40:53Z</time>
      </trkpt>
      <trkpt lat="40.080590" lon="0.119219">
        <ele>61.617</ele>
        <time>1970-01-01T05:40:54Z</time>
      </trkpt>
      <trkpt lat="40.080542" lon="0.119198">
        <ele>61.987</ele>
        <time>1970-01-01T05:40:55Z</time>
      </trkpt>
      <trkpt lat="40.080496" lon="0.119179">
        <ele>62.015</ele>
        <time>1970-01-01T05:40:56Z</time>
      </trkpt>
      <trkpt lat="40.080453" lon="0.119160">
        <ele>62.108</ele>
        <time>1970-01-01T05:40:57Z</time>
      </trkpt>
      <trkpt lat="40.080409" lon="0.119145">
        <ele>62.238</ele>
        <time>1970-01-01T05:40:58Z</time>
      </trkpt>
      <trkpt lat="40.080367" lon="0.119134">
        <ele>62.375</ele>
        <time>1970-01-01T05:40:59Z</time>
      </trkpt>
      <trkpt lat="40.080323" lon="0.119123">
        <ele>62.416</ele>
        <time>1970-01-01T05:41:00Z</time>
      </trkpt>
      <trkpt lat="40.080281" lon="0.119115">
        <ele>62.649</ele>
        <time>1970-01-01T05:41:01Z</time>
      </trkpt>
      <trkpt lat="40.080236" lon="0.119105">
        <ele>63.279</ele>
        <time>1970-01-01T05:41:02Z</time>
      </trkpt>
      <trkpt lat="40.080191" lon="0.119092">
        <ele>64.055</ele>
        <time>1970-01-01T05:41:03Z</time>
      </trkpt>
      <trkpt lat="40.080149" lon="0.119080">
        <ele>64.629</ele>
        <time>1970-01-01T05:41:04Z</time>
      </trkpt>
      <trkpt lat="40.080109" lon="0.119070">
        <ele>65.390</ele>
        <time>1970-01-01T05:41:05Z</time>
      </trkpt>
      <trkpt lat="40.080067" lon="0.119058">
        <ele>65.936</ele>
        <time>1970-01-01T05:41:06Z</time>
      </trkpt>
      <trkpt lat="40.080028" lon="0.119047">
        <ele>66.517</ele>
        <time>1970-01-01T05:41:07Z</time>
      </trkpt>
      <trkpt lat="40.079987" lon="0.119029">
        <ele>67.118</ele>
        <time>1970-01-01T05:41:08Z</time>
      </trkpt>
      <trkpt lat="40.079949" lon="0.119011">
        <ele>67.608</ele>
        <time>1970-01-01T05:41:09Z</time>
      </trkpt>
      <trkpt lat="40.079915" lon="0.118994">
        <ele>68.090</ele>
        <time>1970-01-01T05:41:10Z</time>
      </trkpt>
      <trkpt lat="40.079878" lon="0.118977">
        <ele>68.487</ele>
        <time>1970-01-01T05:41:11Z</time>
      </trkpt>
      <trkpt lat="40.079842" lon="0.118959">
        <ele>68.818</ele>
        <time>1970-01-01T05:41:12Z</time>
      </trkpt>
      <trkpt lat="40.079806" lon="0.118941">
        <ele>69.291</ele>
        <time>1970-01-01T05:41:13Z</time>
      </trkpt>
      <trkpt lat="40.079794" lon="0.118923">
        <ele>69.321</ele>
        <time>1970-01-01T05:41:14Z</time>
      </trkpt>
      <trkpt lat="40.079782" lon="0.118906">
        <ele>69.527</ele>
        <time>1970-01-01T05:41:15Z</time>
      </trkpt>
      <trkpt lat="40.079769" lon="0.118888">
        <ele>69.741</ele>
        <time>1970-01-01T05:41:16Z</time>
      </trkpt>
      <trkpt lat="40.079757" lon="0.118871">
        <ele>69.982</ele>
        <time>1970-01-01T05:41:17Z</time>
      </trkpt>
      <trkpt lat="40.079745" lon="0.118853">
        <ele>70.112</ele>
        <time>1970-01-01T05:41:18Z</time>
      </trkpt>
      <trkpt lat="40.079733" lon="0.118836">
        <ele>70.332</ele>
        <time>1970-01-01T05:41:19Z</time>
      </trkpt>
      <trkpt lat="40.079721" lon="0.118818">
        <ele>70.505</ele>
        <time>1970-01-01T05:41:20Z</time>
      </trkpt>
      <trkpt lat="40.079709" lon="0.118800">
        <ele>70.708</ele>
        <time>1970-01-01T05:41:21Z</time>
      </trkpt>
      <trkpt lat="40.079696" lon="0.118783">
        <ele>70.978</ele>
        <time>1970-01-01T05:41:22Z</time>
      </trkpt>
      <trkpt lat="40.079684" lon="0.118765">
        <ele>71.025</ele>
        <time>1970-01-01T05:41:23Z</time>
      </trkpt>
      <trkpt lat="40.079672" lon="0.118748">
        <ele>71.246</ele>
        <time>1970-01-01T05:41:24Z</time>
      </trkpt>
      <trkpt lat="40.079660" lon="0.118730">
        <ele>71.329</ele>
        <time>1970-01-01T05:41:25Z</time>
      </trkpt>
      <trkpt lat="40.079648" lon="0.118713">
        <ele>71.519</ele>
        <time>1970-01-01T05:41:26Z</time>
      </trkpt>
      <trkpt lat="40.079636" lon="0.118695">
        <ele>71.695</ele>
        <time>1970-01-01T05:41:27Z</time>
      </trkpt>
      <trkpt lat="40.079623" lon="0.118678">
        <ele>71.799</ele>
        <time>1970-01-01T05:41:28Z</time>
      </trkpt>
      <trkpt lat="40.079611" lon="0.118660">
        <ele>71.840</ele>
        <time>1970-01-01T05:41:29Z</time>
      </trkpt>
      <trkpt lat="40.079599" lon="0.118642">
        <ele>71.923</ele>
        <time>1970-01-01T05:41:30Z</time>
      </trkpt>
      <trkpt lat="40.079587" lon="0.118625">
        <ele>71.983</ele>
        <time>1970-01-01T05:41:31Z</time>
      </trkpt>
      <trkpt lat="40.079575" lon="0.118607">
        <ele>72.011</ele>
        <time>1970-01-01T05:41:32Z</time>
      </trkpt>
      <trkpt lat="40.079563" lon="0.118590">
        <ele>72.008</ele>
        <time>1970-01-01T05:41:33Z</time>
      </trkpt>
      <trkpt lat="40.079550" lon="0.118572">
        <ele>71.949</ele>
        <time>1970-01-01T05:41:34Z</time>
      </trkpt>
      <trkpt lat="40.079538" lon="0.118555">
        <ele>71.956</ele>
        <time>1970-01-01T05:41:35Z</time>
      </trkpt>
      <trkpt lat="40.079526" lon="0.118537">
        <ele>71.827</ele>
        <time>1970-01-01T05:41:36Z</time>
      </trkpt>
      <trkpt lat="40.079246" lon="0.118134">
        <ele>68.890</ele>
        <time>1970-01-01T05:41:37Z</time>
      </trkpt>
      <trkpt lat="40.079220" lon="0.118077">
        <ele>68.330</ele>
        <time>1970-01-01T05:41:38Z</time>
      </trkpt>
      <trkpt lat="40.079200" lon="0.118025">
        <ele>67.916</ele>
        <time>1970-01-01T05:41:39Z</time>
      </trkpt>
      <trkpt lat="40.079178" lon="0.117984">
        <ele>67.550</ele>
        <time>1970-01-01T05:41:40Z</time>
      </trkpt>
      <trkpt lat="40.079154" lon="0.117909">
        <ele>67.041</ele>
        <time>1970-01-01T05:41:41Z</time>
      </trkpt>
      <trkpt lat="40.079131" lon="0.117859">
        <ele>66.824</ele>
        <time>1970-01-01T05:41:42Z</time>
      </trkpt>
      <trkpt lat="40.079106" lon="0.117803">
        <ele>66.604</ele>
        <time>1970-01-01T05:41:43Z</time>
      </trkpt>
      <trkpt lat="40.079080" lon="0.117767">
        <ele>66.614</ele>
        <time>1970-01-01T05:41:44Z</time>
      </trkpt>
      <trkpt lat="40.079061" lon="0.117730">
        <ele>66.608</ele>
        <time>1970-01-01T05:41:45Z</time>
      </trkpt>
      <trkpt lat="40.079038" lon="0.117684">
        <ele>66.639</ele>
        <time>1970-01-01T05:41:46Z</time>
      </trkpt>
      <trkpt lat="40.079017" lon="0.117640">
        <ele>66.546</ele>
        <time>1970-01-01T05:41:47Z</time>
      </trkpt>
      <trkpt lat="40.078996" lon="0.117601">
        <ele>66.447</ele>
        <time>1970-01-01T05:41:48Z</time>
      </trkpt>
      <trkpt lat="40.078977" lon="0.117569">
        <ele>66.350</ele>
        <time>1970-01-01T05:41:49Z</time>
      </trkpt>
      <trkpt lat="40.078964" lon="0.117541">
        <ele>66.240</ele>
        <time>1970-01-01T05:41:50Z</time>
      </trkpt>
      <trkpt lat="40.078947" lon="0.117514">
        <ele>66.126</ele>
        <time>1970-01-01T05:41:51Z</time>
      </trkpt>
      <trkpt lat="40.078931" lon="0.117486">
        <ele>66.150</ele>
        <time>1970-01-01T05:41:52Z</time>
      </trkpt>
      <trkpt lat="40.078918" lon="0.117459">
        <ele>66.251</ele>
        <time>1970-01-01T05:41:53Z</time>
      </trkpt>
      <trkpt lat="40.078897" lon="0.117420">
        <ele>66.396</ele>
        <time>1970-01-01T05:41:54Z</time>
      </trkpt>
      <trkpt lat="40.078878" lon="0.117383">
        <ele>66.531</ele>
        <time>1970-01-01T05:41:55Z</time>
      </trkpt>
      <trkpt lat="40.078862" lon="0.117349">
        <ele>66.824</ele>
        <time>1970-01-01T05:41:56Z</time>
      </trkpt>
      <trkpt lat="40.078845" lon="0.117310">
        <ele>67.008</ele>
        <time>1970-01-01T05:41:57Z</time>
      </trkpt>
      <trkpt lat="40.078824" lon="0.117275">
        <ele>67.356</ele>
        <time>1970-01-01T05:41:58Z</time>
      </trkpt>
      <trkpt lat="40.078806" lon="0.117243">
        <ele>67.563</ele>
        <time>1970-01-01T05:41:59Z</time>
      </trkpt>
      <trkpt lat="40.078788" lon="0.117219">
        <ele>67.834</ele>
        <time>1970-01-01T05:42:00Z</time>
      </trkpt>
      <trkpt lat="40.078767" lon="0.117195">
        <ele>68.287</ele>
        <time>1970-01-01T05:42:01Z</time>
      </trkpt>
      <trkpt lat="40.078744" lon="0.117176">
        <ele>68.587</ele>
        <time>1970-01-01T05:42:02Z</time>
      </trkpt>
      <trkpt lat="40.078716" lon="0.117162">
        <ele>68.983</ele>
        <time>1970-01-01T05:42:03Z</time>
      </trkpt>
      <trkpt lat="40.078692" lon="0.117156">
        <ele>69.177</ele>
        <time>1970-01-01T05:42:04Z</time>
      </trkpt>
      <trkpt lat="40.078673" lon="0.117155">
        <ele>69.338</ele>
        <time>1970-01-01T05:42:05Z</time>
      </trkpt>
      <trkpt lat="40.078659" lon="0.117161">
        <ele>69.339</ele>
        <time>1970-01-01T05:42:06Z</time>
      </trkpt>
      <trkpt lat="40.078645" lon="0.117172">
        <ele>69.301</ele>
        <time>1970-01-01T05:42:07Z</time>
      </trkpt>
      <trkpt lat="40.078630" lon="0.117192">
        <ele>69.221</ele>
        <time>1970-01-01T05:42:08Z</time>
      </trkpt>
      <trkpt lat="40.078612" lon="0.117216">
        <ele>69.108</ele>
        <time>1970-01-01T05:42:09Z</time>
      </trkpt>
      <trkpt lat="40.078597" lon="0.117242">
        <ele>69.250</ele>
        <time>1970-01-01T05:42:10Z</time>
      </trkpt>
      <trkpt lat="40.078581" lon="0.117268">
        <ele>69.387</ele>
        <time>1970-01-01T05:42:11Z</time>
      </trkpt>
      <trkpt lat="40.078567" lon="0.117296">
        <ele>69.558</ele>
        <time>1970-01-01T05:42:12Z</time>
      </trkpt>
      <trkpt lat="40.078553" lon="0.117324">
        <ele>69.641</ele>
        <time>1970-01-01T05:42:13Z</time>
      </trkpt>
      <trkpt lat="40.078540" lon="0.117349">
        <ele>69.851</ele>
        <time>1970-01-01T05:42:14Z</time>
      </trkpt>
      <trkpt lat="40.078523" lon="0.117374">
        <ele>70.047</ele>
        <time>1970-01-01T05:42:15Z</time>
      </trkpt>
      <trkpt lat="40.078509" lon="0.117401">
        <ele>70.111</ele>
        <time>1970-01-01T05:42:16Z</time>
      </trkpt>
      <trkpt lat="40.078495" lon="0.117422">
        <ele>70.332</ele>
        <time>1970-01-01T05:42:17Z</time>
      </trkpt>
      <trkpt lat="40.078477" lon="0.117443">
        <ele>70.446</ele>
        <time>1970-01-01T05:42:18Z</time>
      </trkpt>
      <trkpt lat="40.078457" lon="0.117468">
        <ele>70.788</ele>
        <time>1970-01-01T05:42:19Z</time>
      </trkpt>
      <trkpt lat="40.078437" lon="0.117498">
        <ele>70.916</ele>
        <time>1970-01-01T05:42:20Z</time>
      </trkpt>
      <trkpt lat="40.078414" lon="0.117527">
        <ele>71.308</ele>
        <time>1970-01-01T05:42:21Z</time>
      </trkpt>
      <trkpt lat="40.078393" lon="0.117555">
        <ele>71.791</ele>
        <time>1970-01-01T05:42:22Z</time>
      </trkpt>
      <trkpt lat="40.078369" lon="0.117579">
        <ele>72.118</ele>
        <time>1970-01-01T05:42:23Z</time>
      </trkpt>
      <trkpt lat="40.078355" lon="0.117600">
        <ele>72.529</ele>
        <time>1970-01-01T05:42:24Z</time>
      </trkpt>
      <trkpt lat="40.078342" lon="0.117621">
        <ele>72.842</ele>
        <time>1970-01-01T05:42:25Z</time>
      </trkpt>
      <trkpt lat="40.078327" lon="0.117638">
        <ele>73.042</ele>
        <time>1970-01-01T05:42:26Z</time>
      </trkpt>
      <trkpt lat="40.078311" lon="0.117655">
        <ele>73.348</ele>
        <time>1970-01-01T05:42:27Z</time>
      </trkpt>
      <trkpt lat="40.078287" lon="0.117675">
        <ele>73.662</ele>
        <time>1970-01-01T05:42:28Z</time>
      </trkpt>
      <trkpt lat="40.078260" lon="0.117699">
        <ele>74.043</ele>
        <time>1970-01-01T05:42:29Z</time>
      </trkpt>
      <trkpt lat="40.078231" lon="0.117723">
        <ele>74.339</ele>
        <time>1970-01-01T05:42:30Z</time>
      </trkpt>
      <trkpt lat="40.078204" lon="0.117748">
        <ele>74.701</ele>
        <time>1970-01-01T05:42:31Z</time>
      </trkpt>
      <trkpt lat="40.078180" lon="0.117764">
        <ele>75.021</ele>
        <time>1970-01-01T05:42:32Z</time>
      </trkpt>
      <trkpt lat="40.078159" lon="0.117777">
        <ele>75.208</ele>
        <time>1970-01-01T05:42:33Z</time>
      </trkpt>
      <trkpt lat="40.078140" lon="0.117784">
        <ele>75.480</ele>
        <time>1970-01-01T05:42:34Z</time>
      </trkpt>
      <trkpt lat="40.078120" lon="0.117790">
        <ele>75.647</ele>
        <time>1970-01-01T05:42:35Z</time>
      </trkpt>
      <trkpt lat="40.078101" lon="0.117791">
        <ele>75.878</ele>
        <time>1970-01-01T05:42:36Z</time>
      </trkpt>
      <trkpt lat="40.078077" lon="0.117789">
        <ele>75.911</ele>
        <time>1970-01-01T05:42:37Z</time>
      </trkpt>
      <trkpt lat="40.078055" lon="0.117788">
        <ele>76.161</ele>
        <time>1970-01-01T05:42:38Z</time>
      </trkpt>
      <trkpt lat="40.078028" lon="0.117788">
        <ele>76.157</ele>
        <time>1970-01-01T05:42:39Z</time>
      </trkpt>
      <trkpt lat="40.078005" lon="0.117788">
        <ele>76.111</ele>
        <time>1970-01-01T05:42:40Z</time>
      </trkpt>
      <trkpt lat="40.077981" lon="0.117784">
        <ele>76.072</ele>
        <time>1970-01-01T05:42:41Z</time>
      </trkpt>
      <trkpt lat="40.077953" lon="0.117779">
        <ele>76.034</ele>
        <time>1970-01-01T05:42:42Z</time>
      </trkpt>
      <trkpt lat="40.077927" lon="0.117773">
        <ele>76.055</ele>
        <time>1970-01-01T05:42:43Z</time>
      </trkpt>
      <trkpt lat="40.077902" lon="0.117767">
        <ele>75.910</ele>
        <time>1970-01-01T05:42:44Z</time>
      </trkpt>
      <trkpt lat="40.077880" lon="0.117763">
        <ele>75.908</ele>
        <time>1970-01-01T05:42:45Z</time>
      </trkpt>
      <trkpt lat="40.077858" lon="0.117761">
        <ele>75.960</ele>
        <time>1970-01-01T05:42:46Z</time>
      </trkpt>
      <trkpt lat="40.077837" lon="0.117758">
        <ele>75.917</ele>
        <time>1970-01-01T05:42:47Z</time>
      </trkpt>
      <trkpt lat="40.077817" lon="0.117754">
        <ele>75.838</ele>
        <time>1970-01-01T05:42:48Z</time>
      </trkpt>
      <trkpt lat="40.077793" lon="0.117747">
        <ele>75.851</ele>
        <time>1970-01-01T05:42:49Z</time>
      </trkpt>
      <trkpt lat="40.077770" lon="0.117741">
        <ele>75.811</ele>
        <time>1970-01-01T05:42:50Z</time>
      </trkpt>
      <trkpt lat="40.077750" lon="0.117734">
        <ele>75.887</ele>
        <time>1970-01-01T05:42:51Z</time>
      </trkpt>
      <trkpt lat="40.077726" lon="0.117726">
        <ele>75.881</ele>
        <time>1970-01-01T05:42:52Z</time>
      </trkpt>
      <trkpt lat="40.077704" lon="0.117718">
        <ele>75.872</ele>
        <time>1970-01-01T05:42:53Z</time>
      </trkpt>
      <trkpt lat="40.077677" lon="0.117710">
        <ele>75.987</ele>
        <time>1970-01-01T05:42:54Z</time>
      </trkpt>
      <trkpt lat="40.077653" lon="0.117702">
        <ele>75.942</ele>
        <time>1970-01-01T05:42:55Z</time>
      </trkpt>
      <trkpt lat="40.077631" lon="0.117699">
        <ele>76.026</ele>
        <time>1970-01-01T05:42:56Z</time>
      </trkpt>
      <trkpt lat="40.077610" lon="0.117695">
        <ele>76.008</ele>
        <time>1970-01-01T05:42:57Z</time>
      </trkpt>
      <trkpt lat="40.077584" lon="0.117688">
        <ele>76.145</ele>
        <time>1970-01-01T05:42:58Z</time>
      </trkpt>
      <trkpt lat="40.077556" lon="0.117680">
        <ele>76.192</ele>
        <time>1970-01-01T05:42:59Z</time>
      </trkpt>
      <trkpt lat="40.077534" lon="0.117672">
        <ele>76.143</ele>
        <time>1970-01-01T05:43:00Z</time>
      </trkpt>
      <trkpt lat="40.077510" lon="0.117671">
        <ele>76.266</ele>
        <time>1970-01-01T05:43:01Z</time>
      </trkpt>
      <trkpt lat="40.077487" lon="0.117668">
        <ele>76.436</ele>
        <time>1970-01-01T05:43:02Z</time>
      </trkpt>
      <trkpt lat="40.077463" lon="0.117666">
        <ele>76.652</ele>
        <time>1970-01-01T05:43:03Z</time>
      </trkpt>
      <trkpt lat="40.077440" lon="0.117666">
        <ele>76.946</ele>
        <time>1970-01-01T05:43:04Z</time>
      </trkpt>
      <trkpt lat="40.077417" lon="0.117663">
        <ele>77.267</ele>
        <time>1970-01-01T05:43:05Z</time>
      </trkpt>
      <trkpt lat="40.077397" lon="0.117656">
        <ele>77.434</ele>
        <time>1970-01-01T05:43:06Z</time>
      </trkpt>
      <trkpt lat="40.077372" lon="0.117649">
        <ele>77.755</ele>
        <time>1970-01-01T05:43:07Z</time>
      </trkpt>
      <trkpt lat="40.077347" lon="0.117642">
        <ele>77.910</ele>
        <time>1970-01-01T05:43:08Z</time>
      </trkpt>
      <trkpt lat="40.077324" lon="0.117635">
        <ele>78.208</ele>
        <time>1970-01-01T05:43:09Z</time>
      </trkpt>
      <trkpt lat="40.077303" lon="0.117632">
        <ele>78.540</ele>
        <time>1970-01-01T05:43:10Z</time>
      </trkpt>
      <trkpt lat="40.077283" lon="0.117628">
        <ele>78.777</ele>
        <time>1970-01-01T05:43:11Z</time>
      </trkpt>
      <trkpt lat="40.077262" lon="0.117621">
        <ele>78.928</ele>
        <time>1970-01-01T05:43:12Z</time>
      </trkpt>
      <trkpt lat="40.077240" lon="0.117615">
        <ele>79.231</ele>
        <time>1970-01-01T05:43:13Z</time>
      </trkpt>
      <trkpt lat="40.077216" lon="0.117612">
        <ele>79.511</ele>
        <time>1970-01-01T05:43:14Z</time>
      </trkpt>
      <trkpt lat="40.077193" lon="0.117608">
        <ele>79.847</ele>
        <time>1970-01-01T05:43:15Z</time>
      </trkpt>
      <trkpt lat="40.077170" lon="0.117603">
        <ele>80.221</ele>
        <time>1970-01-01T05:43:16Z</time>
      </trkpt>
      <trkpt lat="40.077147" lon="0.117598">
        <ele>80.562</ele>
        <time>1970-01-01T05:43:17Z</time>
      </trkpt>
      <trkpt lat="40.077127" lon="0.117595">
        <ele>80.825</ele>
        <time>1970-01-01T05:43:18Z</time>
      </trkpt>
      <trkpt lat="40.077103" lon="0.117592">
        <ele>81.226</ele>
        <time>1970-01-01T05:43:19Z</time>
      </trkpt>
      <trkpt lat="40.077081" lon="0.117588">
        <ele>81.508</ele>
        <time>1970-01-01T05:43:20Z</time>
      </trkpt>
      <trkpt lat="40.077054" lon="0.117582">
        <ele>82.008</ele>
        <time>1970-01-01T05:43:21Z</time>
      </trkpt>
      <trkpt lat="40.077029" lon="0.117575">
        <ele>82.419</ele>
        <time>1970-01-01T05:43:22Z</time>
      </trkpt>
      <trkpt lat="40.077007" lon="0.117569">
        <ele>82.796</ele>
        <time>1970-01-01T05:43:23Z</time>
      </trkpt>
      <trkpt lat="40.076988" lon="0.117565">
        <ele>83.157</ele>
        <time>1970-01-01T05:43:24Z</time>
      </trkpt>
      <trkpt lat="40.076967" lon="0.117565">
        <ele>83.430</ele>
        <time>1970-01-01T05:43:25Z</time>
      </trkpt>
      <trkpt lat="40.076943" lon="0.117563">
        <ele>83.820</ele>
        <time>1970-01-01T05:43:26Z</time>
      </trkpt>
      <trkpt lat="40.076920" lon="0.117561">
        <ele>84.036</ele>
        <time>1970-01-01T05:43:27Z</time>
      </trkpt>
      <trkpt lat="40.076897" lon="0.117557">
        <ele>84.310</ele>
        <time>1970-01-01T05:43:28Z</time>
      </trkpt>
      <trkpt lat="40.076875" lon="0.117555">
        <ele>84.641</ele>
        <time>1970-01-01T05:43:29Z</time>
      </trkpt>
      <trkpt lat="40.076854" lon="0.117556">
        <ele>84.812</ele>
        <time>1970-01-01T05:43:30Z</time>
      </trkpt>
      <trkpt lat="40.076835" lon="0.117559">
        <ele>85.032</ele>
        <time>1970-01-01T05:43:31Z</time>
      </trkpt>
      <trkpt lat="40.076817" lon="0.117564">
        <ele>85.105</ele>
        <time>1970-01-01T05:43:32Z</time>
      </trkpt>
      <trkpt lat="40.076796" lon="0.117567">
        <ele>85.408</ele>
        <time>1970-01-01T05:43:33Z</time>
      </trkpt>
      <trkpt lat="40.076777" lon="0.117569">
        <ele>85.658</ele>
        <time>1970-01-01T05:43:34Z</time>
      </trkpt>
      <trkpt lat="40.076754" lon="0.117569">
        <ele>85.885</ele>
        <time>1970-01-01T05:43:35Z</time>
      </trkpt>
      <trkpt lat="40.076734" lon="0.117569">
        <ele>86.036</ele>
        <time>1970-01-01T05:43:36Z</time>
      </trkpt>
      <trkpt lat="40.076714" lon="0.117568">
        <ele>86.239</ele>
        <time>1970-01-01T05:43:37Z</time>
      </trkpt>
      <trkpt lat="40.076693" lon="0.117567">
        <ele>86.599</ele>
        <time>1970-01-01T05:43:38Z</time>
      </trkpt>
      <trkpt lat="40.076671" lon="0.117566">
        <ele>86.745</ele>
        <time>1970-01-01T05:43:39Z</time>
      </trkpt>
      <trkpt lat="40.076651" lon="0.117569">
        <ele>87.119</ele>
        <time>1970-01-01T05:43:40Z</time>
      </trkpt>
      <trkpt lat="40.076631" lon="0.117572">
        <ele>87.470</ele>
        <time>1970-01-01T05:43:41Z</time>
      </trkpt>
      <trkpt lat="40.076613" lon="0.117576">
        <ele>87.812</ele>
        <time>1970-01-01T05:43:42Z</time>
      </trkpt>
      <trkpt lat="40.076592" lon="0.117580">
        <ele>88.232</ele>
        <time>1970-01-01T05:43:43Z</time>
      </trkpt>
      <trkpt lat="40.076572" lon="0.117584">
        <ele>88.605</ele>
        <time>1970-01-01T05:43:44Z</time>
      </trkpt>
      <trkpt lat="40.076549" lon="0.117588">
        <ele>89.108</ele>
        <time>1970-01-01T05:43:45Z</time>
      </trkpt>
      <trkpt lat="40.076527" lon="0.117589">
        <ele>89.538</ele>
        <time>1970-01-01T05:43:46Z</time>
      </trkpt>
      <trkpt lat="40.076506" lon="0.117591">
        <ele>89.945</ele>
        <time>1970-01-01T05:43:47Z</time>
      </trkpt>
      <trkpt lat="40.076480" lon="0.117588">
        <ele>90.596</ele>
        <time>1970-01-01T05:43:48Z</time>
      </trkpt>
      <trkpt lat="40.076455" lon="0.117581">
        <ele>91.069</ele>
        <time>1970-01-01T05:43:49Z</time>
      </trkpt>
      <trkpt lat="40.076432" lon="0.117575">
        <ele>91.489</ele>
        <time>1970-01-01T05:43:50Z</time>
      </trkpt>
      <trkpt lat="40.076408" lon="0.117569">
        <ele>91.965</ele>
        <time>1970-01-01T05:43:51Z</time>
      </trkpt>
      <trkpt lat="40.076386" lon="0.117563">
        <ele>92.399</ele>
        <time>1970-01-01T05:43:52Z</time>
      </trkpt>
      <trkpt lat="40.076365" lon="0.117555">
        <ele>92.510</ele>
        <time>1970-01-01T05:43:53Z</time>
      </trkpt>
      <trkpt lat="40.076344" lon="0.117543">
        <ele>92.824</ele>
        <time>1970-01-01T05:43:54Z</time>
      </trkpt>
      <trkpt lat="40.076328" lon="0.117528">
        <ele>93.004</ele>
        <time>1970-01-01T05:43:55Z</time>
      </trkpt>
      <trkpt lat="40.076318" lon="0.117508">
        <ele>93.014</ele>
        <time>1970-01-01T05:43:56Z</time>
      </trkpt>
      <trkpt lat="40.076307" lon="0.117488">
        <ele>93.308</ele>
        <time>1970-01-01T05:43:57Z</time>
      </trkpt>
      <trkpt lat="40.076292" lon="0.117463">
        <ele>93.669</ele>
        <time>1970-01-01T05:43:58Z</time>
      </trkpt>
      <trkpt lat="40.076279" lon="0.117438">
        <ele>93.956</ele>
        <time>1970-01-01T05:43:59Z</time>
      </trkpt>
      <trkpt lat="40.076267" lon="0.117415">
        <ele>94.237</ele>
        <time>1970-01-01T05:44:00Z</time>
      </trkpt>
      <trkpt lat="40.076256" lon="0.117394">
        <ele>94.510</ele>
        <time>1970-01-01T05:44:01Z</time>
      </trkpt>
      <trkpt lat="40.076243" lon="0.117371">
        <ele>94.850</ele>
        <time>1970-01-01T05:44:02Z</time>
      </trkpt>
      <trkpt lat="40.076228" lon="0.117350">
        <ele>95.116</ele>
        <time>1970-01-01T05:44:03Z</time>
      </trkpt>
      <trkpt lat="40.076209" lon="0.117332">
        <ele>95.420</ele>
        <time>1970-01-01T05:44:04Z</time>
      </trkpt>
      <trkpt lat="40.076192" lon="0.117319">
        <ele>95.751</ele>
        <time>1970-01-01T05:44:05Z</time>
      </trkpt>
      <trkpt lat="40.076172" lon="0.117308">
        <ele>96.072</ele>
        <time>1970-01-01T05:44:06Z</time>
      </trkpt>
      <trkpt lat="40.076151" lon="0.117303">
        <ele>96.213</ele>
        <time>1970-01-01T05:44:07Z</time>
      </trkpt>
      <trkpt lat="40.076131" lon="0.117304">
        <ele>96.514</ele>
        <time>1970-01-01T05:44:08Z</time>
      </trkpt>
      <trkpt lat="40.076109" lon="0.117313">
        <ele>96.708</ele>
        <time>1970-01-01T05:44:09Z</time>
      </trkpt>
      <trkpt lat="40.076087" lon="0.117322">
        <ele>96.854</ele>
        <time>1970-01-01T05:44:10Z</time>
      </trkpt>
      <trkpt lat="40.076065" lon="0.117335">
        <ele>96.991</ele>
        <time>1970-01-01T05:44:11Z</time>
      </trkpt>
      <trkpt lat="40.076038" lon="0.117347">
        <ele>97.012</ele>
        <time>1970-01-01T05:44:12Z</time>
      </trkpt>
      <trkpt lat="40.076012" lon="0.117359">
        <ele>97.085</ele>
        <time>1970-01-01T05:44:13Z</time>
      </trkpt>
      <trkpt lat="40.075989" lon="0.117372">
        <ele>97.145</ele>
        <time>1970-01-01T05:44:14Z</time>
      </trkpt>
      <trkpt lat="40.075967" lon="0.117385">
        <ele>97.111</ele>
        <time>1970-01-01T05:44:15Z</time>
      </trkpt>
      <trkpt lat="40.075945" lon="0.117397">
        <ele>97.295</ele>
        <time>1970-01-01T05:44:16Z</time>
      </trkpt>
      <trkpt lat="40.075921" lon="0.117410">
        <ele>97.256</ele>
        <time>1970-01-01T05:44:17Z</time>
      </trkpt>
      <trkpt lat="40.075897" lon="0.117422">
        <ele>97.327</ele>
        <time>1970-01-01T05:44:18Z</time>
      </trkpt>
      <trkpt lat="40.075874" lon="0.117432">
        <ele>97.368</ele>
        <time>1970-01-01T05:44:19Z</time>
      </trkpt>
      <trkpt lat="40.075853" lon="0.117444">
        <ele>97.314</ele>
        <time>1970-01-01T05:44:20Z</time>
      </trkpt>
      <trkpt lat="40.075834" lon="0.117457">
        <ele>97.308</ele>
        <time>1970-01-01T05:44:21Z</time>
      </trkpt>
      <trkpt lat="40.075814" lon="0.117471">
        <ele>97.339</ele>
        <time>1970-01-01T05:44:22Z</time>
      </trkpt>
      <trkpt lat="40.075792" lon="0.117481">
        <ele>97.376</ele>
        <time>1970-01-01T05:44:23Z</time>
      </trkpt>
      <trkpt lat="40.075773" lon="0.117493">
        <ele>97.337</ele>
        <time>1970-01-01T05:44:24Z</time>
      </trkpt>
      <trkpt lat="40.075752" lon="0.117506">
        <ele>97.340</ele>
        <time>1970-01-01T05:44:25Z</time>
      </trkpt>
      <trkpt lat="40.075732" lon="0.117522">
        <ele>97.310</ele>
        <time>1970-01-01T05:44:26Z</time>
      </trkpt>
      <trkpt lat="40.075712" lon="0.117538">
        <ele>97.456</ele>
        <time>1970-01-01T05:44:27Z</time>
      </trkpt>
      <trkpt lat="40.075695" lon="0.117554">
        <ele>97.420</ele>
        <time>1970-01-01T05:44:28Z</time>
      </trkpt>
      <trkpt lat="40.075673" lon="0.117571">
        <ele>97.581</ele>
        <time>1970-01-01T05:44:29Z</time>
      </trkpt>
      <trkpt lat="40.075650" lon="0.117589">
        <ele>97.665</ele>
        <time>1970-01-01T05:44:30Z</time>
      </trkpt>
      <trkpt lat="40.075629" lon="0.117603">
        <ele>97.668</ele>
        <time>1970-01-01T05:44:31Z</time>
      </trkpt>
      <trkpt lat="40.075608" lon="0.117613">
        <ele>97.714</ele>
        <time>1970-01-01T05:44:32Z</time>
      </trkpt>
      <trkpt lat="40.075588" lon="0.117622">
        <ele>97.808</ele>
        <time>1970-01-01T05:44:33Z</time>
      </trkpt>
      <trkpt lat="40.075567" lon="0.117631">
        <ele>97.933</ele>
        <time>1970-01-01T05:44:34Z</time>
      </trkpt>
      <trkpt lat="40.075547" lon="0.117647">
        <ele>98.140</ele>
        <time>1970-01-01T05:44:35Z</time>
      </trkpt>
      <trkpt lat="40.075527" lon="0.117665">
        <ele>98.221</ele>
        <time>1970-01-01T05:44:36Z</time>
      </trkpt>
      <trkpt lat="40.075510" lon="0.117680">
        <ele>98.414</ele>
        <time>1970-01-01T05:44:37Z</time>
      </trkpt>
      <trkpt lat="40.075490" lon="0.117694">
        <ele>98.554</ele>
        <time>1970-01-01T05:44:38Z</time>
      </trkpt>
      <trkpt lat="40.075468" lon="0.117701">
        <ele>98.750</ele>
        <time>1970-01-01T05:44:39Z</time>
      </trkpt>
      <trkpt lat="40.075445" lon="0.117708">
        <ele>98.954</ele>
        <time>1970-01-01T05:44:40Z</time>
      </trkpt>
      <trkpt lat="40.075422" lon="0.117717">
        <ele>99.145</ele>
        <time>1970-01-01T05:44:41Z</time>
      </trkpt>
      <trkpt lat="40.075395" lon="0.117734">
        <ele>99.294</ele>
        <time>1970-01-01T05:44:42Z</time>
      </trkpt>
      <trkpt lat="40.075369" lon="0.117751">
        <ele>99.457</ele>
        <time>1970-01-01T05:44:43Z</time>
      </trkpt>
      <trkpt lat="40.075341" lon="0.117770">
        <ele>99.622</ele>
        <time>1970-01-01T05:44:44Z</time>
      </trkpt>
      <trkpt lat="40.075310" lon="0.117787">
        <ele>99.808</ele>
        <time>1970-01-01T05:44:45Z</time>
      </trkpt>
      <trkpt lat="40.075279" lon="0.117807">
        <ele>100.076</ele>
        <time>1970-01-01T05:44:46Z</time>
      </trkpt>
      <trkpt lat="40.075248" lon="0.117826">
        <ele>100.293</ele>
        <time>1970-01-01T05:44:47Z</time>
      </trkpt>
      <trkpt lat="40.075219" lon="0.117844">
        <ele>100.464</ele>
        <time>1970-01-01T05:44:48Z</time>
      </trkpt>
      <trkpt lat="40.075191" lon="0.117861">
        <ele>100.667</ele>
        <time>1970-01-01T05:44:49Z</time>
      </trkpt>
      <trkpt lat="40.075166" lon="0.117881">
        <ele>100.857</ele>
        <time>1970-01-01T05:44:50Z</time>
      </trkpt>
      <trkpt lat="40.075142" lon="0.117900">
        <ele>101.043</ele>
        <time>1970-01-01T05:44:51Z</time>
      </trkpt>
      <trkpt lat="40.075118" lon="0.117922">
        <ele>101.297</ele>
        <time>1970-01-01T05:44:52Z</time>
      </trkpt>
      <trkpt lat="40.075096" lon="0.117945">
        <ele>101.398</ele>
        <time>1970-01-01T05:44:53Z</time>
      </trkpt>
      <trkpt lat="40.075073" lon="0.117965">
        <ele>101.578</ele>
        <time>1970-01-01T05:44:54Z</time>
      </trkpt>
      <trkpt lat="40.075052" lon="0.117983">
        <ele>101.633</ele>
        <time>1970-01-01T05:44:55Z</time>
      </trkpt>
      <trkpt lat="40.075031" lon="0.118001">
        <ele>101.826</ele>
        <time>1970-01-01T05:44:56Z</time>
      </trkpt>
      <trkpt lat="40.075009" lon="0.118019">
        <ele>101.908</ele>
        <time>1970-01-01T05:44:57Z</time>
      </trkpt>
      <trkpt lat="40.074986" lon="0.118033">
        <ele>102.154</ele>
        <time>1970-01-01T05:44:58Z</time>
      </trkpt>
      <trkpt lat="40.074964" lon="0.118048">
        <ele>102.111</ele>
        <time>1970-01-01T05:44:59Z</time>
      </trkpt>
      <trkpt lat="40.074944" lon="0.118061">
        <ele>102.212</ele>
        <time>1970-01-01T05:45:00Z</time>
      </trkpt>
      <trkpt lat="40.074921" lon="0.118074">
        <ele>102.375</ele>
        <time>1970-01-01T05:45:01Z</time>
      </trkpt>
      <trkpt lat="40.074900" lon="0.118084">
        <ele>102.425</ele>
        <time>1970-01-01T05:45:02Z</time>
      </trkpt>
      <trkpt lat="40.074878" lon="0.118089">
        <ele>102.451</ele>
        <time>1970-01-01T05:45:03Z</time>
      </trkpt>
      <trkpt lat="40.074858" lon="0.118098">
        <ele>102.595</ele>
        <time>1970-01-01T05:45:04Z</time>
      </trkpt>
      <trkpt lat="40.074839" lon="0.118114">
        <ele>102.646</ele>
        <time>1970-01-01T05:45:05Z</time>
      </trkpt>
      <trkpt lat="40.074820" lon="0.118134">
        <ele>102.681</ele>
        <time>1970-01-01T05:45:06Z</time>
      </trkpt>
      <trkpt lat="40.074802" lon="0.118152">
        <ele>102.761</ele>
        <time>1970-01-01T05:45:07Z</time>
      </trkpt>
      <trkpt lat="40.074785" lon="0.118169">
        <ele>102.817</ele>
        <time>1970-01-01T05:45:08Z</time>
      </trkpt>
      <trkpt lat="40.074770" lon="0.118185">
        <ele>102.808</ele>
        <time>1970-01-01T05:45:09Z</time>
      </trkpt>
      <trkpt lat="40.074753" lon="0.118200">
        <ele>102.955</ele>
        <time>1970-01-01T05:45:10Z</time>
      </trkpt>
      <trkpt lat="40.074736" lon="0.118215">
        <ele>103.052</ele>
        <time>1970-01-01T05:45:11Z</time>
      </trkpt>
      <trkpt lat="40.074717" lon="0.118229">
        <ele>103.083</ele>
        <time>1970-01-01T05:45:12Z</time>
      </trkpt>
      <trkpt lat="40.074698" lon="0.118240">
        <ele>103.026</ele>
        <time>1970-01-01T05:45:13Z</time>
      </trkpt>
      <trkpt lat="40.074679" lon="0.118254">
        <ele>103.066</ele>
        <time>1970-01-01T05:45:14Z</time>
      </trkpt>
      <trkpt lat="40.074664" lon="0.118270">
        <ele>103.062</ele>
        <time>1970-01-01T05:45:15Z</time>
      </trkpt>
      <trkpt lat="40.074647" lon="0.118286">
        <ele>103.016</ele>
        <time>1970-01-01T05:45:16Z</time>
      </trkpt>
      <trkpt lat="40.074627" lon="0.118299">
        <ele>103.017</ele>
        <time>1970-01-01T05:45:17Z</time>
      </trkpt>
      <trkpt lat="40.074603" lon="0.118309">
        <ele>103.089</ele>
        <time>1970-01-01T05:45:18Z</time>
      </trkpt>
      <trkpt lat="40.074582" lon="0.118319">
        <ele>103.006</ele>
        <time>1970-01-01T05:45:19Z</time>
      </trkpt>
      <trkpt lat="40.074567" lon="0.118330">
        <ele>103.026</ele>
        <time>1970-01-01T05:45:20Z</time>
      </trkpt>
      <trkpt lat="40.074548" lon="0.118341">
        <ele>102.908</ele>
        <time>1970-01-01T05:45:21Z</time>
      </trkpt>
      <trkpt lat="40.074530" lon="0.118355">
        <ele>102.885</ele>
        <time>1970-01-01T05:45:22Z</time>
      </trkpt>
      <trkpt lat="40.074512" lon="0.118363">
        <ele>102.732</ele>
        <time>1970-01-01T05:45:23Z</time>
      </trkpt>
      <trkpt lat="40.074496" lon="0.118362">
        <ele>102.743</ele>
        <time>1970-01-01T05:45:24Z</time>
      </trkpt>
      <trkpt lat="40.074481" lon="0.118351">
        <ele>102.876</ele>
        <time>1970-01-01T05:45:25Z</time>
      </trkpt>
      <trkpt lat="40.074464" lon="0.118333">
        <ele>103.046</ele>
        <time>1970-01-01T05:45:26Z</time>
      </trkpt>
      <trkpt lat="40.074446" lon="0.118314">
        <ele>103.152</ele>
        <time>1970-01-01T05:45:27Z</time>
      </trkpt>
      <trkpt lat="40.074435" lon="0.118291">
        <ele>103.156</ele>
        <time>1970-01-01T05:45:28Z</time>
      </trkpt>
      <trkpt lat="40.074425" lon="0.118265">
        <ele>103.277</ele>
        <time>1970-01-01T05:45:29Z</time>
      </trkpt>
      <trkpt lat="40.074417" lon="0.118237">
        <ele>103.266</ele>
        <time>1970-01-01T05:45:30Z</time>
      </trkpt>
      <trkpt lat="40.074407" lon="0.118208">
        <ele>103.329</ele>
        <time>1970-01-01T05:45:31Z</time>
      </trkpt>
      <trkpt lat="40.074399" lon="0.118178">
        <ele>103.321</ele>
        <time>1970-01-01T05:45:32Z</time>
      </trkpt>
      <trkpt lat="40.074397" lon="0.118145">
        <ele>103.408</ele>
        <time>1970-01-01T05:45:33Z</time>
      </trkpt>
      <trkpt lat="40.074397" lon="0.118108">
        <ele>103.523</ele>
        <time>1970-01-01T05:45:34Z</time>
      </trkpt>
      <trkpt lat="40.074398" lon="0.118070">
        <ele>103.620</ele>
        <time>1970-01-01T05:45:35Z</time>
      </trkpt>
      <trkpt lat="40.074404" lon="0.118035">
        <ele>103.761</ele>
        <time>1970-01-01T05:45:36Z</time>
      </trkpt>
      <trkpt lat="40.074407" lon="0.117998">
        <ele>103.764</ele>
        <time>1970-01-01T05:45:37Z</time>
      </trkpt>
      <trkpt lat="40.074415" lon="0.117959">
        <ele>103.814</ele>
        <time>1970-01-01T05:45:38Z</time>
      </trkpt>
      <trkpt lat="40.074425" lon="0.117921">
        <ele>103.920</ele>
        <time>1970-01-01T05:45:39Z</time>
      </trkpt>
      <trkpt lat="40.074432" lon="0.117885">
        <ele>103.924</ele>
        <time>1970-01-01T05:45:40Z</time>
      </trkpt>
      <trkpt lat="40.074437" lon="0.117853">
        <ele>103.965</ele>
        <time>1970-01-01T05:45:41Z</time>
      </trkpt>
      <trkpt lat="40.074443" lon="0.117822">
        <ele>104.035</ele>
        <time>1970-01-01T05:45:42Z</time>
      </trkpt>
      <trkpt lat="40.074448" lon="0.117790">
        <ele>104.086</ele>
        <time>1970-01-01T05:45:43Z</time>
      </trkpt>
      <trkpt lat="40.074457" lon="0.117756">
        <ele>104.114</ele>
        <time>1970-01-01T05:45:44Z</time>
      </trkpt>
      <trkpt lat="40.074467" lon="0.117723">
        <ele>104.208</ele>
        <time>1970-01-01T05:45:45Z</time>
      </trkpt>
      <trkpt lat="40.074477" lon="0.117689">
        <ele>104.380</ele>
        <time>1970-01-01T05:45:46Z</time>
      </trkpt>
      <trkpt lat="40.074484" lon="0.117657">
        <ele>104.487</ele>
        <time>1970-01-01T05:45:47Z</time>
      </trkpt>
      <trkpt lat="40.074492" lon="0.117622">
        <ele>104.638</ele>
        <time>1970-01-01T05:45:48Z</time>
      </trkpt>
      <trkpt lat="40.074502" lon="0.117588">
        <ele>104.771</ele>
        <time>1970-01-01T05:45:49Z</time>
      </trkpt>
      <trkpt lat="40.074516" lon="0.117556">
        <ele>104.881</ele>
        <time>1970-01-01T05:45:50Z</time>
      </trkpt>
      <trkpt lat="40.074528" lon="0.117524">
        <ele>104.967</ele>
        <time>1970-01-01T05:45:51Z</time>
      </trkpt>
      <trkpt lat="40.074533" lon="0.117491">
        <ele>105.091</ele>
        <time>1970-01-01T05:45:52Z</time>
      </trkpt>
      <trkpt lat="40.074537" lon="0.117459">
        <ele>105.162</ele>
        <time>1970-01-01T05:45:53Z</time>
      </trkpt>
      <trkpt lat="40.074543" lon="0.117427">
        <ele>105.355</ele>
        <time>1970-01-01T05:45:54Z</time>
      </trkpt>
      <trkpt lat="40.074551" lon="0.117394">
        <ele>105.407</ele>
        <time>1970-01-01T05:45:55Z</time>
      </trkpt>
      <trkpt lat="40.074557" lon="0.117362">
        <ele>105.517</ele>
        <time>1970-01-01T05:45:56Z</time>
      </trkpt>
      <trkpt lat="40.074562" lon="0.117329">
        <ele>105.608</ele>
        <time>1970-01-01T05:45:57Z</time>
      </trkpt>
      <trkpt lat="40.074570" lon="0.117298">
        <ele>105.722</ele>
        <time>1970-01-01T05:45:58Z</time>
      </trkpt>
      <trkpt lat="40.074575" lon="0.117264">
        <ele>105.839</ele>
        <time>1970-01-01T05:45:59Z</time>
      </trkpt>
      <trkpt lat="40.074574" lon="0.117232">
        <ele>106.070</ele>
        <time>1970-01-01T05:46:00Z</time>
      </trkpt>
      <trkpt lat="40.074572" lon="0.117203">
        <ele>106.013</ele>
        <time>1970-01-01T05:46:01Z</time>
      </trkpt>
      <trkpt lat="40.074566" lon="0.117179">
        <ele>106.163</ele>
        <time>1970-01-01T05:46:02Z</time>
      </trkpt>
      <trkpt lat="40.074557" lon="0.117154">
        <ele>106.129</ele>
        <time>1970-01-01T05:46:03Z</time>
      </trkpt>
      <trkpt lat="40.074550" lon="0.117132">
        <ele>106.183</ele>
        <time>1970-01-01T05:46:04Z</time>
      </trkpt>
      <trkpt lat="40.074544" lon="0.117118">
        <ele>106.114</ele>
        <time>1970-01-01T05:46:05Z</time>
      </trkpt>
      <trkpt lat="40.074536" lon="0.117094">
        <ele>106.221</ele>
        <time>1970-01-01T05:46:06Z</time>
      </trkpt>
      <trkpt lat="40.074526" lon="0.117061">
        <ele>106.241</ele>
        <time>1970-01-01T05:46:07Z</time>
      </trkpt>
      <trkpt lat="40.074517" lon="0.117028">
        <ele>106.205</ele>
        <time>1970-01-01T05:46:08Z</time>
      </trkpt>
      <trkpt lat="40.074508" lon="0.116992">
        <ele>106.208</ele>
        <time>1970-01-01T05:46:09Z</time>
      </trkpt>
      <trkpt lat="40.074503" lon="0.116959">
        <ele>106.289</ele>
        <time>1970-01-01T05:46:10Z</time>
      </trkpt>
      <trkpt lat="40.074496" lon="0.116923">
        <ele>106.256</ele>
        <time>1970-01-01T05:46:11Z</time>
      </trkpt>
      <trkpt lat="40.074489" lon="0.116882">
        <ele>106.327</ele>
        <time>1970-01-01T05:46:12Z</time>
      </trkpt>
      <trkpt lat="40.074481" lon="0.116843">
        <ele>106.470</ele>
        <time>1970-01-01T05:46:13Z</time>
      </trkpt>
      <trkpt lat="40.074472" lon="0.116806">
        <ele>106.510</ele>
        <time>1970-01-01T05:46:14Z</time>
      </trkpt>
      <trkpt lat="40.074463" lon="0.116769">
        <ele>106.616</ele>
        <time>1970-01-01T05:46:15Z</time>
      </trkpt>
      <trkpt lat="40.074454" lon="0.116733">
        <ele>106.710</ele>
        <time>1970-01-01T05:46:16Z</time>
      </trkpt>
      <trkpt lat="40.074447" lon="0.116692">
        <ele>106.971</ele>
        <time>1970-01-01T05:46:17Z</time>
      </trkpt>
      <trkpt lat="40.074437" lon="0.116656">
        <ele>107.072</ele>
        <time>1970-01-01T05:46:18Z</time>
      </trkpt>
      <trkpt lat="40.074426" lon="0.116615">
        <ele>107.013</ele>
        <time>1970-01-01T05:46:19Z</time>
      </trkpt>
      <trkpt lat="40.074417" lon="0.116575">
        <ele>107.014</ele>
        <time>1970-01-01T05:46:20Z</time>
      </trkpt>
      <trkpt lat="40.074405" lon="0.116536">
        <ele>107.008</ele>
        <time>1970-01-01T05:46:21Z</time>
      </trkpt>
      <trkpt lat="40.074389" lon="0.116496">
        <ele>107.014</ele>
        <time>1970-01-01T05:46:22Z</time>
      </trkpt>
      <trkpt lat="40.074377" lon="0.116454">
        <ele>107.141</ele>
        <time>1970-01-01T05:46:23Z</time>
      </trkpt>
      <trkpt lat="40.074367" lon="0.116410">
        <ele>107.242</ele>
        <time>1970-01-01T05:46:24Z</time>
      </trkpt>
      <trkpt lat="40.074356" lon="0.116367">
        <ele>107.415</ele>
        <time>1970-01-01T05:46:25Z</time>
      </trkpt>
      <trkpt lat="40.074345" lon="0.116325">
        <ele>107.865</ele>
        <time>1970-01-01T05:46:26Z</time>
      </trkpt>
      <trkpt lat="40.074333" lon="0.116283">
        <ele>108.191</ele>
        <time>1970-01-01T05:46:27Z</time>
      </trkpt>
      <trkpt lat="40.074321" lon="0.116243">
        <ele>108.475</ele>
        <time>1970-01-01T05:46:28Z</time>
      </trkpt>
      <trkpt lat="40.074307" lon="0.116203">
        <ele>108.896</ele>
        <time>1970-01-01T05:46:29Z</time>
      </trkpt>
      <trkpt lat="40.074290" lon="0.116163">
        <ele>109.349</ele>
        <time>1970-01-01T05:46:30Z</time>
      </trkpt>
      <trkpt lat="40.074278" lon="0.116125">
        <ele>109.702</ele>
        <time>1970-01-01T05:46:31Z</time>
      </trkpt>
      <trkpt lat="40.074267" lon="0.116086">
        <ele>110.022</ele>
        <time>1970-01-01T05:46:32Z</time>
      </trkpt>
      <trkpt lat="40.074256" lon="0.116044">
        <ele>110.408</ele>
        <time>1970-01-01T05:46:33Z</time>
      </trkpt>
      <trkpt lat="40.074243" lon="0.116004">
        <ele>110.711</ele>
        <time>1970-01-01T05:46:34Z</time>
      </trkpt>
      <trkpt lat="40.074227" lon="0.115967">
        <ele>111.288</ele>
        <time>1970-01-01T05:46:35Z</time>
      </trkpt>
      <trkpt lat="40.074211" lon="0.115930">
        <ele>111.639</ele>
        <time>1970-01-01T05:46:36Z</time>
      </trkpt>
      <trkpt lat="40.074194" lon="0.115891">
        <ele>112.172</ele>
        <time>1970-01-01T05:46:37Z</time>
      </trkpt>
      <trkpt lat="40.074183" lon="0.115853">
        <ele>112.632</ele>
        <time>1970-01-01T05:46:38Z</time>
      </trkpt>
      <trkpt lat="40.074174" lon="0.115817">
        <ele>112.948</ele>
        <time>1970-01-01T05:46:39Z</time>
      </trkpt>
      <trkpt lat="40.074166" lon="0.115783">
        <ele>113.272</ele>
        <time>1970-01-01T05:46:40Z</time>
      </trkpt>
      <trkpt lat="40.074157" lon="0.115747">
        <ele>113.533</ele>
        <time>1970-01-01T05:46:41Z</time>
      </trkpt>
      <trkpt lat="40.074153" lon="0.115713">
        <ele>113.762</ele>
        <time>1970-01-01T05:46:42Z</time>
      </trkpt>
      <trkpt lat="40.074149" lon="0.115679">
        <ele>113.983</ele>
        <time>1970-01-01T05:46:43Z</time>
      </trkpt>
      <trkpt lat="40.074141" lon="0.115650">
        <ele>114.211</ele>
        <time>1970-01-01T05:46:44Z</time>
      </trkpt>
      <trkpt lat="40.074134" lon="0.115624">
        <ele>114.408</ele>
        <time>1970-01-01T05:46:45Z</time>
      </trkpt>
      <trkpt lat="40.074129" lon="0.115599">
        <ele>114.623</ele>
        <time>1970-01-01T05:46:46Z</time>
      </trkpt>
      <trkpt lat="40.074124" lon="0.115570">
        <ele>114.970</ele>
        <time>1970-01-01T05:46:47Z</time>
      </trkpt>
      <trkpt lat="40.074118" lon="0.115539">
        <ele>115.081</ele>
        <time>1970-01-01T05:46:48Z</time>
      </trkpt>
      <trkpt lat="40.074111" lon="0.115505">
        <ele>115.014</ele>
        <time>1970-01-01T05:46:49Z</time>
      </trkpt>
      <trkpt lat="40.074105" lon="0.115470">
        <ele>115.084</ele>
        <time>1970-01-01T05:46:50Z</time>
      </trkpt>
      <trkpt lat="40.074100" lon="0.115435">
        <ele>115.070</ele>
        <time>1970-01-01T05:46:51Z</time>
      </trkpt>
      <trkpt lat="40.074094" lon="0.115401">
        <ele>115.024</ele>
        <time>1970-01-01T05:46:52Z</time>
      </trkpt>
      <trkpt lat="40.074087" lon="0.115365">
        <ele>115.085</ele>
        <time>1970-01-01T05:46:53Z</time>
      </trkpt>
      <trkpt lat="40.074082" lon="0.115327">
        <ele>115.068</ele>
        <time>1970-01-01T05:46:54Z</time>
      </trkpt>
      <trkpt lat="40.074076" lon="0.115288">
        <ele>115.042</ele>
        <time>1970-01-01T05:46:55Z</time>
      </trkpt>
      <trkpt lat="40.074070" lon="0.115247">
        <ele>115.026</ele>
        <time>1970-01-01T05:46:56Z</time>
      </trkpt>
      <trkpt lat="40.074062" lon="0.115207">
        <ele>115.008</ele>
        <time>1970-01-01T05:46:57Z</time>
      </trkpt>
      <trkpt lat="40.074051" lon="0.115169">
        <ele>115.153</ele>
        <time>1970-01-01T05:46:58Z</time>
      </trkpt>
      <trkpt lat="40.074043" lon="0.115131">
        <ele>115.180</ele>
        <time>1970-01-01T05:46:59Z</time>
      </trkpt>
      <trkpt lat="40.074039" lon="0.115091">
        <ele>115.141</ele>
        <time>1970-01-01T05:47:00Z</time>
      </trkpt>
      <trkpt lat="40.074035" lon="0.115052">
        <ele>115.064</ele>
        <time>1970-01-01T05:47:01Z</time>
      </trkpt>
      <trkpt lat="40.074031" lon="0.115011">
        <ele>115.014</ele>
        <time>1970-01-01T05:47:02Z</time>
      </trkpt>
      <trkpt lat="40.074025" lon="0.114970">
        <ele>115.230</ele>
        <time>1970-01-01T05:47:03Z</time>
      </trkpt>
      <trkpt lat="40.074018" lon="0.114929">
        <ele>115.584</ele>
        <time>1970-01-01T05:47:04Z</time>
      </trkpt>
      <trkpt lat="40.074011" lon="0.114888">
        <ele>115.815</ele>
        <time>1970-01-01T05:47:05Z</time>
      </trkpt>
      <trkpt lat="40.074007" lon="0.114848">
        <ele>116.041</ele>
        <time>1970-01-01T05:47:06Z</time>
      </trkpt>
      <trkpt lat="40.074005" lon="0.114804">
        <ele>116.281</ele>
        <time>1970-01-01T05:47:07Z</time>
      </trkpt>
      <trkpt lat="40.074004" lon="0.114761">
        <ele>116.409</ele>
        <time>1970-01-01T05:47:08Z</time>
      </trkpt>
      <trkpt lat="40.074005" lon="0.114717">
        <ele>116.508</ele>
        <time>1970-01-01T05:47:09Z</time>
      </trkpt>
      <trkpt lat="40.074010" lon="0.114672">
        <ele>116.261</ele>
        <time>1970-01-01T05:47:10Z</time>
      </trkpt>
      <trkpt lat="40.074018" lon="0.114627">
        <ele>115.988</ele>
        <time>1970-01-01T05:47:11Z</time>
      </trkpt>
      <trkpt lat="40.074027" lon="0.114581">
        <ele>115.549</ele>
        <time>1970-01-01T05:47:12Z</time>
      </trkpt>
      <trkpt lat="40.074040" lon="0.114536">
        <ele>115.072</ele>
        <time>1970-01-01T05:47:13Z</time>
      </trkpt>
      <trkpt lat="40.074053" lon="0.114492">
        <ele>114.542</ele>
        <time>1970-01-01T05:47:14Z</time>
      </trkpt>
      <trkpt lat="40.074066" lon="0.114443">
        <ele>113.958</ele>
        <time>1970-01-01T05:47:15Z</time>
      </trkpt>
      <trkpt lat="40.074075" lon="0.114391">
        <ele>113.412</ele>
        <time>1970-01-01T05:47:16Z</time>
      </trkpt>
      <trkpt lat="40.074081" lon="0.114338">
        <ele>113.023</ele>
        <time>1970-01-01T05:47:17Z</time>
      </trkpt>
      <trkpt lat="40.074091" lon="0.114286">
        <ele>112.598</ele>
        <time>1970-01-01T05:47:18Z</time>
      </trkpt>
      <trkpt lat="40.074101" lon="0.114232">
        <ele>111.915</ele>
        <time>1970-01-01T05:47:19Z</time>
      </trkpt>
      <trkpt lat="40.074103" lon="0.114178">
        <ele>111.726</ele>
        <time>1970-01-01T05:47:20Z</time>
      </trkpt>
      <trkpt lat="40.074095" lon="0.114121">
        <ele>111.708</ele>
        <time>1970-01-01T05:47:21Z</time>
      </trkpt>
      <trkpt lat="40.074081" lon="0.114066">
        <ele>111.966</ele>
        <time>1970-01-01T05:47:22Z</time>
      </trkpt>
      <trkpt lat="40.074064" lon="0.114012">
        <ele>112.253</ele>
        <time>1970-01-01T05:47:23Z</time>
      </trkpt>
      <trkpt lat="40.074043" lon="0.113961">
        <ele>112.534</ele>
        <time>1970-01-01T05:47:24Z</time>
      </trkpt>
      <trkpt lat="40.074018" lon="0.113915">
        <ele>112.897</ele>
        <time>1970-01-01T05:47:25Z</time>
      </trkpt>
      <trkpt lat="40.073988" lon="0.113871">
        <ele>113.267</ele>
        <time>1970-01-01T05:47:26Z</time>
      </trkpt>
      <trkpt lat="40.073956" lon="0.113826">
        <ele>113.653</ele>
        <time>1970-01-01T05:47:27Z</time>
      </trkpt>
      <trkpt lat="40.073923" lon="0.113780">
        <ele>114.037</ele>
        <time>1970-01-01T05:47:28Z</time>
      </trkpt>
      <trkpt lat="40.073890" lon="0.113735">
        <ele>114.448</ele>
        <time>1970-01-01T05:47:29Z</time>
      </trkpt>
      <trkpt lat="40.073856" lon="0.113689">
        <ele>115.114</ele>
        <time>1970-01-01T05:47:30Z</time>
      </trkpt>
      <trkpt lat="40.073822" lon="0.113642">
        <ele>115.654</ele>
        <time>1970-01-01T05:47:31Z</time>
      </trkpt>
      <trkpt lat="40.073788" lon="0.113593">
        <ele>116.209</ele>
        <time>1970-01-01T05:47:32Z</time>
      </trkpt>
      <trkpt lat="40.073752" lon="0.113546">
        <ele>117.108</ele>
        <time>1970-01-01T05:47:33Z</time>
      </trkpt>
      <trkpt lat="40.073715" lon="0.113501">
        <ele>117.868</ele>
        <time>1970-01-01T05:47:34Z</time>
      </trkpt>
      <trkpt lat="40.073681" lon="0.113454">
        <ele>118.475</ele>
        <time>1970-01-01T05:47:35Z</time>
      </trkpt>
      <trkpt lat="40.073647" lon="0.113406">
        <ele>118.846</ele>
        <time>1970-01-01T05:47:36Z</time>
      </trkpt>
      <trkpt lat="40.073617" lon="0.113355">
        <ele>119.099</ele>
        <time>1970-01-01T05:47:37Z</time>
      </trkpt>
      <trkpt lat="40.073594" lon="0.113301">
        <ele>119.439</ele>
        <time>1970-01-01T05:47:38Z</time>
      </trkpt>
      <trkpt lat="40.073579" lon="0.113244">
        <ele>119.765</ele>
        <time>1970-01-01T05:47:39Z</time>
      </trkpt>
      <trkpt lat="40.073570" lon="0.113185">
        <ele>120.029</ele>
        <time>1970-01-01T05:47:40Z</time>
      </trkpt>
      <trkpt lat="40.073568" lon="0.113124">
        <ele>120.340</ele>
        <time>1970-01-01T05:47:41Z</time>
      </trkpt>
      <trkpt lat="40.073567" lon="0.113064">
        <ele>120.522</ele>
        <time>1970-01-01T05:47:42Z</time>
      </trkpt>
      <trkpt lat="40.073571" lon="0.113008">
        <ele>120.562</ele>
        <time>1970-01-01T05:47:43Z</time>
      </trkpt>
      <trkpt lat="40.073580" lon="0.112956">
        <ele>120.408</ele>
        <time>1970-01-01T05:47:44Z</time>
      </trkpt>
      <trkpt lat="40.073593" lon="0.112908">
        <ele>120.208</ele>
        <time>1970-01-01T05:47:45Z</time>
      </trkpt>
      <trkpt lat="40.073604" lon="0.112862">
        <ele>120.189</ele>
        <time>1970-01-01T05:47:46Z</time>
      </trkpt>
      <trkpt lat="40.073616" lon="0.112814">
        <ele>119.926</ele>
        <time>1970-01-01T05:47:47Z</time>
      </trkpt>
      <trkpt lat="40.073624" lon="0.112765">
        <ele>119.877</ele>
        <time>1970-01-01T05:47:48Z</time>
      </trkpt>
      <trkpt lat="40.073631" lon="0.112711">
        <ele>119.730</ele>
        <time>1970-01-01T05:47:49Z</time>
      </trkpt>
      <trkpt lat="40.073638" lon="0.112657">
        <ele>119.540</ele>
        <time>1970-01-01T05:47:50Z</time>
      </trkpt>
      <trkpt lat="40.073648" lon="0.112602">
        <ele>119.336</ele>
        <time>1970-01-01T05:47:51Z</time>
      </trkpt>
      <trkpt lat="40.073657" lon="0.112548">
        <ele>119.120</ele>
        <time>1970-01-01T05:47:52Z</time>
      </trkpt>
      <trkpt lat="40.073664" lon="0.112495">
        <ele>118.981</ele>
        <time>1970-01-01T05:47:53Z</time>
      </trkpt>
      <trkpt lat="40.073667" lon="0.112442">
        <ele>119.074</ele>
        <time>1970-01-01T05:47:54Z</time>
      </trkpt>
      <trkpt lat="40.073669" lon="0.112390">
        <ele>119.156</ele>
        <time>1970-01-01T05:47:55Z</time>
      </trkpt>
      <trkpt lat="40.073672" lon="0.112337">
        <ele>119.121</ele>
        <time>1970-01-01T05:47:56Z</time>
      </trkpt>
      <trkpt lat="40.073678" lon="0.112285">
        <ele>119.108</ele>
        <time>1970-01-01T05:47:57Z</time>
      </trkpt>
      <trkpt lat="40.073685" lon="0.112234">
        <ele>119.144</ele>
        <time>1970-01-01T05:47:58Z</time>
      </trkpt>
      <trkpt lat="40.073693" lon="0.112183">
        <ele>118.981</ele>
        <time>1970-01-01T05:47:59Z</time>
      </trkpt>
      <trkpt lat="40.073700" lon="0.112133">
        <ele>118.862</ele>
        <time>1970-01-01T05:48:00Z</time>
      </trkpt>
      <trkpt lat="40.073706" lon="0.112082">
        <ele>118.695</ele>
        <time>1970-01-01T05:48:01Z</time>
      </trkpt>
      <trkpt lat="40.073714" lon="0.112032">
        <ele>118.415</ele>
        <time>1970-01-01T05:48:02Z</time>
      </trkpt>
      <trkpt lat="40.073723" lon="0.111981">
        <ele>118.251</ele>
        <time>1970-01-01T05:48:03Z</time>
      </trkpt>
      <trkpt lat="40.073732" lon="0.111928">
        <ele>118.085</ele>
        <time>1970-01-01T05:48:04Z</time>
      </trkpt>
      <trkpt lat="40.073740" lon="0.111872">
        <ele>117.956</ele>
        <time>1970-01-01T05:48:05Z</time>
      </trkpt>
      <trkpt lat="40.073748" lon="0.111815">
        <ele>117.894</ele>
        <time>1970-01-01T05:48:06Z</time>
      </trkpt>
      <trkpt lat="40.073758" lon="0.111759">
        <ele>117.757</ele>
        <time>1970-01-01T05:48:07Z</time>
      </trkpt>
      <trkpt lat="40.073767" lon="0.111702">
        <ele>117.622</ele>
        <time>1970-01-01T05:48:08Z</time>
      </trkpt>
      <trkpt lat="40.073772" lon="0.111643">
        <ele>117.408</ele>
        <time>1970-01-01T05:48:09Z</time>
      </trkpt>
      <trkpt lat="40.073773" lon="0.111583">
        <ele>117.286</ele>
        <time>1970-01-01T05:48:10Z</time>
      </trkpt>
      <trkpt lat="40.073771" lon="0.111526">
        <ele>117.083</ele>
        <time>1970-01-01T05:48:11Z</time>
      </trkpt>
      <trkpt lat="40.073766" lon="0.111468">
        <ele>116.934</ele>
        <time>1970-01-01T05:48:12Z</time>
      </trkpt>
      <trkpt lat="40.073756" lon="0.111408">
        <ele>116.927</ele>
        <time>1970-01-01T05:48:13Z</time>
      </trkpt>
      <trkpt lat="40.073740" lon="0.111350">
        <ele>116.927</ele>
        <time>1970-01-01T05:48:14Z</time>
      </trkpt>
      <trkpt lat="40.073719" lon="0.111294">
        <ele>116.813</ele>
        <time>1970-01-01T05:48:15Z</time>
      </trkpt>
      <trkpt lat="40.073692" lon="0.111242">
        <ele>116.897</ele>
        <time>1970-01-01T05:48:16Z</time>
      </trkpt>
      <trkpt lat="40.073660" lon="0.111194">
        <ele>117.068</ele>
        <time>1970-01-01T05:48:17Z</time>
      </trkpt>
      <trkpt lat="40.073626" lon="0.111145">
        <ele>117.169</ele>
        <time>1970-01-01T05:48:18Z</time>
      </trkpt>
      <trkpt lat="40.073589" lon="0.111099">
        <ele>117.304</ele>
        <time>1970-01-01T05:48:19Z</time>
      </trkpt>
      <trkpt lat="40.073548" lon="0.111058">
        <ele>117.824</ele>
        <time>1970-01-01T05:48:20Z</time>
      </trkpt>
      <trkpt lat="40.073503" lon="0.111023">
        <ele>118.308</ele>
        <time>1970-01-01T05:48:21Z</time>
      </trkpt>
      <trkpt lat="40.073457" lon="0.110994">
        <ele>118.913</ele>
        <time>1970-01-01T05:48:22Z</time>
      </trkpt>
      <trkpt lat="40.073409" lon="0.110970">
        <ele>119.640</ele>
        <time>1970-01-01T05:48:23Z</time>
      </trkpt>
      <trkpt lat="40.073359" lon="0.110945">
        <ele>120.361</ele>
        <time>1970-01-01T05:48:24Z</time>
      </trkpt>
      <trkpt lat="40.073311" lon="0.110919">
        <ele>121.034</ele>
        <time>1970-01-01T05:48:25Z</time>
      </trkpt>
      <trkpt lat="40.073263" lon="0.110890">
        <ele>121.694</ele>
        <time>1970-01-01T05:48:26Z</time>
      </trkpt>
      <trkpt lat="40.073219" lon="0.110854">
        <ele>122.110</ele>
        <time>1970-01-01T05:48:27Z</time>
      </trkpt>
      <trkpt lat="40.073183" lon="0.110813">
        <ele>122.594</ele>
        <time>1970-01-01T05:48:28Z</time>
      </trkpt>
      <trkpt lat="40.073154" lon="0.110760">
        <ele>122.635</ele>
        <time>1970-01-01T05:48:29Z</time>
      </trkpt>
      <trkpt lat="40.073130" lon="0.110702">
        <ele>122.676</ele>
        <time>1970-01-01T05:48:30Z</time>
      </trkpt>
      <trkpt lat="40.073108" lon="0.110643">
        <ele>122.690</ele>
        <time>1970-01-01T05:48:31Z</time>
      </trkpt>
      <trkpt lat="40.073087" lon="0.110586">
        <ele>122.619</ele>
        <time>1970-01-01T05:48:32Z</time>
      </trkpt>
      <trkpt lat="40.073063" lon="0.110534">
        <ele>122.608</ele>
        <time>1970-01-01T05:48:33Z</time>
      </trkpt>
      <trkpt lat="40.073035" lon="0.110485">
        <ele>122.624</ele>
        <time>1970-01-01T05:48:34Z</time>
      </trkpt>
      <trkpt lat="40.073006" lon="0.110438">
        <ele>122.561</ele>
        <time>1970-01-01T05:48:35Z</time>
      </trkpt>
      <trkpt lat="40.072976" lon="0.110392">
        <ele>122.562</ele>
        <time>1970-01-01T05:48:36Z</time>
      </trkpt>
      <trkpt lat="40.072944" lon="0.110346">
        <ele>122.425</ele>
        <time>1970-01-01T05:48:37Z</time>
      </trkpt>
      <trkpt lat="40.072912" lon="0.110303">
        <ele>122.425</ele>
        <time>1970-01-01T05:48:38Z</time>
      </trkpt>
      <trkpt lat="40.072881" lon="0.110261">
        <ele>122.291</ele>
        <time>1970-01-01T05:48:39Z</time>
      </trkpt>
      <trkpt lat="40.072850" lon="0.110219">
        <ele>122.035</ele>
        <time>1970-01-01T05:48:40Z</time>
      </trkpt>
      <trkpt lat="40.072816" lon="0.110178">
        <ele>121.796</ele>
        <time>1970-01-01T05:48:41Z</time>
      </trkpt>
      <trkpt lat="40.072782" lon="0.110138">
        <ele>121.411</ele>
        <time>1970-01-01T05:48:42Z</time>
      </trkpt>
      <trkpt lat="40.072745" lon="0.110098">
        <ele>120.821</ele>
        <time>1970-01-01T05:48:43Z</time>
      </trkpt>
      <trkpt lat="40.072708" lon="0.110057">
        <ele>120.003</ele>
        <time>1970-01-01T05:48:44Z</time>
      </trkpt>
      <trkpt lat="40.072672" lon="0.110013">
        <ele>119.208</ele>
        <time>1970-01-01T05:48:45Z</time>
      </trkpt>
      <trkpt lat="40.072637" lon="0.109965">
        <ele>118.648</ele>
        <time>1970-01-01T05:48:46Z</time>
      </trkpt>
      <trkpt lat="40.072598" lon="0.109915">
        <ele>118.015</ele>
        <time>1970-01-01T05:48:47Z</time>
      </trkpt>
      <trkpt lat="40.072558" lon="0.109867">
        <ele>117.556</ele>
        <time>1970-01-01T05:48:48Z</time>
      </trkpt>
      <trkpt lat="40.072518" lon="0.109818">
        <ele>117.059</ele>
        <time>1970-01-01T05:48:49Z</time>
      </trkpt>
      <trkpt lat="40.072476" lon="0.109768">
        <ele>116.789</ele>
        <time>1970-01-01T05:48:50Z</time>
      </trkpt>
      <trkpt lat="40.072427" lon="0.109720">
        <ele>116.845</ele>
        <time>1970-01-01T05:48:51Z</time>
      </trkpt>
      <trkpt lat="40.072379" lon="0.109670">
        <ele>117.289</ele>
        <time>1970-01-01T05:48:52Z</time>
      </trkpt>
      <trkpt lat="40.072333" lon="0.109616">
        <ele>117.660</ele>
        <time>1970-01-01T05:48:53Z</time>
      </trkpt>
      <trkpt lat="40.072288" lon="0.109559">
        <ele>117.897</ele>
        <time>1970-01-01T05:48:54Z</time>
      </trkpt>
      <trkpt lat="40.072254" lon="0.109505">
        <ele>118.023</ele>
        <time>1970-01-01T05:48:55Z</time>
      </trkpt>
      <trkpt lat="40.072229" lon="0.109453">
        <ele>118.025</ele>
        <time>1970-01-01T05:48:56Z</time>
      </trkpt>
      <trkpt lat="40.072216" lon="0.109411">
        <ele>118.208</ele>
        <time>1970-01-01T05:48:57Z</time>
      </trkpt>
      <trkpt lat="40.072210" lon="0.109375">
        <ele>118.346</ele>
        <time>1970-01-01T05:48:58Z</time>
      </trkpt>
      <trkpt lat="40.072211" lon="0.109347">
        <ele>118.433</ele>
        <time>1970-01-01T05:48:59Z</time>
      </trkpt>
      <trkpt lat="40.072208" lon="0.109320">
        <ele>118.564</ele>
        <time>1970-01-01T05:49:00Z</time>
      </trkpt>
      <trkpt lat="40.072200" lon="0.109293">
        <ele>118.667</ele>
        <time>1970-01-01T05:49:01Z</time>
      </trkpt>
      <trkpt lat="40.072185" lon="0.109267">
        <ele>118.787</ele>
        <time>1970-01-01T05:49:02Z</time>
      </trkpt>
      <trkpt lat="40.072165" lon="0.109242">
        <ele>118.843</ele>
        <time>1970-01-01T05:49:03Z</time>
      </trkpt>
      <trkpt lat="40.072142" lon="0.109221">
        <ele>118.937</ele>
        <time>1970-01-01T05:49:04Z</time>
      </trkpt>
      <trkpt lat="40.072116" lon="0.109206">
        <ele>119.028</ele>
        <time>1970-01-01T05:49:05Z</time>
      </trkpt>
      <trkpt lat="40.072090" lon="0.109191">
        <ele>119.048</ele>
        <time>1970-01-01T05:49:06Z</time>
      </trkpt>
      <trkpt lat="40.072064" lon="0.109171">
        <ele>119.061</ele>
        <time>1970-01-01T05:49:07Z</time>
      </trkpt>
      <trkpt lat="40.072036" lon="0.109153">
        <ele>119.017</ele>
        <time>1970-01-01T05:49:08Z</time>
      </trkpt>
      <trkpt lat="40.072007" lon="0.109136">
        <ele>118.908</ele>
        <time>1970-01-01T05:49:09Z</time>
      </trkpt>
      <trkpt lat="40.071979" lon="0.109117">
        <ele>118.821</ele>
        <time>1970-01-01T05:49:10Z</time>
      </trkpt>
      <trkpt lat="40.071953" lon="0.109098">
        <ele>118.818</ele>
        <time>1970-01-01T05:49:11Z</time>
      </trkpt>
      <trkpt lat="40.071926" lon="0.109086">
        <ele>118.739</ele>
        <time>1970-01-01T05:49:12Z</time>
      </trkpt>
      <trkpt lat="40.071898" lon="0.109072">
        <ele>118.732</ele>
        <time>1970-01-01T05:49:13Z</time>
      </trkpt>
      <trkpt lat="40.071869" lon="0.109055">
        <ele>118.772</ele>
        <time>1970-01-01T05:49:14Z</time>
      </trkpt>
      <trkpt lat="40.071838" lon="0.109044">
        <ele>118.638</ele>
        <time>1970-01-01T05:49:15Z</time>
      </trkpt>
      <trkpt lat="40.071804" lon="0.109027">
        <ele>118.592</ele>
        <time>1970-01-01T05:49:16Z</time>
      </trkpt>
      <trkpt lat="40.071769" lon="0.109002">
        <ele>118.393</ele>
        <time>1970-01-01T05:49:17Z</time>
      </trkpt>
      <trkpt lat="40.071733" lon="0.108976">
        <ele>118.076</ele>
        <time>1970-01-01T05:49:18Z</time>
      </trkpt>
      <trkpt lat="40.071695" lon="0.108952">
        <ele>117.790</ele>
        <time>1970-01-01T05:49:19Z</time>
      </trkpt>
      <trkpt lat="40.071656" lon="0.108934">
        <ele>117.519</ele>
        <time>1970-01-01T05:49:20Z</time>
      </trkpt>
      <trkpt lat="40.071619" lon="0.108916">
        <ele>117.208</ele>
        <time>1970-01-01T05:49:21Z</time>
      </trkpt>
      <trkpt lat="40.071583" lon="0.108896">
        <ele>116.824</ele>
        <time>1970-01-01T05:49:22Z</time>
      </trkpt>
      <trkpt lat="40.071543" lon="0.108879">
        <ele>116.561</ele>
        <time>1970-01-01T05:49:23Z</time>
      </trkpt>
      <trkpt lat="40.071504" lon="0.108864">
        <ele>116.292</ele>
        <time>1970-01-01T05:49:24Z</time>
      </trkpt>
      <trkpt lat="40.071462" lon="0.108853">
        <ele>115.815</ele>
        <time>1970-01-01T05:49:25Z</time>
      </trkpt>
      <trkpt lat="40.071420" lon="0.108841">
        <ele>115.565</ele>
        <time>1970-01-01T05:49:26Z</time>
      </trkpt>
      <trkpt lat="40.071378" lon="0.108827">
        <ele>115.241</ele>
        <time>1970-01-01T05:49:27Z</time>
      </trkpt>
      <trkpt lat="40.071333" lon="0.108812">
        <ele>115.335</ele>
        <time>1970-01-01T05:49:28Z</time>
      </trkpt>
      <trkpt lat="40.071288" lon="0.108797">
        <ele>115.346</ele>
        <time>1970-01-01T05:49:29Z</time>
      </trkpt>
      <trkpt lat="40.071241" lon="0.108784">
        <ele>115.383</ele>
        <time>1970-01-01T05:49:30Z</time>
      </trkpt>
      <trkpt lat="40.071195" lon="0.108772">
        <ele>115.225</ele>
        <time>1970-01-01T05:49:31Z</time>
      </trkpt>
      <trkpt lat="40.071150" lon="0.108760">
        <ele>115.117</ele>
        <time>1970-01-01T05:49:32Z</time>
      </trkpt>
      <trkpt lat="40.071106" lon="0.108749">
        <ele>115.008</ele>
        <time>1970-01-01T05:49:33Z</time>
      </trkpt>
      <trkpt lat="40.071058" lon="0.108741">
        <ele>114.675</ele>
        <time>1970-01-01T05:49:34Z</time>
      </trkpt>
      <trkpt lat="40.071008" lon="0.108736">
        <ele>114.462</ele>
        <time>1970-01-01T05:49:35Z</time>
      </trkpt>
      <trkpt lat="40.070957" lon="0.108739">
        <ele>114.483</ele>
        <time>1970-01-01T05:49:36Z</time>
      </trkpt>
      <trkpt lat="40.070905" lon="0.108747">
        <ele>114.516</ele>
        <time>1970-01-01T05:49:37Z</time>
      </trkpt>
      <trkpt lat="40.070849" lon="0.108756">
        <ele>114.786</ele>
        <time>1970-01-01T05:49:38Z</time>
      </trkpt>
      <trkpt lat="40.070789" lon="0.108772">
        <ele>115.172</ele>
        <time>1970-01-01T05:49:39Z</time>
      </trkpt>
      <trkpt lat="40.070725" lon="0.108790">
        <ele>115.466</ele>
        <time>1970-01-01T05:49:40Z</time>
      </trkpt>
      <trkpt lat="40.070657" lon="0.108809">
        <ele>115.847</ele>
        <time>1970-01-01T05:49:41Z</time>
      </trkpt>
      <trkpt lat="40.070584" lon="0.108825">
        <ele>116.023</ele>
        <time>1970-01-01T05:49:42Z</time>
      </trkpt>
      <trkpt lat="40.070509" lon="0.108839">
        <ele>115.983</ele>
        <time>1970-01-01T05:49:43Z</time>
      </trkpt>
      <trkpt lat="40.070429" lon="0.108856">
        <ele>115.711</ele>
        <time>1970-01-01T05:49:44Z</time>
      </trkpt>
      <trkpt lat="40.070346" lon="0.108874">
        <ele>115.308</ele>
        <time>1970-01-01T05:49:45Z</time>
      </trkpt>
      <trkpt lat="40.070259" lon="0.108887">
        <ele>114.919</ele>
        <time>1970-01-01T05:49:46Z</time>
      </trkpt>
      <trkpt lat="40.070167" lon="0.108897">
        <ele>114.716</ele>
        <time>1970-01-01T05:49:47Z</time>
      </trkpt>
      <trkpt lat="40.070071" lon="0.108904">
        <ele>114.437</ele>
        <time>1970-01-01T05:49:48Z</time>
      </trkpt>
      <trkpt lat="40.069974" lon="0.108911">
        <ele>113.860</ele>
        <time>1970-01-01T05:49:49Z</time>
      </trkpt>
      <trkpt lat="40.069876" lon="0.108911">
        <ele>112.830</ele>
        <time>1970-01-01T05:49:50Z</time>
      </trkpt>
      <trkpt lat="40.069777" lon="0.108897">
        <ele>111.626</ele>
        <time>1970-01-01T05:49:51Z</time>
      </trkpt>
      <trkpt lat="40.069677" lon="0.108868">
        <ele>110.790</ele>
        <time>1970-01-01T05:49:52Z</time>
      </trkpt>
      <trkpt lat="40.069582" lon="0.108823">
        <ele>110.011</ele>
        <time>1970-01-01T05:49:53Z</time>
      </trkpt>
      <trkpt lat="40.069489" lon="0.108758">
        <ele>109.224</ele>
        <time>1970-01-01T05:49:54Z</time>
      </trkpt>
      <trkpt lat="40.069403" lon="0.108677">
        <ele>108.104</ele>
        <time>1970-01-01T05:49:55Z</time>
      </trkpt>
      <trkpt lat="40.069319" lon="0.108580">
        <ele>107.114</ele>
        <time>1970-01-01T05:49:56Z</time>
      </trkpt>
      <trkpt lat="40.069242" lon="0.108470">
        <ele>106.508</ele>
        <time>1970-01-01T05:49:57Z</time>
      </trkpt>
      <trkpt lat="40.069176" lon="0.108347">
        <ele>106.139</ele>
        <time>1970-01-01T05:49:58Z</time>
      </trkpt>
      <trkpt lat="40.069123" lon="0.108208">
        <ele>105.466</ele>
        <time>1970-01-01T05:49:59Z</time>
      </trkpt>
      <trkpt lat="40.069079" lon="0.108064">
        <ele>104.717</ele>
        <time>1970-01-01T05:50:00Z</time>
      </trkpt>
      <trkpt lat="40.069039" lon="0.107915">
        <ele>103.570</ele>
        <time>1970-01-01T05:50:01Z</time>
      </trkpt>
      <trkpt lat="40.069000" lon="0.107763">
        <ele>102.230</ele>
        <time>1970-01-01T05:50:02Z</time>
      </trkpt>
      <trkpt lat="40.068957" lon="0.107610">
        <ele>100.446</ele>
        <time>1970-01-01T05:50:03Z</time>
      </trkpt>
      <trkpt lat="40.068913" lon="0.107458">
        <ele>98.520</ele>
        <time>1970-01-01T05:50:04Z</time>
      </trkpt>
      <trkpt lat="40.068864" lon="0.107310">
        <ele>96.251</ele>
        <time>1970-01-01T05:50:05Z</time>
      </trkpt>
      <trkpt lat="40.068808" lon="0.107165">
        <ele>93.769</ele>
        <time>1970-01-01T05:50:06Z</time>
      </trkpt>
      <trkpt lat="40.068747" lon="0.107024">
        <ele>90.904</ele>
        <time>1970-01-01T05:50:07Z</time>
      </trkpt>
      <trkpt lat="40.068684" lon="0.106886">
        <ele>88.524</ele>
        <time>1970-01-01T05:50:08Z</time>
      </trkpt>
      <trkpt lat="40.068616" lon="0.106750">
        <ele>86.908</ele>
        <time>1970-01-01T05:50:09Z</time>
      </trkpt>
      <trkpt lat="40.068541" lon="0.106617">
        <ele>85.033</ele>
        <time>1970-01-01T05:50:10Z</time>
      </trkpt>
      <trkpt lat="40.068464" lon="0.106485">
        <ele>83.770</ele>
        <time>1970-01-01T05:50:11Z</time>
      </trkpt>
      <trkpt lat="40.068386" lon="0.106353">
        <ele>82.751</ele>
        <time>1970-01-01T05:50:12Z</time>
      </trkpt>
      <trkpt lat="40.068309" lon="0.106222">
        <ele>81.864</ele>
        <time>1970-01-01T05:50:13Z</time>
      </trkpt>
      <trkpt lat="40.068230" lon="0.106093">
        <ele>81.374</ele>
        <time>1970-01-01T05:50:14Z</time>
      </trkpt>
      <trkpt lat="40.068151" lon="0.105966">
        <ele>81.010</ele>
        <time>1970-01-01T05:50:15Z</time>
      </trkpt>
      <trkpt lat="40.068072" lon="0.105840">
        <ele>80.934</ele>
        <time>1970-01-01T05:50:16Z</time>
      </trkpt>
      <trkpt lat="40.067992" lon="0.105715">
        <ele>81.025</ele>
        <time>1970-01-01T05:50:17Z</time>
      </trkpt>
      <trkpt lat="40.067909" lon="0.105591">
        <ele>81.146</ele>
        <time>1970-01-01T05:50:18Z</time>
      </trkpt>
      <trkpt lat="40.067829" lon="0.105468">
        <ele>80.988</ele>
        <time>1970-01-01T05:50:19Z</time>
      </trkpt>
      <trkpt lat="40.067750" lon="0.105340">
        <ele>80.616</ele>
        <time>1970-01-01T05:50:20Z</time>
      </trkpt>
      <trkpt lat="40.067679" lon="0.105204">
        <ele>80.208</ele>
        <time>1970-01-01T05:50:21Z</time>
      </trkpt>
      <trkpt lat="40.067615" lon="0.105060">
        <ele>79.011</ele>
        <time>1970-01-01T05:50:22Z</time>
      </trkpt>
      <trkpt lat="40.067560" lon="0.104906">
        <ele>77.458</ele>
        <time>1970-01-01T05:50:23Z</time>
      </trkpt>
      <trkpt lat="40.067514" lon="0.104745">
        <ele>75.329</ele>
        <time>1970-01-01T05:50:24Z</time>
      </trkpt>
      <trkpt lat="40.067474" lon="0.104581">
        <ele>73.892</ele>
        <time>1970-01-01T05:50:25Z</time>
      </trkpt>
      <trkpt lat="40.067437" lon="0.104415">
        <ele>72.332</ele>
        <time>1970-01-01T05:50:26Z</time>
      </trkpt>
      <trkpt lat="40.067399" lon="0.104249">
        <ele>70.598</ele>
        <time>1970-01-01T05:50:27Z</time>
      </trkpt>
      <trkpt lat="40.067357" lon="0.104084">
        <ele>68.752</ele>
        <time>1970-01-01T05:50:28Z</time>
      </trkpt>
      <trkpt lat="40.067316" lon="0.103925">
        <ele>66.623</ele>
        <time>1970-01-01T05:50:29Z</time>
      </trkpt>
      <trkpt lat="40.067274" lon="0.103776">
        <ele>64.883</ele>
        <time>1970-01-01T05:50:30Z</time>
      </trkpt>
      <trkpt lat="40.067231" lon="0.103633">
        <ele>63.225</ele>
        <time>1970-01-01T05:50:31Z</time>
      </trkpt>
      <trkpt lat="40.067185" lon="0.103490">
        <ele>61.517</ele>
        <time>1970-01-01T05:50:32Z</time>
      </trkpt>
      <trkpt lat="40.067127" lon="0.103351">
        <ele>59.608</ele>
        <time>1970-01-01T05:50:33Z</time>
      </trkpt>
      <trkpt lat="40.067058" lon="0.103216">
        <ele>58.195</ele>
        <time>1970-01-01T05:50:34Z</time>
      </trkpt>
      <trkpt lat="40.066982" lon="0.103081">
        <ele>56.492</ele>
        <time>1970-01-01T05:50:35Z</time>
      </trkpt>
      <trkpt lat="40.066903" lon="0.102944">
        <ele>53.953</ele>
        <time>1970-01-01T05:50:36Z</time>
      </trkpt>
      <trkpt lat="40.066825" lon="0.102801">
        <ele>52.136</ele>
        <time>1970-01-01T05:50:37Z</time>
      </trkpt>
      <trkpt lat="40.066748" lon="0.102654">
        <ele>51.616</ele>
        <time>1970-01-01T05:50:38Z</time>
      </trkpt>
      <trkpt lat="40.066670" lon="0.102506">
        <ele>51.092</ele>
        <time>1970-01-01T05:50:39Z</time>
      </trkpt>
      <trkpt lat="40.066594" lon="0.102358">
        <ele>52.136</ele>
        <time>1970-01-01T05:50:40Z</time>
      </trkpt>
      <trkpt lat="40.066516" lon="0.102213">
        <ele>53.287</ele>
        <time>1970-01-01T05:50:41Z</time>
      </trkpt>
      <trkpt lat="40.066436" lon="0.102072">
        <ele>53.499</ele>
        <time>1970-01-01T05:50:42Z</time>
      </trkpt>
      <trkpt lat="40.066353" lon="0.101937">
        <ele>53.607</ele>
        <time>1970-01-01T05:50:43Z</time>
      </trkpt>
      <trkpt lat="40.066268" lon="0.101805">
        <ele>52.227</ele>
        <time>1970-01-01T05:50:44Z</time>
      </trkpt>
      <trkpt lat="40.066178" lon="0.101677">
        <ele>50.308</ele>
        <time>1970-01-01T05:50:45Z</time>
      </trkpt>
      <trkpt lat="40.066084" lon="0.101555">
        <ele>48.256</ele>
        <time>1970-01-01T05:50:46Z</time>
      </trkpt>
      <trkpt lat="40.065990" lon="0.101436">
        <ele>45.813</ele>
        <time>1970-01-01T05:50:47Z</time>
      </trkpt>
      <trkpt lat="40.065897" lon="0.101316">
        <ele>43.724</ele>
        <time>1970-01-01T05:50:48Z</time>
      </trkpt>
      <trkpt lat="40.065804" lon="0.101194">
        <ele>41.417</ele>
        <time>1970-01-01T05:50:49Z</time>
      </trkpt>
      <trkpt lat="40.065710" lon="0.101073">
        <ele>39.927</ele>
        <time>1970-01-01T05:50:50Z</time>
      </trkpt>
      <trkpt lat="40.065615" lon="0.100953">
        <ele>39.393</ele>
        <time>1970-01-01T05:50:51Z</time>
      </trkpt>
      <trkpt lat="40.065519" lon="0.100832">
        <ele>38.397</ele>
        <time>1970-01-01T05:50:52Z</time>
      </trkpt>
      <trkpt lat="40.065421" lon="0.100709">
        <ele>37.998</ele>
        <time>1970-01-01T05:50:53Z</time>
      </trkpt>
      <trkpt lat="40.065325" lon="0.100587">
        <ele>37.159</ele>
        <time>1970-01-01T05:50:54Z</time>
      </trkpt>
      <trkpt lat="40.065229" lon="0.100463">
        <ele>37.003</ele>
        <time>1970-01-01T05:50:55Z</time>
      </trkpt>
      <trkpt lat="40.065133" lon="0.100340">
        <ele>37.123</ele>
        <time>1970-01-01T05:50:56Z</time>
      </trkpt>
      <trkpt lat="40.065038" lon="0.100220">
        <ele>37.208</ele>
        <time>1970-01-01T05:50:57Z</time>
      </trkpt>
      <trkpt lat="40.064947" lon="0.100103">
        <ele>37.122</ele>
        <time>1970-01-01T05:50:58Z</time>
      </trkpt>
      <trkpt lat="40.064854" lon="0.099986">
        <ele>36.449</ele>
        <time>1970-01-01T05:50:59Z</time>
      </trkpt>
      <trkpt lat="40.064760" lon="0.099876">
        <ele>36.010</ele>
        <time>1970-01-01T05:51:00Z</time>
      </trkpt>
      <trkpt lat="40.064668" lon="0.099770">
        <ele>35.483</ele>
        <time>1970-01-01T05:51:01Z</time>
      </trkpt>
      <trkpt lat="40.064577" lon="0.099672">
        <ele>34.623</ele>
        <time>1970-01-01T05:51:02Z</time>
      </trkpt>
      <trkpt lat="40.064484" lon="0.099577">
        <ele>34.069</ele>
        <time>1970-01-01T05:51:03Z</time>
      </trkpt>
      <trkpt lat="40.064385" lon="0.099491">
        <ele>33.563</ele>
        <time>1970-01-01T05:51:04Z</time>
      </trkpt>
      <trkpt lat="40.064279" lon="0.099418">
        <ele>33.494</ele>
        <time>1970-01-01T05:51:05Z</time>
      </trkpt>
      <trkpt lat="40.064175" lon="0.099350">
        <ele>33.015</ele>
        <time>1970-01-01T05:51:06Z</time>
      </trkpt>
      <trkpt lat="40.064074" lon="0.099285">
        <ele>31.865</ele>
        <time>1970-01-01T05:51:07Z</time>
      </trkpt>
      <trkpt lat="40.063971" lon="0.099227">
        <ele>30.811</ele>
        <time>1970-01-01T05:51:08Z</time>
      </trkpt>
      <trkpt lat="40.063868" lon="0.099175">
        <ele>30.008</ele>
        <time>1970-01-01T05:51:09Z</time>
      </trkpt>
      <trkpt lat="40.063768" lon="0.099123">
        <ele>29.238</ele>
        <time>1970-01-01T05:51:10Z</time>
      </trkpt>
      <trkpt lat="40.063667" lon="0.099074">
        <ele>28.545</ele>
        <time>1970-01-01T05:51:11Z</time>
      </trkpt>
      <trkpt lat="40.063566" lon="0.099026">
        <ele>27.966</ele>
        <time>1970-01-01T05:51:12Z</time>
      </trkpt>
      <trkpt lat="40.063470" lon="0.098976">
        <ele>27.529</ele>
        <time>1970-01-01T05:51:13Z</time>
      </trkpt>
      <trkpt lat="40.063378" lon="0.098926">
        <ele>27.239</ele>
        <time>1970-01-01T05:51:14Z</time>
      </trkpt>
      <trkpt lat="40.063290" lon="0.098879">
        <ele>26.935</ele>
        <time>1970-01-01T05:51:15Z</time>
      </trkpt>
      <trkpt lat="40.063208" lon="0.098836">
        <ele>26.779</ele>
        <time>1970-01-01T05:51:16Z</time>
      </trkpt>
      <trkpt lat="40.063127" lon="0.098797">
        <ele>26.660</ele>
        <time>1970-01-01T05:51:17Z</time>
      </trkpt>
      <trkpt lat="40.063054" lon="0.098763">
        <ele>26.515</ele>
        <time>1970-01-01T05:51:18Z</time>
      </trkpt>
      <trkpt lat="40.062986" lon="0.098729">
        <ele>26.365</ele>
        <time>1970-01-01T05:51:19Z</time>
      </trkpt>
      <trkpt lat="40.062921" lon="0.098693">
        <ele>26.011</ele>
        <time>1970-01-01T05:51:20Z</time>
      </trkpt>
      <trkpt lat="40.062855" lon="0.098657">
        <ele>25.608</ele>
        <time>1970-01-01T05:51:21Z</time>
      </trkpt>
      <trkpt lat="40.062789" lon="0.098619">
        <ele>25.148</ele>
        <time>1970-01-01T05:51:22Z</time>
      </trkpt>
      <trkpt lat="40.062723" lon="0.098583">
        <ele>24.465</ele>
        <time>1970-01-01T05:51:23Z</time>
      </trkpt>
      <trkpt lat="40.062659" lon="0.098547">
        <ele>23.896</ele>
        <time>1970-01-01T05:51:24Z</time>
      </trkpt>
      <trkpt lat="40.062601" lon="0.098508">
        <ele>23.249</ele>
        <time>1970-01-01T05:51:25Z</time>
      </trkpt>
      <trkpt lat="40.062547" lon="0.098464">
        <ele>22.779</ele>
        <time>1970-01-01T05:51:26Z</time>
      </trkpt>
      <trkpt lat="40.062501" lon="0.098412">
        <ele>22.395</ele>
        <time>1970-01-01T05:51:27Z</time>
      </trkpt>
      <trkpt lat="40.062467" lon="0.098347">
        <ele>22.189</ele>
        <time>1970-01-01T05:51:28Z</time>
      </trkpt>
      <trkpt lat="40.062433" lon="0.098279">
        <ele>21.820</ele>
        <time>1970-01-01T05:51:29Z</time>
      </trkpt>
      <trkpt lat="40.062384" lon="0.098226">
        <ele>21.699</ele>
        <time>1970-01-01T05:51:30Z</time>
      </trkpt>
      <trkpt lat="40.062326" lon="0.098199">
        <ele>21.507</ele>
        <time>1970-01-01T05:51:31Z</time>
      </trkpt>
      <trkpt lat="40.062262" lon="0.098196">
        <ele>21.527</ele>
        <time>1970-01-01T05:51:32Z</time>
      </trkpt>
      <trkpt lat="40.062198" lon="0.098202">
        <ele>21.508</ele>
        <time>1970-01-01T05:51:33Z</time>
      </trkpt>
      <trkpt lat="40.062130" lon="0.098206">
        <ele>21.596</ele>
        <time>1970-01-01T05:51:34Z</time>
      </trkpt>
      <trkpt lat="40.062062" lon="0.098205">
        <ele>21.583</ele>
        <time>1970-01-01T05:51:35Z</time>
      </trkpt>
      <trkpt lat="40.061993" lon="0.098189">
        <ele>21.574</ele>
        <time>1970-01-01T05:51:36Z</time>
      </trkpt>
      <trkpt lat="40.061927" lon="0.098161">
        <ele>21.427</ele>
        <time>1970-01-01T05:51:37Z</time>
      </trkpt>
      <trkpt lat="40.061860" lon="0.098128">
        <ele>21.567</ele>
        <time>1970-01-01T05:51:38Z</time>
      </trkpt>
      <trkpt lat="40.061792" lon="0.098093">
        <ele>21.633</ele>
        <time>1970-01-01T05:51:39Z</time>
      </trkpt>
      <trkpt lat="40.061724" lon="0.098057">
        <ele>21.857</ele>
        <time>1970-01-01T05:51:40Z</time>
      </trkpt>
      <trkpt lat="40.061657" lon="0.098016">
        <ele>21.838</ele>
        <time>1970-01-01T05:51:41Z</time>
      </trkpt>
      <trkpt lat="40.061589" lon="0.097979">
        <ele>21.242</ele>
        <time>1970-01-01T05:51:42Z</time>
      </trkpt>
      <trkpt lat="40.061522" lon="0.097944">
        <ele>20.822</ele>
        <time>1970-01-01T05:51:43Z</time>
      </trkpt>
      <trkpt lat="40.061455" lon="0.097908">
        <ele>20.414</ele>
        <time>1970-01-01T05:51:44Z</time>
      </trkpt>
      <trkpt lat="40.061389" lon="0.097873">
        <ele>20.008</ele>
        <time>1970-01-01T05:51:45Z</time>
      </trkpt>
      <trkpt lat="40.061323" lon="0.097839">
        <ele>19.681</ele>
        <time>1970-01-01T05:51:46Z</time>
      </trkpt>
      <trkpt lat="40.061259" lon="0.097804">
        <ele>19.298</ele>
        <time>1970-01-01T05:51:47Z</time>
      </trkpt>
      <trkpt lat="40.061196" lon="0.097770">
        <ele>18.689</ele>
        <time>1970-01-01T05:51:48Z</time>
      </trkpt>
      <trkpt lat="40.061133" lon="0.097736">
        <ele>18.242</ele>
        <time>1970-01-01T05:51:49Z</time>
      </trkpt>
      <trkpt lat="40.061071" lon="0.097705">
        <ele>17.982</ele>
        <time>1970-01-01T05:51:50Z</time>
      </trkpt>
      <trkpt lat="40.061009" lon="0.097678">
        <ele>17.618</ele>
        <time>1970-01-01T05:51:51Z</time>
      </trkpt>
      <trkpt lat="40.060949" lon="0.097647">
        <ele>17.462</ele>
        <time>1970-01-01T05:51:52Z</time>
      </trkpt>
      <trkpt lat="40.060892" lon="0.097614">
        <ele>17.273</ele>
        <time>1970-01-01T05:51:53Z</time>
      </trkpt>
      <trkpt lat="40.060835" lon="0.097582">
        <ele>17.012</ele>
        <time>1970-01-01T05:51:54Z</time>
      </trkpt>
      <trkpt lat="40.060778" lon="0.097551">
        <ele>16.732</ele>
        <time>1970-01-01T05:51:55Z</time>
      </trkpt>
      <trkpt lat="40.060723" lon="0.097523">
        <ele>16.505</ele>
        <time>1970-01-01T05:51:56Z</time>
      </trkpt>
      <trkpt lat="40.060666" lon="0.097499">
        <ele>16.408</ele>
        <time>1970-01-01T05:51:57Z</time>
      </trkpt>
      <trkpt lat="40.060610" lon="0.097476">
        <ele>16.588</ele>
        <time>1970-01-01T05:51:58Z</time>
      </trkpt>
      <trkpt lat="40.060552" lon="0.097456">
        <ele>16.645</ele>
        <time>1970-01-01T05:51:59Z</time>
      </trkpt>
      <trkpt lat="40.060494" lon="0.097440">
        <ele>17.196</ele>
        <time>1970-01-01T05:52:00Z</time>
      </trkpt>
      <trkpt lat="40.060435" lon="0.097426">
        <ele>17.589</ele>
        <time>1970-01-01T05:52:01Z</time>
      </trkpt>
      <trkpt lat="40.060377" lon="0.097414">
        <ele>17.919</ele>
        <time>1970-01-01T05:52:02Z</time>
      </trkpt>
      <trkpt lat="40.060318" lon="0.097403">
        <ele>18.345</ele>
        <time>1970-01-01T05:52:03Z</time>
      </trkpt>
      <trkpt lat="40.060261" lon="0.097396">
        <ele>18.569</ele>
        <time>1970-01-01T05:52:04Z</time>
      </trkpt>
      <trkpt lat="40.060204" lon="0.097390">
        <ele>18.580</ele>
        <time>1970-01-01T05:52:05Z</time>
      </trkpt>
      <trkpt lat="40.060147" lon="0.097384">
        <ele>18.665</ele>
        <time>1970-01-01T05:52:06Z</time>
      </trkpt>
      <trkpt lat="40.060088" lon="0.097380">
        <ele>18.668</ele>
        <time>1970-01-01T05:52:07Z</time>
      </trkpt>
      <trkpt lat="40.060029" lon="0.097380">
        <ele>18.614</ele>
        <time>1970-01-01T05:52:08Z</time>
      </trkpt>
      <trkpt lat="40.059970" lon="0.097378">
        <ele>18.408</ele>
        <time>1970-01-01T05:52:09Z</time>
      </trkpt>
      <trkpt lat="40.059910" lon="0.097375">
        <ele>17.953</ele>
        <time>1970-01-01T05:52:10Z</time>
      </trkpt>
      <trkpt lat="40.059850" lon="0.097371">
        <ele>17.510</ele>
        <time>1970-01-01T05:52:11Z</time>
      </trkpt>
      <trkpt lat="40.059788" lon="0.097362">
        <ele>17.131</ele>
        <time>1970-01-01T05:52:12Z</time>
      </trkpt>
      <trkpt lat="40.059727" lon="0.097349">
        <ele>16.854</ele>
        <time>1970-01-01T05:52:13Z</time>
      </trkpt>
      <trkpt lat="40.059666" lon="0.097332">
        <ele>16.664</ele>
        <time>1970-01-01T05:52:14Z</time>
      </trkpt>
      <trkpt lat="40.059604" lon="0.097311">
        <ele>16.430</ele>
        <time>1970-01-01T05:52:15Z</time>
      </trkpt>
      <trkpt lat="40.059544" lon="0.097287">
        <ele>16.254</ele>
        <time>1970-01-01T05:52:16Z</time>
      </trkpt>
      <trkpt lat="40.059484" lon="0.097261">
        <ele>16.095</ele>
        <time>1970-01-01T05:52:17Z</time>
      </trkpt>
      <trkpt lat="40.059425" lon="0.097232">
        <ele>15.846</ele>
        <time>1970-01-01T05:52:18Z</time>
      </trkpt>
      <trkpt lat="40.059367" lon="0.097200">
        <ele>15.888</ele>
        <time>1970-01-01T05:52:19Z</time>
      </trkpt>
      <trkpt lat="40.059309" lon="0.097167">
        <ele>15.916</ele>
        <time>1970-01-01T05:52:20Z</time>
      </trkpt>
      <trkpt lat="40.059251" lon="0.097132">
        <ele>16.008</ele>
        <time>1970-01-01T05:52:21Z</time>
      </trkpt>
      <trkpt lat="40.059194" lon="0.097093">
        <ele>16.111</ele>
        <time>1970-01-01T05:52:22Z</time>
      </trkpt>
      <trkpt lat="40.059139" lon="0.097048">
        <ele>16.358</ele>
        <time>1970-01-01T05:52:23Z</time>
      </trkpt>
      <trkpt lat="40.059086" lon="0.097001">
        <ele>16.499</ele>
        <time>1970-01-01T05:52:24Z</time>
      </trkpt>
      <trkpt lat="40.059034" lon="0.096952">
        <ele>16.542</ele>
        <time>1970-01-01T05:52:25Z</time>
      </trkpt>
      <trkpt lat="40.058985" lon="0.096901">
        <ele>16.862</ele>
        <time>1970-01-01T05:52:26Z</time>
      </trkpt>
      <trkpt lat="40.058940" lon="0.096849">
        <ele>17.348</ele>
        <time>1970-01-01T05:52:27Z</time>
      </trkpt>
      <trkpt lat="40.058895" lon="0.096799">
        <ele>17.782</ele>
        <time>1970-01-01T05:52:28Z</time>
      </trkpt>
      <trkpt lat="40.058849" lon="0.096752">
        <ele>17.683</ele>
        <time>1970-01-01T05:52:29Z</time>
      </trkpt>
      <trkpt lat="40.058804" lon="0.096704">
        <ele>17.315</ele>
        <time>1970-01-01T05:52:30Z</time>
      </trkpt>
      <trkpt lat="40.058761" lon="0.096656">
        <ele>16.965</ele>
        <time>1970-01-01T05:52:31Z</time>
      </trkpt>
      <trkpt lat="40.058720" lon="0.096603">
        <ele>16.311</ele>
        <time>1970-01-01T05:52:32Z</time>
      </trkpt>
      <trkpt lat="40.058682" lon="0.096549">
        <ele>15.708</ele>
        <time>1970-01-01T05:52:33Z</time>
      </trkpt>
      <trkpt lat="40.058647" lon="0.096488">
        <ele>15.398</ele>
        <time>1970-01-01T05:52:34Z</time>
      </trkpt>
      <trkpt lat="40.058618" lon="0.096422">
        <ele>15.045</ele>
        <time>1970-01-01T05:52:35Z</time>
      </trkpt>
      <trkpt lat="40.058595" lon="0.096355">
        <ele>14.766</ele>
        <time>1970-01-01T05:52:36Z</time>
      </trkpt>
      <trkpt lat="40.058577" lon="0.096289">
        <ele>14.399</ele>
        <time>1970-01-01T05:52:37Z</time>
      </trkpt>
      <trkpt lat="40.058567" lon="0.096217">
        <ele>14.129</ele>
        <time>1970-01-01T05:52:38Z</time>
      </trkpt>
      <trkpt lat="40.058560" lon="0.096144">
        <ele>14.155</ele>
        <time>1970-01-01T05:52:39Z</time>
      </trkpt>
      <trkpt lat="40.058556" lon="0.096065">
        <ele>14.089</ele>
        <time>1970-01-01T05:52:40Z</time>
      </trkpt>
      <trkpt lat="40.058553" lon="0.095987">
        <ele>14.030</ele>
        <time>1970-01-01T05:52:41Z</time>
      </trkpt>
      <trkpt lat="40.058550" lon="0.095911">
        <ele>13.925</ele>
        <time>1970-01-01T05:52:42Z</time>
      </trkpt>
      <trkpt lat="40.058544" lon="0.095835">
        <ele>13.826</ele>
        <time>1970-01-01T05:52:43Z</time>
      </trkpt>
      <trkpt lat="40.058540" lon="0.095761">
        <ele>13.908</ele>
        <time>1970-01-01T05:52:44Z</time>
      </trkpt>
      <trkpt lat="40.058537" lon="0.095688">
        <ele>14.108</ele>
        <time>1970-01-01T05:52:45Z</time>
      </trkpt>
      <trkpt lat="40.058535" lon="0.095616">
        <ele>14.239</ele>
        <time>1970-01-01T05:52:46Z</time>
      </trkpt>
      <trkpt lat="40.058532" lon="0.095544">
        <ele>14.326</ele>
        <time>1970-01-01T05:52:47Z</time>
      </trkpt>
      <trkpt lat="40.058528" lon="0.095470">
        <ele>14.567</ele>
        <time>1970-01-01T05:52:48Z</time>
      </trkpt>
      <trkpt lat="40.058523" lon="0.095392">
        <ele>14.740</ele>
        <time>1970-01-01T05:52:49Z</time>
      </trkpt>
      <trkpt lat="40.058521" lon="0.095315">
        <ele>14.990</ele>
        <time>1970-01-01T05:52:50Z</time>
      </trkpt>
      <trkpt lat="40.058519" lon="0.095240">
        <ele>15.026</ele>
        <time>1970-01-01T05:52:51Z</time>
      </trkpt>
      <trkpt lat="40.058521" lon="0.095166">
        <ele>15.080</ele>
        <time>1970-01-01T05:52:52Z</time>
      </trkpt>
      <trkpt lat="40.058524" lon="0.095094">
        <ele>15.141</ele>
        <time>1970-01-01T05:52:53Z</time>
      </trkpt>
      <trkpt lat="40.058527" lon="0.095021">
        <ele>15.147</ele>
        <time>1970-01-01T05:52:54Z</time>
      </trkpt>
      <trkpt lat="40.058526" lon="0.094947">
        <ele>14.929</ele>
        <time>1970-01-01T05:52:55Z</time>
      </trkpt>
      <trkpt lat="40.058523" lon="0.094872">
        <ele>14.721</ele>
        <time>1970-01-01T05:52:56Z</time>
      </trkpt>
      <trkpt lat="40.058518" lon="0.094796">
        <ele>14.508</ele>
        <time>1970-01-01T05:52:57Z</time>
      </trkpt>
      <trkpt lat="40.058515" lon="0.094721">
        <ele>14.381</ele>
        <time>1970-01-01T05:52:58Z</time>
      </trkpt>
      <trkpt lat="40.058514" lon="0.094647">
        <ele>14.348</ele>
        <time>1970-01-01T05:52:59Z</time>
      </trkpt>
      <trkpt lat="40.058513" lon="0.094571">
        <ele>14.369</ele>
        <time>1970-01-01T05:53:00Z</time>
      </trkpt>
      <trkpt lat="40.058511" lon="0.094499">
        <ele>14.372</ele>
        <time>1970-01-01T05:53:01Z</time>
      </trkpt>
      <trkpt lat="40.058506" lon="0.094426">
        <ele>14.472</ele>
        <time>1970-01-01T05:53:02Z</time>
      </trkpt>
      <trkpt lat="40.058501" lon="0.094356">
        <ele>14.898</ele>
        <time>1970-01-01T05:53:03Z</time>
      </trkpt>
      <trkpt lat="40.058497" lon="0.094285">
        <ele>15.372</ele>
        <time>1970-01-01T05:53:04Z</time>
      </trkpt>
      <trkpt lat="40.058492" lon="0.094216">
        <ele>15.883</ele>
        <time>1970-01-01T05:53:05Z</time>
      </trkpt>
      <trkpt lat="40.058489" lon="0.094152">
        <ele>16.254</ele>
        <time>1970-01-01T05:53:06Z</time>
      </trkpt>
      <trkpt lat="40.058488" lon="0.094089">
        <ele>16.756</ele>
        <time>1970-01-01T05:53:07Z</time>
      </trkpt>
      <trkpt lat="40.058489" lon="0.094027">
        <ele>17.111</ele>
        <time>1970-01-01T05:53:08Z</time>
      </trkpt>
      <trkpt lat="40.058488" lon="0.093963">
        <ele>17.608</ele>
        <time>1970-01-01T05:53:09Z</time>
      </trkpt>
      <trkpt lat="40.058491" lon="0.093902">
        <ele>18.022</ele>
        <time>1970-01-01T05:53:10Z</time>
      </trkpt>
      <trkpt lat="40.058491" lon="0.093849">
        <ele>18.219</ele>
        <time>1970-01-01T05:53:11Z</time>
      </trkpt>
      <trkpt lat="40.058488" lon="0.093797">
        <ele>18.380</ele>
        <time>1970-01-01T05:53:12Z</time>
      </trkpt>
      <trkpt lat="40.058484" lon="0.093744">
        <ele>18.383</ele>
        <time>1970-01-01T05:53:13Z</time>
      </trkpt>
      <trkpt lat="40.058475" lon="0.093692">
        <ele>18.433</ele>
        <time>1970-01-01T05:53:14Z</time>
      </trkpt>
      <trkpt lat="40.058467" lon="0.093640">
        <ele>18.449</ele>
        <time>1970-01-01T05:53:15Z</time>
      </trkpt>
      <trkpt lat="40.058461" lon="0.093591">
        <ele>18.563</ele>
        <time>1970-01-01T05:53:16Z</time>
      </trkpt>
      <trkpt lat="40.058450" lon="0.093545">
        <ele>18.574</ele>
        <time>1970-01-01T05:53:17Z</time>
      </trkpt>
      <trkpt lat="40.058441" lon="0.093498">
        <ele>18.572</ele>
        <time>1970-01-01T05:53:18Z</time>
      </trkpt>
      <trkpt lat="40.058428" lon="0.093452">
        <ele>18.513</ele>
        <time>1970-01-01T05:53:19Z</time>
      </trkpt>
      <trkpt lat="40.058413" lon="0.093403">
        <ele>18.514</ele>
        <time>1970-01-01T05:53:20Z</time>
      </trkpt>
      <trkpt lat="40.058397" lon="0.093356">
        <ele>18.408</ele>
        <time>1970-01-01T05:53:21Z</time>
      </trkpt>
      <trkpt lat="40.058379" lon="0.093308">
        <ele>18.644</ele>
        <time>1970-01-01T05:53:22Z</time>
      </trkpt>
      <trkpt lat="40.058359" lon="0.093260">
        <ele>19.051</ele>
        <time>1970-01-01T05:53:23Z</time>
      </trkpt>
      <trkpt lat="40.058337" lon="0.093213">
        <ele>19.392</ele>
        <time>1970-01-01T05:53:24Z</time>
      </trkpt>
      <trkpt lat="40.058316" lon="0.093169">
        <ele>19.665</ele>
        <time>1970-01-01T05:53:25Z</time>
      </trkpt>
      <trkpt lat="40.058292" lon="0.093124">
        <ele>19.985</ele>
        <time>1970-01-01T05:53:26Z</time>
      </trkpt>
      <trkpt lat="40.058267" lon="0.093085">
        <ele>20.081</ele>
        <time>1970-01-01T05:53:27Z</time>
      </trkpt>
      <trkpt lat="40.058239" lon="0.093048">
        <ele>20.175</ele>
        <time>1970-01-01T05:53:28Z</time>
      </trkpt>
      <trkpt lat="40.058210" lon="0.093009">
        <ele>20.396</ele>
        <time>1970-01-01T05:53:29Z</time>
      </trkpt>
      <trkpt lat="40.058179" lon="0.092971">
        <ele>20.674</ele>
        <time>1970-01-01T05:53:30Z</time>
      </trkpt>
      <trkpt lat="40.058149" lon="0.092935">
        <ele>20.756</ele>
        <time>1970-01-01T05:53:31Z</time>
      </trkpt>
      <trkpt lat="40.058115" lon="0.092902">
        <ele>20.921</ele>
        <time>1970-01-01T05:53:32Z</time>
      </trkpt>
      <trkpt lat="40.058082" lon="0.092869">
        <ele>21.008</ele>
        <time>1970-01-01T05:53:33Z</time>
      </trkpt>
      <trkpt lat="40.058047" lon="0.092838">
        <ele>21.174</ele>
        <time>1970-01-01T05:53:34Z</time>
      </trkpt>
      <trkpt lat="40.058014" lon="0.092811">
        <ele>21.471</ele>
        <time>1970-01-01T05:53:35Z</time>
      </trkpt>
      <trkpt lat="40.057979" lon="0.092787">
        <ele>21.632</ele>
        <time>1970-01-01T05:53:36Z</time>
      </trkpt>
      <trkpt lat="40.057943" lon="0.092767">
        <ele>21.915</ele>
        <time>1970-01-01T05:53:37Z</time>
      </trkpt>
      <trkpt lat="40.057907" lon="0.092750">
        <ele>22.275</ele>
        <time>1970-01-01T05:53:38Z</time>
      </trkpt>
      <trkpt lat="40.057874" lon="0.092730">
        <ele>22.621</ele>
        <time>1970-01-01T05:53:39Z</time>
      </trkpt>
      <trkpt lat="40.057844" lon="0.092705">
        <ele>23.165</ele>
        <time>1970-01-01T05:53:40Z</time>
      </trkpt>
      <trkpt lat="40.057813" lon="0.092684">
        <ele>23.576</ele>
        <time>1970-01-01T05:53:41Z</time>
      </trkpt>
      <trkpt lat="40.057782" lon="0.092665">
        <ele>23.996</ele>
        <time>1970-01-01T05:53:42Z</time>
      </trkpt>
      <trkpt lat="40.057751" lon="0.092650">
        <ele>24.331</ele>
        <time>1970-01-01T05:53:43Z</time>
      </trkpt>
      <trkpt lat="40.057717" lon="0.092640">
        <ele>24.624</ele>
        <time>1970-01-01T05:53:44Z</time>
      </trkpt>
      <trkpt lat="40.057684" lon="0.092625">
        <ele>25.008</ele>
        <time>1970-01-01T05:53:45Z</time>
      </trkpt>
      <trkpt lat="40.057652" lon="0.092607">
        <ele>25.426</ele>
        <time>1970-01-01T05:53:46Z</time>
      </trkpt>
      <trkpt lat="40.057620" lon="0.092588">
        <ele>25.813</ele>
        <time>1970-01-01T05:53:47Z</time>
      </trkpt>
      <trkpt lat="40.057588" lon="0.092569">
        <ele>26.194</ele>
        <time>1970-01-01T05:53:48Z</time>
      </trkpt>
      <trkpt lat="40.057557" lon="0.092551">
        <ele>26.497</ele>
        <time>1970-01-01T05:53:49Z</time>
      </trkpt>
      <trkpt lat="40.057525" lon="0.092534">
        <ele>26.657</ele>
        <time>1970-01-01T05:53:50Z</time>
      </trkpt>
      <trkpt lat="40.057495" lon="0.092512">
        <ele>26.973</ele>
        <time>1970-01-01T05:53:51Z</time>
      </trkpt>
      <trkpt lat="40.057464" lon="0.092488">
        <ele>27.867</ele>
        <time>1970-01-01T05:53:52Z</time>
      </trkpt>
      <trkpt lat="40.057434" lon="0.092462">
        <ele>28.738</ele>
        <time>1970-01-01T05:53:53Z</time>
      </trkpt>
      <trkpt lat="40.057409" lon="0.092426">
        <ele>29.699</ele>
        <time>1970-01-01T05:53:54Z</time>
      </trkpt>
      <trkpt lat="40.057382" lon="0.092390">
        <ele>30.307</ele>
        <time>1970-01-01T05:53:55Z</time>
      </trkpt>
      <trkpt lat="40.057354" lon="0.092350">
        <ele>30.927</ele>
        <time>1970-01-01T05:53:56Z</time>
      </trkpt>
      <trkpt lat="40.057325" lon="0.092305">
        <ele>31.308</ele>
        <time>1970-01-01T05:53:57Z</time>
      </trkpt>
      <trkpt lat="40.057295" lon="0.092265">
        <ele>31.526</ele>
        <time>1970-01-01T05:53:58Z</time>
      </trkpt>
      <trkpt lat="40.057267" lon="0.092217">
        <ele>31.593</ele>
        <time>1970-01-01T05:53:59Z</time>
      </trkpt>
      <trkpt lat="40.057239" lon="0.092167">
        <ele>31.214</ele>
        <time>1970-01-01T05:54:00Z</time>
      </trkpt>
      <trkpt lat="40.057216" lon="0.092106">
        <ele>30.887</ele>
        <time>1970-01-01T05:54:01Z</time>
      </trkpt>
      <trkpt lat="40.057198" lon="0.091960">
        <ele>30.277</ele>
        <time>1970-01-01T05:54:03Z</time>
      </trkpt>
      <trkpt lat="40.057197" lon="0.091881">
        <ele>29.793</ele>
        <time>1970-01-01T05:54:04Z</time>
      </trkpt>
      <trkpt lat="40.057202" lon="0.091794">
        <ele>29.137</ele>
        <time>1970-01-01T05:54:05Z</time>
      </trkpt>
      <trkpt lat="40.057212" lon="0.091705">
        <ele>28.968</ele>
        <time>1970-01-01T05:54:06Z</time>
      </trkpt>
      <trkpt lat="40.057217" lon="0.091612">
        <ele>28.625</ele>
        <time>1970-01-01T05:54:07Z</time>
      </trkpt>
      <trkpt lat="40.057219" lon="0.091518">
        <ele>28.326</ele>
        <time>1970-01-01T05:54:08Z</time>
      </trkpt>
      <trkpt lat="40.057220" lon="0.091430">
        <ele>28.108</ele>
        <time>1970-01-01T05:54:09Z</time>
      </trkpt>
      <trkpt lat="40.057219" lon="0.091344">
        <ele>28.008</ele>
        <time>1970-01-01T05:54:10Z</time>
      </trkpt>
      <trkpt lat="40.057206" lon="0.091257">
        <ele>27.949</ele>
        <time>1970-01-01T05:54:11Z</time>
      </trkpt>
      <trkpt lat="40.057186" lon="0.091174">
        <ele>27.576</ele>
        <time>1970-01-01T05:54:12Z</time>
      </trkpt>
      <trkpt lat="40.057162" lon="0.091099">
        <ele>27.237</ele>
        <time>1970-01-01T05:54:13Z</time>
      </trkpt>
      <trkpt lat="40.057132" lon="0.091029">
        <ele>27.170</ele>
        <time>1970-01-01T05:54:14Z</time>
      </trkpt>
      <trkpt lat="40.057095" lon="0.090962">
        <ele>26.780</ele>
        <time>1970-01-01T05:54:15Z</time>
      </trkpt>
      <trkpt lat="40.057052" lon="0.090904">
        <ele>26.216</ele>
        <time>1970-01-01T05:54:16Z</time>
      </trkpt>
      <trkpt lat="40.057005" lon="0.090851">
        <ele>25.570</ele>
        <time>1970-01-01T05:54:17Z</time>
      </trkpt>
      <trkpt lat="40.056952" lon="0.090805">
        <ele>24.711</ele>
        <time>1970-01-01T05:54:18Z</time>
      </trkpt>
      <trkpt lat="40.056892" lon="0.090761">
        <ele>23.686</ele>
        <time>1970-01-01T05:54:19Z</time>
      </trkpt>
      <trkpt lat="40.056832" lon="0.090725">
        <ele>22.360</ele>
        <time>1970-01-01T05:54:20Z</time>
      </trkpt>
      <trkpt lat="40.056770" lon="0.090688">
        <ele>21.026</ele>
        <time>1970-01-01T05:54:21Z</time>
      </trkpt>
      <trkpt lat="40.056712" lon="0.090661">
        <ele>19.608</ele>
        <time>1970-01-01T05:54:22Z</time>
      </trkpt>
      <trkpt lat="40.056658" lon="0.090638">
        <ele>18.375</ele>
        <time>1970-01-01T05:54:23Z</time>
      </trkpt>
      <trkpt lat="40.056603" lon="0.090617">
        <ele>17.362</ele>
        <time>1970-01-01T05:54:24Z</time>
      </trkpt>
      <trkpt lat="40.056546" lon="0.090598">
        <ele>16.383</ele>
        <time>1970-01-01T05:54:25Z</time>
      </trkpt>
      <trkpt lat="40.056490" lon="0.090580">
        <ele>15.256</ele>
        <time>1970-01-01T05:54:26Z</time>
      </trkpt>
      <trkpt lat="40.056435" lon="0.090560">
        <ele>14.126</ele>
        <time>1970-01-01T05:54:27Z</time>
      </trkpt>
      <trkpt lat="40.056380" lon="0.090534">
        <ele>13.152</ele>
        <time>1970-01-01T05:54:28Z</time>
      </trkpt>
      <trkpt lat="40.056325" lon="0.090500">
        <ele>12.466</ele>
        <time>1970-01-01T05:54:29Z</time>
      </trkpt>
      <trkpt lat="40.056271" lon="0.090459">
        <ele>11.617</ele>
        <time>1970-01-01T05:54:30Z</time>
      </trkpt>
      <trkpt lat="40.056221" lon="0.090404">
        <ele>11.018</ele>
        <time>1970-01-01T05:54:31Z</time>
      </trkpt>
      <trkpt lat="40.056181" lon="0.090332">
        <ele>10.598</ele>
        <time>1970-01-01T05:54:32Z</time>
      </trkpt>
      <trkpt lat="40.056155" lon="0.090250">
        <ele>10.317</ele>
        <time>1970-01-01T05:54:33Z</time>
      </trkpt>
      <trkpt lat="40.056146" lon="0.090157">
        <ele>10.908</ele>
        <time>1970-01-01T05:54:34Z</time>
      </trkpt>
      <trkpt lat="40.056149" lon="0.090058">
        <ele>11.868</ele>
        <time>1970-01-01T05:54:35Z</time>
      </trkpt>
      <trkpt lat="40.056159" lon="0.089957">
        <ele>12.795</ele>
        <time>1970-01-01T05:54:36Z</time>
      </trkpt>
      <trkpt lat="40.056170" lon="0.089850">
        <ele>13.366</ele>
        <time>1970-01-01T05:54:37Z</time>
      </trkpt>
      <trkpt lat="40.056182" lon="0.089743">
        <ele>14.099</ele>
        <time>1970-01-01T05:54:38Z</time>
      </trkpt>
      <trkpt lat="40.056194" lon="0.089635">
        <ele>14.259</ele>
        <time>1970-01-01T05:54:39Z</time>
      </trkpt>
      <trkpt lat="40.056209" lon="0.089526">
        <ele>14.475</ele>
        <time>1970-01-01T05:54:40Z</time>
      </trkpt>
      <trkpt lat="40.056224" lon="0.089416">
        <ele>14.579</ele>
        <time>1970-01-01T05:54:41Z</time>
      </trkpt>
      <trkpt lat="40.056240" lon="0.089305">
        <ele>14.410</ele>
        <time>1970-01-01T05:54:42Z</time>
      </trkpt>
      <trkpt lat="40.056260" lon="0.089192">
        <ele>14.414</ele>
        <time>1970-01-01T05:54:43Z</time>
      </trkpt>
      <trkpt lat="40.056286" lon="0.089080">
        <ele>14.354</ele>
        <time>1970-01-01T05:54:44Z</time>
      </trkpt>
      <trkpt lat="40.056320" lon="0.088968">
        <ele>14.209</ele>
        <time>1970-01-01T05:54:45Z</time>
      </trkpt>
      <trkpt lat="40.056365" lon="0.088859">
        <ele>14.108</ele>
        <time>1970-01-01T05:54:46Z</time>
      </trkpt>
      <trkpt lat="40.056414" lon="0.088751">
        <ele>14.138</ele>
        <time>1970-01-01T05:54:47Z</time>
      </trkpt>
      <trkpt lat="40.056466" lon="0.088640">
        <ele>14.085</ele>
        <time>1970-01-01T05:54:48Z</time>
      </trkpt>
      <trkpt lat="40.056517" lon="0.088526">
        <ele>13.576</ele>
        <time>1970-01-01T05:54:49Z</time>
      </trkpt>
      <trkpt lat="40.056569" lon="0.088412">
        <ele>13.089</ele>
        <time>1970-01-01T05:54:50Z</time>
      </trkpt>
      <trkpt lat="40.056621" lon="0.088298">
        <ele>12.479</ele>
        <time>1970-01-01T05:54:51Z</time>
      </trkpt>
      <trkpt lat="40.056672" lon="0.088183">
        <ele>11.455</ele>
        <time>1970-01-01T05:54:52Z</time>
      </trkpt>
      <trkpt lat="40.056718" lon="0.088067">
        <ele>10.779</ele>
        <time>1970-01-01T05:54:53Z</time>
      </trkpt>
      <trkpt lat="40.056761" lon="0.087950">
        <ele>11.520</ele>
        <time>1970-01-01T05:54:54Z</time>
      </trkpt>
      <trkpt lat="40.056800" lon="0.087833">
        <ele>11.737</ele>
        <time>1970-01-01T05:54:55Z</time>
      </trkpt>
      <trkpt lat="40.056838" lon="0.087719">
        <ele>11.349</ele>
        <time>1970-01-01T05:54:56Z</time>
      </trkpt>
      <trkpt lat="40.056875" lon="0.087606">
        <ele>10.513</ele>
        <time>1970-01-01T05:54:57Z</time>
      </trkpt>
      <trkpt lat="40.056911" lon="0.087493">
        <ele>9.708</ele>
        <time>1970-01-01T05:54:58Z</time>
      </trkpt>
      <trkpt lat="40.056947" lon="0.087383">
        <ele>9.210</ele>
        <time>1970-01-01T05:54:59Z</time>
      </trkpt>
      <trkpt lat="40.056983" lon="0.087275">
        <ele>8.727</ele>
        <time>1970-01-01T05:55:00Z</time>
      </trkpt>
      <trkpt lat="40.057020" lon="0.087170">
        <ele>8.088</ele>
        <time>1970-01-01T05:55:01Z</time>
      </trkpt>
      <trkpt lat="40.057057" lon="0.087067">
        <ele>7.471</ele>
        <time>1970-01-01T05:55:02Z</time>
      </trkpt>
      <trkpt lat="40.057092" lon="0.086964">
        <ele>6.841</ele>
        <time>1970-01-01T05:55:03Z</time>
      </trkpt>
      <trkpt lat="40.057128" lon="0.086863">
        <ele>6.497</ele>
        <time>1970-01-01T05:55:04Z</time>
      </trkpt>
      <trkpt lat="40.057162" lon="0.086763">
        <ele>6.041</ele>
        <time>1970-01-01T05:55:05Z</time>
      </trkpt>
      <trkpt lat="40.057197" lon="0.086665">
        <ele>5.772</ele>
        <time>1970-01-01T05:55:06Z</time>
      </trkpt>
      <trkpt lat="40.057232" lon="0.086569">
        <ele>6.139</ele>
        <time>1970-01-01T05:55:07Z</time>
      </trkpt>
      <trkpt lat="40.057267" lon="0.086474">
        <ele>6.301</ele>
        <time>1970-01-01T05:55:08Z</time>
      </trkpt>
      <trkpt lat="40.057302" lon="0.086382">
        <ele>6.621</ele>
        <time>1970-01-01T05:55:09Z</time>
      </trkpt>
      <trkpt lat="40.057335" lon="0.086290">
        <ele>6.808</ele>
        <time>1970-01-01T05:55:10Z</time>
      </trkpt>
      <trkpt lat="40.057371" lon="0.086199">
        <ele>7.190</ele>
        <time>1970-01-01T05:55:11Z</time>
      </trkpt>
      <trkpt lat="40.057404" lon="0.086109">
        <ele>7.327</ele>
        <time>1970-01-01T05:55:12Z</time>
      </trkpt>
      <trkpt lat="40.057436" lon="0.086021">
        <ele>7.398</ele>
        <time>1970-01-01T05:55:13Z</time>
      </trkpt>
      <trkpt lat="40.057468" lon="0.085935">
        <ele>7.271</ele>
        <time>1970-01-01T05:55:14Z</time>
      </trkpt>
      <trkpt lat="40.057501" lon="0.085851">
        <ele>7.181</ele>
        <time>1970-01-01T05:55:15Z</time>
      </trkpt>
      <trkpt lat="40.057531" lon="0.085769">
        <ele>6.747</ele>
        <time>1970-01-01T05:55:16Z</time>
      </trkpt>
      <trkpt lat="40.057562" lon="0.085688">
        <ele>6.361</ele>
        <time>1970-01-01T05:55:17Z</time>
      </trkpt>
      <trkpt lat="40.057595" lon="0.085608">
        <ele>6.072</ele>
        <time>1970-01-01T05:55:18Z</time>
      </trkpt>
      <trkpt lat="40.057625" lon="0.085529">
        <ele>5.963</ele>
        <time>1970-01-01T05:55:19Z</time>
      </trkpt>
      <trkpt lat="40.057653" lon="0.085456">
        <ele>5.944</ele>
        <time>1970-01-01T05:55:20Z</time>
      </trkpt>
      <trkpt lat="40.057680" lon="0.085399">
        <ele>5.918</ele>
        <time>1970-01-01T05:55:21Z</time>
      </trkpt>
      <trkpt lat="40.057710" lon="0.085356">
        <ele>6.008</ele>
        <time>1970-01-01T05:55:22Z</time>
      </trkpt>
      <trkpt lat="40.057739" lon="0.085336">
        <ele>6.063</ele>
        <time>1970-01-01T05:55:23Z</time>
      </trkpt>
      <trkpt lat="40.057767" lon="0.085327">
        <ele>6.120</ele>
        <time>1970-01-01T05:55:24Z</time>
      </trkpt>
      <trkpt lat="40.057794" lon="0.085330">
        <ele>6.211</ele>
        <time>1970-01-01T05:55:25Z</time>
      </trkpt>
      <trkpt lat="40.057816" lon="0.085344">
        <ele>6.474</ele>
        <time>1970-01-01T05:55:26Z</time>
      </trkpt>
      <trkpt lat="40.057831" lon="0.085365">
        <ele>6.544</ele>
        <time>1970-01-01T05:55:27Z</time>
      </trkpt>
      <trkpt lat="40.057840" lon="0.085387">
        <ele>6.630</ele>
        <time>1970-01-01T05:55:28Z</time>
      </trkpt>
      <trkpt lat="40.057843" lon="0.085412">
        <ele>6.744</ele>
        <time>1970-01-01T05:55:29Z</time>
      </trkpt>
      <trkpt lat="40.057847" lon="0.085435">
        <ele>6.825</ele>
        <time>1970-01-01T05:55:30Z</time>
      </trkpt>
      <trkpt lat="40.057850" lon="0.085462">
        <ele>6.938</ele>
        <time>1970-01-01T05:55:31Z</time>
      </trkpt>
      <trkpt lat="40.057861" lon="0.085470">
        <ele>7.070</ele>
        <time>1970-01-01T05:55:32Z</time>
      </trkpt>
      <trkpt lat="40.057871" lon="0.085458">
        <ele>7.017</ele>
        <time>1970-01-01T05:55:33Z</time>
      </trkpt>
      <trkpt lat="40.057884" lon="0.085433">
        <ele>6.908</ele>
        <time>1970-01-01T05:55:34Z</time>
      </trkpt>
      <trkpt lat="40.057896" lon="0.085403">
        <ele>6.970</ele>
        <time>1970-01-01T05:55:35Z</time>
      </trkpt>
      <trkpt lat="40.057910" lon="0.085376">
        <ele>6.817</ele>
        <time>1970-01-01T05:55:36Z</time>
      </trkpt>
      <trkpt lat="40.057924" lon="0.085352">
        <ele>6.888</ele>
        <time>1970-01-01T05:55:37Z</time>
      </trkpt>
      <trkpt lat="40.057935" lon="0.085327">
        <ele>6.741</ele>
        <time>1970-01-01T05:55:38Z</time>
      </trkpt>
      <trkpt lat="40.057949" lon="0.085299">
        <ele>6.731</ele>
        <time>1970-01-01T05:55:39Z</time>
      </trkpt>
      <trkpt lat="40.057961" lon="0.085264">
        <ele>6.787</ele>
        <time>1970-01-01T05:55:40Z</time>
      </trkpt>
      <trkpt lat="40.057982" lon="0.085226">
        <ele>6.721</ele>
        <time>1970-01-01T05:55:41Z</time>
      </trkpt>
      <trkpt lat="40.058002" lon="0.085183">
        <ele>6.842</ele>
        <time>1970-01-01T05:55:42Z</time>
      </trkpt>
      <trkpt lat="40.058022" lon="0.085133">
        <ele>6.946</ele>
        <time>1970-01-01T05:55:43Z</time>
      </trkpt>
      <trkpt lat="40.058039" lon="0.085080">
        <ele>6.988</ele>
        <time>1970-01-01T05:55:44Z</time>
      </trkpt>
      <trkpt lat="40.058054" lon="0.085024">
        <ele>7.016</ele>
        <time>1970-01-01T05:55:45Z</time>
      </trkpt>
      <trkpt lat="40.058060" lon="0.084969">
        <ele>7.308</ele>
        <time>1970-01-01T05:55:46Z</time>
      </trkpt>
      <trkpt lat="40.058056" lon="0.084912">
        <ele>7.651</ele>
        <time>1970-01-01T05:55:47Z</time>
      </trkpt>
      <trkpt lat="40.058046" lon="0.084857">
        <ele>8.038</ele>
        <time>1970-01-01T05:55:48Z</time>
      </trkpt>
      <trkpt lat="40.058039" lon="0.084798">
        <ele>8.439</ele>
        <time>1970-01-01T05:55:49Z</time>
      </trkpt>
      <trkpt lat="40.058044" lon="0.084738">
        <ele>8.872</ele>
        <time>1970-01-01T05:55:50Z</time>
      </trkpt>
      <trkpt lat="40.058059" lon="0.084680">
        <ele>9.072</ele>
        <time>1970-01-01T05:55:51Z</time>
      </trkpt>
      <trkpt lat="40.058080" lon="0.084623">
        <ele>9.148</ele>
        <time>1970-01-01T05:55:52Z</time>
      </trkpt>
      <trkpt lat="40.058104" lon="0.084567">
        <ele>9.282</ele>
        <time>1970-01-01T05:55:53Z</time>
      </trkpt>
      <trkpt lat="40.058128" lon="0.084511">
        <ele>9.313</ele>
        <time>1970-01-01T05:55:54Z</time>
      </trkpt>
      <trkpt lat="40.058151" lon="0.084456">
        <ele>9.324</ele>
        <time>1970-01-01T05:55:55Z</time>
      </trkpt>
      <trkpt lat="40.058175" lon="0.084401">
        <ele>9.404</ele>
        <time>1970-01-01T05:55:56Z</time>
      </trkpt>
      <trkpt lat="40.058196" lon="0.084347">
        <ele>9.514</ele>
        <time>1970-01-01T05:55:57Z</time>
      </trkpt>
      <trkpt lat="40.058218" lon="0.084290">
        <ele>9.608</ele>
        <time>1970-01-01T05:55:58Z</time>
      </trkpt>
      <trkpt lat="40.058239" lon="0.084234">
        <ele>9.729</ele>
        <time>1970-01-01T05:55:59Z</time>
      </trkpt>
      <trkpt lat="40.058261" lon="0.084178">
        <ele>9.716</ele>
        <time>1970-01-01T05:56:00Z</time>
      </trkpt>
      <trkpt lat="40.058281" lon="0.084122">
        <ele>9.897</ele>
        <time>1970-01-01T05:56:01Z</time>
      </trkpt>
      <trkpt lat="40.058303" lon="0.084067">
        <ele>9.950</ele>
        <time>1970-01-01T05:56:02Z</time>
      </trkpt>
      <trkpt lat="40.058327" lon="0.084013">
        <ele>10.050</ele>
        <time>1970-01-01T05:56:03Z</time>
      </trkpt>
      <trkpt lat="40.058352" lon="0.083961">
        <ele>10.136</ele>
        <time>1970-01-01T05:56:04Z</time>
      </trkpt>
      <trkpt lat="40.058376" lon="0.083906">
        <ele>10.330</ele>
        <time>1970-01-01T05:56:05Z</time>
      </trkpt>
      <trkpt lat="40.058399" lon="0.083851">
        <ele>10.751</ele>
        <time>1970-01-01T05:56:06Z</time>
      </trkpt>
      <trkpt lat="40.058421" lon="0.083798">
        <ele>11.245</ele>
        <time>1970-01-01T05:56:07Z</time>
      </trkpt>
      <trkpt lat="40.058439" lon="0.083746">
        <ele>11.647</ele>
        <time>1970-01-01T05:56:08Z</time>
      </trkpt>
      <trkpt lat="40.058456" lon="0.083692">
        <ele>12.011</ele>
        <time>1970-01-01T05:56:09Z</time>
      </trkpt>
      <trkpt lat="40.058475" lon="0.083640">
        <ele>12.408</ele>
        <time>1970-01-01T05:56:10Z</time>
      </trkpt>
      <trkpt lat="40.058494" lon="0.083586">
        <ele>12.651</ele>
        <time>1970-01-01T05:56:11Z</time>
      </trkpt>
      <trkpt lat="40.058514" lon="0.083531">
        <ele>12.788</ele>
        <time>1970-01-01T05:56:12Z</time>
      </trkpt>
      <trkpt lat="40.058536" lon="0.083479">
        <ele>12.739</ele>
        <time>1970-01-01T05:56:13Z</time>
      </trkpt>
      <trkpt lat="40.058558" lon="0.083426">
        <ele>12.842</ele>
        <time>1970-01-01T05:56:14Z</time>
      </trkpt>
      <trkpt lat="40.058582" lon="0.083371">
        <ele>12.962</ele>
        <time>1970-01-01T05:56:15Z</time>
      </trkpt>
      <trkpt lat="40.058604" lon="0.083315">
        <ele>12.978</ele>
        <time>1970-01-01T05:56:16Z</time>
      </trkpt>
      <trkpt lat="40.058624" lon="0.083258">
        <ele>12.722</ele>
        <time>1970-01-01T05:56:17Z</time>
      </trkpt>
      <trkpt lat="40.058647" lon="0.083202">
        <ele>12.533</ele>
        <time>1970-01-01T05:56:18Z</time>
      </trkpt>
      <trkpt lat="40.058672" lon="0.083146">
        <ele>12.349</ele>
        <time>1970-01-01T05:56:19Z</time>
      </trkpt>
      <trkpt lat="40.058696" lon="0.083090">
        <ele>12.102</ele>
        <time>1970-01-01T05:56:20Z</time>
      </trkpt>
      <trkpt lat="40.058719" lon="0.083035">
        <ele>12.022</ele>
        <time>1970-01-01T05:56:21Z</time>
      </trkpt>
      <trkpt lat="40.058741" lon="0.082976">
        <ele>11.808</ele>
        <time>1970-01-01T05:56:22Z</time>
      </trkpt>
      <trkpt lat="40.058764" lon="0.082919">
        <ele>11.881</ele>
        <time>1970-01-01T05:56:23Z</time>
      </trkpt>
      <trkpt lat="40.058788" lon="0.082863">
        <ele>11.738</ele>
        <time>1970-01-01T05:56:24Z</time>
      </trkpt>
      <trkpt lat="40.058811" lon="0.082806">
        <ele>11.749</ele>
        <time>1970-01-01T05:56:25Z</time>
      </trkpt>
      <trkpt lat="40.058835" lon="0.082749">
        <ele>11.752</ele>
        <time>1970-01-01T05:56:26Z</time>
      </trkpt>
      <trkpt lat="40.058858" lon="0.082691">
        <ele>11.692</ele>
        <time>1970-01-01T05:56:27Z</time>
      </trkpt>
      <trkpt lat="40.058880" lon="0.082632">
        <ele>11.568</ele>
        <time>1970-01-01T05:56:28Z</time>
      </trkpt>
      <trkpt lat="40.058901" lon="0.082571">
        <ele>11.372</ele>
        <time>1970-01-01T05:56:29Z</time>
      </trkpt>
      <trkpt lat="40.058922" lon="0.082510">
        <ele>11.233</ele>
        <time>1970-01-01T05:56:30Z</time>
      </trkpt>
      <trkpt lat="40.058944" lon="0.082448">
        <ele>11.284</ele>
        <time>1970-01-01T05:56:31Z</time>
      </trkpt>
      <trkpt lat="40.058965" lon="0.082387">
        <ele>11.307</ele>
        <time>1970-01-01T05:56:32Z</time>
      </trkpt>
      <trkpt lat="40.058988" lon="0.082325">
        <ele>11.417</ele>
        <time>1970-01-01T05:56:33Z</time>
      </trkpt>
      <trkpt lat="40.059012" lon="0.082263">
        <ele>11.408</ele>
        <time>1970-01-01T05:56:34Z</time>
      </trkpt>
      <trkpt lat="40.059035" lon="0.082201">
        <ele>11.685</ele>
        <time>1970-01-01T05:56:35Z</time>
      </trkpt>
      <trkpt lat="40.059058" lon="0.082139">
        <ele>11.812</ele>
        <time>1970-01-01T05:56:36Z</time>
      </trkpt>
      <trkpt lat="40.059080" lon="0.082075">
        <ele>12.173</ele>
        <time>1970-01-01T05:56:37Z</time>
      </trkpt>
      <trkpt lat="40.059102" lon="0.082012">
        <ele>12.396</ele>
        <time>1970-01-01T05:56:38Z</time>
      </trkpt>
      <trkpt lat="40.059124" lon="0.081948">
        <ele>12.766</ele>
        <time>1970-01-01T05:56:39Z</time>
      </trkpt>
      <trkpt lat="40.059146" lon="0.081884">
        <ele>13.132</ele>
        <time>1970-01-01T05:56:40Z</time>
      </trkpt>
      <trkpt lat="40.059167" lon="0.081820">
        <ele>13.546</ele>
        <time>1970-01-01T05:56:41Z</time>
      </trkpt>
      <trkpt lat="40.059188" lon="0.081755">
        <ele>13.997</ele>
        <time>1970-01-01T05:56:42Z</time>
      </trkpt>
      <trkpt lat="40.059209" lon="0.081690">
        <ele>14.428</ele>
        <time>1970-01-01T05:56:43Z</time>
      </trkpt>
      <trkpt lat="40.059230" lon="0.081624">
        <ele>14.789</ele>
        <time>1970-01-01T05:56:44Z</time>
      </trkpt>
      <trkpt lat="40.059251" lon="0.081557">
        <ele>14.917</ele>
        <time>1970-01-01T05:56:45Z</time>
      </trkpt>
      <trkpt lat="40.059271" lon="0.081490">
        <ele>15.108</ele>
        <time>1970-01-01T05:56:46Z</time>
      </trkpt>
      <trkpt lat="40.059292" lon="0.081422">
        <ele>15.449</ele>
        <time>1970-01-01T05:56:47Z</time>
      </trkpt>
      <trkpt lat="40.059312" lon="0.081353">
        <ele>15.476</ele>
        <time>1970-01-01T05:56:48Z</time>
      </trkpt>
      <trkpt lat="40.059332" lon="0.081284">
        <ele>15.227</ele>
        <time>1970-01-01T05:56:49Z</time>
      </trkpt>
      <trkpt lat="40.059351" lon="0.081215">
        <ele>14.970</ele>
        <time>1970-01-01T05:56:50Z</time>
      </trkpt>
      <trkpt lat="40.059368" lon="0.081144">
        <ele>14.780</ele>
        <time>1970-01-01T05:56:51Z</time>
      </trkpt>
      <trkpt lat="40.059387" lon="0.081070">
        <ele>14.316</ele>
        <time>1970-01-01T05:56:52Z</time>
      </trkpt>
      <trkpt lat="40.059407" lon="0.080992">
        <ele>13.940</ele>
        <time>1970-01-01T05:56:53Z</time>
      </trkpt>
      <trkpt lat="40.059427" lon="0.080910">
        <ele>13.551</ele>
        <time>1970-01-01T05:56:54Z</time>
      </trkpt>
      <trkpt lat="40.059448" lon="0.080823">
        <ele>13.081</ele>
        <time>1970-01-01T05:56:55Z</time>
      </trkpt>
      <trkpt lat="40.059466" lon="0.080727">
        <ele>12.761</ele>
        <time>1970-01-01T05:56:56Z</time>
      </trkpt>
      <trkpt lat="40.059483" lon="0.080627">
        <ele>12.317</ele>
        <time>1970-01-01T05:56:57Z</time>
      </trkpt>
      <trkpt lat="40.059501" lon="0.080526">
        <ele>12.008</ele>
        <time>1970-01-01T05:56:58Z</time>
      </trkpt>
      <trkpt lat="40.059521" lon="0.080426">
        <ele>12.035</ele>
        <time>1970-01-01T05:56:59Z</time>
      </trkpt>
      <trkpt lat="40.059539" lon="0.080327">
        <ele>12.062</ele>
        <time>1970-01-01T05:57:00Z</time>
      </trkpt>
      <trkpt lat="40.059557" lon="0.080230">
        <ele>12.093</ele>
        <time>1970-01-01T05:57:01Z</time>
      </trkpt>
      <trkpt lat="40.059575" lon="0.080134">
        <ele>12.066</ele>
        <time>1970-01-01T05:57:02Z</time>
      </trkpt>
      <trkpt lat="40.059593" lon="0.080040">
        <ele>12.016</ele>
        <time>1970-01-01T05:57:03Z</time>
      </trkpt>
      <trkpt lat="40.059610" lon="0.079947">
        <ele>12.022</ele>
        <time>1970-01-01T05:57:04Z</time>
      </trkpt>
      <trkpt lat="40.059627" lon="0.079856">
        <ele>12.026</ele>
        <time>1970-01-01T05:57:05Z</time>
      </trkpt>
      <trkpt lat="40.059642" lon="0.079766">
        <ele>12.067</ele>
        <time>1970-01-01T05:57:06Z</time>
      </trkpt>
      <trkpt lat="40.059657" lon="0.079679">
        <ele>12.054</ele>
        <time>1970-01-01T05:57:07Z</time>
      </trkpt>
      <trkpt lat="40.059670" lon="0.079592">
        <ele>11.956</ele>
        <time>1970-01-01T05:57:08Z</time>
      </trkpt>
      <trkpt lat="40.059681" lon="0.079504">
        <ele>11.911</ele>
        <time>1970-01-01T05:57:09Z</time>
      </trkpt>
      <trkpt lat="40.059697" lon="0.079419">
        <ele>11.908</ele>
        <time>1970-01-01T05:57:10Z</time>
      </trkpt>
      <trkpt lat="40.059719" lon="0.079338">
        <ele>12.032</ele>
        <time>1970-01-01T05:57:11Z</time>
      </trkpt>
      <trkpt lat="40.059744" lon="0.079259">
        <ele>12.179</ele>
        <time>1970-01-01T05:57:12Z</time>
      </trkpt>
      <trkpt lat="40.059764" lon="0.079179">
        <ele>12.250</ele>
        <time>1970-01-01T05:57:13Z</time>
      </trkpt>
      <trkpt lat="40.059779" lon="0.079098">
        <ele>12.283</ele>
        <time>1970-01-01T05:57:14Z</time>
      </trkpt>
      <trkpt lat="40.059789" lon="0.079019">
        <ele>12.183</ele>
        <time>1970-01-01T05:57:15Z</time>
      </trkpt>
      <trkpt lat="40.059797" lon="0.078941">
        <ele>12.199</ele>
        <time>1970-01-01T05:57:16Z</time>
      </trkpt>
      <trkpt lat="40.059805" lon="0.078864">
        <ele>11.933</ele>
        <time>1970-01-01T05:57:17Z</time>
      </trkpt>
      <trkpt lat="40.059810" lon="0.078788">
        <ele>11.614</ele>
        <time>1970-01-01T05:57:18Z</time>
      </trkpt>
      <trkpt lat="40.059817" lon="0.078711">
        <ele>11.459</ele>
        <time>1970-01-01T05:57:19Z</time>
      </trkpt>
      <trkpt lat="40.059824" lon="0.078634">
        <ele>11.103</ele>
        <time>1970-01-01T05:57:20Z</time>
      </trkpt>
      <trkpt lat="40.059831" lon="0.078556">
        <ele>11.023</ele>
        <time>1970-01-01T05:57:21Z</time>
      </trkpt>
      <trkpt lat="40.059837" lon="0.078479">
        <ele>11.008</ele>
        <time>1970-01-01T05:57:22Z</time>
      </trkpt>
      <trkpt lat="40.059843" lon="0.078401">
        <ele>11.022</ele>
        <time>1970-01-01T05:57:23Z</time>
      </trkpt>
      <trkpt lat="40.059848" lon="0.078323">
        <ele>11.029</ele>
        <time>1970-01-01T05:57:24Z</time>
      </trkpt>
      <trkpt lat="40.059855" lon="0.078245">
        <ele>11.070</ele>
        <time>1970-01-01T05:57:25Z</time>
      </trkpt>
      <trkpt lat="40.059860" lon="0.078167">
        <ele>11.073</ele>
        <time>1970-01-01T05:57:26Z</time>
      </trkpt>
      <trkpt lat="40.059866" lon="0.078088">
        <ele>11.083</ele>
        <time>1970-01-01T05:57:27Z</time>
      </trkpt>
      <trkpt lat="40.059870" lon="0.078009">
        <ele>10.879</ele>
        <time>1970-01-01T05:57:28Z</time>
      </trkpt>
      <trkpt lat="40.059875" lon="0.077928">
        <ele>10.533</ele>
        <time>1970-01-01T05:57:29Z</time>
      </trkpt>
      <trkpt lat="40.059879" lon="0.077846">
        <ele>10.234</ele>
        <time>1970-01-01T05:57:30Z</time>
      </trkpt>
      <trkpt lat="40.059882" lon="0.077763">
        <ele>10.075</ele>
        <time>1970-01-01T05:57:31Z</time>
      </trkpt>
      <trkpt lat="40.059887" lon="0.077679">
        <ele>10.028</ele>
        <time>1970-01-01T05:57:32Z</time>
      </trkpt>
      <trkpt lat="40.059891" lon="0.077595">
        <ele>10.020</ele>
        <time>1970-01-01T05:57:33Z</time>
      </trkpt>
      <trkpt lat="40.059895" lon="0.077510">
        <ele>10.008</ele>
        <time>1970-01-01T05:57:34Z</time>
      </trkpt>
      <trkpt lat="40.059898" lon="0.077426">
        <ele>10.214</ele>
        <time>1970-01-01T05:57:35Z</time>
      </trkpt>
      <trkpt lat="40.059901" lon="0.077341">
        <ele>10.481</ele>
        <time>1970-01-01T05:57:36Z</time>
      </trkpt>
      <trkpt lat="40.059900" lon="0.077256">
        <ele>10.682</ele>
        <time>1970-01-01T05:57:37Z</time>
      </trkpt>
      <trkpt lat="40.059900" lon="0.077170">
        <ele>11.085</ele>
        <time>1970-01-01T05:57:38Z</time>
      </trkpt>
      <trkpt lat="40.059899" lon="0.077082">
        <ele>11.625</ele>
        <time>1970-01-01T05:57:39Z</time>
      </trkpt>
      <trkpt lat="40.059897" lon="0.076993">
        <ele>12.341</ele>
        <time>1970-01-01T05:57:40Z</time>
      </trkpt>
      <trkpt lat="40.059894" lon="0.076903">
        <ele>12.925</ele>
        <time>1970-01-01T05:57:41Z</time>
      </trkpt>
      <trkpt lat="40.059892" lon="0.076812">
        <ele>13.626</ele>
        <time>1970-01-01T05:57:42Z</time>
      </trkpt>
      <trkpt lat="40.059890" lon="0.076721">
        <ele>14.254</ele>
        <time>1970-01-01T05:57:43Z</time>
      </trkpt>
      <trkpt lat="40.059888" lon="0.076629">
        <ele>14.756</ele>
        <time>1970-01-01T05:57:44Z</time>
      </trkpt>
      <trkpt lat="40.059885" lon="0.076537">
        <ele>15.111</ele>
        <time>1970-01-01T05:57:45Z</time>
      </trkpt>
      <trkpt lat="40.059882" lon="0.076447">
        <ele>15.408</ele>
        <time>1970-01-01T05:57:46Z</time>
      </trkpt>
      <trkpt lat="40.059877" lon="0.076359">
        <ele>15.612</ele>
        <time>1970-01-01T05:57:47Z</time>
      </trkpt>
      <trkpt lat="40.059870" lon="0.076273">
        <ele>15.879</ele>
        <time>1970-01-01T05:57:48Z</time>
      </trkpt>
      <trkpt lat="40.059863" lon="0.076188">
        <ele>15.930</ele>
        <time>1970-01-01T05:57:49Z</time>
      </trkpt>
      <trkpt lat="40.059856" lon="0.076104">
        <ele>16.053</ele>
        <time>1970-01-01T05:57:50Z</time>
      </trkpt>
      <trkpt lat="40.059848" lon="0.076020">
        <ele>16.163</ele>
        <time>1970-01-01T05:57:51Z</time>
      </trkpt>
      <trkpt lat="40.059840" lon="0.075939">
        <ele>16.299</ele>
        <time>1970-01-01T05:57:52Z</time>
      </trkpt>
      <trkpt lat="40.059833" lon="0.075859">
        <ele>16.363</ele>
        <time>1970-01-01T05:57:53Z</time>
      </trkpt>
      <trkpt lat="40.059827" lon="0.075780">
        <ele>16.594</ele>
        <time>1970-01-01T05:57:54Z</time>
      </trkpt>
      <trkpt lat="40.059821" lon="0.075702">
        <ele>16.781</ele>
        <time>1970-01-01T05:57:55Z</time>
      </trkpt>
      <trkpt lat="40.059814" lon="0.075627">
        <ele>16.861</ele>
        <time>1970-01-01T05:57:56Z</time>
      </trkpt>
      <trkpt lat="40.059806" lon="0.075552">
        <ele>17.017</ele>
        <time>1970-01-01T05:57:57Z</time>
      </trkpt>
      <trkpt lat="40.059797" lon="0.075475">
        <ele>16.908</ele>
        <time>1970-01-01T05:57:58Z</time>
      </trkpt>
      <trkpt lat="40.059783" lon="0.075397">
        <ele>16.995</ele>
        <time>1970-01-01T05:57:59Z</time>
      </trkpt>
      <trkpt lat="40.059760" lon="0.075316">
        <ele>16.962</ele>
        <time>1970-01-01T05:58:00Z</time>
      </trkpt>
      <trkpt lat="40.059735" lon="0.075232">
        <ele>16.843</ele>
        <time>1970-01-01T05:58:01Z</time>
      </trkpt>
      <trkpt lat="40.059715" lon="0.075144">
        <ele>16.596</ele>
        <time>1970-01-01T05:58:02Z</time>
      </trkpt>
      <trkpt lat="40.059703" lon="0.075054">
        <ele>16.286</ele>
        <time>1970-01-01T05:58:03Z</time>
      </trkpt>
      <trkpt lat="40.059694" lon="0.074964">
        <ele>16.122</ele>
        <time>1970-01-01T05:58:04Z</time>
      </trkpt>
      <trkpt lat="40.059686" lon="0.074872">
        <ele>16.126</ele>
        <time>1970-01-01T05:58:05Z</time>
      </trkpt>
      <trkpt lat="40.059678" lon="0.074780">
        <ele>16.247</ele>
        <time>1970-01-01T05:58:06Z</time>
      </trkpt>
      <trkpt lat="40.059666" lon="0.074690">
        <ele>16.289</ele>
        <time>1970-01-01T05:58:07Z</time>
      </trkpt>
      <trkpt lat="40.059647" lon="0.074601">
        <ele>16.306</ele>
        <time>1970-01-01T05:58:08Z</time>
      </trkpt>
      <trkpt lat="40.059615" lon="0.074518">
        <ele>16.426</ele>
        <time>1970-01-01T05:58:09Z</time>
      </trkpt>
      <trkpt lat="40.059571" lon="0.074445">
        <ele>16.508</ele>
        <time>1970-01-01T05:58:10Z</time>
      </trkpt>
      <trkpt lat="40.059522" lon="0.074378">
        <ele>16.425</ele>
        <time>1970-01-01T05:58:11Z</time>
      </trkpt>
      <trkpt lat="40.059470" lon="0.074315">
        <ele>16.192</ele>
        <time>1970-01-01T05:58:12Z</time>
      </trkpt>
      <trkpt lat="40.059419" lon="0.074249">
        <ele>15.693</ele>
        <time>1970-01-01T05:58:13Z</time>
      </trkpt>
      <trkpt lat="40.059372" lon="0.074176">
        <ele>15.176</ele>
        <time>1970-01-01T05:58:14Z</time>
      </trkpt>
      <trkpt lat="40.059337" lon="0.074095">
        <ele>14.676</ele>
        <time>1970-01-01T05:58:15Z</time>
      </trkpt>
      <trkpt lat="40.059320" lon="0.074008">
        <ele>14.292</ele>
        <time>1970-01-01T05:58:16Z</time>
      </trkpt>
      <trkpt lat="40.059323" lon="0.073917">
        <ele>13.766</ele>
        <time>1970-01-01T05:58:17Z</time>
      </trkpt>
      <trkpt lat="40.059344" lon="0.073830">
        <ele>13.797</ele>
        <time>1970-01-01T05:58:18Z</time>
      </trkpt>
      <trkpt lat="40.059373" lon="0.073747">
        <ele>13.955</ele>
        <time>1970-01-01T05:58:19Z</time>
      </trkpt>
      <trkpt lat="40.059399" lon="0.073665">
        <ele>14.007</ele>
        <time>1970-01-01T05:58:20Z</time>
      </trkpt>
      <trkpt lat="40.059413" lon="0.073580">
        <ele>14.117</ele>
        <time>1970-01-01T05:58:21Z</time>
      </trkpt>
      <trkpt lat="40.059417" lon="0.073497">
        <ele>14.408</ele>
        <time>1970-01-01T05:58:22Z</time>
      </trkpt>
      <trkpt lat="40.059411" lon="0.073422">
        <ele>14.672</ele>
        <time>1970-01-01T05:58:23Z</time>
      </trkpt>
      <trkpt lat="40.059400" lon="0.073356">
        <ele>14.849</ele>
        <time>1970-01-01T05:58:24Z</time>
      </trkpt>
      <trkpt lat="40.059383" lon="0.073295">
        <ele>14.930</ele>
        <time>1970-01-01T05:58:25Z</time>
      </trkpt>
      <trkpt lat="40.059363" lon="0.073233">
        <ele>15.183</ele>
        <time>1970-01-01T05:58:26Z</time>
      </trkpt>
      <trkpt lat="40.059341" lon="0.073171">
        <ele>15.263</ele>
        <time>1970-01-01T05:58:27Z</time>
      </trkpt>
      <trkpt lat="40.059318" lon="0.073106">
        <ele>15.439</ele>
        <time>1970-01-01T05:58:28Z</time>
      </trkpt>
      <trkpt lat="40.059296" lon="0.073037">
        <ele>15.583</ele>
        <time>1970-01-01T05:58:29Z</time>
      </trkpt>
      <trkpt lat="40.059276" lon="0.072966">
        <ele>15.434</ele>
        <time>1970-01-01T05:58:30Z</time>
      </trkpt>
      <trkpt lat="40.059255" lon="0.072893">
        <ele>15.339</ele>
        <time>1970-01-01T05:58:31Z</time>
      </trkpt>
      <trkpt lat="40.059234" lon="0.072819">
        <ele>15.201</ele>
        <time>1970-01-01T05:58:32Z</time>
      </trkpt>
      <trkpt lat="40.059213" lon="0.072746">
        <ele>15.321</ele>
        <time>1970-01-01T05:58:33Z</time>
      </trkpt>
      <trkpt lat="40.059191" lon="0.072672">
        <ele>15.408</ele>
        <time>1970-01-01T05:58:34Z</time>
      </trkpt>
      <trkpt lat="40.059169" lon="0.072598">
        <ele>15.760</ele>
        <time>1970-01-01T05:58:35Z</time>
      </trkpt>
      <trkpt lat="40.059145" lon="0.072524">
        <ele>16.197</ele>
        <time>1970-01-01T05:58:36Z</time>
      </trkpt>
      <trkpt lat="40.059122" lon="0.072450">
        <ele>16.398</ele>
        <time>1970-01-01T05:58:37Z</time>
      </trkpt>
      <trkpt lat="40.059097" lon="0.072375">
        <ele>16.571</ele>
        <time>1970-01-01T05:58:38Z</time>
      </trkpt>
      <trkpt lat="40.059071" lon="0.072298">
        <ele>16.771</ele>
        <time>1970-01-01T05:58:39Z</time>
      </trkpt>
      <trkpt lat="40.059044" lon="0.072219">
        <ele>16.957</ele>
        <time>1970-01-01T05:58:40Z</time>
      </trkpt>
      <trkpt lat="40.059015" lon="0.072141">
        <ele>16.861</ele>
        <time>1970-01-01T05:58:41Z</time>
      </trkpt>
      <trkpt lat="40.058985" lon="0.072063">
        <ele>16.712</ele>
        <time>1970-01-01T05:58:42Z</time>
      </trkpt>
      <trkpt lat="40.058954" lon="0.071985">
        <ele>16.753</ele>
        <time>1970-01-01T05:58:43Z</time>
      </trkpt>
      <trkpt lat="40.058923" lon="0.071908">
        <ele>16.704</ele>
        <time>1970-01-01T05:58:44Z</time>
      </trkpt>
      <trkpt lat="40.058892" lon="0.071833">
        <ele>16.614</ele>
        <time>1970-01-01T05:58:45Z</time>
      </trkpt>
      <trkpt lat="40.058859" lon="0.071756">
        <ele>16.508</ele>
        <time>1970-01-01T05:58:46Z</time>
      </trkpt>
      <trkpt lat="40.058824" lon="0.071681">
        <ele>16.352</ele>
        <time>1970-01-01T05:58:47Z</time>
      </trkpt>
      <trkpt lat="40.058792" lon="0.071605">
        <ele>16.329</ele>
        <time>1970-01-01T05:58:48Z</time>
      </trkpt>
      <trkpt lat="40.058759" lon="0.071529">
        <ele>16.230</ele>
        <time>1970-01-01T05:58:49Z</time>
      </trkpt>
      <trkpt lat="40.058728" lon="0.071453">
        <ele>16.143</ele>
        <time>1970-01-01T05:58:50Z</time>
      </trkpt>
      <trkpt lat="40.058696" lon="0.071378">
        <ele>16.033</ele>
        <time>1970-01-01T05:58:51Z</time>
      </trkpt>
      <trkpt lat="40.058662" lon="0.071304">
        <ele>16.149</ele>
        <time>1970-01-01T05:58:52Z</time>
      </trkpt>
      <trkpt lat="40.058629" lon="0.071228">
        <ele>16.043</ele>
        <time>1970-01-01T05:58:53Z</time>
      </trkpt>
      <trkpt lat="40.058594" lon="0.071153">
        <ele>15.974</ele>
        <time>1970-01-01T05:58:54Z</time>
      </trkpt>
      <trkpt lat="40.058557" lon="0.071077">
        <ele>15.913</ele>
        <time>1970-01-01T05:58:55Z</time>
      </trkpt>
      <trkpt lat="40.058511" lon="0.071003">
        <ele>15.943</ele>
        <time>1970-01-01T05:58:56Z</time>
      </trkpt>
      <trkpt lat="40.058458" lon="0.070930">
        <ele>15.707</ele>
        <time>1970-01-01T05:58:57Z</time>
      </trkpt>
      <trkpt lat="40.058405" lon="0.070852">
        <ele>15.508</ele>
        <time>1970-01-01T05:58:58Z</time>
      </trkpt>
      <trkpt lat="40.058355" lon="0.070771">
        <ele>15.468</ele>
        <time>1970-01-01T05:58:59Z</time>
      </trkpt>
      <trkpt lat="40.058305" lon="0.070686">
        <ele>15.325</ele>
        <time>1970-01-01T05:59:00Z</time>
      </trkpt>
      <trkpt lat="40.058256" lon="0.070597">
        <ele>15.316</ele>
        <time>1970-01-01T05:59:01Z</time>
      </trkpt>
      <trkpt lat="40.058208" lon="0.070507">
        <ele>15.369</ele>
        <time>1970-01-01T05:59:02Z</time>
      </trkpt>
      <trkpt lat="40.058156" lon="0.070416">
        <ele>15.279</ele>
        <time>1970-01-01T05:59:03Z</time>
      </trkpt>
      <trkpt lat="40.058103" lon="0.070325">
        <ele>15.265</ele>
        <time>1970-01-01T05:59:04Z</time>
      </trkpt>
      <trkpt lat="40.058049" lon="0.070235">
        <ele>15.179</ele>
        <time>1970-01-01T05:59:05Z</time>
      </trkpt>
      <trkpt lat="40.057993" lon="0.070148">
        <ele>14.890</ele>
        <time>1970-01-01T05:59:06Z</time>
      </trkpt>
      <trkpt lat="40.057934" lon="0.070063">
        <ele>14.564</ele>
        <time>1970-01-01T05:59:07Z</time>
      </trkpt>
      <trkpt lat="40.057873" lon="0.069981">
        <ele>14.106</ele>
        <time>1970-01-01T05:59:08Z</time>
      </trkpt>
      <trkpt lat="40.057815" lon="0.069896">
        <ele>13.716</ele>
        <time>1970-01-01T05:59:09Z</time>
      </trkpt>
      <trkpt lat="40.057759" lon="0.069812">
        <ele>13.508</ele>
        <time>1970-01-01T05:59:10Z</time>
      </trkpt>
      <trkpt lat="40.057703" lon="0.069731">
        <ele>13.433</ele>
        <time>1970-01-01T05:59:11Z</time>
      </trkpt>
      <trkpt lat="40.057647" lon="0.069650">
        <ele>13.490</ele>
        <time>1970-01-01T05:59:12Z</time>
      </trkpt>
      <trkpt lat="40.057593" lon="0.069569">
        <ele>13.651</ele>
        <time>1970-01-01T05:59:13Z</time>
      </trkpt>
      <trkpt lat="40.057538" lon="0.069489">
        <ele>13.844</ele>
        <time>1970-01-01T05:59:14Z</time>
      </trkpt>
      <trkpt lat="40.057483" lon="0.069412">
        <ele>13.954</ele>
        <time>1970-01-01T05:59:15Z</time>
      </trkpt>
      <trkpt lat="40.057429" lon="0.069336">
        <ele>13.870</ele>
        <time>1970-01-01T05:59:16Z</time>
      </trkpt>
      <trkpt lat="40.057375" lon="0.069260">
        <ele>13.824</ele>
        <time>1970-01-01T05:59:17Z</time>
      </trkpt>
      <trkpt lat="40.057322" lon="0.069186">
        <ele>14.095</ele>
        <time>1970-01-01T05:59:18Z</time>
      </trkpt>
      <trkpt lat="40.057269" lon="0.069113">
        <ele>14.059</ele>
        <time>1970-01-01T05:59:19Z</time>
      </trkpt>
      <trkpt lat="40.057216" lon="0.069041">
        <ele>14.003</ele>
        <time>1970-01-01T05:59:20Z</time>
      </trkpt>
      <trkpt lat="40.057165" lon="0.068968">
        <ele>13.723</ele>
        <time>1970-01-01T05:59:21Z</time>
      </trkpt>
      <trkpt lat="40.057114" lon="0.068897">
        <ele>13.608</ele>
        <time>1970-01-01T05:59:22Z</time>
      </trkpt>
      <trkpt lat="40.057062" lon="0.068830">
        <ele>13.212</ele>
        <time>1970-01-01T05:59:23Z</time>
      </trkpt>
      <trkpt lat="40.057009" lon="0.068766">
        <ele>12.829</ele>
        <time>1970-01-01T05:59:24Z</time>
      </trkpt>
      <trkpt lat="40.056956" lon="0.068705">
        <ele>12.450</ele>
        <time>1970-01-01T05:59:25Z</time>
      </trkpt>
      <trkpt lat="40.056901" lon="0.068650">
        <ele>12.133</ele>
        <time>1970-01-01T05:59:26Z</time>
      </trkpt>
      <trkpt lat="40.056846" lon="0.068602">
        <ele>12.083</ele>
        <time>1970-01-01T05:59:27Z</time>
      </trkpt>
      <trkpt lat="40.056793" lon="0.068554">
        <ele>11.979</ele>
        <time>1970-01-01T05:59:28Z</time>
      </trkpt>
      <trkpt lat="40.056745" lon="0.068504">
        <ele>11.933</ele>
        <time>1970-01-01T05:59:29Z</time>
      </trkpt>
      <trkpt lat="40.056700" lon="0.068453">
        <ele>11.984</ele>
        <time>1970-01-01T05:59:30Z</time>
      </trkpt>
      <trkpt lat="40.056658" lon="0.068405">
        <ele>12.018</ele>
        <time>1970-01-01T05:59:31Z</time>
      </trkpt>
      <trkpt lat="40.056617" lon="0.068360">
        <ele>12.098</ele>
        <time>1970-01-01T05:59:32Z</time>
      </trkpt>
      <trkpt lat="40.056577" lon="0.068318">
        <ele>12.017</ele>
        <time>1970-01-01T05:59:33Z</time>
      </trkpt>
      <trkpt lat="40.056542" lon="0.068272">
        <ele>12.108</ele>
        <time>1970-01-01T05:59:34Z</time>
      </trkpt>
      <trkpt lat="40.056508" lon="0.068221">
        <ele>12.238</ele>
        <time>1970-01-01T05:59:35Z</time>
      </trkpt>
      <trkpt lat="40.056474" lon="0.068171">
        <ele>12.455</ele>
        <time>1970-01-01T05:59:36Z</time>
      </trkpt>
      <trkpt lat="40.056437" lon="0.068126">
        <ele>12.626</ele>
        <time>1970-01-01T05:59:37Z</time>
      </trkpt>
      <trkpt lat="40.056398" lon="0.068081">
        <ele>12.929</ele>
        <time>1970-01-01T05:59:38Z</time>
      </trkpt>
      <trkpt lat="40.056361" lon="0.068035">
        <ele>12.939</ele>
        <time>1970-01-01T05:59:39Z</time>
      </trkpt>
      <trkpt lat="40.056324" lon="0.067989">
        <ele>12.855</ele>
        <time>1970-01-01T05:59:40Z</time>
      </trkpt>
      <trkpt lat="40.056287" lon="0.067941">
        <ele>12.689</ele>
        <time>1970-01-01T05:59:41Z</time>
      </trkpt>
      <trkpt lat="40.056250" lon="0.067892">
        <ele>12.540</ele>
        <time>1970-01-01T05:59:42Z</time>
      </trkpt>
      <trkpt lat="40.056216" lon="0.067840">
        <ele>12.481</ele>
        <time>1970-01-01T05:59:43Z</time>
      </trkpt>
      <trkpt lat="40.056184" lon="0.067795">
        <ele>12.361</ele>
        <time>1970-01-01T05:59:44Z</time>
      </trkpt>
      <trkpt lat="40.056149" lon="0.067753">
        <ele>12.117</ele>
        <time>1970-01-01T05:59:45Z</time>
      </trkpt>
      <trkpt lat="40.056115" lon="0.067714">
        <ele>12.008</ele>
        <time>1970-01-01T05:59:46Z</time>
      </trkpt>
      <trkpt lat="40.056081" lon="0.067671">
        <ele>11.955</ele>
        <time>1970-01-01T05:59:47Z</time>
      </trkpt>
      <trkpt lat="40.056044" lon="0.067625">
        <ele>11.832</ele>
        <time>1970-01-01T05:59:48Z</time>
      </trkpt>
      <trkpt lat="40.056006" lon="0.067581">
        <ele>11.623</ele>
        <time>1970-01-01T05:59:49Z</time>
      </trkpt>
      <trkpt lat="40.055969" lon="0.067535">
        <ele>11.566</ele>
        <time>1970-01-01T05:59:50Z</time>
      </trkpt>
      <trkpt lat="40.055933" lon="0.067488">
        <ele>11.456</ele>
        <time>1970-01-01T05:59:51Z</time>
      </trkpt>
      <trkpt lat="40.055897" lon="0.067442">
        <ele>11.412</ele>
        <time>1970-01-01T05:59:52Z</time>
      </trkpt>
      <trkpt lat="40.055861" lon="0.067397">
        <ele>11.566</ele>
        <time>1970-01-01T05:59:53Z</time>
      </trkpt>
      <trkpt lat="40.055824" lon="0.067352">
        <ele>11.537</ele>
        <time>1970-01-01T05:59:54Z</time>
      </trkpt>
      <trkpt lat="40.055786" lon="0.067305">
        <ele>11.827</ele>
        <time>1970-01-01T05:59:55Z</time>
      </trkpt>
      <trkpt lat="40.055746" lon="0.067263">
        <ele>11.968</ele>
        <time>1970-01-01T05:59:56Z</time>
      </trkpt>
      <trkpt lat="40.055706" lon="0.067218">
        <ele>12.014</ele>
        <time>1970-01-01T05:59:57Z</time>
      </trkpt>
      <trkpt lat="40.055665" lon="0.067168">
        <ele>12.208</ele>
        <time>1970-01-01T05:59:58Z</time>
      </trkpt>
      <trkpt lat="40.055625" lon="0.067118">
        <ele>12.459</ele>
        <time>1970-01-01T05:59:59Z</time>
      </trkpt>
      <trkpt lat="40.055582" lon="0.067072">
        <ele>12.546</ele>
        <time>1970-01-01T06:00:00Z</time>
      </trkpt>
      <trkpt lat="40.055539" lon="0.067028">
        <ele>12.797</ele>
        <time>1970-01-01T06:00:01Z</time>
      </trkpt>
      <trkpt lat="40.055496" lon="0.066984">
        <ele>12.910</ele>
        <time>1970-01-01T06:00:02Z</time>
      </trkpt>
      <trkpt lat="40.055456" lon="0.066936">
        <ele>13.020</ele>
        <time>1970-01-01T06:00:03Z</time>
      </trkpt>
      <trkpt lat="40.055417" lon="0.066889">
        <ele>13.226</ele>
        <time>1970-01-01T06:00:04Z</time>
      </trkpt>
      <trkpt lat="40.055377" lon="0.066838">
        <ele>13.440</ele>
        <time>1970-01-01T06:00:05Z</time>
      </trkpt>
      <trkpt lat="40.055335" lon="0.066790">
        <ele>13.631</ele>
        <time>1970-01-01T06:00:06Z</time>
      </trkpt>
      <trkpt lat="40.055291" lon="0.066738">
        <ele>13.791</ele>
        <time>1970-01-01T06:00:07Z</time>
      </trkpt>
      <trkpt lat="40.055248" lon="0.066687">
        <ele>13.881</ele>
        <time>1970-01-01T06:00:08Z</time>
      </trkpt>
      <trkpt lat="40.055205" lon="0.066638">
        <ele>13.719</ele>
        <time>1970-01-01T06:00:09Z</time>
      </trkpt>
      <trkpt lat="40.055164" lon="0.066593">
        <ele>13.608</ele>
        <time>1970-01-01T06:00:10Z</time>
      </trkpt>
      <trkpt lat="40.055121" lon="0.066548">
        <ele>13.496</ele>
        <time>1970-01-01T06:00:11Z</time>
      </trkpt>
      <trkpt lat="40.055079" lon="0.066503">
        <ele>13.333</ele>
        <time>1970-01-01T06:00:12Z</time>
      </trkpt>
      <trkpt lat="40.055039" lon="0.066458">
        <ele>13.194</ele>
        <time>1970-01-01T06:00:13Z</time>
      </trkpt>
      <trkpt lat="40.054998" lon="0.066412">
        <ele>13.097</ele>
        <time>1970-01-01T06:00:14Z</time>
      </trkpt>
      <trkpt lat="40.054957" lon="0.066367">
        <ele>13.177</ele>
        <time>1970-01-01T06:00:15Z</time>
      </trkpt>
      <trkpt lat="40.054916" lon="0.066324">
        <ele>13.233</ele>
        <time>1970-01-01T06:00:16Z</time>
      </trkpt>
      <trkpt lat="40.054874" lon="0.066281">
        <ele>13.327</ele>
        <time>1970-01-01T06:00:17Z</time>
      </trkpt>
      <trkpt lat="40.054832" lon="0.066238">
        <ele>13.368</ele>
        <time>1970-01-01T06:00:18Z</time>
      </trkpt>
      <trkpt lat="40.054792" lon="0.066193">
        <ele>13.299</ele>
        <time>1970-01-01T06:00:19Z</time>
      </trkpt>
      <trkpt lat="40.054752" lon="0.066148">
        <ele>13.107</ele>
        <time>1970-01-01T06:00:20Z</time>
      </trkpt>
      <trkpt lat="40.054711" lon="0.066104">
        <ele>13.127</ele>
        <time>1970-01-01T06:00:21Z</time>
      </trkpt>
      <trkpt lat="40.054669" lon="0.066060">
        <ele>13.308</ele>
        <time>1970-01-01T06:00:22Z</time>
      </trkpt>
      <trkpt lat="40.054629" lon="0.066016">
        <ele>13.686</ele>
        <time>1970-01-01T06:00:23Z</time>
      </trkpt>
      <trkpt lat="40.054591" lon="0.065970">
        <ele>13.713</ele>
        <time>1970-01-01T06:00:24Z</time>
      </trkpt>
      <trkpt lat="40.054553" lon="0.065922">
        <ele>13.894</ele>
        <time>1970-01-01T06:00:25Z</time>
      </trkpt>
      <trkpt lat="40.054517" lon="0.065874">
        <ele>13.847</ele>
        <time>1970-01-01T06:00:26Z</time>
      </trkpt>
      <trkpt lat="40.054481" lon="0.065824">
        <ele>13.987</ele>
        <time>1970-01-01T06:00:27Z</time>
      </trkpt>
      <trkpt lat="40.054444" lon="0.065772">
        <ele>14.223</ele>
        <time>1970-01-01T06:00:28Z</time>
      </trkpt>
      <trkpt lat="40.054407" lon="0.065723">
        <ele>14.577</ele>
        <time>1970-01-01T06:00:29Z</time>
      </trkpt>
      <trkpt lat="40.054369" lon="0.065675">
        <ele>14.798</ele>
        <time>1970-01-01T06:00:30Z</time>
      </trkpt>
      <trkpt lat="40.054332" lon="0.065627">
        <ele>14.819</ele>
        <time>1970-01-01T06:00:31Z</time>
      </trkpt>
      <trkpt lat="40.054295" lon="0.065581">
        <ele>15.009</ele>
        <time>1970-01-01T06:00:32Z</time>
      </trkpt>
      <trkpt lat="40.054259" lon="0.065536">
        <ele>15.019</ele>
        <time>1970-01-01T06:00:33Z</time>
      </trkpt>
      <trkpt lat="40.054226" lon="0.065490">
        <ele>15.108</ele>
        <time>1970-01-01T06:00:34Z</time>
      </trkpt>
      <trkpt lat="40.054194" lon="0.065445">
        <ele>15.048</ele>
        <time>1970-01-01T06:00:35Z</time>
      </trkpt>
      <trkpt lat="40.054163" lon="0.065400">
        <ele>15.015</ele>
        <time>1970-01-01T06:00:36Z</time>
      </trkpt>
      <trkpt lat="40.054134" lon="0.065355">
        <ele>15.066</ele>
        <time>1970-01-01T06:00:37Z</time>
      </trkpt>
      <trkpt lat="40.054103" lon="0.065311">
        <ele>15.079</ele>
        <time>1970-01-01T06:00:38Z</time>
      </trkpt>
      <trkpt lat="40.054068" lon="0.065270">
        <ele>15.049</ele>
        <time>1970-01-01T06:00:39Z</time>
      </trkpt>
      <trkpt lat="40.054031" lon="0.065233">
        <ele>15.085</ele>
        <time>1970-01-01T06:00:40Z</time>
      </trkpt>
      <trkpt lat="40.053994" lon="0.065195">
        <ele>14.949</ele>
        <time>1970-01-01T06:00:41Z</time>
      </trkpt>
      <trkpt lat="40.053964" lon="0.065157">
        <ele>14.840</ele>
        <time>1970-01-01T06:00:42Z</time>
      </trkpt>
      <trkpt lat="40.053939" lon="0.065113">
        <ele>14.684</ele>
        <time>1970-01-01T06:00:43Z</time>
      </trkpt>
      <trkpt lat="40.053914" lon="0.065063">
        <ele>14.407</ele>
        <time>1970-01-01T06:00:44Z</time>
      </trkpt>
      <trkpt lat="40.053888" lon="0.065008">
        <ele>14.017</ele>
        <time>1970-01-01T06:00:45Z</time>
      </trkpt>
      <trkpt lat="40.053866" lon="0.064951">
        <ele>14.208</ele>
        <time>1970-01-01T06:00:46Z</time>
      </trkpt>
      <trkpt lat="40.053851" lon="0.064890">
        <ele>14.465</ele>
        <time>1970-01-01T06:00:47Z</time>
      </trkpt>
      <trkpt lat="40.053840" lon="0.064828">
        <ele>14.682</ele>
        <time>1970-01-01T06:00:48Z</time>
      </trkpt>
      <trkpt lat="40.053817" lon="0.064772">
        <ele>14.823</ele>
        <time>1970-01-01T06:00:49Z</time>
      </trkpt>
      <trkpt lat="40.053784" lon="0.064725">
        <ele>15.056</ele>
        <time>1970-01-01T06:00:50Z</time>
      </trkpt>
      <trkpt lat="40.053753" lon="0.064681">
        <ele>15.196</ele>
        <time>1970-01-01T06:00:51Z</time>
      </trkpt>
      <trkpt lat="40.053721" lon="0.064635">
        <ele>15.352</ele>
        <time>1970-01-01T06:00:52Z</time>
      </trkpt>
      <trkpt lat="40.053688" lon="0.064592">
        <ele>15.566</ele>
        <time>1970-01-01T06:00:53Z</time>
      </trkpt>
      <trkpt lat="40.053653" lon="0.064548">
        <ele>15.677</ele>
        <time>1970-01-01T06:00:54Z</time>
      </trkpt>
      <trkpt lat="40.053614" lon="0.064503">
        <ele>15.876</ele>
        <time>1970-01-01T06:00:55Z</time>
      </trkpt>
      <trkpt lat="40.053578" lon="0.064457">
        <ele>15.890</ele>
        <time>1970-01-01T06:00:56Z</time>
      </trkpt>
      <trkpt lat="40.053541" lon="0.064411">
        <ele>15.919</ele>
        <time>1970-01-01T06:00:57Z</time>
      </trkpt>
      <trkpt lat="40.053507" lon="0.064364">
        <ele>15.908</ele>
        <time>1970-01-01T06:00:58Z</time>
      </trkpt>
      <trkpt lat="40.053473" lon="0.064318">
        <ele>16.074</ele>
        <time>1970-01-01T06:00:59Z</time>
      </trkpt>
      <trkpt lat="40.053437" lon="0.064275">
        <ele>16.091</ele>
        <time>1970-01-01T06:01:00Z</time>
      </trkpt>
      <trkpt lat="40.053402" lon="0.064231">
        <ele>16.082</ele>
        <time>1970-01-01T06:01:01Z</time>
      </trkpt>
      <trkpt lat="40.053368" lon="0.064185">
        <ele>16.165</ele>
        <time>1970-01-01T06:01:02Z</time>
      </trkpt>
      <trkpt lat="40.053331" lon="0.064138">
        <ele>16.075</ele>
        <time>1970-01-01T06:01:03Z</time>
      </trkpt>
      <trkpt lat="40.053297" lon="0.064094">
        <ele>15.971</ele>
        <time>1970-01-01T06:01:04Z</time>
      </trkpt>
      <trkpt lat="40.053258" lon="0.064057">
        <ele>15.725</ele>
        <time>1970-01-01T06:01:05Z</time>
      </trkpt>
      <trkpt lat="40.053211" lon="0.064034">
        <ele>15.696</ele>
        <time>1970-01-01T06:01:06Z</time>
      </trkpt>
      <trkpt lat="40.053165" lon="0.064019">
        <ele>15.499</ele>
        <time>1970-01-01T06:01:07Z</time>
      </trkpt>
      <trkpt lat="40.053123" lon="0.063998">
        <ele>15.207</ele>
        <time>1970-01-01T06:01:08Z</time>
      </trkpt>
      <trkpt lat="40.053086" lon="0.063968">
        <ele>15.127</ele>
        <time>1970-01-01T06:01:09Z</time>
      </trkpt>
      <trkpt lat="40.053053" lon="0.063929">
        <ele>15.008</ele>
        <time>1970-01-01T06:01:10Z</time>
      </trkpt>
      <trkpt lat="40.053019" lon="0.063887">
        <ele>15.096</ele>
        <time>1970-01-01T06:01:11Z</time>
      </trkpt>
      <trkpt lat="40.052982" lon="0.063842">
        <ele>15.013</ele>
        <time>1970-01-01T06:01:12Z</time>
      </trkpt>
      <trkpt lat="40.052945" lon="0.063797">
        <ele>15.084</ele>
        <time>1970-01-01T06:01:13Z</time>
      </trkpt>
      <trkpt lat="40.052908" lon="0.063752">
        <ele>15.047</ele>
        <time>1970-01-01T06:01:14Z</time>
      </trkpt>
      <trkpt lat="40.052873" lon="0.063709">
        <ele>15.037</ele>
        <time>1970-01-01T06:01:15Z</time>
      </trkpt>
      <trkpt lat="40.052840" lon="0.063664">
        <ele>15.033</ele>
        <time>1970-01-01T06:01:16Z</time>
      </trkpt>
      <trkpt lat="40.052805" lon="0.063618">
        <ele>15.017</ele>
        <time>1970-01-01T06:01:17Z</time>
      </trkpt>
      <trkpt lat="40.052769" lon="0.063573">
        <ele>15.268</ele>
        <time>1970-01-01T06:01:18Z</time>
      </trkpt>
      <trkpt lat="40.052734" lon="0.063529">
        <ele>15.456</ele>
        <time>1970-01-01T06:01:19Z</time>
      </trkpt>
      <trkpt lat="40.052698" lon="0.063486">
        <ele>15.659</ele>
        <time>1970-01-01T06:01:20Z</time>
      </trkpt>
      <trkpt lat="40.052662" lon="0.063442">
        <ele>15.814</ele>
        <time>1970-01-01T06:01:21Z</time>
      </trkpt>
      <trkpt lat="40.052623" lon="0.063394">
        <ele>15.908</ele>
        <time>1970-01-01T06:01:22Z</time>
      </trkpt>
      <trkpt lat="40.052584" lon="0.063342">
        <ele>16.022</ele>
        <time>1970-01-01T06:01:23Z</time>
      </trkpt>
      <trkpt lat="40.052550" lon="0.063285">
        <ele>16.029</ele>
        <time>1970-01-01T06:01:24Z</time>
      </trkpt>
      <trkpt lat="40.052517" lon="0.063229">
        <ele>16.040</ele>
        <time>1970-01-01T06:01:25Z</time>
      </trkpt>
      <trkpt lat="40.052481" lon="0.063177">
        <ele>15.943</ele>
        <time>1970-01-01T06:01:26Z</time>
      </trkpt>
      <trkpt lat="40.052448" lon="0.063125">
        <ele>15.893</ele>
        <time>1970-01-01T06:01:27Z</time>
      </trkpt>
      <trkpt lat="40.052417" lon="0.063073">
        <ele>15.719</ele>
        <time>1970-01-01T06:01:28Z</time>
      </trkpt>
      <trkpt lat="40.052386" lon="0.063022">
        <ele>15.893</ele>
        <time>1970-01-01T06:01:29Z</time>
      </trkpt>
      <trkpt lat="40.052356" lon="0.062971">
        <ele>16.144</ele>
        <time>1970-01-01T06:01:30Z</time>
      </trkpt>
      <trkpt lat="40.052326" lon="0.062917">
        <ele>16.411</ele>
        <time>1970-01-01T06:01:31Z</time>
      </trkpt>
      <trkpt lat="40.052299" lon="0.062871">
        <ele>16.621</ele>
        <time>1970-01-01T06:01:32Z</time>
      </trkpt>
      <trkpt lat="40.052272" lon="0.062825">
        <ele>16.803</ele>
        <time>1970-01-01T06:01:33Z</time>
      </trkpt>
      <trkpt lat="40.052245" lon="0.062778">
        <ele>17.108</ele>
        <time>1970-01-01T06:01:34Z</time>
      </trkpt>
      <trkpt lat="40.052219" lon="0.062734">
        <ele>17.138</ele>
        <time>1970-01-01T06:01:35Z</time>
      </trkpt>
      <trkpt lat="40.052197" lon="0.062691">
        <ele>17.265</ele>
        <time>1970-01-01T06:01:36Z</time>
      </trkpt>
      <trkpt lat="40.052174" lon="0.062648">
        <ele>17.496</ele>
        <time>1970-01-01T06:01:37Z</time>
      </trkpt>
      <trkpt lat="40.052150" lon="0.062610">
        <ele>17.549</ele>
        <time>1970-01-01T06:01:38Z</time>
      </trkpt>
      <trkpt lat="40.052125" lon="0.062576">
        <ele>17.639</ele>
        <time>1970-01-01T06:01:39Z</time>
      </trkpt>
      <trkpt lat="40.052098" lon="0.062546">
        <ele>17.835</ele>
        <time>1970-01-01T06:01:40Z</time>
      </trkpt>
      <trkpt lat="40.052070" lon="0.062512">
        <ele>17.969</ele>
        <time>1970-01-01T06:01:41Z</time>
      </trkpt>
      <trkpt lat="40.052044" lon="0.062475">
        <ele>18.170</ele>
        <time>1970-01-01T06:01:42Z</time>
      </trkpt>
      <trkpt lat="40.052010" lon="0.062439">
        <ele>18.222</ele>
        <time>1970-01-01T06:01:43Z</time>
      </trkpt>
      <trkpt lat="40.051970" lon="0.062402">
        <ele>18.462</ele>
        <time>1970-01-01T06:01:44Z</time>
      </trkpt>
      <trkpt lat="40.051931" lon="0.062360">
        <ele>18.508</ele>
        <time>1970-01-01T06:01:45Z</time>
      </trkpt>
      <trkpt lat="40.051897" lon="0.062313">
        <ele>18.608</ele>
        <time>1970-01-01T06:01:46Z</time>
      </trkpt>
      <trkpt lat="40.051861" lon="0.062262">
        <ele>18.899</ele>
        <time>1970-01-01T06:01:47Z</time>
      </trkpt>
      <trkpt lat="40.051823" lon="0.062212">
        <ele>19.096</ele>
        <time>1970-01-01T06:01:48Z</time>
      </trkpt>
      <trkpt lat="40.051787" lon="0.062163">
        <ele>19.137</ele>
        <time>1970-01-01T06:01:49Z</time>
      </trkpt>
      <trkpt lat="40.051752" lon="0.062116">
        <ele>19.360</ele>
        <time>1970-01-01T06:01:50Z</time>
      </trkpt>
      <trkpt lat="40.051719" lon="0.062066">
        <ele>19.510</ele>
        <time>1970-01-01T06:01:51Z</time>
      </trkpt>
      <trkpt lat="40.051685" lon="0.062014">
        <ele>19.776</ele>
        <time>1970-01-01T06:01:52Z</time>
      </trkpt>
      <trkpt lat="40.051650" lon="0.061957">
        <ele>20.050</ele>
        <time>1970-01-01T06:01:53Z</time>
      </trkpt>
      <trkpt lat="40.051616" lon="0.061901">
        <ele>20.311</ele>
        <time>1970-01-01T06:01:54Z</time>
      </trkpt>
      <trkpt lat="40.051581" lon="0.061850">
        <ele>20.663</ele>
        <time>1970-01-01T06:01:55Z</time>
      </trkpt>
      <trkpt lat="40.051548" lon="0.061802">
        <ele>20.844</ele>
        <time>1970-01-01T06:01:56Z</time>
      </trkpt>
      <trkpt lat="40.051515" lon="0.061754">
        <ele>21.018</ele>
        <time>1970-01-01T06:01:57Z</time>
      </trkpt>
      <trkpt lat="40.051482" lon="0.061707">
        <ele>21.108</ele>
        <time>1970-01-01T06:01:58Z</time>
      </trkpt>
      <trkpt lat="40.051450" lon="0.061660">
        <ele>21.373</ele>
        <time>1970-01-01T06:01:59Z</time>
      </trkpt>
      <trkpt lat="40.051419" lon="0.061613">
        <ele>21.510</ele>
        <time>1970-01-01T06:02:00Z</time>
      </trkpt>
      <trkpt lat="40.051387" lon="0.061566">
        <ele>21.791</ele>
        <time>1970-01-01T06:02:01Z</time>
      </trkpt>
      <trkpt lat="40.051353" lon="0.061518">
        <ele>21.794</ele>
        <time>1970-01-01T06:02:02Z</time>
      </trkpt>
      <trkpt lat="40.051320" lon="0.061470">
        <ele>21.634</ele>
        <time>1970-01-01T06:02:03Z</time>
      </trkpt>
      <trkpt lat="40.051287" lon="0.061422">
        <ele>21.410</ele>
        <time>1970-01-01T06:02:04Z</time>
      </trkpt>
      <trkpt lat="40.051254" lon="0.061373">
        <ele>21.154</ele>
        <time>1970-01-01T06:02:05Z</time>
      </trkpt>
      <trkpt lat="40.051223" lon="0.061323">
        <ele>20.855</ele>
        <time>1970-01-01T06:02:06Z</time>
      </trkpt>
      <trkpt lat="40.051193" lon="0.061275">
        <ele>20.696</ele>
        <time>1970-01-01T06:02:07Z</time>
      </trkpt>
      <trkpt lat="40.051165" lon="0.061223">
        <ele>20.431</ele>
        <time>1970-01-01T06:02:08Z</time>
      </trkpt>
      <trkpt lat="40.051143" lon="0.061172">
        <ele>20.224</ele>
        <time>1970-01-01T06:02:09Z</time>
      </trkpt>
      <trkpt lat="40.051121" lon="0.061120">
        <ele>20.108</ele>
        <time>1970-01-01T06:02:10Z</time>
      </trkpt>
      <trkpt lat="40.051095" lon="0.061071">
        <ele>20.096</ele>
        <time>1970-01-01T06:02:11Z</time>
      </trkpt>
      <trkpt lat="40.051065" lon="0.061027">
        <ele>20.063</ele>
        <time>1970-01-01T06:02:12Z</time>
      </trkpt>
      <trkpt lat="40.051030" lon="0.060985">
        <ele>19.944</ele>
        <time>1970-01-01T06:02:13Z</time>
      </trkpt>
      <trkpt lat="40.050991" lon="0.060946">
        <ele>19.737</ele>
        <time>1970-01-01T06:02:14Z</time>
      </trkpt>
      <trkpt lat="40.050949" lon="0.060909">
        <ele>19.647</ele>
        <time>1970-01-01T06:02:15Z</time>
      </trkpt>
      <trkpt lat="40.050907" lon="0.060876">
        <ele>19.473</ele>
        <time>1970-01-01T06:02:16Z</time>
      </trkpt>
      <trkpt lat="40.050862" lon="0.060850">
        <ele>19.127</ele>
        <time>1970-01-01T06:02:17Z</time>
      </trkpt>
      <trkpt lat="40.050818" lon="0.060828">
        <ele>19.018</ele>
        <time>1970-01-01T06:02:18Z</time>
      </trkpt>
      <trkpt lat="40.050776" lon="0.060801">
        <ele>19.139</ele>
        <time>1970-01-01T06:02:19Z</time>
      </trkpt>
      <trkpt lat="40.050737" lon="0.060766">
        <ele>19.201</ele>
        <time>1970-01-01T06:02:20Z</time>
      </trkpt>
      <trkpt lat="40.050701" lon="0.060724">
        <ele>19.221</ele>
        <time>1970-01-01T06:02:21Z</time>
      </trkpt>
      <trkpt lat="40.050667" lon="0.060677">
        <ele>19.208</ele>
        <time>1970-01-01T06:02:22Z</time>
      </trkpt>
      <trkpt lat="40.050635" lon="0.060631">
        <ele>19.230</ele>
        <time>1970-01-01T06:02:23Z</time>
      </trkpt>
      <trkpt lat="40.050607" lon="0.060581">
        <ele>19.267</ele>
        <time>1970-01-01T06:02:24Z</time>
      </trkpt>
      <trkpt lat="40.050584" lon="0.060527">
        <ele>19.128</ele>
        <time>1970-01-01T06:02:25Z</time>
      </trkpt>
      <trkpt lat="40.050566" lon="0.060468">
        <ele>19.031</ele>
        <time>1970-01-01T06:02:26Z</time>
      </trkpt>
      <trkpt lat="40.050546" lon="0.060409">
        <ele>19.011</ele>
        <time>1970-01-01T06:02:27Z</time>
      </trkpt>
      <trkpt lat="40.050522" lon="0.060352">
        <ele>19.037</ele>
        <time>1970-01-01T06:02:28Z</time>
      </trkpt>
      <trkpt lat="40.050495" lon="0.060297">
        <ele>19.041</ele>
        <time>1970-01-01T06:02:29Z</time>
      </trkpt>
      <trkpt lat="40.050463" lon="0.060248">
        <ele>19.012</ele>
        <time>1970-01-01T06:02:30Z</time>
      </trkpt>
      <trkpt lat="40.050429" lon="0.060200">
        <ele>19.032</ele>
        <time>1970-01-01T06:02:31Z</time>
      </trkpt>
      <trkpt lat="40.050393" lon="0.060152">
        <ele>19.092</ele>
        <time>1970-01-01T06:02:32Z</time>
      </trkpt>
      <trkpt lat="40.050358" lon="0.060104">
        <ele>19.011</ele>
        <time>1970-01-01T06:02:33Z</time>
      </trkpt>
      <trkpt lat="40.050323" lon="0.060057">
        <ele>19.008</ele>
        <time>1970-01-01T06:02:34Z</time>
      </trkpt>
      <trkpt lat="40.050286" lon="0.060011">
        <ele>19.040</ele>
        <time>1970-01-01T06:02:35Z</time>
      </trkpt>
      <trkpt lat="40.050249" lon="0.059966">
        <ele>19.087</ele>
        <time>1970-01-01T06:02:36Z</time>
      </trkpt>
      <trkpt lat="40.050211" lon="0.059919">
        <ele>18.918</ele>
        <time>1970-01-01T06:02:37Z</time>
      </trkpt>
      <trkpt lat="40.050173" lon="0.059870">
        <ele>18.991</ele>
        <time>1970-01-01T06:02:38Z</time>
      </trkpt>
      <trkpt lat="40.050135" lon="0.059820">
        <ele>18.911</ele>
        <time>1970-01-01T06:02:39Z</time>
      </trkpt>
      <trkpt lat="40.050096" lon="0.059771">
        <ele>18.827</ele>
        <time>1970-01-01T06:02:40Z</time>
      </trkpt>
      <trkpt lat="40.050057" lon="0.059719">
        <ele>18.821</ele>
        <time>1970-01-01T06:02:41Z</time>
      </trkpt>
      <trkpt lat="40.050020" lon="0.059668">
        <ele>18.782</ele>
        <time>1970-01-01T06:02:42Z</time>
      </trkpt>
      <trkpt lat="40.049981" lon="0.059620">
        <ele>18.711</ele>
        <time>1970-01-01T06:02:43Z</time>
      </trkpt>
      <trkpt lat="40.049943" lon="0.059572">
        <ele>18.721</ele>
        <time>1970-01-01T06:02:44Z</time>
      </trkpt>
      <trkpt lat="40.049906" lon="0.059524">
        <ele>18.603</ele>
        <time>1970-01-01T06:02:45Z</time>
      </trkpt>
      <trkpt lat="40.049869" lon="0.059477">
        <ele>18.608</ele>
        <time>1970-01-01T06:02:46Z</time>
      </trkpt>
      <trkpt lat="40.049830" lon="0.059430">
        <ele>18.638</ele>
        <time>1970-01-01T06:02:47Z</time>
      </trkpt>
      <trkpt lat="40.049790" lon="0.059384">
        <ele>18.975</ele>
        <time>1970-01-01T06:02:48Z</time>
      </trkpt>
      <trkpt lat="40.049752" lon="0.059337">
        <ele>19.286</ele>
        <time>1970-01-01T06:02:49Z</time>
      </trkpt>
      <trkpt lat="40.049715" lon="0.059289">
        <ele>19.659</ele>
        <time>1970-01-01T06:02:50Z</time>
      </trkpt>
      <trkpt lat="40.049679" lon="0.059239">
        <ele>19.989</ele>
        <time>1970-01-01T06:02:51Z</time>
      </trkpt>
      <trkpt lat="40.049643" lon="0.059190">
        <ele>20.285</ele>
        <time>1970-01-01T06:02:52Z</time>
      </trkpt>
      <trkpt lat="40.049606" lon="0.059143">
        <ele>20.519</ele>
        <time>1970-01-01T06:02:53Z</time>
      </trkpt>
      <trkpt lat="40.049568" lon="0.059097">
        <ele>20.790</ele>
        <time>1970-01-01T06:02:54Z</time>
      </trkpt>
      <trkpt lat="40.049529" lon="0.059050">
        <ele>20.835</ele>
        <time>1970-01-01T06:02:55Z</time>
      </trkpt>
      <trkpt lat="40.049491" lon="0.059001">
        <ele>20.986</ele>
        <time>1970-01-01T06:02:56Z</time>
      </trkpt>
      <trkpt lat="40.049453" lon="0.058951">
        <ele>21.014</ele>
        <time>1970-01-01T06:02:57Z</time>
      </trkpt>
      <trkpt lat="40.049414" lon="0.058901">
        <ele>21.008</ele>
        <time>1970-01-01T06:02:58Z</time>
      </trkpt>
      <trkpt lat="40.049376" lon="0.058852">
        <ele>21.040</ele>
        <time>1970-01-01T06:02:59Z</time>
      </trkpt>
      <trkpt lat="40.049337" lon="0.058803">
        <ele>20.987</ele>
        <time>1970-01-01T06:03:00Z</time>
      </trkpt>
      <trkpt lat="40.049298" lon="0.058754">
        <ele>20.778</ele>
        <time>1970-01-01T06:03:01Z</time>
      </trkpt>
      <trkpt lat="40.049259" lon="0.058705">
        <ele>20.651</ele>
        <time>1970-01-01T06:03:02Z</time>
      </trkpt>
      <trkpt lat="40.049221" lon="0.058656">
        <ele>20.341</ele>
        <time>1970-01-01T06:03:03Z</time>
      </trkpt>
      <trkpt lat="40.049182" lon="0.058607">
        <ele>20.097</ele>
        <time>1970-01-01T06:03:04Z</time>
      </trkpt>
      <trkpt lat="40.049144" lon="0.058556">
        <ele>19.841</ele>
        <time>1970-01-01T06:03:05Z</time>
      </trkpt>
      <trkpt lat="40.049106" lon="0.058505">
        <ele>19.662</ele>
        <time>1970-01-01T06:03:06Z</time>
      </trkpt>
      <trkpt lat="40.049066" lon="0.058455">
        <ele>19.517</ele>
        <time>1970-01-01T06:03:07Z</time>
      </trkpt>
      <trkpt lat="40.049026" lon="0.058406">
        <ele>19.587</ele>
        <time>1970-01-01T06:03:08Z</time>
      </trkpt>
      <trkpt lat="40.048986" lon="0.058355">
        <ele>19.615</ele>
        <time>1970-01-01T06:03:09Z</time>
      </trkpt>
      <trkpt lat="40.048947" lon="0.058304">
        <ele>19.808</ele>
        <time>1970-01-01T06:03:10Z</time>
      </trkpt>
      <trkpt lat="40.048906" lon="0.058255">
        <ele>19.968</ele>
        <time>1970-01-01T06:03:11Z</time>
      </trkpt>
      <trkpt lat="40.048865" lon="0.058206">
        <ele>20.025</ele>
        <time>1970-01-01T06:03:12Z</time>
      </trkpt>
      <trkpt lat="40.048825" lon="0.058155">
        <ele>19.956</ele>
        <time>1970-01-01T06:03:13Z</time>
      </trkpt>
      <trkpt lat="40.048787" lon="0.058102">
        <ele>19.929</ele>
        <time>1970-01-01T06:03:14Z</time>
      </trkpt>
      <trkpt lat="40.048749" lon="0.058048">
        <ele>20.039</ele>
        <time>1970-01-01T06:03:15Z</time>
      </trkpt>
      <trkpt lat="40.048711" lon="0.057995">
        <ele>20.135</ele>
        <time>1970-01-01T06:03:16Z</time>
      </trkpt>
      <trkpt lat="40.048671" lon="0.057943">
        <ele>20.359</ele>
        <time>1970-01-01T06:03:17Z</time>
      </trkpt>
      <trkpt lat="40.048630" lon="0.057892">
        <ele>20.570</ele>
        <time>1970-01-01T06:03:18Z</time>
      </trkpt>
      <trkpt lat="40.048588" lon="0.057842">
        <ele>20.721</ele>
        <time>1970-01-01T06:03:19Z</time>
      </trkpt>
      <trkpt lat="40.048547" lon="0.057790">
        <ele>20.741</ele>
        <time>1970-01-01T06:03:20Z</time>
      </trkpt>
      <trkpt lat="40.048507" lon="0.057737">
        <ele>20.705</ele>
        <time>1970-01-01T06:03:21Z</time>
      </trkpt>
      <trkpt lat="40.048467" lon="0.057684">
        <ele>20.708</ele>
        <time>1970-01-01T06:03:22Z</time>
      </trkpt>
      <trkpt lat="40.048425" lon="0.057633">
        <ele>20.749</ele>
        <time>1970-01-01T06:03:23Z</time>
      </trkpt>
      <trkpt lat="40.048383" lon="0.057583">
        <ele>20.826</ele>
        <time>1970-01-01T06:03:24Z</time>
      </trkpt>
      <trkpt lat="40.048342" lon="0.057532">
        <ele>20.947</ele>
        <time>1970-01-01T06:03:25Z</time>
      </trkpt>
      <trkpt lat="40.048303" lon="0.057480">
        <ele>20.830</ele>
        <time>1970-01-01T06:03:26Z</time>
      </trkpt>
      <trkpt lat="40.048264" lon="0.057429">
        <ele>20.630</ele>
        <time>1970-01-01T06:03:27Z</time>
      </trkpt>
      <trkpt lat="40.048226" lon="0.057377">
        <ele>20.556</ele>
        <time>1970-01-01T06:03:28Z</time>
      </trkpt>
      <trkpt lat="40.048188" lon="0.057326">
        <ele>20.560</ele>
        <time>1970-01-01T06:03:29Z</time>
      </trkpt>
      <trkpt lat="40.048149" lon="0.057277">
        <ele>20.671</ele>
        <time>1970-01-01T06:03:30Z</time>
      </trkpt>
      <trkpt lat="40.048110" lon="0.057228">
        <ele>20.843</ele>
        <time>1970-01-01T06:03:31Z</time>
      </trkpt>
      <trkpt lat="40.048072" lon="0.057178">
        <ele>20.964</ele>
        <time>1970-01-01T06:03:32Z</time>
      </trkpt>
      <trkpt lat="40.048034" lon="0.057128">
        <ele>21.010</ele>
        <time>1970-01-01T06:03:33Z</time>
      </trkpt>
      <trkpt lat="40.047996" lon="0.057078">
        <ele>21.008</ele>
        <time>1970-01-01T06:03:34Z</time>
      </trkpt>
      <trkpt lat="40.047959" lon="0.057029">
        <ele>21.081</ele>
        <time>1970-01-01T06:03:35Z</time>
      </trkpt>
      <trkpt lat="40.047923" lon="0.056984">
        <ele>21.068</ele>
        <time>1970-01-01T06:03:36Z</time>
      </trkpt>
      <trkpt lat="40.047887" lon="0.056942">
        <ele>21.089</ele>
        <time>1970-01-01T06:03:37Z</time>
      </trkpt>
      <trkpt lat="40.047853" lon="0.056901">
        <ele>21.022</ele>
        <time>1970-01-01T06:03:38Z</time>
      </trkpt>
      <trkpt lat="40.047821" lon="0.056859">
        <ele>21.012</ele>
        <time>1970-01-01T06:03:39Z</time>
      </trkpt>
      <trkpt lat="40.047788" lon="0.056818">
        <ele>21.028</ele>
        <time>1970-01-01T06:03:40Z</time>
      </trkpt>
      <trkpt lat="40.047757" lon="0.056777">
        <ele>21.172</ele>
        <time>1970-01-01T06:03:41Z</time>
      </trkpt>
      <trkpt lat="40.047727" lon="0.056738">
        <ele>21.263</ele>
        <time>1970-01-01T06:03:42Z</time>
      </trkpt>
      <trkpt lat="40.047699" lon="0.056700">
        <ele>21.326</ele>
        <time>1970-01-01T06:03:43Z</time>
      </trkpt>
      <trkpt lat="40.047670" lon="0.056661">
        <ele>21.447</ele>
        <time>1970-01-01T06:03:44Z</time>
      </trkpt>
      <trkpt lat="40.047639" lon="0.056623">
        <ele>21.511</ele>
        <time>1970-01-01T06:03:45Z</time>
      </trkpt>
      <trkpt lat="40.047608" lon="0.056589">
        <ele>21.608</ele>
        <time>1970-01-01T06:03:46Z</time>
      </trkpt>
      <trkpt lat="40.047578" lon="0.056554">
        <ele>21.729</ele>
        <time>1970-01-01T06:03:47Z</time>
      </trkpt>
      <trkpt lat="40.047547" lon="0.056515">
        <ele>21.836</ele>
        <time>1970-01-01T06:03:48Z</time>
      </trkpt>
      <trkpt lat="40.047517" lon="0.056475">
        <ele>21.957</ele>
        <time>1970-01-01T06:03:49Z</time>
      </trkpt>
      <trkpt lat="40.047484" lon="0.056436">
        <ele>22.140</ele>
        <time>1970-01-01T06:03:50Z</time>
      </trkpt>
      <trkpt lat="40.047451" lon="0.056396">
        <ele>22.250</ele>
        <time>1970-01-01T06:03:51Z</time>
      </trkpt>
      <trkpt lat="40.047418" lon="0.056357">
        <ele>22.246</ele>
        <time>1970-01-01T06:03:52Z</time>
      </trkpt>
      <trkpt lat="40.047384" lon="0.056313">
        <ele>22.220</ele>
        <time>1970-01-01T06:03:53Z</time>
      </trkpt>
      <trkpt lat="40.047350" lon="0.056269">
        <ele>22.141</ele>
        <time>1970-01-01T06:03:54Z</time>
      </trkpt>
      <trkpt lat="40.047314" lon="0.056227">
        <ele>21.982</ele>
        <time>1970-01-01T06:03:55Z</time>
      </trkpt>
      <trkpt lat="40.047279" lon="0.056184">
        <ele>21.643</ele>
        <time>1970-01-01T06:03:56Z</time>
      </trkpt>
      <trkpt lat="40.047243" lon="0.056142">
        <ele>21.317</ele>
        <time>1970-01-01T06:03:57Z</time>
      </trkpt>
      <trkpt lat="40.047206" lon="0.056100">
        <ele>20.908</ele>
        <time>1970-01-01T06:03:58Z</time>
      </trkpt>
      <trkpt lat="40.047169" lon="0.056056">
        <ele>20.655</ele>
        <time>1970-01-01T06:03:59Z</time>
      </trkpt>
      <trkpt lat="40.047135" lon="0.056011">
        <ele>20.422</ele>
        <time>1970-01-01T06:04:00Z</time>
      </trkpt>
      <trkpt lat="40.047098" lon="0.055973">
        <ele>20.273</ele>
        <time>1970-01-01T06:04:01Z</time>
      </trkpt>
      <trkpt lat="40.047058" lon="0.055942">
        <ele>20.126</ele>
        <time>1970-01-01T06:04:02Z</time>
      </trkpt>
      <trkpt lat="40.047014" lon="0.055917">
        <ele>20.146</ele>
        <time>1970-01-01T06:04:03Z</time>
      </trkpt>
      <trkpt lat="40.046963" lon="0.055908">
        <ele>20.222</ele>
        <time>1970-01-01T06:04:04Z</time>
      </trkpt>
      <trkpt lat="40.046908" lon="0.055918">
        <ele>20.446</ele>
        <time>1970-01-01T06:04:05Z</time>
      </trkpt>
      <trkpt lat="40.046855" lon="0.055939">
        <ele>20.757</ele>
        <time>1970-01-01T06:04:06Z</time>
      </trkpt>
      <trkpt lat="40.046803" lon="0.055965">
        <ele>21.039</ele>
        <time>1970-01-01T06:04:07Z</time>
      </trkpt>
      <trkpt lat="40.046750" lon="0.055982">
        <ele>21.201</ele>
        <time>1970-01-01T06:04:08Z</time>
      </trkpt>
      <trkpt lat="40.046696" lon="0.055981">
        <ele>21.421</ele>
        <time>1970-01-01T06:04:09Z</time>
      </trkpt>
      <trkpt lat="40.046646" lon="0.055965">
        <ele>21.508</ele>
        <time>1970-01-01T06:04:10Z</time>
      </trkpt>
      <trkpt lat="40.046603" lon="0.055946">
        <ele>21.470</ele>
        <time>1970-01-01T06:04:11Z</time>
      </trkpt>
      <trkpt lat="40.046566" lon="0.055929">
        <ele>21.567</ele>
        <time>1970-01-01T06:04:12Z</time>
      </trkpt>
      <trkpt lat="40.046536" lon="0.055902">
        <ele>21.578</ele>
        <time>1970-01-01T06:04:13Z</time>
      </trkpt>
      <trkpt lat="40.046516" lon="0.055861">
        <ele>21.521</ele>
        <time>1970-01-01T06:04:14Z</time>
      </trkpt>
      <trkpt lat="40.046508" lon="0.055808">
        <ele>21.671</ele>
        <time>1970-01-01T06:04:15Z</time>
      </trkpt>
      <trkpt lat="40.046509" lon="0.055747">
        <ele>21.637</ele>
        <time>1970-01-01T06:04:16Z</time>
      </trkpt>
      <trkpt lat="40.046512" lon="0.055682">
        <ele>21.681</ele>
        <time>1970-01-01T06:04:17Z</time>
      </trkpt>
      <trkpt lat="40.046511" lon="0.055615">
        <ele>21.672</ele>
        <time>1970-01-01T06:04:18Z</time>
      </trkpt>
      <trkpt lat="40.046506" lon="0.055548">
        <ele>21.644</ele>
        <time>1970-01-01T06:04:19Z</time>
      </trkpt>
      <trkpt lat="40.046495" lon="0.055483">
        <ele>21.605</ele>
        <time>1970-01-01T06:04:20Z</time>
      </trkpt>
      <trkpt lat="40.046472" lon="0.055426">
        <ele>21.715</ele>
        <time>1970-01-01T06:04:21Z</time>
      </trkpt>
      <trkpt lat="40.046438" lon="0.055376">
        <ele>21.808</ele>
        <time>1970-01-01T06:04:22Z</time>
      </trkpt>
      <trkpt lat="40.046402" lon="0.055325">
        <ele>22.021</ele>
        <time>1970-01-01T06:04:23Z</time>
      </trkpt>
      <trkpt lat="40.046362" lon="0.055274">
        <ele>22.058</ele>
        <time>1970-01-01T06:04:24Z</time>
      </trkpt>
      <trkpt lat="40.046321" lon="0.055223">
        <ele>21.879</ele>
        <time>1970-01-01T06:04:25Z</time>
      </trkpt>
      <trkpt lat="40.046281" lon="0.055171">
        <ele>21.692</ele>
        <time>1970-01-01T06:04:26Z</time>
      </trkpt>
      <trkpt lat="40.046242" lon="0.055118">
        <ele>21.482</ele>
        <time>1970-01-01T06:04:27Z</time>
      </trkpt>
      <trkpt lat="40.046203" lon="0.055066">
        <ele>21.298</ele>
        <time>1970-01-01T06:04:28Z</time>
      </trkpt>
      <trkpt lat="40.046162" lon="0.055017">
        <ele>21.192</ele>
        <time>1970-01-01T06:04:29Z</time>
      </trkpt>
      <trkpt lat="40.046121" lon="0.054969">
        <ele>20.943</ele>
        <time>1970-01-01T06:04:30Z</time>
      </trkpt>
      <trkpt lat="40.046080" lon="0.054918">
        <ele>20.556</ele>
        <time>1970-01-01T06:04:31Z</time>
      </trkpt>
      <trkpt lat="40.046041" lon="0.054867">
        <ele>20.159</ele>
        <time>1970-01-01T06:04:32Z</time>
      </trkpt>
      <trkpt lat="40.046003" lon="0.054816">
        <ele>19.814</ele>
        <time>1970-01-01T06:04:33Z</time>
      </trkpt>
      <trkpt lat="40.045966" lon="0.054765">
        <ele>19.608</ele>
        <time>1970-01-01T06:04:34Z</time>
      </trkpt>
      <trkpt lat="40.045930" lon="0.054714">
        <ele>19.332</ele>
        <time>1970-01-01T06:04:35Z</time>
      </trkpt>
      <trkpt lat="40.045894" lon="0.054664">
        <ele>19.269</ele>
        <time>1970-01-01T06:04:36Z</time>
      </trkpt>
      <trkpt lat="40.045858" lon="0.054615">
        <ele>19.190</ele>
        <time>1970-01-01T06:04:37Z</time>
      </trkpt>
      <trkpt lat="40.045822" lon="0.054567">
        <ele>19.023</ele>
        <time>1970-01-01T06:04:38Z</time>
      </trkpt>
      <trkpt lat="40.045787" lon="0.054516">
        <ele>18.843</ele>
        <time>1970-01-01T06:04:39Z</time>
      </trkpt>
      <trkpt lat="40.045751" lon="0.054465">
        <ele>18.799</ele>
        <time>1970-01-01T06:04:40Z</time>
      </trkpt>
      <trkpt lat="40.045713" lon="0.054414">
        <ele>18.793</ele>
        <time>1970-01-01T06:04:41Z</time>
      </trkpt>
      <trkpt lat="40.045674" lon="0.054363">
        <ele>18.774</ele>
        <time>1970-01-01T06:04:42Z</time>
      </trkpt>
      <trkpt lat="40.045635" lon="0.054312">
        <ele>18.888</ele>
        <time>1970-01-01T06:04:43Z</time>
      </trkpt>
      <trkpt lat="40.045597" lon="0.054260">
        <ele>18.824</ele>
        <time>1970-01-01T06:04:44Z</time>
      </trkpt>
      <trkpt lat="40.045560" lon="0.054208">
        <ele>18.926</ele>
        <time>1970-01-01T06:04:45Z</time>
      </trkpt>
      <trkpt lat="40.045523" lon="0.054156">
        <ele>18.908</ele>
        <time>1970-01-01T06:04:46Z</time>
      </trkpt>
      <trkpt lat="40.045487" lon="0.054105">
        <ele>18.855</ele>
        <time>1970-01-01T06:04:47Z</time>
      </trkpt>
      <trkpt lat="40.045450" lon="0.054053">
        <ele>18.832</ele>
        <time>1970-01-01T06:04:48Z</time>
      </trkpt>
      <trkpt lat="40.045413" lon="0.054001">
        <ele>18.883</ele>
        <time>1970-01-01T06:04:49Z</time>
      </trkpt>
      <trkpt lat="40.045376" lon="0.053949">
        <ele>18.926</ele>
        <time>1970-01-01T06:04:50Z</time>
      </trkpt>
      <trkpt lat="40.045338" lon="0.053897">
        <ele>19.016</ele>
        <time>1970-01-01T06:04:51Z</time>
      </trkpt>
      <trkpt lat="40.045300" lon="0.053843">
        <ele>19.052</ele>
        <time>1970-01-01T06:04:52Z</time>
      </trkpt>
      <trkpt lat="40.045263" lon="0.053787">
        <ele>19.086</ele>
        <time>1970-01-01T06:04:53Z</time>
      </trkpt>
      <trkpt lat="40.045226" lon="0.053731">
        <ele>19.117</ele>
        <time>1970-01-01T06:04:54Z</time>
      </trkpt>
      <trkpt lat="40.045187" lon="0.053677">
        <ele>19.129</ele>
        <time>1970-01-01T06:04:55Z</time>
      </trkpt>
      <trkpt lat="40.045149" lon="0.053622">
        <ele>19.000</ele>
        <time>1970-01-01T06:04:56Z</time>
      </trkpt>
      <trkpt lat="40.045110" lon="0.053566">
        <ele>19.120</ele>
        <time>1970-01-01T06:04:57Z</time>
      </trkpt>
      <trkpt lat="40.045070" lon="0.053508">
        <ele>19.108</ele>
        <time>1970-01-01T06:04:58Z</time>
      </trkpt>
      <trkpt lat="40.045031" lon="0.053447">
        <ele>19.119</ele>
        <time>1970-01-01T06:04:59Z</time>
      </trkpt>
      <trkpt lat="40.044993" lon="0.053387">
        <ele>19.096</ele>
        <time>1970-01-01T06:05:00Z</time>
      </trkpt>
      <trkpt lat="40.044955" lon="0.053324">
        <ele>19.287</ele>
        <time>1970-01-01T06:05:01Z</time>
      </trkpt>
      <trkpt lat="40.044916" lon="0.053262">
        <ele>19.350</ele>
        <time>1970-01-01T06:05:02Z</time>
      </trkpt>
      <trkpt lat="40.044878" lon="0.053200">
        <ele>19.450</ele>
        <time>1970-01-01T06:05:03Z</time>
      </trkpt>
      <trkpt lat="40.044840" lon="0.053138">
        <ele>19.616</ele>
        <time>1970-01-01T06:05:04Z</time>
      </trkpt>
      <trkpt lat="40.044802" lon="0.053075">
        <ele>19.740</ele>
        <time>1970-01-01T06:05:05Z</time>
      </trkpt>
      <trkpt lat="40.044765" lon="0.053010">
        <ele>19.771</ele>
        <time>1970-01-01T06:05:06Z</time>
      </trkpt>
      <trkpt lat="40.044727" lon="0.052945">
        <ele>19.648</ele>
        <time>1970-01-01T06:05:07Z</time>
      </trkpt>
      <trkpt lat="40.044688" lon="0.052878">
        <ele>19.461</ele>
        <time>1970-01-01T06:05:08Z</time>
      </trkpt>
      <trkpt lat="40.044650" lon="0.052811">
        <ele>19.117</ele>
        <time>1970-01-01T06:05:09Z</time>
      </trkpt>
      <trkpt lat="40.044612" lon="0.052743">
        <ele>19.008</ele>
        <time>1970-01-01T06:05:10Z</time>
      </trkpt>
      <trkpt lat="40.044573" lon="0.052673">
        <ele>19.031</ele>
        <time>1970-01-01T06:05:11Z</time>
      </trkpt>
      <trkpt lat="40.044534" lon="0.052604">
        <ele>19.028</ele>
        <time>1970-01-01T06:05:12Z</time>
      </trkpt>
      <trkpt lat="40.044494" lon="0.052537">
        <ele>19.059</ele>
        <time>1970-01-01T06:05:13Z</time>
      </trkpt>
      <trkpt lat="40.044452" lon="0.052470">
        <ele>19.082</ele>
        <time>1970-01-01T06:05:14Z</time>
      </trkpt>
      <trkpt lat="40.044412" lon="0.052402">
        <ele>18.982</ele>
        <time>1970-01-01T06:05:15Z</time>
      </trkpt>
      <trkpt lat="40.044375" lon="0.052333">
        <ele>18.868</ele>
        <time>1970-01-01T06:05:16Z</time>
      </trkpt>
      <trkpt lat="40.044339" lon="0.052263">
        <ele>18.622</ele>
        <time>1970-01-01T06:05:17Z</time>
      </trkpt>
      <trkpt lat="40.044303" lon="0.052192">
        <ele>18.673</ele>
        <time>1970-01-01T06:05:18Z</time>
      </trkpt>
      <trkpt lat="40.044268" lon="0.052123">
        <ele>18.777</ele>
        <time>1970-01-01T06:05:19Z</time>
      </trkpt>
      <trkpt lat="40.044233" lon="0.052052">
        <ele>18.961</ele>
        <time>1970-01-01T06:05:20Z</time>
      </trkpt>
      <trkpt lat="40.044198" lon="0.051981">
        <ele>19.027</ele>
        <time>1970-01-01T06:05:21Z</time>
      </trkpt>
      <trkpt lat="40.044164" lon="0.051910">
        <ele>19.008</ele>
        <time>1970-01-01T06:05:22Z</time>
      </trkpt>
      <trkpt lat="40.044127" lon="0.051839">
        <ele>18.984</ele>
        <time>1970-01-01T06:05:23Z</time>
      </trkpt>
      <trkpt lat="40.044090" lon="0.051767">
        <ele>18.941</ele>
        <time>1970-01-01T06:05:24Z</time>
      </trkpt>
      <trkpt lat="40.044051" lon="0.051695">
        <ele>19.022</ele>
        <time>1970-01-01T06:05:25Z</time>
      </trkpt>
      <trkpt lat="40.044014" lon="0.051621">
        <ele>19.115</ele>
        <time>1970-01-01T06:05:26Z</time>
      </trkpt>
      <trkpt lat="40.043978" lon="0.051546">
        <ele>19.185</ele>
        <time>1970-01-01T06:05:27Z</time>
      </trkpt>
      <trkpt lat="40.043949" lon="0.051467">
        <ele>19.291</ele>
        <time>1970-01-01T06:05:28Z</time>
      </trkpt>
      <trkpt lat="40.043932" lon="0.051384">
        <ele>19.275</ele>
        <time>1970-01-01T06:05:29Z</time>
      </trkpt>
      <trkpt lat="40.043925" lon="0.051298">
        <ele>19.536</ele>
        <time>1970-01-01T06:05:30Z</time>
      </trkpt>
      <trkpt lat="40.043919" lon="0.051218">
        <ele>19.759</ele>
        <time>1970-01-01T06:05:31Z</time>
      </trkpt>
      <trkpt lat="40.043910" lon="0.051140">
        <ele>20.003</ele>
        <time>1970-01-01T06:05:32Z</time>
      </trkpt>
      <trkpt lat="40.043894" lon="0.051064">
        <ele>20.223</ele>
        <time>1970-01-01T06:05:33Z</time>
      </trkpt>
      <trkpt lat="40.043869" lon="0.050997">
        <ele>20.408</ele>
        <time>1970-01-01T06:05:34Z</time>
      </trkpt>
      <trkpt lat="40.043841" lon="0.050930">
        <ele>20.572</ele>
        <time>1970-01-01T06:05:35Z</time>
      </trkpt>
      <trkpt lat="40.043814" lon="0.050861">
        <ele>20.749</ele>
        <time>1970-01-01T06:05:36Z</time>
      </trkpt>
      <trkpt lat="40.043785" lon="0.050792">
        <ele>20.750</ele>
        <time>1970-01-01T06:05:37Z</time>
      </trkpt>
      <trkpt lat="40.043757" lon="0.050718">
        <ele>20.713</ele>
        <time>1970-01-01T06:05:38Z</time>
      </trkpt>
      <trkpt lat="40.043729" lon="0.050643">
        <ele>20.783</ele>
        <time>1970-01-01T06:05:39Z</time>
      </trkpt>
      <trkpt lat="40.043700" lon="0.050568">
        <ele>20.689</ele>
        <time>1970-01-01T06:05:40Z</time>
      </trkpt>
      <trkpt lat="40.043669" lon="0.050493">
        <ele>20.583</ele>
        <time>1970-01-01T06:05:41Z</time>
      </trkpt>
      <trkpt lat="40.043637" lon="0.050418">
        <ele>20.274</ele>
        <time>1970-01-01T06:05:42Z</time>
      </trkpt>
      <trkpt lat="40.043604" lon="0.050341">
        <ele>20.037</ele>
        <time>1970-01-01T06:05:43Z</time>
      </trkpt>
      <trkpt lat="40.043571" lon="0.050263">
        <ele>19.949</ele>
        <time>1970-01-01T06:05:44Z</time>
      </trkpt>
      <trkpt lat="40.043540" lon="0.050183">
        <ele>19.713</ele>
        <time>1970-01-01T06:05:45Z</time>
      </trkpt>
      <trkpt lat="40.043509" lon="0.050104">
        <ele>19.408</ele>
        <time>1970-01-01T06:05:46Z</time>
      </trkpt>
      <trkpt lat="40.043477" lon="0.050025">
        <ele>19.120</ele>
        <time>1970-01-01T06:05:47Z</time>
      </trkpt>
      <trkpt lat="40.043446" lon="0.049947">
        <ele>18.957</ele>
        <time>1970-01-01T06:05:48Z</time>
      </trkpt>
      <trkpt lat="40.043416" lon="0.049868">
        <ele>18.748</ele>
        <time>1970-01-01T06:05:49Z</time>
      </trkpt>
      <trkpt lat="40.043385" lon="0.049789">
        <ele>18.481</ele>
        <time>1970-01-01T06:05:50Z</time>
      </trkpt>
      <trkpt lat="40.043352" lon="0.049711">
        <ele>18.171</ele>
        <time>1970-01-01T06:05:51Z</time>
      </trkpt>
      <trkpt lat="40.043319" lon="0.049634">
        <ele>18.467</ele>
        <time>1970-01-01T06:05:52Z</time>
      </trkpt>
      <trkpt lat="40.043287" lon="0.049556">
        <ele>18.731</ele>
        <time>1970-01-01T06:05:53Z</time>
      </trkpt>
      <trkpt lat="40.043257" lon="0.049475">
        <ele>18.932</ele>
        <time>1970-01-01T06:05:54Z</time>
      </trkpt>
      <trkpt lat="40.043226" lon="0.049394">
        <ele>19.169</ele>
        <time>1970-01-01T06:05:55Z</time>
      </trkpt>
      <trkpt lat="40.043195" lon="0.049314">
        <ele>19.204</ele>
        <time>1970-01-01T06:05:56Z</time>
      </trkpt>
      <trkpt lat="40.043161" lon="0.049233">
        <ele>19.524</ele>
        <time>1970-01-01T06:05:57Z</time>
      </trkpt>
      <trkpt lat="40.043130" lon="0.049151">
        <ele>19.708</ele>
        <time>1970-01-01T06:05:58Z</time>
      </trkpt>
      <trkpt lat="40.043099" lon="0.049073">
        <ele>19.833</ele>
        <time>1970-01-01T06:05:59Z</time>
      </trkpt>
      <trkpt lat="40.043069" lon="0.048993">
        <ele>20.090</ele>
        <time>1970-01-01T06:06:00Z</time>
      </trkpt>
      <trkpt lat="40.043039" lon="0.048915">
        <ele>20.051</ele>
        <time>1970-01-01T06:06:01Z</time>
      </trkpt>
      <trkpt lat="40.043009" lon="0.048839">
        <ele>20.254</ele>
        <time>1970-01-01T06:06:02Z</time>
      </trkpt>
      <trkpt lat="40.042979" lon="0.048764">
        <ele>20.364</ele>
        <time>1970-01-01T06:06:03Z</time>
      </trkpt>
      <trkpt lat="40.042951" lon="0.048689">
        <ele>20.490</ele>
        <time>1970-01-01T06:06:04Z</time>
      </trkpt>
      <trkpt lat="40.042925" lon="0.048613">
        <ele>20.534</ele>
        <time>1970-01-01T06:06:05Z</time>
      </trkpt>
      <trkpt lat="40.042897" lon="0.048539">
        <ele>20.585</ele>
        <time>1970-01-01T06:06:06Z</time>
      </trkpt>
      <trkpt lat="40.042869" lon="0.048465">
        <ele>20.531</ele>
        <time>1970-01-01T06:06:07Z</time>
      </trkpt>
      <trkpt lat="40.042839" lon="0.048391">
        <ele>20.361</ele>
        <time>1970-01-01T06:06:08Z</time>
      </trkpt>
      <trkpt lat="40.042800" lon="0.048323">
        <ele>20.007</ele>
        <time>1970-01-01T06:06:09Z</time>
      </trkpt>
      <trkpt lat="40.042756" lon="0.048262">
        <ele>19.408</ele>
        <time>1970-01-01T06:06:10Z</time>
      </trkpt>
      <trkpt lat="40.042707" lon="0.048208">
        <ele>18.750</ele>
        <time>1970-01-01T06:06:11Z</time>
      </trkpt>
      <trkpt lat="40.042656" lon="0.048156">
        <ele>18.147</ele>
        <time>1970-01-01T06:06:12Z</time>
      </trkpt>
      <trkpt lat="40.042608" lon="0.048094">
        <ele>17.618</ele>
        <time>1970-01-01T06:06:13Z</time>
      </trkpt>
      <trkpt lat="40.042564" lon="0.048023">
        <ele>17.281</ele>
        <time>1970-01-01T06:06:14Z</time>
      </trkpt>
      <trkpt lat="40.042529" lon="0.047944">
        <ele>17.121</ele>
        <time>1970-01-01T06:06:15Z</time>
      </trkpt>
      <trkpt lat="40.042499" lon="0.047861">
        <ele>17.027</ele>
        <time>1970-01-01T06:06:16Z</time>
      </trkpt>
      <trkpt lat="40.042468" lon="0.047778">
        <ele>17.011</ele>
        <time>1970-01-01T06:06:17Z</time>
      </trkpt>
      <trkpt lat="40.042434" lon="0.047699">
        <ele>16.972</ele>
        <time>1970-01-01T06:06:18Z</time>
      </trkpt>
      <trkpt lat="40.042400" lon="0.047622">
        <ele>16.818</ele>
        <time>1970-01-01T06:06:19Z</time>
      </trkpt>
      <trkpt lat="40.042365" lon="0.047546">
        <ele>16.698</ele>
        <time>1970-01-01T06:06:20Z</time>
      </trkpt>
      <trkpt lat="40.042334" lon="0.047467">
        <ele>16.517</ele>
        <time>1970-01-01T06:06:21Z</time>
      </trkpt>
      <trkpt lat="40.042303" lon="0.047389">
        <ele>16.608</ele>
        <time>1970-01-01T06:06:22Z</time>
      </trkpt>
      <trkpt lat="40.042273" lon="0.047309">
        <ele>16.718</ele>
        <time>1970-01-01T06:06:23Z</time>
      </trkpt>
      <trkpt lat="40.042245" lon="0.047229">
        <ele>17.085</ele>
        <time>1970-01-01T06:06:24Z</time>
      </trkpt>
      <trkpt lat="40.042215" lon="0.047149">
        <ele>17.076</ele>
        <time>1970-01-01T06:06:25Z</time>
      </trkpt>
      <trkpt lat="40.042186" lon="0.047069">
        <ele>16.919</ele>
        <time>1970-01-01T06:06:26Z</time>
      </trkpt>
      <trkpt lat="40.042154" lon="0.046991">
        <ele>16.819</ele>
        <time>1970-01-01T06:06:27Z</time>
      </trkpt>
      <trkpt lat="40.042123" lon="0.046911">
        <ele>16.635</ele>
        <time>1970-01-01T06:06:28Z</time>
      </trkpt>
      <trkpt lat="40.042090" lon="0.046832">
        <ele>16.349</ele>
        <time>1970-01-01T06:06:29Z</time>
      </trkpt>
      <trkpt lat="40.042057" lon="0.046753">
        <ele>16.130</ele>
        <time>1970-01-01T06:06:30Z</time>
      </trkpt>
      <trkpt lat="40.042022" lon="0.046673">
        <ele>16.065</ele>
        <time>1970-01-01T06:06:31Z</time>
      </trkpt>
      <trkpt lat="40.041988" lon="0.046593">
        <ele>16.068</ele>
        <time>1970-01-01T06:06:32Z</time>
      </trkpt>
      <trkpt lat="40.041953" lon="0.046512">
        <ele>16.014</ele>
        <time>1970-01-01T06:06:33Z</time>
      </trkpt>
      <trkpt lat="40.041919" lon="0.046428">
        <ele>16.108</ele>
        <time>1970-01-01T06:06:34Z</time>
      </trkpt>
      <trkpt lat="40.041885" lon="0.046344">
        <ele>16.233</ele>
        <time>1970-01-01T06:06:35Z</time>
      </trkpt>
      <trkpt lat="40.041851" lon="0.046259">
        <ele>16.310</ele>
        <time>1970-01-01T06:06:36Z</time>
      </trkpt>
      <trkpt lat="40.041818" lon="0.046172">
        <ele>16.541</ele>
        <time>1970-01-01T06:06:37Z</time>
      </trkpt>
      <trkpt lat="40.041784" lon="0.046085">
        <ele>16.614</ele>
        <time>1970-01-01T06:06:38Z</time>
      </trkpt>
      <trkpt lat="40.041751" lon="0.045999">
        <ele>16.744</ele>
        <time>1970-01-01T06:06:39Z</time>
      </trkpt>
      <trkpt lat="40.041718" lon="0.045912">
        <ele>16.820</ele>
        <time>1970-01-01T06:06:40Z</time>
      </trkpt>
      <trkpt lat="40.041685" lon="0.045825">
        <ele>16.994</ele>
        <time>1970-01-01T06:06:41Z</time>
      </trkpt>
      <trkpt lat="40.041655" lon="0.045735">
        <ele>17.085</ele>
        <time>1970-01-01T06:06:42Z</time>
      </trkpt>
      <trkpt lat="40.041624" lon="0.045644">
        <ele>17.227</ele>
        <time>1970-01-01T06:06:43Z</time>
      </trkpt>
      <trkpt lat="40.041590" lon="0.045555">
        <ele>17.368</ele>
        <time>1970-01-01T06:06:44Z</time>
      </trkpt>
      <trkpt lat="40.041557" lon="0.045464">
        <ele>16.914</ele>
        <time>1970-01-01T06:06:45Z</time>
      </trkpt>
      <trkpt lat="40.041524" lon="0.045374">
        <ele>16.508</ele>
        <time>1970-01-01T06:06:46Z</time>
      </trkpt>
      <trkpt lat="40.041489" lon="0.045284">
        <ele>16.099</ele>
        <time>1970-01-01T06:06:47Z</time>
      </trkpt>
      <trkpt lat="40.041453" lon="0.045193">
        <ele>15.416</ele>
        <time>1970-01-01T06:06:48Z</time>
      </trkpt>
      <trkpt lat="40.041417" lon="0.045101">
        <ele>14.747</ele>
        <time>1970-01-01T06:06:49Z</time>
      </trkpt>
      <trkpt lat="40.041381" lon="0.045011">
        <ele>14.110</ele>
        <time>1970-01-01T06:06:50Z</time>
      </trkpt>
      <trkpt lat="40.041343" lon="0.044920">
        <ele>13.780</ele>
        <time>1970-01-01T06:06:51Z</time>
      </trkpt>
      <trkpt lat="40.041306" lon="0.044829">
        <ele>13.456</ele>
        <time>1970-01-01T06:06:52Z</time>
      </trkpt>
      <trkpt lat="40.041271" lon="0.044736">
        <ele>13.150</ele>
        <time>1970-01-01T06:06:53Z</time>
      </trkpt>
      <trkpt lat="40.041237" lon="0.044644">
        <ele>13.081</ele>
        <time>1970-01-01T06:06:54Z</time>
      </trkpt>
      <trkpt lat="40.041204" lon="0.044553">
        <ele>13.022</ele>
        <time>1970-01-01T06:06:55Z</time>
      </trkpt>
      <trkpt lat="40.041173" lon="0.044464">
        <ele>13.062</ele>
        <time>1970-01-01T06:06:56Z</time>
      </trkpt>
      <trkpt lat="40.041141" lon="0.044377">
        <ele>13.008</ele>
        <time>1970-01-01T06:06:57Z</time>
      </trkpt>
      <trkpt lat="40.041109" lon="0.044292">
        <ele>13.008</ele>
        <time>1970-01-01T06:06:58Z</time>
      </trkpt>
      <trkpt lat="40.041077" lon="0.044209">
        <ele>13.179</ele>
        <time>1970-01-01T06:06:59Z</time>
      </trkpt>
      <trkpt lat="40.041047" lon="0.044128">
        <ele>13.346</ele>
        <time>1970-01-01T06:07:00Z</time>
      </trkpt>
      <trkpt lat="40.041017" lon="0.044048">
        <ele>13.637</ele>
        <time>1970-01-01T06:07:01Z</time>
      </trkpt>
      <trkpt lat="40.040988" lon="0.043970">
        <ele>13.890</ele>
        <time>1970-01-01T06:07:02Z</time>
      </trkpt>
      <trkpt lat="40.040957" lon="0.043896">
        <ele>14.040</ele>
        <time>1970-01-01T06:07:03Z</time>
      </trkpt>
      <trkpt lat="40.040927" lon="0.043824">
        <ele>14.226</ele>
        <time>1970-01-01T06:07:04Z</time>
      </trkpt>
      <trkpt lat="40.040898" lon="0.043754">
        <ele>14.510</ele>
        <time>1970-01-01T06:07:05Z</time>
      </trkpt>
      <trkpt lat="40.040873" lon="0.043683">
        <ele>14.761</ele>
        <time>1970-01-01T06:07:06Z</time>
      </trkpt>
      <trkpt lat="40.040847" lon="0.043613">
        <ele>15.089</ele>
        <time>1970-01-01T06:07:07Z</time>
      </trkpt>
      <trkpt lat="40.040821" lon="0.043544">
        <ele>15.006</ele>
        <time>1970-01-01T06:07:08Z</time>
      </trkpt>
      <trkpt lat="40.040794" lon="0.043475">
        <ele>15.026</ele>
        <time>1970-01-01T06:07:09Z</time>
      </trkpt>
      <trkpt lat="40.040766" lon="0.043404">
        <ele>15.008</ele>
        <time>1970-01-01T06:07:10Z</time>
      </trkpt>
      <trkpt lat="40.040737" lon="0.043332">
        <ele>15.035</ele>
        <time>1970-01-01T06:07:11Z</time>
      </trkpt>
      <trkpt lat="40.040708" lon="0.043258">
        <ele>15.012</ele>
        <time>1970-01-01T06:07:12Z</time>
      </trkpt>
      <trkpt lat="40.040679" lon="0.043183">
        <ele>15.043</ele>
        <time>1970-01-01T06:07:13Z</time>
      </trkpt>
      <trkpt lat="40.040649" lon="0.043109">
        <ele>15.066</ele>
        <time>1970-01-01T06:07:14Z</time>
      </trkpt>
      <trkpt lat="40.040620" lon="0.043033">
        <ele>14.946</ele>
        <time>1970-01-01T06:07:15Z</time>
      </trkpt>
      <trkpt lat="40.040592" lon="0.042956">
        <ele>14.652</ele>
        <time>1970-01-01T06:07:16Z</time>
      </trkpt>
      <trkpt lat="40.040563" lon="0.042880">
        <ele>14.446</ele>
        <time>1970-01-01T06:07:17Z</time>
      </trkpt>
      <trkpt lat="40.040531" lon="0.042805">
        <ele>14.257</ele>
        <time>1970-01-01T06:07:18Z</time>
      </trkpt>
      <trkpt lat="40.040501" lon="0.042730">
        <ele>14.238</ele>
        <time>1970-01-01T06:07:19Z</time>
      </trkpt>
      <trkpt lat="40.040471" lon="0.042655">
        <ele>14.370</ele>
        <time>1970-01-01T06:07:20Z</time>
      </trkpt>
      <trkpt lat="40.040442" lon="0.042578">
        <ele>14.417</ele>
        <time>1970-01-01T06:07:21Z</time>
      </trkpt>
      <trkpt lat="40.040414" lon="0.042501">
        <ele>14.508</ele>
        <time>1970-01-01T06:07:22Z</time>
      </trkpt>
      <trkpt lat="40.040384" lon="0.042425">
        <ele>14.590</ele>
        <time>1970-01-01T06:07:23Z</time>
      </trkpt>
      <trkpt lat="40.040354" lon="0.042349">
        <ele>14.667</ele>
        <time>1970-01-01T06:07:24Z</time>
      </trkpt>
      <trkpt lat="40.040324" lon="0.042273">
        <ele>14.748</ele>
        <time>1970-01-01T06:07:25Z</time>
      </trkpt>
      <trkpt lat="40.040294" lon="0.042197">
        <ele>14.971</ele>
        <time>1970-01-01T06:07:26Z</time>
      </trkpt>
      <trkpt lat="40.040263" lon="0.042121">
        <ele>15.091</ele>
        <time>1970-01-01T06:07:27Z</time>
      </trkpt>
      <trkpt lat="40.040233" lon="0.042045">
        <ele>15.017</ele>
        <time>1970-01-01T06:07:28Z</time>
      </trkpt>
      <trkpt lat="40.040203" lon="0.041970">
        <ele>15.081</ele>
        <time>1970-01-01T06:07:29Z</time>
      </trkpt>
      <trkpt lat="40.040174" lon="0.041893">
        <ele>15.032</ele>
        <time>1970-01-01T06:07:30Z</time>
      </trkpt>
      <trkpt lat="40.040147" lon="0.041818">
        <ele>15.088</ele>
        <time>1970-01-01T06:07:31Z</time>
      </trkpt>
      <trkpt lat="40.040118" lon="0.041744">
        <ele>15.024</ele>
        <time>1970-01-01T06:07:32Z</time>
      </trkpt>
      <trkpt lat="40.040090" lon="0.041669">
        <ele>15.026</ele>
        <time>1970-01-01T06:07:33Z</time>
      </trkpt>
      <trkpt lat="40.040061" lon="0.041594">
        <ele>14.808</ele>
        <time>1970-01-01T06:07:34Z</time>
      </trkpt>
      <trkpt lat="40.040032" lon="0.041519">
        <ele>14.565</ele>
        <time>1970-01-01T06:07:35Z</time>
      </trkpt>
      <trkpt lat="40.040003" lon="0.041446">
        <ele>14.222</ele>
        <time>1970-01-01T06:07:36Z</time>
      </trkpt>
      <trkpt lat="40.039977" lon="0.041373">
        <ele>14.053</ele>
        <time>1970-01-01T06:07:37Z</time>
      </trkpt>
      <trkpt lat="40.039953" lon="0.041299">
        <ele>14.026</ele>
        <time>1970-01-01T06:07:38Z</time>
      </trkpt>
      <trkpt lat="40.039937" lon="0.041228">
        <ele>14.096</ele>
        <time>1970-01-01T06:07:39Z</time>
      </trkpt>
      <trkpt lat="40.039931" lon="0.041158">
        <ele>14.032</ele>
        <time>1970-01-01T06:07:40Z</time>
      </trkpt>
      <trkpt lat="40.039938" lon="0.041087">
        <ele>14.046</ele>
        <time>1970-01-01T06:07:41Z</time>
      </trkpt>
      <trkpt lat="40.039946" lon="0.041016">
        <ele>14.077</ele>
        <time>1970-01-01T06:07:42Z</time>
      </trkpt>
      <trkpt lat="40.039939" lon="0.040943">
        <ele>14.049</ele>
        <time>1970-01-01T06:07:43Z</time>
      </trkpt>
      <trkpt lat="40.039919" lon="0.040869">
        <ele>14.002</ele>
        <time>1970-01-01T06:07:44Z</time>
      </trkpt>
      <trkpt lat="40.039891" lon="0.040792">
        <ele>14.022</ele>
        <time>1970-01-01T06:07:45Z</time>
      </trkpt>
      <trkpt lat="40.039859" lon="0.040725">
        <ele>14.008</ele>
        <time>1970-01-01T06:07:46Z</time>
      </trkpt>
      <trkpt lat="40.039829" lon="0.040665">
        <ele>14.041</ele>
        <time>1970-01-01T06:07:47Z</time>
      </trkpt>
      <trkpt lat="40.039802" lon="0.040604">
        <ele>14.088</ele>
        <time>1970-01-01T06:07:48Z</time>
      </trkpt>
      <trkpt lat="40.039776" lon="0.040541">
        <ele>14.079</ele>
        <time>1970-01-01T06:07:49Z</time>
      </trkpt>
      <trkpt lat="40.039750" lon="0.040477">
        <ele>14.012</ele>
        <time>1970-01-01T06:07:50Z</time>
      </trkpt>
      <trkpt lat="40.039725" lon="0.040411">
        <ele>14.012</ele>
        <time>1970-01-01T06:07:51Z</time>
      </trkpt>
      <trkpt lat="40.039700" lon="0.040343">
        <ele>14.158</ele>
        <time>1970-01-01T06:07:52Z</time>
      </trkpt>
      <trkpt lat="40.039676" lon="0.040274">
        <ele>14.292</ele>
        <time>1970-01-01T06:07:53Z</time>
      </trkpt>
      <trkpt lat="40.039651" lon="0.040205">
        <ele>14.553</ele>
        <time>1970-01-01T06:07:54Z</time>
      </trkpt>
      <trkpt lat="40.039623" lon="0.040137">
        <ele>14.719</ele>
        <time>1970-01-01T06:07:55Z</time>
      </trkpt>
      <trkpt lat="40.039594" lon="0.040069">
        <ele>14.909</ele>
        <time>1970-01-01T06:07:56Z</time>
      </trkpt>
      <trkpt lat="40.039564" lon="0.040002">
        <ele>15.019</ele>
        <time>1970-01-01T06:07:57Z</time>
      </trkpt>
      <trkpt lat="40.039535" lon="0.039933">
        <ele>15.008</ele>
        <time>1970-01-01T06:07:58Z</time>
      </trkpt>
      <trkpt lat="40.039507" lon="0.039863">
        <ele>15.038</ele>
        <time>1970-01-01T06:07:59Z</time>
      </trkpt>
      <trkpt lat="40.039481" lon="0.039792">
        <ele>15.095</ele>
        <time>1970-01-01T06:08:00Z</time>
      </trkpt>
      <trkpt lat="40.039455" lon="0.039723">
        <ele>15.016</ele>
        <time>1970-01-01T06:08:01Z</time>
      </trkpt>
      <trkpt lat="40.039432" lon="0.039656">
        <ele>14.929</ele>
        <time>1970-01-01T06:08:02Z</time>
      </trkpt>
      <trkpt lat="40.039408" lon="0.039590">
        <ele>14.889</ele>
        <time>1970-01-01T06:08:03Z</time>
      </trkpt>
      <trkpt lat="40.039385" lon="0.039524">
        <ele>14.675</ele>
        <time>1970-01-01T06:08:04Z</time>
      </trkpt>
      <trkpt lat="40.039362" lon="0.039459">
        <ele>14.489</ele>
        <time>1970-01-01T06:08:05Z</time>
      </trkpt>
      <trkpt lat="40.039339" lon="0.039397">
        <ele>14.170</ele>
        <time>1970-01-01T06:08:06Z</time>
      </trkpt>
      <trkpt lat="40.039316" lon="0.039335">
        <ele>13.935</ele>
        <time>1970-01-01T06:08:07Z</time>
      </trkpt>
      <trkpt lat="40.039295" lon="0.039275">
        <ele>13.686</ele>
        <time>1970-01-01T06:08:08Z</time>
      </trkpt>
      <trkpt lat="40.039274" lon="0.039214">
        <ele>13.514</ele>
        <time>1970-01-01T06:08:09Z</time>
      </trkpt>
      <trkpt lat="40.039253" lon="0.039154">
        <ele>13.408</ele>
        <time>1970-01-01T06:08:10Z</time>
      </trkpt>
      <trkpt lat="40.039231" lon="0.039096">
        <ele>13.590</ele>
        <time>1970-01-01T06:08:11Z</time>
      </trkpt>
      <trkpt lat="40.039207" lon="0.039040">
        <ele>13.787</ele>
        <time>1970-01-01T06:08:12Z</time>
      </trkpt>
      <trkpt lat="40.039182" lon="0.038986">
        <ele>13.798</ele>
        <time>1970-01-01T06:08:13Z</time>
      </trkpt>
      <trkpt lat="40.039156" lon="0.038931">
        <ele>13.991</ele>
        <time>1970-01-01T06:08:14Z</time>
      </trkpt>
      <trkpt lat="40.039126" lon="0.038877">
        <ele>14.021</ele>
        <time>1970-01-01T06:08:15Z</time>
      </trkpt>
      <trkpt lat="40.039095" lon="0.038821">
        <ele>14.277</ele>
        <time>1970-01-01T06:08:16Z</time>
      </trkpt>
      <trkpt lat="40.039061" lon="0.038764">
        <ele>14.471</ele>
        <time>1970-01-01T06:08:17Z</time>
      </trkpt>
      <trkpt lat="40.039028" lon="0.038702">
        <ele>14.792</ele>
        <time>1970-01-01T06:08:18Z</time>
      </trkpt>
      <trkpt lat="40.038994" lon="0.038638">
        <ele>14.943</ele>
        <time>1970-01-01T06:08:19Z</time>
      </trkpt>
      <trkpt lat="40.038959" lon="0.038576">
        <ele>15.164</ele>
        <time>1970-01-01T06:08:20Z</time>
      </trkpt>
      <trkpt lat="40.038924" lon="0.038514">
        <ele>15.310</ele>
        <time>1970-01-01T06:08:21Z</time>
      </trkpt>
      <trkpt lat="40.038887" lon="0.038453">
        <ele>15.608</ele>
        <time>1970-01-01T06:08:22Z</time>
      </trkpt>
      <trkpt lat="40.038850" lon="0.038389">
        <ele>15.761</ele>
        <time>1970-01-01T06:08:23Z</time>
      </trkpt>
      <trkpt lat="40.038815" lon="0.038322">
        <ele>15.798</ele>
        <time>1970-01-01T06:08:24Z</time>
      </trkpt>
      <trkpt lat="40.038782" lon="0.038253">
        <ele>15.429</ele>
        <time>1970-01-01T06:08:25Z</time>
      </trkpt>
      <trkpt lat="40.038752" lon="0.038182">
        <ele>15.252</ele>
        <time>1970-01-01T06:08:26Z</time>
      </trkpt>
      <trkpt lat="40.038725" lon="0.038109">
        <ele>15.172</ele>
        <time>1970-01-01T06:08:27Z</time>
      </trkpt>
      <trkpt lat="40.038698" lon="0.038036">
        <ele>15.088</ele>
        <time>1970-01-01T06:08:28Z</time>
      </trkpt>
      <trkpt lat="40.038676" lon="0.037961">
        <ele>15.042</ele>
        <time>1970-01-01T06:08:29Z</time>
      </trkpt>
      <trkpt lat="40.038656" lon="0.037886">
        <ele>15.023</ele>
        <time>1970-01-01T06:08:30Z</time>
      </trkpt>
      <trkpt lat="40.038634" lon="0.037812">
        <ele>15.064</ele>
        <time>1970-01-01T06:08:31Z</time>
      </trkpt>
      <trkpt lat="40.038608" lon="0.037741">
        <ele>15.106</ele>
        <time>1970-01-01T06:08:32Z</time>
      </trkpt>
      <trkpt lat="40.038582" lon="0.037671">
        <ele>15.416</ele>
        <time>1970-01-01T06:08:33Z</time>
      </trkpt>
      <trkpt lat="40.038556" lon="0.037603">
        <ele>15.708</ele>
        <time>1970-01-01T06:08:34Z</time>
      </trkpt>
      <trkpt lat="40.038530" lon="0.037534">
        <ele>15.973</ele>
        <time>1970-01-01T06:08:35Z</time>
      </trkpt>
      <trkpt lat="40.038504" lon="0.037467">
        <ele>16.060</ele>
        <time>1970-01-01T06:08:36Z</time>
      </trkpt>
      <trkpt lat="40.038476" lon="0.037399">
        <ele>16.291</ele>
        <time>1970-01-01T06:08:37Z</time>
      </trkpt>
      <trkpt lat="40.038453" lon="0.037332">
        <ele>16.364</ele>
        <time>1970-01-01T06:08:38Z</time>
      </trkpt>
      <trkpt lat="40.038430" lon="0.037264">
        <ele>16.684</ele>
        <time>1970-01-01T06:08:39Z</time>
      </trkpt>
      <trkpt lat="40.038405" lon="0.037197">
        <ele>16.760</ele>
        <time>1970-01-01T06:08:40Z</time>
      </trkpt>
      <trkpt lat="40.038379" lon="0.037132">
        <ele>16.624</ele>
        <time>1970-01-01T06:08:41Z</time>
      </trkpt>
      <trkpt lat="40.038351" lon="0.037067">
        <ele>16.445</ele>
        <time>1970-01-01T06:08:42Z</time>
      </trkpt>
      <trkpt lat="40.038324" lon="0.037001">
        <ele>16.267</ele>
        <time>1970-01-01T06:08:43Z</time>
      </trkpt>
      <trkpt lat="40.038297" lon="0.036934">
        <ele>16.181</ele>
        <time>1970-01-01T06:08:44Z</time>
      </trkpt>
      <trkpt lat="40.038265" lon="0.036868">
        <ele>16.219</ele>
        <time>1970-01-01T06:08:45Z</time>
      </trkpt>
      <trkpt lat="40.038231" lon="0.036805">
        <ele>16.408</ele>
        <time>1970-01-01T06:08:46Z</time>
      </trkpt>
      <trkpt lat="40.038197" lon="0.036741">
        <ele>16.533</ele>
        <time>1970-01-01T06:08:47Z</time>
      </trkpt>
      <trkpt lat="40.038166" lon="0.036675">
        <ele>16.690</ele>
        <time>1970-01-01T06:08:48Z</time>
      </trkpt>
      <trkpt lat="40.038138" lon="0.036609">
        <ele>16.681</ele>
        <time>1970-01-01T06:08:49Z</time>
      </trkpt>
      <trkpt lat="40.038110" lon="0.036546">
        <ele>16.534</ele>
        <time>1970-01-01T06:08:50Z</time>
      </trkpt>
      <trkpt lat="40.038085" lon="0.036482">
        <ele>16.354</ele>
        <time>1970-01-01T06:08:51Z</time>
      </trkpt>
      <trkpt lat="40.038060" lon="0.036417">
        <ele>16.160</ele>
        <time>1970-01-01T06:08:52Z</time>
      </trkpt>
      <trkpt lat="40.038037" lon="0.036350">
        <ele>16.384</ele>
        <time>1970-01-01T06:08:53Z</time>
      </trkpt>
      <trkpt lat="40.038019" lon="0.036283">
        <ele>16.615</ele>
        <time>1970-01-01T06:08:54Z</time>
      </trkpt>
      <trkpt lat="40.038003" lon="0.036213">
        <ele>16.968</ele>
        <time>1970-01-01T06:08:55Z</time>
      </trkpt>
      <trkpt lat="40.037984" lon="0.036142">
        <ele>17.242</ele>
        <time>1970-01-01T06:08:56Z</time>
      </trkpt>
      <trkpt lat="40.037959" lon="0.036075">
        <ele>17.526</ele>
        <time>1970-01-01T06:08:57Z</time>
      </trkpt>
      <trkpt lat="40.037932" lon="0.036009">
        <ele>17.808</ele>
        <time>1970-01-01T06:08:58Z</time>
      </trkpt>
      <trkpt lat="40.037907" lon="0.035944">
        <ele>18.193</ele>
        <time>1970-01-01T06:08:59Z</time>
      </trkpt>
      <trkpt lat="40.037884" lon="0.035879">
        <ele>18.540</ele>
        <time>1970-01-01T06:09:00Z</time>
      </trkpt>
      <trkpt lat="40.037861" lon="0.035816">
        <ele>18.741</ele>
        <time>1970-01-01T06:09:01Z</time>
      </trkpt>
      <trkpt lat="40.037836" lon="0.035753">
        <ele>18.954</ele>
        <time>1970-01-01T06:09:02Z</time>
      </trkpt>
      <trkpt lat="40.037811" lon="0.035691">
        <ele>18.924</ele>
        <time>1970-01-01T06:09:03Z</time>
      </trkpt>
      <trkpt lat="40.037788" lon="0.035628">
        <ele>19.080</ele>
        <time>1970-01-01T06:09:04Z</time>
      </trkpt>
      <trkpt lat="40.037765" lon="0.035565">
        <ele>19.064</ele>
        <time>1970-01-01T06:09:05Z</time>
      </trkpt>
      <trkpt lat="40.037741" lon="0.035504">
        <ele>19.015</ele>
        <time>1970-01-01T06:09:06Z</time>
      </trkpt>
      <trkpt lat="40.037718" lon="0.035445">
        <ele>19.087</ele>
        <time>1970-01-01T06:09:07Z</time>
      </trkpt>
      <trkpt lat="40.037695" lon="0.035386">
        <ele>19.042</ele>
        <time>1970-01-01T06:09:08Z</time>
      </trkpt>
      <trkpt lat="40.037675" lon="0.035331">
        <ele>19.026</ele>
        <time>1970-01-01T06:09:09Z</time>
      </trkpt>
      <trkpt lat="40.037655" lon="0.035276">
        <ele>19.008</ele>
        <time>1970-01-01T06:09:10Z</time>
      </trkpt>
      <trkpt lat="40.037632" lon="0.035226">
        <ele>19.025</ele>
        <time>1970-01-01T06:09:11Z</time>
      </trkpt>
      <trkpt lat="40.037606" lon="0.035181">
        <ele>18.942</ele>
        <time>1970-01-01T06:09:12Z</time>
      </trkpt>
      <trkpt lat="40.037574" lon="0.035144">
        <ele>18.863</ele>
        <time>1970-01-01T06:09:13Z</time>
      </trkpt>
      <trkpt lat="40.037536" lon="0.035117">
        <ele>18.686</ele>
        <time>1970-01-01T06:09:14Z</time>
      </trkpt>
      <trkpt lat="40.037502" lon="0.035093">
        <ele>18.356</ele>
        <time>1970-01-01T06:09:15Z</time>
      </trkpt>
      <trkpt lat="40.037474" lon="0.035067">
        <ele>18.222</ele>
        <time>1970-01-01T06:09:16Z</time>
      </trkpt>
      <trkpt lat="40.037451" lon="0.035037">
        <ele>18.176</ele>
        <time>1970-01-01T06:09:17Z</time>
      </trkpt>
      <trkpt lat="40.037432" lon="0.035004">
        <ele>18.097</ele>
        <time>1970-01-01T06:09:18Z</time>
      </trkpt>
      <trkpt lat="40.037418" lon="0.034971">
        <ele>18.038</ele>
        <time>1970-01-01T06:09:19Z</time>
      </trkpt>
      <trkpt lat="40.037406" lon="0.034940">
        <ele>17.970</ele>
        <time>1970-01-01T06:09:20Z</time>
      </trkpt>
      <trkpt lat="40.037395" lon="0.034922">
        <ele>17.917</ele>
        <time>1970-01-01T06:09:21Z</time>
      </trkpt>
      <trkpt lat="40.037378" lon="0.034913">
        <ele>17.908</ele>
        <time>1970-01-01T06:09:22Z</time>
      </trkpt>
      <trkpt lat="40.037356" lon="0.034909">
        <ele>17.890</ele>
        <time>1970-01-01T06:09:23Z</time>
      </trkpt>
      <trkpt lat="40.037333" lon="0.034905">
        <ele>17.897</ele>
        <time>1970-01-01T06:09:24Z</time>
      </trkpt>
      <trkpt lat="40.037309" lon="0.034901">
        <ele>17.888</ele>
        <time>1970-01-01T06:09:25Z</time>
      </trkpt>
      <trkpt lat="40.037285" lon="0.034896">
        <ele>17.731</ele>
        <time>1970-01-01T06:09:26Z</time>
      </trkpt>
      <trkpt lat="40.037262" lon="0.034887">
        <ele>17.751</ele>
        <time>1970-01-01T06:09:27Z</time>
      </trkpt>
      <trkpt lat="40.037238" lon="0.034876">
        <ele>17.647</ele>
        <time>1970-01-01T06:09:28Z</time>
      </trkpt>
      <trkpt lat="40.037217" lon="0.034864">
        <ele>17.571</ele>
        <time>1970-01-01T06:09:29Z</time>
      </trkpt>
      <trkpt lat="40.037198" lon="0.034853">
        <ele>17.582</ele>
        <time>1970-01-01T06:09:30Z</time>
      </trkpt>
      <trkpt lat="40.037188" lon="0.034847">
        <ele>17.552</ele>
        <time>1970-01-01T06:09:31Z</time>
      </trkpt>
      <trkpt lat="40.037182" lon="0.034849">
        <ele>17.553</ele>
        <time>1970-01-01T06:09:32Z</time>
      </trkpt>
      <trkpt lat="40.037174" lon="0.034855">
        <ele>17.508</ele>
        <time>1970-01-01T06:09:33Z</time>
      </trkpt>
      <trkpt lat="40.037163" lon="0.034870">
        <ele>17.508</ele>
        <time>1970-01-01T06:09:34Z</time>
      </trkpt>
      <trkpt lat="40.037150" lon="0.034889">
        <ele>17.562</ele>
        <time>1970-01-01T06:09:35Z</time>
      </trkpt>
      <trkpt lat="40.037132" lon="0.034917">
        <ele>17.659</ele>
        <time>1970-01-01T06:09:36Z</time>
      </trkpt>
      <trkpt lat="40.037113" lon="0.034940">
        <ele>17.610</ele>
        <time>1970-01-01T06:09:37Z</time>
      </trkpt>
      <trkpt lat="40.037096" lon="0.034952">
        <ele>17.583</ele>
        <time>1970-01-01T06:09:38Z</time>
      </trkpt>
      <trkpt lat="40.037086" lon="0.034961">
        <ele>17.513</ele>
        <time>1970-01-01T06:09:39Z</time>
      </trkpt>
      <trkpt lat="40.037082" lon="0.034964">
        <ele>17.529</ele>
        <time>1970-01-01T06:09:40Z</time>
      </trkpt>
      <trkpt lat="40.037079" lon="0.034966">
        <ele>17.543</ele>
        <time>1970-01-01T06:09:41Z</time>
      </trkpt>
      <trkpt lat="40.037052" lon="0.035003">
        <ele>17.424</ele>
        <time>1970-01-01T06:09:59Z</time>
      </trkpt>
      <trkpt lat="40.037028" lon="0.035015">
        <ele>17.328</ele>
        <time>1970-01-01T06:10:00Z</time>
      </trkpt>
      <trkpt lat="40.037001" lon="0.035026">
        <ele>17.189</ele>
        <time>1970-01-01T06:10:01Z</time>
      </trkpt>
      <trkpt lat="40.036970" lon="0.035039">
        <ele>17.017</ele>
        <time>1970-01-01T06:10:02Z</time>
      </trkpt>
      <trkpt lat="40.036937" lon="0.035064">
        <ele>16.708</ele>
        <time>1970-01-01T06:10:03Z</time>
      </trkpt>
      <trkpt lat="40.036907" lon="0.035100">
        <ele>16.489</ele>
        <time>1970-01-01T06:10:04Z</time>
      </trkpt>
      <trkpt lat="40.036879" lon="0.035145">
        <ele>16.036</ele>
        <time>1970-01-01T06:10:05Z</time>
      </trkpt>
      <trkpt lat="40.036849" lon="0.035190">
        <ele>15.667</ele>
        <time>1970-01-01T06:10:06Z</time>
      </trkpt>
      <trkpt lat="40.036814" lon="0.035231">
        <ele>15.240</ele>
        <time>1970-01-01T06:10:07Z</time>
      </trkpt>
      <trkpt lat="40.036781" lon="0.035277">
        <ele>14.860</ele>
        <time>1970-01-01T06:10:08Z</time>
      </trkpt>
      <trkpt lat="40.036750" lon="0.035331">
        <ele>14.676</ele>
        <time>1970-01-01T06:10:09Z</time>
      </trkpt>
      <trkpt lat="40.036716" lon="0.035386">
        <ele>14.450</ele>
        <time>1970-01-01T06:10:10Z</time>
      </trkpt>
      <trkpt lat="40.036677" lon="0.035442">
        <ele>14.171</ele>
        <time>1970-01-01T06:10:11Z</time>
      </trkpt>
      <trkpt lat="40.036637" lon="0.035500">
        <ele>14.014</ele>
        <time>1970-01-01T06:10:12Z</time>
      </trkpt>
      <trkpt lat="40.036595" lon="0.035558">
        <ele>14.054</ele>
        <time>1970-01-01T06:10:13Z</time>
      </trkpt>
      <trkpt lat="40.036550" lon="0.035614">
        <ele>14.009</ele>
        <time>1970-01-01T06:10:14Z</time>
      </trkpt>
      <trkpt lat="40.036504" lon="0.035669">
        <ele>14.008</ele>
        <time>1970-01-01T06:10:15Z</time>
      </trkpt>
      <trkpt lat="40.036459" lon="0.035725">
        <ele>14.028</ele>
        <time>1970-01-01T06:10:16Z</time>
      </trkpt>
      <trkpt lat="40.036412" lon="0.035780">
        <ele>14.015</ele>
        <time>1970-01-01T06:10:17Z</time>
      </trkpt>
      <trkpt lat="40.036365" lon="0.035834">
        <ele>14.046</ele>
        <time>1970-01-01T06:10:18Z</time>
      </trkpt>
      <trkpt lat="40.036317" lon="0.035889">
        <ele>13.959</ele>
        <time>1970-01-01T06:10:19Z</time>
      </trkpt>
      <trkpt lat="40.036268" lon="0.035943">
        <ele>13.869</ele>
        <time>1970-01-01T06:10:20Z</time>
      </trkpt>
      <trkpt lat="40.036217" lon="0.035994">
        <ele>13.615</ele>
        <time>1970-01-01T06:10:21Z</time>
      </trkpt>
      <trkpt lat="40.036166" lon="0.036044">
        <ele>13.439</ele>
        <time>1970-01-01T06:10:22Z</time>
      </trkpt>
      <trkpt lat="40.036116" lon="0.036096">
        <ele>13.140</ele>
        <time>1970-01-01T06:10:23Z</time>
      </trkpt>
      <trkpt lat="40.036067" lon="0.036145">
        <ele>12.975</ele>
        <time>1970-01-01T06:10:24Z</time>
      </trkpt>
      <trkpt lat="40.036013" lon="0.036187">
        <ele>12.728</ele>
        <time>1970-01-01T06:10:25Z</time>
      </trkpt>
      <trkpt lat="40.035954" lon="0.036213">
        <ele>12.620</ele>
        <time>1970-01-01T06:10:26Z</time>
      </trkpt>
      <trkpt lat="40.035895" lon="0.036221">
        <ele>12.608</ele>
        <time>1970-01-01T06:10:27Z</time>
      </trkpt>
      <trkpt lat="40.035839" lon="0.036204">
        <ele>12.754</ele>
        <time>1970-01-01T06:10:28Z</time>
      </trkpt>
      <trkpt lat="40.035786" lon="0.036162">
        <ele>12.761</ele>
        <time>1970-01-01T06:10:29Z</time>
      </trkpt>
      <trkpt lat="40.035739" lon="0.036110">
        <ele>12.752</ele>
        <time>1970-01-01T06:10:30Z</time>
      </trkpt>
      <trkpt lat="40.035694" lon="0.036058">
        <ele>12.625</ele>
        <time>1970-01-01T06:10:31Z</time>
      </trkpt>
      <trkpt lat="40.035651" lon="0.036008">
        <ele>12.685</ele>
        <time>1970-01-01T06:10:32Z</time>
      </trkpt>
      <trkpt lat="40.035609" lon="0.035965">
        <ele>12.651</ele>
        <time>1970-01-01T06:10:33Z</time>
      </trkpt>
      <trkpt lat="40.035564" lon="0.035931">
        <ele>12.775</ele>
        <time>1970-01-01T06:10:34Z</time>
      </trkpt>
      <trkpt lat="40.035514" lon="0.035921">
        <ele>12.436</ele>
        <time>1970-01-01T06:10:35Z</time>
      </trkpt>
      <trkpt lat="40.035465" lon="0.035928">
        <ele>12.116</ele>
        <time>1970-01-01T06:10:36Z</time>
      </trkpt>
      <trkpt lat="40.035415" lon="0.035936">
        <ele>11.876</ele>
        <time>1970-01-01T06:10:37Z</time>
      </trkpt>
      <trkpt lat="40.035371" lon="0.035926">
        <ele>11.613</ele>
        <time>1970-01-01T06:10:38Z</time>
      </trkpt>
      <trkpt lat="40.035347" lon="0.035887">
        <ele>11.408</ele>
        <time>1970-01-01T06:10:39Z</time>
      </trkpt>
      <trkpt lat="40.035328" lon="0.035833">
        <ele>11.458</ele>
        <time>1970-01-01T06:10:40Z</time>
      </trkpt>
      <trkpt lat="40.035311" lon="0.035775">
        <ele>11.465</ele>
        <time>1970-01-01T06:10:41Z</time>
      </trkpt>
      <trkpt lat="40.035295" lon="0.035716">
        <ele>11.556</ele>
        <time>1970-01-01T06:10:42Z</time>
      </trkpt>
      <trkpt lat="40.035279" lon="0.035657">
        <ele>11.689</ele>
        <time>1970-01-01T06:10:43Z</time>
      </trkpt>
      <trkpt lat="40.035265" lon="0.035598">
        <ele>11.889</ele>
        <time>1970-01-01T06:10:44Z</time>
      </trkpt>
      <trkpt lat="40.035252" lon="0.035534">
        <ele>11.925</ele>
        <time>1970-01-01T06:10:45Z</time>
      </trkpt>
      <trkpt lat="40.035239" lon="0.035470">
        <ele>11.949</ele>
        <time>1970-01-01T06:10:46Z</time>
      </trkpt>
      <trkpt lat="40.035225" lon="0.035409">
        <ele>11.880</ele>
        <time>1970-01-01T06:10:47Z</time>
      </trkpt>
      <trkpt lat="40.035209" lon="0.035346">
        <ele>11.885</ele>
        <time>1970-01-01T06:10:48Z</time>
      </trkpt>
      <trkpt lat="40.035192" lon="0.035284">
        <ele>11.789</ele>
        <time>1970-01-01T06:10:49Z</time>
      </trkpt>
      <trkpt lat="40.035173" lon="0.035222">
        <ele>11.717</ele>
        <time>1970-01-01T06:10:50Z</time>
      </trkpt>
      <trkpt lat="40.035154" lon="0.035159">
        <ele>11.808</ele>
        <time>1970-01-01T06:10:51Z</time>
      </trkpt>
      <trkpt lat="40.035134" lon="0.035098">
        <ele>11.865</ele>
        <time>1970-01-01T06:10:52Z</time>
      </trkpt>
      <trkpt lat="40.035116" lon="0.035036">
        <ele>11.822</ele>
        <time>1970-01-01T06:10:53Z</time>
      </trkpt>
      <trkpt lat="40.035097" lon="0.034974">
        <ele>11.833</ele>
        <time>1970-01-01T06:10:54Z</time>
      </trkpt>
      <trkpt lat="40.035078" lon="0.034911">
        <ele>11.916</ele>
        <time>1970-01-01T06:10:55Z</time>
      </trkpt>
      <trkpt lat="40.035059" lon="0.034848">
        <ele>12.066</ele>
        <time>1970-01-01T06:10:56Z</time>
      </trkpt>
      <trkpt lat="40.035038" lon="0.034786">
        <ele>12.052</ele>
        <time>1970-01-01T06:10:57Z</time>
      </trkpt>
      <trkpt lat="40.035018" lon="0.034722">
        <ele>12.176</ele>
        <time>1970-01-01T06:10:58Z</time>
      </trkpt>
      <trkpt lat="40.034997" lon="0.034656">
        <ele>12.257</ele>
        <time>1970-01-01T06:10:59Z</time>
      </trkpt>
      <trkpt lat="40.034978" lon="0.034591">
        <ele>12.479</ele>
        <time>1970-01-01T06:11:00Z</time>
      </trkpt>
      <trkpt lat="40.034957" lon="0.034526">
        <ele>12.605</ele>
        <time>1970-01-01T06:11:01Z</time>
      </trkpt>
      <trkpt lat="40.034932" lon="0.034462">
        <ele>12.725</ele>
        <time>1970-01-01T06:11:02Z</time>
      </trkpt>
      <trkpt lat="40.034908" lon="0.034398">
        <ele>12.708</ele>
        <time>1970-01-01T06:11:03Z</time>
      </trkpt>
      <trkpt lat="40.034883" lon="0.034332">
        <ele>12.624</ele>
        <time>1970-01-01T06:11:04Z</time>
      </trkpt>
      <trkpt lat="40.034859" lon="0.034268">
        <ele>12.581</ele>
        <time>1970-01-01T06:11:05Z</time>
      </trkpt>
      <trkpt lat="40.034834" lon="0.034204">
        <ele>12.412</ele>
        <time>1970-01-01T06:11:06Z</time>
      </trkpt>
      <trkpt lat="40.034810" lon="0.034140">
        <ele>12.445</ele>
        <time>1970-01-01T06:11:07Z</time>
      </trkpt>
      <trkpt lat="40.034788" lon="0.034075">
        <ele>12.575</ele>
        <time>1970-01-01T06:11:08Z</time>
      </trkpt>
      <trkpt lat="40.034767" lon="0.034010">
        <ele>12.611</ele>
        <time>1970-01-01T06:11:09Z</time>
      </trkpt>
      <trkpt lat="40.034748" lon="0.033948">
        <ele>12.895</ele>
        <time>1970-01-01T06:11:10Z</time>
      </trkpt>
      <trkpt lat="40.034730" lon="0.033888">
        <ele>13.056</ele>
        <time>1970-01-01T06:11:11Z</time>
      </trkpt>
      <trkpt lat="40.034712" lon="0.033832">
        <ele>13.219</ele>
        <time>1970-01-01T06:11:12Z</time>
      </trkpt>
      <trkpt lat="40.034694" lon="0.033780">
        <ele>13.409</ele>
        <time>1970-01-01T06:11:13Z</time>
      </trkpt>
      <trkpt lat="40.034676" lon="0.033727">
        <ele>13.619</ele>
        <time>1970-01-01T06:11:14Z</time>
      </trkpt>
      <trkpt lat="40.034656" lon="0.033675">
        <ele>13.808</ele>
        <time>1970-01-01T06:11:15Z</time>
      </trkpt>
      <trkpt lat="40.034637" lon="0.033621">
        <ele>14.058</ele>
        <time>1970-01-01T06:11:16Z</time>
      </trkpt>
      <trkpt lat="40.034616" lon="0.033566">
        <ele>14.125</ele>
        <time>1970-01-01T06:11:17Z</time>
      </trkpt>
      <trkpt lat="40.034596" lon="0.033509">
        <ele>14.266</ele>
        <time>1970-01-01T06:11:18Z</time>
      </trkpt>
      <trkpt lat="40.034576" lon="0.033453">
        <ele>14.379</ele>
        <time>1970-01-01T06:11:19Z</time>
      </trkpt>
      <trkpt lat="40.034556" lon="0.033397">
        <ele>14.359</ele>
        <time>1970-01-01T06:11:20Z</time>
      </trkpt>
      <trkpt lat="40.034536" lon="0.033341">
        <ele>14.345</ele>
        <time>1970-01-01T06:11:21Z</time>
      </trkpt>
      <trkpt lat="40.034515" lon="0.033284">
        <ele>14.559</ele>
        <time>1970-01-01T06:11:22Z</time>
      </trkpt>
      <trkpt lat="40.034495" lon="0.033227">
        <ele>14.650</ele>
        <time>1970-01-01T06:11:23Z</time>
      </trkpt>
      <trkpt lat="40.034474" lon="0.033168">
        <ele>14.872</ele>
        <time>1970-01-01T06:11:24Z</time>
      </trkpt>
      <trkpt lat="40.034453" lon="0.033111">
        <ele>14.913</ele>
        <time>1970-01-01T06:11:25Z</time>
      </trkpt>
      <trkpt lat="40.034431" lon="0.033056">
        <ele>14.914</ele>
        <time>1970-01-01T06:11:26Z</time>
      </trkpt>
      <trkpt lat="40.034410" lon="0.033000">
        <ele>14.908</ele>
        <time>1970-01-01T06:11:27Z</time>
      </trkpt>
      <trkpt lat="40.034388" lon="0.032943">
        <ele>14.844</ele>
        <time>1970-01-01T06:11:28Z</time>
      </trkpt>
      <trkpt lat="40.034367" lon="0.032885">
        <ele>14.761</ele>
        <time>1970-01-01T06:11:29Z</time>
      </trkpt>
      <trkpt lat="40.034346" lon="0.032825">
        <ele>14.682</ele>
        <time>1970-01-01T06:11:30Z</time>
      </trkpt>
      <trkpt lat="40.034326" lon="0.032765">
        <ele>14.645</ele>
        <time>1970-01-01T06:11:31Z</time>
      </trkpt>
      <trkpt lat="40.034306" lon="0.032704">
        <ele>14.625</ele>
        <time>1970-01-01T06:11:32Z</time>
      </trkpt>
      <trkpt lat="40.034286" lon="0.032643">
        <ele>14.681</ele>
        <time>1970-01-01T06:11:33Z</time>
      </trkpt>
      <trkpt lat="40.034263" lon="0.032583">
        <ele>14.675</ele>
        <time>1970-01-01T06:11:34Z</time>
      </trkpt>
      <trkpt lat="40.034241" lon="0.032523">
        <ele>14.566</ele>
        <time>1970-01-01T06:11:35Z</time>
      </trkpt>
      <trkpt lat="40.034220" lon="0.032462">
        <ele>14.511</ele>
        <time>1970-01-01T06:11:36Z</time>
      </trkpt>
      <trkpt lat="40.034200" lon="0.032402">
        <ele>14.621</ele>
        <time>1970-01-01T06:11:37Z</time>
      </trkpt>
      <trkpt lat="40.034179" lon="0.032340">
        <ele>14.603</ele>
        <time>1970-01-01T06:11:38Z</time>
      </trkpt>
      <trkpt lat="40.034159" lon="0.032279">
        <ele>14.808</ele>
        <time>1970-01-01T06:11:39Z</time>
      </trkpt>
      <trkpt lat="40.034137" lon="0.032220">
        <ele>15.098</ele>
        <time>1970-01-01T06:11:40Z</time>
      </trkpt>
      <trkpt lat="40.034114" lon="0.032161">
        <ele>15.015</ele>
        <time>1970-01-01T06:11:41Z</time>
      </trkpt>
      <trkpt lat="40.034093" lon="0.032101">
        <ele>15.196</ele>
        <time>1970-01-01T06:11:42Z</time>
      </trkpt>
      <trkpt lat="40.034072" lon="0.032041">
        <ele>15.229</ele>
        <time>1970-01-01T06:11:43Z</time>
      </trkpt>
      <trkpt lat="40.034051" lon="0.031981">
        <ele>15.499</ele>
        <time>1970-01-01T06:11:44Z</time>
      </trkpt>
      <trkpt lat="40.034029" lon="0.031922">
        <ele>15.525</ele>
        <time>1970-01-01T06:11:45Z</time>
      </trkpt>
      <trkpt lat="40.034009" lon="0.031862">
        <ele>15.649</ele>
        <time>1970-01-01T06:11:46Z</time>
      </trkpt>
      <trkpt lat="40.033987" lon="0.031804">
        <ele>15.620</ele>
        <time>1970-01-01T06:11:47Z</time>
      </trkpt>
      <trkpt lat="40.033965" lon="0.031745">
        <ele>15.724</ele>
        <time>1970-01-01T06:11:48Z</time>
      </trkpt>
      <trkpt lat="40.033943" lon="0.031686">
        <ele>15.804</ele>
        <time>1970-01-01T06:11:49Z</time>
      </trkpt>
      <trkpt lat="40.033922" lon="0.031626">
        <ele>15.714</ele>
        <time>1970-01-01T06:11:50Z</time>
      </trkpt>
      <trkpt lat="40.033901" lon="0.031566">
        <ele>15.608</ele>
        <time>1970-01-01T06:11:51Z</time>
      </trkpt>
      <trkpt lat="40.033880" lon="0.031505">
        <ele>15.479</ele>
        <time>1970-01-01T06:11:52Z</time>
      </trkpt>
      <trkpt lat="40.033858" lon="0.031443">
        <ele>15.246</ele>
        <time>1970-01-01T06:11:53Z</time>
      </trkpt>
      <trkpt lat="40.033836" lon="0.031380">
        <ele>15.077</ele>
        <time>1970-01-01T06:11:54Z</time>
      </trkpt>
      <trkpt lat="40.033814" lon="0.031316">
        <ele>14.730</ele>
        <time>1970-01-01T06:11:55Z</time>
      </trkpt>
      <trkpt lat="40.033791" lon="0.031253">
        <ele>14.530</ele>
        <time>1970-01-01T06:11:56Z</time>
      </trkpt>
      <trkpt lat="40.033769" lon="0.031192">
        <ele>14.366</ele>
        <time>1970-01-01T06:11:57Z</time>
      </trkpt>
      <trkpt lat="40.033746" lon="0.031131">
        <ele>14.150</ele>
        <time>1970-01-01T06:11:58Z</time>
      </trkpt>
      <trkpt lat="40.033724" lon="0.031069">
        <ele>14.171</ele>
        <time>1970-01-01T06:11:59Z</time>
      </trkpt>
      <trkpt lat="40.033704" lon="0.031007">
        <ele>14.265</ele>
        <time>1970-01-01T06:12:00Z</time>
      </trkpt>
      <trkpt lat="40.033683" lon="0.030947">
        <ele>14.468</ele>
        <time>1970-01-01T06:12:01Z</time>
      </trkpt>
      <trkpt lat="40.033661" lon="0.030886">
        <ele>14.714</ele>
        <time>1970-01-01T06:12:02Z</time>
      </trkpt>
      <trkpt lat="40.033639" lon="0.030826">
        <ele>14.908</ele>
        <time>1970-01-01T06:12:03Z</time>
      </trkpt>
      <trkpt lat="40.033616" lon="0.030765">
        <ele>15.073</ele>
        <time>1970-01-01T06:12:04Z</time>
      </trkpt>
      <trkpt lat="40.033593" lon="0.030705">
        <ele>15.090</ele>
        <time>1970-01-01T06:12:05Z</time>
      </trkpt>
      <trkpt lat="40.033570" lon="0.030644">
        <ele>15.161</ele>
        <time>1970-01-01T06:12:06Z</time>
      </trkpt>
      <trkpt lat="40.033547" lon="0.030583">
        <ele>15.284</ele>
        <time>1970-01-01T06:12:07Z</time>
      </trkpt>
      <trkpt lat="40.033525" lon="0.030523">
        <ele>15.344</ele>
        <time>1970-01-01T06:12:08Z</time>
      </trkpt>
      <trkpt lat="40.033503" lon="0.030463">
        <ele>15.450</ele>
        <time>1970-01-01T06:12:09Z</time>
      </trkpt>
      <trkpt lat="40.033483" lon="0.030402">
        <ele>15.524</ele>
        <time>1970-01-01T06:12:10Z</time>
      </trkpt>
      <trkpt lat="40.033462" lon="0.030340">
        <ele>15.575</ele>
        <time>1970-01-01T06:12:11Z</time>
      </trkpt>
      <trkpt lat="40.033441" lon="0.030279">
        <ele>15.655</ele>
        <time>1970-01-01T06:12:12Z</time>
      </trkpt>
      <trkpt lat="40.033419" lon="0.030218">
        <ele>15.507</ele>
        <time>1970-01-01T06:12:13Z</time>
      </trkpt>
      <trkpt lat="40.033397" lon="0.030159">
        <ele>15.417</ele>
        <time>1970-01-01T06:12:14Z</time>
      </trkpt>
      <trkpt lat="40.033374" lon="0.030102">
        <ele>15.308</ele>
        <time>1970-01-01T06:12:15Z</time>
      </trkpt>
      <trkpt lat="40.033351" lon="0.030046">
        <ele>15.242</ele>
        <time>1970-01-01T06:12:16Z</time>
      </trkpt>
      <trkpt lat="40.033327" lon="0.029990">
        <ele>15.049</ele>
        <time>1970-01-01T06:12:17Z</time>
      </trkpt>
      <trkpt lat="40.033303" lon="0.029935">
        <ele>15.040</ele>
        <time>1970-01-01T06:12:18Z</time>
      </trkpt>
      <trkpt lat="40.033279" lon="0.029879">
        <ele>15.043</ele>
        <time>1970-01-01T06:12:19Z</time>
      </trkpt>
      <trkpt lat="40.033254" lon="0.029824">
        <ele>15.023</ele>
        <time>1970-01-01T06:12:20Z</time>
      </trkpt>
      <trkpt lat="40.033230" lon="0.029771">
        <ele>15.029</ele>
        <time>1970-01-01T06:12:21Z</time>
      </trkpt>
      <trkpt lat="40.033206" lon="0.029720">
        <ele>15.063</ele>
        <time>1970-01-01T06:12:22Z</time>
      </trkpt>
      <trkpt lat="40.033181" lon="0.029670">
        <ele>15.184</ele>
        <time>1970-01-01T06:12:23Z</time>
      </trkpt>
      <trkpt lat="40.033157" lon="0.029622">
        <ele>15.161</ele>
        <time>1970-01-01T06:12:24Z</time>
      </trkpt>
      <trkpt lat="40.033137" lon="0.029578">
        <ele>15.221</ele>
        <time>1970-01-01T06:12:25Z</time>
      </trkpt>
      <trkpt lat="40.033117" lon="0.029540">
        <ele>15.113</ele>
        <time>1970-01-01T06:12:26Z</time>
      </trkpt>
      <trkpt lat="40.033101" lon="0.029505">
        <ele>15.108</ele>
        <time>1970-01-01T06:12:27Z</time>
      </trkpt>
      <trkpt lat="40.033092" lon="0.029473">
        <ele>15.133</ele>
        <time>1970-01-01T06:12:28Z</time>
      </trkpt>
      <trkpt lat="40.033091" lon="0.029442">
        <ele>15.120</ele>
        <time>1970-01-01T06:12:29Z</time>
      </trkpt>
      <trkpt lat="40.033104" lon="0.029416">
        <ele>15.281</ele>
        <time>1970-01-01T06:12:30Z</time>
      </trkpt>
      <trkpt lat="40.033126" lon="0.029394">
        <ele>15.354</ele>
        <time>1970-01-01T06:12:31Z</time>
      </trkpt>
      <trkpt lat="40.033151" lon="0.029373">
        <ele>15.354</ele>
        <time>1970-01-01T06:12:32Z</time>
      </trkpt>
      <trkpt lat="40.033179" lon="0.029353">
        <ele>15.430</ele>
        <time>1970-01-01T06:12:33Z</time>
      </trkpt>
      <trkpt lat="40.033206" lon="0.029337">
        <ele>15.574</ele>
        <time>1970-01-01T06:12:34Z</time>
      </trkpt>
      <trkpt lat="40.033236" lon="0.029320">
        <ele>15.745</ele>
        <time>1970-01-01T06:12:35Z</time>
      </trkpt>
      <trkpt lat="40.033269" lon="0.029300">
        <ele>15.851</ele>
        <time>1970-01-01T06:12:36Z</time>
      </trkpt>
      <trkpt lat="40.033308" lon="0.029280">
        <ele>15.901</ele>
        <time>1970-01-01T06:12:37Z</time>
      </trkpt>
      <trkpt lat="40.033348" lon="0.029258">
        <ele>16.011</ele>
        <time>1970-01-01T06:12:38Z</time>
      </trkpt>
      <trkpt lat="40.033389" lon="0.029235">
        <ele>16.208</ele>
        <time>1970-01-01T06:12:39Z</time>
      </trkpt>
      <trkpt lat="40.033430" lon="0.029210">
        <ele>16.372</ele>
        <time>1970-01-01T06:12:40Z</time>
      </trkpt>
      <trkpt lat="40.033470" lon="0.029183">
        <ele>16.519</ele>
        <time>1970-01-01T06:12:41Z</time>
      </trkpt>
      <trkpt lat="40.033510" lon="0.029152">
        <ele>16.730</ele>
        <time>1970-01-01T06:12:42Z</time>
      </trkpt>
      <trkpt lat="40.033550" lon="0.029122">
        <ele>16.923</ele>
        <time>1970-01-01T06:12:43Z</time>
      </trkpt>
      <trkpt lat="40.033592" lon="0.029095">
        <ele>17.293</ele>
        <time>1970-01-01T06:12:44Z</time>
      </trkpt>
      <trkpt lat="40.033634" lon="0.029070">
        <ele>17.369</ele>
        <time>1970-01-01T06:12:45Z</time>
      </trkpt>
      <trkpt lat="40.033677" lon="0.029044">
        <ele>17.383</ele>
        <time>1970-01-01T06:12:46Z</time>
      </trkpt>
      <trkpt lat="40.033719" lon="0.029017">
        <ele>17.434</ele>
        <time>1970-01-01T06:12:47Z</time>
      </trkpt>
      <trkpt lat="40.033761" lon="0.028991">
        <ele>17.486</ele>
        <time>1970-01-01T06:12:48Z</time>
      </trkpt>
      <trkpt lat="40.033803" lon="0.028964">
        <ele>17.560</ele>
        <time>1970-01-01T06:12:49Z</time>
      </trkpt>
      <trkpt lat="40.033845" lon="0.028938">
        <ele>17.726</ele>
        <time>1970-01-01T06:12:50Z</time>
      </trkpt>
      <trkpt lat="40.033888" lon="0.028913">
        <ele>17.808</ele>
        <time>1970-01-01T06:12:51Z</time>
      </trkpt>
      <trkpt lat="40.033930" lon="0.028885">
        <ele>17.955</ele>
        <time>1970-01-01T06:12:52Z</time>
      </trkpt>
      <trkpt lat="40.033972" lon="0.028855">
        <ele>17.922</ele>
        <time>1970-01-01T06:12:53Z</time>
      </trkpt>
      <trkpt lat="40.034013" lon="0.028824">
        <ele>18.053</ele>
        <time>1970-01-01T06:12:54Z</time>
      </trkpt>
      <trkpt lat="40.034055" lon="0.028795">
        <ele>18.126</ele>
        <time>1970-01-01T06:12:55Z</time>
      </trkpt>
      <trkpt lat="40.034097" lon="0.028767">
        <ele>18.116</ele>
        <time>1970-01-01T06:12:56Z</time>
      </trkpt>
      <trkpt lat="40.034138" lon="0.028739">
        <ele>18.282</ele>
        <time>1970-01-01T06:12:57Z</time>
      </trkpt>
      <trkpt lat="40.034177" lon="0.028709">
        <ele>18.386</ele>
        <time>1970-01-01T06:12:58Z</time>
      </trkpt>
      <trkpt lat="40.034215" lon="0.028675">
        <ele>18.577</ele>
        <time>1970-01-01T06:12:59Z</time>
      </trkpt>
      <trkpt lat="40.034251" lon="0.028637">
        <ele>18.859</ele>
        <time>1970-01-01T06:13:00Z</time>
      </trkpt>
      <trkpt lat="40.034285" lon="0.028598">
        <ele>19.003</ele>
        <time>1970-01-01T06:13:01Z</time>
      </trkpt>
      <trkpt lat="40.034318" lon="0.028556">
        <ele>19.223</ele>
        <time>1970-01-01T06:13:02Z</time>
      </trkpt>
      <trkpt lat="40.034350" lon="0.028513">
        <ele>19.408</ele>
        <time>1970-01-01T06:13:03Z</time>
      </trkpt>
      <trkpt lat="40.034381" lon="0.028471">
        <ele>19.582</ele>
        <time>1970-01-01T06:13:04Z</time>
      </trkpt>
      <trkpt lat="40.034416" lon="0.028432">
        <ele>19.659</ele>
        <time>1970-01-01T06:13:05Z</time>
      </trkpt>
      <trkpt lat="40.034449" lon="0.028393">
        <ele>19.850</ele>
        <time>1970-01-01T06:13:06Z</time>
      </trkpt>
      <trkpt lat="40.034483" lon="0.028355">
        <ele>19.923</ele>
        <time>1970-01-01T06:13:07Z</time>
      </trkpt>
      <trkpt lat="40.034518" lon="0.028322">
        <ele>20.033</ele>
        <time>1970-01-01T06:13:08Z</time>
      </trkpt>
      <trkpt lat="40.034556" lon="0.028301">
        <ele>20.149</ele>
        <time>1970-01-01T06:13:09Z</time>
      </trkpt>
      <trkpt lat="40.034594" lon="0.028300">
        <ele>20.133</ele>
        <time>1970-01-01T06:13:10Z</time>
      </trkpt>
      <trkpt lat="40.034631" lon="0.028314">
        <ele>20.174</ele>
        <time>1970-01-01T06:13:11Z</time>
      </trkpt>
      <trkpt lat="40.034668" lon="0.028335">
        <ele>20.019</ele>
        <time>1970-01-01T06:13:12Z</time>
      </trkpt>
      <trkpt lat="40.034706" lon="0.028356">
        <ele>19.909</ele>
        <time>1970-01-01T06:13:13Z</time>
      </trkpt>
      <trkpt lat="40.034748" lon="0.028378">
        <ele>19.819</ele>
        <time>1970-01-01T06:13:14Z</time>
      </trkpt>
      <trkpt lat="40.034792" lon="0.028397">
        <ele>19.608</ele>
        <time>1970-01-01T06:13:15Z</time>
      </trkpt>
      <trkpt lat="40.034835" lon="0.028413">
        <ele>19.448</ele>
        <time>1970-01-01T06:13:16Z</time>
      </trkpt>
      <trkpt lat="40.034880" lon="0.028421">
        <ele>19.335</ele>
        <time>1970-01-01T06:13:17Z</time>
      </trkpt>
      <trkpt lat="40.034926" lon="0.028418">
        <ele>19.296</ele>
        <time>1970-01-01T06:13:18Z</time>
      </trkpt>
      <trkpt lat="40.034971" lon="0.028405">
        <ele>19.199</ele>
        <time>1970-01-01T06:13:19Z</time>
      </trkpt>
      <trkpt lat="40.035013" lon="0.028380">
        <ele>19.029</ele>
        <time>1970-01-01T06:13:20Z</time>
      </trkpt>
      <trkpt lat="40.035052" lon="0.028353">
        <ele>19.085</ele>
        <time>1970-01-01T06:13:21Z</time>
      </trkpt>
      <trkpt lat="40.035088" lon="0.028327">
        <ele>19.049</ele>
        <time>1970-01-01T06:13:22Z</time>
      </trkpt>
      <trkpt lat="40.035125" lon="0.028303">
        <ele>19.250</ele>
        <time>1970-01-01T06:13:23Z</time>
      </trkpt>
      <trkpt lat="40.035166" lon="0.028275">
        <ele>19.342</ele>
        <time>1970-01-01T06:13:24Z</time>
      </trkpt>
      <trkpt lat="40.035203" lon="0.028234">
        <ele>19.522</ele>
        <time>1970-01-01T06:13:25Z</time>
      </trkpt>
      <trkpt lat="40.035225" lon="0.028179">
        <ele>19.714</ele>
        <time>1970-01-01T06:13:26Z</time>
      </trkpt>
      <trkpt lat="40.035232" lon="0.028121">
        <ele>19.908</ele>
        <time>1970-01-01T06:13:27Z</time>
      </trkpt>
      <trkpt lat="40.035240" lon="0.028063">
        <ele>20.171</ele>
        <time>1970-01-01T06:13:28Z</time>
      </trkpt>
      <trkpt lat="40.035245" lon="0.028004">
        <ele>20.518</ele>
        <time>1970-01-01T06:13:29Z</time>
      </trkpt>
      <trkpt lat="40.035245" lon="0.027944">
        <ele>20.919</ele>
        <time>1970-01-01T06:13:30Z</time>
      </trkpt>
      <trkpt lat="40.035241" lon="0.027884">
        <ele>21.342</ele>
        <time>1970-01-01T06:13:31Z</time>
      </trkpt>
      <trkpt lat="40.035232" lon="0.027823">
        <ele>21.732</ele>
        <time>1970-01-01T06:13:32Z</time>
      </trkpt>
      <trkpt lat="40.035216" lon="0.027761">
        <ele>22.128</ele>
        <time>1970-01-01T06:13:33Z</time>
      </trkpt>
      <trkpt lat="40.035191" lon="0.027701">
        <ele>22.362</ele>
        <time>1970-01-01T06:13:34Z</time>
      </trkpt>
      <trkpt lat="40.035159" lon="0.027646">
        <ele>22.573</ele>
        <time>1970-01-01T06:13:35Z</time>
      </trkpt>
      <trkpt lat="40.035121" lon="0.027599">
        <ele>22.638</ele>
        <time>1970-01-01T06:13:36Z</time>
      </trkpt>
      <trkpt lat="40.035077" lon="0.027558">
        <ele>22.870</ele>
        <time>1970-01-01T06:13:37Z</time>
      </trkpt>
      <trkpt lat="40.035027" lon="0.027525">
        <ele>22.917</ele>
        <time>1970-01-01T06:13:38Z</time>
      </trkpt>
      <trkpt lat="40.034975" lon="0.027501">
        <ele>23.008</ele>
        <time>1970-01-01T06:13:39Z</time>
      </trkpt>
      <trkpt lat="40.034919" lon="0.027486">
        <ele>22.950</ele>
        <time>1970-01-01T06:13:40Z</time>
      </trkpt>
      <trkpt lat="40.034863" lon="0.027480">
        <ele>22.987</ele>
        <time>1970-01-01T06:13:41Z</time>
      </trkpt>
      <trkpt lat="40.034805" lon="0.027474">
        <ele>22.978</ele>
        <time>1970-01-01T06:13:42Z</time>
      </trkpt>
      <trkpt lat="40.034745" lon="0.027454">
        <ele>22.891</ele>
        <time>1970-01-01T06:13:43Z</time>
      </trkpt>
      <trkpt lat="40.034690" lon="0.027421">
        <ele>22.641</ele>
        <time>1970-01-01T06:13:44Z</time>
      </trkpt>
      <trkpt lat="40.034638" lon="0.027381">
        <ele>22.417</ele>
        <time>1970-01-01T06:13:45Z</time>
      </trkpt>
      <trkpt lat="40.034586" lon="0.027339">
        <ele>22.261</ele>
        <time>1970-01-01T06:13:46Z</time>
      </trkpt>
      <trkpt lat="40.034537" lon="0.027292">
        <ele>22.112</ele>
        <time>1970-01-01T06:13:47Z</time>
      </trkpt>
      <trkpt lat="40.034491" lon="0.027242">
        <ele>22.087</ele>
        <time>1970-01-01T06:13:48Z</time>
      </trkpt>
      <trkpt lat="40.034446" lon="0.027190">
        <ele>22.042</ele>
        <time>1970-01-01T06:13:49Z</time>
      </trkpt>
      <trkpt lat="40.034400" lon="0.027136">
        <ele>21.826</ele>
        <time>1970-01-01T06:13:50Z</time>
      </trkpt>
      <trkpt lat="40.034355" lon="0.027082">
        <ele>21.708</ele>
        <time>1970-01-01T06:13:51Z</time>
      </trkpt>
      <trkpt lat="40.034309" lon="0.027028">
        <ele>21.515</ele>
        <time>1970-01-01T06:13:52Z</time>
      </trkpt>
      <trkpt lat="40.034265" lon="0.026972">
        <ele>21.472</ele>
        <time>1970-01-01T06:13:53Z</time>
      </trkpt>
      <trkpt lat="40.034220" lon="0.026912">
        <ele>21.143</ele>
        <time>1970-01-01T06:13:54Z</time>
      </trkpt>
      <trkpt lat="40.034175" lon="0.026852">
        <ele>21.036</ele>
        <time>1970-01-01T06:13:55Z</time>
      </trkpt>
      <trkpt lat="40.034130" lon="0.026793">
        <ele>20.916</ele>
        <time>1970-01-01T06:13:56Z</time>
      </trkpt>
      <trkpt lat="40.034085" lon="0.026731">
        <ele>20.822</ele>
        <time>1970-01-01T06:13:57Z</time>
      </trkpt>
      <trkpt lat="40.034040" lon="0.026668">
        <ele>20.576</ele>
        <time>1970-01-01T06:13:58Z</time>
      </trkpt>
      <trkpt lat="40.033993" lon="0.026605">
        <ele>19.937</ele>
        <time>1970-01-01T06:13:59Z</time>
      </trkpt>
      <trkpt lat="40.033945" lon="0.026543">
        <ele>19.396</ele>
        <time>1970-01-01T06:14:00Z</time>
      </trkpt>
      <trkpt lat="40.033897" lon="0.026482">
        <ele>18.731</ele>
        <time>1970-01-01T06:14:01Z</time>
      </trkpt>
      <trkpt lat="40.033847" lon="0.026422">
        <ele>18.224</ele>
        <time>1970-01-01T06:14:02Z</time>
      </trkpt>
      <trkpt lat="40.033798" lon="0.026361">
        <ele>18.008</ele>
        <time>1970-01-01T06:14:03Z</time>
      </trkpt>
      <trkpt lat="40.033749" lon="0.026298">
        <ele>18.056</ele>
        <time>1970-01-01T06:14:04Z</time>
      </trkpt>
      <trkpt lat="40.033701" lon="0.026234">
        <ele>18.053</ele>
        <time>1970-01-01T06:14:05Z</time>
      </trkpt>
      <trkpt lat="40.033651" lon="0.026171">
        <ele>18.074</ele>
        <time>1970-01-01T06:14:06Z</time>
      </trkpt>
      <trkpt lat="40.033601" lon="0.026108">
        <ele>18.087</ele>
        <time>1970-01-01T06:14:07Z</time>
      </trkpt>
      <trkpt lat="40.033552" lon="0.026045">
        <ele>18.277</ele>
        <time>1970-01-01T06:14:08Z</time>
      </trkpt>
      <trkpt lat="40.033503" lon="0.025982">
        <ele>18.323</ele>
        <time>1970-01-01T06:14:09Z</time>
      </trkpt>
      <trkpt lat="40.033454" lon="0.025918">
        <ele>18.327</ele>
        <time>1970-01-01T06:14:10Z</time>
      </trkpt>
      <trkpt lat="40.033404" lon="0.025855">
        <ele>18.298</ele>
        <time>1970-01-01T06:14:11Z</time>
      </trkpt>
      <trkpt lat="40.033354" lon="0.025791">
        <ele>18.265</ele>
        <time>1970-01-01T06:14:12Z</time>
      </trkpt>
      <trkpt lat="40.033304" lon="0.025725">
        <ele>18.368</ele>
        <time>1970-01-01T06:14:13Z</time>
      </trkpt>
      <trkpt lat="40.033253" lon="0.025660">
        <ele>18.314</ele>
        <time>1970-01-01T06:14:14Z</time>
      </trkpt>
      <trkpt lat="40.033202" lon="0.025595">
        <ele>18.408</ele>
        <time>1970-01-01T06:14:15Z</time>
      </trkpt>
      <trkpt lat="40.033152" lon="0.025531">
        <ele>18.463</ele>
        <time>1970-01-01T06:14:16Z</time>
      </trkpt>
      <trkpt lat="40.033102" lon="0.025466">
        <ele>18.570</ele>
        <time>1970-01-01T06:14:17Z</time>
      </trkpt>
      <trkpt lat="40.033052" lon="0.025400">
        <ele>18.541</ele>
        <time>1970-01-01T06:14:18Z</time>
      </trkpt>
      <trkpt lat="40.033001" lon="0.025335">
        <ele>18.674</ele>
        <time>1970-01-01T06:14:19Z</time>
      </trkpt>
      <trkpt lat="40.032949" lon="0.025271">
        <ele>18.694</ele>
        <time>1970-01-01T06:14:20Z</time>
      </trkpt>
      <trkpt lat="40.032899" lon="0.025205">
        <ele>18.650</ele>
        <time>1970-01-01T06:14:21Z</time>
      </trkpt>
      <trkpt lat="40.032847" lon="0.025139">
        <ele>18.634</ele>
        <time>1970-01-01T06:14:22Z</time>
      </trkpt>
      <trkpt lat="40.032795" lon="0.025074">
        <ele>18.845</ele>
        <time>1970-01-01T06:14:23Z</time>
      </trkpt>
      <trkpt lat="40.032743" lon="0.025007">
        <ele>18.781</ele>
        <time>1970-01-01T06:14:24Z</time>
      </trkpt>
      <trkpt lat="40.032690" lon="0.024941">
        <ele>18.261</ele>
        <time>1970-01-01T06:14:25Z</time>
      </trkpt>
      <trkpt lat="40.032639" lon="0.024875">
        <ele>17.817</ele>
        <time>1970-01-01T06:14:26Z</time>
      </trkpt>
      <trkpt lat="40.032591" lon="0.024807">
        <ele>17.408</ele>
        <time>1970-01-01T06:14:27Z</time>
      </trkpt>
      <trkpt lat="40.032541" lon="0.024741">
        <ele>17.265</ele>
        <time>1970-01-01T06:14:28Z</time>
      </trkpt>
      <trkpt lat="40.032492" lon="0.024677">
        <ele>16.812</ele>
        <time>1970-01-01T06:14:29Z</time>
      </trkpt>
      <trkpt lat="40.032444" lon="0.024613">
        <ele>16.513</ele>
        <time>1970-01-01T06:14:30Z</time>
      </trkpt>
      <trkpt lat="40.032396" lon="0.024552">
        <ele>16.246</ele>
        <time>1970-01-01T06:14:31Z</time>
      </trkpt>
      <trkpt lat="40.032349" lon="0.024493">
        <ele>16.176</ele>
        <time>1970-01-01T06:14:32Z</time>
      </trkpt>
      <trkpt lat="40.032303" lon="0.024433">
        <ele>15.982</ele>
        <time>1970-01-01T06:14:33Z</time>
      </trkpt>
      <trkpt lat="40.032258" lon="0.024374">
        <ele>15.546</ele>
        <time>1970-01-01T06:14:34Z</time>
      </trkpt>
      <trkpt lat="40.032212" lon="0.024318">
        <ele>15.187</ele>
        <time>1970-01-01T06:14:35Z</time>
      </trkpt>
      <trkpt lat="40.032167" lon="0.024263">
        <ele>14.637</ele>
        <time>1970-01-01T06:14:36Z</time>
      </trkpt>
      <trkpt lat="40.032123" lon="0.024204">
        <ele>14.249</ele>
        <time>1970-01-01T06:14:37Z</time>
      </trkpt>
      <trkpt lat="40.032079" lon="0.024143">
        <ele>14.013</ele>
        <time>1970-01-01T06:14:38Z</time>
      </trkpt>
      <trkpt lat="40.032034" lon="0.024080">
        <ele>14.008</ele>
        <time>1970-01-01T06:14:39Z</time>
      </trkpt>
      <trkpt lat="40.031988" lon="0.024018">
        <ele>14.030</ele>
        <time>1970-01-01T06:14:40Z</time>
      </trkpt>
      <trkpt lat="40.031942" lon="0.023960">
        <ele>14.087</ele>
        <time>1970-01-01T06:14:41Z</time>
      </trkpt>
      <trkpt lat="40.031895" lon="0.023903">
        <ele>13.888</ele>
        <time>1970-01-01T06:14:42Z</time>
      </trkpt>
      <trkpt lat="40.031849" lon="0.023844">
        <ele>13.641</ele>
        <time>1970-01-01T06:14:43Z</time>
      </trkpt>
      <trkpt lat="40.031803" lon="0.023785">
        <ele>13.561</ele>
        <time>1970-01-01T06:14:44Z</time>
      </trkpt>
      <trkpt lat="40.031757" lon="0.023728">
        <ele>13.527</ele>
        <time>1970-01-01T06:14:45Z</time>
      </trkpt>
      <trkpt lat="40.031711" lon="0.023670">
        <ele>13.791</ele>
        <time>1970-01-01T06:14:46Z</time>
      </trkpt>
      <trkpt lat="40.031666" lon="0.023611">
        <ele>14.022</ele>
        <time>1970-01-01T06:14:47Z</time>
      </trkpt>
      <trkpt lat="40.031620" lon="0.023553">
        <ele>14.072</ele>
        <time>1970-01-01T06:14:48Z</time>
      </trkpt>
      <trkpt lat="40.031576" lon="0.023494">
        <ele>13.913</ele>
        <time>1970-01-01T06:14:49Z</time>
      </trkpt>
      <trkpt lat="40.031532" lon="0.023435">
        <ele>13.714</ele>
        <time>1970-01-01T06:14:50Z</time>
      </trkpt>
      <trkpt lat="40.031487" lon="0.023376">
        <ele>13.508</ele>
        <time>1970-01-01T06:14:51Z</time>
      </trkpt>
      <trkpt lat="40.031442" lon="0.023317">
        <ele>13.244</ele>
        <time>1970-01-01T06:14:52Z</time>
      </trkpt>
      <trkpt lat="40.031396" lon="0.023259">
        <ele>13.071</ele>
        <time>1970-01-01T06:14:53Z</time>
      </trkpt>
      <trkpt lat="40.031349" lon="0.023200">
        <ele>12.982</ele>
        <time>1970-01-01T06:14:54Z</time>
      </trkpt>
      <trkpt lat="40.031302" lon="0.023139">
        <ele>12.715</ele>
        <time>1970-01-01T06:14:55Z</time>
      </trkpt>
      <trkpt lat="40.031256" lon="0.023076">
        <ele>12.525</ele>
        <time>1970-01-01T06:14:56Z</time>
      </trkpt>
      <trkpt lat="40.031209" lon="0.023014">
        <ele>12.411</ele>
        <time>1970-01-01T06:14:57Z</time>
      </trkpt>
      <trkpt lat="40.031161" lon="0.022952">
        <ele>12.245</ele>
        <time>1970-01-01T06:14:58Z</time>
      </trkpt>
      <trkpt lat="40.031113" lon="0.022889">
        <ele>12.066</ele>
        <time>1970-01-01T06:14:59Z</time>
      </trkpt>
      <trkpt lat="40.031065" lon="0.022826">
        <ele>11.883</ele>
        <time>1970-01-01T06:15:00Z</time>
      </trkpt>
      <trkpt lat="40.031016" lon="0.022765">
        <ele>11.725</ele>
        <time>1970-01-01T06:15:01Z</time>
      </trkpt>
      <trkpt lat="40.030968" lon="0.022703">
        <ele>11.617</ele>
        <time>1970-01-01T06:15:02Z</time>
      </trkpt>
      <trkpt lat="40.030921" lon="0.022639">
        <ele>11.508</ele>
        <time>1970-01-01T06:15:03Z</time>
      </trkpt>
      <trkpt lat="40.030874" lon="0.022575">
        <ele>11.345</ele>
        <time>1970-01-01T06:15:04Z</time>
      </trkpt>
      <trkpt lat="40.030826" lon="0.022512">
        <ele>11.092</ele>
        <time>1970-01-01T06:15:05Z</time>
      </trkpt>
      <trkpt lat="40.030776" lon="0.022451">
        <ele>10.823</ele>
        <time>1970-01-01T06:15:06Z</time>
      </trkpt>
      <trkpt lat="40.030727" lon="0.022389">
        <ele>10.586</ele>
        <time>1970-01-01T06:15:07Z</time>
      </trkpt>
      <trkpt lat="40.030679" lon="0.022327">
        <ele>10.176</ele>
        <time>1970-01-01T06:15:08Z</time>
      </trkpt>
      <trkpt lat="40.030632" lon="0.022264">
        <ele>9.732</ele>
        <time>1970-01-01T06:15:09Z</time>
      </trkpt>
      <trkpt lat="40.030584" lon="0.022200">
        <ele>9.396</ele>
        <time>1970-01-01T06:15:10Z</time>
      </trkpt>
      <trkpt lat="40.030536" lon="0.022137">
        <ele>9.257</ele>
        <time>1970-01-01T06:15:11Z</time>
      </trkpt>
      <trkpt lat="40.030486" lon="0.022072">
        <ele>9.016</ele>
        <time>1970-01-01T06:15:12Z</time>
      </trkpt>
      <trkpt lat="40.030435" lon="0.022007">
        <ele>8.976</ele>
        <time>1970-01-01T06:15:13Z</time>
      </trkpt>
      <trkpt lat="40.030385" lon="0.021941">
        <ele>8.813</ele>
        <time>1970-01-01T06:15:14Z</time>
      </trkpt>
      <trkpt lat="40.030332" lon="0.021874">
        <ele>8.608</ele>
        <time>1970-01-01T06:15:15Z</time>
      </trkpt>
      <trkpt lat="40.030279" lon="0.021806">
        <ele>8.538</ele>
        <time>1970-01-01T06:15:16Z</time>
      </trkpt>
      <trkpt lat="40.030225" lon="0.021737">
        <ele>8.655</ele>
        <time>1970-01-01T06:15:17Z</time>
      </trkpt>
      <trkpt lat="40.030169" lon="0.021667">
        <ele>8.626</ele>
        <time>1970-01-01T06:15:18Z</time>
      </trkpt>
      <trkpt lat="40.030113" lon="0.021595">
        <ele>8.359</ele>
        <time>1970-01-01T06:15:19Z</time>
      </trkpt>
      <trkpt lat="40.030056" lon="0.021522">
        <ele>7.889</ele>
        <time>1970-01-01T06:15:20Z</time>
      </trkpt>
      <trkpt lat="40.029998" lon="0.021448">
        <ele>7.255</ele>
        <time>1970-01-01T06:15:21Z</time>
      </trkpt>
      <trkpt lat="40.029940" lon="0.021374">
        <ele>6.899</ele>
        <time>1970-01-01T06:15:22Z</time>
      </trkpt>
      <trkpt lat="40.029882" lon="0.021297">
        <ele>6.690</ele>
        <time>1970-01-01T06:15:23Z</time>
      </trkpt>
      <trkpt lat="40.029823" lon="0.021219">
        <ele>6.439</ele>
        <time>1970-01-01T06:15:24Z</time>
      </trkpt>
      <trkpt lat="40.029764" lon="0.021142">
        <ele>6.201</ele>
        <time>1970-01-01T06:15:25Z</time>
      </trkpt>
      <trkpt lat="40.029703" lon="0.021065">
        <ele>6.221</ele>
        <time>1970-01-01T06:15:26Z</time>
      </trkpt>
      <trkpt lat="40.029642" lon="0.020987">
        <ele>6.308</ele>
        <time>1970-01-01T06:15:27Z</time>
      </trkpt>
      <trkpt lat="40.029582" lon="0.020909">
        <ele>6.460</ele>
        <time>1970-01-01T06:15:28Z</time>
      </trkpt>
      <trkpt lat="40.029520" lon="0.020830">
        <ele>6.377</ele>
        <time>1970-01-01T06:15:29Z</time>
      </trkpt>
      <trkpt lat="40.029460" lon="0.020752">
        <ele>6.118</ele>
        <time>1970-01-01T06:15:30Z</time>
      </trkpt>
      <trkpt lat="40.029400" lon="0.020674">
        <ele>6.011</ele>
        <time>1970-01-01T06:15:31Z</time>
      </trkpt>
      <trkpt lat="40.029340" lon="0.020597">
        <ele>6.081</ele>
        <time>1970-01-01T06:15:32Z</time>
      </trkpt>
      <trkpt lat="40.029281" lon="0.020521">
        <ele>6.157</ele>
        <time>1970-01-01T06:15:33Z</time>
      </trkpt>
      <trkpt lat="40.029223" lon="0.020444">
        <ele>6.461</ele>
        <time>1970-01-01T06:15:34Z</time>
      </trkpt>
      <trkpt lat="40.029166" lon="0.020369">
        <ele>6.762</ele>
        <time>1970-01-01T06:15:35Z</time>
      </trkpt>
      <trkpt lat="40.029107" lon="0.020296">
        <ele>6.527</ele>
        <time>1970-01-01T06:15:36Z</time>
      </trkpt>
      <trkpt lat="40.029050" lon="0.020222">
        <ele>6.268</ele>
        <time>1970-01-01T06:15:37Z</time>
      </trkpt>
      <trkpt lat="40.028993" lon="0.020147">
        <ele>5.814</ele>
        <time>1970-01-01T06:15:38Z</time>
      </trkpt>
      <trkpt lat="40.028936" lon="0.020073">
        <ele>5.308</ele>
        <time>1970-01-01T06:15:39Z</time>
      </trkpt>
      <trkpt lat="40.028879" lon="0.019999">
        <ele>4.949</ele>
        <time>1970-01-01T06:15:40Z</time>
      </trkpt>
      <trkpt lat="40.028823" lon="0.019924">
        <ele>4.546</ele>
        <time>1970-01-01T06:15:41Z</time>
      </trkpt>
      <trkpt lat="40.028767" lon="0.019851">
        <ele>4.127</ele>
        <time>1970-01-01T06:15:42Z</time>
      </trkpt>
      <trkpt lat="40.028712" lon="0.019778">
        <ele>3.720</ele>
        <time>1970-01-01T06:15:43Z</time>
      </trkpt>
      <trkpt lat="40.028656" lon="0.019706">
        <ele>3.470</ele>
        <time>1970-01-01T06:15:44Z</time>
      </trkpt>
      <trkpt lat="40.028602" lon="0.019634">
        <ele>3.316</ele>
        <time>1970-01-01T06:15:45Z</time>
      </trkpt>
      <trkpt lat="40.028548" lon="0.019564">
        <ele>3.450</ele>
        <time>1970-01-01T06:15:46Z</time>
      </trkpt>
      <trkpt lat="40.028495" lon="0.019494">
        <ele>3.521</ele>
        <time>1970-01-01T06:15:47Z</time>
      </trkpt>
      <trkpt lat="40.028442" lon="0.019426">
        <ele>3.437</ele>
        <time>1970-01-01T06:15:48Z</time>
      </trkpt>
      <trkpt lat="40.028390" lon="0.019359">
        <ele>3.449</ele>
        <time>1970-01-01T06:15:49Z</time>
      </trkpt>
      <trkpt lat="40.028338" lon="0.019292">
        <ele>3.613</ele>
        <time>1970-01-01T06:15:50Z</time>
      </trkpt>
      <trkpt lat="40.028285" lon="0.019226">
        <ele>3.608</ele>
        <time>1970-01-01T06:15:51Z</time>
      </trkpt>
      <trkpt lat="40.028231" lon="0.019160">
        <ele>3.610</ele>
        <time>1970-01-01T06:15:52Z</time>
      </trkpt>
      <trkpt lat="40.028179" lon="0.019093">
        <ele>3.677</ele>
        <time>1970-01-01T06:15:53Z</time>
      </trkpt>
      <trkpt lat="40.028126" lon="0.019026">
        <ele>3.628</ele>
        <time>1970-01-01T06:15:54Z</time>
      </trkpt>
      <trkpt lat="40.028074" lon="0.018959">
        <ele>3.821</ele>
        <time>1970-01-01T06:15:55Z</time>
      </trkpt>
      <trkpt lat="40.028021" lon="0.018891">
        <ele>3.981</ele>
        <time>1970-01-01T06:15:56Z</time>
      </trkpt>
      <trkpt lat="40.027969" lon="0.018822">
        <ele>3.747</ele>
        <time>1970-01-01T06:15:57Z</time>
      </trkpt>
      <trkpt lat="40.027918" lon="0.018751">
        <ele>3.571</ele>
        <time>1970-01-01T06:15:58Z</time>
      </trkpt>
      <trkpt lat="40.027866" lon="0.018681">
        <ele>3.352</ele>
        <time>1970-01-01T06:15:59Z</time>
      </trkpt>
      <trkpt lat="40.027813" lon="0.018612">
        <ele>3.134</ele>
        <time>1970-01-01T06:16:00Z</time>
      </trkpt>
      <trkpt lat="40.027759" lon="0.018543">
        <ele>2.955</ele>
        <time>1970-01-01T06:16:01Z</time>
      </trkpt>
      <trkpt lat="40.027704" lon="0.018474">
        <ele>2.710</ele>
        <time>1970-01-01T06:16:02Z</time>
      </trkpt>
      <trkpt lat="40.027649" lon="0.018407">
        <ele>2.508</ele>
        <time>1970-01-01T06:16:03Z</time>
      </trkpt>
      <trkpt lat="40.027595" lon="0.018340">
        <ele>2.340</ele>
        <time>1970-01-01T06:16:04Z</time>
      </trkpt>
      <trkpt lat="40.027542" lon="0.018271">
        <ele>2.047</ele>
        <time>1970-01-01T06:16:05Z</time>
      </trkpt>
      <trkpt lat="40.027490" lon="0.018202">
        <ele>1.538</ele>
        <time>1970-01-01T06:16:06Z</time>
      </trkpt>
      <trkpt lat="40.027437" lon="0.018133">
        <ele>1.371</ele>
        <time>1970-01-01T06:16:07Z</time>
      </trkpt>
      <trkpt lat="40.027384" lon="0.018064">
        <ele>1.011</ele>
        <time>1970-01-01T06:16:08Z</time>
      </trkpt>
      <trkpt lat="40.027332" lon="0.017994">
        <ele>0.957</ele>
        <time>1970-01-01T06:16:09Z</time>
      </trkpt>
      <trkpt lat="40.027278" lon="0.017926">
        <ele>0.631</ele>
        <time>1970-01-01T06:16:10Z</time>
      </trkpt>
      <trkpt lat="40.027225" lon="0.017858">
        <ele>0.392</ele>
        <time>1970-01-01T06:16:11Z</time>
      </trkpt>
      <trkpt lat="40.027171" lon="0.017790">
        <ele>0.087</ele>
        <time>1970-01-01T06:16:12Z</time>
      </trkpt>
      <trkpt lat="40.027119" lon="0.017722">
        <ele>0.342</ele>
        <time>1970-01-01T06:16:13Z</time>
      </trkpt>
      <trkpt lat="40.027067" lon="0.017655">
        <ele>0.626</ele>
        <time>1970-01-01T06:16:14Z</time>
      </trkpt>
      <trkpt lat="40.027018" lon="0.017591">
        <ele>0.808</ele>
        <time>1970-01-01T06:16:15Z</time>
      </trkpt>
      <trkpt lat="40.026968" lon="0.017525">
        <ele>1.045</ele>
        <time>1970-01-01T06:16:16Z</time>
      </trkpt>
      <trkpt lat="40.026919" lon="0.017460">
        <ele>1.272</ele>
        <time>1970-01-01T06:16:17Z</time>
      </trkpt>
      <trkpt lat="40.026868" lon="0.017393">
        <ele>1.453</ele>
        <time>1970-01-01T06:16:18Z</time>
      </trkpt>
      <trkpt lat="40.026818" lon="0.017327">
        <ele>1.576</ele>
        <time>1970-01-01T06:16:19Z</time>
      </trkpt>
      <trkpt lat="40.026765" lon="0.017261">
        <ele>1.566</ele>
        <time>1970-01-01T06:16:20Z</time>
      </trkpt>
      <trkpt lat="40.026711" lon="0.017196">
        <ele>1.482</ele>
        <time>1970-01-01T06:16:21Z</time>
      </trkpt>
      <trkpt lat="40.026657" lon="0.017130">
        <ele>1.446</ele>
        <time>1970-01-01T06:16:22Z</time>
      </trkpt>
      <trkpt lat="40.026606" lon="0.017063">
        <ele>1.747</ele>
        <time>1970-01-01T06:16:23Z</time>
      </trkpt>
      <trkpt lat="40.026555" lon="0.016996">
        <ele>1.965</ele>
        <time>1970-01-01T06:16:24Z</time>
      </trkpt>
      <trkpt lat="40.026507" lon="0.016928">
        <ele>2.068</ele>
        <time>1970-01-01T06:16:25Z</time>
      </trkpt>
      <trkpt lat="40.026461" lon="0.016860">
        <ele>2.114</ele>
        <time>1970-01-01T06:16:26Z</time>
      </trkpt>
      <trkpt lat="40.026415" lon="0.016792">
        <ele>2.108</ele>
        <time>1970-01-01T06:16:27Z</time>
      </trkpt>
      <trkpt lat="40.026370" lon="0.016724">
        <ele>2.083</ele>
        <time>1970-01-01T06:16:28Z</time>
      </trkpt>
      <trkpt lat="40.026326" lon="0.016657">
        <ele>2.040</ele>
        <time>1970-01-01T06:16:29Z</time>
      </trkpt>
      <trkpt lat="40.026282" lon="0.016589">
        <ele>2.061</ele>
        <time>1970-01-01T06:16:30Z</time>
      </trkpt>
      <trkpt lat="40.026237" lon="0.016523">
        <ele>2.024</ele>
        <time>1970-01-01T06:16:31Z</time>
      </trkpt>
      <trkpt lat="40.026194" lon="0.016456">
        <ele>2.014</ele>
        <time>1970-01-01T06:16:32Z</time>
      </trkpt>
      <trkpt lat="40.026152" lon="0.016389">
        <ele>2.040</ele>
        <time>1970-01-01T06:16:33Z</time>
      </trkpt>
      <trkpt lat="40.026114" lon="0.016322">
        <ele>1.884</ele>
        <time>1970-01-01T06:16:34Z</time>
      </trkpt>
      <trkpt lat="40.026079" lon="0.016254">
        <ele>1.615</ele>
        <time>1970-01-01T06:16:35Z</time>
      </trkpt>
      <trkpt lat="40.026050" lon="0.016180">
        <ele>1.492</ele>
        <time>1970-01-01T06:16:36Z</time>
      </trkpt>
      <trkpt lat="40.026031" lon="0.016106">
        <ele>1.373</ele>
        <time>1970-01-01T06:16:37Z</time>
      </trkpt>
      <trkpt lat="40.026019" lon="0.016030">
        <ele>1.320</ele>
        <time>1970-01-01T06:16:38Z</time>
      </trkpt>
      <trkpt lat="40.026007" lon="0.015953">
        <ele>1.408</ele>
        <time>1970-01-01T06:16:39Z</time>
      </trkpt>
      <trkpt lat="40.025997" lon="0.015880">
        <ele>1.416</ele>
        <time>1970-01-01T06:16:40Z</time>
      </trkpt>
      <trkpt lat="40.025989" lon="0.015806">
        <ele>1.473</ele>
        <time>1970-01-01T06:16:41Z</time>
      </trkpt>
      <trkpt lat="40.025979" lon="0.015730">
        <ele>1.534</ele>
        <time>1970-01-01T06:16:42Z</time>
      </trkpt>
      <trkpt lat="40.025964" lon="0.015657">
        <ele>1.557</ele>
        <time>1970-01-01T06:16:43Z</time>
      </trkpt>
      <trkpt lat="40.025944" lon="0.015586">
        <ele>1.697</ele>
        <time>1970-01-01T06:16:44Z</time>
      </trkpt>
      <trkpt lat="40.025918" lon="0.015520">
        <ele>1.653</ele>
        <time>1970-01-01T06:16:45Z</time>
      </trkpt>
      <trkpt lat="40.025883" lon="0.015463">
        <ele>1.547</ele>
        <time>1970-01-01T06:16:46Z</time>
      </trkpt>
      <trkpt lat="40.025840" lon="0.015427">
        <ele>1.558</ele>
        <time>1970-01-01T06:16:47Z</time>
      </trkpt>
      <trkpt lat="40.025792" lon="0.015409">
        <ele>1.312</ele>
        <time>1970-01-01T06:16:48Z</time>
      </trkpt>
      <trkpt lat="40.025745" lon="0.015396">
        <ele>1.132</ele>
        <time>1970-01-01T06:16:49Z</time>
      </trkpt>
      <trkpt lat="40.025696" lon="0.015386">
        <ele>0.905</ele>
        <time>1970-01-01T06:16:50Z</time>
      </trkpt>
      <trkpt lat="40.025645" lon="0.015378">
        <ele>0.708</ele>
        <time>1970-01-01T06:16:51Z</time>
      </trkpt>
      <trkpt lat="40.025594" lon="0.015371">
        <ele>0.558</ele>
        <time>1970-01-01T06:16:52Z</time>
      </trkpt>
      <trkpt lat="40.025543" lon="0.015367">
        <ele>0.345</ele>
        <time>1970-01-01T06:16:53Z</time>
      </trkpt>
      <trkpt lat="40.025491" lon="0.015359">
        <ele>0.276</ele>
        <time>1970-01-01T06:16:54Z</time>
      </trkpt>
      <trkpt lat="40.025439" lon="0.015342">
        <ele>0.179</ele>
        <time>1970-01-01T06:16:55Z</time>
      </trkpt>
      <trkpt lat="40.025387" lon="0.015314">
        <ele>0.139</ele>
        <time>1970-01-01T06:16:56Z</time>
      </trkpt>
      <trkpt lat="40.025337" lon="0.015279">
        <ele>0.025</ele>
        <time>1970-01-01T06:16:57Z</time>
      </trkpt>
      <trkpt lat="40.025290" lon="0.015237">
        <ele>0.029</ele>
        <time>1970-01-01T06:16:58Z</time>
      </trkpt>
      <trkpt lat="40.025248" lon="0.015186">
        <ele>0.120</ele>
        <time>1970-01-01T06:16:59Z</time>
      </trkpt>
      <trkpt lat="40.025213" lon="0.015130">
        <ele>0.293</ele>
        <time>1970-01-01T06:17:00Z</time>
      </trkpt>
      <trkpt lat="40.025185" lon="0.015068">
        <ele>0.365</ele>
        <time>1970-01-01T06:17:01Z</time>
      </trkpt>
      <trkpt lat="40.025163" lon="0.015001">
        <ele>0.421</ele>
        <time>1970-01-01T06:17:02Z</time>
      </trkpt>
      <trkpt lat="40.025143" lon="0.014930">
        <ele>0.708</ele>
        <time>1970-01-01T06:17:03Z</time>
      </trkpt>
      <trkpt lat="40.025127" lon="0.014857">
        <ele>1.196</ele>
        <time>1970-01-01T06:17:04Z</time>
      </trkpt>
      <trkpt lat="40.025115" lon="0.014780">
        <ele>1.473</ele>
        <time>1970-01-01T06:17:05Z</time>
      </trkpt>
      <trkpt lat="40.025104" lon="0.014702">
        <ele>1.764</ele>
        <time>1970-01-01T06:17:06Z</time>
      </trkpt>
      <trkpt lat="40.025094" lon="0.014624">
        <ele>1.867</ele>
        <time>1970-01-01T06:17:07Z</time>
      </trkpt>
      <trkpt lat="40.025087" lon="0.014543">
        <ele>1.987</ele>
        <time>1970-01-01T06:17:08Z</time>
      </trkpt>
      <trkpt lat="40.025084" lon="0.014462">
        <ele>2.043</ele>
        <time>1970-01-01T06:17:09Z</time>
      </trkpt>
      <trkpt lat="40.025083" lon="0.014380">
        <ele>2.197</ele>
        <time>1970-01-01T06:17:10Z</time>
      </trkpt>
      <trkpt lat="40.025085" lon="0.014300">
        <ele>2.278</ele>
        <time>1970-01-01T06:17:11Z</time>
      </trkpt>
      <trkpt lat="40.025090" lon="0.014220">
        <ele>2.373</ele>
        <time>1970-01-01T06:17:12Z</time>
      </trkpt>
      <trkpt lat="40.025097" lon="0.014141">
        <ele>2.485</ele>
        <time>1970-01-01T06:17:13Z</time>
      </trkpt>
      <trkpt lat="40.025106" lon="0.014062">
        <ele>2.613</ele>
        <time>1970-01-01T06:17:14Z</time>
      </trkpt>
      <trkpt lat="40.025115" lon="0.013984">
        <ele>2.808</ele>
        <time>1970-01-01T06:17:15Z</time>
      </trkpt>
      <trkpt lat="40.025123" lon="0.013906">
        <ele>3.084</ele>
        <time>1970-01-01T06:17:16Z</time>
      </trkpt>
      <trkpt lat="40.025131" lon="0.013827">
        <ele>3.041</ele>
        <time>1970-01-01T06:17:17Z</time>
      </trkpt>
      <trkpt lat="40.025140" lon="0.013750">
        <ele>3.072</ele>
        <time>1970-01-01T06:17:18Z</time>
      </trkpt>
      <trkpt lat="40.025148" lon="0.013672">
        <ele>3.085</ele>
        <time>1970-01-01T06:17:19Z</time>
      </trkpt>
      <trkpt lat="40.025154" lon="0.013594">
        <ele>2.965</ele>
        <time>1970-01-01T06:17:20Z</time>
      </trkpt>
      <trkpt lat="40.025159" lon="0.013516">
        <ele>2.741</ele>
        <time>1970-01-01T06:17:21Z</time>
      </trkpt>
      <trkpt lat="40.025165" lon="0.013436">
        <ele>2.475</ele>
        <time>1970-01-01T06:17:22Z</time>
      </trkpt>
      <trkpt lat="40.025171" lon="0.013356">
        <ele>2.126</ele>
        <time>1970-01-01T06:17:23Z</time>
      </trkpt>
      <trkpt lat="40.025177" lon="0.013275">
        <ele>1.848</ele>
        <time>1970-01-01T06:17:24Z</time>
      </trkpt>
      <trkpt lat="40.025183" lon="0.013194">
        <ele>1.561</ele>
        <time>1970-01-01T06:17:25Z</time>
      </trkpt>
      <trkpt lat="40.025190" lon="0.013110">
        <ele>1.217</ele>
        <time>1970-01-01T06:17:26Z</time>
      </trkpt>
      <trkpt lat="40.025196" lon="0.013026">
        <ele>1.008</ele>
        <time>1970-01-01T06:17:27Z</time>
      </trkpt>
      <trkpt lat="40.025200" lon="0.012943">
        <ele>0.941</ele>
        <time>1970-01-01T06:17:28Z</time>
      </trkpt>
      <trkpt lat="40.025204" lon="0.012859">
        <ele>0.828</ele>
        <time>1970-01-01T06:17:29Z</time>
      </trkpt>
      <trkpt lat="40.025210" lon="0.012774">
        <ele>0.899</ele>
        <time>1970-01-01T06:17:30Z</time>
      </trkpt>
      <trkpt lat="40.025214" lon="0.012689">
        <ele>0.722</ele>
        <time>1970-01-01T06:17:31Z</time>
      </trkpt>
      <trkpt lat="40.025218" lon="0.012603">
        <ele>0.662</ele>
        <time>1970-01-01T06:17:32Z</time>
      </trkpt>
      <trkpt lat="40.025223" lon="0.012516">
        <ele>0.668</ele>
        <time>1970-01-01T06:17:33Z</time>
      </trkpt>
      <trkpt lat="40.025227" lon="0.012427">
        <ele>0.662</ele>
        <time>1970-01-01T06:17:34Z</time>
      </trkpt>
      <trkpt lat="40.025231" lon="0.012338">
        <ele>0.723</ele>
        <time>1970-01-01T06:17:35Z</time>
      </trkpt>
      <trkpt lat="40.025231" lon="0.012248">
        <ele>0.733</ele>
        <time>1970-01-01T06:17:36Z</time>
      </trkpt>
      <trkpt lat="40.025231" lon="0.012157">
        <ele>0.723</ele>
        <time>1970-01-01T06:17:37Z</time>
      </trkpt>
      <trkpt lat="40.025232" lon="0.012067">
        <ele>0.715</ele>
        <time>1970-01-01T06:17:38Z</time>
      </trkpt>
      <trkpt lat="40.025231" lon="0.011977">
        <ele>0.708</ele>
        <time>1970-01-01T06:17:39Z</time>
      </trkpt>
      <trkpt lat="40.025229" lon="0.011886">
        <ele>0.780</ele>
        <time>1970-01-01T06:17:40Z</time>
      </trkpt>
      <trkpt lat="40.025228" lon="0.011795">
        <ele>0.767</ele>
        <time>1970-01-01T06:17:41Z</time>
      </trkpt>
      <trkpt lat="40.025228" lon="0.011704">
        <ele>0.858</ele>
        <time>1970-01-01T06:17:42Z</time>
      </trkpt>
      <trkpt lat="40.025229" lon="0.011612">
        <ele>0.791</ele>
        <time>1970-01-01T06:17:43Z</time>
      </trkpt>
      <trkpt lat="40.025228" lon="0.011522">
        <ele>0.441</ele>
        <time>1970-01-01T06:17:44Z</time>
      </trkpt>
      <trkpt lat="40.025227" lon="0.011432">
        <ele>0.187</ele>
        <time>1970-01-01T06:17:45Z</time>
      </trkpt>
      <trkpt lat="40.025226" lon="0.011342">
        <ele>0.031</ele>
        <time>1970-01-01T06:17:46Z</time>
      </trkpt>
      <trkpt lat="40.025225" lon="0.011251">
        <ele>0.032</ele>
        <time>1970-01-01T06:17:47Z</time>
      </trkpt>
      <trkpt lat="40.025223" lon="0.011159">
        <ele>0.027</ele>
        <time>1970-01-01T06:17:48Z</time>
      </trkpt>
      <trkpt lat="40.025221" lon="0.011067">
        <ele>0.068</ele>
        <time>1970-01-01T06:17:49Z</time>
      </trkpt>
      <trkpt lat="40.025217" lon="0.010976">
        <ele>0.114</ele>
        <time>1970-01-01T06:17:50Z</time>
      </trkpt>
      <trkpt lat="40.025212" lon="0.010885">
        <ele>0.208</ele>
        <time>1970-01-01T06:17:51Z</time>
      </trkpt>
      <trkpt lat="40.025208" lon="0.010795">
        <ele>0.219</ele>
        <time>1970-01-01T06:17:52Z</time>
      </trkpt>
      <trkpt lat="40.025201" lon="0.010705">
        <ele>0.176</ele>
        <time>1970-01-01T06:17:53Z</time>
      </trkpt>
      <trkpt lat="40.025196" lon="0.010616">
        <ele>0.147</ele>
        <time>1970-01-01T06:17:54Z</time>
      </trkpt>
      <trkpt lat="40.025191" lon="0.010527">
        <ele>0.050</ele>
        <time>1970-01-01T06:17:55Z</time>
      </trkpt>
      <trkpt lat="40.025184" lon="0.010439">
        <ele>0.020</ele>
        <time>1970-01-01T06:17:56Z</time>
      </trkpt>
      <trkpt lat="40.025175" lon="0.010350">
        <ele>0.036</ele>
        <time>1970-01-01T06:17:57Z</time>
      </trkpt>
      <trkpt lat="40.025165" lon="0.010261">
        <ele>0.060</ele>
        <time>1970-01-01T06:17:58Z</time>
      </trkpt>
      <trkpt lat="40.025154" lon="0.010173">
        <ele>0.221</ele>
        <time>1970-01-01T06:17:59Z</time>
      </trkpt>
      <trkpt lat="40.025143" lon="0.010086">
        <ele>0.448</ele>
        <time>1970-01-01T06:18:00Z</time>
      </trkpt>
      <trkpt lat="40.025133" lon="0.009999">
        <ele>0.561</ele>
        <time>1970-01-01T06:18:01Z</time>
      </trkpt>
      <trkpt lat="40.025121" lon="0.009911">
        <ele>0.817</ele>
        <time>1970-01-01T06:18:02Z</time>
      </trkpt>
      <trkpt lat="40.025109" lon="0.009824">
        <ele>1.008</ele>
        <time>1970-01-01T06:18:03Z</time>
      </trkpt>
      <trkpt lat="40.025098" lon="0.009738">
        <ele>1.391</ele>
        <time>1970-01-01T06:18:04Z</time>
      </trkpt>
      <trkpt lat="40.025087" lon="0.009650">
        <ele>1.858</ele>
        <time>1970-01-01T06:18:05Z</time>
      </trkpt>
      <trkpt lat="40.025074" lon="0.009562">
        <ele>2.339</ele>
        <time>1970-01-01T06:18:06Z</time>
      </trkpt>
      <trkpt lat="40.025062" lon="0.009475">
        <ele>2.862</ele>
        <time>1970-01-01T06:18:07Z</time>
      </trkpt>
      <trkpt lat="40.025055" lon="0.009389">
        <ele>3.292</ele>
        <time>1970-01-01T06:18:08Z</time>
      </trkpt>
      <trkpt lat="40.025046" lon="0.009304">
        <ele>3.598</ele>
        <time>1970-01-01T06:18:09Z</time>
      </trkpt>
      <trkpt lat="40.025035" lon="0.009221">
        <ele>3.872</ele>
        <time>1970-01-01T06:18:10Z</time>
      </trkpt>
      <trkpt lat="40.025023" lon="0.009138">
        <ele>4.193</ele>
        <time>1970-01-01T06:18:11Z</time>
      </trkpt>
      <trkpt lat="40.025010" lon="0.009058">
        <ele>4.463</ele>
        <time>1970-01-01T06:18:12Z</time>
      </trkpt>
      <trkpt lat="40.024997" lon="0.008982">
        <ele>4.744</ele>
        <time>1970-01-01T06:18:13Z</time>
      </trkpt>
      <trkpt lat="40.024983" lon="0.008910">
        <ele>4.918</ele>
        <time>1970-01-01T06:18:14Z</time>
      </trkpt>
      <trkpt lat="40.024969" lon="0.008841">
        <ele>4.908</ele>
        <time>1970-01-01T06:18:15Z</time>
      </trkpt>
      <trkpt lat="40.024955" lon="0.008774">
        <ele>4.913</ele>
        <time>1970-01-01T06:18:16Z</time>
      </trkpt>
      <trkpt lat="40.024944" lon="0.008704">
        <ele>4.990</ele>
        <time>1970-01-01T06:18:17Z</time>
      </trkpt>
      <trkpt lat="40.024930" lon="0.008633">
        <ele>5.091</ele>
        <time>1970-01-01T06:18:18Z</time>
      </trkpt>
      <trkpt lat="40.024913" lon="0.008562">
        <ele>5.484</ele>
        <time>1970-01-01T06:18:19Z</time>
      </trkpt>
      <trkpt lat="40.024897" lon="0.008492">
        <ele>5.984</ele>
        <time>1970-01-01T06:18:20Z</time>
      </trkpt>
      <trkpt lat="40.024881" lon="0.008422">
        <ele>6.490</ele>
        <time>1970-01-01T06:18:21Z</time>
      </trkpt>
      <trkpt lat="40.024863" lon="0.008353">
        <ele>6.934</ele>
        <time>1970-01-01T06:18:22Z</time>
      </trkpt>
      <trkpt lat="40.024846" lon="0.008285">
        <ele>7.125</ele>
        <time>1970-01-01T06:18:23Z</time>
      </trkpt>
      <trkpt lat="40.024829" lon="0.008216">
        <ele>7.236</ele>
        <time>1970-01-01T06:18:24Z</time>
      </trkpt>
      <trkpt lat="40.024811" lon="0.008146">
        <ele>7.217</ele>
        <time>1970-01-01T06:18:25Z</time>
      </trkpt>
      <trkpt lat="40.024792" lon="0.008078">
        <ele>7.218</ele>
        <time>1970-01-01T06:18:26Z</time>
      </trkpt>
      <trkpt lat="40.024773" lon="0.008010">
        <ele>7.308</ele>
        <time>1970-01-01T06:18:27Z</time>
      </trkpt>
      <trkpt lat="40.024755" lon="0.007943">
        <ele>7.590</ele>
        <time>1970-01-01T06:18:28Z</time>
      </trkpt>
      <trkpt lat="40.024739" lon="0.007879">
        <ele>7.757</ele>
        <time>1970-01-01T06:18:29Z</time>
      </trkpt>
      <trkpt lat="40.024724" lon="0.007817">
        <ele>7.918</ele>
        <time>1970-01-01T06:18:30Z</time>
      </trkpt>
      <trkpt lat="40.024709" lon="0.007753">
        <ele>7.931</ele>
        <time>1970-01-01T06:18:31Z</time>
      </trkpt>
      <trkpt lat="40.024694" lon="0.007686">
        <ele>7.841</ele>
        <time>1970-01-01T06:18:32Z</time>
      </trkpt>
      <trkpt lat="40.024679" lon="0.007618">
        <ele>7.757</ele>
        <time>1970-01-01T06:18:33Z</time>
      </trkpt>
      <trkpt lat="40.024663" lon="0.007550">
        <ele>7.641</ele>
        <time>1970-01-01T06:18:34Z</time>
      </trkpt>
      <trkpt lat="40.024645" lon="0.007485">
        <ele>7.422</ele>
        <time>1970-01-01T06:18:35Z</time>
      </trkpt>
      <trkpt lat="40.024627" lon="0.007419">
        <ele>7.292</ele>
        <time>1970-01-01T06:18:36Z</time>
      </trkpt>
      <trkpt lat="40.024609" lon="0.007354">
        <ele>7.073</ele>
        <time>1970-01-01T06:18:37Z</time>
      </trkpt>
      <trkpt lat="40.024594" lon="0.007285">
        <ele>6.720</ele>
        <time>1970-01-01T06:18:38Z</time>
      </trkpt>
      <trkpt lat="40.024580" lon="0.007215">
        <ele>6.508</ele>
        <time>1970-01-01T06:18:39Z</time>
      </trkpt>
      <trkpt lat="40.024565" lon="0.007146">
        <ele>6.356</ele>
        <time>1970-01-01T06:18:40Z</time>
      </trkpt>
      <trkpt lat="40.024547" lon="0.007076">
        <ele>6.183</ele>
        <time>1970-01-01T06:18:41Z</time>
      </trkpt>
      <trkpt lat="40.024529" lon="0.007007">
        <ele>5.974</ele>
        <time>1970-01-01T06:18:42Z</time>
      </trkpt>
      <trkpt lat="40.024508" lon="0.006938">
        <ele>5.777</ele>
        <time>1970-01-01T06:18:43Z</time>
      </trkpt>
      <trkpt lat="40.024489" lon="0.006870">
        <ele>5.737</ele>
        <time>1970-01-01T06:18:44Z</time>
      </trkpt>
      <trkpt lat="40.024472" lon="0.006800">
        <ele>5.843</ele>
        <time>1970-01-01T06:18:45Z</time>
      </trkpt>
      <trkpt lat="40.024456" lon="0.006731">
        <ele>5.947</ele>
        <time>1970-01-01T06:18:46Z</time>
      </trkpt>
      <trkpt lat="40.024438" lon="0.006662">
        <ele>6.048</ele>
        <time>1970-01-01T06:18:47Z</time>
      </trkpt>
      <trkpt lat="40.024419" lon="0.006596">
        <ele>6.127</ele>
        <time>1970-01-01T06:18:48Z</time>
      </trkpt>
      <trkpt lat="40.024401" lon="0.006529">
        <ele>6.368</ele>
        <time>1970-01-01T06:18:49Z</time>
      </trkpt>
      <trkpt lat="40.024381" lon="0.006462">
        <ele>6.314</ele>
        <time>1970-01-01T06:18:50Z</time>
      </trkpt>
      <trkpt lat="40.024361" lon="0.006396">
        <ele>6.408</ele>
        <time>1970-01-01T06:18:51Z</time>
      </trkpt>
      <trkpt lat="40.024344" lon="0.006329">
        <ele>6.389</ele>
        <time>1970-01-01T06:18:52Z</time>
      </trkpt>
      <trkpt lat="40.024329" lon="0.006259">
        <ele>6.266</ele>
        <time>1970-01-01T06:18:53Z</time>
      </trkpt>
      <trkpt lat="40.024313" lon="0.006189">
        <ele>6.137</ele>
        <time>1970-01-01T06:18:54Z</time>
      </trkpt>
      <trkpt lat="40.024298" lon="0.006119">
        <ele>5.970</ele>
        <time>1970-01-01T06:18:55Z</time>
      </trkpt>
      <trkpt lat="40.024280" lon="0.006049">
        <ele>5.810</ele>
        <time>1970-01-01T06:18:56Z</time>
      </trkpt>
      <trkpt lat="40.024260" lon="0.005979">
        <ele>5.736</ele>
        <time>1970-01-01T06:18:57Z</time>
      </trkpt>
      <trkpt lat="40.024240" lon="0.005909">
        <ele>5.510</ele>
        <time>1970-01-01T06:18:58Z</time>
      </trkpt>
      <trkpt lat="40.024219" lon="0.005841">
        <ele>5.461</ele>
        <time>1970-01-01T06:18:59Z</time>
      </trkpt>
      <trkpt lat="40.024199" lon="0.005771">
        <ele>5.469</ele>
        <time>1970-01-01T06:19:00Z</time>
      </trkpt>
      <trkpt lat="40.024181" lon="0.005700">
        <ele>5.604</ele>
        <time>1970-01-01T06:19:01Z</time>
      </trkpt>
      <trkpt lat="40.024165" lon="0.005629">
        <ele>5.724</ele>
        <time>1970-01-01T06:19:02Z</time>
      </trkpt>
      <trkpt lat="40.024148" lon="0.005557">
        <ele>5.908</ele>
        <time>1970-01-01T06:19:03Z</time>
      </trkpt>
      <trkpt lat="40.024129" lon="0.005485">
        <ele>5.933</ele>
        <time>1970-01-01T06:19:04Z</time>
      </trkpt>
      <trkpt lat="40.024112" lon="0.005413">
        <ele>5.980</ele>
        <time>1970-01-01T06:19:05Z</time>
      </trkpt>
      <trkpt lat="40.024094" lon="0.005342">
        <ele>5.991</ele>
        <time>1970-01-01T06:19:06Z</time>
      </trkpt>
      <trkpt lat="40.024076" lon="0.005271">
        <ele>6.044</ele>
        <time>1970-01-01T06:19:07Z</time>
      </trkpt>
      <trkpt lat="40.024059" lon="0.005201">
        <ele>6.324</ele>
        <time>1970-01-01T06:19:08Z</time>
      </trkpt>
      <trkpt lat="40.024041" lon="0.005132">
        <ele>6.570</ele>
        <time>1970-01-01T06:19:09Z</time>
      </trkpt>
      <trkpt lat="40.024024" lon="0.005064">
        <ele>6.894</ele>
        <time>1970-01-01T06:19:10Z</time>
      </trkpt>
      <trkpt lat="40.024006" lon="0.004995">
        <ele>7.045</ele>
        <time>1970-01-01T06:19:11Z</time>
      </trkpt>
      <trkpt lat="40.023988" lon="0.004925">
        <ele>6.852</ele>
        <time>1970-01-01T06:19:12Z</time>
      </trkpt>
      <trkpt lat="40.023971" lon="0.004856">
        <ele>6.653</ele>
        <time>1970-01-01T06:19:13Z</time>
      </trkpt>
      <trkpt lat="40.023952" lon="0.004788">
        <ele>6.408</ele>
        <time>1970-01-01T06:19:14Z</time>
      </trkpt>
      <trkpt lat="40.023934" lon="0.004720">
        <ele>6.208</ele>
        <time>1970-01-01T06:19:15Z</time>
      </trkpt>
      <trkpt lat="40.023917" lon="0.004651">
        <ele>6.392</ele>
        <time>1970-01-01T06:19:16Z</time>
      </trkpt>
      <trkpt lat="40.023900" lon="0.004581">
        <ele>6.579</ele>
        <time>1970-01-01T06:19:17Z</time>
      </trkpt>
      <trkpt lat="40.023881" lon="0.004512">
        <ele>6.870</ele>
        <time>1970-01-01T06:19:18Z</time>
      </trkpt>
      <trkpt lat="40.023862" lon="0.004442">
        <ele>7.063</ele>
        <time>1970-01-01T06:19:19Z</time>
      </trkpt>
      <trkpt lat="40.023846" lon="0.004371">
        <ele>7.093</ele>
        <time>1970-01-01T06:19:20Z</time>
      </trkpt>
      <trkpt lat="40.023827" lon="0.004299">
        <ele>7.159</ele>
        <time>1970-01-01T06:19:21Z</time>
      </trkpt>
      <trkpt lat="40.023809" lon="0.004227">
        <ele>7.213</ele>
        <time>1970-01-01T06:19:22Z</time>
      </trkpt>
      <trkpt lat="40.023790" lon="0.004154">
        <ele>7.494</ele>
        <time>1970-01-01T06:19:23Z</time>
      </trkpt>
      <trkpt lat="40.023771" lon="0.004080">
        <ele>7.648</ele>
        <time>1970-01-01T06:19:24Z</time>
      </trkpt>
      <trkpt lat="40.023754" lon="0.004006">
        <ele>7.861</ele>
        <time>1970-01-01T06:19:25Z</time>
      </trkpt>
      <trkpt lat="40.023736" lon="0.003932">
        <ele>7.917</ele>
        <time>1970-01-01T06:19:26Z</time>
      </trkpt>
      <trkpt lat="40.023718" lon="0.003861">
        <ele>8.108</ele>
        <time>1970-01-01T06:19:27Z</time>
      </trkpt>
      <trkpt lat="40.023700" lon="0.003791">
        <ele>8.471</ele>
        <time>1970-01-01T06:19:28Z</time>
      </trkpt>
      <trkpt lat="40.023683" lon="0.003721">
        <ele>8.628</ele>
        <time>1970-01-01T06:19:29Z</time>
      </trkpt>
      <trkpt lat="40.023667" lon="0.003651">
        <ele>8.999</ele>
        <time>1970-01-01T06:19:30Z</time>
      </trkpt>
      <trkpt lat="40.023651" lon="0.003583">
        <ele>9.192</ele>
        <time>1970-01-01T06:19:31Z</time>
      </trkpt>
      <trkpt lat="40.023635" lon="0.003515">
        <ele>9.392</ele>
        <time>1970-01-01T06:19:32Z</time>
      </trkpt>
      <trkpt lat="40.023618" lon="0.003447">
        <ele>9.668</ele>
        <time>1970-01-01T06:19:33Z</time>
      </trkpt>
      <trkpt lat="40.023601" lon="0.003381">
        <ele>9.852</ele>
        <time>1970-01-01T06:19:34Z</time>
      </trkpt>
      <trkpt lat="40.023584" lon="0.003315">
        <ele>10.123</ele>
        <time>1970-01-01T06:19:35Z</time>
      </trkpt>
      <trkpt lat="40.023569" lon="0.003248">
        <ele>10.372</ele>
        <time>1970-01-01T06:19:36Z</time>
      </trkpt>
      <trkpt lat="40.023552" lon="0.003181">
        <ele>10.513</ele>
        <time>1970-01-01T06:19:37Z</time>
      </trkpt>
      <trkpt lat="40.023535" lon="0.003113">
        <ele>10.814</ele>
        <time>1970-01-01T06:19:38Z</time>
      </trkpt>
      <trkpt lat="40.023518" lon="0.003046">
        <ele>11.008</ele>
        <time>1970-01-01T06:19:39Z</time>
      </trkpt>
      <trkpt lat="40.023501" lon="0.002976">
        <ele>11.124</ele>
        <time>1970-01-01T06:19:40Z</time>
      </trkpt>
      <trkpt lat="40.023482" lon="0.002905">
        <ele>11.391</ele>
        <time>1970-01-01T06:19:41Z</time>
      </trkpt>
      <trkpt lat="40.023465" lon="0.002836">
        <ele>11.472</ele>
        <time>1970-01-01T06:19:42Z</time>
      </trkpt>
      <trkpt lat="40.023448" lon="0.002766">
        <ele>11.685</ele>
        <time>1970-01-01T06:19:43Z</time>
      </trkpt>
      <trkpt lat="40.023430" lon="0.002695">
        <ele>11.785</ele>
        <time>1970-01-01T06:19:44Z</time>
      </trkpt>
      <trkpt lat="40.023413" lon="0.002625">
        <ele>11.731</ele>
        <time>1970-01-01T06:19:45Z</time>
      </trkpt>
      <trkpt lat="40.023395" lon="0.002554">
        <ele>11.865</ele>
        <time>1970-01-01T06:19:46Z</time>
      </trkpt>
      <trkpt lat="40.023379" lon="0.002484">
        <ele>11.756</ele>
        <time>1970-01-01T06:19:47Z</time>
      </trkpt>
      <trkpt lat="40.023364" lon="0.002412">
        <ele>11.368</ele>
        <time>1970-01-01T06:19:48Z</time>
      </trkpt>
      <trkpt lat="40.023349" lon="0.002338">
        <ele>10.842</ele>
        <time>1970-01-01T06:19:49Z</time>
      </trkpt>
      <trkpt lat="40.023332" lon="0.002264">
        <ele>10.326</ele>
        <time>1970-01-01T06:19:50Z</time>
      </trkpt>
      <trkpt lat="40.023313" lon="0.002191">
        <ele>10.008</ele>
        <time>1970-01-01T06:19:51Z</time>
      </trkpt>
      <trkpt lat="40.023297" lon="0.002118">
        <ele>10.093</ele>
        <time>1970-01-01T06:19:52Z</time>
      </trkpt>
      <trkpt lat="40.023283" lon="0.002044">
        <ele>9.910</ele>
        <time>1970-01-01T06:19:53Z</time>
      </trkpt>
      <trkpt lat="40.023271" lon="0.001970">
        <ele>9.821</ele>
        <time>1970-01-01T06:19:54Z</time>
      </trkpt>
      <trkpt lat="40.023259" lon="0.001893">
        <ele>9.994</ele>
        <time>1970-01-01T06:19:55Z</time>
      </trkpt>
      <trkpt lat="40.023246" lon="0.001819">
        <ele>10.194</ele>
        <time>1970-01-01T06:19:56Z</time>
      </trkpt>
      <trkpt lat="40.023231" lon="0.001746">
        <ele>10.310</ele>
        <time>1970-01-01T06:19:57Z</time>
      </trkpt>
      <trkpt lat="40.023216" lon="0.001676">
        <ele>10.584</ele>
        <time>1970-01-01T06:19:58Z</time>
      </trkpt>
      <trkpt lat="40.023202" lon="0.001608">
        <ele>11.065</ele>
        <time>1970-01-01T06:19:59Z</time>
      </trkpt>
      <trkpt lat="40.023190" lon="0.001540">
        <ele>11.468</ele>
        <time>1970-01-01T06:20:00Z</time>
      </trkpt>
      <trkpt lat="40.023175" lon="0.001470">
        <ele>11.742</ele>
        <time>1970-01-01T06:20:01Z</time>
      </trkpt>
      <trkpt lat="40.023159" lon="0.001400">
        <ele>12.026</ele>
        <time>1970-01-01T06:20:02Z</time>
      </trkpt>
      <trkpt lat="40.023142" lon="0.001329">
        <ele>12.308</ele>
        <time>1970-01-01T06:20:03Z</time>
      </trkpt>
      <trkpt lat="40.023124" lon="0.001259">
        <ele>12.663</ele>
        <time>1970-01-01T06:20:04Z</time>
      </trkpt>
      <trkpt lat="40.023109" lon="0.001188">
        <ele>12.990</ele>
        <time>1970-01-01T06:20:05Z</time>
      </trkpt>
      <trkpt lat="40.023096" lon="0.001117">
        <ele>13.321</ele>
        <time>1970-01-01T06:20:06Z</time>
      </trkpt>
      <trkpt lat="40.023080" lon="0.001046">
        <ele>13.274</ele>
        <time>1970-01-01T06:20:07Z</time>
      </trkpt>
      <trkpt lat="40.023064" lon="0.000976">
        <ele>13.114</ele>
        <time>1970-01-01T06:20:08Z</time>
      </trkpt>
      <trkpt lat="40.023047" lon="0.000905">
        <ele>12.930</ele>
        <time>1970-01-01T06:20:09Z</time>
      </trkpt>
      <trkpt lat="40.023029" lon="0.000836">
        <ele>12.834</ele>
        <time>1970-01-01T06:20:10Z</time>
      </trkpt>
      <trkpt lat="40.023012" lon="0.000767">
        <ele>12.765</ele>
        <time>1970-01-01T06:20:11Z</time>
      </trkpt>
      <trkpt lat="40.022996" lon="0.000697">
        <ele>12.735</ele>
        <time>1970-01-01T06:20:12Z</time>
      </trkpt>
      <trkpt lat="40.022980" lon="0.000628">
        <ele>12.786</ele>
        <time>1970-01-01T06:20:13Z</time>
      </trkpt>
      <trkpt lat="40.022964" lon="0.000559">
        <ele>12.714</ele>
        <time>1970-01-01T06:20:14Z</time>
      </trkpt>
      <trkpt lat="40.022949" lon="0.000490">
        <ele>12.608</ele>
        <time>1970-01-01T06:20:15Z</time>
      </trkpt>
      <trkpt lat="40.022934" lon="0.000421">
        <ele>12.650</ele>
        <time>1970-01-01T06:20:16Z</time>
      </trkpt>
      <trkpt lat="40.022919" lon="0.000353">
        <ele>12.527</ele>
        <time>1970-01-01T06:20:17Z</time>
      </trkpt>
      <trkpt lat="40.022903" lon="0.000284">
        <ele>12.598</ele>
        <time>1970-01-01T06:20:18Z</time>
      </trkpt>
      <trkpt lat="40.022889" lon="0.000215">
        <ele>12.211</ele>
        <time>1970-01-01T06:20:19Z</time>
      </trkpt>
      <trkpt lat="40.022876" lon="0.000147">
        <ele>11.941</ele>
        <time>1970-01-01T06:20:20Z</time>
      </trkpt>
      <trkpt lat="40.022865" lon="0.000078">
        <ele>11.657</ele>
        <time>1970-01-01T06:20:21Z</time>
      </trkpt>
      <trkpt lat="40.022853" lon="0.000009">
        <ele>11.321</ele>
        <time>1970-01-01T06:20:22Z</time>
      </trkpt>
      <trkpt lat="40.022840" lon="-0.000061">
        <ele>11.182</ele>
        <time>1970-01-01T06:20:23Z</time>
      </trkpt>
      <trkpt lat="40.022825" lon="-0.000131">
        <ele>10.825</ele>
        <time>1970-01-01T06:20:24Z</time>
      </trkpt>
      <trkpt lat="40.022808" lon="-0.000200">
        <ele>10.526</ele>
        <time>1970-01-01T06:20:25Z</time>
      </trkpt>
      <trkpt lat="40.022790" lon="-0.000271">
        <ele>10.108</ele>
        <time>1970-01-01T06:20:26Z</time>
      </trkpt>
      <trkpt lat="40.022775" lon="-0.000343">
        <ele>10.208</ele>
        <time>1970-01-01T06:20:27Z</time>
      </trkpt>
      <trkpt lat="40.022762" lon="-0.000415">
        <ele>10.599</ele>
        <time>1970-01-01T06:20:28Z</time>
      </trkpt>
      <trkpt lat="40.022750" lon="-0.000488">
        <ele>10.886</ele>
        <time>1970-01-01T06:20:29Z</time>
      </trkpt>
      <trkpt lat="40.022737" lon="-0.000560">
        <ele>11.047</ele>
        <time>1970-01-01T06:20:30Z</time>
      </trkpt>
      <trkpt lat="40.022722" lon="-0.000632">
        <ele>11.040</ele>
        <time>1970-01-01T06:20:31Z</time>
      </trkpt>
      <trkpt lat="40.022706" lon="-0.000705">
        <ele>11.030</ele>
        <time>1970-01-01T06:20:32Z</time>
      </trkpt>
      <trkpt lat="40.022689" lon="-0.000778">
        <ele>11.046</ele>
        <time>1970-01-01T06:20:33Z</time>
      </trkpt>
      <trkpt lat="40.022673" lon="-0.000850">
        <ele>11.120</ele>
        <time>1970-01-01T06:20:34Z</time>
      </trkpt>
      <trkpt lat="40.022655" lon="-0.000921">
        <ele>11.511</ele>
        <time>1970-01-01T06:20:35Z</time>
      </trkpt>
      <trkpt lat="40.022636" lon="-0.000988">
        <ele>11.889</ele>
        <time>1970-01-01T06:20:36Z</time>
      </trkpt>
      <trkpt lat="40.022618" lon="-0.001054">
        <ele>12.106</ele>
        <time>1970-01-01T06:20:37Z</time>
      </trkpt>
      <trkpt lat="40.022603" lon="-0.001121">
        <ele>12.426</ele>
        <time>1970-01-01T06:20:38Z</time>
      </trkpt>
      <trkpt lat="40.022589" lon="-0.001187">
        <ele>12.608</ele>
        <time>1970-01-01T06:20:39Z</time>
      </trkpt>
      <trkpt lat="40.022576" lon="-0.001251">
        <ele>12.875</ele>
        <time>1970-01-01T06:20:40Z</time>
      </trkpt>
      <trkpt lat="40.022565" lon="-0.001316">
        <ele>13.082</ele>
        <time>1970-01-01T06:20:41Z</time>
      </trkpt>
      <trkpt lat="40.022553" lon="-0.001380">
        <ele>13.243</ele>
        <time>1970-01-01T06:20:42Z</time>
      </trkpt>
      <trkpt lat="40.022539" lon="-0.001445">
        <ele>13.086</ele>
        <time>1970-01-01T06:20:43Z</time>
      </trkpt>
      <trkpt lat="40.022526" lon="-0.001510">
        <ele>12.766</ele>
        <time>1970-01-01T06:20:44Z</time>
      </trkpt>
      <trkpt lat="40.022512" lon="-0.001574">
        <ele>12.412</ele>
        <time>1970-01-01T06:20:45Z</time>
      </trkpt>
      <trkpt lat="40.022500" lon="-0.001634">
        <ele>12.146</ele>
        <time>1970-01-01T06:20:46Z</time>
      </trkpt>
      <trkpt lat="40.022483" lon="-0.001693">
        <ele>12.077</ele>
        <time>1970-01-01T06:20:47Z</time>
      </trkpt>
      <trkpt lat="40.022463" lon="-0.001751">
        <ele>12.095</ele>
        <time>1970-01-01T06:20:48Z</time>
      </trkpt>
      <trkpt lat="40.022440" lon="-0.001806">
        <ele>11.949</ele>
        <time>1970-01-01T06:20:49Z</time>
      </trkpt>
      <trkpt lat="40.022415" lon="-0.001857">
        <ele>11.823</ele>
        <time>1970-01-01T06:20:50Z</time>
      </trkpt>
      <trkpt lat="40.022389" lon="-0.001905">
        <ele>11.708</ele>
        <time>1970-01-01T06:20:51Z</time>
      </trkpt>
      <trkpt lat="40.022372" lon="-0.001958">
        <ele>11.556</ele>
        <time>1970-01-01T06:20:52Z</time>
      </trkpt>
      <trkpt lat="40.022365" lon="-0.002014">
        <ele>11.553</ele>
        <time>1970-01-01T06:20:53Z</time>
      </trkpt>
      <trkpt lat="40.022367" lon="-0.002074">
        <ele>11.584</ele>
        <time>1970-01-01T06:20:54Z</time>
      </trkpt>
      <trkpt lat="40.022372" lon="-0.002135">
        <ele>11.557</ele>
        <time>1970-01-01T06:20:55Z</time>
      </trkpt>
      <trkpt lat="40.022373" lon="-0.002197">
        <ele>11.577</ele>
        <time>1970-01-01T06:20:56Z</time>
      </trkpt>
      <trkpt lat="40.022372" lon="-0.002263">
        <ele>11.543</ele>
        <time>1970-01-01T06:20:57Z</time>
      </trkpt>
      <trkpt lat="40.022370" lon="-0.002331">
        <ele>11.577</ele>
        <time>1970-01-01T06:20:58Z</time>
      </trkpt>
      <trkpt lat="40.022363" lon="-0.002400">
        <ele>11.588</ele>
        <time>1970-01-01T06:20:59Z</time>
      </trkpt>
      <trkpt lat="40.022358" lon="-0.002469">
        <ele>11.595</ele>
        <time>1970-01-01T06:21:00Z</time>
      </trkpt>
      <trkpt lat="40.022361" lon="-0.002542">
        <ele>11.549</ele>
        <time>1970-01-01T06:21:01Z</time>
      </trkpt>
      <trkpt lat="40.022369" lon="-0.002615">
        <ele>11.523</ele>
        <time>1970-01-01T06:21:02Z</time>
      </trkpt>
      <trkpt lat="40.022378" lon="-0.002691">
        <ele>11.608</ele>
        <time>1970-01-01T06:21:03Z</time>
      </trkpt>
      <trkpt lat="40.022382" lon="-0.002769">
        <ele>11.686</ele>
        <time>1970-01-01T06:21:04Z</time>
      </trkpt>
      <trkpt lat="40.022373" lon="-0.002848">
        <ele>11.823</ele>
        <time>1970-01-01T06:21:05Z</time>
      </trkpt>
      <trkpt lat="40.022352" lon="-0.002921">
        <ele>12.014</ele>
        <time>1970-01-01T06:21:06Z</time>
      </trkpt>
      <trkpt lat="40.022324" lon="-0.002986">
        <ele>12.157</ele>
        <time>1970-01-01T06:21:07Z</time>
      </trkpt>
      <trkpt lat="40.022291" lon="-0.003048">
        <ele>12.297</ele>
        <time>1970-01-01T06:21:08Z</time>
      </trkpt>
      <trkpt lat="40.022255" lon="-0.003108">
        <ele>12.133</ele>
        <time>1970-01-01T06:21:09Z</time>
      </trkpt>
      <trkpt lat="40.022219" lon="-0.003170">
        <ele>12.057</ele>
        <time>1970-01-01T06:21:10Z</time>
      </trkpt>
      <trkpt lat="40.022182" lon="-0.003231">
        <ele>12.048</ele>
        <time>1970-01-01T06:21:11Z</time>
      </trkpt>
      <trkpt lat="40.022149" lon="-0.003295">
        <ele>12.057</ele>
        <time>1970-01-01T06:21:12Z</time>
      </trkpt>
      <trkpt lat="40.022120" lon="-0.003362">
        <ele>12.100</ele>
        <time>1970-01-01T06:21:13Z</time>
      </trkpt>
      <trkpt lat="40.022093" lon="-0.003432">
        <ele>12.220</ele>
        <time>1970-01-01T06:21:14Z</time>
      </trkpt>
      <trkpt lat="40.022067" lon="-0.003503">
        <ele>12.308</ele>
        <time>1970-01-01T06:21:15Z</time>
      </trkpt>
      <trkpt lat="40.022045" lon="-0.003576">
        <ele>12.392</ele>
        <time>1970-01-01T06:21:16Z</time>
      </trkpt>
      <trkpt lat="40.022023" lon="-0.003649">
        <ele>12.439</ele>
        <time>1970-01-01T06:21:17Z</time>
      </trkpt>
      <trkpt lat="40.022000" lon="-0.003722">
        <ele>12.540</ele>
        <time>1970-01-01T06:21:18Z</time>
      </trkpt>
      <trkpt lat="40.021976" lon="-0.003795">
        <ele>12.783</ele>
        <time>1970-01-01T06:21:19Z</time>
      </trkpt>
      <trkpt lat="40.021954" lon="-0.003870">
        <ele>12.973</ele>
        <time>1970-01-01T06:21:20Z</time>
      </trkpt>
      <trkpt lat="40.021935" lon="-0.003945">
        <ele>13.239</ele>
        <time>1970-01-01T06:21:21Z</time>
      </trkpt>
      <trkpt lat="40.021916" lon="-0.004023">
        <ele>13.323</ele>
        <time>1970-01-01T06:21:22Z</time>
      </trkpt>
      <trkpt lat="40.021893" lon="-0.004104">
        <ele>13.484</ele>
        <time>1970-01-01T06:21:23Z</time>
      </trkpt>
      <trkpt lat="40.021868" lon="-0.004186">
        <ele>13.468</ele>
        <time>1970-01-01T06:21:24Z</time>
      </trkpt>
      <trkpt lat="40.021838" lon="-0.004267">
        <ele>13.042</ele>
        <time>1970-01-01T06:21:25Z</time>
      </trkpt>
      <trkpt lat="40.021803" lon="-0.004347">
        <ele>12.726</ele>
        <time>1970-01-01T06:21:26Z</time>
      </trkpt>
      <trkpt lat="40.021767" lon="-0.004427">
        <ele>12.408</ele>
        <time>1970-01-01T06:21:27Z</time>
      </trkpt>
      <trkpt lat="40.021731" lon="-0.004505">
        <ele>12.073</ele>
        <time>1970-01-01T06:21:28Z</time>
      </trkpt>
      <trkpt lat="40.021698" lon="-0.004583">
        <ele>11.680</ele>
        <time>1970-01-01T06:21:29Z</time>
      </trkpt>
      <trkpt lat="40.021668" lon="-0.004662">
        <ele>11.231</ele>
        <time>1970-01-01T06:21:30Z</time>
      </trkpt>
      <trkpt lat="40.021639" lon="-0.004748">
        <ele>10.884</ele>
        <time>1970-01-01T06:21:31Z</time>
      </trkpt>
      <trkpt lat="40.021607" lon="-0.004838">
        <ele>10.444</ele>
        <time>1970-01-01T06:21:32Z</time>
      </trkpt>
      <trkpt lat="40.021575" lon="-0.004927">
        <ele>9.980</ele>
        <time>1970-01-01T06:21:33Z</time>
      </trkpt>
      <trkpt lat="40.021543" lon="-0.005013">
        <ele>9.674</ele>
        <time>1970-01-01T06:21:34Z</time>
      </trkpt>
      <trkpt lat="40.021513" lon="-0.005096">
        <ele>9.425</ele>
        <time>1970-01-01T06:21:35Z</time>
      </trkpt>
      <trkpt lat="40.021484" lon="-0.005176">
        <ele>9.365</ele>
        <time>1970-01-01T06:21:36Z</time>
      </trkpt>
      <trkpt lat="40.021455" lon="-0.005254">
        <ele>9.268</ele>
        <time>1970-01-01T06:21:37Z</time>
      </trkpt>
      <trkpt lat="40.021427" lon="-0.005330">
        <ele>9.514</ele>
        <time>1970-01-01T06:21:38Z</time>
      </trkpt>
      <trkpt lat="40.021399" lon="-0.005402">
        <ele>9.908</ele>
        <time>1970-01-01T06:21:39Z</time>
      </trkpt>
      <trkpt lat="40.021373" lon="-0.005471">
        <ele>10.493</ele>
        <time>1970-01-01T06:21:40Z</time>
      </trkpt>
      <trkpt lat="40.021347" lon="-0.005538">
        <ele>10.710</ele>
        <time>1970-01-01T06:21:41Z</time>
      </trkpt>
      <trkpt lat="40.021321" lon="-0.005608">
        <ele>10.981</ele>
        <time>1970-01-01T06:21:42Z</time>
      </trkpt>
      <trkpt lat="40.021299" lon="-0.005679">
        <ele>11.174</ele>
        <time>1970-01-01T06:21:43Z</time>
      </trkpt>
      <trkpt lat="40.021278" lon="-0.005749">
        <ele>11.364</ele>
        <time>1970-01-01T06:21:44Z</time>
      </trkpt>
      <trkpt lat="40.021256" lon="-0.005821">
        <ele>11.580</ele>
        <time>1970-01-01T06:21:45Z</time>
      </trkpt>
      <trkpt lat="40.021233" lon="-0.005894">
        <ele>11.584</ele>
        <time>1970-01-01T06:21:46Z</time>
      </trkpt>
      <trkpt lat="40.021210" lon="-0.005969">
        <ele>11.545</ele>
        <time>1970-01-01T06:21:47Z</time>
      </trkpt>
      <trkpt lat="40.021187" lon="-0.006045">
        <ele>11.547</ele>
        <time>1970-01-01T06:21:48Z</time>
      </trkpt>
      <trkpt lat="40.021167" lon="-0.006123">
        <ele>11.429</ele>
        <time>1970-01-01T06:21:49Z</time>
      </trkpt>
      <trkpt lat="40.021148" lon="-0.006199">
        <ele>11.321</ele>
        <time>1970-01-01T06:21:50Z</time>
      </trkpt>
      <trkpt lat="40.021130" lon="-0.006275">
        <ele>11.108</ele>
        <time>1970-01-01T06:21:51Z</time>
      </trkpt>
      <trkpt lat="40.021115" lon="-0.006356">
        <ele>11.091</ele>
        <time>1970-01-01T06:21:52Z</time>
      </trkpt>
      <trkpt lat="40.021104" lon="-0.006438">
        <ele>11.298</ele>
        <time>1970-01-01T06:21:53Z</time>
      </trkpt>
      <trkpt lat="40.021096" lon="-0.006520">
        <ele>11.489</ele>
        <time>1970-01-01T06:21:54Z</time>
      </trkpt>
      <trkpt lat="40.021087" lon="-0.006600">
        <ele>11.762</ele>
        <time>1970-01-01T06:21:55Z</time>
      </trkpt>
      <trkpt lat="40.021075" lon="-0.006681">
        <ele>11.992</ele>
        <time>1970-01-01T06:21:56Z</time>
      </trkpt>
      <trkpt lat="40.021058" lon="-0.006761">
        <ele>12.218</ele>
        <time>1970-01-01T06:21:57Z</time>
      </trkpt>
      <trkpt lat="40.021040" lon="-0.006840">
        <ele>12.592</ele>
        <time>1970-01-01T06:21:58Z</time>
      </trkpt>
      <trkpt lat="40.021022" lon="-0.006920">
        <ele>12.913</ele>
        <time>1970-01-01T06:21:59Z</time>
      </trkpt>
      <trkpt lat="40.021004" lon="-0.006998">
        <ele>12.913</ele>
        <time>1970-01-01T06:22:00Z</time>
      </trkpt>
      <trkpt lat="40.020984" lon="-0.007076">
        <ele>12.843</ele>
        <time>1970-01-01T06:22:01Z</time>
      </trkpt>
      <trkpt lat="40.020965" lon="-0.007153">
        <ele>12.607</ele>
        <time>1970-01-01T06:22:02Z</time>
      </trkpt>
      <trkpt lat="40.020947" lon="-0.007228">
        <ele>12.408</ele>
        <time>1970-01-01T06:22:03Z</time>
      </trkpt>
      <trkpt lat="40.020928" lon="-0.007305">
        <ele>12.128</ele>
        <time>1970-01-01T06:22:04Z</time>
      </trkpt>
      <trkpt lat="40.020908" lon="-0.007382">
        <ele>11.865</ele>
        <time>1970-01-01T06:22:05Z</time>
      </trkpt>
      <trkpt lat="40.020888" lon="-0.007459">
        <ele>11.516</ele>
        <time>1970-01-01T06:22:06Z</time>
      </trkpt>
      <trkpt lat="40.020865" lon="-0.007535">
        <ele>11.219</ele>
        <time>1970-01-01T06:22:07Z</time>
      </trkpt>
      <trkpt lat="40.020840" lon="-0.007611">
        <ele>11.089</ele>
        <time>1970-01-01T06:22:08Z</time>
      </trkpt>
      <trkpt lat="40.020812" lon="-0.007685">
        <ele>11.045</ele>
        <time>1970-01-01T06:22:09Z</time>
      </trkpt>
      <trkpt lat="40.020781" lon="-0.007760">
        <ele>11.019</ele>
        <time>1970-01-01T06:22:10Z</time>
      </trkpt>
      <trkpt lat="40.020751" lon="-0.007833">
        <ele>11.050</ele>
        <time>1970-01-01T06:22:11Z</time>
      </trkpt>
      <trkpt lat="40.020719" lon="-0.007907">
        <ele>11.033</ele>
        <time>1970-01-01T06:22:12Z</time>
      </trkpt>
      <trkpt lat="40.020687" lon="-0.007982">
        <ele>11.023</ele>
        <time>1970-01-01T06:22:13Z</time>
      </trkpt>
      <trkpt lat="40.020655" lon="-0.008058">
        <ele>11.015</ele>
        <time>1970-01-01T06:22:14Z</time>
      </trkpt>
      <trkpt lat="40.020625" lon="-0.008134">
        <ele>11.208</ele>
        <time>1970-01-01T06:22:15Z</time>
      </trkpt>
      <trkpt lat="40.020595" lon="-0.008209">
        <ele>11.510</ele>
        <time>1970-01-01T06:22:16Z</time>
      </trkpt>
      <trkpt lat="40.020565" lon="-0.008285">
        <ele>11.847</ele>
        <time>1970-01-01T06:22:17Z</time>
      </trkpt>
      <trkpt lat="40.020535" lon="-0.008359">
        <ele>12.018</ele>
        <time>1970-01-01T06:22:18Z</time>
      </trkpt>
      <trkpt lat="40.020505" lon="-0.008432">
        <ele>12.091</ele>
        <time>1970-01-01T06:22:19Z</time>
      </trkpt>
      <trkpt lat="40.020475" lon="-0.008502">
        <ele>12.031</ele>
        <time>1970-01-01T06:22:20Z</time>
      </trkpt>
      <trkpt lat="40.020447" lon="-0.008572">
        <ele>12.017</ele>
        <time>1970-01-01T06:22:21Z</time>
      </trkpt>
      <trkpt lat="40.020422" lon="-0.008642">
        <ele>12.091</ele>
        <time>1970-01-01T06:22:22Z</time>
      </trkpt>
      <trkpt lat="40.020400" lon="-0.008712">
        <ele>12.082</ele>
        <time>1970-01-01T06:22:23Z</time>
      </trkpt>
      <trkpt lat="40.020379" lon="-0.008781">
        <ele>11.834</ele>
        <time>1970-01-01T06:22:24Z</time>
      </trkpt>
      <trkpt lat="40.020357" lon="-0.008850">
        <ele>11.655</ele>
        <time>1970-01-01T06:22:25Z</time>
      </trkpt>
      <trkpt lat="40.020334" lon="-0.008922">
        <ele>11.510</ele>
        <time>1970-01-01T06:22:26Z</time>
      </trkpt>
      <trkpt lat="40.020309" lon="-0.008995">
        <ele>11.508</ele>
        <time>1970-01-01T06:22:27Z</time>
      </trkpt>
      <trkpt lat="40.020282" lon="-0.009070">
        <ele>11.760</ele>
        <time>1970-01-01T06:22:28Z</time>
      </trkpt>
      <trkpt lat="40.020256" lon="-0.009146">
        <ele>11.867</ele>
        <time>1970-01-01T06:22:29Z</time>
      </trkpt>
      <trkpt lat="40.020229" lon="-0.009225">
        <ele>11.648</ele>
        <time>1970-01-01T06:22:30Z</time>
      </trkpt>
      <trkpt lat="40.020200" lon="-0.009305">
        <ele>11.461</ele>
        <time>1970-01-01T06:22:31Z</time>
      </trkpt>
      <trkpt lat="40.020171" lon="-0.009386">
        <ele>11.241</ele>
        <time>1970-01-01T06:22:32Z</time>
      </trkpt>
      <trkpt lat="40.020140" lon="-0.009467">
        <ele>11.017</ele>
        <time>1970-01-01T06:22:33Z</time>
      </trkpt>
      <trkpt lat="40.020107" lon="-0.009547">
        <ele>10.841</ele>
        <time>1970-01-01T06:22:34Z</time>
      </trkpt>
      <trkpt lat="40.020075" lon="-0.009627">
        <ele>10.532</ele>
        <time>1970-01-01T06:22:35Z</time>
      </trkpt>
      <trkpt lat="40.020041" lon="-0.009706">
        <ele>10.312</ele>
        <time>1970-01-01T06:22:36Z</time>
      </trkpt>
      <trkpt lat="40.020006" lon="-0.009786">
        <ele>10.332</ele>
        <time>1970-01-01T06:22:37Z</time>
      </trkpt>
      <trkpt lat="40.019971" lon="-0.009866">
        <ele>10.405</ele>
        <time>1970-01-01T06:22:38Z</time>
      </trkpt>
      <trkpt lat="40.019936" lon="-0.009947">
        <ele>10.608</ele>
        <time>1970-01-01T06:22:39Z</time>
      </trkpt>
      <trkpt lat="40.019902" lon="-0.010028">
        <ele>10.768</ele>
        <time>1970-01-01T06:22:40Z</time>
      </trkpt>
      <trkpt lat="40.019869" lon="-0.010110">
        <ele>10.925</ele>
        <time>1970-01-01T06:22:41Z</time>
      </trkpt>
      <trkpt lat="40.019836" lon="-0.010192">
        <ele>11.166</ele>
        <time>1970-01-01T06:22:42Z</time>
      </trkpt>
      <trkpt lat="40.019803" lon="-0.010275">
        <ele>11.339</ele>
        <time>1970-01-01T06:22:43Z</time>
      </trkpt>
      <trkpt lat="40.019771" lon="-0.010359">
        <ele>11.269</ele>
        <time>1970-01-01T06:22:44Z</time>
      </trkpt>
      <trkpt lat="40.019738" lon="-0.010443">
        <ele>11.185</ele>
        <time>1970-01-01T06:22:45Z</time>
      </trkpt>
      <trkpt lat="40.019705" lon="-0.010528">
        <ele>10.979</ele>
        <time>1970-01-01T06:22:46Z</time>
      </trkpt>
      <trkpt lat="40.019670" lon="-0.010613">
        <ele>11.090</ele>
        <time>1970-01-01T06:22:47Z</time>
      </trkpt>
      <trkpt lat="40.019636" lon="-0.010698">
        <ele>11.063</ele>
        <time>1970-01-01T06:22:48Z</time>
      </trkpt>
      <trkpt lat="40.019602" lon="-0.010784">
        <ele>11.044</ele>
        <time>1970-01-01T06:22:49Z</time>
      </trkpt>
      <trkpt lat="40.019569" lon="-0.010871">
        <ele>11.018</ele>
        <time>1970-01-01T06:22:50Z</time>
      </trkpt>
      <trkpt lat="40.019536" lon="-0.010957">
        <ele>11.008</ele>
        <time>1970-01-01T06:22:51Z</time>
      </trkpt>
      <trkpt lat="40.019505" lon="-0.011044">
        <ele>11.033</ele>
        <time>1970-01-01T06:22:52Z</time>
      </trkpt>
      <trkpt lat="40.019476" lon="-0.011131">
        <ele>11.120</ele>
        <time>1970-01-01T06:22:53Z</time>
      </trkpt>
      <trkpt lat="40.019447" lon="-0.011218">
        <ele>11.041</ele>
        <time>1970-01-01T06:22:54Z</time>
      </trkpt>
      <trkpt lat="40.019420" lon="-0.011305">
        <ele>10.974</ele>
        <time>1970-01-01T06:22:55Z</time>
      </trkpt>
      <trkpt lat="40.019392" lon="-0.011391">
        <ele>10.884</ele>
        <time>1970-01-01T06:22:56Z</time>
      </trkpt>
      <trkpt lat="40.019363" lon="-0.011477">
        <ele>10.770</ele>
        <time>1970-01-01T06:22:57Z</time>
      </trkpt>
      <trkpt lat="40.019334" lon="-0.011560">
        <ele>10.614</ele>
        <time>1970-01-01T06:22:58Z</time>
      </trkpt>
      <trkpt lat="40.019304" lon="-0.011643">
        <ele>10.525</ele>
        <time>1970-01-01T06:22:59Z</time>
      </trkpt>
      <trkpt lat="40.019272" lon="-0.011724">
        <ele>10.319</ele>
        <time>1970-01-01T06:23:00Z</time>
      </trkpt>
      <trkpt lat="40.019240" lon="-0.011804">
        <ele>10.109</ele>
        <time>1970-01-01T06:23:01Z</time>
      </trkpt>
      <trkpt lat="40.019208" lon="-0.011884">
        <ele>10.019</ele>
        <time>1970-01-01T06:23:02Z</time>
      </trkpt>
      <trkpt lat="40.019177" lon="-0.011963">
        <ele>10.008</ele>
        <time>1970-01-01T06:23:03Z</time>
      </trkpt>
      <trkpt lat="40.019144" lon="-0.012041">
        <ele>9.928</ele>
        <time>1970-01-01T06:23:04Z</time>
      </trkpt>
      <trkpt lat="40.019111" lon="-0.012117">
        <ele>9.875</ele>
        <time>1970-01-01T06:23:05Z</time>
      </trkpt>
      <trkpt lat="40.019079" lon="-0.012191">
        <ele>9.766</ele>
        <time>1970-01-01T06:23:06Z</time>
      </trkpt>
      <trkpt lat="40.019047" lon="-0.012265">
        <ele>9.689</ele>
        <time>1970-01-01T06:23:07Z</time>
      </trkpt>
      <trkpt lat="40.019016" lon="-0.012339">
        <ele>9.559</ele>
        <time>1970-01-01T06:23:08Z</time>
      </trkpt>
      <trkpt lat="40.018989" lon="-0.012412">
        <ele>9.465</ele>
        <time>1970-01-01T06:23:09Z</time>
      </trkpt>
      <trkpt lat="40.018964" lon="-0.012487">
        <ele>9.329</ele>
        <time>1970-01-01T06:23:10Z</time>
      </trkpt>
      <trkpt lat="40.018942" lon="-0.012563">
        <ele>9.490</ele>
        <time>1970-01-01T06:23:11Z</time>
      </trkpt>
      <trkpt lat="40.018925" lon="-0.012638">
        <ele>9.625</ele>
        <time>1970-01-01T06:23:12Z</time>
      </trkpt>
      <trkpt lat="40.018908" lon="-0.012712">
        <ele>9.826</ele>
        <time>1970-01-01T06:23:13Z</time>
      </trkpt>
      <trkpt lat="40.018886" lon="-0.012786">
        <ele>10.008</ele>
        <time>1970-01-01T06:23:14Z</time>
      </trkpt>
      <trkpt lat="40.018854" lon="-0.012860">
        <ele>10.008</ele>
        <time>1970-01-01T06:23:15Z</time>
      </trkpt>
      <trkpt lat="40.018810" lon="-0.012913">
        <ele>10.199</ele>
        <time>1970-01-01T06:23:16Z</time>
      </trkpt>
      <trkpt lat="40.018762" lon="-0.012956">
        <ele>10.326</ele>
        <time>1970-01-01T06:23:17Z</time>
      </trkpt>
      <trkpt lat="40.018721" lon="-0.013011">
        <ele>10.517</ele>
        <time>1970-01-01T06:23:18Z</time>
      </trkpt>
      <trkpt lat="40.018693" lon="-0.013075">
        <ele>10.760</ele>
        <time>1970-01-01T06:23:19Z</time>
      </trkpt>
      <trkpt lat="40.018667" lon="-0.013143">
        <ele>10.540</ele>
        <time>1970-01-01T06:23:20Z</time>
      </trkpt>
      <trkpt lat="40.018640" lon="-0.013217">
        <ele>10.416</ele>
        <time>1970-01-01T06:23:21Z</time>
      </trkpt>
      <trkpt lat="40.018613" lon="-0.013292">
        <ele>10.130</ele>
        <time>1970-01-01T06:23:22Z</time>
      </trkpt>
      <trkpt lat="40.018586" lon="-0.013366">
        <ele>9.841</ele>
        <time>1970-01-01T06:23:23Z</time>
      </trkpt>
      <trkpt lat="40.018561" lon="-0.013442">
        <ele>9.538</ele>
        <time>1970-01-01T06:23:24Z</time>
      </trkpt>
      <trkpt lat="40.018535" lon="-0.013520">
        <ele>9.270</ele>
        <time>1970-01-01T06:23:25Z</time>
      </trkpt>
      <trkpt lat="40.018505" lon="-0.013600">
        <ele>9.017</ele>
        <time>1970-01-01T06:23:26Z</time>
      </trkpt>
      <trkpt lat="40.018472" lon="-0.013682">
        <ele>9.008</ele>
        <time>1970-01-01T06:23:27Z</time>
      </trkpt>
      <trkpt lat="40.018439" lon="-0.013765">
        <ele>9.010</ele>
        <time>1970-01-01T06:23:28Z</time>
      </trkpt>
      <trkpt lat="40.018406" lon="-0.013847">
        <ele>9.087</ele>
        <time>1970-01-01T06:23:29Z</time>
      </trkpt>
      <trkpt lat="40.018374" lon="-0.013930">
        <ele>9.148</ele>
        <time>1970-01-01T06:23:30Z</time>
      </trkpt>
      <trkpt lat="40.018342" lon="-0.014013">
        <ele>9.481</ele>
        <time>1970-01-01T06:23:31Z</time>
      </trkpt>
      <trkpt lat="40.018310" lon="-0.014096">
        <ele>9.731</ele>
        <time>1970-01-01T06:23:32Z</time>
      </trkpt>
      <trkpt lat="40.018279" lon="-0.014179">
        <ele>9.867</ele>
        <time>1970-01-01T06:23:33Z</time>
      </trkpt>
      <trkpt lat="40.018248" lon="-0.014264">
        <ele>10.071</ele>
        <time>1970-01-01T06:23:34Z</time>
      </trkpt>
      <trkpt lat="40.018217" lon="-0.014349">
        <ele>10.242</ele>
        <time>1970-01-01T06:23:35Z</time>
      </trkpt>
      <trkpt lat="40.018186" lon="-0.014431">
        <ele>10.494</ele>
        <time>1970-01-01T06:23:36Z</time>
      </trkpt>
      <trkpt lat="40.018154" lon="-0.014515">
        <ele>10.457</ele>
        <time>1970-01-01T06:23:37Z</time>
      </trkpt>
      <trkpt lat="40.018122" lon="-0.014596">
        <ele>10.222</ele>
        <time>1970-01-01T06:23:38Z</time>
      </trkpt>
      <trkpt lat="40.018091" lon="-0.014679">
        <ele>10.108</ele>
        <time>1970-01-01T06:23:39Z</time>
      </trkpt>
      <trkpt lat="40.018061" lon="-0.014763">
        <ele>10.066</ele>
        <time>1970-01-01T06:23:40Z</time>
      </trkpt>
      <trkpt lat="40.018029" lon="-0.014846">
        <ele>9.893</ele>
        <time>1970-01-01T06:23:41Z</time>
      </trkpt>
      <trkpt lat="40.017998" lon="-0.014929">
        <ele>9.614</ele>
        <time>1970-01-01T06:23:42Z</time>
      </trkpt>
      <trkpt lat="40.017964" lon="-0.015013">
        <ele>9.327</ele>
        <time>1970-01-01T06:23:43Z</time>
      </trkpt>
      <trkpt lat="40.017931" lon="-0.015097">
        <ele>9.117</ele>
        <time>1970-01-01T06:23:44Z</time>
      </trkpt>
      <trkpt lat="40.017897" lon="-0.015181">
        <ele>8.923</ele>
        <time>1970-01-01T06:23:45Z</time>
      </trkpt>
      <trkpt lat="40.017864" lon="-0.015267">
        <ele>8.617</ele>
        <time>1970-01-01T06:23:46Z</time>
      </trkpt>
      <trkpt lat="40.017831" lon="-0.015352">
        <ele>8.738</ele>
        <time>1970-01-01T06:23:47Z</time>
      </trkpt>
      <trkpt lat="40.017795" lon="-0.015439">
        <ele>8.784</ele>
        <time>1970-01-01T06:23:48Z</time>
      </trkpt>
      <trkpt lat="40.017760" lon="-0.015524">
        <ele>8.807</ele>
        <time>1970-01-01T06:23:49Z</time>
      </trkpt>
      <trkpt lat="40.017727" lon="-0.015610">
        <ele>8.817</ele>
        <time>1970-01-01T06:23:50Z</time>
      </trkpt>
      <trkpt lat="40.017695" lon="-0.015698">
        <ele>8.908</ele>
        <time>1970-01-01T06:23:51Z</time>
      </trkpt>
      <trkpt lat="40.017661" lon="-0.015787">
        <ele>9.055</ele>
        <time>1970-01-01T06:23:52Z</time>
      </trkpt>
      <trkpt lat="40.017627" lon="-0.015875">
        <ele>8.812</ele>
        <time>1970-01-01T06:23:53Z</time>
      </trkpt>
      <trkpt lat="40.017592" lon="-0.015963">
        <ele>8.593</ele>
        <time>1970-01-01T06:23:54Z</time>
      </trkpt>
      <trkpt lat="40.017559" lon="-0.016051">
        <ele>8.376</ele>
        <time>1970-01-01T06:23:55Z</time>
      </trkpt>
      <trkpt lat="40.017526" lon="-0.016142">
        <ele>8.096</ele>
        <time>1970-01-01T06:23:56Z</time>
      </trkpt>
      <trkpt lat="40.017494" lon="-0.016233">
        <ele>7.542</ele>
        <time>1970-01-01T06:23:57Z</time>
      </trkpt>
      <trkpt lat="40.017459" lon="-0.016323">
        <ele>7.116</ele>
        <time>1970-01-01T06:23:58Z</time>
      </trkpt>
      <trkpt lat="40.017425" lon="-0.016414">
        <ele>6.787</ele>
        <time>1970-01-01T06:23:59Z</time>
      </trkpt>
      <trkpt lat="40.017390" lon="-0.016507">
        <ele>6.371</ele>
        <time>1970-01-01T06:24:00Z</time>
      </trkpt>
      <trkpt lat="40.017354" lon="-0.016599">
        <ele>6.141</ele>
        <time>1970-01-01T06:24:01Z</time>
      </trkpt>
      <trkpt lat="40.017320" lon="-0.016692">
        <ele>6.015</ele>
        <time>1970-01-01T06:24:02Z</time>
      </trkpt>
      <trkpt lat="40.017286" lon="-0.016785">
        <ele>6.008</ele>
        <time>1970-01-01T06:24:03Z</time>
      </trkpt>
      <trkpt lat="40.017250" lon="-0.016877">
        <ele>6.094</ele>
        <time>1970-01-01T06:24:04Z</time>
      </trkpt>
      <trkpt lat="40.017213" lon="-0.016968">
        <ele>6.211</ele>
        <time>1970-01-01T06:24:05Z</time>
      </trkpt>
      <trkpt lat="40.017175" lon="-0.017059">
        <ele>7.032</ele>
        <time>1970-01-01T06:24:06Z</time>
      </trkpt>
      <trkpt lat="40.017138" lon="-0.017150">
        <ele>7.635</ele>
        <time>1970-01-01T06:24:07Z</time>
      </trkpt>
      <trkpt lat="40.017101" lon="-0.017241">
        <ele>8.045</ele>
        <time>1970-01-01T06:24:08Z</time>
      </trkpt>
      <trkpt lat="40.017065" lon="-0.017331">
        <ele>7.831</ele>
        <time>1970-01-01T06:24:09Z</time>
      </trkpt>
      <trkpt lat="40.017030" lon="-0.017422">
        <ele>7.875</ele>
        <time>1970-01-01T06:24:10Z</time>
      </trkpt>
      <trkpt lat="40.016994" lon="-0.017512">
        <ele>7.866</ele>
        <time>1970-01-01T06:24:11Z</time>
      </trkpt>
      <trkpt lat="40.016958" lon="-0.017600">
        <ele>7.388</ele>
        <time>1970-01-01T06:24:12Z</time>
      </trkpt>
      <trkpt lat="40.016922" lon="-0.017688">
        <ele>6.624</ele>
        <time>1970-01-01T06:24:13Z</time>
      </trkpt>
      <trkpt lat="40.016886" lon="-0.017776">
        <ele>5.826</ele>
        <time>1970-01-01T06:24:14Z</time>
      </trkpt>
      <trkpt lat="40.016851" lon="-0.017866">
        <ele>5.308</ele>
        <time>1970-01-01T06:24:15Z</time>
      </trkpt>
      <trkpt lat="40.016817" lon="-0.017955">
        <ele>4.955</ele>
        <time>1970-01-01T06:24:16Z</time>
      </trkpt>
      <trkpt lat="40.016784" lon="-0.018045">
        <ele>4.532</ele>
        <time>1970-01-01T06:24:17Z</time>
      </trkpt>
      <trkpt lat="40.016752" lon="-0.018133">
        <ele>4.553</ele>
        <time>1970-01-01T06:24:18Z</time>
      </trkpt>
      <trkpt lat="40.016721" lon="-0.018221">
        <ele>4.786</ele>
        <time>1970-01-01T06:24:19Z</time>
      </trkpt>
      <trkpt lat="40.016688" lon="-0.018309">
        <ele>4.996</ele>
        <time>1970-01-01T06:24:20Z</time>
      </trkpt>
      <trkpt lat="40.016654" lon="-0.018395">
        <ele>5.222</ele>
        <time>1970-01-01T06:24:21Z</time>
      </trkpt>
      <trkpt lat="40.016619" lon="-0.018479">
        <ele>5.616</ele>
        <time>1970-01-01T06:24:22Z</time>
      </trkpt>
      <trkpt lat="40.016584" lon="-0.018565">
        <ele>6.187</ele>
        <time>1970-01-01T06:24:23Z</time>
      </trkpt>
      <trkpt lat="40.016549" lon="-0.018652">
        <ele>6.533</ele>
        <time>1970-01-01T06:24:24Z</time>
      </trkpt>
      <trkpt lat="40.016515" lon="-0.018739">
        <ele>6.823</ele>
        <time>1970-01-01T06:24:25Z</time>
      </trkpt>
      <trkpt lat="40.016481" lon="-0.018825">
        <ele>6.915</ele>
        <time>1970-01-01T06:24:26Z</time>
      </trkpt>
      <trkpt lat="40.016448" lon="-0.018913">
        <ele>6.908</ele>
        <time>1970-01-01T06:24:27Z</time>
      </trkpt>
      <trkpt lat="40.016414" lon="-0.019001">
        <ele>6.660</ele>
        <time>1970-01-01T06:24:28Z</time>
      </trkpt>
      <trkpt lat="40.016380" lon="-0.019090">
        <ele>6.277</ele>
        <time>1970-01-01T06:24:29Z</time>
      </trkpt>
      <trkpt lat="40.016345" lon="-0.019180">
        <ele>5.798</ele>
        <time>1970-01-01T06:24:30Z</time>
      </trkpt>
      <trkpt lat="40.016308" lon="-0.019268">
        <ele>5.321</ele>
        <time>1970-01-01T06:24:31Z</time>
      </trkpt>
      <trkpt lat="40.016271" lon="-0.019355">
        <ele>5.061</ele>
        <time>1970-01-01T06:24:32Z</time>
      </trkpt>
      <trkpt lat="40.016234" lon="-0.019442">
        <ele>5.037</ele>
        <time>1970-01-01T06:24:33Z</time>
      </trkpt>
      <trkpt lat="40.016199" lon="-0.019529">
        <ele>5.081</ele>
        <time>1970-01-01T06:24:34Z</time>
      </trkpt>
      <trkpt lat="40.016167" lon="-0.019616">
        <ele>5.082</ele>
        <time>1970-01-01T06:24:35Z</time>
      </trkpt>
      <trkpt lat="40.016135" lon="-0.019703">
        <ele>5.056</ele>
        <time>1970-01-01T06:24:36Z</time>
      </trkpt>
      <trkpt lat="40.016103" lon="-0.019788">
        <ele>5.259</ele>
        <time>1970-01-01T06:24:37Z</time>
      </trkpt>
      <trkpt lat="40.016072" lon="-0.019874">
        <ele>5.514</ele>
        <time>1970-01-01T06:24:38Z</time>
      </trkpt>
      <trkpt lat="40.016042" lon="-0.019960">
        <ele>5.908</ele>
        <time>1970-01-01T06:24:39Z</time>
      </trkpt>
      <trkpt lat="40.016013" lon="-0.020047">
        <ele>6.052</ele>
        <time>1970-01-01T06:24:40Z</time>
      </trkpt>
      <trkpt lat="40.015985" lon="-0.020133">
        <ele>6.079</ele>
        <time>1970-01-01T06:24:41Z</time>
      </trkpt>
      <trkpt lat="40.015954" lon="-0.020217">
        <ele>6.040</ele>
        <time>1970-01-01T06:24:42Z</time>
      </trkpt>
      <trkpt lat="40.015922" lon="-0.020300">
        <ele>6.163</ele>
        <time>1970-01-01T06:24:43Z</time>
      </trkpt>
      <trkpt lat="40.015890" lon="-0.020381">
        <ele>6.383</ele>
        <time>1970-01-01T06:24:44Z</time>
      </trkpt>
      <trkpt lat="40.015858" lon="-0.020461">
        <ele>6.659</ele>
        <time>1970-01-01T06:24:45Z</time>
      </trkpt>
      <trkpt lat="40.015826" lon="-0.020542">
        <ele>7.063</ele>
        <time>1970-01-01T06:24:46Z</time>
      </trkpt>
      <trkpt lat="40.015793" lon="-0.020622">
        <ele>7.234</ele>
        <time>1970-01-01T06:24:47Z</time>
      </trkpt>
      <trkpt lat="40.015760" lon="-0.020702">
        <ele>7.599</ele>
        <time>1970-01-01T06:24:48Z</time>
      </trkpt>
      <trkpt lat="40.015726" lon="-0.020782">
        <ele>7.807</ele>
        <time>1970-01-01T06:24:49Z</time>
      </trkpt>
      <trkpt lat="40.015691" lon="-0.020862">
        <ele>8.127</ele>
        <time>1970-01-01T06:24:50Z</time>
      </trkpt>
      <trkpt lat="40.015654" lon="-0.020943">
        <ele>8.508</ele>
        <time>1970-01-01T06:24:51Z</time>
      </trkpt>
      <trkpt lat="40.015617" lon="-0.021022">
        <ele>9.116</ele>
        <time>1970-01-01T06:24:52Z</time>
      </trkpt>
      <trkpt lat="40.015582" lon="-0.021103">
        <ele>9.883</ele>
        <time>1970-01-01T06:24:53Z</time>
      </trkpt>
      <trkpt lat="40.015549" lon="-0.021185">
        <ele>9.744</ele>
        <time>1970-01-01T06:24:54Z</time>
      </trkpt>
      <trkpt lat="40.015517" lon="-0.021267">
        <ele>9.357</ele>
        <time>1970-01-01T06:24:55Z</time>
      </trkpt>
      <trkpt lat="40.015484" lon="-0.021352">
        <ele>9.167</ele>
        <time>1970-01-01T06:24:56Z</time>
      </trkpt>
      <trkpt lat="40.015451" lon="-0.021436">
        <ele>8.813</ele>
        <time>1970-01-01T06:24:57Z</time>
      </trkpt>
      <trkpt lat="40.015418" lon="-0.021521">
        <ele>8.387</ele>
        <time>1970-01-01T06:24:58Z</time>
      </trkpt>
      <trkpt lat="40.015387" lon="-0.021605">
        <ele>7.848</ele>
        <time>1970-01-01T06:24:59Z</time>
      </trkpt>
      <trkpt lat="40.015353" lon="-0.021690">
        <ele>7.267</ele>
        <time>1970-01-01T06:25:00Z</time>
      </trkpt>
      <trkpt lat="40.015319" lon="-0.021776">
        <ele>6.781</ele>
        <time>1970-01-01T06:25:01Z</time>
      </trkpt>
      <trkpt lat="40.015284" lon="-0.021863">
        <ele>6.319</ele>
        <time>1970-01-01T06:25:02Z</time>
      </trkpt>
      <trkpt lat="40.015249" lon="-0.021949">
        <ele>6.108</ele>
        <time>1970-01-01T06:25:03Z</time>
      </trkpt>
      <trkpt lat="40.015215" lon="-0.022036">
        <ele>6.233</ele>
        <time>1970-01-01T06:25:04Z</time>
      </trkpt>
      <trkpt lat="40.015181" lon="-0.022121">
        <ele>6.320</ele>
        <time>1970-01-01T06:25:05Z</time>
      </trkpt>
      <trkpt lat="40.015148" lon="-0.022205">
        <ele>6.521</ele>
        <time>1970-01-01T06:25:06Z</time>
      </trkpt>
      <trkpt lat="40.015113" lon="-0.022288">
        <ele>6.894</ele>
        <time>1970-01-01T06:25:07Z</time>
      </trkpt>
      <trkpt lat="40.015077" lon="-0.022370">
        <ele>7.354</ele>
        <time>1970-01-01T06:25:08Z</time>
      </trkpt>
      <trkpt lat="40.015044" lon="-0.022455">
        <ele>7.770</ele>
        <time>1970-01-01T06:25:09Z</time>
      </trkpt>
      <trkpt lat="40.015011" lon="-0.022540">
        <ele>8.064</ele>
        <time>1970-01-01T06:25:10Z</time>
      </trkpt>
      <trkpt lat="40.014977" lon="-0.022627">
        <ele>7.985</ele>
        <time>1970-01-01T06:25:11Z</time>
      </trkpt>
      <trkpt lat="40.014942" lon="-0.022713">
        <ele>7.855</ele>
        <time>1970-01-01T06:25:12Z</time>
      </trkpt>
      <trkpt lat="40.014910" lon="-0.022797">
        <ele>7.707</ele>
        <time>1970-01-01T06:25:13Z</time>
      </trkpt>
      <trkpt lat="40.014881" lon="-0.022882">
        <ele>7.717</ele>
        <time>1970-01-01T06:25:14Z</time>
      </trkpt>
      <trkpt lat="40.014851" lon="-0.022966">
        <ele>7.808</ele>
        <time>1970-01-01T06:25:15Z</time>
      </trkpt>
      <trkpt lat="40.014818" lon="-0.023047">
        <ele>8.022</ele>
        <time>1970-01-01T06:25:16Z</time>
      </trkpt>
      <trkpt lat="40.014784" lon="-0.023128">
        <ele>8.079</ele>
        <time>1970-01-01T06:25:17Z</time>
      </trkpt>
      <trkpt lat="40.014750" lon="-0.023208">
        <ele>8.050</ele>
        <time>1970-01-01T06:25:18Z</time>
      </trkpt>
      <trkpt lat="40.014716" lon="-0.023289">
        <ele>8.013</ele>
        <time>1970-01-01T06:25:19Z</time>
      </trkpt>
      <trkpt lat="40.014683" lon="-0.023372">
        <ele>8.073</ele>
        <time>1970-01-01T06:25:20Z</time>
      </trkpt>
      <trkpt lat="40.014652" lon="-0.023456">
        <ele>7.929</ele>
        <time>1970-01-01T06:25:21Z</time>
      </trkpt>
      <trkpt lat="40.014621" lon="-0.023540">
        <ele>7.753</ele>
        <time>1970-01-01T06:25:22Z</time>
      </trkpt>
      <trkpt lat="40.014591" lon="-0.023622">
        <ele>7.554</ele>
        <time>1970-01-01T06:25:23Z</time>
      </trkpt>
      <trkpt lat="40.014564" lon="-0.023705">
        <ele>7.464</ele>
        <time>1970-01-01T06:25:24Z</time>
      </trkpt>
      <trkpt lat="40.014534" lon="-0.023791">
        <ele>7.306</ele>
        <time>1970-01-01T06:25:25Z</time>
      </trkpt>
      <trkpt lat="40.014504" lon="-0.023877">
        <ele>7.216</ele>
        <time>1970-01-01T06:25:26Z</time>
      </trkpt>
      <trkpt lat="40.014476" lon="-0.023962">
        <ele>7.108</ele>
        <time>1970-01-01T06:25:27Z</time>
      </trkpt>
      <trkpt lat="40.014447" lon="-0.024045">
        <ele>7.033</ele>
        <time>1970-01-01T06:25:28Z</time>
      </trkpt>
      <trkpt lat="40.014419" lon="-0.024126">
        <ele>6.990</ele>
        <time>1970-01-01T06:25:29Z</time>
      </trkpt>
      <trkpt lat="40.014389" lon="-0.024207">
        <ele>6.811</ele>
        <time>1970-01-01T06:25:30Z</time>
      </trkpt>
      <trkpt lat="40.014357" lon="-0.024287">
        <ele>6.874</ele>
        <time>1970-01-01T06:25:31Z</time>
      </trkpt>
      <trkpt lat="40.014325" lon="-0.024368">
        <ele>6.924</ele>
        <time>1970-01-01T06:25:32Z</time>
      </trkpt>
      <trkpt lat="40.014294" lon="-0.024450">
        <ele>7.030</ele>
        <time>1970-01-01T06:25:33Z</time>
      </trkpt>
      <trkpt lat="40.014262" lon="-0.024531">
        <ele>7.074</ele>
        <time>1970-01-01T06:25:34Z</time>
      </trkpt>
      <trkpt lat="40.014229" lon="-0.024611">
        <ele>7.065</ele>
        <time>1970-01-01T06:25:35Z</time>
      </trkpt>
      <trkpt lat="40.014196" lon="-0.024690">
        <ele>7.069</ele>
        <time>1970-01-01T06:25:36Z</time>
      </trkpt>
      <trkpt lat="40.014162" lon="-0.024770">
        <ele>7.004</ele>
        <time>1970-01-01T06:25:37Z</time>
      </trkpt>
      <trkpt lat="40.014130" lon="-0.024850">
        <ele>7.024</ele>
        <time>1970-01-01T06:25:38Z</time>
      </trkpt>
      <trkpt lat="40.014098" lon="-0.024929">
        <ele>7.008</ele>
        <time>1970-01-01T06:25:39Z</time>
      </trkpt>
      <trkpt lat="40.014067" lon="-0.025009">
        <ele>7.023</ele>
        <time>1970-01-01T06:25:40Z</time>
      </trkpt>
      <trkpt lat="40.014035" lon="-0.025089">
        <ele>7.290</ele>
        <time>1970-01-01T06:25:41Z</time>
      </trkpt>
      <trkpt lat="40.014004" lon="-0.025170">
        <ele>7.431</ele>
        <time>1970-01-01T06:25:42Z</time>
      </trkpt>
      <trkpt lat="40.013973" lon="-0.025251">
        <ele>7.644</ele>
        <time>1970-01-01T06:25:43Z</time>
      </trkpt>
      <trkpt lat="40.013942" lon="-0.025331">
        <ele>8.024</ele>
        <time>1970-01-01T06:25:44Z</time>
      </trkpt>
      <trkpt lat="40.013911" lon="-0.025410">
        <ele>8.490</ele>
        <time>1970-01-01T06:25:45Z</time>
      </trkpt>
      <trkpt lat="40.013880" lon="-0.025489">
        <ele>8.764</ele>
        <time>1970-01-01T06:25:46Z</time>
      </trkpt>
      <trkpt lat="40.013849" lon="-0.025569">
        <ele>8.965</ele>
        <time>1970-01-01T06:25:47Z</time>
      </trkpt>
      <trkpt lat="40.013817" lon="-0.025648">
        <ele>8.835</ele>
        <time>1970-01-01T06:25:48Z</time>
      </trkpt>
      <trkpt lat="40.013783" lon="-0.025726">
        <ele>8.986</ele>
        <time>1970-01-01T06:25:49Z</time>
      </trkpt>
      <trkpt lat="40.013750" lon="-0.025804">
        <ele>8.914</ele>
        <time>1970-01-01T06:25:50Z</time>
      </trkpt>
      <trkpt lat="40.013718" lon="-0.025883">
        <ele>9.008</ele>
        <time>1970-01-01T06:25:51Z</time>
      </trkpt>
      <trkpt lat="40.013686" lon="-0.025963">
        <ele>9.060</ele>
        <time>1970-01-01T06:25:52Z</time>
      </trkpt>
      <trkpt lat="40.013654" lon="-0.026044">
        <ele>9.097</ele>
        <time>1970-01-01T06:25:53Z</time>
      </trkpt>
      <trkpt lat="40.013622" lon="-0.026124">
        <ele>9.058</ele>
        <time>1970-01-01T06:25:54Z</time>
      </trkpt>
      <trkpt lat="40.013590" lon="-0.026205">
        <ele>9.311</ele>
        <time>1970-01-01T06:25:55Z</time>
      </trkpt>
      <trkpt lat="40.013558" lon="-0.026286">
        <ele>9.611</ele>
        <time>1970-01-01T06:25:56Z</time>
      </trkpt>
      <trkpt lat="40.013528" lon="-0.026367">
        <ele>9.927</ele>
        <time>1970-01-01T06:25:57Z</time>
      </trkpt>
      <trkpt lat="40.013497" lon="-0.026448">
        <ele>10.011</ele>
        <time>1970-01-01T06:25:58Z</time>
      </trkpt>
      <trkpt lat="40.013463" lon="-0.026528">
        <ele>10.072</ele>
        <time>1970-01-01T06:25:59Z</time>
      </trkpt>
      <trkpt lat="40.013430" lon="-0.026607">
        <ele>10.068</ele>
        <time>1970-01-01T06:26:00Z</time>
      </trkpt>
      <trkpt lat="40.013399" lon="-0.026685">
        <ele>10.042</ele>
        <time>1970-01-01T06:26:01Z</time>
      </trkpt>
      <trkpt lat="40.013370" lon="-0.026764">
        <ele>10.026</ele>
        <time>1970-01-01T06:26:02Z</time>
      </trkpt>
      <trkpt lat="40.013343" lon="-0.026843">
        <ele>10.008</ele>
        <time>1970-01-01T06:26:03Z</time>
      </trkpt>
      <trkpt lat="40.013317" lon="-0.026923">
        <ele>10.123</ele>
        <time>1970-01-01T06:26:04Z</time>
      </trkpt>
      <trkpt lat="40.013291" lon="-0.027004">
        <ele>9.950</ele>
        <time>1970-01-01T06:26:05Z</time>
      </trkpt>
      <trkpt lat="40.013261" lon="-0.027083">
        <ele>9.871</ele>
        <time>1970-01-01T06:26:06Z</time>
      </trkpt>
      <trkpt lat="40.013230" lon="-0.027160">
        <ele>9.694</ele>
        <time>1970-01-01T06:26:07Z</time>
      </trkpt>
      <trkpt lat="40.013199" lon="-0.027235">
        <ele>9.584</ele>
        <time>1970-01-01T06:26:08Z</time>
      </trkpt>
      <trkpt lat="40.013170" lon="-0.027311">
        <ele>9.650</ele>
        <time>1970-01-01T06:26:09Z</time>
      </trkpt>
      <trkpt lat="40.013142" lon="-0.027388">
        <ele>9.754</ele>
        <time>1970-01-01T06:26:10Z</time>
      </trkpt>
      <trkpt lat="40.013113" lon="-0.027465">
        <ele>9.835</ele>
        <time>1970-01-01T06:26:11Z</time>
      </trkpt>
      <trkpt lat="40.013083" lon="-0.027542">
        <ele>9.943</ele>
        <time>1970-01-01T06:26:12Z</time>
      </trkpt>
      <trkpt lat="40.013053" lon="-0.027617">
        <ele>10.064</ele>
        <time>1970-01-01T06:26:13Z</time>
      </trkpt>
      <trkpt lat="40.013024" lon="-0.027692">
        <ele>10.110</ele>
        <time>1970-01-01T06:26:14Z</time>
      </trkpt>
      <trkpt lat="40.012994" lon="-0.027766">
        <ele>10.208</ele>
        <time>1970-01-01T06:26:15Z</time>
      </trkpt>
      <trkpt lat="40.012964" lon="-0.027840">
        <ele>10.341</ele>
        <time>1970-01-01T06:26:16Z</time>
      </trkpt>
      <trkpt lat="40.012935" lon="-0.027916">
        <ele>10.438</ele>
        <time>1970-01-01T06:26:17Z</time>
      </trkpt>
      <trkpt lat="40.012905" lon="-0.027993">
        <ele>10.519</ele>
        <time>1970-01-01T06:26:18Z</time>
      </trkpt>
      <trkpt lat="40.012874" lon="-0.028071">
        <ele>10.792</ele>
        <time>1970-01-01T06:26:19Z</time>
      </trkpt>
      <trkpt lat="40.012842" lon="-0.028147">
        <ele>11.142</ele>
        <time>1970-01-01T06:26:20Z</time>
      </trkpt>
      <trkpt lat="40.012813" lon="-0.028224">
        <ele>11.528</ele>
        <time>1970-01-01T06:26:21Z</time>
      </trkpt>
      <trkpt lat="40.012785" lon="-0.028301">
        <ele>11.972</ele>
        <time>1970-01-01T06:26:22Z</time>
      </trkpt>
      <trkpt lat="40.012756" lon="-0.028375">
        <ele>11.913</ele>
        <time>1970-01-01T06:26:23Z</time>
      </trkpt>
      <trkpt lat="40.012726" lon="-0.028449">
        <ele>11.818</ele>
        <time>1970-01-01T06:26:24Z</time>
      </trkpt>
      <trkpt lat="40.012696" lon="-0.028522">
        <ele>11.798</ele>
        <time>1970-01-01T06:26:25Z</time>
      </trkpt>
      <trkpt lat="40.012667" lon="-0.028596">
        <ele>11.617</ele>
        <time>1970-01-01T06:26:26Z</time>
      </trkpt>
      <trkpt lat="40.012640" lon="-0.028671">
        <ele>11.608</ele>
        <time>1970-01-01T06:26:27Z</time>
      </trkpt>
      <trkpt lat="40.012614" lon="-0.028746">
        <ele>11.658</ele>
        <time>1970-01-01T06:26:28Z</time>
      </trkpt>
      <trkpt lat="40.012589" lon="-0.028821">
        <ele>11.695</ele>
        <time>1970-01-01T06:26:29Z</time>
      </trkpt>
      <trkpt lat="40.012563" lon="-0.028893">
        <ele>11.566</ele>
        <time>1970-01-01T06:26:30Z</time>
      </trkpt>
      <trkpt lat="40.012534" lon="-0.028965">
        <ele>11.549</ele>
        <time>1970-01-01T06:26:31Z</time>
      </trkpt>
      <trkpt lat="40.012504" lon="-0.029034">
        <ele>11.519</ele>
        <time>1970-01-01T06:26:32Z</time>
      </trkpt>
      <trkpt lat="40.012476" lon="-0.029106">
        <ele>11.515</ele>
        <time>1970-01-01T06:26:33Z</time>
      </trkpt>
      <trkpt lat="40.012450" lon="-0.029179">
        <ele>11.399</ele>
        <time>1970-01-01T06:26:34Z</time>
      </trkpt>
      <trkpt lat="40.012423" lon="-0.029253">
        <ele>11.110</ele>
        <time>1970-01-01T06:26:35Z</time>
      </trkpt>
      <trkpt lat="40.012393" lon="-0.029326">
        <ele>10.957</ele>
        <time>1970-01-01T06:26:36Z</time>
      </trkpt>
      <trkpt lat="40.012363" lon="-0.029399">
        <ele>10.900</ele>
        <time>1970-01-01T06:26:37Z</time>
      </trkpt>
      <trkpt lat="40.012334" lon="-0.029470">
        <ele>10.920</ele>
        <time>1970-01-01T06:26:38Z</time>
      </trkpt>
      <trkpt lat="40.012305" lon="-0.029540">
        <ele>10.808</ele>
        <time>1970-01-01T06:26:39Z</time>
      </trkpt>
      <trkpt lat="40.012276" lon="-0.029610">
        <ele>10.952</ele>
        <time>1970-01-01T06:26:40Z</time>
      </trkpt>
      <trkpt lat="40.012246" lon="-0.029679">
        <ele>10.929</ele>
        <time>1970-01-01T06:26:41Z</time>
      </trkpt>
      <trkpt lat="40.012216" lon="-0.029747">
        <ele>11.150</ele>
        <time>1970-01-01T06:26:42Z</time>
      </trkpt>
      <trkpt lat="40.012188" lon="-0.029816">
        <ele>11.223</ele>
        <time>1970-01-01T06:26:43Z</time>
      </trkpt>
      <trkpt lat="40.012161" lon="-0.029884">
        <ele>11.463</ele>
        <time>1970-01-01T06:26:44Z</time>
      </trkpt>
      <trkpt lat="40.012135" lon="-0.029952">
        <ele>11.559</ele>
        <time>1970-01-01T06:26:45Z</time>
      </trkpt>
      <trkpt lat="40.012108" lon="-0.030019">
        <ele>11.663</ele>
        <time>1970-01-01T06:26:46Z</time>
      </trkpt>
      <trkpt lat="40.012082" lon="-0.030086">
        <ele>11.774</ele>
        <time>1970-01-01T06:26:47Z</time>
      </trkpt>
      <trkpt lat="40.012057" lon="-0.030151">
        <ele>11.781</ele>
        <time>1970-01-01T06:26:48Z</time>
      </trkpt>
      <trkpt lat="40.012032" lon="-0.030216">
        <ele>11.861</ele>
        <time>1970-01-01T06:26:49Z</time>
      </trkpt>
      <trkpt lat="40.012008" lon="-0.030281">
        <ele>12.017</ele>
        <time>1970-01-01T06:26:50Z</time>
      </trkpt>
      <trkpt lat="40.011983" lon="-0.030347">
        <ele>12.008</ele>
        <time>1970-01-01T06:26:51Z</time>
      </trkpt>
      <trkpt lat="40.011957" lon="-0.030412">
        <ele>12.085</ele>
        <time>1970-01-01T06:26:52Z</time>
      </trkpt>
      <trkpt lat="40.011930" lon="-0.030477">
        <ele>12.082</ele>
        <time>1970-01-01T06:26:53Z</time>
      </trkpt>
      <trkpt lat="40.011904" lon="-0.030545">
        <ele>12.033</ele>
        <time>1970-01-01T06:26:54Z</time>
      </trkpt>
      <trkpt lat="40.011878" lon="-0.030613">
        <ele>12.216</ele>
        <time>1970-01-01T06:26:55Z</time>
      </trkpt>
      <trkpt lat="40.011849" lon="-0.030680">
        <ele>12.476</ele>
        <time>1970-01-01T06:26:56Z</time>
      </trkpt>
      <trkpt lat="40.011822" lon="-0.030747">
        <ele>12.752</ele>
        <time>1970-01-01T06:26:57Z</time>
      </trkpt>
      <trkpt lat="40.011796" lon="-0.030812">
        <ele>12.976</ele>
        <time>1970-01-01T06:26:58Z</time>
      </trkpt>
      <trkpt lat="40.011769" lon="-0.030878">
        <ele>13.277</ele>
        <time>1970-01-01T06:26:59Z</time>
      </trkpt>
      <trkpt lat="40.011742" lon="-0.030943">
        <ele>13.417</ele>
        <time>1970-01-01T06:27:00Z</time>
      </trkpt>
      <trkpt lat="40.011717" lon="-0.031008">
        <ele>13.687</ele>
        <time>1970-01-01T06:27:01Z</time>
      </trkpt>
      <trkpt lat="40.011693" lon="-0.031074">
        <ele>13.915</ele>
        <time>1970-01-01T06:27:02Z</time>
      </trkpt>
      <trkpt lat="40.011668" lon="-0.031141">
        <ele>14.108</ele>
        <time>1970-01-01T06:27:03Z</time>
      </trkpt>
      <trkpt lat="40.011644" lon="-0.031208">
        <ele>14.338</ele>
        <time>1970-01-01T06:27:04Z</time>
      </trkpt>
      <trkpt lat="40.011618" lon="-0.031275">
        <ele>14.655</ele>
        <time>1970-01-01T06:27:05Z</time>
      </trkpt>
      <trkpt lat="40.011591" lon="-0.031343">
        <ele>14.836</ele>
        <time>1970-01-01T06:27:06Z</time>
      </trkpt>
      <trkpt lat="40.011564" lon="-0.031413">
        <ele>15.169</ele>
        <time>1970-01-01T06:27:07Z</time>
      </trkpt>
      <trkpt lat="40.011539" lon="-0.031482">
        <ele>15.269</ele>
        <time>1970-01-01T06:27:08Z</time>
      </trkpt>
      <trkpt lat="40.011512" lon="-0.031552">
        <ele>15.335</ele>
        <time>1970-01-01T06:27:09Z</time>
      </trkpt>
      <trkpt lat="40.011484" lon="-0.031621">
        <ele>15.359</ele>
        <time>1970-01-01T06:27:10Z</time>
      </trkpt>
      <trkpt lat="40.011456" lon="-0.031691">
        <ele>15.250</ele>
        <time>1970-01-01T06:27:11Z</time>
      </trkpt>
      <trkpt lat="40.011430" lon="-0.031760">
        <ele>15.132</ele>
        <time>1970-01-01T06:27:12Z</time>
      </trkpt>
      <trkpt lat="40.011405" lon="-0.031829">
        <ele>15.192</ele>
        <time>1970-01-01T06:27:13Z</time>
      </trkpt>
      <trkpt lat="40.011379" lon="-0.031897">
        <ele>15.011</ele>
        <time>1970-01-01T06:27:14Z</time>
      </trkpt>
      <trkpt lat="40.011352" lon="-0.031966">
        <ele>14.908</ele>
        <time>1970-01-01T06:27:15Z</time>
      </trkpt>
      <trkpt lat="40.011324" lon="-0.032032">
        <ele>14.810</ele>
        <time>1970-01-01T06:27:16Z</time>
      </trkpt>
      <trkpt lat="40.011296" lon="-0.032097">
        <ele>14.717</ele>
        <time>1970-01-01T06:27:17Z</time>
      </trkpt>
      <trkpt lat="40.011267" lon="-0.032161">
        <ele>14.678</ele>
        <time>1970-01-01T06:27:18Z</time>
      </trkpt>
      <trkpt lat="40.011239" lon="-0.032225">
        <ele>14.581</ele>
        <time>1970-01-01T06:27:19Z</time>
      </trkpt>
      <trkpt lat="40.011211" lon="-0.032288">
        <ele>14.541</ele>
        <time>1970-01-01T06:27:20Z</time>
      </trkpt>
      <trkpt lat="40.011182" lon="-0.032353">
        <ele>14.667</ele>
        <time>1970-01-01T06:27:21Z</time>
      </trkpt>
      <trkpt lat="40.011153" lon="-0.032418">
        <ele>14.791</ele>
        <time>1970-01-01T06:27:22Z</time>
      </trkpt>
      <trkpt lat="40.011122" lon="-0.032484">
        <ele>14.992</ele>
        <time>1970-01-01T06:27:23Z</time>
      </trkpt>
      <trkpt lat="40.011091" lon="-0.032550">
        <ele>15.292</ele>
        <time>1970-01-01T06:27:24Z</time>
      </trkpt>
      <trkpt lat="40.011060" lon="-0.032616">
        <ele>15.573</ele>
        <time>1970-01-01T06:27:25Z</time>
      </trkpt>
      <trkpt lat="40.011029" lon="-0.032683">
        <ele>15.820</ele>
        <time>1970-01-01T06:27:26Z</time>
      </trkpt>
      <trkpt lat="40.010999" lon="-0.032750">
        <ele>15.908</ele>
        <time>1970-01-01T06:27:27Z</time>
      </trkpt>
      <trkpt lat="40.010968" lon="-0.032817">
        <ele>15.996</ele>
        <time>1970-01-01T06:27:28Z</time>
      </trkpt>
      <trkpt lat="40.010937" lon="-0.032884">
        <ele>15.613</ele>
        <time>1970-01-01T06:27:29Z</time>
      </trkpt>
      <trkpt lat="40.010906" lon="-0.032953">
        <ele>15.444</ele>
        <time>1970-01-01T06:27:30Z</time>
      </trkpt>
      <trkpt lat="40.010874" lon="-0.033023">
        <ele>15.177</ele>
        <time>1970-01-01T06:27:31Z</time>
      </trkpt>
      <trkpt lat="40.010840" lon="-0.033093">
        <ele>14.917</ele>
        <time>1970-01-01T06:27:32Z</time>
      </trkpt>
      <trkpt lat="40.010804" lon="-0.033161">
        <ele>14.923</ele>
        <time>1970-01-01T06:27:33Z</time>
      </trkpt>
      <trkpt lat="40.010768" lon="-0.033229">
        <ele>15.057</ele>
        <time>1970-01-01T06:27:34Z</time>
      </trkpt>
      <trkpt lat="40.010732" lon="-0.033295">
        <ele>15.218</ele>
        <time>1970-01-01T06:27:35Z</time>
      </trkpt>
      <trkpt lat="40.010695" lon="-0.033362">
        <ele>15.447</ele>
        <time>1970-01-01T06:27:36Z</time>
      </trkpt>
      <trkpt lat="40.010659" lon="-0.033429">
        <ele>15.729</ele>
        <time>1970-01-01T06:27:37Z</time>
      </trkpt>
      <trkpt lat="40.010623" lon="-0.033493">
        <ele>15.821</ele>
        <time>1970-01-01T06:27:38Z</time>
      </trkpt>
      <trkpt lat="40.010586" lon="-0.033556">
        <ele>16.008</ele>
        <time>1970-01-01T06:27:39Z</time>
      </trkpt>
      <trkpt lat="40.010547" lon="-0.033618">
        <ele>16.021</ele>
        <time>1970-01-01T06:27:40Z</time>
      </trkpt>
      <trkpt lat="40.010508" lon="-0.033681">
        <ele>16.118</ele>
        <time>1970-01-01T06:27:41Z</time>
      </trkpt>
      <trkpt lat="40.010470" lon="-0.033745">
        <ele>16.369</ele>
        <time>1970-01-01T06:27:42Z</time>
      </trkpt>
      <trkpt lat="40.010433" lon="-0.033810">
        <ele>16.582</ele>
        <time>1970-01-01T06:27:43Z</time>
      </trkpt>
      <trkpt lat="40.010396" lon="-0.033874">
        <ele>16.732</ele>
        <time>1970-01-01T06:27:44Z</time>
      </trkpt>
      <trkpt lat="40.010357" lon="-0.033937">
        <ele>17.228</ele>
        <time>1970-01-01T06:27:45Z</time>
      </trkpt>
      <trkpt lat="40.010316" lon="-0.033998">
        <ele>17.612</ele>
        <time>1970-01-01T06:27:46Z</time>
      </trkpt>
      <trkpt lat="40.010276" lon="-0.034058">
        <ele>18.053</ele>
        <time>1970-01-01T06:27:47Z</time>
      </trkpt>
      <trkpt lat="40.010235" lon="-0.034118">
        <ele>18.115</ele>
        <time>1970-01-01T06:27:48Z</time>
      </trkpt>
      <trkpt lat="40.010193" lon="-0.034177">
        <ele>18.365</ele>
        <time>1970-01-01T06:27:49Z</time>
      </trkpt>
      <trkpt lat="40.010150" lon="-0.034237">
        <ele>18.311</ele>
        <time>1970-01-01T06:27:50Z</time>
      </trkpt>
      <trkpt lat="40.010107" lon="-0.034296">
        <ele>18.308</ele>
        <time>1970-01-01T06:27:51Z</time>
      </trkpt>
      <trkpt lat="40.010063" lon="-0.034357">
        <ele>18.278</ele>
        <time>1970-01-01T06:27:52Z</time>
      </trkpt>
      <trkpt lat="40.010018" lon="-0.034417">
        <ele>18.185</ele>
        <time>1970-01-01T06:27:53Z</time>
      </trkpt>
      <trkpt lat="40.009974" lon="-0.034476">
        <ele>18.156</ele>
        <time>1970-01-01T06:27:54Z</time>
      </trkpt>
      <trkpt lat="40.009931" lon="-0.034535">
        <ele>18.299</ele>
        <time>1970-01-01T06:27:55Z</time>
      </trkpt>
      <trkpt lat="40.009887" lon="-0.034595">
        <ele>18.269</ele>
        <time>1970-01-01T06:27:56Z</time>
      </trkpt>
      <trkpt lat="40.009844" lon="-0.034654">
        <ele>18.135</ele>
        <time>1970-01-01T06:27:57Z</time>
      </trkpt>
      <trkpt lat="40.009801" lon="-0.034713">
        <ele>18.059</ele>
        <time>1970-01-01T06:27:58Z</time>
      </trkpt>
      <trkpt lat="40.009757" lon="-0.034769">
        <ele>18.050</ele>
        <time>1970-01-01T06:27:59Z</time>
      </trkpt>
      <trkpt lat="40.009712" lon="-0.034823">
        <ele>18.084</ele>
        <time>1970-01-01T06:28:00Z</time>
      </trkpt>
      <trkpt lat="40.009668" lon="-0.034876">
        <ele>18.007</ele>
        <time>1970-01-01T06:28:01Z</time>
      </trkpt>
      <trkpt lat="40.009624" lon="-0.034928">
        <ele>18.017</ele>
        <time>1970-01-01T06:28:02Z</time>
      </trkpt>
      <trkpt lat="40.009579" lon="-0.034980">
        <ele>18.008</ele>
        <time>1970-01-01T06:28:03Z</time>
      </trkpt>
      <trkpt lat="40.009534" lon="-0.035031">
        <ele>18.025</ele>
        <time>1970-01-01T06:28:04Z</time>
      </trkpt>
      <trkpt lat="40.009488" lon="-0.035084">
        <ele>18.062</ele>
        <time>1970-01-01T06:28:05Z</time>
      </trkpt>
      <trkpt lat="40.009442" lon="-0.035137">
        <ele>18.073</ele>
        <time>1970-01-01T06:28:06Z</time>
      </trkpt>
      <trkpt lat="40.009394" lon="-0.035187">
        <ele>18.266</ele>
        <time>1970-01-01T06:28:07Z</time>
      </trkpt>
      <trkpt lat="40.009346" lon="-0.035236">
        <ele>18.496</ele>
        <time>1970-01-01T06:28:08Z</time>
      </trkpt>
      <trkpt lat="40.009299" lon="-0.035288">
        <ele>18.592</ele>
        <time>1970-01-01T06:28:09Z</time>
      </trkpt>
      <trkpt lat="40.009253" lon="-0.035341">
        <ele>18.736</ele>
        <time>1970-01-01T06:28:10Z</time>
      </trkpt>
      <trkpt lat="40.009206" lon="-0.035394">
        <ele>18.927</ele>
        <time>1970-01-01T06:28:11Z</time>
      </trkpt>
      <trkpt lat="40.009158" lon="-0.035445">
        <ele>19.114</ele>
        <time>1970-01-01T06:28:12Z</time>
      </trkpt>
      <trkpt lat="40.009110" lon="-0.035494">
        <ele>19.454</ele>
        <time>1970-01-01T06:28:13Z</time>
      </trkpt>
      <trkpt lat="40.009062" lon="-0.035544">
        <ele>19.709</ele>
        <time>1970-01-01T06:28:14Z</time>
      </trkpt>
      <trkpt lat="40.009013" lon="-0.035593">
        <ele>20.208</ele>
        <time>1970-01-01T06:28:15Z</time>
      </trkpt>
      <trkpt lat="40.008964" lon="-0.035641">
        <ele>20.588</ele>
        <time>1970-01-01T06:28:16Z</time>
      </trkpt>
      <trkpt lat="40.008915" lon="-0.035688">
        <ele>20.935</ele>
        <time>1970-01-01T06:28:17Z</time>
      </trkpt>
      <trkpt lat="40.008866" lon="-0.035734">
        <ele>20.916</ele>
        <time>1970-01-01T06:28:18Z</time>
      </trkpt>
      <trkpt lat="40.008816" lon="-0.035780">
        <ele>20.759</ele>
        <time>1970-01-01T06:28:19Z</time>
      </trkpt>
      <trkpt lat="40.008768" lon="-0.035826">
        <ele>20.689</ele>
        <time>1970-01-01T06:28:20Z</time>
      </trkpt>
      <trkpt lat="40.008721" lon="-0.035873">
        <ele>20.595</ele>
        <time>1970-01-01T06:28:21Z</time>
      </trkpt>
      <trkpt lat="40.008674" lon="-0.035921">
        <ele>20.379</ele>
        <time>1970-01-01T06:28:22Z</time>
      </trkpt>
      <trkpt lat="40.008627" lon="-0.035968">
        <ele>20.130</ele>
        <time>1970-01-01T06:28:23Z</time>
      </trkpt>
      <trkpt lat="40.008579" lon="-0.036013">
        <ele>19.882</ele>
        <time>1970-01-01T06:28:24Z</time>
      </trkpt>
      <trkpt lat="40.008529" lon="-0.036056">
        <ele>19.443</ele>
        <time>1970-01-01T06:28:25Z</time>
      </trkpt>
      <trkpt lat="40.008479" lon="-0.036098">
        <ele>19.017</ele>
        <time>1970-01-01T06:28:26Z</time>
      </trkpt>
      <trkpt lat="40.008429" lon="-0.036142">
        <ele>18.808</ele>
        <time>1970-01-01T06:28:27Z</time>
      </trkpt>
      <trkpt lat="40.008381" lon="-0.036189">
        <ele>18.685</ele>
        <time>1970-01-01T06:28:28Z</time>
      </trkpt>
      <trkpt lat="40.008333" lon="-0.036239">
        <ele>18.512</ele>
        <time>1970-01-01T06:28:29Z</time>
      </trkpt>
      <trkpt lat="40.008281" lon="-0.036285">
        <ele>18.663</ele>
        <time>1970-01-01T06:28:30Z</time>
      </trkpt>
      <trkpt lat="40.008228" lon="-0.036331">
        <ele>18.816</ele>
        <time>1970-01-01T06:28:31Z</time>
      </trkpt>
      <trkpt lat="40.008172" lon="-0.036376">
        <ele>19.016</ele>
        <time>1970-01-01T06:28:32Z</time>
      </trkpt>
      <trkpt lat="40.008116" lon="-0.036420">
        <ele>19.152</ele>
        <time>1970-01-01T06:28:33Z</time>
      </trkpt>
      <trkpt lat="40.008059" lon="-0.036461">
        <ele>19.346</ele>
        <time>1970-01-01T06:28:34Z</time>
      </trkpt>
      <trkpt lat="40.008001" lon="-0.036499">
        <ele>19.687</ele>
        <time>1970-01-01T06:28:35Z</time>
      </trkpt>
      <trkpt lat="40.007942" lon="-0.036537">
        <ele>19.998</ele>
        <time>1970-01-01T06:28:36Z</time>
      </trkpt>
      <trkpt lat="40.007883" lon="-0.036577">
        <ele>20.315</ele>
        <time>1970-01-01T06:28:37Z</time>
      </trkpt>
      <trkpt lat="40.007825" lon="-0.036615">
        <ele>20.626</ele>
        <time>1970-01-01T06:28:38Z</time>
      </trkpt>
      <trkpt lat="40.007766" lon="-0.036654">
        <ele>20.908</ele>
        <time>1970-01-01T06:28:39Z</time>
      </trkpt>
      <trkpt lat="40.007707" lon="-0.036692">
        <ele>20.766</ele>
        <time>1970-01-01T06:28:40Z</time>
      </trkpt>
      <trkpt lat="40.007648" lon="-0.036731">
        <ele>20.573</ele>
        <time>1970-01-01T06:28:41Z</time>
      </trkpt>
      <trkpt lat="40.007588" lon="-0.036770">
        <ele>20.394</ele>
        <time>1970-01-01T06:28:42Z</time>
      </trkpt>
      <trkpt lat="40.007528" lon="-0.036808">
        <ele>20.147</ele>
        <time>1970-01-01T06:28:43Z</time>
      </trkpt>
      <trkpt lat="40.007468" lon="-0.036846">
        <ele>19.917</ele>
        <time>1970-01-01T06:28:44Z</time>
      </trkpt>
      <trkpt lat="40.007408" lon="-0.036883">
        <ele>19.773</ele>
        <time>1970-01-01T06:28:45Z</time>
      </trkpt>
      <trkpt lat="40.007348" lon="-0.036921">
        <ele>19.577</ele>
        <time>1970-01-01T06:28:46Z</time>
      </trkpt>
      <trkpt lat="40.007287" lon="-0.036957">
        <ele>19.368</ele>
        <time>1970-01-01T06:28:47Z</time>
      </trkpt>
      <trkpt lat="40.007226" lon="-0.036993">
        <ele>19.251</ele>
        <time>1970-01-01T06:28:48Z</time>
      </trkpt>
      <trkpt lat="40.007165" lon="-0.037031">
        <ele>19.301</ele>
        <time>1970-01-01T06:28:49Z</time>
      </trkpt>
      <trkpt lat="40.007104" lon="-0.037070">
        <ele>19.511</ele>
        <time>1970-01-01T06:28:50Z</time>
      </trkpt>
      <trkpt lat="40.007042" lon="-0.037106">
        <ele>19.608</ele>
        <time>1970-01-01T06:28:51Z</time>
      </trkpt>
      <trkpt lat="40.006980" lon="-0.037141">
        <ele>19.742</ele>
        <time>1970-01-01T06:28:52Z</time>
      </trkpt>
      <trkpt lat="40.006918" lon="-0.037175">
        <ele>19.949</ele>
        <time>1970-01-01T06:28:53Z</time>
      </trkpt>
      <trkpt lat="40.006856" lon="-0.037209">
        <ele>20.320</ele>
        <time>1970-01-01T06:28:54Z</time>
      </trkpt>
      <trkpt lat="40.006794" lon="-0.037240">
        <ele>20.663</ele>
        <time>1970-01-01T06:28:55Z</time>
      </trkpt>
      <trkpt lat="40.006732" lon="-0.037271">
        <ele>21.023</ele>
        <time>1970-01-01T06:28:56Z</time>
      </trkpt>
      <trkpt lat="40.006671" lon="-0.037302">
        <ele>21.329</ele>
        <time>1970-01-01T06:28:57Z</time>
      </trkpt>
      <trkpt lat="40.006613" lon="-0.037334">
        <ele>21.123</ele>
        <time>1970-01-01T06:28:58Z</time>
      </trkpt>
      <trkpt lat="40.006556" lon="-0.037364">
        <ele>20.954</ele>
        <time>1970-01-01T06:28:59Z</time>
      </trkpt>
      <trkpt lat="40.006500" lon="-0.037395">
        <ele>20.657</ele>
        <time>1970-01-01T06:29:00Z</time>
      </trkpt>
      <trkpt lat="40.006445" lon="-0.037428">
        <ele>20.400</ele>
        <time>1970-01-01T06:29:01Z</time>
      </trkpt>
      <trkpt lat="40.006390" lon="-0.037458">
        <ele>20.020</ele>
        <time>1970-01-01T06:29:02Z</time>
      </trkpt>
      <trkpt lat="40.006334" lon="-0.037483">
        <ele>19.808</ele>
        <time>1970-01-01T06:29:03Z</time>
      </trkpt>
      <trkpt lat="40.006279" lon="-0.037508">
        <ele>19.682</ele>
        <time>1970-01-01T06:29:04Z</time>
      </trkpt>
      <trkpt lat="40.006225" lon="-0.037532">
        <ele>19.489</ele>
        <time>1970-01-01T06:29:05Z</time>
      </trkpt>
      <trkpt lat="40.006170" lon="-0.037556">
        <ele>19.250</ele>
        <time>1970-01-01T06:29:06Z</time>
      </trkpt>
      <trkpt lat="40.006117" lon="-0.037582">
        <ele>19.083</ele>
        <time>1970-01-01T06:29:07Z</time>
      </trkpt>
      <trkpt lat="40.006064" lon="-0.037610">
        <ele>19.213</ele>
        <time>1970-01-01T06:29:08Z</time>
      </trkpt>
      <trkpt lat="40.006012" lon="-0.037633">
        <ele>19.499</ele>
        <time>1970-01-01T06:29:09Z</time>
      </trkpt>
      <trkpt lat="40.005960" lon="-0.037654">
        <ele>19.553</ele>
        <time>1970-01-01T06:29:10Z</time>
      </trkpt>
      <trkpt lat="40.005910" lon="-0.037678">
        <ele>19.744</ele>
        <time>1970-01-01T06:29:11Z</time>
      </trkpt>
      <trkpt lat="40.005859" lon="-0.037702">
        <ele>19.979</ele>
        <time>1970-01-01T06:29:12Z</time>
      </trkpt>
      <trkpt lat="40.005809" lon="-0.037721">
        <ele>20.005</ele>
        <time>1970-01-01T06:29:13Z</time>
      </trkpt>
      <trkpt lat="40.005759" lon="-0.037741">
        <ele>20.025</ele>
        <time>1970-01-01T06:29:14Z</time>
      </trkpt>
      <trkpt lat="40.005711" lon="-0.037769">
        <ele>20.008</ele>
        <time>1970-01-01T06:29:15Z</time>
      </trkpt>
      <trkpt lat="40.005662" lon="-0.037797">
        <ele>20.064</ele>
        <time>1970-01-01T06:29:16Z</time>
      </trkpt>
      <trkpt lat="40.005612" lon="-0.037819">
        <ele>20.021</ele>
        <time>1970-01-01T06:29:17Z</time>
      </trkpt>
      <trkpt lat="40.005560" lon="-0.037837">
        <ele>20.072</ele>
        <time>1970-01-01T06:29:18Z</time>
      </trkpt>
      <trkpt lat="40.005509" lon="-0.037859">
        <ele>20.185</ele>
        <time>1970-01-01T06:29:19Z</time>
      </trkpt>
      <trkpt lat="40.005457" lon="-0.037887">
        <ele>20.235</ele>
        <time>1970-01-01T06:29:20Z</time>
      </trkpt>
      <trkpt lat="40.005404" lon="-0.037915">
        <ele>20.351</ele>
        <time>1970-01-01T06:29:21Z</time>
      </trkpt>
      <trkpt lat="40.005347" lon="-0.037941">
        <ele>20.375</ele>
        <time>1970-01-01T06:29:22Z</time>
      </trkpt>
      <trkpt lat="40.005289" lon="-0.037963">
        <ele>20.386</ele>
        <time>1970-01-01T06:29:23Z</time>
      </trkpt>
      <trkpt lat="40.005229" lon="-0.037983">
        <ele>20.494</ele>
        <time>1970-01-01T06:29:24Z</time>
      </trkpt>
      <trkpt lat="40.005168" lon="-0.037999">
        <ele>20.657</ele>
        <time>1970-01-01T06:29:25Z</time>
      </trkpt>
      <trkpt lat="40.005105" lon="-0.038015">
        <ele>20.822</ele>
        <time>1970-01-01T06:29:26Z</time>
      </trkpt>
      <trkpt lat="40.005043" lon="-0.038029">
        <ele>20.908</ele>
        <time>1970-01-01T06:29:27Z</time>
      </trkpt>
      <trkpt lat="40.004984" lon="-0.038046">
        <ele>21.126</ele>
        <time>1970-01-01T06:29:28Z</time>
      </trkpt>
      <trkpt lat="40.004927" lon="-0.038068">
        <ele>21.333</ele>
        <time>1970-01-01T06:29:29Z</time>
      </trkpt>
      <trkpt lat="40.004872" lon="-0.038094">
        <ele>21.574</ele>
        <time>1970-01-01T06:29:30Z</time>
      </trkpt>
      <trkpt lat="40.004817" lon="-0.038121">
        <ele>21.757</ele>
        <time>1970-01-01T06:29:31Z</time>
      </trkpt>
      <trkpt lat="40.004762" lon="-0.038150">
        <ele>21.957</ele>
        <time>1970-01-01T06:29:32Z</time>
      </trkpt>
      <trkpt lat="40.004707" lon="-0.038179">
        <ele>21.933</ele>
        <time>1970-01-01T06:29:33Z</time>
      </trkpt>
      <trkpt lat="40.004653" lon="-0.038209">
        <ele>21.517</ele>
        <time>1970-01-01T06:29:34Z</time>
      </trkpt>
      <trkpt lat="40.004599" lon="-0.038239">
        <ele>21.148</ele>
        <time>1970-01-01T06:29:35Z</time>
      </trkpt>
      <trkpt lat="40.004546" lon="-0.038268">
        <ele>20.717</ele>
        <time>1970-01-01T06:29:36Z</time>
      </trkpt>
      <trkpt lat="40.004497" lon="-0.038301">
        <ele>20.487</ele>
        <time>1970-01-01T06:29:37Z</time>
      </trkpt>
      <trkpt lat="40.004451" lon="-0.038337">
        <ele>20.115</ele>
        <time>1970-01-01T06:29:38Z</time>
      </trkpt>
      <trkpt lat="40.004408" lon="-0.038371">
        <ele>20.008</ele>
        <time>1970-01-01T06:29:39Z</time>
      </trkpt>
      <trkpt lat="40.004367" lon="-0.038404">
        <ele>19.938</ele>
        <time>1970-01-01T06:29:40Z</time>
      </trkpt>
      <trkpt lat="40.004328" lon="-0.038435">
        <ele>19.845</ele>
        <time>1970-01-01T06:29:41Z</time>
      </trkpt>
      <trkpt lat="40.004293" lon="-0.038466">
        <ele>19.786</ele>
        <time>1970-01-01T06:29:42Z</time>
      </trkpt>
      <trkpt lat="40.004258" lon="-0.038497">
        <ele>19.589</ele>
        <time>1970-01-01T06:29:43Z</time>
      </trkpt>
      <trkpt lat="40.004222" lon="-0.038530">
        <ele>19.319</ele>
        <time>1970-01-01T06:29:44Z</time>
      </trkpt>
      <trkpt lat="40.004186" lon="-0.038567">
        <ele>19.115</ele>
        <time>1970-01-01T06:29:45Z</time>
      </trkpt>
      <trkpt lat="40.004149" lon="-0.038606">
        <ele>19.169</ele>
        <time>1970-01-01T06:29:46Z</time>
      </trkpt>
      <trkpt lat="40.004112" lon="-0.038641">
        <ele>19.350</ele>
        <time>1970-01-01T06:29:47Z</time>
      </trkpt>
      <trkpt lat="40.004070" lon="-0.038672">
        <ele>19.589</ele>
        <time>1970-01-01T06:29:48Z</time>
      </trkpt>
      <trkpt lat="40.004028" lon="-0.038707">
        <ele>19.706</ele>
        <time>1970-01-01T06:29:49Z</time>
      </trkpt>
      <trkpt lat="40.003986" lon="-0.038747">
        <ele>19.826</ele>
        <time>1970-01-01T06:29:50Z</time>
      </trkpt>
      <trkpt lat="40.003945" lon="-0.038787">
        <ele>19.908</ele>
        <time>1970-01-01T06:29:51Z</time>
      </trkpt>
      <trkpt lat="40.003901" lon="-0.038827">
        <ele>20.065</ele>
        <time>1970-01-01T06:29:52Z</time>
      </trkpt>
      <trkpt lat="40.003853" lon="-0.038859">
        <ele>20.052</ele>
        <time>1970-01-01T06:29:53Z</time>
      </trkpt>
      <trkpt lat="40.003800" lon="-0.038885">
        <ele>20.073</ele>
        <time>1970-01-01T06:29:54Z</time>
      </trkpt>
      <trkpt lat="40.003745" lon="-0.038905">
        <ele>20.046</ele>
        <time>1970-01-01T06:29:55Z</time>
      </trkpt>
      <trkpt lat="40.003688" lon="-0.038918">
        <ele>20.176</ele>
        <time>1970-01-01T06:29:56Z</time>
      </trkpt>
      <trkpt lat="40.003628" lon="-0.038921">
        <ele>20.182</ele>
        <time>1970-01-01T06:29:57Z</time>
      </trkpt>
      <trkpt lat="40.003568" lon="-0.038905">
        <ele>20.286</ele>
        <time>1970-01-01T06:29:58Z</time>
      </trkpt>
      <trkpt lat="40.003511" lon="-0.038875">
        <ele>20.497</ele>
        <time>1970-01-01T06:29:59Z</time>
      </trkpt>
      <trkpt lat="40.003455" lon="-0.038838">
        <ele>20.568</ele>
        <time>1970-01-01T06:30:00Z</time>
      </trkpt>
      <trkpt lat="40.003399" lon="-0.038796">
        <ele>20.642</ele>
        <time>1970-01-01T06:30:01Z</time>
      </trkpt>
      <trkpt lat="40.003345" lon="-0.038748">
        <ele>20.526</ele>
        <time>1970-01-01T06:30:02Z</time>
      </trkpt>
      <trkpt lat="40.003291" lon="-0.038705">
        <ele>20.508</ele>
        <time>1970-01-01T06:30:03Z</time>
      </trkpt>
      <trkpt lat="40.003232" lon="-0.038683">
        <ele>20.633</ele>
        <time>1970-01-01T06:30:04Z</time>
      </trkpt>
      <trkpt lat="40.003172" lon="-0.038691">
        <ele>20.960</ele>
        <time>1970-01-01T06:30:05Z</time>
      </trkpt>
      <trkpt lat="40.003111" lon="-0.038718">
        <ele>21.231</ele>
        <time>1970-01-01T06:30:06Z</time>
      </trkpt>
      <trkpt lat="40.003051" lon="-0.038750">
        <ele>21.574</ele>
        <time>1970-01-01T06:30:07Z</time>
      </trkpt>
      <trkpt lat="40.002992" lon="-0.038780">
        <ele>22.014</ele>
        <time>1970-01-01T06:30:08Z</time>
      </trkpt>
      <trkpt lat="40.002933" lon="-0.038809">
        <ele>22.580</ele>
        <time>1970-01-01T06:30:09Z</time>
      </trkpt>
      <trkpt lat="40.002874" lon="-0.038836">
        <ele>23.014</ele>
        <time>1970-01-01T06:30:10Z</time>
      </trkpt>
      <trkpt lat="40.002815" lon="-0.038862">
        <ele>23.695</ele>
        <time>1970-01-01T06:30:11Z</time>
      </trkpt>
      <trkpt lat="40.002756" lon="-0.038888">
        <ele>23.996</ele>
        <time>1970-01-01T06:30:12Z</time>
      </trkpt>
      <trkpt lat="40.002699" lon="-0.038915">
        <ele>23.731</ele>
        <time>1970-01-01T06:30:13Z</time>
      </trkpt>
      <trkpt lat="40.002642" lon="-0.038944">
        <ele>23.524</ele>
        <time>1970-01-01T06:30:14Z</time>
      </trkpt>
      <trkpt lat="40.002584" lon="-0.038971">
        <ele>23.308</ele>
        <time>1970-01-01T06:30:15Z</time>
      </trkpt>
      <trkpt lat="40.002526" lon="-0.038997">
        <ele>23.186</ele>
        <time>1970-01-01T06:30:16Z</time>
      </trkpt>
      <trkpt lat="40.002469" lon="-0.039020">
        <ele>22.823</ele>
        <time>1970-01-01T06:30:17Z</time>
      </trkpt>
      <trkpt lat="40.002413" lon="-0.039044">
        <ele>22.454</ele>
        <time>1970-01-01T06:30:18Z</time>
      </trkpt>
      <trkpt lat="40.002357" lon="-0.039069">
        <ele>22.037</ele>
        <time>1970-01-01T06:30:19Z</time>
      </trkpt>
      <trkpt lat="40.002301" lon="-0.039095">
        <ele>21.637</ele>
        <time>1970-01-01T06:30:20Z</time>
      </trkpt>
      <trkpt lat="40.002245" lon="-0.039121">
        <ele>21.253</ele>
        <time>1970-01-01T06:30:21Z</time>
      </trkpt>
      <trkpt lat="40.002188" lon="-0.039149">
        <ele>20.927</ele>
        <time>1970-01-01T06:30:22Z</time>
      </trkpt>
      <trkpt lat="40.002131" lon="-0.039176">
        <ele>20.778</ele>
        <time>1970-01-01T06:30:23Z</time>
      </trkpt>
      <trkpt lat="40.002073" lon="-0.039202">
        <ele>20.548</ele>
        <time>1970-01-01T06:30:24Z</time>
      </trkpt>
      <trkpt lat="40.002014" lon="-0.039228">
        <ele>20.461</ele>
        <time>1970-01-01T06:30:25Z</time>
      </trkpt>
      <trkpt lat="40.001956" lon="-0.039254">
        <ele>20.317</ele>
        <time>1970-01-01T06:30:26Z</time>
      </trkpt>
      <trkpt lat="40.001898" lon="-0.039281">
        <ele>20.708</ele>
        <time>1970-01-01T06:30:27Z</time>
      </trkpt>
      <trkpt lat="40.001840" lon="-0.039307">
        <ele>21.351</ele>
        <time>1970-01-01T06:30:28Z</time>
      </trkpt>
      <trkpt lat="40.001781" lon="-0.039332">
        <ele>21.958</ele>
        <time>1970-01-01T06:30:29Z</time>
      </trkpt>
      <trkpt lat="40.001722" lon="-0.039357">
        <ele>22.679</ele>
        <time>1970-01-01T06:30:30Z</time>
      </trkpt>
      <trkpt lat="40.001663" lon="-0.039381">
        <ele>23.342</ele>
        <time>1970-01-01T06:30:31Z</time>
      </trkpt>
      <trkpt lat="40.001604" lon="-0.039406">
        <ele>23.982</ele>
        <time>1970-01-01T06:30:32Z</time>
      </trkpt>
      <trkpt lat="40.001545" lon="-0.039433">
        <ele>24.458</ele>
        <time>1970-01-01T06:30:33Z</time>
      </trkpt>
      <trkpt lat="40.001486" lon="-0.039460">
        <ele>24.792</ele>
        <time>1970-01-01T06:30:34Z</time>
      </trkpt>
      <trkpt lat="40.001428" lon="-0.039487">
        <ele>25.033</ele>
        <time>1970-01-01T06:30:35Z</time>
      </trkpt>
      <trkpt lat="40.001370" lon="-0.039515">
        <ele>25.212</ele>
        <time>1970-01-01T06:30:36Z</time>
      </trkpt>
      <trkpt lat="40.001311" lon="-0.039544">
        <ele>25.332</ele>
        <time>1970-01-01T06:30:37Z</time>
      </trkpt>
      <trkpt lat="40.001253" lon="-0.039572">
        <ele>25.205</ele>
        <time>1970-01-01T06:30:38Z</time>
      </trkpt>
      <trkpt lat="40.001195" lon="-0.039602">
        <ele>25.208</ele>
        <time>1970-01-01T06:30:39Z</time>
      </trkpt>
      <trkpt lat="40.001136" lon="-0.039629">
        <ele>25.168</ele>
        <time>1970-01-01T06:30:40Z</time>
      </trkpt>
      <trkpt lat="40.001078" lon="-0.039655">
        <ele>24.965</ele>
        <time>1970-01-01T06:30:41Z</time>
      </trkpt>
      <trkpt lat="40.001019" lon="-0.039680">
        <ele>24.796</ele>
        <time>1970-01-01T06:30:42Z</time>
      </trkpt>
      <trkpt lat="40.000961" lon="-0.039706">
        <ele>24.529</ele>
        <time>1970-01-01T06:30:43Z</time>
      </trkpt>
      <trkpt lat="40.000903" lon="-0.039731">
        <ele>24.389</ele>
        <time>1970-01-01T06:30:44Z</time>
      </trkpt>
      <trkpt lat="40.000846" lon="-0.039756">
        <ele>24.315</ele>
        <time>1970-01-01T06:30:45Z</time>
      </trkpt>
      <trkpt lat="40.000788" lon="-0.039784">
        <ele>24.439</ele>
        <time>1970-01-01T06:30:46Z</time>
      </trkpt>
      <trkpt lat="40.000731" lon="-0.039811">
        <ele>24.650</ele>
        <time>1970-01-01T06:30:47Z</time>
      </trkpt>
      <trkpt lat="40.000674" lon="-0.039839">
        <ele>24.845</ele>
        <time>1970-01-01T06:30:48Z</time>
      </trkpt>
      <trkpt lat="40.000616" lon="-0.039865">
        <ele>25.047</ele>
        <time>1970-01-01T06:30:49Z</time>
      </trkpt>
      <trkpt lat="40.000558" lon="-0.039890">
        <ele>25.211</ele>
        <time>1970-01-01T06:30:50Z</time>
      </trkpt>
      <trkpt lat="40.000501" lon="-0.039916">
        <ele>25.308</ele>
        <time>1970-01-01T06:30:51Z</time>
      </trkpt>
      <trkpt lat="40.000444" lon="-0.039941">
        <ele>25.381</ele>
        <time>1970-01-01T06:30:52Z</time>
      </trkpt>
      <trkpt lat="40.000389" lon="-0.039964">
        <ele>25.338</ele>
        <time>1970-01-01T06:30:53Z</time>
      </trkpt>
      <trkpt lat="40.000336" lon="-0.039987">
        <ele>25.269</ele>
        <time>1970-01-01T06:30:54Z</time>
      </trkpt>
      <trkpt lat="40.000283" lon="-0.040010">
        <ele>25.172</ele>
        <time>1970-01-01T06:30:55Z</time>
      </trkpt>
      <trkpt lat="40.000231" lon="-0.040035">
        <ele>25.192</ele>
        <time>1970-01-01T06:30:56Z</time>
      </trkpt>
      <trkpt lat="40.000179" lon="-0.040061">
        <ele>25.118</ele>
        <time>1970-01-01T06:30:57Z</time>
      </trkpt>
      <trkpt lat="40.000129" lon="-0.040085">
        <ele>25.122</ele>
        <time>1970-01-01T06:30:58Z</time>
      </trkpt>
      <trkpt lat="40.000081" lon="-0.040108">
        <ele>25.193</ele>
        <time>1970-01-01T06:30:59Z</time>
      </trkpt>
      <trkpt lat="40.000035" lon="-0.040129">
        <ele>25.173</ele>
        <time>1970-01-01T06:31:00Z</time>
      </trkpt>
      <trkpt lat="39.999996" lon="-0.040148">
        <ele>25.085</ele>
        <time>1970-01-01T06:31:01Z</time>
      </trkpt>
      <trkpt lat="39.999962" lon="-0.040167">
        <ele>25.213</ele>
        <time>1970-01-01T06:31:02Z</time>
      </trkpt>
      <trkpt lat="39.999933" lon="-0.040192">
        <ele>25.308</ele>
        <time>1970-01-01T06:31:03Z</time>
      </trkpt>
      <trkpt lat="39.999908" lon="-0.040235">
        <ele>25.484</ele>
        <time>1970-01-01T06:31:04Z</time>
      </trkpt>
      <trkpt lat="39.999883" lon="-0.040283">
        <ele>25.451</ele>
        <time>1970-01-01T06:31:05Z</time>
      </trkpt>
      <trkpt lat="39.999854" lon="-0.040332">
        <ele>25.492</ele>
        <time>1970-01-01T06:31:06Z</time>
      </trkpt>
      <trkpt lat="39.999820" lon="-0.040379">
        <ele>25.415</ele>
        <time>1970-01-01T06:31:07Z</time>
      </trkpt>
      <trkpt lat="39.999782" lon="-0.040425">
        <ele>25.475</ele>
        <time>1970-01-01T06:31:08Z</time>
      </trkpt>
      <trkpt lat="39.999742" lon="-0.040470">
        <ele>25.321</ele>
        <time>1970-01-01T06:31:09Z</time>
      </trkpt>
      <trkpt lat="39.999707" lon="-0.040521">
        <ele>25.285</ele>
        <time>1970-01-01T06:31:10Z</time>
      </trkpt>
      <trkpt lat="39.999675" lon="-0.040575">
        <ele>25.286</ele>
        <time>1970-01-01T06:31:11Z</time>
      </trkpt>
      <trkpt lat="39.999648" lon="-0.040632">
        <ele>25.548</ele>
        <time>1970-01-01T06:31:12Z</time>
      </trkpt>
      <trkpt lat="39.999622" lon="-0.040688">
        <ele>25.861</ele>
        <time>1970-01-01T06:31:13Z</time>
      </trkpt>
      <trkpt lat="39.999607" lon="-0.040741">
        <ele>26.117</ele>
        <time>1970-01-01T06:31:14Z</time>
      </trkpt>
      <trkpt lat="39.999609" lon="-0.040800">
        <ele>26.308</ele>
        <time>1970-01-01T06:31:15Z</time>
      </trkpt>
      <trkpt lat="39.999629" lon="-0.040849">
        <ele>26.451</ele>
        <time>1970-01-01T06:31:16Z</time>
      </trkpt>
      <trkpt lat="39.999664" lon="-0.040886">
        <ele>26.598</ele>
        <time>1970-01-01T06:31:17Z</time>
      </trkpt>
      <trkpt lat="39.999697" lon="-0.040928">
        <ele>26.749</ele>
        <time>1970-01-01T06:31:18Z</time>
      </trkpt>
      <trkpt lat="39.999719" lon="-0.040980">
        <ele>27.182</ele>
        <time>1970-01-01T06:31:19Z</time>
      </trkpt>
      <trkpt lat="39.999724" lon="-0.041041">
        <ele>27.572</ele>
        <time>1970-01-01T06:31:20Z</time>
      </trkpt>
      <trkpt lat="39.999713" lon="-0.041106">
        <ele>28.058</ele>
        <time>1970-01-01T06:31:21Z</time>
      </trkpt>
      <trkpt lat="39.999693" lon="-0.041167">
        <ele>28.052</ele>
        <time>1970-01-01T06:31:22Z</time>
      </trkpt>
      <trkpt lat="39.999670" lon="-0.041223">
        <ele>28.113</ele>
        <time>1970-01-01T06:31:23Z</time>
      </trkpt>
      <trkpt lat="39.999646" lon="-0.041279">
        <ele>28.228</ele>
        <time>1970-01-01T06:31:24Z</time>
      </trkpt>
      <trkpt lat="39.999622" lon="-0.041332">
        <ele>28.389</ele>
        <time>1970-01-01T06:31:25Z</time>
      </trkpt>
      <trkpt lat="39.999592" lon="-0.041386">
        <ele>28.517</ele>
        <time>1970-01-01T06:31:26Z</time>
      </trkpt>
      <trkpt lat="39.999554" lon="-0.041422">
        <ele>28.708</ele>
        <time>1970-01-01T06:31:27Z</time>
      </trkpt>
      <trkpt lat="39.999519" lon="-0.041439">
        <ele>28.849</ele>
        <time>1970-01-01T06:31:28Z</time>
      </trkpt>
      <trkpt lat="39.999491" lon="-0.041441">
        <ele>28.936</ele>
        <time>1970-01-01T06:31:29Z</time>
      </trkpt>
      <trkpt lat="39.999472" lon="-0.041431">
        <ele>28.987</ele>
        <time>1970-01-01T06:31:30Z</time>
      </trkpt>
      <trkpt lat="39.999459" lon="-0.041422">
        <ele>29.070</ele>
        <time>1970-01-01T06:31:31Z</time>
      </trkpt>
      <trkpt lat="39.999453" lon="-0.041418">
        <ele>29.020</ele>
        <time>1970-01-01T06:31:32Z</time>
      </trkpt>
      <trkpt lat="39.999453" lon="-0.041415">
        <ele>29.046</ele>
        <time>1970-01-01T06:31:33Z</time>
      </trkpt>
      <trkpt lat="39.999452" lon="-0.041381">
        <ele>28.910</ele>
        <time>1970-01-01T06:38:40Z</time>
      </trkpt>
      <trkpt lat="39.999453" lon="-0.041355">
        <ele>28.921</ele>
        <time>1970-01-01T06:38:41Z</time>
      </trkpt>
      <trkpt lat="39.999456" lon="-0.041328">
        <ele>28.767</ele>
        <time>1970-01-01T06:38:42Z</time>
      </trkpt>
      <trkpt lat="39.999462" lon="-0.041299">
        <ele>28.681</ele>
        <time>1970-01-01T06:38:43Z</time>
      </trkpt>
      <trkpt lat="39.999470" lon="-0.041270">
        <ele>28.519</ele>
        <time>1970-01-01T06:38:44Z</time>
      </trkpt>
      <trkpt lat="39.999482" lon="-0.041238">
        <ele>28.408</ele>
        <time>1970-01-01T06:38:45Z</time>
      </trkpt>
      <trkpt lat="39.999495" lon="-0.041206">
        <ele>28.343</ele>
        <time>1970-01-01T06:38:46Z</time>
      </trkpt>
      <trkpt lat="39.999511" lon="-0.041177">
        <ele>28.260</ele>
        <time>1970-01-01T06:38:47Z</time>
      </trkpt>
      <trkpt lat="39.999526" lon="-0.041152">
        <ele>28.181</ele>
        <time>1970-01-01T06:38:48Z</time>
      </trkpt>
      <trkpt lat="39.999538" lon="-0.041125">
        <ele>28.094</ele>
        <time>1970-01-01T06:38:49Z</time>
      </trkpt>
      <trkpt lat="39.999551" lon="-0.041095">
        <ele>27.974</ele>
        <time>1970-01-01T06:38:50Z</time>
      </trkpt>
      <trkpt lat="39.999561" lon="-0.041065">
        <ele>27.840</ele>
        <time>1970-01-01T06:38:51Z</time>
      </trkpt>
      <trkpt lat="39.999569" lon="-0.041033">
        <ele>27.634</ele>
        <time>1970-01-01T06:38:52Z</time>
      </trkpt>
      <trkpt lat="39.999569" lon="-0.040998">
        <ele>27.415</ele>
        <time>1970-01-01T06:38:53Z</time>
      </trkpt>
      <trkpt lat="39.999559" lon="-0.040962">
        <ele>27.216</ele>
        <time>1970-01-01T06:38:54Z</time>
      </trkpt>
      <trkpt lat="39.999553" lon="-0.040925">
        <ele>27.176</ele>
        <time>1970-01-01T06:38:55Z</time>
      </trkpt>
      <trkpt lat="39.999556" lon="-0.040888">
        <ele>26.913</ele>
        <time>1970-01-01T06:38:56Z</time>
      </trkpt>
      <trkpt lat="39.999565" lon="-0.040850">
        <ele>26.708</ele>
        <time>1970-01-01T06:38:57Z</time>
      </trkpt>
      <trkpt lat="39.999579" lon="-0.040813">
        <ele>26.438</ele>
        <time>1970-01-01T06:38:58Z</time>
      </trkpt>
      <trkpt lat="39.999594" lon="-0.040779">
        <ele>26.385</ele>
        <time>1970-01-01T06:38:59Z</time>
      </trkpt>
      <trkpt lat="39.999612" lon="-0.040745">
        <ele>26.136</ele>
        <time>1970-01-01T06:39:00Z</time>
      </trkpt>
      <trkpt lat="39.999630" lon="-0.040713">
        <ele>25.929</ele>
        <time>1970-01-01T06:39:01Z</time>
      </trkpt>
      <trkpt lat="39.999649" lon="-0.040681">
        <ele>25.759</ele>
        <time>1970-01-01T06:39:02Z</time>
      </trkpt>
      <trkpt lat="39.999666" lon="-0.040650">
        <ele>25.565</ele>
        <time>1970-01-01T06:39:03Z</time>
      </trkpt>
      <trkpt lat="39.999678" lon="-0.040616">
        <ele>25.449</ele>
        <time>1970-01-01T06:39:04Z</time>
      </trkpt>
      <trkpt lat="39.999687" lon="-0.040581">
        <ele>25.270</ele>
        <time>1970-01-01T06:39:05Z</time>
      </trkpt>
      <trkpt lat="39.999694" lon="-0.040548">
        <ele>25.149</ele>
        <time>1970-01-01T06:39:06Z</time>
      </trkpt>
      <trkpt lat="39.999697" lon="-0.040522">
        <ele>25.202</ele>
        <time>1970-01-01T06:39:07Z</time>
      </trkpt>
      <trkpt lat="39.999696" lon="-0.040501">
        <ele>25.322</ele>
        <time>1970-01-01T06:39:08Z</time>
      </trkpt>
      <trkpt lat="39.999692" lon="-0.040487">
        <ele>25.408</ele>
        <time>1970-01-01T06:39:09Z</time>
      </trkpt>
      <trkpt lat="39.999688" lon="-0.040476">
        <ele>25.441</ele>
        <time>1970-01-01T06:39:10Z</time>
      </trkpt>
      <trkpt lat="39.999688" lon="-0.040463">
        <ele>25.578</ele>
        <time>1970-01-01T06:39:11Z</time>
      </trkpt>
      <trkpt lat="39.999678" lon="-0.040441">
        <ele>25.669</ele>
        <time>1970-01-01T06:39:12Z</time>
      </trkpt>
      <trkpt lat="39.999658" lon="-0.040417">
        <ele>25.782</ele>
        <time>1970-01-01T06:39:13Z</time>
      </trkpt>
      <trkpt lat="39.999630" lon="-0.040393">
        <ele>25.922</ele>
        <time>1970-01-01T06:39:14Z</time>
      </trkpt>
      <trkpt lat="39.999598" lon="-0.040371">
        <ele>26.128</ele>
        <time>1970-01-01T06:39:15Z</time>
      </trkpt>
      <trkpt lat="39.999560" lon="-0.040358">
        <ele>26.312</ele>
        <time>1970-01-01T06:39:16Z</time>
      </trkpt>
      <trkpt lat="39.999519" lon="-0.040359">
        <ele>26.473</ele>
        <time>1970-01-01T06:39:17Z</time>
      </trkpt>
      <trkpt lat="39.999478" lon="-0.040371">
        <ele>26.537</ele>
        <time>1970-01-01T06:39:18Z</time>
      </trkpt>
      <trkpt lat="39.999437" lon="-0.040390">
        <ele>26.649</ele>
        <time>1970-01-01T06:39:19Z</time>
      </trkpt>
      <trkpt lat="39.999395" lon="-0.040409">
        <ele>26.513</ele>
        <time>1970-01-01T06:39:20Z</time>
      </trkpt>
      <trkpt lat="39.999351" lon="-0.040428">
        <ele>26.508</ele>
        <time>1970-01-01T06:39:21Z</time>
      </trkpt>
      <trkpt lat="39.999308" lon="-0.040445">
        <ele>26.450</ele>
        <time>1970-01-01T06:39:22Z</time>
      </trkpt>
      <trkpt lat="39.999263" lon="-0.040464">
        <ele>26.357</ele>
        <time>1970-01-01T06:39:23Z</time>
      </trkpt>
      <trkpt lat="39.999219" lon="-0.040487">
        <ele>26.248</ele>
        <time>1970-01-01T06:39:24Z</time>
      </trkpt>
      <trkpt lat="39.999174" lon="-0.040508">
        <ele>26.221</ele>
        <time>1970-01-01T06:39:25Z</time>
      </trkpt>
      <trkpt lat="39.999127" lon="-0.040529">
        <ele>26.151</ele>
        <time>1970-01-01T06:39:26Z</time>
      </trkpt>
      <trkpt lat="39.999079" lon="-0.040546">
        <ele>26.037</ele>
        <time>1970-01-01T06:39:27Z</time>
      </trkpt>
      <trkpt lat="39.999031" lon="-0.040563">
        <ele>26.011</ele>
        <time>1970-01-01T06:39:28Z</time>
      </trkpt>
      <trkpt lat="39.998982" lon="-0.040584">
        <ele>26.182</ele>
        <time>1970-01-01T06:39:29Z</time>
      </trkpt>
      <trkpt lat="39.998932" lon="-0.040603">
        <ele>26.118</ele>
        <time>1970-01-01T06:39:30Z</time>
      </trkpt>
      <trkpt lat="39.998882" lon="-0.040621">
        <ele>26.298</ele>
        <time>1970-01-01T06:39:31Z</time>
      </trkpt>
      <trkpt lat="39.998832" lon="-0.040640">
        <ele>26.217</ele>
        <time>1970-01-01T06:39:32Z</time>
      </trkpt>
      <trkpt lat="39.998782" lon="-0.040662">
        <ele>26.208</ele>
        <time>1970-01-01T06:39:33Z</time>
      </trkpt>
      <trkpt lat="39.998732" lon="-0.040686">
        <ele>26.238</ele>
        <time>1970-01-01T06:39:34Z</time>
      </trkpt>
      <trkpt lat="39.998681" lon="-0.040710">
        <ele>26.115</ele>
        <time>1970-01-01T06:39:35Z</time>
      </trkpt>
      <trkpt lat="39.998628" lon="-0.040734">
        <ele>26.056</ele>
        <time>1970-01-01T06:39:36Z</time>
      </trkpt>
      <trkpt lat="39.998573" lon="-0.040760">
        <ele>26.189</ele>
        <time>1970-01-01T06:39:37Z</time>
      </trkpt>
      <trkpt lat="39.998520" lon="-0.040781">
        <ele>26.319</ele>
        <time>1970-01-01T06:39:38Z</time>
      </trkpt>
      <trkpt lat="39.998466" lon="-0.040804">
        <ele>26.555</ele>
        <time>1970-01-01T06:39:39Z</time>
      </trkpt>
      <trkpt lat="39.998413" lon="-0.040823">
        <ele>26.779</ele>
        <time>1970-01-01T06:39:40Z</time>
      </trkpt>
      <trkpt lat="39.998359" lon="-0.040839">
        <ele>26.950</ele>
        <time>1970-01-01T06:39:41Z</time>
      </trkpt>
      <trkpt lat="39.998305" lon="-0.040853">
        <ele>27.064</ele>
        <time>1970-01-01T06:39:42Z</time>
      </trkpt>
      <trkpt lat="39.998253" lon="-0.040872">
        <ele>27.006</ele>
        <time>1970-01-01T06:39:43Z</time>
      </trkpt>
      <trkpt lat="39.998204" lon="-0.040899">
        <ele>27.016</ele>
        <time>1970-01-01T06:39:44Z</time>
      </trkpt>
      <trkpt lat="39.998157" lon="-0.040934">
        <ele>27.008</ele>
        <time>1970-01-01T06:39:45Z</time>
      </trkpt>
      <trkpt lat="39.998112" lon="-0.040970">
        <ele>27.043</ele>
        <time>1970-01-01T06:39:46Z</time>
      </trkpt>
      <trkpt lat="39.998063" lon="-0.041000">
        <ele>27.090</ele>
        <time>1970-01-01T06:39:47Z</time>
      </trkpt>
      <trkpt lat="39.998013" lon="-0.041023">
        <ele>26.831</ele>
        <time>1970-01-01T06:39:48Z</time>
      </trkpt>
      <trkpt lat="39.997960" lon="-0.041047">
        <ele>26.724</ele>
        <time>1970-01-01T06:39:49Z</time>
      </trkpt>
      <trkpt lat="39.997908" lon="-0.041070">
        <ele>26.514</ele>
        <time>1970-01-01T06:39:50Z</time>
      </trkpt>
      <trkpt lat="39.997857" lon="-0.041094">
        <ele>26.320</ele>
        <time>1970-01-01T06:39:51Z</time>
      </trkpt>
      <trkpt lat="39.997807" lon="-0.041120">
        <ele>26.174</ele>
        <time>1970-01-01T06:39:52Z</time>
      </trkpt>
      <trkpt lat="39.997758" lon="-0.041142">
        <ele>26.125</ele>
        <time>1970-01-01T06:39:53Z</time>
      </trkpt>
      <trkpt lat="39.997711" lon="-0.041164">
        <ele>26.262</ele>
        <time>1970-01-01T06:39:54Z</time>
      </trkpt>
      <trkpt lat="39.997665" lon="-0.041187">
        <ele>26.383</ele>
        <time>1970-01-01T06:39:55Z</time>
      </trkpt>
      <trkpt lat="39.997618" lon="-0.041209">
        <ele>26.411</ele>
        <time>1970-01-01T06:39:56Z</time>
      </trkpt>
      <trkpt lat="39.997572" lon="-0.041231">
        <ele>26.408</ele>
        <time>1970-01-01T06:39:57Z</time>
      </trkpt>
      <trkpt lat="39.997527" lon="-0.041253">
        <ele>26.543</ele>
        <time>1970-01-01T06:39:58Z</time>
      </trkpt>
      <trkpt lat="39.997484" lon="-0.041274">
        <ele>26.670</ele>
        <time>1970-01-01T06:39:59Z</time>
      </trkpt>
      <trkpt lat="39.997440" lon="-0.041294">
        <ele>26.751</ele>
        <time>1970-01-01T06:40:00Z</time>
      </trkpt>
      <trkpt lat="39.997394" lon="-0.041311">
        <ele>26.714</ele>
        <time>1970-01-01T06:40:01Z</time>
      </trkpt>
      <trkpt lat="39.997349" lon="-0.041331">
        <ele>26.844</ele>
        <time>1970-01-01T06:40:02Z</time>
      </trkpt>
      <trkpt lat="39.997302" lon="-0.041351">
        <ele>26.930</ele>
        <time>1970-01-01T06:40:03Z</time>
      </trkpt>
      <trkpt lat="39.997255" lon="-0.041369">
        <ele>26.964</ele>
        <time>1970-01-01T06:40:04Z</time>
      </trkpt>
      <trkpt lat="39.997208" lon="-0.041388">
        <ele>27.035</ele>
        <time>1970-01-01T06:40:05Z</time>
      </trkpt>
      <trkpt lat="39.997160" lon="-0.041406">
        <ele>27.165</ele>
        <time>1970-01-01T06:40:06Z</time>
      </trkpt>
      <trkpt lat="39.997112" lon="-0.041422">
        <ele>27.168</ele>
        <time>1970-01-01T06:40:07Z</time>
      </trkpt>
      <trkpt lat="39.997063" lon="-0.041438">
        <ele>27.214</ele>
        <time>1970-01-01T06:40:08Z</time>
      </trkpt>
      <trkpt lat="39.997013" lon="-0.041456">
        <ele>27.208</ele>
        <time>1970-01-01T06:40:09Z</time>
      </trkpt>
      <trkpt lat="39.996964" lon="-0.041474">
        <ele>27.313</ele>
        <time>1970-01-01T06:40:10Z</time>
      </trkpt>
      <trkpt lat="39.996915" lon="-0.041493">
        <ele>27.450</ele>
        <time>1970-01-01T06:40:11Z</time>
      </trkpt>
      <trkpt lat="39.996867" lon="-0.041512">
        <ele>27.661</ele>
        <time>1970-01-01T06:40:12Z</time>
      </trkpt>
      <trkpt lat="39.996819" lon="-0.041534">
        <ele>27.784</ele>
        <time>1970-01-01T06:40:13Z</time>
      </trkpt>
      <trkpt lat="39.996771" lon="-0.041557">
        <ele>27.944</ele>
        <time>1970-01-01T06:40:14Z</time>
      </trkpt>
      <trkpt lat="39.996723" lon="-0.041581">
        <ele>27.950</ele>
        <time>1970-01-01T06:40:15Z</time>
      </trkpt>
      <trkpt lat="39.996675" lon="-0.041606">
        <ele>28.064</ele>
        <time>1970-01-01T06:40:16Z</time>
      </trkpt>
      <trkpt lat="39.996628" lon="-0.041635">
        <ele>28.135</ele>
        <time>1970-01-01T06:40:17Z</time>
      </trkpt>
      <trkpt lat="39.996581" lon="-0.041665">
        <ele>28.316</ele>
        <time>1970-01-01T06:40:18Z</time>
      </trkpt>
      <trkpt lat="39.996533" lon="-0.041694">
        <ele>28.576</ele>
        <time>1970-01-01T06:40:19Z</time>
      </trkpt>
      <trkpt lat="39.996483" lon="-0.041718">
        <ele>28.713</ele>
        <time>1970-01-01T06:40:20Z</time>
      </trkpt>
      <trkpt lat="39.996433" lon="-0.041739">
        <ele>28.808</ele>
        <time>1970-01-01T06:40:21Z</time>
      </trkpt>
      <trkpt lat="39.996382" lon="-0.041758">
        <ele>29.038</ele>
        <time>1970-01-01T06:40:22Z</time>
      </trkpt>
      <trkpt lat="39.996330" lon="-0.041775">
        <ele>29.095</ele>
        <time>1970-01-01T06:40:23Z</time>
      </trkpt>
      <trkpt lat="39.996279" lon="-0.041796">
        <ele>29.056</ele>
        <time>1970-01-01T06:40:24Z</time>
      </trkpt>
      <trkpt lat="39.996228" lon="-0.041820">
        <ele>29.069</ele>
        <time>1970-01-01T06:40:25Z</time>
      </trkpt>
      <trkpt lat="39.996178" lon="-0.041843">
        <ele>29.029</ele>
        <time>1970-01-01T06:40:26Z</time>
      </trkpt>
      <trkpt lat="39.996127" lon="-0.041864">
        <ele>29.025</ele>
        <time>1970-01-01T06:40:27Z</time>
      </trkpt>
      <trkpt lat="39.996075" lon="-0.041886">
        <ele>28.959</ele>
        <time>1970-01-01T06:40:28Z</time>
      </trkpt>
      <trkpt lat="39.996023" lon="-0.041909">
        <ele>28.760</ele>
        <time>1970-01-01T06:40:29Z</time>
      </trkpt>
      <trkpt lat="39.995971" lon="-0.041934">
        <ele>28.571</ele>
        <time>1970-01-01T06:40:30Z</time>
      </trkpt>
      <trkpt lat="39.995919" lon="-0.041959">
        <ele>28.441</ele>
        <time>1970-01-01T06:40:31Z</time>
      </trkpt>
      <trkpt lat="39.995865" lon="-0.041982">
        <ele>28.215</ele>
        <time>1970-01-01T06:40:32Z</time>
      </trkpt>
      <trkpt lat="39.995812" lon="-0.042005">
        <ele>28.108</ele>
        <time>1970-01-01T06:40:33Z</time>
      </trkpt>
      <trkpt lat="39.995758" lon="-0.042028">
        <ele>27.944</ele>
        <time>1970-01-01T06:40:34Z</time>
      </trkpt>
      <trkpt lat="39.995705" lon="-0.042051">
        <ele>27.721</ele>
        <time>1970-01-01T06:40:35Z</time>
      </trkpt>
      <trkpt lat="39.995651" lon="-0.042075">
        <ele>27.542</ele>
        <time>1970-01-01T06:40:36Z</time>
      </trkpt>
      <trkpt lat="39.995597" lon="-0.042102">
        <ele>27.255</ele>
        <time>1970-01-01T06:40:37Z</time>
      </trkpt>
      <trkpt lat="39.995542" lon="-0.042128">
        <ele>27.085</ele>
        <time>1970-01-01T06:40:38Z</time>
      </trkpt>
      <trkpt lat="39.995487" lon="-0.042153">
        <ele>26.831</ele>
        <time>1970-01-01T06:40:39Z</time>
      </trkpt>
      <trkpt lat="39.995432" lon="-0.042178">
        <ele>26.615</ele>
        <time>1970-01-01T06:40:40Z</time>
      </trkpt>
      <trkpt lat="39.995377" lon="-0.042202">
        <ele>26.486</ele>
        <time>1970-01-01T06:40:41Z</time>
      </trkpt>
      <trkpt lat="39.995322" lon="-0.042224">
        <ele>26.216</ele>
        <time>1970-01-01T06:40:42Z</time>
      </trkpt>
      <trkpt lat="39.995266" lon="-0.042246">
        <ele>26.176</ele>
        <time>1970-01-01T06:40:43Z</time>
      </trkpt>
      <trkpt lat="39.995211" lon="-0.042270">
        <ele>26.413</ele>
        <time>1970-01-01T06:40:44Z</time>
      </trkpt>
      <trkpt lat="39.995158" lon="-0.042299">
        <ele>26.608</ele>
        <time>1970-01-01T06:40:45Z</time>
      </trkpt>
      <trkpt lat="39.995112" lon="-0.042338">
        <ele>26.848</ele>
        <time>1970-01-01T06:40:46Z</time>
      </trkpt>
      <trkpt lat="39.995079" lon="-0.042387">
        <ele>26.985</ele>
        <time>1970-01-01T06:40:47Z</time>
      </trkpt>
      <trkpt lat="39.995053" lon="-0.042449">
        <ele>27.046</ele>
        <time>1970-01-01T06:40:48Z</time>
      </trkpt>
      <trkpt lat="39.995021" lon="-0.042517">
        <ele>27.019</ele>
        <time>1970-01-01T06:40:49Z</time>
      </trkpt>
      <trkpt lat="39.994979" lon="-0.042581">
        <ele>27.179</ele>
        <time>1970-01-01T06:40:50Z</time>
      </trkpt>
      <trkpt lat="39.994928" lon="-0.042624">
        <ele>27.415</ele>
        <time>1970-01-01T06:40:51Z</time>
      </trkpt>
      <trkpt lat="39.994872" lon="-0.042648">
        <ele>27.749</ele>
        <time>1970-01-01T06:40:52Z</time>
      </trkpt>
      <trkpt lat="39.994813" lon="-0.042657">
        <ele>28.060</ele>
        <time>1970-01-01T06:40:53Z</time>
      </trkpt>
      <trkpt lat="39.994754" lon="-0.042647">
        <ele>28.354</ele>
        <time>1970-01-01T06:40:54Z</time>
      </trkpt>
      <trkpt lat="39.994699" lon="-0.042616">
        <ele>28.656</ele>
        <time>1970-01-01T06:40:55Z</time>
      </trkpt>
      <trkpt lat="39.994652" lon="-0.042565">
        <ele>28.811</ele>
        <time>1970-01-01T06:40:56Z</time>
      </trkpt>
      <trkpt lat="39.994618" lon="-0.042498">
        <ele>29.008</ele>
        <time>1970-01-01T06:40:57Z</time>
      </trkpt>
      <trkpt lat="39.994598" lon="-0.042423">
        <ele>29.072</ele>
        <time>1970-01-01T06:40:58Z</time>
      </trkpt>
      <trkpt lat="39.994591" lon="-0.042343">
        <ele>29.019</ele>
        <time>1970-01-01T06:40:59Z</time>
      </trkpt>
      <trkpt lat="39.994602" lon="-0.042263">
        <ele>29.090</ele>
        <time>1970-01-01T06:41:00Z</time>
      </trkpt>
      <trkpt lat="39.994632" lon="-0.042189">
        <ele>29.043</ele>
        <time>1970-01-01T06:41:01Z</time>
      </trkpt>
      <trkpt lat="39.994675" lon="-0.042124">
        <ele>29.163</ele>
        <time>1970-01-01T06:41:02Z</time>
      </trkpt>
      <trkpt lat="39.994726" lon="-0.042071">
        <ele>29.069</ele>
        <time>1970-01-01T06:41:03Z</time>
      </trkpt>
      <trkpt lat="39.994780" lon="-0.042027">
        <ele>28.623</ele>
        <time>1970-01-01T06:41:04Z</time>
      </trkpt>
      <trkpt lat="39.994831" lon="-0.041979">
        <ele>28.284</ele>
        <time>1970-01-01T06:41:05Z</time>
      </trkpt>
      <trkpt lat="39.994877" lon="-0.041926">
        <ele>27.914</ele>
        <time>1970-01-01T06:41:06Z</time>
      </trkpt>
      <trkpt lat="39.994915" lon="-0.041867">
        <ele>27.754</ele>
        <time>1970-01-01T06:41:07Z</time>
      </trkpt>
      <trkpt lat="39.994943" lon="-0.041797">
        <ele>27.509</ele>
        <time>1970-01-01T06:41:08Z</time>
      </trkpt>
      <trkpt lat="39.994953" lon="-0.041721">
        <ele>27.508</ele>
        <time>1970-01-01T06:41:09Z</time>
      </trkpt>
      <trkpt lat="39.994944" lon="-0.041648">
        <ele>27.838</ele>
        <time>1970-01-01T06:41:10Z</time>
      </trkpt>
      <trkpt lat="39.994921" lon="-0.041585">
        <ele>28.965</ele>
        <time>1970-01-01T06:41:11Z</time>
      </trkpt>
      <trkpt lat="39.994889" lon="-0.041534">
        <ele>29.756</ele>
        <time>1970-01-01T06:41:12Z</time>
      </trkpt>
      <trkpt lat="39.994849" lon="-0.041497">
        <ele>30.449</ele>
        <time>1970-01-01T06:41:13Z</time>
      </trkpt>
      <trkpt lat="39.994802" lon="-0.041468">
        <ele>31.029</ele>
        <time>1970-01-01T06:41:14Z</time>
      </trkpt>
      <trkpt lat="39.994756" lon="-0.041439">
        <ele>31.515</ele>
        <time>1970-01-01T06:41:15Z</time>
      </trkpt>
      <trkpt lat="39.994709" lon="-0.041413">
        <ele>31.899</ele>
        <time>1970-01-01T06:41:16Z</time>
      </trkpt>
      <trkpt lat="39.994663" lon="-0.041387">
        <ele>32.010</ele>
        <time>1970-01-01T06:41:17Z</time>
      </trkpt>
      <trkpt lat="39.994611" lon="-0.041378">
        <ele>32.091</ele>
        <time>1970-01-01T06:41:18Z</time>
      </trkpt>
      <trkpt lat="39.994555" lon="-0.041378">
        <ele>32.081</ele>
        <time>1970-01-01T06:41:19Z</time>
      </trkpt>
      <trkpt lat="39.994500" lon="-0.041378">
        <ele>32.019</ele>
        <time>1970-01-01T06:41:20Z</time>
      </trkpt>
      <trkpt lat="39.994450" lon="-0.041367">
        <ele>32.008</ele>
        <time>1970-01-01T06:41:21Z</time>
      </trkpt>
      <trkpt lat="39.994404" lon="-0.041353">
        <ele>31.936</ele>
        <time>1970-01-01T06:41:22Z</time>
      </trkpt>
      <trkpt lat="39.994365" lon="-0.041329">
        <ele>31.793</ele>
        <time>1970-01-01T06:41:23Z</time>
      </trkpt>
      <trkpt lat="39.994345" lon="-0.041286">
        <ele>31.634</ele>
        <time>1970-01-01T06:41:24Z</time>
      </trkpt>
      <trkpt lat="39.994340" lon="-0.041231">
        <ele>31.657</ele>
        <time>1970-01-01T06:41:25Z</time>
      </trkpt>
      <trkpt lat="39.994345" lon="-0.041163">
        <ele>31.677</ele>
        <time>1970-01-01T06:41:26Z</time>
      </trkpt>
      <trkpt lat="39.994350" lon="-0.041095">
        <ele>31.613</ele>
        <time>1970-01-01T06:41:27Z</time>
      </trkpt>
      <trkpt lat="39.994355" lon="-0.041017">
        <ele>31.637</ele>
        <time>1970-01-01T06:41:28Z</time>
      </trkpt>
      <trkpt lat="39.994357" lon="-0.040939">
        <ele>31.568</ele>
        <time>1970-01-01T06:41:29Z</time>
      </trkpt>
      <trkpt lat="39.994360" lon="-0.040861">
        <ele>31.498</ele>
        <time>1970-01-01T06:41:30Z</time>
      </trkpt>
      <trkpt lat="39.994362" lon="-0.040785">
        <ele>31.315</ele>
        <time>1970-01-01T06:41:31Z</time>
      </trkpt>
      <trkpt lat="39.994369" lon="-0.040705">
        <ele>31.126</ele>
        <time>1970-01-01T06:41:32Z</time>
      </trkpt>
      <trkpt lat="39.994372" lon="-0.040630">
        <ele>30.908</ele>
        <time>1970-01-01T06:41:33Z</time>
      </trkpt>
      <trkpt lat="39.994373" lon="-0.040555">
        <ele>30.746</ele>
        <time>1970-01-01T06:41:34Z</time>
      </trkpt>
      <trkpt lat="39.994377" lon="-0.040479">
        <ele>30.743</ele>
        <time>1970-01-01T06:41:35Z</time>
      </trkpt>
      <trkpt lat="39.994379" lon="-0.040404">
        <ele>30.674</ele>
        <time>1970-01-01T06:41:36Z</time>
      </trkpt>
      <trkpt lat="39.994380" lon="-0.040329">
        <ele>30.697</ele>
        <time>1970-01-01T06:41:37Z</time>
      </trkpt>
      <trkpt lat="39.994382" lon="-0.040255">
        <ele>30.577</ele>
        <time>1970-01-01T06:41:38Z</time>
      </trkpt>
      <trkpt lat="39.994387" lon="-0.040182">
        <ele>30.433</ele>
        <time>1970-01-01T06:41:39Z</time>
      </trkpt>
      <trkpt lat="39.994392" lon="-0.040109">
        <ele>30.217</ele>
        <time>1970-01-01T06:41:40Z</time>
      </trkpt>
      <trkpt lat="39.994395" lon="-0.040042">
        <ele>30.178</ele>
        <time>1970-01-01T06:41:41Z</time>
      </trkpt>
      <trkpt lat="39.994389" lon="-0.039980">
        <ele>30.184</ele>
        <time>1970-01-01T06:41:42Z</time>
      </trkpt>
      <trkpt lat="39.994380" lon="-0.039919">
        <ele>30.207</ele>
        <time>1970-01-01T06:41:43Z</time>
      </trkpt>
      <trkpt lat="39.994359" lon="-0.039866">
        <ele>30.317</ele>
        <time>1970-01-01T06:41:44Z</time>
      </trkpt>
      <trkpt lat="39.994321" lon="-0.039830">
        <ele>30.308</ele>
        <time>1970-01-01T06:41:45Z</time>
      </trkpt>
      <trkpt lat="39.994270" lon="-0.039812">
        <ele>30.355</ele>
        <time>1970-01-01T06:41:46Z</time>
      </trkpt>
      <trkpt lat="39.994215" lon="-0.039800">
        <ele>30.182</ele>
        <time>1970-01-01T06:41:47Z</time>
      </trkpt>
      <trkpt lat="39.994157" lon="-0.039793">
        <ele>30.073</ele>
        <time>1970-01-01T06:41:48Z</time>
      </trkpt>
      <trkpt lat="39.994101" lon="-0.039785">
        <ele>30.096</ele>
        <time>1970-01-01T06:41:49Z</time>
      </trkpt>
      <trkpt lat="39.994046" lon="-0.039775">
        <ele>30.096</ele>
        <time>1970-01-01T06:41:50Z</time>
      </trkpt>
      <trkpt lat="39.993998" lon="-0.039770">
        <ele>30.032</ele>
        <time>1970-01-01T06:41:51Z</time>
      </trkpt>
      <trkpt lat="39.993960" lon="-0.039755">
        <ele>30.046</ele>
        <time>1970-01-01T06:41:52Z</time>
      </trkpt>
      <trkpt lat="39.993921" lon="-0.039748">
        <ele>30.077</ele>
        <time>1970-01-01T06:41:53Z</time>
      </trkpt>
      <trkpt lat="39.993887" lon="-0.039733">
        <ele>30.052</ele>
        <time>1970-01-01T06:41:54Z</time>
      </trkpt>
      <trkpt lat="39.993853" lon="-0.039719">
        <ele>30.353</ele>
        <time>1970-01-01T06:41:55Z</time>
      </trkpt>
      <trkpt lat="39.993817" lon="-0.039701">
        <ele>30.508</ele>
        <time>1970-01-01T06:41:56Z</time>
      </trkpt>
      <trkpt lat="39.993773" lon="-0.039687">
        <ele>30.808</ele>
        <time>1970-01-01T06:41:57Z</time>
      </trkpt>
      <trkpt lat="39.993727" lon="-0.039669">
        <ele>31.192</ele>
        <time>1970-01-01T06:41:58Z</time>
      </trkpt>
      <trkpt lat="39.993682" lon="-0.039643">
        <ele>31.389</ele>
        <time>1970-01-01T06:41:59Z</time>
      </trkpt>
      <trkpt lat="39.993638" lon="-0.039620">
        <ele>31.550</ele>
        <time>1970-01-01T06:42:00Z</time>
      </trkpt>
      <trkpt lat="39.993597" lon="-0.039598">
        <ele>31.613</ele>
        <time>1970-01-01T06:42:01Z</time>
      </trkpt>
      <trkpt lat="39.993554" lon="-0.039578">
        <ele>31.713</ele>
        <time>1970-01-01T06:42:02Z</time>
      </trkpt>
      <trkpt lat="39.993510" lon="-0.039560">
        <ele>31.889</ele>
        <time>1970-01-01T06:42:03Z</time>
      </trkpt>
      <trkpt lat="39.993469" lon="-0.039534">
        <ele>32.083</ele>
        <time>1970-01-01T06:42:04Z</time>
      </trkpt>
      <trkpt lat="39.993424" lon="-0.039514">
        <ele>32.324</ele>
        <time>1970-01-01T06:42:05Z</time>
      </trkpt>
      <trkpt lat="39.993376" lon="-0.039495">
        <ele>32.637</ele>
        <time>1970-01-01T06:42:06Z</time>
      </trkpt>
      <trkpt lat="39.993330" lon="-0.039474">
        <ele>32.949</ele>
        <time>1970-01-01T06:42:07Z</time>
      </trkpt>
      <trkpt lat="39.993282" lon="-0.039455">
        <ele>33.013</ele>
        <time>1970-01-01T06:42:08Z</time>
      </trkpt>
      <trkpt lat="39.993235" lon="-0.039433">
        <ele>33.008</ele>
        <time>1970-01-01T06:42:09Z</time>
      </trkpt>
      <trkpt lat="39.993190" lon="-0.039416">
        <ele>33.040</ele>
        <time>1970-01-01T06:42:10Z</time>
      </trkpt>
      <trkpt lat="39.993143" lon="-0.039401">
        <ele>33.017</ele>
        <time>1970-01-01T06:42:11Z</time>
      </trkpt>
      <trkpt lat="39.993098" lon="-0.039389">
        <ele>33.078</ele>
        <time>1970-01-01T06:42:12Z</time>
      </trkpt>
      <trkpt lat="39.993052" lon="-0.039377">
        <ele>33.021</ele>
        <time>1970-01-01T06:42:13Z</time>
      </trkpt>
      <trkpt lat="39.993005" lon="-0.039356">
        <ele>32.841</ele>
        <time>1970-01-01T06:42:14Z</time>
      </trkpt>
      <trkpt lat="39.992957" lon="-0.039337">
        <ele>32.627</ele>
        <time>1970-01-01T06:42:15Z</time>
      </trkpt>
      <trkpt lat="39.992907" lon="-0.039313">
        <ele>32.571</ele>
        <time>1970-01-01T06:42:16Z</time>
      </trkpt>
      <trkpt lat="39.992859" lon="-0.039289">
        <ele>32.392</ele>
        <time>1970-01-01T06:42:17Z</time>
      </trkpt>
      <trkpt lat="39.992819" lon="-0.039270">
        <ele>32.141</ele>
        <time>1970-01-01T06:42:18Z</time>
      </trkpt>
      <trkpt lat="39.992777" lon="-0.039247">
        <ele>32.081</ele>
        <time>1970-01-01T06:42:19Z</time>
      </trkpt>
      <trkpt lat="39.992737" lon="-0.039225">
        <ele>32.109</ele>
        <time>1970-01-01T06:42:20Z</time>
      </trkpt>
      <trkpt lat="39.992698" lon="-0.039214">
        <ele>32.208</ele>
        <time>1970-01-01T06:42:21Z</time>
      </trkpt>
      <trkpt lat="39.992660" lon="-0.039203">
        <ele>32.441</ele>
        <time>1970-01-01T06:42:22Z</time>
      </trkpt>
      <trkpt lat="39.992625" lon="-0.039190">
        <ele>32.548</ele>
        <time>1970-01-01T06:42:23Z</time>
      </trkpt>
      <trkpt lat="39.992589" lon="-0.039174">
        <ele>32.789</ele>
        <time>1970-01-01T06:42:24Z</time>
      </trkpt>
      <trkpt lat="39.992559" lon="-0.039160">
        <ele>32.832</ele>
        <time>1970-01-01T06:42:25Z</time>
      </trkpt>
      <trkpt lat="39.992533" lon="-0.039135">
        <ele>32.862</ele>
        <time>1970-01-01T06:42:26Z</time>
      </trkpt>
      <trkpt lat="39.943230" lon="-0.101791">
        <ele>41.022</ele>
        <time>2022-04-24T06:25:38Z</time>
      </trkpt>
      <trkpt lat="39.943254" lon="-0.101800">
        <ele>39.062</ele>
        <time>2022-04-24T06:26:06Z</time>
      </trkpt>
      <trkpt lat="39.943245" lon="-0.101782">
        <ele>38.508</ele>
        <time>2022-04-24T06:26:11Z</time>
      </trkpt>
      <trkpt lat="39.943298" lon="-0.101831">
        <ele>34.509</ele>
        <time>2022-04-24T06:27:08Z</time>
      </trkpt>
      <trkpt lat="39.943316" lon="-0.101926">
        <ele>34.273</ele>
        <time>2022-04-24T06:27:13Z</time>
      </trkpt>
      <trkpt lat="39.943269" lon="-0.102008">
        <ele>35.922</ele>
        <time>2022-04-24T06:27:18Z</time>
      </trkpt>
      <trkpt lat="39.943149" lon="-0.101955">
        <ele>38.283</ele>
        <time>2022-04-24T06:27:23Z</time>
      </trkpt>
      <trkpt lat="39.942971" lon="-0.101801">
        <ele>39.752</ele>
        <time>2022-04-24T06:27:28Z</time>
      </trkpt>
      <trkpt lat="39.942691" lon="-0.101544">
        <ele>41.719</ele>
        <time>2022-04-24T06:27:36Z</time>
      </trkpt>
      <trkpt lat="39.942454" lon="-0.101308">
        <ele>41.015</ele>
        <time>2022-04-24T06:27:43Z</time>
      </trkpt>
      <trkpt lat="39.942290" lon="-0.101127">
        <ele>40.728</ele>
        <time>2022-04-24T06:27:48Z</time>
      </trkpt>
      <trkpt lat="39.942127" lon="-0.100962">
        <ele>40.427</ele>
        <time>2022-04-24T06:27:53Z</time>
      </trkpt>
      <trkpt lat="39.942011" lon="-0.100784">
        <ele>39.974</ele>
        <time>2022-04-24T06:27:58Z</time>
      </trkpt>
      <trkpt lat="39.941749" lon="-0.100521">
        <ele>38.238</ele>
        <time>2022-04-24T06:28:06Z</time>
      </trkpt>
      <trkpt lat="39.941515" lon="-0.100287">
        <ele>38.070</ele>
        <time>2022-04-24T06:28:13Z</time>
      </trkpt>
      <trkpt lat="39.941345" lon="-0.100084">
        <ele>36.517</ele>
        <time>2022-04-24T06:28:18Z</time>
      </trkpt>
      <trkpt lat="39.941055" lon="-0.099757">
        <ele>37.909</ele>
        <time>2022-04-24T06:28:26Z</time>
      </trkpt>
      <trkpt lat="39.940805" lon="-0.099475">
        <ele>35.994</ele>
        <time>2022-04-24T06:28:33Z</time>
      </trkpt>
      <trkpt lat="39.940579" lon="-0.099637">
        <ele>39.043</ele>
        <time>2022-04-24T06:28:41Z</time>
      </trkpt>
      <trkpt lat="39.940436" lon="-0.099831">
        <ele>39.254</ele>
        <time>2022-04-24T06:28:46Z</time>
      </trkpt>
      <trkpt lat="39.940213" lon="-0.099909">
        <ele>38.433</ele>
        <time>2022-04-24T06:28:53Z</time>
      </trkpt>
      <trkpt lat="39.940021" lon="-0.099747">
        <ele>38.450</ele>
        <time>2022-04-24T06:28:58Z</time>
      </trkpt>
      <trkpt lat="39.939805" lon="-0.099588">
        <ele>37.766</ele>
        <time>2022-04-24T06:29:03Z</time>
      </trkpt>
      <trkpt lat="39.939611" lon="-0.099398">
        <ele>37.079</ele>
        <time>2022-04-24T06:29:08Z</time>
      </trkpt>
      <trkpt lat="39.939324" lon="-0.099123">
        <ele>37.238</ele>
        <time>2022-04-24T06:29:16Z</time>
      </trkpt>
      <trkpt lat="39.939088" lon="-0.098916">
        <ele>33.545</ele>
        <time>2022-04-24T06:29:23Z</time>
      </trkpt>
      <trkpt lat="39.938787" lon="-0.098648">
        <ele>33.583</ele>
        <time>2022-04-24T06:29:31Z</time>
      </trkpt>
      <trkpt lat="39.938581" lon="-0.098457">
        <ele>33.425</ele>
        <time>2022-04-24T06:29:36Z</time>
      </trkpt>
      <trkpt lat="39.938384" lon="-0.098278">
        <ele>33.517</ele>
        <time>2022-04-24T06:29:41Z</time>
      </trkpt>
      <trkpt lat="39.938196" lon="-0.098102">
        <ele>33.009</ele>
        <time>2022-04-24T06:29:46Z</time>
      </trkpt>
      <trkpt lat="39.937976" lon="-0.097845">
        <ele>32.289</ele>
        <time>2022-04-24T06:29:53Z</time>
      </trkpt>
      <trkpt lat="39.937798" lon="-0.097655">
        <ele>33.038</ele>
        <time>2022-04-24T06:29:58Z</time>
      </trkpt>
      <trkpt lat="39.937479" lon="-0.097359">
        <ele>35.789</ele>
        <time>2022-04-24T06:30:06Z</time>
      </trkpt>
      <trkpt lat="39.937289" lon="-0.097169">
        <ele>37.078</ele>
        <time>2022-04-24T06:30:11Z</time>
      </trkpt>
      <trkpt lat="39.937100" lon="-0.096963">
        <ele>39.565</ele>
        <time>2022-04-24T06:30:16Z</time>
      </trkpt>
      <trkpt lat="39.936801" lon="-0.096737">
        <ele>40.511</ele>
        <time>2022-04-24T06:30:23Z</time>
      </trkpt>
      <trkpt lat="39.936513" lon="-0.097047">
        <ele>44.724</ele>
        <time>2022-04-24T06:30:31Z</time>
      </trkpt>
      <trkpt lat="39.936305" lon="-0.097271">
        <ele>45.983</ele>
        <time>2022-04-24T06:30:38Z</time>
      </trkpt>
      <trkpt lat="39.936050" lon="-0.097562">
        <ele>44.940</ele>
        <time>2022-04-24T06:30:46Z</time>
      </trkpt>
      <trkpt lat="39.935817" lon="-0.097816">
        <ele>42.242</ele>
        <time>2022-04-24T06:30:53Z</time>
      </trkpt>
      <trkpt lat="39.935661" lon="-0.097961">
        <ele>42.422</ele>
        <time>2022-04-24T06:30:58Z</time>
      </trkpt>
      <trkpt lat="39.935405" lon="-0.098292">
        <ele>40.514</ele>
        <time>2022-04-24T06:31:06Z</time>
      </trkpt>
      <trkpt lat="39.935167" lon="-0.098618">
        <ele>38.709</ele>
        <time>2022-04-24T06:31:13Z</time>
      </trkpt>
      <trkpt lat="39.935001" lon="-0.098845">
        <ele>36.575</ele>
        <time>2022-04-24T06:31:18Z</time>
      </trkpt>
      <trkpt lat="39.934834" lon="-0.099038">
        <ele>37.564</ele>
        <time>2022-04-24T06:31:23Z</time>
      </trkpt>
      <trkpt lat="39.934560" lon="-0.099288">
        <ele>42.035</ele>
        <time>2022-04-24T06:31:31Z</time>
      </trkpt>
      <trkpt lat="39.934392" lon="-0.099473">
        <ele>43.714</ele>
        <time>2022-04-24T06:31:36Z</time>
      </trkpt>
      <trkpt lat="39.934227" lon="-0.099668">
        <ele>45.711</ele>
        <time>2022-04-24T06:31:41Z</time>
      </trkpt>
      <trkpt lat="39.934053" lon="-0.099851">
        <ele>46.747</ele>
        <time>2022-04-24T06:31:46Z</time>
      </trkpt>
      <trkpt lat="39.933836" lon="-0.100113">
        <ele>47.770</ele>
        <time>2022-04-24T06:31:53Z</time>
      </trkpt>
      <trkpt lat="39.933533" lon="-0.100152">
        <ele>50.429</ele>
        <time>2022-04-24T06:32:01Z</time>
      </trkpt>
      <trkpt lat="39.933465" lon="-0.100117">
        <ele>53.976</ele>
        <time>2022-04-24T06:32:06Z</time>
      </trkpt>
      <trkpt lat="39.933396" lon="-0.100098">
        <ele>57.461</ele>
        <time>2022-04-24T06:32:58Z</time>
      </trkpt>
      <trkpt lat="39.933269" lon="-0.099963">
        <ele>56.921</ele>
        <time>2022-04-24T06:33:06Z</time>
      </trkpt>
      <trkpt lat="39.933070" lon="-0.099805">
        <ele>56.413</ele>
        <time>2022-04-24T06:33:13Z</time>
      </trkpt>
      <trkpt lat="39.932880" lon="-0.099644">
        <ele>56.509</ele>
        <time>2022-04-24T06:33:18Z</time>
      </trkpt>
      <trkpt lat="39.932553" lon="-0.099391">
        <ele>54.577</ele>
        <time>2022-04-24T06:33:26Z</time>
      </trkpt>
      <trkpt lat="39.932333" lon="-0.099227">
        <ele>52.716</ele>
        <time>2022-04-24T06:33:31Z</time>
      </trkpt>
      <trkpt lat="39.932064" lon="-0.099015">
        <ele>50.467</ele>
        <time>2022-04-24T06:33:36Z</time>
      </trkpt>
      <trkpt lat="39.931550" lon="-0.098653">
        <ele>48.596</ele>
        <time>2022-04-24T06:33:43Z</time>
      </trkpt>
      <trkpt lat="39.931127" lon="-0.098352">
        <ele>47.023</ele>
        <time>2022-04-24T06:33:48Z</time>
      </trkpt>
      <trkpt lat="39.930558" lon="-0.098068">
        <ele>46.799</ele>
        <time>2022-04-24T06:33:56Z</time>
      </trkpt>
      <trkpt lat="39.930250" lon="-0.097927">
        <ele>45.012</ele>
        <time>2022-04-24T06:34:03Z</time>
      </trkpt>
      <trkpt lat="39.930114" lon="-0.097798">
        <ele>43.731</ele>
        <time>2022-04-24T06:34:08Z</time>
      </trkpt>
      <trkpt lat="39.929851" lon="-0.097610">
        <ele>43.498</ele>
        <time>2022-04-24T06:34:16Z</time>
      </trkpt>
      <trkpt lat="39.929688" lon="-0.097482">
        <ele>40.512</ele>
        <time>2022-04-24T06:34:21Z</time>
      </trkpt>
      <trkpt lat="39.929447" lon="-0.097276">
        <ele>37.432</ele>
        <time>2022-04-24T06:34:28Z</time>
      </trkpt>
      <trkpt lat="39.929286" lon="-0.097153">
        <ele>34.905</ele>
        <time>2022-04-24T06:34:33Z</time>
      </trkpt>
      <trkpt lat="39.929157" lon="-0.096928">
        <ele>33.209</ele>
        <time>2022-04-24T06:34:38Z</time>
      </trkpt>
      <trkpt lat="39.928849" lon="-0.096705">
        <ele>36.212</ele>
        <time>2022-04-24T06:34:46Z</time>
      </trkpt>
      <trkpt lat="39.928577" lon="-0.096583">
        <ele>36.711</ele>
        <time>2022-04-24T06:34:53Z</time>
      </trkpt>
      <trkpt lat="39.928395" lon="-0.096504">
        <ele>36.782</ele>
        <time>2022-04-24T06:34:58Z</time>
      </trkpt>
      <trkpt lat="39.928091" lon="-0.096367">
        <ele>36.021</ele>
        <time>2022-04-24T06:35:06Z</time>
      </trkpt>
      <trkpt lat="39.927884" lon="-0.096277">
        <ele>36.098</ele>
        <time>2022-04-24T06:35:11Z</time>
      </trkpt>
      <trkpt lat="39.927662" lon="-0.096178">
        <ele>35.414</ele>
        <time>2022-04-24T06:35:16Z</time>
      </trkpt>
      <trkpt lat="39.927299" lon="-0.096013">
        <ele>32.727</ele>
        <time>2022-04-24T06:35:23Z</time>
      </trkpt>
      <trkpt lat="39.926640" lon="-0.095717">
        <ele>29.746</ele>
        <time>2022-04-24T06:35:33Z</time>
      </trkpt>
      <trkpt lat="39.926292" lon="-0.095764">
        <ele>27.763</ele>
        <time>2022-04-24T06:35:38Z</time>
      </trkpt>
      <trkpt lat="39.925789" lon="-0.095438">
        <ele>24.774</ele>
        <time>2022-04-24T06:35:48Z</time>
      </trkpt>
      <trkpt lat="39.925696" lon="-0.094950">
        <ele>22.556</ele>
        <time>2022-04-24T06:35:58Z</time>
      </trkpt>
      <trkpt lat="39.925457" lon="-0.094846">
        <ele>24.721</ele>
        <time>2022-04-24T06:36:03Z</time>
      </trkpt>
      <trkpt lat="39.925213" lon="-0.094740">
        <ele>25.509</ele>
        <time>2022-04-24T06:36:08Z</time>
      </trkpt>
      <trkpt lat="39.924753" lon="-0.094532">
        <ele>25.768</ele>
        <time>2022-04-24T06:36:18Z</time>
      </trkpt>
      <trkpt lat="39.924264" lon="-0.094304">
        <ele>25.267</ele>
        <time>2022-04-24T06:36:28Z</time>
      </trkpt>
      <trkpt lat="39.924020" lon="-0.094195">
        <ele>25.728</ele>
        <time>2022-04-24T06:36:33Z</time>
      </trkpt>
      <trkpt lat="39.923776" lon="-0.094088">
        <ele>26.767</ele>
        <time>2022-04-24T06:36:38Z</time>
      </trkpt>
      <trkpt lat="39.923271" lon="-0.093867">
        <ele>26.184</ele>
        <time>2022-04-24T06:36:48Z</time>
      </trkpt>
      <trkpt lat="39.923019" lon="-0.093752">
        <ele>25.680</ele>
        <time>2022-04-24T06:36:53Z</time>
      </trkpt>
      <trkpt lat="39.922508" lon="-0.093521">
        <ele>24.793</ele>
        <time>2022-04-24T06:37:03Z</time>
      </trkpt>
      <trkpt lat="39.922247" lon="-0.093399">
        <ele>25.072</ele>
        <time>2022-04-24T06:37:08Z</time>
      </trkpt>
      <trkpt lat="39.921734" lon="-0.093173">
        <ele>25.049</ele>
        <time>2022-04-24T06:37:18Z</time>
      </trkpt>
      <trkpt lat="39.921243" lon="-0.092949">
        <ele>23.748</ele>
        <time>2022-04-24T06:37:28Z</time>
      </trkpt>
      <trkpt lat="39.920754" lon="-0.092725">
        <ele>24.061</ele>
        <time>2022-04-24T06:37:38Z</time>
      </trkpt>
      <trkpt lat="39.920510" lon="-0.092613">
        <ele>24.617</ele>
        <time>2022-04-24T06:37:43Z</time>
      </trkpt>
      <trkpt lat="39.920019" lon="-0.092390">
        <ele>24.209</ele>
        <time>2022-04-24T06:37:53Z</time>
      </trkpt>
      <trkpt lat="39.919772" lon="-0.092281">
        <ele>24.295</ele>
        <time>2022-04-24T06:37:58Z</time>
      </trkpt>
      <trkpt lat="39.919301" lon="-0.092067">
        <ele>24.084</ele>
        <time>2022-04-24T06:38:08Z</time>
      </trkpt>
      <trkpt lat="39.918858" lon="-0.091879">
        <ele>23.745</ele>
        <time>2022-04-24T06:38:18Z</time>
      </trkpt>
      <trkpt lat="39.918385" lon="-0.091601">
        <ele>22.684</ele>
        <time>2022-04-24T06:38:28Z</time>
      </trkpt>
      <trkpt lat="39.918139" lon="-0.091487">
        <ele>22.451</ele>
        <time>2022-04-24T06:38:33Z</time>
      </trkpt>
      <trkpt lat="39.917893" lon="-0.091380">
        <ele>22.447</ele>
        <time>2022-04-24T06:38:38Z</time>
      </trkpt>
      <trkpt lat="39.917417" lon="-0.091161">
        <ele>22.480</ele>
        <time>2022-04-24T06:38:48Z</time>
      </trkpt>
      <trkpt lat="39.917179" lon="-0.091047">
        <ele>22.549</ele>
        <time>2022-04-24T06:38:53Z</time>
      </trkpt>
      <trkpt lat="39.916935" lon="-0.090937">
        <ele>22.546</ele>
        <time>2022-04-24T06:38:58Z</time>
      </trkpt>
      <trkpt lat="39.916447" lon="-0.090708">
        <ele>21.269</ele>
        <time>2022-04-24T06:39:08Z</time>
      </trkpt>
      <trkpt lat="39.916019" lon="-0.090351">
        <ele>21.204</ele>
        <time>2022-04-24T06:39:18Z</time>
      </trkpt>
      <trkpt lat="39.915654" lon="-0.089866">
        <ele>21.124</ele>
        <time>2022-04-24T06:39:28Z</time>
      </trkpt>
      <trkpt lat="39.915185" lon="-0.089846">
        <ele>22.409</ele>
        <time>2022-04-24T06:39:38Z</time>
      </trkpt>
      <trkpt lat="39.914965" lon="-0.089970">
        <ele>22.137</ele>
        <time>2022-04-24T06:39:43Z</time>
      </trkpt>
      <trkpt lat="39.914474" lon="-0.089968">
        <ele>21.426</ele>
        <time>2022-04-24T06:39:53Z</time>
      </trkpt>
      <trkpt lat="39.914215" lon="-0.089869">
        <ele>20.947</ele>
        <time>2022-04-24T06:39:58Z</time>
      </trkpt>
      <trkpt lat="39.913739" lon="-0.089680">
        <ele>19.786</ele>
        <time>2022-04-24T06:40:08Z</time>
      </trkpt>
      <trkpt lat="39.913478" lon="-0.089577">
        <ele>19.143</ele>
        <time>2022-04-24T06:40:13Z</time>
      </trkpt>
      <trkpt lat="39.912968" lon="-0.089354">
        <ele>19.279</ele>
        <time>2022-04-24T06:40:23Z</time>
      </trkpt>
      <trkpt lat="39.912723" lon="-0.089236">
        <ele>19.752</ele>
        <time>2022-04-24T06:40:28Z</time>
      </trkpt>
      <trkpt lat="39.912237" lon="-0.089005">
        <ele>21.411</ele>
        <time>2022-04-24T06:40:38Z</time>
      </trkpt>
      <trkpt lat="39.911991" lon="-0.088892">
        <ele>22.438</ele>
        <time>2022-04-24T06:40:43Z</time>
      </trkpt>
      <trkpt lat="39.911508" lon="-0.088665">
        <ele>23.074</ele>
        <time>2022-04-24T06:40:53Z</time>
      </trkpt>
      <trkpt lat="39.911017" lon="-0.088445">
        <ele>25.056</ele>
        <time>2022-04-24T06:41:03Z</time>
      </trkpt>
      <trkpt lat="39.910492" lon="-0.088198">
        <ele>24.221</ele>
        <time>2022-04-24T06:41:13Z</time>
      </trkpt>
      <trkpt lat="39.910214" lon="-0.088069">
        <ele>23.209</ele>
        <time>2022-04-24T06:41:18Z</time>
      </trkpt>
      <trkpt lat="39.909684" lon="-0.087828">
        <ele>22.788</ele>
        <time>2022-04-24T06:41:28Z</time>
      </trkpt>
      <trkpt lat="39.909168" lon="-0.087601">
        <ele>21.047</ele>
        <time>2022-04-24T06:41:38Z</time>
      </trkpt>
      <trkpt lat="39.908909" lon="-0.087481">
        <ele>20.568</ele>
        <time>2022-04-24T06:41:43Z</time>
      </trkpt>
      <trkpt lat="39.908408" lon="-0.087244">
        <ele>20.037</ele>
        <time>2022-04-24T06:41:53Z</time>
      </trkpt>
      <trkpt lat="39.908162" lon="-0.087102">
        <ele>19.054</ele>
        <time>2022-04-24T06:41:58Z</time>
      </trkpt>
      <trkpt lat="39.907669" lon="-0.086840">
        <ele>19.160</ele>
        <time>2022-04-24T06:42:08Z</time>
      </trkpt>
      <trkpt lat="39.907461" lon="-0.086635">
        <ele>18.753</ele>
        <time>2022-04-24T06:42:13Z</time>
      </trkpt>
      <trkpt lat="39.907040" lon="-0.086242">
        <ele>18.682</ele>
        <time>2022-04-24T06:42:23Z</time>
      </trkpt>
      <trkpt lat="39.906780" lon="-0.086201">
        <ele>19.269</ele>
        <time>2022-04-24T06:42:28Z</time>
      </trkpt>
      <trkpt lat="39.906280" lon="-0.086063">
        <ele>18.234</ele>
        <time>2022-04-24T06:42:38Z</time>
      </trkpt>
      <trkpt lat="39.905788" lon="-0.085896">
        <ele>18.255</ele>
        <time>2022-04-24T06:42:48Z</time>
      </trkpt>
      <trkpt lat="39.905552" lon="-0.085751">
        <ele>18.710</ele>
        <time>2022-04-24T06:42:53Z</time>
      </trkpt>
      <trkpt lat="39.905310" lon="-0.085671">
        <ele>19.209</ele>
        <time>2022-04-24T06:42:58Z</time>
      </trkpt>
      <trkpt lat="39.905067" lon="-0.085591">
        <ele>19.234</ele>
        <time>2022-04-24T06:43:03Z</time>
      </trkpt>
      <trkpt lat="39.904617" lon="-0.085372">
        <ele>19.693</ele>
        <time>2022-04-24T06:43:13Z</time>
      </trkpt>
      <trkpt lat="39.904392" lon="-0.085257">
        <ele>19.584</ele>
        <time>2022-04-24T06:43:18Z</time>
      </trkpt>
      <trkpt lat="39.903966" lon="-0.084933">
        <ele>19.693</ele>
        <time>2022-04-24T06:43:28Z</time>
      </trkpt>
      <trkpt lat="39.903781" lon="-0.084958">
        <ele>19.510</ele>
        <time>2022-04-24T06:43:33Z</time>
      </trkpt>
      <trkpt lat="39.903564" lon="-0.085017">
        <ele>19.286</ele>
        <time>2022-04-24T06:43:38Z</time>
      </trkpt>
      <trkpt lat="39.903079" lon="-0.084906">
        <ele>19.579</ele>
        <time>2022-04-24T06:43:48Z</time>
      </trkpt>
      <trkpt lat="39.902836" lon="-0.084790">
        <ele>19.278</ele>
        <time>2022-04-24T06:43:53Z</time>
      </trkpt>
      <trkpt lat="39.902360" lon="-0.084577">
        <ele>19.255</ele>
        <time>2022-04-24T06:44:03Z</time>
      </trkpt>
      <trkpt lat="39.902123" lon="-0.084466">
        <ele>19.014</ele>
        <time>2022-04-24T06:44:08Z</time>
      </trkpt>
      <trkpt lat="39.901654" lon="-0.084250">
        <ele>19.254</ele>
        <time>2022-04-24T06:44:18Z</time>
      </trkpt>
      <trkpt lat="39.901414" lon="-0.084145">
        <ele>19.209</ele>
        <time>2022-04-24T06:44:23Z</time>
      </trkpt>
      <trkpt lat="39.900925" lon="-0.083929">
        <ele>18.709</ele>
        <time>2022-04-24T06:44:33Z</time>
      </trkpt>
      <trkpt lat="39.900682" lon="-0.083814">
        <ele>18.442</ele>
        <time>2022-04-24T06:44:38Z</time>
      </trkpt>
      <trkpt lat="39.900200" lon="-0.083630">
        <ele>18.041</ele>
        <time>2022-04-24T06:44:48Z</time>
      </trkpt>
      <trkpt lat="39.900025" lon="-0.083274">
        <ele>17.422</ele>
        <time>2022-04-24T06:44:58Z</time>
      </trkpt>
      <trkpt lat="39.899687" lon="-0.083356">
        <ele>19.211</ele>
        <time>2022-04-24T06:45:08Z</time>
      </trkpt>
      <trkpt lat="39.899475" lon="-0.083250">
        <ele>18.568</ele>
        <time>2022-04-24T06:45:13Z</time>
      </trkpt>
      <trkpt lat="39.899228" lon="-0.082786">
        <ele>17.754</ele>
        <time>2022-04-24T06:45:23Z</time>
      </trkpt>
      <trkpt lat="39.899090" lon="-0.082584">
        <ele>18.737</ele>
        <time>2022-04-24T06:45:28Z</time>
      </trkpt>
      <trkpt lat="39.898776" lon="-0.082338">
        <ele>18.676</ele>
        <time>2022-04-24T06:45:38Z</time>
      </trkpt>
      <trkpt lat="39.898577" lon="-0.082413">
        <ele>18.253</ele>
        <time>2022-04-24T06:45:43Z</time>
      </trkpt>
      <trkpt lat="39.898379" lon="-0.082543">
        <ele>17.787</ele>
        <time>2022-04-24T06:45:48Z</time>
      </trkpt>
      <trkpt lat="39.898166" lon="-0.082828">
        <ele>21.042</ele>
        <time>2022-04-24T06:45:58Z</time>
      </trkpt>
      <trkpt lat="39.898153" lon="-0.082846">
        <ele>20.726</ele>
        <time>2022-04-24T06:46:06Z</time>
      </trkpt>
      <trkpt lat="39.897997" lon="-0.082794">
        <ele>19.609</ele>
        <time>2022-04-24T06:46:11Z</time>
      </trkpt>
      <trkpt lat="39.897812" lon="-0.082684">
        <ele>18.489</ele>
        <time>2022-04-24T06:46:16Z</time>
      </trkpt>
      <trkpt lat="39.897368" lon="-0.082496">
        <ele>16.778</ele>
        <time>2022-04-24T06:46:26Z</time>
      </trkpt>
      <trkpt lat="39.897143" lon="-0.082385">
        <ele>16.239</ele>
        <time>2022-04-24T06:46:31Z</time>
      </trkpt>
      <trkpt lat="39.896659" lon="-0.082158">
        <ele>15.928</ele>
        <time>2022-04-24T06:46:41Z</time>
      </trkpt>
      <trkpt lat="39.896404" lon="-0.082050">
        <ele>15.795</ele>
        <time>2022-04-24T06:46:46Z</time>
      </trkpt>
      <trkpt lat="39.895927" lon="-0.081828">
        <ele>15.641</ele>
        <time>2022-04-24T06:46:56Z</time>
      </trkpt>
      <trkpt lat="39.895454" lon="-0.081602">
        <ele>14.374</ele>
        <time>2022-04-24T06:47:06Z</time>
      </trkpt>
      <trkpt lat="39.895189" lon="-0.081506">
        <ele>14.743</ele>
        <time>2022-04-24T06:47:11Z</time>
      </trkpt>
      <trkpt lat="39.894921" lon="-0.081460">
        <ele>17.160</ele>
        <time>2022-04-24T06:47:16Z</time>
      </trkpt>
      <trkpt lat="39.894405" lon="-0.081482">
        <ele>18.744</ele>
        <time>2022-04-24T06:47:26Z</time>
      </trkpt>
      <trkpt lat="39.893891" lon="-0.081511">
        <ele>20.405</ele>
        <time>2022-04-24T06:47:36Z</time>
      </trkpt>
      <trkpt lat="39.893632" lon="-0.081528">
        <ele>20.215</ele>
        <time>2022-04-24T06:47:41Z</time>
      </trkpt>
      <trkpt lat="39.893369" lon="-0.081549">
        <ele>21.009</ele>
        <time>2022-04-24T06:47:46Z</time>
      </trkpt>
      <trkpt lat="39.892848" lon="-0.081601">
        <ele>22.285</ele>
        <time>2022-04-24T06:47:56Z</time>
      </trkpt>
      <trkpt lat="39.892329" lon="-0.081652">
        <ele>19.164</ele>
        <time>2022-04-24T06:48:06Z</time>
      </trkpt>
      <trkpt lat="39.891801" lon="-0.081677">
        <ele>16.655</ele>
        <time>2022-04-24T06:48:16Z</time>
      </trkpt>
      <trkpt lat="39.891273" lon="-0.081715">
        <ele>17.774</ele>
        <time>2022-04-24T06:48:26Z</time>
      </trkpt>
      <trkpt lat="39.890805" lon="-0.081690">
        <ele>16.651</ele>
        <time>2022-04-24T06:48:36Z</time>
      </trkpt>
      <trkpt lat="39.890525" lon="-0.081183">
        <ele>15.787</ele>
        <time>2022-04-24T06:48:46Z</time>
      </trkpt>
      <trkpt lat="39.890204" lon="-0.080736">
        <ele>14.790</ele>
        <time>2022-04-24T06:48:56Z</time>
      </trkpt>
      <trkpt lat="39.890048" lon="-0.080497">
        <ele>16.569</ele>
        <time>2022-04-24T06:49:01Z</time>
      </trkpt>
      <trkpt lat="39.889874" lon="-0.080258">
        <ele>17.496</ele>
        <time>2022-04-24T06:49:06Z</time>
      </trkpt>
      <trkpt lat="39.889518" lon="-0.079715">
        <ele>18.241</ele>
        <time>2022-04-24T06:49:16Z</time>
      </trkpt>
      <trkpt lat="39.889192" lon="-0.079190">
        <ele>22.281</ele>
        <time>2022-04-24T06:49:26Z</time>
      </trkpt>
      <trkpt lat="39.889019" lon="-0.078917">
        <ele>20.709</ele>
        <time>2022-04-24T06:49:31Z</time>
      </trkpt>
      <trkpt lat="39.888696" lon="-0.078387">
        <ele>16.209</ele>
        <time>2022-04-24T06:49:41Z</time>
      </trkpt>
      <trkpt lat="39.888509" lon="-0.078108">
        <ele>16.265</ele>
        <time>2022-04-24T06:49:46Z</time>
      </trkpt>
      <trkpt lat="39.888122" lon="-0.077606">
        <ele>13.944</ele>
        <time>2022-04-24T06:49:56Z</time>
      </trkpt>
      <trkpt lat="39.887915" lon="-0.077385">
        <ele>13.355</ele>
        <time>2022-04-24T06:50:01Z</time>
      </trkpt>
      <trkpt lat="39.887512" lon="-0.076984">
        <ele>11.074</ele>
        <time>2022-04-24T06:50:11Z</time>
      </trkpt>
      <trkpt lat="39.887307" lon="-0.076762">
        <ele>10.211</ele>
        <time>2022-04-24T06:50:16Z</time>
      </trkpt>
      <trkpt lat="39.886988" lon="-0.076172">
        <ele>10.827</ele>
        <time>2022-04-24T06:50:26Z</time>
      </trkpt>
      <trkpt lat="39.886849" lon="-0.075879">
        <ele>9.870</ele>
        <time>2022-04-24T06:50:31Z</time>
      </trkpt>
      <trkpt lat="39.886713" lon="-0.075587">
        <ele>8.619</ele>
        <time>2022-04-24T06:50:36Z</time>
      </trkpt>
      <trkpt lat="39.886434" lon="-0.075010">
        <ele>8.416</ele>
        <time>2022-04-24T06:50:46Z</time>
      </trkpt>
      <trkpt lat="39.886047" lon="-0.074610">
        <ele>9.823</ele>
        <time>2022-04-24T06:50:56Z</time>
      </trkpt>
      <trkpt lat="39.886018" lon="-0.074297">
        <ele>10.283</ele>
        <time>2022-04-24T06:51:01Z</time>
      </trkpt>
      <trkpt lat="39.885969" lon="-0.074037">
        <ele>10.811</ele>
        <time>2022-04-24T06:51:06Z</time>
      </trkpt>
      <trkpt lat="39.885829" lon="-0.073562">
        <ele>11.309</ele>
        <time>2022-04-24T06:51:16Z</time>
      </trkpt>
      <trkpt lat="39.885556" lon="-0.073013">
        <ele>8.613</ele>
        <time>2022-04-24T06:51:26Z</time>
      </trkpt>
      <trkpt lat="39.885420" lon="-0.072732">
        <ele>7.752</ele>
        <time>2022-04-24T06:51:31Z</time>
      </trkpt>
      <trkpt lat="39.885280" lon="-0.072449">
        <ele>6.833</ele>
        <time>2022-04-24T06:51:36Z</time>
      </trkpt>
      <trkpt lat="39.885003" lon="-0.071882">
        <ele>6.972</ele>
        <time>2022-04-24T06:51:46Z</time>
      </trkpt>
      <trkpt lat="39.884778" lon="-0.071403">
        <ele>9.399</ele>
        <time>2022-04-24T06:51:56Z</time>
      </trkpt>
      <trkpt lat="39.884984" lon="-0.071321">
        <ele>10.145</ele>
        <time>2022-04-24T06:52:01Z</time>
      </trkpt>
      <trkpt lat="39.885173" lon="-0.071157">
        <ele>9.148</ele>
        <time>2022-04-24T06:52:06Z</time>
      </trkpt>
      <trkpt lat="39.885135" lon="-0.070874">
        <ele>8.037</ele>
        <time>2022-04-24T06:52:11Z</time>
      </trkpt>
      <trkpt lat="39.885041" lon="-0.070552">
        <ele>7.774</ele>
        <time>2022-04-24T06:52:16Z</time>
      </trkpt>
      <trkpt lat="39.885152" lon="-0.069880">
        <ele>8.798</ele>
        <time>2022-04-24T06:52:26Z</time>
      </trkpt>
      <trkpt lat="39.885396" lon="-0.069255">
        <ele>10.015</ele>
        <time>2022-04-24T06:52:36Z</time>
      </trkpt>
      <trkpt lat="39.885565" lon="-0.068720">
        <ele>10.026</ele>
        <time>2022-04-24T06:52:46Z</time>
      </trkpt>
      <trkpt lat="39.885565" lon="-0.068072">
        <ele>9.309</ele>
        <time>2022-04-24T06:52:56Z</time>
      </trkpt>
      <trkpt lat="39.885586" lon="-0.067739">
        <ele>9.640</ele>
        <time>2022-04-24T06:53:01Z</time>
      </trkpt>
      <trkpt lat="39.885614" lon="-0.067407">
        <ele>10.159</ele>
        <time>2022-04-24T06:53:06Z</time>
      </trkpt>
      <trkpt lat="39.885529" lon="-0.066725">
        <ele>9.390</ele>
        <time>2022-04-24T06:53:16Z</time>
      </trkpt>
      <trkpt lat="39.885364" lon="-0.066067">
        <ele>7.849</ele>
        <time>2022-04-24T06:53:26Z</time>
      </trkpt>
      <trkpt lat="39.885289" lon="-0.065750">
        <ele>7.576</ele>
        <time>2022-04-24T06:53:31Z</time>
      </trkpt>
      <trkpt lat="39.885065" lon="-0.065158">
        <ele>7.732</ele>
        <time>2022-04-24T06:53:41Z</time>
      </trkpt>
      <trkpt lat="39.884903" lon="-0.064918">
        <ele>7.965</ele>
        <time>2022-04-24T06:53:46Z</time>
      </trkpt>
      <trkpt lat="39.884482" lon="-0.064663">
        <ele>5.284</ele>
        <time>2022-04-24T06:53:56Z</time>
      </trkpt>
      <trkpt lat="39.884447" lon="-0.064536">
        <ele>4.761</ele>
        <time>2022-04-24T06:54:01Z</time>
      </trkpt>
      <trkpt lat="39.884441" lon="-0.064521">
        <ele>2.855</ele>
        <time>2022-04-24T06:57:35Z</time>
      </trkpt>
      <trkpt lat="39.884392" lon="-0.064381">
        <ele>2.107</ele>
        <time>2022-04-24T06:57:40Z</time>
      </trkpt>
      <trkpt lat="39.884095" lon="-0.064277">
        <ele>-1.417</ele>
        <time>2022-04-24T06:57:50Z</time>
      </trkpt>
      <trkpt lat="39.883984" lon="-0.064135">
        <ele>-2.009</ele>
        <time>2022-04-24T06:57:55Z</time>
      </trkpt>
      <trkpt lat="39.883883" lon="-0.063957">
        <ele>-0.516</ele>
        <time>2022-04-24T06:58:00Z</time>
      </trkpt>
      <trkpt lat="39.883894" lon="-0.063446">
        <ele>2.855</ele>
        <time>2022-04-24T06:58:10Z</time>
      </trkpt>
      <trkpt lat="39.884137" lon="-0.062893">
        <ele>5.146</ele>
        <time>2022-04-24T06:58:20Z</time>
      </trkpt>
      <trkpt lat="39.884255" lon="-0.062655">
        <ele>5.455</ele>
        <time>2022-04-24T06:58:25Z</time>
      </trkpt>
      <trkpt lat="39.884269" lon="-0.062403">
        <ele>5.432</ele>
        <time>2022-04-24T06:58:30Z</time>
      </trkpt>
      <trkpt lat="39.884052" lon="-0.062059">
        <ele>4.718</ele>
        <time>2022-04-24T06:58:40Z</time>
      </trkpt>
      <trkpt lat="39.883561" lon="-0.061987">
        <ele>0.231</ele>
        <time>2022-04-24T06:58:50Z</time>
      </trkpt>
      <trkpt lat="39.883319" lon="-0.062008">
        <ele>0.260</ele>
        <time>2022-04-24T06:58:55Z</time>
      </trkpt>
      <trkpt lat="39.883089" lon="-0.061989">
        <ele>-0.157</ele>
        <time>2022-04-24T06:59:00Z</time>
      </trkpt>
      <trkpt lat="39.882702" lon="-0.061675">
        <ele>-0.299</ele>
        <time>2022-04-24T06:59:10Z</time>
      </trkpt>
      <trkpt lat="39.882346" lon="-0.061259">
        <ele>1.407</ele>
        <time>2022-04-24T06:59:20Z</time>
      </trkpt>
      <trkpt lat="39.882006" lon="-0.060874">
        <ele>3.827</ele>
        <time>2022-04-24T06:59:30Z</time>
      </trkpt>
      <trkpt lat="39.881589" lon="-0.060638">
        <ele>3.809</ele>
        <time>2022-04-24T06:59:40Z</time>
      </trkpt>
      <trkpt lat="39.881161" lon="-0.060409">
        <ele>3.810</ele>
        <time>2022-04-24T06:59:50Z</time>
      </trkpt>
      <trkpt lat="39.880949" lon="-0.060308">
        <ele>4.479</ele>
        <time>2022-04-24T06:59:55Z</time>
      </trkpt>
      <trkpt lat="39.880564" lon="-0.060041">
        <ele>3.680</ele>
        <time>2022-04-24T07:00:05Z</time>
      </trkpt>
      <trkpt lat="39.880378" lon="-0.059897">
        <ele>3.679</ele>
        <time>2022-04-24T07:00:10Z</time>
      </trkpt>
      <trkpt lat="39.879975" lon="-0.059554">
        <ele>3.756</ele>
        <time>2022-04-24T07:00:20Z</time>
      </trkpt>
      <trkpt lat="39.879788" lon="-0.059382">
        <ele>4.462</ele>
        <time>2022-04-24T07:00:25Z</time>
      </trkpt>
      <trkpt lat="39.879588" lon="-0.058838">
        <ele>3.615</ele>
        <time>2022-04-24T07:00:35Z</time>
      </trkpt>
      <trkpt lat="39.879589" lon="-0.058530">
        <ele>2.544</ele>
        <time>2022-04-24T07:00:40Z</time>
      </trkpt>
      <trkpt lat="39.879749" lon="-0.057919">
        <ele>2.971</ele>
        <time>2022-04-24T07:00:50Z</time>
      </trkpt>
      <trkpt lat="39.879926" lon="-0.057390">
        <ele>2.356</ele>
        <time>2022-04-24T07:01:00Z</time>
      </trkpt>
      <trkpt lat="39.879908" lon="-0.057138">
        <ele>3.059</ele>
        <time>2022-04-24T07:01:05Z</time>
      </trkpt>
      <trkpt lat="39.879779" lon="-0.056893">
        <ele>2.314</ele>
        <time>2022-04-24T07:01:10Z</time>
      </trkpt>
      <trkpt lat="39.879396" lon="-0.056532">
        <ele>1.709</ele>
        <time>2022-04-24T07:01:20Z</time>
      </trkpt>
      <trkpt lat="39.879148" lon="-0.055998">
        <ele>1.946</ele>
        <time>2022-04-24T07:01:30Z</time>
      </trkpt>
      <trkpt lat="39.879079" lon="-0.055734">
        <ele>2.565</ele>
        <time>2022-04-24T07:01:35Z</time>
      </trkpt>
      <trkpt lat="39.879041" lon="-0.055447">
        <ele>2.996</ele>
        <time>2022-04-24T07:01:40Z</time>
      </trkpt>
      <trkpt lat="39.879149" lon="-0.054836">
        <ele>3.235</ele>
        <time>2022-04-24T07:01:50Z</time>
      </trkpt>
      <trkpt lat="39.879404" lon="-0.054251">
        <ele>3.992</ele>
        <time>2022-04-24T07:02:00Z</time>
      </trkpt>
      <trkpt lat="39.879433" lon="-0.053936">
        <ele>5.188</ele>
        <time>2022-04-24T07:02:05Z</time>
      </trkpt>
      <trkpt lat="39.879279" lon="-0.053677">
        <ele>4.471</ele>
        <time>2022-04-24T07:02:10Z</time>
      </trkpt>
      <trkpt lat="39.878921" lon="-0.053228">
        <ele>3.310</ele>
        <time>2022-04-24T07:02:20Z</time>
      </trkpt>
      <trkpt lat="39.878485" lon="-0.052959">
        <ele>2.317</ele>
        <time>2022-04-24T07:02:30Z</time>
      </trkpt>
      <trkpt lat="39.878329" lon="-0.052815">
        <ele>2.893</ele>
        <time>2022-04-24T07:02:35Z</time>
      </trkpt>
      <trkpt lat="39.878206" lon="-0.052754">
        <ele>2.965</ele>
        <time>2022-04-24T07:02:40Z</time>
      </trkpt>
      <trkpt lat="39.878088" lon="-0.052732">
        <ele>3.021</ele>
        <time>2022-04-24T07:03:08Z</time>
      </trkpt>
      <trkpt lat="39.877948" lon="-0.052820">
        <ele>2.509</ele>
        <time>2022-04-24T07:03:13Z</time>
      </trkpt>
      <trkpt lat="39.877698" lon="-0.053253">
        <ele>2.570</ele>
        <time>2022-04-24T07:03:23Z</time>
      </trkpt>
      <trkpt lat="39.877540" lon="-0.053470">
        <ele>3.039</ele>
        <time>2022-04-24T07:03:28Z</time>
      </trkpt>
      <trkpt lat="39.877202" lon="-0.053866">
        <ele>4.480</ele>
        <time>2022-04-24T07:03:38Z</time>
      </trkpt>
      <trkpt lat="39.876861" lon="-0.054267">
        <ele>2.429</ele>
        <time>2022-04-24T07:03:48Z</time>
      </trkpt>
      <trkpt lat="39.876512" lon="-0.054682">
        <ele>10.096</ele>
        <time>2022-04-24T07:03:58Z</time>
      </trkpt>
      <trkpt lat="39.876141" lon="-0.055033">
        <ele>8.712</ele>
        <time>2022-04-24T07:04:06Z</time>
      </trkpt>
      <trkpt lat="39.875961" lon="-0.055275">
        <ele>7.695</ele>
        <time>2022-04-24T07:04:11Z</time>
      </trkpt>
      <trkpt lat="39.875615" lon="-0.055753">
        <ele>5.414</ele>
        <time>2022-04-24T07:04:21Z</time>
      </trkpt>
      <trkpt lat="39.875439" lon="-0.055987">
        <ele>4.591</ele>
        <time>2022-04-24T07:04:26Z</time>
      </trkpt>
      <trkpt lat="39.875078" lon="-0.056483">
        <ele>0.982</ele>
        <time>2022-04-24T07:04:36Z</time>
      </trkpt>
      <trkpt lat="39.874896" lon="-0.056722">
        <ele>0.943</ele>
        <time>2022-04-24T07:04:41Z</time>
      </trkpt>
      <trkpt lat="39.874560" lon="-0.057223">
        <ele>1.717</ele>
        <time>2022-04-24T07:04:51Z</time>
      </trkpt>
      <trkpt lat="39.874377" lon="-0.057459">
        <ele>1.909</ele>
        <time>2022-04-24T07:04:56Z</time>
      </trkpt>
      <trkpt lat="39.874024" lon="-0.057931">
        <ele>1.649</ele>
        <time>2022-04-24T07:05:06Z</time>
      </trkpt>
      <trkpt lat="39.873679" lon="-0.058434">
        <ele>1.088</ele>
        <time>2022-04-24T07:05:16Z</time>
      </trkpt>
      <trkpt lat="39.873326" lon="-0.058947">
        <ele>1.479</ele>
        <time>2022-04-24T07:05:26Z</time>
      </trkpt>
      <trkpt lat="39.872975" lon="-0.059484">
        <ele>2.448</ele>
        <time>2022-04-24T07:05:36Z</time>
      </trkpt>
      <trkpt lat="39.872626" lon="-0.060019">
        <ele>3.445</ele>
        <time>2022-04-24T07:05:46Z</time>
      </trkpt>
      <trkpt lat="39.872455" lon="-0.060288">
        <ele>2.911</ele>
        <time>2022-04-24T07:05:51Z</time>
      </trkpt>
      <trkpt lat="39.872280" lon="-0.060564">
        <ele>2.884</ele>
        <time>2022-04-24T07:05:56Z</time>
      </trkpt>
      <trkpt lat="39.871940" lon="-0.061115">
        <ele>2.553</ele>
        <time>2022-04-24T07:06:06Z</time>
      </trkpt>
      <trkpt lat="39.871621" lon="-0.061674">
        <ele>2.960</ele>
        <time>2022-04-24T07:06:16Z</time>
      </trkpt>
      <trkpt lat="39.871323" lon="-0.062260">
        <ele>2.684</ele>
        <time>2022-04-24T07:06:26Z</time>
      </trkpt>
      <trkpt lat="39.871023" lon="-0.062853">
        <ele>2.007</ele>
        <time>2022-04-24T07:06:36Z</time>
      </trkpt>
      <trkpt lat="39.870883" lon="-0.063165">
        <ele>2.317</ele>
        <time>2022-04-24T07:06:41Z</time>
      </trkpt>
      <trkpt lat="39.870596" lon="-0.063772">
        <ele>2.409</ele>
        <time>2022-04-24T07:06:51Z</time>
      </trkpt>
      <trkpt lat="39.870439" lon="-0.064077">
        <ele>2.779</ele>
        <time>2022-04-24T07:06:56Z</time>
      </trkpt>
      <trkpt lat="39.870117" lon="-0.064662">
        <ele>3.518</ele>
        <time>2022-04-24T07:07:06Z</time>
      </trkpt>
      <trkpt lat="39.869800" lon="-0.065251">
        <ele>3.279</ele>
        <time>2022-04-24T07:07:16Z</time>
      </trkpt>
      <trkpt lat="39.869642" lon="-0.065546">
        <ele>2.628</ele>
        <time>2022-04-24T07:07:21Z</time>
      </trkpt>
      <trkpt lat="39.869476" lon="-0.065837">
        <ele>2.145</ele>
        <time>2022-04-24T07:07:26Z</time>
      </trkpt>
      <trkpt lat="39.869158" lon="-0.066402">
        <ele>4.191</ele>
        <time>2022-04-24T07:07:36Z</time>
      </trkpt>
      <trkpt lat="39.869005" lon="-0.066689">
        <ele>4.384</ele>
        <time>2022-04-24T07:07:41Z</time>
      </trkpt>
      <trkpt lat="39.868657" lon="-0.067248">
        <ele>3.163</ele>
        <time>2022-04-24T07:07:51Z</time>
      </trkpt>
      <trkpt lat="39.868481" lon="-0.067526">
        <ele>2.440</ele>
        <time>2022-04-24T07:07:56Z</time>
      </trkpt>
      <trkpt lat="39.868137" lon="-0.068084">
        <ele>2.913</ele>
        <time>2022-04-24T07:08:06Z</time>
      </trkpt>
      <trkpt lat="39.867801" lon="-0.068625">
        <ele>2.243</ele>
        <time>2022-04-24T07:08:16Z</time>
      </trkpt>
      <trkpt lat="39.867470" lon="-0.069163">
        <ele>1.307</ele>
        <time>2022-04-24T07:08:26Z</time>
      </trkpt>
      <trkpt lat="39.867127" lon="-0.069712">
        <ele>2.209</ele>
        <time>2022-04-24T07:08:36Z</time>
      </trkpt>
      <trkpt lat="39.866960" lon="-0.069978">
        <ele>3.692</ele>
        <time>2022-04-24T07:08:41Z</time>
      </trkpt>
      <trkpt lat="39.866799" lon="-0.070228">
        <ele>3.871</ele>
        <time>2022-04-24T07:08:46Z</time>
      </trkpt>
      <trkpt lat="39.866472" lon="-0.070738">
        <ele>3.842</ele>
        <time>2022-04-24T07:08:56Z</time>
      </trkpt>
      <trkpt lat="39.866162" lon="-0.071228">
        <ele>5.711</ele>
        <time>2022-04-24T07:09:06Z</time>
      </trkpt>
      <trkpt lat="39.866049" lon="-0.071793">
        <ele>6.628</ele>
        <time>2022-04-24T07:09:16Z</time>
      </trkpt>
      <trkpt lat="39.865935" lon="-0.072046">
        <ele>8.674</ele>
        <time>2022-04-24T07:09:21Z</time>
      </trkpt>
      <trkpt lat="39.865726" lon="-0.072238">
        <ele>7.477</ele>
        <time>2022-04-24T07:09:26Z</time>
      </trkpt>
      <trkpt lat="39.865375" lon="-0.072705">
        <ele>4.476</ele>
        <time>2022-04-24T07:09:36Z</time>
      </trkpt>
      <trkpt lat="39.865210" lon="-0.072956">
        <ele>2.143</ele>
        <time>2022-04-24T07:09:41Z</time>
      </trkpt>
      <trkpt lat="39.864855" lon="-0.073413">
        <ele>0.848</ele>
        <time>2022-04-24T07:09:51Z</time>
      </trkpt>
      <trkpt lat="39.864675" lon="-0.073645">
        <ele>0.861</ele>
        <time>2022-04-24T07:09:56Z</time>
      </trkpt>
      <trkpt lat="39.864309" lon="-0.074079">
        <ele>1.917</ele>
        <time>2022-04-24T07:10:06Z</time>
      </trkpt>
      <trkpt lat="39.863953" lon="-0.074557">
        <ele>-0.709</ele>
        <time>2022-04-24T07:10:16Z</time>
      </trkpt>
      <trkpt lat="39.863780" lon="-0.074780">
        <ele>0.535</ele>
        <time>2022-04-24T07:10:21Z</time>
      </trkpt>
      <trkpt lat="39.863601" lon="-0.074989">
        <ele>1.664</ele>
        <time>2022-04-24T07:10:26Z</time>
      </trkpt>
      <trkpt lat="39.863232" lon="-0.075420">
        <ele>1.015</ele>
        <time>2022-04-24T07:10:36Z</time>
      </trkpt>
      <trkpt lat="39.862888" lon="-0.075879">
        <ele>1.114</ele>
        <time>2022-04-24T07:10:46Z</time>
      </trkpt>
      <trkpt lat="39.862721" lon="-0.076084">
        <ele>1.571</ele>
        <time>2022-04-24T07:10:51Z</time>
      </trkpt>
      <trkpt lat="39.862573" lon="-0.076291">
        <ele>2.847</ele>
        <time>2022-04-24T07:10:56Z</time>
      </trkpt>
      <trkpt lat="39.862846" lon="-0.076760">
        <ele>5.810</ele>
        <time>2022-04-24T07:11:06Z</time>
      </trkpt>
      <trkpt lat="39.863181" lon="-0.077223">
        <ele>5.559</ele>
        <time>2022-04-24T07:11:16Z</time>
      </trkpt>
      <trkpt lat="39.863324" lon="-0.077433">
        <ele>6.246</ele>
        <time>2022-04-24T07:11:21Z</time>
      </trkpt>
      <trkpt lat="39.863363" lon="-0.077623">
        <ele>7.419</ele>
        <time>2022-04-24T07:11:26Z</time>
      </trkpt>
      <trkpt lat="39.863067" lon="-0.078043">
        <ele>10.909</ele>
        <time>2022-04-24T07:11:36Z</time>
      </trkpt>
      <trkpt lat="39.862690" lon="-0.078473">
        <ele>12.819</ele>
        <time>2022-04-24T07:11:46Z</time>
      </trkpt>
      <trkpt lat="39.862502" lon="-0.078717">
        <ele>13.609</ele>
        <time>2022-04-24T07:11:51Z</time>
      </trkpt>
      <trkpt lat="39.862322" lon="-0.078983">
        <ele>12.042</ele>
        <time>2022-04-24T07:11:56Z</time>
      </trkpt>
      <trkpt lat="39.861982" lon="-0.079459">
        <ele>8.331</ele>
        <time>2022-04-24T07:12:06Z</time>
      </trkpt>
      <trkpt lat="39.861807" lon="-0.079695">
        <ele>7.482</ele>
        <time>2022-04-24T07:12:11Z</time>
      </trkpt>
      <trkpt lat="39.861470" lon="-0.080157">
        <ele>7.621</ele>
        <time>2022-04-24T07:12:21Z</time>
      </trkpt>
      <trkpt lat="39.861296" lon="-0.080395">
        <ele>7.718</ele>
        <time>2022-04-24T07:12:26Z</time>
      </trkpt>
      <trkpt lat="39.861005" lon="-0.080767">
        <ele>6.374</ele>
        <time>2022-04-24T07:12:36Z</time>
      </trkpt>
      <trkpt lat="39.860691" lon="-0.081172">
        <ele>6.817</ele>
        <time>2022-04-24T07:12:46Z</time>
      </trkpt>
      <trkpt lat="39.860514" lon="-0.081387">
        <ele>6.826</ele>
        <time>2022-04-24T07:12:51Z</time>
      </trkpt>
      <trkpt lat="39.860332" lon="-0.081623">
        <ele>6.943</ele>
        <time>2022-04-24T07:12:56Z</time>
      </trkpt>
      <trkpt lat="39.859954" lon="-0.082094">
        <ele>6.627</ele>
        <time>2022-04-24T07:13:06Z</time>
      </trkpt>
      <trkpt lat="39.859584" lon="-0.082561">
        <ele>7.968</ele>
        <time>2022-04-24T07:13:16Z</time>
      </trkpt>
      <trkpt lat="39.859400" lon="-0.082795">
        <ele>7.914</ele>
        <time>2022-04-24T07:13:21Z</time>
      </trkpt>
      <trkpt lat="39.859216" lon="-0.083037">
        <ele>7.209</ele>
        <time>2022-04-24T07:13:26Z</time>
      </trkpt>
      <trkpt lat="39.858870" lon="-0.083437">
        <ele>6.543</ele>
        <time>2022-04-24T07:13:36Z</time>
      </trkpt>
      <trkpt lat="39.858543" lon="-0.083815">
        <ele>5.992</ele>
        <time>2022-04-24T07:13:46Z</time>
      </trkpt>
      <trkpt lat="39.858358" lon="-0.084030">
        <ele>6.333</ele>
        <time>2022-04-24T07:13:51Z</time>
      </trkpt>
      <trkpt lat="39.858170" lon="-0.084260">
        <ele>6.872</ele>
        <time>2022-04-24T07:13:56Z</time>
      </trkpt>
      <trkpt lat="39.857833" lon="-0.084714">
        <ele>5.869</ele>
        <time>2022-04-24T07:14:06Z</time>
      </trkpt>
      <trkpt lat="39.858006" lon="-0.085181">
        <ele>7.455</ele>
        <time>2022-04-24T07:14:16Z</time>
      </trkpt>
      <trkpt lat="39.857672" lon="-0.085672">
        <ele>5.728</ele>
        <time>2022-04-24T07:14:26Z</time>
      </trkpt>
      <trkpt lat="39.857276" lon="-0.086182">
        <ele>5.537</ele>
        <time>2022-04-24T07:14:36Z</time>
      </trkpt>
      <trkpt lat="39.856887" lon="-0.086678">
        <ele>5.444</ele>
        <time>2022-04-24T07:14:46Z</time>
      </trkpt>
      <trkpt lat="39.856692" lon="-0.086924">
        <ele>5.696</ele>
        <time>2022-04-24T07:14:51Z</time>
      </trkpt>
      <trkpt lat="39.856482" lon="-0.087164">
        <ele>6.331</ele>
        <time>2022-04-24T07:14:56Z</time>
      </trkpt>
      <trkpt lat="39.856030" lon="-0.087586">
        <ele>5.624</ele>
        <time>2022-04-24T07:15:06Z</time>
      </trkpt>
      <trkpt lat="39.855696" lon="-0.088150">
        <ele>5.709</ele>
        <time>2022-04-24T07:15:16Z</time>
      </trkpt>
      <trkpt lat="39.855336" lon="-0.088716">
        <ele>5.650</ele>
        <time>2022-04-24T07:15:26Z</time>
      </trkpt>
      <trkpt lat="39.854977" lon="-0.089272">
        <ele>6.369</ele>
        <time>2022-04-24T07:15:36Z</time>
      </trkpt>
      <trkpt lat="39.854607" lon="-0.089825">
        <ele>6.980</ele>
        <time>2022-04-24T07:15:46Z</time>
      </trkpt>
      <trkpt lat="39.854216" lon="-0.090339">
        <ele>7.719</ele>
        <time>2022-04-24T07:15:56Z</time>
      </trkpt>
      <trkpt lat="39.853808" lon="-0.090821">
        <ele>7.756</ele>
        <time>2022-04-24T07:16:06Z</time>
      </trkpt>
      <trkpt lat="39.853604" lon="-0.091075">
        <ele>6.812</ele>
        <time>2022-04-24T07:16:11Z</time>
      </trkpt>
      <trkpt lat="39.853202" lon="-0.091558">
        <ele>3.615</ele>
        <time>2022-04-24T07:16:21Z</time>
      </trkpt>
      <trkpt lat="39.852994" lon="-0.091803">
        <ele>3.994</ele>
        <time>2022-04-24T07:16:26Z</time>
      </trkpt>
      <trkpt lat="39.852551" lon="-0.092269">
        <ele>6.141</ele>
        <time>2022-04-24T07:16:36Z</time>
      </trkpt>
      <trkpt lat="39.852110" lon="-0.092739">
        <ele>4.829</ele>
        <time>2022-04-24T07:16:46Z</time>
      </trkpt>
      <trkpt lat="39.851669" lon="-0.093199">
        <ele>6.300</ele>
        <time>2022-04-24T07:16:56Z</time>
      </trkpt>
      <trkpt lat="39.851242" lon="-0.093650">
        <ele>6.320</ele>
        <time>2022-04-24T07:17:06Z</time>
      </trkpt>
      <trkpt lat="39.850804" lon="-0.094100">
        <ele>5.709</ele>
        <time>2022-04-24T07:17:16Z</time>
      </trkpt>
      <trkpt lat="39.850350" lon="-0.094554">
        <ele>5.663</ele>
        <time>2022-04-24T07:17:26Z</time>
      </trkpt>
      <trkpt lat="39.849902" lon="-0.094987">
        <ele>5.892</ele>
        <time>2022-04-24T07:17:36Z</time>
      </trkpt>
      <trkpt lat="39.849673" lon="-0.095206">
        <ele>5.713</ele>
        <time>2022-04-24T07:17:41Z</time>
      </trkpt>
      <trkpt lat="39.849429" lon="-0.095408">
        <ele>4.992</ele>
        <time>2022-04-24T07:17:46Z</time>
      </trkpt>
      <trkpt lat="39.848967" lon="-0.095772">
        <ele>3.229</ele>
        <time>2022-04-24T07:17:56Z</time>
      </trkpt>
      <trkpt lat="39.848503" lon="-0.096094">
        <ele>3.925</ele>
        <time>2022-04-24T07:18:06Z</time>
      </trkpt>
      <trkpt lat="39.848274" lon="-0.096252">
        <ele>5.918</ele>
        <time>2022-04-24T07:18:11Z</time>
      </trkpt>
      <trkpt lat="39.847792" lon="-0.096616">
        <ele>5.137</ele>
        <time>2022-04-24T07:18:21Z</time>
      </trkpt>
      <trkpt lat="39.847553" lon="-0.096800">
        <ele>4.444</ele>
        <time>2022-04-24T07:18:26Z</time>
      </trkpt>
      <trkpt lat="39.847066" lon="-0.097123">
        <ele>6.227</ele>
        <time>2022-04-24T07:18:36Z</time>
      </trkpt>
      <trkpt lat="39.846596" lon="-0.097464">
        <ele>7.268</ele>
        <time>2022-04-24T07:18:46Z</time>
      </trkpt>
      <trkpt lat="39.846119" lon="-0.097810">
        <ele>5.814</ele>
        <time>2022-04-24T07:18:56Z</time>
      </trkpt>
      <trkpt lat="39.845653" lon="-0.098136">
        <ele>4.909</ele>
        <time>2022-04-24T07:19:06Z</time>
      </trkpt>
      <trkpt lat="39.845413" lon="-0.098295">
        <ele>4.793</ele>
        <time>2022-04-24T07:19:11Z</time>
      </trkpt>
      <trkpt lat="39.844914" lon="-0.098604">
        <ele>4.612</ele>
        <time>2022-04-24T07:19:21Z</time>
      </trkpt>
      <trkpt lat="39.844663" lon="-0.098764">
        <ele>5.143</ele>
        <time>2022-04-24T07:19:26Z</time>
      </trkpt>
      <trkpt lat="39.844158" lon="-0.099069">
        <ele>5.242</ele>
        <time>2022-04-24T07:19:36Z</time>
      </trkpt>
      <trkpt lat="39.843675" lon="-0.099395">
        <ele>5.629</ele>
        <time>2022-04-24T07:19:46Z</time>
      </trkpt>
      <trkpt lat="39.843464" lon="-0.099528">
        <ele>6.215</ele>
        <time>2022-04-24T07:19:51Z</time>
      </trkpt>
      <trkpt lat="39.843240" lon="-0.099676">
        <ele>7.238</ele>
        <time>2022-04-24T07:19:56Z</time>
      </trkpt>
      <trkpt lat="39.842762" lon="-0.099942">
        <ele>8.367</ele>
        <time>2022-04-24T07:20:06Z</time>
      </trkpt>
      <trkpt lat="39.842515" lon="-0.100067">
        <ele>8.654</ele>
        <time>2022-04-24T07:20:11Z</time>
      </trkpt>
      <trkpt lat="39.842010" lon="-0.100403">
        <ele>7.065</ele>
        <time>2022-04-24T07:20:21Z</time>
      </trkpt>
      <trkpt lat="39.841766" lon="-0.100586">
        <ele>6.068</ele>
        <time>2022-04-24T07:20:26Z</time>
      </trkpt>
      <trkpt lat="39.841252" lon="-0.100881">
        <ele>6.014</ele>
        <time>2022-04-24T07:20:36Z</time>
      </trkpt>
      <trkpt lat="39.840999" lon="-0.101028">
        <ele>5.109</ele>
        <time>2022-04-24T07:20:41Z</time>
      </trkpt>
      <trkpt lat="39.840513" lon="-0.101310">
        <ele>3.967</ele>
        <time>2022-04-24T07:20:51Z</time>
      </trkpt>
      <trkpt lat="39.840250" lon="-0.101425">
        <ele>3.086</ele>
        <time>2022-04-24T07:20:56Z</time>
      </trkpt>
      <trkpt lat="39.839736" lon="-0.101702">
        <ele>2.427</ele>
        <time>2022-04-24T07:21:06Z</time>
      </trkpt>
      <trkpt lat="39.839488" lon="-0.101867">
        <ele>3.386</ele>
        <time>2022-04-24T07:21:11Z</time>
      </trkpt>
      <trkpt lat="39.838992" lon="-0.102177">
        <ele>4.633</ele>
        <time>2022-04-24T07:21:21Z</time>
      </trkpt>
      <trkpt lat="39.838748" lon="-0.102324">
        <ele>4.619</ele>
        <time>2022-04-24T07:21:26Z</time>
      </trkpt>
      <trkpt lat="39.838271" lon="-0.102602">
        <ele>4.982</ele>
        <time>2022-04-24T07:21:36Z</time>
      </trkpt>
      <trkpt lat="39.838009" lon="-0.102731">
        <ele>4.341</ele>
        <time>2022-04-24T07:21:41Z</time>
      </trkpt>
      <trkpt lat="39.837772" lon="-0.102910">
        <ele>4.998</ele>
        <time>2022-04-24T07:21:46Z</time>
      </trkpt>
      <trkpt lat="39.837302" lon="-0.103269">
        <ele>4.492</ele>
        <time>2022-04-24T07:21:56Z</time>
      </trkpt>
      <trkpt lat="39.836808" lon="-0.103641">
        <ele>5.573</ele>
        <time>2022-04-24T07:22:06Z</time>
      </trkpt>
      <trkpt lat="39.836565" lon="-0.103832">
        <ele>6.320</ele>
        <time>2022-04-24T07:22:11Z</time>
      </trkpt>
      <trkpt lat="39.836317" lon="-0.104008">
        <ele>7.309</ele>
        <time>2022-04-24T07:22:16Z</time>
      </trkpt>
      <trkpt lat="39.835838" lon="-0.104381">
        <ele>7.750</ele>
        <time>2022-04-24T07:22:26Z</time>
      </trkpt>
      <trkpt lat="39.835406" lon="-0.104821">
        <ele>7.419</ele>
        <time>2022-04-24T07:22:36Z</time>
      </trkpt>
      <trkpt lat="39.835220" lon="-0.105037">
        <ele>7.190</ele>
        <time>2022-04-24T07:22:41Z</time>
      </trkpt>
      <trkpt lat="39.835065" lon="-0.105224">
        <ele>6.539</ele>
        <time>2022-04-24T07:22:46Z</time>
      </trkpt>
      <trkpt lat="39.834699" lon="-0.105613">
        <ele>3.746</ele>
        <time>2022-04-24T07:22:56Z</time>
      </trkpt>
      <trkpt lat="39.834318" lon="-0.106112">
        <ele>4.342</ele>
        <time>2022-04-24T07:23:06Z</time>
      </trkpt>
      <trkpt lat="39.834138" lon="-0.106351">
        <ele>4.415</ele>
        <time>2022-04-24T07:23:11Z</time>
      </trkpt>
      <trkpt lat="39.833822" lon="-0.106762">
        <ele>4.054</ele>
        <time>2022-04-24T07:23:21Z</time>
      </trkpt>
      <trkpt lat="39.833446" lon="-0.106390">
        <ele>4.051</ele>
        <time>2022-04-24T07:23:31Z</time>
      </trkpt>
      <trkpt lat="39.833063" lon="-0.105912">
        <ele>4.778</ele>
        <time>2022-04-24T07:23:41Z</time>
      </trkpt>
      <trkpt lat="39.832876" lon="-0.105658">
        <ele>5.933</ele>
        <time>2022-04-24T07:23:46Z</time>
      </trkpt>
      <trkpt lat="39.832672" lon="-0.105491">
        <ele>7.026</ele>
        <time>2022-04-24T07:23:51Z</time>
      </trkpt>
      <trkpt lat="39.832605" lon="-0.105376">
        <ele>7.109</ele>
        <time>2022-04-24T07:23:56Z</time>
      </trkpt>
      <trkpt lat="39.832379" lon="-0.105021">
        <ele>12.128</ele>
        <time>2022-04-24T07:24:06Z</time>
      </trkpt>
      <trkpt lat="39.831965" lon="-0.105283">
        <ele>10.367</ele>
        <time>2022-04-24T07:24:16Z</time>
      </trkpt>
      <trkpt lat="39.831767" lon="-0.105470">
        <ele>9.688</ele>
        <time>2022-04-24T07:24:21Z</time>
      </trkpt>
      <trkpt lat="39.831561" lon="-0.105646">
        <ele>8.467</ele>
        <time>2022-04-24T07:24:26Z</time>
      </trkpt>
      <trkpt lat="39.831290" lon="-0.105950">
        <ele>8.454</ele>
        <time>2022-04-24T07:24:36Z</time>
      </trkpt>
      <trkpt lat="39.831413" lon="-0.106155">
        <ele>7.840</ele>
        <time>2022-04-24T07:24:41Z</time>
      </trkpt>
      <trkpt lat="39.831468" lon="-0.106385">
        <ele>7.063</ele>
        <time>2022-04-24T07:24:46Z</time>
      </trkpt>
      <trkpt lat="39.831148" lon="-0.106682">
        <ele>6.762</ele>
        <time>2022-04-24T07:24:56Z</time>
      </trkpt>
      <trkpt lat="39.830746" lon="-0.107049">
        <ele>6.739</ele>
        <time>2022-04-24T07:25:06Z</time>
      </trkpt>
      <trkpt lat="39.830531" lon="-0.107231">
        <ele>6.675</ele>
        <time>2022-04-24T07:25:11Z</time>
      </trkpt>
      <trkpt lat="39.830320" lon="-0.107438">
        <ele>6.428</ele>
        <time>2022-04-24T07:25:16Z</time>
      </trkpt>
      <trkpt lat="39.829875" lon="-0.107811">
        <ele>5.820</ele>
        <time>2022-04-24T07:25:26Z</time>
      </trkpt>
      <trkpt lat="39.829445" lon="-0.108196">
        <ele>6.909</ele>
        <time>2022-04-24T07:25:36Z</time>
      </trkpt>
      <trkpt lat="39.829237" lon="-0.108384">
        <ele>8.558</ele>
        <time>2022-04-24T07:25:41Z</time>
      </trkpt>
      <trkpt lat="39.829034" lon="-0.108557">
        <ele>7.867</ele>
        <time>2022-04-24T07:25:46Z</time>
      </trkpt>
      <trkpt lat="39.828823" lon="-0.108739">
        <ele>8.248</ele>
        <time>2022-04-24T07:25:51Z</time>
      </trkpt>
      <trkpt lat="39.828599" lon="-0.108920">
        <ele>7.317</ele>
        <time>2022-04-24T07:25:56Z</time>
      </trkpt>
      <trkpt lat="39.828385" lon="-0.109110">
        <ele>6.864</ele>
        <time>2022-04-24T07:26:01Z</time>
      </trkpt>
      <trkpt lat="39.828185" lon="-0.109307">
        <ele>7.290</ele>
        <time>2022-04-24T07:26:06Z</time>
      </trkpt>
      <trkpt lat="39.827765" lon="-0.109667">
        <ele>7.913</ele>
        <time>2022-04-24T07:26:16Z</time>
      </trkpt>
      <trkpt lat="39.827542" lon="-0.109858">
        <ele>8.672</ele>
        <time>2022-04-24T07:26:21Z</time>
      </trkpt>
      <trkpt lat="39.827109" lon="-0.110225">
        <ele>8.369</ele>
        <time>2022-04-24T07:26:31Z</time>
      </trkpt>
      <trkpt lat="39.826891" lon="-0.110405">
        <ele>8.473</ele>
        <time>2022-04-24T07:26:36Z</time>
      </trkpt>
      <trkpt lat="39.821013" lon="-0.114853">
        <ele>9.285</ele>
        <time>2022-04-24T07:29:21Z</time>
      </trkpt>
      <trkpt lat="39.820846" lon="-0.114899">
        <ele>6.313</ele>
        <time>2022-04-24T07:29:26Z</time>
      </trkpt>
      <trkpt lat="39.820839" lon="-0.114926">
        <ele>1.809</ele>
        <time>2022-04-24T07:29:39Z</time>
      </trkpt>
      <trkpt lat="39.820860" lon="-0.114929">
        <ele>0.848</ele>
        <time>2022-04-24T07:29:48Z</time>
      </trkpt>
      <trkpt lat="39.820923" lon="-0.114969">
        <ele>0.547</ele>
        <time>2022-04-24T07:29:53Z</time>
      </trkpt>
      <trkpt lat="39.821022" lon="-0.115174">
        <ele>-0.878</ele>
        <time>2022-04-24T07:29:58Z</time>
      </trkpt>
      <trkpt lat="39.821152" lon="-0.115421">
        <ele>-2.257</ele>
        <time>2022-04-24T07:30:04Z</time>
      </trkpt>
      <trkpt lat="39.821327" lon="-0.115831">
        <ele>-2.354</ele>
        <time>2022-04-24T07:30:13Z</time>
      </trkpt>
      <trkpt lat="39.821449" lon="-0.116089">
        <ele>-2.770</ele>
        <time>2022-04-24T07:30:19Z</time>
      </trkpt>
      <trkpt lat="39.821578" lon="-0.116340">
        <ele>-2.663</ele>
        <time>2022-04-24T07:30:25Z</time>
      </trkpt>
      <trkpt lat="39.821539" lon="-0.116544">
        <ele>-2.362</ele>
        <time>2022-04-24T07:30:33Z</time>
      </trkpt>
      <trkpt lat="39.821360" lon="-0.116675">
        <ele>-2.419</ele>
        <time>2022-04-24T07:30:38Z</time>
      </trkpt>
      <trkpt lat="39.821128" lon="-0.116879">
        <ele>-1.432</ele>
        <time>2022-04-24T07:30:44Z</time>
      </trkpt>
      <trkpt lat="39.820936" lon="-0.117066">
        <ele>0.292</ele>
        <time>2022-04-24T07:30:49Z</time>
      </trkpt>
      <trkpt lat="39.820590" lon="-0.117427">
        <ele>2.011</ele>
        <time>2022-04-24T07:30:58Z</time>
      </trkpt>
      <trkpt lat="39.820394" lon="-0.117624">
        <ele>2.109</ele>
        <time>2022-04-24T07:31:03Z</time>
      </trkpt>
      <trkpt lat="39.820170" lon="-0.117848">
        <ele>1.624</ele>
        <time>2022-04-24T07:31:09Z</time>
      </trkpt>
      <trkpt lat="39.819969" lon="-0.118028">
        <ele>2.023</ele>
        <time>2022-04-24T07:31:14Z</time>
      </trkpt>
      <trkpt lat="39.819599" lon="-0.118365">
        <ele>3.044</ele>
        <time>2022-04-24T07:31:23Z</time>
      </trkpt>
      <trkpt lat="39.819367" lon="-0.118593">
        <ele>2.713</ele>
        <time>2022-04-24T07:31:29Z</time>
      </trkpt>
      <trkpt lat="39.819028" lon="-0.118925">
        <ele>5.140</ele>
        <time>2022-04-24T07:31:38Z</time>
      </trkpt>
      <trkpt lat="39.818809" lon="-0.119157">
        <ele>6.796</ele>
        <time>2022-04-24T07:31:44Z</time>
      </trkpt>
      <trkpt lat="39.818523" lon="-0.119595">
        <ele>6.839</ele>
        <time>2022-04-24T07:31:53Z</time>
      </trkpt>
      <trkpt lat="39.818303" lon="-0.119833">
        <ele>4.678</ele>
        <time>2022-04-24T07:31:59Z</time>
      </trkpt>
      <trkpt lat="39.818097" lon="-0.120008">
        <ele>3.245</ele>
        <time>2022-04-24T07:32:04Z</time>
      </trkpt>
      <trkpt lat="39.817706" lon="-0.120288">
        <ele>2.584</ele>
        <time>2022-04-24T07:32:13Z</time>
      </trkpt>
      <trkpt lat="39.817482" lon="-0.120424">
        <ele>1.507</ele>
        <time>2022-04-24T07:32:18Z</time>
      </trkpt>
      <trkpt lat="39.817259" lon="-0.120556">
        <ele>1.317</ele>
        <time>2022-04-24T07:32:23Z</time>
      </trkpt>
      <trkpt lat="39.816991" lon="-0.120724">
        <ele>0.309</ele>
        <time>2022-04-24T07:32:29Z</time>
      </trkpt>
      <trkpt lat="39.816591" lon="-0.120956">
        <ele>-0.229</ele>
        <time>2022-04-24T07:32:38Z</time>
      </trkpt>
      <trkpt lat="39.816326" lon="-0.121113">
        <ele>-0.168</ele>
        <time>2022-04-24T07:32:44Z</time>
      </trkpt>
      <trkpt lat="39.815940" lon="-0.121337">
        <ele>-0.159</ele>
        <time>2022-04-24T07:32:53Z</time>
      </trkpt>
      <trkpt lat="39.815681" lon="-0.121491">
        <ele>-0.338</ele>
        <time>2022-04-24T07:32:59Z</time>
      </trkpt>
      <trkpt lat="39.815466" lon="-0.121624">
        <ele>-1.525</ele>
        <time>2022-04-24T07:33:04Z</time>
      </trkpt>
      <trkpt lat="39.815077" lon="-0.121894">
        <ele>-1.121</ele>
        <time>2022-04-24T07:33:13Z</time>
      </trkpt>
      <trkpt lat="39.814816" lon="-0.122075">
        <ele>-0.894</ele>
        <time>2022-04-24T07:33:19Z</time>
      </trkpt>
      <trkpt lat="39.814429" lon="-0.122352">
        <ele>-0.273</ele>
        <time>2022-04-24T07:33:28Z</time>
      </trkpt>
      <trkpt lat="39.814174" lon="-0.122526">
        <ele>-0.610</ele>
        <time>2022-04-24T07:33:34Z</time>
      </trkpt>
      <trkpt lat="39.813778" lon="-0.122801">
        <ele>-0.186</ele>
        <time>2022-04-24T07:33:43Z</time>
      </trkpt>
      <trkpt lat="39.813563" lon="-0.122949">
        <ele>0.560</ele>
        <time>2022-04-24T07:33:48Z</time>
      </trkpt>
      <trkpt lat="39.813298" lon="-0.123130">
        <ele>0.326</ele>
        <time>2022-04-24T07:33:54Z</time>
      </trkpt>
      <trkpt lat="39.813073" lon="-0.123289">
        <ele>0.409</ele>
        <time>2022-04-24T07:33:59Z</time>
      </trkpt>
      <trkpt lat="39.812676" lon="-0.123570">
        <ele>-0.259</ele>
        <time>2022-04-24T07:34:08Z</time>
      </trkpt>
      <trkpt lat="39.812434" lon="-0.123755">
        <ele>0.328</ele>
        <time>2022-04-24T07:34:14Z</time>
      </trkpt>
      <trkpt lat="39.812109" lon="-0.124141">
        <ele>0.319</ele>
        <time>2022-04-24T07:34:23Z</time>
      </trkpt>
      <trkpt lat="39.811935" lon="-0.124375">
        <ele>0.418</ele>
        <time>2022-04-24T07:34:28Z</time>
      </trkpt>
      <trkpt lat="39.811751" lon="-0.124588">
        <ele>-0.315</ele>
        <time>2022-04-24T07:34:33Z</time>
      </trkpt>
      <trkpt lat="39.811515" lon="-0.124829">
        <ele>-0.921</ele>
        <time>2022-04-24T07:34:39Z</time>
      </trkpt>
      <trkpt lat="39.811302" lon="-0.125006">
        <ele>-0.414</ele>
        <time>2022-04-24T07:34:44Z</time>
      </trkpt>
      <trkpt lat="39.810905" lon="-0.125276">
        <ele>-0.213</ele>
        <time>2022-04-24T07:34:53Z</time>
      </trkpt>
      <trkpt lat="39.810685" lon="-0.125429">
        <ele>0.150</ele>
        <time>2022-04-24T07:34:58Z</time>
      </trkpt>
      <trkpt lat="39.810423" lon="-0.125612">
        <ele>0.184</ele>
        <time>2022-04-24T07:35:04Z</time>
      </trkpt>
      <trkpt lat="39.810211" lon="-0.125762">
        <ele>-0.207</ele>
        <time>2022-04-24T07:35:09Z</time>
      </trkpt>
      <trkpt lat="39.810000" lon="-0.125910">
        <ele>0.117</ele>
        <time>2022-04-24T07:35:14Z</time>
      </trkpt>
      <trkpt lat="39.809621" lon="-0.126168">
        <ele>0.309</ele>
        <time>2022-04-24T07:35:23Z</time>
      </trkpt>
      <trkpt lat="39.809368" lon="-0.126352">
        <ele>-0.119</ele>
        <time>2022-04-24T07:35:29Z</time>
      </trkpt>
      <trkpt lat="39.809017" lon="-0.126652">
        <ele>-2.248</ele>
        <time>2022-04-24T07:35:38Z</time>
      </trkpt>
      <trkpt lat="39.808772" lon="-0.126850">
        <ele>-0.739</ele>
        <time>2022-04-24T07:35:44Z</time>
      </trkpt>
      <trkpt lat="39.808426" lon="-0.127089">
        <ele>1.498</ele>
        <time>2022-04-24T07:35:53Z</time>
      </trkpt>
      <trkpt lat="39.808260" lon="-0.126830">
        <ele>2.015</ele>
        <time>2022-04-24T07:35:59Z</time>
      </trkpt>
      <trkpt lat="39.808091" lon="-0.126405">
        <ele>0.151</ele>
        <time>2022-04-24T07:36:08Z</time>
      </trkpt>
      <trkpt lat="39.807980" lon="-0.126105">
        <ele>-0.974</ele>
        <time>2022-04-24T07:36:14Z</time>
      </trkpt>
      <trkpt lat="39.807796" lon="-0.125659">
        <ele>0.563</ele>
        <time>2022-04-24T07:36:23Z</time>
      </trkpt>
      <trkpt lat="39.807692" lon="-0.125425">
        <ele>0.660</ele>
        <time>2022-04-24T07:36:28Z</time>
      </trkpt>
      <trkpt lat="39.807496" lon="-0.125416">
        <ele>1.262</ele>
        <time>2022-04-24T07:36:34Z</time>
      </trkpt>
      <trkpt lat="39.807119" lon="-0.125691">
        <ele>1.383</ele>
        <time>2022-04-24T07:36:43Z</time>
      </trkpt>
      <trkpt lat="39.806854" lon="-0.125865">
        <ele>1.011</ele>
        <time>2022-04-24T07:36:49Z</time>
      </trkpt>
      <trkpt lat="39.806508" lon="-0.126116">
        <ele>-0.609</ele>
        <time>2022-04-24T07:36:58Z</time>
      </trkpt>
      <trkpt lat="39.806356" lon="-0.126214">
        <ele>-1.287</ele>
        <time>2022-04-24T07:37:03Z</time>
      </trkpt>
      <trkpt lat="39.806170" lon="-0.126337">
        <ele>-1.016</ele>
        <time>2022-04-24T07:37:08Z</time>
      </trkpt>
      <trkpt lat="39.805907" lon="-0.126511">
        <ele>-1.897</ele>
        <time>2022-04-24T07:37:14Z</time>
      </trkpt>
      <trkpt lat="39.805503" lon="-0.126757">
        <ele>-2.366</ele>
        <time>2022-04-24T07:37:23Z</time>
      </trkpt>
      <trkpt lat="39.805244" lon="-0.126936">
        <ele>-2.833</ele>
        <time>2022-04-24T07:37:29Z</time>
      </trkpt>
      <trkpt lat="39.804846" lon="-0.127212">
        <ele>-3.069</ele>
        <time>2022-04-24T07:37:38Z</time>
      </trkpt>
      <trkpt lat="39.804583" lon="-0.127392">
        <ele>-3.722</ele>
        <time>2022-04-24T07:37:44Z</time>
      </trkpt>
      <trkpt lat="39.804190" lon="-0.127634">
        <ele>-2.951</ele>
        <time>2022-04-24T07:37:53Z</time>
      </trkpt>
      <trkpt lat="39.803956" lon="-0.127793">
        <ele>-2.458</ele>
        <time>2022-04-24T07:37:59Z</time>
      </trkpt>
      <trkpt lat="39.803739" lon="-0.127936">
        <ele>-2.492</ele>
        <time>2022-04-24T07:38:04Z</time>
      </trkpt>
      <trkpt lat="39.803520" lon="-0.128094">
        <ele>-2.873</ele>
        <time>2022-04-24T07:38:09Z</time>
      </trkpt>
      <trkpt lat="39.803294" lon="-0.128251">
        <ele>-2.920</ele>
        <time>2022-04-24T07:38:14Z</time>
      </trkpt>
      <trkpt lat="39.802888" lon="-0.128544">
        <ele>-3.809</ele>
        <time>2022-04-24T07:38:23Z</time>
      </trkpt>
      <trkpt lat="39.802630" lon="-0.128725">
        <ele>-3.820</ele>
        <time>2022-04-24T07:38:29Z</time>
      </trkpt>
      <trkpt lat="39.802226" lon="-0.128990">
        <ele>-4.769</ele>
        <time>2022-04-24T07:38:38Z</time>
      </trkpt>
      <trkpt lat="39.801965" lon="-0.129179">
        <ele>-4.310</ele>
        <time>2022-04-24T07:38:44Z</time>
      </trkpt>
      <trkpt lat="39.801565" lon="-0.129445">
        <ele>-2.689</ele>
        <time>2022-04-24T07:38:53Z</time>
      </trkpt>
      <trkpt lat="39.801347" lon="-0.129594">
        <ele>-2.016</ele>
        <time>2022-04-24T07:38:58Z</time>
      </trkpt>
      <trkpt lat="39.801125" lon="-0.129743">
        <ele>-1.432</ele>
        <time>2022-04-24T07:39:03Z</time>
      </trkpt>
      <trkpt lat="39.800901" lon="-0.129890">
        <ele>-1.755</ele>
        <time>2022-04-24T07:39:08Z</time>
      </trkpt>
      <trkpt lat="39.800642" lon="-0.130089">
        <ele>-2.684</ele>
        <time>2022-04-24T07:39:14Z</time>
      </trkpt>
      <trkpt lat="39.800262" lon="-0.130388">
        <ele>-2.671</ele>
        <time>2022-04-24T07:39:23Z</time>
      </trkpt>
      <trkpt lat="39.800002" lon="-0.130578">
        <ele>-1.639</ele>
        <time>2022-04-24T07:39:29Z</time>
      </trkpt>
      <trkpt lat="39.799612" lon="-0.130852">
        <ele>-0.501</ele>
        <time>2022-04-24T07:39:38Z</time>
      </trkpt>
      <trkpt lat="39.799340" lon="-0.131020">
        <ele>-0.621</ele>
        <time>2022-04-24T07:39:44Z</time>
      </trkpt>
      <trkpt lat="39.798944" lon="-0.131287">
        <ele>-1.109</ele>
        <time>2022-04-24T07:39:53Z</time>
      </trkpt>
      <trkpt lat="39.798726" lon="-0.131432">
        <ele>-0.114</ele>
        <time>2022-04-24T07:39:58Z</time>
      </trkpt>
      <trkpt lat="39.798463" lon="-0.131596">
        <ele>-0.313</ele>
        <time>2022-04-24T07:40:04Z</time>
      </trkpt>
      <trkpt lat="39.798249" lon="-0.131735">
        <ele>-0.984</ele>
        <time>2022-04-24T07:40:09Z</time>
      </trkpt>
      <trkpt lat="39.798038" lon="-0.131880">
        <ele>-1.843</ele>
        <time>2022-04-24T07:40:14Z</time>
      </trkpt>
      <trkpt lat="39.797822" lon="-0.132028">
        <ele>-1.590</ele>
        <time>2022-04-24T07:40:19Z</time>
      </trkpt>
      <trkpt lat="39.797431" lon="-0.132301">
        <ele>-1.516</ele>
        <time>2022-04-24T07:40:28Z</time>
      </trkpt>
      <trkpt lat="39.797205" lon="-0.132430">
        <ele>-1.699</ele>
        <time>2022-04-24T07:40:33Z</time>
      </trkpt>
      <trkpt lat="39.796984" lon="-0.132573">
        <ele>-1.768</ele>
        <time>2022-04-24T07:40:38Z</time>
      </trkpt>
      <trkpt lat="39.796719" lon="-0.132749">
        <ele>-2.365</ele>
        <time>2022-04-24T07:40:44Z</time>
      </trkpt>
      <trkpt lat="39.796310" lon="-0.133008">
        <ele>-2.453</ele>
        <time>2022-04-24T07:40:53Z</time>
      </trkpt>
      <trkpt lat="39.796084" lon="-0.133163">
        <ele>-2.504</ele>
        <time>2022-04-24T07:40:58Z</time>
      </trkpt>
      <trkpt lat="39.795812" lon="-0.133347">
        <ele>-2.814</ele>
        <time>2022-04-24T07:41:04Z</time>
      </trkpt>
      <trkpt lat="39.795403" lon="-0.133616">
        <ele>-2.909</ele>
        <time>2022-04-24T07:41:13Z</time>
      </trkpt>
      <trkpt lat="39.795138" lon="-0.133815">
        <ele>-2.146</ele>
        <time>2022-04-24T07:41:19Z</time>
      </trkpt>
      <trkpt lat="39.794729" lon="-0.134083">
        <ele>-2.035</ele>
        <time>2022-04-24T07:41:28Z</time>
      </trkpt>
      <trkpt lat="39.794481" lon="-0.134271">
        <ele>-1.816</ele>
        <time>2022-04-24T07:41:34Z</time>
      </trkpt>
      <trkpt lat="39.794094" lon="-0.134553">
        <ele>-1.985</ele>
        <time>2022-04-24T07:41:43Z</time>
      </trkpt>
      <trkpt lat="39.793888" lon="-0.134708">
        <ele>-1.922</ele>
        <time>2022-04-24T07:41:48Z</time>
      </trkpt>
      <trkpt lat="39.793638" lon="-0.134885">
        <ele>-1.468</ele>
        <time>2022-04-24T07:41:54Z</time>
      </trkpt>
      <trkpt lat="39.793253" lon="-0.135148">
        <ele>0.351</ele>
        <time>2022-04-24T07:42:03Z</time>
      </trkpt>
      <trkpt lat="39.793048" lon="-0.135317">
        <ele>1.050</ele>
        <time>2022-04-24T07:42:08Z</time>
      </trkpt>
      <trkpt lat="39.792794" lon="-0.135519">
        <ele>0.357</ele>
        <time>2022-04-24T07:42:14Z</time>
      </trkpt>
      <trkpt lat="39.792414" lon="-0.135838">
        <ele>-0.356</ele>
        <time>2022-04-24T07:42:23Z</time>
      </trkpt>
      <trkpt lat="39.792223" lon="-0.135998">
        <ele>0.359</ele>
        <time>2022-04-24T07:42:28Z</time>
      </trkpt>
      <trkpt lat="39.792035" lon="-0.136157">
        <ele>0.114</ele>
        <time>2022-04-24T07:42:34Z</time>
      </trkpt>
      <trkpt lat="39.791974" lon="-0.136220">
        <ele>0.209</ele>
        <time>2022-04-24T07:42:43Z</time>
      </trkpt>
      <trkpt lat="39.791760" lon="-0.136393">
        <ele>-0.286</ele>
        <time>2022-04-24T07:42:49Z</time>
      </trkpt>
      <trkpt lat="39.791568" lon="-0.136557">
        <ele>-1.315</ele>
        <time>2022-04-24T07:42:54Z</time>
      </trkpt>
      <trkpt lat="39.791214" lon="-0.136835">
        <ele>-1.016</ele>
        <time>2022-04-24T07:43:03Z</time>
      </trkpt>
      <trkpt lat="39.791051" lon="-0.136961">
        <ele>-1.275</ele>
        <time>2022-04-24T07:43:08Z</time>
      </trkpt>
      <trkpt lat="39.790840" lon="-0.137141">
        <ele>-1.512</ele>
        <time>2022-04-24T07:43:14Z</time>
      </trkpt>
      <trkpt lat="39.790473" lon="-0.137456">
        <ele>-2.138</ele>
        <time>2022-04-24T07:43:23Z</time>
      </trkpt>
      <trkpt lat="39.790225" lon="-0.137647">
        <ele>-1.891</ele>
        <time>2022-04-24T07:43:29Z</time>
      </trkpt>
      <trkpt lat="39.789887" lon="-0.137913">
        <ele>-1.170</ele>
        <time>2022-04-24T07:43:38Z</time>
      </trkpt>
      <trkpt lat="39.789756" lon="-0.138072">
        <ele>-0.667</ele>
        <time>2022-04-24T07:43:44Z</time>
      </trkpt>
      <trkpt lat="39.789682" lon="-0.138377">
        <ele>2.134</ele>
        <time>2022-04-24T07:43:53Z</time>
      </trkpt>
      <trkpt lat="39.789637" lon="-0.138420">
        <ele>1.155</ele>
        <time>2022-04-24T07:43:59Z</time>
      </trkpt>
      <trkpt lat="39.789594" lon="-0.138452">
        <ele>2.510</ele>
        <time>2022-04-24T07:44:39Z</time>
      </trkpt>
      <trkpt lat="39.789513" lon="-0.138611">
        <ele>3.309</ele>
        <time>2022-04-24T07:44:44Z</time>
      </trkpt>
      <trkpt lat="39.789398" lon="-0.138788">
        <ele>3.844</ele>
        <time>2022-04-24T07:44:52Z</time>
      </trkpt>
      <trkpt lat="39.789245" lon="-0.138957">
        <ele>3.513</ele>
        <time>2022-04-24T07:44:59Z</time>
      </trkpt>
      <trkpt lat="39.789153" lon="-0.139102">
        <ele>2.644</ele>
        <time>2022-04-24T07:45:04Z</time>
      </trkpt>
      <trkpt lat="39.789015" lon="-0.139397">
        <ele>2.943</ele>
        <time>2022-04-24T07:45:12Z</time>
      </trkpt>
      <trkpt lat="39.788878" lon="-0.139714">
        <ele>3.810</ele>
        <time>2022-04-24T07:45:19Z</time>
      </trkpt>
      <trkpt lat="39.788737" lon="-0.140081">
        <ele>3.616</ele>
        <time>2022-04-24T07:45:27Z</time>
      </trkpt>
      <trkpt lat="39.788631" lon="-0.140283">
        <ele>3.229</ele>
        <time>2022-04-24T07:45:32Z</time>
      </trkpt>
      <trkpt lat="39.788503" lon="-0.140519">
        <ele>3.328</ele>
        <time>2022-04-24T07:45:39Z</time>
      </trkpt>
      <trkpt lat="39.788455" lon="-0.140630">
        <ele>1.595</ele>
        <time>2022-04-24T07:45:44Z</time>
      </trkpt>
      <trkpt lat="39.788365" lon="-0.140765">
        <ele>1.293</ele>
        <time>2022-04-24T07:45:52Z</time>
      </trkpt>
      <trkpt lat="39.788154" lon="-0.141084">
        <ele>1.265</ele>
        <time>2022-04-24T07:46:02Z</time>
      </trkpt>
      <trkpt lat="39.787876" lon="-0.141400">
        <ele>0.721</ele>
        <time>2022-04-24T07:46:12Z</time>
      </trkpt>
      <trkpt lat="39.787850" lon="-0.141759">
        <ele>2.009</ele>
        <time>2022-04-24T07:46:22Z</time>
      </trkpt>
      <trkpt lat="39.787677" lon="-0.141955">
        <ele>2.670</ele>
        <time>2022-04-24T07:46:32Z</time>
      </trkpt>
      <trkpt lat="39.787490" lon="-0.142061">
        <ele>4.069</ele>
        <time>2022-04-24T07:46:42Z</time>
      </trkpt>
      <trkpt lat="39.787451" lon="-0.142306">
        <ele>6.480</ele>
        <time>2022-04-24T07:46:52Z</time>
      </trkpt>
      <trkpt lat="39.787413" lon="-0.142422">
        <ele>8.239</ele>
        <time>2022-04-24T07:46:57Z</time>
      </trkpt>
      <trkpt lat="39.787353" lon="-0.142487">
        <ele>9.336</ele>
        <time>2022-04-24T07:47:02Z</time>
      </trkpt>
      <trkpt lat="39.787232" lon="-0.142625">
        <ele>7.892</ele>
        <time>2022-04-24T07:47:12Z</time>
      </trkpt>
      <trkpt lat="39.787181" lon="-0.142784">
        <ele>5.275</ele>
        <time>2022-04-24T07:47:22Z</time>
      </trkpt>
      <trkpt lat="39.787414" lon="-0.143055">
        <ele>2.624</ele>
        <time>2022-04-24T07:47:32Z</time>
      </trkpt>
      <trkpt lat="39.787505" lon="-0.143190">
        <ele>2.751</ele>
        <time>2022-04-24T07:47:37Z</time>
      </trkpt>
      <trkpt lat="39.787722" lon="-0.143515">
        <ele>3.037</ele>
        <time>2022-04-24T07:47:47Z</time>
      </trkpt>
      <trkpt lat="39.787989" lon="-0.143941">
        <ele>2.749</ele>
        <time>2022-04-24T07:47:57Z</time>
      </trkpt>
      <trkpt lat="39.788128" lon="-0.144154">
        <ele>2.713</ele>
        <time>2022-04-24T07:48:02Z</time>
      </trkpt>
      <trkpt lat="39.788309" lon="-0.144485">
        <ele>2.109</ele>
        <time>2022-04-24T07:48:13Z</time>
      </trkpt>
      <trkpt lat="39.788236" lon="-0.144292">
        <ele>3.474</ele>
        <time>2022-04-24T07:49:36Z</time>
      </trkpt>
      <trkpt lat="39.788126" lon="-0.144128">
        <ele>4.413</ele>
        <time>2022-04-24T07:49:41Z</time>
      </trkpt>
      <trkpt lat="39.787885" lon="-0.143737">
        <ele>5.494</ele>
        <time>2022-04-24T07:49:51Z</time>
      </trkpt>
      <trkpt lat="39.787749" lon="-0.143543">
        <ele>5.673</ele>
        <time>2022-04-24T07:49:56Z</time>
      </trkpt>
      <trkpt lat="39.787479" lon="-0.143138">
        <ele>5.890</ele>
        <time>2022-04-24T07:50:06Z</time>
      </trkpt>
      <trkpt lat="39.787362" lon="-0.142970">
        <ele>5.666</ele>
        <time>2022-04-24T07:50:11Z</time>
      </trkpt>
      <trkpt lat="39.787119" lon="-0.143136">
        <ele>5.439</ele>
        <time>2022-04-24T07:50:21Z</time>
      </trkpt>
      <trkpt lat="39.787073" lon="-0.143382">
        <ele>4.778</ele>
        <time>2022-04-24T07:50:26Z</time>
      </trkpt>
      <trkpt lat="39.786982" lon="-0.143768">
        <ele>2.325</ele>
        <time>2022-04-24T07:50:36Z</time>
      </trkpt>
      <trkpt lat="39.786881" lon="-0.143682">
        <ele>1.732</ele>
        <time>2022-04-24T07:50:41Z</time>
      </trkpt>
      <trkpt lat="39.786803" lon="-0.143603">
        <ele>2.492</ele>
        <time>2022-04-24T07:50:46Z</time>
      </trkpt>
      <trkpt lat="39.786734" lon="-0.143511">
        <ele>3.311</ele>
        <time>2022-04-24T07:50:51Z</time>
      </trkpt>
      <trkpt lat="39.786617" lon="-0.143335">
        <ele>4.109</ele>
        <time>2022-04-24T07:51:01Z</time>
      </trkpt>
      <trkpt lat="39.786641" lon="-0.143325">
        <ele>3.314</ele>
        <time>2022-04-24T07:51:06Z</time>
      </trkpt>
      <trkpt lat="39.786640" lon="-0.143307">
        <ele>2.253</ele>
        <time>2022-04-24T07:51:17Z</time>
      </trkpt>
      <trkpt lat="39.786620" lon="-0.143185">
        <ele>1.724</ele>
        <time>2022-04-24T07:51:22Z</time>
      </trkpt>
      <trkpt lat="39.786433" lon="-0.143035">
        <ele>1.083</ele>
        <time>2022-04-24T07:51:32Z</time>
      </trkpt>
      <trkpt lat="39.786296" lon="-0.142941">
        <ele>0.660</ele>
        <time>2022-04-24T07:51:42Z</time>
      </trkpt>
      <trkpt lat="39.786273" lon="-0.142958">
        <ele>0.166</ele>
        <time>2022-04-24T07:51:47Z</time>
      </trkpt>
      <trkpt lat="39.786191" lon="-0.143067">
        <ele>0.179</ele>
        <time>2022-04-24T07:51:57Z</time>
      </trkpt>
      <trkpt lat="39.786177" lon="-0.143153">
        <ele>0.148</ele>
        <time>2022-04-24T07:52:02Z</time>
      </trkpt>
      <trkpt lat="39.786064" lon="-0.143232">
        <ele>0.625</ele>
        <time>2022-04-24T07:52:12Z</time>
      </trkpt>
      <trkpt lat="39.785792" lon="-0.143418">
        <ele>2.111</ele>
        <time>2022-04-24T07:52:22Z</time>
      </trkpt>
      <trkpt lat="39.785535" lon="-0.143601">
        <ele>2.121</ele>
        <time>2022-04-24T07:52:32Z</time>
      </trkpt>
      <trkpt lat="39.785265" lon="-0.143801">
        <ele>1.703</ele>
        <time>2022-04-24T07:52:42Z</time>
      </trkpt>
      <trkpt lat="39.785127" lon="-0.143880">
        <ele>2.209</ele>
        <time>2022-04-24T07:52:47Z</time>
      </trkpt>
      <trkpt lat="39.784872" lon="-0.143764">
        <ele>1.282</ele>
        <time>2022-04-24T07:52:57Z</time>
      </trkpt>
      <trkpt lat="39.784717" lon="-0.143707">
        <ele>1.111</ele>
        <time>2022-04-24T07:53:02Z</time>
      </trkpt>
      <trkpt lat="39.784435" lon="-0.143614">
        <ele>0.962</ele>
        <time>2022-04-24T07:53:12Z</time>
      </trkpt>
      <trkpt lat="39.784296" lon="-0.143573">
        <ele>1.421</ele>
        <time>2022-04-24T07:53:17Z</time>
      </trkpt>
      <trkpt lat="39.784183" lon="-0.143772">
        <ele>1.948</ele>
        <time>2022-04-24T07:53:27Z</time>
      </trkpt>
      <trkpt lat="39.784233" lon="-0.143946">
        <ele>2.014</ele>
        <time>2022-04-24T07:53:32Z</time>
      </trkpt>
      <trkpt lat="39.784366" lon="-0.144295">
        <ele>2.937</ele>
        <time>2022-04-24T07:53:42Z</time>
      </trkpt>
      <trkpt lat="39.784430" lon="-0.144489">
        <ele>4.616</ele>
        <time>2022-04-24T07:53:47Z</time>
      </trkpt>
      <trkpt lat="39.784295" lon="-0.144647">
        <ele>5.193</ele>
        <time>2022-04-24T07:53:57Z</time>
      </trkpt>
      <trkpt lat="39.784128" lon="-0.144721">
        <ele>4.673</ele>
        <time>2022-04-24T07:54:02Z</time>
      </trkpt>
      <trkpt lat="39.783747" lon="-0.144836">
        <ele>4.185</ele>
        <time>2022-04-24T07:54:12Z</time>
      </trkpt>
      <trkpt lat="39.783539" lon="-0.144832">
        <ele>4.013</ele>
        <time>2022-04-24T07:54:17Z</time>
      </trkpt>
      <trkpt lat="39.783105" lon="-0.144784">
        <ele>4.209</ele>
        <time>2022-04-24T07:54:27Z</time>
      </trkpt>
      <trkpt lat="39.782907" lon="-0.144930">
        <ele>3.838</ele>
        <time>2022-04-24T07:54:32Z</time>
      </trkpt>
      <trkpt lat="39.782571" lon="-0.145232">
        <ele>3.677</ele>
        <time>2022-04-24T07:54:42Z</time>
      </trkpt>
      <trkpt lat="39.782430" lon="-0.145317">
        <ele>2.428</ele>
        <time>2022-04-24T07:54:52Z</time>
      </trkpt>
      <trkpt lat="39.782206" lon="-0.145509">
        <ele>2.917</ele>
        <time>2022-04-24T07:55:02Z</time>
      </trkpt>
      <trkpt lat="39.781937" lon="-0.145755">
        <ele>3.774</ele>
        <time>2022-04-24T07:55:12Z</time>
      </trkpt>
      <trkpt lat="39.781607" lon="-0.145917">
        <ele>4.710</ele>
        <time>2022-04-24T07:55:22Z</time>
      </trkpt>
      <trkpt lat="39.781504" lon="-0.145712">
        <ele>5.973</ele>
        <time>2022-04-24T07:55:27Z</time>
      </trkpt>
      <trkpt lat="39.781400" lon="-0.145506">
        <ele>7.572</ele>
        <time>2022-04-24T07:55:32Z</time>
      </trkpt>
      <trkpt lat="39.781102" lon="-0.145613">
        <ele>8.169</ele>
        <time>2022-04-24T07:55:42Z</time>
      </trkpt>
      <trkpt lat="39.780742" lon="-0.145940">
        <ele>7.611</ele>
        <time>2022-04-24T07:55:52Z</time>
      </trkpt>
      <trkpt lat="39.780391" lon="-0.146264">
        <ele>6.521</ele>
        <time>2022-04-24T07:56:02Z</time>
      </trkpt>
      <trkpt lat="39.780043" lon="-0.146563">
        <ele>6.503</ele>
        <time>2022-04-24T07:56:12Z</time>
      </trkpt>
      <trkpt lat="39.779885" lon="-0.146693">
        <ele>6.509</ele>
        <time>2022-04-24T07:56:17Z</time>
      </trkpt>
      <trkpt lat="39.779722" lon="-0.146855">
        <ele>5.782</ele>
        <time>2022-04-24T07:56:22Z</time>
      </trkpt>
      <trkpt lat="39.779372" lon="-0.147083">
        <ele>4.921</ele>
        <time>2022-04-24T07:56:32Z</time>
      </trkpt>
      <trkpt lat="39.779025" lon="-0.147326">
        <ele>4.622</ele>
        <time>2022-04-24T07:56:42Z</time>
      </trkpt>
      <trkpt lat="39.778849" lon="-0.147484">
        <ele>4.751</ele>
        <time>2022-04-24T07:56:47Z</time>
      </trkpt>
      <trkpt lat="39.778760" lon="-0.147686">
        <ele>5.938</ele>
        <time>2022-04-24T07:56:52Z</time>
      </trkpt>
      <trkpt lat="39.778555" lon="-0.147906">
        <ele>5.574</ele>
        <time>2022-04-24T07:57:02Z</time>
      </trkpt>
      <trkpt lat="39.778755" lon="-0.148192">
        <ele>4.847</ele>
        <time>2022-04-24T07:57:12Z</time>
      </trkpt>
      <trkpt lat="39.778919" lon="-0.148558">
        <ele>5.156</ele>
        <time>2022-04-24T07:57:22Z</time>
      </trkpt>
      <trkpt lat="39.778585" lon="-0.148839">
        <ele>4.163</ele>
        <time>2022-04-24T07:57:32Z</time>
      </trkpt>
      <trkpt lat="39.778229" lon="-0.149127">
        <ele>3.847</ele>
        <time>2022-04-24T07:57:42Z</time>
      </trkpt>
      <trkpt lat="39.777869" lon="-0.149474">
        <ele>4.229</ele>
        <time>2022-04-24T07:57:52Z</time>
      </trkpt>
      <trkpt lat="39.777800" lon="-0.149750">
        <ele>4.921</ele>
        <time>2022-04-24T07:57:57Z</time>
      </trkpt>
      <trkpt lat="39.777627" lon="-0.149955">
        <ele>4.309</ele>
        <time>2022-04-24T07:58:02Z</time>
      </trkpt>
      <trkpt lat="39.777208" lon="-0.150293">
        <ele>2.055</ele>
        <time>2022-04-24T07:58:12Z</time>
      </trkpt>
      <trkpt lat="39.776824" lon="-0.150693">
        <ele>0.914</ele>
        <time>2022-04-24T07:58:22Z</time>
      </trkpt>
      <trkpt lat="39.776446" lon="-0.151068">
        <ele>1.085</ele>
        <time>2022-04-24T07:58:32Z</time>
      </trkpt>
      <trkpt lat="39.776144" lon="-0.151443">
        <ele>1.954</ele>
        <time>2022-04-24T07:58:42Z</time>
      </trkpt>
      <trkpt lat="39.775957" lon="-0.151633">
        <ele>1.731</ele>
        <time>2022-04-24T07:58:47Z</time>
      </trkpt>
      <trkpt lat="39.775588" lon="-0.152004">
        <ele>1.177</ele>
        <time>2022-04-24T07:58:57Z</time>
      </trkpt>
      <trkpt lat="39.775387" lon="-0.152138">
        <ele>1.540</ele>
        <time>2022-04-24T07:59:02Z</time>
      </trkpt>
      <trkpt lat="39.774942" lon="-0.152433">
        <ele>1.369</ele>
        <time>2022-04-24T07:59:12Z</time>
      </trkpt>
      <trkpt lat="39.774734" lon="-0.152971">
        <ele>3.466</ele>
        <time>2022-04-24T07:59:22Z</time>
      </trkpt>
      <trkpt lat="39.774409" lon="-0.152952">
        <ele>5.032</ele>
        <time>2022-04-24T07:59:32Z</time>
      </trkpt>
      <trkpt lat="39.774128" lon="-0.152445">
        <ele>5.392</ele>
        <time>2022-04-24T07:59:42Z</time>
      </trkpt>
      <trkpt lat="39.773967" lon="-0.152187">
        <ele>5.011</ele>
        <time>2022-04-24T07:59:47Z</time>
      </trkpt>
      <trkpt lat="39.773643" lon="-0.151834">
        <ele>7.009</ele>
        <time>2022-04-24T07:59:57Z</time>
      </trkpt>
      <trkpt lat="39.773498" lon="-0.151968">
        <ele>6.784</ele>
        <time>2022-04-24T08:00:02Z</time>
      </trkpt>
      <trkpt lat="39.773200" lon="-0.152189">
        <ele>8.453</ele>
        <time>2022-04-24T08:00:12Z</time>
      </trkpt>
      <trkpt lat="39.772925" lon="-0.152354">
        <ele>7.184</ele>
        <time>2022-04-24T08:00:22Z</time>
      </trkpt>
      <trkpt lat="39.772635" lon="-0.152551">
        <ele>3.913</ele>
        <time>2022-04-24T08:00:32Z</time>
      </trkpt>
      <trkpt lat="39.772396" lon="-0.152803">
        <ele>3.020</ele>
        <time>2022-04-24T08:00:42Z</time>
      </trkpt>
      <trkpt lat="39.772115" lon="-0.152687">
        <ele>4.426</ele>
        <time>2022-04-24T08:00:52Z</time>
      </trkpt>
      <trkpt lat="39.771869" lon="-0.152368">
        <ele>5.619</ele>
        <time>2022-04-24T08:01:02Z</time>
      </trkpt>
      <trkpt lat="39.771470" lon="-0.152524">
        <ele>7.018</ele>
        <time>2022-04-24T08:01:12Z</time>
      </trkpt>
      <trkpt lat="39.771116" lon="-0.152820">
        <ele>5.475</ele>
        <time>2022-04-24T08:01:22Z</time>
      </trkpt>
      <trkpt lat="39.770957" lon="-0.152950">
        <ele>4.352</ele>
        <time>2022-04-24T08:01:27Z</time>
      </trkpt>
      <trkpt lat="39.770826" lon="-0.152871">
        <ele>3.753</ele>
        <time>2022-04-24T08:01:32Z</time>
      </trkpt>
      <trkpt lat="39.770491" lon="-0.152886">
        <ele>3.208</ele>
        <time>2022-04-24T08:01:42Z</time>
      </trkpt>
      <trkpt lat="39.770169" lon="-0.153231">
        <ele>2.309</ele>
        <time>2022-04-24T08:01:52Z</time>
      </trkpt>
      <trkpt lat="39.769825" lon="-0.153536">
        <ele>2.176</ele>
        <time>2022-04-24T08:02:02Z</time>
      </trkpt>
      <trkpt lat="39.769488" lon="-0.153823">
        <ele>1.365</ele>
        <time>2022-04-24T08:02:12Z</time>
      </trkpt>
      <trkpt lat="39.769360" lon="-0.153938">
        <ele>1.726</ele>
        <time>2022-04-24T08:02:17Z</time>
      </trkpt>
      <trkpt lat="39.769122" lon="-0.154146">
        <ele>2.035</ele>
        <time>2022-04-24T08:02:27Z</time>
      </trkpt>
      <trkpt lat="39.768948" lon="-0.154291">
        <ele>1.972</ele>
        <time>2022-04-24T08:02:32Z</time>
      </trkpt>
      <trkpt lat="39.768598" lon="-0.154572">
        <ele>1.898</ele>
        <time>2022-04-24T08:02:42Z</time>
      </trkpt>
      <trkpt lat="39.768247" lon="-0.154869">
        <ele>1.221</ele>
        <time>2022-04-24T08:02:52Z</time>
      </trkpt>
      <trkpt lat="39.768108" lon="-0.155020">
        <ele>1.420</ele>
        <time>2022-04-24T08:02:57Z</time>
      </trkpt>
      <trkpt lat="39.768104" lon="-0.155062">
        <ele>1.467</ele>
        <time>2022-04-24T08:03:02Z</time>
      </trkpt>
      <trkpt lat="39.768002" lon="-0.155196">
        <ele>2.168</ele>
        <time>2022-04-24T08:03:12Z</time>
      </trkpt>
      <trkpt lat="39.767882" lon="-0.155238">
        <ele>2.242</ele>
        <time>2022-04-24T08:03:17Z</time>
      </trkpt>
      <trkpt lat="39.767722" lon="-0.155253">
        <ele>2.626</ele>
        <time>2022-04-24T08:03:22Z</time>
      </trkpt>
      <trkpt lat="39.767410" lon="-0.155134">
        <ele>4.409</ele>
        <time>2022-04-24T08:03:32Z</time>
      </trkpt>
      <trkpt lat="39.767312" lon="-0.155533">
        <ele>4.047</ele>
        <time>2022-04-24T08:03:42Z</time>
      </trkpt>
      <trkpt lat="39.767183" lon="-0.155733">
        <ele>3.476</ele>
        <time>2022-04-24T08:03:47Z</time>
      </trkpt>
      <trkpt lat="39.766809" lon="-0.156017">
        <ele>3.157</ele>
        <time>2022-04-24T08:03:57Z</time>
      </trkpt>
      <trkpt lat="39.766624" lon="-0.156167">
        <ele>2.576</ele>
        <time>2022-04-24T08:04:02Z</time>
      </trkpt>
      <trkpt lat="39.766223" lon="-0.156437">
        <ele>2.063</ele>
        <time>2022-04-24T08:04:12Z</time>
      </trkpt>
      <trkpt lat="39.765825" lon="-0.156728">
        <ele>2.089</ele>
        <time>2022-04-24T08:04:22Z</time>
      </trkpt>
      <trkpt lat="39.765425" lon="-0.157035">
        <ele>1.982</ele>
        <time>2022-04-24T08:04:32Z</time>
      </trkpt>
      <trkpt lat="39.765033" lon="-0.157348">
        <ele>1.631</ele>
        <time>2022-04-24T08:04:42Z</time>
      </trkpt>
      <trkpt lat="39.764643" lon="-0.157660">
        <ele>0.198</ele>
        <time>2022-04-24T08:04:52Z</time>
      </trkpt>
      <trkpt lat="39.764445" lon="-0.157778">
        <ele>0.919</ele>
        <time>2022-04-24T08:04:57Z</time>
      </trkpt>
      <trkpt lat="39.764236" lon="-0.157860">
        <ele>1.209</ele>
        <time>2022-04-24T08:05:02Z</time>
      </trkpt>
      <trkpt lat="39.763891" lon="-0.158239">
        <ele>2.119</ele>
        <time>2022-04-24T08:05:12Z</time>
      </trkpt>
      <trkpt lat="39.763563" lon="-0.158614">
        <ele>3.009</ele>
        <time>2022-04-24T08:05:22Z</time>
      </trkpt>
      <trkpt lat="39.763394" lon="-0.158806">
        <ele>3.352</ele>
        <time>2022-04-24T08:05:27Z</time>
      </trkpt>
      <trkpt lat="39.763238" lon="-0.159023">
        <ele>3.421</ele>
        <time>2022-04-24T08:05:32Z</time>
      </trkpt>
      <trkpt lat="39.762907" lon="-0.159357">
        <ele>2.132</ele>
        <time>2022-04-24T08:05:42Z</time>
      </trkpt>
      <trkpt lat="39.762515" lon="-0.159661">
        <ele>2.531</ele>
        <time>2022-04-24T08:05:52Z</time>
      </trkpt>
      <trkpt lat="39.762314" lon="-0.159808">
        <ele>2.798</ele>
        <time>2022-04-24T08:05:57Z</time>
      </trkpt>
      <trkpt lat="39.762107" lon="-0.159950">
        <ele>2.614</ele>
        <time>2022-04-24T08:06:02Z</time>
      </trkpt>
      <trkpt lat="39.761719" lon="-0.160276">
        <ele>2.257</ele>
        <time>2022-04-24T08:06:12Z</time>
      </trkpt>
      <trkpt lat="39.761325" lon="-0.160597">
        <ele>2.136</ele>
        <time>2022-04-24T08:06:22Z</time>
      </trkpt>
      <trkpt lat="39.760911" lon="-0.160921">
        <ele>2.753</ele>
        <time>2022-04-24T08:06:32Z</time>
      </trkpt>
      <trkpt lat="39.760520" lon="-0.161228">
        <ele>2.111</ele>
        <time>2022-04-24T08:06:42Z</time>
      </trkpt>
      <trkpt lat="39.760116" lon="-0.161514">
        <ele>3.121</ele>
        <time>2022-04-24T08:06:52Z</time>
      </trkpt>
      <trkpt lat="39.759696" lon="-0.161739">
        <ele>2.303</ele>
        <time>2022-04-24T08:07:02Z</time>
      </trkpt>
      <trkpt lat="39.759476" lon="-0.162141">
        <ele>2.209</ele>
        <time>2022-04-24T08:07:12Z</time>
      </trkpt>
      <trkpt lat="39.759608" lon="-0.162375">
        <ele>2.792</ele>
        <time>2022-04-24T08:07:17Z</time>
      </trkpt>
      <trkpt lat="39.759904" lon="-0.162897">
        <ele>4.251</ele>
        <time>2022-04-24T08:07:27Z</time>
      </trkpt>
      <trkpt lat="39.760044" lon="-0.163168">
        <ele>3.642</ele>
        <time>2022-04-24T08:07:32Z</time>
      </trkpt>
      <trkpt lat="39.760317" lon="-0.163672">
        <ele>4.521</ele>
        <time>2022-04-24T08:07:42Z</time>
      </trkpt>
      <trkpt lat="39.760275" lon="-0.164017">
        <ele>4.358</ele>
        <time>2022-04-24T08:07:52Z</time>
      </trkpt>
      <trkpt lat="39.760080" lon="-0.164153">
        <ele>3.824</ele>
        <time>2022-04-24T08:07:57Z</time>
      </trkpt>
      <trkpt lat="39.759880" lon="-0.164335">
        <ele>3.647</ele>
        <time>2022-04-24T08:08:02Z</time>
      </trkpt>
      <trkpt lat="39.759487" lon="-0.164694">
        <ele>4.026</ele>
        <time>2022-04-24T08:08:12Z</time>
      </trkpt>
      <trkpt lat="39.759292" lon="-0.164882">
        <ele>3.753</ele>
        <time>2022-04-24T08:08:17Z</time>
      </trkpt>
      <trkpt lat="39.758892" lon="-0.165246">
        <ele>2.849</ele>
        <time>2022-04-24T08:08:27Z</time>
      </trkpt>
      <trkpt lat="39.758692" lon="-0.165431">
        <ele>2.802</ele>
        <time>2022-04-24T08:08:32Z</time>
      </trkpt>
      <trkpt lat="39.758299" lon="-0.165772">
        <ele>3.522</ele>
        <time>2022-04-24T08:08:42Z</time>
      </trkpt>
      <trkpt lat="39.757913" lon="-0.166114">
        <ele>4.309</ele>
        <time>2022-04-24T08:08:52Z</time>
      </trkpt>
      <trkpt lat="39.757515" lon="-0.166336">
        <ele>4.215</ele>
        <time>2022-04-24T08:09:02Z</time>
      </trkpt>
      <trkpt lat="39.757228" lon="-0.166480">
        <ele>4.464</ele>
        <time>2022-04-24T08:09:12Z</time>
      </trkpt>
      <trkpt lat="39.757074" lon="-0.166594">
        <ele>4.385</ele>
        <time>2022-04-24T08:09:17Z</time>
      </trkpt>
      <trkpt lat="39.756903" lon="-0.166700">
        <ele>4.454</ele>
        <time>2022-04-24T08:09:22Z</time>
      </trkpt>
      <trkpt lat="39.756626" lon="-0.166959">
        <ele>3.681</ele>
        <time>2022-04-24T08:09:32Z</time>
      </trkpt>
      <trkpt lat="39.756391" lon="-0.167136">
        <ele>3.667</ele>
        <time>2022-04-24T08:09:42Z</time>
      </trkpt>
      <trkpt lat="39.756322" lon="-0.167216">
        <ele>2.920</ele>
        <time>2022-04-24T08:09:47Z</time>
      </trkpt>
      <trkpt lat="39.756148" lon="-0.167401">
        <ele>1.769</ele>
        <time>2022-04-24T08:09:57Z</time>
      </trkpt>
      <trkpt lat="39.756038" lon="-0.167524">
        <ele>1.856</ele>
        <time>2022-04-24T08:10:02Z</time>
      </trkpt>
      <trkpt lat="39.755922" lon="-0.167684">
        <ele>1.991</ele>
        <time>2022-04-24T08:10:12Z</time>
      </trkpt>
      <trkpt lat="39.755815" lon="-0.167794">
        <ele>1.581</ele>
        <time>2022-04-24T08:10:43Z</time>
      </trkpt>
      <trkpt lat="39.755697" lon="-0.167922">
        <ele>1.219</ele>
        <time>2022-04-24T08:10:48Z</time>
      </trkpt>
      <trkpt lat="39.755580" lon="-0.168064">
        <ele>1.309</ele>
        <time>2022-04-24T08:10:53Z</time>
      </trkpt>
      <trkpt lat="39.755307" lon="-0.168332">
        <ele>1.030</ele>
        <time>2022-04-24T08:11:03Z</time>
      </trkpt>
      <trkpt lat="39.755191" lon="-0.168450">
        <ele>1.249</ele>
        <time>2022-04-24T08:11:08Z</time>
      </trkpt>
      <trkpt lat="39.755043" lon="-0.168633">
        <ele>0.810</ele>
        <time>2022-04-24T08:11:18Z</time>
      </trkpt>
      <trkpt lat="39.754848" lon="-0.168824">
        <ele>1.019</ele>
        <time>2022-04-24T08:11:28Z</time>
      </trkpt>
      <trkpt lat="39.754779" lon="-0.168923">
        <ele>0.896</ele>
        <time>2022-04-24T08:11:33Z</time>
      </trkpt>
      <trkpt lat="39.754725" lon="-0.169009">
        <ele>1.522</ele>
        <time>2022-04-24T08:11:38Z</time>
      </trkpt>
      <trkpt lat="39.754728" lon="-0.169089">
        <ele>0.785</ele>
        <time>2022-04-24T08:11:54Z</time>
      </trkpt>
      <trkpt lat="39.754756" lon="-0.169135">
        <ele>0.734</ele>
        <time>2022-04-24T08:11:59Z</time>
      </trkpt>
      <trkpt lat="39.754782" lon="-0.169186">
        <ele>0.921</ele>
        <time>2022-04-24T08:12:04Z</time>
      </trkpt>
      <trkpt lat="39.754757" lon="-0.169244">
        <ele>0.261</ele>
        <time>2022-04-24T08:12:09Z</time>
      </trkpt>
      <trkpt lat="39.754719" lon="-0.169291">
        <ele>0.621</ele>
        <time>2022-04-24T08:12:14Z</time>
      </trkpt>
      <trkpt lat="39.754641" lon="-0.169383">
        <ele>1.013</ele>
        <time>2022-04-24T08:12:24Z</time>
      </trkpt>
      <trkpt lat="39.754552" lon="-0.169485">
        <ele>1.209</ele>
        <time>2022-04-24T08:12:34Z</time>
      </trkpt>
      <trkpt lat="39.754541" lon="-0.169485">
        <ele>1.847</ele>
        <time>2022-04-24T08:12:44Z</time>
      </trkpt>
      <trkpt lat="39.754472" lon="-0.169534">
        <ele>1.766</ele>
        <time>2022-04-24T08:12:54Z</time>
      </trkpt>
      <trkpt lat="39.754399" lon="-0.169589">
        <ele>1.957</ele>
        <time>2022-04-24T08:12:59Z</time>
      </trkpt>
      <trkpt lat="39.754300" lon="-0.169640">
        <ele>2.236</ele>
        <time>2022-04-24T08:13:04Z</time>
      </trkpt>
      <trkpt lat="39.754130" lon="-0.169719">
        <ele>1.363</ele>
        <time>2022-04-24T08:13:14Z</time>
      </trkpt>
      <trkpt lat="39.753966" lon="-0.169743">
        <ele>1.149</ele>
        <time>2022-04-24T08:13:24Z</time>
      </trkpt>
      <trkpt lat="39.753766" lon="-0.169905">
        <ele>0.682</ele>
        <time>2022-04-24T08:13:34Z</time>
      </trkpt>
      <trkpt lat="39.753620" lon="-0.170034">
        <ele>0.561</ele>
        <time>2022-04-24T08:13:39Z</time>
      </trkpt>
      <trkpt lat="39.753475" lon="-0.170188">
        <ele>0.468</ele>
        <time>2022-04-24T08:13:44Z</time>
      </trkpt>
      <trkpt lat="39.753238" lon="-0.170367">
        <ele>1.112</ele>
        <time>2022-04-24T08:13:54Z</time>
      </trkpt>
      <trkpt lat="39.753097" lon="-0.170519">
        <ele>0.932</ele>
        <time>2022-04-24T08:13:59Z</time>
      </trkpt>
      <trkpt lat="39.752976" lon="-0.170680">
        <ele>1.305</ele>
        <time>2022-04-24T08:14:04Z</time>
      </trkpt>
      <trkpt lat="39.752758" lon="-0.170889">
        <ele>0.609</ele>
        <time>2022-04-24T08:14:14Z</time>
      </trkpt>
      <trkpt lat="39.752461" lon="-0.171066">
        <ele>0.232</ele>
        <time>2022-04-24T08:14:24Z</time>
      </trkpt>
      <trkpt lat="39.752195" lon="-0.171384">
        <ele>0.221</ele>
        <time>2022-04-24T08:14:34Z</time>
      </trkpt>
      <trkpt lat="39.751903" lon="-0.171687">
        <ele>-0.182</ele>
        <time>2022-04-24T08:14:44Z</time>
      </trkpt>
      <trkpt lat="39.751609" lon="-0.171993">
        <ele>0.381</ele>
        <time>2022-04-24T08:14:54Z</time>
      </trkpt>
      <trkpt lat="39.751307" lon="-0.172267">
        <ele>1.358</ele>
        <time>2022-04-24T08:15:04Z</time>
      </trkpt>
      <trkpt lat="39.750996" lon="-0.172539">
        <ele>1.064</ele>
        <time>2022-04-24T08:15:14Z</time>
      </trkpt>
      <trkpt lat="39.750672" lon="-0.172811">
        <ele>2.297</ele>
        <time>2022-04-24T08:15:24Z</time>
      </trkpt>
      <trkpt lat="39.750332" lon="-0.173080">
        <ele>2.046</ele>
        <time>2022-04-24T08:15:34Z</time>
      </trkpt>
      <trkpt lat="39.750039" lon="-0.173286">
        <ele>2.053</ele>
        <time>2022-04-24T08:15:44Z</time>
      </trkpt>
      <trkpt lat="39.749765" lon="-0.173600">
        <ele>1.968</ele>
        <time>2022-04-24T08:15:54Z</time>
      </trkpt>
      <trkpt lat="39.749621" lon="-0.173731">
        <ele>2.542</ele>
        <time>2022-04-24T08:15:59Z</time>
      </trkpt>
      <trkpt lat="39.749338" lon="-0.173998">
        <ele>2.626</ele>
        <time>2022-04-24T08:16:09Z</time>
      </trkpt>
      <trkpt lat="39.749193" lon="-0.174149">
        <ele>2.009</ele>
        <time>2022-04-24T08:16:14Z</time>
      </trkpt>
      <trkpt lat="39.748889" lon="-0.174449">
        <ele>1.917</ele>
        <time>2022-04-24T08:16:24Z</time>
      </trkpt>
      <trkpt lat="39.748809" lon="-0.174616">
        <ele>1.986</ele>
        <time>2022-04-24T08:16:29Z</time>
      </trkpt>
      <trkpt lat="39.748623" lon="-0.174674">
        <ele>1.557</ele>
        <time>2022-04-24T08:16:39Z</time>
      </trkpt>
      <trkpt lat="39.748487" lon="-0.174488">
        <ele>1.576</ele>
        <time>2022-04-24T08:16:44Z</time>
      </trkpt>
      <trkpt lat="39.748185" lon="-0.174200">
        <ele>1.793</ele>
        <time>2022-04-24T08:16:54Z</time>
      </trkpt>
      <trkpt lat="39.748003" lon="-0.174033">
        <ele>1.329</ele>
        <time>2022-04-24T08:16:59Z</time>
      </trkpt>
      <trkpt lat="39.747636" lon="-0.173669">
        <ele>0.542</ele>
        <time>2022-04-24T08:17:09Z</time>
      </trkpt>
      <trkpt lat="39.747435" lon="-0.173495">
        <ele>0.551</ele>
        <time>2022-04-24T08:17:14Z</time>
      </trkpt>
      <trkpt lat="39.747134" lon="-0.173156">
        <ele>2.238</ele>
        <time>2022-04-24T08:17:24Z</time>
      </trkpt>
      <trkpt lat="39.747107" lon="-0.172909">
        <ele>3.444</ele>
        <time>2022-04-24T08:17:29Z</time>
      </trkpt>
      <trkpt lat="39.746834" lon="-0.172568">
        <ele>2.705</ele>
        <time>2022-04-24T08:17:39Z</time>
      </trkpt>
      <trkpt lat="39.746669" lon="-0.172582">
        <ele>3.615</ele>
        <time>2022-04-24T08:17:44Z</time>
      </trkpt>
      <trkpt lat="39.746432" lon="-0.172412">
        <ele>5.909</ele>
        <time>2022-04-24T08:17:54Z</time>
      </trkpt>
      <trkpt lat="39.746269" lon="-0.172416">
        <ele>4.745</ele>
        <time>2022-04-24T08:18:16Z</time>
      </trkpt>
      <trkpt lat="39.746169" lon="-0.172458">
        <ele>4.334</ele>
        <time>2022-04-24T08:18:21Z</time>
      </trkpt>
      <trkpt lat="39.746098" lon="-0.172563">
        <ele>4.175</ele>
        <time>2022-04-24T08:18:26Z</time>
      </trkpt>
      <trkpt lat="39.746148" lon="-0.172766">
        <ele>2.584</ele>
        <time>2022-04-24T08:18:36Z</time>
      </trkpt>
      <trkpt lat="39.746153" lon="-0.172870">
        <ele>1.561</ele>
        <time>2022-04-24T08:18:41Z</time>
      </trkpt>
      <trkpt lat="39.745958" lon="-0.172918">
        <ele>1.397</ele>
        <time>2022-04-24T08:18:51Z</time>
      </trkpt>
      <trkpt lat="39.745818" lon="-0.173047">
        <ele>1.260</ele>
        <time>2022-04-24T08:18:56Z</time>
      </trkpt>
      <trkpt lat="39.745480" lon="-0.173346">
        <ele>2.459</ele>
        <time>2022-04-24T08:19:06Z</time>
      </trkpt>
      <trkpt lat="39.745310" lon="-0.173496">
        <ele>3.076</ele>
        <time>2022-04-24T08:19:11Z</time>
      </trkpt>
      <trkpt lat="39.744967" lon="-0.173809">
        <ele>3.441</ele>
        <time>2022-04-24T08:19:21Z</time>
      </trkpt>
      <trkpt lat="39.744791" lon="-0.173966">
        <ele>4.281</ele>
        <time>2022-04-24T08:19:26Z</time>
      </trkpt>
      <trkpt lat="39.744452" lon="-0.174284">
        <ele>5.609</ele>
        <time>2022-04-24T08:19:36Z</time>
      </trkpt>
      <trkpt lat="39.744293" lon="-0.174469">
        <ele>5.909</ele>
        <time>2022-04-24T08:19:41Z</time>
      </trkpt>
      <trkpt lat="39.743969" lon="-0.174804">
        <ele>5.325</ele>
        <time>2022-04-24T08:19:51Z</time>
      </trkpt>
      <trkpt lat="39.743821" lon="-0.174960">
        <ele>5.734</ele>
        <time>2022-04-24T08:19:56Z</time>
      </trkpt>
      <trkpt lat="39.743916" lon="-0.175183">
        <ele>3.845</ele>
        <time>2022-04-24T08:20:06Z</time>
      </trkpt>
      <trkpt lat="39.744045" lon="-0.175328">
        <ele>6.514</ele>
        <time>2022-04-24T08:20:16Z</time>
      </trkpt>
      <trkpt lat="39.744073" lon="-0.175558">
        <ele>6.911</ele>
        <time>2022-04-24T08:20:26Z</time>
      </trkpt>
      <trkpt lat="39.744123" lon="-0.175436">
        <ele>4.937</ele>
        <time>2022-04-24T08:21:39Z</time>
      </trkpt>
      <trkpt lat="39.744044" lon="-0.175315">
        <ele>4.140</ele>
        <time>2022-04-24T08:21:44Z</time>
      </trkpt>
      <trkpt lat="39.743838" lon="-0.175069">
        <ele>4.989</ele>
        <time>2022-04-24T08:21:54Z</time>
      </trkpt>
      <trkpt lat="39.743685" lon="-0.175102">
        <ele>3.756</ele>
        <time>2022-04-24T08:21:59Z</time>
      </trkpt>
      <trkpt lat="39.743357" lon="-0.175431">
        <ele>3.133</ele>
        <time>2022-04-24T08:22:09Z</time>
      </trkpt>
      <trkpt lat="39.743187" lon="-0.175599">
        <ele>3.123</ele>
        <time>2022-04-24T08:22:14Z</time>
      </trkpt>
      <trkpt lat="39.742868" lon="-0.175905">
        <ele>2.115</ele>
        <time>2022-04-24T08:22:24Z</time>
      </trkpt>
      <trkpt lat="39.742542" lon="-0.176213">
        <ele>2.209</ele>
        <time>2022-04-24T08:22:34Z</time>
      </trkpt>
      <trkpt lat="39.742377" lon="-0.176397">
        <ele>2.054</ele>
        <time>2022-04-24T08:22:39Z</time>
      </trkpt>
      <trkpt lat="39.742200" lon="-0.176588">
        <ele>2.293</ele>
        <time>2022-04-24T08:22:44Z</time>
      </trkpt>
      <trkpt lat="39.741843" lon="-0.176921">
        <ele>2.074</ele>
        <time>2022-04-24T08:22:54Z</time>
      </trkpt>
      <trkpt lat="39.741680" lon="-0.177100">
        <ele>2.623</ele>
        <time>2022-04-24T08:22:59Z</time>
      </trkpt>
      <trkpt lat="39.741320" lon="-0.177451">
        <ele>2.460</ele>
        <time>2022-04-24T08:23:09Z</time>
      </trkpt>
      <trkpt lat="39.741131" lon="-0.177636">
        <ele>2.396</ele>
        <time>2022-04-24T08:23:14Z</time>
      </trkpt>
      <trkpt lat="39.740768" lon="-0.177994">
        <ele>2.179</ele>
        <time>2022-04-24T08:23:24Z</time>
      </trkpt>
      <trkpt lat="39.740596" lon="-0.178157">
        <ele>2.098</ele>
        <time>2022-04-24T08:23:29Z</time>
      </trkpt>
      <trkpt lat="39.740434" lon="-0.178310">
        <ele>2.755</ele>
        <time>2022-04-24T08:23:34Z</time>
      </trkpt>
      <trkpt lat="39.740079" lon="-0.178631">
        <ele>2.477</ele>
        <time>2022-04-24T08:23:44Z</time>
      </trkpt>
      <trkpt lat="39.739713" lon="-0.178922">
        <ele>1.461</ele>
        <time>2022-04-24T08:23:54Z</time>
      </trkpt>
      <trkpt lat="39.739346" lon="-0.179211">
        <ele>2.027</ele>
        <time>2022-04-24T08:24:04Z</time>
      </trkpt>
      <trkpt lat="39.738959" lon="-0.179509">
        <ele>1.109</ele>
        <time>2022-04-24T08:24:14Z</time>
      </trkpt>
      <trkpt lat="39.738600" lon="-0.179823">
        <ele>1.118</ele>
        <time>2022-04-24T08:24:24Z</time>
      </trkpt>
      <trkpt lat="39.738448" lon="-0.179945">
        <ele>1.287</ele>
        <time>2022-04-24T08:24:29Z</time>
      </trkpt>
      <trkpt lat="39.738333" lon="-0.180028">
        <ele>1.488</ele>
        <time>2022-04-24T08:24:34Z</time>
      </trkpt>
      <trkpt lat="39.738080" lon="-0.180259">
        <ele>1.487</ele>
        <time>2022-04-24T08:24:44Z</time>
      </trkpt>
      <trkpt lat="39.737837" lon="-0.180408">
        <ele>1.254</ele>
        <time>2022-04-24T08:24:54Z</time>
      </trkpt>
      <trkpt lat="39.737784" lon="-0.180566">
        <ele>1.940</ele>
        <time>2022-04-24T08:24:59Z</time>
      </trkpt>
      <trkpt lat="39.737484" lon="-0.180800">
        <ele>0.873</ele>
        <time>2022-04-24T08:25:09Z</time>
      </trkpt>
      <trkpt lat="39.737295" lon="-0.180940">
        <ele>0.572</ele>
        <time>2022-04-24T08:25:14Z</time>
      </trkpt>
      <trkpt lat="39.736908" lon="-0.181248">
        <ele>1.499</ele>
        <time>2022-04-24T08:25:24Z</time>
      </trkpt>
      <trkpt lat="39.736699" lon="-0.181410">
        <ele>1.998</ele>
        <time>2022-04-24T08:25:29Z</time>
      </trkpt>
      <trkpt lat="39.736513" lon="-0.181555">
        <ele>2.115</ele>
        <time>2022-04-24T08:25:34Z</time>
      </trkpt>
      <trkpt lat="39.736323" lon="-0.181697">
        <ele>1.826</ele>
        <time>2022-04-24T08:25:39Z</time>
      </trkpt>
      <trkpt lat="39.736121" lon="-0.181860">
        <ele>1.809</ele>
        <time>2022-04-24T08:25:44Z</time>
      </trkpt>
      <trkpt lat="39.735806" lon="-0.181894">
        <ele>1.420</ele>
        <time>2022-04-24T08:25:54Z</time>
      </trkpt>
      <trkpt lat="39.735455" lon="-0.182190">
        <ele>1.229</ele>
        <time>2022-04-24T08:26:04Z</time>
      </trkpt>
      <trkpt lat="39.735159" lon="-0.182401">
        <ele>0.990</ele>
        <time>2022-04-24T08:26:14Z</time>
      </trkpt>
      <trkpt lat="39.735158" lon="-0.182385">
        <ele>0.449</ele>
        <time>2022-04-24T08:26:32Z</time>
      </trkpt>
      <trkpt lat="39.734846" lon="-0.182481">
        <ele>1.336</ele>
        <time>2022-04-24T08:26:42Z</time>
      </trkpt>
      <trkpt lat="39.734536" lon="-0.182888">
        <ele>0.912</ele>
        <time>2022-04-24T08:26:52Z</time>
      </trkpt>
      <trkpt lat="39.734230" lon="-0.183276">
        <ele>1.285</ele>
        <time>2022-04-24T08:27:02Z</time>
      </trkpt>
      <trkpt lat="39.733826" lon="-0.183293">
        <ele>-0.294</ele>
        <time>2022-04-24T08:27:12Z</time>
      </trkpt>
      <trkpt lat="39.733617" lon="-0.183426">
        <ele>0.411</ele>
        <time>2022-04-24T08:27:17Z</time>
      </trkpt>
      <trkpt lat="39.733402" lon="-0.183473">
        <ele>0.996</ele>
        <time>2022-04-24T08:27:22Z</time>
      </trkpt>
      <trkpt lat="39.733116" lon="-0.183691">
        <ele>1.031</ele>
        <time>2022-04-24T08:27:32Z</time>
      </trkpt>
      <trkpt lat="39.732799" lon="-0.184063">
        <ele>1.624</ele>
        <time>2022-04-24T08:27:42Z</time>
      </trkpt>
      <trkpt lat="39.732384" lon="-0.184290">
        <ele>1.409</ele>
        <time>2022-04-24T08:27:52Z</time>
      </trkpt>
      <trkpt lat="39.732179" lon="-0.184424">
        <ele>1.950</ele>
        <time>2022-04-24T08:27:57Z</time>
      </trkpt>
      <trkpt lat="39.731981" lon="-0.184533">
        <ele>1.939</ele>
        <time>2022-04-24T08:28:02Z</time>
      </trkpt>
      <trkpt lat="39.731546" lon="-0.184545">
        <ele>0.960</ele>
        <time>2022-04-24T08:28:12Z</time>
      </trkpt>
      <trkpt lat="39.731324" lon="-0.184683">
        <ele>1.099</ele>
        <time>2022-04-24T08:28:17Z</time>
      </trkpt>
      <trkpt lat="39.730909" lon="-0.184987">
        <ele>1.846</ele>
        <time>2022-04-24T08:28:27Z</time>
      </trkpt>
      <trkpt lat="39.730689" lon="-0.185086">
        <ele>1.732</ele>
        <time>2022-04-24T08:28:32Z</time>
      </trkpt>
      <trkpt lat="39.730271" lon="-0.185298">
        <ele>0.945</ele>
        <time>2022-04-24T08:28:42Z</time>
      </trkpt>
      <trkpt lat="39.730102" lon="-0.185451">
        <ele>0.444</ele>
        <time>2022-04-24T08:28:47Z</time>
      </trkpt>
      <trkpt lat="39.729902" lon="-0.185579">
        <ele>0.951</ele>
        <time>2022-04-24T08:28:52Z</time>
      </trkpt>
      <trkpt lat="39.729693" lon="-0.185648">
        <ele>0.837</ele>
        <time>2022-04-24T08:28:57Z</time>
      </trkpt>
      <trkpt lat="39.729460" lon="-0.185713">
        <ele>0.649</ele>
        <time>2022-04-24T08:29:02Z</time>
      </trkpt>
      <trkpt lat="39.729110" lon="-0.186066">
        <ele>0.413</ele>
        <time>2022-04-24T08:29:12Z</time>
      </trkpt>
      <trkpt lat="39.729033" lon="-0.186331">
        <ele>0.709</ele>
        <time>2022-04-24T08:29:17Z</time>
      </trkpt>
      <trkpt lat="39.728917" lon="-0.186512">
        <ele>0.684</ele>
        <time>2022-04-24T08:29:22Z</time>
      </trkpt>
      <trkpt lat="39.728498" lon="-0.186765">
        <ele>0.893</ele>
        <time>2022-04-24T08:29:32Z</time>
      </trkpt>
      <trkpt lat="39.728090" lon="-0.186796">
        <ele>1.194</ele>
        <time>2022-04-24T08:29:42Z</time>
      </trkpt>
      <trkpt lat="39.727601" lon="-0.186821">
        <ele>1.243</ele>
        <time>2022-04-24T08:29:52Z</time>
      </trkpt>
      <trkpt lat="39.727366" lon="-0.186934">
        <ele>0.770</ele>
        <time>2022-04-24T08:29:57Z</time>
      </trkpt>
      <trkpt lat="39.727133" lon="-0.187030">
        <ele>0.756</ele>
        <time>2022-04-24T08:30:02Z</time>
      </trkpt>
      <trkpt lat="39.726685" lon="-0.187210">
        <ele>0.129</ele>
        <time>2022-04-24T08:30:12Z</time>
      </trkpt>
      <trkpt lat="39.726226" lon="-0.187410">
        <ele>-0.348</ele>
        <time>2022-04-24T08:30:22Z</time>
      </trkpt>
      <trkpt lat="39.725996" lon="-0.187521">
        <ele>-0.215</ele>
        <time>2022-04-24T08:30:27Z</time>
      </trkpt>
      <trkpt lat="39.725764" lon="-0.187632">
        <ele>-0.681</ele>
        <time>2022-04-24T08:30:32Z</time>
      </trkpt>
      <trkpt lat="39.725302" lon="-0.187803">
        <ele>-0.461</ele>
        <time>2022-04-24T08:30:42Z</time>
      </trkpt>
      <trkpt lat="39.725073" lon="-0.187922">
        <ele>0.317</ele>
        <time>2022-04-24T08:30:47Z</time>
      </trkpt>
      <trkpt lat="39.724619" lon="-0.188169">
        <ele>0.409</ele>
        <time>2022-04-24T08:30:57Z</time>
      </trkpt>
      <trkpt lat="39.724405" lon="-0.188338">
        <ele>0.259</ele>
        <time>2022-04-24T08:31:02Z</time>
      </trkpt>
      <trkpt lat="39.723943" lon="-0.188511">
        <ele>-0.478</ele>
        <time>2022-04-24T08:31:12Z</time>
      </trkpt>
      <trkpt lat="39.723513" lon="-0.188695">
        <ele>-1.129</ele>
        <time>2022-04-24T08:31:22Z</time>
      </trkpt>
      <trkpt lat="39.723332" lon="-0.188762">
        <ele>-1.158</ele>
        <time>2022-04-24T08:31:27Z</time>
      </trkpt>
      <trkpt lat="39.723178" lon="-0.188809">
        <ele>-0.115</ele>
        <time>2022-04-24T08:31:32Z</time>
      </trkpt>
      <trkpt lat="39.722922" lon="-0.188579">
        <ele>1.061</ele>
        <time>2022-04-24T08:31:42Z</time>
      </trkpt>
      <trkpt lat="39.722530" lon="-0.188764">
        <ele>0.614</ele>
        <time>2022-04-24T08:31:52Z</time>
      </trkpt>
      <trkpt lat="39.722405" lon="-0.188803">
        <ele>0.493</ele>
        <time>2022-04-24T08:31:57Z</time>
      </trkpt>
      <trkpt lat="39.722323" lon="-0.188821">
        <ele>0.510</ele>
        <time>2022-04-24T08:32:02Z</time>
      </trkpt>
      <trkpt lat="39.722225" lon="-0.188711">
        <ele>1.742</ele>
        <time>2022-04-24T08:32:12Z</time>
      </trkpt>
      <trkpt lat="39.722291" lon="-0.188742">
        <ele>1.022</ele>
        <time>2022-04-24T08:32:22Z</time>
      </trkpt>
      <trkpt lat="39.722218" lon="-0.188926">
        <ele>0.614</ele>
        <time>2022-04-24T08:32:32Z</time>
      </trkpt>
      <trkpt lat="39.722230" lon="-0.188895">
        <ele>2.209</ele>
        <time>2022-04-24T08:32:46Z</time>
      </trkpt>
      <trkpt lat="39.722361" lon="-0.188961">
        <ele>1.515</ele>
        <time>2022-04-24T08:32:56Z</time>
      </trkpt>
      <trkpt lat="39.722357" lon="-0.189324">
        <ele>2.134</ele>
        <time>2022-04-24T08:33:06Z</time>
      </trkpt>
      <trkpt lat="39.722494" lon="-0.189480">
        <ele>1.635</ele>
        <time>2022-04-24T08:33:16Z</time>
      </trkpt>
      <trkpt lat="39.722555" lon="-0.189717">
        <ele>1.184</ele>
        <time>2022-04-24T08:33:26Z</time>
      </trkpt>
      <trkpt lat="39.722625" lon="-0.190073">
        <ele>1.561</ele>
        <time>2022-04-24T08:33:36Z</time>
      </trkpt>
      <trkpt lat="39.722805" lon="-0.190484">
        <ele>1.747</ele>
        <time>2022-04-24T08:33:46Z</time>
      </trkpt>
      <trkpt lat="39.722878" lon="-0.190706">
        <ele>2.080</ele>
        <time>2022-04-24T08:33:51Z</time>
      </trkpt>
      <trkpt lat="39.722950" lon="-0.190915">
        <ele>1.979</ele>
        <time>2022-04-24T08:33:56Z</time>
      </trkpt>
      <trkpt lat="39.723212" lon="-0.191131">
        <ele>1.666</ele>
        <time>2022-04-24T08:34:06Z</time>
      </trkpt>
      <trkpt lat="39.723356" lon="-0.191020">
        <ele>2.937</ele>
        <time>2022-04-24T08:34:11Z</time>
      </trkpt>
      <trkpt lat="39.723510" lon="-0.190953">
        <ele>3.849</ele>
        <time>2022-04-24T08:34:16Z</time>
      </trkpt>
      <trkpt lat="39.723625" lon="-0.191130">
        <ele>4.413</ele>
        <time>2022-04-24T08:34:21Z</time>
      </trkpt>
      <trkpt lat="39.723569" lon="-0.191405">
        <ele>3.809</ele>
        <time>2022-04-24T08:34:26Z</time>
      </trkpt>
      <trkpt lat="39.723323" lon="-0.191769">
        <ele>1.154</ele>
        <time>2022-04-24T08:34:36Z</time>
      </trkpt>
      <trkpt lat="39.723127" lon="-0.191870">
        <ele>0.423</ele>
        <time>2022-04-24T08:34:41Z</time>
      </trkpt>
      <trkpt lat="39.722714" lon="-0.192042">
        <ele>1.084</ele>
        <time>2022-04-24T08:34:51Z</time>
      </trkpt>
      <trkpt lat="39.722509" lon="-0.192118">
        <ele>1.573</ele>
        <time>2022-04-24T08:34:56Z</time>
      </trkpt>
      <trkpt lat="39.722066" lon="-0.192282">
        <ele>2.340</ele>
        <time>2022-04-24T08:35:06Z</time>
      </trkpt>
      <trkpt lat="39.721596" lon="-0.192454">
        <ele>1.916</ele>
        <time>2022-04-24T08:35:16Z</time>
      </trkpt>
      <trkpt lat="39.721376" lon="-0.192607">
        <ele>1.249</ele>
        <time>2022-04-24T08:35:21Z</time>
      </trkpt>
      <trkpt lat="39.721243" lon="-0.192885">
        <ele>1.418</ele>
        <time>2022-04-24T08:35:26Z</time>
      </trkpt>
      <trkpt lat="39.720971" lon="-0.193412">
        <ele>1.655</ele>
        <time>2022-04-24T08:35:36Z</time>
      </trkpt>
      <trkpt lat="39.720813" lon="-0.193661">
        <ele>0.614</ele>
        <time>2022-04-24T08:35:41Z</time>
      </trkpt>
      <trkpt lat="39.720354" lon="-0.193923">
        <ele>-0.954</ele>
        <time>2022-04-24T08:35:51Z</time>
      </trkpt>
      <trkpt lat="39.720108" lon="-0.194009">
        <ele>-0.609</ele>
        <time>2022-04-24T08:35:56Z</time>
      </trkpt>
      <trkpt lat="39.719625" lon="-0.194149">
        <ele>0.809</ele>
        <time>2022-04-24T08:36:06Z</time>
      </trkpt>
      <trkpt lat="39.719171" lon="-0.194319">
        <ele>0.152</ele>
        <time>2022-04-24T08:36:16Z</time>
      </trkpt>
      <trkpt lat="39.718702" lon="-0.194494">
        <ele>-1.621</ele>
        <time>2022-04-24T08:36:26Z</time>
      </trkpt>
      <trkpt lat="39.718240" lon="-0.194691">
        <ele>-2.242</ele>
        <time>2022-04-24T08:36:36Z</time>
      </trkpt>
      <trkpt lat="39.718006" lon="-0.194783">
        <ele>-1.481</ele>
        <time>2022-04-24T08:36:41Z</time>
      </trkpt>
      <trkpt lat="39.717778" lon="-0.194879">
        <ele>-1.588</ele>
        <time>2022-04-24T08:36:46Z</time>
      </trkpt>
      <trkpt lat="39.717306" lon="-0.195055">
        <ele>-1.914</ele>
        <time>2022-04-24T08:36:56Z</time>
      </trkpt>
      <trkpt lat="39.716825" lon="-0.195235">
        <ele>-0.157</ele>
        <time>2022-04-24T08:37:06Z</time>
      </trkpt>
      <trkpt lat="39.716578" lon="-0.195334">
        <ele>0.366</ele>
        <time>2022-04-24T08:37:11Z</time>
      </trkpt>
      <trkpt lat="39.716094" lon="-0.195509">
        <ele>2.493</ele>
        <time>2022-04-24T08:37:21Z</time>
      </trkpt>
      <trkpt lat="39.715861" lon="-0.195597">
        <ele>1.945</ele>
        <time>2022-04-24T08:37:26Z</time>
      </trkpt>
      <trkpt lat="39.715396" lon="-0.195787">
        <ele>1.847</ele>
        <time>2022-04-24T08:37:36Z</time>
      </trkpt>
      <trkpt lat="39.715159" lon="-0.195879">
        <ele>2.411</ele>
        <time>2022-04-24T08:37:41Z</time>
      </trkpt>
      <trkpt lat="39.714921" lon="-0.195975">
        <ele>2.509</ele>
        <time>2022-04-24T08:37:46Z</time>
      </trkpt>
      <trkpt lat="39.714675" lon="-0.196071">
        <ele>2.465</ele>
        <time>2022-04-24T08:37:51Z</time>
      </trkpt>
      <trkpt lat="39.714428" lon="-0.196166">
        <ele>1.444</ele>
        <time>2022-04-24T08:37:56Z</time>
      </trkpt>
      <trkpt lat="39.713947" lon="-0.196368">
        <ele>0.195</ele>
        <time>2022-04-24T08:38:06Z</time>
      </trkpt>
      <trkpt lat="39.713834" lon="-0.196893">
        <ele>0.684</ele>
        <time>2022-04-24T08:38:16Z</time>
      </trkpt>
      <trkpt lat="39.713989" lon="-0.197502">
        <ele>-0.631</ele>
        <time>2022-04-24T08:38:26Z</time>
      </trkpt>
      <trkpt lat="39.713856" lon="-0.197926">
        <ele>-1.557</ele>
        <time>2022-04-24T08:38:36Z</time>
      </trkpt>
      <trkpt lat="39.713457" lon="-0.198226">
        <ele>-1.920</ele>
        <time>2022-04-24T08:38:46Z</time>
      </trkpt>
      <trkpt lat="39.713342" lon="-0.198475">
        <ele>-1.149</ele>
        <time>2022-04-24T08:38:51Z</time>
      </trkpt>
      <trkpt lat="39.713384" lon="-0.198794">
        <ele>-1.176</ele>
        <time>2022-04-24T08:38:56Z</time>
      </trkpt>
      <trkpt lat="39.713214" lon="-0.199289">
        <ele>-0.235</ele>
        <time>2022-04-24T08:39:06Z</time>
      </trkpt>
      <trkpt lat="39.712963" lon="-0.199367">
        <ele>1.086</ele>
        <time>2022-04-24T08:39:11Z</time>
      </trkpt>
      <trkpt lat="39.712472" lon="-0.199542">
        <ele>0.914</ele>
        <time>2022-04-24T08:39:21Z</time>
      </trkpt>
      <trkpt lat="39.712227" lon="-0.199628">
        <ele>0.409</ele>
        <time>2022-04-24T08:39:26Z</time>
      </trkpt>
      <trkpt lat="39.711766" lon="-0.199846">
        <ele>1.554</ele>
        <time>2022-04-24T08:39:36Z</time>
      </trkpt>
      <trkpt lat="39.711324" lon="-0.199961">
        <ele>0.833</ele>
        <time>2022-04-24T08:39:46Z</time>
      </trkpt>
      <trkpt lat="39.710831" lon="-0.200138">
        <ele>-0.224</ele>
        <time>2022-04-24T08:39:56Z</time>
      </trkpt>
      <trkpt lat="39.710356" lon="-0.200328">
        <ele>0.413</ele>
        <time>2022-04-24T08:40:06Z</time>
      </trkpt>
      <trkpt lat="39.709882" lon="-0.200503">
        <ele>1.360</ele>
        <time>2022-04-24T08:40:16Z</time>
      </trkpt>
      <trkpt lat="39.709646" lon="-0.200590">
        <ele>0.196</ele>
        <time>2022-04-24T08:40:21Z</time>
      </trkpt>
      <trkpt lat="39.709404" lon="-0.200679">
        <ele>0.269</ele>
        <time>2022-04-24T08:40:26Z</time>
      </trkpt>
      <trkpt lat="39.708906" lon="-0.200851">
        <ele>0.198</ele>
        <time>2022-04-24T08:40:36Z</time>
      </trkpt>
      <trkpt lat="39.708657" lon="-0.200939">
        <ele>-0.115</ele>
        <time>2022-04-24T08:40:41Z</time>
      </trkpt>
      <trkpt lat="39.708189" lon="-0.200998">
        <ele>-0.265</ele>
        <time>2022-04-24T08:40:51Z</time>
      </trkpt>
      <trkpt lat="39.707997" lon="-0.200996">
        <ele>-0.668</ele>
        <time>2022-04-24T08:40:56Z</time>
      </trkpt>
      <trkpt lat="39.707546" lon="-0.201161">
        <ele>-0.914</ele>
        <time>2022-04-24T08:41:06Z</time>
      </trkpt>
      <trkpt lat="39.707317" lon="-0.201239">
        <ele>-1.309</ele>
        <time>2022-04-24T08:41:11Z</time>
      </trkpt>
      <trkpt lat="39.707081" lon="-0.201321">
        <ele>-1.397</ele>
        <time>2022-04-24T08:41:16Z</time>
      </trkpt>
      <trkpt lat="39.706594" lon="-0.201494">
        <ele>-1.746</ele>
        <time>2022-04-24T08:41:26Z</time>
      </trkpt>
      <trkpt lat="39.706109" lon="-0.201700">
        <ele>-1.127</ele>
        <time>2022-04-24T08:41:36Z</time>
      </trkpt>
      <trkpt lat="39.705714" lon="-0.201864">
        <ele>-1.076</ele>
        <time>2022-04-24T08:41:46Z</time>
      </trkpt>
      <trkpt lat="39.705328" lon="-0.202035">
        <ele>-0.923</ele>
        <time>2022-04-24T08:41:56Z</time>
      </trkpt>
      <trkpt lat="39.704874" lon="-0.202199">
        <ele>-0.559</ele>
        <time>2022-04-24T08:42:06Z</time>
      </trkpt>
      <trkpt lat="39.704431" lon="-0.202381">
        <ele>-0.982</ele>
        <time>2022-04-24T08:42:16Z</time>
      </trkpt>
      <trkpt lat="39.704212" lon="-0.202471">
        <ele>-0.951</ele>
        <time>2022-04-24T08:42:21Z</time>
      </trkpt>
      <trkpt lat="39.703986" lon="-0.202560">
        <ele>-0.558</ele>
        <time>2022-04-24T08:42:26Z</time>
      </trkpt>
      <trkpt lat="39.703509" lon="-0.202738">
        <ele>-0.211</ele>
        <time>2022-04-24T08:42:36Z</time>
      </trkpt>
      <trkpt lat="39.703041" lon="-0.202903">
        <ele>-0.521</ele>
        <time>2022-04-24T08:42:46Z</time>
      </trkpt>
      <trkpt lat="39.702588" lon="-0.203070">
        <ele>-1.403</ele>
        <time>2022-04-24T08:42:56Z</time>
      </trkpt>
      <trkpt lat="39.702114" lon="-0.203231">
        <ele>-1.909</ele>
        <time>2022-04-24T08:43:06Z</time>
      </trkpt>
      <trkpt lat="39.701878" lon="-0.203301">
        <ele>-1.932</ele>
        <time>2022-04-24T08:43:11Z</time>
      </trkpt>
      <trkpt lat="39.701426" lon="-0.203410">
        <ele>-0.821</ele>
        <time>2022-04-24T08:43:21Z</time>
      </trkpt>
      <trkpt lat="39.701190" lon="-0.203443">
        <ele>0.252</ele>
        <time>2022-04-24T08:43:26Z</time>
      </trkpt>
      <trkpt lat="39.700764" lon="-0.203490">
        <ele>0.841</ele>
        <time>2022-04-24T08:43:36Z</time>
      </trkpt>
      <trkpt lat="39.700279" lon="-0.203527">
        <ele>1.698</ele>
        <time>2022-04-24T08:43:46Z</time>
      </trkpt>
      <trkpt lat="39.700052" lon="-0.203541">
        <ele>1.144</ele>
        <time>2022-04-24T08:43:51Z</time>
      </trkpt>
      <trkpt lat="39.699845" lon="-0.203542">
        <ele>0.297</ele>
        <time>2022-04-24T08:43:56Z</time>
      </trkpt>
      <trkpt lat="39.699383" lon="-0.203551">
        <ele>-1.266</ele>
        <time>2022-04-24T08:44:06Z</time>
      </trkpt>
      <trkpt lat="39.698910" lon="-0.203524">
        <ele>-1.793</ele>
        <time>2022-04-24T08:44:16Z</time>
      </trkpt>
      <trkpt lat="39.698443" lon="-0.203522">
        <ele>-3.961</ele>
        <time>2022-04-24T08:44:26Z</time>
      </trkpt>
      <trkpt lat="39.697990" lon="-0.203642">
        <ele>-1.221</ele>
        <time>2022-04-24T08:44:36Z</time>
      </trkpt>
      <trkpt lat="39.697611" lon="-0.203744">
        <ele>1.213</ele>
        <time>2022-04-24T08:44:46Z</time>
      </trkpt>
      <trkpt lat="39.697427" lon="-0.203787">
        <ele>1.209</ele>
        <time>2022-04-24T08:44:51Z</time>
      </trkpt>
      <trkpt lat="39.697326" lon="-0.203806">
        <ele>1.437</ele>
        <time>2022-04-24T08:44:56Z</time>
      </trkpt>
      <trkpt lat="39.697259" lon="-0.203691">
        <ele>-1.196</ele>
        <time>2022-04-24T08:45:06Z</time>
      </trkpt>
      <trkpt lat="39.697074" lon="-0.203901">
        <ele>-1.877</ele>
        <time>2022-04-24T08:45:16Z</time>
      </trkpt>
      <trkpt lat="39.696910" lon="-0.203955">
        <ele>-2.436</ele>
        <time>2022-04-24T08:45:21Z</time>
      </trkpt>
      <trkpt lat="39.696699" lon="-0.204012">
        <ele>-4.763</ele>
        <time>2022-04-24T08:45:26Z</time>
      </trkpt>
      <trkpt lat="39.696261" lon="-0.204145">
        <ele>-3.819</ele>
        <time>2022-04-24T08:45:36Z</time>
      </trkpt>
      <trkpt lat="39.695792" lon="-0.204288">
        <ele>-2.162</ele>
        <time>2022-04-24T08:45:46Z</time>
      </trkpt>
      <trkpt lat="39.695335" lon="-0.204427">
        <ele>-1.531</ele>
        <time>2022-04-24T08:45:56Z</time>
      </trkpt>
      <trkpt lat="39.694920" lon="-0.204614">
        <ele>-3.388</ele>
        <time>2022-04-24T08:46:06Z</time>
      </trkpt>
      <trkpt lat="39.694707" lon="-0.204725">
        <ele>-4.515</ele>
        <time>2022-04-24T08:46:11Z</time>
      </trkpt>
      <trkpt lat="39.694269" lon="-0.204942">
        <ele>-5.665</ele>
        <time>2022-04-24T08:46:21Z</time>
      </trkpt>
      <trkpt lat="39.694072" lon="-0.205047">
        <ele>-5.011</ele>
        <time>2022-04-24T08:46:26Z</time>
      </trkpt>
      <trkpt lat="39.693696" lon="-0.205253">
        <ele>-3.209</ele>
        <time>2022-04-24T08:46:36Z</time>
      </trkpt>
      <trkpt lat="39.693474" lon="-0.205360">
        <ele>-3.412</ele>
        <time>2022-04-24T08:46:41Z</time>
      </trkpt>
      <trkpt lat="39.693252" lon="-0.205461">
        <ele>-2.941</ele>
        <time>2022-04-24T08:46:46Z</time>
      </trkpt>
      <trkpt lat="39.692870" lon="-0.205627">
        <ele>-2.822</ele>
        <time>2022-04-24T08:46:56Z</time>
      </trkpt>
      <trkpt lat="39.692584" lon="-0.205950">
        <ele>-2.341</ele>
        <time>2022-04-24T08:47:06Z</time>
      </trkpt>
      <trkpt lat="39.692100" lon="-0.206074">
        <ele>-2.698</ele>
        <time>2022-04-24T08:47:16Z</time>
      </trkpt>
      <trkpt lat="39.691627" lon="-0.206242">
        <ele>0.174</ele>
        <time>2022-04-24T08:47:26Z</time>
      </trkpt>
      <trkpt lat="39.691157" lon="-0.206401">
        <ele>0.377</ele>
        <time>2022-04-24T08:47:36Z</time>
      </trkpt>
      <trkpt lat="39.690674" lon="-0.206576">
        <ele>3.596</ele>
        <time>2022-04-24T08:47:46Z</time>
      </trkpt>
      <trkpt lat="39.690433" lon="-0.206663">
        <ele>2.863</ele>
        <time>2022-04-24T08:47:51Z</time>
      </trkpt>
      <trkpt lat="39.690185" lon="-0.206748">
        <ele>4.139</ele>
        <time>2022-04-24T08:47:56Z</time>
      </trkpt>
      <trkpt lat="39.689702" lon="-0.206932">
        <ele>3.701</ele>
        <time>2022-04-24T08:48:06Z</time>
      </trkpt>
      <trkpt lat="39.689209" lon="-0.207103">
        <ele>4.221</ele>
        <time>2022-04-24T08:48:16Z</time>
      </trkpt>
      <trkpt lat="39.688727" lon="-0.207278">
        <ele>3.909</ele>
        <time>2022-04-24T08:48:26Z</time>
      </trkpt>
      <trkpt lat="39.688256" lon="-0.207448">
        <ele>6.084</ele>
        <time>2022-04-24T08:48:36Z</time>
      </trkpt>
      <trkpt lat="39.687825" lon="-0.207619">
        <ele>6.023</ele>
        <time>2022-04-24T08:48:46Z</time>
      </trkpt>
      <trkpt lat="39.687617" lon="-0.207690">
        <ele>5.574</ele>
        <time>2022-04-24T08:48:51Z</time>
      </trkpt>
      <trkpt lat="39.687429" lon="-0.207762">
        <ele>5.353</ele>
        <time>2022-04-24T08:48:56Z</time>
      </trkpt>
      <trkpt lat="39.687111" lon="-0.207868">
        <ele>5.790</ele>
        <time>2022-04-24T08:49:06Z</time>
      </trkpt>
      <trkpt lat="39.686970" lon="-0.207967">
        <ele>7.036</ele>
        <time>2022-04-24T08:49:11Z</time>
      </trkpt>
      <trkpt lat="39.686939" lon="-0.208311">
        <ele>14.049</ele>
        <time>2022-04-24T08:49:21Z</time>
      </trkpt>
      <trkpt lat="39.686996" lon="-0.208564">
        <ele>14.128</ele>
        <time>2022-04-24T08:49:26Z</time>
      </trkpt>
      <trkpt lat="39.686971" lon="-0.208987">
        <ele>11.975</ele>
        <time>2022-04-24T08:49:36Z</time>
      </trkpt>
      <trkpt lat="39.686791" lon="-0.209070">
        <ele>10.482</ele>
        <time>2022-04-24T08:49:41Z</time>
      </trkpt>
      <trkpt lat="39.686588" lon="-0.209167">
        <ele>10.143</ele>
        <time>2022-04-24T08:49:46Z</time>
      </trkpt>
      <trkpt lat="39.686163" lon="-0.209362">
        <ele>13.517</ele>
        <time>2022-04-24T08:49:56Z</time>
      </trkpt>
      <trkpt lat="39.685822" lon="-0.209568">
        <ele>14.909</ele>
        <time>2022-04-24T08:50:06Z</time>
      </trkpt>
      <trkpt lat="39.685534" lon="-0.209572">
        <ele>17.129</ele>
        <time>2022-04-24T08:50:16Z</time>
      </trkpt>
      <trkpt lat="39.685515" lon="-0.209266">
        <ele>14.548</ele>
        <time>2022-04-24T08:50:21Z</time>
      </trkpt>
      <trkpt lat="39.685477" lon="-0.208949">
        <ele>11.469</ele>
        <time>2022-04-24T08:50:26Z</time>
      </trkpt>
      <trkpt lat="39.685356" lon="-0.208302">
        <ele>6.088</ele>
        <time>2022-04-24T08:50:36Z</time>
      </trkpt>
      <trkpt lat="39.685216" lon="-0.207668">
        <ele>6.595</ele>
        <time>2022-04-24T08:50:46Z</time>
      </trkpt>
      <trkpt lat="39.685133" lon="-0.207359">
        <ele>6.041</ele>
        <time>2022-04-24T08:50:51Z</time>
      </trkpt>
      <trkpt lat="39.685112" lon="-0.207015">
        <ele>5.584</ele>
        <time>2022-04-24T08:50:56Z</time>
      </trkpt>
      <trkpt lat="39.684987" lon="-0.206379">
        <ele>3.563</ele>
        <time>2022-04-24T08:51:06Z</time>
      </trkpt>
      <trkpt lat="39.684876" lon="-0.205867">
        <ele>1.980</ele>
        <time>2022-04-24T08:51:16Z</time>
      </trkpt>
      <trkpt lat="39.684786" lon="-0.205279">
        <ele>0.862</ele>
        <time>2022-04-24T08:51:26Z</time>
      </trkpt>
      <trkpt lat="39.684742" lon="-0.204683">
        <ele>0.583</ele>
        <time>2022-04-24T08:51:36Z</time>
      </trkpt>
      <trkpt lat="39.684759" lon="-0.204223">
        <ele>1.211</ele>
        <time>2022-04-24T08:51:46Z</time>
      </trkpt>
      <trkpt lat="39.684756" lon="-0.204021">
        <ele>0.709</ele>
        <time>2022-04-24T08:51:56Z</time>
      </trkpt>
      <trkpt lat="39.684773" lon="-0.204022">
        <ele>1.477</ele>
        <time>2022-04-24T08:52:04Z</time>
      </trkpt>
      <trkpt lat="39.684764" lon="-0.204154">
        <ele>1.776</ele>
        <time>2022-04-24T08:52:09Z</time>
      </trkpt>
      <trkpt lat="39.684719" lon="-0.204404">
        <ele>3.157</ele>
        <time>2022-04-24T08:52:14Z</time>
      </trkpt>
      <trkpt lat="39.684734" lon="-0.204964">
        <ele>4.216</ele>
        <time>2022-04-24T08:52:24Z</time>
      </trkpt>
      <trkpt lat="39.684766" lon="-0.205254">
        <ele>4.733</ele>
        <time>2022-04-24T08:52:29Z</time>
      </trkpt>
      <trkpt lat="39.684802" lon="-0.205766">
        <ele>3.419</ele>
        <time>2022-04-24T08:52:39Z</time>
      </trkpt>
      <trkpt lat="39.684648" lon="-0.205891">
        <ele>3.552</ele>
        <time>2022-04-24T08:52:44Z</time>
      </trkpt>
      <trkpt lat="39.684208" lon="-0.205960">
        <ele>3.451</ele>
        <time>2022-04-24T08:52:54Z</time>
      </trkpt>
      <trkpt lat="39.683981" lon="-0.205995">
        <ele>1.658</ele>
        <time>2022-04-24T08:52:59Z</time>
      </trkpt>
      <trkpt lat="39.683494" lon="-0.206031">
        <ele>0.512</ele>
        <time>2022-04-24T08:53:09Z</time>
      </trkpt>
      <trkpt lat="39.683238" lon="-0.206055">
        <ele>1.132</ele>
        <time>2022-04-24T08:53:14Z</time>
      </trkpt>
      <trkpt lat="39.682743" lon="-0.206094">
        <ele>1.205</ele>
        <time>2022-04-24T08:53:24Z</time>
      </trkpt>
      <trkpt lat="39.682267" lon="-0.206133">
        <ele>-0.409</ele>
        <time>2022-04-24T08:53:34Z</time>
      </trkpt>
      <trkpt lat="39.681766" lon="-0.206136">
        <ele>-3.012</ele>
        <time>2022-04-24T08:53:44Z</time>
      </trkpt>
      <trkpt lat="39.681290" lon="-0.206150">
        <ele>-4.661</ele>
        <time>2022-04-24T08:53:54Z</time>
      </trkpt>
      <trkpt lat="39.681049" lon="-0.206196">
        <ele>-4.652</ele>
        <time>2022-04-24T08:53:59Z</time>
      </trkpt>
      <trkpt lat="39.680551" lon="-0.206274">
        <ele>-3.121</ele>
        <time>2022-04-24T08:54:09Z</time>
      </trkpt>
      <trkpt lat="39.680326" lon="-0.206280">
        <ele>-2.258</ele>
        <time>2022-04-24T08:54:14Z</time>
      </trkpt>
      <trkpt lat="39.679867" lon="-0.206387">
        <ele>0.514</ele>
        <time>2022-04-24T08:54:24Z</time>
      </trkpt>
      <trkpt lat="39.679360" lon="-0.206447">
        <ele>-0.487</ele>
        <time>2022-04-24T08:54:34Z</time>
      </trkpt>
      <trkpt lat="39.678864" lon="-0.206507">
        <ele>-1.476</ele>
        <time>2022-04-24T08:54:44Z</time>
      </trkpt>
      <trkpt lat="39.678318" lon="-0.206577">
        <ele>0.743</ele>
        <time>2022-04-24T08:54:54Z</time>
      </trkpt>
      <trkpt lat="39.677781" lon="-0.206629">
        <ele>1.513</ele>
        <time>2022-04-24T08:55:04Z</time>
      </trkpt>
      <trkpt lat="39.677516" lon="-0.206650">
        <ele>2.443</ele>
        <time>2022-04-24T08:55:09Z</time>
      </trkpt>
      <trkpt lat="39.677249" lon="-0.206674">
        <ele>1.807</ele>
        <time>2022-04-24T08:55:14Z</time>
      </trkpt>
      <trkpt lat="39.676721" lon="-0.206716">
        <ele>1.909</ele>
        <time>2022-04-24T08:55:24Z</time>
      </trkpt>
      <trkpt lat="39.676182" lon="-0.206778">
        <ele>1.642</ele>
        <time>2022-04-24T08:55:34Z</time>
      </trkpt>
      <trkpt lat="39.675916" lon="-0.206799">
        <ele>2.441</ele>
        <time>2022-04-24T08:55:39Z</time>
      </trkpt>
      <trkpt lat="39.675660" lon="-0.206835">
        <ele>3.642</ele>
        <time>2022-04-24T08:55:44Z</time>
      </trkpt>
      <trkpt lat="39.675251" lon="-0.206866">
        <ele>6.151</ele>
        <time>2022-04-24T08:55:54Z</time>
      </trkpt>
      <trkpt lat="39.675026" lon="-0.206903">
        <ele>6.488</ele>
        <time>2022-04-24T08:55:59Z</time>
      </trkpt>
      <trkpt lat="39.674785" lon="-0.206949">
        <ele>6.934</ele>
        <time>2022-04-24T08:56:04Z</time>
      </trkpt>
      <trkpt lat="39.674278" lon="-0.207032">
        <ele>5.497</ele>
        <time>2022-04-24T08:56:14Z</time>
      </trkpt>
      <trkpt lat="39.673817" lon="-0.207101">
        <ele>5.416</ele>
        <time>2022-04-24T08:56:24Z</time>
      </trkpt>
      <trkpt lat="39.673459" lon="-0.207109">
        <ele>4.633</ele>
        <time>2022-04-24T08:56:34Z</time>
      </trkpt>
      <trkpt lat="39.673318" lon="-0.207074">
        <ele>0.372</ele>
        <time>2022-04-24T08:56:44Z</time>
      </trkpt>
      <trkpt lat="39.673223" lon="-0.207167">
        <ele>-1.313</ele>
        <time>2022-04-24T08:56:54Z</time>
      </trkpt>
      <trkpt lat="39.673103" lon="-0.207204">
        <ele>-1.614</ele>
        <time>2022-04-24T08:56:59Z</time>
      </trkpt>
      <trkpt lat="39.672991" lon="-0.207207">
        <ele>-1.909</ele>
        <time>2022-04-24T08:57:04Z</time>
      </trkpt>
      <trkpt lat="39.672951" lon="-0.207246">
        <ele>0.488</ele>
        <time>2022-04-24T08:57:14Z</time>
      </trkpt>
      <trkpt lat="39.673045" lon="-0.207218">
        <ele>1.197</ele>
        <time>2022-04-24T08:57:24Z</time>
      </trkpt>
      <trkpt lat="39.673055" lon="-0.207242">
        <ele>2.858</ele>
        <time>2022-04-24T08:57:43Z</time>
      </trkpt>
      <trkpt lat="39.673076" lon="-0.207387">
        <ele>2.377</ele>
        <time>2022-04-24T08:57:48Z</time>
      </trkpt>
      <trkpt lat="39.673103" lon="-0.207779">
        <ele>2.724</ele>
        <time>2022-04-24T08:57:58Z</time>
      </trkpt>
      <trkpt lat="39.673140" lon="-0.207996">
        <ele>3.420</ele>
        <time>2022-04-24T08:58:03Z</time>
      </trkpt>
      <trkpt lat="39.673194" lon="-0.208216">
        <ele>3.983</ele>
        <time>2022-04-24T08:58:08Z</time>
      </trkpt>
      <trkpt lat="39.673246" lon="-0.208637">
        <ele>5.182</ele>
        <time>2022-04-24T08:58:18Z</time>
      </trkpt>
      <trkpt lat="39.673260" lon="-0.208835">
        <ele>6.199</ele>
        <time>2022-04-24T08:58:23Z</time>
      </trkpt>
      <trkpt lat="39.673221" lon="-0.209162">
        <ele>6.333</ele>
        <time>2022-04-24T08:58:33Z</time>
      </trkpt>
      <trkpt lat="39.673256" lon="-0.209282">
        <ele>6.823</ele>
        <time>2022-04-24T08:58:38Z</time>
      </trkpt>
      <trkpt lat="39.673365" lon="-0.209541">
        <ele>4.515</ele>
        <time>2022-04-24T08:58:48Z</time>
      </trkpt>
      <trkpt lat="39.673442" lon="-0.209921">
        <ele>4.309</ele>
        <time>2022-04-24T08:58:58Z</time>
      </trkpt>
      <trkpt lat="39.673439" lon="-0.210112">
        <ele>5.454</ele>
        <time>2022-04-24T08:59:03Z</time>
      </trkpt>
      <trkpt lat="39.673474" lon="-0.210309">
        <ele>4.733</ele>
        <time>2022-04-24T08:59:08Z</time>
      </trkpt>
      <trkpt lat="39.673531" lon="-0.210703">
        <ele>5.954</ele>
        <time>2022-04-24T08:59:18Z</time>
      </trkpt>
      <trkpt lat="39.673621" lon="-0.211064">
        <ele>6.183</ele>
        <time>2022-04-24T08:59:28Z</time>
      </trkpt>
      <trkpt lat="39.673682" lon="-0.211271">
        <ele>7.110</ele>
        <time>2022-04-24T08:59:33Z</time>
      </trkpt>
      <trkpt lat="39.673744" lon="-0.211507">
        <ele>6.916</ele>
        <time>2022-04-24T08:59:38Z</time>
      </trkpt>
      <trkpt lat="39.673869" lon="-0.211863">
        <ele>3.339</ele>
        <time>2022-04-24T08:59:48Z</time>
      </trkpt>
      <trkpt lat="39.673916" lon="-0.212068">
        <ele>3.078</ele>
        <time>2022-04-24T08:59:53Z</time>
      </trkpt>
      <trkpt lat="39.673951" lon="-0.212272">
        <ele>5.635</ele>
        <time>2022-04-24T08:59:58Z</time>
      </trkpt>
      <trkpt lat="39.673899" lon="-0.212637">
        <ele>6.742</ele>
        <time>2022-04-24T09:00:08Z</time>
      </trkpt>
      <trkpt lat="39.673893" lon="-0.212967">
        <ele>8.022</ele>
        <time>2022-04-24T09:00:18Z</time>
      </trkpt>
      <trkpt lat="39.673673" lon="-0.212938">
        <ele>3.114</ele>
        <time>2022-04-24T09:00:28Z</time>
      </trkpt>
      <trkpt lat="39.673182" lon="-0.212780">
        <ele>0.209</ele>
        <time>2022-04-24T09:00:38Z</time>
      </trkpt>
      <trkpt lat="39.672744" lon="-0.212926">
        <ele>-0.845</ele>
        <time>2022-04-24T09:00:48Z</time>
      </trkpt>
      <trkpt lat="39.672312" lon="-0.212978">
        <ele>1.584</ele>
        <time>2022-04-24T09:00:58Z</time>
      </trkpt>
      <trkpt lat="39.672043" lon="-0.212709">
        <ele>0.295</ele>
        <time>2022-04-24T09:01:08Z</time>
      </trkpt>
      <trkpt lat="39.671723" lon="-0.212327">
        <ele>-2.364</ele>
        <time>2022-04-24T09:01:18Z</time>
      </trkpt>
      <trkpt lat="39.671531" lon="-0.212172">
        <ele>-1.681</ele>
        <time>2022-04-24T09:01:23Z</time>
      </trkpt>
      <trkpt lat="39.671355" lon="-0.212018">
        <ele>-3.447</ele>
        <time>2022-04-24T09:01:28Z</time>
      </trkpt>
      <trkpt lat="39.671145" lon="-0.211862">
        <ele>-3.240</ele>
        <time>2022-04-24T09:01:33Z</time>
      </trkpt>
      <trkpt lat="39.670915" lon="-0.211692">
        <ele>-3.079</ele>
        <time>2022-04-24T09:01:38Z</time>
      </trkpt>
      <trkpt lat="39.670464" lon="-0.211353">
        <ele>-1.366</ele>
        <time>2022-04-24T09:01:48Z</time>
      </trkpt>
      <trkpt lat="39.670005" lon="-0.211008">
        <ele>0.177</ele>
        <time>2022-04-24T09:01:58Z</time>
      </trkpt>
      <trkpt lat="39.669514" lon="-0.210692">
        <ele>1.461</ele>
        <time>2022-04-24T09:02:08Z</time>
      </trkpt>
      <trkpt lat="39.668995" lon="-0.210519">
        <ele>0.927</ele>
        <time>2022-04-24T09:02:18Z</time>
      </trkpt>
      <trkpt lat="39.668514" lon="-0.210476">
        <ele>-0.709</ele>
        <time>2022-04-24T09:02:28Z</time>
      </trkpt>
      <trkpt lat="39.668263" lon="-0.210376">
        <ele>-1.198</ele>
        <time>2022-04-24T09:02:33Z</time>
      </trkpt>
      <trkpt lat="39.668049" lon="-0.210146">
        <ele>-2.227</ele>
        <time>2022-04-24T09:02:38Z</time>
      </trkpt>
      <trkpt lat="39.667715" lon="-0.209624">
        <ele>-2.228</ele>
        <time>2022-04-24T09:02:48Z</time>
      </trkpt>
      <trkpt lat="39.667532" lon="-0.209011">
        <ele>-2.097</ele>
        <time>2022-04-24T09:02:58Z</time>
      </trkpt>
      <trkpt lat="39.667388" lon="-0.208718">
        <ele>-2.134</ele>
        <time>2022-04-24T09:03:03Z</time>
      </trkpt>
      <trkpt lat="39.667233" lon="-0.208437">
        <ele>-2.480</ele>
        <time>2022-04-24T09:03:08Z</time>
      </trkpt>
      <trkpt lat="39.666879" lon="-0.207938">
        <ele>-2.863</ele>
        <time>2022-04-24T09:03:18Z</time>
      </trkpt>
      <trkpt lat="39.666559" lon="-0.207630">
        <ele>-2.662</ele>
        <time>2022-04-24T09:03:28Z</time>
      </trkpt>
      <trkpt lat="39.666271" lon="-0.207621">
        <ele>-1.659</ele>
        <time>2022-04-24T09:03:38Z</time>
      </trkpt>
      <trkpt lat="39.666028" lon="-0.207802">
        <ele>-2.944</ele>
        <time>2022-04-24T09:03:48Z</time>
      </trkpt>
      <trkpt lat="39.665736" lon="-0.207994">
        <ele>-1.805</ele>
        <time>2022-04-24T09:03:58Z</time>
      </trkpt>
      <trkpt lat="39.665607" lon="-0.208080">
        <ele>-1.315</ele>
        <time>2022-04-24T09:04:03Z</time>
      </trkpt>
      <trkpt lat="39.665504" lon="-0.208136">
        <ele>-0.409</ele>
        <time>2022-04-24T09:04:08Z</time>
      </trkpt>
      <trkpt lat="39.665267" lon="-0.208290">
        <ele>-0.845</ele>
        <time>2022-04-24T09:04:18Z</time>
      </trkpt>
      <trkpt lat="39.665072" lon="-0.208404">
        <ele>-1.394</ele>
        <time>2022-04-24T09:04:23Z</time>
      </trkpt>
      <trkpt lat="39.664922" lon="-0.208551">
        <ele>-2.075</ele>
        <time>2022-04-24T09:04:28Z</time>
      </trkpt>
      <trkpt lat="39.664570" lon="-0.208757">
        <ele>-1.094</ele>
        <time>2022-04-24T09:04:38Z</time>
      </trkpt>
      <trkpt lat="39.664248" lon="-0.209056">
        <ele>-0.331</ele>
        <time>2022-04-24T09:04:48Z</time>
      </trkpt>
      <trkpt lat="39.663907" lon="-0.209240">
        <ele>-0.287</ele>
        <time>2022-04-24T09:04:58Z</time>
      </trkpt>
      <trkpt lat="39.663690" lon="-0.209322">
        <ele>0.190</ele>
        <time>2022-04-24T09:05:03Z</time>
      </trkpt>
      <trkpt lat="39.663500" lon="-0.209471">
        <ele>0.439</ele>
        <time>2022-04-24T09:05:08Z</time>
      </trkpt>
      <trkpt lat="39.663109" lon="-0.209749">
        <ele>0.386</ele>
        <time>2022-04-24T09:05:18Z</time>
      </trkpt>
      <trkpt lat="39.662687" lon="-0.210030">
        <ele>0.852</ele>
        <time>2022-04-24T09:05:28Z</time>
      </trkpt>
      <trkpt lat="39.662300" lon="-0.210344">
        <ele>1.353</ele>
        <time>2022-04-24T09:05:38Z</time>
      </trkpt>
      <trkpt lat="39.661905" lon="-0.210684">
        <ele>1.808</ele>
        <time>2022-04-24T09:05:48Z</time>
      </trkpt>
      <trkpt lat="39.661503" lon="-0.210990">
        <ele>1.309</ele>
        <time>2022-04-24T09:05:58Z</time>
      </trkpt>
      <trkpt lat="39.661110" lon="-0.211328">
        <ele>-0.126</ele>
        <time>2022-04-24T09:06:08Z</time>
      </trkpt>
      <trkpt lat="39.660690" lon="-0.211657">
        <ele>-2.245</ele>
        <time>2022-04-24T09:06:18Z</time>
      </trkpt>
      <trkpt lat="39.660297" lon="-0.212015">
        <ele>-2.426</ele>
        <time>2022-04-24T09:06:28Z</time>
      </trkpt>
      <trkpt lat="39.660128" lon="-0.212218">
        <ele>-2.335</ele>
        <time>2022-04-24T09:06:33Z</time>
      </trkpt>
      <trkpt lat="39.659972" lon="-0.212461">
        <ele>-3.762</ele>
        <time>2022-04-24T09:06:38Z</time>
      </trkpt>
      <trkpt lat="39.659669" lon="-0.212944">
        <ele>-5.458</ele>
        <time>2022-04-24T09:06:48Z</time>
      </trkpt>
      <trkpt lat="39.659513" lon="-0.213176">
        <ele>-4.751</ele>
        <time>2022-04-24T09:06:53Z</time>
      </trkpt>
      <trkpt lat="39.659267" lon="-0.213605">
        <ele>-5.240</ele>
        <time>2022-04-24T09:07:03Z</time>
      </trkpt>
      <trkpt lat="39.659188" lon="-0.213764">
        <ele>-3.377</ele>
        <time>2022-04-24T09:07:08Z</time>
      </trkpt>
      <trkpt lat="39.658813" lon="-0.214049">
        <ele>-1.968</ele>
        <time>2022-04-24T09:07:18Z</time>
      </trkpt>
      <trkpt lat="39.658630" lon="-0.214228">
        <ele>-1.242</ele>
        <time>2022-04-24T09:07:23Z</time>
      </trkpt>
      <trkpt lat="39.658446" lon="-0.214396">
        <ele>-1.326</ele>
        <time>2022-04-24T09:07:28Z</time>
      </trkpt>
      <trkpt lat="39.658057" lon="-0.214725">
        <ele>2.309</ele>
        <time>2022-04-24T09:07:38Z</time>
      </trkpt>
      <trkpt lat="39.657657" lon="-0.215017">
        <ele>6.787</ele>
        <time>2022-04-24T09:07:48Z</time>
      </trkpt>
      <trkpt lat="39.657508" lon="-0.215143">
        <ele>6.296</ele>
        <time>2022-04-24T09:07:53Z</time>
      </trkpt>
      <trkpt lat="39.657239" lon="-0.215402">
        <ele>4.937</ele>
        <time>2022-04-24T09:08:03Z</time>
      </trkpt>
      <trkpt lat="39.657128" lon="-0.215484">
        <ele>2.516</ele>
        <time>2022-04-24T09:08:08Z</time>
      </trkpt>
      <trkpt lat="39.657110" lon="-0.215621">
        <ele>1.843</ele>
        <time>2022-04-24T09:08:18Z</time>
      </trkpt>
      <trkpt lat="39.657096" lon="-0.215699">
        <ele>2.449</ele>
        <time>2022-04-24T09:08:36Z</time>
      </trkpt>
      <trkpt lat="39.657204" lon="-0.215377">
        <ele>8.872</ele>
        <time>2022-04-24T09:13:34Z</time>
      </trkpt>
      <trkpt lat="39.657116" lon="-0.215670">
        <ele>7.171</ele>
        <time>2022-04-24T09:13:44Z</time>
      </trkpt>
      <trkpt lat="39.657005" lon="-0.216119">
        <ele>7.258</ele>
        <time>2022-04-24T09:13:54Z</time>
      </trkpt>
      <trkpt lat="39.656926" lon="-0.216138">
        <ele>4.531</ele>
        <time>2022-04-24T09:13:59Z</time>
      </trkpt>
      <trkpt lat="39.656840" lon="-0.216076">
        <ele>4.661</ele>
        <time>2022-04-24T09:14:04Z</time>
      </trkpt>
      <trkpt lat="39.656767" lon="-0.215997">
        <ele>2.107</ele>
        <time>2022-04-24T09:14:14Z</time>
      </trkpt>
      <trkpt lat="39.656764" lon="-0.215984">
        <ele>-0.309</ele>
        <time>2022-04-24T09:14:20Z</time>
      </trkpt>
      <trkpt lat="39.656810" lon="-0.215780">
        <ele>-2.484</ele>
        <time>2022-04-24T09:14:30Z</time>
      </trkpt>
      <trkpt lat="39.656948" lon="-0.215723">
        <ele>-3.083</ele>
        <time>2022-04-24T09:14:35Z</time>
      </trkpt>
      <trkpt lat="39.657085" lon="-0.215841">
        <ele>-2.814</ele>
        <time>2022-04-24T09:14:40Z</time>
      </trkpt>
      <trkpt lat="39.657047" lon="-0.216315">
        <ele>-3.013</ele>
        <time>2022-04-24T09:14:50Z</time>
      </trkpt>
      <trkpt lat="39.657129" lon="-0.216834">
        <ele>-2.230</ele>
        <time>2022-04-24T09:15:00Z</time>
      </trkpt>
      <trkpt lat="39.657174" lon="-0.217096">
        <ele>-2.216</ele>
        <time>2022-04-24T09:15:05Z</time>
      </trkpt>
      <trkpt lat="39.657212" lon="-0.217379">
        <ele>-2.519</ele>
        <time>2022-04-24T09:15:10Z</time>
      </trkpt>
      <trkpt lat="39.657292" lon="-0.217937">
        <ele>-0.828</ele>
        <time>2022-04-24T09:15:20Z</time>
      </trkpt>
      <trkpt lat="39.657397" lon="-0.218442">
        <ele>-0.855</ele>
        <time>2022-04-24T09:15:30Z</time>
      </trkpt>
      <trkpt lat="39.657598" lon="-0.218789">
        <ele>-0.335</ele>
        <time>2022-04-24T09:15:40Z</time>
      </trkpt>
      <trkpt lat="39.657516" lon="-0.219217">
        <ele>1.386</ele>
        <time>2022-04-24T09:15:50Z</time>
      </trkpt>
      <trkpt lat="39.657154" lon="-0.219311">
        <ele>3.414</ele>
        <time>2022-04-24T09:16:00Z</time>
      </trkpt>
      <trkpt lat="39.656995" lon="-0.219399">
        <ele>4.209</ele>
        <time>2022-04-24T09:16:05Z</time>
      </trkpt>
      <trkpt lat="39.656683" lon="-0.219690">
        <ele>4.324</ele>
        <time>2022-04-24T09:16:15Z</time>
      </trkpt>
      <trkpt lat="39.656523" lon="-0.219787">
        <ele>3.433</ele>
        <time>2022-04-24T09:16:20Z</time>
      </trkpt>
      <trkpt lat="39.656431" lon="-0.219865">
        <ele>3.534</ele>
        <time>2022-04-24T09:16:30Z</time>
      </trkpt>
      <trkpt lat="39.656325" lon="-0.219884">
        <ele>3.373</ele>
        <time>2022-04-24T09:16:49Z</time>
      </trkpt>
      <trkpt lat="39.656139" lon="-0.219927">
        <ele>4.240</ele>
        <time>2022-04-24T09:16:54Z</time>
      </trkpt>
      <trkpt lat="39.655922" lon="-0.219981">
        <ele>4.686</ele>
        <time>2022-04-24T09:16:59Z</time>
      </trkpt>
      <trkpt lat="39.655699" lon="-0.220029">
        <ele>4.969</ele>
        <time>2022-04-24T09:17:04Z</time>
      </trkpt>
      <trkpt lat="39.655476" lon="-0.220081">
        <ele>5.048</ele>
        <time>2022-04-24T09:17:09Z</time>
      </trkpt>
      <trkpt lat="39.655249" lon="-0.220134">
        <ele>4.975</ele>
        <time>2022-04-24T09:17:14Z</time>
      </trkpt>
      <trkpt lat="39.654811" lon="-0.220257">
        <ele>4.791</ele>
        <time>2022-04-24T09:17:24Z</time>
      </trkpt>
      <trkpt lat="39.654647" lon="-0.220466">
        <ele>3.881</ele>
        <time>2022-04-24T09:17:29Z</time>
      </trkpt>
      <trkpt lat="39.654482" lon="-0.220656">
        <ele>3.619</ele>
        <time>2022-04-24T09:17:34Z</time>
      </trkpt>
      <trkpt lat="39.654034" lon="-0.220731">
        <ele>4.509</ele>
        <time>2022-04-24T09:17:44Z</time>
      </trkpt>
      <trkpt lat="39.653663" lon="-0.220981">
        <ele>4.290</ele>
        <time>2022-04-24T09:17:54Z</time>
      </trkpt>
      <trkpt lat="39.653243" lon="-0.221296">
        <ele>3.549</ele>
        <time>2022-04-24T09:18:04Z</time>
      </trkpt>
      <trkpt lat="39.653042" lon="-0.221457">
        <ele>4.460</ele>
        <time>2022-04-24T09:18:09Z</time>
      </trkpt>
      <trkpt lat="39.652852" lon="-0.221641">
        <ele>4.969</ele>
        <time>2022-04-24T09:18:14Z</time>
      </trkpt>
      <trkpt lat="39.652462" lon="-0.221984">
        <ele>4.236</ele>
        <time>2022-04-24T09:18:24Z</time>
      </trkpt>
      <trkpt lat="39.651991" lon="-0.222144">
        <ele>2.992</ele>
        <time>2022-04-24T09:18:34Z</time>
      </trkpt>
      <trkpt lat="39.651776" lon="-0.222302">
        <ele>2.845</ele>
        <time>2022-04-24T09:18:39Z</time>
      </trkpt>
      <trkpt lat="39.651570" lon="-0.222456">
        <ele>3.514</ele>
        <time>2022-04-24T09:18:44Z</time>
      </trkpt>
      <trkpt lat="39.651166" lon="-0.222771">
        <ele>3.411</ele>
        <time>2022-04-24T09:18:54Z</time>
      </trkpt>
      <trkpt lat="39.650808" lon="-0.223136">
        <ele>4.577</ele>
        <time>2022-04-24T09:19:04Z</time>
      </trkpt>
      <trkpt lat="39.650628" lon="-0.223320">
        <ele>4.161</ele>
        <time>2022-04-24T09:19:09Z</time>
      </trkpt>
      <trkpt lat="39.650452" lon="-0.223506">
        <ele>3.527</ele>
        <time>2022-04-24T09:19:14Z</time>
      </trkpt>
      <trkpt lat="39.650090" lon="-0.223857">
        <ele>3.509</ele>
        <time>2022-04-24T09:19:24Z</time>
      </trkpt>
      <trkpt lat="39.649911" lon="-0.224036">
        <ele>5.098</ele>
        <time>2022-04-24T09:19:29Z</time>
      </trkpt>
      <trkpt lat="39.635188" lon="-0.239639">
        <ele>-1.417</ele>
        <time>2022-04-24T09:31:38Z</time>
      </trkpt>
      <trkpt lat="39.635179" lon="-0.239650">
        <ele>-2.248</ele>
        <time>2022-04-24T09:32:14Z</time>
      </trkpt>
      <trkpt lat="39.635114" lon="-0.239643">
        <ele>-1.497</ele>
        <time>2022-04-24T09:32:19Z</time>
      </trkpt>
      <trkpt lat="39.635189" lon="-0.239540">
        <ele>-0.864</ele>
        <time>2022-04-24T09:32:24Z</time>
      </trkpt>
      <trkpt lat="39.635425" lon="-0.239414">
        <ele>-1.250</ele>
        <time>2022-04-24T09:32:31Z</time>
      </trkpt>
      <trkpt lat="39.635770" lon="-0.239224">
        <ele>-1.793</ele>
        <time>2022-04-24T09:32:39Z</time>
      </trkpt>
      <trkpt lat="39.635936" lon="-0.239055">
        <ele>-1.912</ele>
        <time>2022-04-24T09:32:44Z</time>
      </trkpt>
      <trkpt lat="39.636192" lon="-0.238783">
        <ele>-2.319</ele>
        <time>2022-04-24T09:32:51Z</time>
      </trkpt>
      <trkpt lat="39.636529" lon="-0.238926">
        <ele>-2.774</ele>
        <time>2022-04-24T09:32:59Z</time>
      </trkpt>
      <trkpt lat="39.636751" lon="-0.239052">
        <ele>-3.756</ele>
        <time>2022-04-24T09:33:04Z</time>
      </trkpt>
      <trkpt lat="39.636987" lon="-0.239165">
        <ele>-3.821</ele>
        <time>2022-04-24T09:33:09Z</time>
      </trkpt>
      <trkpt lat="39.637302" lon="-0.239337">
        <ele>-3.009</ele>
        <time>2022-04-24T09:33:16Z</time>
      </trkpt>
      <trkpt lat="39.637509" lon="-0.239489">
        <ele>-2.418</ele>
        <time>2022-04-24T09:33:21Z</time>
      </trkpt>
      <trkpt lat="39.637690" lon="-0.239703">
        <ele>-2.287</ele>
        <time>2022-04-24T09:33:26Z</time>
      </trkpt>
      <trkpt lat="39.637701" lon="-0.240070">
        <ele>-0.478</ele>
        <time>2022-04-24T09:33:34Z</time>
      </trkpt>
      <trkpt lat="39.637544" lon="-0.240267">
        <ele>-0.187</ele>
        <time>2022-04-24T09:33:39Z</time>
      </trkpt>
      <trkpt lat="39.637369" lon="-0.240495">
        <ele>0.334</ele>
        <time>2022-04-24T09:33:44Z</time>
      </trkpt>
      <trkpt lat="39.637153" lon="-0.240838">
        <ele>0.110</ele>
        <time>2022-04-24T09:33:51Z</time>
      </trkpt>
      <trkpt lat="39.637282" lon="-0.241192">
        <ele>-0.223</ele>
        <time>2022-04-24T09:33:59Z</time>
      </trkpt>
      <trkpt lat="39.637428" lon="-0.241438">
        <ele>0.152</ele>
        <time>2022-04-24T09:34:04Z</time>
      </trkpt>
      <trkpt lat="39.637601" lon="-0.241678">
        <ele>-0.239</ele>
        <time>2022-04-24T09:34:09Z</time>
      </trkpt>
      <trkpt lat="39.637739" lon="-0.241884">
        <ele>0.249</ele>
        <time>2022-04-24T09:34:14Z</time>
      </trkpt>
      <trkpt lat="39.637935" lon="-0.242159">
        <ele>0.402</ele>
        <time>2022-04-24T09:34:21Z</time>
      </trkpt>
      <trkpt lat="39.638173" lon="-0.242503">
        <ele>1.422</ele>
        <time>2022-04-24T09:34:29Z</time>
      </trkpt>
      <trkpt lat="39.638231" lon="-0.242716">
        <ele>1.809</ele>
        <time>2022-04-24T09:34:34Z</time>
      </trkpt>
      <trkpt lat="39.638045" lon="-0.242906">
        <ele>1.925</ele>
        <time>2022-04-24T09:34:41Z</time>
      </trkpt>
      <trkpt lat="39.637718" lon="-0.243052">
        <ele>1.644</ele>
        <time>2022-04-24T09:34:49Z</time>
      </trkpt>
      <trkpt lat="39.637562" lon="-0.243240">
        <ele>1.815</ele>
        <time>2022-04-24T09:34:54Z</time>
      </trkpt>
      <trkpt lat="39.637403" lon="-0.243435">
        <ele>1.714</ele>
        <time>2022-04-24T09:34:59Z</time>
      </trkpt>
      <trkpt lat="39.637173" lon="-0.243714">
        <ele>1.621</ele>
        <time>2022-04-24T09:35:06Z</time>
      </trkpt>
      <trkpt lat="39.636952" lon="-0.244007">
        <ele>0.667</ele>
        <time>2022-04-24T09:35:14Z</time>
      </trkpt>
      <trkpt lat="39.637104" lon="-0.244273">
        <ele>1.160</ele>
        <time>2022-04-24T09:35:21Z</time>
      </trkpt>
      <trkpt lat="39.637355" lon="-0.244609">
        <ele>0.899</ele>
        <time>2022-04-24T09:35:29Z</time>
      </trkpt>
      <trkpt lat="39.637517" lon="-0.244832">
        <ele>1.186</ele>
        <time>2022-04-24T09:35:34Z</time>
      </trkpt>
      <trkpt lat="39.637650" lon="-0.245021">
        <ele>1.492</ele>
        <time>2022-04-24T09:35:39Z</time>
      </trkpt>
      <trkpt lat="39.637721" lon="-0.245180">
        <ele>2.673</ele>
        <time>2022-04-24T09:35:44Z</time>
      </trkpt>
      <trkpt lat="39.637517" lon="-0.245314">
        <ele>2.120</ele>
        <time>2022-04-24T09:35:51Z</time>
      </trkpt>
      <trkpt lat="39.637164" lon="-0.245411">
        <ele>-1.409</ele>
        <time>2022-04-24T09:35:59Z</time>
      </trkpt>
      <trkpt lat="39.636846" lon="-0.245484">
        <ele>-1.670</ele>
        <time>2022-04-24T09:36:06Z</time>
      </trkpt>
      <trkpt lat="39.636635" lon="-0.245536">
        <ele>-0.969</ele>
        <time>2022-04-24T09:36:11Z</time>
      </trkpt>
      <trkpt lat="39.636693" lon="-0.245871">
        <ele>0.340</ele>
        <time>2022-04-24T09:36:19Z</time>
      </trkpt>
      <trkpt lat="39.636917" lon="-0.246212">
        <ele>1.879</ele>
        <time>2022-04-24T09:36:26Z</time>
      </trkpt>
      <trkpt lat="39.637075" lon="-0.246455">
        <ele>2.916</ele>
        <time>2022-04-24T09:36:31Z</time>
      </trkpt>
      <trkpt lat="39.637224" lon="-0.246669">
        <ele>2.762</ele>
        <time>2022-04-24T09:36:36Z</time>
      </trkpt>
      <trkpt lat="39.637366" lon="-0.246911">
        <ele>2.655</ele>
        <time>2022-04-24T09:36:41Z</time>
      </trkpt>
      <trkpt lat="39.637611" lon="-0.247293">
        <ele>3.054</ele>
        <time>2022-04-24T09:36:49Z</time>
      </trkpt>
      <trkpt lat="39.637770" lon="-0.247534">
        <ele>3.161</ele>
        <time>2022-04-24T09:36:54Z</time>
      </trkpt>
      <trkpt lat="39.637989" lon="-0.247857">
        <ele>3.467</ele>
        <time>2022-04-24T09:37:01Z</time>
      </trkpt>
      <trkpt lat="39.638226" lon="-0.248228">
        <ele>4.581</ele>
        <time>2022-04-24T09:37:09Z</time>
      </trkpt>
      <trkpt lat="39.638382" lon="-0.248457">
        <ele>5.219</ele>
        <time>2022-04-24T09:37:14Z</time>
      </trkpt>
      <trkpt lat="39.638600" lon="-0.248776">
        <ele>5.909</ele>
        <time>2022-04-24T09:37:21Z</time>
      </trkpt>
      <trkpt lat="39.638759" lon="-0.249020">
        <ele>6.797</ele>
        <time>2022-04-24T09:37:26Z</time>
      </trkpt>
      <trkpt lat="39.639012" lon="-0.249379">
        <ele>7.016</ele>
        <time>2022-04-24T09:37:34Z</time>
      </trkpt>
      <trkpt lat="39.639167" lon="-0.249612">
        <ele>8.167</ele>
        <time>2022-04-24T09:37:39Z</time>
      </trkpt>
      <trkpt lat="39.639286" lon="-0.249809">
        <ele>-0.796</ele>
        <time>2022-04-24T09:37:44Z</time>
      </trkpt>
      <trkpt lat="39.639558" lon="-0.250195">
        <ele>-2.243</ele>
        <time>2022-04-24T09:37:54Z</time>
      </trkpt>
      <trkpt lat="39.639769" lon="-0.250497">
        <ele>-0.689</ele>
        <time>2022-04-24T09:38:04Z</time>
      </trkpt>
      <trkpt lat="39.639901" lon="-0.250670">
        <ele>-0.462</ele>
        <time>2022-04-24T09:38:09Z</time>
      </trkpt>
      <trkpt lat="39.640048" lon="-0.250868">
        <ele>-0.151</ele>
        <time>2022-04-24T09:38:14Z</time>
      </trkpt>
      <trkpt lat="39.640120" lon="-0.251173">
        <ele>-0.648</ele>
        <time>2022-04-24T09:38:24Z</time>
      </trkpt>
      <trkpt lat="39.639685" lon="-0.251123">
        <ele>-0.998</ele>
        <time>2022-04-24T09:38:34Z</time>
      </trkpt>
      <trkpt lat="39.639276" lon="-0.251162">
        <ele>-2.015</ele>
        <time>2022-04-24T09:38:44Z</time>
      </trkpt>
      <trkpt lat="39.638940" lon="-0.251231">
        <ele>-0.726</ele>
        <time>2022-04-24T09:38:54Z</time>
      </trkpt>
      <trkpt lat="39.638810" lon="-0.251248">
        <ele>-2.009</ele>
        <time>2022-04-24T09:38:59Z</time>
      </trkpt>
      <trkpt lat="39.638470" lon="-0.251317">
        <ele>-3.460</ele>
        <time>2022-04-24T09:39:09Z</time>
      </trkpt>
      <trkpt lat="39.638273" lon="-0.251352">
        <ele>-3.399</ele>
        <time>2022-04-24T09:39:14Z</time>
      </trkpt>
      <trkpt lat="39.637833" lon="-0.251437">
        <ele>-2.960</ele>
        <time>2022-04-24T09:39:24Z</time>
      </trkpt>
      <trkpt lat="39.637602" lon="-0.251479">
        <ele>-2.589</ele>
        <time>2022-04-24T09:39:29Z</time>
      </trkpt>
      <trkpt lat="39.637191" lon="-0.251556">
        <ele>-2.296</ele>
        <time>2022-04-24T09:39:39Z</time>
      </trkpt>
      <trkpt lat="39.637019" lon="-0.251573">
        <ele>-3.922</ele>
        <time>2022-04-24T09:39:44Z</time>
      </trkpt>
      <trkpt lat="39.636694" lon="-0.251662">
        <ele>-3.425</ele>
        <time>2022-04-24T09:39:54Z</time>
      </trkpt>
      <trkpt lat="39.636313" lon="-0.251724">
        <ele>-2.884</ele>
        <time>2022-04-24T09:40:04Z</time>
      </trkpt>
      <trkpt lat="39.636251" lon="-0.251736">
        <ele>-3.581</ele>
        <time>2022-04-24T09:40:09Z</time>
      </trkpt>
      <trkpt lat="39.636243" lon="-0.251730">
        <ele>-4.336</ele>
        <time>2022-04-24T09:40:17Z</time>
      </trkpt>
      <trkpt lat="39.635994" lon="-0.251738">
        <ele>-4.917</ele>
        <time>2022-04-24T09:40:27Z</time>
      </trkpt>
      <trkpt lat="39.635778" lon="-0.251738">
        <ele>-4.718</ele>
        <time>2022-04-24T09:40:32Z</time>
      </trkpt>
      <trkpt lat="39.635437" lon="-0.251743">
        <ele>-4.009</ele>
        <time>2022-04-24T09:40:42Z</time>
      </trkpt>
      <trkpt lat="39.635279" lon="-0.251746">
        <ele>-4.464</ele>
        <time>2022-04-24T09:40:47Z</time>
      </trkpt>
      <trkpt lat="39.634909" lon="-0.251753">
        <ele>-2.583</ele>
        <time>2022-04-24T09:40:57Z</time>
      </trkpt>
      <trkpt lat="39.634679" lon="-0.251755">
        <ele>-2.724</ele>
        <time>2022-04-24T09:41:02Z</time>
      </trkpt>
      <trkpt lat="39.634205" lon="-0.251761">
        <ele>-3.893</ele>
        <time>2022-04-24T09:41:12Z</time>
      </trkpt>
      <trkpt lat="39.633780" lon="-0.251959">
        <ele>-5.180</ele>
        <time>2022-04-24T09:41:22Z</time>
      </trkpt>
      <trkpt lat="39.633454" lon="-0.252301">
        <ele>-5.346</ele>
        <time>2022-04-24T09:41:32Z</time>
      </trkpt>
      <trkpt lat="39.633298" lon="-0.252519">
        <ele>-5.319</ele>
        <time>2022-04-24T09:41:37Z</time>
      </trkpt>
      <trkpt lat="39.633112" lon="-0.253055">
        <ele>-5.328</ele>
        <time>2022-04-24T09:41:47Z</time>
      </trkpt>
      <trkpt lat="39.633068" lon="-0.253355">
        <ele>-4.325</ele>
        <time>2022-04-24T09:41:52Z</time>
      </trkpt>
      <trkpt lat="39.632992" lon="-0.253642">
        <ele>-4.153</ele>
        <time>2022-04-24T09:41:57Z</time>
      </trkpt>
      <trkpt lat="39.632847" lon="-0.253878">
        <ele>-4.304</ele>
        <time>2022-04-24T09:42:02Z</time>
      </trkpt>
      <trkpt lat="39.632592" lon="-0.254357">
        <ele>-4.414</ele>
        <time>2022-04-24T09:42:12Z</time>
      </trkpt>
      <trkpt lat="39.632475" lon="-0.254611">
        <ele>-4.509</ele>
        <time>2022-04-24T09:42:17Z</time>
      </trkpt>
      <trkpt lat="39.632226" lon="-0.255140">
        <ele>-3.786</ele>
        <time>2022-04-24T09:42:27Z</time>
      </trkpt>
      <trkpt lat="39.631990" lon="-0.255658">
        <ele>-2.925</ele>
        <time>2022-04-24T09:42:37Z</time>
      </trkpt>
      <trkpt lat="39.631750" lon="-0.256160">
        <ele>-2.726</ele>
        <time>2022-04-24T09:42:47Z</time>
      </trkpt>
      <trkpt lat="39.631632" lon="-0.256414">
        <ele>-3.155</ele>
        <time>2022-04-24T09:42:52Z</time>
      </trkpt>
      <trkpt lat="39.631510" lon="-0.256677">
        <ele>-3.672</ele>
        <time>2022-04-24T09:42:57Z</time>
      </trkpt>
      <trkpt lat="39.631238" lon="-0.257158">
        <ele>-3.848</ele>
        <time>2022-04-24T09:43:07Z</time>
      </trkpt>
      <trkpt lat="39.631090" lon="-0.257383">
        <ele>-3.881</ele>
        <time>2022-04-24T09:43:12Z</time>
      </trkpt>
      <trkpt lat="39.630811" lon="-0.257869">
        <ele>-3.430</ele>
        <time>2022-04-24T09:43:22Z</time>
      </trkpt>
      <trkpt lat="39.630665" lon="-0.258105">
        <ele>-3.377</ele>
        <time>2022-04-24T09:43:27Z</time>
      </trkpt>
      <trkpt lat="39.630362" lon="-0.258532">
        <ele>-2.616</ele>
        <time>2022-04-24T09:43:37Z</time>
      </trkpt>
      <trkpt lat="39.630055" lon="-0.258908">
        <ele>-2.476</ele>
        <time>2022-04-24T09:43:47Z</time>
      </trkpt>
      <trkpt lat="39.629897" lon="-0.259118">
        <ele>-2.513</ele>
        <time>2022-04-24T09:43:52Z</time>
      </trkpt>
      <trkpt lat="39.629576" lon="-0.259537">
        <ele>-2.409</ele>
        <time>2022-04-24T09:44:02Z</time>
      </trkpt>
      <trkpt lat="39.629296" lon="-0.259930">
        <ele>-2.612</ele>
        <time>2022-04-24T09:44:12Z</time>
      </trkpt>
      <trkpt lat="39.629206" lon="-0.260056">
        <ele>-2.591</ele>
        <time>2022-04-24T09:44:17Z</time>
      </trkpt>
      <trkpt lat="39.628946" lon="-0.260415">
        <ele>-1.932</ele>
        <time>2022-04-24T09:44:27Z</time>
      </trkpt>
      <trkpt lat="39.628787" lon="-0.260634">
        <ele>-1.781</ele>
        <time>2022-04-24T09:44:32Z</time>
      </trkpt>
      <trkpt lat="39.628489" lon="-0.261070">
        <ele>-1.888</ele>
        <time>2022-04-24T09:44:42Z</time>
      </trkpt>
      <trkpt lat="39.628347" lon="-0.261288">
        <ele>-1.924</ele>
        <time>2022-04-24T09:44:47Z</time>
      </trkpt>
      <trkpt lat="39.628037" lon="-0.261695">
        <ele>-2.327</ele>
        <time>2022-04-24T09:44:57Z</time>
      </trkpt>
      <trkpt lat="39.627873" lon="-0.261904">
        <ele>-2.386</ele>
        <time>2022-04-24T09:45:02Z</time>
      </trkpt>
      <trkpt lat="39.627621" lon="-0.262377">
        <ele>-2.673</ele>
        <time>2022-04-24T09:45:12Z</time>
      </trkpt>
      <trkpt lat="39.627509" lon="-0.262619">
        <ele>-2.125</ele>
        <time>2022-04-24T09:45:17Z</time>
      </trkpt>
      <trkpt lat="39.627334" lon="-0.263046">
        <ele>-1.826</ele>
        <time>2022-04-24T09:45:27Z</time>
      </trkpt>
      <trkpt lat="39.627222" lon="-0.263291">
        <ele>-1.608</ele>
        <time>2022-04-24T09:45:32Z</time>
      </trkpt>
      <trkpt lat="39.626900" lon="-0.263673">
        <ele>-1.609</ele>
        <time>2022-04-24T09:45:42Z</time>
      </trkpt>
      <trkpt lat="39.626730" lon="-0.263836">
        <ele>-1.383</ele>
        <time>2022-04-24T09:45:47Z</time>
      </trkpt>
      <trkpt lat="39.626405" lon="-0.264244">
        <ele>-1.162</ele>
        <time>2022-04-24T09:45:57Z</time>
      </trkpt>
      <trkpt lat="39.626237" lon="-0.264436">
        <ele>-1.243</ele>
        <time>2022-04-24T09:46:02Z</time>
      </trkpt>
      <trkpt lat="39.625762" lon="-0.264657">
        <ele>-4.152</ele>
        <time>2022-04-24T09:49:12Z</time>
      </trkpt>
      <trkpt lat="39.625741" lon="-0.264788">
        <ele>-1.219</ele>
        <time>2022-04-24T09:49:17Z</time>
      </trkpt>
      <trkpt lat="39.625453" lon="-0.265064">
        <ele>-2.415</ele>
        <time>2022-04-24T09:49:27Z</time>
      </trkpt>
      <trkpt lat="39.625302" lon="-0.265244">
        <ele>-3.018</ele>
        <time>2022-04-24T09:49:32Z</time>
      </trkpt>
      <trkpt lat="39.625060" lon="-0.265636">
        <ele>-1.047</ele>
        <time>2022-04-24T09:49:42Z</time>
      </trkpt>
      <trkpt lat="39.624994" lon="-0.265784">
        <ele>1.234</ele>
        <time>2022-04-24T09:49:47Z</time>
      </trkpt>
      <trkpt lat="39.624944" lon="-0.265892">
        <ele>-1.011</ele>
        <time>2022-04-24T09:49:52Z</time>
      </trkpt>
      <trkpt lat="39.624832" lon="-0.266076">
        <ele>-3.921</ele>
        <time>2022-04-24T09:50:02Z</time>
      </trkpt>
      <trkpt lat="39.624734" lon="-0.266280">
        <ele>-5.103</ele>
        <time>2022-04-24T09:50:12Z</time>
      </trkpt>
      <trkpt lat="39.624678" lon="-0.266385">
        <ele>-4.909</ele>
        <time>2022-04-24T09:50:17Z</time>
      </trkpt>
      <trkpt lat="39.624551" lon="-0.266412">
        <ele>-3.182</ele>
        <time>2022-04-24T09:50:27Z</time>
      </trkpt>
      <trkpt lat="39.624615" lon="-0.266440">
        <ele>-2.941</ele>
        <time>2022-04-24T09:50:32Z</time>
      </trkpt>
      <trkpt lat="39.624665" lon="-0.266439">
        <ele>-3.652</ele>
        <time>2022-04-24T09:50:49Z</time>
      </trkpt>
      <trkpt lat="39.624722" lon="-0.266488">
        <ele>-4.321</ele>
        <time>2022-04-24T09:50:54Z</time>
      </trkpt>
      <trkpt lat="39.624862" lon="-0.266634">
        <ele>-4.948</ele>
        <time>2022-04-24T09:51:04Z</time>
      </trkpt>
      <trkpt lat="39.624972" lon="-0.266837">
        <ele>-5.014</ele>
        <time>2022-04-24T09:51:14Z</time>
      </trkpt>
      <trkpt lat="39.625092" lon="-0.266944">
        <ele>-5.397</ele>
        <time>2022-04-24T09:51:24Z</time>
      </trkpt>
      <trkpt lat="39.625222" lon="-0.267067">
        <ele>-5.066</ele>
        <time>2022-04-24T09:51:34Z</time>
      </trkpt>
      <trkpt lat="39.625292" lon="-0.267132">
        <ele>-5.173</ele>
        <time>2022-04-24T09:51:39Z</time>
      </trkpt>
      <trkpt lat="39.625368" lon="-0.267204">
        <ele>-4.269</ele>
        <time>2022-04-24T09:51:44Z</time>
      </trkpt>
      <trkpt lat="39.625521" lon="-0.267380">
        <ele>-5.104</ele>
        <time>2022-04-24T09:51:54Z</time>
      </trkpt>
      <trkpt lat="39.625627" lon="-0.267515">
        <ele>-5.424</ele>
        <time>2022-04-24T09:51:59Z</time>
      </trkpt>
      <trkpt lat="39.625888" lon="-0.267786">
        <ele>-5.609</ele>
        <time>2022-04-24T09:52:09Z</time>
      </trkpt>
      <trkpt lat="39.626022" lon="-0.267924">
        <ele>-5.277</ele>
        <time>2022-04-24T09:52:14Z</time>
      </trkpt>
      <trkpt lat="39.626240" lon="-0.268181">
        <ele>-3.526</ele>
        <time>2022-04-24T09:52:24Z</time>
      </trkpt>
      <trkpt lat="39.626165" lon="-0.268379">
        <ele>-2.977</ele>
        <time>2022-04-24T09:52:29Z</time>
      </trkpt>
      <trkpt lat="39.626027" lon="-0.268560">
        <ele>-3.066</ele>
        <time>2022-04-24T09:52:34Z</time>
      </trkpt>
      <trkpt lat="39.625782" lon="-0.268947">
        <ele>-2.663</ele>
        <time>2022-04-24T09:52:44Z</time>
      </trkpt>
      <trkpt lat="39.625610" lon="-0.269340">
        <ele>-2.469</ele>
        <time>2022-04-24T09:52:54Z</time>
      </trkpt>
      <trkpt lat="39.625458" lon="-0.269667">
        <ele>-4.262</ele>
        <time>2022-04-24T09:53:04Z</time>
      </trkpt>
      <trkpt lat="39.625331" lon="-0.269917">
        <ele>-5.491</ele>
        <time>2022-04-24T09:53:14Z</time>
      </trkpt>
      <trkpt lat="39.625245" lon="-0.270136">
        <ele>-4.928</ele>
        <time>2022-04-24T09:53:24Z</time>
      </trkpt>
      <trkpt lat="39.625144" lon="-0.270356">
        <ele>-2.985</ele>
        <time>2022-04-24T09:53:34Z</time>
      </trkpt>
      <trkpt lat="39.625031" lon="-0.270582">
        <ele>-2.389</ele>
        <time>2022-04-24T09:53:44Z</time>
      </trkpt>
      <trkpt lat="39.624917" lon="-0.270838">
        <ele>-1.717</ele>
        <time>2022-04-24T09:53:54Z</time>
      </trkpt>
      <trkpt lat="39.624853" lon="-0.270956">
        <ele>-1.709</ele>
        <time>2022-04-24T09:53:59Z</time>
      </trkpt>
      <trkpt lat="39.624788" lon="-0.271073">
        <ele>-1.289</ele>
        <time>2022-04-24T09:54:04Z</time>
      </trkpt>
      <trkpt lat="39.624708" lon="-0.271259">
        <ele>-0.878</ele>
        <time>2022-04-24T09:54:14Z</time>
      </trkpt>
      <trkpt lat="39.624659" lon="-0.271425">
        <ele>-0.269</ele>
        <time>2022-04-24T09:54:24Z</time>
      </trkpt>
      <trkpt lat="39.624613" lon="-0.271595">
        <ele>-0.328</ele>
        <time>2022-04-24T09:54:34Z</time>
      </trkpt>
      <trkpt lat="39.624526" lon="-0.271767">
        <ele>-1.635</ele>
        <time>2022-04-24T09:54:44Z</time>
      </trkpt>
      <trkpt lat="39.624440" lon="-0.271943">
        <ele>-0.931</ele>
        <time>2022-04-24T09:54:54Z</time>
      </trkpt>
      <trkpt lat="39.624369" lon="-0.272130">
        <ele>-0.454</ele>
        <time>2022-04-24T09:55:04Z</time>
      </trkpt>
      <trkpt lat="39.624328" lon="-0.272210">
        <ele>0.163</ele>
        <time>2022-04-24T09:55:09Z</time>
      </trkpt>
      <trkpt lat="39.624290" lon="-0.272306">
        <ele>0.450</ele>
        <time>2022-04-24T09:55:14Z</time>
      </trkpt>
      <trkpt lat="39.624205" lon="-0.272477">
        <ele>1.318</ele>
        <time>2022-04-24T09:55:24Z</time>
      </trkpt>
      <trkpt lat="39.624142" lon="-0.272603">
        <ele>1.398</ele>
        <time>2022-04-24T09:55:29Z</time>
      </trkpt>
      <trkpt lat="39.624032" lon="-0.272871">
        <ele>1.017</ele>
        <time>2022-04-24T09:55:39Z</time>
      </trkpt>
      <trkpt lat="39.623979" lon="-0.272995">
        <ele>0.209</ele>
        <time>2022-04-24T09:55:44Z</time>
      </trkpt>
      <trkpt lat="39.623775" lon="-0.272952">
        <ele>1.472</ele>
        <time>2022-04-24T09:55:54Z</time>
      </trkpt>
      <trkpt lat="39.623700" lon="-0.272870">
        <ele>1.791</ele>
        <time>2022-04-24T09:55:59Z</time>
      </trkpt>
      <trkpt lat="39.623552" lon="-0.272715">
        <ele>1.682</ele>
        <time>2022-04-24T09:56:09Z</time>
      </trkpt>
      <trkpt lat="39.623496" lon="-0.272653">
        <ele>1.391</ele>
        <time>2022-04-24T09:56:14Z</time>
      </trkpt>
      <trkpt lat="39.623336" lon="-0.272503">
        <ele>1.478</ele>
        <time>2022-04-24T09:56:24Z</time>
      </trkpt>
      <trkpt lat="39.623260" lon="-0.272402">
        <ele>0.914</ele>
        <time>2022-04-24T09:56:29Z</time>
      </trkpt>
      <trkpt lat="39.623205" lon="-0.272292">
        <ele>1.057</ele>
        <time>2022-04-24T09:56:34Z</time>
      </trkpt>
      <trkpt lat="39.623065" lon="-0.272145">
        <ele>0.716</ele>
        <time>2022-04-24T09:56:44Z</time>
      </trkpt>
      <trkpt lat="39.622934" lon="-0.271995">
        <ele>1.213</ele>
        <time>2022-04-24T09:56:54Z</time>
      </trkpt>
      <trkpt lat="39.622814" lon="-0.271845">
        <ele>1.624</ele>
        <time>2022-04-24T09:57:04Z</time>
      </trkpt>
      <trkpt lat="39.622741" lon="-0.271769">
        <ele>1.704</ele>
        <time>2022-04-24T09:57:09Z</time>
      </trkpt>
      <trkpt lat="39.622670" lon="-0.271690">
        <ele>1.614</ele>
        <time>2022-04-24T09:57:14Z</time>
      </trkpt>
      <trkpt lat="39.622547" lon="-0.271527">
        <ele>1.109</ele>
        <time>2022-04-24T09:57:24Z</time>
      </trkpt>
      <trkpt lat="39.622414" lon="-0.271384">
        <ele>0.813</ele>
        <time>2022-04-24T09:57:34Z</time>
      </trkpt>
      <trkpt lat="39.622376" lon="-0.271343">
        <ele>0.812</ele>
        <time>2022-04-24T09:57:44Z</time>
      </trkpt>
      <trkpt lat="39.622302" lon="-0.271274">
        <ele>0.813</ele>
        <time>2022-04-24T09:57:54Z</time>
      </trkpt>
      <trkpt lat="39.622257" lon="-0.271245">
        <ele>0.832</ele>
        <time>2022-04-24T09:57:59Z</time>
      </trkpt>
      <trkpt lat="39.622243" lon="-0.271233">
        <ele>1.449</ele>
        <time>2022-04-24T09:58:05Z</time>
      </trkpt>
      <trkpt lat="39.622151" lon="-0.271193">
        <ele>1.325</ele>
        <time>2022-04-24T09:58:10Z</time>
      </trkpt>
      <trkpt lat="39.622023" lon="-0.271148">
        <ele>0.888</ele>
        <time>2022-04-24T09:58:15Z</time>
      </trkpt>
      <trkpt lat="39.621878" lon="-0.271099">
        <ele>0.577</ele>
        <time>2022-04-24T09:58:20Z</time>
      </trkpt>
      <trkpt lat="39.621623" lon="-0.271063">
        <ele>0.334</ele>
        <time>2022-04-24T09:58:30Z</time>
      </trkpt>
      <trkpt lat="39.621370" lon="-0.271170">
        <ele>-1.132</ele>
        <time>2022-04-24T09:58:40Z</time>
      </trkpt>
      <trkpt lat="39.621240" lon="-0.271213">
        <ele>-1.592</ele>
        <time>2022-04-24T09:58:45Z</time>
      </trkpt>
      <trkpt lat="39.621104" lon="-0.271256">
        <ele>-1.411</ele>
        <time>2022-04-24T09:58:50Z</time>
      </trkpt>
      <trkpt lat="39.620872" lon="-0.271342">
        <ele>-1.809</ele>
        <time>2022-04-24T09:59:00Z</time>
      </trkpt>
      <trkpt lat="39.620796" lon="-0.271376">
        <ele>-1.714</ele>
        <time>2022-04-24T09:59:05Z</time>
      </trkpt>
      <trkpt lat="39.620697" lon="-0.271312">
        <ele>0.373</ele>
        <time>2022-04-24T09:59:15Z</time>
      </trkpt>
      <trkpt lat="39.620662" lon="-0.271286">
        <ele>0.134</ele>
        <time>2022-04-24T09:59:20Z</time>
      </trkpt>
      <trkpt lat="39.620555" lon="-0.271089">
        <ele>-0.523</ele>
        <time>2022-04-24T09:59:30Z</time>
      </trkpt>
      <trkpt lat="39.620487" lon="-0.271058">
        <ele>0.420</ele>
        <time>2022-04-24T09:59:35Z</time>
      </trkpt>
      <trkpt lat="39.620479" lon="-0.271064">
        <ele>1.176</ele>
        <time>2022-04-24T09:59:40Z</time>
      </trkpt>
      <trkpt lat="39.620457" lon="-0.271063">
        <ele>0.499</ele>
        <time>2022-04-24T10:00:08Z</time>
      </trkpt>
      <trkpt lat="39.620328" lon="-0.270867">
        <ele>0.218</ele>
        <time>2022-04-24T10:00:18Z</time>
      </trkpt>
      <trkpt lat="39.620240" lon="-0.270665">
        <ele>0.735</ele>
        <time>2022-04-24T10:00:23Z</time>
      </trkpt>
      <trkpt lat="39.620038" lon="-0.270255">
        <ele>1.781</ele>
        <time>2022-04-24T10:00:33Z</time>
      </trkpt>
      <trkpt lat="39.619942" lon="-0.270050">
        <ele>1.661</ele>
        <time>2022-04-24T10:00:38Z</time>
      </trkpt>
      <trkpt lat="39.619827" lon="-0.269823">
        <ele>1.917</ele>
        <time>2022-04-24T10:00:43Z</time>
      </trkpt>
      <trkpt lat="39.619578" lon="-0.269319">
        <ele>2.409</ele>
        <time>2022-04-24T10:00:53Z</time>
      </trkpt>
      <trkpt lat="39.619463" lon="-0.269091">
        <ele>2.629</ele>
        <time>2022-04-24T10:00:58Z</time>
      </trkpt>
      <trkpt lat="39.619313" lon="-0.269065">
        <ele>2.028</ele>
        <time>2022-04-24T10:01:03Z</time>
      </trkpt>
      <trkpt lat="39.619230" lon="-0.268952">
        <ele>-0.419</ele>
        <time>2022-04-24T10:01:13Z</time>
      </trkpt>
      <trkpt lat="39.619153" lon="-0.268805">
        <ele>-0.658</ele>
        <time>2022-04-24T10:01:18Z</time>
      </trkpt>
      <trkpt lat="39.618933" lon="-0.268344">
        <ele>-0.115</ele>
        <time>2022-04-24T10:01:28Z</time>
      </trkpt>
      <trkpt lat="39.618816" lon="-0.268095">
        <ele>-0.111</ele>
        <time>2022-04-24T10:01:33Z</time>
      </trkpt>
      <trkpt lat="39.618692" lon="-0.267842">
        <ele>0.484</ele>
        <time>2022-04-24T10:01:38Z</time>
      </trkpt>
      <trkpt lat="39.618488" lon="-0.267416">
        <ele>1.313</ele>
        <time>2022-04-24T10:01:46Z</time>
      </trkpt>
      <trkpt lat="39.618310" lon="-0.267053">
        <ele>0.930</ele>
        <time>2022-04-24T10:01:53Z</time>
      </trkpt>
      <trkpt lat="39.618057" lon="-0.266989">
        <ele>0.478</ele>
        <time>2022-04-24T10:02:01Z</time>
      </trkpt>
      <trkpt lat="39.617890" lon="-0.266995">
        <ele>1.033</ele>
        <time>2022-04-24T10:02:08Z</time>
      </trkpt>
      <trkpt lat="39.617809" lon="-0.266835">
        <ele>0.226</ele>
        <time>2022-04-24T10:02:16Z</time>
      </trkpt>
      <trkpt lat="39.617934" lon="-0.266780">
        <ele>0.409</ele>
        <time>2022-04-24T10:02:23Z</time>
      </trkpt>
      <trkpt lat="39.618110" lon="-0.266657">
        <ele>0.818</ele>
        <time>2022-04-24T10:02:28Z</time>
      </trkpt>
      <trkpt lat="39.618180" lon="-0.266376">
        <ele>1.877</ele>
        <time>2022-04-24T10:02:36Z</time>
      </trkpt>
      <trkpt lat="39.618077" lon="-0.266161">
        <ele>1.818</ele>
        <time>2022-04-24T10:02:41Z</time>
      </trkpt>
      <trkpt lat="39.617956" lon="-0.265911">
        <ele>1.667</ele>
        <time>2022-04-24T10:02:46Z</time>
      </trkpt>
      <trkpt lat="39.617777" lon="-0.265542">
        <ele>1.634</ele>
        <time>2022-04-24T10:02:53Z</time>
      </trkpt>
      <trkpt lat="39.617664" lon="-0.265319">
        <ele>2.370</ele>
        <time>2022-04-24T10:02:58Z</time>
      </trkpt>
      <trkpt lat="39.617503" lon="-0.264976">
        <ele>1.863</ele>
        <time>2022-04-24T10:03:06Z</time>
      </trkpt>
      <trkpt lat="39.617326" lon="-0.264613">
        <ele>1.822</ele>
        <time>2022-04-24T10:03:13Z</time>
      </trkpt>
      <trkpt lat="39.617258" lon="-0.264347">
        <ele>1.969</ele>
        <time>2022-04-24T10:03:18Z</time>
      </trkpt>
      <trkpt lat="39.617205" lon="-0.264084">
        <ele>1.832</ele>
        <time>2022-04-24T10:03:23Z</time>
      </trkpt>
      <trkpt lat="39.617143" lon="-0.263736">
        <ele>1.892</ele>
        <time>2022-04-24T10:03:31Z</time>
      </trkpt>
      <trkpt lat="39.617075" lon="-0.263454">
        <ele>1.911</ele>
        <time>2022-04-24T10:03:38Z</time>
      </trkpt>
      <trkpt lat="39.616985" lon="-0.262996">
        <ele>1.909</ele>
        <time>2022-04-24T10:03:46Z</time>
      </trkpt>
      <trkpt lat="39.616904" lon="-0.262582">
        <ele>1.914</ele>
        <time>2022-04-24T10:03:53Z</time>
      </trkpt>
      <trkpt lat="39.616806" lon="-0.262139">
        <ele>2.383</ele>
        <time>2022-04-24T10:04:01Z</time>
      </trkpt>
      <trkpt lat="39.616719" lon="-0.261709">
        <ele>2.014</ele>
        <time>2022-04-24T10:04:08Z</time>
      </trkpt>
      <trkpt lat="39.616622" lon="-0.261252">
        <ele>2.953</ele>
        <time>2022-04-24T10:04:16Z</time>
      </trkpt>
      <trkpt lat="39.616547" lon="-0.260884">
        <ele>2.860</ele>
        <time>2022-04-24T10:04:23Z</time>
      </trkpt>
      <trkpt lat="39.616484" lon="-0.260531">
        <ele>2.256</ele>
        <time>2022-04-24T10:04:31Z</time>
      </trkpt>
      <trkpt lat="39.616421" lon="-0.260269">
        <ele>1.799</ele>
        <time>2022-04-24T10:04:36Z</time>
      </trkpt>
      <trkpt lat="39.616383" lon="-0.260055">
        <ele>1.118</ele>
        <time>2022-04-24T10:04:41Z</time>
      </trkpt>
      <trkpt lat="39.616411" lon="-0.259785">
        <ele>-0.495</ele>
        <time>2022-04-24T10:04:48Z</time>
      </trkpt>
      <trkpt lat="39.616407" lon="-0.259674">
        <ele>-0.877</ele>
        <time>2022-04-24T10:04:53Z</time>
      </trkpt>
      <trkpt lat="39.616378" lon="-0.259672">
        <ele>-0.261</ele>
        <time>2022-04-24T10:05:01Z</time>
      </trkpt>
      <trkpt lat="39.616350" lon="-0.259659">
        <ele>0.527</ele>
        <time>2022-04-24T10:05:08Z</time>
      </trkpt>
      <trkpt lat="39.616201" lon="-0.259603">
        <ele>2.509</ele>
        <time>2022-04-24T10:05:16Z</time>
      </trkpt>
      <trkpt lat="39.616014" lon="-0.259535">
        <ele>3.198</ele>
        <time>2022-04-24T10:05:21Z</time>
      </trkpt>
      <trkpt lat="39.615807" lon="-0.259457">
        <ele>3.577</ele>
        <time>2022-04-24T10:05:26Z</time>
      </trkpt>
      <trkpt lat="39.615556" lon="-0.259442">
        <ele>4.168</ele>
        <time>2022-04-24T10:05:33Z</time>
      </trkpt>
      <trkpt lat="39.615465" lon="-0.259539">
        <ele>3.567</ele>
        <time>2022-04-24T10:05:38Z</time>
      </trkpt>
      <trkpt lat="39.615423" lon="-0.259624">
        <ele>3.374</ele>
        <time>2022-04-24T10:05:46Z</time>
      </trkpt>
      <trkpt lat="39.615262" lon="-0.259668">
        <ele>3.450</ele>
        <time>2022-04-24T10:05:53Z</time>
      </trkpt>
      <trkpt lat="39.615126" lon="-0.259757">
        <ele>4.663</ele>
        <time>2022-04-24T10:05:58Z</time>
      </trkpt>
      <trkpt lat="39.614909" lon="-0.260040">
        <ele>4.592</ele>
        <time>2022-04-24T10:06:06Z</time>
      </trkpt>
      <trkpt lat="39.614717" lon="-0.260227">
        <ele>4.339</ele>
        <time>2022-04-24T10:06:13Z</time>
      </trkpt>
      <trkpt lat="39.614557" lon="-0.260378">
        <ele>4.389</ele>
        <time>2022-04-24T10:06:18Z</time>
      </trkpt>
      <trkpt lat="39.614296" lon="-0.260624">
        <ele>4.106</ele>
        <time>2022-04-24T10:06:26Z</time>
      </trkpt>
      <trkpt lat="39.614102" lon="-0.260816">
        <ele>3.426</ele>
        <time>2022-04-24T10:06:33Z</time>
      </trkpt>
      <trkpt lat="39.613986" lon="-0.260932">
        <ele>3.509</ele>
        <time>2022-04-24T10:06:38Z</time>
      </trkpt>
      <trkpt lat="39.613806" lon="-0.261114">
        <ele>1.979</ele>
        <time>2022-04-24T10:06:46Z</time>
      </trkpt>
      <trkpt lat="39.613631" lon="-0.261249">
        <ele>0.518</ele>
        <time>2022-04-24T10:06:53Z</time>
      </trkpt>
      <trkpt lat="39.613533" lon="-0.261345">
        <ele>1.489</ele>
        <time>2022-04-24T10:06:58Z</time>
      </trkpt>
      <trkpt lat="39.613420" lon="-0.261404">
        <ele>1.478</ele>
        <time>2022-04-24T10:07:03Z</time>
      </trkpt>
      <trkpt lat="39.613276" lon="-0.261479">
        <ele>1.725</ele>
        <time>2022-04-24T10:07:08Z</time>
      </trkpt>
      <trkpt lat="39.613050" lon="-0.261656">
        <ele>1.311</ele>
        <time>2022-04-24T10:07:16Z</time>
      </trkpt>
      <trkpt lat="39.612892" lon="-0.261766">
        <ele>1.524</ele>
        <time>2022-04-24T10:07:21Z</time>
      </trkpt>
      <trkpt lat="39.612728" lon="-0.261887">
        <ele>1.773</ele>
        <time>2022-04-24T10:07:26Z</time>
      </trkpt>
      <trkpt lat="39.612511" lon="-0.262067">
        <ele>1.730</ele>
        <time>2022-04-24T10:07:33Z</time>
      </trkpt>
      <trkpt lat="39.612347" lon="-0.262216">
        <ele>1.955</ele>
        <time>2022-04-24T10:07:38Z</time>
      </trkpt>
      <trkpt lat="39.612055" lon="-0.262441">
        <ele>2.207</ele>
        <time>2022-04-24T10:07:46Z</time>
      </trkpt>
      <trkpt lat="39.611796" lon="-0.262628">
        <ele>1.717</ele>
        <time>2022-04-24T10:07:53Z</time>
      </trkpt>
      <trkpt lat="39.611614" lon="-0.262780">
        <ele>0.809</ele>
        <time>2022-04-24T10:07:58Z</time>
      </trkpt>
      <trkpt lat="39.611420" lon="-0.262915">
        <ele>0.696</ele>
        <time>2022-04-24T10:08:03Z</time>
      </trkpt>
      <trkpt lat="39.611211" lon="-0.263037">
        <ele>0.845</ele>
        <time>2022-04-24T10:08:08Z</time>
      </trkpt>
      <trkpt lat="39.610902" lon="-0.263296">
        <ele>0.846</ele>
        <time>2022-04-24T10:08:16Z</time>
      </trkpt>
      <trkpt lat="39.610699" lon="-0.263436">
        <ele>1.875</ele>
        <time>2022-04-24T10:08:21Z</time>
      </trkpt>
      <trkpt lat="39.610500" lon="-0.263561">
        <ele>2.252</ele>
        <time>2022-04-24T10:08:26Z</time>
      </trkpt>
      <trkpt lat="39.610319" lon="-0.263648">
        <ele>1.948</ele>
        <time>2022-04-24T10:08:31Z</time>
      </trkpt>
      <trkpt lat="39.610042" lon="-0.263734">
        <ele>1.251</ele>
        <time>2022-04-24T10:08:38Z</time>
      </trkpt>
      <trkpt lat="39.609720" lon="-0.263913">
        <ele>2.090</ele>
        <time>2022-04-24T10:08:46Z</time>
      </trkpt>
      <trkpt lat="39.609446" lon="-0.264082">
        <ele>1.387</ele>
        <time>2022-04-24T10:08:53Z</time>
      </trkpt>
      <trkpt lat="39.609245" lon="-0.264201">
        <ele>1.437</ele>
        <time>2022-04-24T10:08:58Z</time>
      </trkpt>
      <trkpt lat="39.608845" lon="-0.264462">
        <ele>-0.149</ele>
        <time>2022-04-24T10:09:08Z</time>
      </trkpt>
      <trkpt lat="39.608432" lon="-0.264712">
        <ele>-1.013</ele>
        <time>2022-04-24T10:09:18Z</time>
      </trkpt>
      <trkpt lat="39.608213" lon="-0.264818">
        <ele>-0.209</ele>
        <time>2022-04-24T10:09:23Z</time>
      </trkpt>
      <trkpt lat="39.608021" lon="-0.264911">
        <ele>-0.214</ele>
        <time>2022-04-24T10:09:28Z</time>
      </trkpt>
      <trkpt lat="39.607705" lon="-0.264990">
        <ele>1.733</ele>
        <time>2022-04-24T10:09:38Z</time>
      </trkpt>
      <trkpt lat="39.607472" lon="-0.265098">
        <ele>3.074</ele>
        <time>2022-04-24T10:09:48Z</time>
      </trkpt>
      <trkpt lat="39.607286" lon="-0.265095">
        <ele>3.953</ele>
        <time>2022-04-24T10:09:53Z</time>
      </trkpt>
      <trkpt lat="39.606904" lon="-0.265203">
        <ele>4.860</ele>
        <time>2022-04-24T10:10:03Z</time>
      </trkpt>
      <trkpt lat="39.606764" lon="-0.265312">
        <ele>4.836</ele>
        <time>2022-04-24T10:10:08Z</time>
      </trkpt>
      <trkpt lat="39.606775" lon="-0.265479">
        <ele>5.069</ele>
        <time>2022-04-24T10:10:18Z</time>
      </trkpt>
      <trkpt lat="39.606822" lon="-0.265470">
        <ele>4.718</ele>
        <time>2022-04-24T10:10:28Z</time>
      </trkpt>
      <trkpt lat="39.606813" lon="-0.265467">
        <ele>4.895</ele>
        <time>2022-04-24T10:13:29Z</time>
      </trkpt>
      <trkpt lat="39.606792" lon="-0.265461">
        <ele>5.071</ele>
        <time>2022-04-24T10:20:53Z</time>
      </trkpt>
      <trkpt lat="39.606741" lon="-0.265446">
        <ele>3.741</ele>
        <time>2022-04-24T10:21:02Z</time>
      </trkpt>
      <trkpt lat="39.606631" lon="-0.265459">
        <ele>3.015</ele>
        <time>2022-04-24T10:21:08Z</time>
      </trkpt>
      <trkpt lat="39.606456" lon="-0.265654">
        <ele>3.509</ele>
        <time>2022-04-24T10:21:17Z</time>
      </trkpt>
      <trkpt lat="39.606327" lon="-0.265734">
        <ele>3.598</ele>
        <time>2022-04-24T10:21:22Z</time>
      </trkpt>
      <trkpt lat="39.606212" lon="-0.265745">
        <ele>2.717</ele>
        <time>2022-04-24T10:21:27Z</time>
      </trkpt>
      <trkpt lat="39.606079" lon="-0.265848">
        <ele>2.688</ele>
        <time>2022-04-24T10:21:32Z</time>
      </trkpt>
      <trkpt lat="39.605914" lon="-0.265941">
        <ele>3.017</ele>
        <time>2022-04-24T10:21:38Z</time>
      </trkpt>
      <trkpt lat="39.605662" lon="-0.266127">
        <ele>3.714</ele>
        <time>2022-04-24T10:21:47Z</time>
      </trkpt>
      <trkpt lat="39.605480" lon="-0.266224">
        <ele>3.690</ele>
        <time>2022-04-24T10:21:53Z</time>
      </trkpt>
      <trkpt lat="39.605207" lon="-0.266380">
        <ele>2.423</ele>
        <time>2022-04-24T10:22:02Z</time>
      </trkpt>
      <trkpt lat="39.605056" lon="-0.266474">
        <ele>2.182</ele>
        <time>2022-04-24T10:22:08Z</time>
      </trkpt>
      <trkpt lat="39.604793" lon="-0.266638">
        <ele>1.819</ele>
        <time>2022-04-24T10:22:17Z</time>
      </trkpt>
      <trkpt lat="39.604607" lon="-0.266736">
        <ele>2.272</ele>
        <time>2022-04-24T10:22:23Z</time>
      </trkpt>
      <trkpt lat="39.604425" lon="-0.266838">
        <ele>1.913</ele>
        <time>2022-04-24T10:22:28Z</time>
      </trkpt>
      <trkpt lat="39.604099" lon="-0.267012">
        <ele>1.814</ele>
        <time>2022-04-24T10:22:37Z</time>
      </trkpt>
      <trkpt lat="39.603944" lon="-0.267031">
        <ele>1.909</ele>
        <time>2022-04-24T10:22:42Z</time>
      </trkpt>
      <trkpt lat="39.603752" lon="-0.267040">
        <ele>2.258</ele>
        <time>2022-04-24T10:22:48Z</time>
      </trkpt>
      <trkpt lat="39.603593" lon="-0.267162">
        <ele>2.427</ele>
        <time>2022-04-24T10:22:53Z</time>
      </trkpt>
      <trkpt lat="39.603399" lon="-0.267230">
        <ele>3.088</ele>
        <time>2022-04-24T10:22:58Z</time>
      </trkpt>
      <trkpt lat="39.603203" lon="-0.267301">
        <ele>2.147</ele>
        <time>2022-04-24T10:23:03Z</time>
      </trkpt>
      <trkpt lat="39.603010" lon="-0.267336">
        <ele>1.764</ele>
        <time>2022-04-24T10:23:08Z</time>
      </trkpt>
      <trkpt lat="39.602684" lon="-0.267429">
        <ele>2.210</ele>
        <time>2022-04-24T10:23:17Z</time>
      </trkpt>
      <trkpt lat="39.602491" lon="-0.267523">
        <ele>3.913</ele>
        <time>2022-04-24T10:23:23Z</time>
      </trkpt>
      <trkpt lat="39.602159" lon="-0.267624">
        <ele>4.462</ele>
        <time>2022-04-24T10:23:32Z</time>
      </trkpt>
      <trkpt lat="39.601738" lon="-0.267765">
        <ele>3.599</ele>
        <time>2022-04-24T10:23:42Z</time>
      </trkpt>
      <trkpt lat="39.601344" lon="-0.267892">
        <ele>2.888</ele>
        <time>2022-04-24T10:23:52Z</time>
      </trkpt>
      <trkpt lat="39.601177" lon="-0.267859">
        <ele>3.824</ele>
        <time>2022-04-24T10:23:57Z</time>
      </trkpt>
      <trkpt lat="39.600991" lon="-0.267942">
        <ele>3.726</ele>
        <time>2022-04-24T10:24:02Z</time>
      </trkpt>
      <trkpt lat="39.600611" lon="-0.268132">
        <ele>2.109</ele>
        <time>2022-04-24T10:24:12Z</time>
      </trkpt>
      <trkpt lat="39.600215" lon="-0.268268">
        <ele>0.359</ele>
        <time>2022-04-24T10:24:22Z</time>
      </trkpt>
      <trkpt lat="39.600043" lon="-0.268312">
        <ele>-0.188</ele>
        <time>2022-04-24T10:24:27Z</time>
      </trkpt>
      <trkpt lat="39.599955" lon="-0.268292">
        <ele>1.339</ele>
        <time>2022-04-24T10:24:32Z</time>
      </trkpt>
      <trkpt lat="39.599612" lon="-0.268364">
        <ele>1.288</ele>
        <time>2022-04-24T10:24:42Z</time>
      </trkpt>
      <trkpt lat="39.599239" lon="-0.268529">
        <ele>1.455</ele>
        <time>2022-04-24T10:24:52Z</time>
      </trkpt>
      <trkpt lat="39.599074" lon="-0.268559">
        <ele>1.261</ele>
        <time>2022-04-24T10:25:02Z</time>
      </trkpt>
      <trkpt lat="39.598988" lon="-0.268544">
        <ele>0.824</ele>
        <time>2022-04-24T10:25:24Z</time>
      </trkpt>
      <trkpt lat="39.598734" lon="-0.268711">
        <ele>1.263</ele>
        <time>2022-04-24T10:25:34Z</time>
      </trkpt>
      <trkpt lat="39.598532" lon="-0.269022">
        <ele>2.040</ele>
        <time>2022-04-24T10:25:44Z</time>
      </trkpt>
      <trkpt lat="39.598554" lon="-0.269243">
        <ele>2.227</ele>
        <time>2022-04-24T10:25:54Z</time>
      </trkpt>
      <trkpt lat="39.598536" lon="-0.269725">
        <ele>3.668</ele>
        <time>2022-04-24T10:26:04Z</time>
      </trkpt>
      <trkpt lat="39.598566" lon="-0.270019">
        <ele>3.614</ele>
        <time>2022-04-24T10:26:09Z</time>
      </trkpt>
      <trkpt lat="39.598479" lon="-0.270211">
        <ele>4.409</ele>
        <time>2022-04-24T10:26:14Z</time>
      </trkpt>
      <trkpt lat="39.598074" lon="-0.270166">
        <ele>3.743</ele>
        <time>2022-04-24T10:26:24Z</time>
      </trkpt>
      <trkpt lat="39.597936" lon="-0.269851">
        <ele>2.722</ele>
        <time>2022-04-24T10:26:29Z</time>
      </trkpt>
      <trkpt lat="39.597656" lon="-0.269366">
        <ele>2.973</ele>
        <time>2022-04-24T10:26:39Z</time>
      </trkpt>
      <trkpt lat="39.597434" lon="-0.269375">
        <ele>2.692</ele>
        <time>2022-04-24T10:26:44Z</time>
      </trkpt>
      <trkpt lat="39.597012" lon="-0.269504">
        <ele>2.589</ele>
        <time>2022-04-24T10:26:54Z</time>
      </trkpt>
      <trkpt lat="39.596782" lon="-0.269561">
        <ele>2.895</ele>
        <time>2022-04-24T10:26:59Z</time>
      </trkpt>
      <trkpt lat="39.596336" lon="-0.269643">
        <ele>3.258</ele>
        <time>2022-04-24T10:27:09Z</time>
      </trkpt>
      <trkpt lat="39.596116" lon="-0.269718">
        <ele>3.557</ele>
        <time>2022-04-24T10:27:14Z</time>
      </trkpt>
      <trkpt lat="39.595767" lon="-0.269798">
        <ele>3.074</ele>
        <time>2022-04-24T10:27:24Z</time>
      </trkpt>
      <trkpt lat="39.595565" lon="-0.269846">
        <ele>2.356</ele>
        <time>2022-04-24T10:27:29Z</time>
      </trkpt>
      <trkpt lat="39.595160" lon="-0.269986">
        <ele>2.759</ele>
        <time>2022-04-24T10:27:39Z</time>
      </trkpt>
      <trkpt lat="39.594955" lon="-0.270029">
        <ele>2.814</ele>
        <time>2022-04-24T10:27:44Z</time>
      </trkpt>
      <trkpt lat="39.594536" lon="-0.270128">
        <ele>2.609</ele>
        <time>2022-04-24T10:27:54Z</time>
      </trkpt>
      <trkpt lat="39.594098" lon="-0.270207">
        <ele>2.596</ele>
        <time>2022-04-24T10:28:04Z</time>
      </trkpt>
      <trkpt lat="39.593874" lon="-0.270255">
        <ele>2.135</ele>
        <time>2022-04-24T10:28:09Z</time>
      </trkpt>
      <trkpt lat="39.593659" lon="-0.270324">
        <ele>2.176</ele>
        <time>2022-04-24T10:28:14Z</time>
      </trkpt>
      <trkpt lat="39.593234" lon="-0.270442">
        <ele>2.075</ele>
        <time>2022-04-24T10:28:24Z</time>
      </trkpt>
      <trkpt lat="39.592848" lon="-0.270523">
        <ele>2.052</ele>
        <time>2022-04-24T10:28:34Z</time>
      </trkpt>
      <trkpt lat="39.592649" lon="-0.270569">
        <ele>1.968</ele>
        <time>2022-04-24T10:28:39Z</time>
      </trkpt>
      <trkpt lat="39.592443" lon="-0.270618">
        <ele>2.121</ele>
        <time>2022-04-24T10:28:44Z</time>
      </trkpt>
      <trkpt lat="39.592066" lon="-0.270764">
        <ele>2.260</ele>
        <time>2022-04-24T10:28:54Z</time>
      </trkpt>
      <trkpt lat="39.591706" lon="-0.270783">
        <ele>2.027</ele>
        <time>2022-04-24T10:29:04Z</time>
      </trkpt>
      <trkpt lat="39.591521" lon="-0.270834">
        <ele>2.044</ele>
        <time>2022-04-24T10:29:09Z</time>
      </trkpt>
      <trkpt lat="39.591332" lon="-0.270883">
        <ele>1.805</ele>
        <time>2022-04-24T10:29:14Z</time>
      </trkpt>
      <trkpt lat="39.590917" lon="-0.270999">
        <ele>2.115</ele>
        <time>2022-04-24T10:29:24Z</time>
      </trkpt>
      <trkpt lat="39.590526" lon="-0.271158">
        <ele>2.809</ele>
        <time>2022-04-24T10:29:34Z</time>
      </trkpt>
      <trkpt lat="39.590329" lon="-0.271259">
        <ele>3.075</ele>
        <time>2022-04-24T10:29:39Z</time>
      </trkpt>
      <trkpt lat="39.590108" lon="-0.271345">
        <ele>3.554</ele>
        <time>2022-04-24T10:29:44Z</time>
      </trkpt>
      <trkpt lat="39.589685" lon="-0.271500">
        <ele>4.125</ele>
        <time>2022-04-24T10:29:54Z</time>
      </trkpt>
      <trkpt lat="39.589285" lon="-0.271624">
        <ele>3.994</ele>
        <time>2022-04-24T10:30:04Z</time>
      </trkpt>
      <trkpt lat="39.589078" lon="-0.271675">
        <ele>4.061</ele>
        <time>2022-04-24T10:30:09Z</time>
      </trkpt>
      <trkpt lat="39.588939" lon="-0.271796">
        <ele>4.057</ele>
        <time>2022-04-24T10:30:14Z</time>
      </trkpt>
      <trkpt lat="39.588752" lon="-0.271883">
        <ele>2.530</ele>
        <time>2022-04-24T10:30:24Z</time>
      </trkpt>
      <trkpt lat="39.588664" lon="-0.271950">
        <ele>3.419</ele>
        <time>2022-04-24T10:30:34Z</time>
      </trkpt>
      <trkpt lat="39.588532" lon="-0.271995">
        <ele>4.016</ele>
        <time>2022-04-24T10:30:58Z</time>
      </trkpt>
      <trkpt lat="39.588348" lon="-0.272063">
        <ele>3.743</ele>
        <time>2022-04-24T10:31:03Z</time>
      </trkpt>
      <trkpt lat="39.588155" lon="-0.272115">
        <ele>3.364</ele>
        <time>2022-04-24T10:31:08Z</time>
      </trkpt>
      <trkpt lat="39.587793" lon="-0.272212">
        <ele>3.510</ele>
        <time>2022-04-24T10:31:18Z</time>
      </trkpt>
      <trkpt lat="39.587604" lon="-0.272292">
        <ele>3.909</ele>
        <time>2022-04-24T10:31:23Z</time>
      </trkpt>
      <trkpt lat="39.587203" lon="-0.272401">
        <ele>4.225</ele>
        <time>2022-04-24T10:31:33Z</time>
      </trkpt>
      <trkpt lat="39.586996" lon="-0.272454">
        <ele>4.514</ele>
        <time>2022-04-24T10:31:38Z</time>
      </trkpt>
      <trkpt lat="39.586588" lon="-0.272544">
        <ele>4.915</ele>
        <time>2022-04-24T10:31:48Z</time>
      </trkpt>
      <trkpt lat="39.586386" lon="-0.272596">
        <ele>4.594</ele>
        <time>2022-04-24T10:31:53Z</time>
      </trkpt>
      <trkpt lat="39.586171" lon="-0.272636">
        <ele>4.271</ele>
        <time>2022-04-24T10:31:58Z</time>
      </trkpt>
      <trkpt lat="39.585952" lon="-0.272671">
        <ele>4.447</ele>
        <time>2022-04-24T10:32:03Z</time>
      </trkpt>
      <trkpt lat="39.585721" lon="-0.272727">
        <ele>4.280</ele>
        <time>2022-04-24T10:32:08Z</time>
      </trkpt>
      <trkpt lat="39.585255" lon="-0.272837">
        <ele>3.699</ele>
        <time>2022-04-24T10:32:18Z</time>
      </trkpt>
      <trkpt lat="39.584886" lon="-0.272949">
        <ele>3.996</ele>
        <time>2022-04-24T10:32:28Z</time>
      </trkpt>
      <trkpt lat="39.584739" lon="-0.272899">
        <ele>4.126</ele>
        <time>2022-04-24T10:32:38Z</time>
      </trkpt>
      <trkpt lat="39.584516" lon="-0.272841">
        <ele>3.047</ele>
        <time>2022-04-24T10:32:48Z</time>
      </trkpt>
      <trkpt lat="39.584283" lon="-0.272827">
        <ele>2.811</ele>
        <time>2022-04-24T10:32:58Z</time>
      </trkpt>
      <trkpt lat="39.584070" lon="-0.272878">
        <ele>4.609</ele>
        <time>2022-04-24T10:33:08Z</time>
      </trkpt>
      <trkpt lat="39.583746" lon="-0.272939">
        <ele>4.823</ele>
        <time>2022-04-24T10:33:18Z</time>
      </trkpt>
      <trkpt lat="39.583631" lon="-0.272995">
        <ele>3.672</ele>
        <time>2022-04-24T10:33:23Z</time>
      </trkpt>
      <trkpt lat="39.583389" lon="-0.273162">
        <ele>2.273</ele>
        <time>2022-04-24T10:33:33Z</time>
      </trkpt>
      <trkpt lat="39.583233" lon="-0.273179">
        <ele>1.512</ele>
        <time>2022-04-24T10:33:38Z</time>
      </trkpt>
      <trkpt lat="39.582887" lon="-0.273236">
        <ele>1.179</ele>
        <time>2022-04-24T10:33:48Z</time>
      </trkpt>
      <trkpt lat="39.582774" lon="-0.273189">
        <ele>1.665</ele>
        <time>2022-04-24T10:33:53Z</time>
      </trkpt>
      <trkpt lat="39.582456" lon="-0.273299">
        <ele>1.518</ele>
        <time>2022-04-24T10:34:03Z</time>
      </trkpt>
      <trkpt lat="39.582264" lon="-0.273358">
        <ele>1.437</ele>
        <time>2022-04-24T10:34:08Z</time>
      </trkpt>
      <trkpt lat="39.581919" lon="-0.273459">
        <ele>1.724</ele>
        <time>2022-04-24T10:34:18Z</time>
      </trkpt>
      <trkpt lat="39.581600" lon="-0.273563">
        <ele>1.395</ele>
        <time>2022-04-24T10:34:28Z</time>
      </trkpt>
      <trkpt lat="39.581425" lon="-0.273624">
        <ele>1.049</ele>
        <time>2022-04-24T10:34:33Z</time>
      </trkpt>
      <trkpt lat="39.581230" lon="-0.273684">
        <ele>0.723</ele>
        <time>2022-04-24T10:34:38Z</time>
      </trkpt>
      <trkpt lat="39.580855" lon="-0.273785">
        <ele>1.409</ele>
        <time>2022-04-24T10:34:48Z</time>
      </trkpt>
      <trkpt lat="39.580671" lon="-0.273844">
        <ele>1.020</ele>
        <time>2022-04-24T10:34:53Z</time>
      </trkpt>
      <trkpt lat="39.580503" lon="-0.273879">
        <ele>0.879</ele>
        <time>2022-04-24T10:34:58Z</time>
      </trkpt>
      <trkpt lat="39.580368" lon="-0.273908">
        <ele>0.690</ele>
        <time>2022-04-24T10:35:03Z</time>
      </trkpt>
      <trkpt lat="39.580264" lon="-0.273926">
        <ele>1.599</ele>
        <time>2022-04-24T10:35:08Z</time>
      </trkpt>
      <trkpt lat="39.579994" lon="-0.273971">
        <ele>1.736</ele>
        <time>2022-04-24T10:35:18Z</time>
      </trkpt>
      <trkpt lat="39.579865" lon="-0.274016">
        <ele>0.822</ele>
        <time>2022-04-24T10:35:23Z</time>
      </trkpt>
      <trkpt lat="39.579745" lon="-0.274033">
        <ele>0.335</ele>
        <time>2022-04-24T10:35:33Z</time>
      </trkpt>
      <trkpt lat="39.579632" lon="-0.274070">
        <ele>1.124</ele>
        <time>2022-04-24T10:35:38Z</time>
      </trkpt>
      <trkpt lat="39.579468" lon="-0.274194">
        <ele>2.131</ele>
        <time>2022-04-24T10:35:48Z</time>
      </trkpt>
      <trkpt lat="39.579454" lon="-0.274341">
        <ele>2.398</ele>
        <time>2022-04-24T10:35:53Z</time>
      </trkpt>
      <trkpt lat="39.579242" lon="-0.274435">
        <ele>1.515</ele>
        <time>2022-04-24T10:36:03Z</time>
      </trkpt>
      <trkpt lat="39.579158" lon="-0.274466">
        <ele>2.126</ele>
        <time>2022-04-24T10:36:08Z</time>
      </trkpt>
      <trkpt lat="39.578997" lon="-0.274435">
        <ele>1.809</ele>
        <time>2022-04-24T10:36:18Z</time>
      </trkpt>
      <trkpt lat="39.578909" lon="-0.274417">
        <ele>2.270</ele>
        <time>2022-04-24T10:36:23Z</time>
      </trkpt>
      <trkpt lat="39.578717" lon="-0.274489">
        <ele>3.599</ele>
        <time>2022-04-24T10:36:33Z</time>
      </trkpt>
      <trkpt lat="39.578573" lon="-0.274546">
        <ele>2.670</ele>
        <time>2022-04-24T10:36:38Z</time>
      </trkpt>
      <trkpt lat="39.578235" lon="-0.274754">
        <ele>2.879</ele>
        <time>2022-04-24T10:36:48Z</time>
      </trkpt>
      <trkpt lat="39.578084" lon="-0.274840">
        <ele>2.756</ele>
        <time>2022-04-24T10:36:53Z</time>
      </trkpt>
      <trkpt lat="39.577727" lon="-0.275022">
        <ele>3.772</ele>
        <time>2022-04-24T10:37:03Z</time>
      </trkpt>
      <trkpt lat="39.577537" lon="-0.275148">
        <ele>3.345</ele>
        <time>2022-04-24T10:37:08Z</time>
      </trkpt>
      <trkpt lat="39.577169" lon="-0.275305">
        <ele>3.334</ele>
        <time>2022-04-24T10:37:18Z</time>
      </trkpt>
      <trkpt lat="39.577084" lon="-0.275428">
        <ele>2.351</ele>
        <time>2022-04-24T10:37:23Z</time>
      </trkpt>
      <trkpt lat="39.576956" lon="-0.275534">
        <ele>1.879</ele>
        <time>2022-04-24T10:37:33Z</time>
      </trkpt>
      <trkpt lat="39.576963" lon="-0.275520">
        <ele>2.905</ele>
        <time>2022-04-24T10:41:03Z</time>
      </trkpt>
      <trkpt lat="39.576896" lon="-0.275610">
        <ele>-0.425</ele>
        <time>2022-04-24T10:42:07Z</time>
      </trkpt>
      <trkpt lat="39.576786" lon="-0.275701">
        <ele>0.309</ele>
        <time>2022-04-24T10:42:12Z</time>
      </trkpt>
      <trkpt lat="39.576617" lon="-0.275484">
        <ele>1.858</ele>
        <time>2022-04-24T10:42:22Z</time>
      </trkpt>
      <trkpt lat="39.576556" lon="-0.275308">
        <ele>3.067</ele>
        <time>2022-04-24T10:42:27Z</time>
      </trkpt>
      <trkpt lat="39.576471" lon="-0.275112">
        <ele>2.988</ele>
        <time>2022-04-24T10:42:32Z</time>
      </trkpt>
      <trkpt lat="39.576232" lon="-0.275086">
        <ele>2.077</ele>
        <time>2022-04-24T10:42:42Z</time>
      </trkpt>
      <trkpt lat="39.576111" lon="-0.275160">
        <ele>1.454</ele>
        <time>2022-04-24T10:42:47Z</time>
      </trkpt>
      <trkpt lat="39.576012" lon="-0.275226">
        <ele>0.960</ele>
        <time>2022-04-24T10:42:52Z</time>
      </trkpt>
      <trkpt lat="39.575899" lon="-0.275305">
        <ele>1.713</ele>
        <time>2022-04-24T10:42:57Z</time>
      </trkpt>
      <trkpt lat="39.575763" lon="-0.275408">
        <ele>1.852</ele>
        <time>2022-04-24T10:43:02Z</time>
      </trkpt>
      <trkpt lat="39.575511" lon="-0.275553">
        <ele>1.579</ele>
        <time>2022-04-24T10:43:12Z</time>
      </trkpt>
      <trkpt lat="39.575147" lon="-0.275767">
        <ele>1.691</ele>
        <time>2022-04-24T10:43:22Z</time>
      </trkpt>
      <trkpt lat="39.574954" lon="-0.275864">
        <ele>1.581</ele>
        <time>2022-04-24T10:43:27Z</time>
      </trkpt>
      <trkpt lat="39.574747" lon="-0.275975">
        <ele>1.219</ele>
        <time>2022-04-24T10:43:32Z</time>
      </trkpt>
      <trkpt lat="39.574349" lon="-0.276233">
        <ele>0.809</ele>
        <time>2022-04-24T10:43:42Z</time>
      </trkpt>
      <trkpt lat="39.573998" lon="-0.276456">
        <ele>0.960</ele>
        <time>2022-04-24T10:43:52Z</time>
      </trkpt>
      <trkpt lat="39.573832" lon="-0.276542">
        <ele>1.549</ele>
        <time>2022-04-24T10:43:57Z</time>
      </trkpt>
      <trkpt lat="39.573663" lon="-0.276632">
        <ele>2.120</ele>
        <time>2022-04-24T10:44:02Z</time>
      </trkpt>
      <trkpt lat="39.573375" lon="-0.276846">
        <ele>1.759</ele>
        <time>2022-04-24T10:44:12Z</time>
      </trkpt>
      <trkpt lat="39.573198" lon="-0.276959">
        <ele>2.976</ele>
        <time>2022-04-24T10:44:22Z</time>
      </trkpt>
      <trkpt lat="39.573211" lon="-0.276960">
        <ele>4.572</ele>
        <time>2022-04-24T10:44:45Z</time>
      </trkpt>
      <trkpt lat="39.573058" lon="-0.277035">
        <ele>4.295</ele>
        <time>2022-04-24T10:44:50Z</time>
      </trkpt>
      <trkpt lat="39.572726" lon="-0.277198">
        <ele>4.144</ele>
        <time>2022-04-24T10:45:00Z</time>
      </trkpt>
      <trkpt lat="39.572535" lon="-0.277292">
        <ele>3.931</ele>
        <time>2022-04-24T10:45:05Z</time>
      </trkpt>
      <trkpt lat="39.572144" lon="-0.277522">
        <ele>3.447</ele>
        <time>2022-04-24T10:45:15Z</time>
      </trkpt>
      <trkpt lat="39.571957" lon="-0.277680">
        <ele>3.429</ele>
        <time>2022-04-24T10:45:20Z</time>
      </trkpt>
      <trkpt lat="39.571575" lon="-0.277907">
        <ele>2.721</ele>
        <time>2022-04-24T10:45:30Z</time>
      </trkpt>
      <trkpt lat="39.571375" lon="-0.278005">
        <ele>2.309</ele>
        <time>2022-04-24T10:45:35Z</time>
      </trkpt>
      <trkpt lat="39.571021" lon="-0.278226">
        <ele>2.675</ele>
        <time>2022-04-24T10:45:45Z</time>
      </trkpt>
      <trkpt lat="39.570831" lon="-0.278329">
        <ele>2.464</ele>
        <time>2022-04-24T10:45:50Z</time>
      </trkpt>
      <trkpt lat="39.570458" lon="-0.278569">
        <ele>3.365</ele>
        <time>2022-04-24T10:46:00Z</time>
      </trkpt>
      <trkpt lat="39.570251" lon="-0.278694">
        <ele>4.194</ele>
        <time>2022-04-24T10:46:05Z</time>
      </trkpt>
      <trkpt lat="39.569942" lon="-0.278855">
        <ele>4.091</ele>
        <time>2022-04-24T10:46:15Z</time>
      </trkpt>
      <trkpt lat="39.569808" lon="-0.278944">
        <ele>3.957</ele>
        <time>2022-04-24T10:46:20Z</time>
      </trkpt>
      <trkpt lat="39.569552" lon="-0.279132">
        <ele>1.720</ele>
        <time>2022-04-24T10:46:30Z</time>
      </trkpt>
      <trkpt lat="39.569495" lon="-0.279165">
        <ele>0.579</ele>
        <time>2022-04-24T10:46:35Z</time>
      </trkpt>
      <trkpt lat="39.569482" lon="-0.279329">
        <ele>0.696</ele>
        <time>2022-04-24T10:46:45Z</time>
      </trkpt>
      <trkpt lat="39.569475" lon="-0.279401">
        <ele>0.932</ele>
        <time>2022-04-24T10:46:50Z</time>
      </trkpt>
      <trkpt lat="39.569475" lon="-0.279728">
        <ele>1.492</ele>
        <time>2022-04-24T10:47:00Z</time>
      </trkpt>
      <trkpt lat="39.569397" lon="-0.280081">
        <ele>2.211</ele>
        <time>2022-04-24T10:47:10Z</time>
      </trkpt>
      <trkpt lat="39.569285" lon="-0.280242">
        <ele>2.709</ele>
        <time>2022-04-24T10:47:15Z</time>
      </trkpt>
      <trkpt lat="39.569174" lon="-0.280406">
        <ele>3.174</ele>
        <time>2022-04-24T10:47:20Z</time>
      </trkpt>
      <trkpt lat="39.568982" lon="-0.280646">
        <ele>3.893</ele>
        <time>2022-04-24T10:47:30Z</time>
      </trkpt>
      <trkpt lat="39.568880" lon="-0.280669">
        <ele>3.924</ele>
        <time>2022-04-24T10:47:35Z</time>
      </trkpt>
      <trkpt lat="39.568724" lon="-0.280716">
        <ele>2.293</ele>
        <time>2022-04-24T10:47:45Z</time>
      </trkpt>
      <trkpt lat="39.568689" lon="-0.280732">
        <ele>1.760</ele>
        <time>2022-04-24T10:47:50Z</time>
      </trkpt>
      <trkpt lat="39.568618" lon="-0.280747">
        <ele>2.776</ele>
        <time>2022-04-24T10:48:00Z</time>
      </trkpt>
      <trkpt lat="39.568579" lon="-0.280758">
        <ele>3.189</ele>
        <time>2022-04-24T10:48:05Z</time>
      </trkpt>
      <trkpt lat="39.568565" lon="-0.280775">
        <ele>3.268</ele>
        <time>2022-04-24T10:48:10Z</time>
      </trkpt>
      <trkpt lat="39.568604" lon="-0.280774">
        <ele>3.085</ele>
        <time>2022-04-24T10:48:15Z</time>
      </trkpt>
      <trkpt lat="39.568567" lon="-0.280797">
        <ele>2.472</ele>
        <time>2022-04-24T10:48:20Z</time>
      </trkpt>
      <trkpt lat="39.568258" lon="-0.280867">
        <ele>2.613</ele>
        <time>2022-04-24T10:48:30Z</time>
      </trkpt>
      <trkpt lat="39.567906" lon="-0.280935">
        <ele>2.114</ele>
        <time>2022-04-24T10:48:40Z</time>
      </trkpt>
      <trkpt lat="39.567802" lon="-0.280958">
        <ele>2.009</ele>
        <time>2022-04-24T10:48:45Z</time>
      </trkpt>
      <trkpt lat="39.567851" lon="-0.280917">
        <ele>2.668</ele>
        <time>2022-04-24T10:48:50Z</time>
      </trkpt>
      <trkpt lat="39.567757" lon="-0.280921">
        <ele>2.767</ele>
        <time>2022-04-24T10:49:00Z</time>
      </trkpt>
      <trkpt lat="39.567617" lon="-0.280942">
        <ele>3.028</ele>
        <time>2022-04-24T10:49:05Z</time>
      </trkpt>
      <trkpt lat="39.567334" lon="-0.280991">
        <ele>3.097</ele>
        <time>2022-04-24T10:49:15Z</time>
      </trkpt>
      <trkpt lat="39.567201" lon="-0.281007">
        <ele>3.084</ele>
        <time>2022-04-24T10:49:20Z</time>
      </trkpt>
      <trkpt lat="39.567028" lon="-0.281129">
        <ele>1.290</ele>
        <time>2022-04-24T10:49:30Z</time>
      </trkpt>
      <trkpt lat="39.566947" lon="-0.281172">
        <ele>0.633</ele>
        <time>2022-04-24T10:49:35Z</time>
      </trkpt>
      <trkpt lat="39.566831" lon="-0.281233">
        <ele>0.542</ele>
        <time>2022-04-24T10:49:45Z</time>
      </trkpt>
      <trkpt lat="39.566780" lon="-0.281263">
        <ele>0.919</ele>
        <time>2022-04-24T10:49:50Z</time>
      </trkpt>
      <trkpt lat="39.566665" lon="-0.281311">
        <ele>1.368</ele>
        <time>2022-04-24T10:50:00Z</time>
      </trkpt>
      <trkpt lat="39.566611" lon="-0.281340">
        <ele>2.242</ele>
        <time>2022-04-24T10:50:05Z</time>
      </trkpt>
      <trkpt lat="39.566503" lon="-0.281384">
        <ele>2.126</ele>
        <time>2022-04-24T10:50:15Z</time>
      </trkpt>
      <trkpt lat="39.566448" lon="-0.281414">
        <ele>2.109</ele>
        <time>2022-04-24T10:50:20Z</time>
      </trkpt>
      <trkpt lat="39.566348" lon="-0.281513">
        <ele>1.817</ele>
        <time>2022-04-24T10:50:30Z</time>
      </trkpt>
      <trkpt lat="39.566389" lon="-0.281649">
        <ele>2.476</ele>
        <time>2022-04-24T10:50:35Z</time>
      </trkpt>
      <trkpt lat="39.566354" lon="-0.281748">
        <ele>3.037</ele>
        <time>2022-04-24T10:50:40Z</time>
      </trkpt>
      <trkpt lat="39.566273" lon="-0.281843">
        <ele>3.246</ele>
        <time>2022-04-24T10:50:45Z</time>
      </trkpt>
      <trkpt lat="39.566162" lon="-0.281946">
        <ele>2.743</ele>
        <time>2022-04-24T10:50:50Z</time>
      </trkpt>
      <trkpt lat="39.566064" lon="-0.282026">
        <ele>1.239</ele>
        <time>2022-04-24T10:51:00Z</time>
      </trkpt>
      <trkpt lat="39.565954" lon="-0.282094">
        <ele>0.752</ele>
        <time>2022-04-24T10:51:17Z</time>
      </trkpt>
      <trkpt lat="39.565671" lon="-0.282268">
        <ele>0.651</ele>
        <time>2022-04-24T10:51:27Z</time>
      </trkpt>
      <trkpt lat="39.565550" lon="-0.282390">
        <ele>0.258</ele>
        <time>2022-04-24T10:51:32Z</time>
      </trkpt>
      <trkpt lat="39.565284" lon="-0.282565">
        <ele>3.071</ele>
        <time>2022-04-24T10:51:42Z</time>
      </trkpt>
      <trkpt lat="39.565168" lon="-0.282526">
        <ele>4.941</ele>
        <time>2022-04-24T10:51:47Z</time>
      </trkpt>
      <trkpt lat="39.564929" lon="-0.282710">
        <ele>4.315</ele>
        <time>2022-04-24T10:51:57Z</time>
      </trkpt>
      <trkpt lat="39.564797" lon="-0.282792">
        <ele>4.609</ele>
        <time>2022-04-24T10:52:02Z</time>
      </trkpt>
      <trkpt lat="39.564510" lon="-0.282939">
        <ele>6.548</ele>
        <time>2022-04-24T10:52:12Z</time>
      </trkpt>
      <trkpt lat="39.564357" lon="-0.283023">
        <ele>6.657</ele>
        <time>2022-04-24T10:52:17Z</time>
      </trkpt>
      <trkpt lat="39.564166" lon="-0.283077">
        <ele>5.598</ele>
        <time>2022-04-24T10:52:27Z</time>
      </trkpt>
      <trkpt lat="39.564024" lon="-0.283160">
        <ele>5.427</ele>
        <time>2022-04-24T10:52:32Z</time>
      </trkpt>
      <trkpt lat="39.563734" lon="-0.283336">
        <ele>5.594</ele>
        <time>2022-04-24T10:52:42Z</time>
      </trkpt>
      <trkpt lat="39.563489" lon="-0.283564">
        <ele>6.550</ele>
        <time>2022-04-24T10:52:52Z</time>
      </trkpt>
      <trkpt lat="39.563357" lon="-0.283649">
        <ele>6.893</ele>
        <time>2022-04-24T10:52:57Z</time>
      </trkpt>
      <trkpt lat="39.563234" lon="-0.283725">
        <ele>6.672</ele>
        <time>2022-04-24T10:53:02Z</time>
      </trkpt>
      <trkpt lat="39.563019" lon="-0.283983">
        <ele>6.929</ele>
        <time>2022-04-24T10:53:12Z</time>
      </trkpt>
      <trkpt lat="39.562898" lon="-0.284120">
        <ele>6.535</ele>
        <time>2022-04-24T10:53:17Z</time>
      </trkpt>
      <trkpt lat="39.562760" lon="-0.284234">
        <ele>6.186</ele>
        <time>2022-04-24T10:53:22Z</time>
      </trkpt>
      <trkpt lat="39.562483" lon="-0.284484">
        <ele>5.814</ele>
        <time>2022-04-24T10:53:32Z</time>
      </trkpt>
      <trkpt lat="39.562199" lon="-0.284731">
        <ele>6.609</ele>
        <time>2022-04-24T10:53:42Z</time>
      </trkpt>
      <trkpt lat="39.562043" lon="-0.284812">
        <ele>6.624</ele>
        <time>2022-04-24T10:53:47Z</time>
      </trkpt>
      <trkpt lat="39.561732" lon="-0.285117">
        <ele>6.593</ele>
        <time>2022-04-24T10:53:57Z</time>
      </trkpt>
      <trkpt lat="39.561566" lon="-0.285223">
        <ele>5.744</ele>
        <time>2022-04-24T10:54:02Z</time>
      </trkpt>
      <trkpt lat="39.561271" lon="-0.285514">
        <ele>5.783</ele>
        <time>2022-04-24T10:54:12Z</time>
      </trkpt>
      <trkpt lat="39.561134" lon="-0.285668">
        <ele>4.970</ele>
        <time>2022-04-24T10:54:17Z</time>
      </trkpt>
      <trkpt lat="39.560803" lon="-0.285843">
        <ele>6.026</ele>
        <time>2022-04-24T10:54:27Z</time>
      </trkpt>
      <trkpt lat="39.560636" lon="-0.285951">
        <ele>6.159</ele>
        <time>2022-04-24T10:54:32Z</time>
      </trkpt>
      <trkpt lat="39.560313" lon="-0.286171">
        <ele>6.368</ele>
        <time>2022-04-24T10:54:42Z</time>
      </trkpt>
      <trkpt lat="39.560137" lon="-0.286297">
        <ele>5.765</ele>
        <time>2022-04-24T10:54:47Z</time>
      </trkpt>
      <trkpt lat="39.559849" lon="-0.286514">
        <ele>5.641</ele>
        <time>2022-04-24T10:54:57Z</time>
      </trkpt>
      <trkpt lat="39.559751" lon="-0.286514">
        <ele>4.981</ele>
        <time>2022-04-24T10:55:02Z</time>
      </trkpt>
      <trkpt lat="39.559746" lon="-0.286660">
        <ele>3.409</ele>
        <time>2022-04-24T10:55:12Z</time>
      </trkpt>
      <trkpt lat="39.559706" lon="-0.286571">
        <ele>2.709</ele>
        <time>2022-04-24T10:55:17Z</time>
      </trkpt>
      <trkpt lat="39.559604" lon="-0.286545">
        <ele>2.665</ele>
        <time>2022-04-24T10:55:22Z</time>
      </trkpt>
      <trkpt lat="39.559429" lon="-0.286636">
        <ele>2.544</ele>
        <time>2022-04-24T10:55:32Z</time>
      </trkpt>
      <trkpt lat="39.559243" lon="-0.286715">
        <ele>2.465</ele>
        <time>2022-04-24T10:55:42Z</time>
      </trkpt>
      <trkpt lat="39.559214" lon="-0.286734">
        <ele>1.924</ele>
        <time>2022-04-24T10:55:52Z</time>
      </trkpt>
      <trkpt lat="39.559270" lon="-0.286734">
        <ele>2.441</ele>
        <time>2022-04-24T10:56:02Z</time>
      </trkpt>
      <trkpt lat="39.559383" lon="-0.286650">
        <ele>2.967</ele>
        <time>2022-04-24T10:56:12Z</time>
      </trkpt>
      <trkpt lat="39.559443" lon="-0.286611">
        <ele>2.790</ele>
        <time>2022-04-24T10:56:17Z</time>
      </trkpt>
      <trkpt lat="39.559561" lon="-0.286574">
        <ele>2.779</ele>
        <time>2022-04-24T10:56:27Z</time>
      </trkpt>
      <trkpt lat="39.559608" lon="-0.286572">
        <ele>3.356</ele>
        <time>2022-04-24T10:56:32Z</time>
      </trkpt>
      <trkpt lat="39.559679" lon="-0.286565">
        <ele>2.976</ele>
        <time>2022-04-24T10:56:42Z</time>
      </trkpt>
      <trkpt lat="39.559768" lon="-0.286801">
        <ele>2.090</ele>
        <time>2022-04-24T10:56:52Z</time>
      </trkpt>
      <trkpt lat="39.559831" lon="-0.287078">
        <ele>0.519</ele>
        <time>2022-04-24T10:57:02Z</time>
      </trkpt>
      <trkpt lat="39.559933" lon="-0.287427">
        <ele>1.409</ele>
        <time>2022-04-24T10:57:12Z</time>
      </trkpt>
      <trkpt lat="39.560054" lon="-0.287864">
        <ele>1.678</ele>
        <time>2022-04-24T10:57:22Z</time>
      </trkpt>
      <trkpt lat="39.560116" lon="-0.288088">
        <ele>2.177</ele>
        <time>2022-04-24T10:57:27Z</time>
      </trkpt>
      <trkpt lat="39.560181" lon="-0.288311">
        <ele>3.288</ele>
        <time>2022-04-24T10:57:32Z</time>
      </trkpt>
      <trkpt lat="39.560321" lon="-0.288766">
        <ele>2.567</ele>
        <time>2022-04-24T10:57:42Z</time>
      </trkpt>
      <trkpt lat="39.560471" lon="-0.289236">
        <ele>1.754</ele>
        <time>2022-04-24T10:57:52Z</time>
      </trkpt>
      <trkpt lat="39.560615" lon="-0.289664">
        <ele>0.470</ele>
        <time>2022-04-24T10:58:02Z</time>
      </trkpt>
      <trkpt lat="39.560748" lon="-0.290109">
        <ele>-0.323</ele>
        <time>2022-04-24T10:58:12Z</time>
      </trkpt>
      <trkpt lat="39.560888" lon="-0.290475">
        <ele>2.022</ele>
        <time>2022-04-24T10:58:22Z</time>
      </trkpt>
      <trkpt lat="39.561020" lon="-0.290978">
        <ele>3.089</ele>
        <time>2022-04-24T10:58:32Z</time>
      </trkpt>
      <trkpt lat="39.561180" lon="-0.291489">
        <ele>2.456</ele>
        <time>2022-04-24T10:58:42Z</time>
      </trkpt>
      <trkpt lat="39.561258" lon="-0.291748">
        <ele>2.759</ele>
        <time>2022-04-24T10:58:47Z</time>
      </trkpt>
      <trkpt lat="39.561335" lon="-0.292012">
        <ele>2.414</ele>
        <time>2022-04-24T10:58:52Z</time>
      </trkpt>
      <trkpt lat="39.561506" lon="-0.292498">
        <ele>2.109</ele>
        <time>2022-04-24T10:59:02Z</time>
      </trkpt>
      <trkpt lat="39.561649" lon="-0.292979">
        <ele>3.586</ele>
        <time>2022-04-24T10:59:12Z</time>
      </trkpt>
      <trkpt lat="39.561727" lon="-0.293253">
        <ele>3.065</ele>
        <time>2022-04-24T10:59:17Z</time>
      </trkpt>
      <trkpt lat="39.561883" lon="-0.293790">
        <ele>3.656</ele>
        <time>2022-04-24T10:59:27Z</time>
      </trkpt>
      <trkpt lat="39.561960" lon="-0.294052">
        <ele>3.445</ele>
        <time>2022-04-24T10:59:32Z</time>
      </trkpt>
      <trkpt lat="39.562106" lon="-0.294556">
        <ele>3.232</ele>
        <time>2022-04-24T10:59:42Z</time>
      </trkpt>
      <trkpt lat="39.562234" lon="-0.295016">
        <ele>4.788</ele>
        <time>2022-04-24T10:59:52Z</time>
      </trkpt>
      <trkpt lat="39.562278" lon="-0.295193">
        <ele>5.181</ele>
        <time>2022-04-24T10:59:57Z</time>
      </trkpt>
      <trkpt lat="39.562314" lon="-0.295350">
        <ele>6.940</ele>
        <time>2022-04-24T11:00:02Z</time>
      </trkpt>
      <trkpt lat="39.562290" lon="-0.295585">
        <ele>5.887</ele>
        <time>2022-04-24T11:00:12Z</time>
      </trkpt>
      <trkpt lat="39.562225" lon="-0.295827">
        <ele>5.612</ele>
        <time>2022-04-24T11:00:22Z</time>
      </trkpt>
      <trkpt lat="39.562036" lon="-0.296152">
        <ele>5.432</ele>
        <time>2022-04-24T11:00:32Z</time>
      </trkpt>
      <trkpt lat="39.561697" lon="-0.296313">
        <ele>5.505</ele>
        <time>2022-04-24T11:00:42Z</time>
      </trkpt>
      <trkpt lat="39.561289" lon="-0.296368">
        <ele>5.809</ele>
        <time>2022-04-24T11:00:52Z</time>
      </trkpt>
      <trkpt lat="39.560824" lon="-0.296419">
        <ele>5.672</ele>
        <time>2022-04-24T11:01:02Z</time>
      </trkpt>
      <trkpt lat="39.560368" lon="-0.296458">
        <ele>5.641</ele>
        <time>2022-04-24T11:01:12Z</time>
      </trkpt>
      <trkpt lat="39.559881" lon="-0.296517">
        <ele>5.482</ele>
        <time>2022-04-24T11:01:22Z</time>
      </trkpt>
      <trkpt lat="39.559627" lon="-0.296546">
        <ele>5.531</ele>
        <time>2022-04-24T11:01:27Z</time>
      </trkpt>
      <trkpt lat="39.559371" lon="-0.296579">
        <ele>6.028</ele>
        <time>2022-04-24T11:01:32Z</time>
      </trkpt>
      <trkpt lat="39.558867" lon="-0.296637">
        <ele>5.994</ele>
        <time>2022-04-24T11:01:42Z</time>
      </trkpt>
      <trkpt lat="39.558369" lon="-0.296696">
        <ele>6.247</ele>
        <time>2022-04-24T11:01:52Z</time>
      </trkpt>
      <trkpt lat="39.557868" lon="-0.296755">
        <ele>6.396</ele>
        <time>2022-04-24T11:02:02Z</time>
      </trkpt>
      <trkpt lat="39.557369" lon="-0.296807">
        <ele>5.713</ele>
        <time>2022-04-24T11:02:12Z</time>
      </trkpt>
      <trkpt lat="39.556872" lon="-0.296858">
        <ele>5.657</ele>
        <time>2022-04-24T11:02:22Z</time>
      </trkpt>
      <trkpt lat="39.556619" lon="-0.296889">
        <ele>5.200</ele>
        <time>2022-04-24T11:02:27Z</time>
      </trkpt>
      <trkpt lat="39.556363" lon="-0.296916">
        <ele>5.220</ele>
        <time>2022-04-24T11:02:32Z</time>
      </trkpt>
      <trkpt lat="39.555856" lon="-0.296974">
        <ele>5.109</ele>
        <time>2022-04-24T11:02:42Z</time>
      </trkpt>
      <trkpt lat="39.555620" lon="-0.296993">
        <ele>5.016</ele>
        <time>2022-04-24T11:02:47Z</time>
      </trkpt>
      <trkpt lat="39.555130" lon="-0.297064">
        <ele>5.115</ele>
        <time>2022-04-24T11:02:57Z</time>
      </trkpt>
      <trkpt lat="39.554873" lon="-0.297094">
        <ele>5.636</ele>
        <time>2022-04-24T11:03:02Z</time>
      </trkpt>
      <trkpt lat="39.554379" lon="-0.297145">
        <ele>5.975</ele>
        <time>2022-04-24T11:03:12Z</time>
      </trkpt>
      <trkpt lat="39.554122" lon="-0.297170">
        <ele>5.842</ele>
        <time>2022-04-24T11:03:17Z</time>
      </trkpt>
      <trkpt lat="39.553610" lon="-0.297233">
        <ele>5.828</ele>
        <time>2022-04-24T11:03:27Z</time>
      </trkpt>
      <trkpt lat="39.553340" lon="-0.297252">
        <ele>6.121</ele>
        <time>2022-04-24T11:03:32Z</time>
      </trkpt>
      <trkpt lat="39.552849" lon="-0.297133">
        <ele>6.390</ele>
        <time>2022-04-24T11:03:42Z</time>
      </trkpt>
      <trkpt lat="39.552628" lon="-0.296981">
        <ele>6.367</ele>
        <time>2022-04-24T11:03:47Z</time>
      </trkpt>
      <trkpt lat="39.552436" lon="-0.296776">
        <ele>6.248</ele>
        <time>2022-04-24T11:03:52Z</time>
      </trkpt>
      <trkpt lat="39.552290" lon="-0.296516">
        <ele>6.661</ele>
        <time>2022-04-24T11:03:57Z</time>
      </trkpt>
      <trkpt lat="39.552200" lon="-0.296210">
        <ele>6.617</ele>
        <time>2022-04-24T11:04:02Z</time>
      </trkpt>
      <trkpt lat="39.552140" lon="-0.295542">
        <ele>6.209</ele>
        <time>2022-04-24T11:04:12Z</time>
      </trkpt>
      <trkpt lat="39.551804" lon="-0.295634">
        <ele>5.895</ele>
        <time>2022-04-24T11:04:22Z</time>
      </trkpt>
      <trkpt lat="39.551744" lon="-0.295896">
        <ele>6.654</ele>
        <time>2022-04-24T11:04:27Z</time>
      </trkpt>
      <trkpt lat="39.551595" lon="-0.296037">
        <ele>6.835</ele>
        <time>2022-04-24T11:04:32Z</time>
      </trkpt>
      <trkpt lat="39.551253" lon="-0.295922">
        <ele>6.994</ele>
        <time>2022-04-24T11:04:42Z</time>
      </trkpt>
      <trkpt lat="39.551114" lon="-0.295520">
        <ele>6.131</ele>
        <time>2022-04-24T11:04:52Z</time>
      </trkpt>
      <trkpt lat="39.550996" lon="-0.295690">
        <ele>5.947</ele>
        <time>2022-04-24T11:04:57Z</time>
      </trkpt>
      <trkpt lat="39.551062" lon="-0.295949">
        <ele>6.870</ele>
        <time>2022-04-24T11:05:02Z</time>
      </trkpt>
      <trkpt lat="39.551075" lon="-0.296513">
        <ele>6.459</ele>
        <time>2022-04-24T11:05:12Z</time>
      </trkpt>
      <trkpt lat="39.550990" lon="-0.296794">
        <ele>5.726</ele>
        <time>2022-04-24T11:05:17Z</time>
      </trkpt>
      <trkpt lat="39.550712" lon="-0.297225">
        <ele>4.759</ele>
        <time>2022-04-24T11:05:27Z</time>
      </trkpt>
      <trkpt lat="39.550364" lon="-0.297457">
        <ele>6.603</ele>
        <time>2022-04-24T11:05:37Z</time>
      </trkpt>
      <trkpt lat="39.550159" lon="-0.297547">
        <ele>6.423</ele>
        <time>2022-04-24T11:05:42Z</time>
      </trkpt>
      <trkpt lat="39.549740" lon="-0.297645">
        <ele>5.309</ele>
        <time>2022-04-24T11:05:52Z</time>
      </trkpt>
      <trkpt lat="39.549529" lon="-0.297671">
        <ele>5.976</ele>
        <time>2022-04-24T11:05:57Z</time>
      </trkpt>
      <trkpt lat="39.549317" lon="-0.297701">
        <ele>5.655</ele>
        <time>2022-04-24T11:06:02Z</time>
      </trkpt>
      <trkpt lat="39.548923" lon="-0.297771">
        <ele>5.136</ele>
        <time>2022-04-24T11:06:12Z</time>
      </trkpt>
      <trkpt lat="39.548528" lon="-0.297871">
        <ele>4.875</ele>
        <time>2022-04-24T11:06:22Z</time>
      </trkpt>
      <trkpt lat="39.548333" lon="-0.297928">
        <ele>5.092</ele>
        <time>2022-04-24T11:06:27Z</time>
      </trkpt>
      <trkpt lat="39.548137" lon="-0.297985">
        <ele>4.938</ele>
        <time>2022-04-24T11:06:32Z</time>
      </trkpt>
      <trkpt lat="39.547762" lon="-0.298112">
        <ele>6.721</ele>
        <time>2022-04-24T11:06:42Z</time>
      </trkpt>
      <trkpt lat="39.547582" lon="-0.298181">
        <ele>6.680</ele>
        <time>2022-04-24T11:06:47Z</time>
      </trkpt>
      <trkpt lat="39.547246" lon="-0.298304">
        <ele>6.917</ele>
        <time>2022-04-24T11:06:57Z</time>
      </trkpt>
      <trkpt lat="39.547079" lon="-0.298408">
        <ele>7.272</ele>
        <time>2022-04-24T11:07:02Z</time>
      </trkpt>
      <trkpt lat="39.546774" lon="-0.298554">
        <ele>7.013</ele>
        <time>2022-04-24T11:07:12Z</time>
      </trkpt>
      <trkpt lat="39.546665" lon="-0.298620">
        <ele>6.514</ele>
        <time>2022-04-24T11:07:17Z</time>
      </trkpt>
      <trkpt lat="39.546519" lon="-0.298693">
        <ele>7.209</ele>
        <time>2022-04-24T11:07:22Z</time>
      </trkpt>
      <trkpt lat="39.546289" lon="-0.298861">
        <ele>7.118</ele>
        <time>2022-04-24T11:07:32Z</time>
      </trkpt>
      <trkpt lat="39.546064" lon="-0.298983">
        <ele>7.757</ele>
        <time>2022-04-24T11:07:42Z</time>
      </trkpt>
      <trkpt lat="39.545826" lon="-0.299155">
        <ele>7.758</ele>
        <time>2022-04-24T11:07:52Z</time>
      </trkpt>
      <trkpt lat="39.545694" lon="-0.299236">
        <ele>7.917</ele>
        <time>2022-04-24T11:07:57Z</time>
      </trkpt>
      <trkpt lat="39.545581" lon="-0.299330">
        <ele>7.824</ele>
        <time>2022-04-24T11:08:02Z</time>
      </trkpt>
      <trkpt lat="39.545373" lon="-0.299522">
        <ele>7.170</ele>
        <time>2022-04-24T11:08:12Z</time>
      </trkpt>
      <trkpt lat="39.545202" lon="-0.299683">
        <ele>7.173</ele>
        <time>2022-04-24T11:08:22Z</time>
      </trkpt>
      <trkpt lat="39.545114" lon="-0.299745">
        <ele>7.142</ele>
        <time>2022-04-24T11:08:27Z</time>
      </trkpt>
      <trkpt lat="39.545016" lon="-0.299814">
        <ele>6.669</ele>
        <time>2022-04-24T11:08:32Z</time>
      </trkpt>
      <trkpt lat="39.544798" lon="-0.300025">
        <ele>7.249</ele>
        <time>2022-04-24T11:08:42Z</time>
      </trkpt>
      <trkpt lat="39.544656" lon="-0.300165">
        <ele>7.402</ele>
        <time>2022-04-24T11:08:52Z</time>
      </trkpt>
      <trkpt lat="39.544573" lon="-0.300235">
        <ele>7.522</ele>
        <time>2022-04-24T11:08:57Z</time>
      </trkpt>
      <trkpt lat="39.544476" lon="-0.300319">
        <ele>7.809</ele>
        <time>2022-04-24T11:09:02Z</time>
      </trkpt>
      <trkpt lat="39.544296" lon="-0.300449">
        <ele>8.375</ele>
        <time>2022-04-24T11:09:12Z</time>
      </trkpt>
      <trkpt lat="39.544176" lon="-0.300523">
        <ele>6.854</ele>
        <time>2022-04-24T11:09:22Z</time>
      </trkpt>
      <trkpt lat="39.544073" lon="-0.300610">
        <ele>6.345</ele>
        <time>2022-04-24T11:09:32Z</time>
      </trkpt>
      <trkpt lat="39.543930" lon="-0.300674">
        <ele>6.354</ele>
        <time>2022-04-24T11:09:42Z</time>
      </trkpt>
      <trkpt lat="39.543859" lon="-0.300706">
        <ele>6.541</ele>
        <time>2022-04-24T11:09:47Z</time>
      </trkpt>
      <trkpt lat="39.543779" lon="-0.300843">
        <ele>6.557</ele>
        <time>2022-04-24T11:09:57Z</time>
      </trkpt>
      <trkpt lat="39.543729" lon="-0.300931">
        <ele>6.320</ele>
        <time>2022-04-24T11:10:02Z</time>
      </trkpt>
      <trkpt lat="39.543581" lon="-0.301026">
        <ele>4.829</ele>
        <time>2022-04-24T11:10:12Z</time>
      </trkpt>
      <trkpt lat="39.543521" lon="-0.301070">
        <ele>5.286</ele>
        <time>2022-04-24T11:10:17Z</time>
      </trkpt>
      <trkpt lat="39.543358" lon="-0.301218">
        <ele>4.055</ele>
        <time>2022-04-24T11:10:27Z</time>
      </trkpt>
      <trkpt lat="39.543277" lon="-0.301330">
        <ele>4.607</ele>
        <time>2022-04-24T11:10:32Z</time>
      </trkpt>
      <trkpt lat="39.543045" lon="-0.301507">
        <ele>6.617</ele>
        <time>2022-04-24T11:10:42Z</time>
      </trkpt>
      <trkpt lat="39.542845" lon="-0.301701">
        <ele>5.909</ele>
        <time>2022-04-24T11:10:52Z</time>
      </trkpt>
      <trkpt lat="39.542736" lon="-0.301787">
        <ele>5.796</ele>
        <time>2022-04-24T11:10:57Z</time>
      </trkpt>
      <trkpt lat="39.542628" lon="-0.301886">
        <ele>5.945</ele>
        <time>2022-04-24T11:11:02Z</time>
      </trkpt>
      <trkpt lat="39.542485" lon="-0.302021">
        <ele>7.296</ele>
        <time>2022-04-24T11:11:09Z</time>
      </trkpt>
      <trkpt lat="39.542350" lon="-0.302160">
        <ele>7.815</ele>
        <time>2022-04-24T11:11:17Z</time>
      </trkpt>
      <trkpt lat="39.542222" lon="-0.302283">
        <ele>7.882</ele>
        <time>2022-04-24T11:11:24Z</time>
      </trkpt>
      <trkpt lat="39.542078" lon="-0.302419">
        <ele>7.828</ele>
        <time>2022-04-24T11:11:32Z</time>
      </trkpt>
      <trkpt lat="39.541946" lon="-0.302522">
        <ele>7.761</ele>
        <time>2022-04-24T11:11:39Z</time>
      </trkpt>
      <trkpt lat="39.541854" lon="-0.302578">
        <ele>7.210</ele>
        <time>2022-04-24T11:11:44Z</time>
      </trkpt>
      <trkpt lat="39.541833" lon="-0.302578">
        <ele>6.377</ele>
        <time>2022-04-24T11:11:52Z</time>
      </trkpt>
      <trkpt lat="39.541825" lon="-0.302597">
        <ele>5.967</ele>
        <time>2022-04-24T11:12:46Z</time>
      </trkpt>
      <trkpt lat="39.541749" lon="-0.302653">
        <ele>7.281</ele>
        <time>2022-04-24T11:12:51Z</time>
      </trkpt>
      <trkpt lat="39.541660" lon="-0.302730">
        <ele>7.919</ele>
        <time>2022-04-24T11:12:56Z</time>
      </trkpt>
      <trkpt lat="39.541571" lon="-0.302880">
        <ele>7.909</ele>
        <time>2022-04-24T11:13:04Z</time>
      </trkpt>
      <trkpt lat="39.541452" lon="-0.302951">
        <ele>7.517</ele>
        <time>2022-04-24T11:13:11Z</time>
      </trkpt>
      <trkpt lat="39.541378" lon="-0.302992">
        <ele>7.196</ele>
        <time>2022-04-24T11:13:16Z</time>
      </trkpt>
      <trkpt lat="39.541289" lon="-0.303108">
        <ele>8.237</ele>
        <time>2022-04-24T11:13:24Z</time>
      </trkpt>
      <trkpt lat="39.541219" lon="-0.303168">
        <ele>8.696</ele>
        <time>2022-04-24T11:13:29Z</time>
      </trkpt>
      <trkpt lat="39.541146" lon="-0.303228">
        <ele>8.653</ele>
        <time>2022-04-24T11:13:34Z</time>
      </trkpt>
      <trkpt lat="39.541044" lon="-0.303305">
        <ele>8.339</ele>
        <time>2022-04-24T11:13:41Z</time>
      </trkpt>
      <trkpt lat="39.540918" lon="-0.303408">
        <ele>7.932</ele>
        <time>2022-04-24T11:13:49Z</time>
      </trkpt>
      <trkpt lat="39.540760" lon="-0.303541">
        <ele>6.211</ele>
        <time>2022-04-24T11:13:56Z</time>
      </trkpt>
      <trkpt lat="39.540561" lon="-0.303701">
        <ele>6.688</ele>
        <time>2022-04-24T11:14:06Z</time>
      </trkpt>
      <trkpt lat="39.540485" lon="-0.303789">
        <ele>7.245</ele>
        <time>2022-04-24T11:14:11Z</time>
      </trkpt>
      <trkpt lat="39.540390" lon="-0.303842">
        <ele>7.347</ele>
        <time>2022-04-24T11:14:16Z</time>
      </trkpt>
      <trkpt lat="39.540214" lon="-0.303972">
        <ele>6.211</ele>
        <time>2022-04-24T11:14:26Z</time>
      </trkpt>
      <trkpt lat="39.540049" lon="-0.304078">
        <ele>5.609</ele>
        <time>2022-04-24T11:14:36Z</time>
      </trkpt>
      <trkpt lat="39.540010" lon="-0.304093">
        <ele>4.945</ele>
        <time>2022-04-24T11:14:46Z</time>
      </trkpt>
      <trkpt lat="39.539983" lon="-0.304115">
        <ele>4.444</ele>
        <time>2022-04-24T11:14:51Z</time>
      </trkpt>
      <trkpt lat="39.539944" lon="-0.304169">
        <ele>4.425</ele>
        <time>2022-04-24T11:14:56Z</time>
      </trkpt>
      <trkpt lat="39.539856" lon="-0.304236">
        <ele>4.524</ele>
        <time>2022-04-24T11:15:06Z</time>
      </trkpt>
      <trkpt lat="39.539806" lon="-0.304293">
        <ele>4.191</ele>
        <time>2022-04-24T11:15:11Z</time>
      </trkpt>
      <trkpt lat="39.539766" lon="-0.304334">
        <ele>4.287</ele>
        <time>2022-04-24T11:15:16Z</time>
      </trkpt>
      <trkpt lat="39.539760" lon="-0.304347">
        <ele>4.460</ele>
        <time>2022-04-24T11:15:59Z</time>
      </trkpt>
      <trkpt lat="39.539597" lon="-0.304481">
        <ele>4.739</ele>
        <time>2022-04-24T11:16:09Z</time>
      </trkpt>
      <trkpt lat="39.539507" lon="-0.304555">
        <ele>5.446</ele>
        <time>2022-04-24T11:16:14Z</time>
      </trkpt>
      <trkpt lat="39.539345" lon="-0.304696">
        <ele>7.185</ele>
        <time>2022-04-24T11:16:24Z</time>
      </trkpt>
      <trkpt lat="39.539246" lon="-0.304767">
        <ele>6.389</ele>
        <time>2022-04-24T11:16:29Z</time>
      </trkpt>
      <trkpt lat="39.539157" lon="-0.304846">
        <ele>5.117</ele>
        <time>2022-04-24T11:16:34Z</time>
      </trkpt>
      <trkpt lat="39.539098" lon="-0.304898">
        <ele>5.809</ele>
        <time>2022-04-24T11:16:44Z</time>
      </trkpt>
      <trkpt lat="39.538999" lon="-0.304986">
        <ele>5.739</ele>
        <time>2022-04-24T11:16:54Z</time>
      </trkpt>
      <trkpt lat="39.538876" lon="-0.305124">
        <ele>5.548</ele>
        <time>2022-04-24T11:17:04Z</time>
      </trkpt>
      <trkpt lat="39.538817" lon="-0.305135">
        <ele>5.579</ele>
        <time>2022-04-24T11:17:14Z</time>
      </trkpt>
      <trkpt lat="39.538674" lon="-0.305272">
        <ele>4.658</ele>
        <time>2022-04-24T11:17:24Z</time>
      </trkpt>
      <trkpt lat="39.538523" lon="-0.305414">
        <ele>4.015</ele>
        <time>2022-04-24T11:17:34Z</time>
      </trkpt>
      <trkpt lat="39.538508" lon="-0.305432">
        <ele>4.231</ele>
        <time>2022-04-24T11:17:39Z</time>
      </trkpt>
      <trkpt lat="39.538470" lon="-0.305460">
        <ele>4.644</ele>
        <time>2022-04-24T11:17:44Z</time>
      </trkpt>
      <trkpt lat="39.538370" lon="-0.305547">
        <ele>5.623</ele>
        <time>2022-04-24T11:17:54Z</time>
      </trkpt>
      <trkpt lat="39.538262" lon="-0.305642">
        <ele>5.270</ele>
        <time>2022-04-24T11:18:04Z</time>
      </trkpt>
      <trkpt lat="39.538213" lon="-0.305680">
        <ele>4.991</ele>
        <time>2022-04-24T11:18:09Z</time>
      </trkpt>
      <trkpt lat="39.538169" lon="-0.305721">
        <ele>5.381</ele>
        <time>2022-04-24T11:18:14Z</time>
      </trkpt>
      <trkpt lat="39.538069" lon="-0.305802">
        <ele>5.219</ele>
        <time>2022-04-24T11:18:24Z</time>
      </trkpt>
      <trkpt lat="39.538022" lon="-0.305838">
        <ele>4.709</ele>
        <time>2022-04-24T11:18:29Z</time>
      </trkpt>
      <trkpt lat="39.537915" lon="-0.305925">
        <ele>3.770</ele>
        <time>2022-04-24T11:18:39Z</time>
      </trkpt>
      <trkpt lat="39.537876" lon="-0.305982">
        <ele>4.129</ele>
        <time>2022-04-24T11:18:44Z</time>
      </trkpt>
      <trkpt lat="39.537789" lon="-0.306091">
        <ele>5.190</ele>
        <time>2022-04-24T11:18:54Z</time>
      </trkpt>
      <trkpt lat="39.537721" lon="-0.306179">
        <ele>5.829</ele>
        <time>2022-04-24T11:19:04Z</time>
      </trkpt>
      <trkpt lat="39.537681" lon="-0.306220">
        <ele>5.766</ele>
        <time>2022-04-24T11:19:09Z</time>
      </trkpt>
      <trkpt lat="39.537633" lon="-0.306235">
        <ele>5.242</ele>
        <time>2022-04-24T11:19:14Z</time>
      </trkpt>
      <trkpt lat="39.537559" lon="-0.306312">
        <ele>5.835</ele>
        <time>2022-04-24T11:19:24Z</time>
      </trkpt>
      <trkpt lat="39.537518" lon="-0.306353">
        <ele>5.854</ele>
        <time>2022-04-24T11:19:29Z</time>
      </trkpt>
      <trkpt lat="39.537439" lon="-0.306402">
        <ele>6.021</ele>
        <time>2022-04-24T11:19:39Z</time>
      </trkpt>
      <trkpt lat="39.537401" lon="-0.306418">
        <ele>6.777</ele>
        <time>2022-04-24T11:19:44Z</time>
      </trkpt>
      <trkpt lat="39.537332" lon="-0.306459">
        <ele>6.861</ele>
        <time>2022-04-24T11:19:54Z</time>
      </trkpt>
      <trkpt lat="39.537304" lon="-0.306488">
        <ele>6.527</ele>
        <time>2022-04-24T11:19:59Z</time>
      </trkpt>
      <trkpt lat="39.537268" lon="-0.306525">
        <ele>6.109</ele>
        <time>2022-04-24T11:20:04Z</time>
      </trkpt>
      <trkpt lat="39.537188" lon="-0.306628">
        <ele>5.498</ele>
        <time>2022-04-24T11:20:14Z</time>
      </trkpt>
      <trkpt lat="39.537083" lon="-0.306678">
        <ele>6.547</ele>
        <time>2022-04-24T11:20:24Z</time>
      </trkpt>
      <trkpt lat="39.536986" lon="-0.306754">
        <ele>6.388</ele>
        <time>2022-04-24T11:20:34Z</time>
      </trkpt>
      <trkpt lat="39.536880" lon="-0.306838">
        <ele>6.287</ele>
        <time>2022-04-24T11:20:44Z</time>
      </trkpt>
      <trkpt lat="39.536810" lon="-0.306896">
        <ele>5.454</ele>
        <time>2022-04-24T11:20:54Z</time>
      </trkpt>
      <trkpt lat="39.536785" lon="-0.306914">
        <ele>4.850</ele>
        <time>2022-04-24T11:20:59Z</time>
      </trkpt>
      <trkpt lat="39.536721" lon="-0.306959">
        <ele>3.863</ele>
        <time>2022-04-24T11:21:09Z</time>
      </trkpt>
      <trkpt lat="39.536681" lon="-0.307001">
        <ele>3.772</ele>
        <time>2022-04-24T11:21:14Z</time>
      </trkpt>
      <trkpt lat="39.536620" lon="-0.307095">
        <ele>4.829</ele>
        <time>2022-04-24T11:21:24Z</time>
      </trkpt>
      <trkpt lat="39.536560" lon="-0.307155">
        <ele>6.536</ele>
        <time>2022-04-24T11:21:34Z</time>
      </trkpt>
      <trkpt lat="39.536514" lon="-0.307184">
        <ele>6.617</ele>
        <time>2022-04-24T11:21:39Z</time>
      </trkpt>
      <trkpt lat="39.536478" lon="-0.307228">
        <ele>6.718</ele>
        <time>2022-04-24T11:21:44Z</time>
      </trkpt>
      <trkpt lat="39.536423" lon="-0.307321">
        <ele>7.709</ele>
        <time>2022-04-24T11:21:54Z</time>
      </trkpt>
      <trkpt lat="39.536349" lon="-0.307393">
        <ele>7.734</ele>
        <time>2022-04-24T11:22:04Z</time>
      </trkpt>
      <trkpt lat="39.536311" lon="-0.307432">
        <ele>7.373</ele>
        <time>2022-04-24T11:22:09Z</time>
      </trkpt>
      <trkpt lat="39.536270" lon="-0.307469">
        <ele>6.884</ele>
        <time>2022-04-24T11:22:14Z</time>
      </trkpt>
      <trkpt lat="39.536184" lon="-0.307547">
        <ele>7.073</ele>
        <time>2022-04-24T11:22:24Z</time>
      </trkpt>
      <trkpt lat="39.536163" lon="-0.307559">
        <ele>6.720</ele>
        <time>2022-04-24T11:22:29Z</time>
      </trkpt>
      <trkpt lat="39.536070" lon="-0.307631">
        <ele>6.676</ele>
        <time>2022-04-24T11:22:39Z</time>
      </trkpt>
      <trkpt lat="39.536028" lon="-0.307670">
        <ele>6.819</ele>
        <time>2022-04-24T11:22:44Z</time>
      </trkpt>
      <trkpt lat="39.535934" lon="-0.307741">
        <ele>5.938</ele>
        <time>2022-04-24T11:22:54Z</time>
      </trkpt>
      <trkpt lat="39.535889" lon="-0.307776">
        <ele>5.685</ele>
        <time>2022-04-24T11:22:59Z</time>
      </trkpt>
      <trkpt lat="39.535809" lon="-0.307842">
        <ele>5.134</ele>
        <time>2022-04-24T11:23:09Z</time>
      </trkpt>
      <trkpt lat="39.535768" lon="-0.307855">
        <ele>5.355</ele>
        <time>2022-04-24T11:23:25Z</time>
      </trkpt>
      <trkpt lat="39.535679" lon="-0.307929">
        <ele>4.810</ele>
        <time>2022-04-24T11:23:35Z</time>
      </trkpt>
      <trkpt lat="39.535590" lon="-0.308009">
        <ele>5.509</ele>
        <time>2022-04-24T11:23:45Z</time>
      </trkpt>
      <trkpt lat="39.535566" lon="-0.308028">
        <ele>5.894</ele>
        <time>2022-04-24T11:23:50Z</time>
      </trkpt>
      <trkpt lat="39.535508" lon="-0.308065">
        <ele>5.993</ele>
        <time>2022-04-24T11:24:00Z</time>
      </trkpt>
      <trkpt lat="39.535419" lon="-0.308144">
        <ele>5.944</ele>
        <time>2022-04-24T11:24:10Z</time>
      </trkpt>
      <trkpt lat="39.535359" lon="-0.308143">
        <ele>6.353</ele>
        <time>2022-04-24T11:24:15Z</time>
      </trkpt>
      <trkpt lat="39.535308" lon="-0.308171">
        <ele>6.230</ele>
        <time>2022-04-24T11:24:20Z</time>
      </trkpt>
      <trkpt lat="39.535238" lon="-0.308232">
        <ele>7.166</ele>
        <time>2022-04-24T11:24:30Z</time>
      </trkpt>
      <trkpt lat="39.535187" lon="-0.308253">
        <ele>7.389</ele>
        <time>2022-04-24T11:24:35Z</time>
      </trkpt>
      <trkpt lat="39.535110" lon="-0.308330">
        <ele>7.388</ele>
        <time>2022-04-24T11:24:45Z</time>
      </trkpt>
      <trkpt lat="39.535064" lon="-0.308358">
        <ele>6.815</ele>
        <time>2022-04-24T11:24:50Z</time>
      </trkpt>
      <trkpt lat="39.535028" lon="-0.308428">
        <ele>6.861</ele>
        <time>2022-04-24T11:25:00Z</time>
      </trkpt>
      <trkpt lat="39.534957" lon="-0.308529">
        <ele>5.821</ele>
        <time>2022-04-24T11:25:10Z</time>
      </trkpt>
      <trkpt lat="39.534901" lon="-0.308565">
        <ele>5.413</ele>
        <time>2022-04-24T11:25:15Z</time>
      </trkpt>
      <trkpt lat="39.534842" lon="-0.308602">
        <ele>5.409</ele>
        <time>2022-04-24T11:25:20Z</time>
      </trkpt>
      <trkpt lat="39.534802" lon="-0.308633">
        <ele>5.527</ele>
        <time>2022-04-24T11:26:19Z</time>
      </trkpt>
      <trkpt lat="39.534788" lon="-0.308639">
        <ele>6.136</ele>
        <time>2022-04-24T11:26:51Z</time>
      </trkpt>
      <trkpt lat="39.534708" lon="-0.308697">
        <ele>5.087</ele>
        <time>2022-04-24T11:26:56Z</time>
      </trkpt>
      <trkpt lat="39.534510" lon="-0.308853">
        <ele>5.726</ele>
        <time>2022-04-24T11:27:06Z</time>
      </trkpt>
      <trkpt lat="39.534261" lon="-0.309070">
        <ele>6.063</ele>
        <time>2022-04-24T11:27:16Z</time>
      </trkpt>
      <trkpt lat="39.534114" lon="-0.309169">
        <ele>6.589</ele>
        <time>2022-04-24T11:27:21Z</time>
      </trkpt>
      <trkpt lat="39.534075" lon="-0.309214">
        <ele>6.352</ele>
        <time>2022-04-24T11:27:26Z</time>
      </trkpt>
      <trkpt lat="39.533999" lon="-0.309221">
        <ele>8.251</ele>
        <time>2022-04-24T11:27:36Z</time>
      </trkpt>
      <trkpt lat="39.533924" lon="-0.309262">
        <ele>8.418</ele>
        <time>2022-04-24T11:27:41Z</time>
      </trkpt>
      <trkpt lat="39.533905" lon="-0.309233">
        <ele>8.696</ele>
        <time>2022-04-24T11:27:46Z</time>
      </trkpt>
      <trkpt lat="39.533857" lon="-0.309160">
        <ele>6.731</ele>
        <time>2022-04-24T11:27:56Z</time>
      </trkpt>
      <trkpt lat="39.533822" lon="-0.309159">
        <ele>5.524</ele>
        <time>2022-04-24T11:28:06Z</time>
      </trkpt>
      <trkpt lat="39.533804" lon="-0.309207">
        <ele>5.209</ele>
        <time>2022-04-24T11:28:11Z</time>
      </trkpt>
      <trkpt lat="39.533788" lon="-0.309287">
        <ele>5.020</ele>
        <time>2022-04-24T11:28:16Z</time>
      </trkpt>
      <trkpt lat="39.533720" lon="-0.309385">
        <ele>5.219</ele>
        <time>2022-04-24T11:28:26Z</time>
      </trkpt>
      <trkpt lat="39.533598" lon="-0.309461">
        <ele>5.550</ele>
        <time>2022-04-24T11:28:36Z</time>
      </trkpt>
      <trkpt lat="39.533468" lon="-0.309553">
        <ele>5.219</ele>
        <time>2022-04-24T11:28:41Z</time>
      </trkpt>
      <trkpt lat="39.533340" lon="-0.309638">
        <ele>5.186</ele>
        <time>2022-04-24T11:28:46Z</time>
      </trkpt>
      <trkpt lat="39.533202" lon="-0.309690">
        <ele>5.142</ele>
        <time>2022-04-24T11:28:51Z</time>
      </trkpt>
      <trkpt lat="39.533102" lon="-0.309752">
        <ele>6.175</ele>
        <time>2022-04-24T11:28:56Z</time>
      </trkpt>
      <trkpt lat="39.532965" lon="-0.309833">
        <ele>5.034</ele>
        <time>2022-04-24T11:29:06Z</time>
      </trkpt>
      <trkpt lat="39.532901" lon="-0.309865">
        <ele>4.741</ele>
        <time>2022-04-24T11:29:11Z</time>
      </trkpt>
      <trkpt lat="39.532836" lon="-0.309931">
        <ele>4.866</ele>
        <time>2022-04-24T11:29:16Z</time>
      </trkpt>
      <trkpt lat="39.532768" lon="-0.309968">
        <ele>5.229</ele>
        <time>2022-04-24T11:29:21Z</time>
      </trkpt>
      <trkpt lat="39.532759" lon="-0.309962">
        <ele>4.421</ele>
        <time>2022-04-24T11:29:27Z</time>
      </trkpt>
      <trkpt lat="39.532748" lon="-0.309965">
        <ele>3.909</ele>
        <time>2022-04-24T11:29:36Z</time>
      </trkpt>
      <trkpt lat="39.532701" lon="-0.310002">
        <ele>2.277</ele>
        <time>2022-04-24T11:29:46Z</time>
      </trkpt>
      <trkpt lat="39.532631" lon="-0.310086">
        <ele>1.626</ele>
        <time>2022-04-24T11:29:56Z</time>
      </trkpt>
      <trkpt lat="39.532535" lon="-0.310140">
        <ele>1.477</ele>
        <time>2022-04-24T11:30:06Z</time>
      </trkpt>
      <trkpt lat="39.532471" lon="-0.310157">
        <ele>1.976</ele>
        <time>2022-04-24T11:30:11Z</time>
      </trkpt>
      <trkpt lat="39.532415" lon="-0.310186">
        <ele>2.883</ele>
        <time>2022-04-24T11:30:16Z</time>
      </trkpt>
      <trkpt lat="39.532347" lon="-0.310249">
        <ele>5.329</ele>
        <time>2022-04-24T11:30:26Z</time>
      </trkpt>
      <trkpt lat="39.532256" lon="-0.310302">
        <ele>5.962</ele>
        <time>2022-04-24T11:30:36Z</time>
      </trkpt>
      <trkpt lat="39.532207" lon="-0.310356">
        <ele>5.771</ele>
        <time>2022-04-24T11:30:41Z</time>
      </trkpt>
      <trkpt lat="39.532123" lon="-0.310415">
        <ele>4.768</ele>
        <time>2022-04-24T11:30:51Z</time>
      </trkpt>
      <trkpt lat="39.532103" lon="-0.310429">
        <ele>3.972</ele>
        <time>2022-04-24T11:30:56Z</time>
      </trkpt>
      <trkpt lat="39.532081" lon="-0.310391">
        <ele>3.913</ele>
        <time>2022-04-24T11:31:06Z</time>
      </trkpt>
      <trkpt lat="39.532055" lon="-0.310406">
        <ele>4.314</ele>
        <time>2022-04-24T11:31:11Z</time>
      </trkpt>
      <trkpt lat="39.532008" lon="-0.310471">
        <ele>4.309</ele>
        <time>2022-04-24T11:31:21Z</time>
      </trkpt>
      <trkpt lat="39.531966" lon="-0.310477">
        <ele>4.268</ele>
        <time>2022-04-24T11:31:26Z</time>
      </trkpt>
      <trkpt lat="39.531952" lon="-0.310338">
        <ele>3.877</ele>
        <time>2022-04-24T11:31:36Z</time>
      </trkpt>
      <trkpt lat="39.531936" lon="-0.310223">
        <ele>3.648</ele>
        <time>2022-04-24T11:31:46Z</time>
      </trkpt>
      <trkpt lat="39.531901" lon="-0.310195">
        <ele>3.357</ele>
        <time>2022-04-24T11:31:51Z</time>
      </trkpt>
      <trkpt lat="39.531853" lon="-0.310213">
        <ele>4.454</ele>
        <time>2022-04-24T11:31:56Z</time>
      </trkpt>
      <trkpt lat="39.531730" lon="-0.310265">
        <ele>3.980</ele>
        <time>2022-04-24T11:32:06Z</time>
      </trkpt>
      <trkpt lat="39.531614" lon="-0.310321">
        <ele>4.593</ele>
        <time>2022-04-24T11:32:16Z</time>
      </trkpt>
      <trkpt lat="39.531590" lon="-0.310343">
        <ele>4.662</ele>
        <time>2022-04-24T11:32:21Z</time>
      </trkpt>
      <trkpt lat="39.531537" lon="-0.310379">
        <ele>3.079</ele>
        <time>2022-04-24T11:32:26Z</time>
      </trkpt>
      <trkpt lat="39.531433" lon="-0.310453">
        <ele>3.472</ele>
        <time>2022-04-24T11:32:36Z</time>
      </trkpt>
      <trkpt lat="39.531325" lon="-0.310514">
        <ele>2.613</ele>
        <time>2022-04-24T11:32:46Z</time>
      </trkpt>
      <trkpt lat="39.531294" lon="-0.310566">
        <ele>2.514</ele>
        <time>2022-04-24T11:32:51Z</time>
      </trkpt>
      <trkpt lat="39.531281" lon="-0.310577">
        <ele>2.609</ele>
        <time>2022-04-24T11:32:56Z</time>
      </trkpt>
      <trkpt lat="39.531077" lon="-0.310783">
        <ele>3.858</ele>
        <time>2022-04-24T11:33:06Z</time>
      </trkpt>
      <trkpt lat="39.530823" lon="-0.310981">
        <ele>4.677</ele>
        <time>2022-04-24T11:33:16Z</time>
      </trkpt>
      <trkpt lat="39.530717" lon="-0.311090">
        <ele>3.978</ele>
        <time>2022-04-24T11:33:21Z</time>
      </trkpt>
      <trkpt lat="39.530644" lon="-0.311218">
        <ele>3.427</ele>
        <time>2022-04-24T11:33:26Z</time>
      </trkpt>
      <trkpt lat="39.530629" lon="-0.311396">
        <ele>2.824</ele>
        <time>2022-04-24T11:33:36Z</time>
      </trkpt>
      <trkpt lat="39.530464" lon="-0.311444">
        <ele>3.580</ele>
        <time>2022-04-24T11:33:46Z</time>
      </trkpt>
      <trkpt lat="39.530404" lon="-0.311368">
        <ele>4.393</ele>
        <time>2022-04-24T11:33:51Z</time>
      </trkpt>
      <trkpt lat="39.530350" lon="-0.311323">
        <ele>5.092</ele>
        <time>2022-04-24T11:33:56Z</time>
      </trkpt>
      <trkpt lat="39.530276" lon="-0.311328">
        <ele>5.519</ele>
        <time>2022-04-24T11:34:06Z</time>
      </trkpt>
      <trkpt lat="39.530219" lon="-0.311354">
        <ele>5.156</ele>
        <time>2022-04-24T11:34:11Z</time>
      </trkpt>
      <trkpt lat="39.530104" lon="-0.311422">
        <ele>5.259</ele>
        <time>2022-04-24T11:34:21Z</time>
      </trkpt>
      <trkpt lat="39.530051" lon="-0.311466">
        <ele>5.014</ele>
        <time>2022-04-24T11:34:26Z</time>
      </trkpt>
      <trkpt lat="39.529944" lon="-0.311558">
        <ele>4.809</ele>
        <time>2022-04-24T11:34:36Z</time>
      </trkpt>
      <trkpt lat="39.529890" lon="-0.311610">
        <ele>4.696</ele>
        <time>2022-04-24T11:34:41Z</time>
      </trkpt>
      <trkpt lat="39.529841" lon="-0.311677">
        <ele>4.345</ele>
        <time>2022-04-24T11:34:46Z</time>
      </trkpt>
      <trkpt lat="39.529816" lon="-0.311753">
        <ele>3.826</ele>
        <time>2022-04-24T11:34:51Z</time>
      </trkpt>
      <trkpt lat="39.529800" lon="-0.311832">
        <ele>3.925</ele>
        <time>2022-04-24T11:34:56Z</time>
      </trkpt>
      <trkpt lat="39.529771" lon="-0.311975">
        <ele>4.282</ele>
        <time>2022-04-24T11:35:06Z</time>
      </trkpt>
      <trkpt lat="39.529708" lon="-0.312022">
        <ele>4.788</ele>
        <time>2022-04-24T11:35:16Z</time>
      </trkpt>
      <trkpt lat="39.529509" lon="-0.312170">
        <ele>5.211</ele>
        <time>2022-04-24T11:35:26Z</time>
      </trkpt>
      <trkpt lat="39.529383" lon="-0.312264">
        <ele>5.730</ele>
        <time>2022-04-24T11:35:36Z</time>
      </trkpt>
      <trkpt lat="39.529339" lon="-0.312188">
        <ele>4.587</ele>
        <time>2022-04-24T11:35:46Z</time>
      </trkpt>
      <trkpt lat="39.529324" lon="-0.312180">
        <ele>3.172</ele>
        <time>2022-04-24T11:35:56Z</time>
      </trkpt>
      <trkpt lat="39.529183" lon="-0.312203">
        <ele>2.713</ele>
        <time>2022-04-24T11:36:06Z</time>
      </trkpt>
      <trkpt lat="39.529125" lon="-0.312232">
        <ele>3.714</ele>
        <time>2022-04-24T11:36:11Z</time>
      </trkpt>
      <trkpt lat="39.529071" lon="-0.312225">
        <ele>4.109</ele>
        <time>2022-04-24T11:36:16Z</time>
      </trkpt>
      <trkpt lat="39.528968" lon="-0.312202">
        <ele>4.798</ele>
        <time>2022-04-24T11:36:26Z</time>
      </trkpt>
      <trkpt lat="39.528845" lon="-0.312209">
        <ele>3.667</ele>
        <time>2022-04-24T11:36:36Z</time>
      </trkpt>
      <trkpt lat="39.528732" lon="-0.312288">
        <ele>3.098</ele>
        <time>2022-04-24T11:36:46Z</time>
      </trkpt>
      <trkpt lat="39.528674" lon="-0.312322">
        <ele>3.087</ele>
        <time>2022-04-24T11:36:51Z</time>
      </trkpt>
      <trkpt lat="39.528620" lon="-0.312352">
        <ele>3.224</ele>
        <time>2022-04-24T11:36:56Z</time>
      </trkpt>
      <trkpt lat="39.528498" lon="-0.312423">
        <ele>3.840</ele>
        <time>2022-04-24T11:37:06Z</time>
      </trkpt>
      <trkpt lat="39.528435" lon="-0.312463">
        <ele>3.933</ele>
        <time>2022-04-24T11:37:11Z</time>
      </trkpt>
      <trkpt lat="39.528410" lon="-0.312480">
        <ele>3.842</ele>
        <time>2022-04-24T11:37:16Z</time>
      </trkpt>
      <trkpt lat="39.528363" lon="-0.312490">
        <ele>3.459</ele>
        <time>2022-04-24T11:37:21Z</time>
      </trkpt>
      <trkpt lat="39.528256" lon="-0.312552">
        <ele>3.221</ele>
        <time>2022-04-24T11:37:26Z</time>
      </trkpt>
      <trkpt lat="39.528017" lon="-0.312707">
        <ele>3.041</ele>
        <time>2022-04-24T11:37:36Z</time>
      </trkpt>
      <trkpt lat="39.527966" lon="-0.312845">
        <ele>3.705</ele>
        <time>2022-04-24T11:37:41Z</time>
      </trkpt>
      <trkpt lat="39.528053" lon="-0.313132">
        <ele>3.909</ele>
        <time>2022-04-24T11:37:51Z</time>
      </trkpt>
      <trkpt lat="39.527993" lon="-0.313250">
        <ele>4.593</ele>
        <time>2022-04-24T11:37:56Z</time>
      </trkpt>
      <trkpt lat="39.527777" lon="-0.313335">
        <ele>4.122</ele>
        <time>2022-04-24T11:38:06Z</time>
      </trkpt>
      <trkpt lat="39.527679" lon="-0.313429">
        <ele>3.993</ele>
        <time>2022-04-24T11:38:11Z</time>
      </trkpt>
      <trkpt lat="39.527465" lon="-0.313576">
        <ele>3.272</ele>
        <time>2022-04-24T11:38:21Z</time>
      </trkpt>
      <trkpt lat="39.527361" lon="-0.313670">
        <ele>2.619</ele>
        <time>2022-04-24T11:38:26Z</time>
      </trkpt>
      <trkpt lat="39.527120" lon="-0.313833">
        <ele>3.135</ele>
        <time>2022-04-24T11:38:36Z</time>
      </trkpt>
      <trkpt lat="39.527020" lon="-0.313902">
        <ele>4.028</ele>
        <time>2022-04-24T11:38:41Z</time>
      </trkpt>
      <trkpt lat="39.526846" lon="-0.313979">
        <ele>4.267</ele>
        <time>2022-04-24T11:38:51Z</time>
      </trkpt>
      <trkpt lat="39.526766" lon="-0.314041">
        <ele>4.814</ele>
        <time>2022-04-24T11:38:56Z</time>
      </trkpt>
      <trkpt lat="39.526640" lon="-0.314129">
        <ele>4.899</ele>
        <time>2022-04-24T11:39:06Z</time>
      </trkpt>
      <trkpt lat="39.526474" lon="-0.314222">
        <ele>3.707</ele>
        <time>2022-04-24T11:39:16Z</time>
      </trkpt>
      <trkpt lat="39.526361" lon="-0.314319">
        <ele>5.127</ele>
        <time>2022-04-24T11:39:26Z</time>
      </trkpt>
      <trkpt lat="39.526224" lon="-0.314407">
        <ele>6.509</ele>
        <time>2022-04-24T11:39:36Z</time>
      </trkpt>
      <trkpt lat="39.526079" lon="-0.314499">
        <ele>7.170</ele>
        <time>2022-04-24T11:39:46Z</time>
      </trkpt>
      <trkpt lat="39.525926" lon="-0.314615">
        <ele>7.869</ele>
        <time>2022-04-24T11:39:56Z</time>
      </trkpt>
      <trkpt lat="39.525764" lon="-0.314677">
        <ele>6.030</ele>
        <time>2022-04-24T11:40:06Z</time>
      </trkpt>
      <trkpt lat="39.525663" lon="-0.314734">
        <ele>5.769</ele>
        <time>2022-04-24T11:40:11Z</time>
      </trkpt>
      <trkpt lat="39.525491" lon="-0.314860">
        <ele>5.186</ele>
        <time>2022-04-24T11:40:21Z</time>
      </trkpt>
      <trkpt lat="39.525389" lon="-0.314918">
        <ele>5.362</ele>
        <time>2022-04-24T11:40:26Z</time>
      </trkpt>
      <trkpt lat="39.525208" lon="-0.315115">
        <ele>6.185</ele>
        <time>2022-04-24T11:40:36Z</time>
      </trkpt>
      <trkpt lat="39.525079" lon="-0.315196">
        <ele>6.254</ele>
        <time>2022-04-24T11:40:41Z</time>
      </trkpt>
      <trkpt lat="39.524783" lon="-0.315399">
        <ele>5.721</ele>
        <time>2022-04-24T11:40:51Z</time>
      </trkpt>
      <trkpt lat="39.524608" lon="-0.315514">
        <ele>5.133</ele>
        <time>2022-04-24T11:40:56Z</time>
      </trkpt>
      <trkpt lat="39.524255" lon="-0.315755">
        <ele>5.823</ele>
        <time>2022-04-24T11:41:06Z</time>
      </trkpt>
      <trkpt lat="39.524069" lon="-0.315879">
        <ele>6.115</ele>
        <time>2022-04-24T11:41:11Z</time>
      </trkpt>
      <trkpt lat="39.523881" lon="-0.315999">
        <ele>6.809</ele>
        <time>2022-04-24T11:41:16Z</time>
      </trkpt>
      <trkpt lat="39.523499" lon="-0.316253">
        <ele>7.444</ele>
        <time>2022-04-24T11:41:26Z</time>
      </trkpt>
      <trkpt lat="39.523130" lon="-0.316505">
        <ele>7.363</ele>
        <time>2022-04-24T11:41:36Z</time>
      </trkpt>
      <trkpt lat="39.522762" lon="-0.316758">
        <ele>7.264</ele>
        <time>2022-04-24T11:41:46Z</time>
      </trkpt>
      <trkpt lat="39.522387" lon="-0.317003">
        <ele>6.913</ele>
        <time>2022-04-24T11:41:56Z</time>
      </trkpt>
      <trkpt lat="39.522017" lon="-0.317241">
        <ele>8.370</ele>
        <time>2022-04-24T11:42:06Z</time>
      </trkpt>
      <trkpt lat="39.521800" lon="-0.317257">
        <ele>9.346</ele>
        <time>2022-04-24T11:42:16Z</time>
      </trkpt>
      <trkpt lat="39.521647" lon="-0.317252">
        <ele>7.149</ele>
        <time>2022-04-24T11:42:26Z</time>
      </trkpt>
      <trkpt lat="39.521339" lon="-0.317464">
        <ele>6.878</ele>
        <time>2022-04-24T11:42:36Z</time>
      </trkpt>
      <trkpt lat="39.521060" lon="-0.317717">
        <ele>6.755</ele>
        <time>2022-04-24T11:42:46Z</time>
      </trkpt>
      <trkpt lat="39.520785" lon="-0.317990">
        <ele>7.745</ele>
        <time>2022-04-24T11:42:56Z</time>
      </trkpt>
      <trkpt lat="39.520420" lon="-0.318220">
        <ele>6.847</ele>
        <time>2022-04-24T11:43:06Z</time>
      </trkpt>
      <trkpt lat="39.520074" lon="-0.318435">
        <ele>6.011</ele>
        <time>2022-04-24T11:43:16Z</time>
      </trkpt>
      <trkpt lat="39.519665" lon="-0.318675">
        <ele>7.409</ele>
        <time>2022-04-24T11:43:26Z</time>
      </trkpt>
      <trkpt lat="39.519251" lon="-0.318893">
        <ele>6.985</ele>
        <time>2022-04-24T11:43:36Z</time>
      </trkpt>
      <trkpt lat="39.519045" lon="-0.318999">
        <ele>6.814</ele>
        <time>2022-04-24T11:43:41Z</time>
      </trkpt>
      <trkpt lat="39.518605" lon="-0.319192">
        <ele>7.045</ele>
        <time>2022-04-24T11:43:51Z</time>
      </trkpt>
      <trkpt lat="39.518378" lon="-0.319295">
        <ele>7.364</ele>
        <time>2022-04-24T11:43:56Z</time>
      </trkpt>
      <trkpt lat="39.517924" lon="-0.319467">
        <ele>6.891</ele>
        <time>2022-04-24T11:44:06Z</time>
      </trkpt>
      <trkpt lat="39.517427" lon="-0.319645">
        <ele>6.437</ele>
        <time>2022-04-24T11:44:16Z</time>
      </trkpt>
      <trkpt lat="39.516970" lon="-0.319806">
        <ele>5.410</ele>
        <time>2022-04-24T11:44:26Z</time>
      </trkpt>
      <trkpt lat="39.516527" lon="-0.319963">
        <ele>5.249</ele>
        <time>2022-04-24T11:44:36Z</time>
      </trkpt>
      <trkpt lat="39.516138" lon="-0.320088">
        <ele>6.276</ele>
        <time>2022-04-24T11:44:46Z</time>
      </trkpt>
      <trkpt lat="39.516002" lon="-0.320149">
        <ele>5.863</ele>
        <time>2022-04-24T11:44:51Z</time>
      </trkpt>
      <trkpt lat="39.515825" lon="-0.320224">
        <ele>5.944</ele>
        <time>2022-04-24T11:44:56Z</time>
      </trkpt>
      <trkpt lat="39.515406" lon="-0.320416">
        <ele>5.218</ele>
        <time>2022-04-24T11:45:06Z</time>
      </trkpt>
      <trkpt lat="39.515046" lon="-0.320553">
        <ele>5.309</ele>
        <time>2022-04-24T11:45:16Z</time>
      </trkpt>
      <trkpt lat="39.514733" lon="-0.320450">
        <ele>5.467</ele>
        <time>2022-04-24T11:45:26Z</time>
      </trkpt>
      <trkpt lat="39.514419" lon="-0.320624">
        <ele>6.916</ele>
        <time>2022-04-24T11:45:36Z</time>
      </trkpt>
      <trkpt lat="39.514246" lon="-0.320728">
        <ele>8.377</ele>
        <time>2022-04-24T11:45:41Z</time>
      </trkpt>
      <trkpt lat="39.513890" lon="-0.320937">
        <ele>8.716</ele>
        <time>2022-04-24T11:45:51Z</time>
      </trkpt>
      <trkpt lat="39.513703" lon="-0.321024">
        <ele>7.353</ele>
        <time>2022-04-24T11:45:56Z</time>
      </trkpt>
      <trkpt lat="39.513431" lon="-0.321048">
        <ele>9.549</ele>
        <time>2022-04-24T11:46:06Z</time>
      </trkpt>
      <trkpt lat="39.513367" lon="-0.321120">
        <ele>11.162</ele>
        <time>2022-04-24T11:46:16Z</time>
      </trkpt>
      <trkpt lat="39.513328" lon="-0.321159">
        <ele>8.391</ele>
        <time>2022-04-24T11:46:46Z</time>
      </trkpt>
      <trkpt lat="39.513330" lon="-0.321137">
        <ele>7.658</ele>
        <time>2022-04-24T11:46:51Z</time>
      </trkpt>
      <trkpt lat="39.513330" lon="-0.321123">
        <ele>6.225</ele>
        <time>2022-04-24T11:46:56Z</time>
      </trkpt>
      <trkpt lat="39.513472" lon="-0.321183">
        <ele>6.226</ele>
        <time>2022-04-24T11:47:06Z</time>
      </trkpt>
      <trkpt lat="39.513216" lon="-0.321392">
        <ele>8.208</ele>
        <time>2022-04-24T11:47:16Z</time>
      </trkpt>
      <trkpt lat="39.513076" lon="-0.321488">
        <ele>9.309</ele>
        <time>2022-04-24T11:47:21Z</time>
      </trkpt>
      <trkpt lat="39.512939" lon="-0.321601">
        <ele>10.923</ele>
        <time>2022-04-24T11:47:26Z</time>
      </trkpt>
      <trkpt lat="39.512637" lon="-0.321777">
        <ele>10.422</ele>
        <time>2022-04-24T11:47:36Z</time>
      </trkpt>
      <trkpt lat="39.512268" lon="-0.322021">
        <ele>10.733</ele>
        <time>2022-04-24T11:47:46Z</time>
      </trkpt>
      <trkpt lat="39.512106" lon="-0.322162">
        <ele>10.292</ele>
        <time>2022-04-24T11:47:51Z</time>
      </trkpt>
      <trkpt lat="39.511949" lon="-0.322262">
        <ele>10.299</ele>
        <time>2022-04-24T11:47:56Z</time>
      </trkpt>
      <trkpt lat="39.511632" lon="-0.322506">
        <ele>11.475</ele>
        <time>2022-04-24T11:48:06Z</time>
      </trkpt>
      <trkpt lat="39.511451" lon="-0.322652">
        <ele>11.548</ele>
        <time>2022-04-24T11:48:11Z</time>
      </trkpt>
      <trkpt lat="39.511071" lon="-0.322913">
        <ele>12.197</ele>
        <time>2022-04-24T11:48:21Z</time>
      </trkpt>
      <trkpt lat="39.510893" lon="-0.323046">
        <ele>12.964</ele>
        <time>2022-04-24T11:48:26Z</time>
      </trkpt>
      <trkpt lat="39.510504" lon="-0.323297">
        <ele>10.974</ele>
        <time>2022-04-24T11:48:36Z</time>
      </trkpt>
      <trkpt lat="39.510077" lon="-0.323476">
        <ele>8.856</ele>
        <time>2022-04-24T11:48:46Z</time>
      </trkpt>
      <trkpt lat="39.509859" lon="-0.323577">
        <ele>5.621</ele>
        <time>2022-04-24T11:48:51Z</time>
      </trkpt>
      <trkpt lat="39.509653" lon="-0.323657">
        <ele>4.109</ele>
        <time>2022-04-24T11:48:56Z</time>
      </trkpt>
      <trkpt lat="39.509273" lon="-0.323740">
        <ele>2.448</ele>
        <time>2022-04-24T11:49:06Z</time>
      </trkpt>
      <trkpt lat="39.508907" lon="-0.323606">
        <ele>1.987</ele>
        <time>2022-04-24T11:49:16Z</time>
      </trkpt>
      <trkpt lat="39.508642" lon="-0.323346">
        <ele>1.518</ele>
        <time>2022-04-24T11:49:26Z</time>
      </trkpt>
      <trkpt lat="39.508399" lon="-0.323029">
        <ele>0.177</ele>
        <time>2022-04-24T11:49:36Z</time>
      </trkpt>
      <trkpt lat="39.508281" lon="-0.322695">
        <ele>0.464</ele>
        <time>2022-04-24T11:49:46Z</time>
      </trkpt>
      <trkpt lat="39.508199" lon="-0.322281">
        <ele>0.270</ele>
        <time>2022-04-24T11:49:56Z</time>
      </trkpt>
      <trkpt lat="39.508129" lon="-0.322040">
        <ele>-6.863</ele>
        <time>2022-04-24T11:50:06Z</time>
      </trkpt>
      <trkpt lat="39.508054" lon="-0.321792">
        <ele>-7.392</ele>
        <time>2022-04-24T11:50:16Z</time>
      </trkpt>
      <trkpt lat="39.508085" lon="-0.321705">
        <ele>-6.139</ele>
        <time>2022-04-24T11:50:21Z</time>
      </trkpt>
      <trkpt lat="39.507936" lon="-0.321697">
        <ele>-2.067</ele>
        <time>2022-04-24T11:50:26Z</time>
      </trkpt>
      <trkpt lat="39.507685" lon="-0.321715">
        <ele>3.581</ele>
        <time>2022-04-24T11:50:36Z</time>
      </trkpt>
      <trkpt lat="39.507385" lon="-0.321731">
        <ele>4.719</ele>
        <time>2022-04-24T11:50:46Z</time>
      </trkpt>
      <trkpt lat="39.507106" lon="-0.321930">
        <ele>2.709</ele>
        <time>2022-04-24T11:50:56Z</time>
      </trkpt>
      <trkpt lat="39.506780" lon="-0.322088">
        <ele>1.067</ele>
        <time>2022-04-24T11:51:06Z</time>
      </trkpt>
      <trkpt lat="39.506422" lon="-0.322181">
        <ele>1.446</ele>
        <time>2022-04-24T11:51:16Z</time>
      </trkpt>
      <trkpt lat="39.506238" lon="-0.322220">
        <ele>1.747</ele>
        <time>2022-04-24T11:51:21Z</time>
      </trkpt>
      <trkpt lat="39.506060" lon="-0.322292">
        <ele>0.926</ele>
        <time>2022-04-24T11:51:26Z</time>
      </trkpt>
      <trkpt lat="39.505690" lon="-0.322388">
        <ele>0.353</ele>
        <time>2022-04-24T11:51:36Z</time>
      </trkpt>
      <trkpt lat="39.505313" lon="-0.322460">
        <ele>0.579</ele>
        <time>2022-04-24T11:51:46Z</time>
      </trkpt>
      <trkpt lat="39.505122" lon="-0.322419">
        <ele>0.332</ele>
        <time>2022-04-24T11:51:51Z</time>
      </trkpt>
      <trkpt lat="39.504940" lon="-0.322352">
        <ele>0.631</ele>
        <time>2022-04-24T11:51:56Z</time>
      </trkpt>
      <trkpt lat="39.504624" lon="-0.322522">
        <ele>0.498</ele>
        <time>2022-04-24T11:52:06Z</time>
      </trkpt>
      <trkpt lat="39.504479" lon="-0.322659">
        <ele>-0.461</ele>
        <time>2022-04-24T11:52:11Z</time>
      </trkpt>
      <trkpt lat="39.504346" lon="-0.322714">
        <ele>0.321</ele>
        <time>2022-04-24T11:52:16Z</time>
      </trkpt>
      <trkpt lat="39.504048" lon="-0.322730">
        <ele>2.313</ele>
        <time>2022-04-24T11:52:26Z</time>
      </trkpt>
      <trkpt lat="39.503733" lon="-0.322829">
        <ele>-0.709</ele>
        <time>2022-04-24T11:52:36Z</time>
      </trkpt>
      <trkpt lat="39.503488" lon="-0.322846">
        <ele>0.457</ele>
        <time>2022-04-24T11:52:46Z</time>
      </trkpt>
      <trkpt lat="39.503334" lon="-0.322886">
        <ele>0.436</ele>
        <time>2022-04-24T11:52:51Z</time>
      </trkpt>
      <trkpt lat="39.503194" lon="-0.322933">
        <ele>0.387</ele>
        <time>2022-04-24T11:52:56Z</time>
      </trkpt>
      <trkpt lat="39.503133" lon="-0.323015">
        <ele>-0.196</ele>
        <time>2022-04-24T11:53:06Z</time>
      </trkpt>
      <trkpt lat="39.503089" lon="-0.323025">
        <ele>-0.453</ele>
        <time>2022-04-24T11:53:16Z</time>
      </trkpt>
      <trkpt lat="39.503069" lon="-0.323072">
        <ele>-0.149</ele>
        <time>2022-04-24T11:53:21Z</time>
      </trkpt>
      <trkpt lat="39.503034" lon="-0.323112">
        <ele>-0.242</ele>
        <time>2022-04-24T11:53:26Z</time>
      </trkpt>
      <trkpt lat="39.502970" lon="-0.323143">
        <ele>-0.911</ele>
        <time>2022-04-24T11:53:36Z</time>
      </trkpt>
      <trkpt lat="39.502795" lon="-0.323355">
        <ele>-1.158</ele>
        <time>2022-04-24T11:53:46Z</time>
      </trkpt>
      <trkpt lat="39.502611" lon="-0.323750">
        <ele>1.256</ele>
        <time>2022-04-24T11:53:56Z</time>
      </trkpt>
      <trkpt lat="39.502551" lon="-0.324269">
        <ele>2.159</ele>
        <time>2022-04-24T11:54:06Z</time>
      </trkpt>
      <trkpt lat="39.502522" lon="-0.324776">
        <ele>2.714</ele>
        <time>2022-04-24T11:54:16Z</time>
      </trkpt>
      <trkpt lat="39.502502" lon="-0.325033">
        <ele>2.709</ele>
        <time>2022-04-24T11:54:21Z</time>
      </trkpt>
      <trkpt lat="39.502438" lon="-0.325249">
        <ele>3.356</ele>
        <time>2022-04-24T11:54:26Z</time>
      </trkpt>
      <trkpt lat="39.502328" lon="-0.325501">
        <ele>6.025</ele>
        <time>2022-04-24T11:54:36Z</time>
      </trkpt>
      <trkpt lat="39.502246" lon="-0.325563">
        <ele>7.776</ele>
        <time>2022-04-24T11:54:41Z</time>
      </trkpt>
      <trkpt lat="39.502127" lon="-0.325580">
        <ele>5.345</ele>
        <time>2022-04-24T11:54:46Z</time>
      </trkpt>
      <trkpt lat="39.501844" lon="-0.325570">
        <ele>5.432</ele>
        <time>2022-04-24T11:54:56Z</time>
      </trkpt>
      <trkpt lat="39.501685" lon="-0.325436">
        <ele>7.718</ele>
        <time>2022-04-24T11:55:06Z</time>
      </trkpt>
      <trkpt lat="39.501449" lon="-0.325418">
        <ele>5.771</ele>
        <time>2022-04-24T11:55:16Z</time>
      </trkpt>
      <trkpt lat="39.501311" lon="-0.325407">
        <ele>5.780</ele>
        <time>2022-04-24T11:55:21Z</time>
      </trkpt>
      <trkpt lat="39.501342" lon="-0.325252">
        <ele>4.177</ele>
        <time>2022-04-24T11:55:26Z</time>
      </trkpt>
      <trkpt lat="39.501492" lon="-0.324873">
        <ele>3.148</ele>
        <time>2022-04-24T11:55:36Z</time>
      </trkpt>
      <trkpt lat="39.501653" lon="-0.324788">
        <ele>2.161</ele>
        <time>2022-04-24T11:55:46Z</time>
      </trkpt>
      <trkpt lat="39.501704" lon="-0.324938">
        <ele>2.817</ele>
        <time>2022-04-24T11:55:51Z</time>
      </trkpt>
      <trkpt lat="39.501724" lon="-0.325037">
        <ele>3.709</ele>
        <time>2022-04-24T11:55:56Z</time>
      </trkpt>
      <trkpt lat="39.501747" lon="-0.325015">
        <ele>4.515</ele>
        <time>2022-04-24T11:56:15Z</time>
      </trkpt>
      <trkpt lat="39.501747" lon="-0.325065">
        <ele>3.344</ele>
        <time>2022-04-24T11:57:05Z</time>
      </trkpt>
      <trkpt lat="39.501743" lon="-0.325149">
        <ele>3.665</ele>
        <time>2022-04-24T11:57:10Z</time>
      </trkpt>
      <trkpt lat="39.501721" lon="-0.325197">
        <ele>4.054</ele>
        <time>2022-04-24T11:57:15Z</time>
      </trkpt>
      <trkpt lat="39.501718" lon="-0.325211">
        <ele>4.171</ele>
        <time>2022-04-24T11:57:21Z</time>
      </trkpt>
      <trkpt lat="39.501647" lon="-0.325323">
        <ele>3.887</ele>
        <time>2022-04-24T11:57:26Z</time>
      </trkpt>
      <trkpt lat="39.501439" lon="-0.325416">
        <ele>4.030</ele>
        <time>2022-04-24T11:57:36Z</time>
      </trkpt>
      <trkpt lat="39.501276" lon="-0.325397">
        <ele>3.799</ele>
        <time>2022-04-24T11:57:41Z</time>
      </trkpt>
      <trkpt lat="39.500934" lon="-0.325435">
        <ele>4.396</ele>
        <time>2022-04-24T11:57:51Z</time>
      </trkpt>
      <trkpt lat="39.500731" lon="-0.325434">
        <ele>4.065</ele>
        <time>2022-04-24T11:57:56Z</time>
      </trkpt>
      <trkpt lat="39.500314" lon="-0.325401">
        <ele>2.968</ele>
        <time>2022-04-24T11:58:06Z</time>
      </trkpt>
      <trkpt lat="39.499912" lon="-0.325369">
        <ele>2.614</ele>
        <time>2022-04-24T11:58:16Z</time>
      </trkpt>
      <trkpt lat="39.499692" lon="-0.325352">
        <ele>3.409</ele>
        <time>2022-04-24T11:58:21Z</time>
      </trkpt>
      <trkpt lat="39.499470" lon="-0.325334">
        <ele>3.727</ele>
        <time>2022-04-24T11:58:26Z</time>
      </trkpt>
      <trkpt lat="39.499042" lon="-0.325346">
        <ele>3.396</ele>
        <time>2022-04-24T11:58:36Z</time>
      </trkpt>
      <trkpt lat="39.498593" lon="-0.325417">
        <ele>2.697</ele>
        <time>2022-04-24T11:58:46Z</time>
      </trkpt>
      <trkpt lat="39.498170" lon="-0.325543">
        <ele>2.276</ele>
        <time>2022-04-24T11:58:56Z</time>
      </trkpt>
      <trkpt lat="39.497720" lon="-0.325634">
        <ele>2.193</ele>
        <time>2022-04-24T11:59:06Z</time>
      </trkpt>
      <trkpt lat="39.497484" lon="-0.325657">
        <ele>2.199</ele>
        <time>2022-04-24T11:59:11Z</time>
      </trkpt>
      <trkpt lat="39.497053" lon="-0.325600">
        <ele>2.512</ele>
        <time>2022-04-24T11:59:21Z</time>
      </trkpt>
      <trkpt lat="39.496816" lon="-0.325574">
        <ele>2.511</ele>
        <time>2022-04-24T11:59:26Z</time>
      </trkpt>
      <trkpt lat="39.496364" lon="-0.325550">
        <ele>3.248</ele>
        <time>2022-04-24T11:59:36Z</time>
      </trkpt>
      <trkpt lat="39.496141" lon="-0.325544">
        <ele>3.298</ele>
        <time>2022-04-24T11:59:41Z</time>
      </trkpt>
      <trkpt lat="39.495915" lon="-0.325514">
        <ele>3.415</ele>
        <time>2022-04-24T11:59:46Z</time>
      </trkpt>
      <trkpt lat="39.495490" lon="-0.325486">
        <ele>3.226</ele>
        <time>2022-04-24T11:59:56Z</time>
      </trkpt>
      <trkpt lat="39.495091" lon="-0.325465">
        <ele>2.809</ele>
        <time>2022-04-24T12:00:06Z</time>
      </trkpt>
      <trkpt lat="39.494958" lon="-0.325452">
        <ele>2.550</ele>
        <time>2022-04-24T12:00:11Z</time>
      </trkpt>
      <trkpt lat="39.494721" lon="-0.325465">
        <ele>0.199</ele>
        <time>2022-04-24T12:00:21Z</time>
      </trkpt>
      <trkpt lat="39.494691" lon="-0.325550">
        <ele>3.280</ele>
        <time>2022-04-24T12:00:26Z</time>
      </trkpt>
      <trkpt lat="39.494457" lon="-0.325436">
        <ele>4.099</ele>
        <time>2022-04-24T12:00:36Z</time>
      </trkpt>
      <trkpt lat="39.494355" lon="-0.325330">
        <ele>3.486</ele>
        <time>2022-04-24T12:00:49Z</time>
      </trkpt>
      <trkpt lat="39.494290" lon="-0.325189">
        <ele>8.322</ele>
        <time>2022-04-24T12:01:10Z</time>
      </trkpt>
      <trkpt lat="39.494257" lon="-0.324951">
        <ele>8.175</ele>
        <time>2022-04-24T12:01:15Z</time>
      </trkpt>
      <trkpt lat="39.494026" lon="-0.324635">
        <ele>7.614</ele>
        <time>2022-04-24T12:01:25Z</time>
      </trkpt>
      <trkpt lat="39.493738" lon="-0.324677">
        <ele>6.761</ele>
        <time>2022-04-24T12:01:35Z</time>
      </trkpt>
      <trkpt lat="39.493580" lon="-0.324693">
        <ele>5.828</ele>
        <time>2022-04-24T12:01:40Z</time>
      </trkpt>
      <trkpt lat="39.493274" lon="-0.324736">
        <ele>5.089</ele>
        <time>2022-04-24T12:01:50Z</time>
      </trkpt>
      <trkpt lat="39.492909" lon="-0.324796">
        <ele>4.517</ele>
        <time>2022-04-24T12:02:00Z</time>
      </trkpt>
      <trkpt lat="39.492546" lon="-0.324821">
        <ele>4.809</ele>
        <time>2022-04-24T12:02:10Z</time>
      </trkpt>
      <trkpt lat="39.492222" lon="-0.324852">
        <ele>4.063</ele>
        <time>2022-04-24T12:02:20Z</time>
      </trkpt>
      <trkpt lat="39.491882" lon="-0.324847">
        <ele>4.182</ele>
        <time>2022-04-24T12:02:30Z</time>
      </trkpt>
      <trkpt lat="39.491518" lon="-0.324838">
        <ele>4.343</ele>
        <time>2022-04-24T12:02:40Z</time>
      </trkpt>
      <trkpt lat="39.491346" lon="-0.324777">
        <ele>3.982</ele>
        <time>2022-04-24T12:02:45Z</time>
      </trkpt>
      <trkpt lat="39.491196" lon="-0.324758">
        <ele>3.869</ele>
        <time>2022-04-24T12:02:50Z</time>
      </trkpt>
      <trkpt lat="39.490898" lon="-0.324877">
        <ele>4.075</ele>
        <time>2022-04-24T12:03:00Z</time>
      </trkpt>
      <trkpt lat="39.490538" lon="-0.324902">
        <ele>2.168</ele>
        <time>2022-04-24T12:03:10Z</time>
      </trkpt>
      <trkpt lat="39.490203" lon="-0.324910">
        <ele>2.087</ele>
        <time>2022-04-24T12:03:20Z</time>
      </trkpt>
      <trkpt lat="39.489868" lon="-0.324928">
        <ele>2.654</ele>
        <time>2022-04-24T12:03:30Z</time>
      </trkpt>
      <trkpt lat="39.489480" lon="-0.325001">
        <ele>3.253</ele>
        <time>2022-04-24T12:03:40Z</time>
      </trkpt>
      <trkpt lat="39.489083" lon="-0.325058">
        <ele>2.004</ele>
        <time>2022-04-24T12:03:50Z</time>
      </trkpt>
      <trkpt lat="39.488659" lon="-0.325078">
        <ele>2.314</ele>
        <time>2022-04-24T12:04:00Z</time>
      </trkpt>
      <trkpt lat="39.488298" lon="-0.325135">
        <ele>2.809</ele>
        <time>2022-04-24T12:04:10Z</time>
      </trkpt>
      <trkpt lat="39.487990" lon="-0.325182">
        <ele>1.536</ele>
        <time>2022-04-24T12:04:20Z</time>
      </trkpt>
      <trkpt lat="39.487692" lon="-0.325221">
        <ele>0.985</ele>
        <time>2022-04-24T12:04:30Z</time>
      </trkpt>
      <trkpt lat="39.487360" lon="-0.325255">
        <ele>1.456</ele>
        <time>2022-04-24T12:04:40Z</time>
      </trkpt>
      <trkpt lat="39.487220" lon="-0.325247">
        <ele>1.385</ele>
        <time>2022-04-24T12:04:45Z</time>
      </trkpt>
      <trkpt lat="39.487078" lon="-0.325246">
        <ele>2.012</ele>
        <time>2022-04-24T12:04:50Z</time>
      </trkpt>
      <trkpt lat="39.486765" lon="-0.325329">
        <ele>2.988</ele>
        <time>2022-04-24T12:05:00Z</time>
      </trkpt>
      <trkpt lat="39.486392" lon="-0.325333">
        <ele>2.961</ele>
        <time>2022-04-24T12:05:10Z</time>
      </trkpt>
      <trkpt lat="39.486075" lon="-0.325417">
        <ele>4.150</ele>
        <time>2022-04-24T12:05:20Z</time>
      </trkpt>
      <trkpt lat="39.486038" lon="-0.325745">
        <ele>4.457</ele>
        <time>2022-04-24T12:05:30Z</time>
      </trkpt>
      <trkpt lat="39.486055" lon="-0.325997">
        <ele>6.177</ele>
        <time>2022-04-24T12:05:40Z</time>
      </trkpt>
      <trkpt lat="39.485990" lon="-0.326055">
        <ele>7.261</ele>
        <time>2022-04-24T12:05:50Z</time>
      </trkpt>
      <trkpt lat="39.485867" lon="-0.326069">
        <ele>6.627</ele>
        <time>2022-04-24T12:06:00Z</time>
      </trkpt>
      <trkpt lat="39.485740" lon="-0.326097">
        <ele>5.609</ele>
        <time>2022-04-24T12:06:05Z</time>
      </trkpt>
      <trkpt lat="39.485558" lon="-0.326226">
        <ele>4.538</ele>
        <time>2022-04-24T12:06:15Z</time>
      </trkpt>
      <trkpt lat="39.485453" lon="-0.326349">
        <ele>4.187</ele>
        <time>2022-04-24T12:06:20Z</time>
      </trkpt>
      <trkpt lat="39.485244" lon="-0.326398">
        <ele>3.758</ele>
        <time>2022-04-24T12:06:30Z</time>
      </trkpt>
      <trkpt lat="39.484905" lon="-0.326433">
        <ele>4.947</ele>
        <time>2022-04-24T12:06:40Z</time>
      </trkpt>
      <trkpt lat="39.484578" lon="-0.326472">
        <ele>7.684</ele>
        <time>2022-04-24T12:06:50Z</time>
      </trkpt>
      <trkpt lat="39.484298" lon="-0.326522">
        <ele>11.060</ele>
        <time>2022-04-24T12:07:00Z</time>
      </trkpt>
      <trkpt lat="39.484272" lon="-0.326519">
        <ele>8.523</ele>
        <time>2022-04-24T12:07:18Z</time>
      </trkpt>
      <trkpt lat="39.484203" lon="-0.326447">
        <ele>8.712</ele>
        <time>2022-04-24T12:07:23Z</time>
      </trkpt>
      <trkpt lat="39.484186" lon="-0.326231">
        <ele>10.199</ele>
        <time>2022-04-24T12:07:28Z</time>
      </trkpt>
      <trkpt lat="39.484186" lon="-0.325724">
        <ele>10.586</ele>
        <time>2022-04-24T12:07:38Z</time>
      </trkpt>
      <trkpt lat="39.484151" lon="-0.325615">
        <ele>8.460</ele>
        <time>2022-04-24T12:07:48Z</time>
      </trkpt>
      <trkpt lat="39.484086" lon="-0.325575">
        <ele>5.426</ele>
        <time>2022-04-24T12:07:58Z</time>
      </trkpt>
      <trkpt lat="39.483774" lon="-0.325570">
        <ele>4.809</ele>
        <time>2022-04-24T12:08:08Z</time>
      </trkpt>
      <trkpt lat="39.483375" lon="-0.325610">
        <ele>5.849</ele>
        <time>2022-04-24T12:08:18Z</time>
      </trkpt>
      <trkpt lat="39.483170" lon="-0.325654">
        <ele>5.828</ele>
        <time>2022-04-24T12:08:23Z</time>
      </trkpt>
      <trkpt lat="39.482760" lon="-0.325700">
        <ele>4.999</ele>
        <time>2022-04-24T12:08:33Z</time>
      </trkpt>
      <trkpt lat="39.482571" lon="-0.325707">
        <ele>4.428</ele>
        <time>2022-04-24T12:08:38Z</time>
      </trkpt>
      <trkpt lat="39.482111" lon="-0.325730">
        <ele>4.065</ele>
        <time>2022-04-24T12:08:48Z</time>
      </trkpt>
      <trkpt lat="39.481603" lon="-0.325759">
        <ele>3.571</ele>
        <time>2022-04-24T12:08:58Z</time>
      </trkpt>
      <trkpt lat="39.481142" lon="-0.325787">
        <ele>2.534</ele>
        <time>2022-04-24T12:09:08Z</time>
      </trkpt>
      <trkpt lat="39.480652" lon="-0.325804">
        <ele>2.783</ele>
        <time>2022-04-24T12:09:18Z</time>
      </trkpt>
      <trkpt lat="39.480276" lon="-0.325858">
        <ele>2.780</ele>
        <time>2022-04-24T12:09:28Z</time>
      </trkpt>
      <trkpt lat="39.479853" lon="-0.325868">
        <ele>3.294</ele>
        <time>2022-04-24T12:09:38Z</time>
      </trkpt>
      <trkpt lat="39.479436" lon="-0.325881">
        <ele>1.257</ele>
        <time>2022-04-24T12:09:48Z</time>
      </trkpt>
      <trkpt lat="39.479119" lon="-0.325849">
        <ele>1.222</ele>
        <time>2022-04-24T12:09:58Z</time>
      </trkpt>
      <trkpt lat="39.478937" lon="-0.325849">
        <ele>1.309</ele>
        <time>2022-04-24T12:10:03Z</time>
      </trkpt>
      <trkpt lat="39.478710" lon="-0.325854">
        <ele>2.250</ele>
        <time>2022-04-24T12:10:08Z</time>
      </trkpt>
      <trkpt lat="39.478234" lon="-0.325844">
        <ele>1.039</ele>
        <time>2022-04-24T12:10:18Z</time>
      </trkpt>
      <trkpt lat="39.477735" lon="-0.325816">
        <ele>0.920</ele>
        <time>2022-04-24T12:10:28Z</time>
      </trkpt>
      <trkpt lat="39.477481" lon="-0.325811">
        <ele>1.069</ele>
        <time>2022-04-24T12:10:33Z</time>
      </trkpt>
      <trkpt lat="39.477223" lon="-0.325817">
        <ele>0.786</ele>
        <time>2022-04-24T12:10:38Z</time>
      </trkpt>
      <trkpt lat="39.476747" lon="-0.325813">
        <ele>1.282</ele>
        <time>2022-04-24T12:10:48Z</time>
      </trkpt>
      <trkpt lat="39.476318" lon="-0.325798">
        <ele>1.545</ele>
        <time>2022-04-24T12:10:58Z</time>
      </trkpt>
      <trkpt lat="39.475818" lon="-0.325796">
        <ele>1.274</ele>
        <time>2022-04-24T12:11:08Z</time>
      </trkpt>
      <trkpt lat="39.475321" lon="-0.325795">
        <ele>-0.591</ele>
        <time>2022-04-24T12:11:18Z</time>
      </trkpt>
      <trkpt lat="39.474867" lon="-0.325787">
        <ele>-1.062</ele>
        <time>2022-04-24T12:11:28Z</time>
      </trkpt>
      <trkpt lat="39.474618" lon="-0.325843">
        <ele>-1.083</ele>
        <time>2022-04-24T12:11:38Z</time>
      </trkpt>
      <trkpt lat="39.474383" lon="-0.325715">
        <ele>-0.611</ele>
        <time>2022-04-24T12:11:48Z</time>
      </trkpt>
      <trkpt lat="39.474352" lon="-0.325867">
        <ele>1.209</ele>
        <time>2022-04-24T12:11:53Z</time>
      </trkpt>
      <trkpt lat="39.474364" lon="-0.326080">
        <ele>3.047</ele>
        <time>2022-04-24T12:11:58Z</time>
      </trkpt>
      <trkpt lat="39.474308" lon="-0.326516">
        <ele>4.596</ele>
        <time>2022-04-24T12:12:08Z</time>
      </trkpt>
      <trkpt lat="39.474290" lon="-0.326998">
        <ele>4.437</ele>
        <time>2022-04-24T12:12:18Z</time>
      </trkpt>
      <trkpt lat="39.474287" lon="-0.327181">
        <ele>4.156</ele>
        <time>2022-04-24T12:12:23Z</time>
      </trkpt>
      <trkpt lat="39.474259" lon="-0.327241">
        <ele>-1.123</ele>
        <time>2022-04-24T12:12:52Z</time>
      </trkpt>
      <trkpt lat="39.474263" lon="-0.327583">
        <ele>0.329</ele>
        <time>2022-04-24T12:13:02Z</time>
      </trkpt>
      <trkpt lat="39.474420" lon="-0.327841">
        <ele>1.992</ele>
        <time>2022-04-24T12:13:12Z</time>
      </trkpt>
      <trkpt lat="39.474660" lon="-0.328214">
        <ele>3.211</ele>
        <time>2022-04-24T12:13:22Z</time>
      </trkpt>
      <trkpt lat="39.474755" lon="-0.328675">
        <ele>3.468</ele>
        <time>2022-04-24T12:13:32Z</time>
      </trkpt>
      <trkpt lat="39.474418" lon="-0.328643">
        <ele>4.199</ele>
        <time>2022-04-24T12:13:42Z</time>
      </trkpt>
      <trkpt lat="39.474256" lon="-0.328652">
        <ele>3.307</ele>
        <time>2022-04-24T12:13:47Z</time>
      </trkpt>
      <trkpt lat="39.474199" lon="-0.328521">
        <ele>6.427</ele>
        <time>2022-04-24T12:13:52Z</time>
      </trkpt>
      <trkpt lat="39.473744" lon="-0.328620">
        <ele>5.909</ele>
        <time>2022-04-24T12:14:02Z</time>
      </trkpt>
      <trkpt lat="39.473237" lon="-0.328704">
        <ele>4.410</ele>
        <time>2022-04-24T12:14:12Z</time>
      </trkpt>
      <trkpt lat="39.472981" lon="-0.328756">
        <ele>4.129</ele>
        <time>2022-04-24T12:14:17Z</time>
      </trkpt>
      <trkpt lat="39.472727" lon="-0.328793">
        <ele>2.520</ele>
        <time>2022-04-24T12:14:22Z</time>
      </trkpt>
      <trkpt lat="39.472240" lon="-0.328873">
        <ele>-1.339</ele>
        <time>2022-04-24T12:14:32Z</time>
      </trkpt>
      <trkpt lat="39.471991" lon="-0.329035">
        <ele>-0.836</ele>
        <time>2022-04-24T12:14:42Z</time>
      </trkpt>
      <trkpt lat="39.472047" lon="-0.329541">
        <ele>4.072</ele>
        <time>2022-04-24T12:14:52Z</time>
      </trkpt>
      <trkpt lat="39.472060" lon="-0.329933">
        <ele>7.895</ele>
        <time>2022-04-24T12:15:02Z</time>
      </trkpt>
      <trkpt lat="39.472078" lon="-0.330528">
        <ele>9.544</ele>
        <time>2022-04-24T12:15:12Z</time>
      </trkpt>
      <trkpt lat="39.472065" lon="-0.330736">
        <ele>10.081</ele>
        <time>2022-04-24T12:15:22Z</time>
      </trkpt>
      <trkpt lat="39.472170" lon="-0.330655">
        <ele>3.839</ele>
        <time>2022-04-24T12:16:49Z</time>
      </trkpt>
      <trkpt lat="39.472248" lon="-0.331023">
        <ele>3.901</ele>
        <time>2022-04-24T12:16:59Z</time>
      </trkpt>
      <trkpt lat="39.472295" lon="-0.331267">
        <ele>3.721</ele>
        <time>2022-04-24T12:17:04Z</time>
      </trkpt>
      <trkpt lat="39.472344" lon="-0.331682">
        <ele>7.109</ele>
        <time>2022-04-24T12:17:14Z</time>
      </trkpt>
      <trkpt lat="39.472405" lon="-0.332136">
        <ele>11.164</ele>
        <time>2022-04-24T12:17:24Z</time>
      </trkpt>
      <trkpt lat="39.472465" lon="-0.332417">
        <ele>12.123</ele>
        <time>2022-04-24T12:17:29Z</time>
      </trkpt>
      <trkpt lat="39.472580" lon="-0.333020">
        <ele>14.574</ele>
        <time>2022-04-24T12:17:39Z</time>
      </trkpt>
      <trkpt lat="39.472635" lon="-0.333298">
        <ele>14.773</ele>
        <time>2022-04-24T12:17:44Z</time>
      </trkpt>
      <trkpt lat="39.472698" lon="-0.333701">
        <ele>16.760</ele>
        <time>2022-04-24T12:17:54Z</time>
      </trkpt>
      <trkpt lat="39.472483" lon="-0.333884">
        <ele>14.336</ele>
        <time>2022-04-24T12:18:04Z</time>
      </trkpt>
      <trkpt lat="39.472153" lon="-0.333986">
        <ele>13.859</ele>
        <time>2022-04-24T12:18:14Z</time>
      </trkpt>
      <trkpt lat="39.471807" lon="-0.334066">
        <ele>14.688</ele>
        <time>2022-04-24T12:18:24Z</time>
      </trkpt>
      <trkpt lat="39.471543" lon="-0.334028">
        <ele>7.345</ele>
        <time>2022-04-24T12:18:34Z</time>
      </trkpt>
      <trkpt lat="39.471196" lon="-0.334089">
        <ele>5.285</ele>
        <time>2022-04-24T12:18:44Z</time>
      </trkpt>
      <trkpt lat="39.470781" lon="-0.334157">
        <ele>4.389</ele>
        <time>2022-04-24T12:18:54Z</time>
      </trkpt>
      <trkpt lat="39.470713" lon="-0.334127">
        <ele>3.117</ele>
        <time>2022-04-24T12:18:59Z</time>
      </trkpt>
      <trkpt lat="39.470720" lon="-0.333962">
        <ele>3.209</ele>
        <time>2022-04-24T12:19:04Z</time>
      </trkpt>
      <trkpt lat="39.470680" lon="-0.334018">
        <ele>2.839</ele>
        <time>2022-04-24T12:19:09Z</time>
      </trkpt>
      <trkpt lat="39.470709" lon="-0.334229">
        <ele>3.098</ele>
        <time>2022-04-24T12:19:14Z</time>
      </trkpt>
      <trkpt lat="39.470438" lon="-0.334268">
        <ele>3.859</ele>
        <time>2022-04-24T12:19:24Z</time>
      </trkpt>
      <trkpt lat="39.470221" lon="-0.334146">
        <ele>3.748</ele>
        <time>2022-04-24T12:19:34Z</time>
      </trkpt>
      <trkpt lat="39.470219" lon="-0.334185">
        <ele>3.255</ele>
        <time>2022-04-24T12:19:39Z</time>
      </trkpt>
      <trkpt lat="39.470222" lon="-0.334201">
        <ele>3.591</ele>
        <time>2022-04-24T12:19:50Z</time>
      </trkpt>
      <trkpt lat="39.470235" lon="-0.334218">
        <ele>4.184</ele>
        <time>2022-04-24T12:20:10Z</time>
      </trkpt>
      <trkpt lat="39.470219" lon="-0.334372">
        <ele>4.373</ele>
        <time>2022-04-24T12:20:15Z</time>
      </trkpt>
      <trkpt lat="39.470095" lon="-0.334477">
        <ele>3.860</ele>
        <time>2022-04-24T12:20:23Z</time>
      </trkpt>
      <trkpt lat="39.475134" lon="-0.352943">
        <ele>19.158</ele>
        <time>2019-06-15T07:30:42Z</time>
      </trkpt>
      <trkpt lat="39.475197" lon="-0.352891">
        <ele>17.052</ele>
        <time>2019-06-15T07:33:48Z</time>
      </trkpt>
      <trkpt lat="39.475126" lon="-0.352889">
        <ele>18.217</ele>
        <time>2019-06-15T07:33:58Z</time>
      </trkpt>
      <trkpt lat="39.475128" lon="-0.352952">
        <ele>19.308</ele>
        <time>2019-06-15T07:34:17Z</time>
      </trkpt>
      <trkpt lat="39.475161" lon="-0.352802">
        <ele>16.068</ele>
        <time>2019-06-15T07:34:28Z</time>
      </trkpt>
      <trkpt lat="39.475139" lon="-0.352924">
        <ele>18.682</ele>
        <time>2019-06-15T07:34:43Z</time>
      </trkpt>
      <trkpt lat="39.475219" lon="-0.352989">
        <ele>18.521</ele>
        <time>2019-06-15T07:35:58Z</time>
      </trkpt>
      <trkpt lat="39.475129" lon="-0.352946">
        <ele>19.274</ele>
        <time>2019-06-15T07:36:08Z</time>
      </trkpt>
      <trkpt lat="39.475174" lon="-0.352918">
        <ele>17.986</ele>
        <time>2019-06-15T07:37:14Z</time>
      </trkpt>
      <trkpt lat="39.475163" lon="-0.352982">
        <ele>19.373</ele>
        <time>2019-06-15T07:37:34Z</time>
      </trkpt>
      <trkpt lat="39.475123" lon="-0.352952">
        <ele>19.472</ele>
        <time>2019-06-15T07:38:19Z</time>
      </trkpt>
      <trkpt lat="39.475201" lon="-0.352908">
        <ele>17.287</ele>
        <time>2019-06-15T07:39:29Z</time>
      </trkpt>
      <trkpt lat="39.475242" lon="-0.352873">
        <ele>15.742</ele>
        <time>2019-06-15T07:39:39Z</time>
      </trkpt>
      <trkpt lat="39.475151" lon="-0.352923">
        <ele>18.422</ele>
        <time>2019-06-15T07:39:44Z</time>
      </trkpt>
      <trkpt lat="39.475110" lon="-0.352949">
        <ele>19.614</ele>
        <time>2019-06-15T07:40:34Z</time>
      </trkpt>
      <trkpt lat="39.475160" lon="-0.352978">
        <ele>19.308</ele>
        <time>2019-06-15T07:41:00Z</time>
      </trkpt>
      <trkpt lat="39.475109" lon="-0.352943">
        <ele>19.517</ele>
        <time>2019-06-15T07:41:50Z</time>
      </trkpt>
      <trkpt lat="39.475154" lon="-0.352930">
        <ele>18.521</ele>
        <time>2019-06-15T07:44:56Z</time>
      </trkpt>
      <trkpt lat="39.474947" lon="-0.352951">
        <ele>21.710</ele>
        <time>2019-06-15T07:49:32Z</time>
      </trkpt>
      <trkpt lat="39.474871" lon="-0.352946">
        <ele>21.973</ele>
        <time>2019-06-15T07:49:38Z</time>
      </trkpt>
      <trkpt lat="39.474942" lon="-0.352965">
        <ele>21.815</ele>
        <time>2019-06-15T07:50:03Z</time>
      </trkpt>
      <trkpt lat="39.474984" lon="-0.352988">
        <ele>22.012</ele>
        <time>2019-06-15T07:50:13Z</time>
      </trkpt>
      <trkpt lat="39.475059" lon="-0.353024">
        <ele>21.671</ele>
        <time>2019-06-15T07:51:44Z</time>
      </trkpt>
      <trkpt lat="39.475116" lon="-0.353012">
        <ele>20.676</ele>
        <time>2019-06-15T07:51:49Z</time>
      </trkpt>
      <trkpt lat="39.475187" lon="-0.353029">
        <ele>19.841</ele>
        <time>2019-06-15T07:51:59Z</time>
      </trkpt>
      <trkpt lat="39.475288" lon="-0.353027">
        <ele>18.381</ele>
        <time>2019-06-15T07:52:07Z</time>
      </trkpt>
      <trkpt lat="39.475209" lon="-0.353045">
        <ele>19.809</ele>
        <time>2019-06-15T07:52:15Z</time>
      </trkpt>
      <trkpt lat="39.475189" lon="-0.352986">
        <ele>18.908</ele>
        <time>2019-06-15T07:52:30Z</time>
      </trkpt>
      <trkpt lat="39.475225" lon="-0.352942">
        <ele>17.547</ele>
        <time>2019-06-15T07:52:37Z</time>
      </trkpt>
      <trkpt lat="39.475227" lon="-0.352878">
        <ele>16.191</ele>
        <time>2019-06-15T07:52:40Z</time>
      </trkpt>
      <trkpt lat="39.475209" lon="-0.352824">
        <ele>15.440</ele>
        <time>2019-06-15T07:52:42Z</time>
      </trkpt>
      <trkpt lat="39.475183" lon="-0.352771">
        <ele>14.993</ele>
        <time>2019-06-15T07:52:44Z</time>
      </trkpt>
      <trkpt lat="39.475142" lon="-0.352705">
        <ele>14.925</ele>
        <time>2019-06-15T07:53:37Z</time>
      </trkpt>
      <trkpt lat="39.475116" lon="-0.352627">
        <ele>14.342</ele>
        <time>2019-06-15T07:53:40Z</time>
      </trkpt>
      <trkpt lat="39.475072" lon="-0.352515">
        <ele>13.741</ele>
        <time>2019-06-15T07:53:41Z</time>
      </trkpt>
      <trkpt lat="39.475030" lon="-0.352411">
        <ele>13.786</ele>
        <time>2019-06-15T07:53:43Z</time>
      </trkpt>
      <trkpt lat="39.475016" lon="-0.352354">
        <ele>13.688</ele>
        <time>2019-06-15T07:53:44Z</time>
      </trkpt>
      <trkpt lat="39.475009" lon="-0.352291">
        <ele>13.324</ele>
        <time>2019-06-15T07:53:45Z</time>
      </trkpt>
      <trkpt lat="39.475007" lon="-0.352224">
        <ele>12.926</ele>
        <time>2019-06-15T07:53:46Z</time>
      </trkpt>
      <trkpt lat="39.474994" lon="-0.352110">
        <ele>12.608</ele>
        <time>2019-06-15T07:53:47Z</time>
      </trkpt>
      <trkpt lat="39.474976" lon="-0.352045">
        <ele>12.451</ele>
        <time>2019-06-15T07:53:48Z</time>
      </trkpt>
      <trkpt lat="39.474953" lon="-0.351977">
        <ele>12.045</ele>
        <time>2019-06-15T07:53:49Z</time>
      </trkpt>
      <trkpt lat="39.474950" lon="-0.351914">
        <ele>11.934</ele>
        <time>2019-06-15T07:53:50Z</time>
      </trkpt>
      <trkpt lat="39.474938" lon="-0.351795">
        <ele>12.047</ele>
        <time>2019-06-15T07:53:52Z</time>
      </trkpt>
      <trkpt lat="39.474913" lon="-0.351731">
        <ele>11.749</ele>
        <time>2019-06-15T07:53:53Z</time>
      </trkpt>
      <trkpt lat="39.474893" lon="-0.351671">
        <ele>11.556</ele>
        <time>2019-06-15T07:53:54Z</time>
      </trkpt>
      <trkpt lat="39.474867" lon="-0.351616">
        <ele>11.455</ele>
        <time>2019-06-15T07:53:55Z</time>
      </trkpt>
      <trkpt lat="39.474865" lon="-0.351545">
        <ele>11.970</ele>
        <time>2019-06-15T07:53:56Z</time>
      </trkpt>
      <trkpt lat="39.474847" lon="-0.351474">
        <ele>12.225</ele>
        <time>2019-06-15T07:53:57Z</time>
      </trkpt>
      <trkpt lat="39.474832" lon="-0.351393">
        <ele>12.626</ele>
        <time>2019-06-15T07:53:58Z</time>
      </trkpt>
      <trkpt lat="39.474818" lon="-0.351321">
        <ele>12.908</ele>
        <time>2019-06-15T07:53:59Z</time>
      </trkpt>
      <trkpt lat="39.474784" lon="-0.351274">
        <ele>12.708</ele>
        <time>2019-06-15T07:54:00Z</time>
      </trkpt>
      <trkpt lat="39.474746" lon="-0.351195">
        <ele>12.725</ele>
        <time>2019-06-15T07:54:01Z</time>
      </trkpt>
      <trkpt lat="39.474721" lon="-0.351141">
        <ele>12.819</ele>
        <time>2019-06-15T07:54:02Z</time>
      </trkpt>
      <trkpt lat="39.474683" lon="-0.351074">
        <ele>13.068</ele>
        <time>2019-06-15T07:54:03Z</time>
      </trkpt>
      <trkpt lat="39.474653" lon="-0.351004">
        <ele>13.061</ele>
        <time>2019-06-15T07:54:04Z</time>
      </trkpt>
      <trkpt lat="39.474631" lon="-0.350945">
        <ele>13.083</ele>
        <time>2019-06-15T07:54:05Z</time>
      </trkpt>
      <trkpt lat="39.474598" lon="-0.350882">
        <ele>13.010</ele>
        <time>2019-06-15T07:54:06Z</time>
      </trkpt>
      <trkpt lat="39.474581" lon="-0.350762">
        <ele>12.539</ele>
        <time>2019-06-15T07:54:08Z</time>
      </trkpt>
      <trkpt lat="39.474571" lon="-0.350678">
        <ele>11.954</ele>
        <time>2019-06-15T07:54:09Z</time>
      </trkpt>
      <trkpt lat="39.474568" lon="-0.350596">
        <ele>11.372</ele>
        <time>2019-06-15T07:54:10Z</time>
      </trkpt>
      <trkpt lat="39.474571" lon="-0.350508">
        <ele>10.813</ele>
        <time>2019-06-15T07:54:11Z</time>
      </trkpt>
      <trkpt lat="39.474555" lon="-0.350436">
        <ele>10.514</ele>
        <time>2019-06-15T07:54:12Z</time>
      </trkpt>
      <trkpt lat="39.474513" lon="-0.350364">
        <ele>10.008</ele>
        <time>2019-06-15T07:54:13Z</time>
      </trkpt>
      <trkpt lat="39.474497" lon="-0.350292">
        <ele>9.580</ele>
        <time>2019-06-15T07:54:14Z</time>
      </trkpt>
      <trkpt lat="39.474478" lon="-0.350229">
        <ele>9.494</ele>
        <time>2019-06-15T07:54:15Z</time>
      </trkpt>
      <trkpt lat="39.474456" lon="-0.350151">
        <ele>9.523</ele>
        <time>2019-06-15T07:54:16Z</time>
      </trkpt>
      <trkpt lat="39.474432" lon="-0.350083">
        <ele>9.916</ele>
        <time>2019-06-15T07:54:17Z</time>
      </trkpt>
      <trkpt lat="39.474413" lon="-0.350016">
        <ele>10.488</ele>
        <time>2019-06-15T07:54:18Z</time>
      </trkpt>
      <trkpt lat="39.474393" lon="-0.349929">
        <ele>10.985</ele>
        <time>2019-06-15T07:54:19Z</time>
      </trkpt>
      <trkpt lat="39.474351" lon="-0.349872">
        <ele>11.764</ele>
        <time>2019-06-15T07:54:20Z</time>
      </trkpt>
      <trkpt lat="39.474323" lon="-0.349760">
        <ele>12.289</ele>
        <time>2019-06-15T07:54:22Z</time>
      </trkpt>
      <trkpt lat="39.474304" lon="-0.349703">
        <ele>12.423</ele>
        <time>2019-06-15T07:54:23Z</time>
      </trkpt>
      <trkpt lat="39.474255" lon="-0.349611">
        <ele>12.483</ele>
        <time>2019-06-15T07:54:25Z</time>
      </trkpt>
      <trkpt lat="39.474233" lon="-0.349552">
        <ele>12.411</ele>
        <time>2019-06-15T07:54:26Z</time>
      </trkpt>
      <trkpt lat="39.474258" lon="-0.349460">
        <ele>11.408</ele>
        <time>2019-06-15T07:54:28Z</time>
      </trkpt>
      <trkpt lat="39.474253" lon="-0.349348">
        <ele>11.495</ele>
        <time>2019-06-15T07:54:30Z</time>
      </trkpt>
      <trkpt lat="39.474230" lon="-0.349289">
        <ele>11.799</ele>
        <time>2019-06-15T07:54:31Z</time>
      </trkpt>
      <trkpt lat="39.474200" lon="-0.349216">
        <ele>11.948</ele>
        <time>2019-06-15T07:54:32Z</time>
      </trkpt>
      <trkpt lat="39.474195" lon="-0.349135">
        <ele>11.931</ele>
        <time>2019-06-15T07:54:33Z</time>
      </trkpt>
      <trkpt lat="39.474186" lon="-0.349075">
        <ele>12.313</ele>
        <time>2019-06-15T07:54:34Z</time>
      </trkpt>
      <trkpt lat="39.474179" lon="-0.349012">
        <ele>12.590</ele>
        <time>2019-06-15T07:54:35Z</time>
      </trkpt>
      <trkpt lat="39.474142" lon="-0.348946">
        <ele>12.929</ele>
        <time>2019-06-15T07:54:36Z</time>
      </trkpt>
      <trkpt lat="39.474105" lon="-0.348871">
        <ele>13.294</ele>
        <time>2019-06-15T07:54:37Z</time>
      </trkpt>
      <trkpt lat="39.474076" lon="-0.348793">
        <ele>13.393</ele>
        <time>2019-06-15T07:54:38Z</time>
      </trkpt>
      <trkpt lat="39.474027" lon="-0.348723">
        <ele>13.265</ele>
        <time>2019-06-15T07:54:39Z</time>
      </trkpt>
      <trkpt lat="39.473994" lon="-0.348649">
        <ele>12.921</ele>
        <time>2019-06-15T07:54:40Z</time>
      </trkpt>
      <trkpt lat="39.473969" lon="-0.348572">
        <ele>12.208</ele>
        <time>2019-06-15T07:54:41Z</time>
      </trkpt>
      <trkpt lat="39.473954" lon="-0.348502">
        <ele>11.572</ele>
        <time>2019-06-15T07:54:42Z</time>
      </trkpt>
      <trkpt lat="39.473944" lon="-0.348425">
        <ele>10.766</ele>
        <time>2019-06-15T07:54:43Z</time>
      </trkpt>
      <trkpt lat="39.473893" lon="-0.348384">
        <ele>9.625</ele>
        <time>2019-06-15T07:54:44Z</time>
      </trkpt>
      <trkpt lat="39.473838" lon="-0.348348">
        <ele>10.688</ele>
        <time>2019-06-15T07:54:45Z</time>
      </trkpt>
      <trkpt lat="39.473775" lon="-0.348302">
        <ele>12.180</ele>
        <time>2019-06-15T07:54:46Z</time>
      </trkpt>
      <trkpt lat="39.473723" lon="-0.348284">
        <ele>13.567</ele>
        <time>2019-06-15T07:54:48Z</time>
      </trkpt>
      <trkpt lat="39.473698" lon="-0.348224">
        <ele>14.016</ele>
        <time>2019-06-15T07:55:09Z</time>
      </trkpt>
      <trkpt lat="39.473684" lon="-0.348076">
        <ele>13.711</ele>
        <time>2019-06-15T07:55:12Z</time>
      </trkpt>
      <trkpt lat="39.473668" lon="-0.348001">
        <ele>13.361</ele>
        <time>2019-06-15T07:55:14Z</time>
      </trkpt>
      <trkpt lat="39.473642" lon="-0.347916">
        <ele>12.621</ele>
        <time>2019-06-15T07:55:18Z</time>
      </trkpt>
      <trkpt lat="39.473603" lon="-0.347840">
        <ele>12.113</ele>
        <time>2019-06-15T07:55:20Z</time>
      </trkpt>
      <trkpt lat="39.473547" lon="-0.347760">
        <ele>10.808</ele>
        <time>2019-06-15T07:55:25Z</time>
      </trkpt>
      <trkpt lat="39.473587" lon="-0.347842">
        <ele>12.239</ele>
        <time>2019-06-15T07:55:27Z</time>
      </trkpt>
      <trkpt lat="39.473616" lon="-0.347896">
        <ele>13.033</ele>
        <time>2019-06-15T07:55:28Z</time>
      </trkpt>
      <trkpt lat="39.473568" lon="-0.347963">
        <ele>14.312</ele>
        <time>2019-06-15T07:55:31Z</time>
      </trkpt>
      <trkpt lat="39.473506" lon="-0.348025">
        <ele>15.485</ele>
        <time>2019-06-15T07:55:32Z</time>
      </trkpt>
      <trkpt lat="39.473420" lon="-0.348051">
        <ele>15.947</ele>
        <time>2019-06-15T07:55:34Z</time>
      </trkpt>
      <trkpt lat="39.473376" lon="-0.348070">
        <ele>16.164</ele>
        <time>2019-06-15T07:55:35Z</time>
      </trkpt>
      <trkpt lat="39.473284" lon="-0.348112">
        <ele>15.833</ele>
        <time>2019-06-15T07:55:37Z</time>
      </trkpt>
      <trkpt lat="39.473241" lon="-0.348141">
        <ele>15.488</ele>
        <time>2019-06-15T07:55:38Z</time>
      </trkpt>
      <trkpt lat="39.473210" lon="-0.348195">
        <ele>15.396</ele>
        <time>2019-06-15T07:55:39Z</time>
      </trkpt>
      <trkpt lat="39.473160" lon="-0.348224">
        <ele>14.631</ele>
        <time>2019-06-15T07:55:40Z</time>
      </trkpt>
      <trkpt lat="39.473113" lon="-0.348227">
        <ele>13.724</ele>
        <time>2019-06-15T07:55:41Z</time>
      </trkpt>
      <trkpt lat="39.473070" lon="-0.348261">
        <ele>13.008</ele>
        <time>2019-06-15T07:55:42Z</time>
      </trkpt>
      <trkpt lat="39.473021" lon="-0.348290">
        <ele>12.522</ele>
        <time>2019-06-15T07:55:43Z</time>
      </trkpt>
      <trkpt lat="39.472965" lon="-0.348345">
        <ele>12.186</ele>
        <time>2019-06-15T07:55:44Z</time>
      </trkpt>
      <trkpt lat="39.472864" lon="-0.348416">
        <ele>11.445</ele>
        <time>2019-06-15T07:55:45Z</time>
      </trkpt>
      <trkpt lat="39.472779" lon="-0.348485">
        <ele>11.128</ele>
        <time>2019-06-15T07:55:47Z</time>
      </trkpt>
      <trkpt lat="39.472702" lon="-0.348527">
        <ele>11.710</ele>
        <time>2019-06-15T07:55:49Z</time>
      </trkpt>
      <trkpt lat="39.472634" lon="-0.348519">
        <ele>11.987</ele>
        <time>2019-06-15T07:55:50Z</time>
      </trkpt>
      <trkpt lat="39.472561" lon="-0.348552">
        <ele>12.466</ele>
        <time>2019-06-15T07:55:51Z</time>
      </trkpt>
      <trkpt lat="39.472515" lon="-0.348552">
        <ele>12.551</ele>
        <time>2019-06-15T07:55:52Z</time>
      </trkpt>
      <trkpt lat="39.472448" lon="-0.348544">
        <ele>12.558</ele>
        <time>2019-06-15T07:55:53Z</time>
      </trkpt>
      <trkpt lat="39.472387" lon="-0.348525">
        <ele>12.352</ele>
        <time>2019-06-15T07:55:54Z</time>
      </trkpt>
      <trkpt lat="39.472356" lon="-0.348573">
        <ele>12.717</ele>
        <time>2019-06-15T07:55:55Z</time>
      </trkpt>
      <trkpt lat="39.472241" lon="-0.348594">
        <ele>12.808</ele>
        <time>2019-06-15T07:55:57Z</time>
      </trkpt>
      <trkpt lat="39.472201" lon="-0.348645">
        <ele>12.968</ele>
        <time>2019-06-15T07:55:58Z</time>
      </trkpt>
      <trkpt lat="39.472130" lon="-0.348697">
        <ele>12.312</ele>
        <time>2019-06-15T07:55:59Z</time>
      </trkpt>
      <trkpt lat="39.472070" lon="-0.348705">
        <ele>11.771</ele>
        <time>2019-06-15T07:56:00Z</time>
      </trkpt>
      <trkpt lat="39.471988" lon="-0.348702">
        <ele>10.854</ele>
        <time>2019-06-15T07:56:01Z</time>
      </trkpt>
      <trkpt lat="39.471958" lon="-0.348765">
        <ele>10.726</ele>
        <time>2019-06-15T07:56:02Z</time>
      </trkpt>
      <trkpt lat="39.471914" lon="-0.348793">
        <ele>10.453</ele>
        <time>2019-06-15T07:56:04Z</time>
      </trkpt>
      <trkpt lat="39.471814" lon="-0.348756">
        <ele>9.872</ele>
        <time>2019-06-15T07:56:05Z</time>
      </trkpt>
      <trkpt lat="39.471745" lon="-0.348783">
        <ele>9.367</ele>
        <time>2019-06-15T07:56:06Z</time>
      </trkpt>
      <trkpt lat="39.471667" lon="-0.348800">
        <ele>8.641</ele>
        <time>2019-06-15T07:56:07Z</time>
      </trkpt>
      <trkpt lat="39.471609" lon="-0.348835">
        <ele>8.381</ele>
        <time>2019-06-15T07:56:08Z</time>
      </trkpt>
      <trkpt lat="39.471553" lon="-0.348828">
        <ele>8.209</ele>
        <time>2019-06-15T07:56:09Z</time>
      </trkpt>
      <trkpt lat="39.471501" lon="-0.348841">
        <ele>8.008</ele>
        <time>2019-06-15T07:56:10Z</time>
      </trkpt>
      <trkpt lat="39.471450" lon="-0.348856">
        <ele>7.637</ele>
        <time>2019-06-15T07:56:11Z</time>
      </trkpt>
      <trkpt lat="39.471392" lon="-0.348858">
        <ele>7.551</ele>
        <time>2019-06-15T07:56:12Z</time>
      </trkpt>
      <trkpt lat="39.471314" lon="-0.348863">
        <ele>7.880</ele>
        <time>2019-06-15T07:56:14Z</time>
      </trkpt>
      <trkpt lat="39.471256" lon="-0.348865">
        <ele>8.213</ele>
        <time>2019-06-15T07:56:15Z</time>
      </trkpt>
      <trkpt lat="39.471205" lon="-0.348918">
        <ele>8.135</ele>
        <time>2019-06-15T07:56:16Z</time>
      </trkpt>
      <trkpt lat="39.471148" lon="-0.348949">
        <ele>8.392</ele>
        <time>2019-06-15T07:56:17Z</time>
      </trkpt>
      <trkpt lat="39.471094" lon="-0.348960">
        <ele>8.771</ele>
        <time>2019-06-15T07:56:18Z</time>
      </trkpt>
      <trkpt lat="39.471027" lon="-0.348970">
        <ele>9.616</ele>
        <time>2019-06-15T07:56:19Z</time>
      </trkpt>
      <trkpt lat="39.470958" lon="-0.348982">
        <ele>10.543</ele>
        <time>2019-06-15T07:56:20Z</time>
      </trkpt>
      <trkpt lat="39.470867" lon="-0.349124">
        <ele>12.264</ele>
        <time>2019-06-15T07:56:22Z</time>
      </trkpt>
      <trkpt lat="39.470746" lon="-0.349166">
        <ele>14.310</ele>
        <time>2019-06-15T07:56:23Z</time>
      </trkpt>
      <trkpt lat="39.470722" lon="-0.349217">
        <ele>14.308</ele>
        <time>2019-06-15T07:56:24Z</time>
      </trkpt>
      <trkpt lat="39.470624" lon="-0.349225">
        <ele>15.867</ele>
        <time>2019-06-15T07:56:25Z</time>
      </trkpt>
      <trkpt lat="39.470627" lon="-0.349426">
        <ele>14.891</ele>
        <time>2019-06-15T07:56:26Z</time>
      </trkpt>
      <trkpt lat="39.470569" lon="-0.349280">
        <ele>16.410</ele>
        <time>2019-06-15T07:56:28Z</time>
      </trkpt>
      <trkpt lat="39.470524" lon="-0.349279">
        <ele>16.513</ele>
        <time>2019-06-15T07:56:29Z</time>
      </trkpt>
      <trkpt lat="39.470502" lon="-0.349340">
        <ele>16.235</ele>
        <time>2019-06-15T07:56:31Z</time>
      </trkpt>
      <trkpt lat="39.470441" lon="-0.349361">
        <ele>16.182</ele>
        <time>2019-06-15T07:56:32Z</time>
      </trkpt>
      <trkpt lat="39.470379" lon="-0.349363">
        <ele>15.951</ele>
        <time>2019-06-15T07:56:34Z</time>
      </trkpt>
      <trkpt lat="39.470328" lon="-0.349383">
        <ele>15.986</ele>
        <time>2019-06-15T07:56:35Z</time>
      </trkpt>
      <trkpt lat="39.470234" lon="-0.349431">
        <ele>15.277</ele>
        <time>2019-06-15T07:56:37Z</time>
      </trkpt>
      <trkpt lat="39.470171" lon="-0.349451">
        <ele>14.161</ele>
        <time>2019-06-15T07:56:38Z</time>
      </trkpt>
      <trkpt lat="39.470133" lon="-0.349491">
        <ele>13.627</ele>
        <time>2019-06-15T07:56:39Z</time>
      </trkpt>
      <trkpt lat="39.470074" lon="-0.349513">
        <ele>12.708</ele>
        <time>2019-06-15T07:56:40Z</time>
      </trkpt>
      <trkpt lat="39.470017" lon="-0.349521">
        <ele>11.870</ele>
        <time>2019-06-15T07:56:41Z</time>
      </trkpt>
      <trkpt lat="39.469969" lon="-0.349483">
        <ele>11.254</ele>
        <time>2019-06-15T07:56:43Z</time>
      </trkpt>
      <trkpt lat="39.469876" lon="-0.349488">
        <ele>11.263</ele>
        <time>2019-06-15T07:56:45Z</time>
      </trkpt>
      <trkpt lat="39.469803" lon="-0.349527">
        <ele>11.216</ele>
        <time>2019-06-15T07:56:47Z</time>
      </trkpt>
      <trkpt lat="39.469736" lon="-0.349600">
        <ele>11.138</ele>
        <time>2019-06-15T07:56:50Z</time>
      </trkpt>
      <trkpt lat="39.469643" lon="-0.349626">
        <ele>11.195</ele>
        <time>2019-06-15T07:56:52Z</time>
      </trkpt>
      <trkpt lat="39.469590" lon="-0.349676">
        <ele>11.114</ele>
        <time>2019-06-15T07:56:53Z</time>
      </trkpt>
      <trkpt lat="39.469539" lon="-0.349731">
        <ele>11.019</ele>
        <time>2019-06-15T07:56:54Z</time>
      </trkpt>
      <trkpt lat="39.469440" lon="-0.349694">
        <ele>11.124</ele>
        <time>2019-06-15T07:56:56Z</time>
      </trkpt>
      <trkpt lat="39.469345" lon="-0.349658">
        <ele>11.504</ele>
        <time>2019-06-15T07:56:57Z</time>
      </trkpt>
      <trkpt lat="39.469306" lon="-0.349618">
        <ele>11.714</ele>
        <time>2019-06-15T07:56:58Z</time>
      </trkpt>
      <trkpt lat="39.469254" lon="-0.349694">
        <ele>11.708</ele>
        <time>2019-06-15T07:56:59Z</time>
      </trkpt>
      <trkpt lat="39.469171" lon="-0.349779">
        <ele>12.225</ele>
        <time>2019-06-15T07:57:00Z</time>
      </trkpt>
      <trkpt lat="39.469079" lon="-0.349803">
        <ele>13.669</ele>
        <time>2019-06-15T07:57:02Z</time>
      </trkpt>
      <trkpt lat="39.468992" lon="-0.349809">
        <ele>14.888</ele>
        <time>2019-06-15T07:57:05Z</time>
      </trkpt>
      <trkpt lat="39.468943" lon="-0.349820">
        <ele>15.681</ele>
        <time>2019-06-15T07:57:06Z</time>
      </trkpt>
      <trkpt lat="39.468857" lon="-0.349847">
        <ele>16.653</ele>
        <time>2019-06-15T07:57:08Z</time>
      </trkpt>
      <trkpt lat="39.468814" lon="-0.349911">
        <ele>17.010</ele>
        <time>2019-06-15T07:57:09Z</time>
      </trkpt>
      <trkpt lat="39.468770" lon="-0.349925">
        <ele>17.369</ele>
        <time>2019-06-15T07:57:10Z</time>
      </trkpt>
      <trkpt lat="39.468692" lon="-0.349963">
        <ele>17.724</ele>
        <time>2019-06-15T07:57:12Z</time>
      </trkpt>
      <trkpt lat="39.468643" lon="-0.349972">
        <ele>17.958</ele>
        <time>2019-06-15T07:57:13Z</time>
      </trkpt>
      <trkpt lat="39.468591" lon="-0.349974">
        <ele>17.852</ele>
        <time>2019-06-15T07:57:14Z</time>
      </trkpt>
      <trkpt lat="39.468554" lon="-0.350025">
        <ele>17.417</ele>
        <time>2019-06-15T07:57:15Z</time>
      </trkpt>
      <trkpt lat="39.468506" lon="-0.350035">
        <ele>16.908</ele>
        <time>2019-06-15T07:57:16Z</time>
      </trkpt>
      <trkpt lat="39.468448" lon="-0.350060">
        <ele>16.278</ele>
        <time>2019-06-15T07:57:17Z</time>
      </trkpt>
      <trkpt lat="39.468399" lon="-0.350093">
        <ele>15.742</ele>
        <time>2019-06-15T07:57:18Z</time>
      </trkpt>
      <trkpt lat="39.468355" lon="-0.350138">
        <ele>15.231</ele>
        <time>2019-06-15T07:57:19Z</time>
      </trkpt>
      <trkpt lat="39.468298" lon="-0.350143">
        <ele>14.764</ele>
        <time>2019-06-15T07:57:20Z</time>
      </trkpt>
      <trkpt lat="39.468237" lon="-0.350213">
        <ele>14.336</ele>
        <time>2019-06-15T07:57:21Z</time>
      </trkpt>
      <trkpt lat="39.468180" lon="-0.350249">
        <ele>13.923</ele>
        <time>2019-06-15T07:57:22Z</time>
      </trkpt>
      <trkpt lat="39.468134" lon="-0.350288">
        <ele>13.632</ele>
        <time>2019-06-15T07:57:23Z</time>
      </trkpt>
      <trkpt lat="39.468075" lon="-0.350282">
        <ele>13.187</ele>
        <time>2019-06-15T07:57:24Z</time>
      </trkpt>
      <trkpt lat="39.468011" lon="-0.350326">
        <ele>13.233</ele>
        <time>2019-06-15T07:57:25Z</time>
      </trkpt>
      <trkpt lat="39.467958" lon="-0.350341">
        <ele>13.623</ele>
        <time>2019-06-15T07:57:26Z</time>
      </trkpt>
      <trkpt lat="39.467899" lon="-0.350360">
        <ele>14.115</ele>
        <time>2019-06-15T07:57:27Z</time>
      </trkpt>
      <trkpt lat="39.467838" lon="-0.350369">
        <ele>14.608</ele>
        <time>2019-06-15T07:57:28Z</time>
      </trkpt>
      <trkpt lat="39.467746" lon="-0.350389">
        <ele>15.586</ele>
        <time>2019-06-15T07:57:29Z</time>
      </trkpt>
      <trkpt lat="39.467698" lon="-0.350353">
        <ele>15.560</ele>
        <time>2019-06-15T07:57:31Z</time>
      </trkpt>
      <trkpt lat="39.467591" lon="-0.350352">
        <ele>16.559</ele>
        <time>2019-06-15T07:57:33Z</time>
      </trkpt>
      <trkpt lat="39.467524" lon="-0.350389">
        <ele>17.222</ele>
        <time>2019-06-15T07:57:35Z</time>
      </trkpt>
      <trkpt lat="39.467479" lon="-0.350362">
        <ele>17.544</ele>
        <time>2019-06-15T07:57:37Z</time>
      </trkpt>
      <trkpt lat="39.467440" lon="-0.350396">
        <ele>17.911</ele>
        <time>2019-06-15T07:57:38Z</time>
      </trkpt>
      <trkpt lat="39.467408" lon="-0.350447">
        <ele>18.390</ele>
        <time>2019-06-15T07:57:39Z</time>
      </trkpt>
      <trkpt lat="39.467326" lon="-0.350469">
        <ele>18.995</ele>
        <time>2019-06-15T07:57:40Z</time>
      </trkpt>
      <trkpt lat="39.467225" lon="-0.350465">
        <ele>19.711</ele>
        <time>2019-06-15T07:57:41Z</time>
      </trkpt>
      <trkpt lat="39.467254" lon="-0.350395">
        <ele>19.221</ele>
        <time>2019-06-15T07:57:42Z</time>
      </trkpt>
      <trkpt lat="39.467122" lon="-0.350425">
        <ele>19.203</ele>
        <time>2019-06-15T07:57:43Z</time>
      </trkpt>
      <trkpt lat="39.467048" lon="-0.350482">
        <ele>19.408</ele>
        <time>2019-06-15T07:57:44Z</time>
      </trkpt>
      <trkpt lat="39.467053" lon="-0.350624">
        <ele>19.944</ele>
        <time>2019-06-15T07:57:45Z</time>
      </trkpt>
      <trkpt lat="39.467001" lon="-0.350674">
        <ele>19.788</ele>
        <time>2019-06-15T07:57:46Z</time>
      </trkpt>
      <trkpt lat="39.466922" lon="-0.350689">
        <ele>19.297</ele>
        <time>2019-06-15T07:57:47Z</time>
      </trkpt>
      <trkpt lat="39.466852" lon="-0.350689">
        <ele>18.350</ele>
        <time>2019-06-15T07:57:48Z</time>
      </trkpt>
      <trkpt lat="39.466781" lon="-0.350755">
        <ele>17.452</ele>
        <time>2019-06-15T07:57:50Z</time>
      </trkpt>
      <trkpt lat="39.466737" lon="-0.350771">
        <ele>16.819</ele>
        <time>2019-06-15T07:57:51Z</time>
      </trkpt>
      <trkpt lat="39.466676" lon="-0.350781">
        <ele>16.178</ele>
        <time>2019-06-15T07:57:52Z</time>
      </trkpt>
      <trkpt lat="39.466619" lon="-0.350790">
        <ele>15.733</ele>
        <time>2019-06-15T07:57:53Z</time>
      </trkpt>
      <trkpt lat="39.466494" lon="-0.350811">
        <ele>14.997</ele>
        <time>2019-06-15T07:57:57Z</time>
      </trkpt>
      <trkpt lat="39.466385" lon="-0.350748">
        <ele>14.623</ele>
        <time>2019-06-15T07:57:58Z</time>
      </trkpt>
      <trkpt lat="39.466246" lon="-0.350879">
        <ele>14.125</ele>
        <time>2019-06-15T07:58:00Z</time>
      </trkpt>
      <trkpt lat="39.466173" lon="-0.350809">
        <ele>15.008</ele>
        <time>2019-06-15T07:58:01Z</time>
      </trkpt>
      <trkpt lat="39.466179" lon="-0.350717">
        <ele>15.612</ele>
        <time>2019-06-15T07:58:02Z</time>
      </trkpt>
      <trkpt lat="39.466118" lon="-0.350737">
        <ele>15.736</ele>
        <time>2019-06-15T07:58:03Z</time>
      </trkpt>
      <trkpt lat="39.466009" lon="-0.350698">
        <ele>15.285</ele>
        <time>2019-06-15T07:58:04Z</time>
      </trkpt>
      <trkpt lat="39.465997" lon="-0.350782">
        <ele>14.318</ele>
        <time>2019-06-15T07:58:05Z</time>
      </trkpt>
      <trkpt lat="39.465950" lon="-0.350793">
        <ele>13.730</ele>
        <time>2019-06-15T07:58:06Z</time>
      </trkpt>
      <trkpt lat="39.465884" lon="-0.350834">
        <ele>12.577</ele>
        <time>2019-06-15T07:58:07Z</time>
      </trkpt>
      <trkpt lat="39.465830" lon="-0.350854">
        <ele>11.936</ele>
        <time>2019-06-15T07:58:09Z</time>
      </trkpt>
      <trkpt lat="39.465742" lon="-0.350919">
        <ele>11.311</ele>
        <time>2019-06-15T07:58:10Z</time>
      </trkpt>
      <trkpt lat="39.465677" lon="-0.351016">
        <ele>10.496</ele>
        <time>2019-06-15T07:58:11Z</time>
      </trkpt>
      <trkpt lat="39.465605" lon="-0.351109">
        <ele>9.431</ele>
        <time>2019-06-15T07:58:12Z</time>
      </trkpt>
      <trkpt lat="39.465556" lon="-0.351143">
        <ele>9.024</ele>
        <time>2019-06-15T07:58:13Z</time>
      </trkpt>
      <trkpt lat="39.465552" lon="-0.351209">
        <ele>9.008</ele>
        <time>2019-06-15T07:58:14Z</time>
      </trkpt>
      <trkpt lat="39.465531" lon="-0.351264">
        <ele>9.032</ele>
        <time>2019-06-15T07:58:17Z</time>
      </trkpt>
      <trkpt lat="39.465486" lon="-0.351270">
        <ele>9.046</ele>
        <time>2019-06-15T07:58:43Z</time>
      </trkpt>
      <trkpt lat="39.465306" lon="-0.351324">
        <ele>9.095</ele>
        <time>2019-06-15T07:58:45Z</time>
      </trkpt>
      <trkpt lat="39.465202" lon="-0.351360">
        <ele>9.548</ele>
        <time>2019-06-15T07:58:47Z</time>
      </trkpt>
      <trkpt lat="39.465153" lon="-0.351368">
        <ele>9.970</ele>
        <time>2019-06-15T07:58:48Z</time>
      </trkpt>
      <trkpt lat="39.465042" lon="-0.351352">
        <ele>10.647</ele>
        <time>2019-06-15T07:58:50Z</time>
      </trkpt>
      <trkpt lat="39.464972" lon="-0.351331">
        <ele>10.756</ele>
        <time>2019-06-15T07:58:51Z</time>
      </trkpt>
      <trkpt lat="39.464907" lon="-0.351324">
        <ele>10.441</ele>
        <time>2019-06-15T07:58:52Z</time>
      </trkpt>
      <trkpt lat="39.464868" lon="-0.351364">
        <ele>10.448</ele>
        <time>2019-06-15T07:58:53Z</time>
      </trkpt>
      <trkpt lat="39.464821" lon="-0.351386">
        <ele>10.361</ele>
        <time>2019-06-15T07:58:54Z</time>
      </trkpt>
      <trkpt lat="39.464748" lon="-0.351402">
        <ele>10.117</ele>
        <time>2019-06-15T07:58:55Z</time>
      </trkpt>
      <trkpt lat="39.464694" lon="-0.351445">
        <ele>10.108</ele>
        <time>2019-06-15T07:58:56Z</time>
      </trkpt>
      <trkpt lat="39.464613" lon="-0.351464">
        <ele>9.997</ele>
        <time>2019-06-15T07:58:57Z</time>
      </trkpt>
      <trkpt lat="39.464568" lon="-0.351533">
        <ele>10.011</ele>
        <time>2019-06-15T07:58:58Z</time>
      </trkpt>
      <trkpt lat="39.464531" lon="-0.351623">
        <ele>10.270</ele>
        <time>2019-06-15T07:58:59Z</time>
      </trkpt>
      <trkpt lat="39.464487" lon="-0.351652">
        <ele>10.153</ele>
        <time>2019-06-15T07:59:00Z</time>
      </trkpt>
      <trkpt lat="39.464428" lon="-0.351681">
        <ele>10.095</ele>
        <time>2019-06-15T07:59:01Z</time>
      </trkpt>
      <trkpt lat="39.464373" lon="-0.351714">
        <ele>10.072</ele>
        <time>2019-06-15T07:59:02Z</time>
      </trkpt>
      <trkpt lat="39.464319" lon="-0.351707">
        <ele>10.021</ele>
        <time>2019-06-15T07:59:03Z</time>
      </trkpt>
      <trkpt lat="39.464282" lon="-0.351749">
        <ele>10.016</ele>
        <time>2019-06-15T07:59:04Z</time>
      </trkpt>
      <trkpt lat="39.464228" lon="-0.351751">
        <ele>10.064</ele>
        <time>2019-06-15T07:59:05Z</time>
      </trkpt>
      <trkpt lat="39.464175" lon="-0.351783">
        <ele>10.006</ele>
        <time>2019-06-15T07:59:06Z</time>
      </trkpt>
      <trkpt lat="39.464113" lon="-0.351787">
        <ele>10.016</ele>
        <time>2019-06-15T07:59:07Z</time>
      </trkpt>
      <trkpt lat="39.464052" lon="-0.351805">
        <ele>10.008</ele>
        <time>2019-06-15T07:59:08Z</time>
      </trkpt>
      <trkpt lat="39.463995" lon="-0.351824">
        <ele>10.089</ele>
        <time>2019-06-15T07:59:09Z</time>
      </trkpt>
      <trkpt lat="39.463921" lon="-0.351849">
        <ele>10.043</ele>
        <time>2019-06-15T07:59:10Z</time>
      </trkpt>
      <trkpt lat="39.463836" lon="-0.351878">
        <ele>10.292</ele>
        <time>2019-06-15T07:59:11Z</time>
      </trkpt>
      <trkpt lat="39.463782" lon="-0.351897">
        <ele>10.415</ele>
        <time>2019-06-15T07:59:12Z</time>
      </trkpt>
      <trkpt lat="39.463717" lon="-0.351885">
        <ele>10.647</ele>
        <time>2019-06-15T07:59:13Z</time>
      </trkpt>
      <trkpt lat="39.463657" lon="-0.351886">
        <ele>10.864</ele>
        <time>2019-06-15T07:59:14Z</time>
      </trkpt>
      <trkpt lat="39.463601" lon="-0.351922">
        <ele>10.983</ele>
        <time>2019-06-15T07:59:15Z</time>
      </trkpt>
      <trkpt lat="39.463546" lon="-0.351938">
        <ele>10.518</ele>
        <time>2019-06-15T07:59:16Z</time>
      </trkpt>
      <trkpt lat="39.463509" lon="-0.351979">
        <ele>10.245</ele>
        <time>2019-06-15T07:59:17Z</time>
      </trkpt>
      <trkpt lat="39.463441" lon="-0.351987">
        <ele>9.747</ele>
        <time>2019-06-15T07:59:18Z</time>
      </trkpt>
      <trkpt lat="39.463377" lon="-0.351999">
        <ele>9.311</ele>
        <time>2019-06-15T07:59:19Z</time>
      </trkpt>
      <trkpt lat="39.463321" lon="-0.352026">
        <ele>9.008</ele>
        <time>2019-06-15T07:59:20Z</time>
      </trkpt>
      <trkpt lat="39.463257" lon="-0.352055">
        <ele>8.867</ele>
        <time>2019-06-15T07:59:21Z</time>
      </trkpt>
      <trkpt lat="39.463209" lon="-0.352077">
        <ele>8.861</ele>
        <time>2019-06-15T07:59:22Z</time>
      </trkpt>
      <trkpt lat="39.463155" lon="-0.352109">
        <ele>8.760</ele>
        <time>2019-06-15T07:59:23Z</time>
      </trkpt>
      <trkpt lat="39.463110" lon="-0.352155">
        <ele>8.813</ele>
        <time>2019-06-15T07:59:24Z</time>
      </trkpt>
      <trkpt lat="39.463051" lon="-0.352172">
        <ele>8.895</ele>
        <time>2019-06-15T07:59:25Z</time>
      </trkpt>
      <trkpt lat="39.462999" lon="-0.352190">
        <ele>8.972</ele>
        <time>2019-06-15T07:59:26Z</time>
      </trkpt>
      <trkpt lat="39.462938" lon="-0.352231">
        <ele>9.011</ele>
        <time>2019-06-15T07:59:27Z</time>
      </trkpt>
      <trkpt lat="39.462883" lon="-0.352293">
        <ele>9.026</ele>
        <time>2019-06-15T07:59:28Z</time>
      </trkpt>
      <trkpt lat="39.462837" lon="-0.352311">
        <ele>9.073</ele>
        <time>2019-06-15T07:59:29Z</time>
      </trkpt>
      <trkpt lat="39.462787" lon="-0.352342">
        <ele>9.085</ele>
        <time>2019-06-15T07:59:30Z</time>
      </trkpt>
      <trkpt lat="39.462736" lon="-0.352385">
        <ele>9.313</ele>
        <time>2019-06-15T07:59:31Z</time>
      </trkpt>
      <trkpt lat="39.462690" lon="-0.352402">
        <ele>9.608</ele>
        <time>2019-06-15T07:59:32Z</time>
      </trkpt>
      <trkpt lat="39.462619" lon="-0.352446">
        <ele>10.170</ele>
        <time>2019-06-15T07:59:34Z</time>
      </trkpt>
      <trkpt lat="39.462572" lon="-0.352493">
        <ele>10.534</ele>
        <time>2019-06-15T07:59:38Z</time>
      </trkpt>
      <trkpt lat="39.462519" lon="-0.352535">
        <ele>10.983</ele>
        <time>2019-06-15T07:59:42Z</time>
      </trkpt>
      <trkpt lat="39.462402" lon="-0.352612">
        <ele>12.336</ele>
        <time>2019-06-15T07:59:44Z</time>
      </trkpt>
      <trkpt lat="39.462325" lon="-0.352644">
        <ele>13.548</ele>
        <time>2019-06-15T07:59:46Z</time>
      </trkpt>
      <trkpt lat="39.462271" lon="-0.352658">
        <ele>14.445</ele>
        <time>2019-06-15T07:59:47Z</time>
      </trkpt>
      <trkpt lat="39.462218" lon="-0.352666">
        <ele>15.274</ele>
        <time>2019-06-15T07:59:48Z</time>
      </trkpt>
      <trkpt lat="39.462155" lon="-0.352659">
        <ele>15.569</ele>
        <time>2019-06-15T07:59:49Z</time>
      </trkpt>
      <trkpt lat="39.462085" lon="-0.352643">
        <ele>15.891</ele>
        <time>2019-06-15T07:59:50Z</time>
      </trkpt>
      <trkpt lat="39.462021" lon="-0.352638">
        <ele>16.181</ele>
        <time>2019-06-15T07:59:51Z</time>
      </trkpt>
      <trkpt lat="39.461966" lon="-0.352653">
        <ele>16.419</ele>
        <time>2019-06-15T07:59:52Z</time>
      </trkpt>
      <trkpt lat="39.461912" lon="-0.352674">
        <ele>16.408</ele>
        <time>2019-06-15T07:59:53Z</time>
      </trkpt>
      <trkpt lat="39.461819" lon="-0.352702">
        <ele>15.772</ele>
        <time>2019-06-15T07:59:55Z</time>
      </trkpt>
      <trkpt lat="39.461775" lon="-0.352731">
        <ele>15.336</ele>
        <time>2019-06-15T07:59:56Z</time>
      </trkpt>
      <trkpt lat="39.461721" lon="-0.352750">
        <ele>14.755</ele>
        <time>2019-06-15T07:59:57Z</time>
      </trkpt>
      <trkpt lat="39.461669" lon="-0.352760">
        <ele>14.258</ele>
        <time>2019-06-15T07:59:58Z</time>
      </trkpt>
      <trkpt lat="39.461615" lon="-0.352769">
        <ele>13.980</ele>
        <time>2019-06-15T07:59:59Z</time>
      </trkpt>
      <trkpt lat="39.461573" lon="-0.352791">
        <ele>13.547</ele>
        <time>2019-06-15T08:00:00Z</time>
      </trkpt>
      <trkpt lat="39.461524" lon="-0.352827">
        <ele>12.966</ele>
        <time>2019-06-15T08:00:01Z</time>
      </trkpt>
      <trkpt lat="39.461486" lon="-0.352863">
        <ele>12.211</ele>
        <time>2019-06-15T08:00:02Z</time>
      </trkpt>
      <trkpt lat="39.461444" lon="-0.352907">
        <ele>11.476</ele>
        <time>2019-06-15T08:00:03Z</time>
      </trkpt>
      <trkpt lat="39.461397" lon="-0.352941">
        <ele>10.790</ele>
        <time>2019-06-15T08:00:04Z</time>
      </trkpt>
      <trkpt lat="39.461330" lon="-0.352944">
        <ele>9.619</ele>
        <time>2019-06-15T08:00:05Z</time>
      </trkpt>
      <trkpt lat="39.461270" lon="-0.352953">
        <ele>8.608</ele>
        <time>2019-06-15T08:00:06Z</time>
      </trkpt>
      <trkpt lat="39.461221" lon="-0.352980">
        <ele>7.650</ele>
        <time>2019-06-15T08:00:07Z</time>
      </trkpt>
      <trkpt lat="39.461174" lon="-0.353008">
        <ele>6.874</ele>
        <time>2019-06-15T08:00:08Z</time>
      </trkpt>
      <trkpt lat="39.461117" lon="-0.353003">
        <ele>6.133</ele>
        <time>2019-06-15T08:00:09Z</time>
      </trkpt>
      <trkpt lat="39.461056" lon="-0.353012">
        <ele>6.066</ele>
        <time>2019-06-15T08:00:10Z</time>
      </trkpt>
      <trkpt lat="39.461007" lon="-0.353022">
        <ele>6.098</ele>
        <time>2019-06-15T08:00:11Z</time>
      </trkpt>
      <trkpt lat="39.460955" lon="-0.353036">
        <ele>6.065</ele>
        <time>2019-06-15T08:00:12Z</time>
      </trkpt>
      <trkpt lat="39.460839" lon="-0.353013">
        <ele>5.834</ele>
        <time>2019-06-15T08:00:14Z</time>
      </trkpt>
      <trkpt lat="39.460765" lon="-0.353072">
        <ele>7.119</ele>
        <time>2019-06-15T08:00:16Z</time>
      </trkpt>
      <trkpt lat="39.460688" lon="-0.353012">
        <ele>7.764</ele>
        <time>2019-06-15T08:00:18Z</time>
      </trkpt>
      <trkpt lat="39.460676" lon="-0.352932">
        <ele>7.106</ele>
        <time>2019-06-15T08:00:20Z</time>
      </trkpt>
      <trkpt lat="39.460669" lon="-0.352871">
        <ele>6.516</ele>
        <time>2019-06-15T08:00:23Z</time>
      </trkpt>
      <trkpt lat="39.460643" lon="-0.352810">
        <ele>6.008</ele>
        <time>2019-06-15T08:00:39Z</time>
      </trkpt>
      <trkpt lat="39.460592" lon="-0.352784">
        <ele>6.069</ele>
        <time>2019-06-15T08:00:42Z</time>
      </trkpt>
      <trkpt lat="39.460543" lon="-0.352760">
        <ele>5.853</ele>
        <time>2019-06-15T08:00:44Z</time>
      </trkpt>
      <trkpt lat="39.460498" lon="-0.352733">
        <ele>5.562</ele>
        <time>2019-06-15T08:00:46Z</time>
      </trkpt>
      <trkpt lat="39.460439" lon="-0.352694">
        <ele>5.075</ele>
        <time>2019-06-15T08:00:49Z</time>
      </trkpt>
      <trkpt lat="39.460393" lon="-0.352666">
        <ele>4.697</ele>
        <time>2019-06-15T08:00:51Z</time>
      </trkpt>
      <trkpt lat="39.460240" lon="-0.352588">
        <ele>3.644</ele>
        <time>2019-06-15T08:00:53Z</time>
      </trkpt>
      <trkpt lat="39.460153" lon="-0.352586">
        <ele>3.713</ele>
        <time>2019-06-15T08:00:55Z</time>
      </trkpt>
      <trkpt lat="39.460106" lon="-0.352588">
        <ele>3.788</ele>
        <time>2019-06-15T08:00:56Z</time>
      </trkpt>
      <trkpt lat="39.460016" lon="-0.352597">
        <ele>3.794</ele>
        <time>2019-06-15T08:00:58Z</time>
      </trkpt>
      <trkpt lat="39.459969" lon="-0.352608">
        <ele>3.857</ele>
        <time>2019-06-15T08:00:59Z</time>
      </trkpt>
      <trkpt lat="39.459914" lon="-0.352633">
        <ele>4.122</ele>
        <time>2019-06-15T08:01:01Z</time>
      </trkpt>
      <trkpt lat="39.459861" lon="-0.352642">
        <ele>4.508</ele>
        <time>2019-06-15T08:01:03Z</time>
      </trkpt>
      <trkpt lat="39.459779" lon="-0.352672">
        <ele>5.212</ele>
        <time>2019-06-15T08:01:04Z</time>
      </trkpt>
      <trkpt lat="39.459743" lon="-0.352745">
        <ele>5.736</ele>
        <time>2019-06-15T08:01:05Z</time>
      </trkpt>
      <trkpt lat="39.459686" lon="-0.352791">
        <ele>6.045</ele>
        <time>2019-06-15T08:01:06Z</time>
      </trkpt>
      <trkpt lat="39.459638" lon="-0.352842">
        <ele>6.228</ele>
        <time>2019-06-15T08:01:07Z</time>
      </trkpt>
      <trkpt lat="39.459621" lon="-0.352897">
        <ele>6.390</ele>
        <time>2019-06-15T08:01:08Z</time>
      </trkpt>
      <trkpt lat="39.459578" lon="-0.353015">
        <ele>6.477</ele>
        <time>2019-06-15T08:01:10Z</time>
      </trkpt>
      <trkpt lat="39.459561" lon="-0.353072">
        <ele>6.526</ele>
        <time>2019-06-15T08:01:11Z</time>
      </trkpt>
      <trkpt lat="39.459557" lon="-0.353139">
        <ele>6.881</ele>
        <time>2019-06-15T08:01:12Z</time>
      </trkpt>
      <trkpt lat="39.459534" lon="-0.353200">
        <ele>7.027</ele>
        <time>2019-06-15T08:01:15Z</time>
      </trkpt>
      <trkpt lat="39.459482" lon="-0.353182">
        <ele>6.768</ele>
        <time>2019-06-15T08:01:19Z</time>
      </trkpt>
      <trkpt lat="39.459447" lon="-0.353126">
        <ele>6.314</ele>
        <time>2019-06-15T08:01:21Z</time>
      </trkpt>
      <trkpt lat="39.459422" lon="-0.353074">
        <ele>5.908</ele>
        <time>2019-06-15T08:01:23Z</time>
      </trkpt>
      <trkpt lat="39.459321" lon="-0.352885">
        <ele>5.165</ele>
        <time>2019-06-15T08:01:24Z</time>
      </trkpt>
      <trkpt lat="39.459286" lon="-0.352835">
        <ele>4.969</ele>
        <time>2019-06-15T08:01:25Z</time>
      </trkpt>
      <trkpt lat="39.459239" lon="-0.352782">
        <ele>4.548</ele>
        <time>2019-06-15T08:01:26Z</time>
      </trkpt>
      <trkpt lat="39.459198" lon="-0.352730">
        <ele>4.711</ele>
        <time>2019-06-15T08:01:27Z</time>
      </trkpt>
      <trkpt lat="39.459173" lon="-0.352665">
        <ele>5.253</ele>
        <time>2019-06-15T08:01:28Z</time>
      </trkpt>
      <trkpt lat="39.459139" lon="-0.352610">
        <ele>5.680</ele>
        <time>2019-06-15T08:01:29Z</time>
      </trkpt>
      <trkpt lat="39.459106" lon="-0.352552">
        <ele>5.959</ele>
        <time>2019-06-15T08:01:30Z</time>
      </trkpt>
      <trkpt lat="39.459059" lon="-0.352496">
        <ele>5.844</ele>
        <time>2019-06-15T08:01:31Z</time>
      </trkpt>
      <trkpt lat="39.459001" lon="-0.352436">
        <ele>5.556</ele>
        <time>2019-06-15T08:01:32Z</time>
      </trkpt>
      <trkpt lat="39.458959" lon="-0.352376">
        <ele>5.459</ele>
        <time>2019-06-15T08:01:33Z</time>
      </trkpt>
      <trkpt lat="39.458920" lon="-0.352316">
        <ele>5.514</ele>
        <time>2019-06-15T08:01:34Z</time>
      </trkpt>
      <trkpt lat="39.458882" lon="-0.352248">
        <ele>5.808</ele>
        <time>2019-06-15T08:01:35Z</time>
      </trkpt>
      <trkpt lat="39.458836" lon="-0.352194">
        <ele>5.938</ele>
        <time>2019-06-15T08:01:36Z</time>
      </trkpt>
      <trkpt lat="39.458796" lon="-0.352135">
        <ele>6.222</ele>
        <time>2019-06-15T08:01:37Z</time>
      </trkpt>
      <trkpt lat="39.458753" lon="-0.352072">
        <ele>6.661</ele>
        <time>2019-06-15T08:01:38Z</time>
      </trkpt>
      <trkpt lat="39.458719" lon="-0.352024">
        <ele>7.114</ele>
        <time>2019-06-15T08:01:39Z</time>
      </trkpt>
      <trkpt lat="39.458679" lon="-0.351963">
        <ele>7.826</ele>
        <time>2019-06-15T08:01:40Z</time>
      </trkpt>
      <trkpt lat="39.458633" lon="-0.351903">
        <ele>8.493</ele>
        <time>2019-06-15T08:01:41Z</time>
      </trkpt>
      <trkpt lat="39.458603" lon="-0.351826">
        <ele>9.292</ele>
        <time>2019-06-15T08:01:42Z</time>
      </trkpt>
      <trkpt lat="39.458558" lon="-0.351762">
        <ele>9.887</ele>
        <time>2019-06-15T08:01:43Z</time>
      </trkpt>
      <trkpt lat="39.458510" lon="-0.351681">
        <ele>10.514</ele>
        <time>2019-06-15T08:01:44Z</time>
      </trkpt>
      <trkpt lat="39.458467" lon="-0.351617">
        <ele>10.654</ele>
        <time>2019-06-15T08:01:45Z</time>
      </trkpt>
      <trkpt lat="39.458429" lon="-0.351548">
        <ele>10.609</ele>
        <time>2019-06-15T08:01:46Z</time>
      </trkpt>
      <trkpt lat="39.458377" lon="-0.351486">
        <ele>10.708</ele>
        <time>2019-06-15T08:01:47Z</time>
      </trkpt>
      <trkpt lat="39.458320" lon="-0.351419">
        <ele>10.864</ele>
        <time>2019-06-15T08:01:48Z</time>
      </trkpt>
      <trkpt lat="39.458272" lon="-0.351355">
        <ele>10.498</ele>
        <time>2019-06-15T08:01:49Z</time>
      </trkpt>
      <trkpt lat="39.458221" lon="-0.351295">
        <ele>9.817</ele>
        <time>2019-06-15T08:01:50Z</time>
      </trkpt>
      <trkpt lat="39.458172" lon="-0.351226">
        <ele>9.360</ele>
        <time>2019-06-15T08:01:51Z</time>
      </trkpt>
      <trkpt lat="39.458128" lon="-0.351170">
        <ele>9.192</ele>
        <time>2019-06-15T08:01:52Z</time>
      </trkpt>
      <trkpt lat="39.458085" lon="-0.351102">
        <ele>9.059</ele>
        <time>2019-06-15T08:01:53Z</time>
      </trkpt>
      <trkpt lat="39.458041" lon="-0.351030">
        <ele>8.988</ele>
        <time>2019-06-15T08:01:54Z</time>
      </trkpt>
      <trkpt lat="39.457992" lon="-0.350964">
        <ele>8.863</ele>
        <time>2019-06-15T08:01:55Z</time>
      </trkpt>
      <trkpt lat="39.457945" lon="-0.350895">
        <ele>8.685</ele>
        <time>2019-06-15T08:01:56Z</time>
      </trkpt>
      <trkpt lat="39.457894" lon="-0.350833">
        <ele>8.489</ele>
        <time>2019-06-15T08:01:57Z</time>
      </trkpt>
      <trkpt lat="39.457852" lon="-0.350773">
        <ele>8.117</ele>
        <time>2019-06-15T08:01:58Z</time>
      </trkpt>
      <trkpt lat="39.457804" lon="-0.350714">
        <ele>7.708</ele>
        <time>2019-06-15T08:01:59Z</time>
      </trkpt>
      <trkpt lat="39.457754" lon="-0.350638">
        <ele>7.121</ele>
        <time>2019-06-15T08:02:00Z</time>
      </trkpt>
      <trkpt lat="39.457707" lon="-0.350574">
        <ele>6.685</ele>
        <time>2019-06-15T08:02:01Z</time>
      </trkpt>
      <trkpt lat="39.457660" lon="-0.350510">
        <ele>6.184</ele>
        <time>2019-06-15T08:02:02Z</time>
      </trkpt>
      <trkpt lat="39.457615" lon="-0.350460">
        <ele>5.617</ele>
        <time>2019-06-15T08:02:03Z</time>
      </trkpt>
      <trkpt lat="39.457573" lon="-0.350396">
        <ele>4.849</ele>
        <time>2019-06-15T08:02:04Z</time>
      </trkpt>
      <trkpt lat="39.457528" lon="-0.350321">
        <ele>3.816</ele>
        <time>2019-06-15T08:02:05Z</time>
      </trkpt>
      <trkpt lat="39.457483" lon="-0.350256">
        <ele>3.085</ele>
        <time>2019-06-15T08:02:06Z</time>
      </trkpt>
      <trkpt lat="39.457443" lon="-0.350190">
        <ele>2.920</ele>
        <time>2019-06-15T08:02:07Z</time>
      </trkpt>
      <trkpt lat="39.457393" lon="-0.350128">
        <ele>2.521</ele>
        <time>2019-06-15T08:02:08Z</time>
      </trkpt>
      <trkpt lat="39.457361" lon="-0.350068">
        <ele>2.141</ele>
        <time>2019-06-15T08:02:09Z</time>
      </trkpt>
      <trkpt lat="39.457319" lon="-0.350005">
        <ele>1.405</ele>
        <time>2019-06-15T08:02:10Z</time>
      </trkpt>
      <trkpt lat="39.457289" lon="-0.349959">
        <ele>1.008</ele>
        <time>2019-06-15T08:02:11Z</time>
      </trkpt>
      <trkpt lat="39.457246" lon="-0.349900">
        <ele>0.485</ele>
        <time>2019-06-15T08:02:12Z</time>
      </trkpt>
      <trkpt lat="39.457212" lon="-0.349841">
        <ele>0.149</ele>
        <time>2019-06-15T08:02:13Z</time>
      </trkpt>
      <trkpt lat="39.457175" lon="-0.349784">
        <ele>0.278</ele>
        <time>2019-06-15T08:02:14Z</time>
      </trkpt>
      <trkpt lat="39.457135" lon="-0.349717">
        <ele>0.341</ele>
        <time>2019-06-15T08:02:15Z</time>
      </trkpt>
      <trkpt lat="39.457085" lon="-0.349661">
        <ele>0.743</ele>
        <time>2019-06-15T08:02:16Z</time>
      </trkpt>
      <trkpt lat="39.457067" lon="-0.349598">
        <ele>1.060</ele>
        <time>2019-06-15T08:02:17Z</time>
      </trkpt>
      <trkpt lat="39.457032" lon="-0.349552">
        <ele>1.389</ele>
        <time>2019-06-15T08:02:18Z</time>
      </trkpt>
      <trkpt lat="39.456985" lon="-0.349482">
        <ele>1.794</ele>
        <time>2019-06-15T08:02:19Z</time>
      </trkpt>
      <trkpt lat="39.456951" lon="-0.349404">
        <ele>2.062</ele>
        <time>2019-06-15T08:02:20Z</time>
      </trkpt>
      <trkpt lat="39.456897" lon="-0.349348">
        <ele>2.583</ele>
        <time>2019-06-15T08:02:21Z</time>
      </trkpt>
      <trkpt lat="39.456853" lon="-0.349290">
        <ele>2.811</ele>
        <time>2019-06-15T08:02:22Z</time>
      </trkpt>
      <trkpt lat="39.456819" lon="-0.349235">
        <ele>3.008</ele>
        <time>2019-06-15T08:02:23Z</time>
      </trkpt>
      <trkpt lat="39.456753" lon="-0.349142">
        <ele>3.469</ele>
        <time>2019-06-15T08:02:25Z</time>
      </trkpt>
      <trkpt lat="39.456703" lon="-0.349088">
        <ele>3.843</ele>
        <time>2019-06-15T08:02:26Z</time>
      </trkpt>
      <trkpt lat="39.456656" lon="-0.349021">
        <ele>3.992</ele>
        <time>2019-06-15T08:02:27Z</time>
      </trkpt>
      <trkpt lat="39.456614" lon="-0.348967">
        <ele>3.745</ele>
        <time>2019-06-15T08:02:28Z</time>
      </trkpt>
      <trkpt lat="39.456566" lon="-0.348907">
        <ele>3.327</ele>
        <time>2019-06-15T08:02:29Z</time>
      </trkpt>
      <trkpt lat="39.456528" lon="-0.348851">
        <ele>3.054</ele>
        <time>2019-06-15T08:02:30Z</time>
      </trkpt>
      <trkpt lat="39.456506" lon="-0.348787">
        <ele>2.843</ele>
        <time>2019-06-15T08:02:31Z</time>
      </trkpt>
      <trkpt lat="39.456462" lon="-0.348738">
        <ele>2.558</ele>
        <time>2019-06-15T08:02:32Z</time>
      </trkpt>
      <trkpt lat="39.456421" lon="-0.348678">
        <ele>2.281</ele>
        <time>2019-06-15T08:02:33Z</time>
      </trkpt>
      <trkpt lat="39.456359" lon="-0.348614">
        <ele>2.061</ele>
        <time>2019-06-15T08:02:34Z</time>
      </trkpt>
      <trkpt lat="39.456317" lon="-0.348550">
        <ele>2.417</ele>
        <time>2019-06-15T08:02:35Z</time>
      </trkpt>
      <trkpt lat="39.456284" lon="-0.348493">
        <ele>2.908</ele>
        <time>2019-06-15T08:02:36Z</time>
      </trkpt>
      <trkpt lat="39.456248" lon="-0.348436">
        <ele>3.391</ele>
        <time>2019-06-15T08:02:37Z</time>
      </trkpt>
      <trkpt lat="39.456211" lon="-0.348394">
        <ele>3.645</ele>
        <time>2019-06-15T08:02:38Z</time>
      </trkpt>
      <trkpt lat="39.456170" lon="-0.348356">
        <ele>3.814</ele>
        <time>2019-06-15T08:02:39Z</time>
      </trkpt>
      <trkpt lat="39.456127" lon="-0.348335">
        <ele>4.097</ele>
        <time>2019-06-15T08:02:40Z</time>
      </trkpt>
      <trkpt lat="39.456046" lon="-0.348310">
        <ele>3.559</ele>
        <time>2019-06-15T08:02:42Z</time>
      </trkpt>
      <trkpt lat="39.455997" lon="-0.348304">
        <ele>3.076</ele>
        <time>2019-06-15T08:02:44Z</time>
      </trkpt>
      <trkpt lat="39.455943" lon="-0.348258">
        <ele>2.985</ele>
        <time>2019-06-15T08:03:13Z</time>
      </trkpt>
      <trkpt lat="39.455880" lon="-0.348222">
        <ele>2.620</ele>
        <time>2019-06-15T08:03:17Z</time>
      </trkpt>
      <trkpt lat="39.455827" lon="-0.348248">
        <ele>1.937</ele>
        <time>2019-06-15T08:03:19Z</time>
      </trkpt>
      <trkpt lat="39.455788" lon="-0.348282">
        <ele>1.649</ele>
        <time>2019-06-15T08:03:20Z</time>
      </trkpt>
      <trkpt lat="39.455743" lon="-0.348340">
        <ele>1.313</ele>
        <time>2019-06-15T08:03:21Z</time>
      </trkpt>
      <trkpt lat="39.455702" lon="-0.348386">
        <ele>1.608</ele>
        <time>2019-06-15T08:03:23Z</time>
      </trkpt>
      <trkpt lat="39.455656" lon="-0.348439">
        <ele>1.896</ele>
        <time>2019-06-15T08:03:24Z</time>
      </trkpt>
      <trkpt lat="39.455598" lon="-0.348519">
        <ele>1.950</ele>
        <time>2019-06-15T08:03:26Z</time>
      </trkpt>
      <trkpt lat="39.455564" lon="-0.348562">
        <ele>2.059</ele>
        <time>2019-06-15T08:03:27Z</time>
      </trkpt>
      <trkpt lat="39.455533" lon="-0.348606">
        <ele>2.132</ele>
        <time>2019-06-15T08:03:28Z</time>
      </trkpt>
      <trkpt lat="39.455499" lon="-0.348650">
        <ele>2.254</ele>
        <time>2019-06-15T08:03:29Z</time>
      </trkpt>
      <trkpt lat="39.455469" lon="-0.348695">
        <ele>2.241</ele>
        <time>2019-06-15T08:03:30Z</time>
      </trkpt>
      <trkpt lat="39.455410" lon="-0.348781">
        <ele>2.210</ele>
        <time>2019-06-15T08:03:32Z</time>
      </trkpt>
      <trkpt lat="39.455366" lon="-0.348855">
        <ele>2.125</ele>
        <time>2019-06-15T08:03:34Z</time>
      </trkpt>
      <trkpt lat="39.455332" lon="-0.348897">
        <ele>2.046</ele>
        <time>2019-06-15T08:03:35Z</time>
      </trkpt>
      <trkpt lat="39.455303" lon="-0.348944">
        <ele>2.088</ele>
        <time>2019-06-15T08:03:36Z</time>
      </trkpt>
      <trkpt lat="39.455268" lon="-0.348995">
        <ele>2.016</ele>
        <time>2019-06-15T08:03:37Z</time>
      </trkpt>
      <trkpt lat="39.455237" lon="-0.349038">
        <ele>2.108</ele>
        <time>2019-06-15T08:03:38Z</time>
      </trkpt>
      <trkpt lat="39.455204" lon="-0.349087">
        <ele>2.297</ele>
        <time>2019-06-15T08:03:39Z</time>
      </trkpt>
      <trkpt lat="39.455154" lon="-0.349176">
        <ele>2.471</ele>
        <time>2019-06-15T08:03:41Z</time>
      </trkpt>
      <trkpt lat="39.455098" lon="-0.349261">
        <ele>2.690</ele>
        <time>2019-06-15T08:03:43Z</time>
      </trkpt>
      <trkpt lat="39.455039" lon="-0.349345">
        <ele>2.953</ele>
        <time>2019-06-15T08:03:45Z</time>
      </trkpt>
      <trkpt lat="39.454992" lon="-0.349432">
        <ele>3.025</ele>
        <time>2019-06-15T08:03:47Z</time>
      </trkpt>
      <trkpt lat="39.454958" lon="-0.349478">
        <ele>3.362</ele>
        <time>2019-06-15T08:03:48Z</time>
      </trkpt>
      <trkpt lat="39.454929" lon="-0.349526">
        <ele>3.591</ele>
        <time>2019-06-15T08:03:49Z</time>
      </trkpt>
      <trkpt lat="39.454873" lon="-0.349616">
        <ele>4.146</ele>
        <time>2019-06-15T08:03:51Z</time>
      </trkpt>
      <trkpt lat="39.454819" lon="-0.349692">
        <ele>4.522</ele>
        <time>2019-06-15T08:03:53Z</time>
      </trkpt>
      <trkpt lat="39.454783" lon="-0.349736">
        <ele>4.962</ele>
        <time>2019-06-15T08:03:54Z</time>
      </trkpt>
      <trkpt lat="39.454746" lon="-0.349777">
        <ele>5.108</ele>
        <time>2019-06-15T08:03:55Z</time>
      </trkpt>
      <trkpt lat="39.454690" lon="-0.349858">
        <ele>5.308</ele>
        <time>2019-06-15T08:03:57Z</time>
      </trkpt>
      <trkpt lat="39.454631" lon="-0.349936">
        <ele>5.165</ele>
        <time>2019-06-15T08:03:59Z</time>
      </trkpt>
      <trkpt lat="39.454602" lon="-0.349985">
        <ele>5.139</ele>
        <time>2019-06-15T08:04:00Z</time>
      </trkpt>
      <trkpt lat="39.454574" lon="-0.350035">
        <ele>5.128</ele>
        <time>2019-06-15T08:04:01Z</time>
      </trkpt>
      <trkpt lat="39.454535" lon="-0.350074">
        <ele>4.911</ele>
        <time>2019-06-15T08:04:02Z</time>
      </trkpt>
      <trkpt lat="39.454470" lon="-0.350160">
        <ele>4.843</ele>
        <time>2019-06-15T08:04:04Z</time>
      </trkpt>
      <trkpt lat="39.454412" lon="-0.350238">
        <ele>4.520</ele>
        <time>2019-06-15T08:04:06Z</time>
      </trkpt>
      <trkpt lat="39.454376" lon="-0.350273">
        <ele>4.369</ele>
        <time>2019-06-15T08:04:07Z</time>
      </trkpt>
      <trkpt lat="39.454331" lon="-0.350366">
        <ele>3.834</ele>
        <time>2019-06-15T08:04:09Z</time>
      </trkpt>
      <trkpt lat="39.454301" lon="-0.350420">
        <ele>3.551</ele>
        <time>2019-06-15T08:04:10Z</time>
      </trkpt>
      <trkpt lat="39.454273" lon="-0.350468">
        <ele>3.101</ele>
        <time>2019-06-15T08:04:11Z</time>
      </trkpt>
      <trkpt lat="39.454233" lon="-0.350520">
        <ele>2.711</ele>
        <time>2019-06-15T08:04:12Z</time>
      </trkpt>
      <trkpt lat="39.454173" lon="-0.350628">
        <ele>2.308</ele>
        <time>2019-06-15T08:04:14Z</time>
      </trkpt>
      <trkpt lat="39.454118" lon="-0.350673">
        <ele>2.268</ele>
        <time>2019-06-15T08:04:15Z</time>
      </trkpt>
      <trkpt lat="39.454063" lon="-0.350747">
        <ele>2.162</ele>
        <time>2019-06-15T08:04:16Z</time>
      </trkpt>
      <trkpt lat="39.454033" lon="-0.350807">
        <ele>2.081</ele>
        <time>2019-06-15T08:04:17Z</time>
      </trkpt>
      <trkpt lat="39.453982" lon="-0.350862">
        <ele>1.764</ele>
        <time>2019-06-15T08:04:18Z</time>
      </trkpt>
      <trkpt lat="39.453934" lon="-0.350924">
        <ele>1.356</ele>
        <time>2019-06-15T08:04:19Z</time>
      </trkpt>
      <trkpt lat="39.453886" lon="-0.350998">
        <ele>1.073</ele>
        <time>2019-06-15T08:04:20Z</time>
      </trkpt>
      <trkpt lat="39.453836" lon="-0.351066">
        <ele>1.462</ele>
        <time>2019-06-15T08:04:21Z</time>
      </trkpt>
      <trkpt lat="39.453805" lon="-0.351131">
        <ele>1.647</ele>
        <time>2019-06-15T08:04:22Z</time>
      </trkpt>
      <trkpt lat="39.453759" lon="-0.351188">
        <ele>1.948</ele>
        <time>2019-06-15T08:04:23Z</time>
      </trkpt>
      <trkpt lat="39.453720" lon="-0.351247">
        <ele>2.261</ele>
        <time>2019-06-15T08:04:24Z</time>
      </trkpt>
      <trkpt lat="39.453694" lon="-0.351296">
        <ele>2.417</ele>
        <time>2019-06-15T08:04:25Z</time>
      </trkpt>
      <trkpt lat="39.453655" lon="-0.351329">
        <ele>2.708</ele>
        <time>2019-06-15T08:04:26Z</time>
      </trkpt>
      <trkpt lat="39.453611" lon="-0.351263">
        <ele>3.067</ele>
        <time>2019-06-15T08:04:28Z</time>
      </trkpt>
      <trkpt lat="39.453561" lon="-0.351199">
        <ele>3.731</ele>
        <time>2019-06-15T08:04:30Z</time>
      </trkpt>
      <trkpt lat="39.453506" lon="-0.351174">
        <ele>4.520</ele>
        <time>2019-06-15T08:04:31Z</time>
      </trkpt>
      <trkpt lat="39.453426" lon="-0.351141">
        <ele>5.753</ele>
        <time>2019-06-15T08:04:33Z</time>
      </trkpt>
      <trkpt lat="39.453380" lon="-0.351118">
        <ele>6.345</ele>
        <time>2019-06-15T08:04:34Z</time>
      </trkpt>
      <trkpt lat="39.453293" lon="-0.351094">
        <ele>6.712</ele>
        <time>2019-06-15T08:04:36Z</time>
      </trkpt>
      <trkpt lat="39.453247" lon="-0.351088">
        <ele>6.511</ele>
        <time>2019-06-15T08:04:37Z</time>
      </trkpt>
      <trkpt lat="39.453177" lon="-0.351072">
        <ele>6.266</ele>
        <time>2019-06-15T08:04:39Z</time>
      </trkpt>
      <trkpt lat="39.453111" lon="-0.351036">
        <ele>5.789</ele>
        <time>2019-06-15T08:04:41Z</time>
      </trkpt>
      <trkpt lat="39.453052" lon="-0.350990">
        <ele>5.106</ele>
        <time>2019-06-15T08:04:43Z</time>
      </trkpt>
      <trkpt lat="39.452973" lon="-0.350942">
        <ele>5.126</ele>
        <time>2019-06-15T08:04:45Z</time>
      </trkpt>
      <trkpt lat="39.452926" lon="-0.350854">
        <ele>4.608</ele>
        <time>2019-06-15T08:04:47Z</time>
      </trkpt>
      <trkpt lat="39.452910" lon="-0.350793">
        <ele>4.441</ele>
        <time>2019-06-15T08:04:48Z</time>
      </trkpt>
      <trkpt lat="39.452884" lon="-0.350683">
        <ele>3.915</ele>
        <time>2019-06-15T08:04:50Z</time>
      </trkpt>
      <trkpt lat="39.452868" lon="-0.350620">
        <ele>3.634</ele>
        <time>2019-06-15T08:04:51Z</time>
      </trkpt>
      <trkpt lat="39.452843" lon="-0.350504">
        <ele>3.637</ele>
        <time>2019-06-15T08:04:53Z</time>
      </trkpt>
      <trkpt lat="39.452824" lon="-0.350437">
        <ele>3.979</ele>
        <time>2019-06-15T08:04:54Z</time>
      </trkpt>
      <trkpt lat="39.452813" lon="-0.350365">
        <ele>4.466</ele>
        <time>2019-06-15T08:04:55Z</time>
      </trkpt>
      <trkpt lat="39.452798" lon="-0.350291">
        <ele>4.985</ele>
        <time>2019-06-15T08:04:56Z</time>
      </trkpt>
      <trkpt lat="39.452770" lon="-0.350217">
        <ele>5.550</ele>
        <time>2019-06-15T08:04:57Z</time>
      </trkpt>
      <trkpt lat="39.452740" lon="-0.350146">
        <ele>6.172</ele>
        <time>2019-06-15T08:04:58Z</time>
      </trkpt>
      <trkpt lat="39.452727" lon="-0.350074">
        <ele>6.613</ele>
        <time>2019-06-15T08:04:59Z</time>
      </trkpt>
      <trkpt lat="39.452707" lon="-0.350000">
        <ele>7.014</ele>
        <time>2019-06-15T08:05:00Z</time>
      </trkpt>
      <trkpt lat="39.452682" lon="-0.349919">
        <ele>6.308</ele>
        <time>2019-06-15T08:05:01Z</time>
      </trkpt>
      <trkpt lat="39.452629" lon="-0.349788">
        <ele>4.630</ele>
        <time>2019-06-15T08:05:03Z</time>
      </trkpt>
      <trkpt lat="39.452629" lon="-0.349788">
        <ele>4.694</ele>
        <time>2019-06-15T08:05:03Z</time>
      </trkpt>
      <trkpt lat="39.452613" lon="-0.349713">
        <ele>3.543</ele>
        <time>2019-06-15T08:05:04Z</time>
      </trkpt>
      <trkpt lat="39.452596" lon="-0.349634">
        <ele>2.256</ele>
        <time>2019-06-15T08:05:05Z</time>
      </trkpt>
      <trkpt lat="39.452582" lon="-0.349564">
        <ele>1.158</ele>
        <time>2019-06-15T08:05:06Z</time>
      </trkpt>
      <trkpt lat="39.452560" lon="-0.349496">
        <ele>0.155</ele>
        <time>2019-06-15T08:05:07Z</time>
      </trkpt>
      <trkpt lat="39.452537" lon="-0.349426">
        <ele>-0.914</ele>
        <time>2019-06-15T08:05:08Z</time>
      </trkpt>
      <trkpt lat="39.452516" lon="-0.349349">
        <ele>-1.989</ele>
        <time>2019-06-15T08:05:09Z</time>
      </trkpt>
      <trkpt lat="39.452462" lon="-0.349264">
        <ele>-2.895</ele>
        <time>2019-06-15T08:05:10Z</time>
      </trkpt>
      <trkpt lat="39.452439" lon="-0.349201">
        <ele>-3.349</ele>
        <time>2019-06-15T08:05:11Z</time>
      </trkpt>
      <trkpt lat="39.452418" lon="-0.349123">
        <ele>-3.423</ele>
        <time>2019-06-15T08:05:12Z</time>
      </trkpt>
      <trkpt lat="39.452391" lon="-0.349052">
        <ele>-3.308</ele>
        <time>2019-06-15T08:05:13Z</time>
      </trkpt>
      <trkpt lat="39.452380" lon="-0.348988">
        <ele>-3.382</ele>
        <time>2019-06-15T08:05:14Z</time>
      </trkpt>
      <trkpt lat="39.452352" lon="-0.348908">
        <ele>-3.516</ele>
        <time>2019-06-15T08:05:15Z</time>
      </trkpt>
      <trkpt lat="39.452327" lon="-0.348826">
        <ele>-4.455</ele>
        <time>2019-06-15T08:05:16Z</time>
      </trkpt>
      <trkpt lat="39.452291" lon="-0.348756">
        <ele>-5.418</ele>
        <time>2019-06-15T08:05:17Z</time>
      </trkpt>
      <trkpt lat="39.452269" lon="-0.348689">
        <ele>-6.570</ele>
        <time>2019-06-15T08:05:18Z</time>
      </trkpt>
      <trkpt lat="39.452255" lon="-0.348618">
        <ele>-7.697</ele>
        <time>2019-06-15T08:05:19Z</time>
      </trkpt>
      <trkpt lat="39.452232" lon="-0.348538">
        <ele>-7.766</ele>
        <time>2019-06-15T08:05:20Z</time>
      </trkpt>
      <trkpt lat="39.452220" lon="-0.348460">
        <ele>-7.441</ele>
        <time>2019-06-15T08:05:21Z</time>
      </trkpt>
      <trkpt lat="39.452196" lon="-0.348389">
        <ele>-7.091</ele>
        <time>2019-06-15T08:05:22Z</time>
      </trkpt>
      <trkpt lat="39.452179" lon="-0.348307">
        <ele>-6.781</ele>
        <time>2019-06-15T08:05:23Z</time>
      </trkpt>
      <trkpt lat="39.452142" lon="-0.348231">
        <ele>-6.319</ele>
        <time>2019-06-15T08:05:24Z</time>
      </trkpt>
      <trkpt lat="39.452123" lon="-0.348150">
        <ele>-6.008</ele>
        <time>2019-06-15T08:05:25Z</time>
      </trkpt>
      <trkpt lat="39.452108" lon="-0.348079">
        <ele>-5.882</ele>
        <time>2019-06-15T08:05:26Z</time>
      </trkpt>
      <trkpt lat="39.452079" lon="-0.347996">
        <ele>-5.166</ele>
        <time>2019-06-15T08:05:27Z</time>
      </trkpt>
      <trkpt lat="39.452041" lon="-0.347842">
        <ele>-3.855</ele>
        <time>2019-06-15T08:05:29Z</time>
      </trkpt>
      <trkpt lat="39.452041" lon="-0.347842">
        <ele>-3.828</ele>
        <time>2019-06-15T08:05:29Z</time>
      </trkpt>
      <trkpt lat="39.452018" lon="-0.347777">
        <ele>-3.150</ele>
        <time>2019-06-15T08:05:30Z</time>
      </trkpt>
      <trkpt lat="39.451988" lon="-0.347700">
        <ele>-2.687</ele>
        <time>2019-06-15T08:05:31Z</time>
      </trkpt>
      <trkpt lat="39.451967" lon="-0.347625">
        <ele>-2.346</ele>
        <time>2019-06-15T08:05:32Z</time>
      </trkpt>
      <trkpt lat="39.451947" lon="-0.347550">
        <ele>-2.041</ele>
        <time>2019-06-15T08:05:33Z</time>
      </trkpt>
      <trkpt lat="39.451931" lon="-0.347471">
        <ele>-1.758</ele>
        <time>2019-06-15T08:05:34Z</time>
      </trkpt>
      <trkpt lat="39.451914" lon="-0.347388">
        <ele>-0.952</ele>
        <time>2019-06-15T08:05:35Z</time>
      </trkpt>
      <trkpt lat="39.451905" lon="-0.347313">
        <ele>-0.317</ele>
        <time>2019-06-15T08:05:36Z</time>
      </trkpt>
      <trkpt lat="39.451884" lon="-0.347231">
        <ele>0.408</ele>
        <time>2019-06-15T08:05:37Z</time>
      </trkpt>
      <trkpt lat="39.451872" lon="-0.347150">
        <ele>1.078</ele>
        <time>2019-06-15T08:05:38Z</time>
      </trkpt>
      <trkpt lat="39.451858" lon="-0.347080">
        <ele>1.612</ele>
        <time>2019-06-15T08:05:39Z</time>
      </trkpt>
      <trkpt lat="39.451845" lon="-0.347004">
        <ele>2.311</ele>
        <time>2019-06-15T08:05:40Z</time>
      </trkpt>
      <trkpt lat="39.451828" lon="-0.346920">
        <ele>2.994</ele>
        <time>2019-06-15T08:05:41Z</time>
      </trkpt>
      <trkpt lat="39.451820" lon="-0.346838">
        <ele>2.936</ele>
        <time>2019-06-15T08:05:42Z</time>
      </trkpt>
      <trkpt lat="39.451806" lon="-0.346754">
        <ele>3.013</ele>
        <time>2019-06-15T08:05:43Z</time>
      </trkpt>
      <trkpt lat="39.451780" lon="-0.346676">
        <ele>3.022</ele>
        <time>2019-06-15T08:05:44Z</time>
      </trkpt>
      <trkpt lat="39.451761" lon="-0.346606">
        <ele>2.877</ele>
        <time>2019-06-15T08:05:45Z</time>
      </trkpt>
      <trkpt lat="39.451741" lon="-0.346528">
        <ele>2.519</ele>
        <time>2019-06-15T08:05:46Z</time>
      </trkpt>
      <trkpt lat="39.451725" lon="-0.346449">
        <ele>2.209</ele>
        <time>2019-06-15T08:05:47Z</time>
      </trkpt>
      <trkpt lat="39.451715" lon="-0.346377">
        <ele>2.019</ele>
        <time>2019-06-15T08:05:48Z</time>
      </trkpt>
      <trkpt lat="39.451702" lon="-0.346292">
        <ele>2.008</ele>
        <time>2019-06-15T08:05:49Z</time>
      </trkpt>
      <trkpt lat="39.451683" lon="-0.346223">
        <ele>2.054</ele>
        <time>2019-06-15T08:05:50Z</time>
      </trkpt>
      <trkpt lat="39.451666" lon="-0.346146">
        <ele>2.018</ele>
        <time>2019-06-15T08:05:51Z</time>
      </trkpt>
      <trkpt lat="39.451645" lon="-0.346067">
        <ele>2.447</ele>
        <time>2019-06-15T08:05:52Z</time>
      </trkpt>
      <trkpt lat="39.451634" lon="-0.345995">
        <ele>2.930</ele>
        <time>2019-06-15T08:05:53Z</time>
      </trkpt>
      <trkpt lat="39.451626" lon="-0.345929">
        <ele>3.452</ele>
        <time>2019-06-15T08:05:54Z</time>
      </trkpt>
      <trkpt lat="39.451601" lon="-0.345825">
        <ele>4.149</ele>
        <time>2019-06-15T08:05:56Z</time>
      </trkpt>
      <trkpt lat="39.451574" lon="-0.345750">
        <ele>4.668</ele>
        <time>2019-06-15T08:05:59Z</time>
      </trkpt>
      <trkpt lat="39.451488" lon="-0.345661">
        <ele>5.243</ele>
        <time>2019-06-15T08:06:01Z</time>
      </trkpt>
      <trkpt lat="39.451435" lon="-0.345634">
        <ele>5.471</ele>
        <time>2019-06-15T08:06:02Z</time>
      </trkpt>
      <trkpt lat="39.451383" lon="-0.345607">
        <ele>5.641</ele>
        <time>2019-06-15T08:06:03Z</time>
      </trkpt>
      <trkpt lat="39.451327" lon="-0.345578">
        <ele>5.715</ele>
        <time>2019-06-15T08:06:04Z</time>
      </trkpt>
      <trkpt lat="39.451274" lon="-0.345537">
        <ele>5.608</ele>
        <time>2019-06-15T08:06:05Z</time>
      </trkpt>
      <trkpt lat="39.451216" lon="-0.345503">
        <ele>5.380</ele>
        <time>2019-06-15T08:06:06Z</time>
      </trkpt>
      <trkpt lat="39.451156" lon="-0.345482">
        <ele>5.014</ele>
        <time>2019-06-15T08:06:07Z</time>
      </trkpt>
      <trkpt lat="39.451103" lon="-0.345436">
        <ele>4.573</ele>
        <time>2019-06-15T08:06:08Z</time>
      </trkpt>
      <trkpt lat="39.451052" lon="-0.345407">
        <ele>3.936</ele>
        <time>2019-06-15T08:06:09Z</time>
      </trkpt>
      <trkpt lat="39.450992" lon="-0.345375">
        <ele>3.288</ele>
        <time>2019-06-15T08:06:10Z</time>
      </trkpt>
      <trkpt lat="39.450938" lon="-0.345336">
        <ele>2.595</ele>
        <time>2019-06-15T08:06:11Z</time>
      </trkpt>
      <trkpt lat="39.450882" lon="-0.345298">
        <ele>1.724</ele>
        <time>2019-06-15T08:06:12Z</time>
      </trkpt>
      <trkpt lat="39.450828" lon="-0.345258">
        <ele>0.949</ele>
        <time>2019-06-15T08:06:13Z</time>
      </trkpt>
      <trkpt lat="39.450774" lon="-0.345232">
        <ele>0.795</ele>
        <time>2019-06-15T08:06:14Z</time>
      </trkpt>
      <trkpt lat="39.450711" lon="-0.345192">
        <ele>0.449</ele>
        <time>2019-06-15T08:06:15Z</time>
      </trkpt>
      <trkpt lat="39.450650" lon="-0.345157">
        <ele>0.223</ele>
        <time>2019-06-15T08:06:16Z</time>
      </trkpt>
      <trkpt lat="39.450586" lon="-0.345124">
        <ele>0.008</ele>
        <time>2019-06-15T08:06:17Z</time>
      </trkpt>
      <trkpt lat="39.450525" lon="-0.345076">
        <ele>-0.252</ele>
        <time>2019-06-15T08:06:18Z</time>
      </trkpt>
      <trkpt lat="39.450464" lon="-0.345044">
        <ele>-0.796</ele>
        <time>2019-06-15T08:06:19Z</time>
      </trkpt>
      <trkpt lat="39.450407" lon="-0.345005">
        <ele>-1.145</ele>
        <time>2019-06-15T08:06:20Z</time>
      </trkpt>
      <trkpt lat="39.450343" lon="-0.344974">
        <ele>-1.428</ele>
        <time>2019-06-15T08:06:21Z</time>
      </trkpt>
      <trkpt lat="39.450289" lon="-0.344935">
        <ele>-1.570</ele>
        <time>2019-06-15T08:06:22Z</time>
      </trkpt>
      <trkpt lat="39.450230" lon="-0.344899">
        <ele>-1.647</ele>
        <time>2019-06-15T08:06:23Z</time>
      </trkpt>
      <trkpt lat="39.450169" lon="-0.344854">
        <ele>-1.516</ele>
        <time>2019-06-15T08:06:24Z</time>
      </trkpt>
      <trkpt lat="39.450110" lon="-0.344818">
        <ele>-1.591</ele>
        <time>2019-06-15T08:06:25Z</time>
      </trkpt>
      <trkpt lat="39.450045" lon="-0.344780">
        <ele>-1.432</ele>
        <time>2019-06-15T08:06:26Z</time>
      </trkpt>
      <trkpt lat="39.449984" lon="-0.344742">
        <ele>-1.192</ele>
        <time>2019-06-15T08:06:27Z</time>
      </trkpt>
      <trkpt lat="39.449931" lon="-0.344702">
        <ele>-0.411</ele>
        <time>2019-06-15T08:06:28Z</time>
      </trkpt>
      <trkpt lat="39.449869" lon="-0.344664">
        <ele>0.308</ele>
        <time>2019-06-15T08:06:29Z</time>
      </trkpt>
      <trkpt lat="39.449809" lon="-0.344629">
        <ele>0.826</ele>
        <time>2019-06-15T08:06:30Z</time>
      </trkpt>
      <trkpt lat="39.449748" lon="-0.344592">
        <ele>1.350</ele>
        <time>2019-06-15T08:06:31Z</time>
      </trkpt>
      <trkpt lat="39.449683" lon="-0.344547">
        <ele>1.979</ele>
        <time>2019-06-15T08:06:32Z</time>
      </trkpt>
      <trkpt lat="39.449621" lon="-0.344511">
        <ele>2.352</ele>
        <time>2019-06-15T08:06:33Z</time>
      </trkpt>
      <trkpt lat="39.449555" lon="-0.344487">
        <ele>2.634</ele>
        <time>2019-06-15T08:06:34Z</time>
      </trkpt>
      <trkpt lat="39.449495" lon="-0.344443">
        <ele>2.861</ele>
        <time>2019-06-15T08:06:35Z</time>
      </trkpt>
      <trkpt lat="39.449439" lon="-0.344398">
        <ele>2.860</ele>
        <time>2019-06-15T08:06:36Z</time>
      </trkpt>
      <trkpt lat="39.449381" lon="-0.344362">
        <ele>2.545</ele>
        <time>2019-06-15T08:06:37Z</time>
      </trkpt>
      <trkpt lat="39.449319" lon="-0.344335">
        <ele>2.281</ele>
        <time>2019-06-15T08:06:38Z</time>
      </trkpt>
      <trkpt lat="39.449256" lon="-0.344307">
        <ele>1.861</ele>
        <time>2019-06-15T08:06:39Z</time>
      </trkpt>
      <trkpt lat="39.449195" lon="-0.344268">
        <ele>1.517</ele>
        <time>2019-06-15T08:06:40Z</time>
      </trkpt>
      <trkpt lat="39.449137" lon="-0.344235">
        <ele>1.108</ele>
        <time>2019-06-15T08:06:41Z</time>
      </trkpt>
      <trkpt lat="39.449078" lon="-0.344197">
        <ele>0.871</ele>
        <time>2019-06-15T08:06:42Z</time>
      </trkpt>
      <trkpt lat="39.449017" lon="-0.344186">
        <ele>0.565</ele>
        <time>2019-06-15T08:06:43Z</time>
      </trkpt>
      <trkpt lat="39.448956" lon="-0.344161">
        <ele>0.234</ele>
        <time>2019-06-15T08:06:44Z</time>
      </trkpt>
      <trkpt lat="39.448900" lon="-0.344138">
        <ele>-0.157</ele>
        <time>2019-06-15T08:06:45Z</time>
      </trkpt>
      <trkpt lat="39.448845" lon="-0.344114">
        <ele>-0.239</ele>
        <time>2019-06-15T08:06:46Z</time>
      </trkpt>
      <trkpt lat="39.448784" lon="-0.344096">
        <ele>-0.246</ele>
        <time>2019-06-15T08:06:47Z</time>
      </trkpt>
      <trkpt lat="39.448727" lon="-0.344081">
        <ele>-0.125</ele>
        <time>2019-06-15T08:06:48Z</time>
      </trkpt>
      <trkpt lat="39.448664" lon="-0.344071">
        <ele>-0.170</ele>
        <time>2019-06-15T08:06:49Z</time>
      </trkpt>
      <trkpt lat="39.448608" lon="-0.344050">
        <ele>0.083</ele>
        <time>2019-06-15T08:06:50Z</time>
      </trkpt>
      <trkpt lat="39.448553" lon="-0.344032">
        <ele>0.525</ele>
        <time>2019-06-15T08:06:51Z</time>
      </trkpt>
      <trkpt lat="39.448500" lon="-0.344005">
        <ele>1.017</ele>
        <time>2019-06-15T08:06:52Z</time>
      </trkpt>
      <trkpt lat="39.448442" lon="-0.343982">
        <ele>1.608</ele>
        <time>2019-06-15T08:06:53Z</time>
      </trkpt>
      <trkpt lat="39.448381" lon="-0.343985">
        <ele>2.281</ele>
        <time>2019-06-15T08:06:54Z</time>
      </trkpt>
      <trkpt lat="39.448318" lon="-0.343982">
        <ele>2.865</ele>
        <time>2019-06-15T08:06:55Z</time>
      </trkpt>
      <trkpt lat="39.448261" lon="-0.343976">
        <ele>3.514</ele>
        <time>2019-06-15T08:06:56Z</time>
      </trkpt>
      <trkpt lat="39.448200" lon="-0.343972">
        <ele>4.187</ele>
        <time>2019-06-15T08:06:57Z</time>
      </trkpt>
      <trkpt lat="39.448141" lon="-0.343967">
        <ele>4.829</ele>
        <time>2019-06-15T08:06:58Z</time>
      </trkpt>
      <trkpt lat="39.448082" lon="-0.343967">
        <ele>5.416</ele>
        <time>2019-06-15T08:06:59Z</time>
      </trkpt>
      <trkpt lat="39.448021" lon="-0.343959">
        <ele>5.845</ele>
        <time>2019-06-15T08:07:00Z</time>
      </trkpt>
      <trkpt lat="39.447956" lon="-0.343946">
        <ele>5.990</ele>
        <time>2019-06-15T08:07:01Z</time>
      </trkpt>
      <trkpt lat="39.447895" lon="-0.343960">
        <ele>5.954</ele>
        <time>2019-06-15T08:07:02Z</time>
      </trkpt>
      <trkpt lat="39.447831" lon="-0.343953">
        <ele>6.056</ele>
        <time>2019-06-15T08:07:03Z</time>
      </trkpt>
      <trkpt lat="39.447767" lon="-0.343953">
        <ele>6.011</ele>
        <time>2019-06-15T08:07:04Z</time>
      </trkpt>
      <trkpt lat="39.447698" lon="-0.343944">
        <ele>6.008</ele>
        <time>2019-06-15T08:07:05Z</time>
      </trkpt>
      <trkpt lat="39.447642" lon="-0.343927">
        <ele>6.088</ele>
        <time>2019-06-15T08:07:06Z</time>
      </trkpt>
      <trkpt lat="39.447583" lon="-0.343932">
        <ele>6.052</ele>
        <time>2019-06-15T08:07:07Z</time>
      </trkpt>
      <trkpt lat="39.447527" lon="-0.343927">
        <ele>6.081</ele>
        <time>2019-06-15T08:07:08Z</time>
      </trkpt>
      <trkpt lat="39.447464" lon="-0.343926">
        <ele>5.794</ele>
        <time>2019-06-15T08:07:09Z</time>
      </trkpt>
      <trkpt lat="39.447418" lon="-0.343947">
        <ele>5.476</ele>
        <time>2019-06-15T08:07:10Z</time>
      </trkpt>
      <trkpt lat="39.447353" lon="-0.343958">
        <ele>4.953</ele>
        <time>2019-06-15T08:07:11Z</time>
      </trkpt>
      <trkpt lat="39.447291" lon="-0.343938">
        <ele>4.572</ele>
        <time>2019-06-15T08:07:12Z</time>
      </trkpt>
      <trkpt lat="39.447240" lon="-0.343931">
        <ele>4.117</ele>
        <time>2019-06-15T08:07:13Z</time>
      </trkpt>
      <trkpt lat="39.447185" lon="-0.343900">
        <ele>4.097</ele>
        <time>2019-06-15T08:07:14Z</time>
      </trkpt>
      <trkpt lat="39.447121" lon="-0.343853">
        <ele>3.923</ele>
        <time>2019-06-15T08:07:15Z</time>
      </trkpt>
      <trkpt lat="39.447077" lon="-0.343802">
        <ele>3.725</ele>
        <time>2019-06-15T08:07:16Z</time>
      </trkpt>
      <trkpt lat="39.447027" lon="-0.343746">
        <ele>3.308</ele>
        <time>2019-06-15T08:07:17Z</time>
      </trkpt>
      <trkpt lat="39.446985" lon="-0.343694">
        <ele>2.812</ele>
        <time>2019-06-15T08:07:18Z</time>
      </trkpt>
      <trkpt lat="39.446907" lon="-0.343586">
        <ele>1.666</ele>
        <time>2019-06-15T08:07:20Z</time>
      </trkpt>
      <trkpt lat="39.446907" lon="-0.343586">
        <ele>1.695</ele>
        <time>2019-06-15T08:07:20Z</time>
      </trkpt>
      <trkpt lat="39.446873" lon="-0.343522">
        <ele>0.938</ele>
        <time>2019-06-15T08:07:21Z</time>
      </trkpt>
      <trkpt lat="39.446831" lon="-0.343461">
        <ele>0.480</ele>
        <time>2019-06-15T08:07:22Z</time>
      </trkpt>
      <trkpt lat="39.446795" lon="-0.343400">
        <ele>-0.077</ele>
        <time>2019-06-15T08:07:23Z</time>
      </trkpt>
      <trkpt lat="39.446749" lon="-0.343343">
        <ele>-0.246</ele>
        <time>2019-06-15T08:07:24Z</time>
      </trkpt>
      <trkpt lat="39.446714" lon="-0.343282">
        <ele>0.261</ele>
        <time>2019-06-15T08:07:25Z</time>
      </trkpt>
      <trkpt lat="39.446678" lon="-0.343218">
        <ele>0.815</ele>
        <time>2019-06-15T08:07:26Z</time>
      </trkpt>
      <trkpt lat="39.446635" lon="-0.343160">
        <ele>1.665</ele>
        <time>2019-06-15T08:07:27Z</time>
      </trkpt>
      <trkpt lat="39.446593" lon="-0.343106">
        <ele>2.411</ele>
        <time>2019-06-15T08:07:28Z</time>
      </trkpt>
      <trkpt lat="39.446543" lon="-0.343065">
        <ele>3.308</ele>
        <time>2019-06-15T08:07:29Z</time>
      </trkpt>
      <trkpt lat="39.446497" lon="-0.343020">
        <ele>4.214</ele>
        <time>2019-06-15T08:07:30Z</time>
      </trkpt>
      <trkpt lat="39.446463" lon="-0.342977">
        <ele>5.028</ele>
        <time>2019-06-15T08:07:31Z</time>
      </trkpt>
      <trkpt lat="39.446424" lon="-0.342946">
        <ele>5.837</ele>
        <time>2019-06-15T08:07:32Z</time>
      </trkpt>
      <trkpt lat="39.446373" lon="-0.342944">
        <ele>6.340</ele>
        <time>2019-06-15T08:07:33Z</time>
      </trkpt>
      <trkpt lat="39.446324" lon="-0.342934">
        <ele>6.762</ele>
        <time>2019-06-15T08:07:34Z</time>
      </trkpt>
      <trkpt lat="39.446264" lon="-0.342928">
        <ele>7.179</ele>
        <time>2019-06-15T08:07:35Z</time>
      </trkpt>
      <trkpt lat="39.446203" lon="-0.342906">
        <ele>7.648</ele>
        <time>2019-06-15T08:07:36Z</time>
      </trkpt>
      <trkpt lat="39.446166" lon="-0.342859">
        <ele>8.243</ele>
        <time>2019-06-15T08:07:37Z</time>
      </trkpt>
      <trkpt lat="39.446134" lon="-0.342805">
        <ele>8.774</ele>
        <time>2019-06-15T08:07:38Z</time>
      </trkpt>
      <trkpt lat="39.446087" lon="-0.342707">
        <ele>9.056</ele>
        <time>2019-06-15T08:07:40Z</time>
      </trkpt>
      <trkpt lat="39.446044" lon="-0.342663">
        <ele>8.921</ele>
        <time>2019-06-15T08:07:41Z</time>
      </trkpt>
      <trkpt lat="39.446013" lon="-0.342610">
        <ele>8.708</ele>
        <time>2019-06-15T08:07:42Z</time>
      </trkpt>
      <trkpt lat="39.445974" lon="-0.342560">
        <ele>8.320</ele>
        <time>2019-06-15T08:07:43Z</time>
      </trkpt>
      <trkpt lat="39.445936" lon="-0.342509">
        <ele>7.864</ele>
        <time>2019-06-15T08:07:44Z</time>
      </trkpt>
      <trkpt lat="39.445895" lon="-0.342458">
        <ele>7.023</ele>
        <time>2019-06-15T08:07:45Z</time>
      </trkpt>
      <trkpt lat="39.445866" lon="-0.342402">
        <ele>6.286</ele>
        <time>2019-06-15T08:07:46Z</time>
      </trkpt>
      <trkpt lat="39.445839" lon="-0.342339">
        <ele>5.348</ele>
        <time>2019-06-15T08:07:47Z</time>
      </trkpt>
      <trkpt lat="39.445800" lon="-0.342287">
        <ele>4.255</ele>
        <time>2019-06-15T08:07:48Z</time>
      </trkpt>
      <trkpt lat="39.445764" lon="-0.342232">
        <ele>3.164</ele>
        <time>2019-06-15T08:07:49Z</time>
      </trkpt>
      <trkpt lat="39.445704" lon="-0.342131">
        <ele>2.389</ele>
        <time>2019-06-15T08:07:51Z</time>
      </trkpt>
      <trkpt lat="39.445672" lon="-0.342085">
        <ele>2.092</ele>
        <time>2019-06-15T08:07:52Z</time>
      </trkpt>
      <trkpt lat="39.445638" lon="-0.342030">
        <ele>1.773</ele>
        <time>2019-06-15T08:07:53Z</time>
      </trkpt>
      <trkpt lat="39.445608" lon="-0.341982">
        <ele>1.520</ele>
        <time>2019-06-15T08:07:54Z</time>
      </trkpt>
      <trkpt lat="39.445583" lon="-0.341923">
        <ele>1.408</ele>
        <time>2019-06-15T08:07:55Z</time>
      </trkpt>
      <trkpt lat="39.445568" lon="-0.341856">
        <ele>1.752</ele>
        <time>2019-06-15T08:07:56Z</time>
      </trkpt>
      <trkpt lat="39.445564" lon="-0.341795">
        <ele>2.166</ele>
        <time>2019-06-15T08:07:57Z</time>
      </trkpt>
      <trkpt lat="39.445552" lon="-0.341693">
        <ele>2.895</ele>
        <time>2019-06-15T08:07:59Z</time>
      </trkpt>
      <trkpt lat="39.445545" lon="-0.341633">
        <ele>3.098</ele>
        <time>2019-06-15T08:08:01Z</time>
      </trkpt>
      <trkpt lat="39.445545" lon="-0.341575">
        <ele>3.160</ele>
        <time>2019-06-15T08:08:03Z</time>
      </trkpt>
      <trkpt lat="39.445544" lon="-0.341510">
        <ele>3.147</ele>
        <time>2019-06-15T08:08:05Z</time>
      </trkpt>
      <trkpt lat="39.445541" lon="-0.341438">
        <ele>3.126</ele>
        <time>2019-06-15T08:08:07Z</time>
      </trkpt>
      <trkpt lat="39.445532" lon="-0.341366">
        <ele>3.231</ele>
        <time>2019-06-15T08:08:09Z</time>
      </trkpt>
      <trkpt lat="39.445526" lon="-0.341294">
        <ele>3.277</ele>
        <time>2019-06-15T08:08:11Z</time>
      </trkpt>
      <trkpt lat="39.445534" lon="-0.341210">
        <ele>3.261</ele>
        <time>2019-06-15T08:08:13Z</time>
      </trkpt>
      <trkpt lat="39.445540" lon="-0.341144">
        <ele>3.127</ele>
        <time>2019-06-15T08:08:15Z</time>
      </trkpt>
      <trkpt lat="39.445539" lon="-0.341053">
        <ele>3.308</ele>
        <time>2019-06-15T08:08:18Z</time>
      </trkpt>
      <trkpt lat="39.445536" lon="-0.340976">
        <ele>3.670</ele>
        <time>2019-06-15T08:08:20Z</time>
      </trkpt>
      <trkpt lat="39.445532" lon="-0.340899">
        <ele>3.964</ele>
        <time>2019-06-15T08:08:22Z</time>
      </trkpt>
      <trkpt lat="39.445529" lon="-0.340825">
        <ele>4.363</ele>
        <time>2019-06-15T08:08:24Z</time>
      </trkpt>
      <trkpt lat="39.445527" lon="-0.340755">
        <ele>5.046</ele>
        <time>2019-06-15T08:08:26Z</time>
      </trkpt>
      <trkpt lat="39.445525" lon="-0.340690">
        <ele>5.778</ele>
        <time>2019-06-15T08:08:28Z</time>
      </trkpt>
      <trkpt lat="39.445524" lon="-0.340625">
        <ele>6.435</ele>
        <time>2019-06-15T08:08:30Z</time>
      </trkpt>
      <trkpt lat="39.445522" lon="-0.340550">
        <ele>7.284</ele>
        <time>2019-06-15T08:08:32Z</time>
      </trkpt>
      <trkpt lat="39.445477" lon="-0.340556">
        <ele>7.389</ele>
        <time>2019-06-15T08:08:37Z</time>
      </trkpt>
      <trkpt lat="39.445475" lon="-0.340629">
        <ele>6.669</ele>
        <time>2019-06-15T08:08:39Z</time>
      </trkpt>
      <trkpt lat="39.445492" lon="-0.340693">
        <ele>5.904</ele>
        <time>2019-06-15T08:08:42Z</time>
      </trkpt>
      <trkpt lat="39.445530" lon="-0.340637">
        <ele>6.224</ele>
        <time>2019-06-15T08:08:46Z</time>
      </trkpt>
      <trkpt lat="39.445536" lon="-0.340518">
        <ele>7.308</ele>
        <time>2019-06-15T08:08:48Z</time>
      </trkpt>
      <trkpt lat="39.445531" lon="-0.340456">
        <ele>7.869</ele>
        <time>2019-06-15T08:08:49Z</time>
      </trkpt>
      <trkpt lat="39.445520" lon="-0.340390">
        <ele>8.493</ele>
        <time>2019-06-15T08:08:50Z</time>
      </trkpt>
      <trkpt lat="39.445504" lon="-0.340331">
        <ele>9.042</ele>
        <time>2019-06-15T08:08:51Z</time>
      </trkpt>
      <trkpt lat="39.445453" lon="-0.340243">
        <ele>9.955</ele>
        <time>2019-06-15T08:08:53Z</time>
      </trkpt>
      <trkpt lat="39.445374" lon="-0.340180">
        <ele>10.847</ele>
        <time>2019-06-15T08:08:55Z</time>
      </trkpt>
      <trkpt lat="39.445327" lon="-0.340160">
        <ele>11.114</ele>
        <time>2019-06-15T08:08:56Z</time>
      </trkpt>
      <trkpt lat="39.445280" lon="-0.340149">
        <ele>11.583</ele>
        <time>2019-06-15T08:08:57Z</time>
      </trkpt>
      <trkpt lat="39.445197" lon="-0.340148">
        <ele>12.328</ele>
        <time>2019-06-15T08:08:59Z</time>
      </trkpt>
      <trkpt lat="39.445116" lon="-0.340181">
        <ele>13.151</ele>
        <time>2019-06-15T08:09:01Z</time>
      </trkpt>
      <trkpt lat="39.445076" lon="-0.340211">
        <ele>13.401</ele>
        <time>2019-06-15T08:09:02Z</time>
      </trkpt>
      <trkpt lat="39.445035" lon="-0.340250">
        <ele>13.711</ele>
        <time>2019-06-15T08:09:03Z</time>
      </trkpt>
      <trkpt lat="39.444993" lon="-0.340341">
        <ele>13.508</ele>
        <time>2019-06-15T08:09:04Z</time>
      </trkpt>
      <trkpt lat="39.444949" lon="-0.340378">
        <ele>13.298</ele>
        <time>2019-06-15T08:09:05Z</time>
      </trkpt>
      <trkpt lat="39.444902" lon="-0.340409">
        <ele>12.912</ele>
        <time>2019-06-15T08:09:06Z</time>
      </trkpt>
      <trkpt lat="39.444856" lon="-0.340445">
        <ele>12.631</ele>
        <time>2019-06-15T08:09:07Z</time>
      </trkpt>
      <trkpt lat="39.444805" lon="-0.340445">
        <ele>12.514</ele>
        <time>2019-06-15T08:09:08Z</time>
      </trkpt>
      <trkpt lat="39.444745" lon="-0.340404">
        <ele>12.616</ele>
        <time>2019-06-15T08:09:09Z</time>
      </trkpt>
      <trkpt lat="39.444692" lon="-0.340369">
        <ele>11.983</ele>
        <time>2019-06-15T08:09:10Z</time>
      </trkpt>
      <trkpt lat="39.444638" lon="-0.340348">
        <ele>10.552</ele>
        <time>2019-06-15T08:09:11Z</time>
      </trkpt>
      <trkpt lat="39.444574" lon="-0.340343">
        <ele>8.787</ele>
        <time>2019-06-15T08:09:12Z</time>
      </trkpt>
      <trkpt lat="39.444524" lon="-0.340305">
        <ele>7.363</ele>
        <time>2019-06-15T08:09:13Z</time>
      </trkpt>
      <trkpt lat="39.444470" lon="-0.340271">
        <ele>5.744</ele>
        <time>2019-06-15T08:09:14Z</time>
      </trkpt>
      <trkpt lat="39.444420" lon="-0.340229">
        <ele>4.318</ele>
        <time>2019-06-15T08:09:15Z</time>
      </trkpt>
      <trkpt lat="39.444366" lon="-0.340192">
        <ele>3.208</ele>
        <time>2019-06-15T08:09:16Z</time>
      </trkpt>
      <trkpt lat="39.444330" lon="-0.340142">
        <ele>2.459</ele>
        <time>2019-06-15T08:09:17Z</time>
      </trkpt>
      <trkpt lat="39.444281" lon="-0.340094">
        <ele>1.653</ele>
        <time>2019-06-15T08:09:18Z</time>
      </trkpt>
      <trkpt lat="39.444233" lon="-0.340045">
        <ele>0.982</ele>
        <time>2019-06-15T08:09:19Z</time>
      </trkpt>
      <trkpt lat="39.444188" lon="-0.339992">
        <ele>0.345</ele>
        <time>2019-06-15T08:09:20Z</time>
      </trkpt>
      <trkpt lat="39.444138" lon="-0.339945">
        <ele>-0.057</ele>
        <time>2019-06-15T08:09:21Z</time>
      </trkpt>
      <trkpt lat="39.444093" lon="-0.339886">
        <ele>-0.114</ele>
        <time>2019-06-15T08:09:22Z</time>
      </trkpt>
      <trkpt lat="39.444047" lon="-0.339832">
        <ele>-0.353</ele>
        <time>2019-06-15T08:09:23Z</time>
      </trkpt>
      <trkpt lat="39.443996" lon="-0.339777">
        <ele>-0.678</ele>
        <time>2019-06-15T08:09:24Z</time>
      </trkpt>
      <trkpt lat="39.443929" lon="-0.339738">
        <ele>-0.867</ele>
        <time>2019-06-15T08:09:25Z</time>
      </trkpt>
      <trkpt lat="39.443884" lon="-0.339686">
        <ele>-1.581</ele>
        <time>2019-06-15T08:09:26Z</time>
      </trkpt>
      <trkpt lat="39.443837" lon="-0.339631">
        <ele>-2.119</ele>
        <time>2019-06-15T08:09:27Z</time>
      </trkpt>
      <trkpt lat="39.443787" lon="-0.339581">
        <ele>-2.108</ele>
        <time>2019-06-15T08:09:28Z</time>
      </trkpt>
      <trkpt lat="39.443733" lon="-0.339528">
        <ele>-1.689</ele>
        <time>2019-06-15T08:09:29Z</time>
      </trkpt>
      <trkpt lat="39.443675" lon="-0.339483">
        <ele>-0.683</ele>
        <time>2019-06-15T08:09:30Z</time>
      </trkpt>
      <trkpt lat="39.443625" lon="-0.339447">
        <ele>0.792</ele>
        <time>2019-06-15T08:09:31Z</time>
      </trkpt>
      <trkpt lat="39.443567" lon="-0.339409">
        <ele>2.865</ele>
        <time>2019-06-15T08:09:32Z</time>
      </trkpt>
      <trkpt lat="39.443509" lon="-0.339359">
        <ele>5.087</ele>
        <time>2019-06-15T08:09:33Z</time>
      </trkpt>
      <trkpt lat="39.443453" lon="-0.339323">
        <ele>6.984</ele>
        <time>2019-06-15T08:09:34Z</time>
      </trkpt>
      <trkpt lat="39.443395" lon="-0.339287">
        <ele>8.843</ele>
        <time>2019-06-15T08:09:35Z</time>
      </trkpt>
      <trkpt lat="39.443346" lon="-0.339240">
        <ele>10.438</ele>
        <time>2019-06-15T08:09:36Z</time>
      </trkpt>
      <trkpt lat="39.443296" lon="-0.339191">
        <ele>11.122</ele>
        <time>2019-06-15T08:09:37Z</time>
      </trkpt>
      <trkpt lat="39.443238" lon="-0.339153">
        <ele>11.362</ele>
        <time>2019-06-15T08:09:38Z</time>
      </trkpt>
      <trkpt lat="39.443188" lon="-0.339108">
        <ele>11.208</ele>
        <time>2019-06-15T08:09:39Z</time>
      </trkpt>
      <trkpt lat="39.443132" lon="-0.339066">
        <ele>10.908</ele>
        <time>2019-06-15T08:09:40Z</time>
      </trkpt>
      <trkpt lat="39.443086" lon="-0.339040">
        <ele>10.785</ele>
        <time>2019-06-15T08:09:41Z</time>
      </trkpt>
      <trkpt lat="39.443028" lon="-0.338993">
        <ele>9.869</ele>
        <time>2019-06-15T08:09:42Z</time>
      </trkpt>
      <trkpt lat="39.442973" lon="-0.338957">
        <ele>8.838</ele>
        <time>2019-06-15T08:09:43Z</time>
      </trkpt>
      <trkpt lat="39.442917" lon="-0.338912">
        <ele>7.741</ele>
        <time>2019-06-15T08:09:44Z</time>
      </trkpt>
      <trkpt lat="39.442861" lon="-0.338876">
        <ele>6.773</ele>
        <time>2019-06-15T08:09:45Z</time>
      </trkpt>
      <trkpt lat="39.442808" lon="-0.338853">
        <ele>5.830</ele>
        <time>2019-06-15T08:09:46Z</time>
      </trkpt>
      <trkpt lat="39.442748" lon="-0.338813">
        <ele>4.289</ele>
        <time>2019-06-15T08:09:47Z</time>
      </trkpt>
      <trkpt lat="39.442690" lon="-0.338778">
        <ele>2.274</ele>
        <time>2019-06-15T08:09:48Z</time>
      </trkpt>
      <trkpt lat="39.442631" lon="-0.338742">
        <ele>0.273</ele>
        <time>2019-06-15T08:09:49Z</time>
      </trkpt>
      <trkpt lat="39.442576" lon="-0.338710">
        <ele>-1.785</ele>
        <time>2019-06-15T08:09:50Z</time>
      </trkpt>
      <trkpt lat="39.442518" lon="-0.338669">
        <ele>-3.713</ele>
        <time>2019-06-15T08:09:51Z</time>
      </trkpt>
      <trkpt lat="39.442464" lon="-0.338636">
        <ele>-5.408</ele>
        <time>2019-06-15T08:09:52Z</time>
      </trkpt>
      <trkpt lat="39.442406" lon="-0.338598">
        <ele>-6.720</ele>
        <time>2019-06-15T08:09:53Z</time>
      </trkpt>
      <trkpt lat="39.442344" lon="-0.338584">
        <ele>-7.964</ele>
        <time>2019-06-15T08:09:54Z</time>
      </trkpt>
      <trkpt lat="39.442289" lon="-0.338557">
        <ele>-9.033</ele>
        <time>2019-06-15T08:09:55Z</time>
      </trkpt>
      <trkpt lat="39.442225" lon="-0.338527">
        <ele>-10.326</ele>
        <time>2019-06-15T08:09:56Z</time>
      </trkpt>
      <trkpt lat="39.442163" lon="-0.338491">
        <ele>-10.678</ele>
        <time>2019-06-15T08:09:57Z</time>
      </trkpt>
      <trkpt lat="39.442103" lon="-0.338458">
        <ele>-11.085</ele>
        <time>2019-06-15T08:09:58Z</time>
      </trkpt>
      <trkpt lat="39.442042" lon="-0.338435">
        <ele>-11.594</ele>
        <time>2019-06-15T08:09:59Z</time>
      </trkpt>
      <trkpt lat="39.441983" lon="-0.338414">
        <ele>-11.939</ele>
        <time>2019-06-15T08:10:00Z</time>
      </trkpt>
      <trkpt lat="39.441921" lon="-0.338394">
        <ele>-12.161</ele>
        <time>2019-06-15T08:10:01Z</time>
      </trkpt>
      <trkpt lat="39.441864" lon="-0.338362">
        <ele>-11.821</ele>
        <time>2019-06-15T08:10:02Z</time>
      </trkpt>
      <trkpt lat="39.441806" lon="-0.338334">
        <ele>-11.513</ele>
        <time>2019-06-15T08:10:03Z</time>
      </trkpt>
      <trkpt lat="39.441746" lon="-0.338314">
        <ele>-10.908</ele>
        <time>2019-06-15T08:10:04Z</time>
      </trkpt>
      <trkpt lat="39.441686" lon="-0.338301">
        <ele>-10.219</ele>
        <time>2019-06-15T08:10:05Z</time>
      </trkpt>
      <trkpt lat="39.441629" lon="-0.338280">
        <ele>-9.523</ele>
        <time>2019-06-15T08:10:06Z</time>
      </trkpt>
      <trkpt lat="39.441566" lon="-0.338251">
        <ele>-8.672</ele>
        <time>2019-06-15T08:10:07Z</time>
      </trkpt>
      <trkpt lat="39.441504" lon="-0.338231">
        <ele>-7.715</ele>
        <time>2019-06-15T08:10:08Z</time>
      </trkpt>
      <trkpt lat="39.441443" lon="-0.338209">
        <ele>-6.847</ele>
        <time>2019-06-15T08:10:09Z</time>
      </trkpt>
      <trkpt lat="39.441385" lon="-0.338189">
        <ele>-6.034</ele>
        <time>2019-06-15T08:10:10Z</time>
      </trkpt>
      <trkpt lat="39.441326" lon="-0.338161">
        <ele>-5.863</ele>
        <time>2019-06-15T08:10:11Z</time>
      </trkpt>
      <trkpt lat="39.441268" lon="-0.338136">
        <ele>-5.778</ele>
        <time>2019-06-15T08:10:12Z</time>
      </trkpt>
      <trkpt lat="39.441210" lon="-0.338118">
        <ele>-5.738</ele>
        <time>2019-06-15T08:10:13Z</time>
      </trkpt>
      <trkpt lat="39.441152" lon="-0.338094">
        <ele>-5.870</ele>
        <time>2019-06-15T08:10:14Z</time>
      </trkpt>
      <trkpt lat="39.441094" lon="-0.338089">
        <ele>-6.117</ele>
        <time>2019-06-15T08:10:15Z</time>
      </trkpt>
      <trkpt lat="39.441042" lon="-0.338076">
        <ele>-7.308</ele>
        <time>2019-06-15T08:10:16Z</time>
      </trkpt>
      <trkpt lat="39.440984" lon="-0.338061">
        <ele>-8.756</ele>
        <time>2019-06-15T08:10:17Z</time>
      </trkpt>
      <trkpt lat="39.440927" lon="-0.338041">
        <ele>-10.020</ele>
        <time>2019-06-15T08:10:18Z</time>
      </trkpt>
      <trkpt lat="39.440870" lon="-0.338025">
        <ele>-11.399</ele>
        <time>2019-06-15T08:10:19Z</time>
      </trkpt>
      <trkpt lat="39.440812" lon="-0.338011">
        <ele>-12.292</ele>
        <time>2019-06-15T08:10:20Z</time>
      </trkpt>
      <trkpt lat="39.440759" lon="-0.337992">
        <ele>-12.314</ele>
        <time>2019-06-15T08:10:21Z</time>
      </trkpt>
      <trkpt lat="39.440703" lon="-0.337969">
        <ele>-12.561</ele>
        <time>2019-06-15T08:10:22Z</time>
      </trkpt>
      <trkpt lat="39.440646" lon="-0.337956">
        <ele>-12.630</ele>
        <time>2019-06-15T08:10:23Z</time>
      </trkpt>
      <trkpt lat="39.440585" lon="-0.337928">
        <ele>-12.955</ele>
        <time>2019-06-15T08:10:24Z</time>
      </trkpt>
      <trkpt lat="39.440524" lon="-0.337912">
        <ele>-12.696</ele>
        <time>2019-06-15T08:10:25Z</time>
      </trkpt>
      <trkpt lat="39.440473" lon="-0.337905">
        <ele>-12.131</ele>
        <time>2019-06-15T08:10:26Z</time>
      </trkpt>
      <trkpt lat="39.440416" lon="-0.337906">
        <ele>-11.324</ele>
        <time>2019-06-15T08:10:27Z</time>
      </trkpt>
      <trkpt lat="39.440358" lon="-0.337896">
        <ele>-10.708</ele>
        <time>2019-06-15T08:10:28Z</time>
      </trkpt>
      <trkpt lat="39.440304" lon="-0.337884">
        <ele>-10.242</ele>
        <time>2019-06-15T08:10:29Z</time>
      </trkpt>
      <trkpt lat="39.440251" lon="-0.337877">
        <ele>-9.346</ele>
        <time>2019-06-15T08:10:30Z</time>
      </trkpt>
      <trkpt lat="39.440197" lon="-0.337866">
        <ele>-8.255</ele>
        <time>2019-06-15T08:10:31Z</time>
      </trkpt>
      <trkpt lat="39.440139" lon="-0.337859">
        <ele>-6.948</ele>
        <time>2019-06-15T08:10:32Z</time>
      </trkpt>
      <trkpt lat="39.440082" lon="-0.337847">
        <ele>-5.790</ele>
        <time>2019-06-15T08:10:33Z</time>
      </trkpt>
      <trkpt lat="39.440021" lon="-0.337842">
        <ele>-4.337</ele>
        <time>2019-06-15T08:10:34Z</time>
      </trkpt>
      <trkpt lat="39.439965" lon="-0.337836">
        <ele>-3.416</ele>
        <time>2019-06-15T08:10:35Z</time>
      </trkpt>
      <trkpt lat="39.439907" lon="-0.337829">
        <ele>-2.811</ele>
        <time>2019-06-15T08:10:36Z</time>
      </trkpt>
      <trkpt lat="39.439848" lon="-0.337827">
        <ele>-2.299</ele>
        <time>2019-06-15T08:10:37Z</time>
      </trkpt>
      <trkpt lat="39.439789" lon="-0.337811">
        <ele>-1.607</ele>
        <time>2019-06-15T08:10:38Z</time>
      </trkpt>
      <trkpt lat="39.439735" lon="-0.337825">
        <ele>-1.027</ele>
        <time>2019-06-15T08:10:39Z</time>
      </trkpt>
      <trkpt lat="39.439679" lon="-0.337825">
        <ele>-0.708</ele>
        <time>2019-06-15T08:10:40Z</time>
      </trkpt>
      <trkpt lat="39.439623" lon="-0.337834">
        <ele>-0.512</ele>
        <time>2019-06-15T08:10:41Z</time>
      </trkpt>
      <trkpt lat="39.439572" lon="-0.337843">
        <ele>-0.476</ele>
        <time>2019-06-15T08:10:42Z</time>
      </trkpt>
      <trkpt lat="39.439519" lon="-0.337834">
        <ele>-0.215</ele>
        <time>2019-06-15T08:10:43Z</time>
      </trkpt>
      <trkpt lat="39.439467" lon="-0.337856">
        <ele>-0.128</ele>
        <time>2019-06-15T08:10:44Z</time>
      </trkpt>
      <trkpt lat="39.439415" lon="-0.337875">
        <ele>0.050</ele>
        <time>2019-06-15T08:10:45Z</time>
      </trkpt>
      <trkpt lat="39.439362" lon="-0.337876">
        <ele>0.057</ele>
        <time>2019-06-15T08:10:46Z</time>
      </trkpt>
      <trkpt lat="39.439312" lon="-0.337900">
        <ele>0.056</ele>
        <time>2019-06-15T08:10:47Z</time>
      </trkpt>
      <trkpt lat="39.439259" lon="-0.337896">
        <ele>0.021</ele>
        <time>2019-06-15T08:10:48Z</time>
      </trkpt>
      <trkpt lat="39.439206" lon="-0.337903">
        <ele>0.065</ele>
        <time>2019-06-15T08:10:49Z</time>
      </trkpt>
      <trkpt lat="39.439154" lon="-0.337909">
        <ele>0.068</ele>
        <time>2019-06-15T08:10:50Z</time>
      </trkpt>
      <trkpt lat="39.439107" lon="-0.337919">
        <ele>0.114</ele>
        <time>2019-06-15T08:10:51Z</time>
      </trkpt>
      <trkpt lat="39.439055" lon="-0.337923">
        <ele>0.208</ele>
        <time>2019-06-15T08:10:52Z</time>
      </trkpt>
      <trkpt lat="39.438962" lon="-0.337915">
        <ele>0.429</ele>
        <time>2019-06-15T08:10:54Z</time>
      </trkpt>
      <trkpt lat="39.438915" lon="-0.337921">
        <ele>0.423</ele>
        <time>2019-06-15T08:10:55Z</time>
      </trkpt>
      <trkpt lat="39.438866" lon="-0.337926">
        <ele>0.652</ele>
        <time>2019-06-15T08:10:56Z</time>
      </trkpt>
      <trkpt lat="39.438774" lon="-0.337940">
        <ele>1.045</ele>
        <time>2019-06-15T08:10:58Z</time>
      </trkpt>
      <trkpt lat="39.438682" lon="-0.337961">
        <ele>1.317</ele>
        <time>2019-06-15T08:11:00Z</time>
      </trkpt>
      <trkpt lat="39.438628" lon="-0.337957">
        <ele>1.634</ele>
        <time>2019-06-15T08:11:01Z</time>
      </trkpt>
      <trkpt lat="39.438577" lon="-0.337947">
        <ele>2.393</ele>
        <time>2019-06-15T08:11:02Z</time>
      </trkpt>
      <trkpt lat="39.438489" lon="-0.337960">
        <ele>3.798</ele>
        <time>2019-06-15T08:11:04Z</time>
      </trkpt>
      <trkpt lat="39.438441" lon="-0.337962">
        <ele>4.546</ele>
        <time>2019-06-15T08:11:05Z</time>
      </trkpt>
      <trkpt lat="39.438348" lon="-0.337958">
        <ele>6.088</ele>
        <time>2019-06-15T08:11:07Z</time>
      </trkpt>
      <trkpt lat="39.438303" lon="-0.337964">
        <ele>6.516</ele>
        <time>2019-06-15T08:11:08Z</time>
      </trkpt>
      <trkpt lat="39.438256" lon="-0.337970">
        <ele>6.808</ele>
        <time>2019-06-15T08:11:09Z</time>
      </trkpt>
      <trkpt lat="39.438210" lon="-0.337974">
        <ele>7.147</ele>
        <time>2019-06-15T08:11:10Z</time>
      </trkpt>
      <trkpt lat="39.438134" lon="-0.337997">
        <ele>7.831</ele>
        <time>2019-06-15T08:11:12Z</time>
      </trkpt>
      <trkpt lat="39.438092" lon="-0.338020">
        <ele>8.340</ele>
        <time>2019-06-15T08:11:13Z</time>
      </trkpt>
      <trkpt lat="39.438001" lon="-0.338028">
        <ele>8.213</ele>
        <time>2019-06-15T08:11:15Z</time>
      </trkpt>
      <trkpt lat="39.437948" lon="-0.338038">
        <ele>8.075</ele>
        <time>2019-06-15T08:11:16Z</time>
      </trkpt>
      <trkpt lat="39.437885" lon="-0.338036">
        <ele>7.622</ele>
        <time>2019-06-15T08:11:17Z</time>
      </trkpt>
      <trkpt lat="39.437820" lon="-0.338048">
        <ele>7.281</ele>
        <time>2019-06-15T08:11:18Z</time>
      </trkpt>
      <trkpt lat="39.437760" lon="-0.338073">
        <ele>6.916</ele>
        <time>2019-06-15T08:11:19Z</time>
      </trkpt>
      <trkpt lat="39.437691" lon="-0.338091">
        <ele>6.251</ele>
        <time>2019-06-15T08:11:20Z</time>
      </trkpt>
      <trkpt lat="39.437626" lon="-0.338113">
        <ele>5.501</ele>
        <time>2019-06-15T08:11:21Z</time>
      </trkpt>
      <trkpt lat="39.437549" lon="-0.338120">
        <ele>4.611</ele>
        <time>2019-06-15T08:11:22Z</time>
      </trkpt>
      <trkpt lat="39.437476" lon="-0.338135">
        <ele>3.908</ele>
        <time>2019-06-15T08:11:23Z</time>
      </trkpt>
      <trkpt lat="39.437397" lon="-0.338146">
        <ele>3.448</ele>
        <time>2019-06-15T08:11:24Z</time>
      </trkpt>
      <trkpt lat="39.437315" lon="-0.338156">
        <ele>2.922</ele>
        <time>2019-06-15T08:11:25Z</time>
      </trkpt>
      <trkpt lat="39.437234" lon="-0.338177">
        <ele>2.591</ele>
        <time>2019-06-15T08:11:26Z</time>
      </trkpt>
      <trkpt lat="39.437150" lon="-0.338207">
        <ele>2.454</ele>
        <time>2019-06-15T08:11:27Z</time>
      </trkpt>
      <trkpt lat="39.437060" lon="-0.338233">
        <ele>2.316</ele>
        <time>2019-06-15T08:11:28Z</time>
      </trkpt>
      <trkpt lat="39.436975" lon="-0.338279">
        <ele>2.153</ele>
        <time>2019-06-15T08:11:29Z</time>
      </trkpt>
      <trkpt lat="39.436888" lon="-0.338307">
        <ele>2.052</ele>
        <time>2019-06-15T08:11:30Z</time>
      </trkpt>
      <trkpt lat="39.436798" lon="-0.338340">
        <ele>2.137</ele>
        <time>2019-06-15T08:11:31Z</time>
      </trkpt>
      <trkpt lat="39.436712" lon="-0.338373">
        <ele>2.383</ele>
        <time>2019-06-15T08:11:32Z</time>
      </trkpt>
      <trkpt lat="39.436630" lon="-0.338429">
        <ele>2.725</ele>
        <time>2019-06-15T08:11:33Z</time>
      </trkpt>
      <trkpt lat="39.436543" lon="-0.338470">
        <ele>3.017</ele>
        <time>2019-06-15T08:11:34Z</time>
      </trkpt>
      <trkpt lat="39.436462" lon="-0.338518">
        <ele>3.308</ele>
        <time>2019-06-15T08:11:35Z</time>
      </trkpt>
      <trkpt lat="39.436385" lon="-0.338561">
        <ele>3.641</ele>
        <time>2019-06-15T08:11:36Z</time>
      </trkpt>
      <trkpt lat="39.436299" lon="-0.338597">
        <ele>3.985</ele>
        <time>2019-06-15T08:11:37Z</time>
      </trkpt>
      <trkpt lat="39.436221" lon="-0.338639">
        <ele>4.134</ele>
        <time>2019-06-15T08:11:38Z</time>
      </trkpt>
      <trkpt lat="39.436145" lon="-0.338672">
        <ele>4.237</ele>
        <time>2019-06-15T08:11:39Z</time>
      </trkpt>
      <trkpt lat="39.436063" lon="-0.338713">
        <ele>4.349</ele>
        <time>2019-06-15T08:11:40Z</time>
      </trkpt>
      <trkpt lat="39.435988" lon="-0.338758">
        <ele>4.376</ele>
        <time>2019-06-15T08:11:41Z</time>
      </trkpt>
      <trkpt lat="39.435907" lon="-0.338795">
        <ele>4.215</ele>
        <time>2019-06-15T08:11:42Z</time>
      </trkpt>
      <trkpt lat="39.435824" lon="-0.338847">
        <ele>4.090</ele>
        <time>2019-06-15T08:11:43Z</time>
      </trkpt>
      <trkpt lat="39.435752" lon="-0.338894">
        <ele>4.332</ele>
        <time>2019-06-15T08:11:44Z</time>
      </trkpt>
      <trkpt lat="39.435680" lon="-0.338935">
        <ele>4.592</ele>
        <time>2019-06-15T08:11:45Z</time>
      </trkpt>
      <trkpt lat="39.435607" lon="-0.338963">
        <ele>4.811</ele>
        <time>2019-06-15T08:11:46Z</time>
      </trkpt>
      <trkpt lat="39.435536" lon="-0.338996">
        <ele>4.908</ele>
        <time>2019-06-15T08:11:47Z</time>
      </trkpt>
      <trkpt lat="39.435462" lon="-0.339037">
        <ele>4.646</ele>
        <time>2019-06-15T08:11:48Z</time>
      </trkpt>
      <trkpt lat="39.435392" lon="-0.339065">
        <ele>4.340</ele>
        <time>2019-06-15T08:11:49Z</time>
      </trkpt>
      <trkpt lat="39.435326" lon="-0.339104">
        <ele>3.779</ele>
        <time>2019-06-15T08:11:50Z</time>
      </trkpt>
      <trkpt lat="39.435248" lon="-0.339123">
        <ele>3.042</ele>
        <time>2019-06-15T08:11:51Z</time>
      </trkpt>
      <trkpt lat="39.435185" lon="-0.339143">
        <ele>2.254</ele>
        <time>2019-06-15T08:11:52Z</time>
      </trkpt>
      <trkpt lat="39.435110" lon="-0.339169">
        <ele>1.241</ele>
        <time>2019-06-15T08:11:53Z</time>
      </trkpt>
      <trkpt lat="39.435042" lon="-0.339201">
        <ele>0.470</ele>
        <time>2019-06-15T08:11:54Z</time>
      </trkpt>
      <trkpt lat="39.434952" lon="-0.339274">
        <ele>-0.375</ele>
        <time>2019-06-15T08:11:56Z</time>
      </trkpt>
      <trkpt lat="39.434888" lon="-0.339297">
        <ele>-0.343</ele>
        <time>2019-06-15T08:11:57Z</time>
      </trkpt>
      <trkpt lat="39.434820" lon="-0.339316">
        <ele>-0.264</ele>
        <time>2019-06-15T08:11:58Z</time>
      </trkpt>
      <trkpt lat="39.434753" lon="-0.339354">
        <ele>-0.110</ele>
        <time>2019-06-15T08:11:59Z</time>
      </trkpt>
      <trkpt lat="39.434694" lon="-0.339386">
        <ele>0.308</ele>
        <time>2019-06-15T08:12:00Z</time>
      </trkpt>
      <trkpt lat="39.434625" lon="-0.339415">
        <ele>1.077</ele>
        <time>2019-06-15T08:12:01Z</time>
      </trkpt>
      <trkpt lat="39.434573" lon="-0.339434">
        <ele>1.611</ele>
        <time>2019-06-15T08:12:02Z</time>
      </trkpt>
      <trkpt lat="39.434497" lon="-0.339465">
        <ele>2.450</ele>
        <time>2019-06-15T08:12:03Z</time>
      </trkpt>
      <trkpt lat="39.434426" lon="-0.339508">
        <ele>2.943</ele>
        <time>2019-06-15T08:12:04Z</time>
      </trkpt>
      <trkpt lat="39.434363" lon="-0.339536">
        <ele>2.825</ele>
        <time>2019-06-15T08:12:05Z</time>
      </trkpt>
      <trkpt lat="39.434298" lon="-0.339568">
        <ele>2.772</ele>
        <time>2019-06-15T08:12:06Z</time>
      </trkpt>
      <trkpt lat="39.434247" lon="-0.339619">
        <ele>2.761</ele>
        <time>2019-06-15T08:12:07Z</time>
      </trkpt>
      <trkpt lat="39.434181" lon="-0.339642">
        <ele>2.796</ele>
        <time>2019-06-15T08:12:08Z</time>
      </trkpt>
      <trkpt lat="39.434121" lon="-0.339674">
        <ele>2.852</ele>
        <time>2019-06-15T08:12:09Z</time>
      </trkpt>
      <trkpt lat="39.434060" lon="-0.339699">
        <ele>2.953</ele>
        <time>2019-06-15T08:12:10Z</time>
      </trkpt>
      <trkpt lat="39.433999" lon="-0.339727">
        <ele>3.008</ele>
        <time>2019-06-15T08:12:11Z</time>
      </trkpt>
      <trkpt lat="39.433935" lon="-0.339746">
        <ele>3.008</ele>
        <time>2019-06-15T08:12:12Z</time>
      </trkpt>
      <trkpt lat="39.433872" lon="-0.339774">
        <ele>3.158</ele>
        <time>2019-06-15T08:12:13Z</time>
      </trkpt>
      <trkpt lat="39.433804" lon="-0.339795">
        <ele>3.582</ele>
        <time>2019-06-15T08:12:14Z</time>
      </trkpt>
      <trkpt lat="39.433743" lon="-0.339820">
        <ele>3.961</ele>
        <time>2019-06-15T08:12:15Z</time>
      </trkpt>
      <trkpt lat="39.433683" lon="-0.339840">
        <ele>4.274</ele>
        <time>2019-06-15T08:12:16Z</time>
      </trkpt>
      <trkpt lat="39.433619" lon="-0.339875">
        <ele>4.486</ele>
        <time>2019-06-15T08:12:17Z</time>
      </trkpt>
      <trkpt lat="39.433560" lon="-0.339902">
        <ele>4.923</ele>
        <time>2019-06-15T08:12:18Z</time>
      </trkpt>
      <trkpt lat="39.433499" lon="-0.339929">
        <ele>5.512</ele>
        <time>2019-06-15T08:12:19Z</time>
      </trkpt>
      <trkpt lat="39.433435" lon="-0.339950">
        <ele>6.147</ele>
        <time>2019-06-15T08:12:20Z</time>
      </trkpt>
      <trkpt lat="39.433376" lon="-0.339973">
        <ele>6.676</ele>
        <time>2019-06-15T08:12:21Z</time>
      </trkpt>
      <trkpt lat="39.433313" lon="-0.339994">
        <ele>7.090</ele>
        <time>2019-06-15T08:12:22Z</time>
      </trkpt>
      <trkpt lat="39.433251" lon="-0.340015">
        <ele>6.919</ele>
        <time>2019-06-15T08:12:23Z</time>
      </trkpt>
      <trkpt lat="39.433190" lon="-0.340031">
        <ele>6.808</ele>
        <time>2019-06-15T08:12:24Z</time>
      </trkpt>
      <trkpt lat="39.433129" lon="-0.340049">
        <ele>6.890</ele>
        <time>2019-06-15T08:12:25Z</time>
      </trkpt>
      <trkpt lat="39.433072" lon="-0.340076">
        <ele>6.714</ele>
        <time>2019-06-15T08:12:26Z</time>
      </trkpt>
      <trkpt lat="39.433009" lon="-0.340098">
        <ele>6.393</ele>
        <time>2019-06-15T08:12:27Z</time>
      </trkpt>
      <trkpt lat="39.432947" lon="-0.340126">
        <ele>5.736</ele>
        <time>2019-06-15T08:12:28Z</time>
      </trkpt>
      <trkpt lat="39.432884" lon="-0.340153">
        <ele>5.338</ele>
        <time>2019-06-15T08:12:29Z</time>
      </trkpt>
      <trkpt lat="39.432819" lon="-0.340168">
        <ele>4.935</ele>
        <time>2019-06-15T08:12:30Z</time>
      </trkpt>
      <trkpt lat="39.432757" lon="-0.340176">
        <ele>4.624</ele>
        <time>2019-06-15T08:12:31Z</time>
      </trkpt>
      <trkpt lat="39.432691" lon="-0.340190">
        <ele>4.689</ele>
        <time>2019-06-15T08:12:32Z</time>
      </trkpt>
      <trkpt lat="39.432620" lon="-0.340204">
        <ele>4.695</ele>
        <time>2019-06-15T08:12:33Z</time>
      </trkpt>
      <trkpt lat="39.432554" lon="-0.340222">
        <ele>4.649</ele>
        <time>2019-06-15T08:12:34Z</time>
      </trkpt>
      <trkpt lat="39.432491" lon="-0.340235">
        <ele>4.723</ele>
        <time>2019-06-15T08:12:35Z</time>
      </trkpt>
      <trkpt lat="39.432434" lon="-0.340251">
        <ele>4.808</ele>
        <time>2019-06-15T08:12:36Z</time>
      </trkpt>
      <trkpt lat="39.432372" lon="-0.340277">
        <ele>5.092</ele>
        <time>2019-06-15T08:12:37Z</time>
      </trkpt>
      <trkpt lat="39.432311" lon="-0.340291">
        <ele>5.016</ele>
        <time>2019-06-15T08:12:38Z</time>
      </trkpt>
      <trkpt lat="39.432246" lon="-0.340312">
        <ele>5.195</ele>
        <time>2019-06-15T08:12:39Z</time>
      </trkpt>
      <trkpt lat="39.432185" lon="-0.340330">
        <ele>5.078</ele>
        <time>2019-06-15T08:12:40Z</time>
      </trkpt>
      <trkpt lat="39.432124" lon="-0.340348">
        <ele>4.710</ele>
        <time>2019-06-15T08:12:41Z</time>
      </trkpt>
      <trkpt lat="39.432065" lon="-0.340362">
        <ele>4.537</ele>
        <time>2019-06-15T08:12:42Z</time>
      </trkpt>
      <trkpt lat="39.432003" lon="-0.340378">
        <ele>4.496</ele>
        <time>2019-06-15T08:12:43Z</time>
      </trkpt>
      <trkpt lat="39.431941" lon="-0.340395">
        <ele>4.341</ele>
        <time>2019-06-15T08:12:44Z</time>
      </trkpt>
      <trkpt lat="39.431877" lon="-0.340412">
        <ele>4.657</ele>
        <time>2019-06-15T08:12:45Z</time>
      </trkpt>
      <trkpt lat="39.431819" lon="-0.340424">
        <ele>4.800</ele>
        <time>2019-06-15T08:12:46Z</time>
      </trkpt>
      <trkpt lat="39.431760" lon="-0.340434">
        <ele>5.020</ele>
        <time>2019-06-15T08:12:47Z</time>
      </trkpt>
      <trkpt lat="39.431695" lon="-0.340455">
        <ele>5.208</ele>
        <time>2019-06-15T08:12:48Z</time>
      </trkpt>
      <trkpt lat="39.431634" lon="-0.340474">
        <ele>5.338</ele>
        <time>2019-06-15T08:12:49Z</time>
      </trkpt>
      <trkpt lat="39.431569" lon="-0.340498">
        <ele>5.312</ele>
        <time>2019-06-15T08:12:50Z</time>
      </trkpt>
      <trkpt lat="39.431510" lon="-0.340510">
        <ele>5.271</ele>
        <time>2019-06-15T08:12:51Z</time>
      </trkpt>
      <trkpt lat="39.431455" lon="-0.340523">
        <ele>5.174</ele>
        <time>2019-06-15T08:12:52Z</time>
      </trkpt>
      <trkpt lat="39.431391" lon="-0.340535">
        <ele>4.916</ele>
        <time>2019-06-15T08:12:53Z</time>
      </trkpt>
      <trkpt lat="39.431334" lon="-0.340544">
        <ele>4.683</ele>
        <time>2019-06-15T08:12:54Z</time>
      </trkpt>
      <trkpt lat="39.431271" lon="-0.340557">
        <ele>4.292</ele>
        <time>2019-06-15T08:12:55Z</time>
      </trkpt>
      <trkpt lat="39.431209" lon="-0.340586">
        <ele>3.867</ele>
        <time>2019-06-15T08:12:56Z</time>
      </trkpt>
      <trkpt lat="39.431150" lon="-0.340615">
        <ele>3.568</ele>
        <time>2019-06-15T08:12:57Z</time>
      </trkpt>
      <trkpt lat="39.431091" lon="-0.340628">
        <ele>3.042</ele>
        <time>2019-06-15T08:12:58Z</time>
      </trkpt>
      <trkpt lat="39.431031" lon="-0.340645">
        <ele>2.526</ele>
        <time>2019-06-15T08:12:59Z</time>
      </trkpt>
      <trkpt lat="39.430971" lon="-0.340659">
        <ele>1.908</ele>
        <time>2019-06-15T08:13:00Z</time>
      </trkpt>
      <trkpt lat="39.430909" lon="-0.340659">
        <ele>1.289</ele>
        <time>2019-06-15T08:13:01Z</time>
      </trkpt>
      <trkpt lat="39.430845" lon="-0.340649">
        <ele>0.533</ele>
        <time>2019-06-15T08:13:02Z</time>
      </trkpt>
      <trkpt lat="39.430781" lon="-0.340619">
        <ele>0.222</ele>
        <time>2019-06-15T08:13:03Z</time>
      </trkpt>
      <trkpt lat="39.430718" lon="-0.340589">
        <ele>0.185</ele>
        <time>2019-06-15T08:13:04Z</time>
      </trkpt>
      <trkpt lat="39.430658" lon="-0.340563">
        <ele>0.037</ele>
        <time>2019-06-15T08:13:05Z</time>
      </trkpt>
      <trkpt lat="39.430595" lon="-0.340524">
        <ele>0.114</ele>
        <time>2019-06-15T08:13:06Z</time>
      </trkpt>
      <trkpt lat="39.430534" lon="-0.340500">
        <ele>0.363</ele>
        <time>2019-06-15T08:13:07Z</time>
      </trkpt>
      <trkpt lat="39.430477" lon="-0.340447">
        <ele>0.798</ele>
        <time>2019-06-15T08:13:08Z</time>
      </trkpt>
      <trkpt lat="39.430419" lon="-0.340423">
        <ele>1.018</ele>
        <time>2019-06-15T08:13:09Z</time>
      </trkpt>
      <trkpt lat="39.430363" lon="-0.340366">
        <ele>1.498</ele>
        <time>2019-06-15T08:13:10Z</time>
      </trkpt>
      <trkpt lat="39.430313" lon="-0.340305">
        <ele>1.817</ele>
        <time>2019-06-15T08:13:11Z</time>
      </trkpt>
      <trkpt lat="39.430270" lon="-0.340247">
        <ele>2.208</ele>
        <time>2019-06-15T08:13:12Z</time>
      </trkpt>
      <trkpt lat="39.430227" lon="-0.340193">
        <ele>2.614</ele>
        <time>2019-06-15T08:13:13Z</time>
      </trkpt>
      <trkpt lat="39.430186" lon="-0.340132">
        <ele>3.038</ele>
        <time>2019-06-15T08:13:14Z</time>
      </trkpt>
      <trkpt lat="39.430136" lon="-0.340085">
        <ele>3.447</ele>
        <time>2019-06-15T08:13:15Z</time>
      </trkpt>
      <trkpt lat="39.430099" lon="-0.340025">
        <ele>3.640</ele>
        <time>2019-06-15T08:13:16Z</time>
      </trkpt>
      <trkpt lat="39.430071" lon="-0.339961">
        <ele>3.872</ele>
        <time>2019-06-15T08:13:17Z</time>
      </trkpt>
      <trkpt lat="39.430048" lon="-0.339897">
        <ele>3.959</ele>
        <time>2019-06-15T08:13:18Z</time>
      </trkpt>
      <trkpt lat="39.430032" lon="-0.339830">
        <ele>4.018</ele>
        <time>2019-06-15T08:13:19Z</time>
      </trkpt>
      <trkpt lat="39.430022" lon="-0.339757">
        <ele>4.053</ele>
        <time>2019-06-15T08:13:20Z</time>
      </trkpt>
      <trkpt lat="39.430015" lon="-0.339686">
        <ele>3.979</ele>
        <time>2019-06-15T08:13:21Z</time>
      </trkpt>
      <trkpt lat="39.430002" lon="-0.339613">
        <ele>3.605</ele>
        <time>2019-06-15T08:13:22Z</time>
      </trkpt>
      <trkpt lat="39.429988" lon="-0.339545">
        <ele>3.325</ele>
        <time>2019-06-15T08:13:23Z</time>
      </trkpt>
      <trkpt lat="39.429968" lon="-0.339465">
        <ele>3.008</ele>
        <time>2019-06-15T08:13:24Z</time>
      </trkpt>
      <trkpt lat="39.429944" lon="-0.339389">
        <ele>2.660</ele>
        <time>2019-06-15T08:13:25Z</time>
      </trkpt>
      <trkpt lat="39.429933" lon="-0.339308">
        <ele>2.144</ele>
        <time>2019-06-15T08:13:26Z</time>
      </trkpt>
      <trkpt lat="39.429921" lon="-0.339223">
        <ele>1.753</ele>
        <time>2019-06-15T08:13:27Z</time>
      </trkpt>
      <trkpt lat="39.429914" lon="-0.339144">
        <ele>1.326</ele>
        <time>2019-06-15T08:13:28Z</time>
      </trkpt>
      <trkpt lat="39.429916" lon="-0.339055">
        <ele>1.198</ele>
        <time>2019-06-15T08:13:29Z</time>
      </trkpt>
      <trkpt lat="39.429911" lon="-0.338975">
        <ele>0.915</ele>
        <time>2019-06-15T08:13:30Z</time>
      </trkpt>
      <trkpt lat="39.429928" lon="-0.338894">
        <ele>0.814</ele>
        <time>2019-06-15T08:13:31Z</time>
      </trkpt>
      <trkpt lat="39.429945" lon="-0.338812">
        <ele>0.949</ele>
        <time>2019-06-15T08:13:32Z</time>
      </trkpt>
      <trkpt lat="39.429978" lon="-0.338755">
        <ele>1.037</ele>
        <time>2019-06-15T08:13:33Z</time>
      </trkpt>
      <trkpt lat="39.429996" lon="-0.338664">
        <ele>1.049</ele>
        <time>2019-06-15T08:13:34Z</time>
      </trkpt>
      <trkpt lat="39.430008" lon="-0.338578">
        <ele>1.013</ele>
        <time>2019-06-15T08:13:35Z</time>
      </trkpt>
      <trkpt lat="39.429998" lon="-0.338504">
        <ele>1.008</ele>
        <time>2019-06-15T08:13:36Z</time>
      </trkpt>
      <trkpt lat="39.429976" lon="-0.338414">
        <ele>1.176</ele>
        <time>2019-06-15T08:13:37Z</time>
      </trkpt>
      <trkpt lat="39.429948" lon="-0.338321">
        <ele>1.210</ele>
        <time>2019-06-15T08:13:38Z</time>
      </trkpt>
      <trkpt lat="39.429922" lon="-0.338246">
        <ele>1.439</ele>
        <time>2019-06-15T08:13:39Z</time>
      </trkpt>
      <trkpt lat="39.429874" lon="-0.338168">
        <ele>1.752</ele>
        <time>2019-06-15T08:13:40Z</time>
      </trkpt>
      <trkpt lat="39.429821" lon="-0.338119">
        <ele>2.194</ele>
        <time>2019-06-15T08:13:41Z</time>
      </trkpt>
      <trkpt lat="39.429737" lon="-0.338088">
        <ele>2.821</ele>
        <time>2019-06-15T08:13:42Z</time>
      </trkpt>
      <trkpt lat="39.429679" lon="-0.338076">
        <ele>2.970</ele>
        <time>2019-06-15T08:13:43Z</time>
      </trkpt>
      <trkpt lat="39.429624" lon="-0.338060">
        <ele>3.025</ele>
        <time>2019-06-15T08:13:44Z</time>
      </trkpt>
      <trkpt lat="39.429569" lon="-0.338050">
        <ele>3.022</ele>
        <time>2019-06-15T08:13:45Z</time>
      </trkpt>
      <trkpt lat="39.429503" lon="-0.338043">
        <ele>2.962</ele>
        <time>2019-06-15T08:13:46Z</time>
      </trkpt>
      <trkpt lat="39.429435" lon="-0.338050">
        <ele>2.908</ele>
        <time>2019-06-15T08:13:47Z</time>
      </trkpt>
      <trkpt lat="39.429376" lon="-0.338059">
        <ele>2.808</ele>
        <time>2019-06-15T08:13:48Z</time>
      </trkpt>
      <trkpt lat="39.429328" lon="-0.338079">
        <ele>2.665</ele>
        <time>2019-06-15T08:13:49Z</time>
      </trkpt>
      <trkpt lat="39.429276" lon="-0.338096">
        <ele>2.589</ele>
        <time>2019-06-15T08:13:50Z</time>
      </trkpt>
      <trkpt lat="39.429223" lon="-0.338119">
        <ele>2.448</ele>
        <time>2019-06-15T08:13:51Z</time>
      </trkpt>
      <trkpt lat="39.429182" lon="-0.338165">
        <ele>2.471</ele>
        <time>2019-06-15T08:13:52Z</time>
      </trkpt>
      <trkpt lat="39.429151" lon="-0.338212">
        <ele>2.563</ele>
        <time>2019-06-15T08:13:53Z</time>
      </trkpt>
      <trkpt lat="39.429125" lon="-0.338269">
        <ele>2.750</ele>
        <time>2019-06-15T08:13:54Z</time>
      </trkpt>
      <trkpt lat="39.429103" lon="-0.338328">
        <ele>2.899</ele>
        <time>2019-06-15T08:13:55Z</time>
      </trkpt>
      <trkpt lat="39.429101" lon="-0.338397">
        <ele>2.644</ele>
        <time>2019-06-15T08:13:56Z</time>
      </trkpt>
      <trkpt lat="39.429103" lon="-0.338456">
        <ele>2.413</ele>
        <time>2019-06-15T08:13:57Z</time>
      </trkpt>
      <trkpt lat="39.429109" lon="-0.338516">
        <ele>2.343</ele>
        <time>2019-06-15T08:13:58Z</time>
      </trkpt>
      <trkpt lat="39.429109" lon="-0.338580">
        <ele>2.107</ele>
        <time>2019-06-15T08:13:59Z</time>
      </trkpt>
      <trkpt lat="39.429102" lon="-0.338640">
        <ele>2.008</ele>
        <time>2019-06-15T08:14:00Z</time>
      </trkpt>
      <trkpt lat="39.429101" lon="-0.338709">
        <ele>2.124</ele>
        <time>2019-06-15T08:14:01Z</time>
      </trkpt>
      <trkpt lat="39.429103" lon="-0.338769">
        <ele>2.198</ele>
        <time>2019-06-15T08:14:02Z</time>
      </trkpt>
      <trkpt lat="39.429098" lon="-0.338877">
        <ele>2.287</ele>
        <time>2019-06-15T08:14:04Z</time>
      </trkpt>
      <trkpt lat="39.429088" lon="-0.338937">
        <ele>2.630</ele>
        <time>2019-06-15T08:14:05Z</time>
      </trkpt>
      <trkpt lat="39.429027" lon="-0.339012">
        <ele>3.232</ele>
        <time>2019-06-15T08:14:07Z</time>
      </trkpt>
      <trkpt lat="39.428948" lon="-0.339052">
        <ele>3.539</ele>
        <time>2019-06-15T08:14:09Z</time>
      </trkpt>
      <trkpt lat="39.428872" lon="-0.339080">
        <ele>3.788</ele>
        <time>2019-06-15T08:14:11Z</time>
      </trkpt>
      <trkpt lat="39.428784" lon="-0.339098">
        <ele>4.163</ele>
        <time>2019-06-15T08:14:13Z</time>
      </trkpt>
      <trkpt lat="39.428700" lon="-0.339099">
        <ele>4.451</ele>
        <time>2019-06-15T08:14:15Z</time>
      </trkpt>
      <trkpt lat="39.428606" lon="-0.339098">
        <ele>4.801</ele>
        <time>2019-06-15T08:14:17Z</time>
      </trkpt>
      <trkpt lat="39.428517" lon="-0.339101">
        <ele>4.811</ele>
        <time>2019-06-15T08:14:19Z</time>
      </trkpt>
      <trkpt lat="39.428428" lon="-0.339111">
        <ele>4.908</ele>
        <time>2019-06-15T08:14:21Z</time>
      </trkpt>
      <trkpt lat="39.428341" lon="-0.339128">
        <ele>5.088</ele>
        <time>2019-06-15T08:14:23Z</time>
      </trkpt>
      <trkpt lat="39.428288" lon="-0.339135">
        <ele>4.712</ele>
        <time>2019-06-15T08:14:24Z</time>
      </trkpt>
      <trkpt lat="39.428244" lon="-0.339145">
        <ele>4.431</ele>
        <time>2019-06-15T08:14:25Z</time>
      </trkpt>
      <trkpt lat="39.428196" lon="-0.339153">
        <ele>4.094</ele>
        <time>2019-06-15T08:14:26Z</time>
      </trkpt>
      <trkpt lat="39.428151" lon="-0.339172">
        <ele>3.796</ele>
        <time>2019-06-15T08:14:27Z</time>
      </trkpt>
      <trkpt lat="39.428109" lon="-0.339207">
        <ele>3.273</ele>
        <time>2019-06-15T08:14:28Z</time>
      </trkpt>
      <trkpt lat="39.428065" lon="-0.339232">
        <ele>2.812</ele>
        <time>2019-06-15T08:14:29Z</time>
      </trkpt>
      <trkpt lat="39.428021" lon="-0.339256">
        <ele>2.737</ele>
        <time>2019-06-15T08:14:30Z</time>
      </trkpt>
      <trkpt lat="39.427970" lon="-0.339284">
        <ele>2.651</ele>
        <time>2019-06-15T08:14:31Z</time>
      </trkpt>
      <trkpt lat="39.427926" lon="-0.339314">
        <ele>2.501</ele>
        <time>2019-06-15T08:14:32Z</time>
      </trkpt>
      <trkpt lat="39.427883" lon="-0.339338">
        <ele>2.411</ele>
        <time>2019-06-15T08:14:33Z</time>
      </trkpt>
      <trkpt lat="39.427838" lon="-0.339363">
        <ele>2.308</ele>
        <time>2019-06-15T08:14:34Z</time>
      </trkpt>
      <trkpt lat="39.427802" lon="-0.339399">
        <ele>2.288</ele>
        <time>2019-06-15T08:14:35Z</time>
      </trkpt>
      <trkpt lat="39.427725" lon="-0.339462">
        <ele>1.612</ele>
        <time>2019-06-15T08:14:37Z</time>
      </trkpt>
      <trkpt lat="39.427696" lon="-0.339516">
        <ele>1.251</ele>
        <time>2019-06-15T08:14:38Z</time>
      </trkpt>
      <trkpt lat="39.427654" lon="-0.339549">
        <ele>0.984</ele>
        <time>2019-06-15T08:14:39Z</time>
      </trkpt>
      <trkpt lat="39.427614" lon="-0.339582">
        <ele>0.666</ele>
        <time>2019-06-15T08:14:40Z</time>
      </trkpt>
      <trkpt lat="39.427560" lon="-0.339592">
        <ele>0.393</ele>
        <time>2019-06-15T08:14:41Z</time>
      </trkpt>
      <trkpt lat="39.427513" lon="-0.339611">
        <ele>0.142</ele>
        <time>2019-06-15T08:14:42Z</time>
      </trkpt>
      <trkpt lat="39.427468" lon="-0.339635">
        <ele>0.097</ele>
        <time>2019-06-15T08:14:43Z</time>
      </trkpt>
      <trkpt lat="39.427426" lon="-0.339658">
        <ele>0.098</ele>
        <time>2019-06-15T08:14:44Z</time>
      </trkpt>
      <trkpt lat="39.427377" lon="-0.339679">
        <ele>0.015</ele>
        <time>2019-06-15T08:14:45Z</time>
      </trkpt>
      <trkpt lat="39.427338" lon="-0.339717">
        <ele>0.026</ele>
        <time>2019-06-15T08:14:46Z</time>
      </trkpt>
      <trkpt lat="39.427288" lon="-0.339741">
        <ele>0.008</ele>
        <time>2019-06-15T08:14:47Z</time>
      </trkpt>
      <trkpt lat="39.427238" lon="-0.339765">
        <ele>0.082</ele>
        <time>2019-06-15T08:14:48Z</time>
      </trkpt>
      <trkpt lat="39.427194" lon="-0.339793">
        <ele>0.016</ele>
        <time>2019-06-15T08:14:49Z</time>
      </trkpt>
      <trkpt lat="39.427143" lon="-0.339819">
        <ele>0.095</ele>
        <time>2019-06-15T08:14:50Z</time>
      </trkpt>
      <trkpt lat="39.427093" lon="-0.339844">
        <ele>0.078</ele>
        <time>2019-06-15T08:14:51Z</time>
      </trkpt>
      <trkpt lat="39.427050" lon="-0.339872">
        <ele>0.010</ele>
        <time>2019-06-15T08:14:52Z</time>
      </trkpt>
      <trkpt lat="39.427007" lon="-0.339900">
        <ele>0.037</ele>
        <time>2019-06-15T08:14:53Z</time>
      </trkpt>
      <trkpt lat="39.426963" lon="-0.339923">
        <ele>0.076</ele>
        <time>2019-06-15T08:14:54Z</time>
      </trkpt>
      <trkpt lat="39.426913" lon="-0.339949">
        <ele>0.031</ele>
        <time>2019-06-15T08:14:55Z</time>
      </trkpt>
      <trkpt lat="39.426861" lon="-0.339981">
        <ele>0.094</ele>
        <time>2019-06-15T08:14:56Z</time>
      </trkpt>
      <trkpt lat="39.426805" lon="-0.340003">
        <ele>0.057</ele>
        <time>2019-06-15T08:14:57Z</time>
      </trkpt>
      <trkpt lat="39.426755" lon="-0.340034">
        <ele>0.022</ele>
        <time>2019-06-15T08:14:58Z</time>
      </trkpt>
      <trkpt lat="39.426705" lon="-0.340059">
        <ele>0.008</ele>
        <time>2019-06-15T08:14:59Z</time>
      </trkpt>
      <trkpt lat="39.426661" lon="-0.340085">
        <ele>0.142</ele>
        <time>2019-06-15T08:15:00Z</time>
      </trkpt>
      <trkpt lat="39.426613" lon="-0.340111">
        <ele>0.786</ele>
        <time>2019-06-15T08:15:01Z</time>
      </trkpt>
      <trkpt lat="39.426560" lon="-0.340138">
        <ele>1.375</ele>
        <time>2019-06-15T08:15:02Z</time>
      </trkpt>
      <trkpt lat="39.426509" lon="-0.340173">
        <ele>1.858</ele>
        <time>2019-06-15T08:15:03Z</time>
      </trkpt>
      <trkpt lat="39.426455" lon="-0.340203">
        <ele>2.130</ele>
        <time>2019-06-15T08:15:04Z</time>
      </trkpt>
      <trkpt lat="39.426403" lon="-0.340241">
        <ele>2.337</ele>
        <time>2019-06-15T08:15:05Z</time>
      </trkpt>
      <trkpt lat="39.426351" lon="-0.340272">
        <ele>2.156</ele>
        <time>2019-06-15T08:15:06Z</time>
      </trkpt>
      <trkpt lat="39.426301" lon="-0.340299">
        <ele>1.971</ele>
        <time>2019-06-15T08:15:07Z</time>
      </trkpt>
      <trkpt lat="39.426247" lon="-0.340325">
        <ele>1.945</ele>
        <time>2019-06-15T08:15:08Z</time>
      </trkpt>
      <trkpt lat="39.426195" lon="-0.340372">
        <ele>1.947</ele>
        <time>2019-06-15T08:15:09Z</time>
      </trkpt>
      <trkpt lat="39.426139" lon="-0.340402">
        <ele>2.011</ele>
        <time>2019-06-15T08:15:10Z</time>
      </trkpt>
      <trkpt lat="39.426082" lon="-0.340437">
        <ele>2.208</ele>
        <time>2019-06-15T08:15:11Z</time>
      </trkpt>
      <trkpt lat="39.426019" lon="-0.340440">
        <ele>2.747</ele>
        <time>2019-06-15T08:15:12Z</time>
      </trkpt>
      <trkpt lat="39.425950" lon="-0.340422">
        <ele>3.221</ele>
        <time>2019-06-15T08:15:13Z</time>
      </trkpt>
      <trkpt lat="39.425900" lon="-0.340365">
        <ele>3.540</ele>
        <time>2019-06-15T08:15:14Z</time>
      </trkpt>
      <trkpt lat="39.425857" lon="-0.340283">
        <ele>3.813</ele>
        <time>2019-06-15T08:15:15Z</time>
      </trkpt>
      <trkpt lat="39.425819" lon="-0.340192">
        <ele>4.375</ele>
        <time>2019-06-15T08:15:16Z</time>
      </trkpt>
      <trkpt lat="39.425798" lon="-0.340104">
        <ele>4.772</ele>
        <time>2019-06-15T08:15:17Z</time>
      </trkpt>
      <trkpt lat="39.425784" lon="-0.340029">
        <ele>5.121</ele>
        <time>2019-06-15T08:15:18Z</time>
      </trkpt>
      <trkpt lat="39.425775" lon="-0.339959">
        <ele>5.216</ele>
        <time>2019-06-15T08:15:19Z</time>
      </trkpt>
      <trkpt lat="39.425756" lon="-0.339889">
        <ele>5.334</ele>
        <time>2019-06-15T08:15:20Z</time>
      </trkpt>
      <trkpt lat="39.425733" lon="-0.339811">
        <ele>5.455</ele>
        <time>2019-06-15T08:15:21Z</time>
      </trkpt>
      <trkpt lat="39.425722" lon="-0.339739">
        <ele>5.410</ele>
        <time>2019-06-15T08:15:22Z</time>
      </trkpt>
      <trkpt lat="39.425706" lon="-0.339656">
        <ele>5.208</ele>
        <time>2019-06-15T08:15:23Z</time>
      </trkpt>
      <trkpt lat="39.425703" lon="-0.339575">
        <ele>4.986</ele>
        <time>2019-06-15T08:15:24Z</time>
      </trkpt>
      <trkpt lat="39.425706" lon="-0.339493">
        <ele>4.690</ele>
        <time>2019-06-15T08:15:25Z</time>
      </trkpt>
      <trkpt lat="39.425706" lon="-0.339413">
        <ele>4.599</ele>
        <time>2019-06-15T08:15:26Z</time>
      </trkpt>
      <trkpt lat="39.425709" lon="-0.339320">
        <ele>4.662</ele>
        <time>2019-06-15T08:15:27Z</time>
      </trkpt>
      <trkpt lat="39.425702" lon="-0.339222">
        <ele>4.964</ele>
        <time>2019-06-15T08:15:28Z</time>
      </trkpt>
      <trkpt lat="39.425687" lon="-0.339124">
        <ele>5.181</ele>
        <time>2019-06-15T08:15:29Z</time>
      </trkpt>
      <trkpt lat="39.425675" lon="-0.339035">
        <ele>5.420</ele>
        <time>2019-06-15T08:15:30Z</time>
      </trkpt>
      <trkpt lat="39.425658" lon="-0.338946">
        <ele>5.825</ele>
        <time>2019-06-15T08:15:31Z</time>
      </trkpt>
      <trkpt lat="39.425645" lon="-0.338855">
        <ele>6.068</ele>
        <time>2019-06-15T08:15:32Z</time>
      </trkpt>
      <trkpt lat="39.425616" lon="-0.338763">
        <ele>6.342</ele>
        <time>2019-06-15T08:15:33Z</time>
      </trkpt>
      <trkpt lat="39.425590" lon="-0.338676">
        <ele>6.626</ele>
        <time>2019-06-15T08:15:34Z</time>
      </trkpt>
      <trkpt lat="39.425505" lon="-0.338602">
        <ele>6.808</ele>
        <time>2019-06-15T08:15:35Z</time>
      </trkpt>
      <trkpt lat="39.425454" lon="-0.338532">
        <ele>6.269</ele>
        <time>2019-06-15T08:15:36Z</time>
      </trkpt>
      <trkpt lat="39.425418" lon="-0.338445">
        <ele>5.663</ele>
        <time>2019-06-15T08:15:37Z</time>
      </trkpt>
      <trkpt lat="39.425380" lon="-0.338346">
        <ele>5.122</ele>
        <time>2019-06-15T08:15:38Z</time>
      </trkpt>
      <trkpt lat="39.425357" lon="-0.338272">
        <ele>4.775</ele>
        <time>2019-06-15T08:15:39Z</time>
      </trkpt>
      <trkpt lat="39.425325" lon="-0.338182">
        <ele>4.417</ele>
        <time>2019-06-15T08:15:40Z</time>
      </trkpt>
      <trkpt lat="39.425293" lon="-0.338098">
        <ele>4.184</ele>
        <time>2019-06-15T08:15:41Z</time>
      </trkpt>
      <trkpt lat="39.425272" lon="-0.338007">
        <ele>3.823</ele>
        <time>2019-06-15T08:15:42Z</time>
      </trkpt>
      <trkpt lat="39.425243" lon="-0.337916">
        <ele>3.488</ele>
        <time>2019-06-15T08:15:43Z</time>
      </trkpt>
      <trkpt lat="39.425212" lon="-0.337821">
        <ele>3.182</ele>
        <time>2019-06-15T08:15:44Z</time>
      </trkpt>
      <trkpt lat="39.425184" lon="-0.337729">
        <ele>2.943</ele>
        <time>2019-06-15T08:15:45Z</time>
      </trkpt>
      <trkpt lat="39.425153" lon="-0.337643">
        <ele>2.717</ele>
        <time>2019-06-15T08:15:46Z</time>
      </trkpt>
      <trkpt lat="39.425122" lon="-0.337552">
        <ele>2.608</ele>
        <time>2019-06-15T08:15:47Z</time>
      </trkpt>
      <trkpt lat="39.425093" lon="-0.337466">
        <ele>2.651</ele>
        <time>2019-06-15T08:15:48Z</time>
      </trkpt>
      <trkpt lat="39.425052" lon="-0.337383">
        <ele>2.745</ele>
        <time>2019-06-15T08:15:49Z</time>
      </trkpt>
      <trkpt lat="39.425021" lon="-0.337297">
        <ele>2.864</ele>
        <time>2019-06-15T08:15:50Z</time>
      </trkpt>
      <trkpt lat="39.424987" lon="-0.337212">
        <ele>2.977</ele>
        <time>2019-06-15T08:15:51Z</time>
      </trkpt>
      <trkpt lat="39.424954" lon="-0.337125">
        <ele>2.559</ele>
        <time>2019-06-15T08:15:52Z</time>
      </trkpt>
      <trkpt lat="39.424921" lon="-0.337047">
        <ele>2.186</ele>
        <time>2019-06-15T08:15:53Z</time>
      </trkpt>
      <trkpt lat="39.424895" lon="-0.336964">
        <ele>1.745</ele>
        <time>2019-06-15T08:15:54Z</time>
      </trkpt>
      <trkpt lat="39.424869" lon="-0.336884">
        <ele>1.370</ele>
        <time>2019-06-15T08:15:55Z</time>
      </trkpt>
      <trkpt lat="39.424834" lon="-0.336804">
        <ele>1.025</ele>
        <time>2019-06-15T08:15:56Z</time>
      </trkpt>
      <trkpt lat="39.424805" lon="-0.336722">
        <ele>0.826</ele>
        <time>2019-06-15T08:15:57Z</time>
      </trkpt>
      <trkpt lat="39.424779" lon="-0.336636">
        <ele>0.808</ele>
        <time>2019-06-15T08:15:58Z</time>
      </trkpt>
      <trkpt lat="39.424745" lon="-0.336555">
        <ele>0.908</ele>
        <time>2019-06-15T08:15:59Z</time>
      </trkpt>
      <trkpt lat="39.424716" lon="-0.336467">
        <ele>1.035</ele>
        <time>2019-06-15T08:16:00Z</time>
      </trkpt>
      <trkpt lat="39.424683" lon="-0.336384">
        <ele>0.969</ele>
        <time>2019-06-15T08:16:01Z</time>
      </trkpt>
      <trkpt lat="39.424643" lon="-0.336299">
        <ele>1.038</ele>
        <time>2019-06-15T08:16:02Z</time>
      </trkpt>
      <trkpt lat="39.424617" lon="-0.336210">
        <ele>1.351</ele>
        <time>2019-06-15T08:16:03Z</time>
      </trkpt>
      <trkpt lat="39.424586" lon="-0.336128">
        <ele>1.433</ele>
        <time>2019-06-15T08:16:04Z</time>
      </trkpt>
      <trkpt lat="39.424569" lon="-0.336059">
        <ele>1.440</ele>
        <time>2019-06-15T08:16:05Z</time>
      </trkpt>
      <trkpt lat="39.424535" lon="-0.335975">
        <ele>1.329</ele>
        <time>2019-06-15T08:16:06Z</time>
      </trkpt>
      <trkpt lat="39.424506" lon="-0.335891">
        <ele>1.514</ele>
        <time>2019-06-15T08:16:07Z</time>
      </trkpt>
      <trkpt lat="39.424487" lon="-0.335811">
        <ele>1.836</ele>
        <time>2019-06-15T08:16:08Z</time>
      </trkpt>
      <trkpt lat="39.424466" lon="-0.335735">
        <ele>2.217</ele>
        <time>2019-06-15T08:16:09Z</time>
      </trkpt>
      <trkpt lat="39.424443" lon="-0.335656">
        <ele>2.618</ele>
        <time>2019-06-15T08:16:10Z</time>
      </trkpt>
      <trkpt lat="39.424418" lon="-0.335587">
        <ele>2.908</ele>
        <time>2019-06-15T08:16:11Z</time>
      </trkpt>
      <trkpt lat="39.424398" lon="-0.335525">
        <ele>2.746</ele>
        <time>2019-06-15T08:16:12Z</time>
      </trkpt>
      <trkpt lat="39.424381" lon="-0.335463">
        <ele>2.220</ele>
        <time>2019-06-15T08:16:14Z</time>
      </trkpt>
      <trkpt lat="39.424321" lon="-0.335437">
        <ele>2.199</ele>
        <time>2019-06-15T08:16:17Z</time>
      </trkpt>
      <trkpt lat="39.424266" lon="-0.335454">
        <ele>2.462</ele>
        <time>2019-06-15T08:16:19Z</time>
      </trkpt>
      <trkpt lat="39.424210" lon="-0.335428">
        <ele>2.494</ele>
        <time>2019-06-15T08:16:20Z</time>
      </trkpt>
      <trkpt lat="39.424174" lon="-0.335344">
        <ele>2.251</ele>
        <time>2019-06-15T08:16:22Z</time>
      </trkpt>
      <trkpt lat="39.424153" lon="-0.335281">
        <ele>2.080</ele>
        <time>2019-06-15T08:16:24Z</time>
      </trkpt>
      <trkpt lat="39.424133" lon="-0.335168">
        <ele>1.395</ele>
        <time>2019-06-15T08:16:26Z</time>
      </trkpt>
      <trkpt lat="39.424096" lon="-0.335081">
        <ele>0.817</ele>
        <time>2019-06-15T08:16:27Z</time>
      </trkpt>
      <trkpt lat="39.424067" lon="-0.335024">
        <ele>0.587</ele>
        <time>2019-06-15T08:16:28Z</time>
      </trkpt>
      <trkpt lat="39.424035" lon="-0.334971">
        <ele>0.415</ele>
        <time>2019-06-15T08:16:29Z</time>
      </trkpt>
      <trkpt lat="39.423997" lon="-0.334924">
        <ele>0.408</ele>
        <time>2019-06-15T08:16:30Z</time>
      </trkpt>
      <trkpt lat="39.423942" lon="-0.334896">
        <ele>0.514</ele>
        <time>2019-06-15T08:16:31Z</time>
      </trkpt>
      <trkpt lat="39.423884" lon="-0.334880">
        <ele>0.618</ele>
        <time>2019-06-15T08:16:32Z</time>
      </trkpt>
      <trkpt lat="39.423832" lon="-0.334880">
        <ele>1.197</ele>
        <time>2019-06-15T08:16:33Z</time>
      </trkpt>
      <trkpt lat="39.423780" lon="-0.334872">
        <ele>1.520</ele>
        <time>2019-06-15T08:16:34Z</time>
      </trkpt>
      <trkpt lat="39.423724" lon="-0.334859">
        <ele>2.032</ele>
        <time>2019-06-15T08:16:35Z</time>
      </trkpt>
      <trkpt lat="39.423672" lon="-0.334844">
        <ele>2.439</ele>
        <time>2019-06-15T08:16:36Z</time>
      </trkpt>
      <trkpt lat="39.423613" lon="-0.334814">
        <ele>3.058</ele>
        <time>2019-06-15T08:16:37Z</time>
      </trkpt>
      <trkpt lat="39.423559" lon="-0.334796">
        <ele>3.063</ele>
        <time>2019-06-15T08:16:38Z</time>
      </trkpt>
      <trkpt lat="39.423508" lon="-0.334777">
        <ele>3.017</ele>
        <time>2019-06-15T08:16:39Z</time>
      </trkpt>
      <trkpt lat="39.423457" lon="-0.334759">
        <ele>3.087</ele>
        <time>2019-06-15T08:16:40Z</time>
      </trkpt>
      <trkpt lat="39.423400" lon="-0.334746">
        <ele>3.015</ele>
        <time>2019-06-15T08:16:41Z</time>
      </trkpt>
      <trkpt lat="39.423342" lon="-0.334725">
        <ele>3.008</ele>
        <time>2019-06-15T08:16:42Z</time>
      </trkpt>
      <trkpt lat="39.423280" lon="-0.334698">
        <ele>2.854</ele>
        <time>2019-06-15T08:16:43Z</time>
      </trkpt>
      <trkpt lat="39.423221" lon="-0.334675">
        <ele>2.688</ele>
        <time>2019-06-15T08:16:44Z</time>
      </trkpt>
      <trkpt lat="39.423161" lon="-0.334673">
        <ele>2.447</ele>
        <time>2019-06-15T08:16:45Z</time>
      </trkpt>
      <trkpt lat="39.423097" lon="-0.334657">
        <ele>2.180</ele>
        <time>2019-06-15T08:16:46Z</time>
      </trkpt>
      <trkpt lat="39.423046" lon="-0.334644">
        <ele>2.082</ele>
        <time>2019-06-15T08:16:47Z</time>
      </trkpt>
      <trkpt lat="39.422984" lon="-0.334617">
        <ele>2.249</ele>
        <time>2019-06-15T08:16:48Z</time>
      </trkpt>
      <trkpt lat="39.422925" lon="-0.334604">
        <ele>2.428</ele>
        <time>2019-06-15T08:16:49Z</time>
      </trkpt>
      <trkpt lat="39.422868" lon="-0.334581">
        <ele>2.793</ele>
        <time>2019-06-15T08:16:50Z</time>
      </trkpt>
      <trkpt lat="39.422808" lon="-0.334566">
        <ele>3.025</ele>
        <time>2019-06-15T08:16:51Z</time>
      </trkpt>
      <trkpt lat="39.422749" lon="-0.334550">
        <ele>3.326</ele>
        <time>2019-06-15T08:16:52Z</time>
      </trkpt>
      <trkpt lat="39.422693" lon="-0.334534">
        <ele>3.708</ele>
        <time>2019-06-15T08:16:53Z</time>
      </trkpt>
      <trkpt lat="39.422648" lon="-0.334511">
        <ele>4.008</ele>
        <time>2019-06-15T08:16:54Z</time>
      </trkpt>
      <trkpt lat="39.422598" lon="-0.334487">
        <ele>4.345</ele>
        <time>2019-06-15T08:16:55Z</time>
      </trkpt>
      <trkpt lat="39.422544" lon="-0.334468">
        <ele>4.719</ele>
        <time>2019-06-15T08:16:56Z</time>
      </trkpt>
      <trkpt lat="39.422481" lon="-0.334444">
        <ele>4.958</ele>
        <time>2019-06-15T08:16:57Z</time>
      </trkpt>
      <trkpt lat="39.422390" lon="-0.334442">
        <ele>4.611</ele>
        <time>2019-06-15T08:16:59Z</time>
      </trkpt>
      <trkpt lat="39.422297" lon="-0.334455">
        <ele>4.223</ele>
        <time>2019-06-15T08:17:00Z</time>
      </trkpt>
      <trkpt lat="39.422234" lon="-0.334443">
        <ele>4.040</ele>
        <time>2019-06-15T08:17:01Z</time>
      </trkpt>
      <trkpt lat="39.422171" lon="-0.334429">
        <ele>3.619</ele>
        <time>2019-06-15T08:17:02Z</time>
      </trkpt>
      <trkpt lat="39.422102" lon="-0.334389">
        <ele>2.914</ele>
        <time>2019-06-15T08:17:03Z</time>
      </trkpt>
      <trkpt lat="39.422048" lon="-0.334379">
        <ele>2.655</ele>
        <time>2019-06-15T08:17:04Z</time>
      </trkpt>
      <trkpt lat="39.421974" lon="-0.334356">
        <ele>2.107</ele>
        <time>2019-06-15T08:17:05Z</time>
      </trkpt>
      <trkpt lat="39.421919" lon="-0.334327">
        <ele>1.717</ele>
        <time>2019-06-15T08:17:06Z</time>
      </trkpt>
      <trkpt lat="39.421862" lon="-0.334319">
        <ele>1.508</ele>
        <time>2019-06-15T08:17:07Z</time>
      </trkpt>
      <trkpt lat="39.421802" lon="-0.334302">
        <ele>1.278</ele>
        <time>2019-06-15T08:17:08Z</time>
      </trkpt>
      <trkpt lat="39.421746" lon="-0.334287">
        <ele>1.082</ele>
        <time>2019-06-15T08:17:09Z</time>
      </trkpt>
      <trkpt lat="39.421684" lon="-0.334268">
        <ele>0.811</ele>
        <time>2019-06-15T08:17:10Z</time>
      </trkpt>
      <trkpt lat="39.421616" lon="-0.334248">
        <ele>0.564</ele>
        <time>2019-06-15T08:17:11Z</time>
      </trkpt>
      <trkpt lat="39.421562" lon="-0.334234">
        <ele>0.436</ele>
        <time>2019-06-15T08:17:12Z</time>
      </trkpt>
      <trkpt lat="39.421505" lon="-0.334222">
        <ele>0.353</ele>
        <time>2019-06-15T08:17:13Z</time>
      </trkpt>
      <trkpt lat="39.421446" lon="-0.334210">
        <ele>0.222</ele>
        <time>2019-06-15T08:17:14Z</time>
      </trkpt>
      <trkpt lat="39.421395" lon="-0.334203">
        <ele>0.187</ele>
        <time>2019-06-15T08:17:15Z</time>
      </trkpt>
      <trkpt lat="39.421329" lon="-0.334185">
        <ele>0.117</ele>
        <time>2019-06-15T08:17:16Z</time>
      </trkpt>
      <trkpt lat="39.421280" lon="-0.334159">
        <ele>0.087</ele>
        <time>2019-06-15T08:17:17Z</time>
      </trkpt>
      <trkpt lat="39.421228" lon="-0.334150">
        <ele>0.015</ele>
        <time>2019-06-15T08:17:18Z</time>
      </trkpt>
      <trkpt lat="39.421169" lon="-0.334141">
        <ele>0.008</ele>
        <time>2019-06-15T08:17:19Z</time>
      </trkpt>
      <trkpt lat="39.421115" lon="-0.334132">
        <ele>0.094</ele>
        <time>2019-06-15T08:17:20Z</time>
      </trkpt>
      <trkpt lat="39.421059" lon="-0.334123">
        <ele>0.058</ele>
        <time>2019-06-15T08:17:21Z</time>
      </trkpt>
      <trkpt lat="39.420998" lon="-0.334113">
        <ele>0.037</ele>
        <time>2019-06-15T08:17:22Z</time>
      </trkpt>
      <trkpt lat="39.420953" lon="-0.334104">
        <ele>0.080</ele>
        <time>2019-06-15T08:17:23Z</time>
      </trkpt>
      <trkpt lat="39.420896" lon="-0.334077">
        <ele>0.042</ele>
        <time>2019-06-15T08:17:24Z</time>
      </trkpt>
      <trkpt lat="39.420836" lon="-0.334067">
        <ele>0.049</ele>
        <time>2019-06-15T08:17:25Z</time>
      </trkpt>
      <trkpt lat="39.420774" lon="-0.334055">
        <ele>0.088</ele>
        <time>2019-06-15T08:17:26Z</time>
      </trkpt>
      <trkpt lat="39.420710" lon="-0.334039">
        <ele>0.073</ele>
        <time>2019-06-15T08:17:27Z</time>
      </trkpt>
      <trkpt lat="39.420654" lon="-0.334067">
        <ele>0.023</ele>
        <time>2019-06-15T08:17:28Z</time>
      </trkpt>
      <trkpt lat="39.420603" lon="-0.334072">
        <ele>0.083</ele>
        <time>2019-06-15T08:17:29Z</time>
      </trkpt>
      <trkpt lat="39.420508" lon="-0.334104">
        <ele>0.011</ele>
        <time>2019-06-15T08:17:31Z</time>
      </trkpt>
      <trkpt lat="39.420458" lon="-0.334135">
        <ele>0.008</ele>
        <time>2019-06-15T08:17:32Z</time>
      </trkpt>
      <trkpt lat="39.420408" lon="-0.334161">
        <ele>0.015</ele>
        <time>2019-06-15T08:17:33Z</time>
      </trkpt>
      <trkpt lat="39.420356" lon="-0.334189">
        <ele>0.399</ele>
        <time>2019-06-15T08:17:34Z</time>
      </trkpt>
      <trkpt lat="39.420311" lon="-0.334221">
        <ele>0.858</ele>
        <time>2019-06-15T08:17:35Z</time>
      </trkpt>
      <trkpt lat="39.420265" lon="-0.334257">
        <ele>1.461</ele>
        <time>2019-06-15T08:17:36Z</time>
      </trkpt>
      <trkpt lat="39.420214" lon="-0.334290">
        <ele>2.343</ele>
        <time>2019-06-15T08:17:37Z</time>
      </trkpt>
      <trkpt lat="39.420160" lon="-0.334340">
        <ele>3.060</ele>
        <time>2019-06-15T08:17:38Z</time>
      </trkpt>
      <trkpt lat="39.420106" lon="-0.334366">
        <ele>3.359</ele>
        <time>2019-06-15T08:17:39Z</time>
      </trkpt>
      <trkpt lat="39.420038" lon="-0.334356">
        <ele>3.514</ele>
        <time>2019-06-15T08:17:40Z</time>
      </trkpt>
      <trkpt lat="39.419984" lon="-0.334362">
        <ele>3.572</ele>
        <time>2019-06-15T08:17:41Z</time>
      </trkpt>
      <trkpt lat="39.419925" lon="-0.334362">
        <ele>3.113</ele>
        <time>2019-06-15T08:17:42Z</time>
      </trkpt>
      <trkpt lat="39.419863" lon="-0.334362">
        <ele>2.814</ele>
        <time>2019-06-15T08:17:43Z</time>
      </trkpt>
      <trkpt lat="39.419803" lon="-0.334362">
        <ele>2.408</ele>
        <time>2019-06-15T08:17:44Z</time>
      </trkpt>
      <trkpt lat="39.419754" lon="-0.334361">
        <ele>2.110</ele>
        <time>2019-06-15T08:17:45Z</time>
      </trkpt>
      <trkpt lat="39.419697" lon="-0.334365">
        <ele>1.834</ele>
        <time>2019-06-15T08:17:46Z</time>
      </trkpt>
      <trkpt lat="39.419638" lon="-0.334367">
        <ele>1.813</ele>
        <time>2019-06-15T08:17:47Z</time>
      </trkpt>
      <trkpt lat="39.419594" lon="-0.334407">
        <ele>1.676</ele>
        <time>2019-06-15T08:17:48Z</time>
      </trkpt>
      <trkpt lat="39.419537" lon="-0.334394">
        <ele>1.758</ele>
        <time>2019-06-15T08:17:49Z</time>
      </trkpt>
      <trkpt lat="39.419479" lon="-0.334393">
        <ele>1.845</ele>
        <time>2019-06-15T08:17:50Z</time>
      </trkpt>
      <trkpt lat="39.419422" lon="-0.334394">
        <ele>2.194</ele>
        <time>2019-06-15T08:17:51Z</time>
      </trkpt>
      <trkpt lat="39.419352" lon="-0.334384">
        <ele>2.939</ele>
        <time>2019-06-15T08:17:52Z</time>
      </trkpt>
      <trkpt lat="39.419299" lon="-0.334375">
        <ele>3.529</ele>
        <time>2019-06-15T08:17:53Z</time>
      </trkpt>
      <trkpt lat="39.419241" lon="-0.334361">
        <ele>4.100</ele>
        <time>2019-06-15T08:17:54Z</time>
      </trkpt>
      <trkpt lat="39.419183" lon="-0.334358">
        <ele>4.820</ele>
        <time>2019-06-15T08:17:55Z</time>
      </trkpt>
      <trkpt lat="39.419125" lon="-0.334359">
        <ele>4.908</ele>
        <time>2019-06-15T08:17:56Z</time>
      </trkpt>
      <trkpt lat="39.419067" lon="-0.334351">
        <ele>4.975</ele>
        <time>2019-06-15T08:17:57Z</time>
      </trkpt>
      <trkpt lat="39.419011" lon="-0.334346">
        <ele>4.899</ele>
        <time>2019-06-15T08:17:58Z</time>
      </trkpt>
      <trkpt lat="39.418953" lon="-0.334347">
        <ele>4.898</ele>
        <time>2019-06-15T08:17:59Z</time>
      </trkpt>
      <trkpt lat="39.418894" lon="-0.334366">
        <ele>4.651</ele>
        <time>2019-06-15T08:18:00Z</time>
      </trkpt>
      <trkpt lat="39.418835" lon="-0.334372">
        <ele>4.113</ele>
        <time>2019-06-15T08:18:01Z</time>
      </trkpt>
      <trkpt lat="39.418784" lon="-0.334387">
        <ele>3.630</ele>
        <time>2019-06-15T08:18:02Z</time>
      </trkpt>
      <trkpt lat="39.418735" lon="-0.334410">
        <ele>3.179</ele>
        <time>2019-06-15T08:18:03Z</time>
      </trkpt>
      <trkpt lat="39.418679" lon="-0.334465">
        <ele>2.574</ele>
        <time>2019-06-15T08:18:04Z</time>
      </trkpt>
      <trkpt lat="39.418630" lon="-0.334500">
        <ele>2.156</ele>
        <time>2019-06-15T08:18:05Z</time>
      </trkpt>
      <trkpt lat="39.418539" lon="-0.334536">
        <ele>2.259</ele>
        <time>2019-06-15T08:18:07Z</time>
      </trkpt>
      <trkpt lat="39.418475" lon="-0.334550">
        <ele>2.314</ele>
        <time>2019-06-15T08:18:08Z</time>
      </trkpt>
      <trkpt lat="39.418417" lon="-0.334551">
        <ele>2.408</ele>
        <time>2019-06-15T08:18:09Z</time>
      </trkpt>
      <trkpt lat="39.418360" lon="-0.334555">
        <ele>2.548</ele>
        <time>2019-06-15T08:18:10Z</time>
      </trkpt>
      <trkpt lat="39.418305" lon="-0.334559">
        <ele>2.472</ele>
        <time>2019-06-15T08:18:11Z</time>
      </trkpt>
      <trkpt lat="39.418247" lon="-0.334551">
        <ele>2.171</ele>
        <time>2019-06-15T08:18:12Z</time>
      </trkpt>
      <trkpt lat="39.418197" lon="-0.334550">
        <ele>1.854</ele>
        <time>2019-06-15T08:18:13Z</time>
      </trkpt>
      <trkpt lat="39.418141" lon="-0.334556">
        <ele>1.536</ele>
        <time>2019-06-15T08:18:14Z</time>
      </trkpt>
      <trkpt lat="39.418087" lon="-0.334551">
        <ele>1.263</ele>
        <time>2019-06-15T08:18:15Z</time>
      </trkpt>
      <trkpt lat="39.418032" lon="-0.334569">
        <ele>0.632</ele>
        <time>2019-06-15T08:18:16Z</time>
      </trkpt>
      <trkpt lat="39.417977" lon="-0.334621">
        <ele>-0.387</ele>
        <time>2019-06-15T08:18:17Z</time>
      </trkpt>
      <trkpt lat="39.417926" lon="-0.334650">
        <ele>-1.263</ele>
        <time>2019-06-15T08:18:18Z</time>
      </trkpt>
      <trkpt lat="39.417880" lon="-0.334682">
        <ele>-2.144</ele>
        <time>2019-06-15T08:18:19Z</time>
      </trkpt>
      <trkpt lat="39.417826" lon="-0.334699">
        <ele>-3.118</ele>
        <time>2019-06-15T08:18:20Z</time>
      </trkpt>
      <trkpt lat="39.417776" lon="-0.334695">
        <ele>-3.908</ele>
        <time>2019-06-15T08:18:21Z</time>
      </trkpt>
      <trkpt lat="39.417725" lon="-0.334699">
        <ele>-4.359</ele>
        <time>2019-06-15T08:18:22Z</time>
      </trkpt>
      <trkpt lat="39.417673" lon="-0.334684">
        <ele>-4.793</ele>
        <time>2019-06-15T08:18:23Z</time>
      </trkpt>
      <trkpt lat="39.417624" lon="-0.334650">
        <ele>-5.092</ele>
        <time>2019-06-15T08:18:24Z</time>
      </trkpt>
      <trkpt lat="39.417538" lon="-0.334623">
        <ele>-5.765</ele>
        <time>2019-06-15T08:18:26Z</time>
      </trkpt>
      <trkpt lat="39.417490" lon="-0.334607">
        <ele>-6.087</ele>
        <time>2019-06-15T08:18:27Z</time>
      </trkpt>
      <trkpt lat="39.417442" lon="-0.334603">
        <ele>-6.014</ele>
        <time>2019-06-15T08:18:28Z</time>
      </trkpt>
      <trkpt lat="39.417391" lon="-0.334586">
        <ele>-6.013</ele>
        <time>2019-06-15T08:18:29Z</time>
      </trkpt>
      <trkpt lat="39.417352" lon="-0.334549">
        <ele>-6.118</ele>
        <time>2019-06-15T08:18:30Z</time>
      </trkpt>
      <trkpt lat="39.417339" lon="-0.334479">
        <ele>-6.494</ele>
        <time>2019-06-15T08:18:31Z</time>
      </trkpt>
      <trkpt lat="39.417295" lon="-0.334426">
        <ele>-6.757</ele>
        <time>2019-06-15T08:18:32Z</time>
      </trkpt>
      <trkpt lat="39.417268" lon="-0.334374">
        <ele>-6.622</ele>
        <time>2019-06-15T08:18:33Z</time>
      </trkpt>
      <trkpt lat="39.417189" lon="-0.334329">
        <ele>-6.008</ele>
        <time>2019-06-15T08:18:34Z</time>
      </trkpt>
      <trkpt lat="39.417116" lon="-0.334296">
        <ele>-4.862</ele>
        <time>2019-06-15T08:18:35Z</time>
      </trkpt>
      <trkpt lat="39.417010" lon="-0.334278">
        <ele>-3.056</ele>
        <time>2019-06-15T08:18:37Z</time>
      </trkpt>
      <trkpt lat="39.416959" lon="-0.334238">
        <ele>-2.225</ele>
        <time>2019-06-15T08:18:38Z</time>
      </trkpt>
      <trkpt lat="39.416902" lon="-0.334213">
        <ele>-1.868</ele>
        <time>2019-06-15T08:18:39Z</time>
      </trkpt>
      <trkpt lat="39.416843" lon="-0.334198">
        <ele>-1.660</ele>
        <time>2019-06-15T08:18:40Z</time>
      </trkpt>
      <trkpt lat="39.416794" lon="-0.334197">
        <ele>-1.557</ele>
        <time>2019-06-15T08:18:41Z</time>
      </trkpt>
      <trkpt lat="39.416737" lon="-0.334173">
        <ele>-1.356</ele>
        <time>2019-06-15T08:18:42Z</time>
      </trkpt>
      <trkpt lat="39.416682" lon="-0.334165">
        <ele>-1.051</ele>
        <time>2019-06-15T08:18:43Z</time>
      </trkpt>
      <trkpt lat="39.416627" lon="-0.334139">
        <ele>-1.044</ele>
        <time>2019-06-15T08:18:44Z</time>
      </trkpt>
      <trkpt lat="39.416565" lon="-0.334119">
        <ele>-1.105</ele>
        <time>2019-06-15T08:18:45Z</time>
      </trkpt>
      <trkpt lat="39.416499" lon="-0.334091">
        <ele>-1.215</ele>
        <time>2019-06-15T08:18:46Z</time>
      </trkpt>
      <trkpt lat="39.416429" lon="-0.334077">
        <ele>-1.508</ele>
        <time>2019-06-15T08:18:47Z</time>
      </trkpt>
      <trkpt lat="39.416370" lon="-0.334059">
        <ele>-1.577</ele>
        <time>2019-06-15T08:18:48Z</time>
      </trkpt>
      <trkpt lat="39.416314" lon="-0.334059">
        <ele>-1.311</ele>
        <time>2019-06-15T08:18:49Z</time>
      </trkpt>
      <trkpt lat="39.416254" lon="-0.334057">
        <ele>-1.020</ele>
        <time>2019-06-15T08:18:50Z</time>
      </trkpt>
      <trkpt lat="39.416204" lon="-0.334108">
        <ele>-0.713</ele>
        <time>2019-06-15T08:18:51Z</time>
      </trkpt>
      <trkpt lat="39.416147" lon="-0.334117">
        <ele>-0.435</ele>
        <time>2019-06-15T08:18:52Z</time>
      </trkpt>
      <trkpt lat="39.416097" lon="-0.334150">
        <ele>-0.022</ele>
        <time>2019-06-15T08:18:53Z</time>
      </trkpt>
      <trkpt lat="39.416044" lon="-0.334151">
        <ele>0.251</ele>
        <time>2019-06-15T08:18:54Z</time>
      </trkpt>
      <trkpt lat="39.415995" lon="-0.334101">
        <ele>0.266</ele>
        <time>2019-06-15T08:18:55Z</time>
      </trkpt>
      <trkpt lat="39.415943" lon="-0.334079">
        <ele>0.392</ele>
        <time>2019-06-15T08:18:56Z</time>
      </trkpt>
      <trkpt lat="39.415889" lon="-0.334064">
        <ele>0.473</ele>
        <time>2019-06-15T08:18:57Z</time>
      </trkpt>
      <trkpt lat="39.415795" lon="-0.334032">
        <ele>0.620</ele>
        <time>2019-06-15T08:18:59Z</time>
      </trkpt>
      <trkpt lat="39.415744" lon="-0.333979">
        <ele>0.808</ele>
        <time>2019-06-15T08:19:00Z</time>
      </trkpt>
      <trkpt lat="39.415692" lon="-0.333955">
        <ele>1.022</ele>
        <time>2019-06-15T08:19:01Z</time>
      </trkpt>
      <trkpt lat="39.415645" lon="-0.333943">
        <ele>1.396</ele>
        <time>2019-06-15T08:19:02Z</time>
      </trkpt>
      <trkpt lat="39.415596" lon="-0.333919">
        <ele>1.655</ele>
        <time>2019-06-15T08:19:03Z</time>
      </trkpt>
      <trkpt lat="39.415551" lon="-0.333872">
        <ele>2.098</ele>
        <time>2019-06-15T08:19:04Z</time>
      </trkpt>
      <trkpt lat="39.415517" lon="-0.333821">
        <ele>2.060</ele>
        <time>2019-06-15T08:19:05Z</time>
      </trkpt>
      <trkpt lat="39.415486" lon="-0.333770">
        <ele>2.117</ele>
        <time>2019-06-15T08:19:06Z</time>
      </trkpt>
      <trkpt lat="39.415413" lon="-0.333691">
        <ele>2.466</ele>
        <time>2019-06-15T08:19:08Z</time>
      </trkpt>
      <trkpt lat="39.415345" lon="-0.333667">
        <ele>2.641</ele>
        <time>2019-06-15T08:19:35Z</time>
      </trkpt>
      <trkpt lat="39.415296" lon="-0.333648">
        <ele>2.888</ele>
        <time>2019-06-15T08:19:37Z</time>
      </trkpt>
      <trkpt lat="39.415109" lon="-0.333577">
        <ele>1.724</ele>
        <time>2019-06-15T08:19:40Z</time>
      </trkpt>
      <trkpt lat="39.415023" lon="-0.333503">
        <ele>1.126</ele>
        <time>2019-06-15T08:19:42Z</time>
      </trkpt>
      <trkpt lat="39.414982" lon="-0.333477">
        <ele>1.008</ele>
        <time>2019-06-15T08:19:43Z</time>
      </trkpt>
      <trkpt lat="39.414934" lon="-0.333445">
        <ele>1.181</ele>
        <time>2019-06-15T08:19:44Z</time>
      </trkpt>
      <trkpt lat="39.414852" lon="-0.333416">
        <ele>1.425</ele>
        <time>2019-06-15T08:19:46Z</time>
      </trkpt>
      <trkpt lat="39.414806" lon="-0.333378">
        <ele>1.694</ele>
        <time>2019-06-15T08:19:47Z</time>
      </trkpt>
      <trkpt lat="39.414758" lon="-0.333347">
        <ele>1.817</ele>
        <time>2019-06-15T08:19:48Z</time>
      </trkpt>
      <trkpt lat="39.414705" lon="-0.333326">
        <ele>2.089</ele>
        <time>2019-06-15T08:19:49Z</time>
      </trkpt>
      <trkpt lat="39.414615" lon="-0.333315">
        <ele>1.796</ele>
        <time>2019-06-15T08:19:51Z</time>
      </trkpt>
      <trkpt lat="39.414565" lon="-0.333287">
        <ele>1.645</ele>
        <time>2019-06-15T08:19:52Z</time>
      </trkpt>
      <trkpt lat="39.414513" lon="-0.333249">
        <ele>1.430</ele>
        <time>2019-06-15T08:19:53Z</time>
      </trkpt>
      <trkpt lat="39.414462" lon="-0.333231">
        <ele>1.143</ele>
        <time>2019-06-15T08:19:54Z</time>
      </trkpt>
      <trkpt lat="39.414408" lon="-0.333202">
        <ele>1.064</ele>
        <time>2019-06-15T08:19:55Z</time>
      </trkpt>
      <trkpt lat="39.414352" lon="-0.333172">
        <ele>1.010</ele>
        <time>2019-06-15T08:19:56Z</time>
      </trkpt>
      <trkpt lat="39.414299" lon="-0.333142">
        <ele>1.008</ele>
        <time>2019-06-15T08:19:57Z</time>
      </trkpt>
      <trkpt lat="39.414248" lon="-0.333114">
        <ele>1.037</ele>
        <time>2019-06-15T08:19:58Z</time>
      </trkpt>
      <trkpt lat="39.414194" lon="-0.333093">
        <ele>1.031</ele>
        <time>2019-06-15T08:19:59Z</time>
      </trkpt>
      <trkpt lat="39.414148" lon="-0.333061">
        <ele>1.170</ele>
        <time>2019-06-15T08:20:00Z</time>
      </trkpt>
      <trkpt lat="39.414093" lon="-0.333034">
        <ele>1.453</ele>
        <time>2019-06-15T08:20:01Z</time>
      </trkpt>
      <trkpt lat="39.414042" lon="-0.333015">
        <ele>1.655</ele>
        <time>2019-06-15T08:20:02Z</time>
      </trkpt>
      <trkpt lat="39.413986" lon="-0.333005">
        <ele>1.922</ele>
        <time>2019-06-15T08:20:03Z</time>
      </trkpt>
      <trkpt lat="39.413925" lon="-0.333010">
        <ele>2.321</ele>
        <time>2019-06-15T08:20:04Z</time>
      </trkpt>
      <trkpt lat="39.413870" lon="-0.333026">
        <ele>2.896</ele>
        <time>2019-06-15T08:20:05Z</time>
      </trkpt>
      <trkpt lat="39.413818" lon="-0.333044">
        <ele>3.235</ele>
        <time>2019-06-15T08:20:06Z</time>
      </trkpt>
      <trkpt lat="39.413760" lon="-0.333058">
        <ele>3.586</ele>
        <time>2019-06-15T08:20:07Z</time>
      </trkpt>
      <trkpt lat="39.413704" lon="-0.333079">
        <ele>3.614</ele>
        <time>2019-06-15T08:20:08Z</time>
      </trkpt>
      <trkpt lat="39.413651" lon="-0.333085">
        <ele>3.808</ele>
        <time>2019-06-15T08:20:09Z</time>
      </trkpt>
      <trkpt lat="39.413596" lon="-0.333092">
        <ele>4.096</ele>
        <time>2019-06-15T08:20:10Z</time>
      </trkpt>
      <trkpt lat="39.413537" lon="-0.333093">
        <ele>4.090</ele>
        <time>2019-06-15T08:20:11Z</time>
      </trkpt>
      <trkpt lat="39.413473" lon="-0.333112">
        <ele>4.139</ele>
        <time>2019-06-15T08:20:12Z</time>
      </trkpt>
      <trkpt lat="39.413411" lon="-0.333124">
        <ele>4.242</ele>
        <time>2019-06-15T08:20:13Z</time>
      </trkpt>
      <trkpt lat="39.413354" lon="-0.333127">
        <ele>4.234</ele>
        <time>2019-06-15T08:20:14Z</time>
      </trkpt>
      <trkpt lat="39.413298" lon="-0.333133">
        <ele>4.211</ele>
        <time>2019-06-15T08:20:15Z</time>
      </trkpt>
      <trkpt lat="39.413237" lon="-0.333142">
        <ele>4.190</ele>
        <time>2019-06-15T08:20:16Z</time>
      </trkpt>
      <trkpt lat="39.413184" lon="-0.333149">
        <ele>4.065</ele>
        <time>2019-06-15T08:20:17Z</time>
      </trkpt>
      <trkpt lat="39.413134" lon="-0.333164">
        <ele>3.895</ele>
        <time>2019-06-15T08:20:18Z</time>
      </trkpt>
      <trkpt lat="39.413086" lon="-0.333223">
        <ele>3.549</ele>
        <time>2019-06-15T08:20:19Z</time>
      </trkpt>
      <trkpt lat="39.413042" lon="-0.333273">
        <ele>3.223</ele>
        <time>2019-06-15T08:20:20Z</time>
      </trkpt>
      <trkpt lat="39.412996" lon="-0.333288">
        <ele>2.908</ele>
        <time>2019-06-15T08:20:21Z</time>
      </trkpt>
      <trkpt lat="39.412945" lon="-0.333272">
        <ele>2.852</ele>
        <time>2019-06-15T08:20:22Z</time>
      </trkpt>
      <trkpt lat="39.412893" lon="-0.333260">
        <ele>2.716</ele>
        <time>2019-06-15T08:20:23Z</time>
      </trkpt>
      <trkpt lat="39.412829" lon="-0.333238">
        <ele>2.545</ele>
        <time>2019-06-15T08:20:24Z</time>
      </trkpt>
      <trkpt lat="39.412772" lon="-0.333228">
        <ele>2.428</ele>
        <time>2019-06-15T08:20:25Z</time>
      </trkpt>
      <trkpt lat="39.412722" lon="-0.333230">
        <ele>2.450</ele>
        <time>2019-06-15T08:20:26Z</time>
      </trkpt>
      <trkpt lat="39.412680" lon="-0.333199">
        <ele>2.567</ele>
        <time>2019-06-15T08:20:27Z</time>
      </trkpt>
      <trkpt lat="39.412630" lon="-0.333189">
        <ele>2.566</ele>
        <time>2019-06-15T08:20:28Z</time>
      </trkpt>
      <trkpt lat="39.412577" lon="-0.333180">
        <ele>2.621</ele>
        <time>2019-06-15T08:20:29Z</time>
      </trkpt>
      <trkpt lat="39.412529" lon="-0.333172">
        <ele>2.614</ele>
        <time>2019-06-15T08:20:30Z</time>
      </trkpt>
      <trkpt lat="39.412444" lon="-0.333164">
        <ele>2.654</ele>
        <time>2019-06-15T08:20:32Z</time>
      </trkpt>
      <trkpt lat="39.412397" lon="-0.333155">
        <ele>2.509</ele>
        <time>2019-06-15T08:20:33Z</time>
      </trkpt>
      <trkpt lat="39.412318" lon="-0.333143">
        <ele>2.408</ele>
        <time>2019-06-15T08:20:35Z</time>
      </trkpt>
      <trkpt lat="39.412269" lon="-0.333137">
        <ele>2.454</ele>
        <time>2019-06-15T08:20:36Z</time>
      </trkpt>
      <trkpt lat="39.412211" lon="-0.333129">
        <ele>2.338</ele>
        <time>2019-06-15T08:20:37Z</time>
      </trkpt>
      <trkpt lat="39.412127" lon="-0.333109">
        <ele>2.137</ele>
        <time>2019-06-15T08:20:39Z</time>
      </trkpt>
      <trkpt lat="39.412070" lon="-0.333096">
        <ele>2.170</ele>
        <time>2019-06-15T08:20:40Z</time>
      </trkpt>
      <trkpt lat="39.412025" lon="-0.333107">
        <ele>2.142</ele>
        <time>2019-06-15T08:20:41Z</time>
      </trkpt>
      <trkpt lat="39.411975" lon="-0.333111">
        <ele>2.019</ele>
        <time>2019-06-15T08:20:42Z</time>
      </trkpt>
      <trkpt lat="39.411891" lon="-0.333126">
        <ele>2.048</ele>
        <time>2019-06-15T08:20:44Z</time>
      </trkpt>
      <trkpt lat="39.411847" lon="-0.333144">
        <ele>2.043</ele>
        <time>2019-06-15T08:20:45Z</time>
      </trkpt>
      <trkpt lat="39.411799" lon="-0.333161">
        <ele>2.074</ele>
        <time>2019-06-15T08:20:46Z</time>
      </trkpt>
      <trkpt lat="39.411751" lon="-0.333183">
        <ele>2.056</ele>
        <time>2019-06-15T08:20:47Z</time>
      </trkpt>
      <trkpt lat="39.411701" lon="-0.333217">
        <ele>2.021</ele>
        <time>2019-06-15T08:20:48Z</time>
      </trkpt>
      <trkpt lat="39.411660" lon="-0.333246">
        <ele>2.008</ele>
        <time>2019-06-15T08:20:49Z</time>
      </trkpt>
      <trkpt lat="39.411618" lon="-0.333281">
        <ele>1.850</ele>
        <time>2019-06-15T08:20:50Z</time>
      </trkpt>
      <trkpt lat="39.411537" lon="-0.333344">
        <ele>1.534</ele>
        <time>2019-06-15T08:20:52Z</time>
      </trkpt>
      <trkpt lat="39.411491" lon="-0.333362">
        <ele>1.423</ele>
        <time>2019-06-15T08:20:53Z</time>
      </trkpt>
      <trkpt lat="39.411446" lon="-0.333378">
        <ele>1.276</ele>
        <time>2019-06-15T08:20:54Z</time>
      </trkpt>
      <trkpt lat="39.411411" lon="-0.333433">
        <ele>1.168</ele>
        <time>2019-06-15T08:20:55Z</time>
      </trkpt>
      <trkpt lat="39.411372" lon="-0.333376">
        <ele>1.055</ele>
        <time>2019-06-15T08:20:56Z</time>
      </trkpt>
      <trkpt lat="39.411318" lon="-0.333400">
        <ele>1.074</ele>
        <time>2019-06-15T08:20:57Z</time>
      </trkpt>
      <trkpt lat="39.411269" lon="-0.333393">
        <ele>1.039</ele>
        <time>2019-06-15T08:20:58Z</time>
      </trkpt>
      <trkpt lat="39.411181" lon="-0.333344">
        <ele>1.047</ele>
        <time>2019-06-15T08:21:00Z</time>
      </trkpt>
      <trkpt lat="39.411131" lon="-0.333331">
        <ele>1.029</ele>
        <time>2019-06-15T08:21:01Z</time>
      </trkpt>
      <trkpt lat="39.411038" lon="-0.333327">
        <ele>1.021</ele>
        <time>2019-06-15T08:21:03Z</time>
      </trkpt>
      <trkpt lat="39.410944" lon="-0.333310">
        <ele>1.008</ele>
        <time>2019-06-15T08:21:05Z</time>
      </trkpt>
      <trkpt lat="39.410886" lon="-0.333285">
        <ele>1.037</ele>
        <time>2019-06-15T08:21:06Z</time>
      </trkpt>
      <trkpt lat="39.410836" lon="-0.333274">
        <ele>1.081</ele>
        <time>2019-06-15T08:21:07Z</time>
      </trkpt>
      <trkpt lat="39.410755" lon="-0.333263">
        <ele>1.210</ele>
        <time>2019-06-15T08:21:09Z</time>
      </trkpt>
      <trkpt lat="39.410713" lon="-0.333242">
        <ele>1.373</ele>
        <time>2019-06-15T08:21:10Z</time>
      </trkpt>
      <trkpt lat="39.410664" lon="-0.333210">
        <ele>1.375</ele>
        <time>2019-06-15T08:21:11Z</time>
      </trkpt>
      <trkpt lat="39.410582" lon="-0.333193">
        <ele>1.462</ele>
        <time>2019-06-15T08:21:13Z</time>
      </trkpt>
      <trkpt lat="39.410485" lon="-0.333176">
        <ele>1.441</ele>
        <time>2019-06-15T08:21:15Z</time>
      </trkpt>
      <trkpt lat="39.410397" lon="-0.333168">
        <ele>1.446</ele>
        <time>2019-06-15T08:21:17Z</time>
      </trkpt>
      <trkpt lat="39.410303" lon="-0.333157">
        <ele>1.424</ele>
        <time>2019-06-15T08:21:19Z</time>
      </trkpt>
      <trkpt lat="39.410252" lon="-0.333140">
        <ele>1.504</ele>
        <time>2019-06-15T08:21:20Z</time>
      </trkpt>
      <trkpt lat="39.410201" lon="-0.333129">
        <ele>1.714</ele>
        <time>2019-06-15T08:21:21Z</time>
      </trkpt>
      <trkpt lat="39.410147" lon="-0.333114">
        <ele>2.108</ele>
        <time>2019-06-15T08:21:22Z</time>
      </trkpt>
      <trkpt lat="39.410101" lon="-0.333110">
        <ele>2.375</ele>
        <time>2019-06-15T08:21:23Z</time>
      </trkpt>
      <trkpt lat="39.410015" lon="-0.333089">
        <ele>2.979</ele>
        <time>2019-06-15T08:21:25Z</time>
      </trkpt>
      <trkpt lat="39.409963" lon="-0.333080">
        <ele>3.028</ele>
        <time>2019-06-15T08:21:26Z</time>
      </trkpt>
      <trkpt lat="39.409912" lon="-0.333074">
        <ele>3.091</ele>
        <time>2019-06-15T08:21:27Z</time>
      </trkpt>
      <trkpt lat="39.409865" lon="-0.333066">
        <ele>3.063</ele>
        <time>2019-06-15T08:21:28Z</time>
      </trkpt>
      <trkpt lat="39.409816" lon="-0.333057">
        <ele>3.040</ele>
        <time>2019-06-15T08:21:29Z</time>
      </trkpt>
      <trkpt lat="39.409765" lon="-0.333051">
        <ele>3.059</ele>
        <time>2019-06-15T08:21:30Z</time>
      </trkpt>
      <trkpt lat="39.409720" lon="-0.333032">
        <ele>2.984</ele>
        <time>2019-06-15T08:21:31Z</time>
      </trkpt>
      <trkpt lat="39.409667" lon="-0.333021">
        <ele>2.966</ele>
        <time>2019-06-15T08:21:32Z</time>
      </trkpt>
      <trkpt lat="39.409624" lon="-0.333001">
        <ele>2.729</ele>
        <time>2019-06-15T08:21:33Z</time>
      </trkpt>
      <trkpt lat="39.409540" lon="-0.332950">
        <ele>2.421</ele>
        <time>2019-06-15T08:21:35Z</time>
      </trkpt>
      <trkpt lat="39.409449" lon="-0.332938">
        <ele>2.208</ele>
        <time>2019-06-15T08:21:37Z</time>
      </trkpt>
      <trkpt lat="39.409368" lon="-0.332920">
        <ele>1.549</ele>
        <time>2019-06-15T08:21:39Z</time>
      </trkpt>
      <trkpt lat="39.409316" lon="-0.332923">
        <ele>1.183</ele>
        <time>2019-06-15T08:21:40Z</time>
      </trkpt>
      <trkpt lat="39.409231" lon="-0.332909">
        <ele>0.432</ele>
        <time>2019-06-15T08:21:42Z</time>
      </trkpt>
      <trkpt lat="39.409151" lon="-0.332895">
        <ele>-0.115</ele>
        <time>2019-06-15T08:21:44Z</time>
      </trkpt>
      <trkpt lat="39.409067" lon="-0.332870">
        <ele>-0.257</ele>
        <time>2019-06-15T08:21:46Z</time>
      </trkpt>
      <trkpt lat="39.408983" lon="-0.332860">
        <ele>-0.214</ele>
        <time>2019-06-15T08:21:48Z</time>
      </trkpt>
      <trkpt lat="39.408932" lon="-0.332860">
        <ele>-0.243</ele>
        <time>2019-06-15T08:21:49Z</time>
      </trkpt>
      <trkpt lat="39.408886" lon="-0.332871">
        <ele>0.048</ele>
        <time>2019-06-15T08:21:50Z</time>
      </trkpt>
      <trkpt lat="39.408840" lon="-0.332853">
        <ele>-0.166</ele>
        <time>2019-06-15T08:21:51Z</time>
      </trkpt>
      <trkpt lat="39.408795" lon="-0.332843">
        <ele>-0.029</ele>
        <time>2019-06-15T08:21:52Z</time>
      </trkpt>
      <trkpt lat="39.408750" lon="-0.332834">
        <ele>0.021</ele>
        <time>2019-06-15T08:21:53Z</time>
      </trkpt>
      <trkpt lat="39.408668" lon="-0.332829">
        <ele>0.208</ele>
        <time>2019-06-15T08:21:55Z</time>
      </trkpt>
      <trkpt lat="39.408591" lon="-0.332830">
        <ele>0.319</ele>
        <time>2019-06-15T08:21:57Z</time>
      </trkpt>
      <trkpt lat="39.408517" lon="-0.332818">
        <ele>0.263</ele>
        <time>2019-06-15T08:21:59Z</time>
      </trkpt>
      <trkpt lat="39.408472" lon="-0.332817">
        <ele>0.122</ele>
        <time>2019-06-15T08:22:00Z</time>
      </trkpt>
      <trkpt lat="39.408408" lon="-0.332809">
        <ele>0.135</ele>
        <time>2019-06-15T08:22:02Z</time>
      </trkpt>
      <trkpt lat="39.408361" lon="-0.332814">
        <ele>0.087</ele>
        <time>2019-06-15T08:22:04Z</time>
      </trkpt>
      <trkpt lat="39.408303" lon="-0.332805">
        <ele>0.014</ele>
        <time>2019-06-15T08:22:20Z</time>
      </trkpt>
      <trkpt lat="39.408242" lon="-0.332798">
        <ele>0.053</ele>
        <time>2019-06-15T08:22:22Z</time>
      </trkpt>
      <trkpt lat="39.408171" lon="-0.332795">
        <ele>0.058</ele>
        <time>2019-06-15T08:22:23Z</time>
      </trkpt>
      <trkpt lat="39.408079" lon="-0.332771">
        <ele>0.046</ele>
        <time>2019-06-15T08:22:25Z</time>
      </trkpt>
      <trkpt lat="39.407999" lon="-0.332724">
        <ele>0.488</ele>
        <time>2019-06-15T08:22:26Z</time>
      </trkpt>
      <trkpt lat="39.407951" lon="-0.332717">
        <ele>0.616</ele>
        <time>2019-06-15T08:22:27Z</time>
      </trkpt>
      <trkpt lat="39.407897" lon="-0.332702">
        <ele>0.808</ele>
        <time>2019-06-15T08:22:28Z</time>
      </trkpt>
      <trkpt lat="39.407851" lon="-0.332705">
        <ele>1.057</ele>
        <time>2019-06-15T08:22:29Z</time>
      </trkpt>
      <trkpt lat="39.407801" lon="-0.332688">
        <ele>1.261</ele>
        <time>2019-06-15T08:22:30Z</time>
      </trkpt>
      <trkpt lat="39.407755" lon="-0.332663">
        <ele>1.540</ele>
        <time>2019-06-15T08:22:31Z</time>
      </trkpt>
      <trkpt lat="39.407708" lon="-0.332667">
        <ele>1.633</ele>
        <time>2019-06-15T08:22:32Z</time>
      </trkpt>
      <trkpt lat="39.407619" lon="-0.332663">
        <ele>1.725</ele>
        <time>2019-06-15T08:22:34Z</time>
      </trkpt>
      <trkpt lat="39.407565" lon="-0.332665">
        <ele>1.932</ele>
        <time>2019-06-15T08:22:35Z</time>
      </trkpt>
      <trkpt lat="39.407512" lon="-0.332658">
        <ele>2.061</ele>
        <time>2019-06-15T08:22:36Z</time>
      </trkpt>
      <trkpt lat="39.407416" lon="-0.332639">
        <ele>1.886</ele>
        <time>2019-06-15T08:22:38Z</time>
      </trkpt>
      <trkpt lat="39.407363" lon="-0.332626">
        <ele>1.739</ele>
        <time>2019-06-15T08:22:39Z</time>
      </trkpt>
      <trkpt lat="39.407309" lon="-0.332596">
        <ele>1.601</ele>
        <time>2019-06-15T08:22:40Z</time>
      </trkpt>
      <trkpt lat="39.407255" lon="-0.332580">
        <ele>1.421</ele>
        <time>2019-06-15T08:22:41Z</time>
      </trkpt>
      <trkpt lat="39.407203" lon="-0.332565">
        <ele>1.208</ele>
        <time>2019-06-15T08:22:42Z</time>
      </trkpt>
      <trkpt lat="39.407147" lon="-0.332553">
        <ele>1.236</ele>
        <time>2019-06-15T08:22:43Z</time>
      </trkpt>
      <trkpt lat="39.407082" lon="-0.332522">
        <ele>1.170</ele>
        <time>2019-06-15T08:22:44Z</time>
      </trkpt>
      <trkpt lat="39.407024" lon="-0.332505">
        <ele>1.089</ele>
        <time>2019-06-15T08:22:45Z</time>
      </trkpt>
      <trkpt lat="39.406968" lon="-0.332484">
        <ele>1.022</ele>
        <time>2019-06-15T08:22:46Z</time>
      </trkpt>
      <trkpt lat="39.406906" lon="-0.332472">
        <ele>1.184</ele>
        <time>2019-06-15T08:22:47Z</time>
      </trkpt>
      <trkpt lat="39.406841" lon="-0.332455">
        <ele>1.341</ele>
        <time>2019-06-15T08:22:48Z</time>
      </trkpt>
      <trkpt lat="39.406783" lon="-0.332448">
        <ele>1.540</ele>
        <time>2019-06-15T08:22:49Z</time>
      </trkpt>
      <trkpt lat="39.406728" lon="-0.332440">
        <ele>1.625</ele>
        <time>2019-06-15T08:22:50Z</time>
      </trkpt>
      <trkpt lat="39.406669" lon="-0.332437">
        <ele>1.839</ele>
        <time>2019-06-15T08:22:51Z</time>
      </trkpt>
      <trkpt lat="39.406613" lon="-0.332430">
        <ele>1.701</ele>
        <time>2019-06-15T08:22:52Z</time>
      </trkpt>
      <trkpt lat="39.406558" lon="-0.332433">
        <ele>1.821</ele>
        <time>2019-06-15T08:22:53Z</time>
      </trkpt>
      <trkpt lat="39.406496" lon="-0.332417">
        <ele>1.708</ele>
        <time>2019-06-15T08:22:54Z</time>
      </trkpt>
      <trkpt lat="39.406433" lon="-0.332403">
        <ele>1.736</ele>
        <time>2019-06-15T08:22:55Z</time>
      </trkpt>
      <trkpt lat="39.406370" lon="-0.332405">
        <ele>1.750</ele>
        <time>2019-06-15T08:22:56Z</time>
      </trkpt>
      <trkpt lat="39.406311" lon="-0.332401">
        <ele>1.659</ele>
        <time>2019-06-15T08:22:57Z</time>
      </trkpt>
      <trkpt lat="39.406254" lon="-0.332402">
        <ele>1.692</ele>
        <time>2019-06-15T08:22:58Z</time>
      </trkpt>
      <trkpt lat="39.406193" lon="-0.332395">
        <ele>1.694</ele>
        <time>2019-06-15T08:22:59Z</time>
      </trkpt>
      <trkpt lat="39.406139" lon="-0.332388">
        <ele>1.651</ele>
        <time>2019-06-15T08:23:00Z</time>
      </trkpt>
      <trkpt lat="39.406082" lon="-0.332399">
        <ele>1.750</ele>
        <time>2019-06-15T08:23:01Z</time>
      </trkpt>
      <trkpt lat="39.406017" lon="-0.332391">
        <ele>1.825</ele>
        <time>2019-06-15T08:23:02Z</time>
      </trkpt>
      <trkpt lat="39.405954" lon="-0.332391">
        <ele>2.051</ele>
        <time>2019-06-15T08:23:03Z</time>
      </trkpt>
      <trkpt lat="39.405892" lon="-0.332403">
        <ele>2.201</ele>
        <time>2019-06-15T08:23:04Z</time>
      </trkpt>
      <trkpt lat="39.405835" lon="-0.332396">
        <ele>2.211</ele>
        <time>2019-06-15T08:23:05Z</time>
      </trkpt>
      <trkpt lat="39.405775" lon="-0.332390">
        <ele>2.308</ele>
        <time>2019-06-15T08:23:06Z</time>
      </trkpt>
      <trkpt lat="39.405713" lon="-0.332386">
        <ele>2.448</ele>
        <time>2019-06-15T08:23:07Z</time>
      </trkpt>
      <trkpt lat="39.405648" lon="-0.332374">
        <ele>2.442</ele>
        <time>2019-06-15T08:23:08Z</time>
      </trkpt>
      <trkpt lat="39.405589" lon="-0.332377">
        <ele>2.581</ele>
        <time>2019-06-15T08:23:09Z</time>
      </trkpt>
      <trkpt lat="39.405526" lon="-0.332372">
        <ele>2.614</ele>
        <time>2019-06-15T08:23:10Z</time>
      </trkpt>
      <trkpt lat="39.405466" lon="-0.332369">
        <ele>2.776</ele>
        <time>2019-06-15T08:23:11Z</time>
      </trkpt>
      <trkpt lat="39.405402" lon="-0.332368">
        <ele>2.853</ele>
        <time>2019-06-15T08:23:12Z</time>
      </trkpt>
      <trkpt lat="39.405340" lon="-0.332360">
        <ele>2.932</ele>
        <time>2019-06-15T08:23:13Z</time>
      </trkpt>
      <trkpt lat="39.405275" lon="-0.332358">
        <ele>3.037</ele>
        <time>2019-06-15T08:23:14Z</time>
      </trkpt>
      <trkpt lat="39.405210" lon="-0.332360">
        <ele>3.016</ele>
        <time>2019-06-15T08:23:15Z</time>
      </trkpt>
      <trkpt lat="39.405146" lon="-0.332359">
        <ele>3.076</ele>
        <time>2019-06-15T08:23:16Z</time>
      </trkpt>
      <trkpt lat="39.405084" lon="-0.332357">
        <ele>3.013</ele>
        <time>2019-06-15T08:23:17Z</time>
      </trkpt>
      <trkpt lat="39.405018" lon="-0.332344">
        <ele>3.008</ele>
        <time>2019-06-15T08:23:18Z</time>
      </trkpt>
      <trkpt lat="39.404957" lon="-0.332343">
        <ele>2.834</ele>
        <time>2019-06-15T08:23:19Z</time>
      </trkpt>
      <trkpt lat="39.404892" lon="-0.332337">
        <ele>2.648</ele>
        <time>2019-06-15T08:23:20Z</time>
      </trkpt>
      <trkpt lat="39.404827" lon="-0.332328">
        <ele>2.447</ele>
        <time>2019-06-15T08:23:21Z</time>
      </trkpt>
      <trkpt lat="39.404761" lon="-0.332323">
        <ele>2.140</ele>
        <time>2019-06-15T08:23:22Z</time>
      </trkpt>
      <trkpt lat="39.404699" lon="-0.332316">
        <ele>1.992</ele>
        <time>2019-06-15T08:23:23Z</time>
      </trkpt>
      <trkpt lat="39.404634" lon="-0.332318">
        <ele>1.659</ele>
        <time>2019-06-15T08:23:24Z</time>
      </trkpt>
      <trkpt lat="39.404571" lon="-0.332318">
        <ele>1.358</ele>
        <time>2019-06-15T08:23:25Z</time>
      </trkpt>
      <trkpt lat="39.404503" lon="-0.332315">
        <ele>0.923</ele>
        <time>2019-06-15T08:23:26Z</time>
      </trkpt>
      <trkpt lat="39.404440" lon="-0.332316">
        <ele>0.723</ele>
        <time>2019-06-15T08:23:27Z</time>
      </trkpt>
      <trkpt lat="39.404382" lon="-0.332312">
        <ele>0.583</ele>
        <time>2019-06-15T08:23:28Z</time>
      </trkpt>
      <trkpt lat="39.404316" lon="-0.332328">
        <ele>0.311</ele>
        <time>2019-06-15T08:23:29Z</time>
      </trkpt>
      <trkpt lat="39.404255" lon="-0.332315">
        <ele>0.208</ele>
        <time>2019-06-15T08:23:30Z</time>
      </trkpt>
      <trkpt lat="39.404193" lon="-0.332314">
        <ele>0.115</ele>
        <time>2019-06-15T08:23:31Z</time>
      </trkpt>
      <trkpt lat="39.404133" lon="-0.332305">
        <ele>0.089</ele>
        <time>2019-06-15T08:23:32Z</time>
      </trkpt>
      <trkpt lat="39.404074" lon="-0.332293">
        <ele>0.018</ele>
        <time>2019-06-15T08:23:33Z</time>
      </trkpt>
      <trkpt lat="39.404016" lon="-0.332276">
        <ele>0.081</ele>
        <time>2019-06-15T08:23:34Z</time>
      </trkpt>
      <trkpt lat="39.403959" lon="-0.332260">
        <ele>0.023</ele>
        <time>2019-06-15T08:23:35Z</time>
      </trkpt>
      <trkpt lat="39.403900" lon="-0.332246">
        <ele>0.070</ele>
        <time>2019-06-15T08:23:36Z</time>
      </trkpt>
      <trkpt lat="39.403838" lon="-0.332224">
        <ele>0.029</ele>
        <time>2019-06-15T08:23:37Z</time>
      </trkpt>
      <trkpt lat="39.403780" lon="-0.332198">
        <ele>0.024</ele>
        <time>2019-06-15T08:23:38Z</time>
      </trkpt>
      <trkpt lat="39.403726" lon="-0.332183">
        <ele>0.157</ele>
        <time>2019-06-15T08:23:39Z</time>
      </trkpt>
      <trkpt lat="39.403673" lon="-0.332146">
        <ele>0.200</ele>
        <time>2019-06-15T08:23:40Z</time>
      </trkpt>
      <trkpt lat="39.403618" lon="-0.332116">
        <ele>0.420</ele>
        <time>2019-06-15T08:23:41Z</time>
      </trkpt>
      <trkpt lat="39.403560" lon="-0.332082">
        <ele>0.508</ele>
        <time>2019-06-15T08:23:42Z</time>
      </trkpt>
      <trkpt lat="39.403505" lon="-0.332045">
        <ele>0.668</ele>
        <time>2019-06-15T08:23:43Z</time>
      </trkpt>
      <trkpt lat="39.403451" lon="-0.332006">
        <ele>0.822</ele>
        <time>2019-06-15T08:23:44Z</time>
      </trkpt>
      <trkpt lat="39.403399" lon="-0.331957">
        <ele>1.061</ele>
        <time>2019-06-15T08:23:45Z</time>
      </trkpt>
      <trkpt lat="39.403347" lon="-0.331908">
        <ele>1.144</ele>
        <time>2019-06-15T08:23:46Z</time>
      </trkpt>
      <trkpt lat="39.403298" lon="-0.331858">
        <ele>1.316</ele>
        <time>2019-06-15T08:23:47Z</time>
      </trkpt>
      <trkpt lat="39.403248" lon="-0.331813">
        <ele>1.583</ele>
        <time>2019-06-15T08:23:48Z</time>
      </trkpt>
      <trkpt lat="39.403200" lon="-0.331756">
        <ele>1.712</ele>
        <time>2019-06-15T08:23:49Z</time>
      </trkpt>
      <trkpt lat="39.403150" lon="-0.331700">
        <ele>1.997</ele>
        <time>2019-06-15T08:23:50Z</time>
      </trkpt>
      <trkpt lat="39.403098" lon="-0.331647">
        <ele>2.015</ele>
        <time>2019-06-15T08:23:51Z</time>
      </trkpt>
      <trkpt lat="39.403043" lon="-0.331590">
        <ele>2.065</ele>
        <time>2019-06-15T08:23:52Z</time>
      </trkpt>
      <trkpt lat="39.402992" lon="-0.331553">
        <ele>2.011</ele>
        <time>2019-06-15T08:23:53Z</time>
      </trkpt>
      <trkpt lat="39.402932" lon="-0.331513">
        <ele>2.008</ele>
        <time>2019-06-15T08:23:54Z</time>
      </trkpt>
      <trkpt lat="39.402880" lon="-0.331476">
        <ele>2.014</ele>
        <time>2019-06-15T08:23:55Z</time>
      </trkpt>
      <trkpt lat="39.402824" lon="-0.331440">
        <ele>2.018</ele>
        <time>2019-06-15T08:23:56Z</time>
      </trkpt>
      <trkpt lat="39.402768" lon="-0.331403">
        <ele>2.087</ele>
        <time>2019-06-15T08:23:57Z</time>
      </trkpt>
      <trkpt lat="39.402710" lon="-0.331372">
        <ele>2.350</ele>
        <time>2019-06-15T08:23:58Z</time>
      </trkpt>
      <trkpt lat="39.402650" lon="-0.331347">
        <ele>2.592</ele>
        <time>2019-06-15T08:23:59Z</time>
      </trkpt>
      <trkpt lat="39.402589" lon="-0.331328">
        <ele>2.899</ele>
        <time>2019-06-15T08:24:00Z</time>
      </trkpt>
      <trkpt lat="39.402532" lon="-0.331303">
        <ele>3.218</ele>
        <time>2019-06-15T08:24:01Z</time>
      </trkpt>
      <trkpt lat="39.402473" lon="-0.331287">
        <ele>3.443</ele>
        <time>2019-06-15T08:24:02Z</time>
      </trkpt>
      <trkpt lat="39.402414" lon="-0.331264">
        <ele>3.662</ele>
        <time>2019-06-15T08:24:03Z</time>
      </trkpt>
      <trkpt lat="39.402353" lon="-0.331235">
        <ele>3.883</ele>
        <time>2019-06-15T08:24:04Z</time>
      </trkpt>
      <trkpt lat="39.402291" lon="-0.331203">
        <ele>4.211</ele>
        <time>2019-06-15T08:24:05Z</time>
      </trkpt>
      <trkpt lat="39.402236" lon="-0.331178">
        <ele>4.508</ele>
        <time>2019-06-15T08:24:06Z</time>
      </trkpt>
      <trkpt lat="39.402177" lon="-0.331159">
        <ele>4.559</ele>
        <time>2019-06-15T08:24:07Z</time>
      </trkpt>
      <trkpt lat="39.402124" lon="-0.331138">
        <ele>4.523</ele>
        <time>2019-06-15T08:24:08Z</time>
      </trkpt>
      <trkpt lat="39.402074" lon="-0.331117">
        <ele>4.442</ele>
        <time>2019-06-15T08:24:09Z</time>
      </trkpt>
      <trkpt lat="39.402022" lon="-0.331096">
        <ele>4.345</ele>
        <time>2019-06-15T08:24:10Z</time>
      </trkpt>
      <trkpt lat="39.401972" lon="-0.331080">
        <ele>4.137</ele>
        <time>2019-06-15T08:24:11Z</time>
      </trkpt>
      <trkpt lat="39.401926" lon="-0.331080">
        <ele>3.854</ele>
        <time>2019-06-15T08:24:12Z</time>
      </trkpt>
      <trkpt lat="39.401880" lon="-0.331056">
        <ele>3.483</ele>
        <time>2019-06-15T08:24:13Z</time>
      </trkpt>
      <trkpt lat="39.401827" lon="-0.331031">
        <ele>2.948</ele>
        <time>2019-06-15T08:24:14Z</time>
      </trkpt>
      <trkpt lat="39.401732" lon="-0.331000">
        <ele>2.042</ele>
        <time>2019-06-15T08:24:16Z</time>
      </trkpt>
      <trkpt lat="39.401687" lon="-0.330989">
        <ele>1.622</ele>
        <time>2019-06-15T08:24:17Z</time>
      </trkpt>
      <trkpt lat="39.401641" lon="-0.330976">
        <ele>1.414</ele>
        <time>2019-06-15T08:24:18Z</time>
      </trkpt>
      <trkpt lat="39.401592" lon="-0.330963">
        <ele>1.308</ele>
        <time>2019-06-15T08:24:19Z</time>
      </trkpt>
      <trkpt lat="39.401508" lon="-0.330942">
        <ele>1.037</ele>
        <time>2019-06-15T08:24:21Z</time>
      </trkpt>
      <trkpt lat="39.401460" lon="-0.330935">
        <ele>0.951</ele>
        <time>2019-06-15T08:24:22Z</time>
      </trkpt>
      <trkpt lat="39.401413" lon="-0.330929">
        <ele>0.720</ele>
        <time>2019-06-15T08:24:23Z</time>
      </trkpt>
      <trkpt lat="39.401372" lon="-0.330956">
        <ele>0.523</ele>
        <time>2019-06-15T08:24:24Z</time>
      </trkpt>
      <trkpt lat="39.401327" lon="-0.330977">
        <ele>0.335</ele>
        <time>2019-06-15T08:24:25Z</time>
      </trkpt>
      <trkpt lat="39.401287" lon="-0.331036">
        <ele>-0.162</ele>
        <time>2019-06-15T08:24:26Z</time>
      </trkpt>
      <trkpt lat="39.401246" lon="-0.331069">
        <ele>-0.421</ele>
        <time>2019-06-15T08:24:27Z</time>
      </trkpt>
      <trkpt lat="39.401179" lon="-0.331075">
        <ele>-0.666</ele>
        <time>2019-06-15T08:24:28Z</time>
      </trkpt>
      <trkpt lat="39.401069" lon="-0.331093">
        <ele>-0.927</ele>
        <time>2019-06-15T08:24:30Z</time>
      </trkpt>
      <trkpt lat="39.400996" lon="-0.331082">
        <ele>-0.968</ele>
        <time>2019-06-15T08:24:32Z</time>
      </trkpt>
      <trkpt lat="39.400934" lon="-0.331092">
        <ele>-0.914</ele>
        <time>2019-06-15T08:24:54Z</time>
      </trkpt>
      <trkpt lat="39.400859" lon="-0.331065">
        <ele>-0.808</ele>
        <time>2019-06-15T08:24:56Z</time>
      </trkpt>
      <trkpt lat="39.400785" lon="-0.331034">
        <ele>-0.735</ele>
        <time>2019-06-15T08:24:58Z</time>
      </trkpt>
      <trkpt lat="39.400694" lon="-0.330989">
        <ele>-0.659</ele>
        <time>2019-06-15T08:25:00Z</time>
      </trkpt>
      <trkpt lat="39.400595" lon="-0.330955">
        <ele>-0.498</ele>
        <time>2019-06-15T08:25:02Z</time>
      </trkpt>
      <trkpt lat="39.400542" lon="-0.330939">
        <ele>-0.331</ele>
        <time>2019-06-15T08:25:03Z</time>
      </trkpt>
      <trkpt lat="39.400493" lon="-0.330924">
        <ele>-0.123</ele>
        <time>2019-06-15T08:25:04Z</time>
      </trkpt>
      <trkpt lat="39.400438" lon="-0.330907">
        <ele>0.290</ele>
        <time>2019-06-15T08:25:05Z</time>
      </trkpt>
      <trkpt lat="39.400376" lon="-0.330885">
        <ele>0.569</ele>
        <time>2019-06-15T08:25:06Z</time>
      </trkpt>
      <trkpt lat="39.400315" lon="-0.330864">
        <ele>0.854</ele>
        <time>2019-06-15T08:25:07Z</time>
      </trkpt>
      <trkpt lat="39.400255" lon="-0.330847">
        <ele>0.979</ele>
        <time>2019-06-15T08:25:08Z</time>
      </trkpt>
      <trkpt lat="39.400202" lon="-0.330833">
        <ele>1.005</ele>
        <time>2019-06-15T08:25:09Z</time>
      </trkpt>
      <trkpt lat="39.400143" lon="-0.330815">
        <ele>1.125</ele>
        <time>2019-06-15T08:25:10Z</time>
      </trkpt>
      <trkpt lat="39.400092" lon="-0.330792">
        <ele>1.108</ele>
        <time>2019-06-15T08:25:11Z</time>
      </trkpt>
      <trkpt lat="39.400039" lon="-0.330773">
        <ele>1.270</ele>
        <time>2019-06-15T08:25:12Z</time>
      </trkpt>
      <trkpt lat="39.399982" lon="-0.330766">
        <ele>1.234</ele>
        <time>2019-06-15T08:25:13Z</time>
      </trkpt>
      <trkpt lat="39.399926" lon="-0.330755">
        <ele>1.143</ele>
        <time>2019-06-15T08:25:14Z</time>
      </trkpt>
      <trkpt lat="39.399867" lon="-0.330735">
        <ele>1.016</ele>
        <time>2019-06-15T08:25:15Z</time>
      </trkpt>
      <trkpt lat="39.399815" lon="-0.330714">
        <ele>1.198</ele>
        <time>2019-06-15T08:25:16Z</time>
      </trkpt>
      <trkpt lat="39.399760" lon="-0.330692">
        <ele>1.165</ele>
        <time>2019-06-15T08:25:17Z</time>
      </trkpt>
      <trkpt lat="39.399707" lon="-0.330679">
        <ele>1.184</ele>
        <time>2019-06-15T08:25:18Z</time>
      </trkpt>
      <trkpt lat="39.399649" lon="-0.330663">
        <ele>1.189</ele>
        <time>2019-06-15T08:25:19Z</time>
      </trkpt>
      <trkpt lat="39.399599" lon="-0.330647">
        <ele>1.086</ele>
        <time>2019-06-15T08:25:20Z</time>
      </trkpt>
      <trkpt lat="39.399543" lon="-0.330632">
        <ele>1.060</ele>
        <time>2019-06-15T08:25:21Z</time>
      </trkpt>
      <trkpt lat="39.399490" lon="-0.330626">
        <ele>0.926</ele>
        <time>2019-06-15T08:25:22Z</time>
      </trkpt>
      <trkpt lat="39.399433" lon="-0.330602">
        <ele>0.808</ele>
        <time>2019-06-15T08:25:23Z</time>
      </trkpt>
      <trkpt lat="39.399379" lon="-0.330579">
        <ele>0.781</ele>
        <time>2019-06-15T08:25:24Z</time>
      </trkpt>
      <trkpt lat="39.399320" lon="-0.330563">
        <ele>0.555</ele>
        <time>2019-06-15T08:25:25Z</time>
      </trkpt>
      <trkpt lat="39.399263" lon="-0.330534">
        <ele>0.474</ele>
        <time>2019-06-15T08:25:26Z</time>
      </trkpt>
      <trkpt lat="39.399206" lon="-0.330514">
        <ele>0.347</ele>
        <time>2019-06-15T08:25:27Z</time>
      </trkpt>
      <trkpt lat="39.399151" lon="-0.330501">
        <ele>0.239</ele>
        <time>2019-06-15T08:25:28Z</time>
      </trkpt>
      <trkpt lat="39.399095" lon="-0.330476">
        <ele>0.396</ele>
        <time>2019-06-15T08:25:29Z</time>
      </trkpt>
      <trkpt lat="39.399043" lon="-0.330461">
        <ele>0.325</ele>
        <time>2019-06-15T08:25:30Z</time>
      </trkpt>
      <trkpt lat="39.398987" lon="-0.330443">
        <ele>0.470</ele>
        <time>2019-06-15T08:25:31Z</time>
      </trkpt>
      <trkpt lat="39.398929" lon="-0.330428">
        <ele>0.557</ele>
        <time>2019-06-15T08:25:32Z</time>
      </trkpt>
      <trkpt lat="39.398872" lon="-0.330421">
        <ele>0.500</ele>
        <time>2019-06-15T08:25:33Z</time>
      </trkpt>
      <trkpt lat="39.398821" lon="-0.330436">
        <ele>0.720</ele>
        <time>2019-06-15T08:25:34Z</time>
      </trkpt>
      <trkpt lat="39.398766" lon="-0.330420">
        <ele>0.908</ele>
        <time>2019-06-15T08:25:35Z</time>
      </trkpt>
      <trkpt lat="39.398713" lon="-0.330406">
        <ele>1.218</ele>
        <time>2019-06-15T08:25:36Z</time>
      </trkpt>
      <trkpt lat="39.398655" lon="-0.330395">
        <ele>1.472</ele>
        <time>2019-06-15T08:25:37Z</time>
      </trkpt>
      <trkpt lat="39.398604" lon="-0.330360">
        <ele>1.741</ele>
        <time>2019-06-15T08:25:38Z</time>
      </trkpt>
      <trkpt lat="39.398555" lon="-0.330323">
        <ele>1.974</ele>
        <time>2019-06-15T08:25:39Z</time>
      </trkpt>
      <trkpt lat="39.398505" lon="-0.330287">
        <ele>2.056</ele>
        <time>2019-06-15T08:25:40Z</time>
      </trkpt>
      <trkpt lat="39.398457" lon="-0.330255">
        <ele>2.053</ele>
        <time>2019-06-15T08:25:41Z</time>
      </trkpt>
      <trkpt lat="39.398404" lon="-0.330234">
        <ele>2.072</ele>
        <time>2019-06-15T08:25:42Z</time>
      </trkpt>
      <trkpt lat="39.398355" lon="-0.330219">
        <ele>2.087</ele>
        <time>2019-06-15T08:25:43Z</time>
      </trkpt>
      <trkpt lat="39.398302" lon="-0.330220">
        <ele>1.929</ele>
        <time>2019-06-15T08:25:44Z</time>
      </trkpt>
      <trkpt lat="39.398246" lon="-0.330221">
        <ele>1.700</ele>
        <time>2019-06-15T08:25:45Z</time>
      </trkpt>
      <trkpt lat="39.398191" lon="-0.330217">
        <ele>1.520</ele>
        <time>2019-06-15T08:25:46Z</time>
      </trkpt>
      <trkpt lat="39.398144" lon="-0.330210">
        <ele>1.308</ele>
        <time>2019-06-15T08:25:47Z</time>
      </trkpt>
      <trkpt lat="39.398091" lon="-0.330206">
        <ele>1.195</ele>
        <time>2019-06-15T08:25:48Z</time>
      </trkpt>
      <trkpt lat="39.398039" lon="-0.330198">
        <ele>1.019</ele>
        <time>2019-06-15T08:25:49Z</time>
      </trkpt>
      <trkpt lat="39.397982" lon="-0.330190">
        <ele>0.958</ele>
        <time>2019-06-15T08:25:50Z</time>
      </trkpt>
      <trkpt lat="39.397933" lon="-0.330180">
        <ele>0.881</ele>
        <time>2019-06-15T08:25:51Z</time>
      </trkpt>
      <trkpt lat="39.397882" lon="-0.330186">
        <ele>0.833</ele>
        <time>2019-06-15T08:25:52Z</time>
      </trkpt>
      <trkpt lat="39.397827" lon="-0.330179">
        <ele>0.720</ele>
        <time>2019-06-15T08:25:53Z</time>
      </trkpt>
      <trkpt lat="39.397768" lon="-0.330185">
        <ele>0.719</ele>
        <time>2019-06-15T08:25:54Z</time>
      </trkpt>
      <trkpt lat="39.397716" lon="-0.330203">
        <ele>0.814</ele>
        <time>2019-06-15T08:25:55Z</time>
      </trkpt>
      <trkpt lat="39.397661" lon="-0.330226">
        <ele>0.928</ele>
        <time>2019-06-15T08:25:56Z</time>
      </trkpt>
      <trkpt lat="39.397605" lon="-0.330243">
        <ele>1.089</ele>
        <time>2019-06-15T08:25:57Z</time>
      </trkpt>
      <trkpt lat="39.397547" lon="-0.330238">
        <ele>1.017</ele>
        <time>2019-06-15T08:25:58Z</time>
      </trkpt>
      <trkpt lat="39.397499" lon="-0.330216">
        <ele>1.008</ele>
        <time>2019-06-15T08:25:59Z</time>
      </trkpt>
      <trkpt lat="39.397451" lon="-0.330187">
        <ele>1.015</ele>
        <time>2019-06-15T08:26:00Z</time>
      </trkpt>
      <trkpt lat="39.397403" lon="-0.330161">
        <ele>1.039</ele>
        <time>2019-06-15T08:26:01Z</time>
      </trkpt>
      <trkpt lat="39.397353" lon="-0.330132">
        <ele>1.068</ele>
        <time>2019-06-15T08:26:02Z</time>
      </trkpt>
      <trkpt lat="39.397301" lon="-0.330113">
        <ele>1.011</ele>
        <time>2019-06-15T08:26:03Z</time>
      </trkpt>
      <trkpt lat="39.397247" lon="-0.330092">
        <ele>1.093</ele>
        <time>2019-06-15T08:26:04Z</time>
      </trkpt>
      <trkpt lat="39.397196" lon="-0.330071">
        <ele>1.020</ele>
        <time>2019-06-15T08:26:05Z</time>
      </trkpt>
      <trkpt lat="39.397138" lon="-0.330061">
        <ele>1.019</ele>
        <time>2019-06-15T08:26:06Z</time>
      </trkpt>
      <trkpt lat="39.397100" lon="-0.330012">
        <ele>1.014</ele>
        <time>2019-06-15T08:26:07Z</time>
      </trkpt>
      <trkpt lat="39.397066" lon="-0.329955">
        <ele>0.912</ele>
        <time>2019-06-15T08:26:08Z</time>
      </trkpt>
      <trkpt lat="39.397025" lon="-0.329887">
        <ele>0.732</ele>
        <time>2019-06-15T08:26:09Z</time>
      </trkpt>
      <trkpt lat="39.396999" lon="-0.329834">
        <ele>0.505</ele>
        <time>2019-06-15T08:26:10Z</time>
      </trkpt>
      <trkpt lat="39.396986" lon="-0.329769">
        <ele>0.308</ele>
        <time>2019-06-15T08:26:11Z</time>
      </trkpt>
      <trkpt lat="39.396989" lon="-0.329699">
        <ele>0.214</ele>
        <time>2019-06-15T08:26:12Z</time>
      </trkpt>
      <trkpt lat="39.396989" lon="-0.329631">
        <ele>0.488</ele>
        <time>2019-06-15T08:26:13Z</time>
      </trkpt>
      <trkpt lat="39.396990" lon="-0.329553">
        <ele>0.627</ele>
        <time>2019-06-15T08:26:14Z</time>
      </trkpt>
      <trkpt lat="39.396980" lon="-0.329469">
        <ele>0.810</ele>
        <time>2019-06-15T08:26:15Z</time>
      </trkpt>
      <trkpt lat="39.396975" lon="-0.329393">
        <ele>0.962</ele>
        <time>2019-06-15T08:26:16Z</time>
      </trkpt>
      <trkpt lat="39.396963" lon="-0.329331">
        <ele>1.089</ele>
        <time>2019-06-15T08:26:17Z</time>
      </trkpt>
      <trkpt lat="39.396942" lon="-0.329273">
        <ele>1.078</ele>
        <time>2019-06-15T08:26:18Z</time>
      </trkpt>
      <trkpt lat="39.396908" lon="-0.329234">
        <ele>1.083</ele>
        <time>2019-06-15T08:26:20Z</time>
      </trkpt>
      <trkpt lat="39.396858" lon="-0.329201">
        <ele>1.029</ele>
        <time>2019-06-15T08:26:22Z</time>
      </trkpt>
      <trkpt lat="39.396807" lon="-0.329182">
        <ele>1.000</ele>
        <time>2019-06-15T08:26:24Z</time>
      </trkpt>
      <trkpt lat="39.396749" lon="-0.329170">
        <ele>1.020</ele>
        <time>2019-06-15T08:26:27Z</time>
      </trkpt>
      <trkpt lat="39.396600" lon="-0.329132">
        <ele>0.808</ele>
        <time>2019-06-15T08:26:29Z</time>
      </trkpt>
      <trkpt lat="39.396526" lon="-0.329126">
        <ele>0.585</ele>
        <time>2019-06-15T08:26:31Z</time>
      </trkpt>
      <trkpt lat="39.396437" lon="-0.329108">
        <ele>0.279</ele>
        <time>2019-06-15T08:26:33Z</time>
      </trkpt>
      <trkpt lat="39.396353" lon="-0.329070">
        <ele>-0.148</ele>
        <time>2019-06-15T08:26:35Z</time>
      </trkpt>
      <trkpt lat="39.396310" lon="-0.329050">
        <ele>-0.261</ele>
        <time>2019-06-15T08:26:36Z</time>
      </trkpt>
      <trkpt lat="39.396271" lon="-0.329002">
        <ele>-0.223</ele>
        <time>2019-06-15T08:26:37Z</time>
      </trkpt>
      <trkpt lat="39.396240" lon="-0.328950">
        <ele>-0.110</ele>
        <time>2019-06-15T08:26:38Z</time>
      </trkpt>
      <trkpt lat="39.396226" lon="-0.328892">
        <ele>-0.049</ele>
        <time>2019-06-15T08:26:39Z</time>
      </trkpt>
      <trkpt lat="39.396216" lon="-0.328830">
        <ele>0.274</ele>
        <time>2019-06-15T08:26:40Z</time>
      </trkpt>
      <trkpt lat="39.396209" lon="-0.328765">
        <ele>0.496</ele>
        <time>2019-06-15T08:26:41Z</time>
      </trkpt>
      <trkpt lat="39.396182" lon="-0.328707">
        <ele>0.731</ele>
        <time>2019-06-15T08:26:44Z</time>
      </trkpt>
      <trkpt lat="39.396205" lon="-0.328758">
        <ele>0.524</ele>
        <time>2019-06-15T08:26:55Z</time>
      </trkpt>
      <trkpt lat="39.396154" lon="-0.328724">
        <ele>0.608</ele>
        <time>2019-06-15T08:28:09Z</time>
      </trkpt>
      <trkpt lat="39.396092" lon="-0.328696">
        <ele>0.782</ele>
        <time>2019-06-15T08:28:13Z</time>
      </trkpt>
      <trkpt lat="39.396040" lon="-0.328686">
        <ele>0.766</ele>
        <time>2019-06-15T08:28:15Z</time>
      </trkpt>
      <trkpt lat="39.395966" lon="-0.328681">
        <ele>0.765</ele>
        <time>2019-06-15T08:28:17Z</time>
      </trkpt>
      <trkpt lat="39.395901" lon="-0.328680">
        <ele>0.858</ele>
        <time>2019-06-15T08:28:19Z</time>
      </trkpt>
      <trkpt lat="39.395847" lon="-0.328679">
        <ele>0.840</ele>
        <time>2019-06-15T08:28:20Z</time>
      </trkpt>
      <trkpt lat="39.395773" lon="-0.328665">
        <ele>0.867</ele>
        <time>2019-06-15T08:28:22Z</time>
      </trkpt>
      <trkpt lat="39.395696" lon="-0.328647">
        <ele>0.846</ele>
        <time>2019-06-15T08:28:24Z</time>
      </trkpt>
      <trkpt lat="39.395612" lon="-0.328643">
        <ele>0.821</ele>
        <time>2019-06-15T08:28:26Z</time>
      </trkpt>
      <trkpt lat="39.395522" lon="-0.328640">
        <ele>0.813</ele>
        <time>2019-06-15T08:28:28Z</time>
      </trkpt>
      <trkpt lat="39.395473" lon="-0.328637">
        <ele>0.843</ele>
        <time>2019-06-15T08:28:29Z</time>
      </trkpt>
      <trkpt lat="39.395421" lon="-0.328622">
        <ele>0.907</ele>
        <time>2019-06-15T08:28:30Z</time>
      </trkpt>
      <trkpt lat="39.395365" lon="-0.328616">
        <ele>1.008</ele>
        <time>2019-06-15T08:28:31Z</time>
      </trkpt>
      <trkpt lat="39.395315" lon="-0.328611">
        <ele>1.024</ele>
        <time>2019-06-15T08:28:32Z</time>
      </trkpt>
      <trkpt lat="39.395260" lon="-0.328593">
        <ele>1.218</ele>
        <time>2019-06-15T08:28:33Z</time>
      </trkpt>
      <trkpt lat="39.395209" lon="-0.328585">
        <ele>1.287</ele>
        <time>2019-06-15T08:28:34Z</time>
      </trkpt>
      <trkpt lat="39.395149" lon="-0.328568">
        <ele>1.390</ele>
        <time>2019-06-15T08:28:35Z</time>
      </trkpt>
      <trkpt lat="39.395093" lon="-0.328557">
        <ele>1.392</ele>
        <time>2019-06-15T08:28:36Z</time>
      </trkpt>
      <trkpt lat="39.395037" lon="-0.328547">
        <ele>1.359</ele>
        <time>2019-06-15T08:28:37Z</time>
      </trkpt>
      <trkpt lat="39.394967" lon="-0.328589">
        <ele>1.018</ele>
        <time>2019-06-15T08:28:38Z</time>
      </trkpt>
      <trkpt lat="39.394913" lon="-0.328602">
        <ele>0.723</ele>
        <time>2019-06-15T08:28:39Z</time>
      </trkpt>
      <trkpt lat="39.394860" lon="-0.328601">
        <ele>0.578</ele>
        <time>2019-06-15T08:28:40Z</time>
      </trkpt>
      <trkpt lat="39.394799" lon="-0.328618">
        <ele>0.233</ele>
        <time>2019-06-15T08:28:41Z</time>
      </trkpt>
      <trkpt lat="39.394739" lon="-0.328620">
        <ele>0.026</ele>
        <time>2019-06-15T08:28:42Z</time>
      </trkpt>
      <trkpt lat="39.394680" lon="-0.328629">
        <ele>0.108</ele>
        <time>2019-06-15T08:28:43Z</time>
      </trkpt>
      <trkpt lat="39.394617" lon="-0.328636">
        <ele>0.380</ele>
        <time>2019-06-15T08:28:44Z</time>
      </trkpt>
      <trkpt lat="39.394557" lon="-0.328628">
        <ele>0.544</ele>
        <time>2019-06-15T08:28:45Z</time>
      </trkpt>
      <trkpt lat="39.394490" lon="-0.328623">
        <ele>0.883</ele>
        <time>2019-06-15T08:28:46Z</time>
      </trkpt>
      <trkpt lat="39.394431" lon="-0.328616">
        <ele>0.956</ele>
        <time>2019-06-15T08:28:47Z</time>
      </trkpt>
      <trkpt lat="39.394373" lon="-0.328613">
        <ele>0.728</ele>
        <time>2019-06-15T08:28:48Z</time>
      </trkpt>
      <trkpt lat="39.394313" lon="-0.328618">
        <ele>0.595</ele>
        <time>2019-06-15T08:28:49Z</time>
      </trkpt>
      <trkpt lat="39.394258" lon="-0.328616">
        <ele>0.374</ele>
        <time>2019-06-15T08:28:50Z</time>
      </trkpt>
      <trkpt lat="39.394196" lon="-0.328622">
        <ele>0.159</ele>
        <time>2019-06-15T08:28:51Z</time>
      </trkpt>
      <trkpt lat="39.394136" lon="-0.328625">
        <ele>0.044</ele>
        <time>2019-06-15T08:28:52Z</time>
      </trkpt>
      <trkpt lat="39.394075" lon="-0.328619">
        <ele>0.005</ele>
        <time>2019-06-15T08:28:53Z</time>
      </trkpt>
      <trkpt lat="39.394011" lon="-0.328619">
        <ele>0.015</ele>
        <time>2019-06-15T08:28:54Z</time>
      </trkpt>
      <trkpt lat="39.393950" lon="-0.328628">
        <ele>0.008</ele>
        <time>2019-06-15T08:28:55Z</time>
      </trkpt>
      <trkpt lat="39.393890" lon="-0.328650">
        <ele>0.027</ele>
        <time>2019-06-15T08:28:56Z</time>
      </trkpt>
      <trkpt lat="39.393832" lon="-0.328671">
        <ele>0.041</ele>
        <time>2019-06-15T08:28:57Z</time>
      </trkpt>
      <trkpt lat="39.393774" lon="-0.328691">
        <ele>0.190</ele>
        <time>2019-06-15T08:28:58Z</time>
      </trkpt>
      <trkpt lat="39.393628" lon="-0.328729">
        <ele>0.453</ele>
        <time>2019-06-15T08:29:01Z</time>
      </trkpt>
      <trkpt lat="39.393542" lon="-0.328719">
        <ele>0.565</ele>
        <time>2019-06-15T08:29:02Z</time>
      </trkpt>
      <trkpt lat="39.393483" lon="-0.328742">
        <ele>0.782</ele>
        <time>2019-06-15T08:29:03Z</time>
      </trkpt>
      <trkpt lat="39.393412" lon="-0.328725">
        <ele>0.741</ele>
        <time>2019-06-15T08:29:04Z</time>
      </trkpt>
      <trkpt lat="39.393348" lon="-0.328727">
        <ele>0.896</ele>
        <time>2019-06-15T08:29:05Z</time>
      </trkpt>
      <trkpt lat="39.393290" lon="-0.328740">
        <ele>1.065</ele>
        <time>2019-06-15T08:29:06Z</time>
      </trkpt>
      <trkpt lat="39.393226" lon="-0.328740">
        <ele>1.168</ele>
        <time>2019-06-15T08:29:07Z</time>
      </trkpt>
      <trkpt lat="39.393172" lon="-0.328748">
        <ele>1.314</ele>
        <time>2019-06-15T08:29:08Z</time>
      </trkpt>
      <trkpt lat="39.393108" lon="-0.328773">
        <ele>1.508</ele>
        <time>2019-06-15T08:29:09Z</time>
      </trkpt>
      <trkpt lat="39.393045" lon="-0.328776">
        <ele>1.639</ele>
        <time>2019-06-15T08:29:10Z</time>
      </trkpt>
      <trkpt lat="39.392980" lon="-0.328789">
        <ele>1.693</ele>
        <time>2019-06-15T08:29:11Z</time>
      </trkpt>
      <trkpt lat="39.392920" lon="-0.328793">
        <ele>1.542</ele>
        <time>2019-06-15T08:29:12Z</time>
      </trkpt>
      <trkpt lat="39.392860" lon="-0.328795">
        <ele>1.465</ele>
        <time>2019-06-15T08:29:13Z</time>
      </trkpt>
      <trkpt lat="39.392796" lon="-0.328805">
        <ele>1.327</ele>
        <time>2019-06-15T08:29:14Z</time>
      </trkpt>
      <trkpt lat="39.392736" lon="-0.328814">
        <ele>1.124</ele>
        <time>2019-06-15T08:29:15Z</time>
      </trkpt>
      <trkpt lat="39.392673" lon="-0.328822">
        <ele>0.973</ele>
        <time>2019-06-15T08:29:16Z</time>
      </trkpt>
      <trkpt lat="39.392610" lon="-0.328826">
        <ele>0.688</ele>
        <time>2019-06-15T08:29:17Z</time>
      </trkpt>
      <trkpt lat="39.392545" lon="-0.328829">
        <ele>0.453</ele>
        <time>2019-06-15T08:29:18Z</time>
      </trkpt>
      <trkpt lat="39.392481" lon="-0.328835">
        <ele>0.204</ele>
        <time>2019-06-15T08:29:19Z</time>
      </trkpt>
      <trkpt lat="39.392418" lon="-0.328845">
        <ele>0.114</ele>
        <time>2019-06-15T08:29:20Z</time>
      </trkpt>
      <trkpt lat="39.392354" lon="-0.328851">
        <ele>0.108</ele>
        <time>2019-06-15T08:29:21Z</time>
      </trkpt>
      <trkpt lat="39.392295" lon="-0.328871">
        <ele>0.038</ele>
        <time>2019-06-15T08:29:22Z</time>
      </trkpt>
      <trkpt lat="39.392227" lon="-0.328894">
        <ele>-0.042</ele>
        <time>2019-06-15T08:29:23Z</time>
      </trkpt>
      <trkpt lat="39.392169" lon="-0.328917">
        <ele>0.021</ele>
        <time>2019-06-15T08:29:24Z</time>
      </trkpt>
      <trkpt lat="39.392114" lon="-0.328963">
        <ele>0.154</ele>
        <time>2019-06-15T08:29:25Z</time>
      </trkpt>
      <trkpt lat="39.392063" lon="-0.329011">
        <ele>0.356</ele>
        <time>2019-06-15T08:29:26Z</time>
      </trkpt>
      <trkpt lat="39.392011" lon="-0.329048">
        <ele>0.413</ele>
        <time>2019-06-15T08:29:27Z</time>
      </trkpt>
      <trkpt lat="39.391962" lon="-0.329112">
        <ele>0.832</ele>
        <time>2019-06-15T08:29:28Z</time>
      </trkpt>
      <trkpt lat="39.391908" lon="-0.329149">
        <ele>0.987</ele>
        <time>2019-06-15T08:29:29Z</time>
      </trkpt>
      <trkpt lat="39.391861" lon="-0.329180">
        <ele>1.094</ele>
        <time>2019-06-15T08:29:30Z</time>
      </trkpt>
      <trkpt lat="39.391812" lon="-0.329228">
        <ele>1.157</ele>
        <time>2019-06-15T08:29:31Z</time>
      </trkpt>
      <trkpt lat="39.391762" lon="-0.329267">
        <ele>1.222</ele>
        <time>2019-06-15T08:29:32Z</time>
      </trkpt>
      <trkpt lat="39.391710" lon="-0.329309">
        <ele>1.408</ele>
        <time>2019-06-15T08:29:33Z</time>
      </trkpt>
      <trkpt lat="39.391663" lon="-0.329347">
        <ele>1.682</ele>
        <time>2019-06-15T08:29:34Z</time>
      </trkpt>
      <trkpt lat="39.391619" lon="-0.329391">
        <ele>1.746</ele>
        <time>2019-06-15T08:29:35Z</time>
      </trkpt>
      <trkpt lat="39.391569" lon="-0.329434">
        <ele>1.625</ele>
        <time>2019-06-15T08:29:36Z</time>
      </trkpt>
      <trkpt lat="39.391524" lon="-0.329469">
        <ele>1.488</ele>
        <time>2019-06-15T08:29:37Z</time>
      </trkpt>
      <trkpt lat="39.391473" lon="-0.329510">
        <ele>1.260</ele>
        <time>2019-06-15T08:29:38Z</time>
      </trkpt>
      <trkpt lat="39.391422" lon="-0.329548">
        <ele>1.157</ele>
        <time>2019-06-15T08:29:39Z</time>
      </trkpt>
      <trkpt lat="39.391369" lon="-0.329588">
        <ele>1.096</ele>
        <time>2019-06-15T08:29:40Z</time>
      </trkpt>
      <trkpt lat="39.391316" lon="-0.329627">
        <ele>1.091</ele>
        <time>2019-06-15T08:29:41Z</time>
      </trkpt>
      <trkpt lat="39.391258" lon="-0.329666">
        <ele>1.048</ele>
        <time>2019-06-15T08:29:42Z</time>
      </trkpt>
      <trkpt lat="39.391193" lon="-0.329700">
        <ele>1.061</ele>
        <time>2019-06-15T08:29:43Z</time>
      </trkpt>
      <trkpt lat="39.391141" lon="-0.329717">
        <ele>1.017</ele>
        <time>2019-06-15T08:29:44Z</time>
      </trkpt>
      <trkpt lat="39.391067" lon="-0.329785">
        <ele>1.108</ele>
        <time>2019-06-15T08:29:46Z</time>
      </trkpt>
      <trkpt lat="39.391007" lon="-0.329773">
        <ele>1.387</ele>
        <time>2019-06-15T08:29:47Z</time>
      </trkpt>
      <trkpt lat="39.390953" lon="-0.329862">
        <ele>1.351</ele>
        <time>2019-06-15T08:29:48Z</time>
      </trkpt>
      <trkpt lat="39.390894" lon="-0.329934">
        <ele>1.220</ele>
        <time>2019-06-15T08:29:49Z</time>
      </trkpt>
      <trkpt lat="39.390852" lon="-0.330010">
        <ele>1.013</ele>
        <time>2019-06-15T08:29:50Z</time>
      </trkpt>
      <trkpt lat="39.390789" lon="-0.330083">
        <ele>1.055</ele>
        <time>2019-06-15T08:29:51Z</time>
      </trkpt>
      <trkpt lat="39.390732" lon="-0.330150">
        <ele>0.842</ele>
        <time>2019-06-15T08:29:52Z</time>
      </trkpt>
      <trkpt lat="39.390650" lon="-0.330176">
        <ele>0.631</ele>
        <time>2019-06-15T08:29:54Z</time>
      </trkpt>
      <trkpt lat="39.390573" lon="-0.330213">
        <ele>0.366</ele>
        <time>2019-06-15T08:29:56Z</time>
      </trkpt>
      <trkpt lat="39.390512" lon="-0.330201">
        <ele>0.469</ele>
        <time>2019-06-15T08:29:57Z</time>
      </trkpt>
      <trkpt lat="39.390466" lon="-0.330228">
        <ele>0.504</ele>
        <time>2019-06-15T08:29:58Z</time>
      </trkpt>
      <trkpt lat="39.390423" lon="-0.330284">
        <ele>0.524</ele>
        <time>2019-06-15T08:29:59Z</time>
      </trkpt>
      <trkpt lat="39.390384" lon="-0.330380">
        <ele>0.608</ele>
        <time>2019-06-15T08:30:00Z</time>
      </trkpt>
      <trkpt lat="39.390373" lon="-0.330466">
        <ele>0.719</ele>
        <time>2019-06-15T08:30:02Z</time>
      </trkpt>
      <trkpt lat="39.390386" lon="-0.330563">
        <ele>0.663</ele>
        <time>2019-06-15T08:30:03Z</time>
      </trkpt>
      <trkpt lat="39.390387" lon="-0.330632">
        <ele>0.712</ele>
        <time>2019-06-15T08:30:04Z</time>
      </trkpt>
      <trkpt lat="39.390394" lon="-0.330731">
        <ele>0.845</ele>
        <time>2019-06-15T08:30:06Z</time>
      </trkpt>
      <trkpt lat="39.390363" lon="-0.330777">
        <ele>0.927</ele>
        <time>2019-06-15T08:30:09Z</time>
      </trkpt>
      <trkpt lat="39.390348" lon="-0.330843">
        <ele>1.074</ele>
        <time>2019-06-15T08:30:12Z</time>
      </trkpt>
      <trkpt lat="39.390299" lon="-0.330884">
        <ele>1.243</ele>
        <time>2019-06-15T08:30:14Z</time>
      </trkpt>
      <trkpt lat="39.390225" lon="-0.330905">
        <ele>1.528</ele>
        <time>2019-06-15T08:30:15Z</time>
      </trkpt>
      <trkpt lat="39.390145" lon="-0.330922">
        <ele>2.037</ele>
        <time>2019-06-15T08:30:17Z</time>
      </trkpt>
      <trkpt lat="39.390100" lon="-0.330931">
        <ele>2.249</ele>
        <time>2019-06-15T08:30:18Z</time>
      </trkpt>
      <trkpt lat="39.390052" lon="-0.330941">
        <ele>2.413</ele>
        <time>2019-06-15T08:30:19Z</time>
      </trkpt>
      <trkpt lat="39.389965" lon="-0.330940">
        <ele>2.708</ele>
        <time>2019-06-15T08:30:20Z</time>
      </trkpt>
      <trkpt lat="39.389912" lon="-0.330959">
        <ele>2.746</ele>
        <time>2019-06-15T08:30:21Z</time>
      </trkpt>
      <trkpt lat="39.389860" lon="-0.331007">
        <ele>2.690</ele>
        <time>2019-06-15T08:30:22Z</time>
      </trkpt>
      <trkpt lat="39.389776" lon="-0.331002">
        <ele>2.749</ele>
        <time>2019-06-15T08:30:24Z</time>
      </trkpt>
      <trkpt lat="39.389731" lon="-0.331011">
        <ele>2.732</ele>
        <time>2019-06-15T08:30:25Z</time>
      </trkpt>
      <trkpt lat="39.389642" lon="-0.331053">
        <ele>2.714</ele>
        <time>2019-06-15T08:30:27Z</time>
      </trkpt>
      <trkpt lat="39.389582" lon="-0.331078">
        <ele>2.731</ele>
        <time>2019-06-15T08:30:28Z</time>
      </trkpt>
      <trkpt lat="39.389524" lon="-0.331123">
        <ele>2.640</ele>
        <time>2019-06-15T08:30:29Z</time>
      </trkpt>
      <trkpt lat="39.389468" lon="-0.331152">
        <ele>2.515</ele>
        <time>2019-06-15T08:30:30Z</time>
      </trkpt>
      <trkpt lat="39.389375" lon="-0.331168">
        <ele>2.432</ele>
        <time>2019-06-15T08:30:32Z</time>
      </trkpt>
      <trkpt lat="39.389322" lon="-0.331170">
        <ele>2.592</ele>
        <time>2019-06-15T08:30:33Z</time>
      </trkpt>
      <trkpt lat="39.389265" lon="-0.331184">
        <ele>2.411</ele>
        <time>2019-06-15T08:30:34Z</time>
      </trkpt>
      <trkpt lat="39.389213" lon="-0.331163">
        <ele>2.608</ele>
        <time>2019-06-15T08:30:35Z</time>
      </trkpt>
      <trkpt lat="39.389165" lon="-0.331146">
        <ele>2.836</ele>
        <time>2019-06-15T08:30:36Z</time>
      </trkpt>
      <trkpt lat="39.389130" lon="-0.331105">
        <ele>3.090</ele>
        <time>2019-06-15T08:30:37Z</time>
      </trkpt>
      <trkpt lat="39.389087" lon="-0.331087">
        <ele>3.139</ele>
        <time>2019-06-15T08:30:38Z</time>
      </trkpt>
      <trkpt lat="39.388993" lon="-0.331136">
        <ele>2.952</ele>
        <time>2019-06-15T08:30:41Z</time>
      </trkpt>
      <trkpt lat="39.388915" lon="-0.331190">
        <ele>2.724</ele>
        <time>2019-06-15T08:30:43Z</time>
      </trkpt>
      <trkpt lat="39.388880" lon="-0.331242">
        <ele>2.511</ele>
        <time>2019-06-15T08:30:44Z</time>
      </trkpt>
      <trkpt lat="39.388832" lon="-0.331273">
        <ele>2.470</ele>
        <time>2019-06-15T08:30:45Z</time>
      </trkpt>
      <trkpt lat="39.388755" lon="-0.331338">
        <ele>2.235</ele>
        <time>2019-06-15T08:30:47Z</time>
      </trkpt>
      <trkpt lat="39.388696" lon="-0.331335">
        <ele>2.299</ele>
        <time>2019-06-15T08:30:48Z</time>
      </trkpt>
      <trkpt lat="39.388647" lon="-0.331348">
        <ele>2.107</ele>
        <time>2019-06-15T08:30:49Z</time>
      </trkpt>
      <trkpt lat="39.388564" lon="-0.331348">
        <ele>2.127</ele>
        <time>2019-06-15T08:30:51Z</time>
      </trkpt>
      <trkpt lat="39.388533" lon="-0.331403">
        <ele>1.908</ele>
        <time>2019-06-15T08:30:56Z</time>
      </trkpt>
      <trkpt lat="39.388488" lon="-0.331374">
        <ele>2.162</ele>
        <time>2019-06-15T08:31:09Z</time>
      </trkpt>
      <trkpt lat="39.388493" lon="-0.331302">
        <ele>2.336</ele>
        <time>2019-06-15T08:31:14Z</time>
      </trkpt>
      <trkpt lat="39.388517" lon="-0.331253">
        <ele>2.515</ele>
        <time>2019-06-15T08:31:17Z</time>
      </trkpt>
      <trkpt lat="39.388386" lon="-0.331305">
        <ele>2.388</ele>
        <time>2019-06-15T08:31:21Z</time>
      </trkpt>
      <trkpt lat="39.388334" lon="-0.331340">
        <ele>2.240</ele>
        <time>2019-06-15T08:31:22Z</time>
      </trkpt>
      <trkpt lat="39.388280" lon="-0.331379">
        <ele>2.297</ele>
        <time>2019-06-15T08:31:23Z</time>
      </trkpt>
      <trkpt lat="39.388227" lon="-0.331415">
        <ele>2.276</ele>
        <time>2019-06-15T08:31:24Z</time>
      </trkpt>
      <trkpt lat="39.388150" lon="-0.331514">
        <ele>1.571</ele>
        <time>2019-06-15T08:31:25Z</time>
      </trkpt>
      <trkpt lat="39.388101" lon="-0.331522">
        <ele>1.562</ele>
        <time>2019-06-15T08:31:26Z</time>
      </trkpt>
      <trkpt lat="39.388000" lon="-0.331550">
        <ele>1.383</ele>
        <time>2019-06-15T08:31:28Z</time>
      </trkpt>
      <trkpt lat="39.388000" lon="-0.331550">
        <ele>1.311</ele>
        <time>2019-06-15T08:31:28Z</time>
      </trkpt>
      <trkpt lat="39.387947" lon="-0.331599">
        <ele>0.808</ele>
        <time>2019-06-15T08:31:29Z</time>
      </trkpt>
      <trkpt lat="39.387830" lon="-0.331638">
        <ele>0.419</ele>
        <time>2019-06-15T08:31:31Z</time>
      </trkpt>
      <trkpt lat="39.387756" lon="-0.331667">
        <ele>0.223</ele>
        <time>2019-06-15T08:31:32Z</time>
      </trkpt>
      <trkpt lat="39.387702" lon="-0.331670">
        <ele>0.812</ele>
        <time>2019-06-15T08:31:33Z</time>
      </trkpt>
      <trkpt lat="39.387655" lon="-0.331648">
        <ele>1.625</ele>
        <time>2019-06-15T08:31:34Z</time>
      </trkpt>
      <trkpt lat="39.387605" lon="-0.331647">
        <ele>2.157</ele>
        <time>2019-06-15T08:31:35Z</time>
      </trkpt>
      <trkpt lat="39.387562" lon="-0.331674">
        <ele>2.374</ele>
        <time>2019-06-15T08:31:36Z</time>
      </trkpt>
      <trkpt lat="39.387508" lon="-0.331713">
        <ele>2.693</ele>
        <time>2019-06-15T08:31:37Z</time>
      </trkpt>
      <trkpt lat="39.387456" lon="-0.331737">
        <ele>2.628</ele>
        <time>2019-06-15T08:31:38Z</time>
      </trkpt>
      <trkpt lat="39.387402" lon="-0.331774">
        <ele>2.491</ele>
        <time>2019-06-15T08:31:39Z</time>
      </trkpt>
      <trkpt lat="39.387346" lon="-0.331763">
        <ele>2.781</ele>
        <time>2019-06-15T08:31:40Z</time>
      </trkpt>
      <trkpt lat="39.387289" lon="-0.331783">
        <ele>2.619</ele>
        <time>2019-06-15T08:31:41Z</time>
      </trkpt>
      <trkpt lat="39.387228" lon="-0.331801">
        <ele>2.508</ele>
        <time>2019-06-15T08:31:42Z</time>
      </trkpt>
      <trkpt lat="39.387182" lon="-0.331805">
        <ele>2.742</ele>
        <time>2019-06-15T08:31:43Z</time>
      </trkpt>
      <trkpt lat="39.387128" lon="-0.331808">
        <ele>2.856</ele>
        <time>2019-06-15T08:31:44Z</time>
      </trkpt>
      <trkpt lat="39.387040" lon="-0.331808">
        <ele>3.165</ele>
        <time>2019-06-15T08:31:46Z</time>
      </trkpt>
      <trkpt lat="39.386935" lon="-0.331812">
        <ele>3.478</ele>
        <time>2019-06-15T08:31:48Z</time>
      </trkpt>
      <trkpt lat="39.386886" lon="-0.331822">
        <ele>3.370</ele>
        <time>2019-06-15T08:31:49Z</time>
      </trkpt>
      <trkpt lat="39.386840" lon="-0.331815">
        <ele>3.487</ele>
        <time>2019-06-15T08:31:50Z</time>
      </trkpt>
      <trkpt lat="39.386785" lon="-0.331821">
        <ele>3.396</ele>
        <time>2019-06-15T08:31:51Z</time>
      </trkpt>
      <trkpt lat="39.386737" lon="-0.331816">
        <ele>3.441</ele>
        <time>2019-06-15T08:31:52Z</time>
      </trkpt>
      <trkpt lat="39.386681" lon="-0.331809">
        <ele>3.549</ele>
        <time>2019-06-15T08:31:53Z</time>
      </trkpt>
      <trkpt lat="39.386624" lon="-0.331815">
        <ele>3.402</ele>
        <time>2019-06-15T08:31:54Z</time>
      </trkpt>
      <trkpt lat="39.386529" lon="-0.331819">
        <ele>3.422</ele>
        <time>2019-06-15T08:31:56Z</time>
      </trkpt>
      <trkpt lat="39.386483" lon="-0.331818">
        <ele>3.408</ele>
        <time>2019-06-15T08:31:57Z</time>
      </trkpt>
      <trkpt lat="39.386424" lon="-0.331829">
        <ele>3.297</ele>
        <time>2019-06-15T08:31:58Z</time>
      </trkpt>
      <trkpt lat="39.386363" lon="-0.331830">
        <ele>3.191</ele>
        <time>2019-06-15T08:31:59Z</time>
      </trkpt>
      <trkpt lat="39.386314" lon="-0.331829">
        <ele>2.970</ele>
        <time>2019-06-15T08:32:00Z</time>
      </trkpt>
      <trkpt lat="39.386264" lon="-0.331823">
        <ele>2.713</ele>
        <time>2019-06-15T08:32:01Z</time>
      </trkpt>
      <trkpt lat="39.386211" lon="-0.331836">
        <ele>2.335</ele>
        <time>2019-06-15T08:32:02Z</time>
      </trkpt>
      <trkpt lat="39.386157" lon="-0.331836">
        <ele>2.062</ele>
        <time>2019-06-15T08:32:03Z</time>
      </trkpt>
      <trkpt lat="39.386092" lon="-0.331877">
        <ele>1.471</ele>
        <time>2019-06-15T08:32:04Z</time>
      </trkpt>
      <trkpt lat="39.386011" lon="-0.331928">
        <ele>0.826</ele>
        <time>2019-06-15T08:32:05Z</time>
      </trkpt>
      <trkpt lat="39.385962" lon="-0.331937">
        <ele>0.562</ele>
        <time>2019-06-15T08:32:06Z</time>
      </trkpt>
      <trkpt lat="39.385935" lon="-0.331855">
        <ele>1.083</ele>
        <time>2019-06-15T08:32:07Z</time>
      </trkpt>
      <trkpt lat="39.385861" lon="-0.331938">
        <ele>0.111</ele>
        <time>2019-06-15T08:32:08Z</time>
      </trkpt>
      <trkpt lat="39.385821" lon="-0.331900">
        <ele>0.308</ele>
        <time>2019-06-15T08:32:09Z</time>
      </trkpt>
      <trkpt lat="39.385781" lon="-0.331848">
        <ele>0.749</ele>
        <time>2019-06-15T08:32:10Z</time>
      </trkpt>
      <trkpt lat="39.385702" lon="-0.331907">
        <ele>0.343</ele>
        <time>2019-06-15T08:32:11Z</time>
      </trkpt>
      <trkpt lat="39.385651" lon="-0.331900">
        <ele>0.352</ele>
        <time>2019-06-15T08:32:12Z</time>
      </trkpt>
      <trkpt lat="39.385596" lon="-0.331891">
        <ele>0.455</ele>
        <time>2019-06-15T08:32:13Z</time>
      </trkpt>
      <trkpt lat="39.385546" lon="-0.331893">
        <ele>0.497</ele>
        <time>2019-06-15T08:32:14Z</time>
      </trkpt>
      <trkpt lat="39.385476" lon="-0.331904">
        <ele>0.654</ele>
        <time>2019-06-15T08:32:15Z</time>
      </trkpt>
      <trkpt lat="39.385426" lon="-0.331919">
        <ele>0.763</ele>
        <time>2019-06-15T08:32:16Z</time>
      </trkpt>
      <trkpt lat="39.385370" lon="-0.331923">
        <ele>0.838</ele>
        <time>2019-06-15T08:32:17Z</time>
      </trkpt>
      <trkpt lat="39.385318" lon="-0.331926">
        <ele>1.018</ele>
        <time>2019-06-15T08:32:18Z</time>
      </trkpt>
      <trkpt lat="39.385263" lon="-0.331928">
        <ele>1.198</ele>
        <time>2019-06-15T08:32:19Z</time>
      </trkpt>
      <trkpt lat="39.385216" lon="-0.331935">
        <ele>1.117</ele>
        <time>2019-06-15T08:32:20Z</time>
      </trkpt>
      <trkpt lat="39.385168" lon="-0.331944">
        <ele>1.008</ele>
        <time>2019-06-15T08:32:21Z</time>
      </trkpt>
      <trkpt lat="39.385114" lon="-0.331953">
        <ele>1.094</ele>
        <time>2019-06-15T08:32:22Z</time>
      </trkpt>
      <trkpt lat="39.385065" lon="-0.331975">
        <ele>1.048</ele>
        <time>2019-06-15T08:32:23Z</time>
      </trkpt>
      <trkpt lat="39.385009" lon="-0.331991">
        <ele>1.087</ele>
        <time>2019-06-15T08:32:24Z</time>
      </trkpt>
      <trkpt lat="39.384965" lon="-0.332009">
        <ele>1.330</ele>
        <time>2019-06-15T08:32:25Z</time>
      </trkpt>
      <trkpt lat="39.384914" lon="-0.332029">
        <ele>1.672</ele>
        <time>2019-06-15T08:32:26Z</time>
      </trkpt>
      <trkpt lat="39.384821" lon="-0.332062">
        <ele>2.379</ele>
        <time>2019-06-15T08:32:28Z</time>
      </trkpt>
      <trkpt lat="39.384770" lon="-0.332082">
        <ele>2.718</ele>
        <time>2019-06-15T08:32:29Z</time>
      </trkpt>
      <trkpt lat="39.384722" lon="-0.332098">
        <ele>3.093</ele>
        <time>2019-06-15T08:32:30Z</time>
      </trkpt>
      <trkpt lat="39.384675" lon="-0.332112">
        <ele>3.272</ele>
        <time>2019-06-15T08:32:31Z</time>
      </trkpt>
      <trkpt lat="39.384625" lon="-0.332131">
        <ele>3.513</ele>
        <time>2019-06-15T08:32:32Z</time>
      </trkpt>
      <trkpt lat="39.384573" lon="-0.332147">
        <ele>3.714</ele>
        <time>2019-06-15T08:32:33Z</time>
      </trkpt>
      <trkpt lat="39.384486" lon="-0.332190">
        <ele>3.908</ele>
        <time>2019-06-15T08:32:35Z</time>
      </trkpt>
      <trkpt lat="39.384441" lon="-0.332202">
        <ele>4.130</ele>
        <time>2019-06-15T08:32:36Z</time>
      </trkpt>
      <trkpt lat="39.384356" lon="-0.332243">
        <ele>4.014</ele>
        <time>2019-06-15T08:32:38Z</time>
      </trkpt>
      <trkpt lat="39.384314" lon="-0.332267">
        <ele>3.963</ele>
        <time>2019-06-15T08:32:39Z</time>
      </trkpt>
      <trkpt lat="39.384268" lon="-0.332293">
        <ele>3.886</ele>
        <time>2019-06-15T08:32:40Z</time>
      </trkpt>
      <trkpt lat="39.384217" lon="-0.332320">
        <ele>3.758</ele>
        <time>2019-06-15T08:32:41Z</time>
      </trkpt>
      <trkpt lat="39.384158" lon="-0.332331">
        <ele>3.615</ele>
        <time>2019-06-15T08:32:42Z</time>
      </trkpt>
      <trkpt lat="39.384081" lon="-0.332354">
        <ele>3.434</ele>
        <time>2019-06-15T08:32:43Z</time>
      </trkpt>
      <trkpt lat="39.384019" lon="-0.332398">
        <ele>3.269</ele>
        <time>2019-06-15T08:32:45Z</time>
      </trkpt>
      <trkpt lat="39.383967" lon="-0.332380">
        <ele>3.144</ele>
        <time>2019-06-15T08:32:46Z</time>
      </trkpt>
      <trkpt lat="39.383868" lon="-0.332375">
        <ele>3.105</ele>
        <time>2019-06-15T08:32:48Z</time>
      </trkpt>
      <trkpt lat="39.383802" lon="-0.332393">
        <ele>3.315</ele>
        <time>2019-06-15T08:32:49Z</time>
      </trkpt>
      <trkpt lat="39.383758" lon="-0.332365">
        <ele>3.508</ele>
        <time>2019-06-15T08:32:50Z</time>
      </trkpt>
      <trkpt lat="39.383710" lon="-0.332338">
        <ele>3.617</ele>
        <time>2019-06-15T08:32:51Z</time>
      </trkpt>
      <trkpt lat="39.383656" lon="-0.332328">
        <ele>3.831</ele>
        <time>2019-06-15T08:32:52Z</time>
      </trkpt>
      <trkpt lat="39.383584" lon="-0.332328">
        <ele>4.180</ele>
        <time>2019-06-15T08:32:53Z</time>
      </trkpt>
      <trkpt lat="39.383532" lon="-0.332327">
        <ele>4.343</ele>
        <time>2019-06-15T08:32:54Z</time>
      </trkpt>
      <trkpt lat="39.383489" lon="-0.332308">
        <ele>4.475</ele>
        <time>2019-06-15T08:32:55Z</time>
      </trkpt>
      <trkpt lat="39.383401" lon="-0.332287">
        <ele>4.852</ele>
        <time>2019-06-15T08:32:57Z</time>
      </trkpt>
      <trkpt lat="39.383352" lon="-0.332281">
        <ele>4.951</ele>
        <time>2019-06-15T08:32:58Z</time>
      </trkpt>
      <trkpt lat="39.383306" lon="-0.332244">
        <ele>5.056</ele>
        <time>2019-06-15T08:32:59Z</time>
      </trkpt>
      <trkpt lat="39.383218" lon="-0.332233">
        <ele>5.064</ele>
        <time>2019-06-15T08:33:01Z</time>
      </trkpt>
      <trkpt lat="39.383169" lon="-0.332243">
        <ele>5.006</ele>
        <time>2019-06-15T08:33:02Z</time>
      </trkpt>
      <trkpt lat="39.383103" lon="-0.332243">
        <ele>5.016</ele>
        <time>2019-06-15T08:33:03Z</time>
      </trkpt>
      <trkpt lat="39.383051" lon="-0.332271">
        <ele>5.008</ele>
        <time>2019-06-15T08:33:04Z</time>
      </trkpt>
      <trkpt lat="39.383007" lon="-0.332252">
        <ele>5.089</ele>
        <time>2019-06-15T08:33:05Z</time>
      </trkpt>
      <trkpt lat="39.382960" lon="-0.332249">
        <ele>5.073</ele>
        <time>2019-06-15T08:33:06Z</time>
      </trkpt>
      <trkpt lat="39.382872" lon="-0.332232">
        <ele>5.022</ele>
        <time>2019-06-15T08:33:08Z</time>
      </trkpt>
      <trkpt lat="39.382841" lon="-0.332178">
        <ele>5.285</ele>
        <time>2019-06-15T08:33:09Z</time>
      </trkpt>
      <trkpt lat="39.382807" lon="-0.332125">
        <ele>5.387</ele>
        <time>2019-06-15T08:33:11Z</time>
      </trkpt>
      <trkpt lat="39.382766" lon="-0.332089">
        <ele>5.444</ele>
        <time>2019-06-15T08:33:14Z</time>
      </trkpt>
      <trkpt lat="39.382721" lon="-0.332069">
        <ele>5.223</ele>
        <time>2019-06-15T08:35:30Z</time>
      </trkpt>
      <trkpt lat="39.382667" lon="-0.332066">
        <ele>4.958</ele>
        <time>2019-06-15T08:35:34Z</time>
      </trkpt>
      <trkpt lat="39.382625" lon="-0.332044">
        <ele>4.718</ele>
        <time>2019-06-15T08:35:45Z</time>
      </trkpt>
      <trkpt lat="39.382670" lon="-0.332072">
        <ele>4.998</ele>
        <time>2019-06-15T08:35:54Z</time>
      </trkpt>
      <trkpt lat="39.382722" lon="-0.332143">
        <ele>5.017</ele>
        <time>2019-06-15T08:35:56Z</time>
      </trkpt>
      <trkpt lat="39.382755" lon="-0.332223">
        <ele>4.908</ele>
        <time>2019-06-15T08:35:58Z</time>
      </trkpt>
      <trkpt lat="39.382768" lon="-0.332377">
        <ele>5.014</ele>
        <time>2019-06-15T08:36:00Z</time>
      </trkpt>
      <trkpt lat="39.382723" lon="-0.332415">
        <ele>4.838</ele>
        <time>2019-06-15T08:36:01Z</time>
      </trkpt>
      <trkpt lat="39.382675" lon="-0.332442">
        <ele>4.697</ele>
        <time>2019-06-15T08:36:02Z</time>
      </trkpt>
      <trkpt lat="39.382627" lon="-0.332462">
        <ele>4.570</ele>
        <time>2019-06-15T08:36:03Z</time>
      </trkpt>
      <trkpt lat="39.382576" lon="-0.332476">
        <ele>4.392</ele>
        <time>2019-06-15T08:36:04Z</time>
      </trkpt>
      <trkpt lat="39.382496" lon="-0.332475">
        <ele>4.049</ele>
        <time>2019-06-15T08:36:05Z</time>
      </trkpt>
      <trkpt lat="39.382401" lon="-0.332445">
        <ele>3.648</ele>
        <time>2019-06-15T08:36:07Z</time>
      </trkpt>
      <trkpt lat="39.382355" lon="-0.332427">
        <ele>3.573</ele>
        <time>2019-06-15T08:36:08Z</time>
      </trkpt>
      <trkpt lat="39.382270" lon="-0.332414">
        <ele>3.257</ele>
        <time>2019-06-15T08:36:10Z</time>
      </trkpt>
      <trkpt lat="39.382213" lon="-0.332384">
        <ele>3.000</ele>
        <time>2019-06-15T08:36:11Z</time>
      </trkpt>
      <trkpt lat="39.382159" lon="-0.332384">
        <ele>3.020</ele>
        <time>2019-06-15T08:36:12Z</time>
      </trkpt>
      <trkpt lat="39.382108" lon="-0.332383">
        <ele>3.008</ele>
        <time>2019-06-15T08:36:13Z</time>
      </trkpt>
      <trkpt lat="39.382068" lon="-0.332428">
        <ele>3.088</ele>
        <time>2019-06-15T08:36:14Z</time>
      </trkpt>
      <trkpt lat="39.382004" lon="-0.332399">
        <ele>3.072</ele>
        <time>2019-06-15T08:36:15Z</time>
      </trkpt>
      <trkpt lat="39.381947" lon="-0.332396">
        <ele>3.021</ele>
        <time>2019-06-15T08:36:16Z</time>
      </trkpt>
      <trkpt lat="39.381885" lon="-0.332381">
        <ele>2.774</ele>
        <time>2019-06-15T08:36:17Z</time>
      </trkpt>
      <trkpt lat="39.381764" lon="-0.332298">
        <ele>1.976</ele>
        <time>2019-06-15T08:36:19Z</time>
      </trkpt>
      <trkpt lat="39.381649" lon="-0.332264">
        <ele>1.023</ele>
        <time>2019-06-15T08:36:20Z</time>
      </trkpt>
      <trkpt lat="39.381613" lon="-0.332320">
        <ele>1.052</ele>
        <time>2019-06-15T08:36:21Z</time>
      </trkpt>
      <trkpt lat="39.381567" lon="-0.332370">
        <ele>0.817</ele>
        <time>2019-06-15T08:36:22Z</time>
      </trkpt>
      <trkpt lat="39.381509" lon="-0.332325">
        <ele>0.272</ele>
        <time>2019-06-15T08:36:23Z</time>
      </trkpt>
      <trkpt lat="39.381447" lon="-0.332370">
        <ele>-0.113</ele>
        <time>2019-06-15T08:36:24Z</time>
      </trkpt>
      <trkpt lat="39.381390" lon="-0.332363">
        <ele>-0.514</ele>
        <time>2019-06-15T08:36:25Z</time>
      </trkpt>
      <trkpt lat="39.381330" lon="-0.332348">
        <ele>-0.508</ele>
        <time>2019-06-15T08:36:26Z</time>
      </trkpt>
      <trkpt lat="39.381281" lon="-0.332325">
        <ele>-0.530</ele>
        <time>2019-06-15T08:36:27Z</time>
      </trkpt>
      <trkpt lat="39.381220" lon="-0.332330">
        <ele>-0.534</ele>
        <time>2019-06-15T08:36:28Z</time>
      </trkpt>
      <trkpt lat="39.381152" lon="-0.332356">
        <ele>-0.533</ele>
        <time>2019-06-15T08:36:29Z</time>
      </trkpt>
      <trkpt lat="39.381095" lon="-0.332353">
        <ele>-0.586</ele>
        <time>2019-06-15T08:36:30Z</time>
      </trkpt>
      <trkpt lat="39.381043" lon="-0.332355">
        <ele>-0.648</ele>
        <time>2019-06-15T08:36:31Z</time>
      </trkpt>
      <trkpt lat="39.380992" lon="-0.332324">
        <ele>-0.545</ele>
        <time>2019-06-15T08:36:32Z</time>
      </trkpt>
      <trkpt lat="39.380945" lon="-0.332351">
        <ele>-0.724</ele>
        <time>2019-06-15T08:36:33Z</time>
      </trkpt>
      <trkpt lat="39.380886" lon="-0.332329">
        <ele>-0.729</ele>
        <time>2019-06-15T08:36:34Z</time>
      </trkpt>
      <trkpt lat="39.380837" lon="-0.332324">
        <ele>-0.736</ele>
        <time>2019-06-15T08:36:35Z</time>
      </trkpt>
      <trkpt lat="39.380791" lon="-0.332313">
        <ele>-0.717</ele>
        <time>2019-06-15T08:36:36Z</time>
      </trkpt>
      <trkpt lat="39.380743" lon="-0.332302">
        <ele>-0.618</ele>
        <time>2019-06-15T08:36:37Z</time>
      </trkpt>
      <trkpt lat="39.380691" lon="-0.332279">
        <ele>-0.408</ele>
        <time>2019-06-15T08:36:38Z</time>
      </trkpt>
      <trkpt lat="39.380611" lon="-0.332236">
        <ele>-0.136</ele>
        <time>2019-06-15T08:36:39Z</time>
      </trkpt>
      <trkpt lat="39.380565" lon="-0.332273">
        <ele>-0.420</ele>
        <time>2019-06-15T08:36:40Z</time>
      </trkpt>
      <trkpt lat="39.380492" lon="-0.332230">
        <ele>-0.129</ele>
        <time>2019-06-15T08:36:41Z</time>
      </trkpt>
      <trkpt lat="39.380406" lon="-0.332216">
        <ele>0.062</ele>
        <time>2019-06-15T08:36:43Z</time>
      </trkpt>
      <trkpt lat="39.380358" lon="-0.332198">
        <ele>0.034</ele>
        <time>2019-06-15T08:36:44Z</time>
      </trkpt>
      <trkpt lat="39.380306" lon="-0.332194">
        <ele>0.031</ele>
        <time>2019-06-15T08:36:45Z</time>
      </trkpt>
      <trkpt lat="39.380245" lon="-0.332197">
        <ele>0.020</ele>
        <time>2019-06-15T08:36:46Z</time>
      </trkpt>
      <trkpt lat="39.380198" lon="-0.332187">
        <ele>0.155</ele>
        <time>2019-06-15T08:36:47Z</time>
      </trkpt>
      <trkpt lat="39.380143" lon="-0.332192">
        <ele>0.198</ele>
        <time>2019-06-15T08:36:48Z</time>
      </trkpt>
      <trkpt lat="39.380088" lon="-0.332191">
        <ele>0.215</ele>
        <time>2019-06-15T08:36:49Z</time>
      </trkpt>
      <trkpt lat="39.380015" lon="-0.332179">
        <ele>0.326</ele>
        <time>2019-06-15T08:36:50Z</time>
      </trkpt>
      <trkpt lat="39.379930" lon="-0.332164">
        <ele>0.708</ele>
        <time>2019-06-15T08:36:51Z</time>
      </trkpt>
      <trkpt lat="39.379871" lon="-0.332160">
        <ele>0.982</ele>
        <time>2019-06-15T08:36:52Z</time>
      </trkpt>
      <trkpt lat="39.379823" lon="-0.332155">
        <ele>1.166</ele>
        <time>2019-06-15T08:36:53Z</time>
      </trkpt>
      <trkpt lat="39.379758" lon="-0.332150">
        <ele>1.415</ele>
        <time>2019-06-15T08:36:54Z</time>
      </trkpt>
      <trkpt lat="39.379709" lon="-0.332145">
        <ele>1.688</ele>
        <time>2019-06-15T08:36:55Z</time>
      </trkpt>
      <trkpt lat="39.379650" lon="-0.332128">
        <ele>1.740</ele>
        <time>2019-06-15T08:36:56Z</time>
      </trkpt>
      <trkpt lat="39.379599" lon="-0.332125">
        <ele>1.767</ele>
        <time>2019-06-15T08:36:57Z</time>
      </trkpt>
      <trkpt lat="39.379546" lon="-0.332114">
        <ele>1.856</ele>
        <time>2019-06-15T08:36:58Z</time>
      </trkpt>
      <trkpt lat="39.379480" lon="-0.332115">
        <ele>1.891</ele>
        <time>2019-06-15T08:36:59Z</time>
      </trkpt>
      <trkpt lat="39.379421" lon="-0.332125">
        <ele>1.694</ele>
        <time>2019-06-15T08:37:00Z</time>
      </trkpt>
      <trkpt lat="39.379371" lon="-0.332111">
        <ele>1.457</ele>
        <time>2019-06-15T08:37:01Z</time>
      </trkpt>
      <trkpt lat="39.379319" lon="-0.332104">
        <ele>1.222</ele>
        <time>2019-06-15T08:37:02Z</time>
      </trkpt>
      <trkpt lat="39.379267" lon="-0.332095">
        <ele>1.008</ele>
        <time>2019-06-15T08:37:03Z</time>
      </trkpt>
      <trkpt lat="39.379222" lon="-0.332084">
        <ele>0.832</ele>
        <time>2019-06-15T08:37:04Z</time>
      </trkpt>
      <trkpt lat="39.379166" lon="-0.332065">
        <ele>0.646</ele>
        <time>2019-06-15T08:37:05Z</time>
      </trkpt>
      <trkpt lat="39.379102" lon="-0.332054">
        <ele>0.115</ele>
        <time>2019-06-15T08:37:06Z</time>
      </trkpt>
      <trkpt lat="39.379054" lon="-0.332030">
        <ele>-0.128</ele>
        <time>2019-06-15T08:37:07Z</time>
      </trkpt>
      <trkpt lat="39.379005" lon="-0.332018">
        <ele>-0.490</ele>
        <time>2019-06-15T08:37:08Z</time>
      </trkpt>
      <trkpt lat="39.378956" lon="-0.331991">
        <ele>-0.717</ele>
        <time>2019-06-15T08:37:09Z</time>
      </trkpt>
      <trkpt lat="39.378909" lon="-0.331972">
        <ele>-1.086</ele>
        <time>2019-06-15T08:37:10Z</time>
      </trkpt>
      <trkpt lat="39.378847" lon="-0.331967">
        <ele>-1.251</ele>
        <time>2019-06-15T08:37:11Z</time>
      </trkpt>
      <trkpt lat="39.378788" lon="-0.331969">
        <ele>-1.526</ele>
        <time>2019-06-15T08:37:12Z</time>
      </trkpt>
      <trkpt lat="39.378725" lon="-0.331964">
        <ele>-1.747</ele>
        <time>2019-06-15T08:37:13Z</time>
      </trkpt>
      <trkpt lat="39.378671" lon="-0.331947">
        <ele>-1.811</ele>
        <time>2019-06-15T08:37:14Z</time>
      </trkpt>
      <trkpt lat="39.378609" lon="-0.331944">
        <ele>-2.008</ele>
        <time>2019-06-15T08:37:15Z</time>
      </trkpt>
      <trkpt lat="39.378550" lon="-0.331932">
        <ele>-1.725</ele>
        <time>2019-06-15T08:37:16Z</time>
      </trkpt>
      <trkpt lat="39.378490" lon="-0.331917">
        <ele>-1.459</ele>
        <time>2019-06-15T08:37:17Z</time>
      </trkpt>
      <trkpt lat="39.378438" lon="-0.331906">
        <ele>-1.118</ele>
        <time>2019-06-15T08:37:18Z</time>
      </trkpt>
      <trkpt lat="39.378387" lon="-0.331895">
        <ele>-0.831</ele>
        <time>2019-06-15T08:37:19Z</time>
      </trkpt>
      <trkpt lat="39.378324" lon="-0.331893">
        <ele>-0.683</ele>
        <time>2019-06-15T08:37:20Z</time>
      </trkpt>
      <trkpt lat="39.378278" lon="-0.331886">
        <ele>-0.370</ele>
        <time>2019-06-15T08:37:21Z</time>
      </trkpt>
      <trkpt lat="39.378225" lon="-0.331885">
        <ele>-0.139</ele>
        <time>2019-06-15T08:37:22Z</time>
      </trkpt>
      <trkpt lat="39.378165" lon="-0.331871">
        <ele>0.374</ele>
        <time>2019-06-15T08:37:23Z</time>
      </trkpt>
      <trkpt lat="39.378099" lon="-0.331847">
        <ele>0.863</ele>
        <time>2019-06-15T08:37:24Z</time>
      </trkpt>
      <trkpt lat="39.378035" lon="-0.331842">
        <ele>1.144</ele>
        <time>2019-06-15T08:37:25Z</time>
      </trkpt>
      <trkpt lat="39.377990" lon="-0.331824">
        <ele>1.418</ele>
        <time>2019-06-15T08:37:26Z</time>
      </trkpt>
      <trkpt lat="39.377928" lon="-0.331807">
        <ele>1.708</ele>
        <time>2019-06-15T08:37:27Z</time>
      </trkpt>
      <trkpt lat="39.377877" lon="-0.331792">
        <ele>2.039</ele>
        <time>2019-06-15T08:37:28Z</time>
      </trkpt>
      <trkpt lat="39.377825" lon="-0.331783">
        <ele>2.293</ele>
        <time>2019-06-15T08:37:29Z</time>
      </trkpt>
      <trkpt lat="39.377774" lon="-0.331773">
        <ele>2.482</ele>
        <time>2019-06-15T08:37:30Z</time>
      </trkpt>
      <trkpt lat="39.377716" lon="-0.331755">
        <ele>2.265</ele>
        <time>2019-06-15T08:37:31Z</time>
      </trkpt>
      <trkpt lat="39.377659" lon="-0.331745">
        <ele>1.867</ele>
        <time>2019-06-15T08:37:32Z</time>
      </trkpt>
      <trkpt lat="39.377595" lon="-0.331739">
        <ele>1.344</ele>
        <time>2019-06-15T08:37:33Z</time>
      </trkpt>
      <trkpt lat="39.377527" lon="-0.331732">
        <ele>0.893</ele>
        <time>2019-06-15T08:37:34Z</time>
      </trkpt>
      <trkpt lat="39.377480" lon="-0.331739">
        <ele>0.478</ele>
        <time>2019-06-15T08:37:35Z</time>
      </trkpt>
      <trkpt lat="39.377413" lon="-0.331735">
        <ele>0.321</ele>
        <time>2019-06-15T08:37:36Z</time>
      </trkpt>
      <trkpt lat="39.377346" lon="-0.331737">
        <ele>0.141</ele>
        <time>2019-06-15T08:37:37Z</time>
      </trkpt>
      <trkpt lat="39.377294" lon="-0.331746">
        <ele>-0.105</ele>
        <time>2019-06-15T08:37:38Z</time>
      </trkpt>
      <trkpt lat="39.377243" lon="-0.331756">
        <ele>-0.308</ele>
        <time>2019-06-15T08:37:39Z</time>
      </trkpt>
      <trkpt lat="39.377184" lon="-0.331742">
        <ele>-0.445</ele>
        <time>2019-06-15T08:37:40Z</time>
      </trkpt>
      <trkpt lat="39.377127" lon="-0.331757">
        <ele>-0.689</ele>
        <time>2019-06-15T08:37:41Z</time>
      </trkpt>
      <trkpt lat="39.377070" lon="-0.331785">
        <ele>-0.758</ele>
        <time>2019-06-15T08:37:42Z</time>
      </trkpt>
      <trkpt lat="39.377025" lon="-0.331832">
        <ele>-0.981</ele>
        <time>2019-06-15T08:37:43Z</time>
      </trkpt>
      <trkpt lat="39.376990" lon="-0.331884">
        <ele>-1.033</ele>
        <time>2019-06-15T08:37:44Z</time>
      </trkpt>
      <trkpt lat="39.376960" lon="-0.331947">
        <ele>-1.030</ele>
        <time>2019-06-15T08:37:45Z</time>
      </trkpt>
      <trkpt lat="39.376939" lon="-0.332017">
        <ele>-1.389</ele>
        <time>2019-06-15T08:37:46Z</time>
      </trkpt>
      <trkpt lat="39.376922" lon="-0.332084">
        <ele>-1.424</ele>
        <time>2019-06-15T08:37:47Z</time>
      </trkpt>
      <trkpt lat="39.376895" lon="-0.332142">
        <ele>-1.523</ele>
        <time>2019-06-15T08:37:48Z</time>
      </trkpt>
      <trkpt lat="39.376860" lon="-0.332198">
        <ele>-1.483</ele>
        <time>2019-06-15T08:37:49Z</time>
      </trkpt>
      <trkpt lat="39.376821" lon="-0.332250">
        <ele>-1.211</ele>
        <time>2019-06-15T08:37:50Z</time>
      </trkpt>
      <trkpt lat="39.376773" lon="-0.332291">
        <ele>-0.908</ele>
        <time>2019-06-15T08:37:51Z</time>
      </trkpt>
      <trkpt lat="39.376727" lon="-0.332317">
        <ele>-0.755</ele>
        <time>2019-06-15T08:37:52Z</time>
      </trkpt>
      <trkpt lat="39.376673" lon="-0.332336">
        <ele>-0.429</ele>
        <time>2019-06-15T08:37:53Z</time>
      </trkpt>
      <trkpt lat="39.376622" lon="-0.332339">
        <ele>-0.478</ele>
        <time>2019-06-15T08:37:54Z</time>
      </trkpt>
      <trkpt lat="39.376572" lon="-0.332327">
        <ele>-0.551</ele>
        <time>2019-06-15T08:37:55Z</time>
      </trkpt>
      <trkpt lat="39.376522" lon="-0.332319">
        <ele>-0.523</ele>
        <time>2019-06-15T08:37:56Z</time>
      </trkpt>
      <trkpt lat="39.376472" lon="-0.332294">
        <ele>-0.660</ele>
        <time>2019-06-15T08:37:57Z</time>
      </trkpt>
      <trkpt lat="39.376428" lon="-0.332257">
        <ele>-0.899</ele>
        <time>2019-06-15T08:37:58Z</time>
      </trkpt>
      <trkpt lat="39.376387" lon="-0.332208">
        <ele>-1.194</ele>
        <time>2019-06-15T08:37:59Z</time>
      </trkpt>
      <trkpt lat="39.376360" lon="-0.332148">
        <ele>-1.389</ele>
        <time>2019-06-15T08:38:00Z</time>
      </trkpt>
      <trkpt lat="39.376341" lon="-0.332085">
        <ele>-1.506</ele>
        <time>2019-06-15T08:38:01Z</time>
      </trkpt>
      <trkpt lat="39.376320" lon="-0.332030">
        <ele>-1.726</ele>
        <time>2019-06-15T08:38:02Z</time>
      </trkpt>
      <trkpt lat="39.376304" lon="-0.331952">
        <ele>-2.008</ele>
        <time>2019-06-15T08:38:03Z</time>
      </trkpt>
      <trkpt lat="39.376290" lon="-0.331878">
        <ele>-2.221</ele>
        <time>2019-06-15T08:38:04Z</time>
      </trkpt>
      <trkpt lat="39.376273" lon="-0.331813">
        <ele>-2.355</ele>
        <time>2019-06-15T08:38:05Z</time>
      </trkpt>
      <trkpt lat="39.376240" lon="-0.331758">
        <ele>-2.324</ele>
        <time>2019-06-15T08:38:06Z</time>
      </trkpt>
      <trkpt lat="39.376188" lon="-0.331707">
        <ele>-2.257</ele>
        <time>2019-06-15T08:38:07Z</time>
      </trkpt>
      <trkpt lat="39.376146" lon="-0.331663">
        <ele>-2.179</ele>
        <time>2019-06-15T08:38:08Z</time>
      </trkpt>
      <trkpt lat="39.376064" lon="-0.331627">
        <ele>-1.896</ele>
        <time>2019-06-15T08:38:09Z</time>
      </trkpt>
      <trkpt lat="39.376012" lon="-0.331595">
        <ele>-1.685</ele>
        <time>2019-06-15T08:38:10Z</time>
      </trkpt>
      <trkpt lat="39.375952" lon="-0.331563">
        <ele>-1.450</ele>
        <time>2019-06-15T08:38:11Z</time>
      </trkpt>
      <trkpt lat="39.375890" lon="-0.331526">
        <ele>-1.123</ele>
        <time>2019-06-15T08:38:12Z</time>
      </trkpt>
      <trkpt lat="39.375832" lon="-0.331499">
        <ele>-0.883</ele>
        <time>2019-06-15T08:38:13Z</time>
      </trkpt>
      <trkpt lat="39.375773" lon="-0.331460">
        <ele>-0.711</ele>
        <time>2019-06-15T08:38:14Z</time>
      </trkpt>
      <trkpt lat="39.375700" lon="-0.331431">
        <ele>-0.808</ele>
        <time>2019-06-15T08:38:15Z</time>
      </trkpt>
      <trkpt lat="39.375640" lon="-0.331404">
        <ele>-0.855</ele>
        <time>2019-06-15T08:38:16Z</time>
      </trkpt>
      <trkpt lat="39.375582" lon="-0.331378">
        <ele>-0.829</ele>
        <time>2019-06-15T08:38:17Z</time>
      </trkpt>
      <trkpt lat="39.375521" lon="-0.331352">
        <ele>-0.658</ele>
        <time>2019-06-15T08:38:18Z</time>
      </trkpt>
      <trkpt lat="39.375465" lon="-0.331329">
        <ele>-0.461</ele>
        <time>2019-06-15T08:38:19Z</time>
      </trkpt>
      <trkpt lat="39.375406" lon="-0.331312">
        <ele>-0.243</ele>
        <time>2019-06-15T08:38:20Z</time>
      </trkpt>
      <trkpt lat="39.375340" lon="-0.331290">
        <ele>0.190</ele>
        <time>2019-06-15T08:38:21Z</time>
      </trkpt>
      <trkpt lat="39.375278" lon="-0.331258">
        <ele>0.419</ele>
        <time>2019-06-15T08:38:22Z</time>
      </trkpt>
      <trkpt lat="39.375216" lon="-0.331232">
        <ele>0.724</ele>
        <time>2019-06-15T08:38:23Z</time>
      </trkpt>
      <trkpt lat="39.375162" lon="-0.331196">
        <ele>1.156</ele>
        <time>2019-06-15T08:38:24Z</time>
      </trkpt>
      <trkpt lat="39.375098" lon="-0.331164">
        <ele>1.459</ele>
        <time>2019-06-15T08:38:25Z</time>
      </trkpt>
      <trkpt lat="39.375039" lon="-0.331145">
        <ele>1.614</ele>
        <time>2019-06-15T08:38:26Z</time>
      </trkpt>
      <trkpt lat="39.374978" lon="-0.331120">
        <ele>1.908</ele>
        <time>2019-06-15T08:38:27Z</time>
      </trkpt>
      <trkpt lat="39.374929" lon="-0.331104">
        <ele>2.128</ele>
        <time>2019-06-15T08:38:28Z</time>
      </trkpt>
      <trkpt lat="39.374862" lon="-0.331096">
        <ele>2.182</ele>
        <time>2019-06-15T08:38:29Z</time>
      </trkpt>
      <trkpt lat="39.374799" lon="-0.331070">
        <ele>2.311</ele>
        <time>2019-06-15T08:38:30Z</time>
      </trkpt>
      <trkpt lat="39.374737" lon="-0.331056">
        <ele>2.444</ele>
        <time>2019-06-15T08:38:31Z</time>
      </trkpt>
      <trkpt lat="39.374678" lon="-0.331037">
        <ele>2.516</ele>
        <time>2019-06-15T08:38:32Z</time>
      </trkpt>
      <trkpt lat="39.374615" lon="-0.331019">
        <ele>2.793</ele>
        <time>2019-06-15T08:38:33Z</time>
      </trkpt>
      <trkpt lat="39.374557" lon="-0.330997">
        <ele>2.872</ele>
        <time>2019-06-15T08:38:34Z</time>
      </trkpt>
      <trkpt lat="39.374497" lon="-0.330974">
        <ele>3.017</ele>
        <time>2019-06-15T08:38:35Z</time>
      </trkpt>
      <trkpt lat="39.374434" lon="-0.330955">
        <ele>3.132</ele>
        <time>2019-06-15T08:38:36Z</time>
      </trkpt>
      <trkpt lat="39.374361" lon="-0.330970">
        <ele>2.692</ele>
        <time>2019-06-15T08:38:37Z</time>
      </trkpt>
      <trkpt lat="39.374300" lon="-0.330950">
        <ele>2.311</ele>
        <time>2019-06-15T08:38:38Z</time>
      </trkpt>
      <trkpt lat="39.374236" lon="-0.330929">
        <ele>2.108</ele>
        <time>2019-06-15T08:38:39Z</time>
      </trkpt>
      <trkpt lat="39.374174" lon="-0.330918">
        <ele>1.756</ele>
        <time>2019-06-15T08:38:40Z</time>
      </trkpt>
      <trkpt lat="39.374111" lon="-0.330909">
        <ele>1.790</ele>
        <time>2019-06-15T08:38:41Z</time>
      </trkpt>
      <trkpt lat="39.374046" lon="-0.330900">
        <ele>1.769</ele>
        <time>2019-06-15T08:38:42Z</time>
      </trkpt>
      <trkpt lat="39.373988" lon="-0.330884">
        <ele>1.722</ele>
        <time>2019-06-15T08:38:43Z</time>
      </trkpt>
      <trkpt lat="39.373935" lon="-0.330862">
        <ele>1.884</ele>
        <time>2019-06-15T08:38:44Z</time>
      </trkpt>
      <trkpt lat="39.373877" lon="-0.330848">
        <ele>1.921</ele>
        <time>2019-06-15T08:38:45Z</time>
      </trkpt>
      <trkpt lat="39.373821" lon="-0.330833">
        <ele>2.070</ele>
        <time>2019-06-15T08:38:46Z</time>
      </trkpt>
      <trkpt lat="39.373774" lon="-0.330810">
        <ele>2.075</ele>
        <time>2019-06-15T08:38:47Z</time>
      </trkpt>
      <trkpt lat="39.373721" lon="-0.330785">
        <ele>2.123</ele>
        <time>2019-06-15T08:38:48Z</time>
      </trkpt>
      <trkpt lat="39.373672" lon="-0.330773">
        <ele>2.083</ele>
        <time>2019-06-15T08:38:49Z</time>
      </trkpt>
      <trkpt lat="39.373616" lon="-0.330754">
        <ele>2.011</ele>
        <time>2019-06-15T08:38:50Z</time>
      </trkpt>
      <trkpt lat="39.373558" lon="-0.330740">
        <ele>1.908</ele>
        <time>2019-06-15T08:38:51Z</time>
      </trkpt>
      <trkpt lat="39.373500" lon="-0.330721">
        <ele>1.945</ele>
        <time>2019-06-15T08:38:52Z</time>
      </trkpt>
      <trkpt lat="39.373434" lon="-0.330719">
        <ele>1.969</ele>
        <time>2019-06-15T08:38:53Z</time>
      </trkpt>
      <trkpt lat="39.373373" lon="-0.330699">
        <ele>2.038</ele>
        <time>2019-06-15T08:38:54Z</time>
      </trkpt>
      <trkpt lat="39.373310" lon="-0.330677">
        <ele>2.121</ele>
        <time>2019-06-15T08:38:55Z</time>
      </trkpt>
      <trkpt lat="39.373247" lon="-0.330657">
        <ele>2.183</ele>
        <time>2019-06-15T08:38:56Z</time>
      </trkpt>
      <trkpt lat="39.373184" lon="-0.330635">
        <ele>2.080</ele>
        <time>2019-06-15T08:38:57Z</time>
      </trkpt>
      <trkpt lat="39.373119" lon="-0.330617">
        <ele>2.019</ele>
        <time>2019-06-15T08:38:58Z</time>
      </trkpt>
      <trkpt lat="39.373058" lon="-0.330593">
        <ele>1.984</ele>
        <time>2019-06-15T08:38:59Z</time>
      </trkpt>
      <trkpt lat="39.372999" lon="-0.330572">
        <ele>1.951</ele>
        <time>2019-06-15T08:39:00Z</time>
      </trkpt>
      <trkpt lat="39.372937" lon="-0.330557">
        <ele>2.001</ele>
        <time>2019-06-15T08:39:01Z</time>
      </trkpt>
      <trkpt lat="39.372870" lon="-0.330537">
        <ele>2.111</ele>
        <time>2019-06-15T08:39:02Z</time>
      </trkpt>
      <trkpt lat="39.372809" lon="-0.330514">
        <ele>2.308</ele>
        <time>2019-06-15T08:39:03Z</time>
      </trkpt>
      <trkpt lat="39.372747" lon="-0.330507">
        <ele>2.418</ele>
        <time>2019-06-15T08:39:04Z</time>
      </trkpt>
      <trkpt lat="39.372684" lon="-0.330498">
        <ele>2.472</ele>
        <time>2019-06-15T08:39:05Z</time>
      </trkpt>
      <trkpt lat="39.372616" lon="-0.330477">
        <ele>2.611</ele>
        <time>2019-06-15T08:39:06Z</time>
      </trkpt>
      <trkpt lat="39.372555" lon="-0.330457">
        <ele>2.784</ele>
        <time>2019-06-15T08:39:07Z</time>
      </trkpt>
      <trkpt lat="39.372496" lon="-0.330442">
        <ele>2.876</ele>
        <time>2019-06-15T08:39:08Z</time>
      </trkpt>
      <trkpt lat="39.372434" lon="-0.330420">
        <ele>2.743</ele>
        <time>2019-06-15T08:39:09Z</time>
      </trkpt>
      <trkpt lat="39.372372" lon="-0.330401">
        <ele>2.662</ele>
        <time>2019-06-15T08:39:10Z</time>
      </trkpt>
      <trkpt lat="39.372313" lon="-0.330376">
        <ele>2.487</ele>
        <time>2019-06-15T08:39:11Z</time>
      </trkpt>
      <trkpt lat="39.372250" lon="-0.330353">
        <ele>2.148</ele>
        <time>2019-06-15T08:39:12Z</time>
      </trkpt>
      <trkpt lat="39.372194" lon="-0.330338">
        <ele>1.961</ele>
        <time>2019-06-15T08:39:13Z</time>
      </trkpt>
      <trkpt lat="39.372141" lon="-0.330308">
        <ele>1.717</ele>
        <time>2019-06-15T08:39:14Z</time>
      </trkpt>
      <trkpt lat="39.372081" lon="-0.330291">
        <ele>1.508</ele>
        <time>2019-06-15T08:39:15Z</time>
      </trkpt>
      <trkpt lat="39.372022" lon="-0.330271">
        <ele>1.357</ele>
        <time>2019-06-15T08:39:16Z</time>
      </trkpt>
      <trkpt lat="39.371960" lon="-0.330251">
        <ele>1.111</ele>
        <time>2019-06-15T08:39:17Z</time>
      </trkpt>
      <trkpt lat="39.371898" lon="-0.330243">
        <ele>0.860</ele>
        <time>2019-06-15T08:39:18Z</time>
      </trkpt>
      <trkpt lat="39.371834" lon="-0.330225">
        <ele>0.563</ele>
        <time>2019-06-15T08:39:19Z</time>
      </trkpt>
      <trkpt lat="39.371781" lon="-0.330220">
        <ele>0.385</ele>
        <time>2019-06-15T08:39:20Z</time>
      </trkpt>
      <trkpt lat="39.371723" lon="-0.330214">
        <ele>0.022</ele>
        <time>2019-06-15T08:39:21Z</time>
      </trkpt>
      <trkpt lat="39.371661" lon="-0.330197">
        <ele>-0.191</ele>
        <time>2019-06-15T08:39:22Z</time>
      </trkpt>
      <trkpt lat="39.371601" lon="-0.330180">
        <ele>-0.056</ele>
        <time>2019-06-15T08:39:23Z</time>
      </trkpt>
      <trkpt lat="39.371542" lon="-0.330161">
        <ele>0.163</ele>
        <time>2019-06-15T08:39:24Z</time>
      </trkpt>
      <trkpt lat="39.371494" lon="-0.330145">
        <ele>0.144</ele>
        <time>2019-06-15T08:39:25Z</time>
      </trkpt>
      <trkpt lat="39.371432" lon="-0.330124">
        <ele>0.218</ele>
        <time>2019-06-15T08:39:26Z</time>
      </trkpt>
      <trkpt lat="39.371371" lon="-0.330112">
        <ele>0.208</ele>
        <time>2019-06-15T08:39:27Z</time>
      </trkpt>
      <trkpt lat="39.371309" lon="-0.330107">
        <ele>0.419</ele>
        <time>2019-06-15T08:39:28Z</time>
      </trkpt>
      <trkpt lat="39.371255" lon="-0.330100">
        <ele>0.663</ele>
        <time>2019-06-15T08:39:29Z</time>
      </trkpt>
      <trkpt lat="39.371198" lon="-0.330080">
        <ele>0.972</ele>
        <time>2019-06-15T08:39:30Z</time>
      </trkpt>
      <trkpt lat="39.371135" lon="-0.330064">
        <ele>1.235</ele>
        <time>2019-06-15T08:39:31Z</time>
      </trkpt>
      <trkpt lat="39.371072" lon="-0.330052">
        <ele>1.237</ele>
        <time>2019-06-15T08:39:32Z</time>
      </trkpt>
      <trkpt lat="39.371017" lon="-0.330035">
        <ele>1.044</ele>
        <time>2019-06-15T08:39:33Z</time>
      </trkpt>
      <trkpt lat="39.370958" lon="-0.330017">
        <ele>0.853</ele>
        <time>2019-06-15T08:39:34Z</time>
      </trkpt>
      <trkpt lat="39.370897" lon="-0.329996">
        <ele>0.528</ele>
        <time>2019-06-15T08:39:35Z</time>
      </trkpt>
      <trkpt lat="39.370840" lon="-0.329976">
        <ele>0.197</ele>
        <time>2019-06-15T08:39:36Z</time>
      </trkpt>
      <trkpt lat="39.370778" lon="-0.329959">
        <ele>-0.223</ele>
        <time>2019-06-15T08:39:37Z</time>
      </trkpt>
      <trkpt lat="39.370719" lon="-0.329942">
        <ele>-0.425</ele>
        <time>2019-06-15T08:39:38Z</time>
      </trkpt>
      <trkpt lat="39.370656" lon="-0.329920">
        <ele>-0.608</ele>
        <time>2019-06-15T08:39:39Z</time>
      </trkpt>
      <trkpt lat="39.370594" lon="-0.329913">
        <ele>-0.962</ele>
        <time>2019-06-15T08:39:40Z</time>
      </trkpt>
      <trkpt lat="39.370534" lon="-0.329902">
        <ele>-0.836</ele>
        <time>2019-06-15T08:39:41Z</time>
      </trkpt>
      <trkpt lat="39.370475" lon="-0.329889">
        <ele>-0.455</ele>
        <time>2019-06-15T08:39:42Z</time>
      </trkpt>
      <trkpt lat="39.370415" lon="-0.329873">
        <ele>0.168</ele>
        <time>2019-06-15T08:39:43Z</time>
      </trkpt>
      <trkpt lat="39.370351" lon="-0.329858">
        <ele>0.670</ele>
        <time>2019-06-15T08:39:44Z</time>
      </trkpt>
      <trkpt lat="39.370292" lon="-0.329842">
        <ele>1.217</ele>
        <time>2019-06-15T08:39:45Z</time>
      </trkpt>
      <trkpt lat="39.370225" lon="-0.329813">
        <ele>1.946</ele>
        <time>2019-06-15T08:39:46Z</time>
      </trkpt>
      <trkpt lat="39.370170" lon="-0.329789">
        <ele>2.341</ele>
        <time>2019-06-15T08:39:47Z</time>
      </trkpt>
      <trkpt lat="39.370115" lon="-0.329781">
        <ele>2.598</ele>
        <time>2019-06-15T08:39:48Z</time>
      </trkpt>
      <trkpt lat="39.370059" lon="-0.329757">
        <ele>2.815</ele>
        <time>2019-06-15T08:39:49Z</time>
      </trkpt>
      <trkpt lat="39.370004" lon="-0.329740">
        <ele>2.926</ele>
        <time>2019-06-15T08:39:50Z</time>
      </trkpt>
      <trkpt lat="39.369947" lon="-0.329721">
        <ele>2.608</ele>
        <time>2019-06-15T08:39:51Z</time>
      </trkpt>
      <trkpt lat="39.369886" lon="-0.329719">
        <ele>2.272</ele>
        <time>2019-06-15T08:39:52Z</time>
      </trkpt>
      <trkpt lat="39.369825" lon="-0.329703">
        <ele>1.956</ele>
        <time>2019-06-15T08:39:53Z</time>
      </trkpt>
      <trkpt lat="39.369770" lon="-0.329684">
        <ele>1.625</ele>
        <time>2019-06-15T08:39:54Z</time>
      </trkpt>
      <trkpt lat="39.369719" lon="-0.329652">
        <ele>1.598</ele>
        <time>2019-06-15T08:39:55Z</time>
      </trkpt>
      <trkpt lat="39.369664" lon="-0.329635">
        <ele>1.430</ele>
        <time>2019-06-15T08:39:56Z</time>
      </trkpt>
      <trkpt lat="39.369612" lon="-0.329632">
        <ele>1.367</ele>
        <time>2019-06-15T08:39:57Z</time>
      </trkpt>
      <trkpt lat="39.369553" lon="-0.329609">
        <ele>1.256</ele>
        <time>2019-06-15T08:39:58Z</time>
      </trkpt>
      <trkpt lat="39.369499" lon="-0.329587">
        <ele>1.241</ele>
        <time>2019-06-15T08:39:59Z</time>
      </trkpt>
      <trkpt lat="39.369455" lon="-0.329553">
        <ele>1.365</ele>
        <time>2019-06-15T08:40:00Z</time>
      </trkpt>
      <trkpt lat="39.369401" lon="-0.329536">
        <ele>1.168</ele>
        <time>2019-06-15T08:40:01Z</time>
      </trkpt>
      <trkpt lat="39.369340" lon="-0.329536">
        <ele>0.714</ele>
        <time>2019-06-15T08:40:02Z</time>
      </trkpt>
      <trkpt lat="39.369284" lon="-0.329510">
        <ele>0.508</ele>
        <time>2019-06-15T08:40:03Z</time>
      </trkpt>
      <trkpt lat="39.369224" lon="-0.329491">
        <ele>0.279</ele>
        <time>2019-06-15T08:40:04Z</time>
      </trkpt>
      <trkpt lat="39.369157" lon="-0.329480">
        <ele>-0.183</ele>
        <time>2019-06-15T08:40:05Z</time>
      </trkpt>
      <trkpt lat="39.369102" lon="-0.329478">
        <ele>-0.142</ele>
        <time>2019-06-15T08:40:06Z</time>
      </trkpt>
      <trkpt lat="39.369047" lon="-0.329458">
        <ele>-0.195</ele>
        <time>2019-06-15T08:40:07Z</time>
      </trkpt>
      <trkpt lat="39.368992" lon="-0.329442">
        <ele>0.037</ele>
        <time>2019-06-15T08:40:08Z</time>
      </trkpt>
      <trkpt lat="39.368926" lon="-0.329447">
        <ele>-0.044</ele>
        <time>2019-06-15T08:40:09Z</time>
      </trkpt>
      <trkpt lat="39.368861" lon="-0.329426">
        <ele>0.373</ele>
        <time>2019-06-15T08:40:10Z</time>
      </trkpt>
      <trkpt lat="39.368808" lon="-0.329410">
        <ele>0.788</ele>
        <time>2019-06-15T08:40:11Z</time>
      </trkpt>
      <trkpt lat="39.368755" lon="-0.329392">
        <ele>1.078</ele>
        <time>2019-06-15T08:40:12Z</time>
      </trkpt>
      <trkpt lat="39.368692" lon="-0.329367">
        <ele>1.533</ele>
        <time>2019-06-15T08:40:13Z</time>
      </trkpt>
      <trkpt lat="39.368635" lon="-0.329365">
        <ele>1.826</ele>
        <time>2019-06-15T08:40:14Z</time>
      </trkpt>
      <trkpt lat="39.368589" lon="-0.329331">
        <ele>2.108</ele>
        <time>2019-06-15T08:40:15Z</time>
      </trkpt>
      <trkpt lat="39.368537" lon="-0.329311">
        <ele>2.210</ele>
        <time>2019-06-15T08:40:16Z</time>
      </trkpt>
      <trkpt lat="39.368483" lon="-0.329288">
        <ele>2.254</ele>
        <time>2019-06-15T08:40:17Z</time>
      </trkpt>
      <trkpt lat="39.368425" lon="-0.329269">
        <ele>2.233</ele>
        <time>2019-06-15T08:40:18Z</time>
      </trkpt>
      <trkpt lat="39.368368" lon="-0.329261">
        <ele>2.166</ele>
        <time>2019-06-15T08:40:19Z</time>
      </trkpt>
      <trkpt lat="39.368310" lon="-0.329240">
        <ele>2.148</ele>
        <time>2019-06-15T08:40:20Z</time>
      </trkpt>
      <trkpt lat="39.368254" lon="-0.329217">
        <ele>1.975</ele>
        <time>2019-06-15T08:40:21Z</time>
      </trkpt>
      <trkpt lat="39.368196" lon="-0.329195">
        <ele>1.864</ele>
        <time>2019-06-15T08:40:22Z</time>
      </trkpt>
      <trkpt lat="39.368142" lon="-0.329176">
        <ele>1.519</ele>
        <time>2019-06-15T08:40:23Z</time>
      </trkpt>
      <trkpt lat="39.368094" lon="-0.329152">
        <ele>1.445</ele>
        <time>2019-06-15T08:40:24Z</time>
      </trkpt>
      <trkpt lat="39.368041" lon="-0.329130">
        <ele>1.347</ele>
        <time>2019-06-15T08:40:25Z</time>
      </trkpt>
      <trkpt lat="39.367986" lon="-0.329111">
        <ele>1.411</ele>
        <time>2019-06-15T08:40:26Z</time>
      </trkpt>
      <trkpt lat="39.367930" lon="-0.329097">
        <ele>1.308</ele>
        <time>2019-06-15T08:40:27Z</time>
      </trkpt>
      <trkpt lat="39.367872" lon="-0.329085">
        <ele>1.237</ele>
        <time>2019-06-15T08:40:28Z</time>
      </trkpt>
      <trkpt lat="39.367821" lon="-0.329073">
        <ele>1.211</ele>
        <time>2019-06-15T08:40:29Z</time>
      </trkpt>
      <trkpt lat="39.367766" lon="-0.329045">
        <ele>1.370</ele>
        <time>2019-06-15T08:40:30Z</time>
      </trkpt>
      <trkpt lat="39.367708" lon="-0.329025">
        <ele>1.233</ele>
        <time>2019-06-15T08:40:31Z</time>
      </trkpt>
      <trkpt lat="39.367650" lon="-0.329013">
        <ele>0.915</ele>
        <time>2019-06-15T08:40:32Z</time>
      </trkpt>
      <trkpt lat="39.367603" lon="-0.328987">
        <ele>0.952</ele>
        <time>2019-06-15T08:40:33Z</time>
      </trkpt>
      <trkpt lat="39.367542" lon="-0.328978">
        <ele>0.651</ele>
        <time>2019-06-15T08:40:34Z</time>
      </trkpt>
      <trkpt lat="39.367495" lon="-0.328949">
        <ele>0.596</ele>
        <time>2019-06-15T08:40:35Z</time>
      </trkpt>
      <trkpt lat="39.367443" lon="-0.328931">
        <ele>0.578</ele>
        <time>2019-06-15T08:40:36Z</time>
      </trkpt>
      <trkpt lat="39.367382" lon="-0.328913">
        <ele>0.433</ele>
        <time>2019-06-15T08:40:37Z</time>
      </trkpt>
      <trkpt lat="39.367331" lon="-0.328904">
        <ele>0.326</ele>
        <time>2019-06-15T08:40:38Z</time>
      </trkpt>
      <trkpt lat="39.367278" lon="-0.328884">
        <ele>0.208</ele>
        <time>2019-06-15T08:40:39Z</time>
      </trkpt>
      <trkpt lat="39.367227" lon="-0.328868">
        <ele>0.280</ele>
        <time>2019-06-15T08:40:40Z</time>
      </trkpt>
      <trkpt lat="39.367173" lon="-0.328853">
        <ele>0.584</ele>
        <time>2019-06-15T08:40:41Z</time>
      </trkpt>
      <trkpt lat="39.367120" lon="-0.328843">
        <ele>0.833</ele>
        <time>2019-06-15T08:40:42Z</time>
      </trkpt>
      <trkpt lat="39.367068" lon="-0.328831">
        <ele>1.156</ele>
        <time>2019-06-15T08:40:43Z</time>
      </trkpt>
      <trkpt lat="39.367019" lon="-0.328823">
        <ele>1.338</ele>
        <time>2019-06-15T08:40:44Z</time>
      </trkpt>
      <trkpt lat="39.366966" lon="-0.328805">
        <ele>1.665</ele>
        <time>2019-06-15T08:40:45Z</time>
      </trkpt>
      <trkpt lat="39.366904" lon="-0.328762">
        <ele>1.984</ele>
        <time>2019-06-15T08:40:46Z</time>
      </trkpt>
      <trkpt lat="39.366847" lon="-0.328747">
        <ele>2.099</ele>
        <time>2019-06-15T08:40:47Z</time>
      </trkpt>
      <trkpt lat="39.366793" lon="-0.328731">
        <ele>2.129</ele>
        <time>2019-06-15T08:40:48Z</time>
      </trkpt>
      <trkpt lat="39.366742" lon="-0.328728">
        <ele>2.200</ele>
        <time>2019-06-15T08:40:49Z</time>
      </trkpt>
      <trkpt lat="39.366690" lon="-0.328712">
        <ele>2.320</ele>
        <time>2019-06-15T08:40:50Z</time>
      </trkpt>
      <trkpt lat="39.366636" lon="-0.328694">
        <ele>2.308</ele>
        <time>2019-06-15T08:40:51Z</time>
      </trkpt>
      <trkpt lat="39.366585" lon="-0.328675">
        <ele>2.275</ele>
        <time>2019-06-15T08:40:52Z</time>
      </trkpt>
      <trkpt lat="39.366529" lon="-0.328658">
        <ele>2.269</ele>
        <time>2019-06-15T08:40:53Z</time>
      </trkpt>
      <trkpt lat="39.366474" lon="-0.328639">
        <ele>2.138</ele>
        <time>2019-06-15T08:40:54Z</time>
      </trkpt>
      <trkpt lat="39.366410" lon="-0.328618">
        <ele>2.041</ele>
        <time>2019-06-15T08:40:55Z</time>
      </trkpt>
      <trkpt lat="39.366355" lon="-0.328606">
        <ele>2.243</ele>
        <time>2019-06-15T08:40:56Z</time>
      </trkpt>
      <trkpt lat="39.366299" lon="-0.328589">
        <ele>2.510</ele>
        <time>2019-06-15T08:40:57Z</time>
      </trkpt>
      <trkpt lat="39.366248" lon="-0.328591">
        <ele>2.779</ele>
        <time>2019-06-15T08:40:58Z</time>
      </trkpt>
      <trkpt lat="39.366202" lon="-0.328569">
        <ele>3.074</ele>
        <time>2019-06-15T08:40:59Z</time>
      </trkpt>
      <trkpt lat="39.366156" lon="-0.328538">
        <ele>3.421</ele>
        <time>2019-06-15T08:41:00Z</time>
      </trkpt>
      <trkpt lat="39.366106" lon="-0.328531">
        <ele>3.641</ele>
        <time>2019-06-15T08:41:01Z</time>
      </trkpt>
      <trkpt lat="39.366052" lon="-0.328505">
        <ele>4.005</ele>
        <time>2019-06-15T08:41:02Z</time>
      </trkpt>
      <trkpt lat="39.366001" lon="-0.328471">
        <ele>4.408</ele>
        <time>2019-06-15T08:41:03Z</time>
      </trkpt>
      <trkpt lat="39.365935" lon="-0.328468">
        <ele>4.795</ele>
        <time>2019-06-15T08:41:04Z</time>
      </trkpt>
      <trkpt lat="39.365880" lon="-0.328463">
        <ele>4.969</ele>
        <time>2019-06-15T08:41:05Z</time>
      </trkpt>
      <trkpt lat="39.365781" lon="-0.328442">
        <ele>5.048</ele>
        <time>2019-06-15T08:41:07Z</time>
      </trkpt>
      <trkpt lat="39.365729" lon="-0.328425">
        <ele>5.021</ele>
        <time>2019-06-15T08:41:08Z</time>
      </trkpt>
      <trkpt lat="39.365672" lon="-0.328433">
        <ele>4.793</ele>
        <time>2019-06-15T08:41:09Z</time>
      </trkpt>
      <trkpt lat="39.365617" lon="-0.328412">
        <ele>4.730</ele>
        <time>2019-06-15T08:41:10Z</time>
      </trkpt>
      <trkpt lat="39.365499" lon="-0.328355">
        <ele>4.099</ele>
        <time>2019-06-15T08:41:12Z</time>
      </trkpt>
      <trkpt lat="39.365446" lon="-0.328341">
        <ele>3.494</ele>
        <time>2019-06-15T08:41:13Z</time>
      </trkpt>
      <trkpt lat="39.365385" lon="-0.328318">
        <ele>2.626</ele>
        <time>2019-06-15T08:41:14Z</time>
      </trkpt>
      <trkpt lat="39.365288" lon="-0.328290">
        <ele>1.547</ele>
        <time>2019-06-15T08:41:16Z</time>
      </trkpt>
      <trkpt lat="39.365238" lon="-0.328269">
        <ele>1.211</ele>
        <time>2019-06-15T08:41:17Z</time>
      </trkpt>
      <trkpt lat="39.365179" lon="-0.328252">
        <ele>0.908</ele>
        <time>2019-06-15T08:41:18Z</time>
      </trkpt>
      <trkpt lat="39.365126" lon="-0.328230">
        <ele>0.785</ele>
        <time>2019-06-15T08:41:19Z</time>
      </trkpt>
      <trkpt lat="39.365079" lon="-0.328192">
        <ele>0.619</ele>
        <time>2019-06-15T08:41:20Z</time>
      </trkpt>
      <trkpt lat="39.364990" lon="-0.328177">
        <ele>0.168</ele>
        <time>2019-06-15T08:41:22Z</time>
      </trkpt>
      <trkpt lat="39.364918" lon="-0.328154">
        <ele>0.461</ele>
        <time>2019-06-15T08:41:23Z</time>
      </trkpt>
      <trkpt lat="39.364849" lon="-0.328166">
        <ele>0.343</ele>
        <time>2019-06-15T08:41:24Z</time>
      </trkpt>
      <trkpt lat="39.364798" lon="-0.328106">
        <ele>1.140</ele>
        <time>2019-06-15T08:41:25Z</time>
      </trkpt>
      <trkpt lat="39.364724" lon="-0.328131">
        <ele>0.999</ele>
        <time>2019-06-15T08:41:26Z</time>
      </trkpt>
      <trkpt lat="39.364661" lon="-0.328134">
        <ele>1.234</ele>
        <time>2019-06-15T08:41:27Z</time>
      </trkpt>
      <trkpt lat="39.364607" lon="-0.328108">
        <ele>1.777</ele>
        <time>2019-06-15T08:41:28Z</time>
      </trkpt>
      <trkpt lat="39.364558" lon="-0.328082">
        <ele>2.361</ele>
        <time>2019-06-15T08:41:29Z</time>
      </trkpt>
      <trkpt lat="39.364505" lon="-0.328076">
        <ele>2.527</ele>
        <time>2019-06-15T08:41:30Z</time>
      </trkpt>
      <trkpt lat="39.364450" lon="-0.328069">
        <ele>2.808</ele>
        <time>2019-06-15T08:41:31Z</time>
      </trkpt>
      <trkpt lat="39.364395" lon="-0.328051">
        <ele>3.010</ele>
        <time>2019-06-15T08:41:32Z</time>
      </trkpt>
      <trkpt lat="39.364336" lon="-0.328051">
        <ele>3.064</ele>
        <time>2019-06-15T08:41:33Z</time>
      </trkpt>
      <trkpt lat="39.364287" lon="-0.328027">
        <ele>3.163</ele>
        <time>2019-06-15T08:41:34Z</time>
      </trkpt>
      <trkpt lat="39.364237" lon="-0.328012">
        <ele>3.226</ele>
        <time>2019-06-15T08:41:35Z</time>
      </trkpt>
      <trkpt lat="39.364176" lon="-0.328000">
        <ele>3.298</ele>
        <time>2019-06-15T08:41:36Z</time>
      </trkpt>
      <trkpt lat="39.364117" lon="-0.327993">
        <ele>3.025</ele>
        <time>2019-06-15T08:41:37Z</time>
      </trkpt>
      <trkpt lat="39.364055" lon="-0.327979">
        <ele>2.964</ele>
        <time>2019-06-15T08:41:38Z</time>
      </trkpt>
      <trkpt lat="39.364000" lon="-0.327974">
        <ele>2.749</ele>
        <time>2019-06-15T08:41:39Z</time>
      </trkpt>
      <trkpt lat="39.363938" lon="-0.327950">
        <ele>2.649</ele>
        <time>2019-06-15T08:41:40Z</time>
      </trkpt>
      <trkpt lat="39.363878" lon="-0.327941">
        <ele>2.402</ele>
        <time>2019-06-15T08:41:41Z</time>
      </trkpt>
      <trkpt lat="39.363826" lon="-0.327927">
        <ele>2.222</ele>
        <time>2019-06-15T08:41:42Z</time>
      </trkpt>
      <trkpt lat="39.363770" lon="-0.327916">
        <ele>2.108</ele>
        <time>2019-06-15T08:41:43Z</time>
      </trkpt>
      <trkpt lat="39.363713" lon="-0.327895">
        <ele>1.937</ele>
        <time>2019-06-15T08:41:44Z</time>
      </trkpt>
      <trkpt lat="39.363654" lon="-0.327879">
        <ele>1.881</ele>
        <time>2019-06-15T08:41:45Z</time>
      </trkpt>
      <trkpt lat="39.363603" lon="-0.327860">
        <ele>1.720</ele>
        <time>2019-06-15T08:41:46Z</time>
      </trkpt>
      <trkpt lat="39.363546" lon="-0.327848">
        <ele>1.423</ele>
        <time>2019-06-15T08:41:47Z</time>
      </trkpt>
      <trkpt lat="39.363490" lon="-0.327830">
        <ele>1.255</ele>
        <time>2019-06-15T08:41:48Z</time>
      </trkpt>
      <trkpt lat="39.363438" lon="-0.327814">
        <ele>1.182</ele>
        <time>2019-06-15T08:41:49Z</time>
      </trkpt>
      <trkpt lat="39.363384" lon="-0.327802">
        <ele>1.041</ele>
        <time>2019-06-15T08:41:50Z</time>
      </trkpt>
      <trkpt lat="39.363330" lon="-0.327794">
        <ele>0.876</ele>
        <time>2019-06-15T08:41:51Z</time>
      </trkpt>
      <trkpt lat="39.363277" lon="-0.327779">
        <ele>0.842</ele>
        <time>2019-06-15T08:41:52Z</time>
      </trkpt>
      <trkpt lat="39.363230" lon="-0.327760">
        <ele>0.822</ele>
        <time>2019-06-15T08:41:53Z</time>
      </trkpt>
      <trkpt lat="39.363177" lon="-0.327748">
        <ele>0.714</ele>
        <time>2019-06-15T08:41:54Z</time>
      </trkpt>
      <trkpt lat="39.363121" lon="-0.327733">
        <ele>0.608</ele>
        <time>2019-06-15T08:41:55Z</time>
      </trkpt>
      <trkpt lat="39.363064" lon="-0.327722">
        <ele>0.457</ele>
        <time>2019-06-15T08:41:56Z</time>
      </trkpt>
      <trkpt lat="39.363005" lon="-0.327724">
        <ele>0.491</ele>
        <time>2019-06-15T08:41:57Z</time>
      </trkpt>
      <trkpt lat="39.362950" lon="-0.327717">
        <ele>0.450</ele>
        <time>2019-06-15T08:41:58Z</time>
      </trkpt>
      <trkpt lat="39.362899" lon="-0.327693">
        <ele>0.413</ele>
        <time>2019-06-15T08:41:59Z</time>
      </trkpt>
      <trkpt lat="39.362837" lon="-0.327678">
        <ele>0.495</ele>
        <time>2019-06-15T08:42:00Z</time>
      </trkpt>
      <trkpt lat="39.362781" lon="-0.327664">
        <ele>0.452</ele>
        <time>2019-06-15T08:42:01Z</time>
      </trkpt>
      <trkpt lat="39.362730" lon="-0.327639">
        <ele>0.521</ele>
        <time>2019-06-15T08:42:02Z</time>
      </trkpt>
      <trkpt lat="39.362673" lon="-0.327625">
        <ele>0.636</ele>
        <time>2019-06-15T08:42:03Z</time>
      </trkpt>
      <trkpt lat="39.362612" lon="-0.327600">
        <ele>0.669</ele>
        <time>2019-06-15T08:42:04Z</time>
      </trkpt>
      <trkpt lat="39.362556" lon="-0.327593">
        <ele>0.704</ele>
        <time>2019-06-15T08:42:05Z</time>
      </trkpt>
      <trkpt lat="39.362501" lon="-0.327578">
        <ele>0.724</ele>
        <time>2019-06-15T08:42:06Z</time>
      </trkpt>
      <trkpt lat="39.362442" lon="-0.327559">
        <ele>0.808</ele>
        <time>2019-06-15T08:42:07Z</time>
      </trkpt>
      <trkpt lat="39.362385" lon="-0.327558">
        <ele>0.859</ele>
        <time>2019-06-15T08:42:08Z</time>
      </trkpt>
      <trkpt lat="39.362330" lon="-0.327546">
        <ele>0.833</ele>
        <time>2019-06-15T08:42:09Z</time>
      </trkpt>
      <trkpt lat="39.362276" lon="-0.327542">
        <ele>0.862</ele>
        <time>2019-06-15T08:42:10Z</time>
      </trkpt>
      <trkpt lat="39.362217" lon="-0.327524">
        <ele>0.955</ele>
        <time>2019-06-15T08:42:11Z</time>
      </trkpt>
      <trkpt lat="39.362157" lon="-0.327522">
        <ele>0.927</ele>
        <time>2019-06-15T08:42:12Z</time>
      </trkpt>
      <trkpt lat="39.362097" lon="-0.327507">
        <ele>1.054</ele>
        <time>2019-06-15T08:42:13Z</time>
      </trkpt>
      <trkpt lat="39.362040" lon="-0.327489">
        <ele>1.053</ele>
        <time>2019-06-15T08:42:14Z</time>
      </trkpt>
      <trkpt lat="39.361984" lon="-0.327475">
        <ele>1.198</ele>
        <time>2019-06-15T08:42:15Z</time>
      </trkpt>
      <trkpt lat="39.361931" lon="-0.327451">
        <ele>1.211</ele>
        <time>2019-06-15T08:42:16Z</time>
      </trkpt>
      <trkpt lat="39.361878" lon="-0.327427">
        <ele>1.221</ele>
        <time>2019-06-15T08:42:17Z</time>
      </trkpt>
      <trkpt lat="39.361820" lon="-0.327403">
        <ele>1.203</ele>
        <time>2019-06-15T08:42:18Z</time>
      </trkpt>
      <trkpt lat="39.361769" lon="-0.327391">
        <ele>1.108</ele>
        <time>2019-06-15T08:42:19Z</time>
      </trkpt>
      <trkpt lat="39.361713" lon="-0.327379">
        <ele>1.144</ele>
        <time>2019-06-15T08:42:20Z</time>
      </trkpt>
      <trkpt lat="39.361655" lon="-0.327362">
        <ele>1.038</ele>
        <time>2019-06-15T08:42:21Z</time>
      </trkpt>
      <trkpt lat="39.361601" lon="-0.327327">
        <ele>1.267</ele>
        <time>2019-06-15T08:42:22Z</time>
      </trkpt>
      <trkpt lat="39.361541" lon="-0.327310">
        <ele>1.590</ele>
        <time>2019-06-15T08:42:23Z</time>
      </trkpt>
      <trkpt lat="39.361478" lon="-0.327299">
        <ele>1.762</ele>
        <time>2019-06-15T08:42:24Z</time>
      </trkpt>
      <trkpt lat="39.361427" lon="-0.327279">
        <ele>1.919</ele>
        <time>2019-06-15T08:42:25Z</time>
      </trkpt>
      <trkpt lat="39.361374" lon="-0.327255">
        <ele>2.138</ele>
        <time>2019-06-15T08:42:26Z</time>
      </trkpt>
      <trkpt lat="39.361315" lon="-0.327245">
        <ele>2.383</ele>
        <time>2019-06-15T08:42:27Z</time>
      </trkpt>
      <trkpt lat="39.361257" lon="-0.327223">
        <ele>2.596</ele>
        <time>2019-06-15T08:42:28Z</time>
      </trkpt>
      <trkpt lat="39.361201" lon="-0.327193">
        <ele>2.731</ele>
        <time>2019-06-15T08:42:29Z</time>
      </trkpt>
      <trkpt lat="39.361142" lon="-0.327173">
        <ele>3.024</ele>
        <time>2019-06-15T08:42:30Z</time>
      </trkpt>
      <trkpt lat="39.361084" lon="-0.327155">
        <ele>3.408</ele>
        <time>2019-06-15T08:42:31Z</time>
      </trkpt>
      <trkpt lat="39.361026" lon="-0.327132">
        <ele>3.752</ele>
        <time>2019-06-15T08:42:32Z</time>
      </trkpt>
      <trkpt lat="39.360973" lon="-0.327093">
        <ele>4.056</ele>
        <time>2019-06-15T08:42:33Z</time>
      </trkpt>
      <trkpt lat="39.360913" lon="-0.327074">
        <ele>4.225</ele>
        <time>2019-06-15T08:42:34Z</time>
      </trkpt>
      <trkpt lat="39.360860" lon="-0.327054">
        <ele>4.378</ele>
        <time>2019-06-15T08:42:35Z</time>
      </trkpt>
      <trkpt lat="39.360795" lon="-0.327029">
        <ele>4.230</ele>
        <time>2019-06-15T08:42:36Z</time>
      </trkpt>
      <trkpt lat="39.360736" lon="-0.327006">
        <ele>3.937</ele>
        <time>2019-06-15T08:42:37Z</time>
      </trkpt>
      <trkpt lat="39.360666" lon="-0.326975">
        <ele>3.646</ele>
        <time>2019-06-15T08:42:38Z</time>
      </trkpt>
      <trkpt lat="39.360608" lon="-0.326957">
        <ele>3.381</ele>
        <time>2019-06-15T08:42:39Z</time>
      </trkpt>
      <trkpt lat="39.360550" lon="-0.326937">
        <ele>3.095</ele>
        <time>2019-06-15T08:42:40Z</time>
      </trkpt>
      <trkpt lat="39.360498" lon="-0.326925">
        <ele>3.049</ele>
        <time>2019-06-15T08:42:41Z</time>
      </trkpt>
      <trkpt lat="39.360440" lon="-0.326907">
        <ele>2.923</ele>
        <time>2019-06-15T08:42:42Z</time>
      </trkpt>
      <trkpt lat="39.360388" lon="-0.326879">
        <ele>2.908</ele>
        <time>2019-06-15T08:42:43Z</time>
      </trkpt>
      <trkpt lat="39.360331" lon="-0.326854">
        <ele>2.782</ele>
        <time>2019-06-15T08:42:44Z</time>
      </trkpt>
      <trkpt lat="39.360262" lon="-0.326833">
        <ele>2.636</ele>
        <time>2019-06-15T08:42:45Z</time>
      </trkpt>
      <trkpt lat="39.360204" lon="-0.326827">
        <ele>2.425</ele>
        <time>2019-06-15T08:42:46Z</time>
      </trkpt>
      <trkpt lat="39.360150" lon="-0.326817">
        <ele>2.318</ele>
        <time>2019-06-15T08:42:47Z</time>
      </trkpt>
      <trkpt lat="39.360090" lon="-0.326809">
        <ele>2.250</ele>
        <time>2019-06-15T08:42:48Z</time>
      </trkpt>
      <trkpt lat="39.360035" lon="-0.326795">
        <ele>2.137</ele>
        <time>2019-06-15T08:42:49Z</time>
      </trkpt>
      <trkpt lat="39.359991" lon="-0.326772">
        <ele>2.046</ele>
        <time>2019-06-15T08:42:50Z</time>
      </trkpt>
      <trkpt lat="39.359942" lon="-0.326756">
        <ele>1.941</ele>
        <time>2019-06-15T08:42:51Z</time>
      </trkpt>
      <trkpt lat="39.359888" lon="-0.326739">
        <ele>1.955</ele>
        <time>2019-06-15T08:42:52Z</time>
      </trkpt>
      <trkpt lat="39.359827" lon="-0.326738">
        <ele>1.807</ele>
        <time>2019-06-15T08:42:53Z</time>
      </trkpt>
      <trkpt lat="39.359775" lon="-0.326725">
        <ele>1.817</ele>
        <time>2019-06-15T08:42:54Z</time>
      </trkpt>
      <trkpt lat="39.359720" lon="-0.326711">
        <ele>1.808</ele>
        <time>2019-06-15T08:42:55Z</time>
      </trkpt>
      <trkpt lat="39.359672" lon="-0.326689">
        <ele>1.938</ele>
        <time>2019-06-15T08:42:56Z</time>
      </trkpt>
      <trkpt lat="39.359627" lon="-0.326672">
        <ele>2.052</ele>
        <time>2019-06-15T08:42:57Z</time>
      </trkpt>
      <trkpt lat="39.359577" lon="-0.326657">
        <ele>2.061</ele>
        <time>2019-06-15T08:42:58Z</time>
      </trkpt>
      <trkpt lat="39.359523" lon="-0.326657">
        <ele>2.034</ele>
        <time>2019-06-15T08:42:59Z</time>
      </trkpt>
      <trkpt lat="39.359476" lon="-0.326637">
        <ele>2.186</ele>
        <time>2019-06-15T08:43:00Z</time>
      </trkpt>
      <trkpt lat="39.359427" lon="-0.326639">
        <ele>2.043</ele>
        <time>2019-06-15T08:43:01Z</time>
      </trkpt>
      <trkpt lat="39.359380" lon="-0.326633">
        <ele>1.972</ele>
        <time>2019-06-15T08:43:02Z</time>
      </trkpt>
      <trkpt lat="39.359327" lon="-0.326617">
        <ele>1.887</ele>
        <time>2019-06-15T08:43:03Z</time>
      </trkpt>
      <trkpt lat="39.359278" lon="-0.326608">
        <ele>1.634</ele>
        <time>2019-06-15T08:43:04Z</time>
      </trkpt>
      <trkpt lat="39.359224" lon="-0.326618">
        <ele>1.455</ele>
        <time>2019-06-15T08:43:05Z</time>
      </trkpt>
      <trkpt lat="39.359174" lon="-0.326616">
        <ele>1.210</ele>
        <time>2019-06-15T08:43:06Z</time>
      </trkpt>
      <trkpt lat="39.359121" lon="-0.326620">
        <ele>0.908</ele>
        <time>2019-06-15T08:43:07Z</time>
      </trkpt>
      <trkpt lat="39.359067" lon="-0.326619">
        <ele>0.516</ele>
        <time>2019-06-15T08:43:08Z</time>
      </trkpt>
      <trkpt lat="39.358975" lon="-0.326602">
        <ele>0.080</ele>
        <time>2019-06-15T08:43:10Z</time>
      </trkpt>
      <trkpt lat="39.358932" lon="-0.326567">
        <ele>-0.089</ele>
        <time>2019-06-15T08:43:11Z</time>
      </trkpt>
      <trkpt lat="39.358891" lon="-0.326528">
        <ele>0.092</ele>
        <time>2019-06-15T08:43:12Z</time>
      </trkpt>
      <trkpt lat="39.358855" lon="-0.326490">
        <ele>0.144</ele>
        <time>2019-06-15T08:43:13Z</time>
      </trkpt>
      <trkpt lat="39.358809" lon="-0.326456">
        <ele>0.281</ele>
        <time>2019-06-15T08:43:14Z</time>
      </trkpt>
      <trkpt lat="39.358764" lon="-0.326423">
        <ele>0.310</ele>
        <time>2019-06-15T08:43:15Z</time>
      </trkpt>
      <trkpt lat="39.358707" lon="-0.326398">
        <ele>0.375</ele>
        <time>2019-06-15T08:43:16Z</time>
      </trkpt>
      <trkpt lat="39.358652" lon="-0.326379">
        <ele>0.244</ele>
        <time>2019-06-15T08:43:17Z</time>
      </trkpt>
      <trkpt lat="39.358589" lon="-0.326351">
        <ele>0.305</ele>
        <time>2019-06-15T08:43:18Z</time>
      </trkpt>
      <trkpt lat="39.358535" lon="-0.326334">
        <ele>0.315</ele>
        <time>2019-06-15T08:43:19Z</time>
      </trkpt>
      <trkpt lat="39.358487" lon="-0.326308">
        <ele>0.508</ele>
        <time>2019-06-15T08:43:20Z</time>
      </trkpt>
      <trkpt lat="39.358432" lon="-0.326289">
        <ele>0.567</ele>
        <time>2019-06-15T08:43:21Z</time>
      </trkpt>
      <trkpt lat="39.358379" lon="-0.326276">
        <ele>0.581</ele>
        <time>2019-06-15T08:43:22Z</time>
      </trkpt>
      <trkpt lat="39.358321" lon="-0.326263">
        <ele>0.480</ele>
        <time>2019-06-15T08:43:23Z</time>
      </trkpt>
      <trkpt lat="39.358267" lon="-0.326247">
        <ele>0.443</ele>
        <time>2019-06-15T08:43:24Z</time>
      </trkpt>
      <trkpt lat="39.358217" lon="-0.326237">
        <ele>0.335</ele>
        <time>2019-06-15T08:43:25Z</time>
      </trkpt>
      <trkpt lat="39.358161" lon="-0.326246">
        <ele>0.242</ele>
        <time>2019-06-15T08:43:26Z</time>
      </trkpt>
      <trkpt lat="39.358106" lon="-0.326228">
        <ele>0.161</ele>
        <time>2019-06-15T08:43:27Z</time>
      </trkpt>
      <trkpt lat="39.358043" lon="-0.326213">
        <ele>-0.056</ele>
        <time>2019-06-15T08:43:28Z</time>
      </trkpt>
      <trkpt lat="39.357995" lon="-0.326197">
        <ele>-0.215</ele>
        <time>2019-06-15T08:43:29Z</time>
      </trkpt>
      <trkpt lat="39.357939" lon="-0.326174">
        <ele>-0.365</ele>
        <time>2019-06-15T08:43:30Z</time>
      </trkpt>
      <trkpt lat="39.357893" lon="-0.326146">
        <ele>-0.511</ele>
        <time>2019-06-15T08:43:31Z</time>
      </trkpt>
      <trkpt lat="39.357836" lon="-0.326121">
        <ele>-0.808</ele>
        <time>2019-06-15T08:43:32Z</time>
      </trkpt>
      <trkpt lat="39.357779" lon="-0.326113">
        <ele>-1.064</ele>
        <time>2019-06-15T08:43:33Z</time>
      </trkpt>
      <trkpt lat="39.357723" lon="-0.326093">
        <ele>-1.078</ele>
        <time>2019-06-15T08:43:34Z</time>
      </trkpt>
      <trkpt lat="39.357670" lon="-0.326067">
        <ele>-1.087</ele>
        <time>2019-06-15T08:43:35Z</time>
      </trkpt>
      <trkpt lat="39.357612" lon="-0.326049">
        <ele>-1.090</ele>
        <time>2019-06-15T08:43:36Z</time>
      </trkpt>
      <trkpt lat="39.357563" lon="-0.326037">
        <ele>-1.062</ele>
        <time>2019-06-15T08:43:37Z</time>
      </trkpt>
      <trkpt lat="39.357499" lon="-0.326019">
        <ele>-1.059</ele>
        <time>2019-06-15T08:43:38Z</time>
      </trkpt>
      <trkpt lat="39.357441" lon="-0.326005">
        <ele>-1.088</ele>
        <time>2019-06-15T08:43:39Z</time>
      </trkpt>
      <trkpt lat="39.357389" lon="-0.325986">
        <ele>-1.013</ele>
        <time>2019-06-15T08:43:40Z</time>
      </trkpt>
      <trkpt lat="39.357333" lon="-0.325968">
        <ele>-1.034</ele>
        <time>2019-06-15T08:43:41Z</time>
      </trkpt>
      <trkpt lat="39.357271" lon="-0.325963">
        <ele>-1.055</ele>
        <time>2019-06-15T08:43:42Z</time>
      </trkpt>
      <trkpt lat="39.357214" lon="-0.325947">
        <ele>-1.010</ele>
        <time>2019-06-15T08:43:43Z</time>
      </trkpt>
      <trkpt lat="39.357154" lon="-0.325933">
        <ele>-0.908</ele>
        <time>2019-06-15T08:43:44Z</time>
      </trkpt>
      <trkpt lat="39.357093" lon="-0.325914">
        <ele>-0.826</ele>
        <time>2019-06-15T08:43:45Z</time>
      </trkpt>
      <trkpt lat="39.357036" lon="-0.325891">
        <ele>-0.640</ele>
        <time>2019-06-15T08:43:46Z</time>
      </trkpt>
      <trkpt lat="39.356976" lon="-0.325873">
        <ele>-0.499</ele>
        <time>2019-06-15T08:43:47Z</time>
      </trkpt>
      <trkpt lat="39.356919" lon="-0.325852">
        <ele>-0.292</ele>
        <time>2019-06-15T08:43:48Z</time>
      </trkpt>
      <trkpt lat="39.356872" lon="-0.325837">
        <ele>-0.334</ele>
        <time>2019-06-15T08:43:49Z</time>
      </trkpt>
      <trkpt lat="39.356818" lon="-0.325807">
        <ele>-0.361</ele>
        <time>2019-06-15T08:43:50Z</time>
      </trkpt>
      <trkpt lat="39.356758" lon="-0.325780">
        <ele>-0.340</ele>
        <time>2019-06-15T08:43:51Z</time>
      </trkpt>
      <trkpt lat="39.356702" lon="-0.325759">
        <ele>-0.355</ele>
        <time>2019-06-15T08:43:52Z</time>
      </trkpt>
      <trkpt lat="39.356645" lon="-0.325746">
        <ele>-0.499</ele>
        <time>2019-06-15T08:43:53Z</time>
      </trkpt>
      <trkpt lat="39.356588" lon="-0.325731">
        <ele>-0.307</ele>
        <time>2019-06-15T08:43:54Z</time>
      </trkpt>
      <trkpt lat="39.356528" lon="-0.325711">
        <ele>-0.127</ele>
        <time>2019-06-15T08:43:55Z</time>
      </trkpt>
      <trkpt lat="39.356473" lon="-0.325694">
        <ele>0.008</ele>
        <time>2019-06-15T08:43:56Z</time>
      </trkpt>
      <trkpt lat="39.356418" lon="-0.325684">
        <ele>0.152</ele>
        <time>2019-06-15T08:43:57Z</time>
      </trkpt>
      <trkpt lat="39.356353" lon="-0.325681">
        <ele>0.336</ele>
        <time>2019-06-15T08:43:58Z</time>
      </trkpt>
      <trkpt lat="39.356287" lon="-0.325653">
        <ele>0.825</ele>
        <time>2019-06-15T08:43:59Z</time>
      </trkpt>
      <trkpt lat="39.356224" lon="-0.325631">
        <ele>1.288</ele>
        <time>2019-06-15T08:44:00Z</time>
      </trkpt>
      <trkpt lat="39.356169" lon="-0.325616">
        <ele>1.580</ele>
        <time>2019-06-15T08:44:01Z</time>
      </trkpt>
      <trkpt lat="39.356110" lon="-0.325595">
        <ele>1.947</ele>
        <time>2019-06-15T08:44:02Z</time>
      </trkpt>
      <trkpt lat="39.356051" lon="-0.325577">
        <ele>1.946</ele>
        <time>2019-06-15T08:44:03Z</time>
      </trkpt>
      <trkpt lat="39.355998" lon="-0.325567">
        <ele>2.081</ele>
        <time>2019-06-15T08:44:04Z</time>
      </trkpt>
      <trkpt lat="39.355938" lon="-0.325556">
        <ele>2.059</ele>
        <time>2019-06-15T08:44:05Z</time>
      </trkpt>
      <trkpt lat="39.355875" lon="-0.325543">
        <ele>2.103</ele>
        <time>2019-06-15T08:44:06Z</time>
      </trkpt>
      <trkpt lat="39.355816" lon="-0.325524">
        <ele>2.123</ele>
        <time>2019-06-15T08:44:07Z</time>
      </trkpt>
      <trkpt lat="39.355756" lon="-0.325497">
        <ele>2.208</ele>
        <time>2019-06-15T08:44:08Z</time>
      </trkpt>
      <trkpt lat="39.355698" lon="-0.325483">
        <ele>2.338</ele>
        <time>2019-06-15T08:44:09Z</time>
      </trkpt>
      <trkpt lat="39.355630" lon="-0.325459">
        <ele>2.312</ele>
        <time>2019-06-15T08:44:10Z</time>
      </trkpt>
      <trkpt lat="39.355564" lon="-0.325451">
        <ele>2.491</ele>
        <time>2019-06-15T08:44:11Z</time>
      </trkpt>
      <trkpt lat="39.355501" lon="-0.325431">
        <ele>2.254</ele>
        <time>2019-06-15T08:44:12Z</time>
      </trkpt>
      <trkpt lat="39.355439" lon="-0.325413">
        <ele>1.956</ele>
        <time>2019-06-15T08:44:13Z</time>
      </trkpt>
      <trkpt lat="39.355376" lon="-0.325387">
        <ele>1.623</ele>
        <time>2019-06-15T08:44:14Z</time>
      </trkpt>
      <trkpt lat="39.355314" lon="-0.325367">
        <ele>1.222</ele>
        <time>2019-06-15T08:44:15Z</time>
      </trkpt>
      <trkpt lat="39.355258" lon="-0.325351">
        <ele>1.067</ele>
        <time>2019-06-15T08:44:16Z</time>
      </trkpt>
      <trkpt lat="39.355197" lon="-0.325332">
        <ele>0.994</ele>
        <time>2019-06-15T08:44:17Z</time>
      </trkpt>
      <trkpt lat="39.355141" lon="-0.325320">
        <ele>0.857</ele>
        <time>2019-06-15T08:44:18Z</time>
      </trkpt>
      <trkpt lat="39.355081" lon="-0.325299">
        <ele>0.922</ele>
        <time>2019-06-15T08:44:19Z</time>
      </trkpt>
      <trkpt lat="39.355020" lon="-0.325273">
        <ele>1.008</ele>
        <time>2019-06-15T08:44:20Z</time>
      </trkpt>
      <trkpt lat="39.354959" lon="-0.325253">
        <ele>1.252</ele>
        <time>2019-06-15T08:44:21Z</time>
      </trkpt>
      <trkpt lat="39.354904" lon="-0.325246">
        <ele>1.236</ele>
        <time>2019-06-15T08:44:22Z</time>
      </trkpt>
      <trkpt lat="39.354840" lon="-0.325220">
        <ele>1.455</ele>
        <time>2019-06-15T08:44:23Z</time>
      </trkpt>
      <trkpt lat="39.354788" lon="-0.325214">
        <ele>1.578</ele>
        <time>2019-06-15T08:44:24Z</time>
      </trkpt>
      <trkpt lat="39.354726" lon="-0.325196">
        <ele>1.690</ele>
        <time>2019-06-15T08:44:25Z</time>
      </trkpt>
      <trkpt lat="39.354655" lon="-0.325163">
        <ele>1.317</ele>
        <time>2019-06-15T08:44:26Z</time>
      </trkpt>
      <trkpt lat="39.354590" lon="-0.325145">
        <ele>1.076</ele>
        <time>2019-06-15T08:44:27Z</time>
      </trkpt>
      <trkpt lat="39.354534" lon="-0.325147">
        <ele>0.621</ele>
        <time>2019-06-15T08:44:28Z</time>
      </trkpt>
      <trkpt lat="39.354469" lon="-0.325130">
        <ele>0.284</ele>
        <time>2019-06-15T08:44:29Z</time>
      </trkpt>
      <trkpt lat="39.354411" lon="-0.325105">
        <ele>0.107</ele>
        <time>2019-06-15T08:44:30Z</time>
      </trkpt>
      <trkpt lat="39.354352" lon="-0.325083">
        <ele>0.117</ele>
        <time>2019-06-15T08:44:31Z</time>
      </trkpt>
      <trkpt lat="39.354284" lon="-0.325046">
        <ele>0.108</ele>
        <time>2019-06-15T08:44:32Z</time>
      </trkpt>
      <trkpt lat="39.354220" lon="-0.325017">
        <ele>0.151</ele>
        <time>2019-06-15T08:44:33Z</time>
      </trkpt>
      <trkpt lat="39.354158" lon="-0.324999">
        <ele>-0.015</ele>
        <time>2019-06-15T08:44:34Z</time>
      </trkpt>
      <trkpt lat="39.354100" lon="-0.324972">
        <ele>-0.124</ele>
        <time>2019-06-15T08:44:35Z</time>
      </trkpt>
      <trkpt lat="39.354036" lon="-0.324957">
        <ele>-0.357</ele>
        <time>2019-06-15T08:44:36Z</time>
      </trkpt>
      <trkpt lat="39.353976" lon="-0.324938">
        <ele>-0.559</ele>
        <time>2019-06-15T08:44:37Z</time>
      </trkpt>
      <trkpt lat="39.353923" lon="-0.324920">
        <ele>-0.696</ele>
        <time>2019-06-15T08:44:38Z</time>
      </trkpt>
      <trkpt lat="39.353859" lon="-0.324894">
        <ele>-0.795</ele>
        <time>2019-06-15T08:44:39Z</time>
      </trkpt>
      <trkpt lat="39.353798" lon="-0.324871">
        <ele>-0.770</ele>
        <time>2019-06-15T08:44:40Z</time>
      </trkpt>
      <trkpt lat="39.353737" lon="-0.324855">
        <ele>-0.715</ele>
        <time>2019-06-15T08:44:41Z</time>
      </trkpt>
      <trkpt lat="39.353675" lon="-0.324835">
        <ele>-0.765</ele>
        <time>2019-06-15T08:44:42Z</time>
      </trkpt>
      <trkpt lat="39.353615" lon="-0.324818">
        <ele>-0.711</ele>
        <time>2019-06-15T08:44:43Z</time>
      </trkpt>
      <trkpt lat="39.353561" lon="-0.324804">
        <ele>-0.608</ele>
        <time>2019-06-15T08:44:44Z</time>
      </trkpt>
      <trkpt lat="39.353503" lon="-0.324791">
        <ele>-0.524</ele>
        <time>2019-06-15T08:44:45Z</time>
      </trkpt>
      <trkpt lat="39.353442" lon="-0.324767">
        <ele>-0.348</ele>
        <time>2019-06-15T08:44:46Z</time>
      </trkpt>
      <trkpt lat="39.353374" lon="-0.324753">
        <ele>-0.297</ele>
        <time>2019-06-15T08:44:47Z</time>
      </trkpt>
      <trkpt lat="39.353319" lon="-0.324735">
        <ele>-0.090</ele>
        <time>2019-06-15T08:44:48Z</time>
      </trkpt>
      <trkpt lat="39.353260" lon="-0.324715">
        <ele>0.372</ele>
        <time>2019-06-15T08:44:49Z</time>
      </trkpt>
      <trkpt lat="39.353206" lon="-0.324728">
        <ele>0.419</ele>
        <time>2019-06-15T08:44:50Z</time>
      </trkpt>
      <trkpt lat="39.353146" lon="-0.324710">
        <ele>0.868</ele>
        <time>2019-06-15T08:44:51Z</time>
      </trkpt>
      <trkpt lat="39.353086" lon="-0.324693">
        <ele>1.153</ele>
        <time>2019-06-15T08:44:52Z</time>
      </trkpt>
      <trkpt lat="39.353022" lon="-0.324684">
        <ele>1.249</ele>
        <time>2019-06-15T08:44:53Z</time>
      </trkpt>
      <trkpt lat="39.352966" lon="-0.324671">
        <ele>1.102</ele>
        <time>2019-06-15T08:44:54Z</time>
      </trkpt>
      <trkpt lat="39.352908" lon="-0.324651">
        <ele>1.122</ele>
        <time>2019-06-15T08:44:55Z</time>
      </trkpt>
      <trkpt lat="39.352847" lon="-0.324625">
        <ele>1.208</ele>
        <time>2019-06-15T08:44:56Z</time>
      </trkpt>
      <trkpt lat="39.352782" lon="-0.324597">
        <ele>1.477</ele>
        <time>2019-06-15T08:44:57Z</time>
      </trkpt>
      <trkpt lat="39.352723" lon="-0.324577">
        <ele>1.421</ele>
        <time>2019-06-15T08:44:58Z</time>
      </trkpt>
      <trkpt lat="39.352680" lon="-0.324537">
        <ele>1.890</ele>
        <time>2019-06-15T08:44:59Z</time>
      </trkpt>
      <trkpt lat="39.352621" lon="-0.324518">
        <ele>1.963</ele>
        <time>2019-06-15T08:45:00Z</time>
      </trkpt>
      <trkpt lat="39.352560" lon="-0.324491">
        <ele>2.215</ele>
        <time>2019-06-15T08:45:01Z</time>
      </trkpt>
      <trkpt lat="39.352502" lon="-0.324481">
        <ele>2.382</ele>
        <time>2019-06-15T08:45:02Z</time>
      </trkpt>
      <trkpt lat="39.352444" lon="-0.324465">
        <ele>2.351</ele>
        <time>2019-06-15T08:45:03Z</time>
      </trkpt>
      <trkpt lat="39.352385" lon="-0.324437">
        <ele>2.226</ele>
        <time>2019-06-15T08:45:04Z</time>
      </trkpt>
      <trkpt lat="39.352327" lon="-0.324418">
        <ele>2.085</ele>
        <time>2019-06-15T08:45:05Z</time>
      </trkpt>
      <trkpt lat="39.352274" lon="-0.324412">
        <ele>1.789</ele>
        <time>2019-06-15T08:45:06Z</time>
      </trkpt>
      <trkpt lat="39.352220" lon="-0.324391">
        <ele>1.617</ele>
        <time>2019-06-15T08:45:07Z</time>
      </trkpt>
      <trkpt lat="39.352153" lon="-0.324371">
        <ele>2.108</ele>
        <time>2019-06-15T08:45:08Z</time>
      </trkpt>
      <trkpt lat="39.352091" lon="-0.324358">
        <ele>2.611</ele>
        <time>2019-06-15T08:45:09Z</time>
      </trkpt>
      <trkpt lat="39.352030" lon="-0.324345">
        <ele>3.025</ele>
        <time>2019-06-15T08:45:10Z</time>
      </trkpt>
      <trkpt lat="39.351976" lon="-0.324331">
        <ele>3.574</ele>
        <time>2019-06-15T08:45:11Z</time>
      </trkpt>
      <trkpt lat="39.351918" lon="-0.324309">
        <ele>3.947</ele>
        <time>2019-06-15T08:45:12Z</time>
      </trkpt>
      <trkpt lat="39.351855" lon="-0.324290">
        <ele>3.919</ele>
        <time>2019-06-15T08:45:13Z</time>
      </trkpt>
      <trkpt lat="39.351796" lon="-0.324273">
        <ele>3.956</ele>
        <time>2019-06-15T08:45:14Z</time>
      </trkpt>
      <trkpt lat="39.351726" lon="-0.324251">
        <ele>4.095</ele>
        <time>2019-06-15T08:45:15Z</time>
      </trkpt>
      <trkpt lat="39.351673" lon="-0.324233">
        <ele>4.110</ele>
        <time>2019-06-15T08:45:16Z</time>
      </trkpt>
      <trkpt lat="39.351616" lon="-0.324214">
        <ele>3.676</ele>
        <time>2019-06-15T08:45:17Z</time>
      </trkpt>
      <trkpt lat="39.351559" lon="-0.324214">
        <ele>2.890</ele>
        <time>2019-06-15T08:45:18Z</time>
      </trkpt>
      <trkpt lat="39.351500" lon="-0.324197">
        <ele>2.219</ele>
        <time>2019-06-15T08:45:19Z</time>
      </trkpt>
      <trkpt lat="39.351446" lon="-0.324189">
        <ele>1.608</ele>
        <time>2019-06-15T08:45:20Z</time>
      </trkpt>
      <trkpt lat="39.351387" lon="-0.324171">
        <ele>0.970</ele>
        <time>2019-06-15T08:45:21Z</time>
      </trkpt>
      <trkpt lat="39.351330" lon="-0.324145">
        <ele>0.594</ele>
        <time>2019-06-15T08:45:22Z</time>
      </trkpt>
      <trkpt lat="39.351274" lon="-0.324127">
        <ele>0.123</ele>
        <time>2019-06-15T08:45:23Z</time>
      </trkpt>
      <trkpt lat="39.351215" lon="-0.324110">
        <ele>-0.386</ele>
        <time>2019-06-15T08:45:24Z</time>
      </trkpt>
      <trkpt lat="39.351154" lon="-0.324087">
        <ele>-0.718</ele>
        <time>2019-06-15T08:45:25Z</time>
      </trkpt>
      <trkpt lat="39.351088" lon="-0.324065">
        <ele>-1.055</ele>
        <time>2019-06-15T08:45:26Z</time>
      </trkpt>
      <trkpt lat="39.351032" lon="-0.324070">
        <ele>-1.244</ele>
        <time>2019-06-15T08:45:27Z</time>
      </trkpt>
      <trkpt lat="39.350972" lon="-0.324053">
        <ele>-1.249</ele>
        <time>2019-06-15T08:45:28Z</time>
      </trkpt>
      <trkpt lat="39.350910" lon="-0.324024">
        <ele>-1.221</ele>
        <time>2019-06-15T08:45:29Z</time>
      </trkpt>
      <trkpt lat="39.350836" lon="-0.323991">
        <ele>-1.441</ele>
        <time>2019-06-15T08:45:30Z</time>
      </trkpt>
      <trkpt lat="39.350770" lon="-0.323961">
        <ele>-1.305</ele>
        <time>2019-06-15T08:45:31Z</time>
      </trkpt>
      <trkpt lat="39.350718" lon="-0.323937">
        <ele>-1.208</ele>
        <time>2019-06-15T08:45:32Z</time>
      </trkpt>
      <trkpt lat="39.350661" lon="-0.323915">
        <ele>-1.155</ele>
        <time>2019-06-15T08:45:33Z</time>
      </trkpt>
      <trkpt lat="39.350606" lon="-0.323895">
        <ele>-1.089</ele>
        <time>2019-06-15T08:45:34Z</time>
      </trkpt>
      <trkpt lat="39.350551" lon="-0.323879">
        <ele>-0.958</ele>
        <time>2019-06-15T08:45:35Z</time>
      </trkpt>
      <trkpt lat="39.350497" lon="-0.323859">
        <ele>-0.721</ele>
        <time>2019-06-15T08:45:36Z</time>
      </trkpt>
      <trkpt lat="39.350437" lon="-0.323834">
        <ele>-0.563</ele>
        <time>2019-06-15T08:45:37Z</time>
      </trkpt>
      <trkpt lat="39.350380" lon="-0.323823">
        <ele>-0.450</ele>
        <time>2019-06-15T08:45:38Z</time>
      </trkpt>
      <trkpt lat="39.350320" lon="-0.323804">
        <ele>-0.359</ele>
        <time>2019-06-15T08:45:39Z</time>
      </trkpt>
      <trkpt lat="39.350263" lon="-0.323781">
        <ele>-0.394</ele>
        <time>2019-06-15T08:45:40Z</time>
      </trkpt>
      <trkpt lat="39.350203" lon="-0.323760">
        <ele>-0.283</ele>
        <time>2019-06-15T08:45:41Z</time>
      </trkpt>
      <trkpt lat="39.350140" lon="-0.323747">
        <ele>-0.225</ele>
        <time>2019-06-15T08:45:42Z</time>
      </trkpt>
      <trkpt lat="39.350081" lon="-0.323728">
        <ele>-0.117</ele>
        <time>2019-06-15T08:45:43Z</time>
      </trkpt>
      <trkpt lat="39.350027" lon="-0.323709">
        <ele>-0.008</ele>
        <time>2019-06-15T08:45:44Z</time>
      </trkpt>
      <trkpt lat="39.349968" lon="-0.323692">
        <ele>0.271</ele>
        <time>2019-06-15T08:45:45Z</time>
      </trkpt>
      <trkpt lat="39.349903" lon="-0.323690">
        <ele>0.265</ele>
        <time>2019-06-15T08:45:46Z</time>
      </trkpt>
      <trkpt lat="39.349847" lon="-0.323667">
        <ele>0.544</ele>
        <time>2019-06-15T08:45:47Z</time>
      </trkpt>
      <trkpt lat="39.349785" lon="-0.323656">
        <ele>0.637</ele>
        <time>2019-06-15T08:45:48Z</time>
      </trkpt>
      <trkpt lat="39.349727" lon="-0.323631">
        <ele>0.959</ele>
        <time>2019-06-15T08:45:49Z</time>
      </trkpt>
      <trkpt lat="39.349675" lon="-0.323621">
        <ele>0.966</ele>
        <time>2019-06-15T08:45:50Z</time>
      </trkpt>
      <trkpt lat="39.349622" lon="-0.323606">
        <ele>1.045</ele>
        <time>2019-06-15T08:45:51Z</time>
      </trkpt>
      <trkpt lat="39.349565" lon="-0.323587">
        <ele>1.110</ele>
        <time>2019-06-15T08:45:52Z</time>
      </trkpt>
      <trkpt lat="39.349509" lon="-0.323568">
        <ele>1.266</ele>
        <time>2019-06-15T08:45:53Z</time>
      </trkpt>
      <trkpt lat="39.349447" lon="-0.323560">
        <ele>1.229</ele>
        <time>2019-06-15T08:45:54Z</time>
      </trkpt>
      <trkpt lat="39.349393" lon="-0.323542">
        <ele>0.821</ele>
        <time>2019-06-15T08:45:55Z</time>
      </trkpt>
      <trkpt lat="39.349338" lon="-0.323525">
        <ele>0.408</ele>
        <time>2019-06-15T08:45:56Z</time>
      </trkpt>
      <trkpt lat="39.349287" lon="-0.323497">
        <ele>0.049</ele>
        <time>2019-06-15T08:45:57Z</time>
      </trkpt>
      <trkpt lat="39.349225" lon="-0.323491">
        <ele>-0.513</ele>
        <time>2019-06-15T08:45:58Z</time>
      </trkpt>
      <trkpt lat="39.349174" lon="-0.323475">
        <ele>-0.992</ele>
        <time>2019-06-15T08:45:59Z</time>
      </trkpt>
      <trkpt lat="39.349127" lon="-0.323456">
        <ele>-1.275</ele>
        <time>2019-06-15T08:46:00Z</time>
      </trkpt>
      <trkpt lat="39.349071" lon="-0.323430">
        <ele>-1.637</ele>
        <time>2019-06-15T08:46:01Z</time>
      </trkpt>
      <trkpt lat="39.349022" lon="-0.323414">
        <ele>-1.944</ele>
        <time>2019-06-15T08:46:02Z</time>
      </trkpt>
      <trkpt lat="39.348974" lon="-0.323390">
        <ele>-2.263</ele>
        <time>2019-06-15T08:46:03Z</time>
      </trkpt>
      <trkpt lat="39.348919" lon="-0.323371">
        <ele>-2.758</ele>
        <time>2019-06-15T08:46:04Z</time>
      </trkpt>
      <trkpt lat="39.348870" lon="-0.323349">
        <ele>-3.079</ele>
        <time>2019-06-15T08:46:05Z</time>
      </trkpt>
      <trkpt lat="39.348824" lon="-0.323329">
        <ele>-3.205</ele>
        <time>2019-06-15T08:46:06Z</time>
      </trkpt>
      <trkpt lat="39.348773" lon="-0.323300">
        <ele>-3.325</ele>
        <time>2019-06-15T08:46:07Z</time>
      </trkpt>
      <trkpt lat="39.348718" lon="-0.323282">
        <ele>-3.408</ele>
        <time>2019-06-15T08:46:08Z</time>
      </trkpt>
      <trkpt lat="39.348660" lon="-0.323258">
        <ele>-3.640</ele>
        <time>2019-06-15T08:46:09Z</time>
      </trkpt>
      <trkpt lat="39.348594" lon="-0.323248">
        <ele>-3.764</ele>
        <time>2019-06-15T08:46:10Z</time>
      </trkpt>
      <trkpt lat="39.348539" lon="-0.323228">
        <ele>-3.833</ele>
        <time>2019-06-15T08:46:11Z</time>
      </trkpt>
      <trkpt lat="39.348489" lon="-0.323211">
        <ele>-3.876</ele>
        <time>2019-06-15T08:46:12Z</time>
      </trkpt>
      <trkpt lat="39.348433" lon="-0.323186">
        <ele>-3.868</ele>
        <time>2019-06-15T08:46:13Z</time>
      </trkpt>
      <trkpt lat="39.348386" lon="-0.323160">
        <ele>-3.785</ele>
        <time>2019-06-15T08:46:14Z</time>
      </trkpt>
      <trkpt lat="39.348336" lon="-0.323141">
        <ele>-3.614</ele>
        <time>2019-06-15T08:46:15Z</time>
      </trkpt>
      <trkpt lat="39.348281" lon="-0.323119">
        <ele>-3.279</ele>
        <time>2019-06-15T08:46:16Z</time>
      </trkpt>
      <trkpt lat="39.348233" lon="-0.323104">
        <ele>-2.912</ele>
        <time>2019-06-15T08:46:17Z</time>
      </trkpt>
      <trkpt lat="39.348181" lon="-0.323083">
        <ele>-2.532</ele>
        <time>2019-06-15T08:46:18Z</time>
      </trkpt>
      <trkpt lat="39.348130" lon="-0.323068">
        <ele>-2.305</ele>
        <time>2019-06-15T08:46:19Z</time>
      </trkpt>
      <trkpt lat="39.348078" lon="-0.323049">
        <ele>-2.108</ele>
        <time>2019-06-15T08:46:20Z</time>
      </trkpt>
      <trkpt lat="39.348028" lon="-0.323030">
        <ele>-1.894</ele>
        <time>2019-06-15T08:46:21Z</time>
      </trkpt>
      <trkpt lat="39.347975" lon="-0.323010">
        <ele>-1.598</ele>
        <time>2019-06-15T08:46:22Z</time>
      </trkpt>
      <trkpt lat="39.347910" lon="-0.323000">
        <ele>-1.227</ele>
        <time>2019-06-15T08:46:23Z</time>
      </trkpt>
      <trkpt lat="39.347858" lon="-0.322979">
        <ele>-0.870</ele>
        <time>2019-06-15T08:46:24Z</time>
      </trkpt>
      <trkpt lat="39.347807" lon="-0.322958">
        <ele>-0.462</ele>
        <time>2019-06-15T08:46:25Z</time>
      </trkpt>
      <trkpt lat="39.347749" lon="-0.322938">
        <ele>-0.199</ele>
        <time>2019-06-15T08:46:26Z</time>
      </trkpt>
      <trkpt lat="39.347696" lon="-0.322920">
        <ele>0.338</ele>
        <time>2019-06-15T08:46:27Z</time>
      </trkpt>
      <trkpt lat="39.347638" lon="-0.322904">
        <ele>0.673</ele>
        <time>2019-06-15T08:46:28Z</time>
      </trkpt>
      <trkpt lat="39.347577" lon="-0.322886">
        <ele>0.947</ele>
        <time>2019-06-15T08:46:29Z</time>
      </trkpt>
      <trkpt lat="39.347518" lon="-0.322864">
        <ele>1.329</ele>
        <time>2019-06-15T08:46:30Z</time>
      </trkpt>
      <trkpt lat="39.347460" lon="-0.322856">
        <ele>1.421</ele>
        <time>2019-06-15T08:46:31Z</time>
      </trkpt>
      <trkpt lat="39.347402" lon="-0.322836">
        <ele>1.508</ele>
        <time>2019-06-15T08:46:32Z</time>
      </trkpt>
      <trkpt lat="39.347345" lon="-0.322809">
        <ele>1.767</ele>
        <time>2019-06-15T08:46:33Z</time>
      </trkpt>
      <trkpt lat="39.347293" lon="-0.322793">
        <ele>1.921</ele>
        <time>2019-06-15T08:46:34Z</time>
      </trkpt>
      <trkpt lat="39.347237" lon="-0.322773">
        <ele>2.090</ele>
        <time>2019-06-15T08:46:35Z</time>
      </trkpt>
      <trkpt lat="39.347180" lon="-0.322775">
        <ele>2.233</ele>
        <time>2019-06-15T08:46:36Z</time>
      </trkpt>
      <trkpt lat="39.347104" lon="-0.322755">
        <ele>2.675</ele>
        <time>2019-06-15T08:46:37Z</time>
      </trkpt>
      <trkpt lat="39.347045" lon="-0.322733">
        <ele>3.022</ele>
        <time>2019-06-15T08:46:38Z</time>
      </trkpt>
      <trkpt lat="39.346994" lon="-0.322705">
        <ele>3.351</ele>
        <time>2019-06-15T08:46:39Z</time>
      </trkpt>
      <trkpt lat="39.346943" lon="-0.322682">
        <ele>3.746</ele>
        <time>2019-06-15T08:46:40Z</time>
      </trkpt>
      <trkpt lat="39.346887" lon="-0.322659">
        <ele>3.488</ele>
        <time>2019-06-15T08:46:41Z</time>
      </trkpt>
      <trkpt lat="39.346821" lon="-0.322630">
        <ele>3.224</ele>
        <time>2019-06-15T08:46:42Z</time>
      </trkpt>
      <trkpt lat="39.346764" lon="-0.322613">
        <ele>2.926</ele>
        <time>2019-06-15T08:46:43Z</time>
      </trkpt>
      <trkpt lat="39.346694" lon="-0.322577">
        <ele>2.608</ele>
        <time>2019-06-15T08:46:44Z</time>
      </trkpt>
      <trkpt lat="39.346630" lon="-0.322556">
        <ele>2.281</ele>
        <time>2019-06-15T08:46:45Z</time>
      </trkpt>
      <trkpt lat="39.346576" lon="-0.322539">
        <ele>1.775</ele>
        <time>2019-06-15T08:46:46Z</time>
      </trkpt>
      <trkpt lat="39.346518" lon="-0.322517">
        <ele>1.264</ele>
        <time>2019-06-15T08:46:47Z</time>
      </trkpt>
      <trkpt lat="39.346461" lon="-0.322502">
        <ele>0.847</ele>
        <time>2019-06-15T08:46:48Z</time>
      </trkpt>
      <trkpt lat="39.346405" lon="-0.322481">
        <ele>0.499</ele>
        <time>2019-06-15T08:46:49Z</time>
      </trkpt>
      <trkpt lat="39.346352" lon="-0.322455">
        <ele>0.956</ele>
        <time>2019-06-15T08:46:50Z</time>
      </trkpt>
      <trkpt lat="39.346288" lon="-0.322420">
        <ele>1.725</ele>
        <time>2019-06-15T08:46:51Z</time>
      </trkpt>
      <trkpt lat="39.346230" lon="-0.322394">
        <ele>2.210</ele>
        <time>2019-06-15T08:46:52Z</time>
      </trkpt>
      <trkpt lat="39.346174" lon="-0.322374">
        <ele>2.757</ele>
        <time>2019-06-15T08:46:53Z</time>
      </trkpt>
      <trkpt lat="39.346107" lon="-0.322339">
        <ele>3.200</ele>
        <time>2019-06-15T08:46:54Z</time>
      </trkpt>
      <trkpt lat="39.346045" lon="-0.322306">
        <ele>3.620</ele>
        <time>2019-06-15T08:46:55Z</time>
      </trkpt>
      <trkpt lat="39.345999" lon="-0.322276">
        <ele>4.008</ele>
        <time>2019-06-15T08:46:56Z</time>
      </trkpt>
      <trkpt lat="39.345954" lon="-0.322243">
        <ele>4.438</ele>
        <time>2019-06-15T08:46:57Z</time>
      </trkpt>
      <trkpt lat="39.345901" lon="-0.322216">
        <ele>4.872</ele>
        <time>2019-06-15T08:46:58Z</time>
      </trkpt>
      <trkpt lat="39.345846" lon="-0.322179">
        <ele>5.081</ele>
        <time>2019-06-15T08:46:59Z</time>
      </trkpt>
      <trkpt lat="39.345794" lon="-0.322142">
        <ele>4.924</ele>
        <time>2019-06-15T08:47:00Z</time>
      </trkpt>
      <trkpt lat="39.345734" lon="-0.322116">
        <ele>4.846</ele>
        <time>2019-06-15T08:47:01Z</time>
      </trkpt>
      <trkpt lat="39.345674" lon="-0.322090">
        <ele>4.723</ele>
        <time>2019-06-15T08:47:02Z</time>
      </trkpt>
      <trkpt lat="39.345622" lon="-0.322063">
        <ele>4.792</ele>
        <time>2019-06-15T08:47:03Z</time>
      </trkpt>
      <trkpt lat="39.345559" lon="-0.322025">
        <ele>4.767</ele>
        <time>2019-06-15T08:47:04Z</time>
      </trkpt>
      <trkpt lat="39.345499" lon="-0.321988">
        <ele>4.685</ele>
        <time>2019-06-15T08:47:05Z</time>
      </trkpt>
      <trkpt lat="39.345443" lon="-0.321958">
        <ele>4.589</ele>
        <time>2019-06-15T08:47:06Z</time>
      </trkpt>
      <trkpt lat="39.345390" lon="-0.321918">
        <ele>4.517</ele>
        <time>2019-06-15T08:47:07Z</time>
      </trkpt>
      <trkpt lat="39.345337" lon="-0.321887">
        <ele>4.408</ele>
        <time>2019-06-15T08:47:08Z</time>
      </trkpt>
      <trkpt lat="39.345281" lon="-0.321854">
        <ele>4.361</ele>
        <time>2019-06-15T08:47:09Z</time>
      </trkpt>
      <trkpt lat="39.345215" lon="-0.321826">
        <ele>4.155</ele>
        <time>2019-06-15T08:47:10Z</time>
      </trkpt>
      <trkpt lat="39.345155" lon="-0.321780">
        <ele>3.994</ele>
        <time>2019-06-15T08:47:11Z</time>
      </trkpt>
      <trkpt lat="39.345087" lon="-0.321746">
        <ele>3.577</ele>
        <time>2019-06-15T08:47:12Z</time>
      </trkpt>
      <trkpt lat="39.345038" lon="-0.321731">
        <ele>3.279</ele>
        <time>2019-06-15T08:47:13Z</time>
      </trkpt>
      <trkpt lat="39.344963" lon="-0.321689">
        <ele>2.746</ele>
        <time>2019-06-15T08:47:14Z</time>
      </trkpt>
      <trkpt lat="39.344903" lon="-0.321655">
        <ele>2.315</ele>
        <time>2019-06-15T08:47:15Z</time>
      </trkpt>
      <trkpt lat="39.344839" lon="-0.321618">
        <ele>1.840</ele>
        <time>2019-06-15T08:47:16Z</time>
      </trkpt>
      <trkpt lat="39.344791" lon="-0.321572">
        <ele>1.536</ele>
        <time>2019-06-15T08:47:17Z</time>
      </trkpt>
      <trkpt lat="39.344732" lon="-0.321530">
        <ele>1.117</ele>
        <time>2019-06-15T08:47:18Z</time>
      </trkpt>
      <trkpt lat="39.344659" lon="-0.321490">
        <ele>0.918</ele>
        <time>2019-06-15T08:47:19Z</time>
      </trkpt>
      <trkpt lat="39.344607" lon="-0.321480">
        <ele>0.908</ele>
        <time>2019-06-15T08:47:20Z</time>
      </trkpt>
      <trkpt lat="39.344541" lon="-0.321441">
        <ele>0.956</ele>
        <time>2019-06-15T08:47:21Z</time>
      </trkpt>
      <trkpt lat="39.344480" lon="-0.321431">
        <ele>0.930</ele>
        <time>2019-06-15T08:47:22Z</time>
      </trkpt>
      <trkpt lat="39.344434" lon="-0.321408">
        <ele>1.039</ele>
        <time>2019-06-15T08:47:23Z</time>
      </trkpt>
      <trkpt lat="39.344386" lon="-0.321387">
        <ele>1.282</ele>
        <time>2019-06-15T08:47:24Z</time>
      </trkpt>
      <trkpt lat="39.344323" lon="-0.321365">
        <ele>1.554</ele>
        <time>2019-06-15T08:47:25Z</time>
      </trkpt>
      <trkpt lat="39.344246" lon="-0.321323">
        <ele>2.011</ele>
        <time>2019-06-15T08:47:26Z</time>
      </trkpt>
      <trkpt lat="39.344163" lon="-0.321314">
        <ele>2.340</ele>
        <time>2019-06-15T08:47:28Z</time>
      </trkpt>
      <trkpt lat="39.344119" lon="-0.321245">
        <ele>2.635</ele>
        <time>2019-06-15T08:47:29Z</time>
      </trkpt>
      <trkpt lat="39.344061" lon="-0.321215">
        <ele>2.876</ele>
        <time>2019-06-15T08:47:30Z</time>
      </trkpt>
      <trkpt lat="39.343984" lon="-0.321175">
        <ele>2.990</ele>
        <time>2019-06-15T08:47:31Z</time>
      </trkpt>
      <trkpt lat="39.343937" lon="-0.321126">
        <ele>3.019</ele>
        <time>2019-06-15T08:47:32Z</time>
      </trkpt>
      <trkpt lat="39.343881" lon="-0.321114">
        <ele>3.008</ele>
        <time>2019-06-15T08:47:33Z</time>
      </trkpt>
      <trkpt lat="39.343833" lon="-0.321080">
        <ele>3.340</ele>
        <time>2019-06-15T08:47:34Z</time>
      </trkpt>
      <trkpt lat="39.343767" lon="-0.321022">
        <ele>3.624</ele>
        <time>2019-06-15T08:47:35Z</time>
      </trkpt>
      <trkpt lat="39.343693" lon="-0.320985">
        <ele>3.873</ele>
        <time>2019-06-15T08:47:36Z</time>
      </trkpt>
      <trkpt lat="39.343643" lon="-0.320974">
        <ele>3.936</ele>
        <time>2019-06-15T08:47:37Z</time>
      </trkpt>
      <trkpt lat="39.343588" lon="-0.320951">
        <ele>4.088</ele>
        <time>2019-06-15T08:47:38Z</time>
      </trkpt>
      <trkpt lat="39.343524" lon="-0.320911">
        <ele>4.025</ele>
        <time>2019-06-15T08:47:39Z</time>
      </trkpt>
      <trkpt lat="39.343466" lon="-0.320876">
        <ele>4.014</ele>
        <time>2019-06-15T08:47:40Z</time>
      </trkpt>
      <trkpt lat="39.343414" lon="-0.320840">
        <ele>4.039</ele>
        <time>2019-06-15T08:47:41Z</time>
      </trkpt>
      <trkpt lat="39.343369" lon="-0.320814">
        <ele>4.013</ele>
        <time>2019-06-15T08:47:42Z</time>
      </trkpt>
      <trkpt lat="39.343317" lon="-0.320784">
        <ele>4.043</ele>
        <time>2019-06-15T08:47:43Z</time>
      </trkpt>
      <trkpt lat="39.343262" lon="-0.320754">
        <ele>4.207</ele>
        <time>2019-06-15T08:47:44Z</time>
      </trkpt>
      <trkpt lat="39.343214" lon="-0.320723">
        <ele>4.308</ele>
        <time>2019-06-15T08:47:45Z</time>
      </trkpt>
      <trkpt lat="39.343161" lon="-0.320686">
        <ele>4.314</ele>
        <time>2019-06-15T08:47:46Z</time>
      </trkpt>
      <trkpt lat="39.343103" lon="-0.320653">
        <ele>4.378</ele>
        <time>2019-06-15T08:47:47Z</time>
      </trkpt>
      <trkpt lat="39.343044" lon="-0.320615">
        <ele>4.297</ele>
        <time>2019-06-15T08:47:48Z</time>
      </trkpt>
      <trkpt lat="39.342984" lon="-0.320565">
        <ele>4.310</ele>
        <time>2019-06-15T08:47:49Z</time>
      </trkpt>
      <trkpt lat="39.342930" lon="-0.320542">
        <ele>4.442</ele>
        <time>2019-06-15T08:47:50Z</time>
      </trkpt>
      <trkpt lat="39.342867" lon="-0.320516">
        <ele>4.649</ele>
        <time>2019-06-15T08:47:51Z</time>
      </trkpt>
      <trkpt lat="39.342805" lon="-0.320477">
        <ele>4.688</ele>
        <time>2019-06-15T08:47:52Z</time>
      </trkpt>
      <trkpt lat="39.342735" lon="-0.320443">
        <ele>4.473</ele>
        <time>2019-06-15T08:47:54Z</time>
      </trkpt>
      <trkpt lat="39.342690" lon="-0.320416">
        <ele>4.252</ele>
        <time>2019-06-15T08:47:55Z</time>
      </trkpt>
      <trkpt lat="39.342620" lon="-0.320378">
        <ele>3.853</ele>
        <time>2019-06-15T08:47:56Z</time>
      </trkpt>
      <trkpt lat="39.342533" lon="-0.320327">
        <ele>3.308</ele>
        <time>2019-06-15T08:47:57Z</time>
      </trkpt>
      <trkpt lat="39.342428" lon="-0.320283">
        <ele>3.008</ele>
        <time>2019-06-15T08:47:59Z</time>
      </trkpt>
      <trkpt lat="39.342377" lon="-0.320236">
        <ele>3.068</ele>
        <time>2019-06-15T08:48:00Z</time>
      </trkpt>
      <trkpt lat="39.342332" lon="-0.320207">
        <ele>3.052</ele>
        <time>2019-06-15T08:48:01Z</time>
      </trkpt>
      <trkpt lat="39.342276" lon="-0.320182">
        <ele>3.071</ele>
        <time>2019-06-15T08:48:02Z</time>
      </trkpt>
      <trkpt lat="39.342220" lon="-0.320122">
        <ele>3.024</ele>
        <time>2019-06-15T08:48:03Z</time>
      </trkpt>
      <trkpt lat="39.342150" lon="-0.320122">
        <ele>3.076</ele>
        <time>2019-06-15T08:48:04Z</time>
      </trkpt>
      <trkpt lat="39.342055" lon="-0.320066">
        <ele>3.033</ele>
        <time>2019-06-15T08:48:05Z</time>
      </trkpt>
      <trkpt lat="39.341981" lon="-0.320030">
        <ele>3.052</ele>
        <time>2019-06-15T08:48:06Z</time>
      </trkpt>
      <trkpt lat="39.341924" lon="-0.319998">
        <ele>2.967</ele>
        <time>2019-06-15T08:48:07Z</time>
      </trkpt>
      <trkpt lat="39.341883" lon="-0.319966">
        <ele>2.858</ele>
        <time>2019-06-15T08:48:08Z</time>
      </trkpt>
      <trkpt lat="39.341838" lon="-0.319955">
        <ele>2.752</ele>
        <time>2019-06-15T08:48:09Z</time>
      </trkpt>
      <trkpt lat="39.341771" lon="-0.319917">
        <ele>2.617</ele>
        <time>2019-06-15T08:48:10Z</time>
      </trkpt>
      <trkpt lat="39.341713" lon="-0.319869">
        <ele>2.608</ele>
        <time>2019-06-15T08:48:11Z</time>
      </trkpt>
      <trkpt lat="39.341664" lon="-0.319831">
        <ele>2.678</ele>
        <time>2019-06-15T08:48:12Z</time>
      </trkpt>
      <trkpt lat="39.341609" lon="-0.319803">
        <ele>2.532</ele>
        <time>2019-06-15T08:48:13Z</time>
      </trkpt>
      <trkpt lat="39.341554" lon="-0.319779">
        <ele>2.481</ele>
        <time>2019-06-15T08:48:14Z</time>
      </trkpt>
      <trkpt lat="39.341494" lon="-0.319743">
        <ele>2.384</ele>
        <time>2019-06-15T08:48:15Z</time>
      </trkpt>
      <trkpt lat="39.341390" lon="-0.319675">
        <ele>2.376</ele>
        <time>2019-06-15T08:48:17Z</time>
      </trkpt>
      <trkpt lat="39.341344" lon="-0.319634">
        <ele>2.653</ele>
        <time>2019-06-15T08:48:18Z</time>
      </trkpt>
      <trkpt lat="39.341289" lon="-0.319652">
        <ele>2.542</ele>
        <time>2019-06-15T08:48:19Z</time>
      </trkpt>
      <trkpt lat="39.341234" lon="-0.319573">
        <ele>3.197</ele>
        <time>2019-06-15T08:48:20Z</time>
      </trkpt>
      <trkpt lat="39.341171" lon="-0.319552">
        <ele>3.257</ele>
        <time>2019-06-15T08:48:21Z</time>
      </trkpt>
      <trkpt lat="39.341107" lon="-0.319523">
        <ele>3.400</ele>
        <time>2019-06-15T08:48:22Z</time>
      </trkpt>
      <trkpt lat="39.341067" lon="-0.319466">
        <ele>3.720</ele>
        <time>2019-06-15T08:48:23Z</time>
      </trkpt>
      <trkpt lat="39.340998" lon="-0.319438">
        <ele>3.608</ele>
        <time>2019-06-15T08:48:24Z</time>
      </trkpt>
      <trkpt lat="39.340939" lon="-0.319448">
        <ele>3.488</ele>
        <time>2019-06-15T08:48:25Z</time>
      </trkpt>
      <trkpt lat="39.340848" lon="-0.319388">
        <ele>3.372</ele>
        <time>2019-06-15T08:48:27Z</time>
      </trkpt>
      <trkpt lat="39.340785" lon="-0.319371">
        <ele>3.211</ele>
        <time>2019-06-15T08:48:28Z</time>
      </trkpt>
      <trkpt lat="39.340717" lon="-0.319336">
        <ele>3.214</ele>
        <time>2019-06-15T08:48:29Z</time>
      </trkpt>
      <trkpt lat="39.340653" lon="-0.319300">
        <ele>3.226</ele>
        <time>2019-06-15T08:48:30Z</time>
      </trkpt>
      <trkpt lat="39.340596" lon="-0.319279">
        <ele>3.163</ele>
        <time>2019-06-15T08:48:31Z</time>
      </trkpt>
      <trkpt lat="39.340521" lon="-0.319256">
        <ele>3.082</ele>
        <time>2019-06-15T08:48:32Z</time>
      </trkpt>
      <trkpt lat="39.340468" lon="-0.319221">
        <ele>2.937</ele>
        <time>2019-06-15T08:48:33Z</time>
      </trkpt>
      <trkpt lat="39.340414" lon="-0.319201">
        <ele>2.916</ele>
        <time>2019-06-15T08:48:34Z</time>
      </trkpt>
      <trkpt lat="39.340355" lon="-0.319169">
        <ele>3.076</ele>
        <time>2019-06-15T08:48:35Z</time>
      </trkpt>
      <trkpt lat="39.340300" lon="-0.319148">
        <ele>3.013</ele>
        <time>2019-06-15T08:48:36Z</time>
      </trkpt>
      <trkpt lat="39.340242" lon="-0.319128">
        <ele>2.908</ele>
        <time>2019-06-15T08:48:37Z</time>
      </trkpt>
      <trkpt lat="39.340190" lon="-0.319092">
        <ele>2.734</ele>
        <time>2019-06-15T08:48:38Z</time>
      </trkpt>
      <trkpt lat="39.340102" lon="-0.319051">
        <ele>2.488</ele>
        <time>2019-06-15T08:48:40Z</time>
      </trkpt>
      <trkpt lat="39.340040" lon="-0.319041">
        <ele>2.177</ele>
        <time>2019-06-15T08:48:41Z</time>
      </trkpt>
      <trkpt lat="39.339951" lon="-0.319096">
        <ele>1.930</ele>
        <time>2019-06-15T08:48:43Z</time>
      </trkpt>
      <trkpt lat="39.339951" lon="-0.319096">
        <ele>1.992</ele>
        <time>2019-06-15T08:48:43Z</time>
      </trkpt>
      <trkpt lat="39.339906" lon="-0.319129">
        <ele>1.759</ele>
        <time>2019-06-15T08:48:44Z</time>
      </trkpt>
      <trkpt lat="39.339862" lon="-0.319190">
        <ele>1.518</ele>
        <time>2019-06-15T08:48:45Z</time>
      </trkpt>
      <trkpt lat="39.339835" lon="-0.319245">
        <ele>1.483</ele>
        <time>2019-06-15T08:48:46Z</time>
      </trkpt>
      <trkpt lat="39.339805" lon="-0.319317">
        <ele>1.349</ele>
        <time>2019-06-15T08:48:47Z</time>
      </trkpt>
      <trkpt lat="39.339779" lon="-0.319386">
        <ele>1.202</ele>
        <time>2019-06-15T08:48:48Z</time>
      </trkpt>
      <trkpt lat="39.339777" lon="-0.319474">
        <ele>1.222</ele>
        <time>2019-06-15T08:48:49Z</time>
      </trkpt>
      <trkpt lat="39.339761" lon="-0.319544">
        <ele>1.108</ele>
        <time>2019-06-15T08:48:50Z</time>
      </trkpt>
      <trkpt lat="39.339733" lon="-0.319609">
        <ele>1.087</ele>
        <time>2019-06-15T08:48:51Z</time>
      </trkpt>
      <trkpt lat="39.339713" lon="-0.319678">
        <ele>1.011</ele>
        <time>2019-06-15T08:48:52Z</time>
      </trkpt>
      <trkpt lat="39.339681" lon="-0.319739">
        <ele>1.090</ele>
        <time>2019-06-15T08:48:53Z</time>
      </trkpt>
      <trkpt lat="39.339655" lon="-0.319806">
        <ele>1.093</ele>
        <time>2019-06-15T08:48:54Z</time>
      </trkpt>
      <trkpt lat="39.339634" lon="-0.319880">
        <ele>1.055</ele>
        <time>2019-06-15T08:48:55Z</time>
      </trkpt>
      <trkpt lat="39.339613" lon="-0.319944">
        <ele>1.062</ele>
        <time>2019-06-15T08:48:56Z</time>
      </trkpt>
      <trkpt lat="39.339571" lon="-0.320003">
        <ele>1.051</ele>
        <time>2019-06-15T08:48:57Z</time>
      </trkpt>
      <trkpt lat="39.339563" lon="-0.320071">
        <ele>0.796</ele>
        <time>2019-06-15T08:48:58Z</time>
      </trkpt>
      <trkpt lat="39.339550" lon="-0.320140">
        <ele>0.512</ele>
        <time>2019-06-15T08:48:59Z</time>
      </trkpt>
      <trkpt lat="39.339525" lon="-0.320197">
        <ele>0.332</ele>
        <time>2019-06-15T08:49:00Z</time>
      </trkpt>
      <trkpt lat="39.339508" lon="-0.320276">
        <ele>0.005</ele>
        <time>2019-06-15T08:49:01Z</time>
      </trkpt>
      <trkpt lat="39.339482" lon="-0.320334">
        <ele>-0.208</ele>
        <time>2019-06-15T08:49:02Z</time>
      </trkpt>
      <trkpt lat="39.339454" lon="-0.320396">
        <ele>-0.414</ele>
        <time>2019-06-15T08:49:03Z</time>
      </trkpt>
      <trkpt lat="39.339417" lon="-0.320456">
        <ele>-0.528</ele>
        <time>2019-06-15T08:49:04Z</time>
      </trkpt>
      <trkpt lat="39.339377" lon="-0.320499">
        <ele>-0.657</ele>
        <time>2019-06-15T08:49:05Z</time>
      </trkpt>
      <trkpt lat="39.339296" lon="-0.320563">
        <ele>-0.530</ele>
        <time>2019-06-15T08:49:07Z</time>
      </trkpt>
      <trkpt lat="39.339248" lon="-0.320596">
        <ele>-0.432</ele>
        <time>2019-06-15T08:49:08Z</time>
      </trkpt>
      <trkpt lat="39.339200" lon="-0.320613">
        <ele>-0.339</ele>
        <time>2019-06-15T08:49:09Z</time>
      </trkpt>
      <trkpt lat="39.339148" lon="-0.320631">
        <ele>-0.228</ele>
        <time>2019-06-15T08:49:10Z</time>
      </trkpt>
      <trkpt lat="39.339090" lon="-0.320628">
        <ele>0.013</ele>
        <time>2019-06-15T08:49:11Z</time>
      </trkpt>
      <trkpt lat="39.339040" lon="-0.320623">
        <ele>0.227</ele>
        <time>2019-06-15T08:49:12Z</time>
      </trkpt>
      <trkpt lat="39.338981" lon="-0.320614">
        <ele>0.568</ele>
        <time>2019-06-15T08:49:13Z</time>
      </trkpt>
      <trkpt lat="39.338908" lon="-0.320633">
        <ele>0.714</ele>
        <time>2019-06-15T08:49:14Z</time>
      </trkpt>
      <trkpt lat="39.338854" lon="-0.320626">
        <ele>0.708</ele>
        <time>2019-06-15T08:49:15Z</time>
      </trkpt>
      <trkpt lat="39.338798" lon="-0.320615">
        <ele>0.515</ele>
        <time>2019-06-15T08:49:16Z</time>
      </trkpt>
      <trkpt lat="39.338743" lon="-0.320609">
        <ele>0.439</ele>
        <time>2019-06-15T08:49:17Z</time>
      </trkpt>
      <trkpt lat="39.338685" lon="-0.320604">
        <ele>0.268</ele>
        <time>2019-06-15T08:49:18Z</time>
      </trkpt>
      <trkpt lat="39.338614" lon="-0.320593">
        <ele>0.081</ele>
        <time>2019-06-15T08:49:19Z</time>
      </trkpt>
      <trkpt lat="39.338555" lon="-0.320583">
        <ele>-0.273</ele>
        <time>2019-06-15T08:49:20Z</time>
      </trkpt>
      <trkpt lat="39.338503" lon="-0.320553">
        <ele>-0.460</ele>
        <time>2019-06-15T08:49:21Z</time>
      </trkpt>
      <trkpt lat="39.338450" lon="-0.320545">
        <ele>-0.659</ele>
        <time>2019-06-15T08:49:22Z</time>
      </trkpt>
      <trkpt lat="39.338390" lon="-0.320536">
        <ele>-0.894</ele>
        <time>2019-06-15T08:49:23Z</time>
      </trkpt>
      <trkpt lat="39.338333" lon="-0.320528">
        <ele>-1.078</ele>
        <time>2019-06-15T08:49:24Z</time>
      </trkpt>
      <trkpt lat="39.338275" lon="-0.320517">
        <ele>-1.233</ele>
        <time>2019-06-15T08:49:25Z</time>
      </trkpt>
      <trkpt lat="39.338219" lon="-0.320500">
        <ele>-1.326</ele>
        <time>2019-06-15T08:49:26Z</time>
      </trkpt>
      <trkpt lat="39.338159" lon="-0.320488">
        <ele>-1.508</ele>
        <time>2019-06-15T08:49:27Z</time>
      </trkpt>
      <trkpt lat="39.338105" lon="-0.320481">
        <ele>-1.620</ele>
        <time>2019-06-15T08:49:28Z</time>
      </trkpt>
      <trkpt lat="39.338050" lon="-0.320464">
        <ele>-1.744</ele>
        <time>2019-06-15T08:49:29Z</time>
      </trkpt>
      <trkpt lat="39.337999" lon="-0.320461">
        <ele>-1.513</ele>
        <time>2019-06-15T08:49:30Z</time>
      </trkpt>
      <trkpt lat="39.337932" lon="-0.320438">
        <ele>-1.346</ele>
        <time>2019-06-15T08:49:31Z</time>
      </trkpt>
      <trkpt lat="39.337867" lon="-0.320438">
        <ele>-1.268</ele>
        <time>2019-06-15T08:49:32Z</time>
      </trkpt>
      <trkpt lat="39.337805" lon="-0.320438">
        <ele>-1.135</ele>
        <time>2019-06-15T08:49:33Z</time>
      </trkpt>
      <trkpt lat="39.337746" lon="-0.320425">
        <ele>-1.174</ele>
        <time>2019-06-15T08:49:34Z</time>
      </trkpt>
      <trkpt lat="39.337695" lon="-0.320399">
        <ele>-1.189</ele>
        <time>2019-06-15T08:49:35Z</time>
      </trkpt>
      <trkpt lat="39.337635" lon="-0.320387">
        <ele>-1.214</ele>
        <time>2019-06-15T08:49:36Z</time>
      </trkpt>
      <trkpt lat="39.337570" lon="-0.320369">
        <ele>-1.254</ele>
        <time>2019-06-15T08:49:37Z</time>
      </trkpt>
      <trkpt lat="39.337511" lon="-0.320356">
        <ele>-1.309</ele>
        <time>2019-06-15T08:49:38Z</time>
      </trkpt>
      <trkpt lat="39.337458" lon="-0.320346">
        <ele>-1.208</ele>
        <time>2019-06-15T08:49:39Z</time>
      </trkpt>
      <trkpt lat="39.337397" lon="-0.320331">
        <ele>-1.224</ele>
        <time>2019-06-15T08:49:40Z</time>
      </trkpt>
      <trkpt lat="39.337341" lon="-0.320322">
        <ele>-1.288</ele>
        <time>2019-06-15T08:49:41Z</time>
      </trkpt>
      <trkpt lat="39.337281" lon="-0.320306">
        <ele>-1.137</ele>
        <time>2019-06-15T08:49:42Z</time>
      </trkpt>
      <trkpt lat="39.337226" lon="-0.320291">
        <ele>-1.010</ele>
        <time>2019-06-15T08:49:43Z</time>
      </trkpt>
      <trkpt lat="39.337169" lon="-0.320274">
        <ele>-1.012</ele>
        <time>2019-06-15T08:49:44Z</time>
      </trkpt>
      <trkpt lat="39.337115" lon="-0.320273">
        <ele>-1.099</ele>
        <time>2019-06-15T08:49:45Z</time>
      </trkpt>
      <trkpt lat="39.337051" lon="-0.320257">
        <ele>-1.028</ele>
        <time>2019-06-15T08:49:46Z</time>
      </trkpt>
      <trkpt lat="39.336995" lon="-0.320250">
        <ele>-1.053</ele>
        <time>2019-06-15T08:49:47Z</time>
      </trkpt>
      <trkpt lat="39.336940" lon="-0.320239">
        <ele>-1.055</ele>
        <time>2019-06-15T08:49:48Z</time>
      </trkpt>
      <trkpt lat="39.336878" lon="-0.320236">
        <ele>-1.007</ele>
        <time>2019-06-15T08:49:49Z</time>
      </trkpt>
      <trkpt lat="39.336822" lon="-0.320211">
        <ele>-1.017</ele>
        <time>2019-06-15T08:49:50Z</time>
      </trkpt>
      <trkpt lat="39.336752" lon="-0.320199">
        <ele>-1.008</ele>
        <time>2019-06-15T08:49:51Z</time>
      </trkpt>
      <trkpt lat="39.336693" lon="-0.320192">
        <ele>-1.078</ele>
        <time>2019-06-15T08:49:52Z</time>
      </trkpt>
      <trkpt lat="39.336634" lon="-0.320188">
        <ele>-1.032</ele>
        <time>2019-06-15T08:49:53Z</time>
      </trkpt>
      <trkpt lat="39.336571" lon="-0.320170">
        <ele>-1.011</ele>
        <time>2019-06-15T08:49:54Z</time>
      </trkpt>
      <trkpt lat="39.336509" lon="-0.320151">
        <ele>-1.094</ele>
        <time>2019-06-15T08:49:55Z</time>
      </trkpt>
      <trkpt lat="39.336452" lon="-0.320130">
        <ele>-1.086</ele>
        <time>2019-06-15T08:49:56Z</time>
      </trkpt>
      <trkpt lat="39.336392" lon="-0.320123">
        <ele>-1.043</ele>
        <time>2019-06-15T08:49:57Z</time>
      </trkpt>
      <trkpt lat="39.336334" lon="-0.320105">
        <ele>-0.982</ele>
        <time>2019-06-15T08:49:58Z</time>
      </trkpt>
      <trkpt lat="39.336273" lon="-0.320090">
        <ele>-0.767</ele>
        <time>2019-06-15T08:49:59Z</time>
      </trkpt>
      <trkpt lat="39.336213" lon="-0.320089">
        <ele>-0.653</ele>
        <time>2019-06-15T08:50:00Z</time>
      </trkpt>
      <trkpt lat="39.336148" lon="-0.320076">
        <ele>-0.404</ele>
        <time>2019-06-15T08:50:01Z</time>
      </trkpt>
      <trkpt lat="39.336085" lon="-0.320071">
        <ele>-0.314</ele>
        <time>2019-06-15T08:50:02Z</time>
      </trkpt>
      <trkpt lat="39.336023" lon="-0.320062">
        <ele>-0.308</ele>
        <time>2019-06-15T08:50:03Z</time>
      </trkpt>
      <trkpt lat="39.335961" lon="-0.320051">
        <ele>-0.388</ele>
        <time>2019-06-15T08:50:04Z</time>
      </trkpt>
      <trkpt lat="39.335903" lon="-0.320043">
        <ele>-0.322</ele>
        <time>2019-06-15T08:50:05Z</time>
      </trkpt>
      <trkpt lat="39.335839" lon="-0.320039">
        <ele>-0.371</ele>
        <time>2019-06-15T08:50:06Z</time>
      </trkpt>
      <trkpt lat="39.335783" lon="-0.320019">
        <ele>-0.394</ele>
        <time>2019-06-15T08:50:07Z</time>
      </trkpt>
      <trkpt lat="39.335722" lon="-0.320014">
        <ele>-0.546</ele>
        <time>2019-06-15T08:50:08Z</time>
      </trkpt>
      <trkpt lat="39.335655" lon="-0.320003">
        <ele>-0.743</ele>
        <time>2019-06-15T08:50:09Z</time>
      </trkpt>
      <trkpt lat="39.335589" lon="-0.319998">
        <ele>-0.982</ele>
        <time>2019-06-15T08:50:10Z</time>
      </trkpt>
      <trkpt lat="39.335527" lon="-0.320003">
        <ele>-0.967</ele>
        <time>2019-06-15T08:50:11Z</time>
      </trkpt>
      <trkpt lat="39.335462" lon="-0.320003">
        <ele>-0.719</ele>
        <time>2019-06-15T08:50:12Z</time>
      </trkpt>
      <trkpt lat="39.335405" lon="-0.319996">
        <ele>-0.509</ele>
        <time>2019-06-15T08:50:13Z</time>
      </trkpt>
      <trkpt lat="39.335347" lon="-0.319997">
        <ele>-0.319</ele>
        <time>2019-06-15T08:50:14Z</time>
      </trkpt>
      <trkpt lat="39.335281" lon="-0.320002">
        <ele>-0.008</ele>
        <time>2019-06-15T08:50:15Z</time>
      </trkpt>
      <trkpt lat="39.335218" lon="-0.319999">
        <ele>-0.264</ele>
        <time>2019-06-15T08:50:16Z</time>
      </trkpt>
      <trkpt lat="39.335157" lon="-0.319992">
        <ele>-0.518</ele>
        <time>2019-06-15T08:50:17Z</time>
      </trkpt>
      <trkpt lat="39.335098" lon="-0.319984">
        <ele>-0.797</ele>
        <time>2019-06-15T08:50:18Z</time>
      </trkpt>
      <trkpt lat="39.335042" lon="-0.319979">
        <ele>-0.920</ele>
        <time>2019-06-15T08:50:19Z</time>
      </trkpt>
      <trkpt lat="39.334972" lon="-0.319967">
        <ele>-1.272</ele>
        <time>2019-06-15T08:50:20Z</time>
      </trkpt>
      <trkpt lat="39.334913" lon="-0.319958">
        <ele>-1.539</ele>
        <time>2019-06-15T08:50:21Z</time>
      </trkpt>
      <trkpt lat="39.334848" lon="-0.319941">
        <ele>-1.938</ele>
        <time>2019-06-15T08:50:22Z</time>
      </trkpt>
      <trkpt lat="39.334795" lon="-0.319922">
        <ele>-2.153</ele>
        <time>2019-06-15T08:50:23Z</time>
      </trkpt>
      <trkpt lat="39.334735" lon="-0.319922">
        <ele>-2.472</ele>
        <time>2019-06-15T08:50:24Z</time>
      </trkpt>
      <trkpt lat="39.334678" lon="-0.319909">
        <ele>-2.213</ele>
        <time>2019-06-15T08:50:25Z</time>
      </trkpt>
      <trkpt lat="39.334615" lon="-0.319900">
        <ele>-1.914</ele>
        <time>2019-06-15T08:50:26Z</time>
      </trkpt>
      <trkpt lat="39.334564" lon="-0.319884">
        <ele>-1.608</ele>
        <time>2019-06-15T08:50:27Z</time>
      </trkpt>
      <trkpt lat="39.334502" lon="-0.319868">
        <ele>-1.380</ele>
        <time>2019-06-15T08:50:28Z</time>
      </trkpt>
      <trkpt lat="39.334448" lon="-0.319856">
        <ele>-1.094</ele>
        <time>2019-06-15T08:50:29Z</time>
      </trkpt>
      <trkpt lat="39.334388" lon="-0.319850">
        <ele>-0.733</ele>
        <time>2019-06-15T08:50:30Z</time>
      </trkpt>
      <trkpt lat="39.334334" lon="-0.319837">
        <ele>-0.446</ele>
        <time>2019-06-15T08:50:31Z</time>
      </trkpt>
      <trkpt lat="39.334276" lon="-0.319830">
        <ele>-0.258</ele>
        <time>2019-06-15T08:50:32Z</time>
      </trkpt>
      <trkpt lat="39.334217" lon="-0.319816">
        <ele>0.145</ele>
        <time>2019-06-15T08:50:33Z</time>
      </trkpt>
      <trkpt lat="39.334160" lon="-0.319805">
        <ele>0.494</ele>
        <time>2019-06-15T08:50:34Z</time>
      </trkpt>
      <trkpt lat="39.334102" lon="-0.319798">
        <ele>0.389</ele>
        <time>2019-06-15T08:50:35Z</time>
      </trkpt>
      <trkpt lat="39.334043" lon="-0.319788">
        <ele>0.289</ele>
        <time>2019-06-15T08:50:36Z</time>
      </trkpt>
      <trkpt lat="39.333963" lon="-0.319782">
        <ele>-0.006</ele>
        <time>2019-06-15T08:50:37Z</time>
      </trkpt>
      <trkpt lat="39.333901" lon="-0.319771">
        <ele>-0.126</ele>
        <time>2019-06-15T08:50:38Z</time>
      </trkpt>
      <trkpt lat="39.333842" lon="-0.319745">
        <ele>0.108</ele>
        <time>2019-06-15T08:50:39Z</time>
      </trkpt>
      <trkpt lat="39.333768" lon="-0.319728">
        <ele>0.451</ele>
        <time>2019-06-15T08:50:40Z</time>
      </trkpt>
      <trkpt lat="39.333699" lon="-0.319711">
        <ele>0.725</ele>
        <time>2019-06-15T08:50:41Z</time>
      </trkpt>
      <trkpt lat="39.333637" lon="-0.319676">
        <ele>1.124</ele>
        <time>2019-06-15T08:50:42Z</time>
      </trkpt>
      <trkpt lat="39.333589" lon="-0.319664">
        <ele>1.277</ele>
        <time>2019-06-15T08:50:43Z</time>
      </trkpt>
      <trkpt lat="39.333528" lon="-0.319658">
        <ele>1.239</ele>
        <time>2019-06-15T08:50:44Z</time>
      </trkpt>
      <trkpt lat="39.333476" lon="-0.319654">
        <ele>1.236</ele>
        <time>2019-06-15T08:50:45Z</time>
      </trkpt>
      <trkpt lat="39.333419" lon="-0.319641">
        <ele>1.335</ele>
        <time>2019-06-15T08:50:46Z</time>
      </trkpt>
      <trkpt lat="39.333347" lon="-0.319649">
        <ele>1.330</ele>
        <time>2019-06-15T08:50:47Z</time>
      </trkpt>
      <trkpt lat="39.333284" lon="-0.319644">
        <ele>1.245</ele>
        <time>2019-06-15T08:50:48Z</time>
      </trkpt>
      <trkpt lat="39.333230" lon="-0.319637">
        <ele>1.047</ele>
        <time>2019-06-15T08:50:49Z</time>
      </trkpt>
      <trkpt lat="39.333178" lon="-0.319635">
        <ele>0.911</ele>
        <time>2019-06-15T08:50:50Z</time>
      </trkpt>
      <trkpt lat="39.333118" lon="-0.319628">
        <ele>0.808</ele>
        <time>2019-06-15T08:50:51Z</time>
      </trkpt>
      <trkpt lat="39.333063" lon="-0.319612">
        <ele>0.837</ele>
        <time>2019-06-15T08:50:52Z</time>
      </trkpt>
      <trkpt lat="39.333002" lon="-0.319602">
        <ele>1.081</ele>
        <time>2019-06-15T08:50:53Z</time>
      </trkpt>
      <trkpt lat="39.332935" lon="-0.319575">
        <ele>1.310</ele>
        <time>2019-06-15T08:50:54Z</time>
      </trkpt>
      <trkpt lat="39.332871" lon="-0.319564">
        <ele>1.473</ele>
        <time>2019-06-15T08:50:55Z</time>
      </trkpt>
      <trkpt lat="39.332800" lon="-0.319578">
        <ele>1.575</ele>
        <time>2019-06-15T08:50:56Z</time>
      </trkpt>
      <trkpt lat="39.332732" lon="-0.319573">
        <ele>1.442</ele>
        <time>2019-06-15T08:50:57Z</time>
      </trkpt>
      <trkpt lat="39.332667" lon="-0.319566">
        <ele>1.281</ele>
        <time>2019-06-15T08:50:58Z</time>
      </trkpt>
      <trkpt lat="39.332602" lon="-0.319556">
        <ele>1.036</ele>
        <time>2019-06-15T08:50:59Z</time>
      </trkpt>
      <trkpt lat="39.332538" lon="-0.319545">
        <ele>0.836</ele>
        <time>2019-06-15T08:51:00Z</time>
      </trkpt>
      <trkpt lat="39.332480" lon="-0.319534">
        <ele>0.617</ele>
        <time>2019-06-15T08:51:01Z</time>
      </trkpt>
      <trkpt lat="39.332413" lon="-0.319518">
        <ele>0.418</ele>
        <time>2019-06-15T08:51:02Z</time>
      </trkpt>
      <trkpt lat="39.332347" lon="-0.319505">
        <ele>0.208</ele>
        <time>2019-06-15T08:51:03Z</time>
      </trkpt>
      <trkpt lat="39.332283" lon="-0.319495">
        <ele>0.036</ele>
        <time>2019-06-15T08:51:04Z</time>
      </trkpt>
      <trkpt lat="39.332221" lon="-0.319489">
        <ele>-0.250</ele>
        <time>2019-06-15T08:51:05Z</time>
      </trkpt>
      <trkpt lat="39.332160" lon="-0.319483">
        <ele>-0.419</ele>
        <time>2019-06-15T08:51:06Z</time>
      </trkpt>
      <trkpt lat="39.332102" lon="-0.319472">
        <ele>-0.692</ele>
        <time>2019-06-15T08:51:07Z</time>
      </trkpt>
      <trkpt lat="39.332046" lon="-0.319462">
        <ele>-0.764</ele>
        <time>2019-06-15T08:51:08Z</time>
      </trkpt>
      <trkpt lat="39.331988" lon="-0.319473">
        <ele>-1.061</ele>
        <time>2019-06-15T08:51:09Z</time>
      </trkpt>
      <trkpt lat="39.331929" lon="-0.319460">
        <ele>-1.120</ele>
        <time>2019-06-15T08:51:10Z</time>
      </trkpt>
      <trkpt lat="39.331873" lon="-0.319455">
        <ele>-1.185</ele>
        <time>2019-06-15T08:51:11Z</time>
      </trkpt>
      <trkpt lat="39.331822" lon="-0.319451">
        <ele>-1.175</ele>
        <time>2019-06-15T08:51:12Z</time>
      </trkpt>
      <trkpt lat="39.331735" lon="-0.319441">
        <ele>-1.028</ele>
        <time>2019-06-15T08:51:14Z</time>
      </trkpt>
      <trkpt lat="39.331690" lon="-0.319441">
        <ele>-1.020</ele>
        <time>2019-06-15T08:51:17Z</time>
      </trkpt>
      <trkpt lat="39.331616" lon="-0.319441">
        <ele>-1.008</ele>
        <time>2019-06-15T08:51:20Z</time>
      </trkpt>
      <trkpt lat="39.331546" lon="-0.319431">
        <ele>-1.030</ele>
        <time>2019-06-15T08:51:22Z</time>
      </trkpt>
      <trkpt lat="39.331453" lon="-0.319418">
        <ele>-0.974</ele>
        <time>2019-06-15T08:51:24Z</time>
      </trkpt>
      <trkpt lat="39.331365" lon="-0.319404">
        <ele>-0.883</ele>
        <time>2019-06-15T08:51:26Z</time>
      </trkpt>
      <trkpt lat="39.331274" lon="-0.319379">
        <ele>-0.716</ele>
        <time>2019-06-15T08:51:28Z</time>
      </trkpt>
      <trkpt lat="39.331220" lon="-0.319371">
        <ele>-0.658</ele>
        <time>2019-06-15T08:51:29Z</time>
      </trkpt>
      <trkpt lat="39.331167" lon="-0.319362">
        <ele>-0.565</ele>
        <time>2019-06-15T08:51:30Z</time>
      </trkpt>
      <trkpt lat="39.331102" lon="-0.319347">
        <ele>-0.374</ele>
        <time>2019-06-15T08:51:31Z</time>
      </trkpt>
      <trkpt lat="39.331044" lon="-0.319340">
        <ele>-0.019</ele>
        <time>2019-06-15T08:51:32Z</time>
      </trkpt>
      <trkpt lat="39.330977" lon="-0.319309">
        <ele>0.572</ele>
        <time>2019-06-15T08:51:33Z</time>
      </trkpt>
      <trkpt lat="39.330920" lon="-0.319290">
        <ele>0.813</ele>
        <time>2019-06-15T08:51:34Z</time>
      </trkpt>
      <trkpt lat="39.330860" lon="-0.319277">
        <ele>1.114</ele>
        <time>2019-06-15T08:51:35Z</time>
      </trkpt>
      <trkpt lat="39.330801" lon="-0.319257">
        <ele>1.408</ele>
        <time>2019-06-15T08:51:36Z</time>
      </trkpt>
      <trkpt lat="39.330735" lon="-0.319238">
        <ele>1.570</ele>
        <time>2019-06-15T08:51:37Z</time>
      </trkpt>
      <trkpt lat="39.330676" lon="-0.319212">
        <ele>1.774</ele>
        <time>2019-06-15T08:51:38Z</time>
      </trkpt>
      <trkpt lat="39.330611" lon="-0.319198">
        <ele>1.853</ele>
        <time>2019-06-15T08:51:39Z</time>
      </trkpt>
      <trkpt lat="39.330546" lon="-0.319181">
        <ele>1.916</ele>
        <time>2019-06-15T08:51:40Z</time>
      </trkpt>
      <trkpt lat="39.330478" lon="-0.319151">
        <ele>1.768</ele>
        <time>2019-06-15T08:51:41Z</time>
      </trkpt>
      <trkpt lat="39.330408" lon="-0.319120">
        <ele>1.515</ele>
        <time>2019-06-15T08:51:42Z</time>
      </trkpt>
      <trkpt lat="39.330345" lon="-0.319099">
        <ele>1.264</ele>
        <time>2019-06-15T08:51:43Z</time>
      </trkpt>
      <trkpt lat="39.330288" lon="-0.319069">
        <ele>1.039</ele>
        <time>2019-06-15T08:51:44Z</time>
      </trkpt>
      <trkpt lat="39.330225" lon="-0.319045">
        <ele>0.999</ele>
        <time>2019-06-15T08:51:45Z</time>
      </trkpt>
      <trkpt lat="39.330163" lon="-0.319029">
        <ele>0.807</ele>
        <time>2019-06-15T08:51:46Z</time>
      </trkpt>
      <trkpt lat="39.330097" lon="-0.319009">
        <ele>0.627</ele>
        <time>2019-06-15T08:51:47Z</time>
      </trkpt>
      <trkpt lat="39.330025" lon="-0.318994">
        <ele>0.408</ele>
        <time>2019-06-15T08:51:48Z</time>
      </trkpt>
      <trkpt lat="39.329960" lon="-0.318974">
        <ele>0.322</ele>
        <time>2019-06-15T08:51:49Z</time>
      </trkpt>
      <trkpt lat="39.329894" lon="-0.318964">
        <ele>0.276</ele>
        <time>2019-06-15T08:51:50Z</time>
      </trkpt>
      <trkpt lat="39.329829" lon="-0.318949">
        <ele>0.175</ele>
        <time>2019-06-15T08:51:51Z</time>
      </trkpt>
      <trkpt lat="39.329763" lon="-0.318943">
        <ele>0.058</ele>
        <time>2019-06-15T08:51:52Z</time>
      </trkpt>
      <trkpt lat="39.329698" lon="-0.318931">
        <ele>-0.210</ele>
        <time>2019-06-15T08:51:53Z</time>
      </trkpt>
      <trkpt lat="39.329634" lon="-0.318912">
        <ele>-0.657</ele>
        <time>2019-06-15T08:51:54Z</time>
      </trkpt>
      <trkpt lat="39.329569" lon="-0.318892">
        <ele>-1.176</ele>
        <time>2019-06-15T08:51:55Z</time>
      </trkpt>
      <trkpt lat="39.329504" lon="-0.318872">
        <ele>-1.511</ele>
        <time>2019-06-15T08:51:56Z</time>
      </trkpt>
      <trkpt lat="39.329442" lon="-0.318856">
        <ele>-1.969</ele>
        <time>2019-06-15T08:51:57Z</time>
      </trkpt>
      <trkpt lat="39.329380" lon="-0.318832">
        <ele>-1.804</ele>
        <time>2019-06-15T08:51:58Z</time>
      </trkpt>
      <trkpt lat="39.329319" lon="-0.318811">
        <ele>-1.824</ele>
        <time>2019-06-15T08:51:59Z</time>
      </trkpt>
      <trkpt lat="39.329258" lon="-0.318789">
        <ele>-1.908</ele>
        <time>2019-06-15T08:52:00Z</time>
      </trkpt>
      <trkpt lat="39.329195" lon="-0.318774">
        <ele>-2.059</ele>
        <time>2019-06-15T08:52:01Z</time>
      </trkpt>
      <trkpt lat="39.329135" lon="-0.318764">
        <ele>-1.913</ele>
        <time>2019-06-15T08:52:02Z</time>
      </trkpt>
      <trkpt lat="39.329070" lon="-0.318767">
        <ele>-1.822</ele>
        <time>2019-06-15T08:52:03Z</time>
      </trkpt>
      <trkpt lat="39.329010" lon="-0.318764">
        <ele>-1.755</ele>
        <time>2019-06-15T08:52:04Z</time>
      </trkpt>
      <trkpt lat="39.328946" lon="-0.318752">
        <ele>-1.667</ele>
        <time>2019-06-15T08:52:05Z</time>
      </trkpt>
      <trkpt lat="39.328884" lon="-0.318742">
        <ele>-1.584</ele>
        <time>2019-06-15T08:52:06Z</time>
      </trkpt>
      <trkpt lat="39.328819" lon="-0.318739">
        <ele>-1.293</ele>
        <time>2019-06-15T08:52:07Z</time>
      </trkpt>
      <trkpt lat="39.328760" lon="-0.318748">
        <ele>-0.888</ele>
        <time>2019-06-15T08:52:08Z</time>
      </trkpt>
      <trkpt lat="39.328698" lon="-0.318746">
        <ele>-0.555</ele>
        <time>2019-06-15T08:52:09Z</time>
      </trkpt>
      <trkpt lat="39.328636" lon="-0.318740">
        <ele>-0.207</ele>
        <time>2019-06-15T08:52:10Z</time>
      </trkpt>
      <trkpt lat="39.328573" lon="-0.318729">
        <ele>0.317</ele>
        <time>2019-06-15T08:52:11Z</time>
      </trkpt>
      <trkpt lat="39.328511" lon="-0.318725">
        <ele>0.908</ele>
        <time>2019-06-15T08:52:12Z</time>
      </trkpt>
      <trkpt lat="39.328449" lon="-0.318719">
        <ele>1.588</ele>
        <time>2019-06-15T08:52:13Z</time>
      </trkpt>
      <trkpt lat="39.328383" lon="-0.318714">
        <ele>2.232</ele>
        <time>2019-06-15T08:52:14Z</time>
      </trkpt>
      <trkpt lat="39.328320" lon="-0.318702">
        <ele>2.611</ele>
        <time>2019-06-15T08:52:15Z</time>
      </trkpt>
      <trkpt lat="39.328252" lon="-0.318690">
        <ele>2.464</ele>
        <time>2019-06-15T08:52:16Z</time>
      </trkpt>
      <trkpt lat="39.328192" lon="-0.318680">
        <ele>2.176</ele>
        <time>2019-06-15T08:52:17Z</time>
      </trkpt>
      <trkpt lat="39.328127" lon="-0.318677">
        <ele>1.923</ele>
        <time>2019-06-15T08:52:18Z</time>
      </trkpt>
      <trkpt lat="39.328065" lon="-0.318667">
        <ele>1.672</ele>
        <time>2019-06-15T08:52:19Z</time>
      </trkpt>
      <trkpt lat="39.328007" lon="-0.318666">
        <ele>1.617</ele>
        <time>2019-06-15T08:52:20Z</time>
      </trkpt>
      <trkpt lat="39.327948" lon="-0.318668">
        <ele>1.547</ele>
        <time>2019-06-15T08:52:21Z</time>
      </trkpt>
      <trkpt lat="39.327883" lon="-0.318665">
        <ele>1.529</ele>
        <time>2019-06-15T08:52:22Z</time>
      </trkpt>
      <trkpt lat="39.327817" lon="-0.318655">
        <ele>1.321</ele>
        <time>2019-06-15T08:52:23Z</time>
      </trkpt>
      <trkpt lat="39.327757" lon="-0.318652">
        <ele>1.408</ele>
        <time>2019-06-15T08:52:24Z</time>
      </trkpt>
      <trkpt lat="39.327696" lon="-0.318651">
        <ele>1.647</ele>
        <time>2019-06-15T08:52:25Z</time>
      </trkpt>
      <trkpt lat="39.327639" lon="-0.318678">
        <ele>2.051</ele>
        <time>2019-06-15T08:52:26Z</time>
      </trkpt>
      <trkpt lat="39.327580" lon="-0.318663">
        <ele>2.180</ele>
        <time>2019-06-15T08:52:27Z</time>
      </trkpt>
      <trkpt lat="39.327523" lon="-0.318651">
        <ele>2.243</ele>
        <time>2019-06-15T08:52:28Z</time>
      </trkpt>
      <trkpt lat="39.327464" lon="-0.318642">
        <ele>2.155</ele>
        <time>2019-06-15T08:52:29Z</time>
      </trkpt>
      <trkpt lat="39.327405" lon="-0.318637">
        <ele>1.862</ele>
        <time>2019-06-15T08:52:30Z</time>
      </trkpt>
      <trkpt lat="39.327339" lon="-0.318641">
        <ele>1.631</ele>
        <time>2019-06-15T08:52:31Z</time>
      </trkpt>
      <trkpt lat="39.327280" lon="-0.318645">
        <ele>1.596</ele>
        <time>2019-06-15T08:52:32Z</time>
      </trkpt>
      <trkpt lat="39.327224" lon="-0.318629">
        <ele>1.183</ele>
        <time>2019-06-15T08:52:33Z</time>
      </trkpt>
      <trkpt lat="39.327165" lon="-0.318619">
        <ele>0.925</ele>
        <time>2019-06-15T08:52:34Z</time>
      </trkpt>
      <trkpt lat="39.327104" lon="-0.318617">
        <ele>0.617</ele>
        <time>2019-06-15T08:52:35Z</time>
      </trkpt>
      <trkpt lat="39.327040" lon="-0.318607">
        <ele>0.308</ele>
        <time>2019-06-15T08:52:36Z</time>
      </trkpt>
      <trkpt lat="39.326986" lon="-0.318599">
        <ele>0.111</ele>
        <time>2019-06-15T08:52:37Z</time>
      </trkpt>
      <trkpt lat="39.326923" lon="-0.318590">
        <ele>-0.125</ele>
        <time>2019-06-15T08:52:38Z</time>
      </trkpt>
      <trkpt lat="39.326858" lon="-0.318576">
        <ele>-0.194</ele>
        <time>2019-06-15T08:52:39Z</time>
      </trkpt>
      <trkpt lat="39.326798" lon="-0.318568">
        <ele>-0.237</ele>
        <time>2019-06-15T08:52:40Z</time>
      </trkpt>
      <trkpt lat="39.326736" lon="-0.318570">
        <ele>-0.169</ele>
        <time>2019-06-15T08:52:41Z</time>
      </trkpt>
      <trkpt lat="39.326678" lon="-0.318558">
        <ele>-0.276</ele>
        <time>2019-06-15T08:52:42Z</time>
      </trkpt>
      <trkpt lat="39.326623" lon="-0.318558">
        <ele>-0.365</ele>
        <time>2019-06-15T08:52:43Z</time>
      </trkpt>
      <trkpt lat="39.326566" lon="-0.318569">
        <ele>-0.510</ele>
        <time>2019-06-15T08:52:44Z</time>
      </trkpt>
      <trkpt lat="39.326513" lon="-0.318564">
        <ele>-0.736</ele>
        <time>2019-06-15T08:52:45Z</time>
      </trkpt>
      <trkpt lat="39.326458" lon="-0.318550">
        <ele>-1.017</ele>
        <time>2019-06-15T08:52:46Z</time>
      </trkpt>
      <trkpt lat="39.326402" lon="-0.318539">
        <ele>-1.218</ele>
        <time>2019-06-15T08:52:47Z</time>
      </trkpt>
      <trkpt lat="39.326342" lon="-0.318539">
        <ele>-1.308</ele>
        <time>2019-06-15T08:52:48Z</time>
      </trkpt>
      <trkpt lat="39.326283" lon="-0.318524">
        <ele>-1.376</ele>
        <time>2019-06-15T08:52:49Z</time>
      </trkpt>
      <trkpt lat="39.326222" lon="-0.318515">
        <ele>-1.340</ele>
        <time>2019-06-15T08:52:50Z</time>
      </trkpt>
      <trkpt lat="39.326165" lon="-0.318496">
        <ele>-1.459</ele>
        <time>2019-06-15T08:52:51Z</time>
      </trkpt>
      <trkpt lat="39.326104" lon="-0.318481">
        <ele>-1.462</ele>
        <time>2019-06-15T08:52:52Z</time>
      </trkpt>
      <trkpt lat="39.326050" lon="-0.318480">
        <ele>-1.194</ele>
        <time>2019-06-15T08:52:53Z</time>
      </trkpt>
      <trkpt lat="39.325996" lon="-0.318462">
        <ele>-0.991</ele>
        <time>2019-06-15T08:52:54Z</time>
      </trkpt>
      <trkpt lat="39.325944" lon="-0.318456">
        <ele>-0.620</ele>
        <time>2019-06-15T08:52:55Z</time>
      </trkpt>
      <trkpt lat="39.325892" lon="-0.318442">
        <ele>-0.355</ele>
        <time>2019-06-15T08:52:56Z</time>
      </trkpt>
      <trkpt lat="39.325838" lon="-0.318449">
        <ele>-0.035</ele>
        <time>2019-06-15T08:52:57Z</time>
      </trkpt>
      <trkpt lat="39.325785" lon="-0.318442">
        <ele>0.286</ele>
        <time>2019-06-15T08:52:58Z</time>
      </trkpt>
      <trkpt lat="39.325729" lon="-0.318439">
        <ele>0.414</ele>
        <time>2019-06-15T08:52:59Z</time>
      </trkpt>
      <trkpt lat="39.325672" lon="-0.318427">
        <ele>0.608</ele>
        <time>2019-06-15T08:53:00Z</time>
      </trkpt>
      <trkpt lat="39.325616" lon="-0.318419">
        <ele>0.836</ele>
        <time>2019-06-15T08:53:01Z</time>
      </trkpt>
      <trkpt lat="39.325565" lon="-0.318410">
        <ele>1.030</ele>
        <time>2019-06-15T08:53:02Z</time>
      </trkpt>
      <trkpt lat="39.325516" lon="-0.318404">
        <ele>1.059</ele>
        <time>2019-06-15T08:53:03Z</time>
      </trkpt>
      <trkpt lat="39.325473" lon="-0.318382">
        <ele>1.062</ele>
        <time>2019-06-15T08:53:04Z</time>
      </trkpt>
      <trkpt lat="39.325426" lon="-0.318377">
        <ele>1.084</ele>
        <time>2019-06-15T08:53:05Z</time>
      </trkpt>
      <trkpt lat="39.325377" lon="-0.318358">
        <ele>1.091</ele>
        <time>2019-06-15T08:53:06Z</time>
      </trkpt>
      <trkpt lat="39.325287" lon="-0.318342">
        <ele>1.050</ele>
        <time>2019-06-15T08:53:08Z</time>
      </trkpt>
      <trkpt lat="39.325201" lon="-0.318326">
        <ele>0.715</ele>
        <time>2019-06-15T08:53:10Z</time>
      </trkpt>
      <trkpt lat="39.325156" lon="-0.318327">
        <ele>0.648</ele>
        <time>2019-06-15T08:53:11Z</time>
      </trkpt>
      <trkpt lat="39.325076" lon="-0.318344">
        <ele>0.361</ele>
        <time>2019-06-15T08:53:13Z</time>
      </trkpt>
      <trkpt lat="39.325001" lon="-0.318383">
        <ele>0.017</ele>
        <time>2019-06-15T08:53:15Z</time>
      </trkpt>
      <trkpt lat="39.324927" lon="-0.318429">
        <ele>-0.308</ele>
        <time>2019-06-15T08:53:17Z</time>
      </trkpt>
      <trkpt lat="39.324884" lon="-0.318453">
        <ele>-0.447</ele>
        <time>2019-06-15T08:53:18Z</time>
      </trkpt>
      <trkpt lat="39.324796" lon="-0.318516">
        <ele>-0.791</ele>
        <time>2019-06-15T08:53:20Z</time>
      </trkpt>
      <trkpt lat="39.324751" lon="-0.318541">
        <ele>-0.940</ele>
        <time>2019-06-15T08:53:21Z</time>
      </trkpt>
      <trkpt lat="39.324694" lon="-0.318560">
        <ele>-0.913</ele>
        <time>2019-06-15T08:53:22Z</time>
      </trkpt>
      <trkpt lat="39.324644" lon="-0.318557">
        <ele>-0.795</ele>
        <time>2019-06-15T08:53:23Z</time>
      </trkpt>
      <trkpt lat="39.324593" lon="-0.318554">
        <ele>-0.572</ele>
        <time>2019-06-15T08:53:24Z</time>
      </trkpt>
      <trkpt lat="39.324541" lon="-0.318540">
        <ele>-0.321</ele>
        <time>2019-06-15T08:53:25Z</time>
      </trkpt>
      <trkpt lat="39.324481" lon="-0.318506">
        <ele>-0.186</ele>
        <time>2019-06-15T08:53:26Z</time>
      </trkpt>
      <trkpt lat="39.324426" lon="-0.318473">
        <ele>0.118</ele>
        <time>2019-06-15T08:53:27Z</time>
      </trkpt>
      <trkpt lat="39.324372" lon="-0.318448">
        <ele>0.398</ele>
        <time>2019-06-15T08:53:28Z</time>
      </trkpt>
      <trkpt lat="39.324325" lon="-0.318459">
        <ele>0.417</ele>
        <time>2019-06-15T08:53:29Z</time>
      </trkpt>
      <trkpt lat="39.324266" lon="-0.318447">
        <ele>0.608</ele>
        <time>2019-06-15T08:53:30Z</time>
      </trkpt>
      <trkpt lat="39.324205" lon="-0.318425">
        <ele>0.964</ele>
        <time>2019-06-15T08:53:31Z</time>
      </trkpt>
      <trkpt lat="39.324146" lon="-0.318403">
        <ele>0.978</ele>
        <time>2019-06-15T08:53:32Z</time>
      </trkpt>
      <trkpt lat="39.324085" lon="-0.318374">
        <ele>0.747</ele>
        <time>2019-06-15T08:53:33Z</time>
      </trkpt>
      <trkpt lat="39.324024" lon="-0.318342">
        <ele>0.570</ele>
        <time>2019-06-15T08:53:34Z</time>
      </trkpt>
      <trkpt lat="39.323958" lon="-0.318321">
        <ele>0.262</ele>
        <time>2019-06-15T08:53:35Z</time>
      </trkpt>
      <trkpt lat="39.323897" lon="-0.318290">
        <ele>0.089</ele>
        <time>2019-06-15T08:53:36Z</time>
      </trkpt>
      <trkpt lat="39.323839" lon="-0.318256">
        <ele>-0.238</ele>
        <time>2019-06-15T08:53:37Z</time>
      </trkpt>
      <trkpt lat="39.323778" lon="-0.318215">
        <ele>-0.413</ele>
        <time>2019-06-15T08:53:38Z</time>
      </trkpt>
      <trkpt lat="39.323719" lon="-0.318180">
        <ele>-0.677</ele>
        <time>2019-06-15T08:53:39Z</time>
      </trkpt>
      <trkpt lat="39.323667" lon="-0.318162">
        <ele>-0.861</ele>
        <time>2019-06-15T08:53:40Z</time>
      </trkpt>
      <trkpt lat="39.323610" lon="-0.318140">
        <ele>-1.027</ele>
        <time>2019-06-15T08:53:41Z</time>
      </trkpt>
      <trkpt lat="39.323556" lon="-0.318118">
        <ele>-1.008</ele>
        <time>2019-06-15T08:53:42Z</time>
      </trkpt>
      <trkpt lat="39.323499" lon="-0.318100">
        <ele>-1.090</ele>
        <time>2019-06-15T08:53:43Z</time>
      </trkpt>
      <trkpt lat="39.323451" lon="-0.318084">
        <ele>-1.024</ele>
        <time>2019-06-15T08:53:44Z</time>
      </trkpt>
      <trkpt lat="39.323385" lon="-0.318086">
        <ele>-1.023</ele>
        <time>2019-06-15T08:53:45Z</time>
      </trkpt>
      <trkpt lat="39.323319" lon="-0.318093">
        <ele>-1.096</ele>
        <time>2019-06-15T08:53:46Z</time>
      </trkpt>
      <trkpt lat="39.323261" lon="-0.318078">
        <ele>-1.048</ele>
        <time>2019-06-15T08:53:47Z</time>
      </trkpt>
      <trkpt lat="39.323202" lon="-0.318071">
        <ele>-1.025</ele>
        <time>2019-06-15T08:53:48Z</time>
      </trkpt>
      <trkpt lat="39.323147" lon="-0.318054">
        <ele>-1.034</ele>
        <time>2019-06-15T08:53:49Z</time>
      </trkpt>
      <trkpt lat="39.323087" lon="-0.318041">
        <ele>-1.059</ele>
        <time>2019-06-15T08:53:50Z</time>
      </trkpt>
      <trkpt lat="39.323026" lon="-0.318044">
        <ele>-0.975</ele>
        <time>2019-06-15T08:53:51Z</time>
      </trkpt>
      <trkpt lat="39.322960" lon="-0.318028">
        <ele>-0.628</ele>
        <time>2019-06-15T08:53:52Z</time>
      </trkpt>
      <trkpt lat="39.322896" lon="-0.318011">
        <ele>-0.420</ele>
        <time>2019-06-15T08:53:53Z</time>
      </trkpt>
      <trkpt lat="39.322834" lon="-0.317997">
        <ele>-0.208</ele>
        <time>2019-06-15T08:53:54Z</time>
      </trkpt>
      <trkpt lat="39.322776" lon="-0.317989">
        <ele>-0.090</ele>
        <time>2019-06-15T08:53:55Z</time>
      </trkpt>
      <trkpt lat="39.322721" lon="-0.317983">
        <ele>-0.264</ele>
        <time>2019-06-15T08:53:56Z</time>
      </trkpt>
      <trkpt lat="39.322659" lon="-0.317970">
        <ele>-0.423</ele>
        <time>2019-06-15T08:53:57Z</time>
      </trkpt>
      <trkpt lat="39.322599" lon="-0.317962">
        <ele>-0.656</ele>
        <time>2019-06-15T08:53:58Z</time>
      </trkpt>
      <trkpt lat="39.322543" lon="-0.317947">
        <ele>-0.828</ele>
        <time>2019-06-15T08:53:59Z</time>
      </trkpt>
      <trkpt lat="39.322483" lon="-0.317937">
        <ele>-1.065</ele>
        <time>2019-06-15T08:54:00Z</time>
      </trkpt>
      <trkpt lat="39.322425" lon="-0.317932">
        <ele>-1.154</ele>
        <time>2019-06-15T08:54:01Z</time>
      </trkpt>
      <trkpt lat="39.322363" lon="-0.317929">
        <ele>-1.289</ele>
        <time>2019-06-15T08:54:02Z</time>
      </trkpt>
      <trkpt lat="39.322300" lon="-0.317926">
        <ele>-1.367</ele>
        <time>2019-06-15T08:54:03Z</time>
      </trkpt>
      <trkpt lat="39.322238" lon="-0.317922">
        <ele>-1.581</ele>
        <time>2019-06-15T08:54:04Z</time>
      </trkpt>
      <trkpt lat="39.322172" lon="-0.317922">
        <ele>-1.419</ele>
        <time>2019-06-15T08:54:05Z</time>
      </trkpt>
      <trkpt lat="39.322115" lon="-0.317925">
        <ele>-1.308</ele>
        <time>2019-06-15T08:54:06Z</time>
      </trkpt>
      <trkpt lat="39.322055" lon="-0.317934">
        <ele>-1.279</ele>
        <time>2019-06-15T08:54:07Z</time>
      </trkpt>
      <trkpt lat="39.321990" lon="-0.317921">
        <ele>-1.143</ele>
        <time>2019-06-15T08:54:08Z</time>
      </trkpt>
      <trkpt lat="39.321930" lon="-0.317920">
        <ele>-1.032</ele>
        <time>2019-06-15T08:54:09Z</time>
      </trkpt>
      <trkpt lat="39.321874" lon="-0.317929">
        <ele>-1.095</ele>
        <time>2019-06-15T08:54:10Z</time>
      </trkpt>
      <trkpt lat="39.321811" lon="-0.317930">
        <ele>-1.027</ele>
        <time>2019-06-15T08:54:11Z</time>
      </trkpt>
      <trkpt lat="39.321747" lon="-0.317933">
        <ele>-1.044</ele>
        <time>2019-06-15T08:54:12Z</time>
      </trkpt>
      <trkpt lat="39.321686" lon="-0.317933">
        <ele>-1.073</ele>
        <time>2019-06-15T08:54:13Z</time>
      </trkpt>
      <trkpt lat="39.321626" lon="-0.317935">
        <ele>-0.948</ele>
        <time>2019-06-15T08:54:14Z</time>
      </trkpt>
      <trkpt lat="39.321570" lon="-0.317923">
        <ele>-0.794</ele>
        <time>2019-06-15T08:54:15Z</time>
      </trkpt>
      <trkpt lat="39.321512" lon="-0.317915">
        <ele>-0.457</ele>
        <time>2019-06-15T08:54:16Z</time>
      </trkpt>
      <trkpt lat="39.321447" lon="-0.317913">
        <ele>-0.222</ele>
        <time>2019-06-15T08:54:17Z</time>
      </trkpt>
      <trkpt lat="39.321385" lon="-0.317913">
        <ele>0.008</ele>
        <time>2019-06-15T08:54:18Z</time>
      </trkpt>
      <trkpt lat="39.321328" lon="-0.317907">
        <ele>0.182</ele>
        <time>2019-06-15T08:54:19Z</time>
      </trkpt>
      <trkpt lat="39.321271" lon="-0.317893">
        <ele>0.266</ele>
        <time>2019-06-15T08:54:20Z</time>
      </trkpt>
      <trkpt lat="39.321214" lon="-0.317887">
        <ele>0.485</ele>
        <time>2019-06-15T08:54:21Z</time>
      </trkpt>
      <trkpt lat="39.321163" lon="-0.317906">
        <ele>0.438</ele>
        <time>2019-06-15T08:54:22Z</time>
      </trkpt>
      <trkpt lat="39.321105" lon="-0.317903">
        <ele>0.530</ele>
        <time>2019-06-15T08:54:23Z</time>
      </trkpt>
      <trkpt lat="39.321045" lon="-0.317892">
        <ele>0.427</ele>
        <time>2019-06-15T08:54:24Z</time>
      </trkpt>
      <trkpt lat="39.320983" lon="-0.317884">
        <ele>0.246</ele>
        <time>2019-06-15T08:54:25Z</time>
      </trkpt>
      <trkpt lat="39.320928" lon="-0.317876">
        <ele>-0.061</ele>
        <time>2019-06-15T08:54:26Z</time>
      </trkpt>
      <trkpt lat="39.320870" lon="-0.317878">
        <ele>-0.293</ele>
        <time>2019-06-15T08:54:27Z</time>
      </trkpt>
      <trkpt lat="39.320809" lon="-0.317868">
        <ele>-0.565</ele>
        <time>2019-06-15T08:54:28Z</time>
      </trkpt>
      <trkpt lat="39.320751" lon="-0.317864">
        <ele>-0.821</ele>
        <time>2019-06-15T08:54:29Z</time>
      </trkpt>
      <trkpt lat="39.320691" lon="-0.317843">
        <ele>-1.108</ele>
        <time>2019-06-15T08:54:30Z</time>
      </trkpt>
      <trkpt lat="39.320637" lon="-0.317845">
        <ele>-1.512</ele>
        <time>2019-06-15T08:54:31Z</time>
      </trkpt>
      <trkpt lat="39.320575" lon="-0.317834">
        <ele>-1.996</ele>
        <time>2019-06-15T08:54:32Z</time>
      </trkpt>
      <trkpt lat="39.320518" lon="-0.317842">
        <ele>-2.045</ele>
        <time>2019-06-15T08:54:33Z</time>
      </trkpt>
      <trkpt lat="39.320460" lon="-0.317843">
        <ele>-2.088</ele>
        <time>2019-06-15T08:54:34Z</time>
      </trkpt>
      <trkpt lat="39.320402" lon="-0.317841">
        <ele>-2.020</ele>
        <time>2019-06-15T08:54:35Z</time>
      </trkpt>
      <trkpt lat="39.320338" lon="-0.317827">
        <ele>-2.097</ele>
        <time>2019-06-15T08:54:36Z</time>
      </trkpt>
      <trkpt lat="39.320280" lon="-0.317819">
        <ele>-2.096</ele>
        <time>2019-06-15T08:54:37Z</time>
      </trkpt>
      <trkpt lat="39.320213" lon="-0.317813">
        <ele>-1.541</ele>
        <time>2019-06-15T08:54:38Z</time>
      </trkpt>
      <trkpt lat="39.320152" lon="-0.317797">
        <ele>-1.126</ele>
        <time>2019-06-15T08:54:39Z</time>
      </trkpt>
      <trkpt lat="39.320098" lon="-0.317796">
        <ele>-0.747</ele>
        <time>2019-06-15T08:54:40Z</time>
      </trkpt>
      <trkpt lat="39.320040" lon="-0.317789">
        <ele>-0.311</ele>
        <time>2019-06-15T08:54:41Z</time>
      </trkpt>
      <trkpt lat="39.319991" lon="-0.317787">
        <ele>0.108</ele>
        <time>2019-06-15T08:54:42Z</time>
      </trkpt>
      <trkpt lat="39.319934" lon="-0.317792">
        <ele>0.395</ele>
        <time>2019-06-15T08:54:43Z</time>
      </trkpt>
      <trkpt lat="39.319872" lon="-0.317788">
        <ele>0.549</ele>
        <time>2019-06-15T08:54:44Z</time>
      </trkpt>
      <trkpt lat="39.319813" lon="-0.317781">
        <ele>0.748</ele>
        <time>2019-06-15T08:54:45Z</time>
      </trkpt>
      <trkpt lat="39.319757" lon="-0.317774">
        <ele>0.981</ele>
        <time>2019-06-15T08:54:46Z</time>
      </trkpt>
      <trkpt lat="39.319703" lon="-0.317776">
        <ele>0.953</ele>
        <time>2019-06-15T08:54:47Z</time>
      </trkpt>
      <trkpt lat="39.319641" lon="-0.317770">
        <ele>0.450</ele>
        <time>2019-06-15T08:54:48Z</time>
      </trkpt>
      <trkpt lat="39.319583" lon="-0.317762">
        <ele>-0.049</ele>
        <time>2019-06-15T08:54:49Z</time>
      </trkpt>
      <trkpt lat="39.319525" lon="-0.317753">
        <ele>-0.434</ele>
        <time>2019-06-15T08:54:50Z</time>
      </trkpt>
      <trkpt lat="39.319469" lon="-0.317750">
        <ele>-0.875</ele>
        <time>2019-06-15T08:54:51Z</time>
      </trkpt>
      <trkpt lat="39.319404" lon="-0.317742">
        <ele>-1.128</ele>
        <time>2019-06-15T08:54:52Z</time>
      </trkpt>
      <trkpt lat="39.319344" lon="-0.317767">
        <ele>-1.420</ele>
        <time>2019-06-15T08:54:53Z</time>
      </trkpt>
      <trkpt lat="39.319286" lon="-0.317761">
        <ele>-1.608</ele>
        <time>2019-06-15T08:54:54Z</time>
      </trkpt>
      <trkpt lat="39.319226" lon="-0.317756">
        <ele>-1.820</ele>
        <time>2019-06-15T08:54:55Z</time>
      </trkpt>
      <trkpt lat="39.319177" lon="-0.317744">
        <ele>-2.064</ele>
        <time>2019-06-15T08:54:56Z</time>
      </trkpt>
      <trkpt lat="39.319122" lon="-0.317740">
        <ele>-2.163</ele>
        <time>2019-06-15T08:54:57Z</time>
      </trkpt>
      <trkpt lat="39.319062" lon="-0.317736">
        <ele>-2.316</ele>
        <time>2019-06-15T08:54:58Z</time>
      </trkpt>
      <trkpt lat="39.319004" lon="-0.317732">
        <ele>-2.588</ele>
        <time>2019-06-15T08:54:59Z</time>
      </trkpt>
      <trkpt lat="39.318947" lon="-0.317729">
        <ele>-2.765</ele>
        <time>2019-06-15T08:55:00Z</time>
      </trkpt>
      <trkpt lat="39.318889" lon="-0.317722">
        <ele>-2.814</ele>
        <time>2019-06-15T08:55:01Z</time>
      </trkpt>
      <trkpt lat="39.318830" lon="-0.317716">
        <ele>-2.629</ele>
        <time>2019-06-15T08:55:02Z</time>
      </trkpt>
      <trkpt lat="39.318769" lon="-0.317712">
        <ele>-2.494</ele>
        <time>2019-06-15T08:55:03Z</time>
      </trkpt>
      <trkpt lat="39.318707" lon="-0.317691">
        <ele>-2.257</ele>
        <time>2019-06-15T08:55:04Z</time>
      </trkpt>
      <trkpt lat="39.318649" lon="-0.317691">
        <ele>-2.122</ele>
        <time>2019-06-15T08:55:05Z</time>
      </trkpt>
      <trkpt lat="39.318589" lon="-0.317685">
        <ele>-2.008</ele>
        <time>2019-06-15T08:55:06Z</time>
      </trkpt>
      <trkpt lat="39.318535" lon="-0.317677">
        <ele>-2.042</ele>
        <time>2019-06-15T08:55:07Z</time>
      </trkpt>
      <trkpt lat="39.318484" lon="-0.317662">
        <ele>-2.076</ele>
        <time>2019-06-15T08:55:08Z</time>
      </trkpt>
      <trkpt lat="39.318432" lon="-0.317660">
        <ele>-2.085</ele>
        <time>2019-06-15T08:55:09Z</time>
      </trkpt>
      <trkpt lat="39.318380" lon="-0.317652">
        <ele>-2.028</ele>
        <time>2019-06-15T08:55:10Z</time>
      </trkpt>
      <trkpt lat="39.318328" lon="-0.317640">
        <ele>-2.090</ele>
        <time>2019-06-15T08:55:11Z</time>
      </trkpt>
      <trkpt lat="39.318283" lon="-0.317636">
        <ele>-2.147</ele>
        <time>2019-06-15T08:55:12Z</time>
      </trkpt>
      <trkpt lat="39.318238" lon="-0.317624">
        <ele>-2.226</ele>
        <time>2019-06-15T08:55:13Z</time>
      </trkpt>
      <trkpt lat="39.318191" lon="-0.317604">
        <ele>-2.221</ele>
        <time>2019-06-15T08:55:14Z</time>
      </trkpt>
      <trkpt lat="39.318143" lon="-0.317588">
        <ele>-2.237</ele>
        <time>2019-06-15T08:55:15Z</time>
      </trkpt>
      <trkpt lat="39.318096" lon="-0.317560">
        <ele>-2.249</ele>
        <time>2019-06-15T08:55:16Z</time>
      </trkpt>
      <trkpt lat="39.318049" lon="-0.317543">
        <ele>-2.213</ele>
        <time>2019-06-15T08:55:17Z</time>
      </trkpt>
      <trkpt lat="39.318006" lon="-0.317517">
        <ele>-2.208</ele>
        <time>2019-06-15T08:55:18Z</time>
      </trkpt>
      <trkpt lat="39.317922" lon="-0.317486">
        <ele>-2.536</ele>
        <time>2019-06-15T08:55:20Z</time>
      </trkpt>
      <trkpt lat="39.317878" lon="-0.317465">
        <ele>-2.620</ele>
        <time>2019-06-15T08:55:21Z</time>
      </trkpt>
      <trkpt lat="39.317787" lon="-0.317431">
        <ele>-3.079</ele>
        <time>2019-06-15T08:55:23Z</time>
      </trkpt>
      <trkpt lat="39.317743" lon="-0.317413">
        <ele>-3.092</ele>
        <time>2019-06-15T08:55:24Z</time>
      </trkpt>
      <trkpt lat="39.317691" lon="-0.317395">
        <ele>-3.024</ele>
        <time>2019-06-15T08:55:25Z</time>
      </trkpt>
      <trkpt lat="39.317611" lon="-0.317363">
        <ele>-3.071</ele>
        <time>2019-06-15T08:55:27Z</time>
      </trkpt>
      <trkpt lat="39.317566" lon="-0.317356">
        <ele>-3.090</ele>
        <time>2019-06-15T08:55:28Z</time>
      </trkpt>
      <trkpt lat="39.317481" lon="-0.317357">
        <ele>-2.995</ele>
        <time>2019-06-15T08:55:30Z</time>
      </trkpt>
      <trkpt lat="39.317430" lon="-0.317380">
        <ele>-2.716</ele>
        <time>2019-06-15T08:55:31Z</time>
      </trkpt>
      <trkpt lat="39.317352" lon="-0.317418">
        <ele>-2.576</ele>
        <time>2019-06-15T08:55:33Z</time>
      </trkpt>
      <trkpt lat="39.317281" lon="-0.317457">
        <ele>-2.213</ele>
        <time>2019-06-15T08:55:35Z</time>
      </trkpt>
      <trkpt lat="39.317220" lon="-0.317512">
        <ele>-1.908</ele>
        <time>2019-06-15T08:55:37Z</time>
      </trkpt>
      <trkpt lat="39.317153" lon="-0.317572">
        <ele>-1.524</ele>
        <time>2019-06-15T08:55:39Z</time>
      </trkpt>
      <trkpt lat="39.317089" lon="-0.317631">
        <ele>-1.028</ele>
        <time>2019-06-15T08:55:41Z</time>
      </trkpt>
      <trkpt lat="39.317022" lon="-0.317691">
        <ele>-0.637</ele>
        <time>2019-06-15T08:55:43Z</time>
      </trkpt>
      <trkpt lat="39.316950" lon="-0.317737">
        <ele>-0.240</ele>
        <time>2019-06-15T08:55:45Z</time>
      </trkpt>
      <trkpt lat="39.316907" lon="-0.317762">
        <ele>-0.022</ele>
        <time>2019-06-15T08:55:46Z</time>
      </trkpt>
      <trkpt lat="39.316859" lon="-0.317779">
        <ele>0.049</ele>
        <time>2019-06-15T08:55:47Z</time>
      </trkpt>
      <trkpt lat="39.316806" lon="-0.317785">
        <ele>0.088</ele>
        <time>2019-06-15T08:55:48Z</time>
      </trkpt>
      <trkpt lat="39.316753" lon="-0.317788">
        <ele>0.063</ele>
        <time>2019-06-15T08:55:49Z</time>
      </trkpt>
      <trkpt lat="39.316699" lon="-0.317789">
        <ele>0.097</ele>
        <time>2019-06-15T08:55:50Z</time>
      </trkpt>
      <trkpt lat="39.316644" lon="-0.317801">
        <ele>-0.123</ele>
        <time>2019-06-15T08:55:51Z</time>
      </trkpt>
      <trkpt lat="39.316588" lon="-0.317799">
        <ele>-0.325</ele>
        <time>2019-06-15T08:55:52Z</time>
      </trkpt>
      <trkpt lat="39.316532" lon="-0.317792">
        <ele>-0.508</ele>
        <time>2019-06-15T08:55:53Z</time>
      </trkpt>
      <trkpt lat="39.316473" lon="-0.317789">
        <ele>-0.722</ele>
        <time>2019-06-15T08:55:54Z</time>
      </trkpt>
      <trkpt lat="39.316419" lon="-0.317788">
        <ele>-0.956</ele>
        <time>2019-06-15T08:55:55Z</time>
      </trkpt>
      <trkpt lat="39.316360" lon="-0.317783">
        <ele>-1.135</ele>
        <time>2019-06-15T08:55:56Z</time>
      </trkpt>
      <trkpt lat="39.316301" lon="-0.317781">
        <ele>-1.318</ele>
        <time>2019-06-15T08:55:57Z</time>
      </trkpt>
      <trkpt lat="39.316241" lon="-0.317771">
        <ele>-1.580</ele>
        <time>2019-06-15T08:55:58Z</time>
      </trkpt>
      <trkpt lat="39.316184" lon="-0.317775">
        <ele>-1.737</ele>
        <time>2019-06-15T08:55:59Z</time>
      </trkpt>
      <trkpt lat="39.316122" lon="-0.317776">
        <ele>-2.056</ele>
        <time>2019-06-15T08:56:00Z</time>
      </trkpt>
      <trkpt lat="39.316059" lon="-0.317780">
        <ele>-2.271</ele>
        <time>2019-06-15T08:56:01Z</time>
      </trkpt>
      <trkpt lat="39.315995" lon="-0.317783">
        <ele>-2.446</ele>
        <time>2019-06-15T08:56:02Z</time>
      </trkpt>
      <trkpt lat="39.315939" lon="-0.317777">
        <ele>-2.688</ele>
        <time>2019-06-15T08:56:03Z</time>
      </trkpt>
      <trkpt lat="39.315878" lon="-0.317776">
        <ele>-2.816</ele>
        <time>2019-06-15T08:56:04Z</time>
      </trkpt>
      <trkpt lat="39.315818" lon="-0.317780">
        <ele>-2.908</ele>
        <time>2019-06-15T08:56:05Z</time>
      </trkpt>
      <trkpt lat="39.315762" lon="-0.317781">
        <ele>-2.787</ele>
        <time>2019-06-15T08:56:06Z</time>
      </trkpt>
      <trkpt lat="39.315699" lon="-0.317779">
        <ele>-2.521</ele>
        <time>2019-06-15T08:56:07Z</time>
      </trkpt>
      <trkpt lat="39.315635" lon="-0.317779">
        <ele>-2.360</ele>
        <time>2019-06-15T08:56:08Z</time>
      </trkpt>
      <trkpt lat="39.315577" lon="-0.317773">
        <ele>-2.143</ele>
        <time>2019-06-15T08:56:09Z</time>
      </trkpt>
      <trkpt lat="39.315515" lon="-0.317773">
        <ele>-2.015</ele>
        <time>2019-06-15T08:56:10Z</time>
      </trkpt>
      <trkpt lat="39.315459" lon="-0.317776">
        <ele>-2.052</ele>
        <time>2019-06-15T08:56:11Z</time>
      </trkpt>
      <trkpt lat="39.315398" lon="-0.317779">
        <ele>-2.081</ele>
        <time>2019-06-15T08:56:12Z</time>
      </trkpt>
      <trkpt lat="39.315339" lon="-0.317781">
        <ele>-2.066</ele>
        <time>2019-06-15T08:56:13Z</time>
      </trkpt>
      <trkpt lat="39.315278" lon="-0.317771">
        <ele>-2.049</ele>
        <time>2019-06-15T08:56:14Z</time>
      </trkpt>
      <trkpt lat="39.315223" lon="-0.317763">
        <ele>-2.102</ele>
        <time>2019-06-15T08:56:15Z</time>
      </trkpt>
      <trkpt lat="39.315169" lon="-0.317767">
        <ele>-2.022</ele>
        <time>2019-06-15T08:56:16Z</time>
      </trkpt>
      <trkpt lat="39.315121" lon="-0.317765">
        <ele>-2.008</ele>
        <time>2019-06-15T08:56:17Z</time>
      </trkpt>
      <trkpt lat="39.315070" lon="-0.317767">
        <ele>-2.057</ele>
        <time>2019-06-15T08:56:18Z</time>
      </trkpt>
      <trkpt lat="39.315011" lon="-0.317769">
        <ele>-2.071</ele>
        <time>2019-06-15T08:56:19Z</time>
      </trkpt>
      <trkpt lat="39.314963" lon="-0.317774">
        <ele>-2.080</ele>
        <time>2019-06-15T08:56:20Z</time>
      </trkpt>
      <trkpt lat="39.314905" lon="-0.317774">
        <ele>-2.093</ele>
        <time>2019-06-15T08:56:21Z</time>
      </trkpt>
      <trkpt lat="39.314859" lon="-0.317766">
        <ele>-2.045</ele>
        <time>2019-06-15T08:56:22Z</time>
      </trkpt>
      <trkpt lat="39.314809" lon="-0.317760">
        <ele>-2.182</ele>
        <time>2019-06-15T08:56:23Z</time>
      </trkpt>
      <trkpt lat="39.314758" lon="-0.317760">
        <ele>-2.191</ele>
        <time>2019-06-15T08:56:24Z</time>
      </trkpt>
      <trkpt lat="39.314708" lon="-0.317755">
        <ele>-2.166</ele>
        <time>2019-06-15T08:56:25Z</time>
      </trkpt>
      <trkpt lat="39.314663" lon="-0.317763">
        <ele>-2.169</ele>
        <time>2019-06-15T08:56:26Z</time>
      </trkpt>
      <trkpt lat="39.314617" lon="-0.317762">
        <ele>-2.104</ele>
        <time>2019-06-15T08:56:27Z</time>
      </trkpt>
      <trkpt lat="39.314570" lon="-0.317766">
        <ele>-2.024</ele>
        <time>2019-06-15T08:56:28Z</time>
      </trkpt>
      <trkpt lat="39.314517" lon="-0.317765">
        <ele>-2.008</ele>
        <time>2019-06-15T08:56:29Z</time>
      </trkpt>
      <trkpt lat="39.314465" lon="-0.317781">
        <ele>-2.029</ele>
        <time>2019-06-15T08:56:30Z</time>
      </trkpt>
      <trkpt lat="39.314418" lon="-0.317777">
        <ele>-2.043</ele>
        <time>2019-06-15T08:56:31Z</time>
      </trkpt>
      <trkpt lat="39.314328" lon="-0.317783">
        <ele>-2.022</ele>
        <time>2019-06-15T08:56:33Z</time>
      </trkpt>
      <trkpt lat="39.314204" lon="-0.317846">
        <ele>-1.755</ele>
        <time>2019-06-15T08:56:36Z</time>
      </trkpt>
      <trkpt lat="39.314159" lon="-0.317864">
        <ele>-1.757</ele>
        <time>2019-06-15T08:56:37Z</time>
      </trkpt>
      <trkpt lat="39.314002" lon="-0.317951">
        <ele>-1.224</ele>
        <time>2019-06-15T08:56:41Z</time>
      </trkpt>
      <trkpt lat="39.313955" lon="-0.317872">
        <ele>-1.293</ele>
        <time>2019-06-15T08:56:42Z</time>
      </trkpt>
      <trkpt lat="39.313914" lon="-0.317800">
        <ele>-1.128</ele>
        <time>2019-06-15T08:56:43Z</time>
      </trkpt>
      <trkpt lat="39.313855" lon="-0.317750">
        <ele>-0.929</ele>
        <time>2019-06-15T08:56:44Z</time>
      </trkpt>
      <trkpt lat="39.313771" lon="-0.317743">
        <ele>-0.600</ele>
        <time>2019-06-15T08:56:45Z</time>
      </trkpt>
      <trkpt lat="39.313715" lon="-0.317727">
        <ele>-0.420</ele>
        <time>2019-06-15T08:56:46Z</time>
      </trkpt>
      <trkpt lat="39.313667" lon="-0.317718">
        <ele>-0.208</ele>
        <time>2019-06-15T08:56:47Z</time>
      </trkpt>
      <trkpt lat="39.313611" lon="-0.317716">
        <ele>-0.025</ele>
        <time>2019-06-15T08:56:48Z</time>
      </trkpt>
      <trkpt lat="39.313563" lon="-0.317718">
        <ele>-0.219</ele>
        <time>2019-06-15T08:56:49Z</time>
      </trkpt>
      <trkpt lat="39.313501" lon="-0.317775">
        <ele>-0.438</ele>
        <time>2019-06-15T08:56:50Z</time>
      </trkpt>
      <trkpt lat="39.313441" lon="-0.317776">
        <ele>-0.691</ele>
        <time>2019-06-15T08:56:51Z</time>
      </trkpt>
      <trkpt lat="39.313395" lon="-0.317754">
        <ele>-0.873</ele>
        <time>2019-06-15T08:56:52Z</time>
      </trkpt>
      <trkpt lat="39.313306" lon="-0.317742">
        <ele>-1.090</ele>
        <time>2019-06-15T08:56:54Z</time>
      </trkpt>
      <trkpt lat="39.313250" lon="-0.317780">
        <ele>-1.079</ele>
        <time>2019-06-15T08:56:55Z</time>
      </trkpt>
      <trkpt lat="39.313203" lon="-0.317794">
        <ele>-1.094</ele>
        <time>2019-06-15T08:56:56Z</time>
      </trkpt>
      <trkpt lat="39.313161" lon="-0.317771">
        <ele>-1.092</ele>
        <time>2019-06-15T08:56:57Z</time>
      </trkpt>
      <trkpt lat="39.313108" lon="-0.317764">
        <ele>-1.073</ele>
        <time>2019-06-15T08:56:58Z</time>
      </trkpt>
      <trkpt lat="39.313052" lon="-0.317771">
        <ele>-0.920</ele>
        <time>2019-06-15T08:56:59Z</time>
      </trkpt>
      <trkpt lat="39.312999" lon="-0.317768">
        <ele>-0.608</ele>
        <time>2019-06-15T08:57:00Z</time>
      </trkpt>
      <trkpt lat="39.312952" lon="-0.317762">
        <ele>-0.272</ele>
        <time>2019-06-15T08:57:01Z</time>
      </trkpt>
      <trkpt lat="39.312902" lon="-0.317761">
        <ele>0.176</ele>
        <time>2019-06-15T08:57:02Z</time>
      </trkpt>
      <trkpt lat="39.312848" lon="-0.317764">
        <ele>0.565</ele>
        <time>2019-06-15T08:57:03Z</time>
      </trkpt>
      <trkpt lat="39.312795" lon="-0.317764">
        <ele>0.918</ele>
        <time>2019-06-15T08:57:04Z</time>
      </trkpt>
      <trkpt lat="39.312746" lon="-0.317763">
        <ele>1.180</ele>
        <time>2019-06-15T08:57:05Z</time>
      </trkpt>
      <trkpt lat="39.312697" lon="-0.317763">
        <ele>1.357</ele>
        <time>2019-06-15T08:57:06Z</time>
      </trkpt>
      <trkpt lat="39.312650" lon="-0.317767">
        <ele>1.576</ele>
        <time>2019-06-15T08:57:07Z</time>
      </trkpt>
      <trkpt lat="39.312602" lon="-0.317762">
        <ele>1.631</ele>
        <time>2019-06-15T08:57:08Z</time>
      </trkpt>
      <trkpt lat="39.312554" lon="-0.317758">
        <ele>1.866</ele>
        <time>2019-06-15T08:57:09Z</time>
      </trkpt>
      <trkpt lat="39.312506" lon="-0.317769">
        <ele>2.029</ele>
        <time>2019-06-15T08:57:10Z</time>
      </trkpt>
      <trkpt lat="39.312451" lon="-0.317780">
        <ele>2.221</ele>
        <time>2019-06-15T08:57:11Z</time>
      </trkpt>
      <trkpt lat="39.312400" lon="-0.317789">
        <ele>2.308</ele>
        <time>2019-06-15T08:57:12Z</time>
      </trkpt>
      <trkpt lat="39.312350" lon="-0.317778">
        <ele>2.549</ele>
        <time>2019-06-15T08:57:13Z</time>
      </trkpt>
      <trkpt lat="39.312299" lon="-0.317772">
        <ele>2.763</ele>
        <time>2019-06-15T08:57:14Z</time>
      </trkpt>
      <trkpt lat="39.312246" lon="-0.317759">
        <ele>2.972</ele>
        <time>2019-06-15T08:57:15Z</time>
      </trkpt>
      <trkpt lat="39.312192" lon="-0.317766">
        <ele>3.045</ele>
        <time>2019-06-15T08:57:16Z</time>
      </trkpt>
      <trkpt lat="39.312132" lon="-0.317758">
        <ele>3.077</ele>
        <time>2019-06-15T08:57:17Z</time>
      </trkpt>
      <trkpt lat="39.312077" lon="-0.317754">
        <ele>3.024</ele>
        <time>2019-06-15T08:57:18Z</time>
      </trkpt>
      <trkpt lat="39.312020" lon="-0.317748">
        <ele>3.083</ele>
        <time>2019-06-15T08:57:19Z</time>
      </trkpt>
      <trkpt lat="39.311967" lon="-0.317749">
        <ele>3.018</ele>
        <time>2019-06-15T08:57:20Z</time>
      </trkpt>
      <trkpt lat="39.311916" lon="-0.317735">
        <ele>2.984</ele>
        <time>2019-06-15T08:57:21Z</time>
      </trkpt>
      <trkpt lat="39.311864" lon="-0.317725">
        <ele>2.707</ele>
        <time>2019-06-15T08:57:22Z</time>
      </trkpt>
      <trkpt lat="39.311811" lon="-0.317726">
        <ele>2.517</ele>
        <time>2019-06-15T08:57:23Z</time>
      </trkpt>
      <trkpt lat="39.311758" lon="-0.317727">
        <ele>2.308</ele>
        <time>2019-06-15T08:57:24Z</time>
      </trkpt>
      <trkpt lat="39.311710" lon="-0.317705">
        <ele>2.241</ele>
        <time>2019-06-15T08:57:25Z</time>
      </trkpt>
      <trkpt lat="39.311653" lon="-0.317687">
        <ele>2.035</ele>
        <time>2019-06-15T08:57:26Z</time>
      </trkpt>
      <trkpt lat="39.311555" lon="-0.317675">
        <ele>2.344</ele>
        <time>2019-06-15T08:57:28Z</time>
      </trkpt>
      <trkpt lat="39.311489" lon="-0.317681">
        <ele>2.457</ele>
        <time>2019-06-15T08:57:29Z</time>
      </trkpt>
      <trkpt lat="39.311436" lon="-0.317688">
        <ele>2.649</ele>
        <time>2019-06-15T08:57:30Z</time>
      </trkpt>
      <trkpt lat="39.311385" lon="-0.317703">
        <ele>2.766</ele>
        <time>2019-06-15T08:57:31Z</time>
      </trkpt>
      <trkpt lat="39.311330" lon="-0.317703">
        <ele>2.885</ele>
        <time>2019-06-15T08:57:32Z</time>
      </trkpt>
      <trkpt lat="39.311231" lon="-0.317711">
        <ele>2.910</ele>
        <time>2019-06-15T08:57:34Z</time>
      </trkpt>
      <trkpt lat="39.311177" lon="-0.317725">
        <ele>3.063</ele>
        <time>2019-06-15T08:57:35Z</time>
      </trkpt>
      <trkpt lat="39.311113" lon="-0.317759">
        <ele>3.044</ele>
        <time>2019-06-15T08:57:36Z</time>
      </trkpt>
      <trkpt lat="39.311055" lon="-0.317775">
        <ele>2.818</ele>
        <time>2019-06-15T08:57:37Z</time>
      </trkpt>
      <trkpt lat="39.310954" lon="-0.317812">
        <ele>2.308</ele>
        <time>2019-06-15T08:57:39Z</time>
      </trkpt>
      <trkpt lat="39.310901" lon="-0.317827">
        <ele>2.189</ele>
        <time>2019-06-15T08:57:40Z</time>
      </trkpt>
      <trkpt lat="39.310851" lon="-0.317850">
        <ele>1.843</ele>
        <time>2019-06-15T08:57:41Z</time>
      </trkpt>
      <trkpt lat="39.310809" lon="-0.317875">
        <ele>1.672</ele>
        <time>2019-06-15T08:57:42Z</time>
      </trkpt>
      <trkpt lat="39.310763" lon="-0.317898">
        <ele>1.365</ele>
        <time>2019-06-15T08:57:43Z</time>
      </trkpt>
      <trkpt lat="39.310707" lon="-0.317912">
        <ele>1.147</ele>
        <time>2019-06-15T08:57:44Z</time>
      </trkpt>
      <trkpt lat="39.310627" lon="-0.317984">
        <ele>0.574</ele>
        <time>2019-06-15T08:57:46Z</time>
      </trkpt>
      <trkpt lat="39.310584" lon="-0.318016">
        <ele>0.253</ele>
        <time>2019-06-15T08:57:47Z</time>
      </trkpt>
      <trkpt lat="39.310517" lon="-0.318019">
        <ele>0.168</ele>
        <time>2019-06-15T08:57:49Z</time>
      </trkpt>
      <trkpt lat="39.310434" lon="-0.317989">
        <ele>0.254</ele>
        <time>2019-06-15T08:57:51Z</time>
      </trkpt>
      <trkpt lat="39.310383" lon="-0.317934">
        <ele>0.456</ele>
        <time>2019-06-15T08:57:53Z</time>
      </trkpt>
      <trkpt lat="39.310347" lon="-0.317866">
        <ele>0.711</ele>
        <time>2019-06-15T08:57:54Z</time>
      </trkpt>
      <trkpt lat="39.310273" lon="-0.317849">
        <ele>0.808</ele>
        <time>2019-06-15T08:57:56Z</time>
      </trkpt>
      <trkpt lat="39.310180" lon="-0.317853">
        <ele>1.188</ele>
        <time>2019-06-15T08:57:58Z</time>
      </trkpt>
      <trkpt lat="39.310090" lon="-0.317878">
        <ele>1.392</ele>
        <time>2019-06-15T08:58:00Z</time>
      </trkpt>
      <trkpt lat="39.310002" lon="-0.317908">
        <ele>1.551</ele>
        <time>2019-06-15T08:58:02Z</time>
      </trkpt>
      <trkpt lat="39.309954" lon="-0.317919">
        <ele>1.414</ele>
        <time>2019-06-15T08:58:03Z</time>
      </trkpt>
      <trkpt lat="39.309903" lon="-0.317923">
        <ele>1.326</ele>
        <time>2019-06-15T08:58:04Z</time>
      </trkpt>
      <trkpt lat="39.309861" lon="-0.317948">
        <ele>1.213</ele>
        <time>2019-06-15T08:58:05Z</time>
      </trkpt>
      <trkpt lat="39.309808" lon="-0.317967">
        <ele>1.142</ele>
        <time>2019-06-15T08:58:06Z</time>
      </trkpt>
      <trkpt lat="39.309761" lon="-0.317980">
        <ele>1.027</ele>
        <time>2019-06-15T08:58:07Z</time>
      </trkpt>
      <trkpt lat="39.309701" lon="-0.317968">
        <ele>0.992</ele>
        <time>2019-06-15T08:58:08Z</time>
      </trkpt>
      <trkpt lat="39.309649" lon="-0.317972">
        <ele>0.873</ele>
        <time>2019-06-15T08:58:09Z</time>
      </trkpt>
      <trkpt lat="39.309598" lon="-0.317969">
        <ele>0.720</ele>
        <time>2019-06-15T08:58:10Z</time>
      </trkpt>
      <trkpt lat="39.309543" lon="-0.317980">
        <ele>0.508</ele>
        <time>2019-06-15T08:58:11Z</time>
      </trkpt>
      <trkpt lat="39.309493" lon="-0.318001">
        <ele>0.372</ele>
        <time>2019-06-15T08:58:12Z</time>
      </trkpt>
      <trkpt lat="39.309443" lon="-0.318006">
        <ele>0.276</ele>
        <time>2019-06-15T08:58:13Z</time>
      </trkpt>
      <trkpt lat="39.309389" lon="-0.318006">
        <ele>0.225</ele>
        <time>2019-06-15T08:58:14Z</time>
      </trkpt>
      <trkpt lat="39.309337" lon="-0.318008">
        <ele>0.218</ele>
        <time>2019-06-15T08:58:15Z</time>
      </trkpt>
      <trkpt lat="39.309283" lon="-0.318011">
        <ele>0.260</ele>
        <time>2019-06-15T08:58:16Z</time>
      </trkpt>
      <trkpt lat="39.309232" lon="-0.318020">
        <ele>0.147</ele>
        <time>2019-06-15T08:58:17Z</time>
      </trkpt>
      <trkpt lat="39.309187" lon="-0.318027">
        <ele>0.116</ele>
        <time>2019-06-15T08:58:18Z</time>
      </trkpt>
      <trkpt lat="39.309136" lon="-0.318028">
        <ele>0.141</ele>
        <time>2019-06-15T08:58:19Z</time>
      </trkpt>
      <trkpt lat="39.309089" lon="-0.318032">
        <ele>0.128</ele>
        <time>2019-06-15T08:58:20Z</time>
      </trkpt>
      <trkpt lat="39.309040" lon="-0.318038">
        <ele>0.089</ele>
        <time>2019-06-15T08:58:21Z</time>
      </trkpt>
      <trkpt lat="39.308990" lon="-0.318052">
        <ele>0.017</ele>
        <time>2019-06-15T08:58:22Z</time>
      </trkpt>
      <trkpt lat="39.308943" lon="-0.318063">
        <ele>-0.008</ele>
        <time>2019-06-15T08:58:23Z</time>
      </trkpt>
      <trkpt lat="39.308895" lon="-0.318071">
        <ele>-0.125</ele>
        <time>2019-06-15T08:58:24Z</time>
      </trkpt>
      <trkpt lat="39.308844" lon="-0.318081">
        <ele>-0.189</ele>
        <time>2019-06-15T08:58:25Z</time>
      </trkpt>
      <trkpt lat="39.308790" lon="-0.318085">
        <ele>-0.168</ele>
        <time>2019-06-15T08:58:26Z</time>
      </trkpt>
      <trkpt lat="39.308743" lon="-0.318096">
        <ele>-0.121</ele>
        <time>2019-06-15T08:58:27Z</time>
      </trkpt>
      <trkpt lat="39.308653" lon="-0.318104">
        <ele>-0.223</ele>
        <time>2019-06-15T08:58:29Z</time>
      </trkpt>
      <trkpt lat="39.308601" lon="-0.318119">
        <ele>-0.230</ele>
        <time>2019-06-15T08:58:30Z</time>
      </trkpt>
      <trkpt lat="39.308550" lon="-0.318152">
        <ele>-0.329</ele>
        <time>2019-06-15T08:58:31Z</time>
      </trkpt>
      <trkpt lat="39.308505" lon="-0.318146">
        <ele>-0.234</ele>
        <time>2019-06-15T08:58:32Z</time>
      </trkpt>
      <trkpt lat="39.308460" lon="-0.318156">
        <ele>-0.279</ele>
        <time>2019-06-15T08:58:33Z</time>
      </trkpt>
      <trkpt lat="39.308393" lon="-0.318138">
        <ele>-0.105</ele>
        <time>2019-06-15T08:58:34Z</time>
      </trkpt>
      <trkpt lat="39.308333" lon="-0.318136">
        <ele>0.025</ele>
        <time>2019-06-15T08:58:35Z</time>
      </trkpt>
      <trkpt lat="39.308282" lon="-0.318141">
        <ele>0.208</ele>
        <time>2019-06-15T08:58:36Z</time>
      </trkpt>
      <trkpt lat="39.308232" lon="-0.318165">
        <ele>0.440</ele>
        <time>2019-06-15T08:58:37Z</time>
      </trkpt>
      <trkpt lat="39.308180" lon="-0.318177">
        <ele>0.654</ele>
        <time>2019-06-15T08:58:38Z</time>
      </trkpt>
      <trkpt lat="39.308111" lon="-0.318199">
        <ele>0.893</ele>
        <time>2019-06-15T08:58:39Z</time>
      </trkpt>
      <trkpt lat="39.308053" lon="-0.318212">
        <ele>1.046</ele>
        <time>2019-06-15T08:58:40Z</time>
      </trkpt>
      <trkpt lat="39.307995" lon="-0.318225">
        <ele>1.098</ele>
        <time>2019-06-15T08:58:41Z</time>
      </trkpt>
      <trkpt lat="39.307941" lon="-0.318238">
        <ele>1.055</ele>
        <time>2019-06-15T08:58:42Z</time>
      </trkpt>
      <trkpt lat="39.307895" lon="-0.318241">
        <ele>1.014</ele>
        <time>2019-06-15T08:58:43Z</time>
      </trkpt>
      <trkpt lat="39.307841" lon="-0.318261">
        <ele>1.069</ele>
        <time>2019-06-15T08:58:44Z</time>
      </trkpt>
      <trkpt lat="39.307789" lon="-0.318276">
        <ele>1.054</ele>
        <time>2019-06-15T08:58:45Z</time>
      </trkpt>
      <trkpt lat="39.307726" lon="-0.318281">
        <ele>0.856</ele>
        <time>2019-06-15T08:58:46Z</time>
      </trkpt>
      <trkpt lat="39.307677" lon="-0.318256">
        <ele>0.611</ele>
        <time>2019-06-15T08:58:47Z</time>
      </trkpt>
      <trkpt lat="39.307616" lon="-0.318203">
        <ele>0.408</ele>
        <time>2019-06-15T08:58:48Z</time>
      </trkpt>
      <trkpt lat="39.307589" lon="-0.318276">
        <ele>0.368</ele>
        <time>2019-06-15T08:58:49Z</time>
      </trkpt>
      <trkpt lat="39.307531" lon="-0.318301">
        <ele>0.192</ele>
        <time>2019-06-15T08:58:50Z</time>
      </trkpt>
      <trkpt lat="39.307484" lon="-0.318316">
        <ele>0.021</ele>
        <time>2019-06-15T08:58:51Z</time>
      </trkpt>
      <trkpt lat="39.307437" lon="-0.318331">
        <ele>0.014</ele>
        <time>2019-06-15T08:58:52Z</time>
      </trkpt>
      <trkpt lat="39.307235" lon="-0.318237">
        <ele>0.046</ele>
        <time>2019-06-15T08:58:56Z</time>
      </trkpt>
      <trkpt lat="39.307184" lon="-0.318210">
        <ele>0.183</ele>
        <time>2019-06-15T08:58:57Z</time>
      </trkpt>
      <trkpt lat="39.307129" lon="-0.318205">
        <ele>0.352</ele>
        <time>2019-06-15T08:58:58Z</time>
      </trkpt>
      <trkpt lat="39.307074" lon="-0.318231">
        <ele>0.527</ele>
        <time>2019-06-15T08:58:59Z</time>
      </trkpt>
      <trkpt lat="39.306975" lon="-0.318186">
        <ele>0.979</ele>
        <time>2019-06-15T08:59:00Z</time>
      </trkpt>
      <trkpt lat="39.306971" lon="-0.318368">
        <ele>0.805</ele>
        <time>2019-06-15T08:59:01Z</time>
      </trkpt>
      <trkpt lat="39.306966" lon="-0.318438">
        <ele>0.625</ele>
        <time>2019-06-15T08:59:02Z</time>
      </trkpt>
      <trkpt lat="39.306919" lon="-0.318469">
        <ele>0.608</ele>
        <time>2019-06-15T08:59:03Z</time>
      </trkpt>
      <trkpt lat="39.306824" lon="-0.318389">
        <ele>1.130</ele>
        <time>2019-06-15T08:59:04Z</time>
      </trkpt>
      <trkpt lat="39.306776" lon="-0.318388">
        <ele>1.314</ele>
        <time>2019-06-15T08:59:05Z</time>
      </trkpt>
      <trkpt lat="39.306716" lon="-0.318387">
        <ele>1.523</ele>
        <time>2019-06-15T08:59:06Z</time>
      </trkpt>
      <trkpt lat="39.306648" lon="-0.318407">
        <ele>1.446</ele>
        <time>2019-06-15T08:59:08Z</time>
      </trkpt>
      <trkpt lat="39.306633" lon="-0.318471">
        <ele>0.968</ele>
        <time>2019-06-15T08:59:09Z</time>
      </trkpt>
      <trkpt lat="39.306613" lon="-0.318543">
        <ele>0.465</ele>
        <time>2019-06-15T08:59:11Z</time>
      </trkpt>
      <trkpt lat="39.306629" lon="-0.318599">
        <ele>0.144</ele>
        <time>2019-06-15T08:59:12Z</time>
      </trkpt>
      <trkpt lat="39.306646" lon="-0.318666">
        <ele>-0.239</ele>
        <time>2019-06-15T08:59:16Z</time>
      </trkpt>
      <trkpt lat="39.306622" lon="-0.318918">
        <ele>-1.143</ele>
        <time>2019-06-15T08:59:18Z</time>
      </trkpt>
      <trkpt lat="39.306604" lon="-0.318975">
        <ele>-1.364</ele>
        <time>2019-06-15T08:59:19Z</time>
      </trkpt>
      <trkpt lat="39.306589" lon="-0.319041">
        <ele>-1.510</ele>
        <time>2019-06-15T08:59:20Z</time>
      </trkpt>
      <trkpt lat="39.306579" lon="-0.319109">
        <ele>-1.808</ele>
        <time>2019-06-15T08:59:21Z</time>
      </trkpt>
      <trkpt lat="39.306573" lon="-0.319174">
        <ele>-2.037</ele>
        <time>2019-06-15T08:59:22Z</time>
      </trkpt>
      <trkpt lat="39.306586" lon="-0.319277">
        <ele>-2.041</ele>
        <time>2019-06-15T08:59:24Z</time>
      </trkpt>
      <trkpt lat="39.306598" lon="-0.319396">
        <ele>-2.010</ele>
        <time>2019-06-15T08:59:26Z</time>
      </trkpt>
      <trkpt lat="39.306583" lon="-0.319461">
        <ele>-1.983</ele>
        <time>2019-06-15T08:59:27Z</time>
      </trkpt>
      <trkpt lat="39.306578" lon="-0.319581">
        <ele>-1.485</ele>
        <time>2019-06-15T08:59:29Z</time>
      </trkpt>
      <trkpt lat="39.306566" lon="-0.319638">
        <ele>-1.172</ele>
        <time>2019-06-15T08:59:30Z</time>
      </trkpt>
      <trkpt lat="39.306555" lon="-0.319761">
        <ele>-0.641</ele>
        <time>2019-06-15T08:59:32Z</time>
      </trkpt>
      <trkpt lat="39.306554" lon="-0.319822">
        <ele>-0.636</ele>
        <time>2019-06-15T08:59:33Z</time>
      </trkpt>
      <trkpt lat="39.306526" lon="-0.319931">
        <ele>-0.578</ele>
        <time>2019-06-15T08:59:35Z</time>
      </trkpt>
      <trkpt lat="39.306505" lon="-0.319991">
        <ele>-0.433</ele>
        <time>2019-06-15T08:59:36Z</time>
      </trkpt>
      <trkpt lat="39.306510" lon="-0.320058">
        <ele>-0.426</ele>
        <time>2019-06-15T08:59:37Z</time>
      </trkpt>
      <trkpt lat="39.306480" lon="-0.320163">
        <ele>-0.308</ele>
        <time>2019-06-15T08:59:39Z</time>
      </trkpt>
      <trkpt lat="39.306455" lon="-0.320217">
        <ele>-0.270</ele>
        <time>2019-06-15T08:59:40Z</time>
      </trkpt>
      <trkpt lat="39.306436" lon="-0.320271">
        <ele>-0.224</ele>
        <time>2019-06-15T08:59:41Z</time>
      </trkpt>
      <trkpt lat="39.306408" lon="-0.320335">
        <ele>-0.583</ele>
        <time>2019-06-15T08:59:42Z</time>
      </trkpt>
      <trkpt lat="39.306375" lon="-0.320400">
        <ele>-0.946</ele>
        <time>2019-06-15T08:59:43Z</time>
      </trkpt>
      <trkpt lat="39.306352" lon="-0.320466">
        <ele>-1.418</ele>
        <time>2019-06-15T08:59:44Z</time>
      </trkpt>
      <trkpt lat="39.306331" lon="-0.320527">
        <ele>-1.875</ele>
        <time>2019-06-15T08:59:45Z</time>
      </trkpt>
      <trkpt lat="39.306308" lon="-0.320591">
        <ele>-2.164</ele>
        <time>2019-06-15T08:59:46Z</time>
      </trkpt>
      <trkpt lat="39.306280" lon="-0.320660">
        <ele>-2.419</ele>
        <time>2019-06-15T08:59:47Z</time>
      </trkpt>
      <trkpt lat="39.306261" lon="-0.320720">
        <ele>-2.694</ele>
        <time>2019-06-15T08:59:48Z</time>
      </trkpt>
      <trkpt lat="39.306244" lon="-0.320780">
        <ele>-2.857</ele>
        <time>2019-06-15T08:59:49Z</time>
      </trkpt>
      <trkpt lat="39.306228" lon="-0.320854">
        <ele>-3.022</ele>
        <time>2019-06-15T08:59:50Z</time>
      </trkpt>
      <trkpt lat="39.306211" lon="-0.320911">
        <ele>-3.008</ele>
        <time>2019-06-15T08:59:51Z</time>
      </trkpt>
      <trkpt lat="39.306192" lon="-0.320973">
        <ele>-3.072</ele>
        <time>2019-06-15T08:59:52Z</time>
      </trkpt>
      <trkpt lat="39.306174" lon="-0.321038">
        <ele>-3.026</ele>
        <time>2019-06-15T08:59:53Z</time>
      </trkpt>
      <trkpt lat="39.306146" lon="-0.321097">
        <ele>-3.085</ele>
        <time>2019-06-15T08:59:54Z</time>
      </trkpt>
      <trkpt lat="39.306128" lon="-0.321168">
        <ele>-2.898</ele>
        <time>2019-06-15T08:59:55Z</time>
      </trkpt>
      <trkpt lat="39.306101" lon="-0.321224">
        <ele>-2.630</ele>
        <time>2019-06-15T08:59:56Z</time>
      </trkpt>
      <trkpt lat="39.306081" lon="-0.321284">
        <ele>-2.347</ele>
        <time>2019-06-15T08:59:57Z</time>
      </trkpt>
      <trkpt lat="39.306056" lon="-0.321335">
        <ele>-2.216</ele>
        <time>2019-06-15T08:59:58Z</time>
      </trkpt>
      <trkpt lat="39.306036" lon="-0.321392">
        <ele>-2.041</ele>
        <time>2019-06-15T08:59:59Z</time>
      </trkpt>
      <trkpt lat="39.306011" lon="-0.321452">
        <ele>-2.043</ele>
        <time>2019-06-15T09:00:00Z</time>
      </trkpt>
      <trkpt lat="39.305972" lon="-0.321559">
        <ele>-2.064</ele>
        <time>2019-06-15T09:00:02Z</time>
      </trkpt>
      <trkpt lat="39.305955" lon="-0.321624">
        <ele>-2.010</ele>
        <time>2019-06-15T09:00:03Z</time>
      </trkpt>
      <trkpt lat="39.305918" lon="-0.321731">
        <ele>-2.008</ele>
        <time>2019-06-15T09:00:05Z</time>
      </trkpt>
      <trkpt lat="39.305902" lon="-0.321789">
        <ele>-2.067</ele>
        <time>2019-06-15T09:00:06Z</time>
      </trkpt>
      <trkpt lat="39.305873" lon="-0.321896">
        <ele>-2.091</ele>
        <time>2019-06-15T09:00:08Z</time>
      </trkpt>
      <trkpt lat="39.305850" lon="-0.321956">
        <ele>-2.020</ele>
        <time>2019-06-15T09:00:09Z</time>
      </trkpt>
      <trkpt lat="39.305804" lon="-0.322065">
        <ele>-2.063</ele>
        <time>2019-06-15T09:00:11Z</time>
      </trkpt>
      <trkpt lat="39.305789" lon="-0.322133">
        <ele>-2.165</ele>
        <time>2019-06-15T09:00:12Z</time>
      </trkpt>
      <trkpt lat="39.305773" lon="-0.322191">
        <ele>-2.272</ele>
        <time>2019-06-15T09:00:13Z</time>
      </trkpt>
      <trkpt lat="39.305761" lon="-0.322258">
        <ele>-2.341</ele>
        <time>2019-06-15T09:00:14Z</time>
      </trkpt>
      <trkpt lat="39.305739" lon="-0.322312">
        <ele>-2.476</ele>
        <time>2019-06-15T09:00:15Z</time>
      </trkpt>
      <trkpt lat="39.305694" lon="-0.322412">
        <ele>-2.841</ele>
        <time>2019-06-15T09:00:17Z</time>
      </trkpt>
      <trkpt lat="39.305656" lon="-0.322512">
        <ele>-3.381</ele>
        <time>2019-06-15T09:00:19Z</time>
      </trkpt>
      <trkpt lat="39.305618" lon="-0.322616">
        <ele>-3.609</ele>
        <time>2019-06-15T09:00:21Z</time>
      </trkpt>
      <trkpt lat="39.305599" lon="-0.322679">
        <ele>-3.808</ele>
        <time>2019-06-15T09:00:22Z</time>
      </trkpt>
      <trkpt lat="39.305580" lon="-0.322737">
        <ele>-3.937</ele>
        <time>2019-06-15T09:00:23Z</time>
      </trkpt>
      <trkpt lat="39.305560" lon="-0.322792">
        <ele>-4.031</ele>
        <time>2019-06-15T09:00:24Z</time>
      </trkpt>
      <trkpt lat="39.305523" lon="-0.322889">
        <ele>-4.010</ele>
        <time>2019-06-15T09:00:26Z</time>
      </trkpt>
      <trkpt lat="39.305503" lon="-0.322946">
        <ele>-4.063</ele>
        <time>2019-06-15T09:00:27Z</time>
      </trkpt>
      <trkpt lat="39.305473" lon="-0.323058">
        <ele>-4.015</ele>
        <time>2019-06-15T09:00:29Z</time>
      </trkpt>
      <trkpt lat="39.305456" lon="-0.323122">
        <ele>-3.982</ele>
        <time>2019-06-15T09:00:30Z</time>
      </trkpt>
      <trkpt lat="39.305432" lon="-0.323183">
        <ele>-3.881</ele>
        <time>2019-06-15T09:00:31Z</time>
      </trkpt>
      <trkpt lat="39.305413" lon="-0.323243">
        <ele>-3.716</ele>
        <time>2019-06-15T09:00:32Z</time>
      </trkpt>
      <trkpt lat="39.305392" lon="-0.323310">
        <ele>-3.515</ele>
        <time>2019-06-15T09:00:33Z</time>
      </trkpt>
      <trkpt lat="39.305355" lon="-0.323411">
        <ele>-3.065</ele>
        <time>2019-06-15T09:00:35Z</time>
      </trkpt>
      <trkpt lat="39.305335" lon="-0.323467">
        <ele>-2.711</ele>
        <time>2019-06-15T09:00:36Z</time>
      </trkpt>
      <trkpt lat="39.305290" lon="-0.323570">
        <ele>-2.208</ele>
        <time>2019-06-15T09:00:38Z</time>
      </trkpt>
      <trkpt lat="39.305271" lon="-0.323629">
        <ele>-2.074</ele>
        <time>2019-06-15T09:00:39Z</time>
      </trkpt>
      <trkpt lat="39.305251" lon="-0.323693">
        <ele>-2.128</ele>
        <time>2019-06-15T09:00:40Z</time>
      </trkpt>
      <trkpt lat="39.305233" lon="-0.323746">
        <ele>-2.187</ele>
        <time>2019-06-15T09:00:41Z</time>
      </trkpt>
      <trkpt lat="39.305199" lon="-0.323860">
        <ele>-2.010</ele>
        <time>2019-06-15T09:00:43Z</time>
      </trkpt>
      <trkpt lat="39.305178" lon="-0.323914">
        <ele>-2.172</ele>
        <time>2019-06-15T09:00:44Z</time>
      </trkpt>
      <trkpt lat="39.305157" lon="-0.323980">
        <ele>-2.249</ele>
        <time>2019-06-15T09:00:45Z</time>
      </trkpt>
      <trkpt lat="39.305134" lon="-0.324036">
        <ele>-2.398</ele>
        <time>2019-06-15T09:00:46Z</time>
      </trkpt>
      <trkpt lat="39.305112" lon="-0.324093">
        <ele>-2.383</ele>
        <time>2019-06-15T09:00:47Z</time>
      </trkpt>
      <trkpt lat="39.305077" lon="-0.324210">
        <ele>-2.418</ele>
        <time>2019-06-15T09:00:49Z</time>
      </trkpt>
      <trkpt lat="39.305055" lon="-0.324266">
        <ele>-2.598</ele>
        <time>2019-06-15T09:00:50Z</time>
      </trkpt>
      <trkpt lat="39.305016" lon="-0.324375">
        <ele>-2.817</ele>
        <time>2019-06-15T09:00:52Z</time>
      </trkpt>
      <trkpt lat="39.305001" lon="-0.324436">
        <ele>-3.008</ele>
        <time>2019-06-15T09:00:53Z</time>
      </trkpt>
      <trkpt lat="39.304980" lon="-0.324495">
        <ele>-2.834</ele>
        <time>2019-06-15T09:00:54Z</time>
      </trkpt>
      <trkpt lat="39.304938" lon="-0.324594">
        <ele>-2.428</ele>
        <time>2019-06-15T09:00:56Z</time>
      </trkpt>
      <trkpt lat="39.304915" lon="-0.324653">
        <ele>-2.277</ele>
        <time>2019-06-15T09:00:57Z</time>
      </trkpt>
      <trkpt lat="39.304895" lon="-0.324705">
        <ele>-2.070</ele>
        <time>2019-06-15T09:00:58Z</time>
      </trkpt>
      <trkpt lat="39.304878" lon="-0.324759">
        <ele>-2.032</ele>
        <time>2019-06-15T09:00:59Z</time>
      </trkpt>
      <trkpt lat="39.304840" lon="-0.324868">
        <ele>-2.089</ele>
        <time>2019-06-15T09:01:01Z</time>
      </trkpt>
      <trkpt lat="39.304815" lon="-0.324962">
        <ele>-2.018</ele>
        <time>2019-06-15T09:01:03Z</time>
      </trkpt>
      <trkpt lat="39.304799" lon="-0.325033">
        <ele>-1.913</ele>
        <time>2019-06-15T09:01:04Z</time>
      </trkpt>
      <trkpt lat="39.304767" lon="-0.325145">
        <ele>-1.568</ele>
        <time>2019-06-15T09:01:06Z</time>
      </trkpt>
      <trkpt lat="39.304728" lon="-0.325247">
        <ele>-1.142</ele>
        <time>2019-06-15T09:01:08Z</time>
      </trkpt>
      <trkpt lat="39.304690" lon="-0.325355">
        <ele>-1.126</ele>
        <time>2019-06-15T09:01:10Z</time>
      </trkpt>
      <trkpt lat="39.304648" lon="-0.325464">
        <ele>-1.308</ele>
        <time>2019-06-15T09:01:12Z</time>
      </trkpt>
      <trkpt lat="39.304624" lon="-0.325523">
        <ele>-1.469</ele>
        <time>2019-06-15T09:01:13Z</time>
      </trkpt>
      <trkpt lat="39.304600" lon="-0.325586">
        <ele>-1.593</ele>
        <time>2019-06-15T09:01:14Z</time>
      </trkpt>
      <trkpt lat="39.304580" lon="-0.325646">
        <ele>-1.552</ele>
        <time>2019-06-15T09:01:15Z</time>
      </trkpt>
      <trkpt lat="39.304561" lon="-0.325724">
        <ele>-1.585</ele>
        <time>2019-06-15T09:01:16Z</time>
      </trkpt>
      <trkpt lat="39.304541" lon="-0.325781">
        <ele>-1.457</ele>
        <time>2019-06-15T09:01:17Z</time>
      </trkpt>
      <trkpt lat="39.304506" lon="-0.325889">
        <ele>-1.224</ele>
        <time>2019-06-15T09:01:19Z</time>
      </trkpt>
      <trkpt lat="39.304472" lon="-0.325996">
        <ele>-1.193</ele>
        <time>2019-06-15T09:01:21Z</time>
      </trkpt>
      <trkpt lat="39.304450" lon="-0.326052">
        <ele>-1.098</ele>
        <time>2019-06-15T09:01:22Z</time>
      </trkpt>
      <trkpt lat="39.304420" lon="-0.326145">
        <ele>-1.087</ele>
        <time>2019-06-15T09:01:24Z</time>
      </trkpt>
      <trkpt lat="39.304386" lon="-0.326243">
        <ele>-1.342</ele>
        <time>2019-06-15T09:01:26Z</time>
      </trkpt>
      <trkpt lat="39.304356" lon="-0.326350">
        <ele>-1.526</ele>
        <time>2019-06-15T09:01:28Z</time>
      </trkpt>
      <trkpt lat="39.304338" lon="-0.326460">
        <ele>-1.908</ele>
        <time>2019-06-15T09:01:30Z</time>
      </trkpt>
      <trkpt lat="39.304316" lon="-0.326513">
        <ele>-2.071</ele>
        <time>2019-06-15T09:01:31Z</time>
      </trkpt>
      <trkpt lat="39.304283" lon="-0.326612">
        <ele>-2.275</ele>
        <time>2019-06-15T09:01:33Z</time>
      </trkpt>
      <trkpt lat="39.304272" lon="-0.326671">
        <ele>-2.474</ele>
        <time>2019-06-15T09:01:34Z</time>
      </trkpt>
      <trkpt lat="39.304253" lon="-0.326725">
        <ele>-2.587</ele>
        <time>2019-06-15T09:01:35Z</time>
      </trkpt>
      <trkpt lat="39.304245" lon="-0.326790">
        <ele>-2.629</ele>
        <time>2019-06-15T09:01:36Z</time>
      </trkpt>
      <trkpt lat="39.304227" lon="-0.326843">
        <ele>-2.736</ele>
        <time>2019-06-15T09:01:37Z</time>
      </trkpt>
      <trkpt lat="39.304200" lon="-0.326930">
        <ele>-3.055</ele>
        <time>2019-06-15T09:01:39Z</time>
      </trkpt>
      <trkpt lat="39.304165" lon="-0.327013">
        <ele>-3.020</ele>
        <time>2019-06-15T09:01:41Z</time>
      </trkpt>
      <trkpt lat="39.304133" lon="-0.327120">
        <ele>-3.015</ele>
        <time>2019-06-15T09:01:43Z</time>
      </trkpt>
      <trkpt lat="39.304112" lon="-0.327179">
        <ele>-3.065</ele>
        <time>2019-06-15T09:01:44Z</time>
      </trkpt>
      <trkpt lat="39.304062" lon="-0.327271">
        <ele>-2.911</ele>
        <time>2019-06-15T09:01:46Z</time>
      </trkpt>
      <trkpt lat="39.304028" lon="-0.327359">
        <ele>-2.808</ele>
        <time>2019-06-15T09:01:48Z</time>
      </trkpt>
      <trkpt lat="39.303970" lon="-0.327478">
        <ele>-2.774</ele>
        <time>2019-06-15T09:01:50Z</time>
      </trkpt>
      <trkpt lat="39.303950" lon="-0.327547">
        <ele>-2.898</ele>
        <time>2019-06-15T09:01:52Z</time>
      </trkpt>
      <trkpt lat="39.303905" lon="-0.327637">
        <ele>-2.957</ele>
        <time>2019-06-15T09:01:54Z</time>
      </trkpt>
      <trkpt lat="39.303886" lon="-0.327707">
        <ele>-3.030</ele>
        <time>2019-06-15T09:01:58Z</time>
      </trkpt>
      <trkpt lat="39.303861" lon="-0.327776">
        <ele>-3.162</ele>
        <time>2019-06-15T09:02:01Z</time>
      </trkpt>
      <trkpt lat="39.303798" lon="-0.327959">
        <ele>-3.179</ele>
        <time>2019-06-15T09:02:02Z</time>
      </trkpt>
      <trkpt lat="39.303755" lon="-0.328086">
        <ele>-3.068</ele>
        <time>2019-06-15T09:02:03Z</time>
      </trkpt>
      <trkpt lat="39.303722" lon="-0.328188">
        <ele>-3.093</ele>
        <time>2019-06-15T09:02:05Z</time>
      </trkpt>
      <trkpt lat="39.303716" lon="-0.328246">
        <ele>-3.032</ele>
        <time>2019-06-15T09:02:06Z</time>
      </trkpt>
      <trkpt lat="39.303679" lon="-0.328348">
        <ele>-3.092</ele>
        <time>2019-06-15T09:02:08Z</time>
      </trkpt>
      <trkpt lat="39.303656" lon="-0.328400">
        <ele>-2.811</ele>
        <time>2019-06-15T09:02:09Z</time>
      </trkpt>
      <trkpt lat="39.303637" lon="-0.328453">
        <ele>-2.608</ele>
        <time>2019-06-15T09:02:10Z</time>
      </trkpt>
      <trkpt lat="39.303601" lon="-0.328555">
        <ele>-2.296</ele>
        <time>2019-06-15T09:02:12Z</time>
      </trkpt>
      <trkpt lat="39.303557" lon="-0.328653">
        <ele>-2.090</ele>
        <time>2019-06-15T09:02:14Z</time>
      </trkpt>
      <trkpt lat="39.303540" lon="-0.328708">
        <ele>-2.019</ele>
        <time>2019-06-15T09:02:15Z</time>
      </trkpt>
      <trkpt lat="39.303521" lon="-0.328762">
        <ele>-2.012</ele>
        <time>2019-06-15T09:02:16Z</time>
      </trkpt>
      <trkpt lat="39.303482" lon="-0.328865">
        <ele>-2.014</ele>
        <time>2019-06-15T09:02:18Z</time>
      </trkpt>
      <trkpt lat="39.303446" lon="-0.328961">
        <ele>-2.061</ele>
        <time>2019-06-15T09:02:20Z</time>
      </trkpt>
      <trkpt lat="39.303427" lon="-0.329017">
        <ele>-2.080</ele>
        <time>2019-06-15T09:02:21Z</time>
      </trkpt>
      <trkpt lat="39.303408" lon="-0.329115">
        <ele>-2.075</ele>
        <time>2019-06-15T09:02:23Z</time>
      </trkpt>
      <trkpt lat="39.303393" lon="-0.329170">
        <ele>-2.079</ele>
        <time>2019-06-15T09:02:24Z</time>
      </trkpt>
      <trkpt lat="39.303355" lon="-0.329270">
        <ele>-2.005</ele>
        <time>2019-06-15T09:02:26Z</time>
      </trkpt>
      <trkpt lat="39.303316" lon="-0.329376">
        <ele>-2.025</ele>
        <time>2019-06-15T09:02:28Z</time>
      </trkpt>
      <trkpt lat="39.303271" lon="-0.329479">
        <ele>-2.108</ele>
        <time>2019-06-15T09:02:30Z</time>
      </trkpt>
      <trkpt lat="39.303243" lon="-0.329580">
        <ele>-2.370</ele>
        <time>2019-06-15T09:02:32Z</time>
      </trkpt>
      <trkpt lat="39.303214" lon="-0.329679">
        <ele>-2.534</ele>
        <time>2019-06-15T09:02:34Z</time>
      </trkpt>
      <trkpt lat="39.303187" lon="-0.329772">
        <ele>-2.453</ele>
        <time>2019-06-15T09:02:36Z</time>
      </trkpt>
      <trkpt lat="39.303168" lon="-0.329829">
        <ele>-2.216</ele>
        <time>2019-06-15T09:02:38Z</time>
      </trkpt>
      <trkpt lat="39.303173" lon="-0.329947">
        <ele>-2.168</ele>
        <time>2019-06-15T09:02:42Z</time>
      </trkpt>
      <trkpt lat="39.303134" lon="-0.330057">
        <ele>-2.035</ele>
        <time>2019-06-15T09:02:43Z</time>
      </trkpt>
      <trkpt lat="39.303070" lon="-0.330088">
        <ele>-2.054</ele>
        <time>2019-06-15T09:02:45Z</time>
      </trkpt>
      <trkpt lat="39.302979" lon="-0.330099">
        <ele>-2.239</ele>
        <time>2019-06-15T09:02:47Z</time>
      </trkpt>
      <trkpt lat="39.302928" lon="-0.330104">
        <ele>-2.388</ele>
        <time>2019-06-15T09:02:48Z</time>
      </trkpt>
      <trkpt lat="39.302877" lon="-0.330108">
        <ele>-2.424</ele>
        <time>2019-06-15T09:02:49Z</time>
      </trkpt>
      <trkpt lat="39.302829" lon="-0.330113">
        <ele>-2.526</ele>
        <time>2019-06-15T09:02:50Z</time>
      </trkpt>
      <trkpt lat="39.302737" lon="-0.330110">
        <ele>-2.508</ele>
        <time>2019-06-15T09:02:52Z</time>
      </trkpt>
      <trkpt lat="39.302689" lon="-0.330116">
        <ele>-2.471</ele>
        <time>2019-06-15T09:02:53Z</time>
      </trkpt>
      <trkpt lat="39.302641" lon="-0.330129">
        <ele>-2.345</ele>
        <time>2019-06-15T09:02:54Z</time>
      </trkpt>
      <trkpt lat="39.302594" lon="-0.330128">
        <ele>-2.294</ele>
        <time>2019-06-15T09:02:55Z</time>
      </trkpt>
      <trkpt lat="39.302549" lon="-0.330136">
        <ele>-2.137</ele>
        <time>2019-06-15T09:02:56Z</time>
      </trkpt>
      <trkpt lat="39.302456" lon="-0.330151">
        <ele>-1.559</ele>
        <time>2019-06-15T09:02:58Z</time>
      </trkpt>
      <trkpt lat="39.302375" lon="-0.330160">
        <ele>-0.856</ele>
        <time>2019-06-15T09:03:00Z</time>
      </trkpt>
      <trkpt lat="39.302330" lon="-0.330165">
        <ele>-0.365</ele>
        <time>2019-06-15T09:03:01Z</time>
      </trkpt>
      <trkpt lat="39.302283" lon="-0.330165">
        <ele>0.130</ele>
        <time>2019-06-15T09:03:02Z</time>
      </trkpt>
      <trkpt lat="39.302229" lon="-0.330173">
        <ele>0.688</ele>
        <time>2019-06-15T09:03:03Z</time>
      </trkpt>
      <trkpt lat="39.302140" lon="-0.330171">
        <ele>0.624</ele>
        <time>2019-06-15T09:03:05Z</time>
      </trkpt>
      <trkpt lat="39.302088" lon="-0.330178">
        <ele>0.626</ele>
        <time>2019-06-15T09:03:06Z</time>
      </trkpt>
      <trkpt lat="39.302042" lon="-0.330181">
        <ele>0.708</ele>
        <time>2019-06-15T09:03:07Z</time>
      </trkpt>
      <trkpt lat="39.301962" lon="-0.330184">
        <ele>0.731</ele>
        <time>2019-06-15T09:03:09Z</time>
      </trkpt>
      <trkpt lat="39.301916" lon="-0.330191">
        <ele>0.465</ele>
        <time>2019-06-15T09:03:10Z</time>
      </trkpt>
      <trkpt lat="39.301871" lon="-0.330183">
        <ele>-0.054</ele>
        <time>2019-06-15T09:03:11Z</time>
      </trkpt>
      <trkpt lat="39.301779" lon="-0.330165">
        <ele>-1.097</ele>
        <time>2019-06-15T09:03:13Z</time>
      </trkpt>
      <trkpt lat="39.301733" lon="-0.330154">
        <ele>-1.429</ele>
        <time>2019-06-15T09:03:14Z</time>
      </trkpt>
      <trkpt lat="39.301646" lon="-0.330129">
        <ele>-2.296</ele>
        <time>2019-06-15T09:03:16Z</time>
      </trkpt>
      <trkpt lat="39.301551" lon="-0.330102">
        <ele>-3.085</ele>
        <time>2019-06-15T09:03:18Z</time>
      </trkpt>
      <trkpt lat="39.301500" lon="-0.330083">
        <ele>-3.410</ele>
        <time>2019-06-15T09:03:19Z</time>
      </trkpt>
      <trkpt lat="39.301453" lon="-0.330071">
        <ele>-3.756</ele>
        <time>2019-06-15T09:03:20Z</time>
      </trkpt>
      <trkpt lat="39.301403" lon="-0.330057">
        <ele>-4.159</ele>
        <time>2019-06-15T09:03:21Z</time>
      </trkpt>
      <trkpt lat="39.301313" lon="-0.330029">
        <ele>-3.914</ele>
        <time>2019-06-15T09:03:23Z</time>
      </trkpt>
      <trkpt lat="39.301273" lon="-0.330002">
        <ele>-3.608</ele>
        <time>2019-06-15T09:03:24Z</time>
      </trkpt>
      <trkpt lat="39.301191" lon="-0.329957">
        <ele>-3.128</ele>
        <time>2019-06-15T09:03:26Z</time>
      </trkpt>
      <trkpt lat="39.301113" lon="-0.329913">
        <ele>-2.732</ele>
        <time>2019-06-15T09:03:28Z</time>
      </trkpt>
      <trkpt lat="39.301035" lon="-0.329868">
        <ele>-2.511</ele>
        <time>2019-06-15T09:03:30Z</time>
      </trkpt>
      <trkpt lat="39.300956" lon="-0.329823">
        <ele>-2.414</ele>
        <time>2019-06-15T09:03:32Z</time>
      </trkpt>
      <trkpt lat="39.300898" lon="-0.329844">
        <ele>-2.486</ele>
        <time>2019-06-15T09:03:34Z</time>
      </trkpt>
      <trkpt lat="39.300880" lon="-0.329941">
        <ele>-2.843</ele>
        <time>2019-06-15T09:03:36Z</time>
      </trkpt>
      <trkpt lat="39.300915" lon="-0.330038">
        <ele>-3.172</ele>
        <time>2019-06-15T09:03:38Z</time>
      </trkpt>
      <trkpt lat="39.300938" lon="-0.330089">
        <ele>-3.287</ele>
        <time>2019-06-15T09:03:39Z</time>
      </trkpt>
      <trkpt lat="39.300972" lon="-0.330135">
        <ele>-3.553</ele>
        <time>2019-06-15T09:03:40Z</time>
      </trkpt>
      <trkpt lat="39.300993" lon="-0.330194">
        <ele>-3.804</ele>
        <time>2019-06-15T09:03:41Z</time>
      </trkpt>
      <trkpt lat="39.301036" lon="-0.330296">
        <ele>-4.514</ele>
        <time>2019-06-15T09:03:43Z</time>
      </trkpt>
      <trkpt lat="39.301060" lon="-0.330349">
        <ele>-4.708</ele>
        <time>2019-06-15T09:03:44Z</time>
      </trkpt>
      <trkpt lat="39.301096" lon="-0.330453">
        <ele>-4.988</ele>
        <time>2019-06-15T09:03:46Z</time>
      </trkpt>
      <trkpt lat="39.301111" lon="-0.330513">
        <ele>-5.022</ele>
        <time>2019-06-15T09:03:47Z</time>
      </trkpt>
      <trkpt lat="39.301132" lon="-0.330569">
        <ele>-5.141</ele>
        <time>2019-06-15T09:03:48Z</time>
      </trkpt>
      <trkpt lat="39.301166" lon="-0.330669">
        <ele>-5.264</ele>
        <time>2019-06-15T09:03:50Z</time>
      </trkpt>
      <trkpt lat="39.301189" lon="-0.330726">
        <ele>-5.376</ele>
        <time>2019-06-15T09:03:51Z</time>
      </trkpt>
      <trkpt lat="39.301208" lon="-0.330779">
        <ele>-5.363</ele>
        <time>2019-06-15T09:03:52Z</time>
      </trkpt>
      <trkpt lat="39.301231" lon="-0.330829">
        <ele>-5.432</ele>
        <time>2019-06-15T09:03:53Z</time>
      </trkpt>
      <trkpt lat="39.301250" lon="-0.330885">
        <ele>-5.427</ele>
        <time>2019-06-15T09:03:54Z</time>
      </trkpt>
      <trkpt lat="39.301282" lon="-0.330996">
        <ele>-5.395</ele>
        <time>2019-06-15T09:03:56Z</time>
      </trkpt>
      <trkpt lat="39.301310" lon="-0.331097">
        <ele>-5.049</ele>
        <time>2019-06-15T09:03:58Z</time>
      </trkpt>
      <trkpt lat="39.301340" lon="-0.331197">
        <ele>-4.623</ele>
        <time>2019-06-15T09:04:00Z</time>
      </trkpt>
      <trkpt lat="39.301363" lon="-0.331249">
        <ele>-4.508</ele>
        <time>2019-06-15T09:04:01Z</time>
      </trkpt>
      <trkpt lat="39.301384" lon="-0.331305">
        <ele>-4.362</ele>
        <time>2019-06-15T09:04:02Z</time>
      </trkpt>
      <trkpt lat="39.301403" lon="-0.331361">
        <ele>-4.156</ele>
        <time>2019-06-15T09:04:03Z</time>
      </trkpt>
      <trkpt lat="39.301419" lon="-0.331426">
        <ele>-3.795</ele>
        <time>2019-06-15T09:04:04Z</time>
      </trkpt>
      <trkpt lat="39.301450" lon="-0.331540">
        <ele>-2.948</ele>
        <time>2019-06-15T09:04:06Z</time>
      </trkpt>
      <trkpt lat="39.301463" lon="-0.331596">
        <ele>-2.570</ele>
        <time>2019-06-15T09:04:07Z</time>
      </trkpt>
      <trkpt lat="39.301503" lon="-0.331682">
        <ele>-1.947</ele>
        <time>2019-06-15T09:04:09Z</time>
      </trkpt>
      <trkpt lat="39.301543" lon="-0.331781">
        <ele>-1.646</ele>
        <time>2019-06-15T09:04:11Z</time>
      </trkpt>
      <trkpt lat="39.301575" lon="-0.331887">
        <ele>-1.251</ele>
        <time>2019-06-15T09:04:13Z</time>
      </trkpt>
      <trkpt lat="39.301596" lon="-0.331946">
        <ele>-1.033</ele>
        <time>2019-06-15T09:04:14Z</time>
      </trkpt>
      <trkpt lat="39.301618" lon="-0.332005">
        <ele>-0.623</ele>
        <time>2019-06-15T09:04:15Z</time>
      </trkpt>
      <trkpt lat="39.301639" lon="-0.332061">
        <ele>-0.215</ele>
        <time>2019-06-15T09:04:16Z</time>
      </trkpt>
      <trkpt lat="39.301657" lon="-0.332121">
        <ele>0.208</ele>
        <time>2019-06-15T09:04:17Z</time>
      </trkpt>
      <trkpt lat="39.301673" lon="-0.332181">
        <ele>0.816</ele>
        <time>2019-06-15T09:04:18Z</time>
      </trkpt>
      <trkpt lat="39.301687" lon="-0.332237">
        <ele>1.270</ele>
        <time>2019-06-15T09:04:19Z</time>
      </trkpt>
      <trkpt lat="39.301706" lon="-0.332295">
        <ele>1.349</ele>
        <time>2019-06-15T09:04:20Z</time>
      </trkpt>
      <trkpt lat="39.301725" lon="-0.332350">
        <ele>1.372</ele>
        <time>2019-06-15T09:04:21Z</time>
      </trkpt>
      <trkpt lat="39.301756" lon="-0.332460">
        <ele>1.174</ele>
        <time>2019-06-15T09:04:23Z</time>
      </trkpt>
      <trkpt lat="39.301779" lon="-0.332522">
        <ele>0.921</ele>
        <time>2019-06-15T09:04:24Z</time>
      </trkpt>
      <trkpt lat="39.301798" lon="-0.332581">
        <ele>0.750</ele>
        <time>2019-06-15T09:04:25Z</time>
      </trkpt>
      <trkpt lat="39.301813" lon="-0.332649">
        <ele>0.525</ele>
        <time>2019-06-15T09:04:26Z</time>
      </trkpt>
      <trkpt lat="39.301829" lon="-0.332711">
        <ele>0.212</ele>
        <time>2019-06-15T09:04:27Z</time>
      </trkpt>
      <trkpt lat="39.301848" lon="-0.332765">
        <ele>0.032</ele>
        <time>2019-06-15T09:04:28Z</time>
      </trkpt>
      <trkpt lat="39.301867" lon="-0.332825">
        <ele>-0.205</ele>
        <time>2019-06-15T09:04:29Z</time>
      </trkpt>
      <trkpt lat="39.301906" lon="-0.332932">
        <ele>-0.608</ele>
        <time>2019-06-15T09:04:31Z</time>
      </trkpt>
      <trkpt lat="39.301950" lon="-0.333035">
        <ele>-0.994</ele>
        <time>2019-06-15T09:04:33Z</time>
      </trkpt>
      <trkpt lat="39.301975" lon="-0.333097">
        <ele>-1.168</ele>
        <time>2019-06-15T09:04:34Z</time>
      </trkpt>
      <trkpt lat="39.302000" lon="-0.333146">
        <ele>-1.277</ele>
        <time>2019-06-15T09:04:35Z</time>
      </trkpt>
      <trkpt lat="39.302017" lon="-0.333211">
        <ele>-1.370</ele>
        <time>2019-06-15T09:04:36Z</time>
      </trkpt>
      <trkpt lat="39.302040" lon="-0.333272">
        <ele>-1.392</ele>
        <time>2019-06-15T09:04:37Z</time>
      </trkpt>
      <trkpt lat="39.302061" lon="-0.333331">
        <ele>-1.439</ele>
        <time>2019-06-15T09:04:38Z</time>
      </trkpt>
      <trkpt lat="39.302092" lon="-0.333400">
        <ele>-1.498</ele>
        <time>2019-06-15T09:04:39Z</time>
      </trkpt>
      <trkpt lat="39.302134" lon="-0.333508">
        <ele>-1.353</ele>
        <time>2019-06-15T09:04:41Z</time>
      </trkpt>
      <trkpt lat="39.302158" lon="-0.333574">
        <ele>-1.158</ele>
        <time>2019-06-15T09:04:42Z</time>
      </trkpt>
      <trkpt lat="39.302181" lon="-0.333629">
        <ele>-1.052</ele>
        <time>2019-06-15T09:04:43Z</time>
      </trkpt>
      <trkpt lat="39.302215" lon="-0.333698">
        <ele>-1.017</ele>
        <time>2019-06-15T09:04:44Z</time>
      </trkpt>
      <trkpt lat="39.302233" lon="-0.333761">
        <ele>-1.008</ele>
        <time>2019-06-15T09:04:45Z</time>
      </trkpt>
      <trkpt lat="39.302257" lon="-0.333822">
        <ele>-0.988</ele>
        <time>2019-06-15T09:04:46Z</time>
      </trkpt>
      <trkpt lat="39.302288" lon="-0.333876">
        <ele>-0.842</ele>
        <time>2019-06-15T09:04:47Z</time>
      </trkpt>
      <trkpt lat="39.302312" lon="-0.333929">
        <ele>-0.791</ele>
        <time>2019-06-15T09:04:48Z</time>
      </trkpt>
      <trkpt lat="39.302340" lon="-0.333981">
        <ele>-0.644</ele>
        <time>2019-06-15T09:04:49Z</time>
      </trkpt>
      <trkpt lat="39.302377" lon="-0.334030">
        <ele>-0.476</ele>
        <time>2019-06-15T09:04:50Z</time>
      </trkpt>
      <trkpt lat="39.302417" lon="-0.334075">
        <ele>-0.343</ele>
        <time>2019-06-15T09:04:51Z</time>
      </trkpt>
      <trkpt lat="39.302457" lon="-0.334129">
        <ele>-0.272</ele>
        <time>2019-06-15T09:04:52Z</time>
      </trkpt>
      <trkpt lat="39.302499" lon="-0.334178">
        <ele>-0.017</ele>
        <time>2019-06-15T09:04:53Z</time>
      </trkpt>
      <trkpt lat="39.302534" lon="-0.334227">
        <ele>0.164</ele>
        <time>2019-06-15T09:04:54Z</time>
      </trkpt>
      <trkpt lat="39.302566" lon="-0.334270">
        <ele>0.106</ele>
        <time>2019-06-15T09:04:55Z</time>
      </trkpt>
      <trkpt lat="39.302631" lon="-0.334347">
        <ele>0.216</ele>
        <time>2019-06-15T09:04:57Z</time>
      </trkpt>
      <trkpt lat="39.302674" lon="-0.334385">
        <ele>0.108</ele>
        <time>2019-06-15T09:04:58Z</time>
      </trkpt>
      <trkpt lat="39.302710" lon="-0.334438">
        <ele>0.039</ele>
        <time>2019-06-15T09:04:59Z</time>
      </trkpt>
      <trkpt lat="39.302744" lon="-0.334486">
        <ele>-0.133</ele>
        <time>2019-06-15T09:05:00Z</time>
      </trkpt>
      <trkpt lat="39.302783" lon="-0.334533">
        <ele>-0.322</ele>
        <time>2019-06-15T09:05:01Z</time>
      </trkpt>
      <trkpt lat="39.302829" lon="-0.334572">
        <ele>-0.635</ele>
        <time>2019-06-15T09:05:02Z</time>
      </trkpt>
      <trkpt lat="39.302869" lon="-0.334618">
        <ele>-1.017</ele>
        <time>2019-06-15T09:05:03Z</time>
      </trkpt>
      <trkpt lat="39.302908" lon="-0.334665">
        <ele>-1.324</ele>
        <time>2019-06-15T09:05:04Z</time>
      </trkpt>
      <trkpt lat="39.302943" lon="-0.334704">
        <ele>-1.593</ele>
        <time>2019-06-15T09:05:05Z</time>
      </trkpt>
      <trkpt lat="39.302976" lon="-0.334750">
        <ele>-1.748</ele>
        <time>2019-06-15T09:05:06Z</time>
      </trkpt>
      <trkpt lat="39.303016" lon="-0.334798">
        <ele>-1.773</ele>
        <time>2019-06-15T09:05:07Z</time>
      </trkpt>
      <trkpt lat="39.303057" lon="-0.334842">
        <ele>-1.685</ele>
        <time>2019-06-15T09:05:08Z</time>
      </trkpt>
      <trkpt lat="39.303097" lon="-0.334888">
        <ele>-1.313</ele>
        <time>2019-06-15T09:05:09Z</time>
      </trkpt>
      <trkpt lat="39.303143" lon="-0.334926">
        <ele>-1.208</ele>
        <time>2019-06-15T09:05:10Z</time>
      </trkpt>
      <trkpt lat="39.303175" lon="-0.334968">
        <ele>-1.120</ele>
        <time>2019-06-15T09:05:11Z</time>
      </trkpt>
      <trkpt lat="39.303215" lon="-0.335012">
        <ele>-1.044</ele>
        <time>2019-06-15T09:05:12Z</time>
      </trkpt>
      <trkpt lat="39.303237" lon="-0.335066">
        <ele>-1.283</ele>
        <time>2019-06-15T09:05:13Z</time>
      </trkpt>
      <trkpt lat="39.303269" lon="-0.335111">
        <ele>-1.446</ele>
        <time>2019-06-15T09:05:14Z</time>
      </trkpt>
      <trkpt lat="39.303312" lon="-0.335151">
        <ele>-1.588</ele>
        <time>2019-06-15T09:05:15Z</time>
      </trkpt>
      <trkpt lat="39.303349" lon="-0.335204">
        <ele>-1.615</ele>
        <time>2019-06-15T09:05:16Z</time>
      </trkpt>
      <trkpt lat="39.303386" lon="-0.335248">
        <ele>-1.594</ele>
        <time>2019-06-15T09:05:17Z</time>
      </trkpt>
      <trkpt lat="39.303416" lon="-0.335304">
        <ele>-1.579</ele>
        <time>2019-06-15T09:05:18Z</time>
      </trkpt>
      <trkpt lat="39.303413" lon="-0.335415">
        <ele>-1.732</ele>
        <time>2019-06-15T09:05:20Z</time>
      </trkpt>
      <trkpt lat="39.303351" lon="-0.335495">
        <ele>-2.092</ele>
        <time>2019-06-15T09:05:22Z</time>
      </trkpt>
      <trkpt lat="39.303277" lon="-0.335551">
        <ele>-2.011</ele>
        <time>2019-06-15T09:05:24Z</time>
      </trkpt>
      <trkpt lat="39.303198" lon="-0.335609">
        <ele>-2.108</ele>
        <time>2019-06-15T09:05:26Z</time>
      </trkpt>
      <trkpt lat="39.303127" lon="-0.335680">
        <ele>-2.146</ele>
        <time>2019-06-15T09:05:28Z</time>
      </trkpt>
      <trkpt lat="39.303081" lon="-0.335727">
        <ele>-2.160</ele>
        <time>2019-06-15T09:05:29Z</time>
      </trkpt>
      <trkpt lat="39.303008" lon="-0.335795">
        <ele>-2.169</ele>
        <time>2019-06-15T09:05:31Z</time>
      </trkpt>
      <trkpt lat="39.302971" lon="-0.335842">
        <ele>-2.342</ele>
        <time>2019-06-15T09:05:32Z</time>
      </trkpt>
      <trkpt lat="39.302932" lon="-0.335893">
        <ele>-2.454</ele>
        <time>2019-06-15T09:05:33Z</time>
      </trkpt>
      <trkpt lat="39.302864" lon="-0.335967">
        <ele>-2.731</ele>
        <time>2019-06-15T09:05:35Z</time>
      </trkpt>
      <trkpt lat="39.302800" lon="-0.336039">
        <ele>-2.970</ele>
        <time>2019-06-15T09:05:37Z</time>
      </trkpt>
      <trkpt lat="39.302758" lon="-0.336084">
        <ele>-2.965</ele>
        <time>2019-06-15T09:05:38Z</time>
      </trkpt>
      <trkpt lat="39.302725" lon="-0.336124">
        <ele>-2.848</ele>
        <time>2019-06-15T09:05:39Z</time>
      </trkpt>
      <trkpt lat="39.302658" lon="-0.336199">
        <ele>-2.461</ele>
        <time>2019-06-15T09:05:41Z</time>
      </trkpt>
      <trkpt lat="39.302611" lon="-0.336284">
        <ele>-2.217</ele>
        <time>2019-06-15T09:05:43Z</time>
      </trkpt>
      <trkpt lat="39.302580" lon="-0.336395">
        <ele>-2.008</ele>
        <time>2019-06-15T09:05:45Z</time>
      </trkpt>
      <trkpt lat="39.302561" lon="-0.336452">
        <ele>-1.857</ele>
        <time>2019-06-15T09:05:46Z</time>
      </trkpt>
      <trkpt lat="39.302516" lon="-0.336544">
        <ele>-1.411</ele>
        <time>2019-06-15T09:05:48Z</time>
      </trkpt>
      <trkpt lat="39.302473" lon="-0.336649">
        <ele>-1.180</ele>
        <time>2019-06-15T09:05:50Z</time>
      </trkpt>
      <trkpt lat="39.302439" lon="-0.336745">
        <ele>-0.873</ele>
        <time>2019-06-15T09:05:52Z</time>
      </trkpt>
      <trkpt lat="39.302404" lon="-0.336840">
        <ele>-0.645</ele>
        <time>2019-06-15T09:05:54Z</time>
      </trkpt>
      <trkpt lat="39.302363" lon="-0.336935">
        <ele>-0.562</ele>
        <time>2019-06-15T09:05:56Z</time>
      </trkpt>
      <trkpt lat="39.302323" lon="-0.337026">
        <ele>-0.671</ele>
        <time>2019-06-15T09:05:58Z</time>
      </trkpt>
      <trkpt lat="39.302283" lon="-0.337113">
        <ele>-0.836</ele>
        <time>2019-06-15T09:06:00Z</time>
      </trkpt>
      <trkpt lat="39.302246" lon="-0.337202">
        <ele>-0.971</ele>
        <time>2019-06-15T09:06:02Z</time>
      </trkpt>
      <trkpt lat="39.302210" lon="-0.337293">
        <ele>-1.341</ele>
        <time>2019-06-15T09:06:04Z</time>
      </trkpt>
      <trkpt lat="39.302176" lon="-0.337384">
        <ele>-1.615</ele>
        <time>2019-06-15T09:06:06Z</time>
      </trkpt>
      <trkpt lat="39.302137" lon="-0.337477">
        <ele>-1.908</ele>
        <time>2019-06-15T09:06:08Z</time>
      </trkpt>
      <trkpt lat="39.302115" lon="-0.337528">
        <ele>-2.090</ele>
        <time>2019-06-15T09:06:09Z</time>
      </trkpt>
      <trkpt lat="39.302074" lon="-0.337629">
        <ele>-2.244</ele>
        <time>2019-06-15T09:06:11Z</time>
      </trkpt>
      <trkpt lat="39.302035" lon="-0.337730">
        <ele>-2.643</ele>
        <time>2019-06-15T09:06:13Z</time>
      </trkpt>
      <trkpt lat="39.301999" lon="-0.337832">
        <ele>-2.886</ele>
        <time>2019-06-15T09:06:15Z</time>
      </trkpt>
      <trkpt lat="39.301967" lon="-0.337930">
        <ele>-2.988</ele>
        <time>2019-06-15T09:06:17Z</time>
      </trkpt>
      <trkpt lat="39.301952" lon="-0.337997">
        <ele>-3.075</ele>
        <time>2019-06-15T09:06:18Z</time>
      </trkpt>
      <trkpt lat="39.301930" lon="-0.338048">
        <ele>-3.024</ele>
        <time>2019-06-15T09:06:19Z</time>
      </trkpt>
      <trkpt lat="39.301911" lon="-0.338107">
        <ele>-2.859</ele>
        <time>2019-06-15T09:06:20Z</time>
      </trkpt>
      <trkpt lat="39.301862" lon="-0.338211">
        <ele>-2.479</ele>
        <time>2019-06-15T09:06:22Z</time>
      </trkpt>
      <trkpt lat="39.301840" lon="-0.338264">
        <ele>-2.205</ele>
        <time>2019-06-15T09:06:23Z</time>
      </trkpt>
      <trkpt lat="39.301803" lon="-0.338355">
        <ele>-1.925</ele>
        <time>2019-06-15T09:06:25Z</time>
      </trkpt>
      <trkpt lat="39.301758" lon="-0.338450">
        <ele>-1.608</ele>
        <time>2019-06-15T09:06:27Z</time>
      </trkpt>
      <trkpt lat="39.301741" lon="-0.338505">
        <ele>-1.450</ele>
        <time>2019-06-15T09:06:28Z</time>
      </trkpt>
      <trkpt lat="39.301708" lon="-0.338605">
        <ele>-1.074</ele>
        <time>2019-06-15T09:06:30Z</time>
      </trkpt>
      <trkpt lat="39.301684" lon="-0.338660">
        <ele>-1.043</ele>
        <time>2019-06-15T09:06:31Z</time>
      </trkpt>
      <trkpt lat="39.301666" lon="-0.338720">
        <ele>-1.066</ele>
        <time>2019-06-15T09:06:32Z</time>
      </trkpt>
      <trkpt lat="39.301643" lon="-0.338782">
        <ele>-1.048</ele>
        <time>2019-06-15T09:06:33Z</time>
      </trkpt>
      <trkpt lat="39.301603" lon="-0.338872">
        <ele>-1.015</ele>
        <time>2019-06-15T09:06:35Z</time>
      </trkpt>
      <trkpt lat="39.301574" lon="-0.338980">
        <ele>-1.064</ele>
        <time>2019-06-15T09:06:37Z</time>
      </trkpt>
      <trkpt lat="39.301554" lon="-0.339039">
        <ele>-1.039</ele>
        <time>2019-06-15T09:06:38Z</time>
      </trkpt>
      <trkpt lat="39.301514" lon="-0.339139">
        <ele>-1.082</ele>
        <time>2019-06-15T09:06:40Z</time>
      </trkpt>
      <trkpt lat="39.301468" lon="-0.339235">
        <ele>-1.243</ele>
        <time>2019-06-15T09:06:42Z</time>
      </trkpt>
      <trkpt lat="39.301446" lon="-0.339286">
        <ele>-1.417</ele>
        <time>2019-06-15T09:06:43Z</time>
      </trkpt>
      <trkpt lat="39.301413" lon="-0.339382">
        <ele>-1.808</ele>
        <time>2019-06-15T09:06:45Z</time>
      </trkpt>
      <trkpt lat="39.301373" lon="-0.339480">
        <ele>-2.071</ele>
        <time>2019-06-15T09:06:47Z</time>
      </trkpt>
      <trkpt lat="39.301331" lon="-0.339577">
        <ele>-2.095</ele>
        <time>2019-06-15T09:06:49Z</time>
      </trkpt>
      <trkpt lat="39.301290" lon="-0.339673">
        <ele>-2.034</ele>
        <time>2019-06-15T09:06:51Z</time>
      </trkpt>
      <trkpt lat="39.301248" lon="-0.339769">
        <ele>-1.997</ele>
        <time>2019-06-15T09:06:53Z</time>
      </trkpt>
      <trkpt lat="39.301210" lon="-0.339860">
        <ele>-1.719</ele>
        <time>2019-06-15T09:06:55Z</time>
      </trkpt>
      <trkpt lat="39.301173" lon="-0.339959">
        <ele>-1.376</ele>
        <time>2019-06-15T09:06:57Z</time>
      </trkpt>
      <trkpt lat="39.301138" lon="-0.340059">
        <ele>-1.175</ele>
        <time>2019-06-15T09:06:59Z</time>
      </trkpt>
      <trkpt lat="39.301101" lon="-0.340157">
        <ele>-1.060</ele>
        <time>2019-06-15T09:07:01Z</time>
      </trkpt>
      <trkpt lat="39.301062" lon="-0.340256">
        <ele>-1.099</ele>
        <time>2019-06-15T09:07:03Z</time>
      </trkpt>
      <trkpt lat="39.301025" lon="-0.340353">
        <ele>-1.007</ele>
        <time>2019-06-15T09:07:05Z</time>
      </trkpt>
      <trkpt lat="39.300991" lon="-0.340451">
        <ele>-1.027</ele>
        <time>2019-06-15T09:07:07Z</time>
      </trkpt>
      <trkpt lat="39.300961" lon="-0.340549">
        <ele>-1.008</ele>
        <time>2019-06-15T09:07:09Z</time>
      </trkpt>
      <trkpt lat="39.300926" lon="-0.340644">
        <ele>-1.072</ele>
        <time>2019-06-15T09:07:11Z</time>
      </trkpt>
      <trkpt lat="39.300891" lon="-0.340743">
        <ele>-1.036</ele>
        <time>2019-06-15T09:07:13Z</time>
      </trkpt>
      <trkpt lat="39.300857" lon="-0.340846">
        <ele>-1.095</ele>
        <time>2019-06-15T09:07:15Z</time>
      </trkpt>
      <trkpt lat="39.300821" lon="-0.340947">
        <ele>-1.098</ele>
        <time>2019-06-15T09:07:17Z</time>
      </trkpt>
      <trkpt lat="39.300787" lon="-0.341050">
        <ele>-1.110</ele>
        <time>2019-06-15T09:07:19Z</time>
      </trkpt>
      <trkpt lat="39.300752" lon="-0.341150">
        <ele>-1.347</ele>
        <time>2019-06-15T09:07:21Z</time>
      </trkpt>
      <trkpt lat="39.300718" lon="-0.341252">
        <ele>-1.436</ele>
        <time>2019-06-15T09:07:23Z</time>
      </trkpt>
      <trkpt lat="39.300689" lon="-0.341352">
        <ele>-1.541</ele>
        <time>2019-06-15T09:07:25Z</time>
      </trkpt>
      <trkpt lat="39.300658" lon="-0.341451">
        <ele>-1.664</ele>
        <time>2019-06-15T09:07:27Z</time>
      </trkpt>
      <trkpt lat="39.300626" lon="-0.341551">
        <ele>-1.706</ele>
        <time>2019-06-15T09:07:29Z</time>
      </trkpt>
      <trkpt lat="39.300594" lon="-0.341652">
        <ele>-1.916</ele>
        <time>2019-06-15T09:07:31Z</time>
      </trkpt>
      <trkpt lat="39.300558" lon="-0.341753">
        <ele>-2.008</ele>
        <time>2019-06-15T09:07:33Z</time>
      </trkpt>
      <trkpt lat="39.300521" lon="-0.341855">
        <ele>-2.149</ele>
        <time>2019-06-15T09:07:35Z</time>
      </trkpt>
      <trkpt lat="39.300482" lon="-0.341954">
        <ele>-2.343</ele>
        <time>2019-06-15T09:07:37Z</time>
      </trkpt>
      <trkpt lat="39.300439" lon="-0.342048">
        <ele>-2.452</ele>
        <time>2019-06-15T09:07:39Z</time>
      </trkpt>
      <trkpt lat="39.300396" lon="-0.342143">
        <ele>-2.695</ele>
        <time>2019-06-15T09:07:41Z</time>
      </trkpt>
      <trkpt lat="39.300352" lon="-0.342235">
        <ele>-2.757</ele>
        <time>2019-06-15T09:07:43Z</time>
      </trkpt>
      <trkpt lat="39.300307" lon="-0.342333">
        <ele>-2.964</ele>
        <time>2019-06-15T09:07:45Z</time>
      </trkpt>
      <trkpt lat="39.300258" lon="-0.342425">
        <ele>-3.033</ele>
        <time>2019-06-15T09:07:47Z</time>
      </trkpt>
      <trkpt lat="39.300211" lon="-0.342507">
        <ele>-3.048</ele>
        <time>2019-06-15T09:07:49Z</time>
      </trkpt>
      <trkpt lat="39.300172" lon="-0.342591">
        <ele>-3.059</ele>
        <time>2019-06-15T09:07:51Z</time>
      </trkpt>
      <trkpt lat="39.300126" lon="-0.342680">
        <ele>-3.003</ele>
        <time>2019-06-15T09:07:53Z</time>
      </trkpt>
      <trkpt lat="39.300070" lon="-0.342758">
        <ele>-3.023</ele>
        <time>2019-06-15T09:07:55Z</time>
      </trkpt>
      <trkpt lat="39.300016" lon="-0.342827">
        <ele>-3.008</ele>
        <time>2019-06-15T09:07:57Z</time>
      </trkpt>
      <trkpt lat="39.299962" lon="-0.342911">
        <ele>-3.078</ele>
        <time>2019-06-15T09:07:59Z</time>
      </trkpt>
      <trkpt lat="39.299905" lon="-0.342989">
        <ele>-3.062</ele>
        <time>2019-06-15T09:08:01Z</time>
      </trkpt>
      <trkpt lat="39.299843" lon="-0.343063">
        <ele>-3.031</ele>
        <time>2019-06-15T09:08:03Z</time>
      </trkpt>
      <trkpt lat="39.299780" lon="-0.343138">
        <ele>-2.864</ele>
        <time>2019-06-15T09:08:05Z</time>
      </trkpt>
      <trkpt lat="39.299723" lon="-0.343214">
        <ele>-2.456</ele>
        <time>2019-06-15T09:08:07Z</time>
      </trkpt>
      <trkpt lat="39.299663" lon="-0.343288">
        <ele>-2.283</ele>
        <time>2019-06-15T09:08:09Z</time>
      </trkpt>
      <trkpt lat="39.299600" lon="-0.343361">
        <ele>-2.052</ele>
        <time>2019-06-15T09:08:11Z</time>
      </trkpt>
      <trkpt lat="39.299537" lon="-0.343435">
        <ele>-1.857</ele>
        <time>2019-06-15T09:08:13Z</time>
      </trkpt>
      <trkpt lat="39.299474" lon="-0.343508">
        <ele>-1.456</ele>
        <time>2019-06-15T09:08:15Z</time>
      </trkpt>
      <trkpt lat="39.299414" lon="-0.343580">
        <ele>-1.159</ele>
        <time>2019-06-15T09:08:17Z</time>
      </trkpt>
      <trkpt lat="39.299353" lon="-0.343651">
        <ele>-0.914</ele>
        <time>2019-06-15T09:08:19Z</time>
      </trkpt>
      <trkpt lat="39.299286" lon="-0.343718">
        <ele>-0.808</ele>
        <time>2019-06-15T09:08:21Z</time>
      </trkpt>
      <trkpt lat="39.299217" lon="-0.343780">
        <ele>-0.938</ele>
        <time>2019-06-15T09:08:23Z</time>
      </trkpt>
      <trkpt lat="39.299142" lon="-0.343832">
        <ele>-1.052</ele>
        <time>2019-06-15T09:08:25Z</time>
      </trkpt>
      <trkpt lat="39.299062" lon="-0.343878">
        <ele>-1.051</ele>
        <time>2019-06-15T09:08:27Z</time>
      </trkpt>
      <trkpt lat="39.298978" lon="-0.343914">
        <ele>-1.144</ele>
        <time>2019-06-15T09:08:29Z</time>
      </trkpt>
      <trkpt lat="39.298891" lon="-0.343943">
        <ele>-1.256</ele>
        <time>2019-06-15T09:08:31Z</time>
      </trkpt>
      <trkpt lat="39.298811" lon="-0.343976">
        <ele>-1.633</ele>
        <time>2019-06-15T09:08:33Z</time>
      </trkpt>
      <trkpt lat="39.298732" lon="-0.343996">
        <ele>-1.932</ele>
        <time>2019-06-15T09:08:35Z</time>
      </trkpt>
      <trkpt lat="39.298687" lon="-0.344006">
        <ele>-2.137</ele>
        <time>2019-06-15T09:08:36Z</time>
      </trkpt>
      <trkpt lat="39.298639" lon="-0.344022">
        <ele>-2.484</ele>
        <time>2019-06-15T09:08:37Z</time>
      </trkpt>
      <trkpt lat="39.298591" lon="-0.344032">
        <ele>-2.507</ele>
        <time>2019-06-15T09:08:38Z</time>
      </trkpt>
      <trkpt lat="39.298539" lon="-0.344035">
        <ele>-2.517</ele>
        <time>2019-06-15T09:08:39Z</time>
      </trkpt>
      <trkpt lat="39.298488" lon="-0.344051">
        <ele>-2.608</ele>
        <time>2019-06-15T09:08:40Z</time>
      </trkpt>
      <trkpt lat="39.298443" lon="-0.344078">
        <ele>-2.751</ele>
        <time>2019-06-15T09:08:41Z</time>
      </trkpt>
      <trkpt lat="39.298393" lon="-0.344083">
        <ele>-2.795</ele>
        <time>2019-06-15T09:08:42Z</time>
      </trkpt>
      <trkpt lat="39.298342" lon="-0.344092">
        <ele>-2.784</ele>
        <time>2019-06-15T09:08:43Z</time>
      </trkpt>
      <trkpt lat="39.298302" lon="-0.344124">
        <ele>-2.827</ele>
        <time>2019-06-15T09:08:44Z</time>
      </trkpt>
      <trkpt lat="39.298250" lon="-0.344138">
        <ele>-2.699</ele>
        <time>2019-06-15T09:08:45Z</time>
      </trkpt>
      <trkpt lat="39.298195" lon="-0.344157">
        <ele>-2.526</ele>
        <time>2019-06-15T09:08:46Z</time>
      </trkpt>
      <trkpt lat="39.298138" lon="-0.344170">
        <ele>-2.385</ele>
        <time>2019-06-15T09:08:47Z</time>
      </trkpt>
      <trkpt lat="39.298089" lon="-0.344180">
        <ele>-2.270</ele>
        <time>2019-06-15T09:08:48Z</time>
      </trkpt>
      <trkpt lat="39.298043" lon="-0.344195">
        <ele>-2.167</ele>
        <time>2019-06-15T09:08:49Z</time>
      </trkpt>
      <trkpt lat="39.297996" lon="-0.344208">
        <ele>-2.181</ele>
        <time>2019-06-15T09:08:50Z</time>
      </trkpt>
      <trkpt lat="39.297906" lon="-0.344227">
        <ele>-2.219</ele>
        <time>2019-06-15T09:08:52Z</time>
      </trkpt>
      <trkpt lat="39.297857" lon="-0.344226">
        <ele>-2.208</ele>
        <time>2019-06-15T09:08:53Z</time>
      </trkpt>
      <trkpt lat="39.297809" lon="-0.344230">
        <ele>-2.219</ele>
        <time>2019-06-15T09:08:54Z</time>
      </trkpt>
      <trkpt lat="39.297757" lon="-0.344238">
        <ele>-2.233</ele>
        <time>2019-06-15T09:08:55Z</time>
      </trkpt>
      <trkpt lat="39.297707" lon="-0.344243">
        <ele>-2.242</ele>
        <time>2019-06-15T09:08:56Z</time>
      </trkpt>
      <trkpt lat="39.297662" lon="-0.344256">
        <ele>-2.265</ele>
        <time>2019-06-15T09:08:57Z</time>
      </trkpt>
      <trkpt lat="39.297616" lon="-0.344262">
        <ele>-2.157</ele>
        <time>2019-06-15T09:08:58Z</time>
      </trkpt>
      <trkpt lat="39.297571" lon="-0.344273">
        <ele>-2.164</ele>
        <time>2019-06-15T09:08:59Z</time>
      </trkpt>
      <trkpt lat="39.297524" lon="-0.344286">
        <ele>-2.043</ele>
        <time>2019-06-15T09:09:00Z</time>
      </trkpt>
      <trkpt lat="39.297471" lon="-0.344296">
        <ele>-1.988</ele>
        <time>2019-06-15T09:09:01Z</time>
      </trkpt>
      <trkpt lat="39.297421" lon="-0.344306">
        <ele>-1.719</ele>
        <time>2019-06-15T09:09:02Z</time>
      </trkpt>
      <trkpt lat="39.297371" lon="-0.344309">
        <ele>-1.509</ele>
        <time>2019-06-15T09:09:03Z</time>
      </trkpt>
      <trkpt lat="39.297319" lon="-0.344320">
        <ele>-1.419</ele>
        <time>2019-06-15T09:09:04Z</time>
      </trkpt>
      <trkpt lat="39.297268" lon="-0.344332">
        <ele>-1.308</ele>
        <time>2019-06-15T09:09:05Z</time>
      </trkpt>
      <trkpt lat="39.297216" lon="-0.344363">
        <ele>-1.494</ele>
        <time>2019-06-15T09:09:06Z</time>
      </trkpt>
      <trkpt lat="39.297165" lon="-0.344392">
        <ele>-1.588</ele>
        <time>2019-06-15T09:09:07Z</time>
      </trkpt>
      <trkpt lat="39.297118" lon="-0.344399">
        <ele>-1.427</ele>
        <time>2019-06-15T09:09:08Z</time>
      </trkpt>
      <trkpt lat="39.297068" lon="-0.344410">
        <ele>-1.340</ele>
        <time>2019-06-15T09:09:09Z</time>
      </trkpt>
      <trkpt lat="39.297018" lon="-0.344417">
        <ele>-1.182</ele>
        <time>2019-06-15T09:09:10Z</time>
      </trkpt>
      <trkpt lat="39.296916" lon="-0.344430">
        <ele>-0.939</ele>
        <time>2019-06-15T09:09:12Z</time>
      </trkpt>
      <trkpt lat="39.296859" lon="-0.344453">
        <ele>-1.088</ele>
        <time>2019-06-15T09:09:13Z</time>
      </trkpt>
      <trkpt lat="39.296812" lon="-0.344465">
        <ele>-1.183</ele>
        <time>2019-06-15T09:09:14Z</time>
      </trkpt>
      <trkpt lat="39.296767" lon="-0.344477">
        <ele>-1.187</ele>
        <time>2019-06-15T09:09:15Z</time>
      </trkpt>
      <trkpt lat="39.296680" lon="-0.344484">
        <ele>-1.042</ele>
        <time>2019-06-15T09:09:17Z</time>
      </trkpt>
      <trkpt lat="39.296587" lon="-0.344493">
        <ele>-1.226</ele>
        <time>2019-06-15T09:09:19Z</time>
      </trkpt>
      <trkpt lat="39.296540" lon="-0.344505">
        <ele>-1.408</ele>
        <time>2019-06-15T09:09:20Z</time>
      </trkpt>
      <trkpt lat="39.296466" lon="-0.344543">
        <ele>-1.571</ele>
        <time>2019-06-15T09:09:22Z</time>
      </trkpt>
      <trkpt lat="39.296337" lon="-0.344567">
        <ele>-1.875</ele>
        <time>2019-06-15T09:09:25Z</time>
      </trkpt>
      <trkpt lat="39.296236" lon="-0.344585">
        <ele>-2.374</ele>
        <time>2019-06-15T09:09:27Z</time>
      </trkpt>
      <trkpt lat="39.296153" lon="-0.344598">
        <ele>-2.817</ele>
        <time>2019-06-15T09:09:29Z</time>
      </trkpt>
      <trkpt lat="39.296204" lon="-0.344608">
        <ele>-2.599</ele>
        <time>2019-06-15T09:09:42Z</time>
      </trkpt>
      <trkpt lat="39.296262" lon="-0.344582">
        <ele>-2.296</ele>
        <time>2019-06-15T09:09:44Z</time>
      </trkpt>
      <trkpt lat="39.296303" lon="-0.344550">
        <ele>-2.035</ele>
        <time>2019-06-15T09:09:45Z</time>
      </trkpt>
      <trkpt lat="39.296380" lon="-0.344516">
        <ele>-1.850</ele>
        <time>2019-06-15T09:09:47Z</time>
      </trkpt>
      <trkpt lat="39.296448" lon="-0.344495">
        <ele>-1.643</ele>
        <time>2019-06-15T09:09:49Z</time>
      </trkpt>
      <trkpt lat="39.296519" lon="-0.344476">
        <ele>-1.564</ele>
        <time>2019-06-15T09:09:51Z</time>
      </trkpt>
      <trkpt lat="39.296576" lon="-0.344438">
        <ele>-1.310</ele>
        <time>2019-06-15T09:09:53Z</time>
      </trkpt>
      <trkpt lat="39.296612" lon="-0.344320">
        <ele>-0.708</ele>
        <time>2019-06-15T09:09:55Z</time>
      </trkpt>
      <trkpt lat="39.296596" lon="-0.344264">
        <ele>-0.657</ele>
        <time>2019-06-15T09:09:56Z</time>
      </trkpt>
      <trkpt lat="39.296577" lon="-0.344209">
        <ele>-0.581</ele>
        <time>2019-06-15T09:09:57Z</time>
      </trkpt>
      <trkpt lat="39.296556" lon="-0.344155">
        <ele>-0.480</ele>
        <time>2019-06-15T09:09:58Z</time>
      </trkpt>
      <trkpt lat="39.296535" lon="-0.344097">
        <ele>-0.423</ele>
        <time>2019-06-15T09:09:59Z</time>
      </trkpt>
      <trkpt lat="39.296486" lon="-0.344034">
        <ele>-0.375</ele>
        <time>2019-06-15T09:10:00Z</time>
      </trkpt>
      <trkpt lat="39.296474" lon="-0.343971">
        <ele>-0.232</ele>
        <time>2019-06-15T09:10:01Z</time>
      </trkpt>
      <trkpt lat="39.296461" lon="-0.343908">
        <ele>-0.121</ele>
        <time>2019-06-15T09:10:02Z</time>
      </trkpt>
      <trkpt lat="39.296444" lon="-0.343847">
        <ele>-0.016</ele>
        <time>2019-06-15T09:10:03Z</time>
      </trkpt>
      <trkpt lat="39.296431" lon="-0.343786">
        <ele>-0.142</ele>
        <time>2019-06-15T09:10:04Z</time>
      </trkpt>
      <trkpt lat="39.296424" lon="-0.343725">
        <ele>-0.122</ele>
        <time>2019-06-15T09:10:05Z</time>
      </trkpt>
      <trkpt lat="39.296405" lon="-0.343664">
        <ele>-0.014</ele>
        <time>2019-06-15T09:10:06Z</time>
      </trkpt>
      <trkpt lat="39.296391" lon="-0.343608">
        <ele>-0.008</ele>
        <time>2019-06-15T09:10:07Z</time>
      </trkpt>
      <trkpt lat="39.296379" lon="-0.343538">
        <ele>-0.347</ele>
        <time>2019-06-15T09:10:08Z</time>
      </trkpt>
      <trkpt lat="39.296369" lon="-0.343466">
        <ele>-0.681</ele>
        <time>2019-06-15T09:10:09Z</time>
      </trkpt>
      <trkpt lat="39.296353" lon="-0.343400">
        <ele>-0.890</ele>
        <time>2019-06-15T09:10:10Z</time>
      </trkpt>
      <trkpt lat="39.296339" lon="-0.343332">
        <ele>-1.043</ele>
        <time>2019-06-15T09:10:11Z</time>
      </trkpt>
      <trkpt lat="39.296324" lon="-0.343257">
        <ele>-1.345</ele>
        <time>2019-06-15T09:10:12Z</time>
      </trkpt>
      <trkpt lat="39.296308" lon="-0.343197">
        <ele>-1.562</ele>
        <time>2019-06-15T09:10:13Z</time>
      </trkpt>
      <trkpt lat="39.296297" lon="-0.343131">
        <ele>-1.781</ele>
        <time>2019-06-15T09:10:14Z</time>
      </trkpt>
      <trkpt lat="39.296289" lon="-0.343062">
        <ele>-2.066</ele>
        <time>2019-06-15T09:10:15Z</time>
      </trkpt>
      <trkpt lat="39.296282" lon="-0.342990">
        <ele>-2.061</ele>
        <time>2019-06-15T09:10:16Z</time>
      </trkpt>
      <trkpt lat="39.296276" lon="-0.342924">
        <ele>-2.021</ele>
        <time>2019-06-15T09:10:17Z</time>
      </trkpt>
      <trkpt lat="39.296274" lon="-0.342854">
        <ele>-2.013</ele>
        <time>2019-06-15T09:10:18Z</time>
      </trkpt>
      <trkpt lat="39.296266" lon="-0.342781">
        <ele>-2.008</ele>
        <time>2019-06-15T09:10:19Z</time>
      </trkpt>
      <trkpt lat="39.296258" lon="-0.342709">
        <ele>-2.169</ele>
        <time>2019-06-15T09:10:20Z</time>
      </trkpt>
      <trkpt lat="39.296251" lon="-0.342640">
        <ele>-2.223</ele>
        <time>2019-06-15T09:10:21Z</time>
      </trkpt>
      <trkpt lat="39.296244" lon="-0.342570">
        <ele>-2.412</ele>
        <time>2019-06-15T09:10:22Z</time>
      </trkpt>
      <trkpt lat="39.296242" lon="-0.342507">
        <ele>-2.555</ele>
        <time>2019-06-15T09:10:23Z</time>
      </trkpt>
      <trkpt lat="39.296239" lon="-0.342429">
        <ele>-2.287</ele>
        <time>2019-06-15T09:10:24Z</time>
      </trkpt>
      <trkpt lat="39.296225" lon="-0.342363">
        <ele>-1.984</ele>
        <time>2019-06-15T09:10:25Z</time>
      </trkpt>
      <trkpt lat="39.296220" lon="-0.342298">
        <ele>-1.763</ele>
        <time>2019-06-15T09:10:26Z</time>
      </trkpt>
      <trkpt lat="39.296212" lon="-0.342180">
        <ele>-1.488</ele>
        <time>2019-06-15T09:10:28Z</time>
      </trkpt>
      <trkpt lat="39.296192" lon="-0.342078">
        <ele>-1.354</ele>
        <time>2019-06-15T09:10:30Z</time>
      </trkpt>
      <trkpt lat="39.296182" lon="-0.342009">
        <ele>-1.356</ele>
        <time>2019-06-15T09:10:31Z</time>
      </trkpt>
      <trkpt lat="39.296165" lon="-0.341945">
        <ele>-1.211</ele>
        <time>2019-06-15T09:10:32Z</time>
      </trkpt>
      <trkpt lat="39.296154" lon="-0.341879">
        <ele>-1.408</ele>
        <time>2019-06-15T09:10:33Z</time>
      </trkpt>
      <trkpt lat="39.296146" lon="-0.341818">
        <ele>-1.568</ele>
        <time>2019-06-15T09:10:34Z</time>
      </trkpt>
      <trkpt lat="39.296123" lon="-0.341766">
        <ele>-1.782</ele>
        <time>2019-06-15T09:10:35Z</time>
      </trkpt>
      <trkpt lat="39.296091" lon="-0.341710">
        <ele>-1.811</ele>
        <time>2019-06-15T09:10:36Z</time>
      </trkpt>
      <trkpt lat="39.296077" lon="-0.341647">
        <ele>-1.914</ele>
        <time>2019-06-15T09:10:37Z</time>
      </trkpt>
      <trkpt lat="39.296058" lon="-0.341589">
        <ele>-1.916</ele>
        <time>2019-06-15T09:10:38Z</time>
      </trkpt>
      <trkpt lat="39.296038" lon="-0.341530">
        <ele>-1.943</ele>
        <time>2019-06-15T09:10:39Z</time>
      </trkpt>
      <trkpt lat="39.296017" lon="-0.341472">
        <ele>-1.972</ele>
        <time>2019-06-15T09:10:40Z</time>
      </trkpt>
      <trkpt lat="39.295993" lon="-0.341410">
        <ele>-2.067</ele>
        <time>2019-06-15T09:10:41Z</time>
      </trkpt>
      <trkpt lat="39.295971" lon="-0.341345">
        <ele>-2.134</ele>
        <time>2019-06-15T09:10:42Z</time>
      </trkpt>
      <trkpt lat="39.295946" lon="-0.341286">
        <ele>-2.255</ele>
        <time>2019-06-15T09:10:43Z</time>
      </trkpt>
      <trkpt lat="39.295919" lon="-0.341225">
        <ele>-2.410</ele>
        <time>2019-06-15T09:10:44Z</time>
      </trkpt>
      <trkpt lat="39.295892" lon="-0.341159">
        <ele>-2.708</ele>
        <time>2019-06-15T09:10:45Z</time>
      </trkpt>
      <trkpt lat="39.295866" lon="-0.341096">
        <ele>-2.986</ele>
        <time>2019-06-15T09:10:46Z</time>
      </trkpt>
      <trkpt lat="39.295841" lon="-0.341032">
        <ele>-3.020</ele>
        <time>2019-06-15T09:10:47Z</time>
      </trkpt>
      <trkpt lat="39.295814" lon="-0.340959">
        <ele>-3.079</ele>
        <time>2019-06-15T09:10:48Z</time>
      </trkpt>
      <trkpt lat="39.295787" lon="-0.340906">
        <ele>-3.032</ele>
        <time>2019-06-15T09:10:49Z</time>
      </trkpt>
      <trkpt lat="39.295765" lon="-0.340844">
        <ele>-3.014</ele>
        <time>2019-06-15T09:10:50Z</time>
      </trkpt>
      <trkpt lat="39.295743" lon="-0.340786">
        <ele>-2.851</ele>
        <time>2019-06-15T09:10:51Z</time>
      </trkpt>
      <trkpt lat="39.295695" lon="-0.340682">
        <ele>-2.580</ele>
        <time>2019-06-15T09:10:53Z</time>
      </trkpt>
      <trkpt lat="39.295667" lon="-0.340632">
        <ele>-2.395</ele>
        <time>2019-06-15T09:10:54Z</time>
      </trkpt>
      <trkpt lat="39.295642" lon="-0.340577">
        <ele>-2.137</ele>
        <time>2019-06-15T09:10:55Z</time>
      </trkpt>
      <trkpt lat="39.295616" lon="-0.340521">
        <ele>-2.049</ele>
        <time>2019-06-15T09:10:56Z</time>
      </trkpt>
      <trkpt lat="39.295592" lon="-0.340461">
        <ele>-2.013</ele>
        <time>2019-06-15T09:10:57Z</time>
      </trkpt>
      <trkpt lat="39.295564" lon="-0.340405">
        <ele>-2.008</ele>
        <time>2019-06-15T09:10:58Z</time>
      </trkpt>
      <trkpt lat="39.295539" lon="-0.340343">
        <ele>-2.066</ele>
        <time>2019-06-15T09:10:59Z</time>
      </trkpt>
      <trkpt lat="39.295515" lon="-0.340290">
        <ele>-2.010</ele>
        <time>2019-06-15T09:11:00Z</time>
      </trkpt>
      <trkpt lat="39.295485" lon="-0.340230">
        <ele>-2.039</ele>
        <time>2019-06-15T09:11:01Z</time>
      </trkpt>
      <trkpt lat="39.295460" lon="-0.340167">
        <ele>-2.032</ele>
        <time>2019-06-15T09:11:02Z</time>
      </trkpt>
      <trkpt lat="39.295432" lon="-0.340108">
        <ele>-2.024</ele>
        <time>2019-06-15T09:11:03Z</time>
      </trkpt>
      <trkpt lat="39.295381" lon="-0.340007">
        <ele>-2.011</ele>
        <time>2019-06-15T09:11:05Z</time>
      </trkpt>
      <trkpt lat="39.295363" lon="-0.339940">
        <ele>-1.940</ele>
        <time>2019-06-15T09:11:06Z</time>
      </trkpt>
      <trkpt lat="39.295347" lon="-0.339825">
        <ele>-1.545</ele>
        <time>2019-06-15T09:11:08Z</time>
      </trkpt>
      <trkpt lat="39.295367" lon="-0.339763">
        <ele>-1.437</ele>
        <time>2019-06-15T09:11:09Z</time>
      </trkpt>
      <trkpt lat="39.295401" lon="-0.339702">
        <ele>-1.449</ele>
        <time>2019-06-15T09:11:10Z</time>
      </trkpt>
      <trkpt lat="39.295435" lon="-0.339637">
        <ele>-1.413</ele>
        <time>2019-06-15T09:11:11Z</time>
      </trkpt>
      <trkpt lat="39.295481" lon="-0.339582">
        <ele>-1.408</ele>
        <time>2019-06-15T09:11:12Z</time>
      </trkpt>
      <trkpt lat="39.295513" lon="-0.339521">
        <ele>-1.296</ele>
        <time>2019-06-15T09:11:13Z</time>
      </trkpt>
      <trkpt lat="39.295541" lon="-0.339465">
        <ele>-1.180</ele>
        <time>2019-06-15T09:11:14Z</time>
      </trkpt>
      <trkpt lat="39.295574" lon="-0.339413">
        <ele>-1.039</ele>
        <time>2019-06-15T09:11:15Z</time>
      </trkpt>
      <trkpt lat="39.295600" lon="-0.339345">
        <ele>-0.822</ele>
        <time>2019-06-15T09:11:16Z</time>
      </trkpt>
      <trkpt lat="39.295614" lon="-0.339264">
        <ele>-0.624</ele>
        <time>2019-06-15T09:11:17Z</time>
      </trkpt>
      <trkpt lat="39.295618" lon="-0.339187">
        <ele>-0.321</ele>
        <time>2019-06-15T09:11:18Z</time>
      </trkpt>
      <trkpt lat="39.295605" lon="-0.339116">
        <ele>-0.160</ele>
        <time>2019-06-15T09:11:19Z</time>
      </trkpt>
      <trkpt lat="39.295589" lon="-0.339055">
        <ele>-0.195</ele>
        <time>2019-06-15T09:11:20Z</time>
      </trkpt>
      <trkpt lat="39.295559" lon="-0.338987">
        <ele>-0.054</ele>
        <time>2019-06-15T09:11:21Z</time>
      </trkpt>
      <trkpt lat="39.295527" lon="-0.338924">
        <ele>-0.156</ele>
        <time>2019-06-15T09:11:22Z</time>
      </trkpt>
      <trkpt lat="39.295500" lon="-0.338869">
        <ele>-0.311</ele>
        <time>2019-06-15T09:11:23Z</time>
      </trkpt>
      <trkpt lat="39.295472" lon="-0.338795">
        <ele>-0.608</ele>
        <time>2019-06-15T09:11:24Z</time>
      </trkpt>
      <trkpt lat="39.295451" lon="-0.338711">
        <ele>-1.098</ele>
        <time>2019-06-15T09:11:25Z</time>
      </trkpt>
      <trkpt lat="39.295426" lon="-0.338653">
        <ele>-1.332</ele>
        <time>2019-06-15T09:11:26Z</time>
      </trkpt>
      <trkpt lat="39.295408" lon="-0.338582">
        <ele>-1.621</ele>
        <time>2019-06-15T09:11:27Z</time>
      </trkpt>
      <trkpt lat="39.295383" lon="-0.338511">
        <ele>-2.044</ele>
        <time>2019-06-15T09:11:28Z</time>
      </trkpt>
      <trkpt lat="39.295357" lon="-0.338447">
        <ele>-2.396</ele>
        <time>2019-06-15T09:11:29Z</time>
      </trkpt>
      <trkpt lat="39.295338" lon="-0.338381">
        <ele>-2.683</ele>
        <time>2019-06-15T09:11:30Z</time>
      </trkpt>
      <trkpt lat="39.295312" lon="-0.338297">
        <ele>-2.952</ele>
        <time>2019-06-15T09:11:31Z</time>
      </trkpt>
      <trkpt lat="39.295284" lon="-0.338215">
        <ele>-3.077</ele>
        <time>2019-06-15T09:11:32Z</time>
      </trkpt>
      <trkpt lat="39.295257" lon="-0.338156">
        <ele>-3.047</ele>
        <time>2019-06-15T09:11:33Z</time>
      </trkpt>
      <trkpt lat="39.295226" lon="-0.338085">
        <ele>-3.029</ele>
        <time>2019-06-15T09:11:34Z</time>
      </trkpt>
      <trkpt lat="39.295200" lon="-0.338011">
        <ele>-3.021</ele>
        <time>2019-06-15T09:11:35Z</time>
      </trkpt>
      <trkpt lat="39.295175" lon="-0.337938">
        <ele>-2.808</ele>
        <time>2019-06-15T09:11:36Z</time>
      </trkpt>
      <trkpt lat="39.295148" lon="-0.337859">
        <ele>-2.787</ele>
        <time>2019-06-15T09:11:37Z</time>
      </trkpt>
      <trkpt lat="39.295131" lon="-0.337793">
        <ele>-2.531</ele>
        <time>2019-06-15T09:11:38Z</time>
      </trkpt>
      <trkpt lat="39.295097" lon="-0.337724">
        <ele>-2.250</ele>
        <time>2019-06-15T09:11:39Z</time>
      </trkpt>
      <trkpt lat="39.295082" lon="-0.337656">
        <ele>-1.913</ele>
        <time>2019-06-15T09:11:40Z</time>
      </trkpt>
      <trkpt lat="39.295053" lon="-0.337585">
        <ele>-1.555</ele>
        <time>2019-06-15T09:11:41Z</time>
      </trkpt>
      <trkpt lat="39.295018" lon="-0.337520">
        <ele>-1.122</ele>
        <time>2019-06-15T09:11:42Z</time>
      </trkpt>
      <trkpt lat="39.294994" lon="-0.337458">
        <ele>-0.831</ele>
        <time>2019-06-15T09:11:43Z</time>
      </trkpt>
      <trkpt lat="39.294970" lon="-0.337384">
        <ele>-0.586</ele>
        <time>2019-06-15T09:11:44Z</time>
      </trkpt>
      <trkpt lat="39.294940" lon="-0.337312">
        <ele>-0.379</ele>
        <time>2019-06-15T09:11:45Z</time>
      </trkpt>
      <trkpt lat="39.294909" lon="-0.337238">
        <ele>-0.005</ele>
        <time>2019-06-15T09:11:46Z</time>
      </trkpt>
      <trkpt lat="39.294881" lon="-0.337165">
        <ele>0.225</ele>
        <time>2019-06-15T09:11:47Z</time>
      </trkpt>
      <trkpt lat="39.294860" lon="-0.337100">
        <ele>0.408</ele>
        <time>2019-06-15T09:11:48Z</time>
      </trkpt>
      <trkpt lat="39.294834" lon="-0.337022">
        <ele>0.750</ele>
        <time>2019-06-15T09:11:49Z</time>
      </trkpt>
      <trkpt lat="39.294807" lon="-0.336952">
        <ele>1.074</ele>
        <time>2019-06-15T09:11:50Z</time>
      </trkpt>
      <trkpt lat="39.294788" lon="-0.336865">
        <ele>1.323</ele>
        <time>2019-06-15T09:11:51Z</time>
      </trkpt>
      <trkpt lat="39.294770" lon="-0.336804">
        <ele>1.596</ele>
        <time>2019-06-15T09:11:52Z</time>
      </trkpt>
      <trkpt lat="39.294745" lon="-0.336729">
        <ele>1.818</ele>
        <time>2019-06-15T09:11:53Z</time>
      </trkpt>
      <trkpt lat="39.294719" lon="-0.336655">
        <ele>2.095</ele>
        <time>2019-06-15T09:11:54Z</time>
      </trkpt>
      <trkpt lat="39.294695" lon="-0.336578">
        <ele>1.814</ele>
        <time>2019-06-15T09:11:55Z</time>
      </trkpt>
      <trkpt lat="39.294667" lon="-0.336505">
        <ele>1.779</ele>
        <time>2019-06-15T09:11:56Z</time>
      </trkpt>
      <trkpt lat="39.294643" lon="-0.336433">
        <ele>1.798</ele>
        <time>2019-06-15T09:11:57Z</time>
      </trkpt>
      <trkpt lat="39.294617" lon="-0.336376">
        <ele>1.615</ele>
        <time>2019-06-15T09:11:58Z</time>
      </trkpt>
      <trkpt lat="39.294595" lon="-0.336306">
        <ele>1.426</ele>
        <time>2019-06-15T09:11:59Z</time>
      </trkpt>
      <trkpt lat="39.294566" lon="-0.336235">
        <ele>1.208</ele>
        <time>2019-06-15T09:12:00Z</time>
      </trkpt>
      <trkpt lat="39.294552" lon="-0.336154">
        <ele>1.122</ele>
        <time>2019-06-15T09:12:01Z</time>
      </trkpt>
      <trkpt lat="39.294529" lon="-0.336075">
        <ele>1.086</ele>
        <time>2019-06-15T09:12:02Z</time>
      </trkpt>
      <trkpt lat="39.294497" lon="-0.335995">
        <ele>0.995</ele>
        <time>2019-06-15T09:12:03Z</time>
      </trkpt>
      <trkpt lat="39.294465" lon="-0.335920">
        <ele>0.968</ele>
        <time>2019-06-15T09:12:04Z</time>
      </trkpt>
      <trkpt lat="39.294440" lon="-0.335832">
        <ele>1.040</ele>
        <time>2019-06-15T09:12:05Z</time>
      </trkpt>
      <trkpt lat="39.294414" lon="-0.335758">
        <ele>1.147</ele>
        <time>2019-06-15T09:12:06Z</time>
      </trkpt>
      <trkpt lat="39.294356" lon="-0.335725">
        <ele>1.276</ele>
        <time>2019-06-15T09:12:07Z</time>
      </trkpt>
      <trkpt lat="39.294310" lon="-0.335689">
        <ele>1.261</ele>
        <time>2019-06-15T09:12:08Z</time>
      </trkpt>
      <trkpt lat="39.294261" lon="-0.335659">
        <ele>1.289</ele>
        <time>2019-06-15T09:12:09Z</time>
      </trkpt>
      <trkpt lat="39.294207" lon="-0.335627">
        <ele>1.206</ele>
        <time>2019-06-15T09:12:10Z</time>
      </trkpt>
      <trkpt lat="39.294160" lon="-0.335616">
        <ele>1.226</ele>
        <time>2019-06-15T09:12:11Z</time>
      </trkpt>
      <trkpt lat="39.294110" lon="-0.335588">
        <ele>1.108</ele>
        <time>2019-06-15T09:12:12Z</time>
      </trkpt>
      <trkpt lat="39.294066" lon="-0.335561">
        <ele>1.021</ele>
        <time>2019-06-15T09:12:13Z</time>
      </trkpt>
      <trkpt lat="39.294018" lon="-0.335533">
        <ele>1.025</ele>
        <time>2019-06-15T09:12:14Z</time>
      </trkpt>
      <trkpt lat="39.293967" lon="-0.335495">
        <ele>0.864</ele>
        <time>2019-06-15T09:12:15Z</time>
      </trkpt>
      <trkpt lat="39.293918" lon="-0.335461">
        <ele>0.797</ele>
        <time>2019-06-15T09:12:16Z</time>
      </trkpt>
      <trkpt lat="39.293865" lon="-0.335430">
        <ele>0.419</ele>
        <time>2019-06-15T09:12:17Z</time>
      </trkpt>
      <trkpt lat="39.293819" lon="-0.335407">
        <ele>-0.066</ele>
        <time>2019-06-15T09:12:18Z</time>
      </trkpt>
      <trkpt lat="39.293775" lon="-0.335384">
        <ele>-0.495</ele>
        <time>2019-06-15T09:12:19Z</time>
      </trkpt>
      <trkpt lat="39.293729" lon="-0.335340">
        <ele>-0.990</ele>
        <time>2019-06-15T09:12:20Z</time>
      </trkpt>
      <trkpt lat="39.293692" lon="-0.335293">
        <ele>-1.425</ele>
        <time>2019-06-15T09:12:21Z</time>
      </trkpt>
      <trkpt lat="39.293657" lon="-0.335254">
        <ele>-1.726</ele>
        <time>2019-06-15T09:12:22Z</time>
      </trkpt>
      <trkpt lat="39.293623" lon="-0.335187">
        <ele>-1.908</ele>
        <time>2019-06-15T09:12:23Z</time>
      </trkpt>
      <trkpt lat="39.293591" lon="-0.335127">
        <ele>-2.008</ele>
        <time>2019-06-15T09:12:24Z</time>
      </trkpt>
      <trkpt lat="39.293577" lon="-0.335067">
        <ele>-2.175</ele>
        <time>2019-06-15T09:12:25Z</time>
      </trkpt>
      <trkpt lat="39.293549" lon="-0.335002">
        <ele>-2.219</ele>
        <time>2019-06-15T09:12:26Z</time>
      </trkpt>
      <trkpt lat="39.293520" lon="-0.334942">
        <ele>-2.328</ele>
        <time>2019-06-15T09:12:27Z</time>
      </trkpt>
      <trkpt lat="39.293495" lon="-0.334879">
        <ele>-2.461</ele>
        <time>2019-06-15T09:12:28Z</time>
      </trkpt>
      <trkpt lat="39.293473" lon="-0.334812">
        <ele>-2.583</ele>
        <time>2019-06-15T09:12:29Z</time>
      </trkpt>
      <trkpt lat="39.293442" lon="-0.334742">
        <ele>-2.660</ele>
        <time>2019-06-15T09:12:30Z</time>
      </trkpt>
      <trkpt lat="39.293417" lon="-0.334668">
        <ele>-2.679</ele>
        <time>2019-06-15T09:12:31Z</time>
      </trkpt>
      <trkpt lat="39.293389" lon="-0.334598">
        <ele>-2.494</ele>
        <time>2019-06-15T09:12:32Z</time>
      </trkpt>
      <trkpt lat="39.293370" lon="-0.334521">
        <ele>-2.294</ele>
        <time>2019-06-15T09:12:33Z</time>
      </trkpt>
      <trkpt lat="39.293351" lon="-0.334443">
        <ele>-2.057</ele>
        <time>2019-06-15T09:12:34Z</time>
      </trkpt>
      <trkpt lat="39.293330" lon="-0.334369">
        <ele>-2.022</ele>
        <time>2019-06-15T09:12:35Z</time>
      </trkpt>
      <trkpt lat="39.293311" lon="-0.334294">
        <ele>-2.008</ele>
        <time>2019-06-15T09:12:36Z</time>
      </trkpt>
      <trkpt lat="39.293278" lon="-0.334220">
        <ele>-2.012</ele>
        <time>2019-06-15T09:12:37Z</time>
      </trkpt>
      <trkpt lat="39.293264" lon="-0.334148">
        <ele>-2.016</ele>
        <time>2019-06-15T09:12:38Z</time>
      </trkpt>
      <trkpt lat="39.293252" lon="-0.334079">
        <ele>-2.285</ele>
        <time>2019-06-15T09:12:39Z</time>
      </trkpt>
      <trkpt lat="39.293233" lon="-0.334002">
        <ele>-2.478</ele>
        <time>2019-06-15T09:12:40Z</time>
      </trkpt>
      <trkpt lat="39.293224" lon="-0.333933">
        <ele>-2.580</ele>
        <time>2019-06-15T09:12:41Z</time>
      </trkpt>
      <trkpt lat="39.293203" lon="-0.333871">
        <ele>-2.557</ele>
        <time>2019-06-15T09:12:42Z</time>
      </trkpt>
      <trkpt lat="39.293183" lon="-0.333807">
        <ele>-2.596</ele>
        <time>2019-06-15T09:12:43Z</time>
      </trkpt>
      <trkpt lat="39.293157" lon="-0.333744">
        <ele>-2.471</ele>
        <time>2019-06-15T09:12:44Z</time>
      </trkpt>
      <trkpt lat="39.293143" lon="-0.333677">
        <ele>-2.368</ele>
        <time>2019-06-15T09:12:45Z</time>
      </trkpt>
      <trkpt lat="39.293119" lon="-0.333610">
        <ele>-2.242</ele>
        <time>2019-06-15T09:12:46Z</time>
      </trkpt>
      <trkpt lat="39.293092" lon="-0.333550">
        <ele>-1.926</ele>
        <time>2019-06-15T09:12:47Z</time>
      </trkpt>
      <trkpt lat="39.293066" lon="-0.333492">
        <ele>-1.608</ele>
        <time>2019-06-15T09:12:48Z</time>
      </trkpt>
      <trkpt lat="39.293048" lon="-0.333431">
        <ele>-1.349</ele>
        <time>2019-06-15T09:12:49Z</time>
      </trkpt>
      <trkpt lat="39.293021" lon="-0.333364">
        <ele>-1.013</ele>
        <time>2019-06-15T09:12:50Z</time>
      </trkpt>
      <trkpt lat="39.292990" lon="-0.333293">
        <ele>-0.542</ele>
        <time>2019-06-15T09:12:51Z</time>
      </trkpt>
      <trkpt lat="39.292964" lon="-0.333223">
        <ele>-0.045</ele>
        <time>2019-06-15T09:12:52Z</time>
      </trkpt>
      <trkpt lat="39.292936" lon="-0.333156">
        <ele>0.477</ele>
        <time>2019-06-15T09:12:53Z</time>
      </trkpt>
      <trkpt lat="39.292903" lon="-0.333083">
        <ele>0.974</ele>
        <time>2019-06-15T09:12:54Z</time>
      </trkpt>
      <trkpt lat="39.292874" lon="-0.333010">
        <ele>0.993</ele>
        <time>2019-06-15T09:12:55Z</time>
      </trkpt>
      <trkpt lat="39.292848" lon="-0.332942">
        <ele>0.958</ele>
        <time>2019-06-15T09:12:56Z</time>
      </trkpt>
      <trkpt lat="39.292817" lon="-0.332867">
        <ele>0.974</ele>
        <time>2019-06-15T09:12:57Z</time>
      </trkpt>
      <trkpt lat="39.292790" lon="-0.332798">
        <ele>1.056</ele>
        <time>2019-06-15T09:12:58Z</time>
      </trkpt>
      <trkpt lat="39.292757" lon="-0.332730">
        <ele>0.821</ele>
        <time>2019-06-15T09:12:59Z</time>
      </trkpt>
      <trkpt lat="39.292730" lon="-0.332665">
        <ele>0.608</ele>
        <time>2019-06-15T09:13:00Z</time>
      </trkpt>
      <trkpt lat="39.292703" lon="-0.332596">
        <ele>0.450</ele>
        <time>2019-06-15T09:13:01Z</time>
      </trkpt>
      <trkpt lat="39.292676" lon="-0.332520">
        <ele>0.464</ele>
        <time>2019-06-15T09:13:02Z</time>
      </trkpt>
      <trkpt lat="39.292645" lon="-0.332448">
        <ele>0.613</ele>
        <time>2019-06-15T09:13:03Z</time>
      </trkpt>
      <trkpt lat="39.292621" lon="-0.332369">
        <ele>0.856</ele>
        <time>2019-06-15T09:13:04Z</time>
      </trkpt>
      <trkpt lat="39.292597" lon="-0.332297">
        <ele>0.928</ele>
        <time>2019-06-15T09:13:05Z</time>
      </trkpt>
      <trkpt lat="39.292579" lon="-0.332239">
        <ele>1.025</ele>
        <time>2019-06-15T09:13:06Z</time>
      </trkpt>
      <trkpt lat="39.292547" lon="-0.332163">
        <ele>0.844</ele>
        <time>2019-06-15T09:13:07Z</time>
      </trkpt>
      <trkpt lat="39.292519" lon="-0.332088">
        <ele>0.599</ele>
        <time>2019-06-15T09:13:08Z</time>
      </trkpt>
      <trkpt lat="39.292494" lon="-0.331998">
        <ele>0.285</ele>
        <time>2019-06-15T09:13:09Z</time>
      </trkpt>
      <trkpt lat="39.292466" lon="-0.331915">
        <ele>-0.289</ele>
        <time>2019-06-15T09:13:10Z</time>
      </trkpt>
      <trkpt lat="39.292436" lon="-0.331836">
        <ele>-0.617</ele>
        <time>2019-06-15T09:13:11Z</time>
      </trkpt>
      <trkpt lat="39.292412" lon="-0.331756">
        <ele>-0.908</ele>
        <time>2019-06-15T09:13:12Z</time>
      </trkpt>
      <trkpt lat="39.292392" lon="-0.331694">
        <ele>-1.131</ele>
        <time>2019-06-15T09:13:13Z</time>
      </trkpt>
      <trkpt lat="39.292372" lon="-0.331619">
        <ele>-1.255</ele>
        <time>2019-06-15T09:13:14Z</time>
      </trkpt>
      <trkpt lat="39.292346" lon="-0.331556">
        <ele>-1.324</ele>
        <time>2019-06-15T09:13:15Z</time>
      </trkpt>
      <trkpt lat="39.292323" lon="-0.331480">
        <ele>-1.427</ele>
        <time>2019-06-15T09:13:16Z</time>
      </trkpt>
      <trkpt lat="39.292295" lon="-0.331411">
        <ele>-1.459</ele>
        <time>2019-06-15T09:13:17Z</time>
      </trkpt>
      <trkpt lat="39.292271" lon="-0.331342">
        <ele>-1.466</ele>
        <time>2019-06-15T09:13:18Z</time>
      </trkpt>
      <trkpt lat="39.292242" lon="-0.331279">
        <ele>-1.185</ele>
        <time>2019-06-15T09:13:19Z</time>
      </trkpt>
      <trkpt lat="39.292216" lon="-0.331212">
        <ele>-1.030</ele>
        <time>2019-06-15T09:13:20Z</time>
      </trkpt>
      <trkpt lat="39.292188" lon="-0.331145">
        <ele>-0.929</ele>
        <time>2019-06-15T09:13:21Z</time>
      </trkpt>
      <trkpt lat="39.292150" lon="-0.331097">
        <ele>-0.700</ele>
        <time>2019-06-15T09:13:22Z</time>
      </trkpt>
      <trkpt lat="39.292124" lon="-0.331029">
        <ele>-0.620</ele>
        <time>2019-06-15T09:13:23Z</time>
      </trkpt>
      <trkpt lat="39.292090" lon="-0.330968">
        <ele>-0.508</ele>
        <time>2019-06-15T09:13:24Z</time>
      </trkpt>
      <trkpt lat="39.292061" lon="-0.330901">
        <ele>-0.435</ele>
        <time>2019-06-15T09:13:25Z</time>
      </trkpt>
      <trkpt lat="39.292023" lon="-0.330826">
        <ele>-0.379</ele>
        <time>2019-06-15T09:13:26Z</time>
      </trkpt>
      <trkpt lat="39.291987" lon="-0.330754">
        <ele>-0.218</ele>
        <time>2019-06-15T09:13:27Z</time>
      </trkpt>
      <trkpt lat="39.291954" lon="-0.330668">
        <ele>-0.081</ele>
        <time>2019-06-15T09:13:28Z</time>
      </trkpt>
      <trkpt lat="39.291924" lon="-0.330593">
        <ele>-0.133</ele>
        <time>2019-06-15T09:13:29Z</time>
      </trkpt>
      <trkpt lat="39.291889" lon="-0.330523">
        <ele>-0.250</ele>
        <time>2019-06-15T09:13:30Z</time>
      </trkpt>
      <trkpt lat="39.291851" lon="-0.330449">
        <ele>-0.269</ele>
        <time>2019-06-15T09:13:31Z</time>
      </trkpt>
      <trkpt lat="39.291814" lon="-0.330380">
        <ele>-0.234</ele>
        <time>2019-06-15T09:13:32Z</time>
      </trkpt>
      <trkpt lat="39.291771" lon="-0.330306">
        <ele>-0.172</ele>
        <time>2019-06-15T09:13:33Z</time>
      </trkpt>
      <trkpt lat="39.291764" lon="-0.330243">
        <ele>0.013</ele>
        <time>2019-06-15T09:13:34Z</time>
      </trkpt>
      <trkpt lat="39.291722" lon="-0.330199">
        <ele>0.014</ele>
        <time>2019-06-15T09:13:35Z</time>
      </trkpt>
      <trkpt lat="39.291684" lon="-0.330143">
        <ele>0.008</ele>
        <time>2019-06-15T09:13:36Z</time>
      </trkpt>
      <trkpt lat="39.291639" lon="-0.330089">
        <ele>0.120</ele>
        <time>2019-06-15T09:13:37Z</time>
      </trkpt>
      <trkpt lat="39.291597" lon="-0.330032">
        <ele>0.224</ele>
        <time>2019-06-15T09:13:38Z</time>
      </trkpt>
      <trkpt lat="39.291564" lon="-0.329970">
        <ele>0.463</ele>
        <time>2019-06-15T09:13:39Z</time>
      </trkpt>
      <trkpt lat="39.291522" lon="-0.329905">
        <ele>0.736</ele>
        <time>2019-06-15T09:13:40Z</time>
      </trkpt>
      <trkpt lat="39.291484" lon="-0.329841">
        <ele>0.928</ele>
        <time>2019-06-15T09:13:41Z</time>
      </trkpt>
      <trkpt lat="39.291447" lon="-0.329783">
        <ele>1.065</ele>
        <time>2019-06-15T09:13:42Z</time>
      </trkpt>
      <trkpt lat="39.291412" lon="-0.329734">
        <ele>1.084</ele>
        <time>2019-06-15T09:13:43Z</time>
      </trkpt>
      <trkpt lat="39.291361" lon="-0.329671">
        <ele>0.969</ele>
        <time>2019-06-15T09:13:44Z</time>
      </trkpt>
      <trkpt lat="39.291316" lon="-0.329623">
        <ele>0.779</ele>
        <time>2019-06-15T09:13:45Z</time>
      </trkpt>
      <trkpt lat="39.291270" lon="-0.329563">
        <ele>0.605</ele>
        <time>2019-06-15T09:13:46Z</time>
      </trkpt>
      <trkpt lat="39.291222" lon="-0.329509">
        <ele>0.425</ele>
        <time>2019-06-15T09:13:47Z</time>
      </trkpt>
      <trkpt lat="39.291175" lon="-0.329454">
        <ele>0.208</ele>
        <time>2019-06-15T09:13:48Z</time>
      </trkpt>
      <trkpt lat="39.291132" lon="-0.329395">
        <ele>0.170</ele>
        <time>2019-06-15T09:13:49Z</time>
      </trkpt>
      <trkpt lat="39.291084" lon="-0.329337">
        <ele>-0.184</ele>
        <time>2019-06-15T09:13:50Z</time>
      </trkpt>
      <trkpt lat="39.291039" lon="-0.329281">
        <ele>-0.343</ele>
        <time>2019-06-15T09:13:51Z</time>
      </trkpt>
      <trkpt lat="39.290990" lon="-0.329223">
        <ele>-0.416</ele>
        <time>2019-06-15T09:13:52Z</time>
      </trkpt>
      <trkpt lat="39.290940" lon="-0.329167">
        <ele>-0.628</ele>
        <time>2019-06-15T09:13:53Z</time>
      </trkpt>
      <trkpt lat="39.290887" lon="-0.329115">
        <ele>-0.885</ele>
        <time>2019-06-15T09:13:54Z</time>
      </trkpt>
      <trkpt lat="39.290846" lon="-0.329070">
        <ele>-1.094</ele>
        <time>2019-06-15T09:13:55Z</time>
      </trkpt>
      <trkpt lat="39.290801" lon="-0.329016">
        <ele>-1.199</ele>
        <time>2019-06-15T09:13:56Z</time>
      </trkpt>
      <trkpt lat="39.290761" lon="-0.328960">
        <ele>-1.349</ele>
        <time>2019-06-15T09:13:57Z</time>
      </trkpt>
      <trkpt lat="39.290722" lon="-0.328915">
        <ele>-1.402</ele>
        <time>2019-06-15T09:13:58Z</time>
      </trkpt>
      <trkpt lat="39.290674" lon="-0.328856">
        <ele>-1.622</ele>
        <time>2019-06-15T09:13:59Z</time>
      </trkpt>
      <trkpt lat="39.290618" lon="-0.328803">
        <ele>-2.008</ele>
        <time>2019-06-15T09:14:00Z</time>
      </trkpt>
      <trkpt lat="39.290569" lon="-0.328740">
        <ele>-2.537</ele>
        <time>2019-06-15T09:14:01Z</time>
      </trkpt>
      <trkpt lat="39.290522" lon="-0.328682">
        <ele>-2.741</ele>
        <time>2019-06-15T09:14:02Z</time>
      </trkpt>
      <trkpt lat="39.290470" lon="-0.328627">
        <ele>-2.740</ele>
        <time>2019-06-15T09:14:03Z</time>
      </trkpt>
      <trkpt lat="39.290422" lon="-0.328576">
        <ele>-2.513</ele>
        <time>2019-06-15T09:14:04Z</time>
      </trkpt>
      <trkpt lat="39.290372" lon="-0.328519">
        <ele>-2.345</ele>
        <time>2019-06-15T09:14:05Z</time>
      </trkpt>
      <trkpt lat="39.290329" lon="-0.328463">
        <ele>-2.212</ele>
        <time>2019-06-15T09:14:06Z</time>
      </trkpt>
      <trkpt lat="39.290284" lon="-0.328407">
        <ele>-2.061</ele>
        <time>2019-06-15T09:14:07Z</time>
      </trkpt>
      <trkpt lat="39.290246" lon="-0.328345">
        <ele>-2.056</ele>
        <time>2019-06-15T09:14:08Z</time>
      </trkpt>
      <trkpt lat="39.290199" lon="-0.328286">
        <ele>-2.022</ele>
        <time>2019-06-15T09:14:09Z</time>
      </trkpt>
      <trkpt lat="39.290154" lon="-0.328230">
        <ele>-2.262</ele>
        <time>2019-06-15T09:14:10Z</time>
      </trkpt>
      <trkpt lat="39.290111" lon="-0.328160">
        <ele>-2.408</ele>
        <time>2019-06-15T09:14:11Z</time>
      </trkpt>
      <trkpt lat="39.290075" lon="-0.328092">
        <ele>-2.608</ele>
        <time>2019-06-15T09:14:12Z</time>
      </trkpt>
      <trkpt lat="39.290040" lon="-0.328025">
        <ele>-2.815</ele>
        <time>2019-06-15T09:14:13Z</time>
      </trkpt>
      <trkpt lat="39.290020" lon="-0.327972">
        <ele>-2.629</ele>
        <time>2019-06-15T09:14:14Z</time>
      </trkpt>
      <trkpt lat="39.289985" lon="-0.327900">
        <ele>-2.468</ele>
        <time>2019-06-15T09:14:15Z</time>
      </trkpt>
      <trkpt lat="39.289950" lon="-0.327818">
        <ele>-2.011</ele>
        <time>2019-06-15T09:14:16Z</time>
      </trkpt>
      <trkpt lat="39.289915" lon="-0.327745">
        <ele>-1.633</ele>
        <time>2019-06-15T09:14:17Z</time>
      </trkpt>
      <trkpt lat="39.289880" lon="-0.327676">
        <ele>-1.460</ele>
        <time>2019-06-15T09:14:18Z</time>
      </trkpt>
      <trkpt lat="39.289847" lon="-0.327603">
        <ele>-1.249</ele>
        <time>2019-06-15T09:14:19Z</time>
      </trkpt>
      <trkpt lat="39.289817" lon="-0.327533">
        <ele>-1.084</ele>
        <time>2019-06-15T09:14:20Z</time>
      </trkpt>
      <trkpt lat="39.289784" lon="-0.327463">
        <ele>-1.074</ele>
        <time>2019-06-15T09:14:21Z</time>
      </trkpt>
      <trkpt lat="39.289759" lon="-0.327396">
        <ele>-1.056</ele>
        <time>2019-06-15T09:14:22Z</time>
      </trkpt>
      <trkpt lat="39.289723" lon="-0.327317">
        <ele>-1.021</ele>
        <time>2019-06-15T09:14:23Z</time>
      </trkpt>
      <trkpt lat="39.289686" lon="-0.327247">
        <ele>-1.008</ele>
        <time>2019-06-15T09:14:24Z</time>
      </trkpt>
      <trkpt lat="39.289655" lon="-0.327172">
        <ele>-1.230</ele>
        <time>2019-06-15T09:14:25Z</time>
      </trkpt>
      <trkpt lat="39.289622" lon="-0.327118">
        <ele>-1.494</ele>
        <time>2019-06-15T09:14:26Z</time>
      </trkpt>
      <trkpt lat="39.289588" lon="-0.327050">
        <ele>-1.693</ele>
        <time>2019-06-15T09:14:27Z</time>
      </trkpt>
      <trkpt lat="39.289559" lon="-0.326973">
        <ele>-1.916</ele>
        <time>2019-06-15T09:14:28Z</time>
      </trkpt>
      <trkpt lat="39.289534" lon="-0.326901">
        <ele>-2.078</ele>
        <time>2019-06-15T09:14:29Z</time>
      </trkpt>
      <trkpt lat="39.289503" lon="-0.326816">
        <ele>-2.095</ele>
        <time>2019-06-15T09:14:30Z</time>
      </trkpt>
      <trkpt lat="39.289472" lon="-0.326741">
        <ele>-2.074</ele>
        <time>2019-06-15T09:14:31Z</time>
      </trkpt>
      <trkpt lat="39.289440" lon="-0.326649">
        <ele>-2.019</ele>
        <time>2019-06-15T09:14:32Z</time>
      </trkpt>
      <trkpt lat="39.289401" lon="-0.326573">
        <ele>-2.038</ele>
        <time>2019-06-15T09:14:33Z</time>
      </trkpt>
      <trkpt lat="39.289357" lon="-0.326493">
        <ele>-2.070</ele>
        <time>2019-06-15T09:14:34Z</time>
      </trkpt>
      <trkpt lat="39.289333" lon="-0.326420">
        <ele>-2.017</ele>
        <time>2019-06-15T09:14:35Z</time>
      </trkpt>
      <trkpt lat="39.289302" lon="-0.326342">
        <ele>-2.108</ele>
        <time>2019-06-15T09:14:36Z</time>
      </trkpt>
      <trkpt lat="39.289279" lon="-0.326254">
        <ele>-2.256</ele>
        <time>2019-06-15T09:14:37Z</time>
      </trkpt>
      <trkpt lat="39.289251" lon="-0.326175">
        <ele>-2.230</ele>
        <time>2019-06-15T09:14:38Z</time>
      </trkpt>
      <trkpt lat="39.289215" lon="-0.326098">
        <ele>-2.219</ele>
        <time>2019-06-15T09:14:39Z</time>
      </trkpt>
      <trkpt lat="39.289184" lon="-0.326020">
        <ele>-2.452</ele>
        <time>2019-06-15T09:14:40Z</time>
      </trkpt>
      <trkpt lat="39.289159" lon="-0.325955">
        <ele>-2.594</ele>
        <time>2019-06-15T09:14:41Z</time>
      </trkpt>
      <trkpt lat="39.289136" lon="-0.325878">
        <ele>-2.721</ele>
        <time>2019-06-15T09:14:42Z</time>
      </trkpt>
      <trkpt lat="39.289122" lon="-0.325809">
        <ele>-2.960</ele>
        <time>2019-06-15T09:14:43Z</time>
      </trkpt>
      <trkpt lat="39.289093" lon="-0.325722">
        <ele>-2.835</ele>
        <time>2019-06-15T09:14:44Z</time>
      </trkpt>
      <trkpt lat="39.289056" lon="-0.325643">
        <ele>-2.959</ele>
        <time>2019-06-15T09:14:45Z</time>
      </trkpt>
      <trkpt lat="39.289027" lon="-0.325567">
        <ele>-3.003</ele>
        <time>2019-06-15T09:14:46Z</time>
      </trkpt>
      <trkpt lat="39.288989" lon="-0.325495">
        <ele>-3.123</ele>
        <time>2019-06-15T09:14:47Z</time>
      </trkpt>
      <trkpt lat="39.288957" lon="-0.325421">
        <ele>-3.108</ele>
        <time>2019-06-15T09:14:48Z</time>
      </trkpt>
      <trkpt lat="39.288930" lon="-0.325341">
        <ele>-3.168</ele>
        <time>2019-06-15T09:14:49Z</time>
      </trkpt>
      <trkpt lat="39.288904" lon="-0.325262">
        <ele>-3.112</ele>
        <time>2019-06-15T09:14:50Z</time>
      </trkpt>
      <trkpt lat="39.288874" lon="-0.325179">
        <ele>-3.381</ele>
        <time>2019-06-15T09:14:51Z</time>
      </trkpt>
      <trkpt lat="39.288842" lon="-0.325101">
        <ele>-3.514</ele>
        <time>2019-06-15T09:14:52Z</time>
      </trkpt>
      <trkpt lat="39.288791" lon="-0.325019">
        <ele>-3.666</ele>
        <time>2019-06-15T09:14:53Z</time>
      </trkpt>
      <trkpt lat="39.288746" lon="-0.324964">
        <ele>-3.513</ele>
        <time>2019-06-15T09:14:54Z</time>
      </trkpt>
      <trkpt lat="39.288726" lon="-0.324897">
        <ele>-3.422</ele>
        <time>2019-06-15T09:14:55Z</time>
      </trkpt>
      <trkpt lat="39.288699" lon="-0.324828">
        <ele>-3.377</ele>
        <time>2019-06-15T09:14:56Z</time>
      </trkpt>
      <trkpt lat="39.288676" lon="-0.324751">
        <ele>-3.235</ele>
        <time>2019-06-15T09:14:57Z</time>
      </trkpt>
      <trkpt lat="39.288647" lon="-0.324675">
        <ele>-3.086</ele>
        <time>2019-06-15T09:14:58Z</time>
      </trkpt>
      <trkpt lat="39.288620" lon="-0.324600">
        <ele>-2.614</ele>
        <time>2019-06-15T09:14:59Z</time>
      </trkpt>
      <trkpt lat="39.288591" lon="-0.324530">
        <ele>-2.308</ele>
        <time>2019-06-15T09:15:00Z</time>
      </trkpt>
      <trkpt lat="39.288564" lon="-0.324452">
        <ele>-2.036</ele>
        <time>2019-06-15T09:15:01Z</time>
      </trkpt>
      <trkpt lat="39.288532" lon="-0.324380">
        <ele>-1.980</ele>
        <time>2019-06-15T09:15:02Z</time>
      </trkpt>
      <trkpt lat="39.288504" lon="-0.324304">
        <ele>-1.899</ele>
        <time>2019-06-15T09:15:03Z</time>
      </trkpt>
      <trkpt lat="39.288472" lon="-0.324224">
        <ele>-1.652</ele>
        <time>2019-06-15T09:15:04Z</time>
      </trkpt>
      <trkpt lat="39.288443" lon="-0.324143">
        <ele>-1.494</ele>
        <time>2019-06-15T09:15:05Z</time>
      </trkpt>
      <trkpt lat="39.288409" lon="-0.324065">
        <ele>-1.261</ele>
        <time>2019-06-15T09:15:06Z</time>
      </trkpt>
      <trkpt lat="39.288377" lon="-0.323995">
        <ele>-1.190</ele>
        <time>2019-06-15T09:15:07Z</time>
      </trkpt>
      <trkpt lat="39.288349" lon="-0.323923">
        <ele>-1.085</ele>
        <time>2019-06-15T09:15:08Z</time>
      </trkpt>
      <trkpt lat="39.288328" lon="-0.323851">
        <ele>-0.797</ele>
        <time>2019-06-15T09:15:09Z</time>
      </trkpt>
      <trkpt lat="39.288302" lon="-0.323780">
        <ele>-0.223</ele>
        <time>2019-06-15T09:15:10Z</time>
      </trkpt>
      <trkpt lat="39.288265" lon="-0.323712">
        <ele>0.225</ele>
        <time>2019-06-15T09:15:11Z</time>
      </trkpt>
      <trkpt lat="39.288226" lon="-0.323645">
        <ele>0.508</ele>
        <time>2019-06-15T09:15:12Z</time>
      </trkpt>
      <trkpt lat="39.288186" lon="-0.323586">
        <ele>0.442</ele>
        <time>2019-06-15T09:15:13Z</time>
      </trkpt>
      <trkpt lat="39.288146" lon="-0.323529">
        <ele>0.216</ele>
        <time>2019-06-15T09:15:14Z</time>
      </trkpt>
      <trkpt lat="39.288107" lon="-0.323464">
        <ele>0.185</ele>
        <time>2019-06-15T09:15:15Z</time>
      </trkpt>
      <trkpt lat="39.288071" lon="-0.323400">
        <ele>0.048</ele>
        <time>2019-06-15T09:15:16Z</time>
      </trkpt>
      <trkpt lat="39.288034" lon="-0.323343">
        <ele>-0.250</ele>
        <time>2019-06-15T09:15:17Z</time>
      </trkpt>
      <trkpt lat="39.288003" lon="-0.323299">
        <ele>-0.667</ele>
        <time>2019-06-15T09:15:18Z</time>
      </trkpt>
      <trkpt lat="39.287968" lon="-0.323260">
        <ele>-1.046</ele>
        <time>2019-06-15T09:15:19Z</time>
      </trkpt>
      <trkpt lat="39.287913" lon="-0.323241">
        <ele>-1.491</ele>
        <time>2019-06-15T09:15:22Z</time>
      </trkpt>
      <trkpt lat="39.287863" lon="-0.323261">
        <ele>-1.569</ele>
        <time>2019-06-15T09:15:28Z</time>
      </trkpt>
      <trkpt lat="39.287820" lon="-0.323310">
        <ele>-1.704</ele>
        <time>2019-06-15T09:15:32Z</time>
      </trkpt>
      <trkpt lat="39.287792" lon="-0.323377">
        <ele>-1.724</ele>
        <time>2019-06-15T09:15:36Z</time>
      </trkpt>
      <trkpt lat="39.287759" lon="-0.323435">
        <ele>-1.708</ele>
        <time>2019-06-15T09:15:40Z</time>
      </trkpt>
      <trkpt lat="39.287766" lon="-0.323366">
        <ele>-1.939</ele>
        <time>2019-06-15T09:17:56Z</time>
      </trkpt>
      <trkpt lat="39.287809" lon="-0.323316">
        <ele>-1.833</ele>
        <time>2019-06-15T09:18:00Z</time>
      </trkpt>
      <trkpt lat="39.287862" lon="-0.323288">
        <ele>-1.542</ele>
        <time>2019-06-15T09:18:04Z</time>
      </trkpt>
      <trkpt lat="39.287915" lon="-0.323259">
        <ele>-1.325</ele>
        <time>2019-06-15T09:18:07Z</time>
      </trkpt>
      <trkpt lat="39.287916" lon="-0.323190">
        <ele>-1.577</ele>
        <time>2019-06-15T09:18:18Z</time>
      </trkpt>
      <trkpt lat="39.287888" lon="-0.323142">
        <ele>-1.864</ele>
        <time>2019-06-15T09:18:21Z</time>
      </trkpt>
      <trkpt lat="39.287855" lon="-0.323089">
        <ele>-1.933</ele>
        <time>2019-06-15T09:18:23Z</time>
      </trkpt>
      <trkpt lat="39.287799" lon="-0.322995">
        <ele>-1.878</ele>
        <time>2019-06-15T09:18:25Z</time>
      </trkpt>
      <trkpt lat="39.287750" lon="-0.322913">
        <ele>-1.424</ele>
        <time>2019-06-15T09:18:27Z</time>
      </trkpt>
      <trkpt lat="39.287734" lon="-0.322858">
        <ele>-1.204</ele>
        <time>2019-06-15T09:18:28Z</time>
      </trkpt>
      <trkpt lat="39.287709" lon="-0.322798">
        <ele>-1.114</ele>
        <time>2019-06-15T09:18:30Z</time>
      </trkpt>
      <trkpt lat="39.287678" lon="-0.322740">
        <ele>-0.908</ele>
        <time>2019-06-15T09:18:32Z</time>
      </trkpt>
      <trkpt lat="39.287644" lon="-0.322675">
        <ele>-0.825</ele>
        <time>2019-06-15T09:18:34Z</time>
      </trkpt>
      <trkpt lat="39.287596" lon="-0.322593">
        <ele>-0.839</ele>
        <time>2019-06-15T09:18:36Z</time>
      </trkpt>
      <trkpt lat="39.287552" lon="-0.322496">
        <ele>-0.888</ele>
        <time>2019-06-15T09:18:37Z</time>
      </trkpt>
      <trkpt lat="39.287520" lon="-0.322405">
        <ele>-0.931</ele>
        <time>2019-06-15T09:18:39Z</time>
      </trkpt>
      <trkpt lat="39.287514" lon="-0.322346">
        <ele>-0.993</ele>
        <time>2019-06-15T09:18:40Z</time>
      </trkpt>
      <trkpt lat="39.287481" lon="-0.322295">
        <ele>-1.150</ele>
        <time>2019-06-15T09:18:41Z</time>
      </trkpt>
      <trkpt lat="39.287436" lon="-0.322208">
        <ele>-1.259</ele>
        <time>2019-06-15T09:18:43Z</time>
      </trkpt>
      <trkpt lat="39.287374" lon="-0.322139">
        <ele>-1.544</ele>
        <time>2019-06-15T09:18:45Z</time>
      </trkpt>
      <trkpt lat="39.287329" lon="-0.322122">
        <ele>-1.615</ele>
        <time>2019-06-15T09:18:46Z</time>
      </trkpt>
      <trkpt lat="39.287255" lon="-0.322120">
        <ele>-1.965</ele>
        <time>2019-06-15T09:18:47Z</time>
      </trkpt>
      <trkpt lat="39.287204" lon="-0.322115">
        <ele>-2.011</ele>
        <time>2019-06-15T09:18:48Z</time>
      </trkpt>
      <trkpt lat="39.287153" lon="-0.322118">
        <ele>-1.908</ele>
        <time>2019-06-15T09:18:49Z</time>
      </trkpt>
      <trkpt lat="39.287083" lon="-0.322151">
        <ele>-1.924</ele>
        <time>2019-06-15T09:18:51Z</time>
      </trkpt>
      <trkpt lat="39.287001" lon="-0.322188">
        <ele>-1.978</ele>
        <time>2019-06-15T09:18:53Z</time>
      </trkpt>
      <trkpt lat="39.286933" lon="-0.322240">
        <ele>-2.057</ele>
        <time>2019-06-15T09:18:55Z</time>
      </trkpt>
      <trkpt lat="39.286878" lon="-0.322276">
        <ele>-1.830</ele>
        <time>2019-06-15T09:18:58Z</time>
      </trkpt>
      <trkpt lat="39.286806" lon="-0.322329">
        <ele>-1.512</ele>
        <time>2019-06-15T09:19:00Z</time>
      </trkpt>
      <trkpt lat="39.286762" lon="-0.322350">
        <ele>-1.359</ele>
        <time>2019-06-15T09:19:02Z</time>
      </trkpt>
      <trkpt lat="39.286700" lon="-0.322369">
        <ele>-1.188</ele>
        <time>2019-06-15T09:19:03Z</time>
      </trkpt>
      <trkpt lat="39.286626" lon="-0.322407">
        <ele>-1.083</ele>
        <time>2019-06-15T09:19:05Z</time>
      </trkpt>
      <trkpt lat="39.286546" lon="-0.322441">
        <ele>-1.082</ele>
        <time>2019-06-15T09:19:07Z</time>
      </trkpt>
      <trkpt lat="39.286461" lon="-0.322472">
        <ele>-1.043</ele>
        <time>2019-06-15T09:19:09Z</time>
      </trkpt>
      <trkpt lat="39.286414" lon="-0.322476">
        <ele>-1.017</ele>
        <time>2019-06-15T09:19:10Z</time>
      </trkpt>
      <trkpt lat="39.286327" lon="-0.322514">
        <ele>-1.308</ele>
        <time>2019-06-15T09:19:12Z</time>
      </trkpt>
      <trkpt lat="39.286283" lon="-0.322532">
        <ele>-1.521</ele>
        <time>2019-06-15T09:19:13Z</time>
      </trkpt>
      <trkpt lat="39.286240" lon="-0.322550">
        <ele>-1.685</ele>
        <time>2019-06-15T09:19:14Z</time>
      </trkpt>
      <trkpt lat="39.286174" lon="-0.322612">
        <ele>-1.964</ele>
        <time>2019-06-15T09:19:16Z</time>
      </trkpt>
      <trkpt lat="39.286092" lon="-0.322637">
        <ele>-2.137</ele>
        <time>2019-06-15T09:19:18Z</time>
      </trkpt>
      <trkpt lat="39.286009" lon="-0.322663">
        <ele>-2.519</ele>
        <time>2019-06-15T09:19:20Z</time>
      </trkpt>
      <trkpt lat="39.285903" lon="-0.322717">
        <ele>-2.986</ele>
        <time>2019-06-15T09:19:24Z</time>
      </trkpt>
      <trkpt lat="39.285806" lon="-0.322768">
        <ele>-3.095</ele>
        <time>2019-06-15T09:19:25Z</time>
      </trkpt>
      <trkpt lat="39.285730" lon="-0.322819">
        <ele>-2.920</ele>
        <time>2019-06-15T09:19:27Z</time>
      </trkpt>
      <trkpt lat="39.285688" lon="-0.322847">
        <ele>-2.933</ele>
        <time>2019-06-15T09:19:28Z</time>
      </trkpt>
      <trkpt lat="39.285614" lon="-0.322865">
        <ele>-2.823</ele>
        <time>2019-06-15T09:19:30Z</time>
      </trkpt>
      <trkpt lat="39.285528" lon="-0.322893">
        <ele>-2.515</ele>
        <time>2019-06-15T09:19:32Z</time>
      </trkpt>
      <trkpt lat="39.285480" lon="-0.322900">
        <ele>-2.308</ele>
        <time>2019-06-15T09:19:33Z</time>
      </trkpt>
      <trkpt lat="39.285409" lon="-0.322924">
        <ele>-1.996</ele>
        <time>2019-06-15T09:19:35Z</time>
      </trkpt>
      <trkpt lat="39.285356" lon="-0.322943">
        <ele>-1.710</ele>
        <time>2019-06-15T09:19:37Z</time>
      </trkpt>
      <trkpt lat="39.285283" lon="-0.322975">
        <ele>-1.379</ele>
        <time>2019-06-15T09:19:38Z</time>
      </trkpt>
      <trkpt lat="39.285235" lon="-0.322988">
        <ele>-1.262</ele>
        <time>2019-06-15T09:19:39Z</time>
      </trkpt>
      <trkpt lat="39.285155" lon="-0.323013">
        <ele>-1.134</ele>
        <time>2019-06-15T09:19:41Z</time>
      </trkpt>
      <trkpt lat="39.285086" lon="-0.323051">
        <ele>-1.051</ele>
        <time>2019-06-15T09:19:43Z</time>
      </trkpt>
      <trkpt lat="39.285026" lon="-0.323074">
        <ele>-1.040</ele>
        <time>2019-06-15T09:19:45Z</time>
      </trkpt>
      <trkpt lat="39.284963" lon="-0.323091">
        <ele>-1.015</ele>
        <time>2019-06-15T09:19:47Z</time>
      </trkpt>
      <trkpt lat="39.284904" lon="-0.323124">
        <ele>-1.151</ele>
        <time>2019-06-15T09:19:49Z</time>
      </trkpt>
      <trkpt lat="39.284845" lon="-0.323153">
        <ele>-1.201</ele>
        <time>2019-06-15T09:19:51Z</time>
      </trkpt>
      <trkpt lat="39.284774" lon="-0.323182">
        <ele>-1.411</ele>
        <time>2019-06-15T09:19:52Z</time>
      </trkpt>
      <trkpt lat="39.284706" lon="-0.323211">
        <ele>-1.608</ele>
        <time>2019-06-15T09:19:54Z</time>
      </trkpt>
      <trkpt lat="39.284630" lon="-0.323246">
        <ele>-1.848</ele>
        <time>2019-06-15T09:19:56Z</time>
      </trkpt>
      <trkpt lat="39.284548" lon="-0.323275">
        <ele>-1.982</ele>
        <time>2019-06-15T09:19:58Z</time>
      </trkpt>
      <trkpt lat="39.284465" lon="-0.323302">
        <ele>-2.041</ele>
        <time>2019-06-15T09:20:00Z</time>
      </trkpt>
      <trkpt lat="39.284382" lon="-0.323340">
        <ele>-1.824</ele>
        <time>2019-06-15T09:20:02Z</time>
      </trkpt>
      <trkpt lat="39.284303" lon="-0.323386">
        <ele>-1.556</ele>
        <time>2019-06-15T09:20:04Z</time>
      </trkpt>
      <trkpt lat="39.284229" lon="-0.323445">
        <ele>-1.293</ele>
        <time>2019-06-15T09:20:06Z</time>
      </trkpt>
      <trkpt lat="39.284155" lon="-0.323506">
        <ele>-1.082</ele>
        <time>2019-06-15T09:20:08Z</time>
      </trkpt>
      <trkpt lat="39.284082" lon="-0.323563">
        <ele>-0.787</ele>
        <time>2019-06-15T09:20:10Z</time>
      </trkpt>
      <trkpt lat="39.284008" lon="-0.323619">
        <ele>-0.438</ele>
        <time>2019-06-15T09:20:12Z</time>
      </trkpt>
      <trkpt lat="39.283935" lon="-0.323675">
        <ele>-0.470</ele>
        <time>2019-06-15T09:20:14Z</time>
      </trkpt>
      <trkpt lat="39.283863" lon="-0.323726">
        <ele>-0.417</ele>
        <time>2019-06-15T09:20:16Z</time>
      </trkpt>
      <trkpt lat="39.283792" lon="-0.323775">
        <ele>-0.608</ele>
        <time>2019-06-15T09:20:18Z</time>
      </trkpt>
      <trkpt lat="39.283721" lon="-0.323829">
        <ele>-0.886</ele>
        <time>2019-06-15T09:20:20Z</time>
      </trkpt>
      <trkpt lat="39.283650" lon="-0.323883">
        <ele>-1.060</ele>
        <time>2019-06-15T09:20:22Z</time>
      </trkpt>
      <trkpt lat="39.283575" lon="-0.323940">
        <ele>-1.049</ele>
        <time>2019-06-15T09:20:24Z</time>
      </trkpt>
      <trkpt lat="39.283500" lon="-0.324000">
        <ele>-1.232</ele>
        <time>2019-06-15T09:20:26Z</time>
      </trkpt>
      <trkpt lat="39.283427" lon="-0.324064">
        <ele>-1.414</ele>
        <time>2019-06-15T09:20:28Z</time>
      </trkpt>
      <trkpt lat="39.283356" lon="-0.324125">
        <ele>-1.821</ele>
        <time>2019-06-15T09:20:30Z</time>
      </trkpt>
      <trkpt lat="39.283284" lon="-0.324182">
        <ele>-2.080</ele>
        <time>2019-06-15T09:20:32Z</time>
      </trkpt>
      <trkpt lat="39.283210" lon="-0.324244">
        <ele>-2.035</ele>
        <time>2019-06-15T09:20:34Z</time>
      </trkpt>
      <trkpt lat="39.283133" lon="-0.324298">
        <ele>-2.028</ele>
        <time>2019-06-15T09:20:36Z</time>
      </trkpt>
      <trkpt lat="39.283060" lon="-0.324351">
        <ele>-2.089</ele>
        <time>2019-06-15T09:20:38Z</time>
      </trkpt>
      <trkpt lat="39.282990" lon="-0.324404">
        <ele>-1.817</ele>
        <time>2019-06-15T09:20:40Z</time>
      </trkpt>
      <trkpt lat="39.282937" lon="-0.324444">
        <ele>-1.608</ele>
        <time>2019-06-15T09:20:42Z</time>
      </trkpt>
      <trkpt lat="39.282893" lon="-0.324476">
        <ele>-1.465</ele>
        <time>2019-06-15T09:20:44Z</time>
      </trkpt>
      <trkpt lat="39.282841" lon="-0.324516">
        <ele>-1.229</ele>
        <time>2019-06-15T09:20:46Z</time>
      </trkpt>
      <trkpt lat="39.282799" lon="-0.324551">
        <ele>-1.188</ele>
        <time>2019-06-15T09:20:49Z</time>
      </trkpt>
      <trkpt lat="39.282646" lon="-0.324679">
        <ele>-1.011</ele>
        <time>2019-06-15T09:20:51Z</time>
      </trkpt>
      <trkpt lat="39.282574" lon="-0.324739">
        <ele>-1.043</ele>
        <time>2019-06-15T09:20:53Z</time>
      </trkpt>
      <trkpt lat="39.282499" lon="-0.324800">
        <ele>-1.080</ele>
        <time>2019-06-15T09:20:55Z</time>
      </trkpt>
      <trkpt lat="39.282428" lon="-0.324864">
        <ele>-0.999</ele>
        <time>2019-06-15T09:20:57Z</time>
      </trkpt>
      <trkpt lat="39.282362" lon="-0.324912">
        <ele>-0.864</ele>
        <time>2019-06-15T09:20:59Z</time>
      </trkpt>
      <trkpt lat="39.282303" lon="-0.324967">
        <ele>-0.917</ele>
        <time>2019-06-15T09:21:01Z</time>
      </trkpt>
      <trkpt lat="39.282245" lon="-0.325010">
        <ele>-1.087</ele>
        <time>2019-06-15T09:21:03Z</time>
      </trkpt>
      <trkpt lat="39.282176" lon="-0.325062">
        <ele>-1.415</ele>
        <time>2019-06-15T09:21:05Z</time>
      </trkpt>
      <trkpt lat="39.282102" lon="-0.325108">
        <ele>-1.708</ele>
        <time>2019-06-15T09:21:07Z</time>
      </trkpt>
      <trkpt lat="39.282032" lon="-0.325167">
        <ele>-1.924</ele>
        <time>2019-06-15T09:21:09Z</time>
      </trkpt>
      <trkpt lat="39.281957" lon="-0.325229">
        <ele>-2.078</ele>
        <time>2019-06-15T09:21:11Z</time>
      </trkpt>
      <trkpt lat="39.281906" lon="-0.325268">
        <ele>-2.047</ele>
        <time>2019-06-15T09:21:13Z</time>
      </trkpt>
      <trkpt lat="39.281775" lon="-0.325379">
        <ele>-2.170</ele>
        <time>2019-06-15T09:21:16Z</time>
      </trkpt>
      <trkpt lat="39.281706" lon="-0.325431">
        <ele>-2.162</ele>
        <time>2019-06-15T09:21:18Z</time>
      </trkpt>
      <trkpt lat="39.281666" lon="-0.325464">
        <ele>-2.059</ele>
        <time>2019-06-15T09:21:19Z</time>
      </trkpt>
      <trkpt lat="39.281628" lon="-0.325497">
        <ele>-1.838</ele>
        <time>2019-06-15T09:21:20Z</time>
      </trkpt>
      <trkpt lat="39.281557" lon="-0.325552">
        <ele>-1.683</ele>
        <time>2019-06-15T09:21:22Z</time>
      </trkpt>
      <trkpt lat="39.281485" lon="-0.325611">
        <ele>-1.348</ele>
        <time>2019-06-15T09:21:24Z</time>
      </trkpt>
      <trkpt lat="39.281325" lon="-0.325723">
        <ele>-0.861</ele>
        <time>2019-06-15T09:21:28Z</time>
      </trkpt>
      <trkpt lat="39.281287" lon="-0.325757">
        <ele>-0.617</ele>
        <time>2019-06-15T09:21:29Z</time>
      </trkpt>
      <trkpt lat="39.281211" lon="-0.325818">
        <ele>-0.408</ele>
        <time>2019-06-15T09:21:31Z</time>
      </trkpt>
      <trkpt lat="39.281173" lon="-0.325851">
        <ele>-0.237</ele>
        <time>2019-06-15T09:21:32Z</time>
      </trkpt>
      <trkpt lat="39.281112" lon="-0.325922">
        <ele>-0.091</ele>
        <time>2019-06-15T09:21:34Z</time>
      </trkpt>
      <trkpt lat="39.281043" lon="-0.325974">
        <ele>0.030</ele>
        <time>2019-06-15T09:21:36Z</time>
      </trkpt>
      <trkpt lat="39.280972" lon="-0.326037">
        <ele>0.013</ele>
        <time>2019-06-15T09:21:38Z</time>
      </trkpt>
      <trkpt lat="39.280904" lon="-0.326101">
        <ele>0.065</ele>
        <time>2019-06-15T09:21:40Z</time>
      </trkpt>
      <trkpt lat="39.280827" lon="-0.326168">
        <ele>-0.292</ele>
        <time>2019-06-15T09:21:42Z</time>
      </trkpt>
      <trkpt lat="39.280750" lon="-0.326221">
        <ele>-0.341</ele>
        <time>2019-06-15T09:21:44Z</time>
      </trkpt>
      <trkpt lat="39.280708" lon="-0.326251">
        <ele>-0.336</ele>
        <time>2019-06-15T09:21:45Z</time>
      </trkpt>
      <trkpt lat="39.280639" lon="-0.326305">
        <ele>-0.287</ele>
        <time>2019-06-15T09:21:47Z</time>
      </trkpt>
      <trkpt lat="39.280580" lon="-0.326378">
        <ele>-0.142</ele>
        <time>2019-06-15T09:21:49Z</time>
      </trkpt>
      <trkpt lat="39.280539" lon="-0.326407">
        <ele>-0.126</ele>
        <time>2019-06-15T09:21:50Z</time>
      </trkpt>
      <trkpt lat="39.280464" lon="-0.326469">
        <ele>-0.508</ele>
        <time>2019-06-15T09:21:52Z</time>
      </trkpt>
      <trkpt lat="39.280425" lon="-0.326501">
        <ele>-0.781</ele>
        <time>2019-06-15T09:21:53Z</time>
      </trkpt>
      <trkpt lat="39.280387" lon="-0.326532">
        <ele>-0.815</ele>
        <time>2019-06-15T09:21:54Z</time>
      </trkpt>
      <trkpt lat="39.280306" lon="-0.326586">
        <ele>-1.084</ele>
        <time>2019-06-15T09:21:56Z</time>
      </trkpt>
      <trkpt lat="39.280265" lon="-0.326622">
        <ele>-1.027</ele>
        <time>2019-06-15T09:21:57Z</time>
      </trkpt>
      <trkpt lat="39.280217" lon="-0.326663">
        <ele>-1.039</ele>
        <time>2019-06-15T09:21:58Z</time>
      </trkpt>
      <trkpt lat="39.280175" lon="-0.326694">
        <ele>-1.036</ele>
        <time>2019-06-15T09:21:59Z</time>
      </trkpt>
      <trkpt lat="39.280113" lon="-0.326774">
        <ele>-1.095</ele>
        <time>2019-06-15T09:22:01Z</time>
      </trkpt>
      <trkpt lat="39.280048" lon="-0.326831">
        <ele>-1.070</ele>
        <time>2019-06-15T09:22:03Z</time>
      </trkpt>
      <trkpt lat="39.279977" lon="-0.326894">
        <ele>-1.055</ele>
        <time>2019-06-15T09:22:05Z</time>
      </trkpt>
      <trkpt lat="39.279912" lon="-0.326954">
        <ele>-1.007</ele>
        <time>2019-06-15T09:22:07Z</time>
      </trkpt>
      <trkpt lat="39.279843" lon="-0.327003">
        <ele>-1.017</ele>
        <time>2019-06-15T09:22:09Z</time>
      </trkpt>
      <trkpt lat="39.279796" lon="-0.327007">
        <ele>-1.008</ele>
        <time>2019-06-15T09:22:11Z</time>
      </trkpt>
      <trkpt lat="39.279721" lon="-0.326955">
        <ele>-1.028</ele>
        <time>2019-06-15T09:22:13Z</time>
      </trkpt>
      <trkpt lat="39.279699" lon="-0.326821">
        <ele>-0.582</ele>
        <time>2019-06-15T09:22:15Z</time>
      </trkpt>
      <trkpt lat="39.279671" lon="-0.326763">
        <ele>-0.391</ele>
        <time>2019-06-15T09:22:16Z</time>
      </trkpt>
      <trkpt lat="39.279655" lon="-0.326697">
        <ele>-0.144</ele>
        <time>2019-06-15T09:22:17Z</time>
      </trkpt>
      <trkpt lat="39.279638" lon="-0.326637">
        <ele>0.146</ele>
        <time>2019-06-15T09:22:18Z</time>
      </trkpt>
      <trkpt lat="39.279616" lon="-0.326573">
        <ele>0.383</ele>
        <time>2019-06-15T09:22:19Z</time>
      </trkpt>
      <trkpt lat="39.279600" lon="-0.326513">
        <ele>0.632</ele>
        <time>2019-06-15T09:22:20Z</time>
      </trkpt>
      <trkpt lat="39.279577" lon="-0.326454">
        <ele>0.877</ele>
        <time>2019-06-15T09:22:21Z</time>
      </trkpt>
      <trkpt lat="39.279561" lon="-0.326394">
        <ele>1.046</ele>
        <time>2019-06-15T09:22:22Z</time>
      </trkpt>
      <trkpt lat="39.279544" lon="-0.326336">
        <ele>0.988</ele>
        <time>2019-06-15T09:22:23Z</time>
      </trkpt>
      <trkpt lat="39.279522" lon="-0.326270">
        <ele>0.716</ele>
        <time>2019-06-15T09:22:24Z</time>
      </trkpt>
      <trkpt lat="39.279504" lon="-0.326201">
        <ele>0.508</ele>
        <time>2019-06-15T09:22:25Z</time>
      </trkpt>
      <trkpt lat="39.279482" lon="-0.326135">
        <ele>0.277</ele>
        <time>2019-06-15T09:22:26Z</time>
      </trkpt>
      <trkpt lat="39.279469" lon="-0.326059">
        <ele>-0.191</ele>
        <time>2019-06-15T09:22:27Z</time>
      </trkpt>
      <trkpt lat="39.279446" lon="-0.325983">
        <ele>-0.560</ele>
        <time>2019-06-15T09:22:28Z</time>
      </trkpt>
      <trkpt lat="39.279424" lon="-0.325914">
        <ele>-0.773</ele>
        <time>2019-06-15T09:22:29Z</time>
      </trkpt>
      <trkpt lat="39.279403" lon="-0.325838">
        <ele>-1.035</ele>
        <time>2019-06-15T09:22:30Z</time>
      </trkpt>
      <trkpt lat="39.279379" lon="-0.325765">
        <ele>-1.072</ele>
        <time>2019-06-15T09:22:31Z</time>
      </trkpt>
      <trkpt lat="39.279359" lon="-0.325692">
        <ele>-1.091</ele>
        <time>2019-06-15T09:22:32Z</time>
      </trkpt>
      <trkpt lat="39.279341" lon="-0.325614">
        <ele>-1.096</ele>
        <time>2019-06-15T09:22:33Z</time>
      </trkpt>
      <trkpt lat="39.279318" lon="-0.325536">
        <ele>-1.039</ele>
        <time>2019-06-15T09:22:34Z</time>
      </trkpt>
      <trkpt lat="39.279293" lon="-0.325456">
        <ele>-0.801</ele>
        <time>2019-06-15T09:22:35Z</time>
      </trkpt>
      <trkpt lat="39.279267" lon="-0.325382">
        <ele>-0.621</ele>
        <time>2019-06-15T09:22:36Z</time>
      </trkpt>
      <trkpt lat="39.279252" lon="-0.325314">
        <ele>-0.408</ele>
        <time>2019-06-15T09:22:37Z</time>
      </trkpt>
      <trkpt lat="39.279236" lon="-0.325237">
        <ele>-0.476</ele>
        <time>2019-06-15T09:22:38Z</time>
      </trkpt>
      <trkpt lat="39.279219" lon="-0.325148">
        <ele>-0.620</ele>
        <time>2019-06-15T09:22:39Z</time>
      </trkpt>
      <trkpt lat="39.279199" lon="-0.325067">
        <ele>-0.869</ele>
        <time>2019-06-15T09:22:40Z</time>
      </trkpt>
      <trkpt lat="39.279177" lon="-0.324981">
        <ele>-1.122</ele>
        <time>2019-06-15T09:22:41Z</time>
      </trkpt>
      <trkpt lat="39.279155" lon="-0.324900">
        <ele>-1.474</ele>
        <time>2019-06-15T09:22:42Z</time>
      </trkpt>
      <trkpt lat="39.279132" lon="-0.324820">
        <ele>-1.821</ele>
        <time>2019-06-15T09:22:43Z</time>
      </trkpt>
      <trkpt lat="39.279109" lon="-0.324744">
        <ele>-2.130</ele>
        <time>2019-06-15T09:22:44Z</time>
      </trkpt>
      <trkpt lat="39.279084" lon="-0.324660">
        <ele>-2.215</ele>
        <time>2019-06-15T09:22:45Z</time>
      </trkpt>
      <trkpt lat="39.279060" lon="-0.324576">
        <ele>-2.296</ele>
        <time>2019-06-15T09:22:46Z</time>
      </trkpt>
      <trkpt lat="39.279030" lon="-0.324502">
        <ele>-2.131</ele>
        <time>2019-06-15T09:22:47Z</time>
      </trkpt>
      <trkpt lat="39.279004" lon="-0.324417">
        <ele>-1.924</ele>
        <time>2019-06-15T09:22:48Z</time>
      </trkpt>
      <trkpt lat="39.278976" lon="-0.324338">
        <ele>-1.608</ele>
        <time>2019-06-15T09:22:49Z</time>
      </trkpt>
      <trkpt lat="39.278946" lon="-0.324262">
        <ele>-1.362</ele>
        <time>2019-06-15T09:22:50Z</time>
      </trkpt>
      <trkpt lat="39.278916" lon="-0.324176">
        <ele>-1.086</ele>
        <time>2019-06-15T09:22:51Z</time>
      </trkpt>
      <trkpt lat="39.278886" lon="-0.324101">
        <ele>-0.885</ele>
        <time>2019-06-15T09:22:52Z</time>
      </trkpt>
      <trkpt lat="39.278850" lon="-0.324026">
        <ele>-0.648</ele>
        <time>2019-06-15T09:22:53Z</time>
      </trkpt>
      <trkpt lat="39.278817" lon="-0.323948">
        <ele>-0.450</ele>
        <time>2019-06-15T09:22:54Z</time>
      </trkpt>
      <trkpt lat="39.278783" lon="-0.323871">
        <ele>-0.477</ele>
        <time>2019-06-15T09:22:55Z</time>
      </trkpt>
      <trkpt lat="39.278747" lon="-0.323796">
        <ele>-0.846</ele>
        <time>2019-06-15T09:22:56Z</time>
      </trkpt>
      <trkpt lat="39.278705" lon="-0.323727">
        <ele>-1.251</ele>
        <time>2019-06-15T09:22:57Z</time>
      </trkpt>
      <trkpt lat="39.278679" lon="-0.323644">
        <ele>-1.656</ele>
        <time>2019-06-15T09:22:58Z</time>
      </trkpt>
      <trkpt lat="39.278646" lon="-0.323562">
        <ele>-1.959</ele>
        <time>2019-06-15T09:22:59Z</time>
      </trkpt>
      <trkpt lat="39.278617" lon="-0.323478">
        <ele>-2.014</ele>
        <time>2019-06-15T09:23:00Z</time>
      </trkpt>
      <trkpt lat="39.278584" lon="-0.323398">
        <ele>-2.008</ele>
        <time>2019-06-15T09:23:01Z</time>
      </trkpt>
      <trkpt lat="39.278552" lon="-0.323315">
        <ele>-2.058</ele>
        <time>2019-06-15T09:23:02Z</time>
      </trkpt>
      <trkpt lat="39.278524" lon="-0.323223">
        <ele>-1.972</ele>
        <time>2019-06-15T09:23:03Z</time>
      </trkpt>
      <trkpt lat="39.278492" lon="-0.323151">
        <ele>-1.781</ele>
        <time>2019-06-15T09:23:04Z</time>
      </trkpt>
      <trkpt lat="39.278458" lon="-0.323070">
        <ele>-1.534</ele>
        <time>2019-06-15T09:23:05Z</time>
      </trkpt>
      <trkpt lat="39.278424" lon="-0.322984">
        <ele>-1.066</ele>
        <time>2019-06-15T09:23:06Z</time>
      </trkpt>
      <trkpt lat="39.278376" lon="-0.322858">
        <ele>-0.373</ele>
        <time>2019-06-15T09:23:08Z</time>
      </trkpt>
      <trkpt lat="39.278346" lon="-0.322790">
        <ele>-0.022</ele>
        <time>2019-06-15T09:23:09Z</time>
      </trkpt>
      <trkpt lat="39.278310" lon="-0.322712">
        <ele>0.037</ele>
        <time>2019-06-15T09:23:10Z</time>
      </trkpt>
      <trkpt lat="39.278280" lon="-0.322629">
        <ele>-0.087</ele>
        <time>2019-06-15T09:23:11Z</time>
      </trkpt>
      <trkpt lat="39.278248" lon="-0.322539">
        <ele>-0.242</ele>
        <time>2019-06-15T09:23:12Z</time>
      </trkpt>
      <trkpt lat="39.278210" lon="-0.322455">
        <ele>-0.626</ele>
        <time>2019-06-15T09:23:13Z</time>
      </trkpt>
      <trkpt lat="39.278177" lon="-0.322370">
        <ele>-1.008</ele>
        <time>2019-06-15T09:23:14Z</time>
      </trkpt>
      <trkpt lat="39.278147" lon="-0.322285">
        <ele>-1.441</ele>
        <time>2019-06-15T09:23:15Z</time>
      </trkpt>
      <trkpt lat="39.278112" lon="-0.322216">
        <ele>-1.845</ele>
        <time>2019-06-15T09:23:16Z</time>
      </trkpt>
      <trkpt lat="39.278087" lon="-0.322140">
        <ele>-1.624</ele>
        <time>2019-06-15T09:23:17Z</time>
      </trkpt>
      <trkpt lat="39.278053" lon="-0.322062">
        <ele>-1.497</ele>
        <time>2019-06-15T09:23:18Z</time>
      </trkpt>
      <trkpt lat="39.278024" lon="-0.321982">
        <ele>-1.229</ele>
        <time>2019-06-15T09:23:19Z</time>
      </trkpt>
      <trkpt lat="39.278000" lon="-0.321889">
        <ele>-1.256</ele>
        <time>2019-06-15T09:23:20Z</time>
      </trkpt>
      <trkpt lat="39.277982" lon="-0.321798">
        <ele>-1.135</ele>
        <time>2019-06-15T09:23:21Z</time>
      </trkpt>
      <trkpt lat="39.277968" lon="-0.321713">
        <ele>-1.160</ele>
        <time>2019-06-15T09:23:22Z</time>
      </trkpt>
      <trkpt lat="39.277951" lon="-0.321620">
        <ele>-1.017</ele>
        <time>2019-06-15T09:23:23Z</time>
      </trkpt>
      <trkpt lat="39.277931" lon="-0.321528">
        <ele>-1.087</ele>
        <time>2019-06-15T09:23:24Z</time>
      </trkpt>
      <trkpt lat="39.277910" lon="-0.321443">
        <ele>-1.015</ele>
        <time>2019-06-15T09:23:25Z</time>
      </trkpt>
      <trkpt lat="39.277893" lon="-0.321353">
        <ele>-1.108</ele>
        <time>2019-06-15T09:23:26Z</time>
      </trkpt>
      <trkpt lat="39.277882" lon="-0.321266">
        <ele>-1.244</ele>
        <time>2019-06-15T09:23:27Z</time>
      </trkpt>
      <trkpt lat="39.277865" lon="-0.321172">
        <ele>-1.268</ele>
        <time>2019-06-15T09:23:28Z</time>
      </trkpt>
      <trkpt lat="39.277849" lon="-0.321074">
        <ele>-1.367</ele>
        <time>2019-06-15T09:23:29Z</time>
      </trkpt>
      <trkpt lat="39.277828" lon="-0.320984">
        <ele>-1.210</ele>
        <time>2019-06-15T09:23:30Z</time>
      </trkpt>
      <trkpt lat="39.277808" lon="-0.320897">
        <ele>-1.112</ele>
        <time>2019-06-15T09:23:31Z</time>
      </trkpt>
      <trkpt lat="39.277778" lon="-0.320809">
        <ele>-1.159</ele>
        <time>2019-06-15T09:23:32Z</time>
      </trkpt>
      <trkpt lat="39.277750" lon="-0.320718">
        <ele>-1.518</ele>
        <time>2019-06-15T09:23:33Z</time>
      </trkpt>
      <trkpt lat="39.277723" lon="-0.320627">
        <ele>-1.863</ele>
        <time>2019-06-15T09:23:34Z</time>
      </trkpt>
      <trkpt lat="39.277694" lon="-0.320542">
        <ele>-2.074</ele>
        <time>2019-06-15T09:23:35Z</time>
      </trkpt>
      <trkpt lat="39.277653" lon="-0.320462">
        <ele>-2.056</ele>
        <time>2019-06-15T09:23:36Z</time>
      </trkpt>
      <trkpt lat="39.277636" lon="-0.320377">
        <ele>-2.021</ele>
        <time>2019-06-15T09:23:37Z</time>
      </trkpt>
      <trkpt lat="39.277625" lon="-0.320286">
        <ele>-2.008</ele>
        <time>2019-06-15T09:23:38Z</time>
      </trkpt>
      <trkpt lat="39.277645" lon="-0.320193">
        <ele>-2.210</ele>
        <time>2019-06-15T09:23:39Z</time>
      </trkpt>
      <trkpt lat="39.277687" lon="-0.320110">
        <ele>-2.464</ele>
        <time>2019-06-15T09:23:40Z</time>
      </trkpt>
      <trkpt lat="39.277745" lon="-0.320046">
        <ele>-2.793</ele>
        <time>2019-06-15T09:23:41Z</time>
      </trkpt>
      <trkpt lat="39.277804" lon="-0.319992">
        <ele>-3.046</ele>
        <time>2019-06-15T09:23:42Z</time>
      </trkpt>
      <trkpt lat="39.277854" lon="-0.319923">
        <ele>-2.868</ele>
        <time>2019-06-15T09:23:43Z</time>
      </trkpt>
      <trkpt lat="39.277894" lon="-0.319852">
        <ele>-2.715</ele>
        <time>2019-06-15T09:23:44Z</time>
      </trkpt>
      <trkpt lat="39.277896" lon="-0.319748">
        <ele>-2.554</ele>
        <time>2019-06-15T09:23:45Z</time>
      </trkpt>
      <trkpt lat="39.277889" lon="-0.319653">
        <ele>-2.349</ele>
        <time>2019-06-15T09:23:46Z</time>
      </trkpt>
      <trkpt lat="39.277866" lon="-0.319567">
        <ele>-1.954</ele>
        <time>2019-06-15T09:23:47Z</time>
      </trkpt>
      <trkpt lat="39.277844" lon="-0.319482">
        <ele>-1.656</ele>
        <time>2019-06-15T09:23:48Z</time>
      </trkpt>
      <trkpt lat="39.277821" lon="-0.319402">
        <ele>-1.311</ele>
        <time>2019-06-15T09:23:49Z</time>
      </trkpt>
      <trkpt lat="39.277793" lon="-0.319325">
        <ele>-1.108</ele>
        <time>2019-06-15T09:23:50Z</time>
      </trkpt>
      <trkpt lat="39.277763" lon="-0.319239">
        <ele>-1.148</ele>
        <time>2019-06-15T09:23:51Z</time>
      </trkpt>
      <trkpt lat="39.277735" lon="-0.319154">
        <ele>-1.332</ele>
        <time>2019-06-15T09:23:52Z</time>
      </trkpt>
      <trkpt lat="39.277708" lon="-0.319070">
        <ele>-1.291</ele>
        <time>2019-06-15T09:23:53Z</time>
      </trkpt>
      <trkpt lat="39.277681" lon="-0.318978">
        <ele>-1.094</ele>
        <time>2019-06-15T09:23:54Z</time>
      </trkpt>
      <trkpt lat="39.277649" lon="-0.318899">
        <ele>-1.026</ele>
        <time>2019-06-15T09:23:55Z</time>
      </trkpt>
      <trkpt lat="39.277622" lon="-0.318812">
        <ele>-0.723</ele>
        <time>2019-06-15T09:23:56Z</time>
      </trkpt>
      <trkpt lat="39.277594" lon="-0.318728">
        <ele>-0.472</ele>
        <time>2019-06-15T09:23:57Z</time>
      </trkpt>
      <trkpt lat="39.277570" lon="-0.318643">
        <ele>0.187</ele>
        <time>2019-06-15T09:23:58Z</time>
      </trkpt>
      <trkpt lat="39.277543" lon="-0.318562">
        <ele>0.186</ele>
        <time>2019-06-15T09:23:59Z</time>
      </trkpt>
      <trkpt lat="39.277515" lon="-0.318477">
        <ele>0.060</ele>
        <time>2019-06-15T09:24:00Z</time>
      </trkpt>
      <trkpt lat="39.277489" lon="-0.318391">
        <ele>-0.026</ele>
        <time>2019-06-15T09:24:01Z</time>
      </trkpt>
      <trkpt lat="39.277462" lon="-0.318306">
        <ele>-0.108</ele>
        <time>2019-06-15T09:24:02Z</time>
      </trkpt>
      <trkpt lat="39.277432" lon="-0.318221">
        <ele>-0.151</ele>
        <time>2019-06-15T09:24:03Z</time>
      </trkpt>
      <trkpt lat="39.277405" lon="-0.318140">
        <ele>-0.165</ele>
        <time>2019-06-15T09:24:04Z</time>
      </trkpt>
      <trkpt lat="39.277384" lon="-0.318056">
        <ele>-0.034</ele>
        <time>2019-06-15T09:24:05Z</time>
      </trkpt>
      <trkpt lat="39.277356" lon="-0.317974">
        <ele>0.067</ele>
        <time>2019-06-15T09:24:06Z</time>
      </trkpt>
      <trkpt lat="39.277327" lon="-0.317893">
        <ele>0.019</ele>
        <time>2019-06-15T09:24:07Z</time>
      </trkpt>
      <trkpt lat="39.277303" lon="-0.317808">
        <ele>0.066</ele>
        <time>2019-06-15T09:24:08Z</time>
      </trkpt>
      <trkpt lat="39.277274" lon="-0.317727">
        <ele>-0.035</ele>
        <time>2019-06-15T09:24:09Z</time>
      </trkpt>
      <trkpt lat="39.277246" lon="-0.317653">
        <ele>-0.040</ele>
        <time>2019-06-15T09:24:10Z</time>
      </trkpt>
      <trkpt lat="39.277217" lon="-0.317566">
        <ele>0.028</ele>
        <time>2019-06-15T09:24:11Z</time>
      </trkpt>
      <trkpt lat="39.277191" lon="-0.317483">
        <ele>-0.189</ele>
        <time>2019-06-15T09:24:12Z</time>
      </trkpt>
      <trkpt lat="39.277165" lon="-0.317396">
        <ele>-0.317</ele>
        <time>2019-06-15T09:24:13Z</time>
      </trkpt>
      <trkpt lat="39.277141" lon="-0.317310">
        <ele>-0.508</ele>
        <time>2019-06-15T09:24:14Z</time>
      </trkpt>
      <trkpt lat="39.277108" lon="-0.317221">
        <ele>-0.615</ele>
        <time>2019-06-15T09:24:15Z</time>
      </trkpt>
      <trkpt lat="39.277079" lon="-0.317135">
        <ele>-1.099</ele>
        <time>2019-06-15T09:24:16Z</time>
      </trkpt>
      <trkpt lat="39.277054" lon="-0.317056">
        <ele>-1.458</ele>
        <time>2019-06-15T09:24:17Z</time>
      </trkpt>
      <trkpt lat="39.277028" lon="-0.316969">
        <ele>-1.971</ele>
        <time>2019-06-15T09:24:18Z</time>
      </trkpt>
      <trkpt lat="39.277003" lon="-0.316888">
        <ele>-2.053</ele>
        <time>2019-06-15T09:24:19Z</time>
      </trkpt>
      <trkpt lat="39.276972" lon="-0.316805">
        <ele>-2.070</ele>
        <time>2019-06-15T09:24:20Z</time>
      </trkpt>
      <trkpt lat="39.276945" lon="-0.316723">
        <ele>-2.059</ele>
        <time>2019-06-15T09:24:21Z</time>
      </trkpt>
      <trkpt lat="39.276922" lon="-0.316645">
        <ele>-2.124</ele>
        <time>2019-06-15T09:24:22Z</time>
      </trkpt>
      <trkpt lat="39.276897" lon="-0.316566">
        <ele>-2.183</ele>
        <time>2019-06-15T09:24:23Z</time>
      </trkpt>
      <trkpt lat="39.276863" lon="-0.316494">
        <ele>-2.125</ele>
        <time>2019-06-15T09:24:24Z</time>
      </trkpt>
      <trkpt lat="39.276842" lon="-0.316421">
        <ele>-2.017</ele>
        <time>2019-06-15T09:24:25Z</time>
      </trkpt>
      <trkpt lat="39.276821" lon="-0.316352">
        <ele>-1.908</ele>
        <time>2019-06-15T09:24:26Z</time>
      </trkpt>
      <trkpt lat="39.276789" lon="-0.316277">
        <ele>-1.871</ele>
        <time>2019-06-15T09:24:27Z</time>
      </trkpt>
      <trkpt lat="39.276754" lon="-0.316212">
        <ele>-1.685</ele>
        <time>2019-06-15T09:24:28Z</time>
      </trkpt>
      <trkpt lat="39.276722" lon="-0.316150">
        <ele>-1.364</ele>
        <time>2019-06-15T09:24:29Z</time>
      </trkpt>
      <trkpt lat="39.276697" lon="-0.316086">
        <ele>-1.257</ele>
        <time>2019-06-15T09:24:30Z</time>
      </trkpt>
      <trkpt lat="39.276672" lon="-0.316009">
        <ele>-1.499</ele>
        <time>2019-06-15T09:24:31Z</time>
      </trkpt>
      <trkpt lat="39.276641" lon="-0.315935">
        <ele>-1.516</ele>
        <time>2019-06-15T09:24:32Z</time>
      </trkpt>
      <trkpt lat="39.276619" lon="-0.315854">
        <ele>-1.665</ele>
        <time>2019-06-15T09:24:33Z</time>
      </trkpt>
      <trkpt lat="39.276589" lon="-0.315774">
        <ele>-1.390</ele>
        <time>2019-06-15T09:24:34Z</time>
      </trkpt>
      <trkpt lat="39.276565" lon="-0.315690">
        <ele>-0.925</ele>
        <time>2019-06-15T09:24:35Z</time>
      </trkpt>
      <trkpt lat="39.276542" lon="-0.315607">
        <ele>-0.726</ele>
        <time>2019-06-15T09:24:36Z</time>
      </trkpt>
      <trkpt lat="39.276521" lon="-0.315535">
        <ele>-0.508</ele>
        <time>2019-06-15T09:24:37Z</time>
      </trkpt>
      <trkpt lat="39.276495" lon="-0.315456">
        <ele>-0.408</ele>
        <time>2019-06-15T09:24:38Z</time>
      </trkpt>
      <trkpt lat="39.276466" lon="-0.315373">
        <ele>-0.325</ele>
        <time>2019-06-15T09:24:39Z</time>
      </trkpt>
      <trkpt lat="39.276437" lon="-0.315291">
        <ele>-0.289</ele>
        <time>2019-06-15T09:24:40Z</time>
      </trkpt>
      <trkpt lat="39.276400" lon="-0.315217">
        <ele>-0.048</ele>
        <time>2019-06-15T09:24:41Z</time>
      </trkpt>
      <trkpt lat="39.276364" lon="-0.315157">
        <ele>0.061</ele>
        <time>2019-06-15T09:24:42Z</time>
      </trkpt>
      <trkpt lat="39.276325" lon="-0.315093">
        <ele>0.063</ele>
        <time>2019-06-15T09:24:43Z</time>
      </trkpt>
      <trkpt lat="39.276269" lon="-0.315042">
        <ele>0.010</ele>
        <time>2019-06-15T09:24:44Z</time>
      </trkpt>
      <trkpt lat="39.276209" lon="-0.314989">
        <ele>0.019</ele>
        <time>2019-06-15T09:24:45Z</time>
      </trkpt>
      <trkpt lat="39.276150" lon="-0.314940">
        <ele>0.024</ele>
        <time>2019-06-15T09:24:46Z</time>
      </trkpt>
      <trkpt lat="39.276098" lon="-0.314897">
        <ele>0.055</ele>
        <time>2019-06-15T09:24:47Z</time>
      </trkpt>
      <trkpt lat="39.276045" lon="-0.314850">
        <ele>0.107</ele>
        <time>2019-06-15T09:24:48Z</time>
      </trkpt>
      <trkpt lat="39.275990" lon="-0.314801">
        <ele>0.317</ele>
        <time>2019-06-15T09:24:49Z</time>
      </trkpt>
      <trkpt lat="39.275936" lon="-0.314763">
        <ele>0.508</ele>
        <time>2019-06-15T09:24:50Z</time>
      </trkpt>
      <trkpt lat="39.275877" lon="-0.314722">
        <ele>0.848</ele>
        <time>2019-06-15T09:24:51Z</time>
      </trkpt>
      <trkpt lat="39.275821" lon="-0.314667">
        <ele>1.032</ele>
        <time>2019-06-15T09:24:52Z</time>
      </trkpt>
      <trkpt lat="39.275764" lon="-0.314628">
        <ele>1.021</ele>
        <time>2019-06-15T09:24:53Z</time>
      </trkpt>
      <trkpt lat="39.275711" lon="-0.314576">
        <ele>1.074</ele>
        <time>2019-06-15T09:24:54Z</time>
      </trkpt>
      <trkpt lat="39.275665" lon="-0.314514">
        <ele>1.096</ele>
        <time>2019-06-15T09:24:55Z</time>
      </trkpt>
      <trkpt lat="39.275604" lon="-0.314470">
        <ele>1.033</ele>
        <time>2019-06-15T09:24:56Z</time>
      </trkpt>
      <trkpt lat="39.275546" lon="-0.314416">
        <ele>0.962</ele>
        <time>2019-06-15T09:24:57Z</time>
      </trkpt>
      <trkpt lat="39.275497" lon="-0.314367">
        <ele>0.737</ele>
        <time>2019-06-15T09:24:58Z</time>
      </trkpt>
      <trkpt lat="39.275443" lon="-0.314319">
        <ele>0.543</ele>
        <time>2019-06-15T09:24:59Z</time>
      </trkpt>
      <trkpt lat="39.275392" lon="-0.314258">
        <ele>0.364</ele>
        <time>2019-06-15T09:25:00Z</time>
      </trkpt>
      <trkpt lat="39.275322" lon="-0.314294">
        <ele>0.510</ele>
        <time>2019-06-15T09:25:01Z</time>
      </trkpt>
      <trkpt lat="39.275279" lon="-0.314232">
        <ele>0.208</ele>
        <time>2019-06-15T09:25:02Z</time>
      </trkpt>
      <trkpt lat="39.275217" lon="-0.314189">
        <ele>0.357</ele>
        <time>2019-06-15T09:25:03Z</time>
      </trkpt>
      <trkpt lat="39.275155" lon="-0.314144">
        <ele>0.481</ele>
        <time>2019-06-15T09:25:04Z</time>
      </trkpt>
      <trkpt lat="39.275103" lon="-0.314102">
        <ele>0.550</ele>
        <time>2019-06-15T09:25:05Z</time>
      </trkpt>
      <trkpt lat="39.275051" lon="-0.314065">
        <ele>0.523</ele>
        <time>2019-06-15T09:25:06Z</time>
      </trkpt>
      <trkpt lat="39.274991" lon="-0.314023">
        <ele>0.585</ele>
        <time>2019-06-15T09:25:07Z</time>
      </trkpt>
      <trkpt lat="39.274936" lon="-0.313990">
        <ele>0.352</ele>
        <time>2019-06-15T09:25:08Z</time>
      </trkpt>
      <trkpt lat="39.274891" lon="-0.313950">
        <ele>0.111</ele>
        <time>2019-06-15T09:25:09Z</time>
      </trkpt>
      <trkpt lat="39.274840" lon="-0.313915">
        <ele>0.046</ele>
        <time>2019-06-15T09:25:10Z</time>
      </trkpt>
      <trkpt lat="39.274789" lon="-0.313876">
        <ele>-0.184</ele>
        <time>2019-06-15T09:25:11Z</time>
      </trkpt>
      <trkpt lat="39.274746" lon="-0.313838">
        <ele>-0.407</ele>
        <time>2019-06-15T09:25:12Z</time>
      </trkpt>
      <trkpt lat="39.274694" lon="-0.313816">
        <ele>-0.717</ele>
        <time>2019-06-15T09:25:13Z</time>
      </trkpt>
      <trkpt lat="39.274650" lon="-0.313794">
        <ele>-1.108</ele>
        <time>2019-06-15T09:25:14Z</time>
      </trkpt>
      <trkpt lat="39.274596" lon="-0.313766">
        <ele>-1.691</ele>
        <time>2019-06-15T09:25:15Z</time>
      </trkpt>
      <trkpt lat="39.274543" lon="-0.313729">
        <ele>-2.195</ele>
        <time>2019-06-15T09:25:16Z</time>
      </trkpt>
      <trkpt lat="39.274490" lon="-0.313692">
        <ele>-2.554</ele>
        <time>2019-06-15T09:25:17Z</time>
      </trkpt>
      <trkpt lat="39.274429" lon="-0.313667">
        <ele>-2.857</ele>
        <time>2019-06-15T09:25:18Z</time>
      </trkpt>
      <trkpt lat="39.274376" lon="-0.313634">
        <ele>-2.969</ele>
        <time>2019-06-15T09:25:19Z</time>
      </trkpt>
      <trkpt lat="39.274309" lon="-0.313612">
        <ele>-3.066</ele>
        <time>2019-06-15T09:25:20Z</time>
      </trkpt>
      <trkpt lat="39.274261" lon="-0.313582">
        <ele>-2.945</ele>
        <time>2019-06-15T09:25:21Z</time>
      </trkpt>
      <trkpt lat="39.274214" lon="-0.313568">
        <ele>-2.910</ele>
        <time>2019-06-15T09:25:22Z</time>
      </trkpt>
      <trkpt lat="39.274162" lon="-0.313540">
        <ele>-2.739</ele>
        <time>2019-06-15T09:25:23Z</time>
      </trkpt>
      <trkpt lat="39.274112" lon="-0.313510">
        <ele>-2.601</ele>
        <time>2019-06-15T09:25:24Z</time>
      </trkpt>
      <trkpt lat="39.274059" lon="-0.313493">
        <ele>-2.621</ele>
        <time>2019-06-15T09:25:25Z</time>
      </trkpt>
      <trkpt lat="39.274012" lon="-0.313463">
        <ele>-2.508</ele>
        <time>2019-06-15T09:25:26Z</time>
      </trkpt>
      <trkpt lat="39.273966" lon="-0.313437">
        <ele>-2.486</ele>
        <time>2019-06-15T09:25:27Z</time>
      </trkpt>
      <trkpt lat="39.273919" lon="-0.313402">
        <ele>-2.230</ele>
        <time>2019-06-15T09:25:28Z</time>
      </trkpt>
      <trkpt lat="39.273865" lon="-0.313378">
        <ele>-2.289</ele>
        <time>2019-06-15T09:25:29Z</time>
      </trkpt>
      <trkpt lat="39.273815" lon="-0.313348">
        <ele>-2.182</ele>
        <time>2019-06-15T09:25:30Z</time>
      </trkpt>
      <trkpt lat="39.273764" lon="-0.313312">
        <ele>-2.034</ele>
        <time>2019-06-15T09:25:31Z</time>
      </trkpt>
      <trkpt lat="39.273717" lon="-0.313272">
        <ele>-2.091</ele>
        <time>2019-06-15T09:25:32Z</time>
      </trkpt>
      <trkpt lat="39.273672" lon="-0.313235">
        <ele>-2.070</ele>
        <time>2019-06-15T09:25:33Z</time>
      </trkpt>
      <trkpt lat="39.273627" lon="-0.313207">
        <ele>-2.035</ele>
        <time>2019-06-15T09:25:34Z</time>
      </trkpt>
      <trkpt lat="39.273578" lon="-0.313176">
        <ele>-2.298</ele>
        <time>2019-06-15T09:25:35Z</time>
      </trkpt>
      <trkpt lat="39.273528" lon="-0.313146">
        <ele>-2.515</ele>
        <time>2019-06-15T09:25:36Z</time>
      </trkpt>
      <trkpt lat="39.273479" lon="-0.313115">
        <ele>-2.826</ele>
        <time>2019-06-15T09:25:37Z</time>
      </trkpt>
      <trkpt lat="39.273430" lon="-0.313086">
        <ele>-3.208</ele>
        <time>2019-06-15T09:25:38Z</time>
      </trkpt>
      <trkpt lat="39.273380" lon="-0.313055">
        <ele>-3.782</ele>
        <time>2019-06-15T09:25:39Z</time>
      </trkpt>
      <trkpt lat="39.273336" lon="-0.313026">
        <ele>-3.956</ele>
        <time>2019-06-15T09:25:40Z</time>
      </trkpt>
      <trkpt lat="39.273290" lon="-0.312996">
        <ele>-3.785</ele>
        <time>2019-06-15T09:25:41Z</time>
      </trkpt>
      <trkpt lat="39.273244" lon="-0.312963">
        <ele>-3.518</ele>
        <time>2019-06-15T09:25:42Z</time>
      </trkpt>
      <trkpt lat="39.273194" lon="-0.312933">
        <ele>-3.340</ele>
        <time>2019-06-15T09:25:43Z</time>
      </trkpt>
      <trkpt lat="39.273145" lon="-0.312905">
        <ele>-3.137</ele>
        <time>2019-06-15T09:25:44Z</time>
      </trkpt>
      <trkpt lat="39.273097" lon="-0.312873">
        <ele>-3.176</ele>
        <time>2019-06-15T09:25:45Z</time>
      </trkpt>
      <trkpt lat="39.273047" lon="-0.312835">
        <ele>-3.011</ele>
        <time>2019-06-15T09:25:46Z</time>
      </trkpt>
      <trkpt lat="39.273005" lon="-0.312797">
        <ele>-2.811</ele>
        <time>2019-06-15T09:25:47Z</time>
      </trkpt>
      <trkpt lat="39.272957" lon="-0.312774">
        <ele>-2.621</ele>
        <time>2019-06-15T09:25:48Z</time>
      </trkpt>
      <trkpt lat="39.272913" lon="-0.312748">
        <ele>-2.403</ele>
        <time>2019-06-15T09:25:49Z</time>
      </trkpt>
      <trkpt lat="39.272863" lon="-0.312721">
        <ele>-2.208</ele>
        <time>2019-06-15T09:25:50Z</time>
      </trkpt>
      <trkpt lat="39.272811" lon="-0.312695">
        <ele>-2.114</ele>
        <time>2019-06-15T09:25:51Z</time>
      </trkpt>
      <trkpt lat="39.272761" lon="-0.312671">
        <ele>-2.038</ele>
        <time>2019-06-15T09:25:52Z</time>
      </trkpt>
      <trkpt lat="39.272714" lon="-0.312637">
        <ele>-2.087</ele>
        <time>2019-06-15T09:25:53Z</time>
      </trkpt>
      <trkpt lat="39.272665" lon="-0.312610">
        <ele>-2.080</ele>
        <time>2019-06-15T09:25:54Z</time>
      </trkpt>
      <trkpt lat="39.272620" lon="-0.312588">
        <ele>-2.012</ele>
        <time>2019-06-15T09:25:55Z</time>
      </trkpt>
      <trkpt lat="39.272572" lon="-0.312556">
        <ele>-2.069</ele>
        <time>2019-06-15T09:25:56Z</time>
      </trkpt>
      <trkpt lat="39.272525" lon="-0.312521">
        <ele>-2.038</ele>
        <time>2019-06-15T09:25:57Z</time>
      </trkpt>
      <trkpt lat="39.272477" lon="-0.312488">
        <ele>-2.023</ele>
        <time>2019-06-15T09:25:58Z</time>
      </trkpt>
      <trkpt lat="39.272433" lon="-0.312457">
        <ele>-2.021</ele>
        <time>2019-06-15T09:25:59Z</time>
      </trkpt>
      <trkpt lat="39.272390" lon="-0.312427">
        <ele>-2.041</ele>
        <time>2019-06-15T09:26:00Z</time>
      </trkpt>
      <trkpt lat="39.272346" lon="-0.312402">
        <ele>-2.005</ele>
        <time>2019-06-15T09:26:01Z</time>
      </trkpt>
      <trkpt lat="39.272304" lon="-0.312369">
        <ele>-2.008</ele>
        <time>2019-06-15T09:26:02Z</time>
      </trkpt>
      <trkpt lat="39.272265" lon="-0.312339">
        <ele>-2.055</ele>
        <time>2019-06-15T09:26:03Z</time>
      </trkpt>
      <trkpt lat="39.272220" lon="-0.312313">
        <ele>-2.089</ele>
        <time>2019-06-15T09:26:04Z</time>
      </trkpt>
      <trkpt lat="39.272170" lon="-0.312280">
        <ele>-1.938</ele>
        <time>2019-06-15T09:26:05Z</time>
      </trkpt>
      <trkpt lat="39.272120" lon="-0.312248">
        <ele>-1.721</ele>
        <time>2019-06-15T09:26:06Z</time>
      </trkpt>
      <trkpt lat="39.272072" lon="-0.312218">
        <ele>-1.543</ele>
        <time>2019-06-15T09:26:07Z</time>
      </trkpt>
      <trkpt lat="39.272024" lon="-0.312188">
        <ele>-1.360</ele>
        <time>2019-06-15T09:26:08Z</time>
      </trkpt>
      <trkpt lat="39.271972" lon="-0.312159">
        <ele>-1.119</ele>
        <time>2019-06-15T09:26:09Z</time>
      </trkpt>
      <trkpt lat="39.271924" lon="-0.312127">
        <ele>-1.034</ele>
        <time>2019-06-15T09:26:10Z</time>
      </trkpt>
      <trkpt lat="39.271876" lon="-0.312099">
        <ele>-1.086</ele>
        <time>2019-06-15T09:26:11Z</time>
      </trkpt>
      <trkpt lat="39.271827" lon="-0.312074">
        <ele>-1.060</ele>
        <time>2019-06-15T09:26:12Z</time>
      </trkpt>
      <trkpt lat="39.271780" lon="-0.312048">
        <ele>-1.026</ele>
        <time>2019-06-15T09:26:13Z</time>
      </trkpt>
      <trkpt lat="39.271728" lon="-0.312017">
        <ele>-1.008</ele>
        <time>2019-06-15T09:26:14Z</time>
      </trkpt>
      <trkpt lat="39.271681" lon="-0.311990">
        <ele>-1.021</ele>
        <time>2019-06-15T09:26:15Z</time>
      </trkpt>
      <trkpt lat="39.271634" lon="-0.311957">
        <ele>-1.045</ele>
        <time>2019-06-15T09:26:16Z</time>
      </trkpt>
      <trkpt lat="39.271587" lon="-0.311927">
        <ele>-1.044</ele>
        <time>2019-06-15T09:26:17Z</time>
      </trkpt>
      <trkpt lat="39.271540" lon="-0.311892">
        <ele>-1.027</ele>
        <time>2019-06-15T09:26:18Z</time>
      </trkpt>
      <trkpt lat="39.271491" lon="-0.311866">
        <ele>-1.089</ele>
        <time>2019-06-15T09:26:19Z</time>
      </trkpt>
      <trkpt lat="39.271442" lon="-0.311843">
        <ele>-1.066</ele>
        <time>2019-06-15T09:26:20Z</time>
      </trkpt>
      <trkpt lat="39.271397" lon="-0.311820">
        <ele>-1.025</ele>
        <time>2019-06-15T09:26:21Z</time>
      </trkpt>
      <trkpt lat="39.271353" lon="-0.311789">
        <ele>-1.120</ele>
        <time>2019-06-15T09:26:22Z</time>
      </trkpt>
      <trkpt lat="39.271307" lon="-0.311763">
        <ele>-1.357</ele>
        <time>2019-06-15T09:26:23Z</time>
      </trkpt>
      <trkpt lat="39.271264" lon="-0.311740">
        <ele>-1.400</ele>
        <time>2019-06-15T09:26:24Z</time>
      </trkpt>
      <trkpt lat="39.271215" lon="-0.311714">
        <ele>-1.620</ele>
        <time>2019-06-15T09:26:25Z</time>
      </trkpt>
      <trkpt lat="39.271169" lon="-0.311683">
        <ele>-1.808</ele>
        <time>2019-06-15T09:26:26Z</time>
      </trkpt>
      <trkpt lat="39.271125" lon="-0.311659">
        <ele>-1.958</ele>
        <time>2019-06-15T09:26:27Z</time>
      </trkpt>
      <trkpt lat="39.271080" lon="-0.311628">
        <ele>-1.942</ele>
        <time>2019-06-15T09:26:28Z</time>
      </trkpt>
      <trkpt lat="39.271035" lon="-0.311596">
        <ele>-1.821</ele>
        <time>2019-06-15T09:26:29Z</time>
      </trkpt>
      <trkpt lat="39.270986" lon="-0.311561">
        <ele>-1.734</ele>
        <time>2019-06-15T09:26:30Z</time>
      </trkpt>
      <trkpt lat="39.270934" lon="-0.311526">
        <ele>-1.716</ele>
        <time>2019-06-15T09:26:31Z</time>
      </trkpt>
      <trkpt lat="39.270888" lon="-0.311493">
        <ele>-1.783</ele>
        <time>2019-06-15T09:26:32Z</time>
      </trkpt>
      <trkpt lat="39.270848" lon="-0.311462">
        <ele>-1.822</ele>
        <time>2019-06-15T09:26:33Z</time>
      </trkpt>
      <trkpt lat="39.270795" lon="-0.311413">
        <ele>-1.927</ele>
        <time>2019-06-15T09:26:35Z</time>
      </trkpt>
      <trkpt lat="39.270736" lon="-0.311385">
        <ele>-2.085</ele>
        <time>2019-06-15T09:26:49Z</time>
      </trkpt>
      <trkpt lat="39.270696" lon="-0.311442">
        <ele>-1.889</ele>
        <time>2019-06-15T09:26:51Z</time>
      </trkpt>
      <trkpt lat="39.270661" lon="-0.311483">
        <ele>-1.717</ele>
        <time>2019-06-15T09:26:53Z</time>
      </trkpt>
      <trkpt lat="39.270599" lon="-0.311514">
        <ele>-1.608</ele>
        <time>2019-06-15T09:26:55Z</time>
      </trkpt>
      <trkpt lat="39.270542" lon="-0.311549">
        <ele>-1.571</ele>
        <time>2019-06-15T09:26:57Z</time>
      </trkpt>
      <trkpt lat="39.270499" lon="-0.311596">
        <ele>-1.675</ele>
        <time>2019-06-15T09:26:58Z</time>
      </trkpt>
      <trkpt lat="39.270460" lon="-0.311632">
        <ele>-1.714</ele>
        <time>2019-06-15T09:26:59Z</time>
      </trkpt>
      <trkpt lat="39.270391" lon="-0.311702">
        <ele>-2.147</ele>
        <time>2019-06-15T09:27:01Z</time>
      </trkpt>
      <trkpt lat="39.270347" lon="-0.311737">
        <ele>-2.389</ele>
        <time>2019-06-15T09:27:02Z</time>
      </trkpt>
      <trkpt lat="39.270277" lon="-0.311811">
        <ele>-2.566</ele>
        <time>2019-06-15T09:27:04Z</time>
      </trkpt>
      <trkpt lat="39.270207" lon="-0.311872">
        <ele>-2.385</ele>
        <time>2019-06-15T09:27:06Z</time>
      </trkpt>
      <trkpt lat="39.270172" lon="-0.311910">
        <ele>-2.140</ele>
        <time>2019-06-15T09:27:07Z</time>
      </trkpt>
      <trkpt lat="39.270128" lon="-0.311932">
        <ele>-2.097</ele>
        <time>2019-06-15T09:27:08Z</time>
      </trkpt>
      <trkpt lat="39.270087" lon="-0.311971">
        <ele>-1.923</ele>
        <time>2019-06-15T09:27:09Z</time>
      </trkpt>
      <trkpt lat="39.270049" lon="-0.312015">
        <ele>-1.725</ele>
        <time>2019-06-15T09:27:10Z</time>
      </trkpt>
      <trkpt lat="39.270007" lon="-0.312043">
        <ele>-1.608</ele>
        <time>2019-06-15T09:27:11Z</time>
      </trkpt>
      <trkpt lat="39.269935" lon="-0.312112">
        <ele>-1.432</ele>
        <time>2019-06-15T09:27:13Z</time>
      </trkpt>
      <trkpt lat="39.269867" lon="-0.312192">
        <ele>-1.156</ele>
        <time>2019-06-15T09:27:15Z</time>
      </trkpt>
      <trkpt lat="39.269832" lon="-0.312229">
        <ele>-1.075</ele>
        <time>2019-06-15T09:27:16Z</time>
      </trkpt>
      <trkpt lat="39.269795" lon="-0.312271">
        <ele>-0.998</ele>
        <time>2019-06-15T09:27:17Z</time>
      </trkpt>
      <trkpt lat="39.269725" lon="-0.312337">
        <ele>-0.670</ele>
        <time>2019-06-15T09:27:19Z</time>
      </trkpt>
      <trkpt lat="39.269662" lon="-0.312402">
        <ele>-0.197</ele>
        <time>2019-06-15T09:27:21Z</time>
      </trkpt>
      <trkpt lat="39.269620" lon="-0.312445">
        <ele>0.276</ele>
        <time>2019-06-15T09:27:23Z</time>
      </trkpt>
      <trkpt lat="39.269579" lon="-0.312480">
        <ele>0.461</ele>
        <time>2019-06-15T09:27:25Z</time>
      </trkpt>
      <trkpt lat="39.269531" lon="-0.312513">
        <ele>0.642</ele>
        <time>2019-06-15T09:29:22Z</time>
      </trkpt>
      <trkpt lat="39.269483" lon="-0.312544">
        <ele>0.722</ele>
        <time>2019-06-15T09:29:25Z</time>
      </trkpt>
      <trkpt lat="39.269424" lon="-0.312588">
        <ele>0.614</ele>
        <time>2019-06-15T09:29:27Z</time>
      </trkpt>
      <trkpt lat="39.269367" lon="-0.312642">
        <ele>0.408</ele>
        <time>2019-06-15T09:29:29Z</time>
      </trkpt>
      <trkpt lat="39.269322" lon="-0.312697">
        <ele>0.227</ele>
        <time>2019-06-15T09:29:31Z</time>
      </trkpt>
      <trkpt lat="39.269283" lon="-0.312752">
        <ele>0.041</ele>
        <time>2019-06-15T09:29:34Z</time>
      </trkpt>
      <trkpt lat="39.269241" lon="-0.312784">
        <ele>-0.030</ele>
        <time>2019-06-15T09:30:19Z</time>
      </trkpt>
      <trkpt lat="39.269190" lon="-0.312823">
        <ele>-0.253</ele>
        <time>2019-06-15T09:30:21Z</time>
      </trkpt>
      <trkpt lat="39.269123" lon="-0.312885">
        <ele>-0.585</ele>
        <time>2019-06-15T09:30:22Z</time>
      </trkpt>
      <trkpt lat="39.269058" lon="-0.312952">
        <ele>-0.812</ele>
        <time>2019-06-15T09:30:24Z</time>
      </trkpt>
      <trkpt lat="39.268986" lon="-0.313003">
        <ele>-0.921</ele>
        <time>2019-06-15T09:30:26Z</time>
      </trkpt>
      <trkpt lat="39.268944" lon="-0.313039">
        <ele>-1.066</ele>
        <time>2019-06-15T09:30:27Z</time>
      </trkpt>
      <trkpt lat="39.268907" lon="-0.313078">
        <ele>-1.141</ele>
        <time>2019-06-15T09:30:28Z</time>
      </trkpt>
      <trkpt lat="39.268872" lon="-0.313130">
        <ele>-1.381</ele>
        <time>2019-06-15T09:30:29Z</time>
      </trkpt>
      <trkpt lat="39.268860" lon="-0.313207">
        <ele>-1.609</ele>
        <time>2019-06-15T09:30:30Z</time>
      </trkpt>
      <trkpt lat="39.268829" lon="-0.313253">
        <ele>-1.808</ele>
        <time>2019-06-15T09:30:31Z</time>
      </trkpt>
      <trkpt lat="39.268778" lon="-0.313298">
        <ele>-1.937</ele>
        <time>2019-06-15T09:30:32Z</time>
      </trkpt>
      <trkpt lat="39.268723" lon="-0.313326">
        <ele>-2.071</ele>
        <time>2019-06-15T09:30:33Z</time>
      </trkpt>
      <trkpt lat="39.268670" lon="-0.313347">
        <ele>-2.090</ele>
        <time>2019-06-15T09:30:34Z</time>
      </trkpt>
      <trkpt lat="39.268646" lon="-0.313411">
        <ele>-2.373</ele>
        <time>2019-06-15T09:30:35Z</time>
      </trkpt>
      <trkpt lat="39.268599" lon="-0.313445">
        <ele>-2.435</ele>
        <time>2019-06-15T09:30:36Z</time>
      </trkpt>
      <trkpt lat="39.268493" lon="-0.313537">
        <ele>-2.462</ele>
        <time>2019-06-15T09:30:39Z</time>
      </trkpt>
      <trkpt lat="39.268418" lon="-0.313603">
        <ele>-2.341</ele>
        <time>2019-06-15T09:30:41Z</time>
      </trkpt>
      <trkpt lat="39.268340" lon="-0.313671">
        <ele>-2.236</ele>
        <time>2019-06-15T09:30:43Z</time>
      </trkpt>
      <trkpt lat="39.268304" lon="-0.313713">
        <ele>-2.297</ele>
        <time>2019-06-15T09:30:44Z</time>
      </trkpt>
      <trkpt lat="39.268236" lon="-0.313789">
        <ele>-2.123</ele>
        <time>2019-06-15T09:30:46Z</time>
      </trkpt>
      <trkpt lat="39.268168" lon="-0.313869">
        <ele>-1.825</ele>
        <time>2019-06-15T09:30:48Z</time>
      </trkpt>
      <trkpt lat="39.268126" lon="-0.313905">
        <ele>-1.608</ele>
        <time>2019-06-15T09:30:49Z</time>
      </trkpt>
      <trkpt lat="39.268087" lon="-0.313939">
        <ele>-1.472</ele>
        <time>2019-06-15T09:30:50Z</time>
      </trkpt>
      <trkpt lat="39.268050" lon="-0.313976">
        <ele>-1.396</ele>
        <time>2019-06-15T09:30:51Z</time>
      </trkpt>
      <trkpt lat="39.268002" lon="-0.314016">
        <ele>-1.435</ele>
        <time>2019-06-15T09:30:52Z</time>
      </trkpt>
      <trkpt lat="39.267965" lon="-0.314049">
        <ele>-1.448</ele>
        <time>2019-06-15T09:30:53Z</time>
      </trkpt>
      <trkpt lat="39.267926" lon="-0.314079">
        <ele>-1.410</ele>
        <time>2019-06-15T09:30:54Z</time>
      </trkpt>
      <trkpt lat="39.267887" lon="-0.314112">
        <ele>-1.387</ele>
        <time>2019-06-15T09:30:55Z</time>
      </trkpt>
      <trkpt lat="39.267814" lon="-0.314176">
        <ele>-1.216</ele>
        <time>2019-06-15T09:30:57Z</time>
      </trkpt>
      <trkpt lat="39.267730" lon="-0.314224">
        <ele>-1.361</ele>
        <time>2019-06-15T09:30:59Z</time>
      </trkpt>
      <trkpt lat="39.267691" lon="-0.314254">
        <ele>-1.535</ele>
        <time>2019-06-15T09:31:00Z</time>
      </trkpt>
      <trkpt lat="39.267645" lon="-0.314279">
        <ele>-1.786</ele>
        <time>2019-06-15T09:31:01Z</time>
      </trkpt>
      <trkpt lat="39.267601" lon="-0.314313">
        <ele>-1.814</ele>
        <time>2019-06-15T09:31:02Z</time>
      </trkpt>
      <trkpt lat="39.267568" lon="-0.314390">
        <ele>-2.008</ele>
        <time>2019-06-15T09:31:04Z</time>
      </trkpt>
      <trkpt lat="39.267502" lon="-0.314469">
        <ele>-1.976</ele>
        <time>2019-06-15T09:31:06Z</time>
      </trkpt>
      <trkpt lat="39.267468" lon="-0.314512">
        <ele>-1.760</ele>
        <time>2019-06-15T09:31:07Z</time>
      </trkpt>
      <trkpt lat="39.267428" lon="-0.314550">
        <ele>-1.599</ele>
        <time>2019-06-15T09:31:08Z</time>
      </trkpt>
      <trkpt lat="39.267388" lon="-0.314583">
        <ele>-1.362</ele>
        <time>2019-06-15T09:31:09Z</time>
      </trkpt>
      <trkpt lat="39.267345" lon="-0.314620">
        <ele>-1.284</ele>
        <time>2019-06-15T09:31:10Z</time>
      </trkpt>
      <trkpt lat="39.267308" lon="-0.314657">
        <ele>-1.161</ele>
        <time>2019-06-15T09:31:11Z</time>
      </trkpt>
      <trkpt lat="39.267260" lon="-0.314709">
        <ele>-1.070</ele>
        <time>2019-06-15T09:31:12Z</time>
      </trkpt>
      <trkpt lat="39.267219" lon="-0.314749">
        <ele>-1.065</ele>
        <time>2019-06-15T09:31:13Z</time>
      </trkpt>
      <trkpt lat="39.267156" lon="-0.314818">
        <ele>-1.136</ele>
        <time>2019-06-15T09:31:15Z</time>
      </trkpt>
      <trkpt lat="39.267085" lon="-0.314885">
        <ele>-1.317</ele>
        <time>2019-06-15T09:31:17Z</time>
      </trkpt>
      <trkpt lat="39.267033" lon="-0.314924">
        <ele>-1.518</ele>
        <time>2019-06-15T09:31:18Z</time>
      </trkpt>
      <trkpt lat="39.266996" lon="-0.314964">
        <ele>-1.708</ele>
        <time>2019-06-15T09:31:19Z</time>
      </trkpt>
      <trkpt lat="39.266931" lon="-0.315032">
        <ele>-2.036</ele>
        <time>2019-06-15T09:31:21Z</time>
      </trkpt>
      <trkpt lat="39.266894" lon="-0.315067">
        <ele>-2.070</ele>
        <time>2019-06-15T09:31:22Z</time>
      </trkpt>
      <trkpt lat="39.266857" lon="-0.315105">
        <ele>-2.169</ele>
        <time>2019-06-15T09:31:23Z</time>
      </trkpt>
      <trkpt lat="39.266821" lon="-0.315142">
        <ele>-2.292</ele>
        <time>2019-06-15T09:31:24Z</time>
      </trkpt>
      <trkpt lat="39.266774" lon="-0.315155">
        <ele>-2.314</ele>
        <time>2019-06-15T09:31:25Z</time>
      </trkpt>
      <trkpt lat="39.266688" lon="-0.315205">
        <ele>-2.711</ele>
        <time>2019-06-15T09:31:27Z</time>
      </trkpt>
      <trkpt lat="39.266652" lon="-0.315244">
        <ele>-2.950</ele>
        <time>2019-06-15T09:31:28Z</time>
      </trkpt>
      <trkpt lat="39.266580" lon="-0.315313">
        <ele>-3.075</ele>
        <time>2019-06-15T09:31:30Z</time>
      </trkpt>
      <trkpt lat="39.266542" lon="-0.315349">
        <ele>-3.044</ele>
        <time>2019-06-15T09:31:31Z</time>
      </trkpt>
      <trkpt lat="39.266504" lon="-0.315384">
        <ele>-3.005</ele>
        <time>2019-06-15T09:31:32Z</time>
      </trkpt>
      <trkpt lat="39.266480" lon="-0.315441">
        <ele>-3.015</ele>
        <time>2019-06-15T09:31:33Z</time>
      </trkpt>
      <trkpt lat="39.266443" lon="-0.315477">
        <ele>-3.008</ele>
        <time>2019-06-15T09:31:34Z</time>
      </trkpt>
      <trkpt lat="39.266404" lon="-0.315512">
        <ele>-3.037</ele>
        <time>2019-06-15T09:31:35Z</time>
      </trkpt>
      <trkpt lat="39.266363" lon="-0.315540">
        <ele>-3.181</ele>
        <time>2019-06-15T09:31:36Z</time>
      </trkpt>
      <trkpt lat="39.266293" lon="-0.315589">
        <ele>-3.320</ele>
        <time>2019-06-15T09:31:38Z</time>
      </trkpt>
      <trkpt lat="39.266219" lon="-0.315648">
        <ele>-3.433</ele>
        <time>2019-06-15T09:31:40Z</time>
      </trkpt>
      <trkpt lat="39.266185" lon="-0.315689">
        <ele>-3.415</ele>
        <time>2019-06-15T09:31:41Z</time>
      </trkpt>
      <trkpt lat="39.266107" lon="-0.315739">
        <ele>-3.452</ele>
        <time>2019-06-15T09:31:43Z</time>
      </trkpt>
      <trkpt lat="39.266065" lon="-0.315772">
        <ele>-3.471</ele>
        <time>2019-06-15T09:31:44Z</time>
      </trkpt>
      <trkpt lat="39.266025" lon="-0.315804">
        <ele>-3.476</ele>
        <time>2019-06-15T09:31:45Z</time>
      </trkpt>
      <trkpt lat="39.265950" lon="-0.315855">
        <ele>-3.541</ele>
        <time>2019-06-15T09:31:47Z</time>
      </trkpt>
      <trkpt lat="39.265906" lon="-0.315878">
        <ele>-3.681</ele>
        <time>2019-06-15T09:31:48Z</time>
      </trkpt>
      <trkpt lat="39.265862" lon="-0.315897">
        <ele>-3.709</ele>
        <time>2019-06-15T09:31:49Z</time>
      </trkpt>
      <trkpt lat="39.265824" lon="-0.315929">
        <ele>-3.708</ele>
        <time>2019-06-15T09:31:50Z</time>
      </trkpt>
      <trkpt lat="39.265745" lon="-0.315974">
        <ele>-3.527</ele>
        <time>2019-06-15T09:31:52Z</time>
      </trkpt>
      <trkpt lat="39.265724" lon="-0.316051">
        <ele>-3.221</ele>
        <time>2019-06-15T09:31:53Z</time>
      </trkpt>
      <trkpt lat="39.265674" lon="-0.316065">
        <ele>-3.210</ele>
        <time>2019-06-15T09:31:54Z</time>
      </trkpt>
      <trkpt lat="39.265628" lon="-0.316089">
        <ele>-3.143</ele>
        <time>2019-06-15T09:31:55Z</time>
      </trkpt>
      <trkpt lat="39.265584" lon="-0.316113">
        <ele>-3.055</ele>
        <time>2019-06-15T09:31:56Z</time>
      </trkpt>
      <trkpt lat="39.265545" lon="-0.316145">
        <ele>-3.042</ele>
        <time>2019-06-15T09:31:57Z</time>
      </trkpt>
      <trkpt lat="39.265506" lon="-0.316175">
        <ele>-2.981</ele>
        <time>2019-06-15T09:31:58Z</time>
      </trkpt>
      <trkpt lat="39.265462" lon="-0.316201">
        <ele>-2.856</ele>
        <time>2019-06-15T09:31:59Z</time>
      </trkpt>
      <trkpt lat="39.265417" lon="-0.316228">
        <ele>-2.737</ele>
        <time>2019-06-15T09:32:00Z</time>
      </trkpt>
      <trkpt lat="39.265359" lon="-0.316284">
        <ele>-2.749</ele>
        <time>2019-06-15T09:32:02Z</time>
      </trkpt>
      <trkpt lat="39.265279" lon="-0.316331">
        <ele>-2.813</ele>
        <time>2019-06-15T09:32:04Z</time>
      </trkpt>
      <trkpt lat="39.265229" lon="-0.316347">
        <ele>-2.708</ele>
        <time>2019-06-15T09:32:05Z</time>
      </trkpt>
      <trkpt lat="39.265160" lon="-0.316410">
        <ele>-2.616</ele>
        <time>2019-06-15T09:32:07Z</time>
      </trkpt>
      <trkpt lat="39.265113" lon="-0.316429">
        <ele>-2.460</ele>
        <time>2019-06-15T09:32:08Z</time>
      </trkpt>
      <trkpt lat="39.265075" lon="-0.316461">
        <ele>-2.349</ele>
        <time>2019-06-15T09:32:09Z</time>
      </trkpt>
      <trkpt lat="39.265026" lon="-0.316475">
        <ele>-2.112</ele>
        <time>2019-06-15T09:32:10Z</time>
      </trkpt>
      <trkpt lat="39.264983" lon="-0.316493">
        <ele>-2.014</ele>
        <time>2019-06-15T09:32:11Z</time>
      </trkpt>
      <trkpt lat="39.264901" lon="-0.316540">
        <ele>-2.091</ele>
        <time>2019-06-15T09:32:13Z</time>
      </trkpt>
      <trkpt lat="39.264862" lon="-0.316568">
        <ele>-2.110</ele>
        <time>2019-06-15T09:32:14Z</time>
      </trkpt>
      <trkpt lat="39.264790" lon="-0.316622">
        <ele>-2.515</ele>
        <time>2019-06-15T09:32:16Z</time>
      </trkpt>
      <trkpt lat="39.264742" lon="-0.316650">
        <ele>-2.828</ele>
        <time>2019-06-15T09:32:17Z</time>
      </trkpt>
      <trkpt lat="39.264697" lon="-0.316676">
        <ele>-2.989</ele>
        <time>2019-06-15T09:32:18Z</time>
      </trkpt>
      <trkpt lat="39.264648" lon="-0.316696">
        <ele>-2.817</ele>
        <time>2019-06-15T09:32:19Z</time>
      </trkpt>
      <trkpt lat="39.264603" lon="-0.316724">
        <ele>-2.708</ele>
        <time>2019-06-15T09:32:20Z</time>
      </trkpt>
      <trkpt lat="39.264557" lon="-0.316752">
        <ele>-2.645</ele>
        <time>2019-06-15T09:32:21Z</time>
      </trkpt>
      <trkpt lat="39.264514" lon="-0.316777">
        <ele>-2.519</ele>
        <time>2019-06-15T09:32:22Z</time>
      </trkpt>
      <trkpt lat="39.264462" lon="-0.316788">
        <ele>-2.548</ele>
        <time>2019-06-15T09:32:23Z</time>
      </trkpt>
      <trkpt lat="39.264420" lon="-0.316833">
        <ele>-2.631</ele>
        <time>2019-06-15T09:32:24Z</time>
      </trkpt>
      <trkpt lat="39.264360" lon="-0.316900">
        <ele>-2.813</ele>
        <time>2019-06-15T09:32:26Z</time>
      </trkpt>
      <trkpt lat="39.264275" lon="-0.316952">
        <ele>-2.990</ele>
        <time>2019-06-15T09:32:28Z</time>
      </trkpt>
      <trkpt lat="39.264231" lon="-0.316974">
        <ele>-2.849</ele>
        <time>2019-06-15T09:32:29Z</time>
      </trkpt>
      <trkpt lat="39.264185" lon="-0.317006">
        <ele>-2.634</ele>
        <time>2019-06-15T09:32:30Z</time>
      </trkpt>
      <trkpt lat="39.264111" lon="-0.317063">
        <ele>-2.257</ele>
        <time>2019-06-15T09:32:32Z</time>
      </trkpt>
      <trkpt lat="39.264062" lon="-0.317090">
        <ele>-2.100</ele>
        <time>2019-06-15T09:32:33Z</time>
      </trkpt>
      <trkpt lat="39.264012" lon="-0.317118">
        <ele>-2.120</ele>
        <time>2019-06-15T09:32:34Z</time>
      </trkpt>
      <trkpt lat="39.263975" lon="-0.317162">
        <ele>-2.008</ele>
        <time>2019-06-15T09:32:35Z</time>
      </trkpt>
      <trkpt lat="39.263929" lon="-0.317193">
        <ele>-2.038</ele>
        <time>2019-06-15T09:32:36Z</time>
      </trkpt>
      <trkpt lat="39.263875" lon="-0.317208">
        <ele>-2.112</ele>
        <time>2019-06-15T09:32:37Z</time>
      </trkpt>
      <trkpt lat="39.263814" lon="-0.317219">
        <ele>-2.081</ele>
        <time>2019-06-15T09:32:38Z</time>
      </trkpt>
      <trkpt lat="39.263772" lon="-0.317250">
        <ele>-1.994</ele>
        <time>2019-06-15T09:32:39Z</time>
      </trkpt>
      <trkpt lat="39.263720" lon="-0.317264">
        <ele>-1.986</ele>
        <time>2019-06-15T09:32:40Z</time>
      </trkpt>
      <trkpt lat="39.263667" lon="-0.317295">
        <ele>-1.753</ele>
        <time>2019-06-15T09:32:41Z</time>
      </trkpt>
      <trkpt lat="39.263622" lon="-0.317333">
        <ele>-1.662</ele>
        <time>2019-06-15T09:32:42Z</time>
      </trkpt>
      <trkpt lat="39.263566" lon="-0.317346">
        <ele>-1.347</ele>
        <time>2019-06-15T09:32:43Z</time>
      </trkpt>
      <trkpt lat="39.263514" lon="-0.317366">
        <ele>-1.088</ele>
        <time>2019-06-15T09:32:44Z</time>
      </trkpt>
      <trkpt lat="39.263441" lon="-0.317433">
        <ele>-0.524</ele>
        <time>2019-06-15T09:32:46Z</time>
      </trkpt>
      <trkpt lat="39.263354" lon="-0.317482">
        <ele>-0.126</ele>
        <time>2019-06-15T09:32:48Z</time>
      </trkpt>
      <trkpt lat="39.263307" lon="-0.317509">
        <ele>-0.108</ele>
        <time>2019-06-15T09:32:49Z</time>
      </trkpt>
      <trkpt lat="39.263260" lon="-0.317533">
        <ele>-0.481</ele>
        <time>2019-06-15T09:32:50Z</time>
      </trkpt>
      <trkpt lat="39.263201" lon="-0.317556">
        <ele>-0.765</ele>
        <time>2019-06-15T09:32:51Z</time>
      </trkpt>
      <trkpt lat="39.263155" lon="-0.317579">
        <ele>-0.914</ele>
        <time>2019-06-15T09:32:52Z</time>
      </trkpt>
      <trkpt lat="39.263101" lon="-0.317596">
        <ele>-1.277</ele>
        <time>2019-06-15T09:32:53Z</time>
      </trkpt>
      <trkpt lat="39.263047" lon="-0.317613">
        <ele>-1.489</ele>
        <time>2019-06-15T09:32:54Z</time>
      </trkpt>
      <trkpt lat="39.262998" lon="-0.317642">
        <ele>-1.776</ele>
        <time>2019-06-15T09:32:55Z</time>
      </trkpt>
      <trkpt lat="39.262949" lon="-0.317670">
        <ele>-2.035</ele>
        <time>2019-06-15T09:32:56Z</time>
      </trkpt>
      <trkpt lat="39.262900" lon="-0.317696">
        <ele>-2.330</ele>
        <time>2019-06-15T09:32:57Z</time>
      </trkpt>
      <trkpt lat="39.262855" lon="-0.317728">
        <ele>-2.512</ele>
        <time>2019-06-15T09:32:58Z</time>
      </trkpt>
      <trkpt lat="39.262798" lon="-0.317755">
        <ele>-2.832</ele>
        <time>2019-06-15T09:32:59Z</time>
      </trkpt>
      <trkpt lat="39.262747" lon="-0.317769">
        <ele>-3.105</ele>
        <time>2019-06-15T09:33:00Z</time>
      </trkpt>
      <trkpt lat="39.262687" lon="-0.317789">
        <ele>-3.408</ele>
        <time>2019-06-15T09:33:01Z</time>
      </trkpt>
      <trkpt lat="39.262645" lon="-0.317828">
        <ele>-3.614</ele>
        <time>2019-06-15T09:33:02Z</time>
      </trkpt>
      <trkpt lat="39.262606" lon="-0.317878">
        <ele>-3.888</ele>
        <time>2019-06-15T09:33:03Z</time>
      </trkpt>
      <trkpt lat="39.262554" lon="-0.317910">
        <ele>-3.977</ele>
        <time>2019-06-15T09:33:04Z</time>
      </trkpt>
      <trkpt lat="39.262504" lon="-0.317934">
        <ele>-4.040</ele>
        <time>2019-06-15T09:33:05Z</time>
      </trkpt>
      <trkpt lat="39.262455" lon="-0.317969">
        <ele>-3.882</ele>
        <time>2019-06-15T09:33:06Z</time>
      </trkpt>
      <trkpt lat="39.262397" lon="-0.317987">
        <ele>-3.659</ele>
        <time>2019-06-15T09:33:07Z</time>
      </trkpt>
      <trkpt lat="39.262350" lon="-0.318018">
        <ele>-3.528</ele>
        <time>2019-06-15T09:33:08Z</time>
      </trkpt>
      <trkpt lat="39.262303" lon="-0.318065">
        <ele>-3.373</ele>
        <time>2019-06-15T09:33:09Z</time>
      </trkpt>
      <trkpt lat="39.262267" lon="-0.318111">
        <ele>-3.059</ele>
        <time>2019-06-15T09:33:10Z</time>
      </trkpt>
      <trkpt lat="39.262228" lon="-0.318148">
        <ele>-2.703</ele>
        <time>2019-06-15T09:33:11Z</time>
      </trkpt>
      <trkpt lat="39.262183" lon="-0.318183">
        <ele>-2.423</ele>
        <time>2019-06-15T09:33:12Z</time>
      </trkpt>
      <trkpt lat="39.262172" lon="-0.318239">
        <ele>-2.208</ele>
        <time>2019-06-15T09:33:13Z</time>
      </trkpt>
      <trkpt lat="39.262133" lon="-0.318275">
        <ele>-1.978</ele>
        <time>2019-06-15T09:33:14Z</time>
      </trkpt>
      <trkpt lat="39.262088" lon="-0.318308">
        <ele>-1.672</ele>
        <time>2019-06-15T09:33:15Z</time>
      </trkpt>
      <trkpt lat="39.262043" lon="-0.318340">
        <ele>-1.351</ele>
        <time>2019-06-15T09:33:16Z</time>
      </trkpt>
      <trkpt lat="39.262006" lon="-0.318375">
        <ele>-1.264</ele>
        <time>2019-06-15T09:33:17Z</time>
      </trkpt>
      <trkpt lat="39.261967" lon="-0.318409">
        <ele>-1.156</ele>
        <time>2019-06-15T09:33:18Z</time>
      </trkpt>
      <trkpt lat="39.261925" lon="-0.318441">
        <ele>-1.063</ele>
        <time>2019-06-15T09:33:19Z</time>
      </trkpt>
      <trkpt lat="39.261882" lon="-0.318472">
        <ele>-1.022</ele>
        <time>2019-06-15T09:33:20Z</time>
      </trkpt>
      <trkpt lat="39.261840" lon="-0.318504">
        <ele>-1.077</ele>
        <time>2019-06-15T09:33:21Z</time>
      </trkpt>
      <trkpt lat="39.261795" lon="-0.318537">
        <ele>-1.047</ele>
        <time>2019-06-15T09:33:22Z</time>
      </trkpt>
      <trkpt lat="39.261747" lon="-0.318563">
        <ele>-1.029</ele>
        <time>2019-06-15T09:33:23Z</time>
      </trkpt>
      <trkpt lat="39.261701" lon="-0.318597">
        <ele>-1.021</ele>
        <time>2019-06-15T09:33:24Z</time>
      </trkpt>
      <trkpt lat="39.261631" lon="-0.318676">
        <ele>-1.208</ele>
        <time>2019-06-15T09:33:26Z</time>
      </trkpt>
      <trkpt lat="39.261584" lon="-0.318700">
        <ele>-1.367</ele>
        <time>2019-06-15T09:33:27Z</time>
      </trkpt>
      <trkpt lat="39.261494" lon="-0.318734">
        <ele>-1.431</ele>
        <time>2019-06-15T09:33:29Z</time>
      </trkpt>
      <trkpt lat="39.261438" lon="-0.318754">
        <ele>-1.580</ele>
        <time>2019-06-15T09:33:30Z</time>
      </trkpt>
      <trkpt lat="39.261379" lon="-0.318786">
        <ele>-1.673</ele>
        <time>2019-06-15T09:33:31Z</time>
      </trkpt>
      <trkpt lat="39.261314" lon="-0.318830">
        <ele>-1.835</ele>
        <time>2019-06-15T09:33:33Z</time>
      </trkpt>
      <trkpt lat="39.261267" lon="-0.318852">
        <ele>-1.962</ele>
        <time>2019-06-15T09:33:34Z</time>
      </trkpt>
      <trkpt lat="39.261213" lon="-0.318878">
        <ele>-2.041</ele>
        <time>2019-06-15T09:33:35Z</time>
      </trkpt>
      <trkpt lat="39.261165" lon="-0.318904">
        <ele>-2.036</ele>
        <time>2019-06-15T09:33:36Z</time>
      </trkpt>
      <trkpt lat="39.261122" lon="-0.318932">
        <ele>-2.075</ele>
        <time>2019-06-15T09:33:37Z</time>
      </trkpt>
      <trkpt lat="39.261070" lon="-0.318956">
        <ele>-2.028</ele>
        <time>2019-06-15T09:33:38Z</time>
      </trkpt>
      <trkpt lat="39.261022" lon="-0.318981">
        <ele>-2.020</ele>
        <time>2019-06-15T09:33:39Z</time>
      </trkpt>
      <trkpt lat="39.260986" lon="-0.319036">
        <ele>-2.008</ele>
        <time>2019-06-15T09:33:40Z</time>
      </trkpt>
      <trkpt lat="39.260939" lon="-0.319065">
        <ele>-2.010</ele>
        <time>2019-06-15T09:33:41Z</time>
      </trkpt>
      <trkpt lat="39.260890" lon="-0.319087">
        <ele>-2.074</ele>
        <time>2019-06-15T09:33:42Z</time>
      </trkpt>
      <trkpt lat="39.260834" lon="-0.319110">
        <ele>-2.083</ele>
        <time>2019-06-15T09:33:43Z</time>
      </trkpt>
      <trkpt lat="39.260779" lon="-0.319136">
        <ele>-2.076</ele>
        <time>2019-06-15T09:33:44Z</time>
      </trkpt>
      <trkpt lat="39.260729" lon="-0.319162">
        <ele>-2.048</ele>
        <time>2019-06-15T09:33:45Z</time>
      </trkpt>
      <trkpt lat="39.260678" lon="-0.319188">
        <ele>-2.095</ele>
        <time>2019-06-15T09:33:46Z</time>
      </trkpt>
      <trkpt lat="39.260602" lon="-0.319237">
        <ele>-2.064</ele>
        <time>2019-06-15T09:33:48Z</time>
      </trkpt>
      <trkpt lat="39.260546" lon="-0.319248">
        <ele>-2.099</ele>
        <time>2019-06-15T09:33:49Z</time>
      </trkpt>
      <trkpt lat="39.260488" lon="-0.319254">
        <ele>-2.288</ele>
        <time>2019-06-15T09:33:50Z</time>
      </trkpt>
      <trkpt lat="39.260413" lon="-0.319244">
        <ele>-2.524</ele>
        <time>2019-06-15T09:33:51Z</time>
      </trkpt>
      <trkpt lat="39.260360" lon="-0.319256">
        <ele>-2.726</ele>
        <time>2019-06-15T09:33:52Z</time>
      </trkpt>
      <trkpt lat="39.260275" lon="-0.319301">
        <ele>-3.008</ele>
        <time>2019-06-15T09:33:54Z</time>
      </trkpt>
      <trkpt lat="39.260205" lon="-0.319357">
        <ele>-3.381</ele>
        <time>2019-06-15T09:33:56Z</time>
      </trkpt>
      <trkpt lat="39.260130" lon="-0.319443">
        <ele>-3.595</ele>
        <time>2019-06-15T09:33:58Z</time>
      </trkpt>
      <trkpt lat="39.260071" lon="-0.319469">
        <ele>-3.724</ele>
        <time>2019-06-15T09:33:59Z</time>
      </trkpt>
      <trkpt lat="39.260021" lon="-0.319482">
        <ele>-3.827</ele>
        <time>2019-06-15T09:34:00Z</time>
      </trkpt>
      <trkpt lat="39.259976" lon="-0.319502">
        <ele>-3.779</ele>
        <time>2019-06-15T09:34:01Z</time>
      </trkpt>
      <trkpt lat="39.259925" lon="-0.319513">
        <ele>-3.556</ele>
        <time>2019-06-15T09:34:02Z</time>
      </trkpt>
      <trkpt lat="39.259873" lon="-0.319538">
        <ele>-3.215</ele>
        <time>2019-06-15T09:34:03Z</time>
      </trkpt>
      <trkpt lat="39.259820" lon="-0.319550">
        <ele>-3.080</ele>
        <time>2019-06-15T09:34:04Z</time>
      </trkpt>
      <trkpt lat="39.259774" lon="-0.319576">
        <ele>-2.745</ele>
        <time>2019-06-15T09:34:05Z</time>
      </trkpt>
      <trkpt lat="39.259724" lon="-0.319592">
        <ele>-2.547</ele>
        <time>2019-06-15T09:34:06Z</time>
      </trkpt>
      <trkpt lat="39.259678" lon="-0.319614">
        <ele>-2.411</ele>
        <time>2019-06-15T09:34:07Z</time>
      </trkpt>
      <trkpt lat="39.259630" lon="-0.319633">
        <ele>-2.308</ele>
        <time>2019-06-15T09:34:08Z</time>
      </trkpt>
      <trkpt lat="39.259542" lon="-0.319678">
        <ele>-2.217</ele>
        <time>2019-06-15T09:34:10Z</time>
      </trkpt>
      <trkpt lat="39.259490" lon="-0.319698">
        <ele>-2.131</ele>
        <time>2019-06-15T09:34:11Z</time>
      </trkpt>
      <trkpt lat="39.259446" lon="-0.319728">
        <ele>-2.070</ele>
        <time>2019-06-15T09:34:12Z</time>
      </trkpt>
      <trkpt lat="39.259395" lon="-0.319754">
        <ele>-2.023</ele>
        <time>2019-06-15T09:34:13Z</time>
      </trkpt>
      <trkpt lat="39.259348" lon="-0.319771">
        <ele>-1.985</ele>
        <time>2019-06-15T09:34:14Z</time>
      </trkpt>
      <trkpt lat="39.259299" lon="-0.319793">
        <ele>-1.912</ele>
        <time>2019-06-15T09:34:15Z</time>
      </trkpt>
      <trkpt lat="39.259250" lon="-0.319806">
        <ele>-1.891</ele>
        <time>2019-06-15T09:34:16Z</time>
      </trkpt>
      <trkpt lat="39.259203" lon="-0.319820">
        <ele>-1.716</ele>
        <time>2019-06-15T09:34:17Z</time>
      </trkpt>
      <trkpt lat="39.259155" lon="-0.319845">
        <ele>-1.556</ele>
        <time>2019-06-15T09:34:18Z</time>
      </trkpt>
      <trkpt lat="39.259107" lon="-0.319867">
        <ele>-1.359</ele>
        <time>2019-06-15T09:34:19Z</time>
      </trkpt>
      <trkpt lat="39.259061" lon="-0.319890">
        <ele>-1.014</ele>
        <time>2019-06-15T09:34:20Z</time>
      </trkpt>
      <trkpt lat="39.259013" lon="-0.319915">
        <ele>-0.808</ele>
        <time>2019-06-15T09:34:21Z</time>
      </trkpt>
      <trkpt lat="39.258974" lon="-0.319950">
        <ele>-0.558</ele>
        <time>2019-06-15T09:34:22Z</time>
      </trkpt>
      <trkpt lat="39.258909" lon="-0.320008">
        <ele>-0.092</ele>
        <time>2019-06-15T09:34:24Z</time>
      </trkpt>
      <trkpt lat="39.258863" lon="-0.320028">
        <ele>0.191</ele>
        <time>2019-06-15T09:34:25Z</time>
      </trkpt>
      <trkpt lat="39.258816" lon="-0.320048">
        <ele>0.194</ele>
        <time>2019-06-15T09:34:26Z</time>
      </trkpt>
      <trkpt lat="39.258766" lon="-0.320073">
        <ele>0.186</ele>
        <time>2019-06-15T09:34:27Z</time>
      </trkpt>
      <trkpt lat="39.258717" lon="-0.320094">
        <ele>0.143</ele>
        <time>2019-06-15T09:34:28Z</time>
      </trkpt>
      <trkpt lat="39.258674" lon="-0.320118">
        <ele>0.172</ele>
        <time>2019-06-15T09:34:29Z</time>
      </trkpt>
      <trkpt lat="39.258629" lon="-0.320129">
        <ele>0.047</ele>
        <time>2019-06-15T09:34:30Z</time>
      </trkpt>
      <trkpt lat="39.258540" lon="-0.320165">
        <ele>-0.341</ele>
        <time>2019-06-15T09:34:32Z</time>
      </trkpt>
      <trkpt lat="39.258487" lon="-0.320182">
        <ele>-0.481</ele>
        <time>2019-06-15T09:34:33Z</time>
      </trkpt>
      <trkpt lat="39.258434" lon="-0.320203">
        <ele>-0.609</ele>
        <time>2019-06-15T09:34:34Z</time>
      </trkpt>
      <trkpt lat="39.258389" lon="-0.320222">
        <ele>-0.808</ele>
        <time>2019-06-15T09:34:35Z</time>
      </trkpt>
      <trkpt lat="39.258339" lon="-0.320248">
        <ele>-1.067</ele>
        <time>2019-06-15T09:34:36Z</time>
      </trkpt>
      <trkpt lat="39.258292" lon="-0.320268">
        <ele>-1.091</ele>
        <time>2019-06-15T09:34:37Z</time>
      </trkpt>
      <trkpt lat="39.258200" lon="-0.320301">
        <ele>-1.080</ele>
        <time>2019-06-15T09:34:39Z</time>
      </trkpt>
      <trkpt lat="39.258149" lon="-0.320321">
        <ele>-1.063</ele>
        <time>2019-06-15T09:34:40Z</time>
      </trkpt>
      <trkpt lat="39.258060" lon="-0.320356">
        <ele>-1.075</ele>
        <time>2019-06-15T09:34:42Z</time>
      </trkpt>
      <trkpt lat="39.258015" lon="-0.320376">
        <ele>-0.822</ele>
        <time>2019-06-15T09:34:43Z</time>
      </trkpt>
      <trkpt lat="39.257964" lon="-0.320388">
        <ele>-0.591</ele>
        <time>2019-06-15T09:34:44Z</time>
      </trkpt>
      <trkpt lat="39.257873" lon="-0.320424">
        <ele>-0.046</ele>
        <time>2019-06-15T09:34:46Z</time>
      </trkpt>
      <trkpt lat="39.257829" lon="-0.320445">
        <ele>0.179</ele>
        <time>2019-06-15T09:34:47Z</time>
      </trkpt>
      <trkpt lat="39.257748" lon="-0.320501">
        <ele>0.305</ele>
        <time>2019-06-15T09:34:49Z</time>
      </trkpt>
      <trkpt lat="39.257669" lon="-0.320531">
        <ele>0.525</ele>
        <time>2019-06-15T09:34:51Z</time>
      </trkpt>
      <trkpt lat="39.257618" lon="-0.320547">
        <ele>0.608</ele>
        <time>2019-06-15T09:34:52Z</time>
      </trkpt>
      <trkpt lat="39.257538" lon="-0.320560">
        <ele>0.860</ele>
        <time>2019-06-15T09:34:54Z</time>
      </trkpt>
      <trkpt lat="39.257492" lon="-0.320571">
        <ele>0.964</ele>
        <time>2019-06-15T09:34:55Z</time>
      </trkpt>
      <trkpt lat="39.257406" lon="-0.320586">
        <ele>0.933</ele>
        <time>2019-06-15T09:34:57Z</time>
      </trkpt>
      <trkpt lat="39.257319" lon="-0.320588">
        <ele>0.916</ele>
        <time>2019-06-15T09:34:59Z</time>
      </trkpt>
      <trkpt lat="39.257274" lon="-0.320596">
        <ele>0.988</ele>
        <time>2019-06-15T09:35:00Z</time>
      </trkpt>
      <trkpt lat="39.257229" lon="-0.320597">
        <ele>0.945</ele>
        <time>2019-06-15T09:35:01Z</time>
      </trkpt>
      <trkpt lat="39.257183" lon="-0.320601">
        <ele>0.754</ele>
        <time>2019-06-15T09:35:02Z</time>
      </trkpt>
      <trkpt lat="39.257088" lon="-0.320585">
        <ele>0.559</ele>
        <time>2019-06-15T09:35:04Z</time>
      </trkpt>
      <trkpt lat="39.257038" lon="-0.320579">
        <ele>0.391</ele>
        <time>2019-06-15T09:35:05Z</time>
      </trkpt>
      <trkpt lat="39.256989" lon="-0.320576">
        <ele>0.181</ele>
        <time>2019-06-15T09:35:06Z</time>
      </trkpt>
      <trkpt lat="39.256942" lon="-0.320574">
        <ele>-0.019</ele>
        <time>2019-06-15T09:35:07Z</time>
      </trkpt>
      <trkpt lat="39.256891" lon="-0.320574">
        <ele>-0.208</ele>
        <time>2019-06-15T09:35:08Z</time>
      </trkpt>
      <trkpt lat="39.256798" lon="-0.320563">
        <ele>-0.562</ele>
        <time>2019-06-15T09:35:10Z</time>
      </trkpt>
      <trkpt lat="39.256750" lon="-0.320562">
        <ele>-0.766</ele>
        <time>2019-06-15T09:35:11Z</time>
      </trkpt>
      <trkpt lat="39.256701" lon="-0.320553">
        <ele>-0.965</ele>
        <time>2019-06-15T09:35:12Z</time>
      </trkpt>
      <trkpt lat="39.256654" lon="-0.320551">
        <ele>-1.128</ele>
        <time>2019-06-15T09:35:13Z</time>
      </trkpt>
      <trkpt lat="39.256607" lon="-0.320549">
        <ele>-1.210</ele>
        <time>2019-06-15T09:35:14Z</time>
      </trkpt>
      <trkpt lat="39.256515" lon="-0.320542">
        <ele>-1.647</ele>
        <time>2019-06-15T09:35:16Z</time>
      </trkpt>
      <trkpt lat="39.256426" lon="-0.320535">
        <ele>-1.986</ele>
        <time>2019-06-15T09:35:18Z</time>
      </trkpt>
      <trkpt lat="39.256376" lon="-0.320532">
        <ele>-2.051</ele>
        <time>2019-06-15T09:35:19Z</time>
      </trkpt>
      <trkpt lat="39.256322" lon="-0.320529">
        <ele>-2.026</ele>
        <time>2019-06-15T09:35:20Z</time>
      </trkpt>
      <trkpt lat="39.256272" lon="-0.320514">
        <ele>-2.047</ele>
        <time>2019-06-15T09:35:21Z</time>
      </trkpt>
      <trkpt lat="39.256226" lon="-0.320503">
        <ele>-2.011</ele>
        <time>2019-06-15T09:35:22Z</time>
      </trkpt>
      <trkpt lat="39.256135" lon="-0.320514">
        <ele>-2.008</ele>
        <time>2019-06-15T09:35:24Z</time>
      </trkpt>
      <trkpt lat="39.256084" lon="-0.320510">
        <ele>-2.025</ele>
        <time>2019-06-15T09:35:25Z</time>
      </trkpt>
      <trkpt lat="39.256031" lon="-0.320510">
        <ele>-2.069</ele>
        <time>2019-06-15T09:35:26Z</time>
      </trkpt>
      <trkpt lat="39.255980" lon="-0.320509">
        <ele>-2.088</ele>
        <time>2019-06-15T09:35:27Z</time>
      </trkpt>
      <trkpt lat="39.255924" lon="-0.320511">
        <ele>-2.021</ele>
        <time>2019-06-15T09:35:28Z</time>
      </trkpt>
      <trkpt lat="39.255872" lon="-0.320516">
        <ele>-2.033</ele>
        <time>2019-06-15T09:35:29Z</time>
      </trkpt>
      <trkpt lat="39.255820" lon="-0.320512">
        <ele>-2.120</ele>
        <time>2019-06-15T09:35:30Z</time>
      </trkpt>
      <trkpt lat="39.255769" lon="-0.320507">
        <ele>-2.379</ele>
        <time>2019-06-15T09:35:31Z</time>
      </trkpt>
      <trkpt lat="39.255720" lon="-0.320500">
        <ele>-2.594</ele>
        <time>2019-06-15T09:35:32Z</time>
      </trkpt>
      <trkpt lat="39.255671" lon="-0.320506">
        <ele>-2.739</ele>
        <time>2019-06-15T09:35:33Z</time>
      </trkpt>
      <trkpt lat="39.255622" lon="-0.320502">
        <ele>-2.901</ele>
        <time>2019-06-15T09:35:34Z</time>
      </trkpt>
      <trkpt lat="39.255574" lon="-0.320488">
        <ele>-3.221</ele>
        <time>2019-06-15T09:35:35Z</time>
      </trkpt>
      <trkpt lat="39.255526" lon="-0.320491">
        <ele>-3.108</ele>
        <time>2019-06-15T09:35:36Z</time>
      </trkpt>
      <trkpt lat="39.255442" lon="-0.320475">
        <ele>-2.976</ele>
        <time>2019-06-15T09:35:38Z</time>
      </trkpt>
      <trkpt lat="39.255397" lon="-0.320463">
        <ele>-2.870</ele>
        <time>2019-06-15T09:35:39Z</time>
      </trkpt>
      <trkpt lat="39.255355" lon="-0.320441">
        <ele>-2.769</ele>
        <time>2019-06-15T09:35:40Z</time>
      </trkpt>
      <trkpt lat="39.255312" lon="-0.320416">
        <ele>-2.672</ele>
        <time>2019-06-15T09:35:41Z</time>
      </trkpt>
      <trkpt lat="39.255278" lon="-0.320375">
        <ele>-2.714</ele>
        <time>2019-06-15T09:35:42Z</time>
      </trkpt>
      <trkpt lat="39.255243" lon="-0.320338">
        <ele>-2.651</ele>
        <time>2019-06-15T09:35:43Z</time>
      </trkpt>
      <trkpt lat="39.255204" lon="-0.320303">
        <ele>-2.660</ele>
        <time>2019-06-15T09:35:44Z</time>
      </trkpt>
      <trkpt lat="39.255165" lon="-0.320269">
        <ele>-2.635</ele>
        <time>2019-06-15T09:35:45Z</time>
      </trkpt>
      <trkpt lat="39.255122" lon="-0.320228">
        <ele>-2.691</ele>
        <time>2019-06-15T09:35:46Z</time>
      </trkpt>
      <trkpt lat="39.255046" lon="-0.320173">
        <ele>-2.581</ele>
        <time>2019-06-15T09:35:48Z</time>
      </trkpt>
      <trkpt lat="39.255001" lon="-0.320155">
        <ele>-2.419</ele>
        <time>2019-06-15T09:35:49Z</time>
      </trkpt>
      <trkpt lat="39.254966" lon="-0.320115">
        <ele>-2.308</ele>
        <time>2019-06-15T09:35:50Z</time>
      </trkpt>
      <trkpt lat="39.254926" lon="-0.320078">
        <ele>-2.052</ele>
        <time>2019-06-15T09:35:51Z</time>
      </trkpt>
      <trkpt lat="39.254886" lon="-0.320043">
        <ele>-1.726</ele>
        <time>2019-06-15T09:35:52Z</time>
      </trkpt>
      <trkpt lat="39.254830" lon="-0.320015">
        <ele>-1.175</ele>
        <time>2019-06-15T09:35:53Z</time>
      </trkpt>
      <trkpt lat="39.254789" lon="-0.319972">
        <ele>-0.758</ele>
        <time>2019-06-15T09:35:54Z</time>
      </trkpt>
      <trkpt lat="39.254750" lon="-0.319934">
        <ele>-0.330</ele>
        <time>2019-06-15T09:35:55Z</time>
      </trkpt>
      <trkpt lat="39.254741" lon="-0.319875">
        <ele>-0.247</ele>
        <time>2019-06-15T09:35:56Z</time>
      </trkpt>
      <trkpt lat="39.254705" lon="-0.319839">
        <ele>0.126</ele>
        <time>2019-06-15T09:35:57Z</time>
      </trkpt>
      <trkpt lat="39.254666" lon="-0.319803">
        <ele>0.241</ele>
        <time>2019-06-15T09:35:58Z</time>
      </trkpt>
      <trkpt lat="39.254626" lon="-0.319755">
        <ele>0.355</ele>
        <time>2019-06-15T09:35:59Z</time>
      </trkpt>
      <trkpt lat="39.254584" lon="-0.319723">
        <ele>0.507</ele>
        <time>2019-06-15T09:36:00Z</time>
      </trkpt>
      <trkpt lat="39.254523" lon="-0.319717">
        <ele>0.717</ele>
        <time>2019-06-15T09:36:01Z</time>
      </trkpt>
      <trkpt lat="39.254487" lon="-0.319680">
        <ele>0.708</ele>
        <time>2019-06-15T09:36:02Z</time>
      </trkpt>
      <trkpt lat="39.254442" lon="-0.319638">
        <ele>0.788</ele>
        <time>2019-06-15T09:36:03Z</time>
      </trkpt>
      <trkpt lat="39.254405" lon="-0.319602">
        <ele>0.442</ele>
        <time>2019-06-15T09:36:04Z</time>
      </trkpt>
      <trkpt lat="39.254367" lon="-0.319568">
        <ele>0.221</ele>
        <time>2019-06-15T09:36:05Z</time>
      </trkpt>
      <trkpt lat="39.254302" lon="-0.319496">
        <ele>-0.344</ele>
        <time>2019-06-15T09:36:07Z</time>
      </trkpt>
      <trkpt lat="39.254229" lon="-0.319437">
        <ele>-0.886</ele>
        <time>2019-06-15T09:36:09Z</time>
      </trkpt>
      <trkpt lat="39.254187" lon="-0.319403">
        <ele>-0.973</ele>
        <time>2019-06-15T09:36:10Z</time>
      </trkpt>
      <trkpt lat="39.254149" lon="-0.319367">
        <ele>-1.052</ele>
        <time>2019-06-15T09:36:11Z</time>
      </trkpt>
      <trkpt lat="39.254073" lon="-0.319299">
        <ele>-1.047</ele>
        <time>2019-06-15T09:36:13Z</time>
      </trkpt>
      <trkpt lat="39.253998" lon="-0.319230">
        <ele>-1.088</ele>
        <time>2019-06-15T09:36:15Z</time>
      </trkpt>
      <trkpt lat="39.253924" lon="-0.319157">
        <ele>-1.024</ele>
        <time>2019-06-15T09:36:17Z</time>
      </trkpt>
      <trkpt lat="39.253887" lon="-0.319116">
        <ele>-1.026</ele>
        <time>2019-06-15T09:36:18Z</time>
      </trkpt>
      <trkpt lat="39.253817" lon="-0.319048">
        <ele>-0.708</ele>
        <time>2019-06-15T09:36:20Z</time>
      </trkpt>
      <trkpt lat="39.253774" lon="-0.319021">
        <ele>-0.621</ele>
        <time>2019-06-15T09:36:21Z</time>
      </trkpt>
      <trkpt lat="39.253733" lon="-0.318991">
        <ele>-0.435</ele>
        <time>2019-06-15T09:36:22Z</time>
      </trkpt>
      <trkpt lat="39.253694" lon="-0.318958">
        <ele>-0.384</ele>
        <time>2019-06-15T09:36:23Z</time>
      </trkpt>
      <trkpt lat="39.253622" lon="-0.318902">
        <ele>-0.087</ele>
        <time>2019-06-15T09:36:25Z</time>
      </trkpt>
      <trkpt lat="39.253580" lon="-0.318867">
        <ele>-0.169</ele>
        <time>2019-06-15T09:36:26Z</time>
      </trkpt>
      <trkpt lat="39.253525" lon="-0.318840">
        <ele>-0.196</ele>
        <time>2019-06-15T09:36:27Z</time>
      </trkpt>
      <trkpt lat="39.253479" lon="-0.318803">
        <ele>-0.265</ele>
        <time>2019-06-15T09:36:28Z</time>
      </trkpt>
      <trkpt lat="39.253407" lon="-0.318731">
        <ele>-0.220</ele>
        <time>2019-06-15T09:36:30Z</time>
      </trkpt>
      <trkpt lat="39.253371" lon="-0.318683">
        <ele>-0.138</ele>
        <time>2019-06-15T09:36:31Z</time>
      </trkpt>
      <trkpt lat="39.253334" lon="-0.318645">
        <ele>-0.070</ele>
        <time>2019-06-15T09:36:32Z</time>
      </trkpt>
      <trkpt lat="39.253295" lon="-0.318609">
        <ele>-0.017</ele>
        <time>2019-06-15T09:36:33Z</time>
      </trkpt>
      <trkpt lat="39.253255" lon="-0.318578">
        <ele>-0.108</ele>
        <time>2019-06-15T09:36:34Z</time>
      </trkpt>
      <trkpt lat="39.253177" lon="-0.318516">
        <ele>-0.196</ele>
        <time>2019-06-15T09:36:36Z</time>
      </trkpt>
      <trkpt lat="39.253138" lon="-0.318474">
        <ele>-0.180</ele>
        <time>2019-06-15T09:36:37Z</time>
      </trkpt>
      <trkpt lat="39.253092" lon="-0.318453">
        <ele>-0.119</ele>
        <time>2019-06-15T09:36:38Z</time>
      </trkpt>
      <trkpt lat="39.253054" lon="-0.318415">
        <ele>0.052</ele>
        <time>2019-06-15T09:36:39Z</time>
      </trkpt>
      <trkpt lat="39.253014" lon="-0.318381">
        <ele>0.184</ele>
        <time>2019-06-15T09:36:40Z</time>
      </trkpt>
      <trkpt lat="39.252974" lon="-0.318348">
        <ele>0.371</ele>
        <time>2019-06-15T09:36:41Z</time>
      </trkpt>
      <trkpt lat="39.252928" lon="-0.318318">
        <ele>0.560</ele>
        <time>2019-06-15T09:36:42Z</time>
      </trkpt>
      <trkpt lat="39.252878" lon="-0.318275">
        <ele>0.695</ele>
        <time>2019-06-15T09:36:43Z</time>
      </trkpt>
      <trkpt lat="39.252834" lon="-0.318236">
        <ele>0.841</ele>
        <time>2019-06-15T09:36:44Z</time>
      </trkpt>
      <trkpt lat="39.252793" lon="-0.318191">
        <ele>0.981</ele>
        <time>2019-06-15T09:36:45Z</time>
      </trkpt>
      <trkpt lat="39.252746" lon="-0.318145">
        <ele>0.909</ele>
        <time>2019-06-15T09:36:46Z</time>
      </trkpt>
      <trkpt lat="39.252688" lon="-0.318105">
        <ele>0.708</ele>
        <time>2019-06-15T09:36:47Z</time>
      </trkpt>
      <trkpt lat="39.252609" lon="-0.318040">
        <ele>0.327</ele>
        <time>2019-06-15T09:36:49Z</time>
      </trkpt>
      <trkpt lat="39.252568" lon="-0.318006">
        <ele>0.121</ele>
        <time>2019-06-15T09:36:50Z</time>
      </trkpt>
      <trkpt lat="39.252522" lon="-0.317972">
        <ele>-0.270</ele>
        <time>2019-06-15T09:36:51Z</time>
      </trkpt>
      <trkpt lat="39.252457" lon="-0.317899">
        <ele>-0.983</ele>
        <time>2019-06-15T09:36:53Z</time>
      </trkpt>
      <trkpt lat="39.252417" lon="-0.317866">
        <ele>-1.385</ele>
        <time>2019-06-15T09:36:54Z</time>
      </trkpt>
      <trkpt lat="39.252372" lon="-0.317828">
        <ele>-1.712</ele>
        <time>2019-06-15T09:36:55Z</time>
      </trkpt>
      <trkpt lat="39.252331" lon="-0.317794">
        <ele>-2.251</ele>
        <time>2019-06-15T09:36:56Z</time>
      </trkpt>
      <trkpt lat="39.252288" lon="-0.317765">
        <ele>-2.596</ele>
        <time>2019-06-15T09:36:57Z</time>
      </trkpt>
      <trkpt lat="39.252244" lon="-0.317733">
        <ele>-2.745</ele>
        <time>2019-06-15T09:36:58Z</time>
      </trkpt>
      <trkpt lat="39.252206" lon="-0.317696">
        <ele>-2.747</ele>
        <time>2019-06-15T09:36:59Z</time>
      </trkpt>
      <trkpt lat="39.252166" lon="-0.317663">
        <ele>-2.611</ele>
        <time>2019-06-15T09:37:00Z</time>
      </trkpt>
      <trkpt lat="39.252104" lon="-0.317629">
        <ele>-2.508</ele>
        <time>2019-06-15T09:37:01Z</time>
      </trkpt>
      <trkpt lat="39.252034" lon="-0.317541">
        <ele>-2.137</ele>
        <time>2019-06-15T09:37:03Z</time>
      </trkpt>
      <trkpt lat="39.251990" lon="-0.317497">
        <ele>-2.081</ele>
        <time>2019-06-15T09:37:04Z</time>
      </trkpt>
      <trkpt lat="39.251955" lon="-0.317453">
        <ele>-2.040</ele>
        <time>2019-06-15T09:37:05Z</time>
      </trkpt>
      <trkpt lat="39.251914" lon="-0.317412">
        <ele>-2.033</ele>
        <time>2019-06-15T09:37:06Z</time>
      </trkpt>
      <trkpt lat="39.251841" lon="-0.317343">
        <ele>-2.065</ele>
        <time>2019-06-15T09:37:08Z</time>
      </trkpt>
      <trkpt lat="39.251803" lon="-0.317302">
        <ele>-2.032</ele>
        <time>2019-06-15T09:37:09Z</time>
      </trkpt>
      <trkpt lat="39.251763" lon="-0.317264">
        <ele>-2.011</ele>
        <time>2019-06-15T09:37:10Z</time>
      </trkpt>
      <trkpt lat="39.251720" lon="-0.317225">
        <ele>-2.086</ele>
        <time>2019-06-15T09:37:11Z</time>
      </trkpt>
      <trkpt lat="39.251653" lon="-0.317140">
        <ele>-2.026</ele>
        <time>2019-06-15T09:37:13Z</time>
      </trkpt>
      <trkpt lat="39.251615" lon="-0.317100">
        <ele>-2.047</ele>
        <time>2019-06-15T09:37:14Z</time>
      </trkpt>
      <trkpt lat="39.251544" lon="-0.317044">
        <ele>-2.011</ele>
        <time>2019-06-15T09:37:16Z</time>
      </trkpt>
      <trkpt lat="39.251510" lon="-0.317003">
        <ele>-2.008</ele>
        <time>2019-06-15T09:37:17Z</time>
      </trkpt>
      <trkpt lat="39.251435" lon="-0.316946">
        <ele>-2.085</ele>
        <time>2019-06-15T09:37:19Z</time>
      </trkpt>
      <trkpt lat="39.251379" lon="-0.316900">
        <ele>-1.839</ele>
        <time>2019-06-15T09:37:20Z</time>
      </trkpt>
      <trkpt lat="39.251298" lon="-0.316844">
        <ele>-1.398</ele>
        <time>2019-06-15T09:37:22Z</time>
      </trkpt>
      <trkpt lat="39.251260" lon="-0.316805">
        <ele>-1.031</ele>
        <time>2019-06-15T09:37:23Z</time>
      </trkpt>
      <trkpt lat="39.251222" lon="-0.316764">
        <ele>-0.843</ele>
        <time>2019-06-15T09:37:24Z</time>
      </trkpt>
      <trkpt lat="39.251181" lon="-0.316719">
        <ele>-0.490</ele>
        <time>2019-06-15T09:37:25Z</time>
      </trkpt>
      <trkpt lat="39.251147" lon="-0.316679">
        <ele>-0.279</ele>
        <time>2019-06-15T09:37:26Z</time>
      </trkpt>
      <trkpt lat="39.251107" lon="-0.316640">
        <ele>0.064</ele>
        <time>2019-06-15T09:37:27Z</time>
      </trkpt>
      <trkpt lat="39.251069" lon="-0.316605">
        <ele>0.082</ele>
        <time>2019-06-15T09:37:28Z</time>
      </trkpt>
      <trkpt lat="39.251028" lon="-0.316566">
        <ele>0.043</ele>
        <time>2019-06-15T09:37:29Z</time>
      </trkpt>
      <trkpt lat="39.250943" lon="-0.316513">
        <ele>0.017</ele>
        <time>2019-06-15T09:37:31Z</time>
      </trkpt>
      <trkpt lat="39.250885" lon="-0.316485">
        <ele>0.008</ele>
        <time>2019-06-15T09:37:32Z</time>
      </trkpt>
      <trkpt lat="39.250838" lon="-0.316466">
        <ele>0.091</ele>
        <time>2019-06-15T09:37:33Z</time>
      </trkpt>
      <trkpt lat="39.250793" lon="-0.316435">
        <ele>0.155</ele>
        <time>2019-06-15T09:37:34Z</time>
      </trkpt>
      <trkpt lat="39.250714" lon="-0.316395">
        <ele>0.464</ele>
        <time>2019-06-15T09:37:36Z</time>
      </trkpt>
      <trkpt lat="39.250666" lon="-0.316370">
        <ele>0.597</ele>
        <time>2019-06-15T09:37:37Z</time>
      </trkpt>
      <trkpt lat="39.250595" lon="-0.316302">
        <ele>0.319</ele>
        <time>2019-06-15T09:37:39Z</time>
      </trkpt>
      <trkpt lat="39.250547" lon="-0.316264">
        <ele>0.156</ele>
        <time>2019-06-15T09:37:40Z</time>
      </trkpt>
      <trkpt lat="39.250502" lon="-0.316227">
        <ele>-0.415</ele>
        <time>2019-06-15T09:37:41Z</time>
      </trkpt>
      <trkpt lat="39.250457" lon="-0.316195">
        <ele>-0.830</ele>
        <time>2019-06-15T09:37:42Z</time>
      </trkpt>
      <trkpt lat="39.250412" lon="-0.316167">
        <ele>-1.154</ele>
        <time>2019-06-15T09:37:43Z</time>
      </trkpt>
      <trkpt lat="39.250366" lon="-0.316145">
        <ele>-1.456</ele>
        <time>2019-06-15T09:37:44Z</time>
      </trkpt>
      <trkpt lat="39.250291" lon="-0.316093">
        <ele>-2.011</ele>
        <time>2019-06-15T09:37:46Z</time>
      </trkpt>
      <trkpt lat="39.250255" lon="-0.316052">
        <ele>-2.108</ele>
        <time>2019-06-15T09:37:47Z</time>
      </trkpt>
      <trkpt lat="39.250210" lon="-0.316033">
        <ele>-2.038</ele>
        <time>2019-06-15T09:37:48Z</time>
      </trkpt>
      <trkpt lat="39.250165" lon="-0.316007">
        <ele>-2.072</ele>
        <time>2019-06-15T09:37:49Z</time>
      </trkpt>
      <trkpt lat="39.250123" lon="-0.315985">
        <ele>-1.961</ele>
        <time>2019-06-15T09:37:50Z</time>
      </trkpt>
      <trkpt lat="39.250075" lon="-0.315962">
        <ele>-1.844</ele>
        <time>2019-06-15T09:37:51Z</time>
      </trkpt>
      <trkpt lat="39.250025" lon="-0.315939">
        <ele>-1.786</ele>
        <time>2019-06-15T09:37:52Z</time>
      </trkpt>
      <trkpt lat="39.249981" lon="-0.315907">
        <ele>-1.713</ele>
        <time>2019-06-15T09:37:53Z</time>
      </trkpt>
      <trkpt lat="39.249932" lon="-0.315889">
        <ele>-1.612</ele>
        <time>2019-06-15T09:37:54Z</time>
      </trkpt>
      <trkpt lat="39.249892" lon="-0.315842">
        <ele>-1.677</ele>
        <time>2019-06-15T09:37:55Z</time>
      </trkpt>
      <trkpt lat="39.249847" lon="-0.315819">
        <ele>-1.512</ele>
        <time>2019-06-15T09:37:56Z</time>
      </trkpt>
      <trkpt lat="39.249801" lon="-0.315790">
        <ele>-1.432</ele>
        <time>2019-06-15T09:37:57Z</time>
      </trkpt>
      <trkpt lat="39.249757" lon="-0.315762">
        <ele>-1.405</ele>
        <time>2019-06-15T09:37:58Z</time>
      </trkpt>
      <trkpt lat="39.249712" lon="-0.315729">
        <ele>-1.308</ele>
        <time>2019-06-15T09:37:59Z</time>
      </trkpt>
      <trkpt lat="39.249664" lon="-0.315690">
        <ele>-1.334</ele>
        <time>2019-06-15T09:38:00Z</time>
      </trkpt>
      <trkpt lat="39.249619" lon="-0.315674">
        <ele>-1.268</ele>
        <time>2019-06-15T09:38:01Z</time>
      </trkpt>
      <trkpt lat="39.249575" lon="-0.315651">
        <ele>-1.127</ele>
        <time>2019-06-15T09:38:02Z</time>
      </trkpt>
      <trkpt lat="39.249526" lon="-0.315623">
        <ele>-1.140</ele>
        <time>2019-06-15T09:38:03Z</time>
      </trkpt>
      <trkpt lat="39.249483" lon="-0.315598">
        <ele>-1.032</ele>
        <time>2019-06-15T09:38:04Z</time>
      </trkpt>
      <trkpt lat="39.249434" lon="-0.315580">
        <ele>-0.919</ele>
        <time>2019-06-15T09:38:05Z</time>
      </trkpt>
      <trkpt lat="39.249395" lon="-0.315544">
        <ele>-1.058</ele>
        <time>2019-06-15T09:38:06Z</time>
      </trkpt>
      <trkpt lat="39.249346" lon="-0.315512">
        <ele>-1.243</ele>
        <time>2019-06-15T09:38:07Z</time>
      </trkpt>
      <trkpt lat="39.249300" lon="-0.315487">
        <ele>-1.264</ele>
        <time>2019-06-15T09:38:08Z</time>
      </trkpt>
      <trkpt lat="39.249255" lon="-0.315455">
        <ele>-1.406</ele>
        <time>2019-06-15T09:38:09Z</time>
      </trkpt>
      <trkpt lat="39.249205" lon="-0.315434">
        <ele>-1.416</ele>
        <time>2019-06-15T09:38:10Z</time>
      </trkpt>
      <trkpt lat="39.249162" lon="-0.315408">
        <ele>-1.508</ele>
        <time>2019-06-15T09:38:11Z</time>
      </trkpt>
      <trkpt lat="39.249120" lon="-0.315383">
        <ele>-1.659</ele>
        <time>2019-06-15T09:38:12Z</time>
      </trkpt>
      <trkpt lat="39.249070" lon="-0.315358">
        <ele>-1.773</ele>
        <time>2019-06-15T09:38:13Z</time>
      </trkpt>
      <trkpt lat="39.248982" lon="-0.315311">
        <ele>-1.922</ele>
        <time>2019-06-15T09:38:15Z</time>
      </trkpt>
      <trkpt lat="39.248937" lon="-0.315279">
        <ele>-2.045</ele>
        <time>2019-06-15T09:38:16Z</time>
      </trkpt>
      <trkpt lat="39.248898" lon="-0.315245">
        <ele>-2.157</ele>
        <time>2019-06-15T09:38:17Z</time>
      </trkpt>
      <trkpt lat="39.248854" lon="-0.315221">
        <ele>-2.184</ele>
        <time>2019-06-15T09:38:18Z</time>
      </trkpt>
      <trkpt lat="39.248810" lon="-0.315205">
        <ele>-2.033</ele>
        <time>2019-06-15T09:38:19Z</time>
      </trkpt>
      <trkpt lat="39.248729" lon="-0.315160">
        <ele>-1.868</ele>
        <time>2019-06-15T09:38:21Z</time>
      </trkpt>
      <trkpt lat="39.248680" lon="-0.315134">
        <ele>-1.861</ele>
        <time>2019-06-15T09:38:22Z</time>
      </trkpt>
      <trkpt lat="39.248635" lon="-0.315109">
        <ele>-1.721</ele>
        <time>2019-06-15T09:38:23Z</time>
      </trkpt>
      <trkpt lat="39.248585" lon="-0.315082">
        <ele>-1.813</ele>
        <time>2019-06-15T09:38:24Z</time>
      </trkpt>
      <trkpt lat="39.248505" lon="-0.315044">
        <ele>-2.208</ele>
        <time>2019-06-15T09:38:26Z</time>
      </trkpt>
      <trkpt lat="39.248462" lon="-0.314999">
        <ele>-2.579</ele>
        <time>2019-06-15T09:38:27Z</time>
      </trkpt>
      <trkpt lat="39.248416" lon="-0.314974">
        <ele>-2.793</ele>
        <time>2019-06-15T09:38:28Z</time>
      </trkpt>
      <trkpt lat="39.248370" lon="-0.314937">
        <ele>-2.922</ele>
        <time>2019-06-15T09:38:29Z</time>
      </trkpt>
      <trkpt lat="39.248286" lon="-0.314891">
        <ele>-3.055</ele>
        <time>2019-06-15T09:38:31Z</time>
      </trkpt>
      <trkpt lat="39.248242" lon="-0.314876">
        <ele>-3.097</ele>
        <time>2019-06-15T09:38:32Z</time>
      </trkpt>
      <trkpt lat="39.248203" lon="-0.314836">
        <ele>-3.074</ele>
        <time>2019-06-15T09:38:33Z</time>
      </trkpt>
      <trkpt lat="39.248156" lon="-0.314815">
        <ele>-3.073</ele>
        <time>2019-06-15T09:38:34Z</time>
      </trkpt>
      <trkpt lat="39.248069" lon="-0.314764">
        <ele>-3.038</ele>
        <time>2019-06-15T09:38:36Z</time>
      </trkpt>
      <trkpt lat="39.247990" lon="-0.314725">
        <ele>-2.381</ele>
        <time>2019-06-15T09:38:38Z</time>
      </trkpt>
      <trkpt lat="39.247944" lon="-0.314708">
        <ele>-1.861</ele>
        <time>2019-06-15T09:38:39Z</time>
      </trkpt>
      <trkpt lat="39.247905" lon="-0.314667">
        <ele>-1.317</ele>
        <time>2019-06-15T09:38:40Z</time>
      </trkpt>
      <trkpt lat="39.247861" lon="-0.314631">
        <ele>-0.808</ele>
        <time>2019-06-15T09:38:41Z</time>
      </trkpt>
      <trkpt lat="39.247818" lon="-0.314601">
        <ele>-0.431</ele>
        <time>2019-06-15T09:38:42Z</time>
      </trkpt>
      <trkpt lat="39.247766" lon="-0.314603">
        <ele>0.015</ele>
        <time>2019-06-15T09:38:43Z</time>
      </trkpt>
      <trkpt lat="39.247680" lon="-0.314562">
        <ele>0.164</ele>
        <time>2019-06-15T09:38:45Z</time>
      </trkpt>
      <trkpt lat="39.247632" lon="-0.314534">
        <ele>0.277</ele>
        <time>2019-06-15T09:38:46Z</time>
      </trkpt>
      <trkpt lat="39.247583" lon="-0.314508">
        <ele>0.259</ele>
        <time>2019-06-15T09:38:47Z</time>
      </trkpt>
      <trkpt lat="39.247537" lon="-0.314488">
        <ele>0.126</ele>
        <time>2019-06-15T09:38:48Z</time>
      </trkpt>
      <trkpt lat="39.247491" lon="-0.314463">
        <ele>0.125</ele>
        <time>2019-06-15T09:38:49Z</time>
      </trkpt>
      <trkpt lat="39.247447" lon="-0.314437">
        <ele>-0.020</ele>
        <time>2019-06-15T09:38:50Z</time>
      </trkpt>
      <trkpt lat="39.247405" lon="-0.314406">
        <ele>-0.228</ele>
        <time>2019-06-15T09:38:51Z</time>
      </trkpt>
      <trkpt lat="39.247357" lon="-0.314376">
        <ele>-0.489</ele>
        <time>2019-06-15T09:38:52Z</time>
      </trkpt>
      <trkpt lat="39.247276" lon="-0.314325">
        <ele>-0.517</ele>
        <time>2019-06-15T09:38:54Z</time>
      </trkpt>
      <trkpt lat="39.247232" lon="-0.314302">
        <ele>-0.508</ele>
        <time>2019-06-15T09:38:55Z</time>
      </trkpt>
      <trkpt lat="39.247178" lon="-0.314273">
        <ele>-0.535</ele>
        <time>2019-06-15T09:38:56Z</time>
      </trkpt>
      <trkpt lat="39.247099" lon="-0.314222">
        <ele>-0.419</ele>
        <time>2019-06-15T09:38:58Z</time>
      </trkpt>
      <trkpt lat="39.247056" lon="-0.314196">
        <ele>-0.338</ele>
        <time>2019-06-15T09:38:59Z</time>
      </trkpt>
      <trkpt lat="39.247019" lon="-0.314159">
        <ele>-0.391</ele>
        <time>2019-06-15T09:39:00Z</time>
      </trkpt>
      <trkpt lat="39.246974" lon="-0.314135">
        <ele>-0.293</ele>
        <time>2019-06-15T09:39:01Z</time>
      </trkpt>
      <trkpt lat="39.246893" lon="-0.314092">
        <ele>-0.380</ele>
        <time>2019-06-15T09:39:03Z</time>
      </trkpt>
      <trkpt lat="39.246840" lon="-0.314066">
        <ele>-0.599</ele>
        <time>2019-06-15T09:39:04Z</time>
      </trkpt>
      <trkpt lat="39.246794" lon="-0.314041">
        <ele>-0.744</ele>
        <time>2019-06-15T09:39:05Z</time>
      </trkpt>
      <trkpt lat="39.246708" lon="-0.313999">
        <ele>-1.149</ele>
        <time>2019-06-15T09:39:07Z</time>
      </trkpt>
      <trkpt lat="39.246664" lon="-0.313979">
        <ele>-1.402</ele>
        <time>2019-06-15T09:39:08Z</time>
      </trkpt>
      <trkpt lat="39.246622" lon="-0.313956">
        <ele>-1.622</ele>
        <time>2019-06-15T09:39:09Z</time>
      </trkpt>
      <trkpt lat="39.246584" lon="-0.313918">
        <ele>-1.808</ele>
        <time>2019-06-15T09:39:10Z</time>
      </trkpt>
      <trkpt lat="39.246545" lon="-0.313885">
        <ele>-2.017</ele>
        <time>2019-06-15T09:39:11Z</time>
      </trkpt>
      <trkpt lat="39.246506" lon="-0.313849">
        <ele>-2.071</ele>
        <time>2019-06-15T09:39:12Z</time>
      </trkpt>
      <trkpt lat="39.246428" lon="-0.313775">
        <ele>-2.050</ele>
        <time>2019-06-15T09:39:14Z</time>
      </trkpt>
      <trkpt lat="39.246385" lon="-0.313745">
        <ele>-2.023</ele>
        <time>2019-06-15T09:39:15Z</time>
      </trkpt>
      <trkpt lat="39.246290" lon="-0.313708">
        <ele>-1.675</ele>
        <time>2019-06-15T09:39:17Z</time>
      </trkpt>
      <trkpt lat="39.246245" lon="-0.313680">
        <ele>-1.562</ele>
        <time>2019-06-15T09:39:18Z</time>
      </trkpt>
      <trkpt lat="39.246202" lon="-0.313651">
        <ele>-1.311</ele>
        <time>2019-06-15T09:39:19Z</time>
      </trkpt>
      <trkpt lat="39.246165" lon="-0.313616">
        <ele>-1.266</ele>
        <time>2019-06-15T09:39:20Z</time>
      </trkpt>
      <trkpt lat="39.246091" lon="-0.313578">
        <ele>-0.724</ele>
        <time>2019-06-15T09:39:22Z</time>
      </trkpt>
      <trkpt lat="39.246048" lon="-0.313557">
        <ele>-0.404</ele>
        <time>2019-06-15T09:39:23Z</time>
      </trkpt>
      <trkpt lat="39.245959" lon="-0.313506">
        <ele>0.314</ele>
        <time>2019-06-15T09:39:25Z</time>
      </trkpt>
      <trkpt lat="39.245912" lon="-0.313492">
        <ele>0.608</ele>
        <time>2019-06-15T09:39:26Z</time>
      </trkpt>
      <trkpt lat="39.245864" lon="-0.313473">
        <ele>0.825</ele>
        <time>2019-06-15T09:39:27Z</time>
      </trkpt>
      <trkpt lat="39.245815" lon="-0.313450">
        <ele>1.089</ele>
        <time>2019-06-15T09:39:28Z</time>
      </trkpt>
      <trkpt lat="39.245770" lon="-0.313439">
        <ele>1.158</ele>
        <time>2019-06-15T09:39:29Z</time>
      </trkpt>
      <trkpt lat="39.245722" lon="-0.313429">
        <ele>1.321</ele>
        <time>2019-06-15T09:39:30Z</time>
      </trkpt>
      <trkpt lat="39.245679" lon="-0.313408">
        <ele>1.473</ele>
        <time>2019-06-15T09:39:31Z</time>
      </trkpt>
      <trkpt lat="39.245635" lon="-0.313386">
        <ele>1.690</ele>
        <time>2019-06-15T09:39:32Z</time>
      </trkpt>
      <trkpt lat="39.245582" lon="-0.313366">
        <ele>1.829</ele>
        <time>2019-06-15T09:39:33Z</time>
      </trkpt>
      <trkpt lat="39.245531" lon="-0.313360">
        <ele>1.844</ele>
        <time>2019-06-15T09:39:34Z</time>
      </trkpt>
      <trkpt lat="39.245487" lon="-0.313347">
        <ele>1.713</ele>
        <time>2019-06-15T09:39:35Z</time>
      </trkpt>
      <trkpt lat="39.245439" lon="-0.313331">
        <ele>1.643</ele>
        <time>2019-06-15T09:39:36Z</time>
      </trkpt>
      <trkpt lat="39.245393" lon="-0.313323">
        <ele>1.407</ele>
        <time>2019-06-15T09:39:37Z</time>
      </trkpt>
      <trkpt lat="39.245344" lon="-0.313312">
        <ele>1.208</ele>
        <time>2019-06-15T09:39:38Z</time>
      </trkpt>
      <trkpt lat="39.245299" lon="-0.313295">
        <ele>1.144</ele>
        <time>2019-06-15T09:39:39Z</time>
      </trkpt>
      <trkpt lat="39.245254" lon="-0.313287">
        <ele>1.088</ele>
        <time>2019-06-15T09:39:40Z</time>
      </trkpt>
      <trkpt lat="39.245209" lon="-0.313269">
        <ele>1.057</ele>
        <time>2019-06-15T09:39:41Z</time>
      </trkpt>
      <trkpt lat="39.245165" lon="-0.313255">
        <ele>1.090</ele>
        <time>2019-06-15T09:39:42Z</time>
      </trkpt>
      <trkpt lat="39.245076" lon="-0.313222">
        <ele>1.062</ele>
        <time>2019-06-15T09:39:44Z</time>
      </trkpt>
      <trkpt lat="39.245031" lon="-0.313206">
        <ele>1.099</ele>
        <time>2019-06-15T09:39:45Z</time>
      </trkpt>
      <trkpt lat="39.244943" lon="-0.313174">
        <ele>1.018</ele>
        <time>2019-06-15T09:39:47Z</time>
      </trkpt>
      <trkpt lat="39.244898" lon="-0.313163">
        <ele>1.013</ele>
        <time>2019-06-15T09:39:48Z</time>
      </trkpt>
      <trkpt lat="39.244854" lon="-0.313149">
        <ele>1.097</ele>
        <time>2019-06-15T09:39:49Z</time>
      </trkpt>
      <trkpt lat="39.244785" lon="-0.313115">
        <ele>1.023</ele>
        <time>2019-06-15T09:39:51Z</time>
      </trkpt>
      <trkpt lat="39.244736" lon="-0.313100">
        <ele>1.025</ele>
        <time>2019-06-15T09:39:52Z</time>
      </trkpt>
      <trkpt lat="39.244687" lon="-0.313090">
        <ele>1.008</ele>
        <time>2019-06-15T09:39:53Z</time>
      </trkpt>
      <trkpt lat="39.244640" lon="-0.313081">
        <ele>1.052</ele>
        <time>2019-06-15T09:39:54Z</time>
      </trkpt>
      <trkpt lat="39.244562" lon="-0.313071">
        <ele>1.026</ele>
        <time>2019-06-15T09:39:56Z</time>
      </trkpt>
      <trkpt lat="39.244516" lon="-0.313060">
        <ele>1.065</ele>
        <time>2019-06-15T09:39:57Z</time>
      </trkpt>
      <trkpt lat="39.244469" lon="-0.313042">
        <ele>1.048</ele>
        <time>2019-06-15T09:39:58Z</time>
      </trkpt>
      <trkpt lat="39.244422" lon="-0.313026">
        <ele>0.970</ele>
        <time>2019-06-15T09:39:59Z</time>
      </trkpt>
      <trkpt lat="39.244331" lon="-0.312998">
        <ele>0.887</ele>
        <time>2019-06-15T09:40:01Z</time>
      </trkpt>
      <trkpt lat="39.244287" lon="-0.312987">
        <ele>0.886</ele>
        <time>2019-06-15T09:40:02Z</time>
      </trkpt>
      <trkpt lat="39.244242" lon="-0.312979">
        <ele>0.731</ele>
        <time>2019-06-15T09:40:03Z</time>
      </trkpt>
      <trkpt lat="39.244193" lon="-0.312966">
        <ele>0.784</ele>
        <time>2019-06-15T09:40:04Z</time>
      </trkpt>
      <trkpt lat="39.244147" lon="-0.312950">
        <ele>0.607</ele>
        <time>2019-06-15T09:40:05Z</time>
      </trkpt>
      <trkpt lat="39.244101" lon="-0.312957">
        <ele>0.717</ele>
        <time>2019-06-15T09:40:06Z</time>
      </trkpt>
      <trkpt lat="39.244050" lon="-0.312923">
        <ele>0.708</ele>
        <time>2019-06-15T09:40:07Z</time>
      </trkpt>
      <trkpt lat="39.244001" lon="-0.312918">
        <ele>0.881</ele>
        <time>2019-06-15T09:40:08Z</time>
      </trkpt>
      <trkpt lat="39.243908" lon="-0.312883">
        <ele>1.055</ele>
        <time>2019-06-15T09:40:10Z</time>
      </trkpt>
      <trkpt lat="39.243863" lon="-0.312865">
        <ele>1.024</ele>
        <time>2019-06-15T09:40:11Z</time>
      </trkpt>
      <trkpt lat="39.243807" lon="-0.312852">
        <ele>1.087</ele>
        <time>2019-06-15T09:40:12Z</time>
      </trkpt>
      <trkpt lat="39.243719" lon="-0.312827">
        <ele>1.069</ele>
        <time>2019-06-15T09:40:14Z</time>
      </trkpt>
      <trkpt lat="39.243672" lon="-0.312817">
        <ele>1.036</ele>
        <time>2019-06-15T09:40:15Z</time>
      </trkpt>
      <trkpt lat="39.243624" lon="-0.312797">
        <ele>1.075</ele>
        <time>2019-06-15T09:40:16Z</time>
      </trkpt>
      <trkpt lat="39.243576" lon="-0.312775">
        <ele>0.940</ele>
        <time>2019-06-15T09:40:17Z</time>
      </trkpt>
      <trkpt lat="39.243532" lon="-0.312749">
        <ele>0.799</ele>
        <time>2019-06-15T09:40:18Z</time>
      </trkpt>
      <trkpt lat="39.243445" lon="-0.312739">
        <ele>0.407</ele>
        <time>2019-06-15T09:40:20Z</time>
      </trkpt>
      <trkpt lat="39.243399" lon="-0.312733">
        <ele>0.227</ele>
        <time>2019-06-15T09:40:21Z</time>
      </trkpt>
      <trkpt lat="39.243352" lon="-0.312736">
        <ele>0.108</ele>
        <time>2019-06-15T09:40:22Z</time>
      </trkpt>
      <trkpt lat="39.243299" lon="-0.312720">
        <ele>0.062</ele>
        <time>2019-06-15T09:40:23Z</time>
      </trkpt>
      <trkpt lat="39.243252" lon="-0.312699">
        <ele>0.076</ele>
        <time>2019-06-15T09:40:24Z</time>
      </trkpt>
      <trkpt lat="39.243198" lon="-0.312686">
        <ele>0.075</ele>
        <time>2019-06-15T09:40:25Z</time>
      </trkpt>
      <trkpt lat="39.243144" lon="-0.312662">
        <ele>0.048</ele>
        <time>2019-06-15T09:40:26Z</time>
      </trkpt>
      <trkpt lat="39.243094" lon="-0.312652">
        <ele>0.070</ele>
        <time>2019-06-15T09:40:27Z</time>
      </trkpt>
      <trkpt lat="39.243040" lon="-0.312637">
        <ele>0.197</ele>
        <time>2019-06-15T09:40:28Z</time>
      </trkpt>
      <trkpt lat="39.242959" lon="-0.312634">
        <ele>0.366</ele>
        <time>2019-06-15T09:40:30Z</time>
      </trkpt>
      <trkpt lat="39.242905" lon="-0.312609">
        <ele>0.591</ele>
        <time>2019-06-15T09:40:31Z</time>
      </trkpt>
      <trkpt lat="39.242854" lon="-0.312594">
        <ele>0.767</ele>
        <time>2019-06-15T09:40:32Z</time>
      </trkpt>
      <trkpt lat="39.242765" lon="-0.312561">
        <ele>1.081</ele>
        <time>2019-06-15T09:40:34Z</time>
      </trkpt>
      <trkpt lat="39.242721" lon="-0.312540">
        <ele>0.919</ele>
        <time>2019-06-15T09:40:35Z</time>
      </trkpt>
      <trkpt lat="39.242639" lon="-0.312521">
        <ele>0.608</ele>
        <time>2019-06-15T09:40:37Z</time>
      </trkpt>
      <trkpt lat="39.242592" lon="-0.312518">
        <ele>0.479</ele>
        <time>2019-06-15T09:40:38Z</time>
      </trkpt>
      <trkpt lat="39.242545" lon="-0.312513">
        <ele>0.293</ele>
        <time>2019-06-15T09:40:39Z</time>
      </trkpt>
      <trkpt lat="39.242469" lon="-0.312472">
        <ele>0.042</ele>
        <time>2019-06-15T09:40:41Z</time>
      </trkpt>
      <trkpt lat="39.242423" lon="-0.312465">
        <ele>0.075</ele>
        <time>2019-06-15T09:40:42Z</time>
      </trkpt>
      <trkpt lat="39.242380" lon="-0.312445">
        <ele>0.077</ele>
        <time>2019-06-15T09:40:43Z</time>
      </trkpt>
      <trkpt lat="39.242338" lon="-0.312424">
        <ele>0.064</ele>
        <time>2019-06-15T09:40:44Z</time>
      </trkpt>
      <trkpt lat="39.242261" lon="-0.312397">
        <ele>0.023</ele>
        <time>2019-06-15T09:40:46Z</time>
      </trkpt>
      <trkpt lat="39.242185" lon="-0.312360">
        <ele>-0.138</ele>
        <time>2019-06-15T09:40:48Z</time>
      </trkpt>
      <trkpt lat="39.242140" lon="-0.312351">
        <ele>-0.167</ele>
        <time>2019-06-15T09:40:49Z</time>
      </trkpt>
      <trkpt lat="39.242095" lon="-0.312380">
        <ele>-0.381</ele>
        <time>2019-06-15T09:40:50Z</time>
      </trkpt>
      <trkpt lat="39.242042" lon="-0.312378">
        <ele>-0.419</ele>
        <time>2019-06-15T09:40:51Z</time>
      </trkpt>
      <trkpt lat="39.241996" lon="-0.312369">
        <ele>-0.408</ele>
        <time>2019-06-15T09:40:52Z</time>
      </trkpt>
      <trkpt lat="39.241943" lon="-0.312334">
        <ele>-0.429</ele>
        <time>2019-06-15T09:40:53Z</time>
      </trkpt>
      <trkpt lat="39.241894" lon="-0.312313">
        <ele>-0.493</ele>
        <time>2019-06-15T09:40:54Z</time>
      </trkpt>
      <trkpt lat="39.241846" lon="-0.312289">
        <ele>-0.532</ele>
        <time>2019-06-15T09:40:55Z</time>
      </trkpt>
      <trkpt lat="39.241798" lon="-0.312275">
        <ele>-0.655</ele>
        <time>2019-06-15T09:40:56Z</time>
      </trkpt>
      <trkpt lat="39.241743" lon="-0.312273">
        <ele>-0.877</ele>
        <time>2019-06-15T09:40:57Z</time>
      </trkpt>
      <trkpt lat="39.241690" lon="-0.312290">
        <ele>-0.954</ele>
        <time>2019-06-15T09:40:58Z</time>
      </trkpt>
      <trkpt lat="39.241640" lon="-0.312281">
        <ele>-1.013</ele>
        <time>2019-06-15T09:40:59Z</time>
      </trkpt>
      <trkpt lat="39.241589" lon="-0.312287">
        <ele>-1.038</ele>
        <time>2019-06-15T09:41:00Z</time>
      </trkpt>
      <trkpt lat="39.241536" lon="-0.312285">
        <ele>-1.057</ele>
        <time>2019-06-15T09:41:01Z</time>
      </trkpt>
      <trkpt lat="39.241486" lon="-0.312277">
        <ele>-1.000</ele>
        <time>2019-06-15T09:41:02Z</time>
      </trkpt>
      <trkpt lat="39.241436" lon="-0.312267">
        <ele>-1.020</ele>
        <time>2019-06-15T09:41:03Z</time>
      </trkpt>
      <trkpt lat="39.241387" lon="-0.312265">
        <ele>-1.008</ele>
        <time>2019-06-15T09:41:04Z</time>
      </trkpt>
      <trkpt lat="39.241339" lon="-0.312264">
        <ele>-1.028</ele>
        <time>2019-06-15T09:41:05Z</time>
      </trkpt>
      <trkpt lat="39.241290" lon="-0.312265">
        <ele>-1.012</ele>
        <time>2019-06-15T09:41:06Z</time>
      </trkpt>
      <trkpt lat="39.241240" lon="-0.312263">
        <ele>-1.081</ele>
        <time>2019-06-15T09:41:07Z</time>
      </trkpt>
      <trkpt lat="39.241187" lon="-0.312260">
        <ele>-1.084</ele>
        <time>2019-06-15T09:41:08Z</time>
      </trkpt>
      <trkpt lat="39.241137" lon="-0.312256">
        <ele>-1.096</ele>
        <time>2019-06-15T09:41:09Z</time>
      </trkpt>
      <trkpt lat="39.241090" lon="-0.312250">
        <ele>-0.913</ele>
        <time>2019-06-15T09:41:10Z</time>
      </trkpt>
      <trkpt lat="39.241040" lon="-0.312246">
        <ele>-0.822</ele>
        <time>2019-06-15T09:41:11Z</time>
      </trkpt>
      <trkpt lat="39.240994" lon="-0.312238">
        <ele>-0.687</ele>
        <time>2019-06-15T09:41:12Z</time>
      </trkpt>
      <trkpt lat="39.240941" lon="-0.312232">
        <ele>-0.464</ele>
        <time>2019-06-15T09:41:13Z</time>
      </trkpt>
      <trkpt lat="39.240895" lon="-0.312231">
        <ele>-0.206</ele>
        <time>2019-06-15T09:41:14Z</time>
      </trkpt>
      <trkpt lat="39.240849" lon="-0.312226">
        <ele>-0.116</ele>
        <time>2019-06-15T09:41:15Z</time>
      </trkpt>
      <trkpt lat="39.240798" lon="-0.312230">
        <ele>-0.008</ele>
        <time>2019-06-15T09:41:16Z</time>
      </trkpt>
      <trkpt lat="39.240747" lon="-0.312231">
        <ele>-0.069</ele>
        <time>2019-06-15T09:41:17Z</time>
      </trkpt>
      <trkpt lat="39.240697" lon="-0.312225">
        <ele>-0.083</ele>
        <time>2019-06-15T09:41:18Z</time>
      </trkpt>
      <trkpt lat="39.240613" lon="-0.312222">
        <ele>0.062</ele>
        <time>2019-06-15T09:41:20Z</time>
      </trkpt>
      <trkpt lat="39.240568" lon="-0.312218">
        <ele>0.075</ele>
        <time>2019-06-15T09:41:21Z</time>
      </trkpt>
      <trkpt lat="39.240518" lon="-0.312215">
        <ele>-0.017</ele>
        <time>2019-06-15T09:41:22Z</time>
      </trkpt>
      <trkpt lat="39.240468" lon="-0.312215">
        <ele>-0.094</ele>
        <time>2019-06-15T09:41:23Z</time>
      </trkpt>
      <trkpt lat="39.240378" lon="-0.312208">
        <ele>-0.093</ele>
        <time>2019-06-15T09:41:25Z</time>
      </trkpt>
      <trkpt lat="39.240327" lon="-0.312207">
        <ele>-0.078</ele>
        <time>2019-06-15T09:41:26Z</time>
      </trkpt>
      <trkpt lat="39.240276" lon="-0.312204">
        <ele>-0.143</ele>
        <time>2019-06-15T09:41:27Z</time>
      </trkpt>
      <trkpt lat="39.240218" lon="-0.312208">
        <ele>-0.064</ele>
        <time>2019-06-15T09:41:28Z</time>
      </trkpt>
      <trkpt lat="39.240163" lon="-0.312218">
        <ele>-0.010</ele>
        <time>2019-06-15T09:41:29Z</time>
      </trkpt>
      <trkpt lat="39.240111" lon="-0.312218">
        <ele>-0.008</ele>
        <time>2019-06-15T09:41:30Z</time>
      </trkpt>
      <trkpt lat="39.240059" lon="-0.312219">
        <ele>-0.067</ele>
        <time>2019-06-15T09:41:31Z</time>
      </trkpt>
      <trkpt lat="39.240002" lon="-0.312224">
        <ele>0.081</ele>
        <time>2019-06-15T09:41:32Z</time>
      </trkpt>
      <trkpt lat="39.239908" lon="-0.312224">
        <ele>0.010</ele>
        <time>2019-06-15T09:41:34Z</time>
      </trkpt>
      <trkpt lat="39.239858" lon="-0.312220">
        <ele>0.073</ele>
        <time>2019-06-15T09:41:35Z</time>
      </trkpt>
      <trkpt lat="39.239810" lon="-0.312215">
        <ele>0.075</ele>
        <time>2019-06-15T09:41:36Z</time>
      </trkpt>
      <trkpt lat="39.239761" lon="-0.312219">
        <ele>0.082</ele>
        <time>2019-06-15T09:41:37Z</time>
      </trkpt>
      <trkpt lat="39.239668" lon="-0.312208">
        <ele>-0.161</ele>
        <time>2019-06-15T09:41:39Z</time>
      </trkpt>
      <trkpt lat="39.239616" lon="-0.312192">
        <ele>-0.356</ele>
        <time>2019-06-15T09:41:40Z</time>
      </trkpt>
      <trkpt lat="39.239567" lon="-0.312183">
        <ele>-0.474</ele>
        <time>2019-06-15T09:41:41Z</time>
      </trkpt>
      <trkpt lat="39.239477" lon="-0.312192">
        <ele>-0.856</ele>
        <time>2019-06-15T09:41:43Z</time>
      </trkpt>
      <trkpt lat="39.239431" lon="-0.312186">
        <ele>-0.921</ele>
        <time>2019-06-15T09:41:44Z</time>
      </trkpt>
      <trkpt lat="39.239343" lon="-0.312201">
        <ele>-0.908</ele>
        <time>2019-06-15T09:41:46Z</time>
      </trkpt>
      <trkpt lat="39.239296" lon="-0.312200">
        <ele>-0.990</ele>
        <time>2019-06-15T09:41:47Z</time>
      </trkpt>
      <trkpt lat="39.239209" lon="-0.312196">
        <ele>-0.864</ele>
        <time>2019-06-15T09:41:49Z</time>
      </trkpt>
      <trkpt lat="39.239160" lon="-0.312197">
        <ele>-0.823</ele>
        <time>2019-06-15T09:41:50Z</time>
      </trkpt>
      <trkpt lat="39.239114" lon="-0.312216">
        <ele>-0.836</ele>
        <time>2019-06-15T09:41:51Z</time>
      </trkpt>
      <trkpt lat="39.239067" lon="-0.312209">
        <ele>-0.688</ele>
        <time>2019-06-15T09:41:52Z</time>
      </trkpt>
      <trkpt lat="39.239017" lon="-0.312220">
        <ele>-0.525</ele>
        <time>2019-06-15T09:41:53Z</time>
      </trkpt>
      <trkpt lat="39.238971" lon="-0.312200">
        <ele>-0.254</ele>
        <time>2019-06-15T09:41:54Z</time>
      </trkpt>
      <trkpt lat="39.238927" lon="-0.312178">
        <ele>0.069</ele>
        <time>2019-06-15T09:41:55Z</time>
      </trkpt>
      <trkpt lat="39.238857" lon="-0.312111">
        <ele>0.464</ele>
        <time>2019-06-15T09:41:57Z</time>
      </trkpt>
      <trkpt lat="39.238834" lon="-0.312057">
        <ele>0.506</ele>
        <time>2019-06-15T09:41:58Z</time>
      </trkpt>
      <trkpt lat="39.238816" lon="-0.311996">
        <ele>0.616</ele>
        <time>2019-06-15T09:41:59Z</time>
      </trkpt>
      <trkpt lat="39.238799" lon="-0.311868">
        <ele>0.608</ele>
        <time>2019-06-15T09:42:01Z</time>
      </trkpt>
      <trkpt lat="39.238795" lon="-0.311803">
        <ele>0.589</ele>
        <time>2019-06-15T09:42:02Z</time>
      </trkpt>
      <trkpt lat="39.238793" lon="-0.311742">
        <ele>0.453</ele>
        <time>2019-06-15T09:42:03Z</time>
      </trkpt>
      <trkpt lat="39.238786" lon="-0.311681">
        <ele>0.322</ele>
        <time>2019-06-15T09:42:04Z</time>
      </trkpt>
      <trkpt lat="39.238774" lon="-0.311613">
        <ele>0.135</ele>
        <time>2019-06-15T09:42:05Z</time>
      </trkpt>
      <trkpt lat="39.238758" lon="-0.311545">
        <ele>-0.297</ele>
        <time>2019-06-15T09:42:06Z</time>
      </trkpt>
      <trkpt lat="39.238740" lon="-0.311481">
        <ele>-0.474</ele>
        <time>2019-06-15T09:42:07Z</time>
      </trkpt>
      <trkpt lat="39.238708" lon="-0.311424">
        <ele>-0.643</ele>
        <time>2019-06-15T09:42:08Z</time>
      </trkpt>
      <trkpt lat="39.238667" lon="-0.311382">
        <ele>-0.868</ele>
        <time>2019-06-15T09:42:09Z</time>
      </trkpt>
      <trkpt lat="39.238621" lon="-0.311356">
        <ele>-1.198</ele>
        <time>2019-06-15T09:42:10Z</time>
      </trkpt>
      <trkpt lat="39.238570" lon="-0.311341">
        <ele>-1.115</ele>
        <time>2019-06-15T09:42:11Z</time>
      </trkpt>
      <trkpt lat="39.238523" lon="-0.311339">
        <ele>-1.126</ele>
        <time>2019-06-15T09:42:12Z</time>
      </trkpt>
      <trkpt lat="39.238469" lon="-0.311334">
        <ele>-1.108</ele>
        <time>2019-06-15T09:42:13Z</time>
      </trkpt>
      <trkpt lat="39.238422" lon="-0.311328">
        <ele>-1.192</ele>
        <time>2019-06-15T09:42:14Z</time>
      </trkpt>
      <trkpt lat="39.238376" lon="-0.311322">
        <ele>-1.066</ele>
        <time>2019-06-15T09:42:15Z</time>
      </trkpt>
      <trkpt lat="39.238325" lon="-0.311306">
        <ele>-1.095</ele>
        <time>2019-06-15T09:42:16Z</time>
      </trkpt>
      <trkpt lat="39.238279" lon="-0.311297">
        <ele>-0.948</ele>
        <time>2019-06-15T09:42:17Z</time>
      </trkpt>
      <trkpt lat="39.238228" lon="-0.311292">
        <ele>-0.970</ele>
        <time>2019-06-15T09:42:18Z</time>
      </trkpt>
      <trkpt lat="39.238181" lon="-0.311272">
        <ele>-0.857</ele>
        <time>2019-06-15T09:42:19Z</time>
      </trkpt>
      <trkpt lat="39.238132" lon="-0.311261">
        <ele>-0.746</ele>
        <time>2019-06-15T09:42:20Z</time>
      </trkpt>
      <trkpt lat="39.238087" lon="-0.311258">
        <ele>-0.691</ele>
        <time>2019-06-15T09:42:21Z</time>
      </trkpt>
      <trkpt lat="39.238038" lon="-0.311251">
        <ele>-0.432</ele>
        <time>2019-06-15T09:42:22Z</time>
      </trkpt>
      <trkpt lat="39.237993" lon="-0.311238">
        <ele>-0.192</ele>
        <time>2019-06-15T09:42:23Z</time>
      </trkpt>
      <trkpt lat="39.237911" lon="-0.311222">
        <ele>0.311</ele>
        <time>2019-06-15T09:42:25Z</time>
      </trkpt>
      <trkpt lat="39.237865" lon="-0.311214">
        <ele>0.608</ele>
        <time>2019-06-15T09:42:26Z</time>
      </trkpt>
      <trkpt lat="39.237818" lon="-0.311202">
        <ele>0.816</ele>
        <time>2019-06-15T09:42:27Z</time>
      </trkpt>
      <trkpt lat="39.237773" lon="-0.311183">
        <ele>1.010</ele>
        <time>2019-06-15T09:42:28Z</time>
      </trkpt>
      <trkpt lat="39.237724" lon="-0.311166">
        <ele>1.229</ele>
        <time>2019-06-15T09:42:29Z</time>
      </trkpt>
      <trkpt lat="39.237636" lon="-0.311156">
        <ele>1.542</ele>
        <time>2019-06-15T09:42:31Z</time>
      </trkpt>
      <trkpt lat="39.237588" lon="-0.311155">
        <ele>1.754</ele>
        <time>2019-06-15T09:42:32Z</time>
      </trkpt>
      <trkpt lat="39.237494" lon="-0.311134">
        <ele>2.041</ele>
        <time>2019-06-15T09:42:34Z</time>
      </trkpt>
      <trkpt lat="39.237409" lon="-0.311134">
        <ele>2.090</ele>
        <time>2019-06-15T09:42:36Z</time>
      </trkpt>
      <trkpt lat="39.237364" lon="-0.311114">
        <ele>2.045</ele>
        <time>2019-06-15T09:42:37Z</time>
      </trkpt>
      <trkpt lat="39.237285" lon="-0.311102">
        <ele>2.033</ele>
        <time>2019-06-15T09:42:39Z</time>
      </trkpt>
      <trkpt lat="39.237201" lon="-0.311098">
        <ele>1.823</ele>
        <time>2019-06-15T09:42:41Z</time>
      </trkpt>
      <trkpt lat="39.237148" lon="-0.311082">
        <ele>1.415</ele>
        <time>2019-06-15T09:42:42Z</time>
      </trkpt>
      <trkpt lat="39.237101" lon="-0.311065">
        <ele>1.008</ele>
        <time>2019-06-15T09:42:43Z</time>
      </trkpt>
      <trkpt lat="39.237049" lon="-0.311048">
        <ele>0.566</ele>
        <time>2019-06-15T09:42:44Z</time>
      </trkpt>
      <trkpt lat="39.236998" lon="-0.311030">
        <ele>0.190</ele>
        <time>2019-06-15T09:42:45Z</time>
      </trkpt>
      <trkpt lat="39.236944" lon="-0.311009">
        <ele>-0.459</ele>
        <time>2019-06-15T09:42:46Z</time>
      </trkpt>
      <trkpt lat="39.236894" lon="-0.311002">
        <ele>-0.652</ele>
        <time>2019-06-15T09:42:47Z</time>
      </trkpt>
      <trkpt lat="39.236842" lon="-0.310988">
        <ele>-0.924</ele>
        <time>2019-06-15T09:42:48Z</time>
      </trkpt>
      <trkpt lat="39.236785" lon="-0.310976">
        <ele>-1.141</ele>
        <time>2019-06-15T09:42:49Z</time>
      </trkpt>
      <trkpt lat="39.236731" lon="-0.310977">
        <ele>-1.360</ele>
        <time>2019-06-15T09:42:50Z</time>
      </trkpt>
      <trkpt lat="39.236681" lon="-0.310991">
        <ele>-1.575</ele>
        <time>2019-06-15T09:42:51Z</time>
      </trkpt>
      <trkpt lat="39.236633" lon="-0.310968">
        <ele>-1.326</ele>
        <time>2019-06-15T09:42:52Z</time>
      </trkpt>
      <trkpt lat="39.236584" lon="-0.310952">
        <ele>-1.047</ele>
        <time>2019-06-15T09:42:53Z</time>
      </trkpt>
      <trkpt lat="39.236538" lon="-0.310932">
        <ele>-0.711</ele>
        <time>2019-06-15T09:42:54Z</time>
      </trkpt>
      <trkpt lat="39.236489" lon="-0.310921">
        <ele>-0.508</ele>
        <time>2019-06-15T09:42:55Z</time>
      </trkpt>
      <trkpt lat="39.236438" lon="-0.310907">
        <ele>-0.245</ele>
        <time>2019-06-15T09:42:56Z</time>
      </trkpt>
      <trkpt lat="39.236385" lon="-0.310906">
        <ele>0.029</ele>
        <time>2019-06-15T09:42:57Z</time>
      </trkpt>
      <trkpt lat="39.236333" lon="-0.310897">
        <ele>0.268</ele>
        <time>2019-06-15T09:42:58Z</time>
      </trkpt>
      <trkpt lat="39.236274" lon="-0.310886">
        <ele>0.331</ele>
        <time>2019-06-15T09:42:59Z</time>
      </trkpt>
      <trkpt lat="39.236220" lon="-0.310877">
        <ele>0.543</ele>
        <time>2019-06-15T09:43:00Z</time>
      </trkpt>
      <trkpt lat="39.236166" lon="-0.310859">
        <ele>0.740</ele>
        <time>2019-06-15T09:43:01Z</time>
      </trkpt>
      <trkpt lat="39.236120" lon="-0.310852">
        <ele>0.929</ele>
        <time>2019-06-15T09:43:02Z</time>
      </trkpt>
      <trkpt lat="39.236062" lon="-0.310831">
        <ele>1.064</ele>
        <time>2019-06-15T09:43:03Z</time>
      </trkpt>
      <trkpt lat="39.236002" lon="-0.310810">
        <ele>1.015</ele>
        <time>2019-06-15T09:43:04Z</time>
      </trkpt>
      <trkpt lat="39.235913" lon="-0.310812">
        <ele>1.065</ele>
        <time>2019-06-15T09:43:06Z</time>
      </trkpt>
      <trkpt lat="39.235824" lon="-0.310800">
        <ele>1.011</ele>
        <time>2019-06-15T09:43:08Z</time>
      </trkpt>
      <trkpt lat="39.235775" lon="-0.310783">
        <ele>1.008</ele>
        <time>2019-06-15T09:43:09Z</time>
      </trkpt>
      <trkpt lat="39.235725" lon="-0.310777">
        <ele>1.094</ele>
        <time>2019-06-15T09:43:10Z</time>
      </trkpt>
      <trkpt lat="39.235677" lon="-0.310765">
        <ele>1.078</ele>
        <time>2019-06-15T09:43:11Z</time>
      </trkpt>
      <trkpt lat="39.235626" lon="-0.310757">
        <ele>1.067</ele>
        <time>2019-06-15T09:43:12Z</time>
      </trkpt>
      <trkpt lat="39.235575" lon="-0.310745">
        <ele>1.030</ele>
        <time>2019-06-15T09:43:13Z</time>
      </trkpt>
      <trkpt lat="39.235525" lon="-0.310735">
        <ele>1.012</ele>
        <time>2019-06-15T09:43:14Z</time>
      </trkpt>
      <trkpt lat="39.235479" lon="-0.310719">
        <ele>1.159</ele>
        <time>2019-06-15T09:43:15Z</time>
      </trkpt>
      <trkpt lat="39.235435" lon="-0.310699">
        <ele>1.218</ele>
        <time>2019-06-15T09:43:16Z</time>
      </trkpt>
      <trkpt lat="39.235383" lon="-0.310679">
        <ele>1.333</ele>
        <time>2019-06-15T09:43:17Z</time>
      </trkpt>
      <trkpt lat="39.235332" lon="-0.310675">
        <ele>1.555</ele>
        <time>2019-06-15T09:43:18Z</time>
      </trkpt>
      <trkpt lat="39.235284" lon="-0.310665">
        <ele>1.607</ele>
        <time>2019-06-15T09:43:19Z</time>
      </trkpt>
      <trkpt lat="39.235235" lon="-0.310651">
        <ele>1.617</ele>
        <time>2019-06-15T09:43:20Z</time>
      </trkpt>
      <trkpt lat="39.235182" lon="-0.310640">
        <ele>1.608</ele>
        <time>2019-06-15T09:43:21Z</time>
      </trkpt>
      <trkpt lat="39.235133" lon="-0.310625">
        <ele>1.538</ele>
        <time>2019-06-15T09:43:22Z</time>
      </trkpt>
      <trkpt lat="39.235082" lon="-0.310618">
        <ele>1.432</ele>
        <time>2019-06-15T09:43:23Z</time>
      </trkpt>
      <trkpt lat="39.235036" lon="-0.310605">
        <ele>1.371</ele>
        <time>2019-06-15T09:43:24Z</time>
      </trkpt>
      <trkpt lat="39.234983" lon="-0.310593">
        <ele>1.184</ele>
        <time>2019-06-15T09:43:25Z</time>
      </trkpt>
      <trkpt lat="39.234936" lon="-0.310585">
        <ele>1.186</ele>
        <time>2019-06-15T09:43:26Z</time>
      </trkpt>
      <trkpt lat="39.234890" lon="-0.310568">
        <ele>1.043</ele>
        <time>2019-06-15T09:43:27Z</time>
      </trkpt>
      <trkpt lat="39.234844" lon="-0.310554">
        <ele>1.062</ele>
        <time>2019-06-15T09:43:28Z</time>
      </trkpt>
      <trkpt lat="39.234793" lon="-0.310537">
        <ele>1.047</ele>
        <time>2019-06-15T09:43:29Z</time>
      </trkpt>
      <trkpt lat="39.234745" lon="-0.310527">
        <ele>1.026</ele>
        <time>2019-06-15T09:43:30Z</time>
      </trkpt>
      <trkpt lat="39.234696" lon="-0.310509">
        <ele>1.047</ele>
        <time>2019-06-15T09:43:31Z</time>
      </trkpt>
      <trkpt lat="39.234605" lon="-0.310488">
        <ele>1.011</ele>
        <time>2019-06-15T09:43:33Z</time>
      </trkpt>
      <trkpt lat="39.234559" lon="-0.310476">
        <ele>1.008</ele>
        <time>2019-06-15T09:43:34Z</time>
      </trkpt>
      <trkpt lat="39.234512" lon="-0.310460">
        <ele>1.015</ele>
        <time>2019-06-15T09:43:35Z</time>
      </trkpt>
      <trkpt lat="39.234461" lon="-0.310432">
        <ele>1.059</ele>
        <time>2019-06-15T09:43:36Z</time>
      </trkpt>
      <trkpt lat="39.234416" lon="-0.310413">
        <ele>1.098</ele>
        <time>2019-06-15T09:43:37Z</time>
      </trkpt>
      <trkpt lat="39.234328" lon="-0.310391">
        <ele>1.031</ele>
        <time>2019-06-15T09:43:39Z</time>
      </trkpt>
      <trkpt lat="39.234251" lon="-0.310379">
        <ele>1.073</ele>
        <time>2019-06-15T09:43:41Z</time>
      </trkpt>
      <trkpt lat="39.234203" lon="-0.310366">
        <ele>1.060</ele>
        <time>2019-06-15T09:43:42Z</time>
      </trkpt>
      <trkpt lat="39.234150" lon="-0.310355">
        <ele>1.089</ele>
        <time>2019-06-15T09:43:43Z</time>
      </trkpt>
      <trkpt lat="39.234066" lon="-0.310346">
        <ele>1.024</ele>
        <time>2019-06-15T09:43:45Z</time>
      </trkpt>
      <trkpt lat="39.234017" lon="-0.310323">
        <ele>1.049</ele>
        <time>2019-06-15T09:43:46Z</time>
      </trkpt>
      <trkpt lat="39.233970" lon="-0.310316">
        <ele>1.002</ele>
        <time>2019-06-15T09:43:47Z</time>
      </trkpt>
      <trkpt lat="39.233918" lon="-0.310298">
        <ele>1.022</ele>
        <time>2019-06-15T09:43:48Z</time>
      </trkpt>
      <trkpt lat="39.233870" lon="-0.310281">
        <ele>1.008</ele>
        <time>2019-06-15T09:43:49Z</time>
      </trkpt>
      <trkpt lat="39.233822" lon="-0.310270">
        <ele>1.047</ele>
        <time>2019-06-15T09:43:50Z</time>
      </trkpt>
      <trkpt lat="39.233774" lon="-0.310247">
        <ele>1.071</ele>
        <time>2019-06-15T09:43:51Z</time>
      </trkpt>
      <trkpt lat="39.233720" lon="-0.310239">
        <ele>1.060</ele>
        <time>2019-06-15T09:43:52Z</time>
      </trkpt>
      <trkpt lat="39.233672" lon="-0.310219">
        <ele>1.063</ele>
        <time>2019-06-15T09:43:53Z</time>
      </trkpt>
      <trkpt lat="39.233623" lon="-0.310200">
        <ele>1.075</ele>
        <time>2019-06-15T09:43:54Z</time>
      </trkpt>
      <trkpt lat="39.233571" lon="-0.310182">
        <ele>1.022</ele>
        <time>2019-06-15T09:43:55Z</time>
      </trkpt>
      <trkpt lat="39.233526" lon="-0.310167">
        <ele>1.061</ele>
        <time>2019-06-15T09:43:56Z</time>
      </trkpt>
      <trkpt lat="39.233474" lon="-0.310153">
        <ele>1.056</ele>
        <time>2019-06-15T09:43:57Z</time>
      </trkpt>
      <trkpt lat="39.233429" lon="-0.310129">
        <ele>1.047</ele>
        <time>2019-06-15T09:43:58Z</time>
      </trkpt>
      <trkpt lat="39.233376" lon="-0.310115">
        <ele>1.029</ele>
        <time>2019-06-15T09:43:59Z</time>
      </trkpt>
      <trkpt lat="39.233328" lon="-0.310099">
        <ele>1.021</ele>
        <time>2019-06-15T09:44:00Z</time>
      </trkpt>
      <trkpt lat="39.233279" lon="-0.310089">
        <ele>0.908</ele>
        <time>2019-06-15T09:44:01Z</time>
      </trkpt>
      <trkpt lat="39.233230" lon="-0.310073">
        <ele>0.917</ele>
        <time>2019-06-15T09:44:02Z</time>
      </trkpt>
      <trkpt lat="39.233181" lon="-0.310060">
        <ele>0.931</ele>
        <time>2019-06-15T09:44:03Z</time>
      </trkpt>
      <trkpt lat="39.233131" lon="-0.310044">
        <ele>0.940</ele>
        <time>2019-06-15T09:44:04Z</time>
      </trkpt>
      <trkpt lat="39.233084" lon="-0.310023">
        <ele>0.923</ele>
        <time>2019-06-15T09:44:05Z</time>
      </trkpt>
      <trkpt lat="39.233038" lon="-0.310002">
        <ele>0.915</ele>
        <time>2019-06-15T09:44:06Z</time>
      </trkpt>
      <trkpt lat="39.232946" lon="-0.309972">
        <ele>0.642</ele>
        <time>2019-06-15T09:44:08Z</time>
      </trkpt>
      <trkpt lat="39.232897" lon="-0.309953">
        <ele>0.531</ele>
        <time>2019-06-15T09:44:09Z</time>
      </trkpt>
      <trkpt lat="39.232846" lon="-0.309938">
        <ele>0.416</ele>
        <time>2019-06-15T09:44:10Z</time>
      </trkpt>
      <trkpt lat="39.232762" lon="-0.309916">
        <ele>0.381</ele>
        <time>2019-06-15T09:44:12Z</time>
      </trkpt>
      <trkpt lat="39.232718" lon="-0.309899">
        <ele>0.561</ele>
        <time>2019-06-15T09:44:13Z</time>
      </trkpt>
      <trkpt lat="39.232671" lon="-0.309881">
        <ele>0.617</ele>
        <time>2019-06-15T09:44:14Z</time>
      </trkpt>
      <trkpt lat="39.232622" lon="-0.309864">
        <ele>0.808</ele>
        <time>2019-06-15T09:44:15Z</time>
      </trkpt>
      <trkpt lat="39.232574" lon="-0.309855">
        <ele>0.991</ele>
        <time>2019-06-15T09:44:16Z</time>
      </trkpt>
      <trkpt lat="39.232523" lon="-0.309846">
        <ele>1.035</ele>
        <time>2019-06-15T09:44:17Z</time>
      </trkpt>
      <trkpt lat="39.232433" lon="-0.309817">
        <ele>0.944</ele>
        <time>2019-06-15T09:44:19Z</time>
      </trkpt>
      <trkpt lat="39.232382" lon="-0.309811">
        <ele>0.967</ele>
        <time>2019-06-15T09:44:20Z</time>
      </trkpt>
      <trkpt lat="39.232299" lon="-0.309775">
        <ele>0.999</ele>
        <time>2019-06-15T09:44:22Z</time>
      </trkpt>
      <trkpt lat="39.232254" lon="-0.309761">
        <ele>0.956</ele>
        <time>2019-06-15T09:44:23Z</time>
      </trkpt>
      <trkpt lat="39.232208" lon="-0.309748">
        <ele>1.035</ele>
        <time>2019-06-15T09:44:24Z</time>
      </trkpt>
      <trkpt lat="39.232163" lon="-0.309740">
        <ele>1.180</ele>
        <time>2019-06-15T09:44:25Z</time>
      </trkpt>
      <trkpt lat="39.232114" lon="-0.309733">
        <ele>1.344</ele>
        <time>2019-06-15T09:44:26Z</time>
      </trkpt>
      <trkpt lat="39.232069" lon="-0.309726">
        <ele>1.505</ele>
        <time>2019-06-15T09:44:27Z</time>
      </trkpt>
      <trkpt lat="39.232024" lon="-0.309717">
        <ele>1.715</ele>
        <time>2019-06-15T09:44:28Z</time>
      </trkpt>
      <trkpt lat="39.231977" lon="-0.309717">
        <ele>1.908</ele>
        <time>2019-06-15T09:44:29Z</time>
      </trkpt>
      <trkpt lat="39.231930" lon="-0.309702">
        <ele>2.097</ele>
        <time>2019-06-15T09:44:30Z</time>
      </trkpt>
      <trkpt lat="39.231885" lon="-0.309696">
        <ele>2.041</ele>
        <time>2019-06-15T09:44:31Z</time>
      </trkpt>
      <trkpt lat="39.231803" lon="-0.309681">
        <ele>2.060</ele>
        <time>2019-06-15T09:44:33Z</time>
      </trkpt>
      <trkpt lat="39.231723" lon="-0.309653">
        <ele>2.033</ele>
        <time>2019-06-15T09:44:35Z</time>
      </trkpt>
      <trkpt lat="39.231631" lon="-0.309635">
        <ele>2.035</ele>
        <time>2019-06-15T09:44:37Z</time>
      </trkpt>
      <trkpt lat="39.231587" lon="-0.309617">
        <ele>1.922</ele>
        <time>2019-06-15T09:44:38Z</time>
      </trkpt>
      <trkpt lat="39.231542" lon="-0.309608">
        <ele>1.861</ele>
        <time>2019-06-15T09:44:39Z</time>
      </trkpt>
      <trkpt lat="39.231491" lon="-0.309593">
        <ele>1.776</ele>
        <time>2019-06-15T09:44:40Z</time>
      </trkpt>
      <trkpt lat="39.231409" lon="-0.309587">
        <ele>1.523</ele>
        <time>2019-06-15T09:44:42Z</time>
      </trkpt>
      <trkpt lat="39.231364" lon="-0.309573">
        <ele>1.383</ele>
        <time>2019-06-15T09:44:43Z</time>
      </trkpt>
      <trkpt lat="39.231315" lon="-0.309558">
        <ele>1.011</ele>
        <time>2019-06-15T09:44:44Z</time>
      </trkpt>
      <trkpt lat="39.231271" lon="-0.309546">
        <ele>0.808</ele>
        <time>2019-06-15T09:44:45Z</time>
      </trkpt>
      <trkpt lat="39.231226" lon="-0.309533">
        <ele>0.575</ele>
        <time>2019-06-15T09:44:46Z</time>
      </trkpt>
      <trkpt lat="39.231177" lon="-0.309524">
        <ele>0.339</ele>
        <time>2019-06-15T09:44:47Z</time>
      </trkpt>
      <trkpt lat="39.231087" lon="-0.309501">
        <ele>-0.168</ele>
        <time>2019-06-15T09:44:49Z</time>
      </trkpt>
      <trkpt lat="39.231041" lon="-0.309487">
        <ele>-0.311</ele>
        <time>2019-06-15T09:44:50Z</time>
      </trkpt>
      <trkpt lat="39.230995" lon="-0.309476">
        <ele>-0.433</ele>
        <time>2019-06-15T09:44:51Z</time>
      </trkpt>
      <trkpt lat="39.230908" lon="-0.309454">
        <ele>-0.750</ele>
        <time>2019-06-15T09:44:53Z</time>
      </trkpt>
      <trkpt lat="39.230858" lon="-0.309445">
        <ele>-0.949</ele>
        <time>2019-06-15T09:44:54Z</time>
      </trkpt>
      <trkpt lat="39.230811" lon="-0.309436">
        <ele>-0.944</ele>
        <time>2019-06-15T09:44:55Z</time>
      </trkpt>
      <trkpt lat="39.230765" lon="-0.309428">
        <ele>-0.815</ele>
        <time>2019-06-15T09:44:56Z</time>
      </trkpt>
      <trkpt lat="39.230717" lon="-0.309418">
        <ele>-0.665</ele>
        <time>2019-06-15T09:44:57Z</time>
      </trkpt>
      <trkpt lat="39.230626" lon="-0.309396">
        <ele>-0.311</ele>
        <time>2019-06-15T09:44:59Z</time>
      </trkpt>
      <trkpt lat="39.230581" lon="-0.309382">
        <ele>-0.108</ele>
        <time>2019-06-15T09:45:00Z</time>
      </trkpt>
      <trkpt lat="39.230535" lon="-0.309375">
        <ele>0.134</ele>
        <time>2019-06-15T09:45:01Z</time>
      </trkpt>
      <trkpt lat="39.230490" lon="-0.309369">
        <ele>0.268</ele>
        <time>2019-06-15T09:45:02Z</time>
      </trkpt>
      <trkpt lat="39.230441" lon="-0.309367">
        <ele>0.317</ele>
        <time>2019-06-15T09:45:03Z</time>
      </trkpt>
      <trkpt lat="39.230364" lon="-0.309353">
        <ele>0.540</ele>
        <time>2019-06-15T09:45:05Z</time>
      </trkpt>
      <trkpt lat="39.230284" lon="-0.309344">
        <ele>0.662</ele>
        <time>2019-06-15T09:45:07Z</time>
      </trkpt>
      <trkpt lat="39.230195" lon="-0.309316">
        <ele>0.899</ele>
        <time>2019-06-15T09:45:09Z</time>
      </trkpt>
      <trkpt lat="39.230112" lon="-0.309292">
        <ele>1.078</ele>
        <time>2019-06-15T09:45:11Z</time>
      </trkpt>
      <trkpt lat="39.230066" lon="-0.309289">
        <ele>1.253</ele>
        <time>2019-06-15T09:45:12Z</time>
      </trkpt>
      <trkpt lat="39.230018" lon="-0.309281">
        <ele>1.357</ele>
        <time>2019-06-15T09:45:13Z</time>
      </trkpt>
      <trkpt lat="39.229974" lon="-0.309269">
        <ele>1.400</ele>
        <time>2019-06-15T09:45:14Z</time>
      </trkpt>
      <trkpt lat="39.229884" lon="-0.309245">
        <ele>1.620</ele>
        <time>2019-06-15T09:45:16Z</time>
      </trkpt>
      <trkpt lat="39.229803" lon="-0.309230">
        <ele>1.808</ele>
        <time>2019-06-15T09:45:18Z</time>
      </trkpt>
      <trkpt lat="39.229759" lon="-0.309212">
        <ele>1.948</ele>
        <time>2019-06-15T09:45:19Z</time>
      </trkpt>
      <trkpt lat="39.229673" lon="-0.309193">
        <ele>2.082</ele>
        <time>2019-06-15T09:45:21Z</time>
      </trkpt>
      <trkpt lat="39.229579" lon="-0.309174">
        <ele>2.061</ele>
        <time>2019-06-15T09:45:23Z</time>
      </trkpt>
      <trkpt lat="39.229490" lon="-0.309153">
        <ele>2.024</ele>
        <time>2019-06-15T09:45:25Z</time>
      </trkpt>
      <trkpt lat="39.229402" lon="-0.309129">
        <ele>1.786</ele>
        <time>2019-06-15T09:45:27Z</time>
      </trkpt>
      <trkpt lat="39.229321" lon="-0.309102">
        <ele>1.233</ele>
        <time>2019-06-15T09:45:29Z</time>
      </trkpt>
      <trkpt lat="39.229233" lon="-0.309080">
        <ele>0.732</ele>
        <time>2019-06-15T09:45:31Z</time>
      </trkpt>
      <trkpt lat="39.229188" lon="-0.309074">
        <ele>0.587</ele>
        <time>2019-06-15T09:45:32Z</time>
      </trkpt>
      <trkpt lat="39.229144" lon="-0.309059">
        <ele>0.427</ele>
        <time>2019-06-15T09:45:33Z</time>
      </trkpt>
      <trkpt lat="39.229069" lon="-0.309047">
        <ele>0.368</ele>
        <time>2019-06-15T09:45:35Z</time>
      </trkpt>
      <trkpt lat="39.228986" lon="-0.309037">
        <ele>0.214</ele>
        <time>2019-06-15T09:45:37Z</time>
      </trkpt>
      <trkpt lat="39.228904" lon="-0.309014">
        <ele>0.008</ele>
        <time>2019-06-15T09:45:39Z</time>
      </trkpt>
      <trkpt lat="39.228822" lon="-0.308998">
        <ele>0.045</ele>
        <time>2019-06-15T09:45:41Z</time>
      </trkpt>
      <trkpt lat="39.228740" lon="-0.308986">
        <ele>0.099</ele>
        <time>2019-06-15T09:45:43Z</time>
      </trkpt>
      <trkpt lat="39.228695" lon="-0.308978">
        <ele>0.078</ele>
        <time>2019-06-15T09:45:44Z</time>
      </trkpt>
      <trkpt lat="39.228607" lon="-0.308979">
        <ele>-0.081</ele>
        <time>2019-06-15T09:45:46Z</time>
      </trkpt>
      <trkpt lat="39.228524" lon="-0.308967">
        <ele>-0.173</ele>
        <time>2019-06-15T09:45:48Z</time>
      </trkpt>
      <trkpt lat="39.228440" lon="-0.308942">
        <ele>-0.160</ele>
        <time>2019-06-15T09:45:50Z</time>
      </trkpt>
      <trkpt lat="39.228355" lon="-0.308927">
        <ele>-0.119</ele>
        <time>2019-06-15T09:45:52Z</time>
      </trkpt>
      <trkpt lat="39.228277" lon="-0.308917">
        <ele>-0.174</ele>
        <time>2019-06-15T09:45:54Z</time>
      </trkpt>
      <trkpt lat="39.228196" lon="-0.308897">
        <ele>-0.078</ele>
        <time>2019-06-15T09:45:56Z</time>
      </trkpt>
      <trkpt lat="39.228113" lon="-0.308880">
        <ele>0.033</ele>
        <time>2019-06-15T09:45:58Z</time>
      </trkpt>
      <trkpt lat="39.228031" lon="-0.308864">
        <ele>0.126</ele>
        <time>2019-06-15T09:46:00Z</time>
      </trkpt>
      <trkpt lat="39.227949" lon="-0.308848">
        <ele>0.408</ele>
        <time>2019-06-15T09:46:02Z</time>
      </trkpt>
      <trkpt lat="39.227869" lon="-0.308830">
        <ele>0.760</ele>
        <time>2019-06-15T09:46:04Z</time>
      </trkpt>
      <trkpt lat="39.227788" lon="-0.308815">
        <ele>1.094</ele>
        <time>2019-06-15T09:46:06Z</time>
      </trkpt>
      <trkpt lat="39.227706" lon="-0.308801">
        <ele>1.063</ele>
        <time>2019-06-15T09:46:08Z</time>
      </trkpt>
      <trkpt lat="39.227625" lon="-0.308784">
        <ele>1.016</ele>
        <time>2019-06-15T09:46:10Z</time>
      </trkpt>
      <trkpt lat="39.227545" lon="-0.308769">
        <ele>1.038</ele>
        <time>2019-06-15T09:46:12Z</time>
      </trkpt>
      <trkpt lat="39.227465" lon="-0.308755">
        <ele>1.085</ele>
        <time>2019-06-15T09:46:14Z</time>
      </trkpt>
      <trkpt lat="39.227380" lon="-0.308747">
        <ele>1.094</ele>
        <time>2019-06-15T09:46:16Z</time>
      </trkpt>
      <trkpt lat="39.227292" lon="-0.308739">
        <ele>1.079</ele>
        <time>2019-06-15T09:46:18Z</time>
      </trkpt>
      <trkpt lat="39.227204" lon="-0.308730">
        <ele>1.036</ele>
        <time>2019-06-15T09:46:20Z</time>
      </trkpt>
      <trkpt lat="39.227118" lon="-0.308719">
        <ele>1.017</ele>
        <time>2019-06-15T09:46:22Z</time>
      </trkpt>
      <trkpt lat="39.227032" lon="-0.308711">
        <ele>1.018</ele>
        <time>2019-06-15T09:46:24Z</time>
      </trkpt>
      <trkpt lat="39.226948" lon="-0.308705">
        <ele>1.008</ele>
        <time>2019-06-15T09:46:26Z</time>
      </trkpt>
      <trkpt lat="39.226865" lon="-0.308698">
        <ele>1.326</ele>
        <time>2019-06-15T09:46:28Z</time>
      </trkpt>
      <trkpt lat="39.226783" lon="-0.308689">
        <ele>1.610</ele>
        <time>2019-06-15T09:46:30Z</time>
      </trkpt>
      <trkpt lat="39.226702" lon="-0.308681">
        <ele>1.929</ele>
        <time>2019-06-15T09:46:32Z</time>
      </trkpt>
      <trkpt lat="39.226622" lon="-0.308677">
        <ele>2.222</ele>
        <time>2019-06-15T09:46:34Z</time>
      </trkpt>
      <trkpt lat="39.226543" lon="-0.308667">
        <ele>2.454</ele>
        <time>2019-06-15T09:46:36Z</time>
      </trkpt>
      <trkpt lat="39.226462" lon="-0.308656">
        <ele>2.761</ele>
        <time>2019-06-15T09:46:38Z</time>
      </trkpt>
      <trkpt lat="39.226380" lon="-0.308637">
        <ele>3.030</ele>
        <time>2019-06-15T09:46:40Z</time>
      </trkpt>
      <trkpt lat="39.226300" lon="-0.308615">
        <ele>3.065</ele>
        <time>2019-06-15T09:46:42Z</time>
      </trkpt>
      <trkpt lat="39.226226" lon="-0.308599">
        <ele>3.038</ele>
        <time>2019-06-15T09:46:44Z</time>
      </trkpt>
      <trkpt lat="39.226148" lon="-0.308576">
        <ele>2.970</ele>
        <time>2019-06-15T09:46:46Z</time>
      </trkpt>
      <trkpt lat="39.226069" lon="-0.308549">
        <ele>2.717</ele>
        <time>2019-06-15T09:46:48Z</time>
      </trkpt>
      <trkpt lat="39.225990" lon="-0.308525">
        <ele>2.408</ele>
        <time>2019-06-15T09:46:50Z</time>
      </trkpt>
      <trkpt lat="39.225909" lon="-0.308500">
        <ele>2.266</ele>
        <time>2019-06-15T09:46:52Z</time>
      </trkpt>
      <trkpt lat="39.225826" lon="-0.308476">
        <ele>2.070</ele>
        <time>2019-06-15T09:46:54Z</time>
      </trkpt>
      <trkpt lat="39.225744" lon="-0.308446">
        <ele>2.099</ele>
        <time>2019-06-15T09:46:56Z</time>
      </trkpt>
      <trkpt lat="39.225663" lon="-0.308414">
        <ele>2.062</ele>
        <time>2019-06-15T09:46:58Z</time>
      </trkpt>
      <trkpt lat="39.225582" lon="-0.308384">
        <ele>2.064</ele>
        <time>2019-06-15T09:47:00Z</time>
      </trkpt>
      <trkpt lat="39.225500" lon="-0.308359">
        <ele>2.421</ele>
        <time>2019-06-15T09:47:02Z</time>
      </trkpt>
      <trkpt lat="39.225418" lon="-0.308332">
        <ele>3.060</ele>
        <time>2019-06-15T09:47:04Z</time>
      </trkpt>
      <trkpt lat="39.225334" lon="-0.308308">
        <ele>3.675</ele>
        <time>2019-06-15T09:47:06Z</time>
      </trkpt>
      <trkpt lat="39.225248" lon="-0.308286">
        <ele>4.046</ele>
        <time>2019-06-15T09:47:08Z</time>
      </trkpt>
      <trkpt lat="39.225159" lon="-0.308268">
        <ele>3.988</ele>
        <time>2019-06-15T09:47:10Z</time>
      </trkpt>
      <trkpt lat="39.225074" lon="-0.308245">
        <ele>3.816</ele>
        <time>2019-06-15T09:47:12Z</time>
      </trkpt>
      <trkpt lat="39.224991" lon="-0.308212">
        <ele>3.508</ele>
        <time>2019-06-15T09:47:14Z</time>
      </trkpt>
      <trkpt lat="39.224907" lon="-0.308177">
        <ele>3.167</ele>
        <time>2019-06-15T09:47:16Z</time>
      </trkpt>
      <trkpt lat="39.224822" lon="-0.308149">
        <ele>2.721</ele>
        <time>2019-06-15T09:47:18Z</time>
      </trkpt>
      <trkpt lat="39.224739" lon="-0.308120">
        <ele>2.330</ele>
        <time>2019-06-15T09:47:20Z</time>
      </trkpt>
      <trkpt lat="39.224654" lon="-0.308090">
        <ele>2.653</ele>
        <time>2019-06-15T09:47:22Z</time>
      </trkpt>
      <trkpt lat="39.224570" lon="-0.308061">
        <ele>3.175</ele>
        <time>2019-06-15T09:47:24Z</time>
      </trkpt>
      <trkpt lat="39.224487" lon="-0.308035">
        <ele>3.662</ele>
        <time>2019-06-15T09:47:26Z</time>
      </trkpt>
      <trkpt lat="39.224403" lon="-0.308012">
        <ele>4.051</ele>
        <time>2019-06-15T09:47:28Z</time>
      </trkpt>
      <trkpt lat="39.224320" lon="-0.307987">
        <ele>4.276</ele>
        <time>2019-06-15T09:47:30Z</time>
      </trkpt>
      <trkpt lat="39.224238" lon="-0.307957">
        <ele>4.481</ele>
        <time>2019-06-15T09:47:32Z</time>
      </trkpt>
      <trkpt lat="39.224152" lon="-0.307926">
        <ele>4.561</ele>
        <time>2019-06-15T09:47:34Z</time>
      </trkpt>
      <trkpt lat="39.224066" lon="-0.307896">
        <ele>4.317</ele>
        <time>2019-06-15T09:47:36Z</time>
      </trkpt>
      <trkpt lat="39.223980" lon="-0.307866">
        <ele>4.108</ele>
        <time>2019-06-15T09:47:38Z</time>
      </trkpt>
      <trkpt lat="39.223895" lon="-0.307841">
        <ele>4.031</ele>
        <time>2019-06-15T09:47:40Z</time>
      </trkpt>
      <trkpt lat="39.223810" lon="-0.307818">
        <ele>4.025</ele>
        <time>2019-06-15T09:47:42Z</time>
      </trkpt>
      <trkpt lat="39.223727" lon="-0.307793">
        <ele>4.054</ele>
        <time>2019-06-15T09:47:44Z</time>
      </trkpt>
      <trkpt lat="39.223643" lon="-0.307767">
        <ele>4.067</ele>
        <time>2019-06-15T09:47:46Z</time>
      </trkpt>
      <trkpt lat="39.223560" lon="-0.307736">
        <ele>3.989</ele>
        <time>2019-06-15T09:47:48Z</time>
      </trkpt>
      <trkpt lat="39.223474" lon="-0.307700">
        <ele>3.936</ele>
        <time>2019-06-15T09:47:50Z</time>
      </trkpt>
      <trkpt lat="39.223388" lon="-0.307665">
        <ele>3.975</ele>
        <time>2019-06-15T09:47:52Z</time>
      </trkpt>
      <trkpt lat="39.223345" lon="-0.307648">
        <ele>4.060</ele>
        <time>2019-06-15T09:47:53Z</time>
      </trkpt>
      <trkpt lat="39.223302" lon="-0.307622">
        <ele>3.926</ele>
        <time>2019-06-15T09:47:54Z</time>
      </trkpt>
      <trkpt lat="39.223218" lon="-0.307593">
        <ele>3.647</ele>
        <time>2019-06-15T09:47:56Z</time>
      </trkpt>
      <trkpt lat="39.223141" lon="-0.307558">
        <ele>3.311</ele>
        <time>2019-06-15T09:47:58Z</time>
      </trkpt>
      <trkpt lat="39.223067" lon="-0.307529">
        <ele>3.008</ele>
        <time>2019-06-15T09:48:00Z</time>
      </trkpt>
      <trkpt lat="39.223025" lon="-0.307507">
        <ele>2.965</ele>
        <time>2019-06-15T09:48:01Z</time>
      </trkpt>
      <trkpt lat="39.222943" lon="-0.307476">
        <ele>2.539</ele>
        <time>2019-06-15T09:48:03Z</time>
      </trkpt>
      <trkpt lat="39.222870" lon="-0.307442">
        <ele>2.388</ele>
        <time>2019-06-15T09:48:05Z</time>
      </trkpt>
      <trkpt lat="39.222793" lon="-0.307400">
        <ele>2.091</ele>
        <time>2019-06-15T09:48:07Z</time>
      </trkpt>
      <trkpt lat="39.222709" lon="-0.307368">
        <ele>2.083</ele>
        <time>2019-06-15T09:48:09Z</time>
      </trkpt>
      <trkpt lat="39.222664" lon="-0.307352">
        <ele>2.010</ele>
        <time>2019-06-15T09:48:10Z</time>
      </trkpt>
      <trkpt lat="39.222583" lon="-0.307322">
        <ele>2.049</ele>
        <time>2019-06-15T09:48:12Z</time>
      </trkpt>
      <trkpt lat="39.222541" lon="-0.307302">
        <ele>2.064</ele>
        <time>2019-06-15T09:48:13Z</time>
      </trkpt>
      <trkpt lat="39.222464" lon="-0.307271">
        <ele>1.951</ele>
        <time>2019-06-15T09:48:15Z</time>
      </trkpt>
      <trkpt lat="39.222385" lon="-0.307233">
        <ele>1.601</ele>
        <time>2019-06-15T09:48:17Z</time>
      </trkpt>
      <trkpt lat="39.222309" lon="-0.307193">
        <ele>1.211</ele>
        <time>2019-06-15T09:48:19Z</time>
      </trkpt>
      <trkpt lat="39.222236" lon="-0.307153">
        <ele>0.808</ele>
        <time>2019-06-15T09:48:21Z</time>
      </trkpt>
      <trkpt lat="39.222160" lon="-0.307115">
        <ele>0.798</ele>
        <time>2019-06-15T09:48:23Z</time>
      </trkpt>
      <trkpt lat="39.222084" lon="-0.307082">
        <ele>0.772</ele>
        <time>2019-06-15T09:48:25Z</time>
      </trkpt>
      <trkpt lat="39.222010" lon="-0.307051">
        <ele>0.951</ele>
        <time>2019-06-15T09:48:27Z</time>
      </trkpt>
      <trkpt lat="39.221935" lon="-0.307015">
        <ele>1.174</ele>
        <time>2019-06-15T09:48:29Z</time>
      </trkpt>
      <trkpt lat="39.221861" lon="-0.306977">
        <ele>1.986</ele>
        <time>2019-06-15T09:48:31Z</time>
      </trkpt>
      <trkpt lat="39.221785" lon="-0.306941">
        <ele>2.733</ele>
        <time>2019-06-15T09:48:33Z</time>
      </trkpt>
      <trkpt lat="39.221711" lon="-0.306909">
        <ele>3.472</ele>
        <time>2019-06-15T09:48:35Z</time>
      </trkpt>
      <trkpt lat="39.221637" lon="-0.306870">
        <ele>3.617</ele>
        <time>2019-06-15T09:48:37Z</time>
      </trkpt>
      <trkpt lat="39.221558" lon="-0.306828">
        <ele>3.273</ele>
        <time>2019-06-15T09:48:39Z</time>
      </trkpt>
      <trkpt lat="39.221478" lon="-0.306785">
        <ele>2.785</ele>
        <time>2019-06-15T09:48:41Z</time>
      </trkpt>
      <trkpt lat="39.221400" lon="-0.306739">
        <ele>2.313</ele>
        <time>2019-06-15T09:48:43Z</time>
      </trkpt>
      <trkpt lat="39.221324" lon="-0.306704">
        <ele>2.308</ele>
        <time>2019-06-15T09:48:45Z</time>
      </trkpt>
      <trkpt lat="39.221247" lon="-0.306667">
        <ele>2.520</ele>
        <time>2019-06-15T09:48:47Z</time>
      </trkpt>
      <trkpt lat="39.221168" lon="-0.306627">
        <ele>2.664</ele>
        <time>2019-06-15T09:48:49Z</time>
      </trkpt>
      <trkpt lat="39.221088" lon="-0.306590">
        <ele>2.633</ele>
        <time>2019-06-15T09:48:51Z</time>
      </trkpt>
      <trkpt lat="39.221008" lon="-0.306551">
        <ele>2.756</ele>
        <time>2019-06-15T09:48:53Z</time>
      </trkpt>
      <trkpt lat="39.220929" lon="-0.306512">
        <ele>2.948</ele>
        <time>2019-06-15T09:48:55Z</time>
      </trkpt>
      <trkpt lat="39.220852" lon="-0.306476">
        <ele>3.235</ele>
        <time>2019-06-15T09:48:57Z</time>
      </trkpt>
      <trkpt lat="39.220774" lon="-0.306450">
        <ele>3.214</ele>
        <time>2019-06-15T09:48:59Z</time>
      </trkpt>
      <trkpt lat="39.220694" lon="-0.306449">
        <ele>3.249</ele>
        <time>2019-06-15T09:49:01Z</time>
      </trkpt>
      <trkpt lat="39.220619" lon="-0.306488">
        <ele>3.429</ele>
        <time>2019-06-15T09:49:03Z</time>
      </trkpt>
      <trkpt lat="39.220557" lon="-0.306559">
        <ele>3.600</ele>
        <time>2019-06-15T09:49:05Z</time>
      </trkpt>
      <trkpt lat="39.220512" lon="-0.306650">
        <ele>3.820</ele>
        <time>2019-06-15T09:49:07Z</time>
      </trkpt>
      <trkpt lat="39.220474" lon="-0.306743">
        <ele>3.708</ele>
        <time>2019-06-15T09:49:09Z</time>
      </trkpt>
      <trkpt lat="39.220415" lon="-0.306811">
        <ele>3.545</ele>
        <time>2019-06-15T09:49:11Z</time>
      </trkpt>
      <trkpt lat="39.220335" lon="-0.306832">
        <ele>3.299</ele>
        <time>2019-06-15T09:49:13Z</time>
      </trkpt>
      <trkpt lat="39.220248" lon="-0.306813">
        <ele>2.938</ele>
        <time>2019-06-15T09:49:15Z</time>
      </trkpt>
      <trkpt lat="39.220205" lon="-0.306794">
        <ele>2.761</ele>
        <time>2019-06-15T09:49:16Z</time>
      </trkpt>
      <trkpt lat="39.220122" lon="-0.306751">
        <ele>2.473</ele>
        <time>2019-06-15T09:49:18Z</time>
      </trkpt>
      <trkpt lat="39.220080" lon="-0.306727">
        <ele>2.360</ele>
        <time>2019-06-15T09:49:19Z</time>
      </trkpt>
      <trkpt lat="39.220037" lon="-0.306703">
        <ele>2.149</ele>
        <time>2019-06-15T09:49:20Z</time>
      </trkpt>
      <trkpt lat="39.219987" lon="-0.306667">
        <ele>2.014</ele>
        <time>2019-06-15T09:49:21Z</time>
      </trkpt>
      <trkpt lat="39.219941" lon="-0.306651">
        <ele>1.836</ele>
        <time>2019-06-15T09:49:22Z</time>
      </trkpt>
      <trkpt lat="39.219897" lon="-0.306630">
        <ele>1.817</ele>
        <time>2019-06-15T09:49:23Z</time>
      </trkpt>
      <trkpt lat="39.219815" lon="-0.306597">
        <ele>1.618</ele>
        <time>2019-06-15T09:49:25Z</time>
      </trkpt>
      <trkpt lat="39.219767" lon="-0.306588">
        <ele>1.408</ele>
        <time>2019-06-15T09:49:26Z</time>
      </trkpt>
      <trkpt lat="39.219678" lon="-0.306560">
        <ele>1.576</ele>
        <time>2019-06-15T09:49:28Z</time>
      </trkpt>
      <trkpt lat="39.219634" lon="-0.306547">
        <ele>1.680</ele>
        <time>2019-06-15T09:49:29Z</time>
      </trkpt>
      <trkpt lat="39.219585" lon="-0.306535">
        <ele>1.799</ele>
        <time>2019-06-15T09:49:30Z</time>
      </trkpt>
      <trkpt lat="39.219496" lon="-0.306501">
        <ele>1.932</ele>
        <time>2019-06-15T09:49:32Z</time>
      </trkpt>
      <trkpt lat="39.219406" lon="-0.306473">
        <ele>2.014</ele>
        <time>2019-06-15T09:49:34Z</time>
      </trkpt>
      <trkpt lat="39.219361" lon="-0.306453">
        <ele>2.061</ele>
        <time>2019-06-15T09:49:35Z</time>
      </trkpt>
      <trkpt lat="39.219316" lon="-0.306453">
        <ele>2.070</ele>
        <time>2019-06-15T09:49:36Z</time>
      </trkpt>
      <trkpt lat="39.219269" lon="-0.306437">
        <ele>2.045</ele>
        <time>2019-06-15T09:49:37Z</time>
      </trkpt>
      <trkpt lat="39.219187" lon="-0.306404">
        <ele>2.016</ele>
        <time>2019-06-15T09:49:39Z</time>
      </trkpt>
      <trkpt lat="39.219101" lon="-0.306378">
        <ele>1.876</ele>
        <time>2019-06-15T09:49:41Z</time>
      </trkpt>
      <trkpt lat="39.219052" lon="-0.306355">
        <ele>1.613</ele>
        <time>2019-06-15T09:49:42Z</time>
      </trkpt>
      <trkpt lat="39.219005" lon="-0.306338">
        <ele>1.408</ele>
        <time>2019-06-15T09:49:43Z</time>
      </trkpt>
      <trkpt lat="39.218949" lon="-0.306327">
        <ele>1.294</ele>
        <time>2019-06-15T09:49:44Z</time>
      </trkpt>
      <trkpt lat="39.218904" lon="-0.306318">
        <ele>1.138</ele>
        <time>2019-06-15T09:49:45Z</time>
      </trkpt>
      <trkpt lat="39.218855" lon="-0.306306">
        <ele>0.967</ele>
        <time>2019-06-15T09:49:46Z</time>
      </trkpt>
      <trkpt lat="39.218810" lon="-0.306286">
        <ele>0.810</ele>
        <time>2019-06-15T09:49:47Z</time>
      </trkpt>
      <trkpt lat="39.218765" lon="-0.306269">
        <ele>0.772</ele>
        <time>2019-06-15T09:49:48Z</time>
      </trkpt>
      <trkpt lat="39.218722" lon="-0.306251">
        <ele>0.749</ele>
        <time>2019-06-15T09:49:49Z</time>
      </trkpt>
      <trkpt lat="39.218627" lon="-0.306230">
        <ele>0.648</ele>
        <time>2019-06-15T09:49:51Z</time>
      </trkpt>
      <trkpt lat="39.218581" lon="-0.306220">
        <ele>0.633</ele>
        <time>2019-06-15T09:49:52Z</time>
      </trkpt>
      <trkpt lat="39.218494" lon="-0.306188">
        <ele>0.782</ele>
        <time>2019-06-15T09:49:54Z</time>
      </trkpt>
      <trkpt lat="39.218415" lon="-0.306168">
        <ele>0.843</ele>
        <time>2019-06-15T09:49:56Z</time>
      </trkpt>
      <trkpt lat="39.218371" lon="-0.306147">
        <ele>0.917</ele>
        <time>2019-06-15T09:49:57Z</time>
      </trkpt>
      <trkpt lat="39.218321" lon="-0.306116">
        <ele>1.008</ele>
        <time>2019-06-15T09:49:58Z</time>
      </trkpt>
      <trkpt lat="39.218274" lon="-0.306096">
        <ele>1.031</ele>
        <time>2019-06-15T09:49:59Z</time>
      </trkpt>
      <trkpt lat="39.218205" lon="-0.306065">
        <ele>1.175</ele>
        <time>2019-06-15T09:50:01Z</time>
      </trkpt>
      <trkpt lat="39.218141" lon="-0.306029">
        <ele>1.194</ele>
        <time>2019-06-15T09:50:03Z</time>
      </trkpt>
      <trkpt lat="39.218089" lon="-0.306020">
        <ele>1.067</ele>
        <time>2019-06-15T09:50:04Z</time>
      </trkpt>
      <trkpt lat="39.218018" lon="-0.305999">
        <ele>1.169</ele>
        <time>2019-06-15T09:50:06Z</time>
      </trkpt>
      <trkpt lat="39.217944" lon="-0.305950">
        <ele>1.216</ele>
        <time>2019-06-15T09:50:08Z</time>
      </trkpt>
      <trkpt lat="39.217878" lon="-0.305933">
        <ele>1.265</ele>
        <time>2019-06-15T09:50:10Z</time>
      </trkpt>
      <trkpt lat="39.217800" lon="-0.305914">
        <ele>1.360</ele>
        <time>2019-06-15T09:50:12Z</time>
      </trkpt>
      <trkpt lat="39.217715" lon="-0.305885">
        <ele>1.495</ele>
        <time>2019-06-15T09:50:14Z</time>
      </trkpt>
      <trkpt lat="39.217672" lon="-0.305864">
        <ele>1.449</ele>
        <time>2019-06-15T09:50:15Z</time>
      </trkpt>
      <trkpt lat="39.217588" lon="-0.305822">
        <ele>1.723</ele>
        <time>2019-06-15T09:50:17Z</time>
      </trkpt>
      <trkpt lat="39.217504" lon="-0.305785">
        <ele>2.008</ele>
        <time>2019-06-15T09:50:19Z</time>
      </trkpt>
      <trkpt lat="39.217418" lon="-0.305753">
        <ele>2.852</ele>
        <time>2019-06-15T09:50:21Z</time>
      </trkpt>
      <trkpt lat="39.217373" lon="-0.305739">
        <ele>3.236</ele>
        <time>2019-06-15T09:50:22Z</time>
      </trkpt>
      <trkpt lat="39.217326" lon="-0.305725">
        <ele>3.645</ele>
        <time>2019-06-15T09:50:23Z</time>
      </trkpt>
      <trkpt lat="39.217279" lon="-0.305709">
        <ele>4.028</ele>
        <time>2019-06-15T09:50:24Z</time>
      </trkpt>
      <trkpt lat="39.217233" lon="-0.305695">
        <ele>4.440</ele>
        <time>2019-06-15T09:50:25Z</time>
      </trkpt>
      <trkpt lat="39.217173" lon="-0.305680">
        <ele>4.637</ele>
        <time>2019-06-15T09:50:26Z</time>
      </trkpt>
      <trkpt lat="39.217128" lon="-0.305664">
        <ele>4.756</ele>
        <time>2019-06-15T09:50:27Z</time>
      </trkpt>
      <trkpt lat="39.217051" lon="-0.305635">
        <ele>4.981</ele>
        <time>2019-06-15T09:50:29Z</time>
      </trkpt>
      <trkpt lat="39.216980" lon="-0.305595">
        <ele>5.026</ele>
        <time>2019-06-15T09:50:31Z</time>
      </trkpt>
      <trkpt lat="39.216923" lon="-0.305553">
        <ele>5.047</ele>
        <time>2019-06-15T09:50:34Z</time>
      </trkpt>
      <trkpt lat="39.216910" lon="-0.305495">
        <ele>5.011</ele>
        <time>2019-06-15T09:50:43Z</time>
      </trkpt>
      <trkpt lat="39.216912" lon="-0.305419">
        <ele>4.908</ele>
        <time>2019-06-15T09:50:46Z</time>
      </trkpt>
      <trkpt lat="39.216962" lon="-0.305349">
        <ele>4.925</ele>
        <time>2019-06-15T09:50:47Z</time>
      </trkpt>
      <trkpt lat="39.217037" lon="-0.305300">
        <ele>4.789</ele>
        <time>2019-06-15T09:50:49Z</time>
      </trkpt>
      <trkpt lat="39.217106" lon="-0.305249">
        <ele>4.428</ele>
        <time>2019-06-15T09:50:51Z</time>
      </trkpt>
      <trkpt lat="39.217180" lon="-0.305177">
        <ele>4.251</ele>
        <time>2019-06-15T09:50:53Z</time>
      </trkpt>
      <trkpt lat="39.217222" lon="-0.305145">
        <ele>4.013</ele>
        <time>2019-06-15T09:50:54Z</time>
      </trkpt>
      <trkpt lat="39.217269" lon="-0.305104">
        <ele>3.870</ele>
        <time>2019-06-15T09:50:55Z</time>
      </trkpt>
      <trkpt lat="39.217311" lon="-0.305069">
        <ele>3.689</ele>
        <time>2019-06-15T09:50:56Z</time>
      </trkpt>
      <trkpt lat="39.217357" lon="-0.305034">
        <ele>3.534</ele>
        <time>2019-06-15T09:50:57Z</time>
      </trkpt>
      <trkpt lat="39.217404" lon="-0.305004">
        <ele>3.331</ele>
        <time>2019-06-15T09:50:58Z</time>
      </trkpt>
      <trkpt lat="39.217448" lon="-0.304977">
        <ele>3.261</ele>
        <time>2019-06-15T09:50:59Z</time>
      </trkpt>
      <trkpt lat="39.217499" lon="-0.304941">
        <ele>3.007</ele>
        <time>2019-06-15T09:51:00Z</time>
      </trkpt>
      <trkpt lat="39.217542" lon="-0.304896">
        <ele>3.108</ele>
        <time>2019-06-15T09:51:01Z</time>
      </trkpt>
      <trkpt lat="39.217580" lon="-0.304851">
        <ele>3.236</ele>
        <time>2019-06-15T09:51:02Z</time>
      </trkpt>
      <trkpt lat="39.217629" lon="-0.304805">
        <ele>3.320</ele>
        <time>2019-06-15T09:51:03Z</time>
      </trkpt>
      <trkpt lat="39.217673" lon="-0.304751">
        <ele>3.689</ele>
        <time>2019-06-15T09:51:04Z</time>
      </trkpt>
      <trkpt lat="39.217708" lon="-0.304695">
        <ele>3.872</ele>
        <time>2019-06-15T09:51:05Z</time>
      </trkpt>
      <trkpt lat="39.217739" lon="-0.304630">
        <ele>4.284</ele>
        <time>2019-06-15T09:51:06Z</time>
      </trkpt>
      <trkpt lat="39.217757" lon="-0.304556">
        <ele>4.511</ele>
        <time>2019-06-15T09:51:07Z</time>
      </trkpt>
      <trkpt lat="39.217787" lon="-0.304487">
        <ele>4.850</ele>
        <time>2019-06-15T09:51:08Z</time>
      </trkpt>
      <trkpt lat="39.217812" lon="-0.304414">
        <ele>4.985</ele>
        <time>2019-06-15T09:51:09Z</time>
      </trkpt>
      <trkpt lat="39.217825" lon="-0.304351">
        <ele>4.893</ele>
        <time>2019-06-15T09:51:10Z</time>
      </trkpt>
      <trkpt lat="39.217831" lon="-0.304273">
        <ele>4.865</ele>
        <time>2019-06-15T09:51:11Z</time>
      </trkpt>
      <trkpt lat="39.217833" lon="-0.304191">
        <ele>4.821</ele>
        <time>2019-06-15T09:51:12Z</time>
      </trkpt>
      <trkpt lat="39.217816" lon="-0.304115">
        <ele>4.708</ele>
        <time>2019-06-15T09:51:13Z</time>
      </trkpt>
      <trkpt lat="39.217802" lon="-0.304039">
        <ele>4.562</ele>
        <time>2019-06-15T09:51:14Z</time>
      </trkpt>
      <trkpt lat="39.217779" lon="-0.303977">
        <ele>4.376</ele>
        <time>2019-06-15T09:51:15Z</time>
      </trkpt>
      <trkpt lat="39.217759" lon="-0.303909">
        <ele>4.155</ele>
        <time>2019-06-15T09:51:16Z</time>
      </trkpt>
      <trkpt lat="39.217739" lon="-0.303841">
        <ele>4.058</ele>
        <time>2019-06-15T09:51:17Z</time>
      </trkpt>
      <trkpt lat="39.217716" lon="-0.303782">
        <ele>4.030</ele>
        <time>2019-06-15T09:51:18Z</time>
      </trkpt>
      <trkpt lat="39.217686" lon="-0.303679">
        <ele>4.087</ele>
        <time>2019-06-15T09:51:20Z</time>
      </trkpt>
      <trkpt lat="39.217663" lon="-0.303625">
        <ele>4.076</ele>
        <time>2019-06-15T09:51:21Z</time>
      </trkpt>
      <trkpt lat="39.217647" lon="-0.303570">
        <ele>3.991</ele>
        <time>2019-06-15T09:51:22Z</time>
      </trkpt>
      <trkpt lat="39.217641" lon="-0.303509">
        <ele>3.888</ele>
        <time>2019-06-15T09:51:23Z</time>
      </trkpt>
      <trkpt lat="39.217623" lon="-0.303411">
        <ele>3.624</ele>
        <time>2019-06-15T09:51:25Z</time>
      </trkpt>
      <trkpt lat="39.217598" lon="-0.303315">
        <ele>3.326</ele>
        <time>2019-06-15T09:51:27Z</time>
      </trkpt>
      <trkpt lat="39.217598" lon="-0.303146">
        <ele>3.108</ele>
        <time>2019-06-15T09:51:29Z</time>
      </trkpt>
      <trkpt lat="39.217598" lon="-0.303146">
        <ele>3.131</ele>
        <time>2019-06-15T09:51:29Z</time>
      </trkpt>
      <trkpt lat="39.217567" lon="-0.303077">
        <ele>3.015</ele>
        <time>2019-06-15T09:51:30Z</time>
      </trkpt>
      <trkpt lat="39.217570" lon="-0.303007">
        <ele>3.044</ele>
        <time>2019-06-15T09:51:31Z</time>
      </trkpt>
      <trkpt lat="39.217565" lon="-0.302925">
        <ele>3.137</ele>
        <time>2019-06-15T09:51:32Z</time>
      </trkpt>
      <trkpt lat="39.217510" lon="-0.302924">
        <ele>3.029</ele>
        <time>2019-06-15T09:51:33Z</time>
      </trkpt>
      <trkpt lat="39.217486" lon="-0.302811">
        <ele>3.026</ele>
        <time>2019-06-15T09:51:35Z</time>
      </trkpt>
      <trkpt lat="39.217459" lon="-0.302689">
        <ele>3.185</ele>
        <time>2019-06-15T09:51:37Z</time>
      </trkpt>
      <trkpt lat="39.217451" lon="-0.302613">
        <ele>3.370</ele>
        <time>2019-06-15T09:51:38Z</time>
      </trkpt>
      <trkpt lat="39.217437" lon="-0.302542">
        <ele>3.451</ele>
        <time>2019-06-15T09:51:39Z</time>
      </trkpt>
      <trkpt lat="39.217411" lon="-0.302462">
        <ele>3.201</ele>
        <time>2019-06-15T09:51:40Z</time>
      </trkpt>
      <trkpt lat="39.217387" lon="-0.302403">
        <ele>2.911</ele>
        <time>2019-06-15T09:51:41Z</time>
      </trkpt>
      <trkpt lat="39.217364" lon="-0.302326">
        <ele>2.708</ele>
        <time>2019-06-15T09:51:42Z</time>
      </trkpt>
      <trkpt lat="39.217330" lon="-0.302237">
        <ele>2.658</ele>
        <time>2019-06-15T09:51:43Z</time>
      </trkpt>
      <trkpt lat="39.217327" lon="-0.302155">
        <ele>2.332</ele>
        <time>2019-06-15T09:51:44Z</time>
      </trkpt>
      <trkpt lat="39.217312" lon="-0.302084">
        <ele>2.021</ele>
        <time>2019-06-15T09:51:45Z</time>
      </trkpt>
      <trkpt lat="39.217298" lon="-0.302008">
        <ele>1.774</ele>
        <time>2019-06-15T09:51:46Z</time>
      </trkpt>
      <trkpt lat="39.217291" lon="-0.301925">
        <ele>1.546</ele>
        <time>2019-06-15T09:51:47Z</time>
      </trkpt>
      <trkpt lat="39.217258" lon="-0.301850">
        <ele>1.793</ele>
        <time>2019-06-15T09:51:48Z</time>
      </trkpt>
      <trkpt lat="39.217248" lon="-0.301765">
        <ele>1.812</ele>
        <time>2019-06-15T09:51:49Z</time>
      </trkpt>
      <trkpt lat="39.217225" lon="-0.301682">
        <ele>2.087</ele>
        <time>2019-06-15T09:51:50Z</time>
      </trkpt>
      <trkpt lat="39.217207" lon="-0.301608">
        <ele>2.546</ele>
        <time>2019-06-15T09:51:51Z</time>
      </trkpt>
      <trkpt lat="39.217182" lon="-0.301521">
        <ele>3.088</ele>
        <time>2019-06-15T09:51:52Z</time>
      </trkpt>
      <trkpt lat="39.217158" lon="-0.301442">
        <ele>3.416</ele>
        <time>2019-06-15T09:51:53Z</time>
      </trkpt>
      <trkpt lat="39.217133" lon="-0.301368">
        <ele>3.608</ele>
        <time>2019-06-15T09:51:54Z</time>
      </trkpt>
      <trkpt lat="39.217104" lon="-0.301293">
        <ele>3.667</ele>
        <time>2019-06-15T09:51:55Z</time>
      </trkpt>
      <trkpt lat="39.217087" lon="-0.301214">
        <ele>3.471</ele>
        <time>2019-06-15T09:51:56Z</time>
      </trkpt>
      <trkpt lat="39.217064" lon="-0.301142">
        <ele>3.130</ele>
        <time>2019-06-15T09:51:57Z</time>
      </trkpt>
      <trkpt lat="39.217025" lon="-0.301069">
        <ele>2.983</ele>
        <time>2019-06-15T09:51:58Z</time>
      </trkpt>
      <trkpt lat="39.217004" lon="-0.300990">
        <ele>2.765</ele>
        <time>2019-06-15T09:51:59Z</time>
      </trkpt>
      <trkpt lat="39.216981" lon="-0.300910">
        <ele>2.462</ele>
        <time>2019-06-15T09:52:00Z</time>
      </trkpt>
      <trkpt lat="39.216967" lon="-0.300832">
        <ele>2.191</ele>
        <time>2019-06-15T09:52:01Z</time>
      </trkpt>
      <trkpt lat="39.216940" lon="-0.300758">
        <ele>1.726</ele>
        <time>2019-06-15T09:52:02Z</time>
      </trkpt>
      <trkpt lat="39.216915" lon="-0.300673">
        <ele>1.534</ele>
        <time>2019-06-15T09:52:03Z</time>
      </trkpt>
      <trkpt lat="39.216889" lon="-0.300595">
        <ele>1.555</ele>
        <time>2019-06-15T09:52:04Z</time>
      </trkpt>
      <trkpt lat="39.216868" lon="-0.300514">
        <ele>1.710</ele>
        <time>2019-06-15T09:52:05Z</time>
      </trkpt>
      <trkpt lat="39.216843" lon="-0.300441">
        <ele>2.008</ele>
        <time>2019-06-15T09:52:06Z</time>
      </trkpt>
      <trkpt lat="39.216818" lon="-0.300363">
        <ele>2.386</ele>
        <time>2019-06-15T09:52:07Z</time>
      </trkpt>
      <trkpt lat="39.216790" lon="-0.300279">
        <ele>2.630</ele>
        <time>2019-06-15T09:52:08Z</time>
      </trkpt>
      <trkpt lat="39.216779" lon="-0.300193">
        <ele>3.029</ele>
        <time>2019-06-15T09:52:09Z</time>
      </trkpt>
      <trkpt lat="39.216753" lon="-0.300112">
        <ele>3.572</ele>
        <time>2019-06-15T09:52:10Z</time>
      </trkpt>
      <trkpt lat="39.216728" lon="-0.300020">
        <ele>3.994</ele>
        <time>2019-06-15T09:52:11Z</time>
      </trkpt>
      <trkpt lat="39.216718" lon="-0.299934">
        <ele>4.191</ele>
        <time>2019-06-15T09:52:12Z</time>
      </trkpt>
      <trkpt lat="39.216702" lon="-0.299850">
        <ele>4.220</ele>
        <time>2019-06-15T09:52:13Z</time>
      </trkpt>
      <trkpt lat="39.216684" lon="-0.299762">
        <ele>4.215</ele>
        <time>2019-06-15T09:52:14Z</time>
      </trkpt>
      <trkpt lat="39.216671" lon="-0.299670">
        <ele>4.271</ele>
        <time>2019-06-15T09:52:15Z</time>
      </trkpt>
      <trkpt lat="39.216664" lon="-0.299589">
        <ele>4.541</ele>
        <time>2019-06-15T09:52:16Z</time>
      </trkpt>
      <trkpt lat="39.216658" lon="-0.299496">
        <ele>4.815</ele>
        <time>2019-06-15T09:52:17Z</time>
      </trkpt>
      <trkpt lat="39.216642" lon="-0.299392">
        <ele>4.808</ele>
        <time>2019-06-15T09:52:18Z</time>
      </trkpt>
      <trkpt lat="39.216635" lon="-0.299294">
        <ele>4.870</ele>
        <time>2019-06-15T09:52:19Z</time>
      </trkpt>
      <trkpt lat="39.216629" lon="-0.299192">
        <ele>4.724</ele>
        <time>2019-06-15T09:52:20Z</time>
      </trkpt>
      <trkpt lat="39.216624" lon="-0.299114">
        <ele>4.563</ele>
        <time>2019-06-15T09:52:21Z</time>
      </trkpt>
      <trkpt lat="39.216608" lon="-0.299042">
        <ele>4.286</ele>
        <time>2019-06-15T09:52:22Z</time>
      </trkpt>
      <trkpt lat="39.216602" lon="-0.298960">
        <ele>4.098</ele>
        <time>2019-06-15T09:52:23Z</time>
      </trkpt>
      <trkpt lat="39.216589" lon="-0.298877">
        <ele>3.795</ele>
        <time>2019-06-15T09:52:24Z</time>
      </trkpt>
      <trkpt lat="39.216580" lon="-0.298798">
        <ele>3.514</ele>
        <time>2019-06-15T09:52:25Z</time>
      </trkpt>
      <trkpt lat="39.216571" lon="-0.298710">
        <ele>3.239</ele>
        <time>2019-06-15T09:52:26Z</time>
      </trkpt>
      <trkpt lat="39.216560" lon="-0.298625">
        <ele>3.041</ele>
        <time>2019-06-15T09:52:27Z</time>
      </trkpt>
      <trkpt lat="39.216549" lon="-0.298548">
        <ele>3.181</ele>
        <time>2019-06-15T09:52:28Z</time>
      </trkpt>
      <trkpt lat="39.216542" lon="-0.298478">
        <ele>3.209</ele>
        <time>2019-06-15T09:52:29Z</time>
      </trkpt>
      <trkpt lat="39.216543" lon="-0.298390">
        <ele>3.408</ele>
        <time>2019-06-15T09:52:30Z</time>
      </trkpt>
      <trkpt lat="39.216534" lon="-0.298301">
        <ele>3.567</ele>
        <time>2019-06-15T09:52:31Z</time>
      </trkpt>
      <trkpt lat="39.216522" lon="-0.298213">
        <ele>3.571</ele>
        <time>2019-06-15T09:52:32Z</time>
      </trkpt>
      <trkpt lat="39.216509" lon="-0.298127">
        <ele>3.680</ele>
        <time>2019-06-15T09:52:33Z</time>
      </trkpt>
      <trkpt lat="39.216492" lon="-0.298049">
        <ele>3.633</ele>
        <time>2019-06-15T09:52:34Z</time>
      </trkpt>
      <trkpt lat="39.216483" lon="-0.297958">
        <ele>3.385</ele>
        <time>2019-06-15T09:52:35Z</time>
      </trkpt>
      <trkpt lat="39.216476" lon="-0.297869">
        <ele>3.082</ele>
        <time>2019-06-15T09:52:36Z</time>
      </trkpt>
      <trkpt lat="39.216463" lon="-0.297778">
        <ele>2.731</ele>
        <time>2019-06-15T09:52:37Z</time>
      </trkpt>
      <trkpt lat="39.216446" lon="-0.297705">
        <ele>2.596</ele>
        <time>2019-06-15T09:52:38Z</time>
      </trkpt>
      <trkpt lat="39.216435" lon="-0.297606">
        <ele>2.249</ele>
        <time>2019-06-15T09:52:39Z</time>
      </trkpt>
      <trkpt lat="39.216422" lon="-0.297511">
        <ele>1.902</ele>
        <time>2019-06-15T09:52:40Z</time>
      </trkpt>
      <trkpt lat="39.216415" lon="-0.297423">
        <ele>1.922</ele>
        <time>2019-06-15T09:52:41Z</time>
      </trkpt>
      <trkpt lat="39.216405" lon="-0.297329">
        <ele>1.908</ele>
        <time>2019-06-15T09:52:42Z</time>
      </trkpt>
      <trkpt lat="39.216392" lon="-0.297231">
        <ele>2.077</ele>
        <time>2019-06-15T09:52:43Z</time>
      </trkpt>
      <trkpt lat="39.216380" lon="-0.297141">
        <ele>2.391</ele>
        <time>2019-06-15T09:52:44Z</time>
      </trkpt>
      <trkpt lat="39.216371" lon="-0.297045">
        <ele>2.670</ele>
        <time>2019-06-15T09:52:45Z</time>
      </trkpt>
      <trkpt lat="39.216359" lon="-0.296943">
        <ele>3.043</ele>
        <time>2019-06-15T09:52:46Z</time>
      </trkpt>
      <trkpt lat="39.216345" lon="-0.296847">
        <ele>3.145</ele>
        <time>2019-06-15T09:52:47Z</time>
      </trkpt>
      <trkpt lat="39.216331" lon="-0.296750">
        <ele>3.132</ele>
        <time>2019-06-15T09:52:48Z</time>
      </trkpt>
      <trkpt lat="39.216321" lon="-0.296654">
        <ele>3.221</ele>
        <time>2019-06-15T09:52:49Z</time>
      </trkpt>
      <trkpt lat="39.216305" lon="-0.296568">
        <ele>3.356</ele>
        <time>2019-06-15T09:52:50Z</time>
      </trkpt>
      <trkpt lat="39.216291" lon="-0.296474">
        <ele>3.433</ele>
        <time>2019-06-15T09:52:51Z</time>
      </trkpt>
      <trkpt lat="39.216278" lon="-0.296378">
        <ele>3.423</ele>
        <time>2019-06-15T09:52:52Z</time>
      </trkpt>
      <trkpt lat="39.216278" lon="-0.296294">
        <ele>3.315</ele>
        <time>2019-06-15T09:52:53Z</time>
      </trkpt>
      <trkpt lat="39.216270" lon="-0.296200">
        <ele>3.108</ele>
        <time>2019-06-15T09:52:54Z</time>
      </trkpt>
      <trkpt lat="39.216261" lon="-0.296108">
        <ele>3.076</ele>
        <time>2019-06-15T09:52:55Z</time>
      </trkpt>
      <trkpt lat="39.216248" lon="-0.296010">
        <ele>3.240</ele>
        <time>2019-06-15T09:52:56Z</time>
      </trkpt>
      <trkpt lat="39.216234" lon="-0.295912">
        <ele>3.379</ele>
        <time>2019-06-15T09:52:57Z</time>
      </trkpt>
      <trkpt lat="39.216220" lon="-0.295819">
        <ele>3.422</ele>
        <time>2019-06-15T09:52:58Z</time>
      </trkpt>
      <trkpt lat="39.216209" lon="-0.295729">
        <ele>3.664</ele>
        <time>2019-06-15T09:52:59Z</time>
      </trkpt>
      <trkpt lat="39.216210" lon="-0.295630">
        <ele>3.971</ele>
        <time>2019-06-15T09:53:00Z</time>
      </trkpt>
      <trkpt lat="39.216203" lon="-0.295530">
        <ele>4.140</ele>
        <time>2019-06-15T09:53:01Z</time>
      </trkpt>
      <trkpt lat="39.216193" lon="-0.295440">
        <ele>4.445</ele>
        <time>2019-06-15T09:53:02Z</time>
      </trkpt>
      <trkpt lat="39.216173" lon="-0.295350">
        <ele>4.691</ele>
        <time>2019-06-15T09:53:03Z</time>
      </trkpt>
      <trkpt lat="39.216167" lon="-0.295261">
        <ele>4.881</ele>
        <time>2019-06-15T09:53:04Z</time>
      </trkpt>
      <trkpt lat="39.216159" lon="-0.295178">
        <ele>4.719</ele>
        <time>2019-06-15T09:53:05Z</time>
      </trkpt>
      <trkpt lat="39.216153" lon="-0.295098">
        <ele>4.608</ele>
        <time>2019-06-15T09:53:06Z</time>
      </trkpt>
      <trkpt lat="39.216147" lon="-0.295024">
        <ele>4.532</ele>
        <time>2019-06-15T09:53:07Z</time>
      </trkpt>
      <trkpt lat="39.216139" lon="-0.294954">
        <ele>4.246</ele>
        <time>2019-06-15T09:53:08Z</time>
      </trkpt>
      <trkpt lat="39.216116" lon="-0.294887">
        <ele>3.765</ele>
        <time>2019-06-15T09:53:09Z</time>
      </trkpt>
      <trkpt lat="39.216084" lon="-0.294829">
        <ele>3.348</ele>
        <time>2019-06-15T09:53:10Z</time>
      </trkpt>
      <trkpt lat="39.216064" lon="-0.294767">
        <ele>3.160</ele>
        <time>2019-06-15T09:53:11Z</time>
      </trkpt>
      <trkpt lat="39.216034" lon="-0.294712">
        <ele>2.987</ele>
        <time>2019-06-15T09:53:12Z</time>
      </trkpt>
      <trkpt lat="39.215999" lon="-0.294669">
        <ele>2.736</ele>
        <time>2019-06-15T09:53:13Z</time>
      </trkpt>
      <trkpt lat="39.215999" lon="-0.294669">
        <ele>2.721</ele>
        <time>2019-06-15T09:53:13Z</time>
      </trkpt>
      <trkpt lat="39.215968" lon="-0.294625">
        <ele>2.537</ele>
        <time>2019-06-15T09:53:14Z</time>
      </trkpt>
      <trkpt lat="39.215944" lon="-0.294569">
        <ele>2.249</ele>
        <time>2019-06-15T09:53:15Z</time>
      </trkpt>
      <trkpt lat="39.215909" lon="-0.294458">
        <ele>1.813</ele>
        <time>2019-06-15T09:53:17Z</time>
      </trkpt>
      <trkpt lat="39.215873" lon="-0.294407">
        <ele>1.808</ele>
        <time>2019-06-15T09:53:18Z</time>
      </trkpt>
      <trkpt lat="39.215852" lon="-0.294350">
        <ele>1.786</ele>
        <time>2019-06-15T09:53:19Z</time>
      </trkpt>
      <trkpt lat="39.215808" lon="-0.294281">
        <ele>1.490</ele>
        <time>2019-06-15T09:53:21Z</time>
      </trkpt>
      <trkpt lat="39.215794" lon="-0.294225">
        <ele>1.299</ele>
        <time>2019-06-15T09:53:49Z</time>
      </trkpt>
      <trkpt lat="39.215749" lon="-0.294171">
        <ele>1.012</ele>
        <time>2019-06-15T09:53:52Z</time>
      </trkpt>
      <trkpt lat="39.215706" lon="-0.294114">
        <ele>1.044</ele>
        <time>2019-06-15T09:53:54Z</time>
      </trkpt>
      <trkpt lat="39.215666" lon="-0.294055">
        <ele>1.011</ele>
        <time>2019-06-15T09:53:56Z</time>
      </trkpt>
      <trkpt lat="39.215610" lon="-0.293974">
        <ele>1.090</ele>
        <time>2019-06-15T09:53:57Z</time>
      </trkpt>
      <trkpt lat="39.215562" lon="-0.293884">
        <ele>1.065</ele>
        <time>2019-06-15T09:53:59Z</time>
      </trkpt>
      <trkpt lat="39.215512" lon="-0.293797">
        <ele>1.453</ele>
        <time>2019-06-15T09:54:01Z</time>
      </trkpt>
      <trkpt lat="39.215446" lon="-0.293715">
        <ele>1.804</ele>
        <time>2019-06-15T09:54:03Z</time>
      </trkpt>
      <trkpt lat="39.215432" lon="-0.293629">
        <ele>2.014</ele>
        <time>2019-06-15T09:54:04Z</time>
      </trkpt>
      <trkpt lat="39.215393" lon="-0.293552">
        <ele>2.208</ele>
        <time>2019-06-15T09:54:05Z</time>
      </trkpt>
      <trkpt lat="39.215337" lon="-0.293464">
        <ele>2.588</ele>
        <time>2019-06-15T09:54:07Z</time>
      </trkpt>
      <trkpt lat="39.215310" lon="-0.293409">
        <ele>2.792</ele>
        <time>2019-06-15T09:54:08Z</time>
      </trkpt>
      <trkpt lat="39.215247" lon="-0.293354">
        <ele>2.821</ele>
        <time>2019-06-15T09:54:10Z</time>
      </trkpt>
      <trkpt lat="39.215205" lon="-0.293271">
        <ele>3.054</ele>
        <time>2019-06-15T09:54:12Z</time>
      </trkpt>
      <trkpt lat="39.215165" lon="-0.293198">
        <ele>3.196</ele>
        <time>2019-06-15T09:54:13Z</time>
      </trkpt>
      <trkpt lat="39.215146" lon="-0.293142">
        <ele>3.223</ele>
        <time>2019-06-15T09:54:14Z</time>
      </trkpt>
      <trkpt lat="39.215105" lon="-0.293084">
        <ele>3.312</ele>
        <time>2019-06-15T09:54:15Z</time>
      </trkpt>
      <trkpt lat="39.215066" lon="-0.293044">
        <ele>3.227</ele>
        <time>2019-06-15T09:54:16Z</time>
      </trkpt>
      <trkpt lat="39.215019" lon="-0.292992">
        <ele>3.142</ele>
        <time>2019-06-15T09:54:17Z</time>
      </trkpt>
      <trkpt lat="39.214985" lon="-0.292922">
        <ele>2.922</ele>
        <time>2019-06-15T09:54:18Z</time>
      </trkpt>
      <trkpt lat="39.214944" lon="-0.292856">
        <ele>2.814</ele>
        <time>2019-06-15T09:54:19Z</time>
      </trkpt>
      <trkpt lat="39.214910" lon="-0.292803">
        <ele>2.708</ele>
        <time>2019-06-15T09:54:20Z</time>
      </trkpt>
      <trkpt lat="39.214870" lon="-0.292750">
        <ele>2.517</ele>
        <time>2019-06-15T09:54:21Z</time>
      </trkpt>
      <trkpt lat="39.214831" lon="-0.292699">
        <ele>2.381</ele>
        <time>2019-06-15T09:54:22Z</time>
      </trkpt>
      <trkpt lat="39.214781" lon="-0.292660">
        <ele>2.190</ele>
        <time>2019-06-15T09:54:23Z</time>
      </trkpt>
      <trkpt lat="39.214746" lon="-0.292600">
        <ele>2.073</ele>
        <time>2019-06-15T09:54:24Z</time>
      </trkpt>
      <trkpt lat="39.214691" lon="-0.292537">
        <ele>2.125</ele>
        <time>2019-06-15T09:54:25Z</time>
      </trkpt>
      <trkpt lat="39.214655" lon="-0.292494">
        <ele>2.382</ele>
        <time>2019-06-15T09:54:26Z</time>
      </trkpt>
      <trkpt lat="39.214619" lon="-0.292441">
        <ele>2.541</ele>
        <time>2019-06-15T09:54:27Z</time>
      </trkpt>
      <trkpt lat="39.214565" lon="-0.292403">
        <ele>2.716</ele>
        <time>2019-06-15T09:54:28Z</time>
      </trkpt>
      <trkpt lat="39.214525" lon="-0.292340">
        <ele>2.968</ele>
        <time>2019-06-15T09:54:29Z</time>
      </trkpt>
      <trkpt lat="39.214489" lon="-0.292276">
        <ele>3.042</ele>
        <time>2019-06-15T09:54:30Z</time>
      </trkpt>
      <trkpt lat="39.214455" lon="-0.292217">
        <ele>3.026</ele>
        <time>2019-06-15T09:54:31Z</time>
      </trkpt>
      <trkpt lat="39.214415" lon="-0.292158">
        <ele>3.108</ele>
        <time>2019-06-15T09:54:32Z</time>
      </trkpt>
      <trkpt lat="39.214384" lon="-0.292099">
        <ele>3.129</ele>
        <time>2019-06-15T09:54:33Z</time>
      </trkpt>
      <trkpt lat="39.214342" lon="-0.292038">
        <ele>3.143</ele>
        <time>2019-06-15T09:54:34Z</time>
      </trkpt>
      <trkpt lat="39.214316" lon="-0.291975">
        <ele>3.122</ele>
        <time>2019-06-15T09:54:35Z</time>
      </trkpt>
      <trkpt lat="39.214287" lon="-0.291919">
        <ele>2.995</ele>
        <time>2019-06-15T09:54:36Z</time>
      </trkpt>
      <trkpt lat="39.214254" lon="-0.291860">
        <ele>2.887</ele>
        <time>2019-06-15T09:54:37Z</time>
      </trkpt>
      <trkpt lat="39.214217" lon="-0.291801">
        <ele>2.654</ele>
        <time>2019-06-15T09:54:38Z</time>
      </trkpt>
      <trkpt lat="39.214182" lon="-0.291734">
        <ele>2.353</ele>
        <time>2019-06-15T09:54:39Z</time>
      </trkpt>
      <trkpt lat="39.214144" lon="-0.291654">
        <ele>2.088</ele>
        <time>2019-06-15T09:54:40Z</time>
      </trkpt>
      <trkpt lat="39.214077" lon="-0.291545">
        <ele>1.425</ele>
        <time>2019-06-15T09:54:42Z</time>
      </trkpt>
      <trkpt lat="39.214030" lon="-0.291473">
        <ele>1.026</ele>
        <time>2019-06-15T09:54:43Z</time>
      </trkpt>
      <trkpt lat="39.214001" lon="-0.291416">
        <ele>0.608</ele>
        <time>2019-06-15T09:54:44Z</time>
      </trkpt>
      <trkpt lat="39.213993" lon="-0.291350">
        <ele>0.308</ele>
        <time>2019-06-15T09:54:45Z</time>
      </trkpt>
      <trkpt lat="39.213997" lon="-0.291279">
        <ele>0.255</ele>
        <time>2019-06-15T09:54:46Z</time>
      </trkpt>
      <trkpt lat="39.213975" lon="-0.291221">
        <ele>0.159</ele>
        <time>2019-06-15T09:54:47Z</time>
      </trkpt>
      <trkpt lat="39.213969" lon="-0.291154">
        <ele>0.068</ele>
        <time>2019-06-15T09:54:48Z</time>
      </trkpt>
      <trkpt lat="39.213916" lon="-0.291115">
        <ele>0.081</ele>
        <time>2019-06-15T09:54:49Z</time>
      </trkpt>
      <trkpt lat="39.213861" lon="-0.291055">
        <ele>0.353</ele>
        <time>2019-06-15T09:54:50Z</time>
      </trkpt>
      <trkpt lat="39.213762" lon="-0.290978">
        <ele>0.940</ele>
        <time>2019-06-15T09:54:52Z</time>
      </trkpt>
      <trkpt lat="39.213721" lon="-0.290938">
        <ele>1.289</ele>
        <time>2019-06-15T09:54:53Z</time>
      </trkpt>
      <trkpt lat="39.213681" lon="-0.290887">
        <ele>1.674</ele>
        <time>2019-06-15T09:54:54Z</time>
      </trkpt>
      <trkpt lat="39.213633" lon="-0.290840">
        <ele>1.928</ele>
        <time>2019-06-15T09:54:55Z</time>
      </trkpt>
      <trkpt lat="39.213593" lon="-0.290774">
        <ele>2.389</ele>
        <time>2019-06-15T09:54:56Z</time>
      </trkpt>
      <trkpt lat="39.213559" lon="-0.290719">
        <ele>2.817</ele>
        <time>2019-06-15T09:54:57Z</time>
      </trkpt>
      <trkpt lat="39.213531" lon="-0.290655">
        <ele>3.208</ele>
        <time>2019-06-15T09:54:58Z</time>
      </trkpt>
      <trkpt lat="39.213487" lon="-0.290602">
        <ele>3.765</ele>
        <time>2019-06-15T09:54:59Z</time>
      </trkpt>
      <trkpt lat="39.213439" lon="-0.290551">
        <ele>4.289</ele>
        <time>2019-06-15T09:55:00Z</time>
      </trkpt>
      <trkpt lat="39.213398" lon="-0.290506">
        <ele>4.558</ele>
        <time>2019-06-15T09:55:01Z</time>
      </trkpt>
      <trkpt lat="39.213368" lon="-0.290443">
        <ele>4.861</ele>
        <time>2019-06-15T09:55:02Z</time>
      </trkpt>
      <trkpt lat="39.213324" lon="-0.290395">
        <ele>5.033</ele>
        <time>2019-06-15T09:55:03Z</time>
      </trkpt>
      <trkpt lat="39.213295" lon="-0.290333">
        <ele>4.940</ele>
        <time>2019-06-15T09:55:04Z</time>
      </trkpt>
      <trkpt lat="39.213243" lon="-0.290284">
        <ele>4.799</ele>
        <time>2019-06-15T09:55:05Z</time>
      </trkpt>
      <trkpt lat="39.213203" lon="-0.290211">
        <ele>4.524</ele>
        <time>2019-06-15T09:55:06Z</time>
      </trkpt>
      <trkpt lat="39.213167" lon="-0.290151">
        <ele>4.418</ele>
        <time>2019-06-15T09:55:07Z</time>
      </trkpt>
      <trkpt lat="39.213128" lon="-0.290098">
        <ele>4.398</ele>
        <time>2019-06-15T09:55:08Z</time>
      </trkpt>
      <trkpt lat="39.213093" lon="-0.290030">
        <ele>4.117</ele>
        <time>2019-06-15T09:55:09Z</time>
      </trkpt>
      <trkpt lat="39.213056" lon="-0.289980">
        <ele>4.008</ele>
        <time>2019-06-15T09:55:10Z</time>
      </trkpt>
      <trkpt lat="39.213017" lon="-0.289920">
        <ele>3.924</ele>
        <time>2019-06-15T09:55:11Z</time>
      </trkpt>
      <trkpt lat="39.212980" lon="-0.289856">
        <ele>3.798</ele>
        <time>2019-06-15T09:55:12Z</time>
      </trkpt>
      <trkpt lat="39.212946" lon="-0.289792">
        <ele>3.687</ele>
        <time>2019-06-15T09:55:13Z</time>
      </trkpt>
      <trkpt lat="39.212911" lon="-0.289731">
        <ele>3.520</ele>
        <time>2019-06-15T09:55:14Z</time>
      </trkpt>
      <trkpt lat="39.212873" lon="-0.289674">
        <ele>3.322</ele>
        <time>2019-06-15T09:55:15Z</time>
      </trkpt>
      <trkpt lat="39.212834" lon="-0.289614">
        <ele>3.249</ele>
        <time>2019-06-15T09:55:16Z</time>
      </trkpt>
      <trkpt lat="39.212793" lon="-0.289554">
        <ele>3.138</ele>
        <time>2019-06-15T09:55:17Z</time>
      </trkpt>
      <trkpt lat="39.212749" lon="-0.289492">
        <ele>2.913</ele>
        <time>2019-06-15T09:55:18Z</time>
      </trkpt>
      <trkpt lat="39.212705" lon="-0.289441">
        <ele>2.742</ele>
        <time>2019-06-15T09:55:19Z</time>
      </trkpt>
      <trkpt lat="39.212674" lon="-0.289380">
        <ele>2.622</ele>
        <time>2019-06-15T09:55:20Z</time>
      </trkpt>
      <trkpt lat="39.212640" lon="-0.289325">
        <ele>2.514</ele>
        <time>2019-06-15T09:55:21Z</time>
      </trkpt>
      <trkpt lat="39.212609" lon="-0.289258">
        <ele>2.508</ele>
        <time>2019-06-15T09:55:22Z</time>
      </trkpt>
      <trkpt lat="39.212576" lon="-0.289194">
        <ele>2.787</ele>
        <time>2019-06-15T09:55:23Z</time>
      </trkpt>
      <trkpt lat="39.212542" lon="-0.289142">
        <ele>2.811</ele>
        <time>2019-06-15T09:55:24Z</time>
      </trkpt>
      <trkpt lat="39.212509" lon="-0.289075">
        <ele>3.050</ele>
        <time>2019-06-15T09:55:25Z</time>
      </trkpt>
      <trkpt lat="39.212470" lon="-0.289010">
        <ele>3.273</ele>
        <time>2019-06-15T09:55:26Z</time>
      </trkpt>
      <trkpt lat="39.212435" lon="-0.288959">
        <ele>3.445</ele>
        <time>2019-06-15T09:55:27Z</time>
      </trkpt>
      <trkpt lat="39.212400" lon="-0.288901">
        <ele>3.752</ele>
        <time>2019-06-15T09:55:28Z</time>
      </trkpt>
      <trkpt lat="39.212383" lon="-0.288829">
        <ele>3.811</ele>
        <time>2019-06-15T09:55:29Z</time>
      </trkpt>
      <trkpt lat="39.212350" lon="-0.288772">
        <ele>4.156</ele>
        <time>2019-06-15T09:55:30Z</time>
      </trkpt>
      <trkpt lat="39.212316" lon="-0.288721">
        <ele>4.378</ele>
        <time>2019-06-15T09:55:31Z</time>
      </trkpt>
      <trkpt lat="39.212286" lon="-0.288658">
        <ele>4.533</ele>
        <time>2019-06-15T09:55:32Z</time>
      </trkpt>
      <trkpt lat="39.212254" lon="-0.288559">
        <ele>4.626</ele>
        <time>2019-06-15T09:55:34Z</time>
      </trkpt>
      <trkpt lat="39.212254" lon="-0.288450">
        <ele>4.208</ele>
        <time>2019-06-15T09:55:36Z</time>
      </trkpt>
      <trkpt lat="39.212256" lon="-0.288360">
        <ele>3.950</ele>
        <time>2019-06-15T09:55:38Z</time>
      </trkpt>
      <trkpt lat="39.212263" lon="-0.288259">
        <ele>3.984</ele>
        <time>2019-06-15T09:55:39Z</time>
      </trkpt>
      <trkpt lat="39.212251" lon="-0.288181">
        <ele>4.313</ele>
        <time>2019-06-15T09:55:40Z</time>
      </trkpt>
      <trkpt lat="39.212247" lon="-0.288112">
        <ele>4.546</ele>
        <time>2019-06-15T09:55:41Z</time>
      </trkpt>
      <trkpt lat="39.212305" lon="-0.288051">
        <ele>4.138</ele>
        <time>2019-06-15T09:55:42Z</time>
      </trkpt>
      <trkpt lat="39.212337" lon="-0.287935">
        <ele>4.015</ele>
        <time>2019-06-15T09:55:44Z</time>
      </trkpt>
      <trkpt lat="39.212359" lon="-0.287846">
        <ele>3.914</ele>
        <time>2019-06-15T09:55:45Z</time>
      </trkpt>
      <trkpt lat="39.212414" lon="-0.287758">
        <ele>3.419</ele>
        <time>2019-06-15T09:55:46Z</time>
      </trkpt>
      <trkpt lat="39.212440" lon="-0.287666">
        <ele>3.632</ele>
        <time>2019-06-15T09:55:47Z</time>
      </trkpt>
      <trkpt lat="39.212429" lon="-0.287566">
        <ele>4.492</ele>
        <time>2019-06-15T09:55:48Z</time>
      </trkpt>
      <trkpt lat="39.212492" lon="-0.287465">
        <ele>4.111</ele>
        <time>2019-06-15T09:55:49Z</time>
      </trkpt>
      <trkpt lat="39.212525" lon="-0.287367">
        <ele>3.908</ele>
        <time>2019-06-15T09:55:50Z</time>
      </trkpt>
      <trkpt lat="39.212514" lon="-0.287275">
        <ele>3.936</ele>
        <time>2019-06-15T09:55:51Z</time>
      </trkpt>
      <trkpt lat="39.212522" lon="-0.287175">
        <ele>3.860</ele>
        <time>2019-06-15T09:55:52Z</time>
      </trkpt>
      <trkpt lat="39.212555" lon="-0.287070">
        <ele>3.379</ele>
        <time>2019-06-15T09:55:53Z</time>
      </trkpt>
      <trkpt lat="39.212554" lon="-0.286977">
        <ele>2.922</ele>
        <time>2019-06-15T09:55:54Z</time>
      </trkpt>
      <trkpt lat="39.212581" lon="-0.286870">
        <ele>2.274</ele>
        <time>2019-06-15T09:55:55Z</time>
      </trkpt>
      <trkpt lat="39.212608" lon="-0.286775">
        <ele>1.411</ele>
        <time>2019-06-15T09:55:56Z</time>
      </trkpt>
      <trkpt lat="39.212626" lon="-0.286660">
        <ele>0.550</ele>
        <time>2019-06-15T09:55:57Z</time>
      </trkpt>
      <trkpt lat="39.212658" lon="-0.286546">
        <ele>0.245</ele>
        <time>2019-06-15T09:55:58Z</time>
      </trkpt>
      <trkpt lat="39.212660" lon="-0.286456">
        <ele>-0.053</ele>
        <time>2019-06-15T09:55:59Z</time>
      </trkpt>
      <trkpt lat="39.212671" lon="-0.286354">
        <ele>-0.204</ele>
        <time>2019-06-15T09:56:00Z</time>
      </trkpt>
      <trkpt lat="39.212691" lon="-0.286252">
        <ele>-0.214</ele>
        <time>2019-06-15T09:56:01Z</time>
      </trkpt>
      <trkpt lat="39.212718" lon="-0.286158">
        <ele>-0.108</ele>
        <time>2019-06-15T09:56:02Z</time>
      </trkpt>
      <trkpt lat="39.212736" lon="-0.286071">
        <ele>0.268</ele>
        <time>2019-06-15T09:56:03Z</time>
      </trkpt>
      <trkpt lat="39.212764" lon="-0.285978">
        <ele>0.952</ele>
        <time>2019-06-15T09:56:04Z</time>
      </trkpt>
      <trkpt lat="39.212787" lon="-0.285870">
        <ele>1.741</ele>
        <time>2019-06-15T09:56:05Z</time>
      </trkpt>
      <trkpt lat="39.212796" lon="-0.285768">
        <ele>1.764</ele>
        <time>2019-06-15T09:56:06Z</time>
      </trkpt>
      <trkpt lat="39.212813" lon="-0.285664">
        <ele>1.356</ele>
        <time>2019-06-15T09:56:07Z</time>
      </trkpt>
      <trkpt lat="39.212853" lon="-0.285550">
        <ele>1.043</ele>
        <time>2019-06-15T09:56:08Z</time>
      </trkpt>
      <trkpt lat="39.212880" lon="-0.285445">
        <ele>0.672</ele>
        <time>2019-06-15T09:56:09Z</time>
      </trkpt>
      <trkpt lat="39.212891" lon="-0.285340">
        <ele>0.217</ele>
        <time>2019-06-15T09:56:10Z</time>
      </trkpt>
      <trkpt lat="39.212928" lon="-0.285228">
        <ele>-0.323</ele>
        <time>2019-06-15T09:56:11Z</time>
      </trkpt>
      <trkpt lat="39.212972" lon="-0.285133">
        <ele>-0.983</ele>
        <time>2019-06-15T09:56:12Z</time>
      </trkpt>
      <trkpt lat="39.212988" lon="-0.285026">
        <ele>-1.611</ele>
        <time>2019-06-15T09:56:13Z</time>
      </trkpt>
      <trkpt lat="39.213020" lon="-0.284936">
        <ele>-1.908</ele>
        <time>2019-06-15T09:56:14Z</time>
      </trkpt>
      <trkpt lat="39.213042" lon="-0.284831">
        <ele>-2.015</ele>
        <time>2019-06-15T09:56:15Z</time>
      </trkpt>
      <trkpt lat="39.213093" lon="-0.284717">
        <ele>-2.099</ele>
        <time>2019-06-15T09:56:16Z</time>
      </trkpt>
      <trkpt lat="39.213113" lon="-0.284600">
        <ele>-1.998</ele>
        <time>2019-06-15T09:56:17Z</time>
      </trkpt>
      <trkpt lat="39.213124" lon="-0.284489">
        <ele>-1.871</ele>
        <time>2019-06-15T09:56:18Z</time>
      </trkpt>
      <trkpt lat="39.213138" lon="-0.284385">
        <ele>-1.593</ele>
        <time>2019-06-15T09:56:19Z</time>
      </trkpt>
      <trkpt lat="39.213160" lon="-0.284278">
        <ele>-1.010</ele>
        <time>2019-06-15T09:56:20Z</time>
      </trkpt>
      <trkpt lat="39.213178" lon="-0.284184">
        <ele>-0.679</ele>
        <time>2019-06-15T09:56:21Z</time>
      </trkpt>
      <trkpt lat="39.213201" lon="-0.284081">
        <ele>-0.654</ele>
        <time>2019-06-15T09:56:22Z</time>
      </trkpt>
      <trkpt lat="39.213201" lon="-0.283990">
        <ele>-0.884</ele>
        <time>2019-06-15T09:56:23Z</time>
      </trkpt>
      <trkpt lat="39.213214" lon="-0.283883">
        <ele>-0.907</ele>
        <time>2019-06-15T09:56:24Z</time>
      </trkpt>
      <trkpt lat="39.213239" lon="-0.283789">
        <ele>-0.717</ele>
        <time>2019-06-15T09:56:25Z</time>
      </trkpt>
      <trkpt lat="39.213262" lon="-0.283690">
        <ele>-0.508</ele>
        <time>2019-06-15T09:56:26Z</time>
      </trkpt>
      <trkpt lat="39.213293" lon="-0.283594">
        <ele>-0.361</ele>
        <time>2019-06-15T09:56:27Z</time>
      </trkpt>
      <trkpt lat="39.213314" lon="-0.283498">
        <ele>-0.185</ele>
        <time>2019-06-15T09:56:28Z</time>
      </trkpt>
      <trkpt lat="39.213341" lon="-0.283385">
        <ele>0.114</ele>
        <time>2019-06-15T09:56:29Z</time>
      </trkpt>
      <trkpt lat="39.213385" lon="-0.283298">
        <ele>0.367</ele>
        <time>2019-06-15T09:56:30Z</time>
      </trkpt>
      <trkpt lat="39.213421" lon="-0.283202">
        <ele>0.579</ele>
        <time>2019-06-15T09:56:31Z</time>
      </trkpt>
      <trkpt lat="39.213463" lon="-0.283110">
        <ele>0.616</ele>
        <time>2019-06-15T09:56:32Z</time>
      </trkpt>
      <trkpt lat="39.213473" lon="-0.283016">
        <ele>0.375</ele>
        <time>2019-06-15T09:56:33Z</time>
      </trkpt>
      <trkpt lat="39.213473" lon="-0.282903">
        <ele>-0.380</ele>
        <time>2019-06-15T09:56:34Z</time>
      </trkpt>
      <trkpt lat="39.213495" lon="-0.282813">
        <ele>-0.817</ele>
        <time>2019-06-15T09:56:35Z</time>
      </trkpt>
      <trkpt lat="39.213515" lon="-0.282722">
        <ele>-1.087</ele>
        <time>2019-06-15T09:56:36Z</time>
      </trkpt>
      <trkpt lat="39.213536" lon="-0.282626">
        <ele>-1.015</ele>
        <time>2019-06-15T09:56:37Z</time>
      </trkpt>
      <trkpt lat="39.213547" lon="-0.282529">
        <ele>-1.008</ele>
        <time>2019-06-15T09:56:38Z</time>
      </trkpt>
      <trkpt lat="39.213574" lon="-0.282439">
        <ele>-0.814</ele>
        <time>2019-06-15T09:56:39Z</time>
      </trkpt>
      <trkpt lat="39.213596" lon="-0.282347">
        <ele>-0.458</ele>
        <time>2019-06-15T09:56:40Z</time>
      </trkpt>
      <trkpt lat="39.213606" lon="-0.282246">
        <ele>-0.177</ele>
        <time>2019-06-15T09:56:41Z</time>
      </trkpt>
      <trkpt lat="39.213594" lon="-0.282162">
        <ele>0.150</ele>
        <time>2019-06-15T09:56:42Z</time>
      </trkpt>
      <trkpt lat="39.213643" lon="-0.282075">
        <ele>-0.112</ele>
        <time>2019-06-15T09:56:43Z</time>
      </trkpt>
      <trkpt lat="39.213676" lon="-0.281980">
        <ele>-0.029</ele>
        <time>2019-06-15T09:56:44Z</time>
      </trkpt>
      <trkpt lat="39.213723" lon="-0.281898">
        <ele>0.118</ele>
        <time>2019-06-15T09:56:45Z</time>
      </trkpt>
      <trkpt lat="39.213741" lon="-0.281797">
        <ele>0.253</ele>
        <time>2019-06-15T09:56:46Z</time>
      </trkpt>
      <trkpt lat="39.213778" lon="-0.281716">
        <ele>0.545</ele>
        <time>2019-06-15T09:56:47Z</time>
      </trkpt>
      <trkpt lat="39.213798" lon="-0.281616">
        <ele>0.747</ele>
        <time>2019-06-15T09:56:48Z</time>
      </trkpt>
      <trkpt lat="39.213828" lon="-0.281528">
        <ele>0.911</ele>
        <time>2019-06-15T09:56:49Z</time>
      </trkpt>
      <trkpt lat="39.213839" lon="-0.281452">
        <ele>1.008</ele>
        <time>2019-06-15T09:56:50Z</time>
      </trkpt>
      <trkpt lat="39.213850" lon="-0.281360">
        <ele>0.957</ele>
        <time>2019-06-15T09:56:51Z</time>
      </trkpt>
      <trkpt lat="39.213871" lon="-0.281265">
        <ele>0.641</ele>
        <time>2019-06-15T09:56:52Z</time>
      </trkpt>
      <trkpt lat="39.213878" lon="-0.281181">
        <ele>0.350</ele>
        <time>2019-06-15T09:56:53Z</time>
      </trkpt>
      <trkpt lat="39.213899" lon="-0.281084">
        <ele>-0.093</ele>
        <time>2019-06-15T09:56:54Z</time>
      </trkpt>
      <trkpt lat="39.213954" lon="-0.280979">
        <ele>-0.135</ele>
        <time>2019-06-15T09:56:55Z</time>
      </trkpt>
      <trkpt lat="39.213984" lon="-0.280882">
        <ele>-0.312</ele>
        <time>2019-06-15T09:56:56Z</time>
      </trkpt>
      <trkpt lat="39.214011" lon="-0.280790">
        <ele>-0.611</ele>
        <time>2019-06-15T09:56:57Z</time>
      </trkpt>
      <trkpt lat="39.214047" lon="-0.280688">
        <ele>-1.196</ele>
        <time>2019-06-15T09:56:58Z</time>
      </trkpt>
      <trkpt lat="39.214048" lon="-0.280581">
        <ele>-1.516</ele>
        <time>2019-06-15T09:56:59Z</time>
      </trkpt>
      <trkpt lat="39.214055" lon="-0.280491">
        <ele>-1.776</ele>
        <time>2019-06-15T09:57:00Z</time>
      </trkpt>
      <trkpt lat="39.214098" lon="-0.280396">
        <ele>-1.913</ele>
        <time>2019-06-15T09:57:01Z</time>
      </trkpt>
      <trkpt lat="39.214113" lon="-0.280292">
        <ele>-2.008</ele>
        <time>2019-06-15T09:57:02Z</time>
      </trkpt>
      <trkpt lat="39.214127" lon="-0.280192">
        <ele>-2.084</ele>
        <time>2019-06-15T09:57:03Z</time>
      </trkpt>
      <trkpt lat="39.214137" lon="-0.280098">
        <ele>-2.068</ele>
        <time>2019-06-15T09:57:04Z</time>
      </trkpt>
      <trkpt lat="39.214170" lon="-0.280004">
        <ele>-2.017</ele>
        <time>2019-06-15T09:57:05Z</time>
      </trkpt>
      <trkpt lat="39.214180" lon="-0.279905">
        <ele>-2.010</ele>
        <time>2019-06-15T09:57:06Z</time>
      </trkpt>
      <trkpt lat="39.214207" lon="-0.279815">
        <ele>-1.912</ele>
        <time>2019-06-15T09:57:07Z</time>
      </trkpt>
      <trkpt lat="39.214223" lon="-0.279727">
        <ele>-1.819</ele>
        <time>2019-06-15T09:57:08Z</time>
      </trkpt>
      <trkpt lat="39.214239" lon="-0.279630">
        <ele>-1.528</ele>
        <time>2019-06-15T09:57:09Z</time>
      </trkpt>
      <trkpt lat="39.214260" lon="-0.279536">
        <ele>-1.233</ele>
        <time>2019-06-15T09:57:10Z</time>
      </trkpt>
      <trkpt lat="39.214281" lon="-0.279457">
        <ele>-1.057</ele>
        <time>2019-06-15T09:57:11Z</time>
      </trkpt>
      <trkpt lat="39.214298" lon="-0.279358">
        <ele>-1.000</ele>
        <time>2019-06-15T09:57:12Z</time>
      </trkpt>
      <trkpt lat="39.214323" lon="-0.279265">
        <ele>-1.020</ele>
        <time>2019-06-15T09:57:13Z</time>
      </trkpt>
      <trkpt lat="39.214323" lon="-0.279265">
        <ele>-1.008</ele>
        <time>2019-06-15T09:57:13Z</time>
      </trkpt>
      <trkpt lat="39.214344" lon="-0.279173">
        <ele>-1.018</ele>
        <time>2019-06-15T09:57:14Z</time>
      </trkpt>
      <trkpt lat="39.214355" lon="-0.279083">
        <ele>-0.942</ele>
        <time>2019-06-15T09:57:15Z</time>
      </trkpt>
      <trkpt lat="39.214368" lon="-0.278997">
        <ele>-0.871</ele>
        <time>2019-06-15T09:57:16Z</time>
      </trkpt>
      <trkpt lat="39.214381" lon="-0.278921">
        <ele>-0.894</ele>
        <time>2019-06-15T09:57:17Z</time>
      </trkpt>
      <trkpt lat="39.214411" lon="-0.278846">
        <ele>-0.916</ele>
        <time>2019-06-15T09:57:18Z</time>
      </trkpt>
      <trkpt lat="39.214435" lon="-0.278796">
        <ele>-1.063</ele>
        <time>2019-06-15T09:57:25Z</time>
      </trkpt>
      <trkpt lat="39.214380" lon="-0.278811">
        <ele>-0.862</ele>
        <time>2019-06-15T09:57:32Z</time>
      </trkpt>
      <trkpt lat="39.214334" lon="-0.278766">
        <ele>-0.627</ele>
        <time>2019-06-15T09:57:35Z</time>
      </trkpt>
      <trkpt lat="39.214299" lon="-0.278709">
        <ele>-0.523</ele>
        <time>2019-06-15T09:57:37Z</time>
      </trkpt>
      <trkpt lat="39.214265" lon="-0.278635">
        <ele>-0.483</ele>
        <time>2019-06-15T09:57:39Z</time>
      </trkpt>
      <trkpt lat="39.214218" lon="-0.278492">
        <ele>-0.211</ele>
        <time>2019-06-15T09:57:41Z</time>
      </trkpt>
      <trkpt lat="39.214193" lon="-0.278437">
        <ele>-0.108</ele>
        <time>2019-06-15T09:57:42Z</time>
      </trkpt>
      <trkpt lat="39.214168" lon="-0.278379">
        <ele>-0.045</ele>
        <time>2019-06-15T09:57:43Z</time>
      </trkpt>
      <trkpt lat="39.214141" lon="-0.278329">
        <ele>0.179</ele>
        <time>2019-06-15T09:57:44Z</time>
      </trkpt>
      <trkpt lat="39.214079" lon="-0.278245">
        <ele>0.668</ele>
        <time>2019-06-15T09:57:46Z</time>
      </trkpt>
      <trkpt lat="39.214021" lon="-0.278156">
        <ele>1.241</ele>
        <time>2019-06-15T09:57:48Z</time>
      </trkpt>
      <trkpt lat="39.213977" lon="-0.278011">
        <ele>1.673</ele>
        <time>2019-06-15T09:57:50Z</time>
      </trkpt>
      <trkpt lat="39.213932" lon="-0.277991">
        <ele>1.610</ele>
        <time>2019-06-15T09:57:51Z</time>
      </trkpt>
      <trkpt lat="39.213919" lon="-0.277906">
        <ele>1.419</ele>
        <time>2019-06-15T09:57:53Z</time>
      </trkpt>
      <trkpt lat="39.213963" lon="-0.277830">
        <ele>1.184</ele>
        <time>2019-06-15T09:57:54Z</time>
      </trkpt>
      <trkpt lat="39.213909" lon="-0.277756">
        <ele>1.048</ele>
        <time>2019-06-15T09:57:55Z</time>
      </trkpt>
      <trkpt lat="39.213890" lon="-0.277702">
        <ele>1.061</ele>
        <time>2019-06-15T09:57:56Z</time>
      </trkpt>
      <trkpt lat="39.213891" lon="-0.277630">
        <ele>1.017</ele>
        <time>2019-06-15T09:57:57Z</time>
      </trkpt>
      <trkpt lat="39.213836" lon="-0.277546">
        <ele>1.008</ele>
        <time>2019-06-15T09:57:59Z</time>
      </trkpt>
      <trkpt lat="39.213831" lon="-0.277485">
        <ele>0.977</ele>
        <time>2019-06-15T09:58:00Z</time>
      </trkpt>
      <trkpt lat="39.213791" lon="-0.277419">
        <ele>0.751</ele>
        <time>2019-06-15T09:58:01Z</time>
      </trkpt>
      <trkpt lat="39.213745" lon="-0.277344">
        <ele>0.490</ele>
        <time>2019-06-15T09:58:02Z</time>
      </trkpt>
      <trkpt lat="39.213708" lon="-0.277292">
        <ele>0.343</ele>
        <time>2019-06-15T09:58:03Z</time>
      </trkpt>
      <trkpt lat="39.213682" lon="-0.277233">
        <ele>0.065</ele>
        <time>2019-06-15T09:58:04Z</time>
      </trkpt>
      <trkpt lat="39.213638" lon="-0.277173">
        <ele>0.092</ele>
        <time>2019-06-15T09:58:05Z</time>
      </trkpt>
      <trkpt lat="39.213586" lon="-0.277128">
        <ele>0.041</ele>
        <time>2019-06-15T09:58:06Z</time>
      </trkpt>
      <trkpt lat="39.213541" lon="-0.277076">
        <ele>0.146</ele>
        <time>2019-06-15T09:58:07Z</time>
      </trkpt>
      <trkpt lat="39.213505" lon="-0.277001">
        <ele>0.338</ele>
        <time>2019-06-15T09:58:08Z</time>
      </trkpt>
      <trkpt lat="39.213467" lon="-0.276937">
        <ele>0.570</ele>
        <time>2019-06-15T09:58:09Z</time>
      </trkpt>
      <trkpt lat="39.213417" lon="-0.276862">
        <ele>1.017</ele>
        <time>2019-06-15T09:58:10Z</time>
      </trkpt>
      <trkpt lat="39.213385" lon="-0.276798">
        <ele>1.308</ele>
        <time>2019-06-15T09:58:11Z</time>
      </trkpt>
      <trkpt lat="39.213363" lon="-0.276738">
        <ele>1.626</ele>
        <time>2019-06-15T09:58:12Z</time>
      </trkpt>
      <trkpt lat="39.213342" lon="-0.276673">
        <ele>1.990</ele>
        <time>2019-06-15T09:58:13Z</time>
      </trkpt>
      <trkpt lat="39.213295" lon="-0.276638">
        <ele>1.929</ele>
        <time>2019-06-15T09:58:14Z</time>
      </trkpt>
      <trkpt lat="39.213249" lon="-0.276580">
        <ele>1.872</ele>
        <time>2019-06-15T09:58:15Z</time>
      </trkpt>
      <trkpt lat="39.213209" lon="-0.276522">
        <ele>1.714</ele>
        <time>2019-06-15T09:58:16Z</time>
      </trkpt>
      <trkpt lat="39.213174" lon="-0.276476">
        <ele>1.721</ele>
        <time>2019-06-15T09:58:17Z</time>
      </trkpt>
      <trkpt lat="39.213145" lon="-0.276431">
        <ele>1.780</ele>
        <time>2019-06-15T09:58:18Z</time>
      </trkpt>
      <trkpt lat="39.213121" lon="-0.276375">
        <ele>1.835</ele>
        <time>2019-06-15T09:58:19Z</time>
      </trkpt>
      <trkpt lat="39.213082" lon="-0.276345">
        <ele>1.944</ele>
        <time>2019-06-15T09:58:20Z</time>
      </trkpt>
      <trkpt lat="39.213056" lon="-0.276278">
        <ele>2.005</ele>
        <time>2019-06-15T09:58:21Z</time>
      </trkpt>
      <trkpt lat="39.213039" lon="-0.276192">
        <ele>2.015</ele>
        <time>2019-06-15T09:58:22Z</time>
      </trkpt>
      <trkpt lat="39.213013" lon="-0.276122">
        <ele>2.008</ele>
        <time>2019-06-15T09:58:23Z</time>
      </trkpt>
      <trkpt lat="39.212980" lon="-0.276077">
        <ele>2.057</ele>
        <time>2019-06-15T09:58:24Z</time>
      </trkpt>
      <trkpt lat="39.212956" lon="-0.276015">
        <ele>2.091</ele>
        <time>2019-06-15T09:58:25Z</time>
      </trkpt>
      <trkpt lat="39.212894" lon="-0.275922">
        <ele>2.090</ele>
        <time>2019-06-15T09:58:27Z</time>
      </trkpt>
      <trkpt lat="39.212824" lon="-0.275846">
        <ele>2.043</ele>
        <time>2019-06-15T09:58:29Z</time>
      </trkpt>
      <trkpt lat="39.212787" lon="-0.275769">
        <ele>2.075</ele>
        <time>2019-06-15T09:58:30Z</time>
      </trkpt>
      <trkpt lat="39.212740" lon="-0.275709">
        <ele>2.172</ele>
        <time>2019-06-15T09:58:31Z</time>
      </trkpt>
      <trkpt lat="39.212669" lon="-0.275613">
        <ele>2.481</ele>
        <time>2019-06-15T09:58:33Z</time>
      </trkpt>
      <trkpt lat="39.212638" lon="-0.275554">
        <ele>2.596</ele>
        <time>2019-06-15T09:58:34Z</time>
      </trkpt>
      <trkpt lat="39.212607" lon="-0.275491">
        <ele>2.593</ele>
        <time>2019-06-15T09:58:35Z</time>
      </trkpt>
      <trkpt lat="39.212568" lon="-0.275440">
        <ele>2.465</ele>
        <time>2019-06-15T09:58:36Z</time>
      </trkpt>
      <trkpt lat="39.212518" lon="-0.275396">
        <ele>2.421</ele>
        <time>2019-06-15T09:58:37Z</time>
      </trkpt>
      <trkpt lat="39.212482" lon="-0.275340">
        <ele>2.308</ele>
        <time>2019-06-15T09:58:38Z</time>
      </trkpt>
      <trkpt lat="39.212434" lon="-0.275291">
        <ele>2.352</ele>
        <time>2019-06-15T09:58:39Z</time>
      </trkpt>
      <trkpt lat="39.212396" lon="-0.275237">
        <ele>2.466</ele>
        <time>2019-06-15T09:58:40Z</time>
      </trkpt>
      <trkpt lat="39.212336" lon="-0.275136">
        <ele>2.685</ele>
        <time>2019-06-15T09:58:42Z</time>
      </trkpt>
      <trkpt lat="39.212295" lon="-0.275085">
        <ele>2.738</ele>
        <time>2019-06-15T09:58:43Z</time>
      </trkpt>
      <trkpt lat="39.212265" lon="-0.275036">
        <ele>2.880</ele>
        <time>2019-06-15T09:58:44Z</time>
      </trkpt>
      <trkpt lat="39.212229" lon="-0.274977">
        <ele>3.097</ele>
        <time>2019-06-15T09:58:45Z</time>
      </trkpt>
      <trkpt lat="39.212193" lon="-0.274927">
        <ele>3.096</ele>
        <time>2019-06-15T09:58:46Z</time>
      </trkpt>
      <trkpt lat="39.212181" lon="-0.274849">
        <ele>3.021</ele>
        <time>2019-06-15T09:58:47Z</time>
      </trkpt>
      <trkpt lat="39.212144" lon="-0.274793">
        <ele>3.034</ele>
        <time>2019-06-15T09:58:48Z</time>
      </trkpt>
      <trkpt lat="39.212109" lon="-0.274742">
        <ele>3.055</ele>
        <time>2019-06-15T09:58:49Z</time>
      </trkpt>
      <trkpt lat="39.212077" lon="-0.274692">
        <ele>2.910</ele>
        <time>2019-06-15T09:58:50Z</time>
      </trkpt>
      <trkpt lat="39.212042" lon="-0.274643">
        <ele>2.908</ele>
        <time>2019-06-15T09:58:51Z</time>
      </trkpt>
      <trkpt lat="39.212008" lon="-0.274601">
        <ele>2.916</ele>
        <time>2019-06-15T09:58:52Z</time>
      </trkpt>
      <trkpt lat="39.211993" lon="-0.274540">
        <ele>2.920</ele>
        <time>2019-06-15T09:58:53Z</time>
      </trkpt>
      <trkpt lat="39.211967" lon="-0.274485">
        <ele>2.979</ele>
        <time>2019-06-15T09:58:54Z</time>
      </trkpt>
      <trkpt lat="39.211927" lon="-0.274404">
        <ele>2.862</ele>
        <time>2019-06-15T09:58:56Z</time>
      </trkpt>
      <trkpt lat="39.211927" lon="-0.274404">
        <ele>2.894</ele>
        <time>2019-06-15T09:58:56Z</time>
      </trkpt>
      <trkpt lat="39.211876" lon="-0.274306">
        <ele>2.421</ele>
        <time>2019-06-15T09:58:58Z</time>
      </trkpt>
      <trkpt lat="39.211876" lon="-0.274306">
        <ele>2.420</ele>
        <time>2019-06-15T09:58:58Z</time>
      </trkpt>
      <trkpt lat="39.211854" lon="-0.274253">
        <ele>2.245</ele>
        <time>2019-06-15T09:58:59Z</time>
      </trkpt>
      <trkpt lat="39.211812" lon="-0.274219">
        <ele>2.142</ele>
        <time>2019-06-15T09:59:01Z</time>
      </trkpt>
      <trkpt lat="39.211767" lon="-0.274196">
        <ele>2.022</ele>
        <time>2019-06-15T09:59:03Z</time>
      </trkpt>
      <trkpt lat="39.211712" lon="-0.274179">
        <ele>2.014</ele>
        <time>2019-06-15T09:59:06Z</time>
      </trkpt>
      <trkpt lat="39.211674" lon="-0.274212">
        <ele>2.008</ele>
        <time>2019-06-15T09:59:08Z</time>
      </trkpt>
      <trkpt lat="39.211607" lon="-0.274278">
        <ele>1.947</ele>
        <time>2019-06-15T09:59:09Z</time>
      </trkpt>
      <trkpt lat="39.211545" lon="-0.274381">
        <ele>1.731</ele>
        <time>2019-06-15T09:59:11Z</time>
      </trkpt>
      <trkpt lat="39.211506" lon="-0.274424">
        <ele>1.540</ele>
        <time>2019-06-15T09:59:12Z</time>
      </trkpt>
      <trkpt lat="39.211488" lon="-0.274484">
        <ele>1.333</ele>
        <time>2019-06-15T09:59:13Z</time>
      </trkpt>
      <trkpt lat="39.211443" lon="-0.274512">
        <ele>1.095</ele>
        <time>2019-06-15T09:59:14Z</time>
      </trkpt>
      <trkpt lat="39.211382" lon="-0.274590">
        <ele>0.552</ele>
        <time>2019-06-15T09:59:16Z</time>
      </trkpt>
      <trkpt lat="39.211320" lon="-0.274676">
        <ele>0.161</ele>
        <time>2019-06-15T09:59:18Z</time>
      </trkpt>
      <trkpt lat="39.211252" lon="-0.274748">
        <ele>0.176</ele>
        <time>2019-06-15T09:59:20Z</time>
      </trkpt>
      <trkpt lat="39.211209" lon="-0.274768">
        <ele>0.271</ele>
        <time>2019-06-15T09:59:22Z</time>
      </trkpt>
      <trkpt lat="39.211176" lon="-0.274725">
        <ele>0.041</ele>
        <time>2019-06-15T09:59:23Z</time>
      </trkpt>
      <trkpt lat="39.211133" lon="-0.274694">
        <ele>0.015</ele>
        <time>2019-06-15T09:59:24Z</time>
      </trkpt>
      <trkpt lat="39.211100" lon="-0.274581">
        <ele>0.008</ele>
        <time>2019-06-15T09:59:26Z</time>
      </trkpt>
      <trkpt lat="39.211073" lon="-0.274524">
        <ele>0.010</ele>
        <time>2019-06-15T09:59:27Z</time>
      </trkpt>
      <trkpt lat="39.211042" lon="-0.274480">
        <ele>0.074</ele>
        <time>2019-06-15T09:59:28Z</time>
      </trkpt>
      <trkpt lat="39.210983" lon="-0.274392">
        <ele>0.183</ele>
        <time>2019-06-15T09:59:30Z</time>
      </trkpt>
      <trkpt lat="39.210959" lon="-0.274321">
        <ele>0.236</ele>
        <time>2019-06-15T09:59:31Z</time>
      </trkpt>
      <trkpt lat="39.210923" lon="-0.274248">
        <ele>0.268</ele>
        <time>2019-06-15T09:59:32Z</time>
      </trkpt>
      <trkpt lat="39.210889" lon="-0.274187">
        <ele>0.245</ele>
        <time>2019-06-15T09:59:33Z</time>
      </trkpt>
      <trkpt lat="39.210884" lon="-0.274102">
        <ele>-0.094</ele>
        <time>2019-06-15T09:59:34Z</time>
      </trkpt>
      <trkpt lat="39.210842" lon="-0.274003">
        <ele>-0.549</ele>
        <time>2019-06-15T09:59:35Z</time>
      </trkpt>
      <trkpt lat="39.210825" lon="-0.273925">
        <ele>-0.927</ele>
        <time>2019-06-15T09:59:36Z</time>
      </trkpt>
      <trkpt lat="39.210739" lon="-0.273862">
        <ele>-1.468</ele>
        <time>2019-06-15T09:59:38Z</time>
      </trkpt>
      <trkpt lat="39.210725" lon="-0.273778">
        <ele>-1.614</ele>
        <time>2019-06-15T09:59:39Z</time>
      </trkpt>
      <trkpt lat="39.210674" lon="-0.273729">
        <ele>-1.808</ele>
        <time>2019-06-15T09:59:40Z</time>
      </trkpt>
      <trkpt lat="39.210615" lon="-0.273613">
        <ele>-2.015</ele>
        <time>2019-06-15T09:59:42Z</time>
      </trkpt>
      <trkpt lat="39.210595" lon="-0.273547">
        <ele>-2.049</ele>
        <time>2019-06-15T09:59:43Z</time>
      </trkpt>
      <trkpt lat="39.210568" lon="-0.273461">
        <ele>-2.038</ele>
        <time>2019-06-15T09:59:44Z</time>
      </trkpt>
      <trkpt lat="39.210528" lon="-0.273414">
        <ele>-2.111</ele>
        <time>2019-06-15T09:59:46Z</time>
      </trkpt>
      <trkpt lat="39.210486" lon="-0.273303">
        <ele>-2.133</ele>
        <time>2019-06-15T09:59:47Z</time>
      </trkpt>
      <trkpt lat="39.210364" lon="-0.273257">
        <ele>-2.290</ele>
        <time>2019-06-15T09:59:49Z</time>
      </trkpt>
      <trkpt lat="39.210304" lon="-0.273092">
        <ele>-1.289</ele>
        <time>2019-06-15T09:59:52Z</time>
      </trkpt>
      <trkpt lat="39.210288" lon="-0.273005">
        <ele>-0.634</ele>
        <time>2019-06-15T09:59:53Z</time>
      </trkpt>
      <trkpt lat="39.210249" lon="-0.272921">
        <ele>0.149</ele>
        <time>2019-06-15T09:59:54Z</time>
      </trkpt>
      <trkpt lat="39.210165" lon="-0.272940">
        <ele>0.302</ele>
        <time>2019-06-15T09:59:55Z</time>
      </trkpt>
      <trkpt lat="39.210157" lon="-0.272860">
        <ele>0.722</ele>
        <time>2019-06-15T09:59:56Z</time>
      </trkpt>
      <trkpt lat="39.210134" lon="-0.272750">
        <ele>1.108</ele>
        <time>2019-06-15T09:59:57Z</time>
      </trkpt>
      <trkpt lat="39.210119" lon="-0.272674">
        <ele>1.437</ele>
        <time>2019-06-15T09:59:58Z</time>
      </trkpt>
      <trkpt lat="39.210104" lon="-0.272596">
        <ele>1.731</ele>
        <time>2019-06-15T09:59:59Z</time>
      </trkpt>
      <trkpt lat="39.210064" lon="-0.272562">
        <ele>1.860</ele>
        <time>2019-06-15T10:00:00Z</time>
      </trkpt>
      <trkpt lat="39.210030" lon="-0.272508">
        <ele>2.013</ele>
        <time>2019-06-15T10:00:01Z</time>
      </trkpt>
      <trkpt lat="39.210002" lon="-0.272452">
        <ele>2.045</ele>
        <time>2019-06-15T10:00:02Z</time>
      </trkpt>
      <trkpt lat="39.209970" lon="-0.272385">
        <ele>2.042</ele>
        <time>2019-06-15T10:00:03Z</time>
      </trkpt>
      <trkpt lat="39.209947" lon="-0.272324">
        <ele>2.071</ele>
        <time>2019-06-15T10:00:04Z</time>
      </trkpt>
      <trkpt lat="39.209913" lon="-0.272263">
        <ele>2.026</ele>
        <time>2019-06-15T10:00:05Z</time>
      </trkpt>
      <trkpt lat="39.209870" lon="-0.272202">
        <ele>1.922</ele>
        <time>2019-06-15T10:00:06Z</time>
      </trkpt>
      <trkpt lat="39.209844" lon="-0.272143">
        <ele>1.762</ele>
        <time>2019-06-15T10:00:07Z</time>
      </trkpt>
      <trkpt lat="39.209805" lon="-0.272083">
        <ele>1.508</ele>
        <time>2019-06-15T10:00:08Z</time>
      </trkpt>
      <trkpt lat="39.209762" lon="-0.272036">
        <ele>1.308</ele>
        <time>2019-06-15T10:00:09Z</time>
      </trkpt>
      <trkpt lat="39.209724" lon="-0.271979">
        <ele>1.165</ele>
        <time>2019-06-15T10:00:10Z</time>
      </trkpt>
      <trkpt lat="39.209683" lon="-0.271923">
        <ele>1.189</ele>
        <time>2019-06-15T10:00:11Z</time>
      </trkpt>
      <trkpt lat="39.209650" lon="-0.271865">
        <ele>1.318</ele>
        <time>2019-06-15T10:00:12Z</time>
      </trkpt>
      <trkpt lat="39.209602" lon="-0.271817">
        <ele>1.521</ele>
        <time>2019-06-15T10:00:13Z</time>
      </trkpt>
      <trkpt lat="39.209569" lon="-0.271767">
        <ele>1.623</ele>
        <time>2019-06-15T10:00:14Z</time>
      </trkpt>
      <trkpt lat="39.209541" lon="-0.271712">
        <ele>1.810</ele>
        <time>2019-06-15T10:00:15Z</time>
      </trkpt>
      <trkpt lat="39.209507" lon="-0.271655">
        <ele>2.059</ele>
        <time>2019-06-15T10:00:16Z</time>
      </trkpt>
      <trkpt lat="39.209476" lon="-0.271612">
        <ele>2.224</ele>
        <time>2019-06-15T10:00:17Z</time>
      </trkpt>
      <trkpt lat="39.209442" lon="-0.271563">
        <ele>2.451</ele>
        <time>2019-06-15T10:00:18Z</time>
      </trkpt>
      <trkpt lat="39.209413" lon="-0.271518">
        <ele>2.401</ele>
        <time>2019-06-15T10:00:19Z</time>
      </trkpt>
      <trkpt lat="39.209383" lon="-0.271457">
        <ele>2.411</ele>
        <time>2019-06-15T10:00:20Z</time>
      </trkpt>
      <trkpt lat="39.209357" lon="-0.271380">
        <ele>2.408</ele>
        <time>2019-06-15T10:00:21Z</time>
      </trkpt>
      <trkpt lat="39.209320" lon="-0.271326">
        <ele>2.258</ele>
        <time>2019-06-15T10:00:22Z</time>
      </trkpt>
      <trkpt lat="39.209289" lon="-0.271264">
        <ele>2.172</ele>
        <time>2019-06-15T10:00:23Z</time>
      </trkpt>
      <trkpt lat="39.209258" lon="-0.271197">
        <ele>2.111</ele>
        <time>2019-06-15T10:00:24Z</time>
      </trkpt>
      <trkpt lat="39.209233" lon="-0.271140">
        <ele>2.244</ele>
        <time>2019-06-15T10:00:25Z</time>
      </trkpt>
      <trkpt lat="39.209214" lon="-0.271079">
        <ele>2.136</ele>
        <time>2019-06-15T10:00:26Z</time>
      </trkpt>
      <trkpt lat="39.209181" lon="-0.271018">
        <ele>1.773</ele>
        <time>2019-06-15T10:00:27Z</time>
      </trkpt>
      <trkpt lat="39.209153" lon="-0.270953">
        <ele>1.452</ele>
        <time>2019-06-15T10:00:28Z</time>
      </trkpt>
      <trkpt lat="39.209124" lon="-0.270889">
        <ele>1.237</ele>
        <time>2019-06-15T10:00:29Z</time>
      </trkpt>
      <trkpt lat="39.209083" lon="-0.270824">
        <ele>1.083</ele>
        <time>2019-06-15T10:00:30Z</time>
      </trkpt>
      <trkpt lat="39.209051" lon="-0.270768">
        <ele>1.025</ele>
        <time>2019-06-15T10:00:31Z</time>
      </trkpt>
      <trkpt lat="39.209018" lon="-0.270702">
        <ele>1.017</ele>
        <time>2019-06-15T10:00:32Z</time>
      </trkpt>
      <trkpt lat="39.208986" lon="-0.270653">
        <ele>1.008</ele>
        <time>2019-06-15T10:00:33Z</time>
      </trkpt>
      <trkpt lat="39.208952" lon="-0.270610">
        <ele>1.081</ele>
        <time>2019-06-15T10:00:34Z</time>
      </trkpt>
      <trkpt lat="39.208916" lon="-0.270556">
        <ele>1.085</ele>
        <time>2019-06-15T10:00:35Z</time>
      </trkpt>
      <trkpt lat="39.208884" lon="-0.270492">
        <ele>0.864</ele>
        <time>2019-06-15T10:00:36Z</time>
      </trkpt>
      <trkpt lat="39.208852" lon="-0.270435">
        <ele>0.797</ele>
        <time>2019-06-15T10:00:37Z</time>
      </trkpt>
      <trkpt lat="39.208819" lon="-0.270369">
        <ele>0.679</ele>
        <time>2019-06-15T10:00:38Z</time>
      </trkpt>
      <trkpt lat="39.208793" lon="-0.270295">
        <ele>0.486</ele>
        <time>2019-06-15T10:00:39Z</time>
      </trkpt>
      <trkpt lat="39.208757" lon="-0.270228">
        <ele>0.545</ele>
        <time>2019-06-15T10:00:40Z</time>
      </trkpt>
      <trkpt lat="39.208733" lon="-0.270153">
        <ele>0.680</ele>
        <time>2019-06-15T10:00:41Z</time>
      </trkpt>
      <trkpt lat="39.208712" lon="-0.270083">
        <ele>0.675</ele>
        <time>2019-06-15T10:00:42Z</time>
      </trkpt>
      <trkpt lat="39.208684" lon="-0.270014">
        <ele>0.728</ele>
        <time>2019-06-15T10:00:43Z</time>
      </trkpt>
      <trkpt lat="39.208661" lon="-0.269932">
        <ele>0.620</ele>
        <time>2019-06-15T10:00:44Z</time>
      </trkpt>
      <trkpt lat="39.208636" lon="-0.269850">
        <ele>0.408</ele>
        <time>2019-06-15T10:00:45Z</time>
      </trkpt>
      <trkpt lat="39.208613" lon="-0.269779">
        <ele>0.280</ele>
        <time>2019-06-15T10:00:46Z</time>
      </trkpt>
      <trkpt lat="39.208585" lon="-0.269705">
        <ele>0.194</ele>
        <time>2019-06-15T10:00:47Z</time>
      </trkpt>
      <trkpt lat="39.208565" lon="-0.269633">
        <ele>0.123</ele>
        <time>2019-06-15T10:00:48Z</time>
      </trkpt>
      <trkpt lat="39.208547" lon="-0.269552">
        <ele>0.126</ele>
        <time>2019-06-15T10:00:49Z</time>
      </trkpt>
      <trkpt lat="39.208522" lon="-0.269478">
        <ele>0.028</ele>
        <time>2019-06-15T10:00:50Z</time>
      </trkpt>
      <trkpt lat="39.208494" lon="-0.269402">
        <ele>0.235</ele>
        <time>2019-06-15T10:00:51Z</time>
      </trkpt>
      <trkpt lat="39.208469" lon="-0.269332">
        <ele>0.454</ele>
        <time>2019-06-15T10:00:52Z</time>
      </trkpt>
      <trkpt lat="39.208446" lon="-0.269259">
        <ele>0.759</ele>
        <time>2019-06-15T10:00:53Z</time>
      </trkpt>
      <trkpt lat="39.208430" lon="-0.269191">
        <ele>0.945</ele>
        <time>2019-06-15T10:00:54Z</time>
      </trkpt>
      <trkpt lat="39.208413" lon="-0.269119">
        <ele>1.047</ele>
        <time>2019-06-15T10:00:55Z</time>
      </trkpt>
      <trkpt lat="39.208392" lon="-0.269042">
        <ele>1.011</ele>
        <time>2019-06-15T10:00:56Z</time>
      </trkpt>
      <trkpt lat="39.208377" lon="-0.268959">
        <ele>1.008</ele>
        <time>2019-06-15T10:00:57Z</time>
      </trkpt>
      <trkpt lat="39.208365" lon="-0.268881">
        <ele>1.097</ele>
        <time>2019-06-15T10:00:58Z</time>
      </trkpt>
      <trkpt lat="39.208355" lon="-0.268799">
        <ele>1.031</ele>
        <time>2019-06-15T10:00:59Z</time>
      </trkpt>
      <trkpt lat="39.208342" lon="-0.268713">
        <ele>1.090</ele>
        <time>2019-06-15T10:01:00Z</time>
      </trkpt>
      <trkpt lat="39.208337" lon="-0.268636">
        <ele>1.033</ele>
        <time>2019-06-15T10:01:01Z</time>
      </trkpt>
      <trkpt lat="39.208323" lon="-0.268559">
        <ele>0.835</ele>
        <time>2019-06-15T10:01:02Z</time>
      </trkpt>
      <trkpt lat="39.208308" lon="-0.268482">
        <ele>0.682</ele>
        <time>2019-06-15T10:01:03Z</time>
      </trkpt>
      <trkpt lat="39.208281" lon="-0.268407">
        <ele>0.481</ele>
        <time>2019-06-15T10:01:04Z</time>
      </trkpt>
      <trkpt lat="39.208262" lon="-0.268322">
        <ele>0.226</ele>
        <time>2019-06-15T10:01:05Z</time>
      </trkpt>
      <trkpt lat="39.208252" lon="-0.268243">
        <ele>0.221</ele>
        <time>2019-06-15T10:01:06Z</time>
      </trkpt>
      <trkpt lat="39.208234" lon="-0.268166">
        <ele>0.141</ele>
        <time>2019-06-15T10:01:07Z</time>
      </trkpt>
      <trkpt lat="39.208216" lon="-0.268089">
        <ele>0.105</ele>
        <time>2019-06-15T10:01:08Z</time>
      </trkpt>
      <trkpt lat="39.208193" lon="-0.268009">
        <ele>0.008</ele>
        <time>2019-06-15T10:01:09Z</time>
      </trkpt>
      <trkpt lat="39.208167" lon="-0.267928">
        <ele>0.035</ele>
        <time>2019-06-15T10:01:10Z</time>
      </trkpt>
      <trkpt lat="39.208142" lon="-0.267857">
        <ele>0.079</ele>
        <time>2019-06-15T10:01:11Z</time>
      </trkpt>
      <trkpt lat="39.208111" lon="-0.267787">
        <ele>0.058</ele>
        <time>2019-06-15T10:01:12Z</time>
      </trkpt>
      <trkpt lat="39.208079" lon="-0.267719">
        <ele>0.211</ele>
        <time>2019-06-15T10:01:13Z</time>
      </trkpt>
      <trkpt lat="39.208039" lon="-0.267653">
        <ele>0.493</ele>
        <time>2019-06-15T10:01:14Z</time>
      </trkpt>
      <trkpt lat="39.207999" lon="-0.267594">
        <ele>0.740</ele>
        <time>2019-06-15T10:01:15Z</time>
      </trkpt>
      <trkpt lat="39.207963" lon="-0.267531">
        <ele>0.929</ele>
        <time>2019-06-15T10:01:16Z</time>
      </trkpt>
      <trkpt lat="39.207924" lon="-0.267473">
        <ele>1.124</ele>
        <time>2019-06-15T10:01:17Z</time>
      </trkpt>
      <trkpt lat="39.207888" lon="-0.267417">
        <ele>1.128</ele>
        <time>2019-06-15T10:01:18Z</time>
      </trkpt>
      <trkpt lat="39.207852" lon="-0.267369">
        <ele>1.189</ele>
        <time>2019-06-15T10:01:19Z</time>
      </trkpt>
      <trkpt lat="39.207810" lon="-0.267320">
        <ele>1.117</ele>
        <time>2019-06-15T10:01:20Z</time>
      </trkpt>
      <trkpt lat="39.207770" lon="-0.267270">
        <ele>1.008</ele>
        <time>2019-06-15T10:01:21Z</time>
      </trkpt>
      <trkpt lat="39.207730" lon="-0.267209">
        <ele>1.045</ele>
        <time>2019-06-15T10:01:22Z</time>
      </trkpt>
      <trkpt lat="39.207699" lon="-0.267139">
        <ele>1.289</ele>
        <time>2019-06-15T10:01:23Z</time>
      </trkpt>
      <trkpt lat="39.207662" lon="-0.267082">
        <ele>1.348</ele>
        <time>2019-06-15T10:01:24Z</time>
      </trkpt>
      <trkpt lat="39.207618" lon="-0.267036">
        <ele>1.331</ele>
        <time>2019-06-15T10:01:25Z</time>
      </trkpt>
      <trkpt lat="39.207597" lon="-0.266959">
        <ele>1.383</ele>
        <time>2019-06-15T10:01:26Z</time>
      </trkpt>
      <trkpt lat="39.207565" lon="-0.266905">
        <ele>1.320</ele>
        <time>2019-06-15T10:01:27Z</time>
      </trkpt>
      <trkpt lat="39.207522" lon="-0.266854">
        <ele>1.469</ele>
        <time>2019-06-15T10:01:28Z</time>
      </trkpt>
      <trkpt lat="39.207473" lon="-0.266807">
        <ele>1.514</ele>
        <time>2019-06-15T10:01:29Z</time>
      </trkpt>
      <trkpt lat="39.207434" lon="-0.266761">
        <ele>1.799</ele>
        <time>2019-06-15T10:01:30Z</time>
      </trkpt>
      <trkpt lat="39.207395" lon="-0.266709">
        <ele>1.907</ele>
        <time>2019-06-15T10:01:31Z</time>
      </trkpt>
      <trkpt lat="39.207364" lon="-0.266657">
        <ele>2.027</ele>
        <time>2019-06-15T10:01:32Z</time>
      </trkpt>
      <trkpt lat="39.207325" lon="-0.266611">
        <ele>2.208</ele>
        <time>2019-06-15T10:01:33Z</time>
      </trkpt>
      <trkpt lat="39.207271" lon="-0.266569">
        <ele>2.412</ele>
        <time>2019-06-15T10:01:34Z</time>
      </trkpt>
      <trkpt lat="39.207233" lon="-0.266528">
        <ele>2.536</ele>
        <time>2019-06-15T10:01:35Z</time>
      </trkpt>
      <trkpt lat="39.207198" lon="-0.266473">
        <ele>2.645</ele>
        <time>2019-06-15T10:01:36Z</time>
      </trkpt>
      <trkpt lat="39.207165" lon="-0.266415">
        <ele>2.748</ele>
        <time>2019-06-15T10:01:37Z</time>
      </trkpt>
      <trkpt lat="39.207125" lon="-0.266363">
        <ele>2.650</ele>
        <time>2019-06-15T10:01:38Z</time>
      </trkpt>
      <trkpt lat="39.207088" lon="-0.266312">
        <ele>2.247</ele>
        <time>2019-06-15T10:01:39Z</time>
      </trkpt>
      <trkpt lat="39.207046" lon="-0.266262">
        <ele>1.966</ele>
        <time>2019-06-15T10:01:40Z</time>
      </trkpt>
      <trkpt lat="39.207010" lon="-0.266214">
        <ele>1.651</ele>
        <time>2019-06-15T10:01:41Z</time>
      </trkpt>
      <trkpt lat="39.206968" lon="-0.266163">
        <ele>1.314</ele>
        <time>2019-06-15T10:01:42Z</time>
      </trkpt>
      <trkpt lat="39.206939" lon="-0.266111">
        <ele>1.054</ele>
        <time>2019-06-15T10:01:43Z</time>
      </trkpt>
      <trkpt lat="39.206900" lon="-0.266065">
        <ele>0.709</ele>
        <time>2019-06-15T10:01:44Z</time>
      </trkpt>
      <trkpt lat="39.206863" lon="-0.266011">
        <ele>0.508</ele>
        <time>2019-06-15T10:01:45Z</time>
      </trkpt>
      <trkpt lat="39.206825" lon="-0.265962">
        <ele>0.384</ele>
        <time>2019-06-15T10:01:46Z</time>
      </trkpt>
      <trkpt lat="39.206795" lon="-0.265902">
        <ele>0.198</ele>
        <time>2019-06-15T10:01:47Z</time>
      </trkpt>
      <trkpt lat="39.206752" lon="-0.265846">
        <ele>0.087</ele>
        <time>2019-06-15T10:01:48Z</time>
      </trkpt>
      <trkpt lat="39.206715" lon="-0.265788">
        <ele>0.070</ele>
        <time>2019-06-15T10:01:49Z</time>
      </trkpt>
      <trkpt lat="39.206674" lon="-0.265737">
        <ele>0.072</ele>
        <time>2019-06-15T10:01:50Z</time>
      </trkpt>
      <trkpt lat="39.206642" lon="-0.265688">
        <ele>0.099</ele>
        <time>2019-06-15T10:01:51Z</time>
      </trkpt>
      <trkpt lat="39.206592" lon="-0.265641">
        <ele>0.248</ele>
        <time>2019-06-15T10:01:52Z</time>
      </trkpt>
      <trkpt lat="39.206557" lon="-0.265586">
        <ele>0.463</ele>
        <time>2019-06-15T10:01:53Z</time>
      </trkpt>
      <trkpt lat="39.206521" lon="-0.265543">
        <ele>0.546</ele>
        <time>2019-06-15T10:01:54Z</time>
      </trkpt>
      <trkpt lat="39.206485" lon="-0.265500">
        <ele>0.588</ele>
        <time>2019-06-15T10:01:55Z</time>
      </trkpt>
      <trkpt lat="39.206435" lon="-0.265454">
        <ele>0.516</ele>
        <time>2019-06-15T10:01:56Z</time>
      </trkpt>
      <trkpt lat="39.206389" lon="-0.265411">
        <ele>0.508</ele>
        <time>2019-06-15T10:01:57Z</time>
      </trkpt>
      <trkpt lat="39.206354" lon="-0.265361">
        <ele>0.547</ele>
        <time>2019-06-15T10:01:58Z</time>
      </trkpt>
      <trkpt lat="39.206317" lon="-0.265314">
        <ele>0.661</ele>
        <time>2019-06-15T10:01:59Z</time>
      </trkpt>
      <trkpt lat="39.206280" lon="-0.265262">
        <ele>0.820</ele>
        <time>2019-06-15T10:02:00Z</time>
      </trkpt>
      <trkpt lat="39.206242" lon="-0.265212">
        <ele>0.983</ele>
        <time>2019-06-15T10:02:01Z</time>
      </trkpt>
      <trkpt lat="39.206207" lon="-0.265160">
        <ele>1.095</ele>
        <time>2019-06-15T10:02:02Z</time>
      </trkpt>
      <trkpt lat="39.206169" lon="-0.265106">
        <ele>1.162</ele>
        <time>2019-06-15T10:02:03Z</time>
      </trkpt>
      <trkpt lat="39.206132" lon="-0.265056">
        <ele>1.151</ele>
        <time>2019-06-15T10:02:04Z</time>
      </trkpt>
      <trkpt lat="39.206095" lon="-0.265002">
        <ele>1.046</ele>
        <time>2019-06-15T10:02:05Z</time>
      </trkpt>
      <trkpt lat="39.206069" lon="-0.264945">
        <ele>0.836</ele>
        <time>2019-06-15T10:02:06Z</time>
      </trkpt>
      <trkpt lat="39.206021" lon="-0.264903">
        <ele>0.717</ele>
        <time>2019-06-15T10:02:07Z</time>
      </trkpt>
      <trkpt lat="39.205994" lon="-0.264848">
        <ele>0.518</ele>
        <time>2019-06-15T10:02:08Z</time>
      </trkpt>
      <trkpt lat="39.205960" lon="-0.264803">
        <ele>0.308</ele>
        <time>2019-06-15T10:02:09Z</time>
      </trkpt>
      <trkpt lat="39.205919" lon="-0.264758">
        <ele>0.116</ele>
        <time>2019-06-15T10:02:10Z</time>
      </trkpt>
      <trkpt lat="39.205883" lon="-0.264719">
        <ele>0.040</ele>
        <time>2019-06-15T10:02:11Z</time>
      </trkpt>
      <trkpt lat="39.205845" lon="-0.264685">
        <ele>0.089</ele>
        <time>2019-06-15T10:02:12Z</time>
      </trkpt>
      <trkpt lat="39.205809" lon="-0.264649">
        <ele>-0.132</ele>
        <time>2019-06-15T10:02:13Z</time>
      </trkpt>
      <trkpt lat="39.205772" lon="-0.264596">
        <ele>-0.244</ele>
        <time>2019-06-15T10:02:14Z</time>
      </trkpt>
      <trkpt lat="39.205726" lon="-0.264572">
        <ele>-0.461</ele>
        <time>2019-06-15T10:02:15Z</time>
      </trkpt>
      <trkpt lat="39.205682" lon="-0.264534">
        <ele>-0.530</ele>
        <time>2019-06-15T10:02:16Z</time>
      </trkpt>
      <trkpt lat="39.205636" lon="-0.264497">
        <ele>-0.755</ele>
        <time>2019-06-15T10:02:17Z</time>
      </trkpt>
      <trkpt lat="39.205546" lon="-0.264433">
        <ele>-1.058</ele>
        <time>2019-06-15T10:02:19Z</time>
      </trkpt>
      <trkpt lat="39.205501" lon="-0.264394">
        <ele>-1.052</ele>
        <time>2019-06-15T10:02:20Z</time>
      </trkpt>
      <trkpt lat="39.205457" lon="-0.264365">
        <ele>-1.117</ele>
        <time>2019-06-15T10:02:21Z</time>
      </trkpt>
      <trkpt lat="39.205408" lon="-0.264336">
        <ele>-1.108</ele>
        <time>2019-06-15T10:02:22Z</time>
      </trkpt>
      <trkpt lat="39.205364" lon="-0.264300">
        <ele>-1.298</ele>
        <time>2019-06-15T10:02:23Z</time>
      </trkpt>
      <trkpt lat="39.205307" lon="-0.264272">
        <ele>-1.352</ele>
        <time>2019-06-15T10:02:24Z</time>
      </trkpt>
      <trkpt lat="39.205263" lon="-0.264237">
        <ele>-1.251</ele>
        <time>2019-06-15T10:02:25Z</time>
      </trkpt>
      <trkpt lat="39.205219" lon="-0.264198">
        <ele>-1.154</ele>
        <time>2019-06-15T10:02:26Z</time>
      </trkpt>
      <trkpt lat="39.205174" lon="-0.264165">
        <ele>-1.076</ele>
        <time>2019-06-15T10:02:27Z</time>
      </trkpt>
      <trkpt lat="39.205127" lon="-0.264129">
        <ele>-0.913</ele>
        <time>2019-06-15T10:02:28Z</time>
      </trkpt>
      <trkpt lat="39.205083" lon="-0.264084">
        <ele>-0.992</ele>
        <time>2019-06-15T10:02:29Z</time>
      </trkpt>
      <trkpt lat="39.205041" lon="-0.264055">
        <ele>-0.937</ele>
        <time>2019-06-15T10:02:30Z</time>
      </trkpt>
      <trkpt lat="39.204959" lon="-0.263999">
        <ele>-1.056</ele>
        <time>2019-06-15T10:02:32Z</time>
      </trkpt>
      <trkpt lat="39.204916" lon="-0.263962">
        <ele>-1.059</ele>
        <time>2019-06-15T10:02:33Z</time>
      </trkpt>
      <trkpt lat="39.204871" lon="-0.263933">
        <ele>-1.014</ele>
        <time>2019-06-15T10:02:34Z</time>
      </trkpt>
      <trkpt lat="39.204828" lon="-0.263895">
        <ele>-1.008</ele>
        <time>2019-06-15T10:02:35Z</time>
      </trkpt>
      <trkpt lat="39.204785" lon="-0.263856">
        <ele>-1.038</ele>
        <time>2019-06-15T10:02:36Z</time>
      </trkpt>
      <trkpt lat="39.204741" lon="-0.263836">
        <ele>-1.092</ele>
        <time>2019-06-15T10:02:37Z</time>
      </trkpt>
      <trkpt lat="39.204703" lon="-0.263802">
        <ele>-1.091</ele>
        <time>2019-06-15T10:02:38Z</time>
      </trkpt>
      <trkpt lat="39.204665" lon="-0.263765">
        <ele>-1.014</ele>
        <time>2019-06-15T10:02:39Z</time>
      </trkpt>
      <trkpt lat="39.204623" lon="-0.263726">
        <ele>-1.046</ele>
        <time>2019-06-15T10:02:40Z</time>
      </trkpt>
      <trkpt lat="39.204578" lon="-0.263687">
        <ele>-1.073</ele>
        <time>2019-06-15T10:02:41Z</time>
      </trkpt>
      <trkpt lat="39.204532" lon="-0.263651">
        <ele>-1.052</ele>
        <time>2019-06-15T10:02:42Z</time>
      </trkpt>
      <trkpt lat="39.204488" lon="-0.263614">
        <ele>-1.037</ele>
        <time>2019-06-15T10:02:43Z</time>
      </trkpt>
      <trkpt lat="39.204449" lon="-0.263583">
        <ele>-1.049</ele>
        <time>2019-06-15T10:02:44Z</time>
      </trkpt>
      <trkpt lat="39.204377" lon="-0.263527">
        <ele>-0.802</ele>
        <time>2019-06-15T10:02:46Z</time>
      </trkpt>
      <trkpt lat="39.204296" lon="-0.263478">
        <ele>-0.522</ele>
        <time>2019-06-15T10:02:48Z</time>
      </trkpt>
      <trkpt lat="39.204252" lon="-0.263445">
        <ele>-0.308</ele>
        <time>2019-06-15T10:02:49Z</time>
      </trkpt>
      <trkpt lat="39.204206" lon="-0.263410">
        <ele>-0.127</ele>
        <time>2019-06-15T10:02:50Z</time>
      </trkpt>
      <trkpt lat="39.204161" lon="-0.263374">
        <ele>0.011</ele>
        <time>2019-06-15T10:02:51Z</time>
      </trkpt>
      <trkpt lat="39.204116" lon="-0.263337">
        <ele>0.260</ele>
        <time>2019-06-15T10:02:52Z</time>
      </trkpt>
      <trkpt lat="39.204069" lon="-0.263297">
        <ele>0.413</ele>
        <time>2019-06-15T10:02:53Z</time>
      </trkpt>
      <trkpt lat="39.204029" lon="-0.263261">
        <ele>0.555</ele>
        <time>2019-06-15T10:02:54Z</time>
      </trkpt>
      <trkpt lat="39.203989" lon="-0.263219">
        <ele>0.692</ele>
        <time>2019-06-15T10:02:55Z</time>
      </trkpt>
      <trkpt lat="39.203909" lon="-0.263180">
        <ele>0.971</ele>
        <time>2019-06-15T10:02:57Z</time>
      </trkpt>
      <trkpt lat="39.203865" lon="-0.263150">
        <ele>1.056</ele>
        <time>2019-06-15T10:02:58Z</time>
      </trkpt>
      <trkpt lat="39.203820" lon="-0.263119">
        <ele>0.996</ele>
        <time>2019-06-15T10:02:59Z</time>
      </trkpt>
      <trkpt lat="39.203773" lon="-0.263082">
        <ele>1.031</ele>
        <time>2019-06-15T10:03:00Z</time>
      </trkpt>
      <trkpt lat="39.203689" lon="-0.263035">
        <ele>1.024</ele>
        <time>2019-06-15T10:03:02Z</time>
      </trkpt>
      <trkpt lat="39.203645" lon="-0.263017">
        <ele>1.008</ele>
        <time>2019-06-15T10:03:03Z</time>
      </trkpt>
      <trkpt lat="39.203561" lon="-0.263004">
        <ele>0.972</ele>
        <time>2019-06-15T10:03:05Z</time>
      </trkpt>
      <trkpt lat="39.203515" lon="-0.262996">
        <ele>0.726</ele>
        <time>2019-06-15T10:03:06Z</time>
      </trkpt>
      <trkpt lat="39.203427" lon="-0.263002">
        <ele>0.525</ele>
        <time>2019-06-15T10:03:08Z</time>
      </trkpt>
      <trkpt lat="39.203346" lon="-0.263019">
        <ele>0.218</ele>
        <time>2019-06-15T10:03:10Z</time>
      </trkpt>
      <trkpt lat="39.203300" lon="-0.263026">
        <ele>0.270</ele>
        <time>2019-06-15T10:03:11Z</time>
      </trkpt>
      <trkpt lat="39.203215" lon="-0.263042">
        <ele>0.557</ele>
        <time>2019-06-15T10:03:13Z</time>
      </trkpt>
      <trkpt lat="39.203128" lon="-0.263068">
        <ele>0.766</ele>
        <time>2019-06-15T10:03:15Z</time>
      </trkpt>
      <trkpt lat="39.203058" lon="-0.263112">
        <ele>1.081</ele>
        <time>2019-06-15T10:03:17Z</time>
      </trkpt>
      <trkpt lat="39.203010" lon="-0.263136">
        <ele>1.077</ele>
        <time>2019-06-15T10:03:18Z</time>
      </trkpt>
      <trkpt lat="39.202926" lon="-0.263162">
        <ele>1.061</ele>
        <time>2019-06-15T10:03:20Z</time>
      </trkpt>
      <trkpt lat="39.202840" lon="-0.263186">
        <ele>1.027</ele>
        <time>2019-06-15T10:03:22Z</time>
      </trkpt>
      <trkpt lat="39.202762" lon="-0.263191">
        <ele>1.008</ele>
        <time>2019-06-15T10:03:24Z</time>
      </trkpt>
      <trkpt lat="39.202718" lon="-0.263202">
        <ele>0.950</ele>
        <time>2019-06-15T10:03:25Z</time>
      </trkpt>
      <trkpt lat="39.202635" lon="-0.263225">
        <ele>0.754</ele>
        <time>2019-06-15T10:03:27Z</time>
      </trkpt>
      <trkpt lat="39.202553" lon="-0.263250">
        <ele>0.443</ele>
        <time>2019-06-15T10:03:29Z</time>
      </trkpt>
      <trkpt lat="39.202477" lon="-0.263271">
        <ele>0.286</ele>
        <time>2019-06-15T10:03:31Z</time>
      </trkpt>
      <trkpt lat="39.202404" lon="-0.263290">
        <ele>0.258</ele>
        <time>2019-06-15T10:03:33Z</time>
      </trkpt>
      <trkpt lat="39.202328" lon="-0.263307">
        <ele>0.165</ele>
        <time>2019-06-15T10:03:35Z</time>
      </trkpt>
      <trkpt lat="39.202250" lon="-0.263324">
        <ele>0.074</ele>
        <time>2019-06-15T10:03:37Z</time>
      </trkpt>
      <trkpt lat="39.202166" lon="-0.263335">
        <ele>-0.069</ele>
        <time>2019-06-15T10:03:39Z</time>
      </trkpt>
      <trkpt lat="39.202080" lon="-0.263339">
        <ele>-0.045</ele>
        <time>2019-06-15T10:03:41Z</time>
      </trkpt>
      <trkpt lat="39.201997" lon="-0.263338">
        <ele>-0.047</ele>
        <time>2019-06-15T10:03:43Z</time>
      </trkpt>
      <trkpt lat="39.201915" lon="-0.263326">
        <ele>-0.111</ele>
        <time>2019-06-15T10:03:45Z</time>
      </trkpt>
      <trkpt lat="39.201851" lon="-0.263307">
        <ele>-0.308</ele>
        <time>2019-06-15T10:03:47Z</time>
      </trkpt>
      <trkpt lat="39.201794" lon="-0.263290">
        <ele>-0.567</ele>
        <time>2019-06-15T10:03:49Z</time>
      </trkpt>
      <trkpt lat="39.201722" lon="-0.263267">
        <ele>-0.871</ele>
        <time>2019-06-15T10:03:51Z</time>
      </trkpt>
      <trkpt lat="39.201668" lon="-0.263245">
        <ele>-1.030</ele>
        <time>2019-06-15T10:03:52Z</time>
      </trkpt>
      <trkpt lat="39.201594" lon="-0.263214">
        <ele>-0.963</ele>
        <time>2019-06-15T10:03:54Z</time>
      </trkpt>
      <trkpt lat="39.201524" lon="-0.263178">
        <ele>-0.875</ele>
        <time>2019-06-15T10:03:56Z</time>
      </trkpt>
      <trkpt lat="39.201454" lon="-0.263136">
        <ele>-0.892</ele>
        <time>2019-06-15T10:03:58Z</time>
      </trkpt>
      <trkpt lat="39.201383" lon="-0.263104">
        <ele>-0.831</ele>
        <time>2019-06-15T10:04:00Z</time>
      </trkpt>
      <trkpt lat="39.201307" lon="-0.263070">
        <ele>-0.426</ele>
        <time>2019-06-15T10:04:02Z</time>
      </trkpt>
      <trkpt lat="39.201232" lon="-0.263037">
        <ele>0.194</ele>
        <time>2019-06-15T10:04:04Z</time>
      </trkpt>
      <trkpt lat="39.201158" lon="-0.263000">
        <ele>0.557</ele>
        <time>2019-06-15T10:04:06Z</time>
      </trkpt>
      <trkpt lat="39.201085" lon="-0.262959">
        <ele>0.822</ele>
        <time>2019-06-15T10:04:08Z</time>
      </trkpt>
      <trkpt lat="39.201009" lon="-0.262918">
        <ele>1.208</ele>
        <time>2019-06-15T10:04:10Z</time>
      </trkpt>
      <trkpt lat="39.200861" lon="-0.262833">
        <ele>2.082</ele>
        <time>2019-06-15T10:04:14Z</time>
      </trkpt>
      <trkpt lat="39.200795" lon="-0.262789">
        <ele>1.956</ele>
        <time>2019-06-15T10:04:16Z</time>
      </trkpt>
      <trkpt lat="39.200737" lon="-0.262780">
        <ele>1.785</ele>
        <time>2019-06-15T10:04:18Z</time>
      </trkpt>
      <trkpt lat="39.200652" lon="-0.262727">
        <ele>1.178</ele>
        <time>2019-06-15T10:04:20Z</time>
      </trkpt>
      <trkpt lat="39.200604" lon="-0.262696">
        <ele>0.850</ele>
        <time>2019-06-15T10:04:21Z</time>
      </trkpt>
      <trkpt lat="39.200560" lon="-0.262659">
        <ele>0.617</ele>
        <time>2019-06-15T10:04:22Z</time>
      </trkpt>
      <trkpt lat="39.200518" lon="-0.262610">
        <ele>0.256</ele>
        <time>2019-06-15T10:04:23Z</time>
      </trkpt>
      <trkpt lat="39.200479" lon="-0.262555">
        <ele>-0.161</ele>
        <time>2019-06-15T10:04:24Z</time>
      </trkpt>
      <trkpt lat="39.200442" lon="-0.262504">
        <ele>-0.432</ele>
        <time>2019-06-15T10:04:25Z</time>
      </trkpt>
      <trkpt lat="39.200402" lon="-0.262403">
        <ele>-0.592</ele>
        <time>2019-06-15T10:04:26Z</time>
      </trkpt>
      <trkpt lat="39.200365" lon="-0.262359">
        <ele>-0.511</ele>
        <time>2019-06-15T10:04:27Z</time>
      </trkpt>
      <trkpt lat="39.200327" lon="-0.262326">
        <ele>-0.408</ele>
        <time>2019-06-15T10:04:28Z</time>
      </trkpt>
      <trkpt lat="39.200243" lon="-0.262289">
        <ele>-0.226</ele>
        <time>2019-06-15T10:04:30Z</time>
      </trkpt>
      <trkpt lat="39.200165" lon="-0.262277">
        <ele>-0.230</ele>
        <time>2019-06-15T10:04:32Z</time>
      </trkpt>
      <trkpt lat="39.200122" lon="-0.262257">
        <ele>-0.119</ele>
        <time>2019-06-15T10:04:33Z</time>
      </trkpt>
      <trkpt lat="39.200074" lon="-0.262249">
        <ele>-0.192</ele>
        <time>2019-06-15T10:04:34Z</time>
      </trkpt>
      <trkpt lat="39.200029" lon="-0.262240">
        <ele>-0.124</ele>
        <time>2019-06-15T10:04:35Z</time>
      </trkpt>
      <trkpt lat="39.199941" lon="-0.262232">
        <ele>-0.211</ele>
        <time>2019-06-15T10:04:37Z</time>
      </trkpt>
      <trkpt lat="39.199896" lon="-0.262231">
        <ele>-0.470</ele>
        <time>2019-06-15T10:04:38Z</time>
      </trkpt>
      <trkpt lat="39.199844" lon="-0.262226">
        <ele>-0.695</ele>
        <time>2019-06-15T10:04:39Z</time>
      </trkpt>
      <trkpt lat="39.199763" lon="-0.262224">
        <ele>-0.968</ele>
        <time>2019-06-15T10:04:41Z</time>
      </trkpt>
      <trkpt lat="39.199684" lon="-0.262250">
        <ele>-1.042</ele>
        <time>2019-06-15T10:04:43Z</time>
      </trkpt>
      <trkpt lat="39.199596" lon="-0.262269">
        <ele>-1.026</ele>
        <time>2019-06-15T10:04:45Z</time>
      </trkpt>
      <trkpt lat="39.199505" lon="-0.262297">
        <ele>-1.008</ele>
        <time>2019-06-15T10:04:47Z</time>
      </trkpt>
      <trkpt lat="39.199425" lon="-0.262331">
        <ele>-1.049</ele>
        <time>2019-06-15T10:04:49Z</time>
      </trkpt>
      <trkpt lat="39.199379" lon="-0.262341">
        <ele>-0.963</ele>
        <time>2019-06-15T10:04:50Z</time>
      </trkpt>
      <trkpt lat="39.199297" lon="-0.262365">
        <ele>-0.792</ele>
        <time>2019-06-15T10:04:52Z</time>
      </trkpt>
      <trkpt lat="39.199252" lon="-0.262376">
        <ele>-0.685</ele>
        <time>2019-06-15T10:04:53Z</time>
      </trkpt>
      <trkpt lat="39.199170" lon="-0.262409">
        <ele>-0.397</ele>
        <time>2019-06-15T10:04:55Z</time>
      </trkpt>
      <trkpt lat="39.199123" lon="-0.262425">
        <ele>0.114</ele>
        <time>2019-06-15T10:04:56Z</time>
      </trkpt>
      <trkpt lat="39.199078" lon="-0.262442">
        <ele>0.593</ele>
        <time>2019-06-15T10:04:57Z</time>
      </trkpt>
      <trkpt lat="39.199033" lon="-0.262453">
        <ele>0.978</ele>
        <time>2019-06-15T10:04:58Z</time>
      </trkpt>
      <trkpt lat="39.198947" lon="-0.262469">
        <ele>1.655</ele>
        <time>2019-06-15T10:05:00Z</time>
      </trkpt>
      <trkpt lat="39.198870" lon="-0.262495">
        <ele>2.007</ele>
        <time>2019-06-15T10:05:02Z</time>
      </trkpt>
      <trkpt lat="39.198786" lon="-0.262523">
        <ele>2.017</ele>
        <time>2019-06-15T10:05:04Z</time>
      </trkpt>
      <trkpt lat="39.198741" lon="-0.262531">
        <ele>2.008</ele>
        <time>2019-06-15T10:05:05Z</time>
      </trkpt>
      <trkpt lat="39.198696" lon="-0.262546">
        <ele>2.048</ele>
        <time>2019-06-15T10:05:06Z</time>
      </trkpt>
      <trkpt lat="39.198614" lon="-0.262554">
        <ele>2.042</ele>
        <time>2019-06-15T10:05:08Z</time>
      </trkpt>
      <trkpt lat="39.198521" lon="-0.262572">
        <ele>1.741</ele>
        <time>2019-06-15T10:05:10Z</time>
      </trkpt>
      <trkpt lat="39.198446" lon="-0.262608">
        <ele>1.414</ele>
        <time>2019-06-15T10:05:12Z</time>
      </trkpt>
      <trkpt lat="39.198376" lon="-0.262648">
        <ele>1.216</ele>
        <time>2019-06-15T10:05:14Z</time>
      </trkpt>
      <trkpt lat="39.198293" lon="-0.262691">
        <ele>1.013</ele>
        <time>2019-06-15T10:05:16Z</time>
      </trkpt>
      <trkpt lat="39.198245" lon="-0.262713">
        <ele>1.012</ele>
        <time>2019-06-15T10:05:17Z</time>
      </trkpt>
      <trkpt lat="39.198173" lon="-0.262744">
        <ele>1.027</ele>
        <time>2019-06-15T10:05:19Z</time>
      </trkpt>
      <trkpt lat="39.198099" lon="-0.262776">
        <ele>1.092</ele>
        <time>2019-06-15T10:05:21Z</time>
      </trkpt>
      <trkpt lat="39.197943" lon="-0.262827">
        <ele>1.373</ele>
        <time>2019-06-15T10:05:25Z</time>
      </trkpt>
      <trkpt lat="39.197943" lon="-0.262827">
        <ele>1.320</ele>
        <time>2019-06-15T10:05:25Z</time>
      </trkpt>
      <trkpt lat="39.197943" lon="-0.262827">
        <ele>1.308</ele>
        <time>2019-06-15T10:05:25Z</time>
      </trkpt>
      <trkpt lat="39.197943" lon="-0.262827">
        <ele>1.392</ele>
        <time>2019-06-15T10:05:25Z</time>
      </trkpt>
      <trkpt lat="39.197865" lon="-0.262846">
        <ele>1.526</ele>
        <time>2019-06-15T10:05:27Z</time>
      </trkpt>
      <trkpt lat="39.197782" lon="-0.262872">
        <ele>1.715</ele>
        <time>2019-06-15T10:05:29Z</time>
      </trkpt>
      <trkpt lat="39.197708" lon="-0.262902">
        <ele>1.828</ele>
        <time>2019-06-15T10:05:31Z</time>
      </trkpt>
      <trkpt lat="39.197624" lon="-0.262931">
        <ele>2.040</ele>
        <time>2019-06-15T10:05:33Z</time>
      </trkpt>
      <trkpt lat="39.197537" lon="-0.262954">
        <ele>2.247</ele>
        <time>2019-06-15T10:05:35Z</time>
      </trkpt>
      <trkpt lat="39.197453" lon="-0.262970">
        <ele>2.146</ele>
        <time>2019-06-15T10:05:37Z</time>
      </trkpt>
      <trkpt lat="39.197370" lon="-0.262977">
        <ele>1.881</ele>
        <time>2019-06-15T10:05:39Z</time>
      </trkpt>
      <trkpt lat="39.197286" lon="-0.262970">
        <ele>1.597</ele>
        <time>2019-06-15T10:05:41Z</time>
      </trkpt>
      <trkpt lat="39.197201" lon="-0.262962">
        <ele>1.323</ele>
        <time>2019-06-15T10:05:43Z</time>
      </trkpt>
      <trkpt lat="39.197115" lon="-0.262949">
        <ele>1.025</ele>
        <time>2019-06-15T10:05:45Z</time>
      </trkpt>
      <trkpt lat="39.197033" lon="-0.262944">
        <ele>0.708</ele>
        <time>2019-06-15T10:05:47Z</time>
      </trkpt>
      <trkpt lat="39.196952" lon="-0.262939">
        <ele>0.462</ele>
        <time>2019-06-15T10:05:49Z</time>
      </trkpt>
      <trkpt lat="39.196871" lon="-0.262934">
        <ele>0.566</ele>
        <time>2019-06-15T10:05:51Z</time>
      </trkpt>
      <trkpt lat="39.196791" lon="-0.262936">
        <ele>0.525</ele>
        <time>2019-06-15T10:05:53Z</time>
      </trkpt>
      <trkpt lat="39.196708" lon="-0.262932">
        <ele>0.528</ele>
        <time>2019-06-15T10:05:55Z</time>
      </trkpt>
      <trkpt lat="39.196622" lon="-0.262925">
        <ele>0.420</ele>
        <time>2019-06-15T10:05:57Z</time>
      </trkpt>
      <trkpt lat="39.196531" lon="-0.262925">
        <ele>0.387</ele>
        <time>2019-06-15T10:05:59Z</time>
      </trkpt>
      <trkpt lat="39.196484" lon="-0.262929">
        <ele>0.226</ele>
        <time>2019-06-15T10:06:00Z</time>
      </trkpt>
      <trkpt lat="39.196435" lon="-0.262939">
        <ele>0.191</ele>
        <time>2019-06-15T10:06:01Z</time>
      </trkpt>
      <trkpt lat="39.196348" lon="-0.262954">
        <ele>0.177</ele>
        <time>2019-06-15T10:06:03Z</time>
      </trkpt>
      <trkpt lat="39.196303" lon="-0.262950">
        <ele>0.161</ele>
        <time>2019-06-15T10:06:04Z</time>
      </trkpt>
      <trkpt lat="39.196221" lon="-0.262949">
        <ele>0.227</ele>
        <time>2019-06-15T10:06:06Z</time>
      </trkpt>
      <trkpt lat="39.196140" lon="-0.262953">
        <ele>0.308</ele>
        <time>2019-06-15T10:06:08Z</time>
      </trkpt>
      <trkpt lat="39.196056" lon="-0.262969">
        <ele>0.460</ele>
        <time>2019-06-15T10:06:10Z</time>
      </trkpt>
      <trkpt lat="39.195971" lon="-0.262977">
        <ele>0.694</ele>
        <time>2019-06-15T10:06:12Z</time>
      </trkpt>
      <trkpt lat="39.195923" lon="-0.262989">
        <ele>0.823</ele>
        <time>2019-06-15T10:06:13Z</time>
      </trkpt>
      <trkpt lat="39.195870" lon="-0.262995">
        <ele>0.966</ele>
        <time>2019-06-15T10:06:14Z</time>
      </trkpt>
      <trkpt lat="39.195824" lon="-0.263012">
        <ele>1.058</ele>
        <time>2019-06-15T10:06:15Z</time>
      </trkpt>
      <trkpt lat="39.195778" lon="-0.263021">
        <ele>1.255</ele>
        <time>2019-06-15T10:06:16Z</time>
      </trkpt>
      <trkpt lat="39.195680" lon="-0.263022">
        <ele>1.634</ele>
        <time>2019-06-15T10:06:18Z</time>
      </trkpt>
      <trkpt lat="39.195629" lon="-0.263012">
        <ele>1.759</ele>
        <time>2019-06-15T10:06:19Z</time>
      </trkpt>
      <trkpt lat="39.195536" lon="-0.262994">
        <ele>2.079</ele>
        <time>2019-06-15T10:06:21Z</time>
      </trkpt>
      <trkpt lat="39.195488" lon="-0.262990">
        <ele>2.005</ele>
        <time>2019-06-15T10:06:22Z</time>
      </trkpt>
      <trkpt lat="39.195438" lon="-0.262981">
        <ele>2.025</ele>
        <time>2019-06-15T10:06:23Z</time>
      </trkpt>
      <trkpt lat="39.195387" lon="-0.262973">
        <ele>2.008</ele>
        <time>2019-06-15T10:06:24Z</time>
      </trkpt>
      <trkpt lat="39.195336" lon="-0.262955">
        <ele>2.010</ele>
        <time>2019-06-15T10:06:25Z</time>
      </trkpt>
      <trkpt lat="39.195273" lon="-0.262956">
        <ele>2.014</ele>
        <time>2019-06-15T10:06:26Z</time>
      </trkpt>
      <trkpt lat="39.195214" lon="-0.262941">
        <ele>2.023</ele>
        <time>2019-06-15T10:06:27Z</time>
      </trkpt>
      <trkpt lat="39.195164" lon="-0.262946">
        <ele>2.066</ele>
        <time>2019-06-15T10:06:28Z</time>
      </trkpt>
      <trkpt lat="39.195076" lon="-0.262909">
        <ele>2.048</ele>
        <time>2019-06-15T10:06:30Z</time>
      </trkpt>
      <trkpt lat="39.195010" lon="-0.262884">
        <ele>2.095</ele>
        <time>2019-06-15T10:06:31Z</time>
      </trkpt>
      <trkpt lat="39.194933" lon="-0.262859">
        <ele>2.054</ele>
        <time>2019-06-15T10:06:33Z</time>
      </trkpt>
      <trkpt lat="39.194843" lon="-0.262847">
        <ele>2.049</ele>
        <time>2019-06-15T10:06:35Z</time>
      </trkpt>
      <trkpt lat="39.194760" lon="-0.262833">
        <ele>2.053</ele>
        <time>2019-06-15T10:06:37Z</time>
      </trkpt>
      <trkpt lat="39.194710" lon="-0.262825">
        <ele>2.004</ele>
        <time>2019-06-15T10:06:38Z</time>
      </trkpt>
      <trkpt lat="39.194662" lon="-0.262828">
        <ele>2.014</ele>
        <time>2019-06-15T10:06:39Z</time>
      </trkpt>
      <trkpt lat="39.194571" lon="-0.262814">
        <ele>2.008</ele>
        <time>2019-06-15T10:06:41Z</time>
      </trkpt>
      <trkpt lat="39.194515" lon="-0.262794">
        <ele>2.018</ele>
        <time>2019-06-15T10:06:42Z</time>
      </trkpt>
      <trkpt lat="39.194462" lon="-0.262773">
        <ele>2.012</ele>
        <time>2019-06-15T10:06:43Z</time>
      </trkpt>
      <trkpt lat="39.194408" lon="-0.262764">
        <ele>2.021</ele>
        <time>2019-06-15T10:06:44Z</time>
      </trkpt>
      <trkpt lat="39.194358" lon="-0.262755">
        <ele>1.914</ele>
        <time>2019-06-15T10:06:45Z</time>
      </trkpt>
      <trkpt lat="39.194311" lon="-0.262738">
        <ele>1.936</ele>
        <time>2019-06-15T10:06:46Z</time>
      </trkpt>
      <trkpt lat="39.194256" lon="-0.262723">
        <ele>1.923</ele>
        <time>2019-06-15T10:06:47Z</time>
      </trkpt>
      <trkpt lat="39.194206" lon="-0.262708">
        <ele>2.092</ele>
        <time>2019-06-15T10:06:48Z</time>
      </trkpt>
      <trkpt lat="39.194151" lon="-0.262695">
        <ele>2.087</ele>
        <time>2019-06-15T10:06:49Z</time>
      </trkpt>
      <trkpt lat="39.194103" lon="-0.262679">
        <ele>2.036</ele>
        <time>2019-06-15T10:06:50Z</time>
      </trkpt>
      <trkpt lat="39.194046" lon="-0.262679">
        <ele>2.017</ele>
        <time>2019-06-15T10:06:51Z</time>
      </trkpt>
      <trkpt lat="39.193998" lon="-0.262664">
        <ele>2.018</ele>
        <time>2019-06-15T10:06:52Z</time>
      </trkpt>
      <trkpt lat="39.193950" lon="-0.262665">
        <ele>2.008</ele>
        <time>2019-06-15T10:06:53Z</time>
      </trkpt>
      <trkpt lat="39.193898" lon="-0.262655">
        <ele>2.036</ele>
        <time>2019-06-15T10:06:54Z</time>
      </trkpt>
      <trkpt lat="39.193842" lon="-0.262629">
        <ele>1.960</ele>
        <time>2019-06-15T10:06:55Z</time>
      </trkpt>
      <trkpt lat="39.193744" lon="-0.262617">
        <ele>1.739</ele>
        <time>2019-06-15T10:06:57Z</time>
      </trkpt>
      <trkpt lat="39.193692" lon="-0.262608">
        <ele>1.612</ele>
        <time>2019-06-15T10:06:58Z</time>
      </trkpt>
      <trkpt lat="39.193645" lon="-0.262595">
        <ele>1.434</ele>
        <time>2019-06-15T10:06:59Z</time>
      </trkpt>
      <trkpt lat="39.193593" lon="-0.262582">
        <ele>1.341</ele>
        <time>2019-06-15T10:07:00Z</time>
      </trkpt>
      <trkpt lat="39.193545" lon="-0.262573">
        <ele>1.460</ele>
        <time>2019-06-15T10:07:01Z</time>
      </trkpt>
      <trkpt lat="39.193500" lon="-0.262563">
        <ele>1.515</ele>
        <time>2019-06-15T10:07:02Z</time>
      </trkpt>
      <trkpt lat="39.193408" lon="-0.262544">
        <ele>1.852</ele>
        <time>2019-06-15T10:07:04Z</time>
      </trkpt>
      <trkpt lat="39.193360" lon="-0.262535">
        <ele>1.953</ele>
        <time>2019-06-15T10:07:05Z</time>
      </trkpt>
      <trkpt lat="39.193313" lon="-0.262522">
        <ele>1.908</ele>
        <time>2019-06-15T10:07:06Z</time>
      </trkpt>
      <trkpt lat="39.193264" lon="-0.262509">
        <ele>1.508</ele>
        <time>2019-06-15T10:07:07Z</time>
      </trkpt>
      <trkpt lat="39.193213" lon="-0.262496">
        <ele>1.118</ele>
        <time>2019-06-15T10:07:08Z</time>
      </trkpt>
      <trkpt lat="39.193163" lon="-0.262487">
        <ele>0.812</ele>
        <time>2019-06-15T10:07:09Z</time>
      </trkpt>
      <trkpt lat="39.193117" lon="-0.262470">
        <ele>0.491</ele>
        <time>2019-06-15T10:07:10Z</time>
      </trkpt>
      <trkpt lat="39.193071" lon="-0.262463">
        <ele>0.114</ele>
        <time>2019-06-15T10:07:11Z</time>
      </trkpt>
      <trkpt lat="39.193022" lon="-0.262458">
        <ele>-0.196</ele>
        <time>2019-06-15T10:07:12Z</time>
      </trkpt>
      <trkpt lat="39.192975" lon="-0.262447">
        <ele>-0.353</ele>
        <time>2019-06-15T10:07:13Z</time>
      </trkpt>
      <trkpt lat="39.192923" lon="-0.262438">
        <ele>-0.672</ele>
        <time>2019-06-15T10:07:14Z</time>
      </trkpt>
      <trkpt lat="39.192872" lon="-0.262440">
        <ele>-0.847</ele>
        <time>2019-06-15T10:07:15Z</time>
      </trkpt>
      <trkpt lat="39.192782" lon="-0.262433">
        <ele>-1.226</ele>
        <time>2019-06-15T10:07:17Z</time>
      </trkpt>
      <trkpt lat="39.192701" lon="-0.262422">
        <ele>-1.247</ele>
        <time>2019-06-15T10:07:19Z</time>
      </trkpt>
      <trkpt lat="39.192615" lon="-0.262414">
        <ele>-1.111</ele>
        <time>2019-06-15T10:07:21Z</time>
      </trkpt>
      <trkpt lat="39.192565" lon="-0.262410">
        <ele>-1.108</ele>
        <time>2019-06-15T10:07:22Z</time>
      </trkpt>
      <trkpt lat="39.192515" lon="-0.262403">
        <ele>-1.065</ele>
        <time>2019-06-15T10:07:23Z</time>
      </trkpt>
      <trkpt lat="39.192464" lon="-0.262389">
        <ele>-0.899</ele>
        <time>2019-06-15T10:07:24Z</time>
      </trkpt>
      <trkpt lat="39.192413" lon="-0.262385">
        <ele>-0.548</ele>
        <time>2019-06-15T10:07:25Z</time>
      </trkpt>
      <trkpt lat="39.192368" lon="-0.262378">
        <ele>-0.341</ele>
        <time>2019-06-15T10:07:26Z</time>
      </trkpt>
      <trkpt lat="39.192321" lon="-0.262377">
        <ele>0.093</ele>
        <time>2019-06-15T10:07:27Z</time>
      </trkpt>
      <trkpt lat="39.192271" lon="-0.262365">
        <ele>0.210</ele>
        <time>2019-06-15T10:07:28Z</time>
      </trkpt>
      <trkpt lat="39.192225" lon="-0.262362">
        <ele>0.529</ele>
        <time>2019-06-15T10:07:29Z</time>
      </trkpt>
      <trkpt lat="39.192174" lon="-0.262362">
        <ele>0.714</ele>
        <time>2019-06-15T10:07:30Z</time>
      </trkpt>
      <trkpt lat="39.192080" lon="-0.262366">
        <ele>1.033</ele>
        <time>2019-06-15T10:07:32Z</time>
      </trkpt>
      <trkpt lat="39.191983" lon="-0.262368">
        <ele>1.423</ele>
        <time>2019-06-15T10:07:34Z</time>
      </trkpt>
      <trkpt lat="39.191937" lon="-0.262363">
        <ele>1.515</ele>
        <time>2019-06-15T10:07:35Z</time>
      </trkpt>
      <trkpt lat="39.191888" lon="-0.262358">
        <ele>1.508</ele>
        <time>2019-06-15T10:07:36Z</time>
      </trkpt>
      <trkpt lat="39.191803" lon="-0.262363">
        <ele>1.566</ele>
        <time>2019-06-15T10:07:38Z</time>
      </trkpt>
      <trkpt lat="39.191725" lon="-0.262365">
        <ele>1.580</ele>
        <time>2019-06-15T10:07:40Z</time>
      </trkpt>
      <trkpt lat="39.191633" lon="-0.262374">
        <ele>1.419</ele>
        <time>2019-06-15T10:07:42Z</time>
      </trkpt>
      <trkpt lat="39.191553" lon="-0.262360">
        <ele>1.182</ele>
        <time>2019-06-15T10:07:44Z</time>
      </trkpt>
      <trkpt lat="39.191508" lon="-0.262358">
        <ele>0.984</ele>
        <time>2019-06-15T10:07:45Z</time>
      </trkpt>
      <trkpt lat="39.191463" lon="-0.262358">
        <ele>0.871</ele>
        <time>2019-06-15T10:07:46Z</time>
      </trkpt>
      <trkpt lat="39.191380" lon="-0.262356">
        <ele>0.570</ele>
        <time>2019-06-15T10:07:48Z</time>
      </trkpt>
      <trkpt lat="39.191297" lon="-0.262363">
        <ele>0.265</ele>
        <time>2019-06-15T10:07:50Z</time>
      </trkpt>
      <trkpt lat="39.191213" lon="-0.262358">
        <ele>-0.162</ele>
        <time>2019-06-15T10:07:52Z</time>
      </trkpt>
      <trkpt lat="39.191167" lon="-0.262352">
        <ele>-0.383</ele>
        <time>2019-06-15T10:07:53Z</time>
      </trkpt>
      <trkpt lat="39.191085" lon="-0.262355">
        <ele>-0.511</ele>
        <time>2019-06-15T10:07:55Z</time>
      </trkpt>
      <trkpt lat="39.191002" lon="-0.262357">
        <ele>-0.308</ele>
        <time>2019-06-15T10:07:57Z</time>
      </trkpt>
      <trkpt lat="39.190922" lon="-0.262352">
        <ele>-0.249</ele>
        <time>2019-06-15T10:07:59Z</time>
      </trkpt>
      <trkpt lat="39.190871" lon="-0.262358">
        <ele>-0.163</ele>
        <time>2019-06-15T10:08:00Z</time>
      </trkpt>
      <trkpt lat="39.190785" lon="-0.262358">
        <ele>0.372</ele>
        <time>2019-06-15T10:08:02Z</time>
      </trkpt>
      <trkpt lat="39.190702" lon="-0.262361">
        <ele>0.725</ele>
        <time>2019-06-15T10:08:04Z</time>
      </trkpt>
      <trkpt lat="39.190621" lon="-0.262358">
        <ele>1.157</ele>
        <time>2019-06-15T10:08:06Z</time>
      </trkpt>
      <trkpt lat="39.190539" lon="-0.262358">
        <ele>1.694</ele>
        <time>2019-06-15T10:08:08Z</time>
      </trkpt>
      <trkpt lat="39.190453" lon="-0.262360">
        <ele>2.183</ele>
        <time>2019-06-15T10:08:10Z</time>
      </trkpt>
      <trkpt lat="39.190368" lon="-0.262364">
        <ele>2.568</ele>
        <time>2019-06-15T10:08:12Z</time>
      </trkpt>
      <trkpt lat="39.190283" lon="-0.262371">
        <ele>3.043</ele>
        <time>2019-06-15T10:08:14Z</time>
      </trkpt>
      <trkpt lat="39.190202" lon="-0.262381">
        <ele>2.964</ele>
        <time>2019-06-15T10:08:16Z</time>
      </trkpt>
      <trkpt lat="39.190123" lon="-0.262388">
        <ele>2.810</ele>
        <time>2019-06-15T10:08:18Z</time>
      </trkpt>
      <trkpt lat="39.190041" lon="-0.262397">
        <ele>2.708</ele>
        <time>2019-06-15T10:08:20Z</time>
      </trkpt>
      <trkpt lat="39.189954" lon="-0.262406">
        <ele>2.487</ele>
        <time>2019-06-15T10:08:22Z</time>
      </trkpt>
      <trkpt lat="39.189908" lon="-0.262413">
        <ele>2.161</ele>
        <time>2019-06-15T10:08:23Z</time>
      </trkpt>
      <trkpt lat="39.189859" lon="-0.262428">
        <ele>1.940</ele>
        <time>2019-06-15T10:08:24Z</time>
      </trkpt>
      <trkpt lat="39.189773" lon="-0.262430">
        <ele>1.333</ele>
        <time>2019-06-15T10:08:26Z</time>
      </trkpt>
      <trkpt lat="39.189724" lon="-0.262428">
        <ele>1.095</ele>
        <time>2019-06-15T10:08:27Z</time>
      </trkpt>
      <trkpt lat="39.189673" lon="-0.262437">
        <ele>0.872</ele>
        <time>2019-06-15T10:08:28Z</time>
      </trkpt>
      <trkpt lat="39.189626" lon="-0.262446">
        <ele>0.781</ele>
        <time>2019-06-15T10:08:29Z</time>
      </trkpt>
      <trkpt lat="39.189577" lon="-0.262460">
        <ele>0.556</ele>
        <time>2019-06-15T10:08:30Z</time>
      </trkpt>
      <trkpt lat="39.189526" lon="-0.262465">
        <ele>0.352</ele>
        <time>2019-06-15T10:08:31Z</time>
      </trkpt>
      <trkpt lat="39.189471" lon="-0.262470">
        <ele>0.153</ele>
        <time>2019-06-15T10:08:32Z</time>
      </trkpt>
      <trkpt lat="39.189420" lon="-0.262481">
        <ele>-0.108</ele>
        <time>2019-06-15T10:08:33Z</time>
      </trkpt>
      <trkpt lat="39.189373" lon="-0.262486">
        <ele>-0.208</ele>
        <time>2019-06-15T10:08:34Z</time>
      </trkpt>
      <trkpt lat="39.189327" lon="-0.262485">
        <ele>-0.498</ele>
        <time>2019-06-15T10:08:35Z</time>
      </trkpt>
      <trkpt lat="39.189243" lon="-0.262496">
        <ele>-0.782</ele>
        <time>2019-06-15T10:08:37Z</time>
      </trkpt>
      <trkpt lat="39.189192" lon="-0.262495">
        <ele>-0.991</ele>
        <time>2019-06-15T10:08:38Z</time>
      </trkpt>
      <trkpt lat="39.189097" lon="-0.262505">
        <ele>-0.724</ele>
        <time>2019-06-15T10:08:40Z</time>
      </trkpt>
      <trkpt lat="39.189053" lon="-0.262520">
        <ele>-0.586</ele>
        <time>2019-06-15T10:08:41Z</time>
      </trkpt>
      <trkpt lat="39.189000" lon="-0.262525">
        <ele>-0.473</ele>
        <time>2019-06-15T10:08:42Z</time>
      </trkpt>
      <trkpt lat="39.188952" lon="-0.262539">
        <ele>-0.212</ele>
        <time>2019-06-15T10:08:43Z</time>
      </trkpt>
      <trkpt lat="39.188901" lon="-0.262547">
        <ele>-0.087</ele>
        <time>2019-06-15T10:08:44Z</time>
      </trkpt>
      <trkpt lat="39.188808" lon="-0.262548">
        <ele>0.214</ele>
        <time>2019-06-15T10:08:46Z</time>
      </trkpt>
      <trkpt lat="39.188756" lon="-0.262552">
        <ele>0.454</ele>
        <time>2019-06-15T10:08:47Z</time>
      </trkpt>
      <trkpt lat="39.188704" lon="-0.262554">
        <ele>0.509</ele>
        <time>2019-06-15T10:08:48Z</time>
      </trkpt>
      <trkpt lat="39.188649" lon="-0.262567">
        <ele>0.708</ele>
        <time>2019-06-15T10:08:49Z</time>
      </trkpt>
      <trkpt lat="39.188601" lon="-0.262578">
        <ele>0.774</ele>
        <time>2019-06-15T10:08:50Z</time>
      </trkpt>
      <trkpt lat="39.188556" lon="-0.262588">
        <ele>0.788</ele>
        <time>2019-06-15T10:08:51Z</time>
      </trkpt>
      <trkpt lat="39.188505" lon="-0.262590">
        <ele>0.867</ele>
        <time>2019-06-15T10:08:52Z</time>
      </trkpt>
      <trkpt lat="39.188445" lon="-0.262603">
        <ele>0.950</ele>
        <time>2019-06-15T10:08:53Z</time>
      </trkpt>
      <trkpt lat="39.188356" lon="-0.262611">
        <ele>1.042</ele>
        <time>2019-06-15T10:08:55Z</time>
      </trkpt>
      <trkpt lat="39.188305" lon="-0.262606">
        <ele>1.139</ele>
        <time>2019-06-15T10:08:56Z</time>
      </trkpt>
      <trkpt lat="39.188218" lon="-0.262615">
        <ele>1.298</ele>
        <time>2019-06-15T10:08:58Z</time>
      </trkpt>
      <trkpt lat="39.188166" lon="-0.262609">
        <ele>1.483</ele>
        <time>2019-06-15T10:08:59Z</time>
      </trkpt>
      <trkpt lat="39.188123" lon="-0.262589">
        <ele>1.568</ele>
        <time>2019-06-15T10:09:00Z</time>
      </trkpt>
      <trkpt lat="39.188076" lon="-0.262573">
        <ele>1.742</ele>
        <time>2019-06-15T10:09:01Z</time>
      </trkpt>
      <trkpt lat="39.188028" lon="-0.262553">
        <ele>1.926</ele>
        <time>2019-06-15T10:09:02Z</time>
      </trkpt>
      <trkpt lat="39.187979" lon="-0.262534">
        <ele>2.208</ele>
        <time>2019-06-15T10:09:03Z</time>
      </trkpt>
      <trkpt lat="39.187931" lon="-0.262520">
        <ele>2.489</ele>
        <time>2019-06-15T10:09:04Z</time>
      </trkpt>
      <trkpt lat="39.187884" lon="-0.262507">
        <ele>2.643</ele>
        <time>2019-06-15T10:09:05Z</time>
      </trkpt>
      <trkpt lat="39.187795" lon="-0.262477">
        <ele>3.092</ele>
        <time>2019-06-15T10:09:07Z</time>
      </trkpt>
      <trkpt lat="39.187747" lon="-0.262465">
        <ele>3.375</ele>
        <time>2019-06-15T10:09:08Z</time>
      </trkpt>
      <trkpt lat="39.187700" lon="-0.262446">
        <ele>3.737</ele>
        <time>2019-06-15T10:09:09Z</time>
      </trkpt>
      <trkpt lat="39.187650" lon="-0.262429">
        <ele>4.114</ele>
        <time>2019-06-15T10:09:10Z</time>
      </trkpt>
      <trkpt lat="39.187565" lon="-0.262414">
        <ele>4.663</ele>
        <time>2019-06-15T10:09:12Z</time>
      </trkpt>
      <trkpt lat="39.187512" lon="-0.262399">
        <ele>4.958</ele>
        <time>2019-06-15T10:09:13Z</time>
      </trkpt>
      <trkpt lat="39.187434" lon="-0.262385">
        <ele>4.949</ele>
        <time>2019-06-15T10:09:15Z</time>
      </trkpt>
      <trkpt lat="39.187381" lon="-0.262372">
        <ele>4.802</ele>
        <time>2019-06-15T10:09:16Z</time>
      </trkpt>
      <trkpt lat="39.187332" lon="-0.262369">
        <ele>4.722</ele>
        <time>2019-06-15T10:09:17Z</time>
      </trkpt>
      <trkpt lat="39.187287" lon="-0.262371">
        <ele>4.608</ele>
        <time>2019-06-15T10:09:18Z</time>
      </trkpt>
      <trkpt lat="39.187196" lon="-0.262354">
        <ele>4.347</ele>
        <time>2019-06-15T10:09:20Z</time>
      </trkpt>
      <trkpt lat="39.187148" lon="-0.262340">
        <ele>4.081</ele>
        <time>2019-06-15T10:09:21Z</time>
      </trkpt>
      <trkpt lat="39.187064" lon="-0.262323">
        <ele>3.650</ele>
        <time>2019-06-15T10:09:23Z</time>
      </trkpt>
      <trkpt lat="39.187010" lon="-0.262318">
        <ele>3.313</ele>
        <time>2019-06-15T10:09:24Z</time>
      </trkpt>
      <trkpt lat="39.186958" lon="-0.262296">
        <ele>3.175</ele>
        <time>2019-06-15T10:09:25Z</time>
      </trkpt>
      <trkpt lat="39.186909" lon="-0.262269">
        <ele>3.112</ele>
        <time>2019-06-15T10:09:26Z</time>
      </trkpt>
      <trkpt lat="39.186865" lon="-0.262242">
        <ele>3.361</ele>
        <time>2019-06-15T10:09:27Z</time>
      </trkpt>
      <trkpt lat="39.186781" lon="-0.262173">
        <ele>3.626</ele>
        <time>2019-06-15T10:09:29Z</time>
      </trkpt>
      <trkpt lat="39.186734" lon="-0.262137">
        <ele>3.833</ele>
        <time>2019-06-15T10:09:30Z</time>
      </trkpt>
      <trkpt lat="39.186694" lon="-0.262097">
        <ele>3.923</ele>
        <time>2019-06-15T10:09:31Z</time>
      </trkpt>
      <trkpt lat="39.186652" lon="-0.262061">
        <ele>4.015</ele>
        <time>2019-06-15T10:09:32Z</time>
      </trkpt>
      <trkpt lat="39.186609" lon="-0.262026">
        <ele>4.108</ele>
        <time>2019-06-15T10:09:33Z</time>
      </trkpt>
      <trkpt lat="39.186547" lon="-0.261997">
        <ele>4.326</ele>
        <time>2019-06-15T10:09:34Z</time>
      </trkpt>
      <trkpt lat="39.186500" lon="-0.261958">
        <ele>4.640</ele>
        <time>2019-06-15T10:09:35Z</time>
      </trkpt>
      <trkpt lat="39.186448" lon="-0.261937">
        <ele>4.829</ele>
        <time>2019-06-15T10:09:36Z</time>
      </trkpt>
      <trkpt lat="39.186398" lon="-0.261899">
        <ele>5.052</ele>
        <time>2019-06-15T10:09:37Z</time>
      </trkpt>
      <trkpt lat="39.186352" lon="-0.261869">
        <ele>4.794</ele>
        <time>2019-06-15T10:09:38Z</time>
      </trkpt>
      <trkpt lat="39.186309" lon="-0.261837">
        <ele>4.471</ele>
        <time>2019-06-15T10:09:39Z</time>
      </trkpt>
      <trkpt lat="39.186270" lon="-0.261804">
        <ele>4.150</ele>
        <time>2019-06-15T10:09:40Z</time>
      </trkpt>
      <trkpt lat="39.186226" lon="-0.261767">
        <ele>3.875</ele>
        <time>2019-06-15T10:09:41Z</time>
      </trkpt>
      <trkpt lat="39.186155" lon="-0.261704">
        <ele>3.395</ele>
        <time>2019-06-15T10:09:43Z</time>
      </trkpt>
      <trkpt lat="39.186110" lon="-0.261671">
        <ele>3.049</ele>
        <time>2019-06-15T10:09:44Z</time>
      </trkpt>
      <trkpt lat="39.186066" lon="-0.261633">
        <ele>3.123</ele>
        <time>2019-06-15T10:09:45Z</time>
      </trkpt>
      <trkpt lat="39.186012" lon="-0.261599">
        <ele>3.308</ele>
        <time>2019-06-15T10:09:46Z</time>
      </trkpt>
      <trkpt lat="39.185959" lon="-0.261569">
        <ele>3.582</ele>
        <time>2019-06-15T10:09:47Z</time>
      </trkpt>
      <trkpt lat="39.185909" lon="-0.261539">
        <ele>3.856</ele>
        <time>2019-06-15T10:09:48Z</time>
      </trkpt>
      <trkpt lat="39.185855" lon="-0.261511">
        <ele>4.145</ele>
        <time>2019-06-15T10:09:49Z</time>
      </trkpt>
      <trkpt lat="39.185811" lon="-0.261479">
        <ele>4.428</ele>
        <time>2019-06-15T10:09:50Z</time>
      </trkpt>
      <trkpt lat="39.185762" lon="-0.261450">
        <ele>4.650</ele>
        <time>2019-06-15T10:09:51Z</time>
      </trkpt>
      <trkpt lat="39.185714" lon="-0.261428">
        <ele>4.857</ele>
        <time>2019-06-15T10:09:52Z</time>
      </trkpt>
      <trkpt lat="39.185675" lon="-0.261388">
        <ele>5.066</ele>
        <time>2019-06-15T10:09:53Z</time>
      </trkpt>
      <trkpt lat="39.185631" lon="-0.261359">
        <ele>5.051</ele>
        <time>2019-06-15T10:09:54Z</time>
      </trkpt>
      <trkpt lat="39.185594" lon="-0.261326">
        <ele>5.073</ele>
        <time>2019-06-15T10:09:55Z</time>
      </trkpt>
      <trkpt lat="39.185550" lon="-0.261300">
        <ele>5.085</ele>
        <time>2019-06-15T10:09:56Z</time>
      </trkpt>
      <trkpt lat="39.185504" lon="-0.261275">
        <ele>4.813</ele>
        <time>2019-06-15T10:09:57Z</time>
      </trkpt>
      <trkpt lat="39.185457" lon="-0.261251">
        <ele>4.608</ele>
        <time>2019-06-15T10:09:58Z</time>
      </trkpt>
      <trkpt lat="39.185313" lon="-0.261140">
        <ele>4.190</ele>
        <time>2019-06-15T10:10:03Z</time>
      </trkpt>
      <trkpt lat="39.185246" lon="-0.261166">
        <ele>4.054</ele>
        <time>2019-06-15T10:10:04Z</time>
      </trkpt>
      <trkpt lat="39.185141" lon="-0.261203">
        <ele>4.073</ele>
        <time>2019-06-15T10:10:05Z</time>
      </trkpt>
      <trkpt lat="39.185058" lon="-0.261156">
        <ele>4.026</ele>
        <time>2019-06-15T10:10:06Z</time>
      </trkpt>
      <trkpt lat="39.184977" lon="-0.261091">
        <ele>4.138</ele>
        <time>2019-06-15T10:10:08Z</time>
      </trkpt>
      <trkpt lat="39.184944" lon="-0.261049">
        <ele>4.265</ele>
        <time>2019-06-15T10:10:09Z</time>
      </trkpt>
      <trkpt lat="39.184893" lon="-0.261021">
        <ele>4.364</ele>
        <time>2019-06-15T10:10:10Z</time>
      </trkpt>
      <trkpt lat="39.184854" lon="-0.260980">
        <ele>4.359</ele>
        <time>2019-06-15T10:10:11Z</time>
      </trkpt>
      <trkpt lat="39.184806" lon="-0.260949">
        <ele>4.367</ele>
        <time>2019-06-15T10:10:12Z</time>
      </trkpt>
      <trkpt lat="39.184758" lon="-0.260928">
        <ele>4.381</ele>
        <time>2019-06-15T10:10:13Z</time>
      </trkpt>
      <trkpt lat="39.184685" lon="-0.260875">
        <ele>4.119</ele>
        <time>2019-06-15T10:10:15Z</time>
      </trkpt>
      <trkpt lat="39.184637" lon="-0.260848">
        <ele>4.008</ele>
        <time>2019-06-15T10:10:16Z</time>
      </trkpt>
      <trkpt lat="39.184597" lon="-0.260820">
        <ele>4.049</ele>
        <time>2019-06-15T10:10:17Z</time>
      </trkpt>
      <trkpt lat="39.184547" lon="-0.260792">
        <ele>4.013</ele>
        <time>2019-06-15T10:10:18Z</time>
      </trkpt>
      <trkpt lat="39.184501" lon="-0.260777">
        <ele>4.032</ele>
        <time>2019-06-15T10:10:19Z</time>
      </trkpt>
      <trkpt lat="39.184453" lon="-0.260756">
        <ele>4.025</ele>
        <time>2019-06-15T10:10:20Z</time>
      </trkpt>
      <trkpt lat="39.184403" lon="-0.260737">
        <ele>3.887</ele>
        <time>2019-06-15T10:10:21Z</time>
      </trkpt>
      <trkpt lat="39.184315" lon="-0.260687">
        <ele>3.364</ele>
        <time>2019-06-15T10:10:23Z</time>
      </trkpt>
      <trkpt lat="39.184263" lon="-0.260669">
        <ele>3.063</ele>
        <time>2019-06-15T10:10:24Z</time>
      </trkpt>
      <trkpt lat="39.184215" lon="-0.260651">
        <ele>2.658</ele>
        <time>2019-06-15T10:10:25Z</time>
      </trkpt>
      <trkpt lat="39.184170" lon="-0.260627">
        <ele>2.394</ele>
        <time>2019-06-15T10:10:26Z</time>
      </trkpt>
      <trkpt lat="39.184119" lon="-0.260610">
        <ele>2.057</ele>
        <time>2019-06-15T10:10:27Z</time>
      </trkpt>
      <trkpt lat="39.184069" lon="-0.260591">
        <ele>1.822</ele>
        <time>2019-06-15T10:10:28Z</time>
      </trkpt>
      <trkpt lat="39.184003" lon="-0.260581">
        <ele>1.508</ele>
        <time>2019-06-15T10:10:29Z</time>
      </trkpt>
      <trkpt lat="39.183950" lon="-0.260564">
        <ele>1.292</ele>
        <time>2019-06-15T10:10:30Z</time>
      </trkpt>
      <trkpt lat="39.183892" lon="-0.260579">
        <ele>1.146</ele>
        <time>2019-06-15T10:10:31Z</time>
      </trkpt>
      <trkpt lat="39.183844" lon="-0.260563">
        <ele>1.295</ele>
        <time>2019-06-15T10:10:32Z</time>
      </trkpt>
      <trkpt lat="39.183786" lon="-0.260553">
        <ele>1.428</ele>
        <time>2019-06-15T10:10:33Z</time>
      </trkpt>
      <trkpt lat="39.183736" lon="-0.260534">
        <ele>1.680</ele>
        <time>2019-06-15T10:10:34Z</time>
      </trkpt>
      <trkpt lat="39.183683" lon="-0.260516">
        <ele>1.927</ele>
        <time>2019-06-15T10:10:35Z</time>
      </trkpt>
      <trkpt lat="39.183632" lon="-0.260501">
        <ele>2.136</ele>
        <time>2019-06-15T10:10:36Z</time>
      </trkpt>
      <trkpt lat="39.183581" lon="-0.260494">
        <ele>2.391</ele>
        <time>2019-06-15T10:10:37Z</time>
      </trkpt>
      <trkpt lat="39.183492" lon="-0.260482">
        <ele>2.711</ele>
        <time>2019-06-15T10:10:39Z</time>
      </trkpt>
      <trkpt lat="39.183444" lon="-0.260478">
        <ele>2.921</ele>
        <time>2019-06-15T10:10:40Z</time>
      </trkpt>
      <trkpt lat="39.183400" lon="-0.260467">
        <ele>3.103</ele>
        <time>2019-06-15T10:10:41Z</time>
      </trkpt>
      <trkpt lat="39.183345" lon="-0.260464">
        <ele>3.308</ele>
        <time>2019-06-15T10:10:42Z</time>
      </trkpt>
      <trkpt lat="39.183290" lon="-0.260460">
        <ele>3.224</ele>
        <time>2019-06-15T10:10:43Z</time>
      </trkpt>
      <trkpt lat="39.183239" lon="-0.260450">
        <ele>3.138</ele>
        <time>2019-06-15T10:10:44Z</time>
      </trkpt>
      <trkpt lat="39.183191" lon="-0.260462">
        <ele>3.047</ele>
        <time>2019-06-15T10:10:45Z</time>
      </trkpt>
      <trkpt lat="39.183146" lon="-0.260448">
        <ele>2.930</ele>
        <time>2019-06-15T10:10:46Z</time>
      </trkpt>
      <trkpt lat="39.183099" lon="-0.260445">
        <ele>2.762</ele>
        <time>2019-06-15T10:10:47Z</time>
      </trkpt>
      <trkpt lat="39.183049" lon="-0.260435">
        <ele>2.569</ele>
        <time>2019-06-15T10:10:48Z</time>
      </trkpt>
      <trkpt lat="39.182997" lon="-0.260432">
        <ele>2.378</ele>
        <time>2019-06-15T10:10:49Z</time>
      </trkpt>
      <trkpt lat="39.182910" lon="-0.260439">
        <ele>2.143</ele>
        <time>2019-06-15T10:10:51Z</time>
      </trkpt>
      <trkpt lat="39.182860" lon="-0.260431">
        <ele>1.818</ele>
        <time>2019-06-15T10:10:52Z</time>
      </trkpt>
      <trkpt lat="39.182807" lon="-0.260422">
        <ele>1.698</ele>
        <time>2019-06-15T10:10:53Z</time>
      </trkpt>
      <trkpt lat="39.182758" lon="-0.260415">
        <ele>1.517</ele>
        <time>2019-06-15T10:10:54Z</time>
      </trkpt>
      <trkpt lat="39.182701" lon="-0.260427">
        <ele>1.708</ele>
        <time>2019-06-15T10:10:55Z</time>
      </trkpt>
      <trkpt lat="39.182651" lon="-0.260425">
        <ele>1.714</ele>
        <time>2019-06-15T10:10:56Z</time>
      </trkpt>
      <trkpt lat="39.182600" lon="-0.260430">
        <ele>1.858</ele>
        <time>2019-06-15T10:10:57Z</time>
      </trkpt>
      <trkpt lat="39.182553" lon="-0.260432">
        <ele>1.947</ele>
        <time>2019-06-15T10:10:58Z</time>
      </trkpt>
      <trkpt lat="39.182501" lon="-0.260431">
        <ele>2.010</ele>
        <time>2019-06-15T10:10:59Z</time>
      </trkpt>
      <trkpt lat="39.182446" lon="-0.260426">
        <ele>2.162</ele>
        <time>2019-06-15T10:11:00Z</time>
      </trkpt>
      <trkpt lat="39.182345" lon="-0.260425">
        <ele>2.399</ele>
        <time>2019-06-15T10:11:02Z</time>
      </trkpt>
      <trkpt lat="39.182285" lon="-0.260411">
        <ele>2.448</ele>
        <time>2019-06-15T10:11:03Z</time>
      </trkpt>
      <trkpt lat="39.182234" lon="-0.260405">
        <ele>2.513</ele>
        <time>2019-06-15T10:11:04Z</time>
      </trkpt>
      <trkpt lat="39.182183" lon="-0.260405">
        <ele>2.436</ele>
        <time>2019-06-15T10:11:05Z</time>
      </trkpt>
      <trkpt lat="39.182123" lon="-0.260380">
        <ele>2.317</ele>
        <time>2019-06-15T10:11:06Z</time>
      </trkpt>
      <trkpt lat="39.182068" lon="-0.260381">
        <ele>2.118</ele>
        <time>2019-06-15T10:11:07Z</time>
      </trkpt>
      <trkpt lat="39.182023" lon="-0.260371">
        <ele>1.908</ele>
        <time>2019-06-15T10:11:08Z</time>
      </trkpt>
      <trkpt lat="39.181973" lon="-0.260376">
        <ele>1.726</ele>
        <time>2019-06-15T10:11:09Z</time>
      </trkpt>
      <trkpt lat="39.181872" lon="-0.260385">
        <ele>1.680</ele>
        <time>2019-06-15T10:11:11Z</time>
      </trkpt>
      <trkpt lat="39.181816" lon="-0.260371">
        <ele>1.759</ele>
        <time>2019-06-15T10:11:12Z</time>
      </trkpt>
      <trkpt lat="39.181761" lon="-0.260350">
        <ele>1.752</ele>
        <time>2019-06-15T10:11:13Z</time>
      </trkpt>
      <trkpt lat="39.181702" lon="-0.260341">
        <ele>1.844</ele>
        <time>2019-06-15T10:11:14Z</time>
      </trkpt>
      <trkpt lat="39.181643" lon="-0.260331">
        <ele>1.941</ele>
        <time>2019-06-15T10:11:15Z</time>
      </trkpt>
      <trkpt lat="39.181588" lon="-0.260320">
        <ele>2.120</ele>
        <time>2019-06-15T10:11:16Z</time>
      </trkpt>
      <trkpt lat="39.181531" lon="-0.260310">
        <ele>2.325</ele>
        <time>2019-06-15T10:11:17Z</time>
      </trkpt>
      <trkpt lat="39.181480" lon="-0.260305">
        <ele>2.538</ele>
        <time>2019-06-15T10:11:18Z</time>
      </trkpt>
      <trkpt lat="39.181382" lon="-0.260298">
        <ele>2.870</ele>
        <time>2019-06-15T10:11:20Z</time>
      </trkpt>
      <trkpt lat="39.181331" lon="-0.260301">
        <ele>2.617</ele>
        <time>2019-06-15T10:11:21Z</time>
      </trkpt>
      <trkpt lat="39.181279" lon="-0.260298">
        <ele>2.508</ele>
        <time>2019-06-15T10:11:22Z</time>
      </trkpt>
      <trkpt lat="39.181219" lon="-0.260295">
        <ele>2.316</ele>
        <time>2019-06-15T10:11:23Z</time>
      </trkpt>
      <trkpt lat="39.181165" lon="-0.260291">
        <ele>2.150</ele>
        <time>2019-06-15T10:11:24Z</time>
      </trkpt>
      <trkpt lat="39.181114" lon="-0.260303">
        <ele>1.999</ele>
        <time>2019-06-15T10:11:25Z</time>
      </trkpt>
      <trkpt lat="39.181031" lon="-0.260308">
        <ele>1.652</ele>
        <time>2019-06-15T10:11:27Z</time>
      </trkpt>
      <trkpt lat="39.180971" lon="-0.260299">
        <ele>1.594</ele>
        <time>2019-06-15T10:11:28Z</time>
      </trkpt>
      <trkpt lat="39.180921" lon="-0.260309">
        <ele>1.351</ele>
        <time>2019-06-15T10:11:29Z</time>
      </trkpt>
      <trkpt lat="39.180873" lon="-0.260312">
        <ele>1.140</ele>
        <time>2019-06-15T10:11:30Z</time>
      </trkpt>
      <trkpt lat="39.180783" lon="-0.260306">
        <ele>1.025</ele>
        <time>2019-06-15T10:11:32Z</time>
      </trkpt>
      <trkpt lat="39.180700" lon="-0.260305">
        <ele>1.046</ele>
        <time>2019-06-15T10:11:34Z</time>
      </trkpt>
      <trkpt lat="39.180617" lon="-0.260302">
        <ele>1.188</ele>
        <time>2019-06-15T10:11:36Z</time>
      </trkpt>
      <trkpt lat="39.180569" lon="-0.260289">
        <ele>1.016</ele>
        <time>2019-06-15T10:11:37Z</time>
      </trkpt>
      <trkpt lat="39.180486" lon="-0.260268">
        <ele>1.308</ele>
        <time>2019-06-15T10:11:39Z</time>
      </trkpt>
      <trkpt lat="39.180403" lon="-0.260270">
        <ele>1.687</ele>
        <time>2019-06-15T10:11:41Z</time>
      </trkpt>
      <trkpt lat="39.180337" lon="-0.260272">
        <ele>1.881</ele>
        <time>2019-06-15T10:11:43Z</time>
      </trkpt>
      <trkpt lat="39.180253" lon="-0.260260">
        <ele>2.060</ele>
        <time>2019-06-15T10:11:45Z</time>
      </trkpt>
      <trkpt lat="39.180208" lon="-0.260251">
        <ele>2.083</ele>
        <time>2019-06-15T10:11:46Z</time>
      </trkpt>
      <trkpt lat="39.180112" lon="-0.260250">
        <ele>2.075</ele>
        <time>2019-06-15T10:11:48Z</time>
      </trkpt>
      <trkpt lat="39.180062" lon="-0.260240">
        <ele>2.062</ele>
        <time>2019-06-15T10:11:49Z</time>
      </trkpt>
      <trkpt lat="39.180013" lon="-0.260236">
        <ele>2.051</ele>
        <time>2019-06-15T10:11:50Z</time>
      </trkpt>
      <trkpt lat="39.179954" lon="-0.260207">
        <ele>2.366</ele>
        <time>2019-06-15T10:11:52Z</time>
      </trkpt>
      <trkpt lat="39.179706" lon="-0.260177">
        <ele>3.755</ele>
        <time>2019-06-15T10:11:59Z</time>
      </trkpt>
      <trkpt lat="39.179706" lon="-0.260177">
        <ele>3.707</ele>
        <time>2019-06-15T10:11:59Z</time>
      </trkpt>
      <trkpt lat="39.179706" lon="-0.260177">
        <ele>3.717</ele>
        <time>2019-06-15T10:11:59Z</time>
      </trkpt>
      <trkpt lat="39.179706" lon="-0.260177">
        <ele>3.708</ele>
        <time>2019-06-15T10:11:59Z</time>
      </trkpt>
      <trkpt lat="39.179611" lon="-0.260164">
        <ele>4.088</ele>
        <time>2019-06-15T10:12:01Z</time>
      </trkpt>
      <trkpt lat="39.179527" lon="-0.260159">
        <ele>4.372</ele>
        <time>2019-06-15T10:12:03Z</time>
      </trkpt>
      <trkpt lat="39.179454" lon="-0.260156">
        <ele>4.561</ele>
        <time>2019-06-15T10:12:05Z</time>
      </trkpt>
      <trkpt lat="39.179364" lon="-0.260158">
        <ele>4.434</ele>
        <time>2019-06-15T10:12:07Z</time>
      </trkpt>
      <trkpt lat="39.179308" lon="-0.260147">
        <ele>4.316</ele>
        <time>2019-06-15T10:12:08Z</time>
      </trkpt>
      <trkpt lat="39.179246" lon="-0.260117">
        <ele>4.063</ele>
        <time>2019-06-15T10:12:10Z</time>
      </trkpt>
      <trkpt lat="39.179196" lon="-0.260115">
        <ele>3.962</ele>
        <time>2019-06-15T10:12:11Z</time>
      </trkpt>
      <trkpt lat="39.179140" lon="-0.260116">
        <ele>3.757</ele>
        <time>2019-06-15T10:12:12Z</time>
      </trkpt>
      <trkpt lat="39.179051" lon="-0.260104">
        <ele>3.217</ele>
        <time>2019-06-15T10:12:14Z</time>
      </trkpt>
      <trkpt lat="39.179000" lon="-0.260097">
        <ele>2.987</ele>
        <time>2019-06-15T10:12:15Z</time>
      </trkpt>
      <trkpt lat="39.178909" lon="-0.260088">
        <ele>2.415</ele>
        <time>2019-06-15T10:12:17Z</time>
      </trkpt>
      <trkpt lat="39.178859" lon="-0.260084">
        <ele>2.208</ele>
        <time>2019-06-15T10:12:18Z</time>
      </trkpt>
      <trkpt lat="39.178806" lon="-0.260096">
        <ele>2.164</ele>
        <time>2019-06-15T10:12:19Z</time>
      </trkpt>
      <trkpt lat="39.178727" lon="-0.260085">
        <ele>1.968</ele>
        <time>2019-06-15T10:12:21Z</time>
      </trkpt>
      <trkpt lat="39.178681" lon="-0.260084">
        <ele>1.957</ele>
        <time>2019-06-15T10:12:22Z</time>
      </trkpt>
      <trkpt lat="39.178636" lon="-0.260092">
        <ele>1.790</ele>
        <time>2019-06-15T10:12:23Z</time>
      </trkpt>
      <trkpt lat="39.178548" lon="-0.260086">
        <ele>1.832</ele>
        <time>2019-06-15T10:12:25Z</time>
      </trkpt>
      <trkpt lat="39.178473" lon="-0.260065">
        <ele>2.129</ele>
        <time>2019-06-15T10:12:27Z</time>
      </trkpt>
      <trkpt lat="39.178403" lon="-0.260054">
        <ele>2.478</ele>
        <time>2019-06-15T10:12:29Z</time>
      </trkpt>
      <trkpt lat="39.178317" lon="-0.260023">
        <ele>2.983</ele>
        <time>2019-06-15T10:12:31Z</time>
      </trkpt>
      <trkpt lat="39.178229" lon="-0.260026">
        <ele>3.282</ele>
        <time>2019-06-15T10:12:33Z</time>
      </trkpt>
      <trkpt lat="39.178185" lon="-0.260010">
        <ele>3.543</ele>
        <time>2019-06-15T10:12:34Z</time>
      </trkpt>
      <trkpt lat="39.178139" lon="-0.259991">
        <ele>3.717</ele>
        <time>2019-06-15T10:12:35Z</time>
      </trkpt>
      <trkpt lat="39.178090" lon="-0.259982">
        <ele>3.908</ele>
        <time>2019-06-15T10:12:36Z</time>
      </trkpt>
      <trkpt lat="39.178005" lon="-0.259942">
        <ele>4.231</ele>
        <time>2019-06-15T10:12:38Z</time>
      </trkpt>
      <trkpt lat="39.177957" lon="-0.259922">
        <ele>4.255</ele>
        <time>2019-06-15T10:12:39Z</time>
      </trkpt>
      <trkpt lat="39.177911" lon="-0.259948">
        <ele>4.194</ele>
        <time>2019-06-15T10:12:40Z</time>
      </trkpt>
      <trkpt lat="39.177869" lon="-0.259926">
        <ele>4.137</ele>
        <time>2019-06-15T10:12:41Z</time>
      </trkpt>
      <trkpt lat="39.177821" lon="-0.259900">
        <ele>4.179</ele>
        <time>2019-06-15T10:12:42Z</time>
      </trkpt>
      <trkpt lat="39.177769" lon="-0.259878">
        <ele>3.986</ele>
        <time>2019-06-15T10:12:43Z</time>
      </trkpt>
      <trkpt lat="39.177722" lon="-0.259852">
        <ele>3.595</ele>
        <time>2019-06-15T10:12:44Z</time>
      </trkpt>
      <trkpt lat="39.177673" lon="-0.259836">
        <ele>3.060</ele>
        <time>2019-06-15T10:12:45Z</time>
      </trkpt>
      <trkpt lat="39.177627" lon="-0.259811">
        <ele>2.519</ele>
        <time>2019-06-15T10:12:46Z</time>
      </trkpt>
      <trkpt lat="39.177543" lon="-0.259757">
        <ele>1.609</ele>
        <time>2019-06-15T10:12:48Z</time>
      </trkpt>
      <trkpt lat="39.177470" lon="-0.259700">
        <ele>1.119</ele>
        <time>2019-06-15T10:12:50Z</time>
      </trkpt>
      <trkpt lat="39.177397" lon="-0.259681">
        <ele>1.108</ele>
        <time>2019-06-15T10:12:52Z</time>
      </trkpt>
      <trkpt lat="39.177350" lon="-0.259669">
        <ele>1.134</ele>
        <time>2019-06-15T10:12:53Z</time>
      </trkpt>
      <trkpt lat="39.177271" lon="-0.259693">
        <ele>1.018</ele>
        <time>2019-06-15T10:12:55Z</time>
      </trkpt>
      <trkpt lat="39.177189" lon="-0.259721">
        <ele>1.147</ele>
        <time>2019-06-15T10:12:57Z</time>
      </trkpt>
      <trkpt lat="39.177110" lon="-0.259709">
        <ele>1.480</ele>
        <time>2019-06-15T10:12:59Z</time>
      </trkpt>
      <trkpt lat="39.177068" lon="-0.259677">
        <ele>1.612</ele>
        <time>2019-06-15T10:13:00Z</time>
      </trkpt>
      <trkpt lat="39.176998" lon="-0.259602">
        <ele>2.219</ele>
        <time>2019-06-15T10:13:02Z</time>
      </trkpt>
      <trkpt lat="39.176959" lon="-0.259564">
        <ele>2.528</ele>
        <time>2019-06-15T10:13:03Z</time>
      </trkpt>
      <trkpt lat="39.176916" lon="-0.259526">
        <ele>2.983</ele>
        <time>2019-06-15T10:13:04Z</time>
      </trkpt>
      <trkpt lat="39.176885" lon="-0.259482">
        <ele>3.349</ele>
        <time>2019-06-15T10:13:05Z</time>
      </trkpt>
      <trkpt lat="39.176833" lon="-0.259454">
        <ele>3.802</ele>
        <time>2019-06-15T10:13:06Z</time>
      </trkpt>
      <trkpt lat="39.176789" lon="-0.259430">
        <ele>4.222</ele>
        <time>2019-06-15T10:13:07Z</time>
      </trkpt>
      <trkpt lat="39.176744" lon="-0.259402">
        <ele>4.608</ele>
        <time>2019-06-15T10:13:08Z</time>
      </trkpt>
      <trkpt lat="39.176585" lon="-0.259362">
        <ele>5.397</ele>
        <time>2019-06-15T10:13:12Z</time>
      </trkpt>
      <trkpt lat="39.176585" lon="-0.259362">
        <ele>5.321</ele>
        <time>2019-06-15T10:13:12Z</time>
      </trkpt>
      <trkpt lat="39.176585" lon="-0.259362">
        <ele>5.380</ele>
        <time>2019-06-15T10:13:12Z</time>
      </trkpt>
      <trkpt lat="39.176585" lon="-0.259362">
        <ele>5.383</ele>
        <time>2019-06-15T10:13:12Z</time>
      </trkpt>
      <trkpt lat="39.176585" lon="-0.259362">
        <ele>5.395</ele>
        <time>2019-06-15T10:13:12Z</time>
      </trkpt>
      <trkpt lat="39.176515" lon="-0.259368">
        <ele>5.522</ele>
        <time>2019-06-15T10:13:15Z</time>
      </trkpt>
      <trkpt lat="39.176515" lon="-0.259368">
        <ele>5.591</ele>
        <time>2019-06-15T10:13:15Z</time>
      </trkpt>
      <trkpt lat="39.176515" lon="-0.259368">
        <ele>5.566</ele>
        <time>2019-06-15T10:13:15Z</time>
      </trkpt>
      <trkpt lat="39.176459" lon="-0.259377">
        <ele>5.752</ele>
        <time>2019-06-15T10:13:18Z</time>
      </trkpt>
      <trkpt lat="39.176411" lon="-0.259416">
        <ele>5.953</ele>
        <time>2019-06-15T10:13:22Z</time>
      </trkpt>
      <trkpt lat="39.176372" lon="-0.259385">
        <ele>6.108</ele>
        <time>2019-06-15T10:13:29Z</time>
      </trkpt>
      <trkpt lat="39.176403" lon="-0.259343">
        <ele>5.908</ele>
        <time>2019-06-15T10:13:36Z</time>
      </trkpt>
      <trkpt lat="39.176462" lon="-0.259327">
        <ele>5.768</ele>
        <time>2019-06-15T10:14:09Z</time>
      </trkpt>
      <trkpt lat="39.176569" lon="-0.259295">
        <ele>5.492</ele>
        <time>2019-06-15T10:14:10Z</time>
      </trkpt>
      <trkpt lat="39.176615" lon="-0.259287">
        <ele>5.291</ele>
        <time>2019-06-15T10:14:11Z</time>
      </trkpt>
      <trkpt lat="39.176685" lon="-0.259287">
        <ele>5.064</ele>
        <time>2019-06-15T10:14:13Z</time>
      </trkpt>
      <trkpt lat="39.176778" lon="-0.259279">
        <ele>4.996</ele>
        <time>2019-06-15T10:14:15Z</time>
      </trkpt>
      <trkpt lat="39.176843" lon="-0.259246">
        <ele>5.163</ele>
        <time>2019-06-15T10:14:16Z</time>
      </trkpt>
      <trkpt lat="39.176896" lon="-0.259229">
        <ele>5.332</ele>
        <time>2019-06-15T10:14:17Z</time>
      </trkpt>
      <trkpt lat="39.176957" lon="-0.259215">
        <ele>5.447</ele>
        <time>2019-06-15T10:14:20Z</time>
      </trkpt>
      <trkpt lat="39.177004" lon="-0.259202">
        <ele>5.427</ele>
        <time>2019-06-15T10:14:22Z</time>
      </trkpt>
      <trkpt lat="39.177106" lon="-0.259175">
        <ele>5.368</ele>
        <time>2019-06-15T10:14:24Z</time>
      </trkpt>
      <trkpt lat="39.177183" lon="-0.259168">
        <ele>5.114</ele>
        <time>2019-06-15T10:14:26Z</time>
      </trkpt>
      <trkpt lat="39.177227" lon="-0.259184">
        <ele>4.808</ele>
        <time>2019-06-15T10:14:27Z</time>
      </trkpt>
      <trkpt lat="39.177275" lon="-0.259208">
        <ele>4.655</ele>
        <time>2019-06-15T10:14:28Z</time>
      </trkpt>
      <trkpt lat="39.177325" lon="-0.259298">
        <ele>3.519</ele>
        <time>2019-06-15T10:14:30Z</time>
      </trkpt>
      <trkpt lat="39.177345" lon="-0.259352">
        <ele>2.828</ele>
        <time>2019-06-15T10:14:31Z</time>
      </trkpt>
      <trkpt lat="39.177353" lon="-0.259459">
        <ele>1.421</ele>
        <time>2019-06-15T10:14:33Z</time>
      </trkpt>
      <trkpt lat="39.177337" lon="-0.259523">
        <ele>1.313</ele>
        <time>2019-06-15T10:14:34Z</time>
      </trkpt>
      <trkpt lat="39.177315" lon="-0.259580">
        <ele>1.230</ele>
        <time>2019-06-15T10:14:35Z</time>
      </trkpt>
      <trkpt lat="39.177277" lon="-0.259683">
        <ele>1.019</ele>
        <time>2019-06-15T10:14:37Z</time>
      </trkpt>
      <trkpt lat="39.177277" lon="-0.259683">
        <ele>1.034</ele>
        <time>2019-06-15T10:14:37Z</time>
      </trkpt>
      <trkpt lat="39.177230" lon="-0.259787">
        <ele>1.248</ele>
        <time>2019-06-15T10:14:39Z</time>
      </trkpt>
      <trkpt lat="39.177206" lon="-0.259840">
        <ele>1.561</ele>
        <time>2019-06-15T10:14:40Z</time>
      </trkpt>
      <trkpt lat="39.177203" lon="-0.259901">
        <ele>1.717</ele>
        <time>2019-06-15T10:14:41Z</time>
      </trkpt>
      <trkpt lat="39.177209" lon="-0.259961">
        <ele>1.908</ele>
        <time>2019-06-15T10:14:42Z</time>
      </trkpt>
      <trkpt lat="39.177216" lon="-0.260023">
        <ele>2.047</ele>
        <time>2019-06-15T10:14:43Z</time>
      </trkpt>
      <trkpt lat="39.177235" lon="-0.260082">
        <ele>2.081</ele>
        <time>2019-06-15T10:14:44Z</time>
      </trkpt>
      <trkpt lat="39.177279" lon="-0.260176">
        <ele>2.130</ele>
        <time>2019-06-15T10:14:46Z</time>
      </trkpt>
      <trkpt lat="39.177306" lon="-0.260224">
        <ele>2.263</ele>
        <time>2019-06-15T10:14:47Z</time>
      </trkpt>
      <trkpt lat="39.177343" lon="-0.260326">
        <ele>2.485</ele>
        <time>2019-06-15T10:14:49Z</time>
      </trkpt>
      <trkpt lat="39.177386" lon="-0.260437">
        <ele>2.622</ele>
        <time>2019-06-15T10:14:51Z</time>
      </trkpt>
      <trkpt lat="39.177410" lon="-0.260513">
        <ele>2.711</ele>
        <time>2019-06-15T10:14:52Z</time>
      </trkpt>
      <trkpt lat="39.177477" lon="-0.260601">
        <ele>2.996</ele>
        <time>2019-06-15T10:14:54Z</time>
      </trkpt>
      <trkpt lat="39.177508" lon="-0.260660">
        <ele>3.095</ele>
        <time>2019-06-15T10:14:55Z</time>
      </trkpt>
      <trkpt lat="39.177538" lon="-0.260711">
        <ele>3.049</ele>
        <time>2019-06-15T10:14:56Z</time>
      </trkpt>
      <trkpt lat="39.177557" lon="-0.260777">
        <ele>3.023</ele>
        <time>2019-06-15T10:14:57Z</time>
      </trkpt>
      <trkpt lat="39.177585" lon="-0.260837">
        <ele>3.008</ele>
        <time>2019-06-15T10:14:58Z</time>
      </trkpt>
      <trkpt lat="39.177610" lon="-0.260901">
        <ele>3.062</ele>
        <time>2019-06-15T10:14:59Z</time>
      </trkpt>
      <trkpt lat="39.177627" lon="-0.260968">
        <ele>3.056</ele>
        <time>2019-06-15T10:15:00Z</time>
      </trkpt>
      <trkpt lat="39.177654" lon="-0.261030">
        <ele>3.025</ele>
        <time>2019-06-15T10:15:01Z</time>
      </trkpt>
      <trkpt lat="39.177681" lon="-0.261087">
        <ele>3.088</ele>
        <time>2019-06-15T10:15:02Z</time>
      </trkpt>
      <trkpt lat="39.177711" lon="-0.261151">
        <ele>3.050</ele>
        <time>2019-06-15T10:15:03Z</time>
      </trkpt>
      <trkpt lat="39.177742" lon="-0.261211">
        <ele>3.037</ele>
        <time>2019-06-15T10:15:04Z</time>
      </trkpt>
      <trkpt lat="39.177776" lon="-0.261266">
        <ele>3.066</ele>
        <time>2019-06-15T10:15:05Z</time>
      </trkpt>
      <trkpt lat="39.177808" lon="-0.261323">
        <ele>3.081</ele>
        <time>2019-06-15T10:15:06Z</time>
      </trkpt>
      <trkpt lat="39.177839" lon="-0.261372">
        <ele>3.045</ele>
        <time>2019-06-15T10:15:07Z</time>
      </trkpt>
      <trkpt lat="39.177866" lon="-0.261424">
        <ele>3.047</ele>
        <time>2019-06-15T10:15:08Z</time>
      </trkpt>
      <trkpt lat="39.177892" lon="-0.261482">
        <ele>3.111</ele>
        <time>2019-06-15T10:15:09Z</time>
      </trkpt>
      <trkpt lat="39.177931" lon="-0.261529">
        <ele>3.308</ele>
        <time>2019-06-15T10:15:10Z</time>
      </trkpt>
      <trkpt lat="39.177958" lon="-0.261584">
        <ele>3.517</ele>
        <time>2019-06-15T10:15:11Z</time>
      </trkpt>
      <trkpt lat="39.177989" lon="-0.261628">
        <ele>3.771</ele>
        <time>2019-06-15T10:15:12Z</time>
      </trkpt>
      <trkpt lat="39.178035" lon="-0.261721">
        <ele>3.960</ele>
        <time>2019-06-15T10:15:14Z</time>
      </trkpt>
      <trkpt lat="39.178063" lon="-0.261769">
        <ele>4.063</ele>
        <time>2019-06-15T10:15:15Z</time>
      </trkpt>
      <trkpt lat="39.178116" lon="-0.261853">
        <ele>3.995</ele>
        <time>2019-06-15T10:15:17Z</time>
      </trkpt>
      <trkpt lat="39.178167" lon="-0.261943">
        <ele>4.072</ele>
        <time>2019-06-15T10:15:19Z</time>
      </trkpt>
      <trkpt lat="39.178195" lon="-0.261993">
        <ele>4.251</ele>
        <time>2019-06-15T10:15:20Z</time>
      </trkpt>
      <trkpt lat="39.178233" lon="-0.262052">
        <ele>4.576</ele>
        <time>2019-06-15T10:15:22Z</time>
      </trkpt>
      <trkpt lat="39.178278" lon="-0.262091">
        <ele>4.823</ele>
        <time>2019-06-15T10:15:25Z</time>
      </trkpt>
      <trkpt lat="39.178352" lon="-0.262123">
        <ele>5.483</ele>
        <time>2019-06-15T10:15:28Z</time>
      </trkpt>
      <trkpt lat="39.178412" lon="-0.262145">
        <ele>5.711</ele>
        <time>2019-06-15T10:15:29Z</time>
      </trkpt>
      <trkpt lat="39.178469" lon="-0.262223">
        <ele>6.508</ele>
        <time>2019-06-15T10:15:31Z</time>
      </trkpt>
      <trkpt lat="39.178515" lon="-0.262309">
        <ele>6.745</ele>
        <time>2019-06-15T10:15:33Z</time>
      </trkpt>
      <trkpt lat="39.178528" lon="-0.262414">
        <ele>6.729</ele>
        <time>2019-06-15T10:15:35Z</time>
      </trkpt>
      <trkpt lat="39.178505" lon="-0.262518">
        <ele>6.678</ele>
        <time>2019-06-15T10:15:37Z</time>
      </trkpt>
      <trkpt lat="39.178479" lon="-0.262567">
        <ele>6.381</ele>
        <time>2019-06-15T10:15:38Z</time>
      </trkpt>
      <trkpt lat="39.178412" lon="-0.262636">
        <ele>5.873</ele>
        <time>2019-06-15T10:15:40Z</time>
      </trkpt>
      <trkpt lat="39.178378" lon="-0.262686">
        <ele>5.520</ele>
        <time>2019-06-15T10:15:43Z</time>
      </trkpt>
      <trkpt lat="39.178406" lon="-0.262738">
        <ele>5.459</ele>
        <time>2019-06-15T10:15:51Z</time>
      </trkpt>
      <trkpt lat="39.178358" lon="-0.262748">
        <ele>5.284</ele>
        <time>2019-06-15T10:17:39Z</time>
      </trkpt>
      <trkpt lat="39.178324" lon="-0.262703">
        <ele>5.391</ele>
        <time>2019-06-15T10:18:18Z</time>
      </trkpt>
      <trkpt lat="39.178281" lon="-0.262685">
        <ele>5.381</ele>
        <time>2019-06-15T10:18:27Z</time>
      </trkpt>
      <trkpt lat="39.178214" lon="-0.262642">
        <ele>5.319</ele>
        <time>2019-06-15T10:18:29Z</time>
      </trkpt>
      <trkpt lat="39.178143" lon="-0.262587">
        <ele>5.208</ele>
        <time>2019-06-15T10:18:31Z</time>
      </trkpt>
      <trkpt lat="39.178063" lon="-0.262535">
        <ele>5.052</ele>
        <time>2019-06-15T10:18:33Z</time>
      </trkpt>
      <trkpt lat="39.177969" lon="-0.262538">
        <ele>4.716</ele>
        <time>2019-06-15T10:18:35Z</time>
      </trkpt>
      <trkpt lat="39.177924" lon="-0.262528">
        <ele>4.585</ele>
        <time>2019-06-15T10:18:36Z</time>
      </trkpt>
      <trkpt lat="39.177836" lon="-0.262494">
        <ele>4.228</ele>
        <time>2019-06-15T10:18:38Z</time>
      </trkpt>
      <trkpt lat="39.177742" lon="-0.262473">
        <ele>3.910</ele>
        <time>2019-06-15T10:18:40Z</time>
      </trkpt>
      <trkpt lat="39.177693" lon="-0.262466">
        <ele>3.777</ele>
        <time>2019-06-15T10:18:41Z</time>
      </trkpt>
      <trkpt lat="39.177609" lon="-0.262432">
        <ele>3.236</ele>
        <time>2019-06-15T10:18:43Z</time>
      </trkpt>
      <trkpt lat="39.177564" lon="-0.262438">
        <ele>3.161</ele>
        <time>2019-06-15T10:18:44Z</time>
      </trkpt>
      <trkpt lat="39.177515" lon="-0.262429">
        <ele>2.869</ele>
        <time>2019-06-15T10:18:45Z</time>
      </trkpt>
      <trkpt lat="39.177466" lon="-0.262419">
        <ele>2.504</ele>
        <time>2019-06-15T10:18:46Z</time>
      </trkpt>
      <trkpt lat="39.177371" lon="-0.262404">
        <ele>1.924</ele>
        <time>2019-06-15T10:18:48Z</time>
      </trkpt>
      <trkpt lat="39.177286" lon="-0.262413">
        <ele>1.408</ele>
        <time>2019-06-15T10:18:50Z</time>
      </trkpt>
      <trkpt lat="39.177189" lon="-0.262416">
        <ele>1.239</ele>
        <time>2019-06-15T10:18:52Z</time>
      </trkpt>
      <trkpt lat="39.177100" lon="-0.262397">
        <ele>1.623</ele>
        <time>2019-06-15T10:18:54Z</time>
      </trkpt>
      <trkpt lat="39.177050" lon="-0.262396">
        <ele>1.942</ele>
        <time>2019-06-15T10:18:55Z</time>
      </trkpt>
      <trkpt lat="39.176958" lon="-0.262377">
        <ele>2.475</ele>
        <time>2019-06-15T10:18:57Z</time>
      </trkpt>
      <trkpt lat="39.176913" lon="-0.262378">
        <ele>2.657</ele>
        <time>2019-06-15T10:18:58Z</time>
      </trkpt>
      <trkpt lat="39.176858" lon="-0.262374">
        <ele>2.864</ele>
        <time>2019-06-15T10:18:59Z</time>
      </trkpt>
      <trkpt lat="39.176805" lon="-0.262363">
        <ele>3.043</ele>
        <time>2019-06-15T10:19:00Z</time>
      </trkpt>
      <trkpt lat="39.176761" lon="-0.262349">
        <ele>3.268</ele>
        <time>2019-06-15T10:19:01Z</time>
      </trkpt>
      <trkpt lat="39.176714" lon="-0.262330">
        <ele>3.499</ele>
        <time>2019-06-15T10:19:02Z</time>
      </trkpt>
      <trkpt lat="39.176659" lon="-0.262322">
        <ele>3.707</ele>
        <time>2019-06-15T10:19:03Z</time>
      </trkpt>
      <trkpt lat="39.176602" lon="-0.262331">
        <ele>4.127</ele>
        <time>2019-06-15T10:19:04Z</time>
      </trkpt>
      <trkpt lat="39.176556" lon="-0.262326">
        <ele>4.408</ele>
        <time>2019-06-15T10:19:05Z</time>
      </trkpt>
      <trkpt lat="39.176508" lon="-0.262299">
        <ele>4.982</ele>
        <time>2019-06-15T10:19:06Z</time>
      </trkpt>
      <trkpt lat="39.176461" lon="-0.262269">
        <ele>5.346</ele>
        <time>2019-06-15T10:19:07Z</time>
      </trkpt>
      <trkpt lat="39.176422" lon="-0.262236">
        <ele>5.755</ele>
        <time>2019-06-15T10:19:08Z</time>
      </trkpt>
      <trkpt lat="39.176342" lon="-0.262213">
        <ele>6.048</ele>
        <time>2019-06-15T10:19:10Z</time>
      </trkpt>
      <trkpt lat="39.176261" lon="-0.262214">
        <ele>6.030</ele>
        <time>2019-06-15T10:19:12Z</time>
      </trkpt>
      <trkpt lat="39.176189" lon="-0.262216">
        <ele>6.067</ele>
        <time>2019-06-15T10:19:14Z</time>
      </trkpt>
      <trkpt lat="39.176134" lon="-0.262199">
        <ele>6.026</ele>
        <time>2019-06-15T10:19:15Z</time>
      </trkpt>
      <trkpt lat="39.176085" lon="-0.262196">
        <ele>5.871</ele>
        <time>2019-06-15T10:19:16Z</time>
      </trkpt>
      <trkpt lat="39.175995" lon="-0.262177">
        <ele>5.139</ele>
        <time>2019-06-15T10:19:18Z</time>
      </trkpt>
      <trkpt lat="39.175948" lon="-0.262170">
        <ele>4.701</ele>
        <time>2019-06-15T10:19:19Z</time>
      </trkpt>
      <trkpt lat="39.175871" lon="-0.262141">
        <ele>4.021</ele>
        <time>2019-06-15T10:19:21Z</time>
      </trkpt>
      <trkpt lat="39.175824" lon="-0.262133">
        <ele>3.608</ele>
        <time>2019-06-15T10:19:22Z</time>
      </trkpt>
      <trkpt lat="39.175772" lon="-0.262112">
        <ele>3.346</ele>
        <time>2019-06-15T10:19:23Z</time>
      </trkpt>
      <trkpt lat="39.175725" lon="-0.262093">
        <ele>3.150</ele>
        <time>2019-06-15T10:19:24Z</time>
      </trkpt>
      <trkpt lat="39.175674" lon="-0.262090">
        <ele>2.939</ele>
        <time>2019-06-15T10:19:25Z</time>
      </trkpt>
      <trkpt lat="39.175624" lon="-0.262082">
        <ele>2.792</ele>
        <time>2019-06-15T10:19:26Z</time>
      </trkpt>
      <trkpt lat="39.175568" lon="-0.262080">
        <ele>2.664</ele>
        <time>2019-06-15T10:19:27Z</time>
      </trkpt>
      <trkpt lat="39.175522" lon="-0.262073">
        <ele>2.441</ele>
        <time>2019-06-15T10:19:28Z</time>
      </trkpt>
      <trkpt lat="39.175460" lon="-0.262084">
        <ele>2.230</ele>
        <time>2019-06-15T10:19:29Z</time>
      </trkpt>
      <trkpt lat="39.175413" lon="-0.262074">
        <ele>2.035</ele>
        <time>2019-06-15T10:19:30Z</time>
      </trkpt>
      <trkpt lat="39.175363" lon="-0.262059">
        <ele>1.966</ele>
        <time>2019-06-15T10:19:31Z</time>
      </trkpt>
      <trkpt lat="39.175315" lon="-0.262055">
        <ele>1.729</ele>
        <time>2019-06-15T10:19:32Z</time>
      </trkpt>
      <trkpt lat="39.175221" lon="-0.262046">
        <ele>1.621</ele>
        <time>2019-06-15T10:19:34Z</time>
      </trkpt>
      <trkpt lat="39.175170" lon="-0.262050">
        <ele>1.508</ele>
        <time>2019-06-15T10:19:35Z</time>
      </trkpt>
      <trkpt lat="39.175108" lon="-0.262046">
        <ele>1.589</ele>
        <time>2019-06-15T10:19:36Z</time>
      </trkpt>
      <trkpt lat="39.175037" lon="-0.262047">
        <ele>1.413</ele>
        <time>2019-06-15T10:19:37Z</time>
      </trkpt>
      <trkpt lat="39.174992" lon="-0.262037">
        <ele>1.352</ele>
        <time>2019-06-15T10:19:38Z</time>
      </trkpt>
      <trkpt lat="39.174940" lon="-0.262030">
        <ele>1.425</ele>
        <time>2019-06-15T10:19:39Z</time>
      </trkpt>
      <trkpt lat="39.174890" lon="-0.262021">
        <ele>1.517</ele>
        <time>2019-06-15T10:19:40Z</time>
      </trkpt>
      <trkpt lat="39.174844" lon="-0.262010">
        <ele>1.514</ele>
        <time>2019-06-15T10:19:41Z</time>
      </trkpt>
      <trkpt lat="39.174788" lon="-0.261995">
        <ele>1.783</ele>
        <time>2019-06-15T10:19:42Z</time>
      </trkpt>
      <trkpt lat="39.174737" lon="-0.261977">
        <ele>1.828</ele>
        <time>2019-06-15T10:19:43Z</time>
      </trkpt>
      <trkpt lat="39.174680" lon="-0.261967">
        <ele>1.931</ele>
        <time>2019-06-15T10:19:44Z</time>
      </trkpt>
      <trkpt lat="39.174626" lon="-0.261947">
        <ele>2.061</ele>
        <time>2019-06-15T10:19:45Z</time>
      </trkpt>
      <trkpt lat="39.174569" lon="-0.261939">
        <ele>2.007</ele>
        <time>2019-06-15T10:19:46Z</time>
      </trkpt>
      <trkpt lat="39.174512" lon="-0.261925">
        <ele>2.108</ele>
        <time>2019-06-15T10:19:47Z</time>
      </trkpt>
      <trkpt lat="39.174457" lon="-0.261924">
        <ele>2.176</ele>
        <time>2019-06-15T10:19:48Z</time>
      </trkpt>
      <trkpt lat="39.174406" lon="-0.261915">
        <ele>2.220</ele>
        <time>2019-06-15T10:19:49Z</time>
      </trkpt>
      <trkpt lat="39.174353" lon="-0.261906">
        <ele>2.449</ele>
        <time>2019-06-15T10:19:50Z</time>
      </trkpt>
      <trkpt lat="39.174298" lon="-0.261898">
        <ele>2.692</ele>
        <time>2019-06-15T10:19:51Z</time>
      </trkpt>
      <trkpt lat="39.174247" lon="-0.261894">
        <ele>2.884</ele>
        <time>2019-06-15T10:19:52Z</time>
      </trkpt>
      <trkpt lat="39.174156" lon="-0.261898">
        <ele>3.071</ele>
        <time>2019-06-15T10:19:54Z</time>
      </trkpt>
      <trkpt lat="39.174108" lon="-0.261890">
        <ele>3.210</ele>
        <time>2019-06-15T10:19:55Z</time>
      </trkpt>
      <trkpt lat="39.174052" lon="-0.261884">
        <ele>3.335</ele>
        <time>2019-06-15T10:19:56Z</time>
      </trkpt>
      <trkpt lat="39.174001" lon="-0.261870">
        <ele>3.486</ele>
        <time>2019-06-15T10:19:57Z</time>
      </trkpt>
      <trkpt lat="39.173949" lon="-0.261858">
        <ele>3.560</ele>
        <time>2019-06-15T10:19:58Z</time>
      </trkpt>
      <trkpt lat="39.173895" lon="-0.261855">
        <ele>3.726</ele>
        <time>2019-06-15T10:19:59Z</time>
      </trkpt>
      <trkpt lat="39.173845" lon="-0.261846">
        <ele>3.608</ele>
        <time>2019-06-15T10:20:00Z</time>
      </trkpt>
      <trkpt lat="39.173753" lon="-0.261839">
        <ele>3.651</ele>
        <time>2019-06-15T10:20:02Z</time>
      </trkpt>
      <trkpt lat="39.173699" lon="-0.261824">
        <ele>3.685</ele>
        <time>2019-06-15T10:20:03Z</time>
      </trkpt>
      <trkpt lat="39.173606" lon="-0.261819">
        <ele>3.534</ele>
        <time>2019-06-15T10:20:05Z</time>
      </trkpt>
      <trkpt lat="39.173560" lon="-0.261822">
        <ele>3.597</ele>
        <time>2019-06-15T10:20:06Z</time>
      </trkpt>
      <trkpt lat="39.173474" lon="-0.261829">
        <ele>3.599</ele>
        <time>2019-06-15T10:20:08Z</time>
      </trkpt>
      <trkpt lat="39.173323" lon="-0.261908">
        <ele>3.196</ele>
        <time>2019-06-15T10:20:12Z</time>
      </trkpt>
      <trkpt lat="39.173255" lon="-0.261957">
        <ele>2.785</ele>
        <time>2019-06-15T10:20:14Z</time>
      </trkpt>
      <trkpt lat="39.173281" lon="-0.262109">
        <ele>2.750</ele>
        <time>2019-06-15T10:20:16Z</time>
      </trkpt>
      <trkpt lat="39.173279" lon="-0.262181">
        <ele>2.611</ele>
        <time>2019-06-15T10:20:18Z</time>
      </trkpt>
      <trkpt lat="39.173295" lon="-0.262325">
        <ele>2.721</ele>
        <time>2019-06-15T10:20:20Z</time>
      </trkpt>
      <trkpt lat="39.173257" lon="-0.262368">
        <ele>2.503</ele>
        <time>2019-06-15T10:20:23Z</time>
      </trkpt>
      <trkpt lat="39.173216" lon="-0.262426">
        <ele>2.208</ele>
        <time>2019-06-15T10:20:24Z</time>
      </trkpt>
      <trkpt lat="39.173174" lon="-0.262477">
        <ele>1.914</ele>
        <time>2019-06-15T10:20:25Z</time>
      </trkpt>
      <trkpt lat="39.173137" lon="-0.262523">
        <ele>1.638</ele>
        <time>2019-06-15T10:20:27Z</time>
      </trkpt>
      <trkpt lat="39.173097" lon="-0.262595">
        <ele>1.617</ele>
        <time>2019-06-15T10:20:29Z</time>
      </trkpt>
      <trkpt lat="39.173065" lon="-0.262641">
        <ele>1.640</ele>
        <time>2019-06-15T10:20:30Z</time>
      </trkpt>
      <trkpt lat="39.173027" lon="-0.262711">
        <ele>1.742</ele>
        <time>2019-06-15T10:20:32Z</time>
      </trkpt>
      <trkpt lat="39.172983" lon="-0.262767">
        <ele>1.719</ele>
        <time>2019-06-15T10:20:34Z</time>
      </trkpt>
      <trkpt lat="39.172940" lon="-0.262816">
        <ele>1.648</ele>
        <time>2019-06-15T10:20:36Z</time>
      </trkpt>
      <trkpt lat="39.172861" lon="-0.262892">
        <ele>1.313</ele>
        <time>2019-06-15T10:20:38Z</time>
      </trkpt>
      <trkpt lat="39.172802" lon="-0.262961">
        <ele>1.156</ele>
        <time>2019-06-15T10:20:40Z</time>
      </trkpt>
      <trkpt lat="39.172743" lon="-0.263032">
        <ele>1.259</ele>
        <time>2019-06-15T10:20:42Z</time>
      </trkpt>
      <trkpt lat="39.172685" lon="-0.263102">
        <ele>1.714</ele>
        <time>2019-06-15T10:20:44Z</time>
      </trkpt>
      <trkpt lat="39.172628" lon="-0.263166">
        <ele>2.008</ele>
        <time>2019-06-15T10:20:46Z</time>
      </trkpt>
      <trkpt lat="39.172574" lon="-0.263233">
        <ele>2.258</ele>
        <time>2019-06-15T10:20:48Z</time>
      </trkpt>
      <trkpt lat="39.172520" lon="-0.263294">
        <ele>2.142</ele>
        <time>2019-06-15T10:20:50Z</time>
      </trkpt>
      <trkpt lat="39.172462" lon="-0.263355">
        <ele>2.291</ele>
        <time>2019-06-15T10:20:52Z</time>
      </trkpt>
      <trkpt lat="39.172410" lon="-0.263421">
        <ele>2.374</ele>
        <time>2019-06-15T10:20:54Z</time>
      </trkpt>
      <trkpt lat="39.172359" lon="-0.263488">
        <ele>2.216</ele>
        <time>2019-06-15T10:20:56Z</time>
      </trkpt>
      <trkpt lat="39.172304" lon="-0.263558">
        <ele>1.873</ele>
        <time>2019-06-15T10:20:58Z</time>
      </trkpt>
      <trkpt lat="39.172247" lon="-0.263628">
        <ele>1.242</ele>
        <time>2019-06-15T10:21:00Z</time>
      </trkpt>
      <trkpt lat="39.172190" lon="-0.263697">
        <ele>1.087</ele>
        <time>2019-06-15T10:21:02Z</time>
      </trkpt>
      <trkpt lat="39.172155" lon="-0.263734">
        <ele>1.098</ele>
        <time>2019-06-15T10:21:03Z</time>
      </trkpt>
      <trkpt lat="39.172115" lon="-0.263771">
        <ele>1.015</ele>
        <time>2019-06-15T10:21:04Z</time>
      </trkpt>
      <trkpt lat="39.172056" lon="-0.263799">
        <ele>1.026</ele>
        <time>2019-06-15T10:21:05Z</time>
      </trkpt>
      <trkpt lat="39.172011" lon="-0.263843">
        <ele>1.008</ele>
        <time>2019-06-15T10:21:06Z</time>
      </trkpt>
      <trkpt lat="39.171939" lon="-0.263923">
        <ele>1.292</ele>
        <time>2019-06-15T10:21:08Z</time>
      </trkpt>
      <trkpt lat="39.171896" lon="-0.263972">
        <ele>1.896</ele>
        <time>2019-06-15T10:21:09Z</time>
      </trkpt>
      <trkpt lat="39.171867" lon="-0.264061">
        <ele>2.335</ele>
        <time>2019-06-15T10:21:10Z</time>
      </trkpt>
      <trkpt lat="39.171836" lon="-0.264116">
        <ele>2.758</ele>
        <time>2019-06-15T10:21:11Z</time>
      </trkpt>
      <trkpt lat="39.171782" lon="-0.264151">
        <ele>3.190</ele>
        <time>2019-06-15T10:21:12Z</time>
      </trkpt>
      <trkpt lat="39.171733" lon="-0.264191">
        <ele>3.527</ele>
        <time>2019-06-15T10:21:13Z</time>
      </trkpt>
      <trkpt lat="39.171702" lon="-0.264235">
        <ele>3.876</ele>
        <time>2019-06-15T10:21:14Z</time>
      </trkpt>
      <trkpt lat="39.171649" lon="-0.264290">
        <ele>4.021</ele>
        <time>2019-06-15T10:21:15Z</time>
      </trkpt>
      <trkpt lat="39.171619" lon="-0.264346">
        <ele>4.131</ele>
        <time>2019-06-15T10:21:16Z</time>
      </trkpt>
      <trkpt lat="39.171571" lon="-0.264402">
        <ele>4.161</ele>
        <time>2019-06-15T10:21:17Z</time>
      </trkpt>
      <trkpt lat="39.171514" lon="-0.264449">
        <ele>4.007</ele>
        <time>2019-06-15T10:21:18Z</time>
      </trkpt>
      <trkpt lat="39.171459" lon="-0.264512">
        <ele>4.008</ele>
        <time>2019-06-15T10:21:19Z</time>
      </trkpt>
      <trkpt lat="39.171420" lon="-0.264583">
        <ele>4.056</ele>
        <time>2019-06-15T10:21:20Z</time>
      </trkpt>
      <trkpt lat="39.171364" lon="-0.264640">
        <ele>3.820</ele>
        <time>2019-06-15T10:21:21Z</time>
      </trkpt>
      <trkpt lat="39.171315" lon="-0.264713">
        <ele>3.519</ele>
        <time>2019-06-15T10:21:22Z</time>
      </trkpt>
      <trkpt lat="39.171264" lon="-0.264770">
        <ele>3.372</ele>
        <time>2019-06-15T10:21:23Z</time>
      </trkpt>
      <trkpt lat="39.171207" lon="-0.264819">
        <ele>3.144</ele>
        <time>2019-06-15T10:21:24Z</time>
      </trkpt>
      <trkpt lat="39.171150" lon="-0.264866">
        <ele>3.231</ele>
        <time>2019-06-15T10:21:25Z</time>
      </trkpt>
      <trkpt lat="39.170980" lon="-0.264994">
        <ele>3.530</ele>
        <time>2019-06-15T10:21:30Z</time>
      </trkpt>
      <trkpt lat="39.170980" lon="-0.264994">
        <ele>3.525</ele>
        <time>2019-06-15T10:21:30Z</time>
      </trkpt>
      <trkpt lat="39.170980" lon="-0.264994">
        <ele>3.514</ele>
        <time>2019-06-15T10:21:30Z</time>
      </trkpt>
      <trkpt lat="39.170980" lon="-0.264994">
        <ele>3.554</ele>
        <time>2019-06-15T10:21:30Z</time>
      </trkpt>
      <trkpt lat="39.170980" lon="-0.264994">
        <ele>3.509</ele>
        <time>2019-06-15T10:21:30Z</time>
      </trkpt>
      <trkpt lat="39.171033" lon="-0.264943">
        <ele>3.308</ele>
        <time>2019-06-15T10:22:10Z</time>
      </trkpt>
      <trkpt lat="39.171098" lon="-0.264861">
        <ele>3.054</ele>
        <time>2019-06-15T10:22:11Z</time>
      </trkpt>
      <trkpt lat="39.171140" lon="-0.264834">
        <ele>2.918</ele>
        <time>2019-06-15T10:22:12Z</time>
      </trkpt>
      <trkpt lat="39.171196" lon="-0.264775">
        <ele>2.927</ele>
        <time>2019-06-15T10:22:14Z</time>
      </trkpt>
      <trkpt lat="39.171260" lon="-0.264714">
        <ele>3.110</ele>
        <time>2019-06-15T10:22:16Z</time>
      </trkpt>
      <trkpt lat="39.171320" lon="-0.264646">
        <ele>3.532</ele>
        <time>2019-06-15T10:22:18Z</time>
      </trkpt>
      <trkpt lat="39.171378" lon="-0.264579">
        <ele>3.929</ele>
        <time>2019-06-15T10:22:20Z</time>
      </trkpt>
      <trkpt lat="39.171437" lon="-0.264512">
        <ele>4.038</ele>
        <time>2019-06-15T10:22:22Z</time>
      </trkpt>
      <trkpt lat="39.171498" lon="-0.264444">
        <ele>4.063</ele>
        <time>2019-06-15T10:22:24Z</time>
      </trkpt>
      <trkpt lat="39.171544" lon="-0.264392">
        <ele>4.111</ele>
        <time>2019-06-15T10:22:26Z</time>
      </trkpt>
      <trkpt lat="39.171577" lon="-0.264342">
        <ele>4.121</ele>
        <time>2019-06-15T10:22:28Z</time>
      </trkpt>
      <trkpt lat="39.171649" lon="-0.264237">
        <ele>4.003</ele>
        <time>2019-06-15T10:22:32Z</time>
      </trkpt>
      <trkpt lat="39.171649" lon="-0.264237">
        <ele>4.008</ele>
        <time>2019-06-15T10:22:32Z</time>
      </trkpt>
      <trkpt lat="39.171649" lon="-0.264237">
        <ele>4.064</ele>
        <time>2019-06-15T10:22:32Z</time>
      </trkpt>
      <trkpt lat="39.171649" lon="-0.264237">
        <ele>4.098</ele>
        <time>2019-06-15T10:22:32Z</time>
      </trkpt>
      <trkpt lat="39.171682" lon="-0.264188">
        <ele>3.937</ele>
        <time>2019-06-15T10:22:34Z</time>
      </trkpt>
      <trkpt lat="39.171682" lon="-0.264188">
        <ele>3.930</ele>
        <time>2019-06-15T10:22:34Z</time>
      </trkpt>
      <trkpt lat="39.171716" lon="-0.264145">
        <ele>3.672</ele>
        <time>2019-06-15T10:22:37Z</time>
      </trkpt>
      <trkpt lat="39.171708" lon="-0.264211">
        <ele>3.759</ele>
        <time>2019-06-15T10:22:46Z</time>
      </trkpt>
      <trkpt lat="39.171674" lon="-0.264250">
        <ele>4.068</ele>
        <time>2019-06-15T10:22:48Z</time>
      </trkpt>
      <trkpt lat="39.171587" lon="-0.264290">
        <ele>4.273</ele>
        <time>2019-06-15T10:22:49Z</time>
      </trkpt>
      <trkpt lat="39.171545" lon="-0.264316">
        <ele>4.255</ele>
        <time>2019-06-15T10:22:50Z</time>
      </trkpt>
      <trkpt lat="39.171501" lon="-0.264344">
        <ele>4.207</ele>
        <time>2019-06-15T10:22:52Z</time>
      </trkpt>
      <trkpt lat="39.171436" lon="-0.264341">
        <ele>4.317</ele>
        <time>2019-06-15T10:22:56Z</time>
      </trkpt>
      <trkpt lat="39.171436" lon="-0.264341">
        <ele>4.308</ele>
        <time>2019-06-15T10:22:56Z</time>
      </trkpt>
      <trkpt lat="39.171436" lon="-0.264341">
        <ele>4.318</ele>
        <time>2019-06-15T10:22:56Z</time>
      </trkpt>
      <trkpt lat="39.171436" lon="-0.264341">
        <ele>4.382</ele>
        <time>2019-06-15T10:22:56Z</time>
      </trkpt>
      <trkpt lat="39.171469" lon="-0.264220">
        <ele>4.671</ele>
        <time>2019-06-15T10:23:01Z</time>
      </trkpt>
      <trkpt lat="39.171469" lon="-0.264220">
        <ele>4.664</ele>
        <time>2019-06-15T10:23:01Z</time>
      </trkpt>
      <trkpt lat="39.171469" lon="-0.264220">
        <ele>4.666</ele>
        <time>2019-06-15T10:23:01Z</time>
      </trkpt>
      <trkpt lat="39.171469" lon="-0.264220">
        <ele>4.653</ele>
        <time>2019-06-15T10:23:01Z</time>
      </trkpt>
      <trkpt lat="39.171469" lon="-0.264220">
        <ele>4.612</ele>
        <time>2019-06-15T10:23:01Z</time>
      </trkpt>
      <trkpt lat="39.171498" lon="-0.264169">
        <ele>4.627</ele>
        <time>2019-06-15T10:23:08Z</time>
      </trkpt>
      <trkpt lat="39.171530" lon="-0.264124">
        <ele>4.644</ele>
        <time>2019-06-15T10:23:12Z</time>
      </trkpt>
      <trkpt lat="39.171530" lon="-0.264124">
        <ele>4.605</ele>
        <time>2019-06-15T10:23:12Z</time>
      </trkpt>
      <trkpt lat="39.171530" lon="-0.264124">
        <ele>4.615</ele>
        <time>2019-06-15T10:23:12Z</time>
      </trkpt>
      <trkpt lat="39.171530" lon="-0.264124">
        <ele>4.608</ele>
        <time>2019-06-15T10:23:12Z</time>
      </trkpt>
      <trkpt lat="39.171665" lon="-0.263964">
        <ele>4.077</ele>
        <time>2019-06-15T10:23:18Z</time>
      </trkpt>
      <trkpt lat="39.171665" lon="-0.263964">
        <ele>4.051</ele>
        <time>2019-06-15T10:23:18Z</time>
      </trkpt>
      <trkpt lat="39.171665" lon="-0.263964">
        <ele>4.070</ele>
        <time>2019-06-15T10:23:18Z</time>
      </trkpt>
      <trkpt lat="39.171665" lon="-0.263964">
        <ele>4.063</ele>
        <time>2019-06-15T10:23:18Z</time>
      </trkpt>
      <trkpt lat="39.171665" lon="-0.263964">
        <ele>4.095</ele>
        <time>2019-06-15T10:23:18Z</time>
      </trkpt>
      <trkpt lat="39.171665" lon="-0.263964">
        <ele>4.022</ele>
        <time>2019-06-15T10:23:18Z</time>
      </trkpt>
      <trkpt lat="39.171731" lon="-0.263797">
        <ele>3.311</ele>
        <time>2019-06-15T10:23:24Z</time>
      </trkpt>
      <trkpt lat="39.171731" lon="-0.263797">
        <ele>3.326</ele>
        <time>2019-06-15T10:23:24Z</time>
      </trkpt>
      <trkpt lat="39.171731" lon="-0.263797">
        <ele>3.334</ele>
        <time>2019-06-15T10:23:24Z</time>
      </trkpt>
      <trkpt lat="39.171731" lon="-0.263797">
        <ele>3.355</ele>
        <time>2019-06-15T10:23:24Z</time>
      </trkpt>
      <trkpt lat="39.171731" lon="-0.263797">
        <ele>3.310</ele>
        <time>2019-06-15T10:23:24Z</time>
      </trkpt>
      <trkpt lat="39.171731" lon="-0.263797">
        <ele>3.308</ele>
        <time>2019-06-15T10:23:24Z</time>
      </trkpt>
      <trkpt lat="39.171722" lon="-0.263727">
        <ele>3.436</ele>
        <time>2019-06-15T10:23:27Z</time>
      </trkpt>
      <trkpt lat="39.171722" lon="-0.263727">
        <ele>3.420</ele>
        <time>2019-06-15T10:23:27Z</time>
      </trkpt>
      <trkpt lat="39.171722" lon="-0.263727">
        <ele>3.429</ele>
        <time>2019-06-15T10:23:27Z</time>
      </trkpt>
      <trkpt lat="39.171624" lon="-0.263661">
        <ele>4.352</ele>
        <time>2019-06-15T10:23:32Z</time>
      </trkpt>
      <trkpt lat="39.171624" lon="-0.263661">
        <ele>4.394</ele>
        <time>2019-06-15T10:23:32Z</time>
      </trkpt>
      <trkpt lat="39.171624" lon="-0.263661">
        <ele>4.381</ele>
        <time>2019-06-15T10:23:32Z</time>
      </trkpt>
      <trkpt lat="39.171624" lon="-0.263661">
        <ele>4.390</ele>
        <time>2019-06-15T10:23:32Z</time>
      </trkpt>
      <trkpt lat="39.171624" lon="-0.263661">
        <ele>4.385</ele>
        <time>2019-06-15T10:23:32Z</time>
      </trkpt>
      <trkpt lat="39.171550" lon="-0.263621">
        <ele>4.816</ele>
        <time>2019-06-15T10:23:35Z</time>
      </trkpt>
      <trkpt lat="39.171550" lon="-0.263621">
        <ele>4.876</ele>
        <time>2019-06-15T10:23:35Z</time>
      </trkpt>
      <trkpt lat="39.171550" lon="-0.263621">
        <ele>4.813</ele>
        <time>2019-06-15T10:23:35Z</time>
      </trkpt>
      <trkpt lat="39.171410" lon="-0.263534">
        <ele>5.508</ele>
        <time>2019-06-15T10:23:40Z</time>
      </trkpt>
      <trkpt lat="39.171410" lon="-0.263534">
        <ele>5.544</ele>
        <time>2019-06-15T10:23:40Z</time>
      </trkpt>
      <trkpt lat="39.171410" lon="-0.263534">
        <ele>5.528</ele>
        <time>2019-06-15T10:23:40Z</time>
      </trkpt>
      <trkpt lat="39.171410" lon="-0.263534">
        <ele>5.517</ele>
        <time>2019-06-15T10:23:40Z</time>
      </trkpt>
      <trkpt lat="39.171410" lon="-0.263534">
        <ele>5.540</ele>
        <time>2019-06-15T10:23:40Z</time>
      </trkpt>
      <trkpt lat="39.171271" lon="-0.263447">
        <ele>5.412</ele>
        <time>2019-06-15T10:23:45Z</time>
      </trkpt>
      <trkpt lat="39.171271" lon="-0.263447">
        <ele>5.459</ele>
        <time>2019-06-15T10:23:45Z</time>
      </trkpt>
      <trkpt lat="39.171271" lon="-0.263447">
        <ele>5.418</ele>
        <time>2019-06-15T10:23:45Z</time>
      </trkpt>
      <trkpt lat="39.171271" lon="-0.263447">
        <ele>5.473</ele>
        <time>2019-06-15T10:23:45Z</time>
      </trkpt>
      <trkpt lat="39.171271" lon="-0.263447">
        <ele>5.437</ele>
        <time>2019-06-15T10:23:45Z</time>
      </trkpt>
      <trkpt lat="39.171213" lon="-0.263410">
        <ele>5.349</ele>
        <time>2019-06-15T10:23:47Z</time>
      </trkpt>
      <trkpt lat="39.171213" lon="-0.263410">
        <ele>5.313</ele>
        <time>2019-06-15T10:23:47Z</time>
      </trkpt>
      <trkpt lat="39.171152" lon="-0.263369">
        <ele>5.108</ele>
        <time>2019-06-15T10:23:49Z</time>
      </trkpt>
      <trkpt lat="39.171044" lon="-0.263293">
        <ele>4.676</ele>
        <time>2019-06-15T10:23:51Z</time>
      </trkpt>
      <trkpt lat="39.170962" lon="-0.263245">
        <ele>4.370</ele>
        <time>2019-06-15T10:23:53Z</time>
      </trkpt>
      <trkpt lat="39.170890" lon="-0.263223">
        <ele>4.199</ele>
        <time>2019-06-15T10:23:54Z</time>
      </trkpt>
      <trkpt lat="39.170816" lon="-0.263171">
        <ele>4.012</ele>
        <time>2019-06-15T10:23:56Z</time>
      </trkpt>
      <trkpt lat="39.170777" lon="-0.263139">
        <ele>4.124</ele>
        <time>2019-06-15T10:23:57Z</time>
      </trkpt>
      <trkpt lat="39.170696" lon="-0.263099">
        <ele>4.171</ele>
        <time>2019-06-15T10:23:59Z</time>
      </trkpt>
      <trkpt lat="39.170637" lon="-0.263049">
        <ele>4.090</ele>
        <time>2019-06-15T10:24:01Z</time>
      </trkpt>
      <trkpt lat="39.170574" lon="-0.262989">
        <ele>3.855</ele>
        <time>2019-06-15T10:24:03Z</time>
      </trkpt>
      <trkpt lat="39.170514" lon="-0.262918">
        <ele>3.566</ele>
        <time>2019-06-15T10:24:05Z</time>
      </trkpt>
      <trkpt lat="39.170468" lon="-0.262893">
        <ele>3.429</ele>
        <time>2019-06-15T10:24:06Z</time>
      </trkpt>
      <trkpt lat="39.170422" lon="-0.262864">
        <ele>3.321</ele>
        <time>2019-06-15T10:24:07Z</time>
      </trkpt>
      <trkpt lat="39.170372" lon="-0.262844">
        <ele>3.208</ele>
        <time>2019-06-15T10:24:08Z</time>
      </trkpt>
      <trkpt lat="39.170319" lon="-0.262820">
        <ele>3.279</ele>
        <time>2019-06-15T10:24:10Z</time>
      </trkpt>
      <trkpt lat="39.170266" lon="-0.262788">
        <ele>3.183</ele>
        <time>2019-06-15T10:24:11Z</time>
      </trkpt>
      <trkpt lat="39.170192" lon="-0.262719">
        <ele>3.592</ele>
        <time>2019-06-15T10:24:13Z</time>
      </trkpt>
      <trkpt lat="39.170146" lon="-0.262688">
        <ele>3.675</ele>
        <time>2019-06-15T10:24:14Z</time>
      </trkpt>
      <trkpt lat="39.170075" lon="-0.262656">
        <ele>3.827</ele>
        <time>2019-06-15T10:24:16Z</time>
      </trkpt>
      <trkpt lat="39.170019" lon="-0.262639">
        <ele>4.084</ele>
        <time>2019-06-15T10:24:17Z</time>
      </trkpt>
      <trkpt lat="39.169976" lon="-0.262610">
        <ele>3.993</ele>
        <time>2019-06-15T10:24:18Z</time>
      </trkpt>
      <trkpt lat="39.169906" lon="-0.262584">
        <ele>3.498</ele>
        <time>2019-06-15T10:24:19Z</time>
      </trkpt>
      <trkpt lat="39.169869" lon="-0.262547">
        <ele>3.116</ele>
        <time>2019-06-15T10:24:20Z</time>
      </trkpt>
      <trkpt lat="39.169812" lon="-0.262546">
        <ele>2.876</ele>
        <time>2019-06-15T10:24:21Z</time>
      </trkpt>
      <trkpt lat="39.169721" lon="-0.262511">
        <ele>2.013</ele>
        <time>2019-06-15T10:24:23Z</time>
      </trkpt>
      <trkpt lat="39.169669" lon="-0.262487">
        <ele>2.008</ele>
        <time>2019-06-15T10:24:24Z</time>
      </trkpt>
      <trkpt lat="39.169581" lon="-0.262447">
        <ele>2.074</ele>
        <time>2019-06-15T10:24:26Z</time>
      </trkpt>
      <trkpt lat="39.169525" lon="-0.262426">
        <ele>2.088</ele>
        <time>2019-06-15T10:24:27Z</time>
      </trkpt>
      <trkpt lat="39.169480" lon="-0.262397">
        <ele>2.077</ele>
        <time>2019-06-15T10:24:28Z</time>
      </trkpt>
      <trkpt lat="39.169436" lon="-0.262368">
        <ele>2.010</ele>
        <time>2019-06-15T10:24:29Z</time>
      </trkpt>
      <trkpt lat="39.169393" lon="-0.262340">
        <ele>1.982</ele>
        <time>2019-06-15T10:24:30Z</time>
      </trkpt>
      <trkpt lat="39.169351" lon="-0.262310">
        <ele>1.889</ele>
        <time>2019-06-15T10:24:31Z</time>
      </trkpt>
      <trkpt lat="39.169284" lon="-0.262239">
        <ele>1.568</ele>
        <time>2019-06-15T10:24:33Z</time>
      </trkpt>
      <trkpt lat="39.169229" lon="-0.262204">
        <ele>1.353</ele>
        <time>2019-06-15T10:24:34Z</time>
      </trkpt>
      <trkpt lat="39.169181" lon="-0.262169">
        <ele>1.239</ele>
        <time>2019-06-15T10:24:35Z</time>
      </trkpt>
      <trkpt lat="39.169140" lon="-0.262134">
        <ele>1.401</ele>
        <time>2019-06-15T10:24:36Z</time>
      </trkpt>
      <trkpt lat="39.169086" lon="-0.262103">
        <ele>1.621</ele>
        <time>2019-06-15T10:24:37Z</time>
      </trkpt>
      <trkpt lat="39.169035" lon="-0.262085">
        <ele>1.708</ele>
        <time>2019-06-15T10:24:38Z</time>
      </trkpt>
      <trkpt lat="39.168987" lon="-0.262063">
        <ele>1.816</ele>
        <time>2019-06-15T10:24:39Z</time>
      </trkpt>
      <trkpt lat="39.168937" lon="-0.262030">
        <ele>1.960</ele>
        <time>2019-06-15T10:24:40Z</time>
      </trkpt>
      <trkpt lat="39.168884" lon="-0.261990">
        <ele>2.049</ele>
        <time>2019-06-15T10:24:41Z</time>
      </trkpt>
      <trkpt lat="39.168838" lon="-0.261958">
        <ele>1.812</ele>
        <time>2019-06-15T10:24:42Z</time>
      </trkpt>
      <trkpt lat="39.168786" lon="-0.261930">
        <ele>1.614</ele>
        <time>2019-06-15T10:24:43Z</time>
      </trkpt>
      <trkpt lat="39.168745" lon="-0.261896">
        <ele>1.431</ele>
        <time>2019-06-15T10:24:44Z</time>
      </trkpt>
      <trkpt lat="39.168690" lon="-0.261866">
        <ele>1.160</ele>
        <time>2019-06-15T10:24:45Z</time>
      </trkpt>
      <trkpt lat="39.168639" lon="-0.261837">
        <ele>0.835</ele>
        <time>2019-06-15T10:24:46Z</time>
      </trkpt>
      <trkpt lat="39.168586" lon="-0.261799">
        <ele>0.555</ele>
        <time>2019-06-15T10:24:47Z</time>
      </trkpt>
      <trkpt lat="39.168543" lon="-0.261764">
        <ele>0.507</ele>
        <time>2019-06-15T10:24:48Z</time>
      </trkpt>
      <trkpt lat="39.168495" lon="-0.261736">
        <ele>0.617</ele>
        <time>2019-06-15T10:24:49Z</time>
      </trkpt>
      <trkpt lat="39.168442" lon="-0.261706">
        <ele>0.708</ele>
        <time>2019-06-15T10:24:50Z</time>
      </trkpt>
      <trkpt lat="39.168391" lon="-0.261672">
        <ele>0.848</ele>
        <time>2019-06-15T10:24:51Z</time>
      </trkpt>
      <trkpt lat="39.168352" lon="-0.261638">
        <ele>0.942</ele>
        <time>2019-06-15T10:24:52Z</time>
      </trkpt>
      <trkpt lat="39.168308" lon="-0.261605">
        <ele>1.091</ele>
        <time>2019-06-15T10:24:53Z</time>
      </trkpt>
      <trkpt lat="39.168261" lon="-0.261570">
        <ele>1.124</ele>
        <time>2019-06-15T10:24:54Z</time>
      </trkpt>
      <trkpt lat="39.168213" lon="-0.261534">
        <ele>1.276</ele>
        <time>2019-06-15T10:24:55Z</time>
      </trkpt>
      <trkpt lat="39.168160" lon="-0.261498">
        <ele>1.483</ele>
        <time>2019-06-15T10:24:56Z</time>
      </trkpt>
      <trkpt lat="39.168106" lon="-0.261470">
        <ele>1.642</ele>
        <time>2019-06-15T10:24:57Z</time>
      </trkpt>
      <trkpt lat="39.168051" lon="-0.261434">
        <ele>1.987</ele>
        <time>2019-06-15T10:24:58Z</time>
      </trkpt>
      <trkpt lat="39.167982" lon="-0.261414">
        <ele>2.234</ele>
        <time>2019-06-15T10:24:59Z</time>
      </trkpt>
      <trkpt lat="39.167935" lon="-0.261375">
        <ele>2.455</ele>
        <time>2019-06-15T10:25:00Z</time>
      </trkpt>
      <trkpt lat="39.167888" lon="-0.261334">
        <ele>2.510</ele>
        <time>2019-06-15T10:25:01Z</time>
      </trkpt>
      <trkpt lat="39.167839" lon="-0.261305">
        <ele>2.508</ele>
        <time>2019-06-15T10:25:02Z</time>
      </trkpt>
      <trkpt lat="39.167796" lon="-0.261276">
        <ele>2.666</ele>
        <time>2019-06-15T10:25:03Z</time>
      </trkpt>
      <trkpt lat="39.167755" lon="-0.261241">
        <ele>2.560</ele>
        <time>2019-06-15T10:25:04Z</time>
      </trkpt>
      <trkpt lat="39.167709" lon="-0.261214">
        <ele>2.459</ele>
        <time>2019-06-15T10:25:05Z</time>
      </trkpt>
      <trkpt lat="39.167663" lon="-0.261175">
        <ele>2.222</ele>
        <time>2019-06-15T10:25:06Z</time>
      </trkpt>
      <trkpt lat="39.167616" lon="-0.261127">
        <ele>2.164</ele>
        <time>2019-06-15T10:25:07Z</time>
      </trkpt>
      <trkpt lat="39.167562" lon="-0.261090">
        <ele>1.921</ele>
        <time>2019-06-15T10:25:08Z</time>
      </trkpt>
      <trkpt lat="39.167514" lon="-0.261047">
        <ele>1.810</ele>
        <time>2019-06-15T10:25:09Z</time>
      </trkpt>
      <trkpt lat="39.167467" lon="-0.261013">
        <ele>1.575</ele>
        <time>2019-06-15T10:25:10Z</time>
      </trkpt>
      <trkpt lat="39.167415" lon="-0.260976">
        <ele>1.183</ele>
        <time>2019-06-15T10:25:11Z</time>
      </trkpt>
      <trkpt lat="39.167368" lon="-0.260942">
        <ele>0.725</ele>
        <time>2019-06-15T10:25:12Z</time>
      </trkpt>
      <trkpt lat="39.167314" lon="-0.260909">
        <ele>0.417</ele>
        <time>2019-06-15T10:25:13Z</time>
      </trkpt>
      <trkpt lat="39.167272" lon="-0.260862">
        <ele>0.208</ele>
        <time>2019-06-15T10:25:14Z</time>
      </trkpt>
      <trkpt lat="39.167226" lon="-0.260834">
        <ele>0.031</ele>
        <time>2019-06-15T10:25:15Z</time>
      </trkpt>
      <trkpt lat="39.167173" lon="-0.260795">
        <ele>0.225</ele>
        <time>2019-06-15T10:25:16Z</time>
      </trkpt>
      <trkpt lat="39.167133" lon="-0.260765">
        <ele>0.344</ele>
        <time>2019-06-15T10:25:17Z</time>
      </trkpt>
      <trkpt lat="39.167054" lon="-0.260696">
        <ele>0.847</ele>
        <time>2019-06-15T10:25:19Z</time>
      </trkpt>
      <trkpt lat="39.167002" lon="-0.260664">
        <ele>1.179</ele>
        <time>2019-06-15T10:25:20Z</time>
      </trkpt>
      <trkpt lat="39.166943" lon="-0.260635">
        <ele>1.486</ele>
        <time>2019-06-15T10:25:21Z</time>
      </trkpt>
      <trkpt lat="39.166886" lon="-0.260598">
        <ele>1.935</ele>
        <time>2019-06-15T10:25:22Z</time>
      </trkpt>
      <trkpt lat="39.166841" lon="-0.260557">
        <ele>2.490</ele>
        <time>2019-06-15T10:25:23Z</time>
      </trkpt>
      <trkpt lat="39.166798" lon="-0.260528">
        <ele>2.729</ele>
        <time>2019-06-15T10:25:24Z</time>
      </trkpt>
      <trkpt lat="39.166759" lon="-0.260493">
        <ele>3.000</ele>
        <time>2019-06-15T10:25:25Z</time>
      </trkpt>
      <trkpt lat="39.166714" lon="-0.260449">
        <ele>3.320</ele>
        <time>2019-06-15T10:25:26Z</time>
      </trkpt>
      <trkpt lat="39.166665" lon="-0.260407">
        <ele>3.508</ele>
        <time>2019-06-15T10:25:27Z</time>
      </trkpt>
      <trkpt lat="39.166623" lon="-0.260361">
        <ele>3.575</ele>
        <time>2019-06-15T10:25:28Z</time>
      </trkpt>
      <trkpt lat="39.166585" lon="-0.260329">
        <ele>3.339</ele>
        <time>2019-06-15T10:25:29Z</time>
      </trkpt>
      <trkpt lat="39.166536" lon="-0.260298">
        <ele>3.198</ele>
        <time>2019-06-15T10:25:30Z</time>
      </trkpt>
      <trkpt lat="39.166485" lon="-0.260260">
        <ele>2.781</ele>
        <time>2019-06-15T10:25:31Z</time>
      </trkpt>
      <trkpt lat="39.166434" lon="-0.260221">
        <ele>2.273</ele>
        <time>2019-06-15T10:25:32Z</time>
      </trkpt>
      <trkpt lat="39.166377" lon="-0.260183">
        <ele>1.630</ele>
        <time>2019-06-15T10:25:33Z</time>
      </trkpt>
      <trkpt lat="39.166327" lon="-0.260153">
        <ele>1.069</ele>
        <time>2019-06-15T10:25:34Z</time>
      </trkpt>
      <trkpt lat="39.166283" lon="-0.260119">
        <ele>0.424</ele>
        <time>2019-06-15T10:25:35Z</time>
      </trkpt>
      <trkpt lat="39.166237" lon="-0.260079">
        <ele>-0.224</ele>
        <time>2019-06-15T10:25:36Z</time>
      </trkpt>
      <trkpt lat="39.166177" lon="-0.260053">
        <ele>-1.004</ele>
        <time>2019-06-15T10:25:37Z</time>
      </trkpt>
      <trkpt lat="39.166145" lon="-0.260011">
        <ele>-1.614</ele>
        <time>2019-06-15T10:25:38Z</time>
      </trkpt>
      <trkpt lat="39.166104" lon="-0.259975">
        <ele>-2.108</ele>
        <time>2019-06-15T10:25:39Z</time>
      </trkpt>
      <trkpt lat="39.166052" lon="-0.259943">
        <ele>-1.925</ele>
        <time>2019-06-15T10:25:40Z</time>
      </trkpt>
      <trkpt lat="39.165978" lon="-0.259881">
        <ele>-1.739</ele>
        <time>2019-06-15T10:25:42Z</time>
      </trkpt>
      <trkpt lat="39.165929" lon="-0.259806">
        <ele>-1.698</ele>
        <time>2019-06-15T10:25:44Z</time>
      </trkpt>
      <trkpt lat="39.165837" lon="-0.259758">
        <ele>-1.071</ele>
        <time>2019-06-15T10:25:46Z</time>
      </trkpt>
      <trkpt lat="39.165780" lon="-0.259735">
        <ele>-0.123</ele>
        <time>2019-06-15T10:25:47Z</time>
      </trkpt>
      <trkpt lat="39.165692" lon="-0.259703">
        <ele>1.760</ele>
        <time>2019-06-15T10:25:49Z</time>
      </trkpt>
      <trkpt lat="39.165648" lon="-0.259683">
        <ele>2.719</ele>
        <time>2019-06-15T10:25:50Z</time>
      </trkpt>
      <trkpt lat="39.165592" lon="-0.259653">
        <ele>4.054</ele>
        <time>2019-06-15T10:25:51Z</time>
      </trkpt>
      <trkpt lat="39.165555" lon="-0.259620">
        <ele>5.131</ele>
        <time>2019-06-15T10:25:52Z</time>
      </trkpt>
      <trkpt lat="39.165512" lon="-0.259593">
        <ele>5.461</ele>
        <time>2019-06-15T10:25:53Z</time>
      </trkpt>
      <trkpt lat="39.165430" lon="-0.259545">
        <ele>5.807</ele>
        <time>2019-06-15T10:25:55Z</time>
      </trkpt>
      <trkpt lat="39.165387" lon="-0.259520">
        <ele>5.908</ele>
        <time>2019-06-15T10:25:56Z</time>
      </trkpt>
      <trkpt lat="39.165291" lon="-0.259490">
        <ele>5.986</ele>
        <time>2019-06-15T10:25:58Z</time>
      </trkpt>
      <trkpt lat="39.165244" lon="-0.259462">
        <ele>6.080</ele>
        <time>2019-06-15T10:25:59Z</time>
      </trkpt>
      <trkpt lat="39.165200" lon="-0.259429">
        <ele>6.029</ele>
        <time>2019-06-15T10:26:00Z</time>
      </trkpt>
      <trkpt lat="39.165152" lon="-0.259403">
        <ele>6.092</ele>
        <time>2019-06-15T10:26:01Z</time>
      </trkpt>
      <trkpt lat="39.165104" lon="-0.259385">
        <ele>5.984</ele>
        <time>2019-06-15T10:26:02Z</time>
      </trkpt>
      <trkpt lat="39.165054" lon="-0.259364">
        <ele>5.611</ele>
        <time>2019-06-15T10:26:03Z</time>
      </trkpt>
      <trkpt lat="39.165003" lon="-0.259341">
        <ele>5.310</ele>
        <time>2019-06-15T10:26:04Z</time>
      </trkpt>
      <trkpt lat="39.164950" lon="-0.259308">
        <ele>4.735</ele>
        <time>2019-06-15T10:26:05Z</time>
      </trkpt>
      <trkpt lat="39.164902" lon="-0.259291">
        <ele>4.259</ele>
        <time>2019-06-15T10:26:06Z</time>
      </trkpt>
      <trkpt lat="39.164804" lon="-0.259265">
        <ele>3.303</ele>
        <time>2019-06-15T10:26:08Z</time>
      </trkpt>
      <trkpt lat="39.164746" lon="-0.259254">
        <ele>2.823</ele>
        <time>2019-06-15T10:26:09Z</time>
      </trkpt>
      <trkpt lat="39.164671" lon="-0.259227">
        <ele>2.608</ele>
        <time>2019-06-15T10:26:11Z</time>
      </trkpt>
      <trkpt lat="39.164609" lon="-0.259229">
        <ele>2.858</ele>
        <time>2019-06-15T10:26:14Z</time>
      </trkpt>
      <trkpt lat="39.164564" lon="-0.259241">
        <ele>3.042</ele>
        <time>2019-06-15T10:26:16Z</time>
      </trkpt>
      <trkpt lat="39.164515" lon="-0.259253">
        <ele>3.131</ele>
        <time>2019-06-15T10:26:21Z</time>
      </trkpt>
      <trkpt lat="39.164422" lon="-0.259263">
        <ele>3.454</ele>
        <time>2019-06-15T10:26:39Z</time>
      </trkpt>
      <trkpt lat="39.164350" lon="-0.259325">
        <ele>3.796</ele>
        <time>2019-06-15T10:26:40Z</time>
      </trkpt>
      <trkpt lat="39.164305" lon="-0.259361">
        <ele>3.913</ele>
        <time>2019-06-15T10:26:42Z</time>
      </trkpt>
      <trkpt lat="39.164240" lon="-0.259407">
        <ele>4.052</ele>
        <time>2019-06-15T10:26:44Z</time>
      </trkpt>
      <trkpt lat="39.164192" lon="-0.259446">
        <ele>4.077</ele>
        <time>2019-06-15T10:26:46Z</time>
      </trkpt>
      <trkpt lat="39.164139" lon="-0.259483">
        <ele>3.965</ele>
        <time>2019-06-15T10:26:48Z</time>
      </trkpt>
      <trkpt lat="39.164075" lon="-0.259518">
        <ele>3.768</ele>
        <time>2019-06-15T10:26:50Z</time>
      </trkpt>
      <trkpt lat="39.164007" lon="-0.259562">
        <ele>3.414</ele>
        <time>2019-06-15T10:26:52Z</time>
      </trkpt>
      <trkpt lat="39.163950" lon="-0.259608">
        <ele>3.208</ele>
        <time>2019-06-15T10:26:54Z</time>
      </trkpt>
      <trkpt lat="39.163888" lon="-0.259656">
        <ele>3.069</ele>
        <time>2019-06-15T10:26:56Z</time>
      </trkpt>
      <trkpt lat="39.163823" lon="-0.259717">
        <ele>3.213</ele>
        <time>2019-06-15T10:26:58Z</time>
      </trkpt>
      <trkpt lat="39.163778" lon="-0.259763">
        <ele>3.592</ele>
        <time>2019-06-15T10:27:00Z</time>
      </trkpt>
      <trkpt lat="39.163743" lon="-0.259799">
        <ele>3.775</ele>
        <time>2019-06-15T10:27:02Z</time>
      </trkpt>
      <trkpt lat="39.163697" lon="-0.259840">
        <ele>3.897</ele>
        <time>2019-06-15T10:27:04Z</time>
      </trkpt>
      <trkpt lat="39.163653" lon="-0.259882">
        <ele>3.964</ele>
        <time>2019-06-15T10:27:06Z</time>
      </trkpt>
      <trkpt lat="39.163613" lon="-0.259928">
        <ele>4.013</ele>
        <time>2019-06-15T10:27:08Z</time>
      </trkpt>
      <trkpt lat="39.163568" lon="-0.259962">
        <ele>3.768</ele>
        <time>2019-06-15T10:27:10Z</time>
      </trkpt>
      <trkpt lat="39.163522" lon="-0.259990">
        <ele>3.492</ele>
        <time>2019-06-15T10:27:15Z</time>
      </trkpt>
      <trkpt lat="39.163477" lon="-0.260018">
        <ele>3.073</ele>
        <time>2019-06-15T10:27:23Z</time>
      </trkpt>
      <trkpt lat="39.163463" lon="-0.260076">
        <ele>2.820</ele>
        <time>2019-06-15T10:27:31Z</time>
      </trkpt>
      <trkpt lat="39.163514" lon="-0.260068">
        <ele>3.108</ele>
        <time>2019-06-15T10:27:41Z</time>
      </trkpt>
      <trkpt lat="39.163554" lon="-0.260031">
        <ele>3.572</ele>
        <time>2019-06-15T10:27:45Z</time>
      </trkpt>
      <trkpt lat="39.163586" lon="-0.259971">
        <ele>3.896</ele>
        <time>2019-06-15T10:28:32Z</time>
      </trkpt>
      <trkpt lat="39.163634" lon="-0.259929">
        <ele>4.015</ele>
        <time>2019-06-15T10:28:34Z</time>
      </trkpt>
      <trkpt lat="39.163704" lon="-0.259866">
        <ele>3.818</ele>
        <time>2019-06-15T10:28:35Z</time>
      </trkpt>
      <trkpt lat="39.163749" lon="-0.259822">
        <ele>3.730</ele>
        <time>2019-06-15T10:28:36Z</time>
      </trkpt>
      <trkpt lat="39.163829" lon="-0.259762">
        <ele>3.377</ele>
        <time>2019-06-15T10:28:38Z</time>
      </trkpt>
      <trkpt lat="39.163829" lon="-0.259762">
        <ele>3.376</ele>
        <time>2019-06-15T10:28:38Z</time>
      </trkpt>
      <trkpt lat="39.163905" lon="-0.259702">
        <ele>3.181</ele>
        <time>2019-06-15T10:28:40Z</time>
      </trkpt>
      <trkpt lat="39.163951" lon="-0.259676">
        <ele>3.257</ele>
        <time>2019-06-15T10:28:41Z</time>
      </trkpt>
      <trkpt lat="39.164001" lon="-0.259642">
        <ele>3.400</ele>
        <time>2019-06-15T10:28:42Z</time>
      </trkpt>
      <trkpt lat="39.164049" lon="-0.259612">
        <ele>3.620</ele>
        <time>2019-06-15T10:28:43Z</time>
      </trkpt>
      <trkpt lat="39.164091" lon="-0.259580">
        <ele>3.708</ele>
        <time>2019-06-15T10:28:44Z</time>
      </trkpt>
      <trkpt lat="39.164150" lon="-0.259527">
        <ele>3.988</ele>
        <time>2019-06-15T10:28:46Z</time>
      </trkpt>
      <trkpt lat="39.164213" lon="-0.259477">
        <ele>4.032</ele>
        <time>2019-06-15T10:28:48Z</time>
      </trkpt>
      <trkpt lat="39.164284" lon="-0.259432">
        <ele>4.051</ele>
        <time>2019-06-15T10:28:50Z</time>
      </trkpt>
      <trkpt lat="39.164336" lon="-0.259399">
        <ele>3.934</ele>
        <time>2019-06-15T10:28:53Z</time>
      </trkpt>
      <trkpt lat="39.164362" lon="-0.259331">
        <ele>3.766</ele>
        <time>2019-06-15T10:28:56Z</time>
      </trkpt>
      <trkpt lat="39.164352" lon="-0.259266">
        <ele>3.663</ele>
        <time>2019-06-15T10:28:58Z</time>
      </trkpt>
      <trkpt lat="39.164314" lon="-0.259167">
        <ele>3.542</ele>
        <time>2019-06-15T10:28:59Z</time>
      </trkpt>
      <trkpt lat="39.164276" lon="-0.259133">
        <ele>3.547</ele>
        <time>2019-06-15T10:29:00Z</time>
      </trkpt>
      <trkpt lat="39.164195" lon="-0.259066">
        <ele>3.878</ele>
        <time>2019-06-15T10:29:02Z</time>
      </trkpt>
      <trkpt lat="39.164157" lon="-0.259029">
        <ele>4.133</ele>
        <time>2019-06-15T10:29:03Z</time>
      </trkpt>
      <trkpt lat="39.164112" lon="-0.258985">
        <ele>4.326</ele>
        <time>2019-06-15T10:29:04Z</time>
      </trkpt>
      <trkpt lat="39.164065" lon="-0.258965">
        <ele>4.608</ele>
        <time>2019-06-15T10:29:05Z</time>
      </trkpt>
      <trkpt lat="39.164018" lon="-0.258927">
        <ele>5.010</ele>
        <time>2019-06-15T10:29:06Z</time>
      </trkpt>
      <trkpt lat="39.163979" lon="-0.258890">
        <ele>5.364</ele>
        <time>2019-06-15T10:29:07Z</time>
      </trkpt>
      <trkpt lat="39.163947" lon="-0.258818">
        <ele>5.683</ele>
        <time>2019-06-15T10:29:08Z</time>
      </trkpt>
      <trkpt lat="39.163912" lon="-0.258776">
        <ele>5.986</ele>
        <time>2019-06-15T10:29:09Z</time>
      </trkpt>
      <trkpt lat="39.163869" lon="-0.258721">
        <ele>5.978</ele>
        <time>2019-06-15T10:29:10Z</time>
      </trkpt>
      <trkpt lat="39.163825" lon="-0.258669">
        <ele>5.895</ele>
        <time>2019-06-15T10:29:11Z</time>
      </trkpt>
      <trkpt lat="39.163775" lon="-0.258637">
        <ele>5.664</ele>
        <time>2019-06-15T10:29:12Z</time>
      </trkpt>
      <trkpt lat="39.163732" lon="-0.258584">
        <ele>5.599</ele>
        <time>2019-06-15T10:29:13Z</time>
      </trkpt>
      <trkpt lat="39.163687" lon="-0.258534">
        <ele>5.394</ele>
        <time>2019-06-15T10:29:14Z</time>
      </trkpt>
      <trkpt lat="39.163593" lon="-0.258433">
        <ele>4.857</ele>
        <time>2019-06-15T10:29:16Z</time>
      </trkpt>
      <trkpt lat="39.163593" lon="-0.258433">
        <ele>4.822</ele>
        <time>2019-06-15T10:29:16Z</time>
      </trkpt>
      <trkpt lat="39.163458" lon="-0.258302">
        <ele>4.008</ele>
        <time>2019-06-15T10:29:19Z</time>
      </trkpt>
      <trkpt lat="39.163458" lon="-0.258302">
        <ele>4.012</ele>
        <time>2019-06-15T10:29:19Z</time>
      </trkpt>
      <trkpt lat="39.163458" lon="-0.258302">
        <ele>4.056</ele>
        <time>2019-06-15T10:29:19Z</time>
      </trkpt>
      <trkpt lat="39.163402" lon="-0.258270">
        <ele>3.785</ele>
        <time>2019-06-15T10:29:20Z</time>
      </trkpt>
      <trkpt lat="39.163360" lon="-0.258235">
        <ele>3.588</ele>
        <time>2019-06-15T10:29:21Z</time>
      </trkpt>
      <trkpt lat="39.163308" lon="-0.258197">
        <ele>3.410</ele>
        <time>2019-06-15T10:29:22Z</time>
      </trkpt>
      <trkpt lat="39.163260" lon="-0.258154">
        <ele>3.587</ele>
        <time>2019-06-15T10:29:23Z</time>
      </trkpt>
      <trkpt lat="39.163214" lon="-0.258110">
        <ele>3.546</ele>
        <time>2019-06-15T10:29:24Z</time>
      </trkpt>
      <trkpt lat="39.163151" lon="-0.258011">
        <ele>3.761</ele>
        <time>2019-06-15T10:29:26Z</time>
      </trkpt>
      <trkpt lat="39.163108" lon="-0.257968">
        <ele>4.052</ele>
        <time>2019-06-15T10:29:27Z</time>
      </trkpt>
      <trkpt lat="39.163067" lon="-0.257921">
        <ele>4.553</ele>
        <time>2019-06-15T10:29:28Z</time>
      </trkpt>
      <trkpt lat="39.163015" lon="-0.257875">
        <ele>4.908</ele>
        <time>2019-06-15T10:29:29Z</time>
      </trkpt>
      <trkpt lat="39.162960" lon="-0.257827">
        <ele>5.208</ele>
        <time>2019-06-15T10:29:30Z</time>
      </trkpt>
      <trkpt lat="39.162907" lon="-0.257802">
        <ele>5.358</ele>
        <time>2019-06-15T10:29:31Z</time>
      </trkpt>
      <trkpt lat="39.162812" lon="-0.257765">
        <ele>5.132</ele>
        <time>2019-06-15T10:29:33Z</time>
      </trkpt>
      <trkpt lat="39.162751" lon="-0.257805">
        <ele>4.871</ele>
        <time>2019-06-15T10:29:34Z</time>
      </trkpt>
      <trkpt lat="39.162697" lon="-0.257807">
        <ele>4.684</ele>
        <time>2019-06-15T10:29:35Z</time>
      </trkpt>
      <trkpt lat="39.162649" lon="-0.257871">
        <ele>4.236</ele>
        <time>2019-06-15T10:29:36Z</time>
      </trkpt>
      <trkpt lat="39.162558" lon="-0.257870">
        <ele>3.993</ele>
        <time>2019-06-15T10:29:38Z</time>
      </trkpt>
      <trkpt lat="39.162504" lon="-0.257885">
        <ele>3.682</ele>
        <time>2019-06-15T10:29:39Z</time>
      </trkpt>
      <trkpt lat="39.162438" lon="-0.257945">
        <ele>3.227</ele>
        <time>2019-06-15T10:29:41Z</time>
      </trkpt>
      <trkpt lat="39.162405" lon="-0.257995">
        <ele>2.962</ele>
        <time>2019-06-15T10:29:42Z</time>
      </trkpt>
      <trkpt lat="39.162374" lon="-0.258039">
        <ele>2.683</ele>
        <time>2019-06-15T10:29:43Z</time>
      </trkpt>
      <trkpt lat="39.162317" lon="-0.258124">
        <ele>2.311</ele>
        <time>2019-06-15T10:29:45Z</time>
      </trkpt>
      <trkpt lat="39.162284" lon="-0.258174">
        <ele>2.108</ele>
        <time>2019-06-15T10:29:46Z</time>
      </trkpt>
      <trkpt lat="39.162252" lon="-0.258221">
        <ele>2.079</ele>
        <time>2019-06-15T10:29:47Z</time>
      </trkpt>
      <trkpt lat="39.162204" lon="-0.258243">
        <ele>2.163</ele>
        <time>2019-06-15T10:29:48Z</time>
      </trkpt>
      <trkpt lat="39.162154" lon="-0.258256">
        <ele>2.252</ele>
        <time>2019-06-15T10:29:49Z</time>
      </trkpt>
      <trkpt lat="39.162098" lon="-0.258263">
        <ele>2.465</ele>
        <time>2019-06-15T10:29:50Z</time>
      </trkpt>
      <trkpt lat="39.161996" lon="-0.258230">
        <ele>2.897</ele>
        <time>2019-06-15T10:29:52Z</time>
      </trkpt>
      <trkpt lat="39.161944" lon="-0.258187">
        <ele>3.024</ele>
        <time>2019-06-15T10:29:53Z</time>
      </trkpt>
      <trkpt lat="39.161897" lon="-0.258148">
        <ele>3.023</ele>
        <time>2019-06-15T10:29:54Z</time>
      </trkpt>
      <trkpt lat="39.161862" lon="-0.258088">
        <ele>3.018</ele>
        <time>2019-06-15T10:29:55Z</time>
      </trkpt>
      <trkpt lat="39.161837" lon="-0.258025">
        <ele>3.082</ele>
        <time>2019-06-15T10:29:56Z</time>
      </trkpt>
      <trkpt lat="39.161827" lon="-0.257953">
        <ele>3.043</ele>
        <time>2019-06-15T10:29:57Z</time>
      </trkpt>
      <trkpt lat="39.161823" lon="-0.257879">
        <ele>3.017</ele>
        <time>2019-06-15T10:29:58Z</time>
      </trkpt>
      <trkpt lat="39.161842" lon="-0.257817">
        <ele>3.008</ele>
        <time>2019-06-15T10:29:59Z</time>
      </trkpt>
      <trkpt lat="39.161868" lon="-0.257760">
        <ele>3.011</ele>
        <time>2019-06-15T10:30:00Z</time>
      </trkpt>
      <trkpt lat="39.161895" lon="-0.257703">
        <ele>3.095</ele>
        <time>2019-06-15T10:30:01Z</time>
      </trkpt>
      <trkpt lat="39.161945" lon="-0.257652">
        <ele>3.074</ele>
        <time>2019-06-15T10:30:02Z</time>
      </trkpt>
      <trkpt lat="39.161989" lon="-0.257593">
        <ele>3.057</ele>
        <time>2019-06-15T10:30:03Z</time>
      </trkpt>
      <trkpt lat="39.162009" lon="-0.257532">
        <ele>3.089</ele>
        <time>2019-06-15T10:30:04Z</time>
      </trkpt>
      <trkpt lat="39.162020" lon="-0.257465">
        <ele>2.936</ele>
        <time>2019-06-15T10:30:05Z</time>
      </trkpt>
      <trkpt lat="39.162001" lon="-0.257393">
        <ele>2.645</ele>
        <time>2019-06-15T10:30:06Z</time>
      </trkpt>
      <trkpt lat="39.161980" lon="-0.257325">
        <ele>2.410</ele>
        <time>2019-06-15T10:30:07Z</time>
      </trkpt>
      <trkpt lat="39.161951" lon="-0.257254">
        <ele>2.171</ele>
        <time>2019-06-15T10:30:08Z</time>
      </trkpt>
      <trkpt lat="39.161912" lon="-0.257169">
        <ele>1.941</ele>
        <time>2019-06-15T10:30:09Z</time>
      </trkpt>
      <trkpt lat="39.161866" lon="-0.257102">
        <ele>1.915</ele>
        <time>2019-06-15T10:30:10Z</time>
      </trkpt>
      <trkpt lat="39.161847" lon="-0.257031">
        <ele>1.708</ele>
        <time>2019-06-15T10:30:11Z</time>
      </trkpt>
      <trkpt lat="39.161804" lon="-0.256957">
        <ele>1.650</ele>
        <time>2019-06-15T10:30:12Z</time>
      </trkpt>
      <trkpt lat="39.161762" lon="-0.256885">
        <ele>1.734</ele>
        <time>2019-06-15T10:30:13Z</time>
      </trkpt>
      <trkpt lat="39.161717" lon="-0.256825">
        <ele>1.953</ele>
        <time>2019-06-15T10:30:14Z</time>
      </trkpt>
      <trkpt lat="39.161667" lon="-0.256754">
        <ele>2.056</ele>
        <time>2019-06-15T10:30:15Z</time>
      </trkpt>
      <trkpt lat="39.161620" lon="-0.256687">
        <ele>2.068</ele>
        <time>2019-06-15T10:30:16Z</time>
      </trkpt>
      <trkpt lat="39.161560" lon="-0.256622">
        <ele>2.155</ele>
        <time>2019-06-15T10:30:17Z</time>
      </trkpt>
      <trkpt lat="39.161505" lon="-0.256574">
        <ele>2.144</ele>
        <time>2019-06-15T10:30:18Z</time>
      </trkpt>
      <trkpt lat="39.161443" lon="-0.256526">
        <ele>2.159</ele>
        <time>2019-06-15T10:30:19Z</time>
      </trkpt>
      <trkpt lat="39.161381" lon="-0.256469">
        <ele>2.016</ele>
        <time>2019-06-15T10:30:20Z</time>
      </trkpt>
      <trkpt lat="39.161316" lon="-0.256430">
        <ele>1.776</ele>
        <time>2019-06-15T10:30:21Z</time>
      </trkpt>
      <trkpt lat="39.161261" lon="-0.256371">
        <ele>1.513</ele>
        <time>2019-06-15T10:30:22Z</time>
      </trkpt>
      <trkpt lat="39.161198" lon="-0.256331">
        <ele>1.308</ele>
        <time>2019-06-15T10:30:23Z</time>
      </trkpt>
      <trkpt lat="39.161139" lon="-0.256293">
        <ele>1.194</ele>
        <time>2019-06-15T10:30:24Z</time>
      </trkpt>
      <trkpt lat="39.161081" lon="-0.256251">
        <ele>0.938</ele>
        <time>2019-06-15T10:30:25Z</time>
      </trkpt>
      <trkpt lat="39.161020" lon="-0.256209">
        <ele>0.887</ele>
        <time>2019-06-15T10:30:26Z</time>
      </trkpt>
      <trkpt lat="39.160962" lon="-0.256169">
        <ele>0.650</ele>
        <time>2019-06-15T10:30:27Z</time>
      </trkpt>
      <trkpt lat="39.160895" lon="-0.256128">
        <ele>0.322</ele>
        <time>2019-06-15T10:30:28Z</time>
      </trkpt>
      <trkpt lat="39.160839" lon="-0.256088">
        <ele>0.079</ele>
        <time>2019-06-15T10:30:29Z</time>
      </trkpt>
      <trkpt lat="39.160785" lon="-0.256045">
        <ele>0.398</ele>
        <time>2019-06-15T10:30:30Z</time>
      </trkpt>
      <trkpt lat="39.160735" lon="-0.255995">
        <ele>0.793</ele>
        <time>2019-06-15T10:30:31Z</time>
      </trkpt>
      <trkpt lat="39.160682" lon="-0.255947">
        <ele>1.128</ele>
        <time>2019-06-15T10:30:32Z</time>
      </trkpt>
      <trkpt lat="39.160627" lon="-0.255897">
        <ele>1.589</ele>
        <time>2019-06-15T10:30:33Z</time>
      </trkpt>
      <trkpt lat="39.160580" lon="-0.255842">
        <ele>1.817</ele>
        <time>2019-06-15T10:30:34Z</time>
      </trkpt>
      <trkpt lat="39.160528" lon="-0.255790">
        <ele>1.908</ele>
        <time>2019-06-15T10:30:35Z</time>
      </trkpt>
      <trkpt lat="39.160471" lon="-0.255738">
        <ele>2.075</ele>
        <time>2019-06-15T10:30:36Z</time>
      </trkpt>
      <trkpt lat="39.160419" lon="-0.255685">
        <ele>2.029</ele>
        <time>2019-06-15T10:30:37Z</time>
      </trkpt>
      <trkpt lat="39.160362" lon="-0.255632">
        <ele>2.068</ele>
        <time>2019-06-15T10:30:38Z</time>
      </trkpt>
      <trkpt lat="39.160302" lon="-0.255584">
        <ele>2.071</ele>
        <time>2019-06-15T10:30:39Z</time>
      </trkpt>
      <trkpt lat="39.160248" lon="-0.255535">
        <ele>2.043</ele>
        <time>2019-06-15T10:30:40Z</time>
      </trkpt>
      <trkpt lat="39.160191" lon="-0.255485">
        <ele>2.070</ele>
        <time>2019-06-15T10:30:41Z</time>
      </trkpt>
      <trkpt lat="39.160143" lon="-0.255451">
        <ele>1.919</ele>
        <time>2019-06-15T10:30:42Z</time>
      </trkpt>
      <trkpt lat="39.160086" lon="-0.255404">
        <ele>1.824</ele>
        <time>2019-06-15T10:30:43Z</time>
      </trkpt>
      <trkpt lat="39.160022" lon="-0.255357">
        <ele>1.538</ele>
        <time>2019-06-15T10:30:44Z</time>
      </trkpt>
      <trkpt lat="39.159961" lon="-0.255313">
        <ele>1.470</ele>
        <time>2019-06-15T10:30:45Z</time>
      </trkpt>
      <trkpt lat="39.159908" lon="-0.255272">
        <ele>1.317</ele>
        <time>2019-06-15T10:30:46Z</time>
      </trkpt>
      <trkpt lat="39.159854" lon="-0.255227">
        <ele>1.308</ele>
        <time>2019-06-15T10:30:47Z</time>
      </trkpt>
      <trkpt lat="39.159797" lon="-0.255180">
        <ele>1.326</ele>
        <time>2019-06-15T10:30:48Z</time>
      </trkpt>
      <trkpt lat="39.159738" lon="-0.255135">
        <ele>1.410</ele>
        <time>2019-06-15T10:30:49Z</time>
      </trkpt>
      <trkpt lat="39.159685" lon="-0.255085">
        <ele>1.319</ele>
        <time>2019-06-15T10:30:50Z</time>
      </trkpt>
      <trkpt lat="39.159639" lon="-0.255030">
        <ele>1.142</ele>
        <time>2019-06-15T10:30:51Z</time>
      </trkpt>
      <trkpt lat="39.159587" lon="-0.254979">
        <ele>0.944</ele>
        <time>2019-06-15T10:30:52Z</time>
      </trkpt>
      <trkpt lat="39.159538" lon="-0.254932">
        <ele>0.811</ele>
        <time>2019-06-15T10:30:53Z</time>
      </trkpt>
      <trkpt lat="39.159483" lon="-0.254891">
        <ele>0.680</ele>
        <time>2019-06-15T10:30:54Z</time>
      </trkpt>
      <trkpt lat="39.159429" lon="-0.254846">
        <ele>0.445</ele>
        <time>2019-06-15T10:30:55Z</time>
      </trkpt>
      <trkpt lat="39.159380" lon="-0.254796">
        <ele>0.278</ele>
        <time>2019-06-15T10:30:56Z</time>
      </trkpt>
      <trkpt lat="39.159326" lon="-0.254750">
        <ele>0.133</ele>
        <time>2019-06-15T10:30:57Z</time>
      </trkpt>
      <trkpt lat="39.159273" lon="-0.254706">
        <ele>0.026</ele>
        <time>2019-06-15T10:30:58Z</time>
      </trkpt>
      <trkpt lat="39.159219" lon="-0.254660">
        <ele>0.208</ele>
        <time>2019-06-15T10:30:59Z</time>
      </trkpt>
      <trkpt lat="39.159168" lon="-0.254613">
        <ele>0.410</ele>
        <time>2019-06-15T10:31:00Z</time>
      </trkpt>
      <trkpt lat="39.159119" lon="-0.254570">
        <ele>0.734</ele>
        <time>2019-06-15T10:31:01Z</time>
      </trkpt>
      <trkpt lat="39.159065" lon="-0.254531">
        <ele>0.943</ele>
        <time>2019-06-15T10:31:02Z</time>
      </trkpt>
      <trkpt lat="39.159005" lon="-0.254491">
        <ele>1.046</ele>
        <time>2019-06-15T10:31:03Z</time>
      </trkpt>
      <trkpt lat="39.158950" lon="-0.254441">
        <ele>1.078</ele>
        <time>2019-06-15T10:31:04Z</time>
      </trkpt>
      <trkpt lat="39.158900" lon="-0.254388">
        <ele>0.865</ele>
        <time>2019-06-15T10:31:05Z</time>
      </trkpt>
      <trkpt lat="39.158840" lon="-0.254357">
        <ele>0.854</ele>
        <time>2019-06-15T10:31:06Z</time>
      </trkpt>
      <trkpt lat="39.158789" lon="-0.254308">
        <ele>0.749</ele>
        <time>2019-06-15T10:31:07Z</time>
      </trkpt>
      <trkpt lat="39.158737" lon="-0.254258">
        <ele>0.577</ele>
        <time>2019-06-15T10:31:08Z</time>
      </trkpt>
      <trkpt lat="39.158680" lon="-0.254207">
        <ele>0.361</ele>
        <time>2019-06-15T10:31:09Z</time>
      </trkpt>
      <trkpt lat="39.158629" lon="-0.254164">
        <ele>-0.027</ele>
        <time>2019-06-15T10:31:10Z</time>
      </trkpt>
      <trkpt lat="39.158576" lon="-0.254119">
        <ele>-0.208</ele>
        <time>2019-06-15T10:31:11Z</time>
      </trkpt>
      <trkpt lat="39.158522" lon="-0.254072">
        <ele>-0.320</ele>
        <time>2019-06-15T10:31:12Z</time>
      </trkpt>
      <trkpt lat="39.158474" lon="-0.254021">
        <ele>-0.594</ele>
        <time>2019-06-15T10:31:13Z</time>
      </trkpt>
      <trkpt lat="39.158425" lon="-0.253976">
        <ele>-0.763</ele>
        <time>2019-06-15T10:31:14Z</time>
      </trkpt>
      <trkpt lat="39.158377" lon="-0.253926">
        <ele>-0.926</ele>
        <time>2019-06-15T10:31:15Z</time>
      </trkpt>
      <trkpt lat="39.158335" lon="-0.253884">
        <ele>-1.078</ele>
        <time>2019-06-15T10:31:16Z</time>
      </trkpt>
      <trkpt lat="39.158292" lon="-0.253834">
        <ele>-1.035</ele>
        <time>2019-06-15T10:31:17Z</time>
      </trkpt>
      <trkpt lat="39.158250" lon="-0.253790">
        <ele>-1.084</ele>
        <time>2019-06-15T10:31:18Z</time>
      </trkpt>
      <trkpt lat="39.158199" lon="-0.253742">
        <ele>-1.069</ele>
        <time>2019-06-15T10:31:19Z</time>
      </trkpt>
      <trkpt lat="39.158149" lon="-0.253690">
        <ele>-1.015</ele>
        <time>2019-06-15T10:31:20Z</time>
      </trkpt>
      <trkpt lat="39.158103" lon="-0.253642">
        <ele>-1.065</ele>
        <time>2019-06-15T10:31:21Z</time>
      </trkpt>
      <trkpt lat="39.158053" lon="-0.253593">
        <ele>-0.911</ele>
        <time>2019-06-15T10:31:22Z</time>
      </trkpt>
      <trkpt lat="39.158000" lon="-0.253551">
        <ele>-0.608</ele>
        <time>2019-06-15T10:31:23Z</time>
      </trkpt>
      <trkpt lat="39.157949" lon="-0.253502">
        <ele>-0.484</ele>
        <time>2019-06-15T10:31:24Z</time>
      </trkpt>
      <trkpt lat="39.157900" lon="-0.253451">
        <ele>-0.248</ele>
        <time>2019-06-15T10:31:25Z</time>
      </trkpt>
      <trkpt lat="39.157850" lon="-0.253401">
        <ele>-0.197</ele>
        <time>2019-06-15T10:31:26Z</time>
      </trkpt>
      <trkpt lat="39.157803" lon="-0.253350">
        <ele>-0.030</ele>
        <time>2019-06-15T10:31:27Z</time>
      </trkpt>
      <trkpt lat="39.157757" lon="-0.253295">
        <ele>0.132</ele>
        <time>2019-06-15T10:31:28Z</time>
      </trkpt>
      <trkpt lat="39.157705" lon="-0.253250">
        <ele>0.339</ele>
        <time>2019-06-15T10:31:29Z</time>
      </trkpt>
      <trkpt lat="39.157655" lon="-0.253206">
        <ele>0.438</ele>
        <time>2019-06-15T10:31:30Z</time>
      </trkpt>
      <trkpt lat="39.157604" lon="-0.253165">
        <ele>0.623</ele>
        <time>2019-06-15T10:31:31Z</time>
      </trkpt>
      <trkpt lat="39.157556" lon="-0.253113">
        <ele>0.823</ele>
        <time>2019-06-15T10:31:32Z</time>
      </trkpt>
      <trkpt lat="39.157504" lon="-0.253070">
        <ele>1.083</ele>
        <time>2019-06-15T10:31:33Z</time>
      </trkpt>
      <trkpt lat="39.157452" lon="-0.253019">
        <ele>0.711</ele>
        <time>2019-06-15T10:31:34Z</time>
      </trkpt>
      <trkpt lat="39.157404" lon="-0.252979">
        <ele>0.508</ele>
        <time>2019-06-15T10:31:35Z</time>
      </trkpt>
      <trkpt lat="39.157354" lon="-0.252947">
        <ele>0.355</ele>
        <time>2019-06-15T10:31:36Z</time>
      </trkpt>
      <trkpt lat="39.157289" lon="-0.252918">
        <ele>0.139</ele>
        <time>2019-06-15T10:31:37Z</time>
      </trkpt>
      <trkpt lat="39.157234" lon="-0.252900">
        <ele>0.068</ele>
        <time>2019-06-15T10:31:38Z</time>
      </trkpt>
      <trkpt lat="39.157175" lon="-0.252904">
        <ele>0.181</ele>
        <time>2019-06-15T10:31:39Z</time>
      </trkpt>
      <trkpt lat="39.157109" lon="-0.252930">
        <ele>0.253</ele>
        <time>2019-06-15T10:31:40Z</time>
      </trkpt>
      <trkpt lat="39.157046" lon="-0.252950">
        <ele>0.490</ele>
        <time>2019-06-15T10:31:41Z</time>
      </trkpt>
      <trkpt lat="39.156963" lon="-0.252964">
        <ele>0.679</ele>
        <time>2019-06-15T10:31:42Z</time>
      </trkpt>
      <trkpt lat="39.156913" lon="-0.252973">
        <ele>0.914</ele>
        <time>2019-06-15T10:31:43Z</time>
      </trkpt>
      <trkpt lat="39.156860" lon="-0.252959">
        <ele>1.336</ele>
        <time>2019-06-15T10:31:44Z</time>
      </trkpt>
      <trkpt lat="39.156801" lon="-0.252924">
        <ele>1.617</ele>
        <time>2019-06-15T10:31:45Z</time>
      </trkpt>
      <trkpt lat="39.156746" lon="-0.252889">
        <ele>1.818</ele>
        <time>2019-06-15T10:31:46Z</time>
      </trkpt>
      <trkpt lat="39.156747" lon="-0.252828">
        <ele>1.608</ele>
        <time>2019-06-15T10:31:47Z</time>
      </trkpt>
      <trkpt lat="39.156719" lon="-0.252769">
        <ele>1.676</ele>
        <time>2019-06-15T10:31:48Z</time>
      </trkpt>
      <trkpt lat="39.156683" lon="-0.252714">
        <ele>1.710</ele>
        <time>2019-06-15T10:31:49Z</time>
      </trkpt>
      <trkpt lat="39.156622" lon="-0.252678">
        <ele>2.099</ele>
        <time>2019-06-15T10:31:50Z</time>
      </trkpt>
      <trkpt lat="39.156565" lon="-0.252670">
        <ele>2.522</ele>
        <time>2019-06-15T10:31:51Z</time>
      </trkpt>
      <trkpt lat="39.156507" lon="-0.252653">
        <ele>3.084</ele>
        <time>2019-06-15T10:31:52Z</time>
      </trkpt>
      <trkpt lat="39.156453" lon="-0.252669">
        <ele>3.441</ele>
        <time>2019-06-15T10:31:53Z</time>
      </trkpt>
      <trkpt lat="39.156397" lon="-0.252665">
        <ele>3.990</ele>
        <time>2019-06-15T10:31:54Z</time>
      </trkpt>
      <trkpt lat="39.156338" lon="-0.252659">
        <ele>4.135</ele>
        <time>2019-06-15T10:31:55Z</time>
      </trkpt>
      <trkpt lat="39.156285" lon="-0.252643">
        <ele>4.249</ele>
        <time>2019-06-15T10:31:56Z</time>
      </trkpt>
      <trkpt lat="39.156232" lon="-0.252636">
        <ele>4.302</ele>
        <time>2019-06-15T10:31:57Z</time>
      </trkpt>
      <trkpt lat="39.156173" lon="-0.252626">
        <ele>4.422</ele>
        <time>2019-06-15T10:31:58Z</time>
      </trkpt>
      <trkpt lat="39.156114" lon="-0.252630">
        <ele>4.508</ele>
        <time>2019-06-15T10:31:59Z</time>
      </trkpt>
      <trkpt lat="39.156058" lon="-0.252641">
        <ele>4.447</ele>
        <time>2019-06-15T10:32:00Z</time>
      </trkpt>
      <trkpt lat="39.156001" lon="-0.252650">
        <ele>4.341</ele>
        <time>2019-06-15T10:32:01Z</time>
      </trkpt>
      <trkpt lat="39.155942" lon="-0.252668">
        <ele>4.250</ele>
        <time>2019-06-15T10:32:02Z</time>
      </trkpt>
      <trkpt lat="39.155884" lon="-0.252680">
        <ele>4.143</ele>
        <time>2019-06-15T10:32:03Z</time>
      </trkpt>
      <trkpt lat="39.155824" lon="-0.252697">
        <ele>3.955</ele>
        <time>2019-06-15T10:32:04Z</time>
      </trkpt>
      <trkpt lat="39.155764" lon="-0.252713">
        <ele>3.692</ele>
        <time>2019-06-15T10:32:05Z</time>
      </trkpt>
      <trkpt lat="39.155714" lon="-0.252733">
        <ele>3.271</ele>
        <time>2019-06-15T10:32:06Z</time>
      </trkpt>
      <trkpt lat="39.155651" lon="-0.252746">
        <ele>2.866</ele>
        <time>2019-06-15T10:32:07Z</time>
      </trkpt>
      <trkpt lat="39.155599" lon="-0.252756">
        <ele>2.464</ele>
        <time>2019-06-15T10:32:08Z</time>
      </trkpt>
      <trkpt lat="39.155548" lon="-0.252780">
        <ele>1.906</ele>
        <time>2019-06-15T10:32:09Z</time>
      </trkpt>
      <trkpt lat="39.155492" lon="-0.252796">
        <ele>1.516</ele>
        <time>2019-06-15T10:32:10Z</time>
      </trkpt>
      <trkpt lat="39.155436" lon="-0.252791">
        <ele>1.108</ele>
        <time>2019-06-15T10:32:11Z</time>
      </trkpt>
      <trkpt lat="39.155382" lon="-0.252790">
        <ele>0.739</ele>
        <time>2019-06-15T10:32:12Z</time>
      </trkpt>
      <trkpt lat="39.155321" lon="-0.252779">
        <ele>0.323</ele>
        <time>2019-06-15T10:32:13Z</time>
      </trkpt>
      <trkpt lat="39.155258" lon="-0.252768">
        <ele>-0.122</ele>
        <time>2019-06-15T10:32:14Z</time>
      </trkpt>
      <trkpt lat="39.155199" lon="-0.252757">
        <ele>-0.365</ele>
        <time>2019-06-15T10:32:15Z</time>
      </trkpt>
      <trkpt lat="39.155144" lon="-0.252749">
        <ele>-0.597</ele>
        <time>2019-06-15T10:32:16Z</time>
      </trkpt>
      <trkpt lat="39.155088" lon="-0.252738">
        <ele>-0.764</ele>
        <time>2019-06-15T10:32:17Z</time>
      </trkpt>
      <trkpt lat="39.155019" lon="-0.252727">
        <ele>-0.923</ele>
        <time>2019-06-15T10:32:18Z</time>
      </trkpt>
      <trkpt lat="39.154955" lon="-0.252719">
        <ele>-1.068</ele>
        <time>2019-06-15T10:32:19Z</time>
      </trkpt>
      <trkpt lat="39.154898" lon="-0.252709">
        <ele>-1.075</ele>
        <time>2019-06-15T10:32:20Z</time>
      </trkpt>
      <trkpt lat="39.154837" lon="-0.252693">
        <ele>-1.028</ele>
        <time>2019-06-15T10:32:21Z</time>
      </trkpt>
      <trkpt lat="39.154777" lon="-0.252678">
        <ele>-1.020</ele>
        <time>2019-06-15T10:32:22Z</time>
      </trkpt>
      <trkpt lat="39.154720" lon="-0.252665">
        <ele>-1.008</ele>
        <time>2019-06-15T10:32:23Z</time>
      </trkpt>
      <trkpt lat="39.154653" lon="-0.252657">
        <ele>-0.590</ele>
        <time>2019-06-15T10:32:24Z</time>
      </trkpt>
      <trkpt lat="39.154590" lon="-0.252640">
        <ele>-0.064</ele>
        <time>2019-06-15T10:32:25Z</time>
      </trkpt>
      <trkpt lat="39.154529" lon="-0.252625">
        <ele>0.483</ele>
        <time>2019-06-15T10:32:26Z</time>
      </trkpt>
      <trkpt lat="39.154466" lon="-0.252610">
        <ele>0.886</ele>
        <time>2019-06-15T10:32:27Z</time>
      </trkpt>
      <trkpt lat="39.154410" lon="-0.252596">
        <ele>1.118</ele>
        <time>2019-06-15T10:32:28Z</time>
      </trkpt>
      <trkpt lat="39.154347" lon="-0.252600">
        <ele>1.455</ele>
        <time>2019-06-15T10:32:29Z</time>
      </trkpt>
      <trkpt lat="39.154282" lon="-0.252590">
        <ele>1.674</ele>
        <time>2019-06-15T10:32:30Z</time>
      </trkpt>
      <trkpt lat="39.154217" lon="-0.252580">
        <ele>1.869</ele>
        <time>2019-06-15T10:32:31Z</time>
      </trkpt>
      <trkpt lat="39.154151" lon="-0.252566">
        <ele>2.069</ele>
        <time>2019-06-15T10:32:32Z</time>
      </trkpt>
      <trkpt lat="39.154072" lon="-0.252563">
        <ele>2.104</ele>
        <time>2019-06-15T10:32:33Z</time>
      </trkpt>
      <trkpt lat="39.154011" lon="-0.252554">
        <ele>2.124</ele>
        <time>2019-06-15T10:32:34Z</time>
      </trkpt>
      <trkpt lat="39.153948" lon="-0.252543">
        <ele>2.108</ele>
        <time>2019-06-15T10:32:35Z</time>
      </trkpt>
      <trkpt lat="39.153883" lon="-0.252534">
        <ele>2.149</ele>
        <time>2019-06-15T10:32:36Z</time>
      </trkpt>
      <trkpt lat="39.153815" lon="-0.252532">
        <ele>2.183</ele>
        <time>2019-06-15T10:32:37Z</time>
      </trkpt>
      <trkpt lat="39.153751" lon="-0.252533">
        <ele>2.112</ele>
        <time>2019-06-15T10:32:38Z</time>
      </trkpt>
      <trkpt lat="39.153683" lon="-0.252534">
        <ele>2.185</ele>
        <time>2019-06-15T10:32:39Z</time>
      </trkpt>
      <trkpt lat="39.153618" lon="-0.252531">
        <ele>2.137</ele>
        <time>2019-06-15T10:32:40Z</time>
      </trkpt>
      <trkpt lat="39.153555" lon="-0.252530">
        <ele>2.344</ele>
        <time>2019-06-15T10:32:41Z</time>
      </trkpt>
      <trkpt lat="39.153482" lon="-0.252547">
        <ele>2.663</ele>
        <time>2019-06-15T10:32:42Z</time>
      </trkpt>
      <trkpt lat="39.153422" lon="-0.252552">
        <ele>2.958</ele>
        <time>2019-06-15T10:32:43Z</time>
      </trkpt>
      <trkpt lat="39.153356" lon="-0.252555">
        <ele>3.137</ele>
        <time>2019-06-15T10:32:44Z</time>
      </trkpt>
      <trkpt lat="39.153289" lon="-0.252562">
        <ele>3.349</ele>
        <time>2019-06-15T10:32:45Z</time>
      </trkpt>
      <trkpt lat="39.153225" lon="-0.252560">
        <ele>3.513</ele>
        <time>2019-06-15T10:32:46Z</time>
      </trkpt>
      <trkpt lat="39.153158" lon="-0.252569">
        <ele>3.708</ele>
        <time>2019-06-15T10:32:47Z</time>
      </trkpt>
      <trkpt lat="39.153091" lon="-0.252583">
        <ele>3.946</ele>
        <time>2019-06-15T10:32:48Z</time>
      </trkpt>
      <trkpt lat="39.153031" lon="-0.252589">
        <ele>3.950</ele>
        <time>2019-06-15T10:32:49Z</time>
      </trkpt>
      <trkpt lat="39.152973" lon="-0.252605">
        <ele>3.579</ele>
        <time>2019-06-15T10:32:50Z</time>
      </trkpt>
      <trkpt lat="39.152914" lon="-0.252618">
        <ele>3.282</ele>
        <time>2019-06-15T10:32:51Z</time>
      </trkpt>
      <trkpt lat="39.152847" lon="-0.252622">
        <ele>2.814</ele>
        <time>2019-06-15T10:32:52Z</time>
      </trkpt>
      <trkpt lat="39.152784" lon="-0.252627">
        <ele>2.571</ele>
        <time>2019-06-15T10:32:53Z</time>
      </trkpt>
      <trkpt lat="39.152720" lon="-0.252631">
        <ele>2.460</ele>
        <time>2019-06-15T10:32:54Z</time>
      </trkpt>
      <trkpt lat="39.152652" lon="-0.252636">
        <ele>2.315</ele>
        <time>2019-06-15T10:32:55Z</time>
      </trkpt>
      <trkpt lat="39.152588" lon="-0.252646">
        <ele>2.292</ele>
        <time>2019-06-15T10:32:56Z</time>
      </trkpt>
      <trkpt lat="39.152514" lon="-0.252666">
        <ele>2.073</ele>
        <time>2019-06-15T10:32:57Z</time>
      </trkpt>
      <trkpt lat="39.152450" lon="-0.252677">
        <ele>2.120</ele>
        <time>2019-06-15T10:32:58Z</time>
      </trkpt>
      <trkpt lat="39.152385" lon="-0.252696">
        <ele>2.108</ele>
        <time>2019-06-15T10:32:59Z</time>
      </trkpt>
      <trkpt lat="39.152319" lon="-0.252702">
        <ele>2.232</ele>
        <time>2019-06-15T10:33:00Z</time>
      </trkpt>
      <trkpt lat="39.152251" lon="-0.252704">
        <ele>2.286</ele>
        <time>2019-06-15T10:33:01Z</time>
      </trkpt>
      <trkpt lat="39.152190" lon="-0.252710">
        <ele>2.355</ele>
        <time>2019-06-15T10:33:02Z</time>
      </trkpt>
      <trkpt lat="39.152125" lon="-0.252716">
        <ele>2.538</ele>
        <time>2019-06-15T10:33:03Z</time>
      </trkpt>
      <trkpt lat="39.152062" lon="-0.252725">
        <ele>2.710</ele>
        <time>2019-06-15T10:33:04Z</time>
      </trkpt>
      <trkpt lat="39.151996" lon="-0.252725">
        <ele>2.947</ele>
        <time>2019-06-15T10:33:05Z</time>
      </trkpt>
      <trkpt lat="39.151938" lon="-0.252732">
        <ele>3.046</ele>
        <time>2019-06-15T10:33:06Z</time>
      </trkpt>
      <trkpt lat="39.151872" lon="-0.252734">
        <ele>3.361</ele>
        <time>2019-06-15T10:33:07Z</time>
      </trkpt>
      <trkpt lat="39.151811" lon="-0.252745">
        <ele>3.573</ele>
        <time>2019-06-15T10:33:08Z</time>
      </trkpt>
      <trkpt lat="39.151747" lon="-0.252740">
        <ele>3.785</ele>
        <time>2019-06-15T10:33:09Z</time>
      </trkpt>
      <trkpt lat="39.151680" lon="-0.252744">
        <ele>4.013</ele>
        <time>2019-06-15T10:33:10Z</time>
      </trkpt>
      <trkpt lat="39.151617" lon="-0.252738">
        <ele>4.208</ele>
        <time>2019-06-15T10:33:11Z</time>
      </trkpt>
      <trkpt lat="39.151556" lon="-0.252744">
        <ele>4.350</ele>
        <time>2019-06-15T10:33:12Z</time>
      </trkpt>
      <trkpt lat="39.151493" lon="-0.252745">
        <ele>4.684</ele>
        <time>2019-06-15T10:33:13Z</time>
      </trkpt>
      <trkpt lat="39.151426" lon="-0.252748">
        <ele>4.843</ele>
        <time>2019-06-15T10:33:14Z</time>
      </trkpt>
      <trkpt lat="39.151366" lon="-0.252757">
        <ele>4.826</ele>
        <time>2019-06-15T10:33:15Z</time>
      </trkpt>
      <trkpt lat="39.151307" lon="-0.252753">
        <ele>4.618</ele>
        <time>2019-06-15T10:33:16Z</time>
      </trkpt>
      <trkpt lat="39.151246" lon="-0.252759">
        <ele>4.535</ele>
        <time>2019-06-15T10:33:17Z</time>
      </trkpt>
      <trkpt lat="39.151182" lon="-0.252764">
        <ele>4.214</ele>
        <time>2019-06-15T10:33:18Z</time>
      </trkpt>
      <trkpt lat="39.151121" lon="-0.252771">
        <ele>4.089</ele>
        <time>2019-06-15T10:33:19Z</time>
      </trkpt>
      <trkpt lat="39.151059" lon="-0.252770">
        <ele>3.677</ele>
        <time>2019-06-15T10:33:20Z</time>
      </trkpt>
      <trkpt lat="39.150997" lon="-0.252772">
        <ele>3.261</ele>
        <time>2019-06-15T10:33:21Z</time>
      </trkpt>
      <trkpt lat="39.150938" lon="-0.252775">
        <ele>2.827</ele>
        <time>2019-06-15T10:33:22Z</time>
      </trkpt>
      <trkpt lat="39.150882" lon="-0.252771">
        <ele>2.408</ele>
        <time>2019-06-15T10:33:23Z</time>
      </trkpt>
      <trkpt lat="39.150821" lon="-0.252772">
        <ele>1.970</ele>
        <time>2019-06-15T10:33:24Z</time>
      </trkpt>
      <trkpt lat="39.150756" lon="-0.252778">
        <ele>1.424</ele>
        <time>2019-06-15T10:33:25Z</time>
      </trkpt>
      <trkpt lat="39.150696" lon="-0.252784">
        <ele>1.083</ele>
        <time>2019-06-15T10:33:26Z</time>
      </trkpt>
      <trkpt lat="39.150632" lon="-0.252792">
        <ele>0.686</ele>
        <time>2019-06-15T10:33:27Z</time>
      </trkpt>
      <trkpt lat="39.150574" lon="-0.252790">
        <ele>0.218</ele>
        <time>2019-06-15T10:33:28Z</time>
      </trkpt>
      <trkpt lat="39.150513" lon="-0.252796">
        <ele>0.215</ele>
        <time>2019-06-15T10:33:29Z</time>
      </trkpt>
      <trkpt lat="39.150453" lon="-0.252794">
        <ele>0.444</ele>
        <time>2019-06-15T10:33:30Z</time>
      </trkpt>
      <trkpt lat="39.150390" lon="-0.252803">
        <ele>0.699</ele>
        <time>2019-06-15T10:33:31Z</time>
      </trkpt>
      <trkpt lat="39.150328" lon="-0.252799">
        <ele>0.865</ele>
        <time>2019-06-15T10:33:32Z</time>
      </trkpt>
      <trkpt lat="39.150273" lon="-0.252804">
        <ele>1.068</ele>
        <time>2019-06-15T10:33:33Z</time>
      </trkpt>
      <trkpt lat="39.150214" lon="-0.252798">
        <ele>1.214</ele>
        <time>2019-06-15T10:33:34Z</time>
      </trkpt>
      <trkpt lat="39.150157" lon="-0.252797">
        <ele>1.408</ele>
        <time>2019-06-15T10:33:35Z</time>
      </trkpt>
      <trkpt lat="39.150101" lon="-0.252779">
        <ele>1.679</ele>
        <time>2019-06-15T10:33:36Z</time>
      </trkpt>
      <trkpt lat="39.150042" lon="-0.252762">
        <ele>1.923</ele>
        <time>2019-06-15T10:33:37Z</time>
      </trkpt>
      <trkpt lat="39.149983" lon="-0.252745">
        <ele>2.072</ele>
        <time>2019-06-15T10:33:38Z</time>
      </trkpt>
      <trkpt lat="39.149914" lon="-0.252738">
        <ele>2.045</ele>
        <time>2019-06-15T10:33:39Z</time>
      </trkpt>
      <trkpt lat="39.149849" lon="-0.252725">
        <ele>2.067</ele>
        <time>2019-06-15T10:33:40Z</time>
      </trkpt>
      <trkpt lat="39.149785" lon="-0.252715">
        <ele>2.074</ele>
        <time>2019-06-15T10:33:41Z</time>
      </trkpt>
      <trkpt lat="39.149721" lon="-0.252707">
        <ele>2.043</ele>
        <time>2019-06-15T10:33:42Z</time>
      </trkpt>
      <trkpt lat="39.149660" lon="-0.252688">
        <ele>2.278</ele>
        <time>2019-06-15T10:33:43Z</time>
      </trkpt>
      <trkpt lat="39.149603" lon="-0.252696">
        <ele>2.483</ele>
        <time>2019-06-15T10:33:44Z</time>
      </trkpt>
      <trkpt lat="39.149538" lon="-0.252677">
        <ele>2.725</ele>
        <time>2019-06-15T10:33:45Z</time>
      </trkpt>
      <trkpt lat="39.149475" lon="-0.252666">
        <ele>2.917</ele>
        <time>2019-06-15T10:33:46Z</time>
      </trkpt>
      <trkpt lat="39.149413" lon="-0.252653">
        <ele>3.008</ele>
        <time>2019-06-15T10:33:47Z</time>
      </trkpt>
      <trkpt lat="39.149346" lon="-0.252638">
        <ele>3.071</ele>
        <time>2019-06-15T10:33:48Z</time>
      </trkpt>
      <trkpt lat="39.149283" lon="-0.252625">
        <ele>3.025</ele>
        <time>2019-06-15T10:33:49Z</time>
      </trkpt>
      <trkpt lat="39.149220" lon="-0.252616">
        <ele>3.044</ele>
        <time>2019-06-15T10:33:50Z</time>
      </trkpt>
      <trkpt lat="39.149162" lon="-0.252607">
        <ele>3.097</ele>
        <time>2019-06-15T10:33:51Z</time>
      </trkpt>
      <trkpt lat="39.149097" lon="-0.252589">
        <ele>3.229</ele>
        <time>2019-06-15T10:33:52Z</time>
      </trkpt>
      <trkpt lat="39.149038" lon="-0.252578">
        <ele>3.346</ele>
        <time>2019-06-15T10:33:53Z</time>
      </trkpt>
      <trkpt lat="39.148979" lon="-0.252556">
        <ele>3.525</ele>
        <time>2019-06-15T10:33:54Z</time>
      </trkpt>
      <trkpt lat="39.148913" lon="-0.252543">
        <ele>3.830</ele>
        <time>2019-06-15T10:33:55Z</time>
      </trkpt>
      <trkpt lat="39.148853" lon="-0.252541">
        <ele>4.057</ele>
        <time>2019-06-15T10:33:56Z</time>
      </trkpt>
      <trkpt lat="39.148796" lon="-0.252530">
        <ele>4.200</ele>
        <time>2019-06-15T10:33:57Z</time>
      </trkpt>
      <trkpt lat="39.148746" lon="-0.252521">
        <ele>4.420</ele>
        <time>2019-06-15T10:33:58Z</time>
      </trkpt>
      <trkpt lat="39.148689" lon="-0.252507">
        <ele>4.708</ele>
        <time>2019-06-15T10:33:59Z</time>
      </trkpt>
      <trkpt lat="39.148631" lon="-0.252490">
        <ele>4.968</ele>
        <time>2019-06-15T10:34:00Z</time>
      </trkpt>
      <trkpt lat="39.148573" lon="-0.252466">
        <ele>4.682</ele>
        <time>2019-06-15T10:34:01Z</time>
      </trkpt>
      <trkpt lat="39.148517" lon="-0.252453">
        <ele>4.471</ele>
        <time>2019-06-15T10:34:02Z</time>
      </trkpt>
      <trkpt lat="39.148464" lon="-0.252430">
        <ele>4.124</ele>
        <time>2019-06-15T10:34:03Z</time>
      </trkpt>
      <trkpt lat="39.148402" lon="-0.252409">
        <ele>3.826</ele>
        <time>2019-06-15T10:34:04Z</time>
      </trkpt>
      <trkpt lat="39.148342" lon="-0.252395">
        <ele>3.673</ele>
        <time>2019-06-15T10:34:05Z</time>
      </trkpt>
      <trkpt lat="39.148285" lon="-0.252374">
        <ele>3.372</ele>
        <time>2019-06-15T10:34:06Z</time>
      </trkpt>
      <trkpt lat="39.148220" lon="-0.252359">
        <ele>2.937</ele>
        <time>2019-06-15T10:34:07Z</time>
      </trkpt>
      <trkpt lat="39.148156" lon="-0.252342">
        <ele>2.544</ele>
        <time>2019-06-15T10:34:08Z</time>
      </trkpt>
      <trkpt lat="39.148098" lon="-0.252321">
        <ele>2.205</ele>
        <time>2019-06-15T10:34:09Z</time>
      </trkpt>
      <trkpt lat="39.148037" lon="-0.252298">
        <ele>1.915</ele>
        <time>2019-06-15T10:34:10Z</time>
      </trkpt>
      <trkpt lat="39.147975" lon="-0.252277">
        <ele>1.708</ele>
        <time>2019-06-15T10:34:11Z</time>
      </trkpt>
      <trkpt lat="39.147915" lon="-0.252252">
        <ele>1.487</ele>
        <time>2019-06-15T10:34:12Z</time>
      </trkpt>
      <trkpt lat="39.147853" lon="-0.252237">
        <ele>1.291</ele>
        <time>2019-06-15T10:34:13Z</time>
      </trkpt>
      <trkpt lat="39.147792" lon="-0.252220">
        <ele>1.190</ele>
        <time>2019-06-15T10:34:14Z</time>
      </trkpt>
      <trkpt lat="39.147732" lon="-0.252198">
        <ele>1.123</ele>
        <time>2019-06-15T10:34:15Z</time>
      </trkpt>
      <trkpt lat="39.147679" lon="-0.252178">
        <ele>1.285</ele>
        <time>2019-06-15T10:34:16Z</time>
      </trkpt>
      <trkpt lat="39.147618" lon="-0.252164">
        <ele>1.212</ele>
        <time>2019-06-15T10:34:17Z</time>
      </trkpt>
      <trkpt lat="39.147559" lon="-0.252149">
        <ele>1.361</ele>
        <time>2019-06-15T10:34:18Z</time>
      </trkpt>
      <trkpt lat="39.147503" lon="-0.252127">
        <ele>1.386</ele>
        <time>2019-06-15T10:34:19Z</time>
      </trkpt>
      <trkpt lat="39.147442" lon="-0.252107">
        <ele>1.678</ele>
        <time>2019-06-15T10:34:20Z</time>
      </trkpt>
      <trkpt lat="39.147375" lon="-0.252092">
        <ele>1.933</ele>
        <time>2019-06-15T10:34:21Z</time>
      </trkpt>
      <trkpt lat="39.147317" lon="-0.252076">
        <ele>2.226</ele>
        <time>2019-06-15T10:34:22Z</time>
      </trkpt>
      <trkpt lat="39.147253" lon="-0.252053">
        <ele>2.508</ele>
        <time>2019-06-15T10:34:23Z</time>
      </trkpt>
      <trkpt lat="39.147193" lon="-0.252038">
        <ele>2.790</ele>
        <time>2019-06-15T10:34:24Z</time>
      </trkpt>
      <trkpt lat="39.147133" lon="-0.252021">
        <ele>2.814</ele>
        <time>2019-06-15T10:34:25Z</time>
      </trkpt>
      <trkpt lat="39.147070" lon="-0.252002">
        <ele>2.993</ele>
        <time>2019-06-15T10:34:26Z</time>
      </trkpt>
      <trkpt lat="39.147010" lon="-0.251991">
        <ele>3.096</ele>
        <time>2019-06-15T10:34:27Z</time>
      </trkpt>
      <trkpt lat="39.146948" lon="-0.251972">
        <ele>3.098</ele>
        <time>2019-06-15T10:34:28Z</time>
      </trkpt>
      <trkpt lat="39.146884" lon="-0.251951">
        <ele>2.885</ele>
        <time>2019-06-15T10:34:29Z</time>
      </trkpt>
      <trkpt lat="39.146820" lon="-0.251936">
        <ele>2.564</ele>
        <time>2019-06-15T10:34:30Z</time>
      </trkpt>
      <trkpt lat="39.146759" lon="-0.251913">
        <ele>2.359</ele>
        <time>2019-06-15T10:34:31Z</time>
      </trkpt>
      <trkpt lat="39.146695" lon="-0.251890">
        <ele>2.193</ele>
        <time>2019-06-15T10:34:32Z</time>
      </trkpt>
      <trkpt lat="39.146631" lon="-0.251867">
        <ele>2.065</ele>
        <time>2019-06-15T10:34:33Z</time>
      </trkpt>
      <trkpt lat="39.146566" lon="-0.251847">
        <ele>2.021</ele>
        <time>2019-06-15T10:34:34Z</time>
      </trkpt>
      <trkpt lat="39.146497" lon="-0.251829">
        <ele>2.008</ele>
        <time>2019-06-15T10:34:35Z</time>
      </trkpt>
      <trkpt lat="39.146434" lon="-0.251808">
        <ele>2.092</ele>
        <time>2019-06-15T10:34:36Z</time>
      </trkpt>
      <trkpt lat="39.146361" lon="-0.251786">
        <ele>2.116</ele>
        <time>2019-06-15T10:34:37Z</time>
      </trkpt>
      <trkpt lat="39.146305" lon="-0.251762">
        <ele>2.295</ele>
        <time>2019-06-15T10:34:38Z</time>
      </trkpt>
      <trkpt lat="39.146244" lon="-0.251748">
        <ele>2.458</ele>
        <time>2019-06-15T10:34:39Z</time>
      </trkpt>
      <trkpt lat="39.146181" lon="-0.251725">
        <ele>2.610</ele>
        <time>2019-06-15T10:34:40Z</time>
      </trkpt>
      <trkpt lat="39.146119" lon="-0.251699">
        <ele>2.957</ele>
        <time>2019-06-15T10:34:41Z</time>
      </trkpt>
      <trkpt lat="39.146049" lon="-0.251673">
        <ele>3.036</ele>
        <time>2019-06-15T10:34:42Z</time>
      </trkpt>
      <trkpt lat="39.145984" lon="-0.251658">
        <ele>3.041</ele>
        <time>2019-06-15T10:34:43Z</time>
      </trkpt>
      <trkpt lat="39.145921" lon="-0.251643">
        <ele>2.915</ele>
        <time>2019-06-15T10:34:44Z</time>
      </trkpt>
      <trkpt lat="39.145855" lon="-0.251623">
        <ele>2.965</ele>
        <time>2019-06-15T10:34:45Z</time>
      </trkpt>
      <trkpt lat="39.145791" lon="-0.251601">
        <ele>2.811</ele>
        <time>2019-06-15T10:34:46Z</time>
      </trkpt>
      <trkpt lat="39.145735" lon="-0.251587">
        <ele>2.708</ele>
        <time>2019-06-15T10:34:47Z</time>
      </trkpt>
      <trkpt lat="39.145671" lon="-0.251569">
        <ele>2.674</ele>
        <time>2019-06-15T10:34:48Z</time>
      </trkpt>
      <trkpt lat="39.145606" lon="-0.251553">
        <ele>2.698</ele>
        <time>2019-06-15T10:34:49Z</time>
      </trkpt>
      <trkpt lat="39.145534" lon="-0.251531">
        <ele>2.577</ele>
        <time>2019-06-15T10:34:50Z</time>
      </trkpt>
      <trkpt lat="39.145469" lon="-0.251497">
        <ele>2.420</ele>
        <time>2019-06-15T10:34:51Z</time>
      </trkpt>
      <trkpt lat="39.145408" lon="-0.251479">
        <ele>2.372</ele>
        <time>2019-06-15T10:34:52Z</time>
      </trkpt>
      <trkpt lat="39.145342" lon="-0.251458">
        <ele>2.279</ele>
        <time>2019-06-15T10:34:53Z</time>
      </trkpt>
      <trkpt lat="39.145279" lon="-0.251440">
        <ele>2.238</ele>
        <time>2019-06-15T10:34:54Z</time>
      </trkpt>
      <trkpt lat="39.145218" lon="-0.251419">
        <ele>2.153</ele>
        <time>2019-06-15T10:34:55Z</time>
      </trkpt>
      <trkpt lat="39.145158" lon="-0.251408">
        <ele>2.094</ele>
        <time>2019-06-15T10:34:56Z</time>
      </trkpt>
      <trkpt lat="39.145097" lon="-0.251389">
        <ele>2.057</ele>
        <time>2019-06-15T10:34:57Z</time>
      </trkpt>
      <trkpt lat="39.145033" lon="-0.251377">
        <ele>2.022</ele>
        <time>2019-06-15T10:34:58Z</time>
      </trkpt>
      <trkpt lat="39.144973" lon="-0.251366">
        <ele>1.808</ele>
        <time>2019-06-15T10:34:59Z</time>
      </trkpt>
      <trkpt lat="39.144913" lon="-0.251350">
        <ele>1.662</ele>
        <time>2019-06-15T10:35:00Z</time>
      </trkpt>
      <trkpt lat="39.144853" lon="-0.251341">
        <ele>1.476</ele>
        <time>2019-06-15T10:35:01Z</time>
      </trkpt>
      <trkpt lat="39.144794" lon="-0.251328">
        <ele>1.235</ele>
        <time>2019-06-15T10:35:02Z</time>
      </trkpt>
      <trkpt lat="39.144733" lon="-0.251317">
        <ele>1.018</ele>
        <time>2019-06-15T10:35:03Z</time>
      </trkpt>
      <trkpt lat="39.144675" lon="-0.251308">
        <ele>1.040</ele>
        <time>2019-06-15T10:35:04Z</time>
      </trkpt>
      <trkpt lat="39.144623" lon="-0.251299">
        <ele>1.057</ele>
        <time>2019-06-15T10:35:05Z</time>
      </trkpt>
      <trkpt lat="39.144575" lon="-0.251296">
        <ele>1.056</ele>
        <time>2019-06-15T10:35:06Z</time>
      </trkpt>
      <trkpt lat="39.144517" lon="-0.251282">
        <ele>1.021</ele>
        <time>2019-06-15T10:35:07Z</time>
      </trkpt>
      <trkpt lat="39.144459" lon="-0.251268">
        <ele>1.053</ele>
        <time>2019-06-15T10:35:08Z</time>
      </trkpt>
      <trkpt lat="39.144401" lon="-0.251262">
        <ele>1.204</ele>
        <time>2019-06-15T10:35:09Z</time>
      </trkpt>
      <trkpt lat="39.144352" lon="-0.251253">
        <ele>1.314</ele>
        <time>2019-06-15T10:35:10Z</time>
      </trkpt>
      <trkpt lat="39.144295" lon="-0.251238">
        <ele>1.508</ele>
        <time>2019-06-15T10:35:11Z</time>
      </trkpt>
      <trkpt lat="39.144246" lon="-0.251231">
        <ele>1.758</ele>
        <time>2019-06-15T10:35:12Z</time>
      </trkpt>
      <trkpt lat="39.144190" lon="-0.251217">
        <ele>1.982</ele>
        <time>2019-06-15T10:35:13Z</time>
      </trkpt>
      <trkpt lat="39.144136" lon="-0.251204">
        <ele>1.971</ele>
        <time>2019-06-15T10:35:14Z</time>
      </trkpt>
      <trkpt lat="39.144078" lon="-0.251188">
        <ele>1.844</ele>
        <time>2019-06-15T10:35:15Z</time>
      </trkpt>
      <trkpt lat="39.144021" lon="-0.251177">
        <ele>1.616</ele>
        <time>2019-06-15T10:35:16Z</time>
      </trkpt>
      <trkpt lat="39.143964" lon="-0.251160">
        <ele>1.433</ele>
        <time>2019-06-15T10:35:17Z</time>
      </trkpt>
      <trkpt lat="39.143906" lon="-0.251144">
        <ele>1.262</ele>
        <time>2019-06-15T10:35:18Z</time>
      </trkpt>
      <trkpt lat="39.143842" lon="-0.251133">
        <ele>1.167</ele>
        <time>2019-06-15T10:35:19Z</time>
      </trkpt>
      <trkpt lat="39.143782" lon="-0.251120">
        <ele>1.022</ele>
        <time>2019-06-15T10:35:20Z</time>
      </trkpt>
      <trkpt lat="39.143724" lon="-0.251109">
        <ele>1.062</ele>
        <time>2019-06-15T10:35:21Z</time>
      </trkpt>
      <trkpt lat="39.143663" lon="-0.251107">
        <ele>1.008</ele>
        <time>2019-06-15T10:35:22Z</time>
      </trkpt>
      <trkpt lat="39.143606" lon="-0.251099">
        <ele>1.008</ele>
        <time>2019-06-15T10:35:23Z</time>
      </trkpt>
      <trkpt lat="39.143547" lon="-0.251079">
        <ele>1.365</ele>
        <time>2019-06-15T10:35:24Z</time>
      </trkpt>
      <trkpt lat="39.143487" lon="-0.251067">
        <ele>1.779</ele>
        <time>2019-06-15T10:35:25Z</time>
      </trkpt>
      <trkpt lat="39.143424" lon="-0.251054">
        <ele>2.198</ele>
        <time>2019-06-15T10:35:26Z</time>
      </trkpt>
      <trkpt lat="39.143366" lon="-0.251037">
        <ele>2.581</ele>
        <time>2019-06-15T10:35:27Z</time>
      </trkpt>
      <trkpt lat="39.143304" lon="-0.251025">
        <ele>2.723</ele>
        <time>2019-06-15T10:35:28Z</time>
      </trkpt>
      <trkpt lat="39.143244" lon="-0.251012">
        <ele>2.850</ele>
        <time>2019-06-15T10:35:29Z</time>
      </trkpt>
      <trkpt lat="39.143191" lon="-0.250992">
        <ele>2.819</ele>
        <time>2019-06-15T10:35:30Z</time>
      </trkpt>
      <trkpt lat="39.143132" lon="-0.250986">
        <ele>2.914</ele>
        <time>2019-06-15T10:35:31Z</time>
      </trkpt>
      <trkpt lat="39.143070" lon="-0.250968">
        <ele>3.099</ele>
        <time>2019-06-15T10:35:32Z</time>
      </trkpt>
      <trkpt lat="39.143008" lon="-0.250965">
        <ele>3.007</ele>
        <time>2019-06-15T10:35:33Z</time>
      </trkpt>
      <trkpt lat="39.142943" lon="-0.250952">
        <ele>3.127</ele>
        <time>2019-06-15T10:35:34Z</time>
      </trkpt>
      <trkpt lat="39.142880" lon="-0.250944">
        <ele>3.108</ele>
        <time>2019-06-15T10:35:35Z</time>
      </trkpt>
      <trkpt lat="39.142807" lon="-0.250928">
        <ele>3.312</ele>
        <time>2019-06-15T10:35:36Z</time>
      </trkpt>
      <trkpt lat="39.142747" lon="-0.250912">
        <ele>3.446</ele>
        <time>2019-06-15T10:35:37Z</time>
      </trkpt>
      <trkpt lat="39.142685" lon="-0.250912">
        <ele>3.385</ele>
        <time>2019-06-15T10:35:38Z</time>
      </trkpt>
      <trkpt lat="39.142623" lon="-0.250893">
        <ele>3.318</ele>
        <time>2019-06-15T10:35:39Z</time>
      </trkpt>
      <trkpt lat="39.142556" lon="-0.250884">
        <ele>3.120</ele>
        <time>2019-06-15T10:35:40Z</time>
      </trkpt>
      <trkpt lat="39.142494" lon="-0.250879">
        <ele>3.017</ele>
        <time>2019-06-15T10:35:41Z</time>
      </trkpt>
      <trkpt lat="39.142432" lon="-0.250861">
        <ele>3.066</ele>
        <time>2019-06-15T10:35:42Z</time>
      </trkpt>
      <trkpt lat="39.142368" lon="-0.250843">
        <ele>3.021</ele>
        <time>2019-06-15T10:35:43Z</time>
      </trkpt>
      <trkpt lat="39.142311" lon="-0.250826">
        <ele>3.052</ele>
        <time>2019-06-15T10:35:44Z</time>
      </trkpt>
      <trkpt lat="39.142243" lon="-0.250810">
        <ele>3.053</ele>
        <time>2019-06-15T10:35:45Z</time>
      </trkpt>
      <trkpt lat="39.142185" lon="-0.250801">
        <ele>3.008</ele>
        <time>2019-06-15T10:35:46Z</time>
      </trkpt>
      <trkpt lat="39.142121" lon="-0.250785">
        <ele>3.008</ele>
        <time>2019-06-15T10:35:47Z</time>
      </trkpt>
      <trkpt lat="39.142063" lon="-0.250769">
        <ele>3.038</ele>
        <time>2019-06-15T10:35:48Z</time>
      </trkpt>
      <trkpt lat="39.142000" lon="-0.250757">
        <ele>3.012</ele>
        <time>2019-06-15T10:35:49Z</time>
      </trkpt>
      <trkpt lat="39.141942" lon="-0.250736">
        <ele>3.071</ele>
        <time>2019-06-15T10:35:50Z</time>
      </trkpt>
      <trkpt lat="39.141884" lon="-0.250723">
        <ele>2.894</ele>
        <time>2019-06-15T10:35:51Z</time>
      </trkpt>
      <trkpt lat="39.141824" lon="-0.250701">
        <ele>2.686</ele>
        <time>2019-06-15T10:35:52Z</time>
      </trkpt>
      <trkpt lat="39.141765" lon="-0.250684">
        <ele>2.483</ele>
        <time>2019-06-15T10:35:53Z</time>
      </trkpt>
      <trkpt lat="39.141707" lon="-0.250678">
        <ele>2.172</ele>
        <time>2019-06-15T10:35:54Z</time>
      </trkpt>
      <trkpt lat="39.141648" lon="-0.250667">
        <ele>2.127</ele>
        <time>2019-06-15T10:35:55Z</time>
      </trkpt>
      <trkpt lat="39.141582" lon="-0.250645">
        <ele>2.335</ele>
        <time>2019-06-15T10:35:56Z</time>
      </trkpt>
      <trkpt lat="39.141517" lon="-0.250633">
        <ele>2.586</ele>
        <time>2019-06-15T10:35:57Z</time>
      </trkpt>
      <trkpt lat="39.141454" lon="-0.250620">
        <ele>2.814</ele>
        <time>2019-06-15T10:35:58Z</time>
      </trkpt>
      <trkpt lat="39.141397" lon="-0.250611">
        <ele>3.008</ele>
        <time>2019-06-15T10:35:59Z</time>
      </trkpt>
      <trkpt lat="39.141333" lon="-0.250589">
        <ele>3.246</ele>
        <time>2019-06-15T10:36:00Z</time>
      </trkpt>
      <trkpt lat="39.141275" lon="-0.250575">
        <ele>3.490</ele>
        <time>2019-06-15T10:36:01Z</time>
      </trkpt>
      <trkpt lat="39.141214" lon="-0.250563">
        <ele>3.669</ele>
        <time>2019-06-15T10:36:02Z</time>
      </trkpt>
      <trkpt lat="39.141162" lon="-0.250548">
        <ele>3.842</ele>
        <time>2019-06-15T10:36:03Z</time>
      </trkpt>
      <trkpt lat="39.141108" lon="-0.250524">
        <ele>3.954</ele>
        <time>2019-06-15T10:36:04Z</time>
      </trkpt>
      <trkpt lat="39.141052" lon="-0.250513">
        <ele>3.761</ele>
        <time>2019-06-15T10:36:05Z</time>
      </trkpt>
      <trkpt lat="39.140993" lon="-0.250499">
        <ele>3.550</ele>
        <time>2019-06-15T10:36:06Z</time>
      </trkpt>
      <trkpt lat="39.140930" lon="-0.250498">
        <ele>3.345</ele>
        <time>2019-06-15T10:36:07Z</time>
      </trkpt>
      <trkpt lat="39.140875" lon="-0.250491">
        <ele>3.188</ele>
        <time>2019-06-15T10:36:08Z</time>
      </trkpt>
      <trkpt lat="39.140813" lon="-0.250478">
        <ele>2.924</ele>
        <time>2019-06-15T10:36:09Z</time>
      </trkpt>
      <trkpt lat="39.140752" lon="-0.250460">
        <ele>2.526</ele>
        <time>2019-06-15T10:36:10Z</time>
      </trkpt>
      <trkpt lat="39.140690" lon="-0.250446">
        <ele>2.208</ele>
        <time>2019-06-15T10:36:11Z</time>
      </trkpt>
      <trkpt lat="39.140631" lon="-0.250431">
        <ele>1.961</ele>
        <time>2019-06-15T10:36:12Z</time>
      </trkpt>
      <trkpt lat="39.140569" lon="-0.250411">
        <ele>1.655</ele>
        <time>2019-06-15T10:36:13Z</time>
      </trkpt>
      <trkpt lat="39.140502" lon="-0.250398">
        <ele>1.894</ele>
        <time>2019-06-15T10:36:14Z</time>
      </trkpt>
      <trkpt lat="39.140445" lon="-0.250375">
        <ele>2.087</ele>
        <time>2019-06-15T10:36:15Z</time>
      </trkpt>
      <trkpt lat="39.140383" lon="-0.250354">
        <ele>2.359</ele>
        <time>2019-06-15T10:36:16Z</time>
      </trkpt>
      <trkpt lat="39.140325" lon="-0.250340">
        <ele>2.656</ele>
        <time>2019-06-15T10:36:17Z</time>
      </trkpt>
      <trkpt lat="39.140265" lon="-0.250316">
        <ele>2.945</ele>
        <time>2019-06-15T10:36:18Z</time>
      </trkpt>
      <trkpt lat="39.140202" lon="-0.250300">
        <ele>2.910</ele>
        <time>2019-06-15T10:36:19Z</time>
      </trkpt>
      <trkpt lat="39.140143" lon="-0.250287">
        <ele>3.023</ele>
        <time>2019-06-15T10:36:20Z</time>
      </trkpt>
      <trkpt lat="39.140083" lon="-0.250260">
        <ele>3.083</ele>
        <time>2019-06-15T10:36:21Z</time>
      </trkpt>
      <trkpt lat="39.140018" lon="-0.250242">
        <ele>3.011</ele>
        <time>2019-06-15T10:36:22Z</time>
      </trkpt>
      <trkpt lat="39.139953" lon="-0.250219">
        <ele>3.208</ele>
        <time>2019-06-15T10:36:23Z</time>
      </trkpt>
      <trkpt lat="39.139888" lon="-0.250196">
        <ele>3.435</ele>
        <time>2019-06-15T10:36:24Z</time>
      </trkpt>
      <trkpt lat="39.139822" lon="-0.250175">
        <ele>3.659</ele>
        <time>2019-06-15T10:36:25Z</time>
      </trkpt>
      <trkpt lat="39.139765" lon="-0.250158">
        <ele>3.838</ele>
        <time>2019-06-15T10:36:26Z</time>
      </trkpt>
      <trkpt lat="39.139702" lon="-0.250134">
        <ele>4.191</ele>
        <time>2019-06-15T10:36:27Z</time>
      </trkpt>
      <trkpt lat="39.139640" lon="-0.250106">
        <ele>4.383</ele>
        <time>2019-06-15T10:36:28Z</time>
      </trkpt>
      <trkpt lat="39.139574" lon="-0.250090">
        <ele>4.580</ele>
        <time>2019-06-15T10:36:29Z</time>
      </trkpt>
      <trkpt lat="39.139505" lon="-0.250070">
        <ele>4.849</ele>
        <time>2019-06-15T10:36:30Z</time>
      </trkpt>
      <trkpt lat="39.139443" lon="-0.250051">
        <ele>5.084</ele>
        <time>2019-06-15T10:36:31Z</time>
      </trkpt>
      <trkpt lat="39.139379" lon="-0.250046">
        <ele>4.817</ele>
        <time>2019-06-15T10:36:32Z</time>
      </trkpt>
      <trkpt lat="39.139315" lon="-0.250031">
        <ele>4.587</ele>
        <time>2019-06-15T10:36:33Z</time>
      </trkpt>
      <trkpt lat="39.139255" lon="-0.250023">
        <ele>4.315</ele>
        <time>2019-06-15T10:36:34Z</time>
      </trkpt>
      <trkpt lat="39.139192" lon="-0.250012">
        <ele>4.108</ele>
        <time>2019-06-15T10:36:35Z</time>
      </trkpt>
      <trkpt lat="39.139129" lon="-0.250005">
        <ele>4.084</ele>
        <time>2019-06-15T10:36:36Z</time>
      </trkpt>
      <trkpt lat="39.139070" lon="-0.249978">
        <ele>4.158</ele>
        <time>2019-06-15T10:36:37Z</time>
      </trkpt>
      <trkpt lat="39.139006" lon="-0.249964">
        <ele>4.127</ele>
        <time>2019-06-15T10:36:38Z</time>
      </trkpt>
      <trkpt lat="39.138943" lon="-0.249947">
        <ele>4.070</ele>
        <time>2019-06-15T10:36:39Z</time>
      </trkpt>
      <trkpt lat="39.138872" lon="-0.249932">
        <ele>3.922</ele>
        <time>2019-06-15T10:36:40Z</time>
      </trkpt>
      <trkpt lat="39.138818" lon="-0.249930">
        <ele>3.689</ele>
        <time>2019-06-15T10:36:41Z</time>
      </trkpt>
      <trkpt lat="39.138752" lon="-0.249921">
        <ele>3.258</ele>
        <time>2019-06-15T10:36:42Z</time>
      </trkpt>
      <trkpt lat="39.138682" lon="-0.249905">
        <ele>2.893</ele>
        <time>2019-06-15T10:36:43Z</time>
      </trkpt>
      <trkpt lat="39.138619" lon="-0.249887">
        <ele>2.564</ele>
        <time>2019-06-15T10:36:44Z</time>
      </trkpt>
      <trkpt lat="39.138556" lon="-0.249880">
        <ele>2.206</ele>
        <time>2019-06-15T10:36:45Z</time>
      </trkpt>
      <trkpt lat="39.138493" lon="-0.249881">
        <ele>2.016</ele>
        <time>2019-06-15T10:36:46Z</time>
      </trkpt>
      <trkpt lat="39.138430" lon="-0.249878">
        <ele>1.808</ele>
        <time>2019-06-15T10:36:47Z</time>
      </trkpt>
      <trkpt lat="39.138369" lon="-0.249897">
        <ele>1.539</ele>
        <time>2019-06-15T10:36:48Z</time>
      </trkpt>
      <trkpt lat="39.138311" lon="-0.249914">
        <ele>1.413</ele>
        <time>2019-06-15T10:36:49Z</time>
      </trkpt>
      <trkpt lat="39.138251" lon="-0.249937">
        <ele>1.552</ele>
        <time>2019-06-15T10:36:50Z</time>
      </trkpt>
      <trkpt lat="39.138197" lon="-0.249959">
        <ele>1.645</ele>
        <time>2019-06-15T10:36:51Z</time>
      </trkpt>
      <trkpt lat="39.138139" lon="-0.249982">
        <ele>1.857</ele>
        <time>2019-06-15T10:36:52Z</time>
      </trkpt>
      <trkpt lat="39.138082" lon="-0.250006">
        <ele>1.964</ele>
        <time>2019-06-15T10:36:53Z</time>
      </trkpt>
      <trkpt lat="39.138020" lon="-0.250035">
        <ele>1.833</ele>
        <time>2019-06-15T10:36:54Z</time>
      </trkpt>
      <trkpt lat="39.137962" lon="-0.250053">
        <ele>1.748</ele>
        <time>2019-06-15T10:36:55Z</time>
      </trkpt>
      <trkpt lat="39.137911" lon="-0.250071">
        <ele>1.875</ele>
        <time>2019-06-15T10:36:56Z</time>
      </trkpt>
      <trkpt lat="39.137851" lon="-0.250098">
        <ele>1.828</ele>
        <time>2019-06-15T10:36:57Z</time>
      </trkpt>
      <trkpt lat="39.137792" lon="-0.250126">
        <ele>2.020</ele>
        <time>2019-06-15T10:36:58Z</time>
      </trkpt>
      <trkpt lat="39.137738" lon="-0.250151">
        <ele>2.108</ele>
        <time>2019-06-15T10:36:59Z</time>
      </trkpt>
      <trkpt lat="39.137683" lon="-0.250180">
        <ele>2.350</ele>
        <time>2019-06-15T10:37:00Z</time>
      </trkpt>
      <trkpt lat="39.137627" lon="-0.250207">
        <ele>2.524</ele>
        <time>2019-06-15T10:37:01Z</time>
      </trkpt>
      <trkpt lat="39.137558" lon="-0.250229">
        <ele>2.843</ele>
        <time>2019-06-15T10:37:02Z</time>
      </trkpt>
      <trkpt lat="39.137497" lon="-0.250247">
        <ele>3.096</ele>
        <time>2019-06-15T10:37:03Z</time>
      </trkpt>
      <trkpt lat="39.137434" lon="-0.250279">
        <ele>3.268</ele>
        <time>2019-06-15T10:37:04Z</time>
      </trkpt>
      <trkpt lat="39.137371" lon="-0.250305">
        <ele>3.495</ele>
        <time>2019-06-15T10:37:05Z</time>
      </trkpt>
      <trkpt lat="39.137307" lon="-0.250339">
        <ele>3.594</ele>
        <time>2019-06-15T10:37:06Z</time>
      </trkpt>
      <trkpt lat="39.137241" lon="-0.250358">
        <ele>3.629</ele>
        <time>2019-06-15T10:37:07Z</time>
      </trkpt>
      <trkpt lat="39.137180" lon="-0.250379">
        <ele>3.589</ele>
        <time>2019-06-15T10:37:08Z</time>
      </trkpt>
      <trkpt lat="39.137112" lon="-0.250399">
        <ele>3.306</ele>
        <time>2019-06-15T10:37:09Z</time>
      </trkpt>
      <trkpt lat="39.137049" lon="-0.250423">
        <ele>3.226</ele>
        <time>2019-06-15T10:37:10Z</time>
      </trkpt>
      <trkpt lat="39.136983" lon="-0.250442">
        <ele>3.108</ele>
        <time>2019-06-15T10:37:11Z</time>
      </trkpt>
      <trkpt lat="39.136917" lon="-0.250466">
        <ele>2.891</ele>
        <time>2019-06-15T10:37:12Z</time>
      </trkpt>
      <trkpt lat="39.136854" lon="-0.250494">
        <ele>2.385</ele>
        <time>2019-06-15T10:37:13Z</time>
      </trkpt>
      <trkpt lat="39.136794" lon="-0.250519">
        <ele>1.934</ele>
        <time>2019-06-15T10:37:14Z</time>
      </trkpt>
      <trkpt lat="39.136728" lon="-0.250546">
        <ele>1.417</ele>
        <time>2019-06-15T10:37:15Z</time>
      </trkpt>
      <trkpt lat="39.136664" lon="-0.250571">
        <ele>1.119</ele>
        <time>2019-06-15T10:37:16Z</time>
      </trkpt>
      <trkpt lat="39.136596" lon="-0.250590">
        <ele>1.116</ele>
        <time>2019-06-15T10:37:17Z</time>
      </trkpt>
      <trkpt lat="39.136527" lon="-0.250607">
        <ele>1.095</ele>
        <time>2019-06-15T10:37:18Z</time>
      </trkpt>
      <trkpt lat="39.136462" lon="-0.250629">
        <ele>0.940</ele>
        <time>2019-06-15T10:37:19Z</time>
      </trkpt>
      <trkpt lat="39.136396" lon="-0.250651">
        <ele>0.712</ele>
        <time>2019-06-15T10:37:20Z</time>
      </trkpt>
      <trkpt lat="39.136326" lon="-0.250673">
        <ele>0.732</ele>
        <time>2019-06-15T10:37:21Z</time>
      </trkpt>
      <trkpt lat="39.136262" lon="-0.250692">
        <ele>0.705</ele>
        <time>2019-06-15T10:37:22Z</time>
      </trkpt>
      <trkpt lat="39.136192" lon="-0.250711">
        <ele>0.808</ele>
        <time>2019-06-15T10:37:23Z</time>
      </trkpt>
      <trkpt lat="39.136124" lon="-0.250733">
        <ele>1.044</ele>
        <time>2019-06-15T10:37:24Z</time>
      </trkpt>
      <trkpt lat="39.136057" lon="-0.250760">
        <ele>0.878</ele>
        <time>2019-06-15T10:37:25Z</time>
      </trkpt>
      <trkpt lat="39.135997" lon="-0.250789">
        <ele>0.637</ele>
        <time>2019-06-15T10:37:26Z</time>
      </trkpt>
      <trkpt lat="39.135933" lon="-0.250810">
        <ele>0.450</ele>
        <time>2019-06-15T10:37:27Z</time>
      </trkpt>
      <trkpt lat="39.135868" lon="-0.250823">
        <ele>0.192</ele>
        <time>2019-06-15T10:37:28Z</time>
      </trkpt>
      <trkpt lat="39.135810" lon="-0.250850">
        <ele>0.189</ele>
        <time>2019-06-15T10:37:29Z</time>
      </trkpt>
      <trkpt lat="39.135743" lon="-0.250872">
        <ele>0.428</ele>
        <time>2019-06-15T10:37:30Z</time>
      </trkpt>
      <trkpt lat="39.135673" lon="-0.250890">
        <ele>0.583</ele>
        <time>2019-06-15T10:37:31Z</time>
      </trkpt>
      <trkpt lat="39.135608" lon="-0.250907">
        <ele>0.685</ele>
        <time>2019-06-15T10:37:32Z</time>
      </trkpt>
      <trkpt lat="39.135547" lon="-0.250929">
        <ele>0.789</ele>
        <time>2019-06-15T10:37:33Z</time>
      </trkpt>
      <trkpt lat="39.135482" lon="-0.250951">
        <ele>1.017</ele>
        <time>2019-06-15T10:37:34Z</time>
      </trkpt>
      <trkpt lat="39.135421" lon="-0.250971">
        <ele>1.208</ele>
        <time>2019-06-15T10:37:35Z</time>
      </trkpt>
      <trkpt lat="39.135359" lon="-0.250994">
        <ele>1.541</ele>
        <time>2019-06-15T10:37:36Z</time>
      </trkpt>
      <trkpt lat="39.135303" lon="-0.251012">
        <ele>1.915</ele>
        <time>2019-06-15T10:37:37Z</time>
      </trkpt>
      <trkpt lat="39.135244" lon="-0.251042">
        <ele>2.154</ele>
        <time>2019-06-15T10:37:38Z</time>
      </trkpt>
      <trkpt lat="39.135184" lon="-0.251079">
        <ele>2.367</ele>
        <time>2019-06-15T10:37:39Z</time>
      </trkpt>
      <trkpt lat="39.135123" lon="-0.251113">
        <ele>2.569</ele>
        <time>2019-06-15T10:37:40Z</time>
      </trkpt>
      <trkpt lat="39.135061" lon="-0.251144">
        <ele>2.656</ele>
        <time>2019-06-15T10:37:41Z</time>
      </trkpt>
      <trkpt lat="39.134964" lon="-0.251227">
        <ele>2.445</ele>
        <time>2019-06-15T10:37:43Z</time>
      </trkpt>
      <trkpt lat="39.134964" lon="-0.251227">
        <ele>2.430</ele>
        <time>2019-06-15T10:37:43Z</time>
      </trkpt>
      <trkpt lat="39.134912" lon="-0.251267">
        <ele>2.229</ele>
        <time>2019-06-15T10:37:44Z</time>
      </trkpt>
      <trkpt lat="39.134855" lon="-0.251289">
        <ele>2.000</ele>
        <time>2019-06-15T10:37:45Z</time>
      </trkpt>
      <trkpt lat="39.134805" lon="-0.251324">
        <ele>1.920</ele>
        <time>2019-06-15T10:37:46Z</time>
      </trkpt>
      <trkpt lat="39.134615" lon="-0.251463">
        <ele>1.408</ele>
        <time>2019-06-15T10:37:50Z</time>
      </trkpt>
      <trkpt lat="39.134615" lon="-0.251463">
        <ele>1.425</ele>
        <time>2019-06-15T10:37:50Z</time>
      </trkpt>
      <trkpt lat="39.134615" lon="-0.251463">
        <ele>1.499</ele>
        <time>2019-06-15T10:37:50Z</time>
      </trkpt>
      <trkpt lat="39.134615" lon="-0.251463">
        <ele>1.498</ele>
        <time>2019-06-15T10:37:50Z</time>
      </trkpt>
      <trkpt lat="39.134516" lon="-0.251537">
        <ele>1.141</ele>
        <time>2019-06-15T10:37:53Z</time>
      </trkpt>
      <trkpt lat="39.134516" lon="-0.251537">
        <ele>1.173</ele>
        <time>2019-06-15T10:37:53Z</time>
      </trkpt>
      <trkpt lat="39.134516" lon="-0.251537">
        <ele>1.180</ele>
        <time>2019-06-15T10:37:53Z</time>
      </trkpt>
      <trkpt lat="39.134444" lon="-0.251580">
        <ele>1.079</ele>
        <time>2019-06-15T10:37:54Z</time>
      </trkpt>
      <trkpt lat="39.134376" lon="-0.251570">
        <ele>0.964</ele>
        <time>2019-06-15T10:37:55Z</time>
      </trkpt>
      <trkpt lat="39.134333" lon="-0.251600">
        <ele>0.995</ele>
        <time>2019-06-15T10:37:56Z</time>
      </trkpt>
      <trkpt lat="39.134265" lon="-0.251611">
        <ele>0.949</ele>
        <time>2019-06-15T10:37:57Z</time>
      </trkpt>
      <trkpt lat="39.134205" lon="-0.251654">
        <ele>1.023</ele>
        <time>2019-06-15T10:37:58Z</time>
      </trkpt>
      <trkpt lat="39.134152" lon="-0.251685">
        <ele>1.008</ele>
        <time>2019-06-15T10:37:59Z</time>
      </trkpt>
      <trkpt lat="39.134056" lon="-0.251730">
        <ele>1.072</ele>
        <time>2019-06-15T10:38:01Z</time>
      </trkpt>
      <trkpt lat="39.133962" lon="-0.251816">
        <ele>1.016</ele>
        <time>2019-06-15T10:38:02Z</time>
      </trkpt>
      <trkpt lat="39.133975" lon="-0.251887">
        <ele>1.065</ele>
        <time>2019-06-15T10:38:03Z</time>
      </trkpt>
      <trkpt lat="39.133927" lon="-0.251945">
        <ele>1.068</ele>
        <time>2019-06-15T10:38:05Z</time>
      </trkpt>
      <trkpt lat="39.133871" lon="-0.252001">
        <ele>1.030</ele>
        <time>2019-06-15T10:38:07Z</time>
      </trkpt>
      <trkpt lat="39.133772" lon="-0.252058">
        <ele>0.897</ele>
        <time>2019-06-15T10:38:08Z</time>
      </trkpt>
      <trkpt lat="39.133721" lon="-0.252097">
        <ele>0.766</ele>
        <time>2019-06-15T10:38:09Z</time>
      </trkpt>
      <trkpt lat="39.133618" lon="-0.252121">
        <ele>0.411</ele>
        <time>2019-06-15T10:38:10Z</time>
      </trkpt>
      <trkpt lat="39.133636" lon="-0.252197">
        <ele>0.257</ele>
        <time>2019-06-15T10:38:12Z</time>
      </trkpt>
      <trkpt lat="39.133562" lon="-0.252376">
        <ele>0.300</ele>
        <time>2019-06-15T10:38:13Z</time>
      </trkpt>
      <trkpt lat="39.133470" lon="-0.252337">
        <ele>0.720</ele>
        <time>2019-06-15T10:38:14Z</time>
      </trkpt>
      <trkpt lat="39.133427" lon="-0.252401">
        <ele>1.108</ele>
        <time>2019-06-15T10:38:15Z</time>
      </trkpt>
      <trkpt lat="39.133372" lon="-0.252388">
        <ele>1.488</ele>
        <time>2019-06-15T10:38:16Z</time>
      </trkpt>
      <trkpt lat="39.133270" lon="-0.252425">
        <ele>2.032</ele>
        <time>2019-06-15T10:38:17Z</time>
      </trkpt>
      <trkpt lat="39.133225" lon="-0.252465">
        <ele>2.371</ele>
        <time>2019-06-15T10:38:18Z</time>
      </trkpt>
      <trkpt lat="39.133166" lon="-0.252511">
        <ele>2.684</ele>
        <time>2019-06-15T10:38:19Z</time>
      </trkpt>
      <trkpt lat="39.133106" lon="-0.252549">
        <ele>2.776</ele>
        <time>2019-06-15T10:38:20Z</time>
      </trkpt>
      <trkpt lat="39.133053" lon="-0.252545">
        <ele>2.873</ele>
        <time>2019-06-15T10:38:21Z</time>
      </trkpt>
      <trkpt lat="39.133015" lon="-0.252593">
        <ele>2.782</ele>
        <time>2019-06-15T10:38:22Z</time>
      </trkpt>
      <trkpt lat="39.132968" lon="-0.252623">
        <ele>2.767</ele>
        <time>2019-06-15T10:38:23Z</time>
      </trkpt>
      <trkpt lat="39.132909" lon="-0.252662">
        <ele>2.724</ele>
        <time>2019-06-15T10:38:24Z</time>
      </trkpt>
      <trkpt lat="39.132859" lon="-0.252687">
        <ele>2.804</ele>
        <time>2019-06-15T10:38:25Z</time>
      </trkpt>
      <trkpt lat="39.132802" lon="-0.252716">
        <ele>2.914</ele>
        <time>2019-06-15T10:38:26Z</time>
      </trkpt>
      <trkpt lat="39.132758" lon="-0.252739">
        <ele>3.008</ele>
        <time>2019-06-15T10:38:27Z</time>
      </trkpt>
      <trkpt lat="39.132699" lon="-0.252760">
        <ele>3.075</ele>
        <time>2019-06-15T10:38:28Z</time>
      </trkpt>
      <trkpt lat="39.132651" lon="-0.252791">
        <ele>3.029</ele>
        <time>2019-06-15T10:38:29Z</time>
      </trkpt>
      <trkpt lat="39.132598" lon="-0.252806">
        <ele>3.098</ele>
        <time>2019-06-15T10:38:30Z</time>
      </trkpt>
      <trkpt lat="39.132550" lon="-0.252820">
        <ele>3.031</ele>
        <time>2019-06-15T10:38:31Z</time>
      </trkpt>
      <trkpt lat="39.132484" lon="-0.252821">
        <ele>3.063</ele>
        <time>2019-06-15T10:38:32Z</time>
      </trkpt>
      <trkpt lat="39.132431" lon="-0.252837">
        <ele>3.150</ele>
        <time>2019-06-15T10:38:33Z</time>
      </trkpt>
      <trkpt lat="39.132377" lon="-0.252848">
        <ele>3.179</ele>
        <time>2019-06-15T10:38:34Z</time>
      </trkpt>
      <trkpt lat="39.132316" lon="-0.252866">
        <ele>3.214</ele>
        <time>2019-06-15T10:38:35Z</time>
      </trkpt>
      <trkpt lat="39.132248" lon="-0.252877">
        <ele>3.382</ele>
        <time>2019-06-15T10:38:36Z</time>
      </trkpt>
      <trkpt lat="39.132181" lon="-0.252884">
        <ele>3.243</ele>
        <time>2019-06-15T10:38:37Z</time>
      </trkpt>
      <trkpt lat="39.132119" lon="-0.252900">
        <ele>3.017</ele>
        <time>2019-06-15T10:38:38Z</time>
      </trkpt>
      <trkpt lat="39.132049" lon="-0.252909">
        <ele>2.808</ele>
        <time>2019-06-15T10:38:39Z</time>
      </trkpt>
      <trkpt lat="39.131983" lon="-0.252914">
        <ele>2.671</ele>
        <time>2019-06-15T10:38:40Z</time>
      </trkpt>
      <trkpt lat="39.131912" lon="-0.252922">
        <ele>2.415</ele>
        <time>2019-06-15T10:38:41Z</time>
      </trkpt>
      <trkpt lat="39.131856" lon="-0.252952">
        <ele>2.494</ele>
        <time>2019-06-15T10:38:42Z</time>
      </trkpt>
      <trkpt lat="39.131799" lon="-0.252961">
        <ele>2.127</ele>
        <time>2019-06-15T10:38:43Z</time>
      </trkpt>
      <trkpt lat="39.131745" lon="-0.252991">
        <ele>2.019</ele>
        <time>2019-06-15T10:38:44Z</time>
      </trkpt>
      <trkpt lat="39.131690" lon="-0.252999">
        <ele>1.736</ele>
        <time>2019-06-15T10:38:45Z</time>
      </trkpt>
      <trkpt lat="39.131589" lon="-0.252999">
        <ele>1.145</ele>
        <time>2019-06-15T10:38:47Z</time>
      </trkpt>
      <trkpt lat="39.131558" lon="-0.253109">
        <ele>1.340</ele>
        <time>2019-06-15T10:38:48Z</time>
      </trkpt>
      <trkpt lat="39.131484" lon="-0.253064">
        <ele>0.775</ele>
        <time>2019-06-15T10:38:49Z</time>
      </trkpt>
      <trkpt lat="39.131422" lon="-0.253053">
        <ele>0.228</ele>
        <time>2019-06-15T10:38:50Z</time>
      </trkpt>
      <trkpt lat="39.131347" lon="-0.253056">
        <ele>0.020</ele>
        <time>2019-06-15T10:38:51Z</time>
      </trkpt>
      <trkpt lat="39.131284" lon="-0.253080">
        <ele>0.108</ele>
        <time>2019-06-15T10:38:52Z</time>
      </trkpt>
      <trkpt lat="39.131210" lon="-0.253092">
        <ele>0.180</ele>
        <time>2019-06-15T10:38:53Z</time>
      </trkpt>
      <trkpt lat="39.131130" lon="-0.253105">
        <ele>0.274</ele>
        <time>2019-06-15T10:38:54Z</time>
      </trkpt>
      <trkpt lat="39.131060" lon="-0.253127">
        <ele>0.233</ele>
        <time>2019-06-15T10:38:55Z</time>
      </trkpt>
      <trkpt lat="39.130979" lon="-0.253130">
        <ele>0.136</ele>
        <time>2019-06-15T10:38:56Z</time>
      </trkpt>
      <trkpt lat="39.130906" lon="-0.253127">
        <ele>0.198</ele>
        <time>2019-06-15T10:38:57Z</time>
      </trkpt>
      <trkpt lat="39.130829" lon="-0.253124">
        <ele>0.055</ele>
        <time>2019-06-15T10:38:58Z</time>
      </trkpt>
      <trkpt lat="39.130752" lon="-0.253124">
        <ele>0.244</ele>
        <time>2019-06-15T10:38:59Z</time>
      </trkpt>
      <trkpt lat="39.130688" lon="-0.253102">
        <ele>0.469</ele>
        <time>2019-06-15T10:39:00Z</time>
      </trkpt>
      <trkpt lat="39.130622" lon="-0.253090">
        <ele>0.733</ele>
        <time>2019-06-15T10:39:01Z</time>
      </trkpt>
      <trkpt lat="39.130562" lon="-0.253081">
        <ele>0.923</ele>
        <time>2019-06-15T10:39:02Z</time>
      </trkpt>
      <trkpt lat="39.130509" lon="-0.253062">
        <ele>1.015</ele>
        <time>2019-06-15T10:39:03Z</time>
      </trkpt>
      <trkpt lat="39.130446" lon="-0.253034">
        <ele>1.008</ele>
        <time>2019-06-15T10:39:04Z</time>
      </trkpt>
      <trkpt lat="39.130376" lon="-0.253007">
        <ele>1.146</ele>
        <time>2019-06-15T10:39:05Z</time>
      </trkpt>
      <trkpt lat="39.130317" lon="-0.252977">
        <ele>1.240</ele>
        <time>2019-06-15T10:39:06Z</time>
      </trkpt>
      <trkpt lat="39.130259" lon="-0.252942">
        <ele>1.429</ele>
        <time>2019-06-15T10:39:07Z</time>
      </trkpt>
      <trkpt lat="39.130198" lon="-0.252909">
        <ele>1.522</ele>
        <time>2019-06-15T10:39:08Z</time>
      </trkpt>
      <trkpt lat="39.130141" lon="-0.252877">
        <ele>1.674</ele>
        <time>2019-06-15T10:39:09Z</time>
      </trkpt>
      <trkpt lat="39.130083" lon="-0.252840">
        <ele>1.861</ele>
        <time>2019-06-15T10:39:10Z</time>
      </trkpt>
      <trkpt lat="39.130033" lon="-0.252812">
        <ele>1.920</ele>
        <time>2019-06-15T10:39:11Z</time>
      </trkpt>
      <trkpt lat="39.129977" lon="-0.252780">
        <ele>1.965</ele>
        <time>2019-06-15T10:39:12Z</time>
      </trkpt>
      <trkpt lat="39.129917" lon="-0.252751">
        <ele>1.792</ele>
        <time>2019-06-15T10:39:13Z</time>
      </trkpt>
      <trkpt lat="39.129850" lon="-0.252711">
        <ele>1.573</ele>
        <time>2019-06-15T10:39:14Z</time>
      </trkpt>
      <trkpt lat="39.129790" lon="-0.252673">
        <ele>1.220</ele>
        <time>2019-06-15T10:39:15Z</time>
      </trkpt>
      <trkpt lat="39.129733" lon="-0.252640">
        <ele>1.008</ele>
        <time>2019-06-15T10:39:16Z</time>
      </trkpt>
      <trkpt lat="39.129679" lon="-0.252606">
        <ele>1.082</ele>
        <time>2019-06-15T10:39:17Z</time>
      </trkpt>
      <trkpt lat="39.129621" lon="-0.252580">
        <ele>1.056</ele>
        <time>2019-06-15T10:39:18Z</time>
      </trkpt>
      <trkpt lat="39.129568" lon="-0.252550">
        <ele>1.095</ele>
        <time>2019-06-15T10:39:19Z</time>
      </trkpt>
      <trkpt lat="39.129514" lon="-0.252516">
        <ele>1.038</ele>
        <time>2019-06-15T10:39:20Z</time>
      </trkpt>
      <trkpt lat="39.129454" lon="-0.252482">
        <ele>0.940</ele>
        <time>2019-06-15T10:39:21Z</time>
      </trkpt>
      <trkpt lat="39.129407" lon="-0.252458">
        <ele>0.757</ele>
        <time>2019-06-15T10:39:22Z</time>
      </trkpt>
      <trkpt lat="39.129342" lon="-0.252427">
        <ele>0.566</ele>
        <time>2019-06-15T10:39:23Z</time>
      </trkpt>
      <trkpt lat="39.129289" lon="-0.252400">
        <ele>0.321</ele>
        <time>2019-06-15T10:39:24Z</time>
      </trkpt>
      <trkpt lat="39.129230" lon="-0.252377">
        <ele>0.196</ele>
        <time>2019-06-15T10:39:25Z</time>
      </trkpt>
      <trkpt lat="39.129175" lon="-0.252344">
        <ele>0.031</ele>
        <time>2019-06-15T10:39:26Z</time>
      </trkpt>
      <trkpt lat="39.129111" lon="-0.252313">
        <ele>0.124</ele>
        <time>2019-06-15T10:39:27Z</time>
      </trkpt>
      <trkpt lat="39.129056" lon="-0.252282">
        <ele>0.108</ele>
        <time>2019-06-15T10:39:28Z</time>
      </trkpt>
      <trkpt lat="39.128990" lon="-0.252247">
        <ele>0.192</ele>
        <time>2019-06-15T10:39:29Z</time>
      </trkpt>
      <trkpt lat="39.128929" lon="-0.252207">
        <ele>0.076</ele>
        <time>2019-06-15T10:39:30Z</time>
      </trkpt>
      <trkpt lat="39.128869" lon="-0.252175">
        <ele>0.275</ele>
        <time>2019-06-15T10:39:31Z</time>
      </trkpt>
      <trkpt lat="39.128799" lon="-0.252141">
        <ele>0.258</ele>
        <time>2019-06-15T10:39:32Z</time>
      </trkpt>
      <trkpt lat="39.128739" lon="-0.252117">
        <ele>0.220</ele>
        <time>2019-06-15T10:39:33Z</time>
      </trkpt>
      <trkpt lat="39.128669" lon="-0.252083">
        <ele>0.177</ele>
        <time>2019-06-15T10:39:34Z</time>
      </trkpt>
      <trkpt lat="39.128595" lon="-0.252047">
        <ele>-0.196</ele>
        <time>2019-06-15T10:39:35Z</time>
      </trkpt>
      <trkpt lat="39.128526" lon="-0.252012">
        <ele>-0.311</ele>
        <time>2019-06-15T10:39:36Z</time>
      </trkpt>
      <trkpt lat="39.128471" lon="-0.251985">
        <ele>-0.594</ele>
        <time>2019-06-15T10:39:37Z</time>
      </trkpt>
      <trkpt lat="39.128401" lon="-0.251938">
        <ele>-0.757</ele>
        <time>2019-06-15T10:39:38Z</time>
      </trkpt>
      <trkpt lat="39.128336" lon="-0.251912">
        <ele>-0.822</ele>
        <time>2019-06-15T10:39:39Z</time>
      </trkpt>
      <trkpt lat="39.128268" lon="-0.251876">
        <ele>-0.108</ele>
        <time>2019-06-15T10:39:40Z</time>
      </trkpt>
      <trkpt lat="39.128211" lon="-0.251837">
        <ele>0.562</ele>
        <time>2019-06-15T10:39:41Z</time>
      </trkpt>
      <trkpt lat="39.128144" lon="-0.251804">
        <ele>1.076</ele>
        <time>2019-06-15T10:39:42Z</time>
      </trkpt>
      <trkpt lat="39.128087" lon="-0.251761">
        <ele>1.575</ele>
        <time>2019-06-15T10:39:43Z</time>
      </trkpt>
      <trkpt lat="39.128024" lon="-0.251724">
        <ele>2.098</ele>
        <time>2019-06-15T10:39:44Z</time>
      </trkpt>
      <trkpt lat="39.127965" lon="-0.251682">
        <ele>2.610</ele>
        <time>2019-06-15T10:39:45Z</time>
      </trkpt>
      <trkpt lat="39.127908" lon="-0.251649">
        <ele>3.127</ele>
        <time>2019-06-15T10:39:46Z</time>
      </trkpt>
      <trkpt lat="39.127851" lon="-0.251595">
        <ele>3.746</ele>
        <time>2019-06-15T10:39:47Z</time>
      </trkpt>
      <trkpt lat="39.127792" lon="-0.251540">
        <ele>4.441</ele>
        <time>2019-06-15T10:39:48Z</time>
      </trkpt>
      <trkpt lat="39.127738" lon="-0.251479">
        <ele>4.621</ele>
        <time>2019-06-15T10:39:49Z</time>
      </trkpt>
      <trkpt lat="39.127688" lon="-0.251410">
        <ele>4.641</ele>
        <time>2019-06-15T10:39:50Z</time>
      </trkpt>
      <trkpt lat="39.127638" lon="-0.251355">
        <ele>4.405</ele>
        <time>2019-06-15T10:39:51Z</time>
      </trkpt>
      <trkpt lat="39.127576" lon="-0.251287">
        <ele>3.908</ele>
        <time>2019-06-15T10:39:52Z</time>
      </trkpt>
      <trkpt lat="39.127527" lon="-0.251220">
        <ele>3.575</ele>
        <time>2019-06-15T10:39:53Z</time>
      </trkpt>
      <trkpt lat="39.127476" lon="-0.251170">
        <ele>3.219</ele>
        <time>2019-06-15T10:39:54Z</time>
      </trkpt>
      <trkpt lat="39.127429" lon="-0.251107">
        <ele>3.098</ele>
        <time>2019-06-15T10:39:55Z</time>
      </trkpt>
      <trkpt lat="39.127379" lon="-0.251040">
        <ele>2.941</ele>
        <time>2019-06-15T10:39:56Z</time>
      </trkpt>
      <trkpt lat="39.127325" lon="-0.250978">
        <ele>2.753</ele>
        <time>2019-06-15T10:39:57Z</time>
      </trkpt>
      <trkpt lat="39.127274" lon="-0.250911">
        <ele>2.490</ele>
        <time>2019-06-15T10:39:58Z</time>
      </trkpt>
      <trkpt lat="39.127228" lon="-0.250844">
        <ele>2.129</ele>
        <time>2019-06-15T10:39:59Z</time>
      </trkpt>
      <trkpt lat="39.127172" lon="-0.250781">
        <ele>2.234</ele>
        <time>2019-06-15T10:40:00Z</time>
      </trkpt>
      <trkpt lat="39.127115" lon="-0.250714">
        <ele>2.334</ele>
        <time>2019-06-15T10:40:01Z</time>
      </trkpt>
      <trkpt lat="39.127059" lon="-0.250657">
        <ele>2.355</ele>
        <time>2019-06-15T10:40:02Z</time>
      </trkpt>
      <trkpt lat="39.126997" lon="-0.250594">
        <ele>2.210</ele>
        <time>2019-06-15T10:40:03Z</time>
      </trkpt>
      <trkpt lat="39.126910" lon="-0.250530">
        <ele>1.808</ele>
        <time>2019-06-15T10:40:04Z</time>
      </trkpt>
      <trkpt lat="39.126838" lon="-0.250483">
        <ele>1.546</ele>
        <time>2019-06-15T10:40:05Z</time>
      </trkpt>
      <trkpt lat="39.126790" lon="-0.250415">
        <ele>1.210</ele>
        <time>2019-06-15T10:40:06Z</time>
      </trkpt>
      <trkpt lat="39.126742" lon="-0.250352">
        <ele>1.189</ele>
        <time>2019-06-15T10:40:07Z</time>
      </trkpt>
      <trkpt lat="39.126692" lon="-0.250285">
        <ele>1.012</ele>
        <time>2019-06-15T10:40:08Z</time>
      </trkpt>
      <trkpt lat="39.126641" lon="-0.250214">
        <ele>1.174</ele>
        <time>2019-06-15T10:40:09Z</time>
      </trkpt>
      <trkpt lat="39.126590" lon="-0.250151">
        <ele>1.361</ele>
        <time>2019-06-15T10:40:10Z</time>
      </trkpt>
      <trkpt lat="39.126540" lon="-0.250087">
        <ele>1.590</ele>
        <time>2019-06-15T10:40:11Z</time>
      </trkpt>
      <trkpt lat="39.126442" lon="-0.249955">
        <ele>1.845</ele>
        <time>2019-06-15T10:40:13Z</time>
      </trkpt>
      <trkpt lat="39.126442" lon="-0.249955">
        <ele>1.861</ele>
        <time>2019-06-15T10:40:13Z</time>
      </trkpt>
      <trkpt lat="39.126388" lon="-0.249895">
        <ele>2.021</ele>
        <time>2019-06-15T10:40:14Z</time>
      </trkpt>
      <trkpt lat="39.126335" lon="-0.249831">
        <ele>2.013</ele>
        <time>2019-06-15T10:40:15Z</time>
      </trkpt>
      <trkpt lat="39.126277" lon="-0.249762">
        <ele>2.008</ele>
        <time>2019-06-15T10:40:16Z</time>
      </trkpt>
      <trkpt lat="39.126222" lon="-0.249697">
        <ele>1.959</ele>
        <time>2019-06-15T10:40:17Z</time>
      </trkpt>
      <trkpt lat="39.126168" lon="-0.249632">
        <ele>1.753</ele>
        <time>2019-06-15T10:40:18Z</time>
      </trkpt>
      <trkpt lat="39.126110" lon="-0.249571">
        <ele>1.522</ele>
        <time>2019-06-15T10:40:19Z</time>
      </trkpt>
      <trkpt lat="39.126062" lon="-0.249501">
        <ele>1.275</ele>
        <time>2019-06-15T10:40:20Z</time>
      </trkpt>
      <trkpt lat="39.126013" lon="-0.249442">
        <ele>1.047</ele>
        <time>2019-06-15T10:40:21Z</time>
      </trkpt>
      <trkpt lat="39.125953" lon="-0.249384">
        <ele>0.964</ele>
        <time>2019-06-15T10:40:22Z</time>
      </trkpt>
      <trkpt lat="39.125900" lon="-0.249327">
        <ele>0.773</ele>
        <time>2019-06-15T10:40:23Z</time>
      </trkpt>
      <trkpt lat="39.125837" lon="-0.249262">
        <ele>0.478</ele>
        <time>2019-06-15T10:40:24Z</time>
      </trkpt>
      <trkpt lat="39.125794" lon="-0.249219">
        <ele>0.596</ele>
        <time>2019-06-15T10:40:25Z</time>
      </trkpt>
      <trkpt lat="39.125734" lon="-0.249177">
        <ele>0.831</ele>
        <time>2019-06-15T10:40:26Z</time>
      </trkpt>
      <trkpt lat="39.125668" lon="-0.249134">
        <ele>1.124</ele>
        <time>2019-06-15T10:40:27Z</time>
      </trkpt>
      <trkpt lat="39.125607" lon="-0.249097">
        <ele>1.208</ele>
        <time>2019-06-15T10:40:28Z</time>
      </trkpt>
      <trkpt lat="39.125541" lon="-0.249061">
        <ele>1.382</ele>
        <time>2019-06-15T10:40:29Z</time>
      </trkpt>
      <trkpt lat="39.125483" lon="-0.249022">
        <ele>1.296</ele>
        <time>2019-06-15T10:40:30Z</time>
      </trkpt>
      <trkpt lat="39.125408" lon="-0.248985">
        <ele>1.235</ele>
        <time>2019-06-15T10:40:31Z</time>
      </trkpt>
      <trkpt lat="39.125350" lon="-0.248945">
        <ele>1.198</ele>
        <time>2019-06-15T10:40:32Z</time>
      </trkpt>
      <trkpt lat="39.125288" lon="-0.248909">
        <ele>1.160</ele>
        <time>2019-06-15T10:40:33Z</time>
      </trkpt>
      <trkpt lat="39.125224" lon="-0.248868">
        <ele>0.977</ele>
        <time>2019-06-15T10:40:34Z</time>
      </trkpt>
      <trkpt lat="39.125166" lon="-0.248827">
        <ele>0.996</ele>
        <time>2019-06-15T10:40:35Z</time>
      </trkpt>
      <trkpt lat="39.125104" lon="-0.248789">
        <ele>0.951</ele>
        <time>2019-06-15T10:40:36Z</time>
      </trkpt>
      <trkpt lat="39.125041" lon="-0.248753">
        <ele>0.928</ele>
        <time>2019-06-15T10:40:37Z</time>
      </trkpt>
      <trkpt lat="39.124980" lon="-0.248720">
        <ele>1.189</ele>
        <time>2019-06-15T10:40:38Z</time>
      </trkpt>
      <trkpt lat="39.124919" lon="-0.248685">
        <ele>1.317</ele>
        <time>2019-06-15T10:40:39Z</time>
      </trkpt>
      <trkpt lat="39.124853" lon="-0.248640">
        <ele>1.508</ele>
        <time>2019-06-15T10:40:40Z</time>
      </trkpt>
      <trkpt lat="39.124792" lon="-0.248609">
        <ele>1.745</ele>
        <time>2019-06-15T10:40:41Z</time>
      </trkpt>
      <trkpt lat="39.124721" lon="-0.248578">
        <ele>1.969</ele>
        <time>2019-06-15T10:40:42Z</time>
      </trkpt>
      <trkpt lat="39.124660" lon="-0.248544">
        <ele>1.878</ele>
        <time>2019-06-15T10:40:43Z</time>
      </trkpt>
      <trkpt lat="39.124609" lon="-0.248510">
        <ele>1.861</ele>
        <time>2019-06-15T10:40:44Z</time>
      </trkpt>
      <trkpt lat="39.124549" lon="-0.248489">
        <ele>1.863</ele>
        <time>2019-06-15T10:40:45Z</time>
      </trkpt>
      <trkpt lat="39.124484" lon="-0.248462">
        <ele>1.970</ele>
        <time>2019-06-15T10:40:46Z</time>
      </trkpt>
      <trkpt lat="39.124427" lon="-0.248433">
        <ele>2.059</ele>
        <time>2019-06-15T10:40:47Z</time>
      </trkpt>
      <trkpt lat="39.124378" lon="-0.248400">
        <ele>2.044</ele>
        <time>2019-06-15T10:40:48Z</time>
      </trkpt>
      <trkpt lat="39.124319" lon="-0.248371">
        <ele>2.085</ele>
        <time>2019-06-15T10:40:49Z</time>
      </trkpt>
      <trkpt lat="39.124263" lon="-0.248333">
        <ele>2.089</ele>
        <time>2019-06-15T10:40:50Z</time>
      </trkpt>
      <trkpt lat="39.124205" lon="-0.248312">
        <ele>2.017</ele>
        <time>2019-06-15T10:40:51Z</time>
      </trkpt>
      <trkpt lat="39.124149" lon="-0.248276">
        <ele>2.108</ele>
        <time>2019-06-15T10:40:52Z</time>
      </trkpt>
      <trkpt lat="39.124096" lon="-0.248233">
        <ele>2.311</ele>
        <time>2019-06-15T10:40:53Z</time>
      </trkpt>
      <trkpt lat="39.124030" lon="-0.248198">
        <ele>2.515</ele>
        <time>2019-06-15T10:40:54Z</time>
      </trkpt>
      <trkpt lat="39.123975" lon="-0.248158">
        <ele>2.764</ele>
        <time>2019-06-15T10:40:55Z</time>
      </trkpt>
      <trkpt lat="39.123923" lon="-0.248115">
        <ele>2.947</ele>
        <time>2019-06-15T10:40:56Z</time>
      </trkpt>
      <trkpt lat="39.123863" lon="-0.248073">
        <ele>3.069</ele>
        <time>2019-06-15T10:40:57Z</time>
      </trkpt>
      <trkpt lat="39.123799" lon="-0.248041">
        <ele>3.026</ele>
        <time>2019-06-15T10:40:58Z</time>
      </trkpt>
      <trkpt lat="39.123730" lon="-0.248000">
        <ele>3.175</ele>
        <time>2019-06-15T10:40:59Z</time>
      </trkpt>
      <trkpt lat="39.123669" lon="-0.247964">
        <ele>3.310</ele>
        <time>2019-06-15T10:41:00Z</time>
      </trkpt>
      <trkpt lat="39.123609" lon="-0.247919">
        <ele>3.559</ele>
        <time>2019-06-15T10:41:01Z</time>
      </trkpt>
      <trkpt lat="39.123550" lon="-0.247883">
        <ele>3.603</ele>
        <time>2019-06-15T10:41:02Z</time>
      </trkpt>
      <trkpt lat="39.123481" lon="-0.247850">
        <ele>3.723</ele>
        <time>2019-06-15T10:41:03Z</time>
      </trkpt>
      <trkpt lat="39.123415" lon="-0.247809">
        <ele>3.908</ele>
        <time>2019-06-15T10:41:04Z</time>
      </trkpt>
      <trkpt lat="39.123350" lon="-0.247775">
        <ele>4.038</ele>
        <time>2019-06-15T10:41:05Z</time>
      </trkpt>
      <trkpt lat="39.123288" lon="-0.247742">
        <ele>3.822</ele>
        <time>2019-06-15T10:41:06Z</time>
      </trkpt>
      <trkpt lat="39.123226" lon="-0.247713">
        <ele>3.611</ele>
        <time>2019-06-15T10:41:07Z</time>
      </trkpt>
      <trkpt lat="39.123166" lon="-0.247676">
        <ele>3.414</ele>
        <time>2019-06-15T10:41:08Z</time>
      </trkpt>
      <trkpt lat="39.123101" lon="-0.247646">
        <ele>3.296</ele>
        <time>2019-06-15T10:41:09Z</time>
      </trkpt>
      <trkpt lat="39.123041" lon="-0.247611">
        <ele>2.963</ele>
        <time>2019-06-15T10:41:10Z</time>
      </trkpt>
      <trkpt lat="39.122980" lon="-0.247581">
        <ele>2.552</ele>
        <time>2019-06-15T10:41:11Z</time>
      </trkpt>
      <trkpt lat="39.122919" lon="-0.247546">
        <ele>2.087</ele>
        <time>2019-06-15T10:41:12Z</time>
      </trkpt>
      <trkpt lat="39.122858" lon="-0.247505">
        <ele>1.613</ele>
        <time>2019-06-15T10:41:13Z</time>
      </trkpt>
      <trkpt lat="39.122801" lon="-0.247471">
        <ele>1.243</ele>
        <time>2019-06-15T10:41:14Z</time>
      </trkpt>
      <trkpt lat="39.122749" lon="-0.247444">
        <ele>0.907</ele>
        <time>2019-06-15T10:41:15Z</time>
      </trkpt>
      <trkpt lat="39.122694" lon="-0.247415">
        <ele>0.808</ele>
        <time>2019-06-15T10:41:16Z</time>
      </trkpt>
      <trkpt lat="39.122646" lon="-0.247381">
        <ele>0.734</ele>
        <time>2019-06-15T10:41:17Z</time>
      </trkpt>
      <trkpt lat="39.122591" lon="-0.247342">
        <ele>0.798</ele>
        <time>2019-06-15T10:41:18Z</time>
      </trkpt>
      <trkpt lat="39.122536" lon="-0.247309">
        <ele>0.777</ele>
        <time>2019-06-15T10:41:19Z</time>
      </trkpt>
      <trkpt lat="39.122475" lon="-0.247276">
        <ele>0.960</ele>
        <time>2019-06-15T10:41:20Z</time>
      </trkpt>
      <trkpt lat="39.122419" lon="-0.247249">
        <ele>1.282</ele>
        <time>2019-06-15T10:41:21Z</time>
      </trkpt>
      <trkpt lat="39.122355" lon="-0.247217">
        <ele>1.559</ele>
        <time>2019-06-15T10:41:22Z</time>
      </trkpt>
      <trkpt lat="39.122298" lon="-0.247184">
        <ele>1.888</ele>
        <time>2019-06-15T10:41:23Z</time>
      </trkpt>
      <trkpt lat="39.122237" lon="-0.247141">
        <ele>2.293</ele>
        <time>2019-06-15T10:41:24Z</time>
      </trkpt>
      <trkpt lat="39.122183" lon="-0.247116">
        <ele>2.712</ele>
        <time>2019-06-15T10:41:25Z</time>
      </trkpt>
      <trkpt lat="39.122127" lon="-0.247085">
        <ele>3.232</ele>
        <time>2019-06-15T10:41:26Z</time>
      </trkpt>
      <trkpt lat="39.122070" lon="-0.247062">
        <ele>3.705</ele>
        <time>2019-06-15T10:41:27Z</time>
      </trkpt>
      <trkpt lat="39.122009" lon="-0.247024">
        <ele>4.208</ele>
        <time>2019-06-15T10:41:28Z</time>
      </trkpt>
      <trkpt lat="39.121956" lon="-0.246983">
        <ele>4.824</ele>
        <time>2019-06-15T10:41:29Z</time>
      </trkpt>
      <trkpt lat="39.121901" lon="-0.246949">
        <ele>5.018</ele>
        <time>2019-06-15T10:41:30Z</time>
      </trkpt>
      <trkpt lat="39.121844" lon="-0.246919">
        <ele>5.027</ele>
        <time>2019-06-15T10:41:31Z</time>
      </trkpt>
      <trkpt lat="39.121792" lon="-0.246882">
        <ele>5.010</ele>
        <time>2019-06-15T10:41:32Z</time>
      </trkpt>
      <trkpt lat="39.121736" lon="-0.246846">
        <ele>4.852</ele>
        <time>2019-06-15T10:41:33Z</time>
      </trkpt>
      <trkpt lat="39.121680" lon="-0.246808">
        <ele>4.669</ele>
        <time>2019-06-15T10:41:34Z</time>
      </trkpt>
      <trkpt lat="39.121628" lon="-0.246782">
        <ele>4.268</ele>
        <time>2019-06-15T10:41:35Z</time>
      </trkpt>
      <trkpt lat="39.121577" lon="-0.246739">
        <ele>3.993</ele>
        <time>2019-06-15T10:41:36Z</time>
      </trkpt>
      <trkpt lat="39.121516" lon="-0.246696">
        <ele>3.593</ele>
        <time>2019-06-15T10:41:37Z</time>
      </trkpt>
      <trkpt lat="39.121441" lon="-0.246664">
        <ele>3.265</ele>
        <time>2019-06-15T10:41:38Z</time>
      </trkpt>
      <trkpt lat="39.121387" lon="-0.246616">
        <ele>3.021</ele>
        <time>2019-06-15T10:41:39Z</time>
      </trkpt>
      <trkpt lat="39.121329" lon="-0.246581">
        <ele>2.808</ele>
        <time>2019-06-15T10:41:40Z</time>
      </trkpt>
      <trkpt lat="39.121275" lon="-0.246541">
        <ele>2.612</ele>
        <time>2019-06-15T10:41:41Z</time>
      </trkpt>
      <trkpt lat="39.121225" lon="-0.246507">
        <ele>2.436</ele>
        <time>2019-06-15T10:41:42Z</time>
      </trkpt>
      <trkpt lat="39.121173" lon="-0.246468">
        <ele>2.285</ele>
        <time>2019-06-15T10:41:43Z</time>
      </trkpt>
      <trkpt lat="39.121114" lon="-0.246430">
        <ele>2.088</ele>
        <time>2019-06-15T10:41:44Z</time>
      </trkpt>
      <trkpt lat="39.121044" lon="-0.246396">
        <ele>1.540</ele>
        <time>2019-06-15T10:41:45Z</time>
      </trkpt>
      <trkpt lat="39.120982" lon="-0.246370">
        <ele>1.137</ele>
        <time>2019-06-15T10:41:46Z</time>
      </trkpt>
      <trkpt lat="39.120920" lon="-0.246336">
        <ele>0.846</ele>
        <time>2019-06-15T10:41:47Z</time>
      </trkpt>
      <trkpt lat="39.120869" lon="-0.246302">
        <ele>0.581</ele>
        <time>2019-06-15T10:41:48Z</time>
      </trkpt>
      <trkpt lat="39.120814" lon="-0.246271">
        <ele>0.473</ele>
        <time>2019-06-15T10:41:49Z</time>
      </trkpt>
      <trkpt lat="39.120757" lon="-0.246237">
        <ele>0.485</ele>
        <time>2019-06-15T10:41:50Z</time>
      </trkpt>
      <trkpt lat="39.120712" lon="-0.246211">
        <ele>0.513</ele>
        <time>2019-06-15T10:41:51Z</time>
      </trkpt>
      <trkpt lat="39.120645" lon="-0.246169">
        <ele>0.708</ele>
        <time>2019-06-15T10:41:52Z</time>
      </trkpt>
      <trkpt lat="39.120579" lon="-0.246146">
        <ele>0.830</ele>
        <time>2019-06-15T10:41:53Z</time>
      </trkpt>
      <trkpt lat="39.120522" lon="-0.246116">
        <ele>1.154</ele>
        <time>2019-06-15T10:41:54Z</time>
      </trkpt>
      <trkpt lat="39.120476" lon="-0.246088">
        <ele>1.373</ele>
        <time>2019-06-15T10:41:55Z</time>
      </trkpt>
      <trkpt lat="39.120417" lon="-0.246053">
        <ele>1.676</ele>
        <time>2019-06-15T10:41:56Z</time>
      </trkpt>
      <trkpt lat="39.120341" lon="-0.246025">
        <ele>1.818</ele>
        <time>2019-06-15T10:41:57Z</time>
      </trkpt>
      <trkpt lat="39.120283" lon="-0.245994">
        <ele>2.075</ele>
        <time>2019-06-15T10:41:58Z</time>
      </trkpt>
      <trkpt lat="39.120228" lon="-0.245972">
        <ele>2.044</ele>
        <time>2019-06-15T10:41:59Z</time>
      </trkpt>
      <trkpt lat="39.120168" lon="-0.245940">
        <ele>2.029</ele>
        <time>2019-06-15T10:42:00Z</time>
      </trkpt>
      <trkpt lat="39.120113" lon="-0.245907">
        <ele>2.041</ele>
        <time>2019-06-15T10:42:01Z</time>
      </trkpt>
      <trkpt lat="39.120060" lon="-0.245868">
        <ele>2.081</ele>
        <time>2019-06-15T10:42:02Z</time>
      </trkpt>
      <trkpt lat="39.120004" lon="-0.245834">
        <ele>2.009</ele>
        <time>2019-06-15T10:42:03Z</time>
      </trkpt>
      <trkpt lat="39.119948" lon="-0.245796">
        <ele>1.608</ele>
        <time>2019-06-15T10:42:04Z</time>
      </trkpt>
      <trkpt lat="39.119891" lon="-0.245762">
        <ele>1.217</ele>
        <time>2019-06-15T10:42:05Z</time>
      </trkpt>
      <trkpt lat="39.119835" lon="-0.245743">
        <ele>0.831</ele>
        <time>2019-06-15T10:42:06Z</time>
      </trkpt>
      <trkpt lat="39.119778" lon="-0.245711">
        <ele>0.470</ele>
        <time>2019-06-15T10:42:07Z</time>
      </trkpt>
      <trkpt lat="39.119715" lon="-0.245674">
        <ele>-0.043</ele>
        <time>2019-06-15T10:42:08Z</time>
      </trkpt>
      <trkpt lat="39.119655" lon="-0.245638">
        <ele>-0.225</ele>
        <time>2019-06-15T10:42:09Z</time>
      </trkpt>
      <trkpt lat="39.119596" lon="-0.245604">
        <ele>-0.432</ele>
        <time>2019-06-15T10:42:10Z</time>
      </trkpt>
      <trkpt lat="39.119534" lon="-0.245571">
        <ele>-0.661</ele>
        <time>2019-06-15T10:42:11Z</time>
      </trkpt>
      <trkpt lat="39.119480" lon="-0.245537">
        <ele>-0.866</ele>
        <time>2019-06-15T10:42:12Z</time>
      </trkpt>
      <trkpt lat="39.119418" lon="-0.245501">
        <ele>-0.779</ele>
        <time>2019-06-15T10:42:13Z</time>
      </trkpt>
      <trkpt lat="39.119361" lon="-0.245481">
        <ele>-0.505</ele>
        <time>2019-06-15T10:42:14Z</time>
      </trkpt>
      <trkpt lat="39.119303" lon="-0.245450">
        <ele>-0.325</ele>
        <time>2019-06-15T10:42:15Z</time>
      </trkpt>
      <trkpt lat="39.119244" lon="-0.245413">
        <ele>-0.108</ele>
        <time>2019-06-15T10:42:16Z</time>
      </trkpt>
      <trkpt lat="39.119128" lon="-0.245347">
        <ele>0.180</ele>
        <time>2019-06-15T10:42:18Z</time>
      </trkpt>
      <trkpt lat="39.118854" lon="-0.245204">
        <ele>0.774</ele>
        <time>2019-06-15T10:42:23Z</time>
      </trkpt>
      <trkpt lat="39.118785" lon="-0.245196">
        <ele>0.743</ele>
        <time>2019-06-15T10:42:24Z</time>
      </trkpt>
      <trkpt lat="39.118739" lon="-0.245174">
        <ele>0.636</ele>
        <time>2019-06-15T10:42:25Z</time>
      </trkpt>
      <trkpt lat="39.118688" lon="-0.245152">
        <ele>0.578</ele>
        <time>2019-06-15T10:42:26Z</time>
      </trkpt>
      <trkpt lat="39.118663" lon="-0.245081">
        <ele>0.345</ele>
        <time>2019-06-15T10:42:27Z</time>
      </trkpt>
      <trkpt lat="39.118626" lon="-0.245010">
        <ele>0.054</ele>
        <time>2019-06-15T10:42:28Z</time>
      </trkpt>
      <trkpt lat="39.118595" lon="-0.244963">
        <ele>0.169</ele>
        <time>2019-06-15T10:42:29Z</time>
      </trkpt>
      <trkpt lat="39.118553" lon="-0.244916">
        <ele>0.147</ele>
        <time>2019-06-15T10:42:30Z</time>
      </trkpt>
      <trkpt lat="39.118561" lon="-0.244838">
        <ele>0.429</ele>
        <time>2019-06-15T10:42:31Z</time>
      </trkpt>
      <trkpt lat="39.118508" lon="-0.244825">
        <ele>0.321</ele>
        <time>2019-06-15T10:42:32Z</time>
      </trkpt>
      <trkpt lat="39.118451" lon="-0.244809">
        <ele>0.108</ele>
        <time>2019-06-15T10:42:33Z</time>
      </trkpt>
      <trkpt lat="39.118370" lon="-0.244811">
        <ele>-0.227</ele>
        <time>2019-06-15T10:42:34Z</time>
      </trkpt>
      <trkpt lat="39.118326" lon="-0.244793">
        <ele>-0.211</ele>
        <time>2019-06-15T10:42:35Z</time>
      </trkpt>
      <trkpt lat="39.118274" lon="-0.244781">
        <ele>-0.030</ele>
        <time>2019-06-15T10:42:36Z</time>
      </trkpt>
      <trkpt lat="39.118221" lon="-0.244773">
        <ele>0.163</ele>
        <time>2019-06-15T10:42:37Z</time>
      </trkpt>
      <trkpt lat="39.118170" lon="-0.244757">
        <ele>0.445</ele>
        <time>2019-06-15T10:42:38Z</time>
      </trkpt>
      <trkpt lat="39.118104" lon="-0.244742">
        <ele>0.752</ele>
        <time>2019-06-15T10:42:39Z</time>
      </trkpt>
      <trkpt lat="39.118053" lon="-0.244702">
        <ele>1.161</ele>
        <time>2019-06-15T10:42:40Z</time>
      </trkpt>
      <trkpt lat="39.117994" lon="-0.244664">
        <ele>1.726</ele>
        <time>2019-06-15T10:42:41Z</time>
      </trkpt>
      <trkpt lat="39.117925" lon="-0.244627">
        <ele>2.364</ele>
        <time>2019-06-15T10:42:42Z</time>
      </trkpt>
      <trkpt lat="39.117874" lon="-0.244584">
        <ele>2.806</ele>
        <time>2019-06-15T10:42:43Z</time>
      </trkpt>
      <trkpt lat="39.117799" lon="-0.244554">
        <ele>3.516</ele>
        <time>2019-06-15T10:42:44Z</time>
      </trkpt>
      <trkpt lat="39.117741" lon="-0.244523">
        <ele>3.608</ele>
        <time>2019-06-15T10:42:45Z</time>
      </trkpt>
      <trkpt lat="39.117695" lon="-0.244507">
        <ele>3.539</ele>
        <time>2019-06-15T10:42:46Z</time>
      </trkpt>
      <trkpt lat="39.117630" lon="-0.244505">
        <ele>3.263</ele>
        <time>2019-06-15T10:42:47Z</time>
      </trkpt>
      <trkpt lat="39.117570" lon="-0.244478">
        <ele>3.192</ele>
        <time>2019-06-15T10:42:48Z</time>
      </trkpt>
      <trkpt lat="39.117500" lon="-0.244449">
        <ele>3.035</ele>
        <time>2019-06-15T10:42:49Z</time>
      </trkpt>
      <trkpt lat="39.117456" lon="-0.244408">
        <ele>2.887</ele>
        <time>2019-06-15T10:42:50Z</time>
      </trkpt>
      <trkpt lat="39.117404" lon="-0.244364">
        <ele>2.754</ele>
        <time>2019-06-15T10:42:51Z</time>
      </trkpt>
      <trkpt lat="39.117347" lon="-0.244365">
        <ele>2.413</ele>
        <time>2019-06-15T10:42:52Z</time>
      </trkpt>
      <trkpt lat="39.117295" lon="-0.244335">
        <ele>2.378</ele>
        <time>2019-06-15T10:42:53Z</time>
      </trkpt>
      <trkpt lat="39.117231" lon="-0.244296">
        <ele>2.068</ele>
        <time>2019-06-15T10:42:54Z</time>
      </trkpt>
      <trkpt lat="39.117153" lon="-0.244299">
        <ele>1.842</ele>
        <time>2019-06-15T10:42:55Z</time>
      </trkpt>
      <trkpt lat="39.117093" lon="-0.244273">
        <ele>1.526</ele>
        <time>2019-06-15T10:42:56Z</time>
      </trkpt>
      <trkpt lat="39.117028" lon="-0.244245">
        <ele>1.308</ele>
        <time>2019-06-15T10:42:57Z</time>
      </trkpt>
      <trkpt lat="39.116974" lon="-0.244179">
        <ele>1.169</ele>
        <time>2019-06-15T10:42:58Z</time>
      </trkpt>
      <trkpt lat="39.116908" lon="-0.244117">
        <ele>0.723</ele>
        <time>2019-06-15T10:42:59Z</time>
      </trkpt>
      <trkpt lat="39.116838" lon="-0.244113">
        <ele>0.222</ele>
        <time>2019-06-15T10:43:00Z</time>
      </trkpt>
      <trkpt lat="39.116785" lon="-0.244060">
        <ele>-0.145</ele>
        <time>2019-06-15T10:43:01Z</time>
      </trkpt>
      <trkpt lat="39.116719" lon="-0.244030">
        <ele>-0.617</ele>
        <time>2019-06-15T10:43:02Z</time>
      </trkpt>
      <trkpt lat="39.116659" lon="-0.243993">
        <ele>-1.094</ele>
        <time>2019-06-15T10:43:03Z</time>
      </trkpt>
      <trkpt lat="39.116605" lon="-0.243950">
        <ele>-1.253</ele>
        <time>2019-06-15T10:43:04Z</time>
      </trkpt>
      <trkpt lat="39.116551" lon="-0.243908">
        <ele>-1.428</ele>
        <time>2019-06-15T10:43:05Z</time>
      </trkpt>
      <trkpt lat="39.116490" lon="-0.243870">
        <ele>-1.522</ele>
        <time>2019-06-15T10:43:06Z</time>
      </trkpt>
      <trkpt lat="39.116431" lon="-0.243825">
        <ele>-1.462</ele>
        <time>2019-06-15T10:43:07Z</time>
      </trkpt>
      <trkpt lat="39.116371" lon="-0.243791">
        <ele>-1.208</ele>
        <time>2019-06-15T10:43:08Z</time>
      </trkpt>
      <trkpt lat="39.116304" lon="-0.243753">
        <ele>-0.708</ele>
        <time>2019-06-15T10:43:09Z</time>
      </trkpt>
      <trkpt lat="39.116246" lon="-0.243718">
        <ele>-0.495</ele>
        <time>2019-06-15T10:43:10Z</time>
      </trkpt>
      <trkpt lat="39.116190" lon="-0.243682">
        <ele>-0.169</ele>
        <time>2019-06-15T10:43:11Z</time>
      </trkpt>
      <trkpt lat="39.116137" lon="-0.243647">
        <ele>-0.098</ele>
        <time>2019-06-15T10:43:12Z</time>
      </trkpt>
      <trkpt lat="39.116078" lon="-0.243612">
        <ele>0.061</ele>
        <time>2019-06-15T10:43:13Z</time>
      </trkpt>
      <trkpt lat="39.116013" lon="-0.243579">
        <ele>0.173</ele>
        <time>2019-06-15T10:43:14Z</time>
      </trkpt>
      <trkpt lat="39.115958" lon="-0.243540">
        <ele>0.120</ele>
        <time>2019-06-15T10:43:15Z</time>
      </trkpt>
      <trkpt lat="39.115905" lon="-0.243501">
        <ele>0.139</ele>
        <time>2019-06-15T10:43:16Z</time>
      </trkpt>
      <trkpt lat="39.115838" lon="-0.243456">
        <ele>0.024</ele>
        <time>2019-06-15T10:43:17Z</time>
      </trkpt>
      <trkpt lat="39.115792" lon="-0.243416">
        <ele>0.058</ele>
        <time>2019-06-15T10:43:18Z</time>
      </trkpt>
      <trkpt lat="39.115743" lon="-0.243379">
        <ele>0.052</ele>
        <time>2019-06-15T10:43:19Z</time>
      </trkpt>
      <trkpt lat="39.115692" lon="-0.243335">
        <ele>0.017</ele>
        <time>2019-06-15T10:43:20Z</time>
      </trkpt>
      <trkpt lat="39.115641" lon="-0.243282">
        <ele>0.108</ele>
        <time>2019-06-15T10:43:21Z</time>
      </trkpt>
      <trkpt lat="39.115585" lon="-0.243230">
        <ele>0.048</ele>
        <time>2019-06-15T10:43:22Z</time>
      </trkpt>
      <trkpt lat="39.115535" lon="-0.243173">
        <ele>-0.072</ele>
        <time>2019-06-15T10:43:23Z</time>
      </trkpt>
      <trkpt lat="39.115486" lon="-0.243128">
        <ele>-0.191</ele>
        <time>2019-06-15T10:43:24Z</time>
      </trkpt>
      <trkpt lat="39.115434" lon="-0.243089">
        <ele>-0.174</ele>
        <time>2019-06-15T10:43:25Z</time>
      </trkpt>
      <trkpt lat="39.115384" lon="-0.243052">
        <ele>0.096</ele>
        <time>2019-06-15T10:43:26Z</time>
      </trkpt>
      <trkpt lat="39.115324" lon="-0.243012">
        <ele>0.083</ele>
        <time>2019-06-15T10:43:27Z</time>
      </trkpt>
      <trkpt lat="39.115276" lon="-0.242962">
        <ele>-0.012</ele>
        <time>2019-06-15T10:43:28Z</time>
      </trkpt>
      <trkpt lat="39.115219" lon="-0.242907">
        <ele>-0.117</ele>
        <time>2019-06-15T10:43:29Z</time>
      </trkpt>
      <trkpt lat="39.115168" lon="-0.242852">
        <ele>-0.367</ele>
        <time>2019-06-15T10:43:30Z</time>
      </trkpt>
      <trkpt lat="39.115118" lon="-0.242804">
        <ele>-0.581</ele>
        <time>2019-06-15T10:43:31Z</time>
      </trkpt>
      <trkpt lat="39.115072" lon="-0.242756">
        <ele>-0.719</ele>
        <time>2019-06-15T10:43:32Z</time>
      </trkpt>
      <trkpt lat="39.115019" lon="-0.242710">
        <ele>-0.908</ele>
        <time>2019-06-15T10:43:33Z</time>
      </trkpt>
      <trkpt lat="39.114966" lon="-0.242658">
        <ele>-0.989</ele>
        <time>2019-06-15T10:43:34Z</time>
      </trkpt>
      <trkpt lat="39.114920" lon="-0.242609">
        <ele>-0.793</ele>
        <time>2019-06-15T10:43:35Z</time>
      </trkpt>
      <trkpt lat="39.114864" lon="-0.242564">
        <ele>-0.572</ele>
        <time>2019-06-15T10:43:36Z</time>
      </trkpt>
      <trkpt lat="39.114818" lon="-0.242519">
        <ele>-0.335</ele>
        <time>2019-06-15T10:43:37Z</time>
      </trkpt>
      <trkpt lat="39.114754" lon="-0.242473">
        <ele>-0.177</ele>
        <time>2019-06-15T10:43:38Z</time>
      </trkpt>
      <trkpt lat="39.114703" lon="-0.242420">
        <ele>-0.084</ele>
        <time>2019-06-15T10:43:39Z</time>
      </trkpt>
      <trkpt lat="39.114654" lon="-0.242368">
        <ele>-0.133</ele>
        <time>2019-06-15T10:43:40Z</time>
      </trkpt>
      <trkpt lat="39.114608" lon="-0.242313">
        <ele>-0.398</ele>
        <time>2019-06-15T10:43:41Z</time>
      </trkpt>
      <trkpt lat="39.114559" lon="-0.242266">
        <ele>-0.598</ele>
        <time>2019-06-15T10:43:42Z</time>
      </trkpt>
      <trkpt lat="39.114502" lon="-0.242223">
        <ele>-0.815</ele>
        <time>2019-06-15T10:43:43Z</time>
      </trkpt>
      <trkpt lat="39.114455" lon="-0.242169">
        <ele>-1.026</ele>
        <time>2019-06-15T10:43:44Z</time>
      </trkpt>
      <trkpt lat="39.114401" lon="-0.242113">
        <ele>-0.908</ele>
        <time>2019-06-15T10:43:45Z</time>
      </trkpt>
      <trkpt lat="39.114346" lon="-0.242055">
        <ele>-0.922</ele>
        <time>2019-06-15T10:43:46Z</time>
      </trkpt>
      <trkpt lat="39.114291" lon="-0.242000">
        <ele>-0.986</ele>
        <time>2019-06-15T10:43:47Z</time>
      </trkpt>
      <trkpt lat="39.114240" lon="-0.241950">
        <ele>-1.055</ele>
        <time>2019-06-15T10:43:48Z</time>
      </trkpt>
      <trkpt lat="39.114192" lon="-0.241888">
        <ele>-1.018</ele>
        <time>2019-06-15T10:43:49Z</time>
      </trkpt>
      <trkpt lat="39.114142" lon="-0.241836">
        <ele>-0.830</ele>
        <time>2019-06-15T10:43:50Z</time>
      </trkpt>
      <trkpt lat="39.114095" lon="-0.241792">
        <ele>-0.527</ele>
        <time>2019-06-15T10:43:51Z</time>
      </trkpt>
      <trkpt lat="39.114038" lon="-0.241751">
        <ele>-0.156</ele>
        <time>2019-06-15T10:43:52Z</time>
      </trkpt>
      <trkpt lat="39.113984" lon="-0.241697">
        <ele>0.311</ele>
        <time>2019-06-15T10:43:53Z</time>
      </trkpt>
      <trkpt lat="39.113923" lon="-0.241655">
        <ele>0.719</ele>
        <time>2019-06-15T10:43:54Z</time>
      </trkpt>
      <trkpt lat="39.113867" lon="-0.241603">
        <ele>0.909</ele>
        <time>2019-06-15T10:43:55Z</time>
      </trkpt>
      <trkpt lat="39.113818" lon="-0.241547">
        <ele>0.919</ele>
        <time>2019-06-15T10:43:56Z</time>
      </trkpt>
      <trkpt lat="39.113763" lon="-0.241499">
        <ele>1.108</ele>
        <time>2019-06-15T10:43:57Z</time>
      </trkpt>
      <trkpt lat="39.113689" lon="-0.241496">
        <ele>1.584</ele>
        <time>2019-06-15T10:43:58Z</time>
      </trkpt>
      <trkpt lat="39.113627" lon="-0.241476">
        <ele>1.978</ele>
        <time>2019-06-15T10:43:59Z</time>
      </trkpt>
      <trkpt lat="39.113548" lon="-0.241452">
        <ele>2.227</ele>
        <time>2019-06-15T10:44:00Z</time>
      </trkpt>
      <trkpt lat="39.113477" lon="-0.241414">
        <ele>2.590</ele>
        <time>2019-06-15T10:44:01Z</time>
      </trkpt>
      <trkpt lat="39.113409" lon="-0.241378">
        <ele>2.762</ele>
        <time>2019-06-15T10:44:02Z</time>
      </trkpt>
      <trkpt lat="39.113342" lon="-0.241343">
        <ele>3.019</ele>
        <time>2019-06-15T10:44:03Z</time>
      </trkpt>
      <trkpt lat="39.113276" lon="-0.241314">
        <ele>2.848</ele>
        <time>2019-06-15T10:44:04Z</time>
      </trkpt>
      <trkpt lat="39.113211" lon="-0.241267">
        <ele>2.663</ele>
        <time>2019-06-15T10:44:05Z</time>
      </trkpt>
      <trkpt lat="39.113146" lon="-0.241224">
        <ele>2.311</ele>
        <time>2019-06-15T10:44:06Z</time>
      </trkpt>
      <trkpt lat="39.113086" lon="-0.241175">
        <ele>2.121</ele>
        <time>2019-06-15T10:44:07Z</time>
      </trkpt>
      <trkpt lat="39.113012" lon="-0.241136">
        <ele>2.103</ele>
        <time>2019-06-15T10:44:08Z</time>
      </trkpt>
      <trkpt lat="39.112950" lon="-0.241089">
        <ele>2.408</ele>
        <time>2019-06-15T10:44:09Z</time>
      </trkpt>
      <trkpt lat="39.112893" lon="-0.241035">
        <ele>2.774</ele>
        <time>2019-06-15T10:44:10Z</time>
      </trkpt>
      <trkpt lat="39.112835" lon="-0.241006">
        <ele>2.948</ele>
        <time>2019-06-15T10:44:11Z</time>
      </trkpt>
      <trkpt lat="39.112770" lon="-0.240971">
        <ele>3.047</ele>
        <time>2019-06-15T10:44:12Z</time>
      </trkpt>
      <trkpt lat="39.112709" lon="-0.240930">
        <ele>2.820</ele>
        <time>2019-06-15T10:44:13Z</time>
      </trkpt>
      <trkpt lat="39.112647" lon="-0.240885">
        <ele>2.582</ele>
        <time>2019-06-15T10:44:14Z</time>
      </trkpt>
      <trkpt lat="39.112584" lon="-0.240854">
        <ele>2.329</ele>
        <time>2019-06-15T10:44:15Z</time>
      </trkpt>
      <trkpt lat="39.112525" lon="-0.240822">
        <ele>2.188</ele>
        <time>2019-06-15T10:44:16Z</time>
      </trkpt>
      <trkpt lat="39.112465" lon="-0.240789">
        <ele>1.873</ele>
        <time>2019-06-15T10:44:17Z</time>
      </trkpt>
      <trkpt lat="39.112407" lon="-0.240758">
        <ele>1.442</ele>
        <time>2019-06-15T10:44:18Z</time>
      </trkpt>
      <trkpt lat="39.112345" lon="-0.240725">
        <ele>1.122</ele>
        <time>2019-06-15T10:44:19Z</time>
      </trkpt>
      <trkpt lat="39.112289" lon="-0.240679">
        <ele>0.914</ele>
        <time>2019-06-15T10:44:20Z</time>
      </trkpt>
      <trkpt lat="39.112231" lon="-0.240644">
        <ele>0.708</ele>
        <time>2019-06-15T10:44:21Z</time>
      </trkpt>
      <trkpt lat="39.112154" lon="-0.240632">
        <ele>0.537</ele>
        <time>2019-06-15T10:44:22Z</time>
      </trkpt>
      <trkpt lat="39.112100" lon="-0.240601">
        <ele>0.441</ele>
        <time>2019-06-15T10:44:23Z</time>
      </trkpt>
      <trkpt lat="39.112040" lon="-0.240569">
        <ele>0.310</ele>
        <time>2019-06-15T10:44:24Z</time>
      </trkpt>
      <trkpt lat="39.111975" lon="-0.240539">
        <ele>0.223</ele>
        <time>2019-06-15T10:44:25Z</time>
      </trkpt>
      <trkpt lat="39.111914" lon="-0.240507">
        <ele>0.365</ele>
        <time>2019-06-15T10:44:26Z</time>
      </trkpt>
      <trkpt lat="39.111861" lon="-0.240476">
        <ele>0.542</ele>
        <time>2019-06-15T10:44:27Z</time>
      </trkpt>
      <trkpt lat="39.111804" lon="-0.240429">
        <ele>0.721</ele>
        <time>2019-06-15T10:44:28Z</time>
      </trkpt>
      <trkpt lat="39.111748" lon="-0.240391">
        <ele>0.966</ele>
        <time>2019-06-15T10:44:29Z</time>
      </trkpt>
      <trkpt lat="39.111693" lon="-0.240363">
        <ele>1.035</ele>
        <time>2019-06-15T10:44:30Z</time>
      </trkpt>
      <trkpt lat="39.111643" lon="-0.240317">
        <ele>1.086</ele>
        <time>2019-06-15T10:44:31Z</time>
      </trkpt>
      <trkpt lat="39.111595" lon="-0.240269">
        <ele>1.014</ele>
        <time>2019-06-15T10:44:32Z</time>
      </trkpt>
      <trkpt lat="39.111531" lon="-0.240253">
        <ele>1.008</ele>
        <time>2019-06-15T10:44:33Z</time>
      </trkpt>
      <trkpt lat="39.111478" lon="-0.240215">
        <ele>1.016</ele>
        <time>2019-06-15T10:44:34Z</time>
      </trkpt>
      <trkpt lat="39.111428" lon="-0.240191">
        <ele>1.090</ele>
        <time>2019-06-15T10:44:35Z</time>
      </trkpt>
      <trkpt lat="39.111372" lon="-0.240154">
        <ele>0.959</ele>
        <time>2019-06-15T10:44:36Z</time>
      </trkpt>
      <trkpt lat="39.111320" lon="-0.240093">
        <ele>0.822</ele>
        <time>2019-06-15T10:44:37Z</time>
      </trkpt>
      <trkpt lat="39.111261" lon="-0.240065">
        <ele>0.564</ele>
        <time>2019-06-15T10:44:38Z</time>
      </trkpt>
      <trkpt lat="39.111196" lon="-0.240035">
        <ele>0.381</ele>
        <time>2019-06-15T10:44:39Z</time>
      </trkpt>
      <trkpt lat="39.111148" lon="-0.239995">
        <ele>0.170</ele>
        <time>2019-06-15T10:44:40Z</time>
      </trkpt>
      <trkpt lat="39.111078" lon="-0.239968">
        <ele>0.125</ele>
        <time>2019-06-15T10:44:41Z</time>
      </trkpt>
      <trkpt lat="39.111022" lon="-0.239928">
        <ele>0.322</ele>
        <time>2019-06-15T10:44:42Z</time>
      </trkpt>
      <trkpt lat="39.110967" lon="-0.239886">
        <ele>0.462</ele>
        <time>2019-06-15T10:44:43Z</time>
      </trkpt>
      <trkpt lat="39.110913" lon="-0.239845">
        <ele>0.608</ele>
        <time>2019-06-15T10:44:44Z</time>
      </trkpt>
      <trkpt lat="39.110857" lon="-0.239810">
        <ele>0.708</ele>
        <time>2019-06-15T10:44:45Z</time>
      </trkpt>
      <trkpt lat="39.110797" lon="-0.239769">
        <ele>0.895</ele>
        <time>2019-06-15T10:44:46Z</time>
      </trkpt>
      <trkpt lat="39.110742" lon="-0.239731">
        <ele>1.099</ele>
        <time>2019-06-15T10:44:47Z</time>
      </trkpt>
      <trkpt lat="39.110688" lon="-0.239690">
        <ele>1.178</ele>
        <time>2019-06-15T10:44:48Z</time>
      </trkpt>
      <trkpt lat="39.110636" lon="-0.239636">
        <ele>1.321</ele>
        <time>2019-06-15T10:44:49Z</time>
      </trkpt>
      <trkpt lat="39.110585" lon="-0.239601">
        <ele>1.463</ele>
        <time>2019-06-15T10:44:50Z</time>
      </trkpt>
      <trkpt lat="39.110527" lon="-0.239564">
        <ele>1.680</ele>
        <time>2019-06-15T10:44:51Z</time>
      </trkpt>
      <trkpt lat="39.110465" lon="-0.239527">
        <ele>1.749</ele>
        <time>2019-06-15T10:44:52Z</time>
      </trkpt>
      <trkpt lat="39.110406" lon="-0.239506">
        <ele>1.854</ele>
        <time>2019-06-15T10:44:53Z</time>
      </trkpt>
      <trkpt lat="39.110346" lon="-0.239475">
        <ele>1.925</ele>
        <time>2019-06-15T10:44:54Z</time>
      </trkpt>
      <trkpt lat="39.110287" lon="-0.239444">
        <ele>2.026</ele>
        <time>2019-06-15T10:44:55Z</time>
      </trkpt>
      <trkpt lat="39.110222" lon="-0.239408">
        <ele>2.108</ele>
        <time>2019-06-15T10:44:56Z</time>
      </trkpt>
      <trkpt lat="39.110163" lon="-0.239377">
        <ele>2.208</ele>
        <time>2019-06-15T10:44:57Z</time>
      </trkpt>
      <trkpt lat="39.110100" lon="-0.239355">
        <ele>2.315</ele>
        <time>2019-06-15T10:44:58Z</time>
      </trkpt>
      <trkpt lat="39.110040" lon="-0.239330">
        <ele>2.439</ele>
        <time>2019-06-15T10:44:59Z</time>
      </trkpt>
      <trkpt lat="39.109976" lon="-0.239306">
        <ele>2.538</ele>
        <time>2019-06-15T10:45:00Z</time>
      </trkpt>
      <trkpt lat="39.109912" lon="-0.239288">
        <ele>2.421</ele>
        <time>2019-06-15T10:45:01Z</time>
      </trkpt>
      <trkpt lat="39.109855" lon="-0.239260">
        <ele>2.323</ele>
        <time>2019-06-15T10:45:02Z</time>
      </trkpt>
      <trkpt lat="39.109793" lon="-0.239239">
        <ele>2.210</ele>
        <time>2019-06-15T10:45:03Z</time>
      </trkpt>
      <trkpt lat="39.109725" lon="-0.239217">
        <ele>2.089</ele>
        <time>2019-06-15T10:45:04Z</time>
      </trkpt>
      <trkpt lat="39.109662" lon="-0.239192">
        <ele>1.894</ele>
        <time>2019-06-15T10:45:05Z</time>
      </trkpt>
      <trkpt lat="39.109597" lon="-0.239168">
        <ele>1.627</ele>
        <time>2019-06-15T10:45:06Z</time>
      </trkpt>
      <trkpt lat="39.109541" lon="-0.239136">
        <ele>1.368</ele>
        <time>2019-06-15T10:45:07Z</time>
      </trkpt>
      <trkpt lat="39.109481" lon="-0.239118">
        <ele>1.114</ele>
        <time>2019-06-15T10:45:08Z</time>
      </trkpt>
      <trkpt lat="39.109413" lon="-0.239095">
        <ele>1.208</ele>
        <time>2019-06-15T10:45:09Z</time>
      </trkpt>
      <trkpt lat="39.109360" lon="-0.239075">
        <ele>1.445</ele>
        <time>2019-06-15T10:45:10Z</time>
      </trkpt>
      <trkpt lat="39.109299" lon="-0.239047">
        <ele>1.649</ele>
        <time>2019-06-15T10:45:11Z</time>
      </trkpt>
      <trkpt lat="39.109239" lon="-0.239020">
        <ele>1.788</ele>
        <time>2019-06-15T10:45:12Z</time>
      </trkpt>
      <trkpt lat="39.109174" lon="-0.239004">
        <ele>1.831</ele>
        <time>2019-06-15T10:45:13Z</time>
      </trkpt>
      <trkpt lat="39.109109" lon="-0.238980">
        <ele>1.853</ele>
        <time>2019-06-15T10:45:14Z</time>
      </trkpt>
      <trkpt lat="39.109050" lon="-0.238952">
        <ele>1.810</ele>
        <time>2019-06-15T10:45:15Z</time>
      </trkpt>
      <trkpt lat="39.108994" lon="-0.238932">
        <ele>1.889</ele>
        <time>2019-06-15T10:45:16Z</time>
      </trkpt>
      <trkpt lat="39.108933" lon="-0.238913">
        <ele>1.974</ele>
        <time>2019-06-15T10:45:17Z</time>
      </trkpt>
      <trkpt lat="39.108867" lon="-0.238892">
        <ele>2.227</ele>
        <time>2019-06-15T10:45:18Z</time>
      </trkpt>
      <trkpt lat="39.108801" lon="-0.238868">
        <ele>2.668</ele>
        <time>2019-06-15T10:45:19Z</time>
      </trkpt>
      <trkpt lat="39.108738" lon="-0.238850">
        <ele>3.014</ele>
        <time>2019-06-15T10:45:20Z</time>
      </trkpt>
      <trkpt lat="39.108670" lon="-0.238823">
        <ele>3.408</ele>
        <time>2019-06-15T10:45:21Z</time>
      </trkpt>
      <trkpt lat="39.108611" lon="-0.238804">
        <ele>3.765</ele>
        <time>2019-06-15T10:45:22Z</time>
      </trkpt>
      <trkpt lat="39.108547" lon="-0.238777">
        <ele>3.579</ele>
        <time>2019-06-15T10:45:23Z</time>
      </trkpt>
      <trkpt lat="39.108483" lon="-0.238763">
        <ele>3.368</ele>
        <time>2019-06-15T10:45:24Z</time>
      </trkpt>
      <trkpt lat="39.108416" lon="-0.238756">
        <ele>3.281</ele>
        <time>2019-06-15T10:45:25Z</time>
      </trkpt>
      <trkpt lat="39.108346" lon="-0.238743">
        <ele>3.083</ele>
        <time>2019-06-15T10:45:26Z</time>
      </trkpt>
      <trkpt lat="39.108283" lon="-0.238723">
        <ele>2.680</ele>
        <time>2019-06-15T10:45:27Z</time>
      </trkpt>
      <trkpt lat="39.108219" lon="-0.238705">
        <ele>2.379</ele>
        <time>2019-06-15T10:45:28Z</time>
      </trkpt>
      <trkpt lat="39.108141" lon="-0.238692">
        <ele>1.944</ele>
        <time>2019-06-15T10:45:29Z</time>
      </trkpt>
      <trkpt lat="39.108079" lon="-0.238668">
        <ele>1.528</ele>
        <time>2019-06-15T10:45:30Z</time>
      </trkpt>
      <trkpt lat="39.108013" lon="-0.238658">
        <ele>1.389</ele>
        <time>2019-06-15T10:45:31Z</time>
      </trkpt>
      <trkpt lat="39.107949" lon="-0.238646">
        <ele>1.317</ele>
        <time>2019-06-15T10:45:32Z</time>
      </trkpt>
      <trkpt lat="39.107884" lon="-0.238632">
        <ele>1.108</ele>
        <time>2019-06-15T10:45:33Z</time>
      </trkpt>
      <trkpt lat="39.107822" lon="-0.238615">
        <ele>1.085</ele>
        <time>2019-06-15T10:45:34Z</time>
      </trkpt>
      <trkpt lat="39.107758" lon="-0.238598">
        <ele>1.099</ele>
        <time>2019-06-15T10:45:35Z</time>
      </trkpt>
      <trkpt lat="39.107692" lon="-0.238583">
        <ele>0.918</ele>
        <time>2019-06-15T10:45:36Z</time>
      </trkpt>
      <trkpt lat="39.107634" lon="-0.238567">
        <ele>0.871</ele>
        <time>2019-06-15T10:45:37Z</time>
      </trkpt>
      <trkpt lat="39.107574" lon="-0.238548">
        <ele>0.873</ele>
        <time>2019-06-15T10:45:38Z</time>
      </trkpt>
      <trkpt lat="39.107508" lon="-0.238538">
        <ele>0.730</ele>
        <time>2019-06-15T10:45:39Z</time>
      </trkpt>
      <trkpt lat="39.107439" lon="-0.238526">
        <ele>0.679</ele>
        <time>2019-06-15T10:45:40Z</time>
      </trkpt>
      <trkpt lat="39.107372" lon="-0.238509">
        <ele>0.584</ele>
        <time>2019-06-15T10:45:41Z</time>
      </trkpt>
      <trkpt lat="39.107306" lon="-0.238496">
        <ele>0.594</ele>
        <time>2019-06-15T10:45:42Z</time>
      </trkpt>
      <trkpt lat="39.107241" lon="-0.238487">
        <ele>0.557</ele>
        <time>2019-06-15T10:45:43Z</time>
      </trkpt>
      <trkpt lat="39.107174" lon="-0.238482">
        <ele>0.722</ele>
        <time>2019-06-15T10:45:44Z</time>
      </trkpt>
      <trkpt lat="39.107115" lon="-0.238473">
        <ele>1.108</ele>
        <time>2019-06-15T10:45:45Z</time>
      </trkpt>
      <trkpt lat="39.107042" lon="-0.238467">
        <ele>1.532</ele>
        <time>2019-06-15T10:45:46Z</time>
      </trkpt>
      <trkpt lat="39.106984" lon="-0.238466">
        <ele>1.886</ele>
        <time>2019-06-15T10:45:47Z</time>
      </trkpt>
      <trkpt lat="39.106919" lon="-0.238447">
        <ele>2.115</ele>
        <time>2019-06-15T10:45:48Z</time>
      </trkpt>
      <trkpt lat="39.106851" lon="-0.238427">
        <ele>2.388</ele>
        <time>2019-06-15T10:45:49Z</time>
      </trkpt>
      <trkpt lat="39.106789" lon="-0.238411">
        <ele>2.620</ele>
        <time>2019-06-15T10:45:50Z</time>
      </trkpt>
      <trkpt lat="39.106721" lon="-0.238393">
        <ele>2.897</ele>
        <time>2019-06-15T10:45:51Z</time>
      </trkpt>
      <trkpt lat="39.106660" lon="-0.238374">
        <ele>3.086</ele>
        <time>2019-06-15T10:45:52Z</time>
      </trkpt>
      <trkpt lat="39.106603" lon="-0.238356">
        <ele>2.881</ele>
        <time>2019-06-15T10:45:53Z</time>
      </trkpt>
      <trkpt lat="39.106545" lon="-0.238334">
        <ele>2.646</ele>
        <time>2019-06-15T10:45:54Z</time>
      </trkpt>
      <trkpt lat="39.106493" lon="-0.238307">
        <ele>2.388</ele>
        <time>2019-06-15T10:45:55Z</time>
      </trkpt>
      <trkpt lat="39.106434" lon="-0.238279">
        <ele>2.116</ele>
        <time>2019-06-15T10:45:56Z</time>
      </trkpt>
      <trkpt lat="39.106368" lon="-0.238259">
        <ele>2.108</ele>
        <time>2019-06-15T10:45:57Z</time>
      </trkpt>
      <trkpt lat="39.106315" lon="-0.238216">
        <ele>2.227</ele>
        <time>2019-06-15T10:45:58Z</time>
      </trkpt>
      <trkpt lat="39.106251" lon="-0.238194">
        <ele>2.261</ele>
        <time>2019-06-15T10:45:59Z</time>
      </trkpt>
      <trkpt lat="39.106193" lon="-0.238169">
        <ele>2.330</ele>
        <time>2019-06-15T10:46:00Z</time>
      </trkpt>
      <trkpt lat="39.106121" lon="-0.238154">
        <ele>2.333</ele>
        <time>2019-06-15T10:46:01Z</time>
      </trkpt>
      <trkpt lat="39.106067" lon="-0.238130">
        <ele>2.365</ele>
        <time>2019-06-15T10:46:02Z</time>
      </trkpt>
      <trkpt lat="39.106003" lon="-0.238113">
        <ele>2.292</ele>
        <time>2019-06-15T10:46:03Z</time>
      </trkpt>
      <trkpt lat="39.105937" lon="-0.238093">
        <ele>2.131</ele>
        <time>2019-06-15T10:46:04Z</time>
      </trkpt>
      <trkpt lat="39.105869" lon="-0.238081">
        <ele>2.176</ele>
        <time>2019-06-15T10:46:05Z</time>
      </trkpt>
      <trkpt lat="39.105804" lon="-0.238071">
        <ele>2.064</ele>
        <time>2019-06-15T10:46:06Z</time>
      </trkpt>
      <trkpt lat="39.105746" lon="-0.238061">
        <ele>2.006</ele>
        <time>2019-06-15T10:46:07Z</time>
      </trkpt>
      <trkpt lat="39.105682" lon="-0.238044">
        <ele>2.016</ele>
        <time>2019-06-15T10:46:08Z</time>
      </trkpt>
      <trkpt lat="39.105616" lon="-0.238014">
        <ele>2.008</ele>
        <time>2019-06-15T10:46:09Z</time>
      </trkpt>
      <trkpt lat="39.105556" lon="-0.237981">
        <ele>2.079</ele>
        <time>2019-06-15T10:46:10Z</time>
      </trkpt>
      <trkpt lat="39.105498" lon="-0.237940">
        <ele>2.023</ele>
        <time>2019-06-15T10:46:11Z</time>
      </trkpt>
      <trkpt lat="39.105417" lon="-0.237936">
        <ele>1.912</ele>
        <time>2019-06-15T10:46:12Z</time>
      </trkpt>
      <trkpt lat="39.105348" lon="-0.237916">
        <ele>2.035</ele>
        <time>2019-06-15T10:46:13Z</time>
      </trkpt>
      <trkpt lat="39.105289" lon="-0.237891">
        <ele>2.267</ele>
        <time>2019-06-15T10:46:14Z</time>
      </trkpt>
      <trkpt lat="39.105229" lon="-0.237865">
        <ele>2.454</ele>
        <time>2019-06-15T10:46:15Z</time>
      </trkpt>
      <trkpt lat="39.105159" lon="-0.237842">
        <ele>2.583</ele>
        <time>2019-06-15T10:46:16Z</time>
      </trkpt>
      <trkpt lat="39.105103" lon="-0.237800">
        <ele>2.878</ele>
        <time>2019-06-15T10:46:17Z</time>
      </trkpt>
      <trkpt lat="39.105042" lon="-0.237769">
        <ele>3.192</ele>
        <time>2019-06-15T10:46:18Z</time>
      </trkpt>
      <trkpt lat="39.104977" lon="-0.237750">
        <ele>3.173</ele>
        <time>2019-06-15T10:46:19Z</time>
      </trkpt>
      <trkpt lat="39.104914" lon="-0.237722">
        <ele>3.120</ele>
        <time>2019-06-15T10:46:20Z</time>
      </trkpt>
      <trkpt lat="39.104851" lon="-0.237687">
        <ele>3.108</ele>
        <time>2019-06-15T10:46:21Z</time>
      </trkpt>
      <trkpt lat="39.104787" lon="-0.237649">
        <ele>3.272</ele>
        <time>2019-06-15T10:46:22Z</time>
      </trkpt>
      <trkpt lat="39.104718" lon="-0.237623">
        <ele>3.196</ele>
        <time>2019-06-15T10:46:23Z</time>
      </trkpt>
      <trkpt lat="39.104648" lon="-0.237597">
        <ele>3.015</ele>
        <time>2019-06-15T10:46:24Z</time>
      </trkpt>
      <trkpt lat="39.104578" lon="-0.237569">
        <ele>2.768</ele>
        <time>2019-06-15T10:46:25Z</time>
      </trkpt>
      <trkpt lat="39.104509" lon="-0.237550">
        <ele>2.480</ele>
        <time>2019-06-15T10:46:26Z</time>
      </trkpt>
      <trkpt lat="39.104437" lon="-0.237528">
        <ele>2.077</ele>
        <time>2019-06-15T10:46:27Z</time>
      </trkpt>
      <trkpt lat="39.104368" lon="-0.237505">
        <ele>2.036</ele>
        <time>2019-06-15T10:46:28Z</time>
      </trkpt>
      <trkpt lat="39.104298" lon="-0.237479">
        <ele>2.021</ele>
        <time>2019-06-15T10:46:29Z</time>
      </trkpt>
      <trkpt lat="39.104229" lon="-0.237460">
        <ele>1.994</ele>
        <time>2019-06-15T10:46:30Z</time>
      </trkpt>
      <trkpt lat="39.104158" lon="-0.237445">
        <ele>1.857</ele>
        <time>2019-06-15T10:46:31Z</time>
      </trkpt>
      <trkpt lat="39.104080" lon="-0.237423">
        <ele>2.022</ele>
        <time>2019-06-15T10:46:32Z</time>
      </trkpt>
      <trkpt lat="39.104011" lon="-0.237406">
        <ele>2.208</ele>
        <time>2019-06-15T10:46:33Z</time>
      </trkpt>
      <trkpt lat="39.103946" lon="-0.237384">
        <ele>2.452</ele>
        <time>2019-06-15T10:46:34Z</time>
      </trkpt>
      <trkpt lat="39.103872" lon="-0.237371">
        <ele>2.586</ele>
        <time>2019-06-15T10:46:35Z</time>
      </trkpt>
      <trkpt lat="39.103803" lon="-0.237343">
        <ele>2.455</ele>
        <time>2019-06-15T10:46:36Z</time>
      </trkpt>
      <trkpt lat="39.103728" lon="-0.237331">
        <ele>2.468</ele>
        <time>2019-06-15T10:46:37Z</time>
      </trkpt>
      <trkpt lat="39.103665" lon="-0.237305">
        <ele>2.320</ele>
        <time>2019-06-15T10:46:38Z</time>
      </trkpt>
      <trkpt lat="39.103594" lon="-0.237287">
        <ele>2.237</ele>
        <time>2019-06-15T10:46:39Z</time>
      </trkpt>
      <trkpt lat="39.103528" lon="-0.237259">
        <ele>2.176</ele>
        <time>2019-06-15T10:46:40Z</time>
      </trkpt>
      <trkpt lat="39.103460" lon="-0.237235">
        <ele>2.021</ele>
        <time>2019-06-15T10:46:41Z</time>
      </trkpt>
      <trkpt lat="39.103389" lon="-0.237205">
        <ele>2.041</ele>
        <time>2019-06-15T10:46:42Z</time>
      </trkpt>
      <trkpt lat="39.103326" lon="-0.237171">
        <ele>2.081</ele>
        <time>2019-06-15T10:46:43Z</time>
      </trkpt>
      <trkpt lat="39.103253" lon="-0.237150">
        <ele>1.509</ele>
        <time>2019-06-15T10:46:44Z</time>
      </trkpt>
      <trkpt lat="39.103177" lon="-0.237131">
        <ele>1.108</ele>
        <time>2019-06-15T10:46:45Z</time>
      </trkpt>
      <trkpt lat="39.103109" lon="-0.237096">
        <ele>0.837</ele>
        <time>2019-06-15T10:46:46Z</time>
      </trkpt>
      <trkpt lat="39.103033" lon="-0.237065">
        <ele>0.541</ele>
        <time>2019-06-15T10:46:47Z</time>
      </trkpt>
      <trkpt lat="39.102960" lon="-0.237032">
        <ele>0.350</ele>
        <time>2019-06-15T10:46:48Z</time>
      </trkpt>
      <trkpt lat="39.102898" lon="-0.236998">
        <ele>0.293</ele>
        <time>2019-06-15T10:46:49Z</time>
      </trkpt>
      <trkpt lat="39.102819" lon="-0.236968">
        <ele>0.165</ele>
        <time>2019-06-15T10:46:50Z</time>
      </trkpt>
      <trkpt lat="39.102737" lon="-0.236934">
        <ele>-0.142</ele>
        <time>2019-06-15T10:46:51Z</time>
      </trkpt>
      <trkpt lat="39.102659" lon="-0.236912">
        <ele>-0.311</ele>
        <time>2019-06-15T10:46:52Z</time>
      </trkpt>
      <trkpt lat="39.102593" lon="-0.236880">
        <ele>-0.476</ele>
        <time>2019-06-15T10:46:53Z</time>
      </trkpt>
      <trkpt lat="39.102519" lon="-0.236850">
        <ele>-0.632</ele>
        <time>2019-06-15T10:46:54Z</time>
      </trkpt>
      <trkpt lat="39.102460" lon="-0.236817">
        <ele>-0.592</ele>
        <time>2019-06-15T10:46:55Z</time>
      </trkpt>
      <trkpt lat="39.102397" lon="-0.236789">
        <ele>-0.411</ele>
        <time>2019-06-15T10:46:56Z</time>
      </trkpt>
      <trkpt lat="39.102326" lon="-0.236764">
        <ele>-0.308</ele>
        <time>2019-06-15T10:46:57Z</time>
      </trkpt>
      <trkpt lat="39.102266" lon="-0.236741">
        <ele>-0.336</ele>
        <time>2019-06-15T10:46:58Z</time>
      </trkpt>
      <trkpt lat="39.102201" lon="-0.236723">
        <ele>-0.270</ele>
        <time>2019-06-15T10:46:59Z</time>
      </trkpt>
      <trkpt lat="39.102146" lon="-0.236689">
        <ele>-0.139</ele>
        <time>2019-06-15T10:47:00Z</time>
      </trkpt>
      <trkpt lat="39.102073" lon="-0.236667">
        <ele>-0.012</ele>
        <time>2019-06-15T10:47:01Z</time>
      </trkpt>
      <trkpt lat="39.102014" lon="-0.236645">
        <ele>0.164</ele>
        <time>2019-06-15T10:47:02Z</time>
      </trkpt>
      <trkpt lat="39.101951" lon="-0.236621">
        <ele>0.231</ele>
        <time>2019-06-15T10:47:03Z</time>
      </trkpt>
      <trkpt lat="39.101886" lon="-0.236602">
        <ele>0.440</ele>
        <time>2019-06-15T10:47:04Z</time>
      </trkpt>
      <trkpt lat="39.101822" lon="-0.236585">
        <ele>0.775</ele>
        <time>2019-06-15T10:47:05Z</time>
      </trkpt>
      <trkpt lat="39.101761" lon="-0.236562">
        <ele>1.046</ele>
        <time>2019-06-15T10:47:06Z</time>
      </trkpt>
      <trkpt lat="39.101696" lon="-0.236542">
        <ele>1.388</ele>
        <time>2019-06-15T10:47:07Z</time>
      </trkpt>
      <trkpt lat="39.101631" lon="-0.236522">
        <ele>1.516</ele>
        <time>2019-06-15T10:47:08Z</time>
      </trkpt>
      <trkpt lat="39.101571" lon="-0.236498">
        <ele>1.608</ele>
        <time>2019-06-15T10:47:09Z</time>
      </trkpt>
      <trkpt lat="39.101508" lon="-0.236471">
        <ele>1.747</ele>
        <time>2019-06-15T10:47:10Z</time>
      </trkpt>
      <trkpt lat="39.101444" lon="-0.236444">
        <ele>1.871</ele>
        <time>2019-06-15T10:47:11Z</time>
      </trkpt>
      <trkpt lat="39.101385" lon="-0.236421">
        <ele>1.970</ele>
        <time>2019-06-15T10:47:12Z</time>
      </trkpt>
      <trkpt lat="39.101326" lon="-0.236388">
        <ele>2.253</ele>
        <time>2019-06-15T10:47:13Z</time>
      </trkpt>
      <trkpt lat="39.101268" lon="-0.236361">
        <ele>2.545</ele>
        <time>2019-06-15T10:47:14Z</time>
      </trkpt>
      <trkpt lat="39.101200" lon="-0.236331">
        <ele>2.932</ele>
        <time>2019-06-15T10:47:15Z</time>
      </trkpt>
      <trkpt lat="39.101145" lon="-0.236303">
        <ele>3.281</ele>
        <time>2019-06-15T10:47:16Z</time>
      </trkpt>
      <trkpt lat="39.101086" lon="-0.236270">
        <ele>3.486</ele>
        <time>2019-06-15T10:47:17Z</time>
      </trkpt>
      <trkpt lat="39.101029" lon="-0.236227">
        <ele>3.681</ele>
        <time>2019-06-15T10:47:18Z</time>
      </trkpt>
      <trkpt lat="39.100965" lon="-0.236190">
        <ele>3.761</ele>
        <time>2019-06-15T10:47:19Z</time>
      </trkpt>
      <trkpt lat="39.100906" lon="-0.236154">
        <ele>3.817</ele>
        <time>2019-06-15T10:47:20Z</time>
      </trkpt>
      <trkpt lat="39.100846" lon="-0.236122">
        <ele>4.008</ele>
        <time>2019-06-15T10:47:21Z</time>
      </trkpt>
      <trkpt lat="39.100784" lon="-0.236080">
        <ele>3.831</ele>
        <time>2019-06-15T10:47:22Z</time>
      </trkpt>
      <trkpt lat="39.100709" lon="-0.236044">
        <ele>3.695</ele>
        <time>2019-06-15T10:47:23Z</time>
      </trkpt>
      <trkpt lat="39.100661" lon="-0.235988">
        <ele>3.444</ele>
        <time>2019-06-15T10:47:24Z</time>
      </trkpt>
      <trkpt lat="39.100601" lon="-0.235957">
        <ele>3.267</ele>
        <time>2019-06-15T10:47:25Z</time>
      </trkpt>
      <trkpt lat="39.100549" lon="-0.235900">
        <ele>3.089</ele>
        <time>2019-06-15T10:47:26Z</time>
      </trkpt>
      <trkpt lat="39.100510" lon="-0.235860">
        <ele>2.896</ele>
        <time>2019-06-15T10:47:27Z</time>
      </trkpt>
      <trkpt lat="39.100475" lon="-0.235814">
        <ele>2.675</ele>
        <time>2019-06-15T10:47:28Z</time>
      </trkpt>
      <trkpt lat="39.100409" lon="-0.235783">
        <ele>2.340</ele>
        <time>2019-06-15T10:47:29Z</time>
      </trkpt>
      <trkpt lat="39.100354" lon="-0.235745">
        <ele>2.099</ele>
        <time>2019-06-15T10:47:30Z</time>
      </trkpt>
      <trkpt lat="39.100285" lon="-0.235708">
        <ele>1.607</ele>
        <time>2019-06-15T10:47:31Z</time>
      </trkpt>
      <trkpt lat="39.100227" lon="-0.235691">
        <ele>1.427</ele>
        <time>2019-06-15T10:47:32Z</time>
      </trkpt>
      <trkpt lat="39.100168" lon="-0.235646">
        <ele>1.208</ele>
        <time>2019-06-15T10:47:33Z</time>
      </trkpt>
      <trkpt lat="39.100106" lon="-0.235613">
        <ele>1.182</ele>
        <time>2019-06-15T10:47:34Z</time>
      </trkpt>
      <trkpt lat="39.100047" lon="-0.235583">
        <ele>1.036</ele>
        <time>2019-06-15T10:47:35Z</time>
      </trkpt>
      <trkpt lat="39.099973" lon="-0.235549">
        <ele>1.195</ele>
        <time>2019-06-15T10:47:36Z</time>
      </trkpt>
      <trkpt lat="39.099905" lon="-0.235525">
        <ele>1.588</ele>
        <time>2019-06-15T10:47:37Z</time>
      </trkpt>
      <trkpt lat="39.099846" lon="-0.235505">
        <ele>1.760</ele>
        <time>2019-06-15T10:47:38Z</time>
      </trkpt>
      <trkpt lat="39.099783" lon="-0.235482">
        <ele>2.057</ele>
        <time>2019-06-15T10:47:39Z</time>
      </trkpt>
      <trkpt lat="39.099703" lon="-0.235472">
        <ele>2.376</ele>
        <time>2019-06-15T10:47:40Z</time>
      </trkpt>
      <trkpt lat="39.099643" lon="-0.235447">
        <ele>2.371</ele>
        <time>2019-06-15T10:47:41Z</time>
      </trkpt>
      <trkpt lat="39.099608" lon="-0.235388">
        <ele>2.481</ele>
        <time>2019-06-15T10:47:42Z</time>
      </trkpt>
      <trkpt lat="39.099554" lon="-0.235349">
        <ele>2.361</ele>
        <time>2019-06-15T10:47:43Z</time>
      </trkpt>
      <trkpt lat="39.099497" lon="-0.235310">
        <ele>2.217</ele>
        <time>2019-06-15T10:47:44Z</time>
      </trkpt>
      <trkpt lat="39.099440" lon="-0.235281">
        <ele>2.008</ele>
        <time>2019-06-15T10:47:45Z</time>
      </trkpt>
      <trkpt lat="39.099374" lon="-0.235251">
        <ele>2.091</ele>
        <time>2019-06-15T10:47:46Z</time>
      </trkpt>
      <trkpt lat="39.099314" lon="-0.235214">
        <ele>1.965</ele>
        <time>2019-06-15T10:47:47Z</time>
      </trkpt>
      <trkpt lat="39.099257" lon="-0.235187">
        <ele>1.834</ele>
        <time>2019-06-15T10:47:48Z</time>
      </trkpt>
      <trkpt lat="39.099196" lon="-0.235164">
        <ele>1.637</ele>
        <time>2019-06-15T10:47:49Z</time>
      </trkpt>
      <trkpt lat="39.099135" lon="-0.235138">
        <ele>1.599</ele>
        <time>2019-06-15T10:47:50Z</time>
      </trkpt>
      <trkpt lat="39.099056" lon="-0.235121">
        <ele>1.476</ele>
        <time>2019-06-15T10:47:51Z</time>
      </trkpt>
      <trkpt lat="39.098994" lon="-0.235097">
        <ele>1.315</ele>
        <time>2019-06-15T10:47:52Z</time>
      </trkpt>
      <trkpt lat="39.098936" lon="-0.235077">
        <ele>1.310</ele>
        <time>2019-06-15T10:47:53Z</time>
      </trkpt>
      <trkpt lat="39.098866" lon="-0.235052">
        <ele>1.213</ele>
        <time>2019-06-15T10:47:54Z</time>
      </trkpt>
      <trkpt lat="39.098800" lon="-0.235038">
        <ele>1.143</ele>
        <time>2019-06-15T10:47:55Z</time>
      </trkpt>
      <trkpt lat="39.098747" lon="-0.235020">
        <ele>1.107</ele>
        <time>2019-06-15T10:47:56Z</time>
      </trkpt>
      <trkpt lat="39.098687" lon="-0.234999">
        <ele>1.008</ele>
        <time>2019-06-15T10:47:57Z</time>
      </trkpt>
      <trkpt lat="39.098628" lon="-0.234970">
        <ele>1.094</ele>
        <time>2019-06-15T10:47:58Z</time>
      </trkpt>
      <trkpt lat="39.098572" lon="-0.234936">
        <ele>1.138</ele>
        <time>2019-06-15T10:47:59Z</time>
      </trkpt>
      <trkpt lat="39.098526" lon="-0.234886">
        <ele>1.237</ele>
        <time>2019-06-15T10:48:00Z</time>
      </trkpt>
      <trkpt lat="39.098461" lon="-0.234882">
        <ele>1.310</ele>
        <time>2019-06-15T10:48:01Z</time>
      </trkpt>
      <trkpt lat="39.098396" lon="-0.234846">
        <ele>1.392</ele>
        <time>2019-06-15T10:48:02Z</time>
      </trkpt>
      <trkpt lat="39.098347" lon="-0.234800">
        <ele>1.319</ele>
        <time>2019-06-15T10:48:03Z</time>
      </trkpt>
      <trkpt lat="39.098299" lon="-0.234764">
        <ele>1.398</ele>
        <time>2019-06-15T10:48:04Z</time>
      </trkpt>
      <trkpt lat="39.098206" lon="-0.234708">
        <ele>1.553</ele>
        <time>2019-06-15T10:48:06Z</time>
      </trkpt>
      <trkpt lat="39.098139" lon="-0.234703">
        <ele>1.736</ele>
        <time>2019-06-15T10:48:07Z</time>
      </trkpt>
      <trkpt lat="39.098114" lon="-0.234623">
        <ele>1.917</ele>
        <time>2019-06-15T10:48:08Z</time>
      </trkpt>
      <trkpt lat="39.098031" lon="-0.234601">
        <ele>2.018</ele>
        <time>2019-06-15T10:48:09Z</time>
      </trkpt>
      <trkpt lat="39.097974" lon="-0.234566">
        <ele>2.008</ele>
        <time>2019-06-15T10:48:10Z</time>
      </trkpt>
      <trkpt lat="39.097913" lon="-0.234583">
        <ele>2.096</ele>
        <time>2019-06-15T10:48:11Z</time>
      </trkpt>
      <trkpt lat="39.097903" lon="-0.234461">
        <ele>2.030</ele>
        <time>2019-06-15T10:48:12Z</time>
      </trkpt>
      <trkpt lat="39.097864" lon="-0.234412">
        <ele>2.099</ele>
        <time>2019-06-15T10:48:13Z</time>
      </trkpt>
      <trkpt lat="39.097809" lon="-0.234375">
        <ele>2.062</ele>
        <time>2019-06-15T10:48:14Z</time>
      </trkpt>
      <trkpt lat="39.097730" lon="-0.234297">
        <ele>1.894</ele>
        <time>2019-06-15T10:48:16Z</time>
      </trkpt>
      <trkpt lat="39.097656" lon="-0.234262">
        <ele>1.661</ele>
        <time>2019-06-15T10:48:17Z</time>
      </trkpt>
      <trkpt lat="39.097600" lon="-0.234227">
        <ele>1.410</ele>
        <time>2019-06-15T10:48:18Z</time>
      </trkpt>
      <trkpt lat="39.097520" lon="-0.234192">
        <ele>1.195</ele>
        <time>2019-06-15T10:48:19Z</time>
      </trkpt>
      <trkpt lat="39.097470" lon="-0.234148">
        <ele>1.152</ele>
        <time>2019-06-15T10:48:20Z</time>
      </trkpt>
      <trkpt lat="39.097435" lon="-0.234093">
        <ele>1.353</ele>
        <time>2019-06-15T10:48:21Z</time>
      </trkpt>
      <trkpt lat="39.097379" lon="-0.234058">
        <ele>1.608</ele>
        <time>2019-06-15T10:48:22Z</time>
      </trkpt>
      <trkpt lat="39.097325" lon="-0.234017">
        <ele>1.908</ele>
        <time>2019-06-15T10:48:23Z</time>
      </trkpt>
      <trkpt lat="39.097259" lon="-0.233990">
        <ele>2.288</ele>
        <time>2019-06-15T10:48:24Z</time>
      </trkpt>
      <trkpt lat="39.097198" lon="-0.233979">
        <ele>2.542</ele>
        <time>2019-06-15T10:48:25Z</time>
      </trkpt>
      <trkpt lat="39.097140" lon="-0.233953">
        <ele>2.941</ele>
        <time>2019-06-15T10:48:26Z</time>
      </trkpt>
      <trkpt lat="39.097080" lon="-0.233934">
        <ele>3.374</ele>
        <time>2019-06-15T10:48:27Z</time>
      </trkpt>
      <trkpt lat="39.097017" lon="-0.233909">
        <ele>3.676</ele>
        <time>2019-06-15T10:48:28Z</time>
      </trkpt>
      <trkpt lat="39.096963" lon="-0.233880">
        <ele>4.063</ele>
        <time>2019-06-15T10:48:29Z</time>
      </trkpt>
      <trkpt lat="39.096903" lon="-0.233853">
        <ele>4.042</ele>
        <time>2019-06-15T10:48:30Z</time>
      </trkpt>
      <trkpt lat="39.096843" lon="-0.233824">
        <ele>4.087</ele>
        <time>2019-06-15T10:48:31Z</time>
      </trkpt>
      <trkpt lat="39.096785" lon="-0.233792">
        <ele>4.084</ele>
        <time>2019-06-15T10:48:32Z</time>
      </trkpt>
      <trkpt lat="39.096721" lon="-0.233761">
        <ele>4.007</ele>
        <time>2019-06-15T10:48:33Z</time>
      </trkpt>
      <trkpt lat="39.096655" lon="-0.233735">
        <ele>4.117</ele>
        <time>2019-06-15T10:48:34Z</time>
      </trkpt>
      <trkpt lat="39.096602" lon="-0.233705">
        <ele>4.008</ele>
        <time>2019-06-15T10:48:35Z</time>
      </trkpt>
      <trkpt lat="39.096545" lon="-0.233683">
        <ele>3.841</ele>
        <time>2019-06-15T10:48:36Z</time>
      </trkpt>
      <trkpt lat="39.096469" lon="-0.233655">
        <ele>3.565</ele>
        <time>2019-06-15T10:48:37Z</time>
      </trkpt>
      <trkpt lat="39.096408" lon="-0.233629">
        <ele>3.124</ele>
        <time>2019-06-15T10:48:38Z</time>
      </trkpt>
      <trkpt lat="39.096343" lon="-0.233617">
        <ele>2.817</ele>
        <time>2019-06-15T10:48:39Z</time>
      </trkpt>
      <trkpt lat="39.096287" lon="-0.233601">
        <ele>2.739</ele>
        <time>2019-06-15T10:48:40Z</time>
      </trkpt>
      <trkpt lat="39.096228" lon="-0.233583">
        <ele>2.526</ele>
        <time>2019-06-15T10:48:41Z</time>
      </trkpt>
      <trkpt lat="39.096174" lon="-0.233563">
        <ele>2.335</ele>
        <time>2019-06-15T10:48:42Z</time>
      </trkpt>
      <trkpt lat="39.096118" lon="-0.233542">
        <ele>2.060</ele>
        <time>2019-06-15T10:48:43Z</time>
      </trkpt>
      <trkpt lat="39.096063" lon="-0.233523">
        <ele>1.832</ele>
        <time>2019-06-15T10:48:44Z</time>
      </trkpt>
      <trkpt lat="39.096012" lon="-0.233505">
        <ele>1.592</ele>
        <time>2019-06-15T10:48:45Z</time>
      </trkpt>
      <trkpt lat="39.095954" lon="-0.233480">
        <ele>1.211</ele>
        <time>2019-06-15T10:48:46Z</time>
      </trkpt>
      <trkpt lat="39.095899" lon="-0.233468">
        <ele>0.808</ele>
        <time>2019-06-15T10:48:47Z</time>
      </trkpt>
      <trkpt lat="39.095849" lon="-0.233438">
        <ele>0.586</ele>
        <time>2019-06-15T10:48:48Z</time>
      </trkpt>
      <trkpt lat="39.095791" lon="-0.233416">
        <ele>0.470</ele>
        <time>2019-06-15T10:48:49Z</time>
      </trkpt>
      <trkpt lat="39.095732" lon="-0.233397">
        <ele>0.439</ele>
        <time>2019-06-15T10:48:50Z</time>
      </trkpt>
      <trkpt lat="39.095675" lon="-0.233377">
        <ele>0.552</ele>
        <time>2019-06-15T10:48:51Z</time>
      </trkpt>
      <trkpt lat="39.095618" lon="-0.233357">
        <ele>0.764</ele>
        <time>2019-06-15T10:48:52Z</time>
      </trkpt>
      <trkpt lat="39.095565" lon="-0.233332">
        <ele>1.061</ele>
        <time>2019-06-15T10:48:53Z</time>
      </trkpt>
      <trkpt lat="39.095508" lon="-0.233315">
        <ele>1.130</ele>
        <time>2019-06-15T10:48:54Z</time>
      </trkpt>
      <trkpt lat="39.095451" lon="-0.233298">
        <ele>1.235</ele>
        <time>2019-06-15T10:48:55Z</time>
      </trkpt>
      <trkpt lat="39.095384" lon="-0.233274">
        <ele>1.478</ele>
        <time>2019-06-15T10:48:56Z</time>
      </trkpt>
      <trkpt lat="39.095339" lon="-0.233251">
        <ele>1.533</ele>
        <time>2019-06-15T10:48:57Z</time>
      </trkpt>
      <trkpt lat="39.095281" lon="-0.233230">
        <ele>1.626</ele>
        <time>2019-06-15T10:48:58Z</time>
      </trkpt>
      <trkpt lat="39.095231" lon="-0.233201">
        <ele>1.708</ele>
        <time>2019-06-15T10:48:59Z</time>
      </trkpt>
      <trkpt lat="39.095195" lon="-0.233155">
        <ele>1.730</ele>
        <time>2019-06-15T10:49:00Z</time>
      </trkpt>
      <trkpt lat="39.095140" lon="-0.233139">
        <ele>1.854</ele>
        <time>2019-06-15T10:49:01Z</time>
      </trkpt>
      <trkpt lat="39.095049" lon="-0.233102">
        <ele>2.023</ele>
        <time>2019-06-15T10:49:03Z</time>
      </trkpt>
      <trkpt lat="39.094999" lon="-0.233067">
        <ele>2.016</ele>
        <time>2019-06-15T10:49:04Z</time>
      </trkpt>
      <trkpt lat="39.094962" lon="-0.233020">
        <ele>1.998</ele>
        <time>2019-06-15T10:49:05Z</time>
      </trkpt>
      <trkpt lat="39.094901" lon="-0.232992">
        <ele>1.985</ele>
        <time>2019-06-15T10:49:06Z</time>
      </trkpt>
      <trkpt lat="39.094838" lon="-0.232974">
        <ele>1.944</ele>
        <time>2019-06-15T10:49:07Z</time>
      </trkpt>
      <trkpt lat="39.094772" lon="-0.232949">
        <ele>1.949</ele>
        <time>2019-06-15T10:49:08Z</time>
      </trkpt>
      <trkpt lat="39.094723" lon="-0.232924">
        <ele>2.071</ele>
        <time>2019-06-15T10:49:09Z</time>
      </trkpt>
      <trkpt lat="39.094654" lon="-0.232931">
        <ele>2.041</ele>
        <time>2019-06-15T10:49:10Z</time>
      </trkpt>
      <trkpt lat="39.094602" lon="-0.232910">
        <ele>2.015</ele>
        <time>2019-06-15T10:49:11Z</time>
      </trkpt>
      <trkpt lat="39.094546" lon="-0.232857">
        <ele>2.008</ele>
        <time>2019-06-15T10:49:12Z</time>
      </trkpt>
      <trkpt lat="39.094469" lon="-0.232830">
        <ele>2.030</ele>
        <time>2019-06-15T10:49:13Z</time>
      </trkpt>
      <trkpt lat="39.094402" lon="-0.232832">
        <ele>1.974</ele>
        <time>2019-06-15T10:49:14Z</time>
      </trkpt>
      <trkpt lat="39.094361" lon="-0.232795">
        <ele>1.723</ele>
        <time>2019-06-15T10:49:15Z</time>
      </trkpt>
      <trkpt lat="39.094308" lon="-0.232738">
        <ele>1.596</ele>
        <time>2019-06-15T10:49:16Z</time>
      </trkpt>
      <trkpt lat="39.094260" lon="-0.232698">
        <ele>1.378</ele>
        <time>2019-06-15T10:49:17Z</time>
      </trkpt>
      <trkpt lat="39.094202" lon="-0.232678">
        <ele>1.195</ele>
        <time>2019-06-15T10:49:18Z</time>
      </trkpt>
      <trkpt lat="39.094149" lon="-0.232650">
        <ele>1.064</ele>
        <time>2019-06-15T10:49:19Z</time>
      </trkpt>
      <trkpt lat="39.094087" lon="-0.232616">
        <ele>1.149</ele>
        <time>2019-06-15T10:49:20Z</time>
      </trkpt>
      <trkpt lat="39.094033" lon="-0.232587">
        <ele>1.267</ele>
        <time>2019-06-15T10:49:21Z</time>
      </trkpt>
      <trkpt lat="39.093986" lon="-0.232551">
        <ele>1.181</ele>
        <time>2019-06-15T10:49:22Z</time>
      </trkpt>
      <trkpt lat="39.093939" lon="-0.232528">
        <ele>1.119</ele>
        <time>2019-06-15T10:49:23Z</time>
      </trkpt>
      <trkpt lat="39.093885" lon="-0.232501">
        <ele>1.008</ele>
        <time>2019-06-15T10:49:24Z</time>
      </trkpt>
      <trkpt lat="39.093824" lon="-0.232467">
        <ele>1.269</ele>
        <time>2019-06-15T10:49:25Z</time>
      </trkpt>
      <trkpt lat="39.093769" lon="-0.232430">
        <ele>1.453</ele>
        <time>2019-06-15T10:49:26Z</time>
      </trkpt>
      <trkpt lat="39.093714" lon="-0.232391">
        <ele>1.622</ele>
        <time>2019-06-15T10:49:27Z</time>
      </trkpt>
      <trkpt lat="39.093662" lon="-0.232359">
        <ele>1.815</ele>
        <time>2019-06-15T10:49:28Z</time>
      </trkpt>
      <trkpt lat="39.093610" lon="-0.232328">
        <ele>2.057</ele>
        <time>2019-06-15T10:49:29Z</time>
      </trkpt>
      <trkpt lat="39.093555" lon="-0.232292">
        <ele>2.034</ele>
        <time>2019-06-15T10:49:30Z</time>
      </trkpt>
      <trkpt lat="39.093490" lon="-0.232262">
        <ele>2.033</ele>
        <time>2019-06-15T10:49:31Z</time>
      </trkpt>
      <trkpt lat="39.093442" lon="-0.232235">
        <ele>2.088</ele>
        <time>2019-06-15T10:49:32Z</time>
      </trkpt>
      <trkpt lat="39.093382" lon="-0.232204">
        <ele>2.081</ele>
        <time>2019-06-15T10:49:33Z</time>
      </trkpt>
      <trkpt lat="39.093325" lon="-0.232168">
        <ele>2.061</ele>
        <time>2019-06-15T10:49:34Z</time>
      </trkpt>
      <trkpt lat="39.093268" lon="-0.232129">
        <ele>1.817</ele>
        <time>2019-06-15T10:49:35Z</time>
      </trkpt>
      <trkpt lat="39.093194" lon="-0.232112">
        <ele>1.708</ele>
        <time>2019-06-15T10:49:36Z</time>
      </trkpt>
      <trkpt lat="39.093138" lon="-0.232083">
        <ele>1.661</ele>
        <time>2019-06-15T10:49:37Z</time>
      </trkpt>
      <trkpt lat="39.093086" lon="-0.232069">
        <ele>1.685</ele>
        <time>2019-06-15T10:49:38Z</time>
      </trkpt>
      <trkpt lat="39.093035" lon="-0.232035">
        <ele>1.594</ele>
        <time>2019-06-15T10:49:39Z</time>
      </trkpt>
      <trkpt lat="39.092972" lon="-0.232011">
        <ele>1.227</ele>
        <time>2019-06-15T10:49:40Z</time>
      </trkpt>
      <trkpt lat="39.092914" lon="-0.231984">
        <ele>0.819</ele>
        <time>2019-06-15T10:49:41Z</time>
      </trkpt>
      <trkpt lat="39.092853" lon="-0.231950">
        <ele>0.556</ele>
        <time>2019-06-15T10:49:42Z</time>
      </trkpt>
      <trkpt lat="39.092794" lon="-0.231918">
        <ele>0.145</ele>
        <time>2019-06-15T10:49:43Z</time>
      </trkpt>
      <trkpt lat="39.092734" lon="-0.231887">
        <ele>-0.260</ele>
        <time>2019-06-15T10:49:44Z</time>
      </trkpt>
      <trkpt lat="39.092668" lon="-0.231858">
        <ele>-0.462</ele>
        <time>2019-06-15T10:49:45Z</time>
      </trkpt>
      <trkpt lat="39.092617" lon="-0.231823">
        <ele>-0.683</ele>
        <time>2019-06-15T10:49:46Z</time>
      </trkpt>
      <trkpt lat="39.092564" lon="-0.231799">
        <ele>-0.811</ele>
        <time>2019-06-15T10:49:47Z</time>
      </trkpt>
      <trkpt lat="39.092508" lon="-0.231769">
        <ele>-1.008</ele>
        <time>2019-06-15T10:49:48Z</time>
      </trkpt>
      <trkpt lat="39.092451" lon="-0.231732">
        <ele>-0.729</ele>
        <time>2019-06-15T10:49:49Z</time>
      </trkpt>
      <trkpt lat="39.092400" lon="-0.231705">
        <ele>-0.353</ele>
        <time>2019-06-15T10:49:50Z</time>
      </trkpt>
      <trkpt lat="39.092343" lon="-0.231666">
        <ele>0.112</ele>
        <time>2019-06-15T10:49:51Z</time>
      </trkpt>
      <trkpt lat="39.092261" lon="-0.231650">
        <ele>0.795</ele>
        <time>2019-06-15T10:49:52Z</time>
      </trkpt>
      <trkpt lat="39.092209" lon="-0.231607">
        <ele>1.077</ele>
        <time>2019-06-15T10:49:53Z</time>
      </trkpt>
      <trkpt lat="39.092153" lon="-0.231574">
        <ele>1.214</ele>
        <time>2019-06-15T10:49:54Z</time>
      </trkpt>
      <trkpt lat="39.092087" lon="-0.231545">
        <ele>1.563</ele>
        <time>2019-06-15T10:49:55Z</time>
      </trkpt>
      <trkpt lat="39.092037" lon="-0.231521">
        <ele>1.798</ele>
        <time>2019-06-15T10:49:56Z</time>
      </trkpt>
      <trkpt lat="39.091983" lon="-0.231484">
        <ele>1.941</ele>
        <time>2019-06-15T10:49:57Z</time>
      </trkpt>
      <trkpt lat="39.091933" lon="-0.231435">
        <ele>2.081</ele>
        <time>2019-06-15T10:49:58Z</time>
      </trkpt>
      <trkpt lat="39.091873" lon="-0.231398">
        <ele>1.809</ele>
        <time>2019-06-15T10:49:59Z</time>
      </trkpt>
      <trkpt lat="39.091813" lon="-0.231364">
        <ele>1.508</ele>
        <time>2019-06-15T10:50:00Z</time>
      </trkpt>
      <trkpt lat="39.091751" lon="-0.231330">
        <ele>1.337</ele>
        <time>2019-06-15T10:50:01Z</time>
      </trkpt>
      <trkpt lat="39.091695" lon="-0.231295">
        <ele>1.111</ele>
        <time>2019-06-15T10:50:02Z</time>
      </trkpt>
      <trkpt lat="39.091631" lon="-0.231267">
        <ele>0.930</ele>
        <time>2019-06-15T10:50:03Z</time>
      </trkpt>
      <trkpt lat="39.091577" lon="-0.231233">
        <ele>0.763</ele>
        <time>2019-06-15T10:50:04Z</time>
      </trkpt>
      <trkpt lat="39.091522" lon="-0.231197">
        <ele>0.565</ele>
        <time>2019-06-15T10:50:05Z</time>
      </trkpt>
      <trkpt lat="39.091463" lon="-0.231163">
        <ele>0.382</ele>
        <time>2019-06-15T10:50:06Z</time>
      </trkpt>
      <trkpt lat="39.091407" lon="-0.231131">
        <ele>0.111</ele>
        <time>2019-06-15T10:50:07Z</time>
      </trkpt>
      <trkpt lat="39.091354" lon="-0.231099">
        <ele>0.256</ele>
        <time>2019-06-15T10:50:08Z</time>
      </trkpt>
      <trkpt lat="39.091292" lon="-0.231064">
        <ele>0.547</ele>
        <time>2019-06-15T10:50:09Z</time>
      </trkpt>
      <trkpt lat="39.091237" lon="-0.231029">
        <ele>0.829</ele>
        <time>2019-06-15T10:50:10Z</time>
      </trkpt>
      <trkpt lat="39.091181" lon="-0.230995">
        <ele>1.221</ele>
        <time>2019-06-15T10:50:11Z</time>
      </trkpt>
      <trkpt lat="39.091124" lon="-0.230961">
        <ele>1.508</ele>
        <time>2019-06-15T10:50:12Z</time>
      </trkpt>
      <trkpt lat="39.091068" lon="-0.230927">
        <ele>1.937</ele>
        <time>2019-06-15T10:50:13Z</time>
      </trkpt>
      <trkpt lat="39.091010" lon="-0.230899">
        <ele>2.291</ele>
        <time>2019-06-15T10:50:14Z</time>
      </trkpt>
      <trkpt lat="39.090954" lon="-0.230870">
        <ele>2.590</ele>
        <time>2019-06-15T10:50:15Z</time>
      </trkpt>
      <trkpt lat="39.090900" lon="-0.230835">
        <ele>2.873</ele>
        <time>2019-06-15T10:50:16Z</time>
      </trkpt>
      <trkpt lat="39.090844" lon="-0.230794">
        <ele>3.195</ele>
        <time>2019-06-15T10:50:17Z</time>
      </trkpt>
      <trkpt lat="39.090789" lon="-0.230753">
        <ele>3.112</ele>
        <time>2019-06-15T10:50:18Z</time>
      </trkpt>
      <trkpt lat="39.090732" lon="-0.230722">
        <ele>2.941</ele>
        <time>2019-06-15T10:50:19Z</time>
      </trkpt>
      <trkpt lat="39.090675" lon="-0.230687">
        <ele>2.736</ele>
        <time>2019-06-15T10:50:20Z</time>
      </trkpt>
      <trkpt lat="39.090626" lon="-0.230661">
        <ele>2.496</ele>
        <time>2019-06-15T10:50:21Z</time>
      </trkpt>
      <trkpt lat="39.090567" lon="-0.230621">
        <ele>2.131</ele>
        <time>2019-06-15T10:50:22Z</time>
      </trkpt>
      <trkpt lat="39.090492" lon="-0.230605">
        <ele>1.824</ele>
        <time>2019-06-15T10:50:23Z</time>
      </trkpt>
      <trkpt lat="39.090439" lon="-0.230565">
        <ele>1.608</ele>
        <time>2019-06-15T10:50:24Z</time>
      </trkpt>
      <trkpt lat="39.090381" lon="-0.230530">
        <ele>1.312</ele>
        <time>2019-06-15T10:50:25Z</time>
      </trkpt>
      <trkpt lat="39.090321" lon="-0.230494">
        <ele>1.096</ele>
        <time>2019-06-15T10:50:26Z</time>
      </trkpt>
      <trkpt lat="39.090266" lon="-0.230455">
        <ele>0.715</ele>
        <time>2019-06-15T10:50:27Z</time>
      </trkpt>
      <trkpt lat="39.090220" lon="-0.230409">
        <ele>0.828</ele>
        <time>2019-06-15T10:50:28Z</time>
      </trkpt>
      <trkpt lat="39.090161" lon="-0.230369">
        <ele>1.030</ele>
        <time>2019-06-15T10:50:29Z</time>
      </trkpt>
      <trkpt lat="39.090085" lon="-0.230344">
        <ele>1.587</ele>
        <time>2019-06-15T10:50:30Z</time>
      </trkpt>
      <trkpt lat="39.090028" lon="-0.230312">
        <ele>1.846</ele>
        <time>2019-06-15T10:50:31Z</time>
      </trkpt>
      <trkpt lat="39.089974" lon="-0.230271">
        <ele>2.081</ele>
        <time>2019-06-15T10:50:32Z</time>
      </trkpt>
      <trkpt lat="39.089916" lon="-0.230232">
        <ele>1.963</ele>
        <time>2019-06-15T10:50:33Z</time>
      </trkpt>
      <trkpt lat="39.089861" lon="-0.230203">
        <ele>1.944</ele>
        <time>2019-06-15T10:50:34Z</time>
      </trkpt>
      <trkpt lat="39.089804" lon="-0.230175">
        <ele>1.918</ele>
        <time>2019-06-15T10:50:35Z</time>
      </trkpt>
      <trkpt lat="39.089742" lon="-0.230144">
        <ele>2.008</ele>
        <time>2019-06-15T10:50:36Z</time>
      </trkpt>
      <trkpt lat="39.089690" lon="-0.230104">
        <ele>1.999</ele>
        <time>2019-06-15T10:50:37Z</time>
      </trkpt>
      <trkpt lat="39.089633" lon="-0.230072">
        <ele>1.793</ele>
        <time>2019-06-15T10:50:38Z</time>
      </trkpt>
      <trkpt lat="39.089572" lon="-0.230033">
        <ele>1.542</ele>
        <time>2019-06-15T10:50:39Z</time>
      </trkpt>
      <trkpt lat="39.089518" lon="-0.229989">
        <ele>1.335</ele>
        <time>2019-06-15T10:50:40Z</time>
      </trkpt>
      <trkpt lat="39.089464" lon="-0.229957">
        <ele>1.477</ele>
        <time>2019-06-15T10:50:41Z</time>
      </trkpt>
      <trkpt lat="39.089404" lon="-0.229912">
        <ele>1.534</ele>
        <time>2019-06-15T10:50:42Z</time>
      </trkpt>
      <trkpt lat="39.089345" lon="-0.229869">
        <ele>1.693</ele>
        <time>2019-06-15T10:50:43Z</time>
      </trkpt>
      <trkpt lat="39.089287" lon="-0.229828">
        <ele>1.718</ele>
        <time>2019-06-15T10:50:44Z</time>
      </trkpt>
      <trkpt lat="39.089229" lon="-0.229794">
        <ele>1.728</ele>
        <time>2019-06-15T10:50:45Z</time>
      </trkpt>
      <trkpt lat="39.089163" lon="-0.229752">
        <ele>1.889</ele>
        <time>2019-06-15T10:50:46Z</time>
      </trkpt>
      <trkpt lat="39.089104" lon="-0.229704">
        <ele>2.117</ele>
        <time>2019-06-15T10:50:47Z</time>
      </trkpt>
      <trkpt lat="39.089050" lon="-0.229661">
        <ele>2.108</ele>
        <time>2019-06-15T10:50:48Z</time>
      </trkpt>
      <trkpt lat="39.088990" lon="-0.229615">
        <ele>2.175</ele>
        <time>2019-06-15T10:50:49Z</time>
      </trkpt>
      <trkpt lat="39.088935" lon="-0.229582">
        <ele>2.169</ele>
        <time>2019-06-15T10:50:50Z</time>
      </trkpt>
      <trkpt lat="39.088882" lon="-0.229539">
        <ele>2.058</ele>
        <time>2019-06-15T10:50:51Z</time>
      </trkpt>
      <trkpt lat="39.088816" lon="-0.229500">
        <ele>2.351</ele>
        <time>2019-06-15T10:50:52Z</time>
      </trkpt>
      <trkpt lat="39.088752" lon="-0.229457">
        <ele>2.533</ele>
        <time>2019-06-15T10:50:53Z</time>
      </trkpt>
      <trkpt lat="39.088692" lon="-0.229407">
        <ele>2.610</ele>
        <time>2019-06-15T10:50:54Z</time>
      </trkpt>
      <trkpt lat="39.088627" lon="-0.229360">
        <ele>2.779</ele>
        <time>2019-06-15T10:50:55Z</time>
      </trkpt>
      <trkpt lat="39.088564" lon="-0.229313">
        <ele>2.544</ele>
        <time>2019-06-15T10:50:56Z</time>
      </trkpt>
      <trkpt lat="39.088503" lon="-0.229271">
        <ele>2.482</ele>
        <time>2019-06-15T10:50:57Z</time>
      </trkpt>
      <trkpt lat="39.088451" lon="-0.229236">
        <ele>2.243</ele>
        <time>2019-06-15T10:50:58Z</time>
      </trkpt>
      <trkpt lat="39.088389" lon="-0.229197">
        <ele>2.117</ele>
        <time>2019-06-15T10:50:59Z</time>
      </trkpt>
      <trkpt lat="39.088342" lon="-0.229157">
        <ele>2.008</ele>
        <time>2019-06-15T10:51:00Z</time>
      </trkpt>
      <trkpt lat="39.088278" lon="-0.229118">
        <ele>2.041</ele>
        <time>2019-06-15T10:51:01Z</time>
      </trkpt>
      <trkpt lat="39.088216" lon="-0.229071">
        <ele>1.945</ele>
        <time>2019-06-15T10:51:02Z</time>
      </trkpt>
      <trkpt lat="39.088167" lon="-0.229024">
        <ele>1.714</ele>
        <time>2019-06-15T10:51:03Z</time>
      </trkpt>
      <trkpt lat="39.088117" lon="-0.228975">
        <ele>1.547</ele>
        <time>2019-06-15T10:51:04Z</time>
      </trkpt>
      <trkpt lat="39.088055" lon="-0.228946">
        <ele>1.239</ele>
        <time>2019-06-15T10:51:05Z</time>
      </trkpt>
      <trkpt lat="39.087995" lon="-0.228908">
        <ele>1.186</ele>
        <time>2019-06-15T10:51:06Z</time>
      </trkpt>
      <trkpt lat="39.087931" lon="-0.228865">
        <ele>1.185</ele>
        <time>2019-06-15T10:51:07Z</time>
      </trkpt>
      <trkpt lat="39.087870" lon="-0.228834">
        <ele>1.290</ele>
        <time>2019-06-15T10:51:08Z</time>
      </trkpt>
      <trkpt lat="39.087812" lon="-0.228797">
        <ele>1.392</ele>
        <time>2019-06-15T10:51:09Z</time>
      </trkpt>
      <trkpt lat="39.087753" lon="-0.228766">
        <ele>1.573</ele>
        <time>2019-06-15T10:51:10Z</time>
      </trkpt>
      <trkpt lat="39.087697" lon="-0.228726">
        <ele>1.720</ele>
        <time>2019-06-15T10:51:11Z</time>
      </trkpt>
      <trkpt lat="39.087627" lon="-0.228696">
        <ele>1.908</ele>
        <time>2019-06-15T10:51:12Z</time>
      </trkpt>
      <trkpt lat="39.087571" lon="-0.228666">
        <ele>1.922</ele>
        <time>2019-06-15T10:51:13Z</time>
      </trkpt>
      <trkpt lat="39.087518" lon="-0.228632">
        <ele>2.026</ele>
        <time>2019-06-15T10:51:14Z</time>
      </trkpt>
      <trkpt lat="39.087458" lon="-0.228603">
        <ele>2.075</ele>
        <time>2019-06-15T10:51:15Z</time>
      </trkpt>
      <trkpt lat="39.087398" lon="-0.228576">
        <ele>2.028</ele>
        <time>2019-06-15T10:51:16Z</time>
      </trkpt>
      <trkpt lat="39.087343" lon="-0.228541">
        <ele>2.070</ele>
        <time>2019-06-15T10:51:17Z</time>
      </trkpt>
      <trkpt lat="39.087285" lon="-0.228515">
        <ele>2.017</ele>
        <time>2019-06-15T10:51:18Z</time>
      </trkpt>
      <trkpt lat="39.087218" lon="-0.228481">
        <ele>2.046</ele>
        <time>2019-06-15T10:51:19Z</time>
      </trkpt>
      <trkpt lat="39.087163" lon="-0.228453">
        <ele>2.021</ele>
        <time>2019-06-15T10:51:20Z</time>
      </trkpt>
      <trkpt lat="39.087102" lon="-0.228421">
        <ele>2.073</ele>
        <time>2019-06-15T10:51:21Z</time>
      </trkpt>
      <trkpt lat="39.087029" lon="-0.228390">
        <ele>2.085</ele>
        <time>2019-06-15T10:51:22Z</time>
      </trkpt>
      <trkpt lat="39.086957" lon="-0.228355">
        <ele>2.013</ele>
        <time>2019-06-15T10:51:23Z</time>
      </trkpt>
      <trkpt lat="39.086888" lon="-0.228323">
        <ele>2.208</ele>
        <time>2019-06-15T10:51:24Z</time>
      </trkpt>
      <trkpt lat="39.086823" lon="-0.228277">
        <ele>2.490</ele>
        <time>2019-06-15T10:51:25Z</time>
      </trkpt>
      <trkpt lat="39.086760" lon="-0.228237">
        <ele>2.794</ele>
        <time>2019-06-15T10:51:26Z</time>
      </trkpt>
      <trkpt lat="39.086697" lon="-0.228204">
        <ele>2.923</ele>
        <time>2019-06-15T10:51:27Z</time>
      </trkpt>
      <trkpt lat="39.086641" lon="-0.228170">
        <ele>3.066</ele>
        <time>2019-06-15T10:51:28Z</time>
      </trkpt>
      <trkpt lat="39.086573" lon="-0.228131">
        <ele>3.158</ele>
        <time>2019-06-15T10:51:29Z</time>
      </trkpt>
      <trkpt lat="39.086513" lon="-0.228099">
        <ele>3.125</ele>
        <time>2019-06-15T10:51:30Z</time>
      </trkpt>
      <trkpt lat="39.086454" lon="-0.228062">
        <ele>3.064</ele>
        <time>2019-06-15T10:51:31Z</time>
      </trkpt>
      <trkpt lat="39.086389" lon="-0.228022">
        <ele>3.039</ele>
        <time>2019-06-15T10:51:32Z</time>
      </trkpt>
      <trkpt lat="39.086309" lon="-0.227980">
        <ele>3.258</ele>
        <time>2019-06-15T10:51:33Z</time>
      </trkpt>
      <trkpt lat="39.086242" lon="-0.227947">
        <ele>3.352</ele>
        <time>2019-06-15T10:51:34Z</time>
      </trkpt>
      <trkpt lat="39.086180" lon="-0.227905">
        <ele>3.317</ele>
        <time>2019-06-15T10:51:35Z</time>
      </trkpt>
      <trkpt lat="39.086121" lon="-0.227882">
        <ele>3.408</ele>
        <time>2019-06-15T10:51:36Z</time>
      </trkpt>
      <trkpt lat="39.086054" lon="-0.227839">
        <ele>3.368</ele>
        <time>2019-06-15T10:51:37Z</time>
      </trkpt>
      <trkpt lat="39.085977" lon="-0.227809">
        <ele>3.552</ele>
        <time>2019-06-15T10:51:38Z</time>
      </trkpt>
      <trkpt lat="39.085920" lon="-0.227769">
        <ele>3.791</ele>
        <time>2019-06-15T10:51:39Z</time>
      </trkpt>
      <trkpt lat="39.085858" lon="-0.227731">
        <ele>3.944</ele>
        <time>2019-06-15T10:51:40Z</time>
      </trkpt>
      <trkpt lat="39.085800" lon="-0.227685">
        <ele>4.026</ele>
        <time>2019-06-15T10:51:41Z</time>
      </trkpt>
      <trkpt lat="39.085739" lon="-0.227643">
        <ele>4.073</ele>
        <time>2019-06-15T10:51:42Z</time>
      </trkpt>
      <trkpt lat="39.085674" lon="-0.227616">
        <ele>4.082</ele>
        <time>2019-06-15T10:51:43Z</time>
      </trkpt>
      <trkpt lat="39.085606" lon="-0.227594">
        <ele>4.087</ele>
        <time>2019-06-15T10:51:44Z</time>
      </trkpt>
      <trkpt lat="39.085534" lon="-0.227559">
        <ele>3.921</ele>
        <time>2019-06-15T10:51:45Z</time>
      </trkpt>
      <trkpt lat="39.085469" lon="-0.227511">
        <ele>3.741</ele>
        <time>2019-06-15T10:51:46Z</time>
      </trkpt>
      <trkpt lat="39.085404" lon="-0.227475">
        <ele>3.405</ele>
        <time>2019-06-15T10:51:47Z</time>
      </trkpt>
      <trkpt lat="39.085353" lon="-0.227431">
        <ele>3.008</ele>
        <time>2019-06-15T10:51:48Z</time>
      </trkpt>
      <trkpt lat="39.085294" lon="-0.227392">
        <ele>2.775</ele>
        <time>2019-06-15T10:51:49Z</time>
      </trkpt>
      <trkpt lat="39.085231" lon="-0.227364">
        <ele>2.349</ele>
        <time>2019-06-15T10:51:50Z</time>
      </trkpt>
      <trkpt lat="39.085173" lon="-0.227331">
        <ele>1.938</ele>
        <time>2019-06-15T10:51:51Z</time>
      </trkpt>
      <trkpt lat="39.085117" lon="-0.227287">
        <ele>1.531</ele>
        <time>2019-06-15T10:51:52Z</time>
      </trkpt>
      <trkpt lat="39.085080" lon="-0.227247">
        <ele>1.343</ele>
        <time>2019-06-15T10:51:53Z</time>
      </trkpt>
      <trkpt lat="39.085022" lon="-0.227214">
        <ele>1.120</ele>
        <time>2019-06-15T10:51:54Z</time>
      </trkpt>
      <trkpt lat="39.084975" lon="-0.227183">
        <ele>1.099</ele>
        <time>2019-06-15T10:51:55Z</time>
      </trkpt>
      <trkpt lat="39.084924" lon="-0.227148">
        <ele>1.154</ele>
        <time>2019-06-15T10:51:56Z</time>
      </trkpt>
      <trkpt lat="39.084878" lon="-0.227114">
        <ele>1.225</ele>
        <time>2019-06-15T10:51:57Z</time>
      </trkpt>
      <trkpt lat="39.084833" lon="-0.227071">
        <ele>1.326</ele>
        <time>2019-06-15T10:51:58Z</time>
      </trkpt>
      <trkpt lat="39.084773" lon="-0.227045">
        <ele>1.508</ele>
        <time>2019-06-15T10:51:59Z</time>
      </trkpt>
      <trkpt lat="39.084706" lon="-0.227032">
        <ele>1.708</ele>
        <time>2019-06-15T10:52:00Z</time>
      </trkpt>
      <trkpt lat="39.084653" lon="-0.227003">
        <ele>1.855</ele>
        <time>2019-06-15T10:52:01Z</time>
      </trkpt>
      <trkpt lat="39.084594" lon="-0.226974">
        <ele>1.989</ele>
        <time>2019-06-15T10:52:02Z</time>
      </trkpt>
      <trkpt lat="39.084541" lon="-0.226951">
        <ele>2.088</ele>
        <time>2019-06-15T10:52:03Z</time>
      </trkpt>
      <trkpt lat="39.084496" lon="-0.226933">
        <ele>2.041</ele>
        <time>2019-06-15T10:52:04Z</time>
      </trkpt>
      <trkpt lat="39.084444" lon="-0.226924">
        <ele>2.113</ele>
        <time>2019-06-15T10:52:05Z</time>
      </trkpt>
      <trkpt lat="39.084361" lon="-0.226925">
        <ele>1.810</ele>
        <time>2019-06-15T10:52:07Z</time>
      </trkpt>
      <trkpt lat="39.084304" lon="-0.226940">
        <ele>1.519</ele>
        <time>2019-06-15T10:52:08Z</time>
      </trkpt>
      <trkpt lat="39.084262" lon="-0.226961">
        <ele>1.334</ele>
        <time>2019-06-15T10:52:09Z</time>
      </trkpt>
      <trkpt lat="39.084208" lon="-0.226954">
        <ele>1.122</ele>
        <time>2019-06-15T10:52:10Z</time>
      </trkpt>
      <trkpt lat="39.084158" lon="-0.226936">
        <ele>1.162</ele>
        <time>2019-06-15T10:52:11Z</time>
      </trkpt>
      <trkpt lat="39.084108" lon="-0.226906">
        <ele>1.508</ele>
        <time>2019-06-15T10:52:12Z</time>
      </trkpt>
      <trkpt lat="39.084069" lon="-0.226863">
        <ele>1.808</ele>
        <time>2019-06-15T10:52:13Z</time>
      </trkpt>
      <trkpt lat="39.084035" lon="-0.226808">
        <ele>2.255</ele>
        <time>2019-06-15T10:52:14Z</time>
      </trkpt>
      <trkpt lat="39.084011" lon="-0.226746">
        <ele>2.639</ele>
        <time>2019-06-15T10:52:15Z</time>
      </trkpt>
      <trkpt lat="39.083989" lon="-0.226679">
        <ele>2.988</ele>
        <time>2019-06-15T10:52:16Z</time>
      </trkpt>
      <trkpt lat="39.083967" lon="-0.226614">
        <ele>3.131</ele>
        <time>2019-06-15T10:52:17Z</time>
      </trkpt>
      <trkpt lat="39.083938" lon="-0.226556">
        <ele>3.143</ele>
        <time>2019-06-15T10:52:18Z</time>
      </trkpt>
      <trkpt lat="39.083904" lon="-0.226505">
        <ele>3.010</ele>
        <time>2019-06-15T10:52:19Z</time>
      </trkpt>
      <trkpt lat="39.083851" lon="-0.226453">
        <ele>3.049</ele>
        <time>2019-06-15T10:52:21Z</time>
      </trkpt>
      <trkpt lat="39.083808" lon="-0.226433">
        <ele>3.024</ele>
        <time>2019-06-15T10:52:30Z</time>
      </trkpt>
      <trkpt lat="39.083767" lon="-0.226397">
        <ele>3.019</ele>
        <time>2019-06-15T10:52:43Z</time>
      </trkpt>
      <trkpt lat="39.083772" lon="-0.226459">
        <ele>3.009</ele>
        <time>2019-06-15T10:52:57Z</time>
      </trkpt>
      <trkpt lat="39.083793" lon="-0.226390">
        <ele>3.019</ele>
        <time>2019-06-15T10:53:17Z</time>
      </trkpt>
      <trkpt lat="39.083718" lon="-0.226317">
        <ele>3.008</ele>
        <time>2019-06-15T10:53:19Z</time>
      </trkpt>
      <trkpt lat="39.083676" lon="-0.226281">
        <ele>3.074</ele>
        <time>2019-06-15T10:53:20Z</time>
      </trkpt>
      <trkpt lat="39.083631" lon="-0.226244">
        <ele>3.088</ele>
        <time>2019-06-15T10:53:21Z</time>
      </trkpt>
      <trkpt lat="39.083548" lon="-0.226180">
        <ele>2.847</ele>
        <time>2019-06-15T10:53:22Z</time>
      </trkpt>
      <trkpt lat="39.083499" lon="-0.226129">
        <ele>2.670</ele>
        <time>2019-06-15T10:53:23Z</time>
      </trkpt>
      <trkpt lat="39.083444" lon="-0.226083">
        <ele>2.422</ele>
        <time>2019-06-15T10:53:24Z</time>
      </trkpt>
      <trkpt lat="39.083393" lon="-0.226049">
        <ele>2.239</ele>
        <time>2019-06-15T10:53:25Z</time>
      </trkpt>
      <trkpt lat="39.083352" lon="-0.226000">
        <ele>2.098</ele>
        <time>2019-06-15T10:53:26Z</time>
      </trkpt>
      <trkpt lat="39.083308" lon="-0.225960">
        <ele>2.143</ele>
        <time>2019-06-15T10:53:27Z</time>
      </trkpt>
      <trkpt lat="39.083252" lon="-0.225917">
        <ele>2.386</ele>
        <time>2019-06-15T10:53:28Z</time>
      </trkpt>
      <trkpt lat="39.083200" lon="-0.225875">
        <ele>2.560</ele>
        <time>2019-06-15T10:53:29Z</time>
      </trkpt>
      <trkpt lat="39.083137" lon="-0.225826">
        <ele>2.726</ele>
        <time>2019-06-15T10:53:30Z</time>
      </trkpt>
      <trkpt lat="39.083085" lon="-0.225786">
        <ele>2.908</ele>
        <time>2019-06-15T10:53:31Z</time>
      </trkpt>
      <trkpt lat="39.083029" lon="-0.225748">
        <ele>3.061</ele>
        <time>2019-06-15T10:53:32Z</time>
      </trkpt>
      <trkpt lat="39.082967" lon="-0.225726">
        <ele>2.915</ele>
        <time>2019-06-15T10:53:33Z</time>
      </trkpt>
      <trkpt lat="39.082912" lon="-0.225690">
        <ele>2.784</ele>
        <time>2019-06-15T10:53:34Z</time>
      </trkpt>
      <trkpt lat="39.082856" lon="-0.225653">
        <ele>2.547</ele>
        <time>2019-06-15T10:53:35Z</time>
      </trkpt>
      <trkpt lat="39.082788" lon="-0.225618">
        <ele>2.389</ele>
        <time>2019-06-15T10:53:36Z</time>
      </trkpt>
      <trkpt lat="39.082732" lon="-0.225581">
        <ele>1.946</ele>
        <time>2019-06-15T10:53:37Z</time>
      </trkpt>
      <trkpt lat="39.082675" lon="-0.225538">
        <ele>1.745</ele>
        <time>2019-06-15T10:53:38Z</time>
      </trkpt>
      <trkpt lat="39.082617" lon="-0.225503">
        <ele>1.580</ele>
        <time>2019-06-15T10:53:39Z</time>
      </trkpt>
      <trkpt lat="39.082560" lon="-0.225466">
        <ele>1.329</ele>
        <time>2019-06-15T10:53:40Z</time>
      </trkpt>
      <trkpt lat="39.082506" lon="-0.225435">
        <ele>1.000</ele>
        <time>2019-06-15T10:53:41Z</time>
      </trkpt>
      <trkpt lat="39.082453" lon="-0.225396">
        <ele>0.920</ele>
        <time>2019-06-15T10:53:42Z</time>
      </trkpt>
      <trkpt lat="39.082404" lon="-0.225365">
        <ele>0.808</ele>
        <time>2019-06-15T10:53:43Z</time>
      </trkpt>
      <trkpt lat="39.082338" lon="-0.225330">
        <ele>0.565</ele>
        <time>2019-06-15T10:53:44Z</time>
      </trkpt>
      <trkpt lat="39.082281" lon="-0.225304">
        <ele>0.389</ele>
        <time>2019-06-15T10:53:45Z</time>
      </trkpt>
      <trkpt lat="39.082201" lon="-0.225244">
        <ele>0.388</ele>
        <time>2019-06-15T10:53:47Z</time>
      </trkpt>
      <trkpt lat="39.082148" lon="-0.225209">
        <ele>0.731</ele>
        <time>2019-06-15T10:53:48Z</time>
      </trkpt>
      <trkpt lat="39.082072" lon="-0.225178">
        <ele>1.243</ele>
        <time>2019-06-15T10:53:49Z</time>
      </trkpt>
      <trkpt lat="39.082014" lon="-0.225142">
        <ele>1.620</ele>
        <time>2019-06-15T10:53:50Z</time>
      </trkpt>
      <trkpt lat="39.081955" lon="-0.225093">
        <ele>1.979</ele>
        <time>2019-06-15T10:53:51Z</time>
      </trkpt>
      <trkpt lat="39.081900" lon="-0.225061">
        <ele>2.184</ele>
        <time>2019-06-15T10:53:52Z</time>
      </trkpt>
      <trkpt lat="39.081827" lon="-0.225035">
        <ele>2.467</ele>
        <time>2019-06-15T10:53:53Z</time>
      </trkpt>
      <trkpt lat="39.081773" lon="-0.224999">
        <ele>2.681</ele>
        <time>2019-06-15T10:53:54Z</time>
      </trkpt>
      <trkpt lat="39.081710" lon="-0.224974">
        <ele>2.919</ele>
        <time>2019-06-15T10:53:55Z</time>
      </trkpt>
      <trkpt lat="39.081655" lon="-0.224947">
        <ele>3.208</ele>
        <time>2019-06-15T10:53:56Z</time>
      </trkpt>
      <trkpt lat="39.081600" lon="-0.224925">
        <ele>3.329</ele>
        <time>2019-06-15T10:53:57Z</time>
      </trkpt>
      <trkpt lat="39.081528" lon="-0.224906">
        <ele>3.373</ele>
        <time>2019-06-15T10:53:58Z</time>
      </trkpt>
      <trkpt lat="39.081471" lon="-0.224889">
        <ele>3.462</ele>
        <time>2019-06-15T10:53:59Z</time>
      </trkpt>
      <trkpt lat="39.081411" lon="-0.224874">
        <ele>3.515</ele>
        <time>2019-06-15T10:54:00Z</time>
      </trkpt>
      <trkpt lat="39.081349" lon="-0.224847">
        <ele>3.357</ele>
        <time>2019-06-15T10:54:01Z</time>
      </trkpt>
      <trkpt lat="39.081288" lon="-0.224828">
        <ele>2.964</ele>
        <time>2019-06-15T10:54:02Z</time>
      </trkpt>
      <trkpt lat="39.081239" lon="-0.224805">
        <ele>2.633</ele>
        <time>2019-06-15T10:54:03Z</time>
      </trkpt>
      <trkpt lat="39.081166" lon="-0.224793">
        <ele>2.148</ele>
        <time>2019-06-15T10:54:04Z</time>
      </trkpt>
      <trkpt lat="39.081113" lon="-0.224763">
        <ele>1.946</ele>
        <time>2019-06-15T10:54:05Z</time>
      </trkpt>
      <trkpt lat="39.081062" lon="-0.224749">
        <ele>1.988</ele>
        <time>2019-06-15T10:54:06Z</time>
      </trkpt>
      <trkpt lat="39.081005" lon="-0.224727">
        <ele>2.016</ele>
        <time>2019-06-15T10:54:07Z</time>
      </trkpt>
      <trkpt lat="39.080943" lon="-0.224705">
        <ele>2.008</ele>
        <time>2019-06-15T10:54:08Z</time>
      </trkpt>
      <trkpt lat="39.080893" lon="-0.224688">
        <ele>2.047</ele>
        <time>2019-06-15T10:54:09Z</time>
      </trkpt>
      <trkpt lat="39.080834" lon="-0.224670">
        <ele>2.031</ele>
        <time>2019-06-15T10:54:10Z</time>
      </trkpt>
      <trkpt lat="39.080777" lon="-0.224647">
        <ele>1.950</ele>
        <time>2019-06-15T10:54:11Z</time>
      </trkpt>
      <trkpt lat="39.080722" lon="-0.224633">
        <ele>1.973</ele>
        <time>2019-06-15T10:54:12Z</time>
      </trkpt>
      <trkpt lat="39.080666" lon="-0.224616">
        <ele>1.865</ele>
        <time>2019-06-15T10:54:13Z</time>
      </trkpt>
      <trkpt lat="39.080606" lon="-0.224593">
        <ele>1.652</ele>
        <time>2019-06-15T10:54:14Z</time>
      </trkpt>
      <trkpt lat="39.080561" lon="-0.224562">
        <ele>1.461</ele>
        <time>2019-06-15T10:54:15Z</time>
      </trkpt>
      <trkpt lat="39.080502" lon="-0.224542">
        <ele>1.426</ele>
        <time>2019-06-15T10:54:16Z</time>
      </trkpt>
      <trkpt lat="39.080447" lon="-0.224518">
        <ele>1.433</ele>
        <time>2019-06-15T10:54:17Z</time>
      </trkpt>
      <trkpt lat="39.080360" lon="-0.224510">
        <ele>1.623</ele>
        <time>2019-06-15T10:54:18Z</time>
      </trkpt>
      <trkpt lat="39.080304" lon="-0.224491">
        <ele>1.815</ele>
        <time>2019-06-15T10:54:19Z</time>
      </trkpt>
      <trkpt lat="39.080247" lon="-0.224468">
        <ele>1.908</ele>
        <time>2019-06-15T10:54:20Z</time>
      </trkpt>
      <trkpt lat="39.080190" lon="-0.224440">
        <ele>2.036</ele>
        <time>2019-06-15T10:54:21Z</time>
      </trkpt>
      <trkpt lat="39.080134" lon="-0.224419">
        <ele>2.070</ele>
        <time>2019-06-15T10:54:22Z</time>
      </trkpt>
      <trkpt lat="39.080076" lon="-0.224389">
        <ele>2.039</ele>
        <time>2019-06-15T10:54:23Z</time>
      </trkpt>
      <trkpt lat="39.080018" lon="-0.224358">
        <ele>2.012</ele>
        <time>2019-06-15T10:54:24Z</time>
      </trkpt>
      <trkpt lat="39.079967" lon="-0.224327">
        <ele>2.154</ele>
        <time>2019-06-15T10:54:25Z</time>
      </trkpt>
      <trkpt lat="39.079906" lon="-0.224290">
        <ele>2.171</ele>
        <time>2019-06-15T10:54:26Z</time>
      </trkpt>
      <trkpt lat="39.079830" lon="-0.224270">
        <ele>2.250</ele>
        <time>2019-06-15T10:54:27Z</time>
      </trkpt>
      <trkpt lat="39.079774" lon="-0.224240">
        <ele>2.225</ele>
        <time>2019-06-15T10:54:28Z</time>
      </trkpt>
      <trkpt lat="39.079709" lon="-0.224219">
        <ele>2.263</ele>
        <time>2019-06-15T10:54:29Z</time>
      </trkpt>
      <trkpt lat="39.079653" lon="-0.224185">
        <ele>2.144</ele>
        <time>2019-06-15T10:54:30Z</time>
      </trkpt>
      <trkpt lat="39.079601" lon="-0.224177">
        <ele>2.018</ele>
        <time>2019-06-15T10:54:31Z</time>
      </trkpt>
      <trkpt lat="39.079557" lon="-0.224146">
        <ele>2.008</ele>
        <time>2019-06-15T10:54:32Z</time>
      </trkpt>
      <trkpt lat="39.079516" lon="-0.224114">
        <ele>2.039</ele>
        <time>2019-06-15T10:54:33Z</time>
      </trkpt>
      <trkpt lat="39.079453" lon="-0.224069">
        <ele>2.013</ele>
        <time>2019-06-15T10:54:34Z</time>
      </trkpt>
      <trkpt lat="39.079406" lon="-0.224032">
        <ele>2.092</ele>
        <time>2019-06-15T10:54:35Z</time>
      </trkpt>
      <trkpt lat="39.079364" lon="-0.223983">
        <ele>2.045</ele>
        <time>2019-06-15T10:54:36Z</time>
      </trkpt>
      <trkpt lat="39.079316" lon="-0.223941">
        <ele>2.027</ele>
        <time>2019-06-15T10:54:37Z</time>
      </trkpt>
      <trkpt lat="39.079271" lon="-0.223898">
        <ele>2.014</ele>
        <time>2019-06-15T10:54:38Z</time>
      </trkpt>
      <trkpt lat="39.079225" lon="-0.223848">
        <ele>2.063</ele>
        <time>2019-06-15T10:54:39Z</time>
      </trkpt>
      <trkpt lat="39.079158" lon="-0.223819">
        <ele>2.098</ele>
        <time>2019-06-15T10:54:40Z</time>
      </trkpt>
      <trkpt lat="39.079105" lon="-0.223778">
        <ele>2.169</ele>
        <time>2019-06-15T10:54:41Z</time>
      </trkpt>
      <trkpt lat="39.079047" lon="-0.223772">
        <ele>2.204</ele>
        <time>2019-06-15T10:54:42Z</time>
      </trkpt>
      <trkpt lat="39.078986" lon="-0.223726">
        <ele>2.424</ele>
        <time>2019-06-15T10:54:43Z</time>
      </trkpt>
      <trkpt lat="39.078952" lon="-0.223686">
        <ele>2.608</ele>
        <time>2019-06-15T10:54:44Z</time>
      </trkpt>
      <trkpt lat="39.078859" lon="-0.223637">
        <ele>2.739</ele>
        <time>2019-06-15T10:54:45Z</time>
      </trkpt>
      <trkpt lat="39.078812" lon="-0.223602">
        <ele>2.473</ele>
        <time>2019-06-15T10:54:46Z</time>
      </trkpt>
      <trkpt lat="39.078730" lon="-0.223571">
        <ele>1.982</ele>
        <time>2019-06-15T10:54:47Z</time>
      </trkpt>
      <trkpt lat="39.078656" lon="-0.223541">
        <ele>1.385</ele>
        <time>2019-06-15T10:54:48Z</time>
      </trkpt>
      <trkpt lat="39.078603" lon="-0.223507">
        <ele>1.027</ele>
        <time>2019-06-15T10:54:49Z</time>
      </trkpt>
      <trkpt lat="39.078551" lon="-0.223477">
        <ele>1.064</ele>
        <time>2019-06-15T10:54:50Z</time>
      </trkpt>
      <trkpt lat="39.078493" lon="-0.223445">
        <ele>1.073</ele>
        <time>2019-06-15T10:54:51Z</time>
      </trkpt>
      <trkpt lat="39.078447" lon="-0.223412">
        <ele>1.078</ele>
        <time>2019-06-15T10:54:52Z</time>
      </trkpt>
      <trkpt lat="39.078372" lon="-0.223350">
        <ele>1.085</ele>
        <time>2019-06-15T10:54:54Z</time>
      </trkpt>
      <trkpt lat="39.078323" lon="-0.223335">
        <ele>1.089</ele>
        <time>2019-06-15T10:54:55Z</time>
      </trkpt>
      <trkpt lat="39.078268" lon="-0.223303">
        <ele>1.117</ele>
        <time>2019-06-15T10:54:56Z</time>
      </trkpt>
      <trkpt lat="39.078207" lon="-0.223274">
        <ele>1.108</ele>
        <time>2019-06-15T10:54:57Z</time>
      </trkpt>
      <trkpt lat="39.078147" lon="-0.223238">
        <ele>1.111</ele>
        <time>2019-06-15T10:54:58Z</time>
      </trkpt>
      <trkpt lat="39.078086" lon="-0.223204">
        <ele>1.175</ele>
        <time>2019-06-15T10:54:59Z</time>
      </trkpt>
      <trkpt lat="39.077994" lon="-0.223142">
        <ele>1.134</ele>
        <time>2019-06-15T10:55:01Z</time>
      </trkpt>
      <trkpt lat="39.077949" lon="-0.223116">
        <ele>1.147</ele>
        <time>2019-06-15T10:55:02Z</time>
      </trkpt>
      <trkpt lat="39.077869" lon="-0.223087">
        <ele>1.189</ele>
        <time>2019-06-15T10:55:03Z</time>
      </trkpt>
      <trkpt lat="39.077776" lon="-0.223032">
        <ele>0.926</ele>
        <time>2019-06-15T10:55:05Z</time>
      </trkpt>
      <trkpt lat="39.077715" lon="-0.223002">
        <ele>0.615</ele>
        <time>2019-06-15T10:55:06Z</time>
      </trkpt>
      <trkpt lat="39.077667" lon="-0.222972">
        <ele>0.340</ele>
        <time>2019-06-15T10:55:07Z</time>
      </trkpt>
      <trkpt lat="39.077621" lon="-0.222938">
        <ele>0.097</ele>
        <time>2019-06-15T10:55:08Z</time>
      </trkpt>
      <trkpt lat="39.077563" lon="-0.222912">
        <ele>-0.323</ele>
        <time>2019-06-15T10:55:09Z</time>
      </trkpt>
      <trkpt lat="39.077487" lon="-0.222891">
        <ele>-0.525</ele>
        <time>2019-06-15T10:55:10Z</time>
      </trkpt>
      <trkpt lat="39.077439" lon="-0.222862">
        <ele>-0.308</ele>
        <time>2019-06-15T10:55:11Z</time>
      </trkpt>
      <trkpt lat="39.077392" lon="-0.222835">
        <ele>-0.162</ele>
        <time>2019-06-15T10:55:12Z</time>
      </trkpt>
      <trkpt lat="39.077344" lon="-0.222809">
        <ele>0.216</ele>
        <time>2019-06-15T10:55:13Z</time>
      </trkpt>
      <trkpt lat="39.077284" lon="-0.222778">
        <ele>0.695</ele>
        <time>2019-06-15T10:55:14Z</time>
      </trkpt>
      <trkpt lat="39.077235" lon="-0.222762">
        <ele>0.958</ele>
        <time>2019-06-15T10:55:15Z</time>
      </trkpt>
      <trkpt lat="39.077175" lon="-0.222731">
        <ele>1.360</ele>
        <time>2019-06-15T10:55:16Z</time>
      </trkpt>
      <trkpt lat="39.077119" lon="-0.222706">
        <ele>1.637</ele>
        <time>2019-06-15T10:55:17Z</time>
      </trkpt>
      <trkpt lat="39.077071" lon="-0.222674">
        <ele>1.976</ele>
        <time>2019-06-15T10:55:18Z</time>
      </trkpt>
      <trkpt lat="39.077026" lon="-0.222656">
        <ele>2.141</ele>
        <time>2019-06-15T10:55:19Z</time>
      </trkpt>
      <trkpt lat="39.076972" lon="-0.222628">
        <ele>2.344</ele>
        <time>2019-06-15T10:55:20Z</time>
      </trkpt>
      <trkpt lat="39.076918" lon="-0.222611">
        <ele>2.405</ele>
        <time>2019-06-15T10:55:21Z</time>
      </trkpt>
      <trkpt lat="39.076859" lon="-0.222582">
        <ele>2.215</ele>
        <time>2019-06-15T10:55:22Z</time>
      </trkpt>
      <trkpt lat="39.076820" lon="-0.222547">
        <ele>2.108</ele>
        <time>2019-06-15T10:55:23Z</time>
      </trkpt>
      <trkpt lat="39.076769" lon="-0.222521">
        <ele>2.037</ele>
        <time>2019-06-15T10:55:24Z</time>
      </trkpt>
      <trkpt lat="39.076723" lon="-0.222501">
        <ele>2.021</ele>
        <time>2019-06-15T10:55:25Z</time>
      </trkpt>
      <trkpt lat="39.076648" lon="-0.222484">
        <ele>1.880</ele>
        <time>2019-06-15T10:55:26Z</time>
      </trkpt>
      <trkpt lat="39.076601" lon="-0.222455">
        <ele>1.443</ele>
        <time>2019-06-15T10:55:27Z</time>
      </trkpt>
      <trkpt lat="39.076555" lon="-0.222423">
        <ele>1.115</ele>
        <time>2019-06-15T10:55:28Z</time>
      </trkpt>
      <trkpt lat="39.076495" lon="-0.222402">
        <ele>0.832</ele>
        <time>2019-06-15T10:55:29Z</time>
      </trkpt>
      <trkpt lat="39.076443" lon="-0.222364">
        <ele>0.751</ele>
        <time>2019-06-15T10:55:30Z</time>
      </trkpt>
      <trkpt lat="39.076386" lon="-0.222339">
        <ele>0.636</ele>
        <time>2019-06-15T10:55:31Z</time>
      </trkpt>
      <trkpt lat="39.076330" lon="-0.222310">
        <ele>0.673</ele>
        <time>2019-06-15T10:55:32Z</time>
      </trkpt>
      <trkpt lat="39.076281" lon="-0.222285">
        <ele>0.685</ele>
        <time>2019-06-15T10:55:33Z</time>
      </trkpt>
      <trkpt lat="39.076227" lon="-0.222255">
        <ele>0.413</ele>
        <time>2019-06-15T10:55:34Z</time>
      </trkpt>
      <trkpt lat="39.076171" lon="-0.222224">
        <ele>0.208</ele>
        <time>2019-06-15T10:55:35Z</time>
      </trkpt>
      <trkpt lat="39.076116" lon="-0.222195">
        <ele>0.130</ele>
        <time>2019-06-15T10:55:36Z</time>
      </trkpt>
      <trkpt lat="39.076059" lon="-0.222165">
        <ele>0.224</ele>
        <time>2019-06-15T10:55:37Z</time>
      </trkpt>
      <trkpt lat="39.076007" lon="-0.222132">
        <ele>0.283</ele>
        <time>2019-06-15T10:55:38Z</time>
      </trkpt>
      <trkpt lat="39.075955" lon="-0.222101">
        <ele>0.266</ele>
        <time>2019-06-15T10:55:39Z</time>
      </trkpt>
      <trkpt lat="39.075901" lon="-0.222062">
        <ele>0.198</ele>
        <time>2019-06-15T10:55:40Z</time>
      </trkpt>
      <trkpt lat="39.075846" lon="-0.222034">
        <ele>0.025</ele>
        <time>2019-06-15T10:55:41Z</time>
      </trkpt>
      <trkpt lat="39.075793" lon="-0.222004">
        <ele>0.254</ele>
        <time>2019-06-15T10:55:42Z</time>
      </trkpt>
      <trkpt lat="39.075746" lon="-0.221980">
        <ele>0.469</ele>
        <time>2019-06-15T10:55:43Z</time>
      </trkpt>
      <trkpt lat="39.075679" lon="-0.221951">
        <ele>0.649</ele>
        <time>2019-06-15T10:55:44Z</time>
      </trkpt>
      <trkpt lat="39.075614" lon="-0.221930">
        <ele>0.802</ele>
        <time>2019-06-15T10:55:45Z</time>
      </trkpt>
      <trkpt lat="39.075560" lon="-0.221912">
        <ele>1.122</ele>
        <time>2019-06-15T10:55:46Z</time>
      </trkpt>
      <trkpt lat="39.075509" lon="-0.221886">
        <ele>1.508</ele>
        <time>2019-06-15T10:55:47Z</time>
      </trkpt>
      <trkpt lat="39.075452" lon="-0.221862">
        <ele>1.827</ele>
        <time>2019-06-15T10:55:48Z</time>
      </trkpt>
      <trkpt lat="39.075399" lon="-0.221826">
        <ele>2.181</ele>
        <time>2019-06-15T10:55:49Z</time>
      </trkpt>
      <trkpt lat="39.075348" lon="-0.221800">
        <ele>2.220</ele>
        <time>2019-06-15T10:55:50Z</time>
      </trkpt>
      <trkpt lat="39.075286" lon="-0.221785">
        <ele>2.493</ele>
        <time>2019-06-15T10:55:51Z</time>
      </trkpt>
      <trkpt lat="39.075234" lon="-0.221761">
        <ele>2.445</ele>
        <time>2019-06-15T10:55:52Z</time>
      </trkpt>
      <trkpt lat="39.075180" lon="-0.221737">
        <ele>2.542</ele>
        <time>2019-06-15T10:55:53Z</time>
      </trkpt>
      <trkpt lat="39.075129" lon="-0.221719">
        <ele>2.621</ele>
        <time>2019-06-15T10:55:54Z</time>
      </trkpt>
      <trkpt lat="39.075072" lon="-0.221701">
        <ele>2.866</ele>
        <time>2019-06-15T10:55:55Z</time>
      </trkpt>
      <trkpt lat="39.075023" lon="-0.221675">
        <ele>2.971</ele>
        <time>2019-06-15T10:55:56Z</time>
      </trkpt>
      <trkpt lat="39.074968" lon="-0.221653">
        <ele>3.041</ele>
        <time>2019-06-15T10:55:57Z</time>
      </trkpt>
      <trkpt lat="39.074920" lon="-0.221625">
        <ele>3.015</ele>
        <time>2019-06-15T10:55:58Z</time>
      </trkpt>
      <trkpt lat="39.074870" lon="-0.221603">
        <ele>3.008</ele>
        <time>2019-06-15T10:55:59Z</time>
      </trkpt>
      <trkpt lat="39.074819" lon="-0.221580">
        <ele>3.030</ele>
        <time>2019-06-15T10:56:00Z</time>
      </trkpt>
      <trkpt lat="39.074761" lon="-0.221552">
        <ele>3.064</ele>
        <time>2019-06-15T10:56:01Z</time>
      </trkpt>
      <trkpt lat="39.074714" lon="-0.221522">
        <ele>3.093</ele>
        <time>2019-06-15T10:56:02Z</time>
      </trkpt>
      <trkpt lat="39.074672" lon="-0.221495">
        <ele>3.046</ele>
        <time>2019-06-15T10:56:03Z</time>
      </trkpt>
      <trkpt lat="39.074621" lon="-0.221468">
        <ele>3.048</ele>
        <time>2019-06-15T10:56:04Z</time>
      </trkpt>
      <trkpt lat="39.074567" lon="-0.221436">
        <ele>3.085</ele>
        <time>2019-06-15T10:56:05Z</time>
      </trkpt>
      <trkpt lat="39.074515" lon="-0.221398">
        <ele>3.064</ele>
        <time>2019-06-15T10:56:06Z</time>
      </trkpt>
      <trkpt lat="39.074463" lon="-0.221375">
        <ele>3.049</ele>
        <time>2019-06-15T10:56:07Z</time>
      </trkpt>
      <trkpt lat="39.074418" lon="-0.221346">
        <ele>2.917</ele>
        <time>2019-06-15T10:56:08Z</time>
      </trkpt>
      <trkpt lat="39.074363" lon="-0.221313">
        <ele>2.787</ele>
        <time>2019-06-15T10:56:09Z</time>
      </trkpt>
      <trkpt lat="39.074309" lon="-0.221289">
        <ele>2.515</ele>
        <time>2019-06-15T10:56:10Z</time>
      </trkpt>
      <trkpt lat="39.074253" lon="-0.221264">
        <ele>2.308</ele>
        <time>2019-06-15T10:56:11Z</time>
      </trkpt>
      <trkpt lat="39.074196" lon="-0.221238">
        <ele>2.114</ele>
        <time>2019-06-15T10:56:12Z</time>
      </trkpt>
      <trkpt lat="39.074144" lon="-0.221204">
        <ele>2.078</ele>
        <time>2019-06-15T10:56:13Z</time>
      </trkpt>
      <trkpt lat="39.074091" lon="-0.221177">
        <ele>2.087</ele>
        <time>2019-06-15T10:56:14Z</time>
      </trkpt>
      <trkpt lat="39.074038" lon="-0.221152">
        <ele>2.010</ele>
        <time>2019-06-15T10:56:15Z</time>
      </trkpt>
      <trkpt lat="39.073983" lon="-0.221127">
        <ele>2.022</ele>
        <time>2019-06-15T10:56:16Z</time>
      </trkpt>
      <trkpt lat="39.073927" lon="-0.221100">
        <ele>2.079</ele>
        <time>2019-06-15T10:56:17Z</time>
      </trkpt>
      <trkpt lat="39.073865" lon="-0.221066">
        <ele>2.258</ele>
        <time>2019-06-15T10:56:18Z</time>
      </trkpt>
      <trkpt lat="39.073809" lon="-0.221043">
        <ele>2.393</ele>
        <time>2019-06-15T10:56:19Z</time>
      </trkpt>
      <trkpt lat="39.073752" lon="-0.221017">
        <ele>2.583</ele>
        <time>2019-06-15T10:56:20Z</time>
      </trkpt>
      <trkpt lat="39.073697" lon="-0.221001">
        <ele>2.725</ele>
        <time>2019-06-15T10:56:21Z</time>
      </trkpt>
      <trkpt lat="39.073627" lon="-0.220975">
        <ele>3.017</ele>
        <time>2019-06-15T10:56:22Z</time>
      </trkpt>
      <trkpt lat="39.073568" lon="-0.220951">
        <ele>3.108</ele>
        <time>2019-06-15T10:56:23Z</time>
      </trkpt>
      <trkpt lat="39.073509" lon="-0.220928">
        <ele>3.181</ele>
        <time>2019-06-15T10:56:24Z</time>
      </trkpt>
      <trkpt lat="39.073450" lon="-0.220907">
        <ele>3.085</ele>
        <time>2019-06-15T10:56:25Z</time>
      </trkpt>
      <trkpt lat="39.073394" lon="-0.220883">
        <ele>3.034</ele>
        <time>2019-06-15T10:56:26Z</time>
      </trkpt>
      <trkpt lat="39.073338" lon="-0.220859">
        <ele>2.957</ele>
        <time>2019-06-15T10:56:27Z</time>
      </trkpt>
      <trkpt lat="39.073273" lon="-0.220838">
        <ele>2.619</ele>
        <time>2019-06-15T10:56:28Z</time>
      </trkpt>
      <trkpt lat="39.073208" lon="-0.220810">
        <ele>2.366</ele>
        <time>2019-06-15T10:56:29Z</time>
      </trkpt>
      <trkpt lat="39.073154" lon="-0.220789">
        <ele>2.095</ele>
        <time>2019-06-15T10:56:30Z</time>
      </trkpt>
      <trkpt lat="39.073095" lon="-0.220765">
        <ele>1.840</ele>
        <time>2019-06-15T10:56:31Z</time>
      </trkpt>
      <trkpt lat="39.073043" lon="-0.220736">
        <ele>1.797</ele>
        <time>2019-06-15T10:56:32Z</time>
      </trkpt>
      <trkpt lat="39.072989" lon="-0.220721">
        <ele>1.723</ele>
        <time>2019-06-15T10:56:33Z</time>
      </trkpt>
      <trkpt lat="39.072936" lon="-0.220689">
        <ele>1.825</ele>
        <time>2019-06-15T10:56:34Z</time>
      </trkpt>
      <trkpt lat="39.072888" lon="-0.220655">
        <ele>1.908</ele>
        <time>2019-06-15T10:56:35Z</time>
      </trkpt>
      <trkpt lat="39.072833" lon="-0.220632">
        <ele>1.942</ele>
        <time>2019-06-15T10:56:36Z</time>
      </trkpt>
      <trkpt lat="39.072760" lon="-0.220613">
        <ele>1.866</ele>
        <time>2019-06-15T10:56:37Z</time>
      </trkpt>
      <trkpt lat="39.072700" lon="-0.220587">
        <ele>1.985</ele>
        <time>2019-06-15T10:56:38Z</time>
      </trkpt>
      <trkpt lat="39.072643" lon="-0.220563">
        <ele>2.088</ele>
        <time>2019-06-15T10:56:39Z</time>
      </trkpt>
      <trkpt lat="39.072585" lon="-0.220528">
        <ele>2.160</ele>
        <time>2019-06-15T10:56:40Z</time>
      </trkpt>
      <trkpt lat="39.072529" lon="-0.220499">
        <ele>2.297</ele>
        <time>2019-06-15T10:56:41Z</time>
      </trkpt>
      <trkpt lat="39.072468" lon="-0.220480">
        <ele>2.216</ele>
        <time>2019-06-15T10:56:42Z</time>
      </trkpt>
      <trkpt lat="39.072412" lon="-0.220462">
        <ele>2.051</ele>
        <time>2019-06-15T10:56:43Z</time>
      </trkpt>
      <trkpt lat="39.072360" lon="-0.220433">
        <ele>1.937</ele>
        <time>2019-06-15T10:56:44Z</time>
      </trkpt>
      <trkpt lat="39.072305" lon="-0.220398">
        <ele>1.949</ele>
        <time>2019-06-15T10:56:45Z</time>
      </trkpt>
      <trkpt lat="39.072246" lon="-0.220368">
        <ele>1.813</ele>
        <time>2019-06-15T10:56:46Z</time>
      </trkpt>
      <trkpt lat="39.072192" lon="-0.220334">
        <ele>1.808</ele>
        <time>2019-06-15T10:56:47Z</time>
      </trkpt>
      <trkpt lat="39.072138" lon="-0.220306">
        <ele>1.996</ele>
        <time>2019-06-15T10:56:48Z</time>
      </trkpt>
      <trkpt lat="39.072072" lon="-0.220268">
        <ele>2.020</ele>
        <time>2019-06-15T10:56:49Z</time>
      </trkpt>
      <trkpt lat="39.072021" lon="-0.220233">
        <ele>2.049</ele>
        <time>2019-06-15T10:56:50Z</time>
      </trkpt>
      <trkpt lat="39.071959" lon="-0.220208">
        <ele>2.012</ele>
        <time>2019-06-15T10:56:51Z</time>
      </trkpt>
      <trkpt lat="39.071903" lon="-0.220177">
        <ele>2.114</ele>
        <time>2019-06-15T10:56:52Z</time>
      </trkpt>
      <trkpt lat="39.071851" lon="-0.220144">
        <ele>2.391</ele>
        <time>2019-06-15T10:56:53Z</time>
      </trkpt>
      <trkpt lat="39.071803" lon="-0.220110">
        <ele>2.570</ele>
        <time>2019-06-15T10:56:54Z</time>
      </trkpt>
      <trkpt lat="39.071743" lon="-0.220080">
        <ele>2.795</ele>
        <time>2019-06-15T10:56:55Z</time>
      </trkpt>
      <trkpt lat="39.071693" lon="-0.220058">
        <ele>2.959</ele>
        <time>2019-06-15T10:56:56Z</time>
      </trkpt>
      <trkpt lat="39.071644" lon="-0.220024">
        <ele>3.103</ele>
        <time>2019-06-15T10:56:57Z</time>
      </trkpt>
      <trkpt lat="39.071576" lon="-0.219983">
        <ele>3.323</ele>
        <time>2019-06-15T10:56:58Z</time>
      </trkpt>
      <trkpt lat="39.071502" lon="-0.219953">
        <ele>3.508</ele>
        <time>2019-06-15T10:56:59Z</time>
      </trkpt>
      <trkpt lat="39.071449" lon="-0.219913">
        <ele>3.728</ele>
        <time>2019-06-15T10:57:00Z</time>
      </trkpt>
      <trkpt lat="39.071389" lon="-0.219883">
        <ele>4.032</ele>
        <time>2019-06-15T10:57:01Z</time>
      </trkpt>
      <trkpt lat="39.071330" lon="-0.219849">
        <ele>4.081</ele>
        <time>2019-06-15T10:57:02Z</time>
      </trkpt>
      <trkpt lat="39.071282" lon="-0.219806">
        <ele>4.054</ele>
        <time>2019-06-15T10:57:03Z</time>
      </trkpt>
      <trkpt lat="39.071229" lon="-0.219765">
        <ele>4.046</ele>
        <time>2019-06-15T10:57:04Z</time>
      </trkpt>
      <trkpt lat="39.071166" lon="-0.219738">
        <ele>4.073</ele>
        <time>2019-06-15T10:57:05Z</time>
      </trkpt>
      <trkpt lat="39.071103" lon="-0.219719">
        <ele>4.062</ele>
        <time>2019-06-15T10:57:06Z</time>
      </trkpt>
      <trkpt lat="39.071042" lon="-0.219698">
        <ele>3.737</ele>
        <time>2019-06-15T10:57:07Z</time>
      </trkpt>
      <trkpt lat="39.070971" lon="-0.219675">
        <ele>3.544</ele>
        <time>2019-06-15T10:57:08Z</time>
      </trkpt>
      <trkpt lat="39.070917" lon="-0.219651">
        <ele>3.405</ele>
        <time>2019-06-15T10:57:09Z</time>
      </trkpt>
      <trkpt lat="39.070861" lon="-0.219638">
        <ele>3.315</ele>
        <time>2019-06-15T10:57:10Z</time>
      </trkpt>
      <trkpt lat="39.070799" lon="-0.219613">
        <ele>3.208</ele>
        <time>2019-06-15T10:57:11Z</time>
      </trkpt>
      <trkpt lat="39.070739" lon="-0.219581">
        <ele>3.087</ele>
        <time>2019-06-15T10:57:12Z</time>
      </trkpt>
      <trkpt lat="39.070685" lon="-0.219575">
        <ele>2.731</ele>
        <time>2019-06-15T10:57:13Z</time>
      </trkpt>
      <trkpt lat="39.070623" lon="-0.219541">
        <ele>2.470</ele>
        <time>2019-06-15T10:57:14Z</time>
      </trkpt>
      <trkpt lat="39.070556" lon="-0.219507">
        <ele>2.053</ele>
        <time>2019-06-15T10:57:15Z</time>
      </trkpt>
      <trkpt lat="39.070492" lon="-0.219482">
        <ele>1.695</ele>
        <time>2019-06-15T10:57:16Z</time>
      </trkpt>
      <trkpt lat="39.070431" lon="-0.219452">
        <ele>1.122</ele>
        <time>2019-06-15T10:57:17Z</time>
      </trkpt>
      <trkpt lat="39.070352" lon="-0.219435">
        <ele>0.541</ele>
        <time>2019-06-15T10:57:18Z</time>
      </trkpt>
      <trkpt lat="39.070310" lon="-0.219387">
        <ele>0.376</ele>
        <time>2019-06-15T10:57:19Z</time>
      </trkpt>
      <trkpt lat="39.070247" lon="-0.219342">
        <ele>0.032</ele>
        <time>2019-06-15T10:57:20Z</time>
      </trkpt>
      <trkpt lat="39.070191" lon="-0.219307">
        <ele>0.092</ele>
        <time>2019-06-15T10:57:21Z</time>
      </trkpt>
      <trkpt lat="39.070132" lon="-0.219269">
        <ele>0.011</ele>
        <time>2019-06-15T10:57:22Z</time>
      </trkpt>
      <trkpt lat="39.070059" lon="-0.219242">
        <ele>0.008</ele>
        <time>2019-06-15T10:57:23Z</time>
      </trkpt>
      <trkpt lat="39.069996" lon="-0.219211">
        <ele>0.026</ele>
        <time>2019-06-15T10:57:24Z</time>
      </trkpt>
      <trkpt lat="39.069934" lon="-0.219183">
        <ele>0.020</ele>
        <time>2019-06-15T10:57:25Z</time>
      </trkpt>
      <trkpt lat="39.069876" lon="-0.219160">
        <ele>0.029</ele>
        <time>2019-06-15T10:57:26Z</time>
      </trkpt>
      <trkpt lat="39.069809" lon="-0.219132">
        <ele>0.142</ele>
        <time>2019-06-15T10:57:27Z</time>
      </trkpt>
      <trkpt lat="39.069743" lon="-0.219115">
        <ele>0.284</ele>
        <time>2019-06-15T10:57:28Z</time>
      </trkpt>
      <trkpt lat="39.069681" lon="-0.219082">
        <ele>0.461</ele>
        <time>2019-06-15T10:57:29Z</time>
      </trkpt>
      <trkpt lat="39.069620" lon="-0.219077">
        <ele>0.670</ele>
        <time>2019-06-15T10:57:30Z</time>
      </trkpt>
      <trkpt lat="39.069557" lon="-0.219044">
        <ele>0.825</ele>
        <time>2019-06-15T10:57:31Z</time>
      </trkpt>
      <trkpt lat="39.069494" lon="-0.219005">
        <ele>0.973</ele>
        <time>2019-06-15T10:57:32Z</time>
      </trkpt>
      <trkpt lat="39.069432" lon="-0.218971">
        <ele>1.085</ele>
        <time>2019-06-15T10:57:33Z</time>
      </trkpt>
      <trkpt lat="39.069372" lon="-0.218939">
        <ele>1.213</ele>
        <time>2019-06-15T10:57:34Z</time>
      </trkpt>
      <trkpt lat="39.069310" lon="-0.218914">
        <ele>1.408</ele>
        <time>2019-06-15T10:57:35Z</time>
      </trkpt>
      <trkpt lat="39.069249" lon="-0.218890">
        <ele>1.730</ele>
        <time>2019-06-15T10:57:36Z</time>
      </trkpt>
      <trkpt lat="39.069170" lon="-0.218879">
        <ele>2.044</ele>
        <time>2019-06-15T10:57:37Z</time>
      </trkpt>
      <trkpt lat="39.069107" lon="-0.218855">
        <ele>1.853</ele>
        <time>2019-06-15T10:57:38Z</time>
      </trkpt>
      <trkpt lat="39.069046" lon="-0.218823">
        <ele>1.776</ele>
        <time>2019-06-15T10:57:39Z</time>
      </trkpt>
      <trkpt lat="39.068988" lon="-0.218782">
        <ele>1.628</ele>
        <time>2019-06-15T10:57:40Z</time>
      </trkpt>
      <trkpt lat="39.068923" lon="-0.218755">
        <ele>1.545</ele>
        <time>2019-06-15T10:57:41Z</time>
      </trkpt>
      <trkpt lat="39.068870" lon="-0.218725">
        <ele>1.624</ele>
        <time>2019-06-15T10:57:42Z</time>
      </trkpt>
      <trkpt lat="39.068813" lon="-0.218691">
        <ele>1.789</ele>
        <time>2019-06-15T10:57:43Z</time>
      </trkpt>
      <trkpt lat="39.068746" lon="-0.218670">
        <ele>1.857</ele>
        <time>2019-06-15T10:57:44Z</time>
      </trkpt>
      <trkpt lat="39.068684" lon="-0.218644">
        <ele>1.900</ele>
        <time>2019-06-15T10:57:45Z</time>
      </trkpt>
      <trkpt lat="39.068618" lon="-0.218636">
        <ele>1.920</ele>
        <time>2019-06-15T10:57:46Z</time>
      </trkpt>
      <trkpt lat="39.068549" lon="-0.218612">
        <ele>2.208</ele>
        <time>2019-06-15T10:57:47Z</time>
      </trkpt>
      <trkpt lat="39.068486" lon="-0.218581">
        <ele>2.518</ele>
        <time>2019-06-15T10:57:48Z</time>
      </trkpt>
      <trkpt lat="39.068425" lon="-0.218557">
        <ele>2.722</ele>
        <time>2019-06-15T10:57:49Z</time>
      </trkpt>
      <trkpt lat="39.068358" lon="-0.218536">
        <ele>2.951</ele>
        <time>2019-06-15T10:57:50Z</time>
      </trkpt>
      <trkpt lat="39.068298" lon="-0.218511">
        <ele>2.894</ele>
        <time>2019-06-15T10:57:51Z</time>
      </trkpt>
      <trkpt lat="39.068236" lon="-0.218485">
        <ele>2.526</ele>
        <time>2019-06-15T10:57:52Z</time>
      </trkpt>
      <trkpt lat="39.068174" lon="-0.218462">
        <ele>2.153</ele>
        <time>2019-06-15T10:57:53Z</time>
      </trkpt>
      <trkpt lat="39.068100" lon="-0.218434">
        <ele>1.652</ele>
        <time>2019-06-15T10:57:54Z</time>
      </trkpt>
      <trkpt lat="39.068037" lon="-0.218412">
        <ele>1.367</ele>
        <time>2019-06-15T10:57:55Z</time>
      </trkpt>
      <trkpt lat="39.067981" lon="-0.218379">
        <ele>1.384</ele>
        <time>2019-06-15T10:57:56Z</time>
      </trkpt>
      <trkpt lat="39.067916" lon="-0.218350">
        <ele>1.507</ele>
        <time>2019-06-15T10:57:57Z</time>
      </trkpt>
      <trkpt lat="39.067862" lon="-0.218313">
        <ele>1.717</ele>
        <time>2019-06-15T10:57:58Z</time>
      </trkpt>
      <trkpt lat="39.067806" lon="-0.218284">
        <ele>1.908</ele>
        <time>2019-06-15T10:57:59Z</time>
      </trkpt>
      <trkpt lat="39.067751" lon="-0.218271">
        <ele>2.071</ele>
        <time>2019-06-15T10:58:00Z</time>
      </trkpt>
      <trkpt lat="39.067689" lon="-0.218262">
        <ele>2.075</ele>
        <time>2019-06-15T10:58:01Z</time>
      </trkpt>
      <trkpt lat="39.067632" lon="-0.218245">
        <ele>2.054</ele>
        <time>2019-06-15T10:58:02Z</time>
      </trkpt>
      <trkpt lat="39.067566" lon="-0.218216">
        <ele>2.077</ele>
        <time>2019-06-15T10:58:03Z</time>
      </trkpt>
      <trkpt lat="39.067500" lon="-0.218191">
        <ele>2.019</ele>
        <time>2019-06-15T10:58:04Z</time>
      </trkpt>
      <trkpt lat="39.067455" lon="-0.218159">
        <ele>2.076</ele>
        <time>2019-06-15T10:58:05Z</time>
      </trkpt>
      <trkpt lat="39.067402" lon="-0.218130">
        <ele>2.035</ele>
        <time>2019-06-15T10:58:06Z</time>
      </trkpt>
      <trkpt lat="39.067341" lon="-0.218110">
        <ele>2.090</ele>
        <time>2019-06-15T10:58:07Z</time>
      </trkpt>
      <trkpt lat="39.067290" lon="-0.218074">
        <ele>2.077</ele>
        <time>2019-06-15T10:58:08Z</time>
      </trkpt>
      <trkpt lat="39.067213" lon="-0.218067">
        <ele>2.061</ele>
        <time>2019-06-15T10:58:09Z</time>
      </trkpt>
      <trkpt lat="39.067158" lon="-0.218051">
        <ele>2.027</ele>
        <time>2019-06-15T10:58:10Z</time>
      </trkpt>
      <trkpt lat="39.067096" lon="-0.218021">
        <ele>2.008</ele>
        <time>2019-06-15T10:58:11Z</time>
      </trkpt>
      <trkpt lat="39.067037" lon="-0.218008">
        <ele>2.030</ele>
        <time>2019-06-15T10:58:12Z</time>
      </trkpt>
      <trkpt lat="39.066995" lon="-0.217980">
        <ele>2.064</ele>
        <time>2019-06-15T10:58:13Z</time>
      </trkpt>
      <trkpt lat="39.066936" lon="-0.217968">
        <ele>2.063</ele>
        <time>2019-06-15T10:58:14Z</time>
      </trkpt>
      <trkpt lat="39.066879" lon="-0.217953">
        <ele>2.096</ele>
        <time>2019-06-15T10:58:15Z</time>
      </trkpt>
      <trkpt lat="39.066823" lon="-0.217928">
        <ele>2.048</ele>
        <time>2019-06-15T10:58:16Z</time>
      </trkpt>
      <trkpt lat="39.066767" lon="-0.217899">
        <ele>2.045</ele>
        <time>2019-06-15T10:58:17Z</time>
      </trkpt>
      <trkpt lat="39.066703" lon="-0.217886">
        <ele>2.094</ele>
        <time>2019-06-15T10:58:18Z</time>
      </trkpt>
      <trkpt lat="39.066645" lon="-0.217869">
        <ele>1.969</ele>
        <time>2019-06-15T10:58:19Z</time>
      </trkpt>
      <trkpt lat="39.066575" lon="-0.217891">
        <ele>1.857</ele>
        <time>2019-06-15T10:58:20Z</time>
      </trkpt>
      <trkpt lat="39.066505" lon="-0.217897">
        <ele>1.700</ele>
        <time>2019-06-15T10:58:21Z</time>
      </trkpt>
      <trkpt lat="39.066458" lon="-0.217864">
        <ele>1.520</ele>
        <time>2019-06-15T10:58:22Z</time>
      </trkpt>
      <trkpt lat="39.066410" lon="-0.217850">
        <ele>1.308</ele>
        <time>2019-06-15T10:58:23Z</time>
      </trkpt>
      <trkpt lat="39.066321" lon="-0.217814">
        <ele>1.378</ele>
        <time>2019-06-15T10:58:25Z</time>
      </trkpt>
      <trkpt lat="39.066248" lon="-0.217795">
        <ele>1.552</ele>
        <time>2019-06-15T10:58:27Z</time>
      </trkpt>
      <trkpt lat="39.066182" lon="-0.217772">
        <ele>1.891</ele>
        <time>2019-06-15T10:58:30Z</time>
      </trkpt>
      <trkpt lat="39.066134" lon="-0.217747">
        <ele>1.944</ele>
        <time>2019-06-15T10:58:33Z</time>
      </trkpt>
      <trkpt lat="39.066084" lon="-0.217708">
        <ele>2.136</ele>
        <time>2019-06-15T10:58:35Z</time>
      </trkpt>
      <trkpt lat="39.065981" lon="-0.217630">
        <ele>2.533</ele>
        <time>2019-06-15T10:58:37Z</time>
      </trkpt>
      <trkpt lat="39.065901" lon="-0.217579">
        <ele>2.882</ele>
        <time>2019-06-15T10:58:39Z</time>
      </trkpt>
      <trkpt lat="39.065846" lon="-0.217567">
        <ele>3.057</ele>
        <time>2019-06-15T10:58:40Z</time>
      </trkpt>
      <trkpt lat="39.065795" lon="-0.217552">
        <ele>3.038</ele>
        <time>2019-06-15T10:58:41Z</time>
      </trkpt>
      <trkpt lat="39.065743" lon="-0.217539">
        <ele>3.070</ele>
        <time>2019-06-15T10:58:42Z</time>
      </trkpt>
      <trkpt lat="39.065696" lon="-0.217521">
        <ele>3.017</ele>
        <time>2019-06-15T10:58:43Z</time>
      </trkpt>
      <trkpt lat="39.065624" lon="-0.217457">
        <ele>3.008</ele>
        <time>2019-06-15T10:58:45Z</time>
      </trkpt>
      <trkpt lat="39.065576" lon="-0.217432">
        <ele>3.086</ele>
        <time>2019-06-15T10:58:46Z</time>
      </trkpt>
      <trkpt lat="39.065527" lon="-0.217398">
        <ele>3.020</ele>
        <time>2019-06-15T10:58:47Z</time>
      </trkpt>
      <trkpt lat="39.065486" lon="-0.217356">
        <ele>3.139</ele>
        <time>2019-06-15T10:58:48Z</time>
      </trkpt>
      <trkpt lat="39.065433" lon="-0.217329">
        <ele>3.322</ele>
        <time>2019-06-15T10:58:49Z</time>
      </trkpt>
      <trkpt lat="39.065391" lon="-0.217288">
        <ele>3.584</ele>
        <time>2019-06-15T10:58:50Z</time>
      </trkpt>
      <trkpt lat="39.065342" lon="-0.217249">
        <ele>3.771</ele>
        <time>2019-06-15T10:58:51Z</time>
      </trkpt>
      <trkpt lat="39.065293" lon="-0.217219">
        <ele>3.910</ele>
        <time>2019-06-15T10:58:52Z</time>
      </trkpt>
      <trkpt lat="39.065254" lon="-0.217183">
        <ele>4.185</ele>
        <time>2019-06-15T10:58:53Z</time>
      </trkpt>
      <trkpt lat="39.065206" lon="-0.217153">
        <ele>4.338</ele>
        <time>2019-06-15T10:58:54Z</time>
      </trkpt>
      <trkpt lat="39.065157" lon="-0.217110">
        <ele>4.470</ele>
        <time>2019-06-15T10:58:55Z</time>
      </trkpt>
      <trkpt lat="39.065113" lon="-0.217067">
        <ele>4.617</ele>
        <time>2019-06-15T10:58:56Z</time>
      </trkpt>
      <trkpt lat="39.065034" lon="-0.216978">
        <ele>4.908</ele>
        <time>2019-06-15T10:58:58Z</time>
      </trkpt>
      <trkpt lat="39.064987" lon="-0.216939">
        <ele>4.976</ele>
        <time>2019-06-15T10:58:59Z</time>
      </trkpt>
      <trkpt lat="39.064942" lon="-0.216889">
        <ele>4.410</ele>
        <time>2019-06-15T10:59:00Z</time>
      </trkpt>
      <trkpt lat="39.064887" lon="-0.216844">
        <ele>4.029</ele>
        <time>2019-06-15T10:59:01Z</time>
      </trkpt>
      <trkpt lat="39.064820" lon="-0.216805">
        <ele>3.512</ele>
        <time>2019-06-15T10:59:02Z</time>
      </trkpt>
      <trkpt lat="39.064772" lon="-0.216771">
        <ele>3.214</ele>
        <time>2019-06-15T10:59:03Z</time>
      </trkpt>
      <trkpt lat="39.064727" lon="-0.216743">
        <ele>3.081</ele>
        <time>2019-06-15T10:59:04Z</time>
      </trkpt>
      <trkpt lat="39.064674" lon="-0.216707">
        <ele>2.770</ele>
        <time>2019-06-15T10:59:05Z</time>
      </trkpt>
      <trkpt lat="39.064617" lon="-0.216670">
        <ele>2.275</ele>
        <time>2019-06-15T10:59:06Z</time>
      </trkpt>
      <trkpt lat="39.064557" lon="-0.216635">
        <ele>1.971</ele>
        <time>2019-06-15T10:59:07Z</time>
      </trkpt>
      <trkpt lat="39.064507" lon="-0.216594">
        <ele>1.741</ele>
        <time>2019-06-15T10:59:08Z</time>
      </trkpt>
      <trkpt lat="39.064442" lon="-0.216561">
        <ele>1.415</ele>
        <time>2019-06-15T10:59:09Z</time>
      </trkpt>
      <trkpt lat="39.064401" lon="-0.216514">
        <ele>1.608</ele>
        <time>2019-06-15T10:59:10Z</time>
      </trkpt>
      <trkpt lat="39.064346" lon="-0.216474">
        <ele>1.820</ele>
        <time>2019-06-15T10:59:11Z</time>
      </trkpt>
      <trkpt lat="39.064275" lon="-0.216441">
        <ele>1.954</ele>
        <time>2019-06-15T10:59:12Z</time>
      </trkpt>
      <trkpt lat="39.064225" lon="-0.216408">
        <ele>2.083</ele>
        <time>2019-06-15T10:59:13Z</time>
      </trkpt>
      <trkpt lat="39.064172" lon="-0.216371">
        <ele>2.026</ele>
        <time>2019-06-15T10:59:14Z</time>
      </trkpt>
      <trkpt lat="39.064118" lon="-0.216333">
        <ele>2.178</ele>
        <time>2019-06-15T10:59:15Z</time>
      </trkpt>
      <trkpt lat="39.064075" lon="-0.216303">
        <ele>2.255</ele>
        <time>2019-06-15T10:59:16Z</time>
      </trkpt>
      <trkpt lat="39.064025" lon="-0.216265">
        <ele>2.374</ele>
        <time>2019-06-15T10:59:17Z</time>
      </trkpt>
      <trkpt lat="39.063975" lon="-0.216228">
        <ele>2.319</ele>
        <time>2019-06-15T10:59:18Z</time>
      </trkpt>
      <trkpt lat="39.063909" lon="-0.216198">
        <ele>2.348</ele>
        <time>2019-06-15T10:59:19Z</time>
      </trkpt>
      <trkpt lat="39.063864" lon="-0.216170">
        <ele>2.461</ele>
        <time>2019-06-15T10:59:20Z</time>
      </trkpt>
      <trkpt lat="39.063809" lon="-0.216137">
        <ele>2.617</ele>
        <time>2019-06-15T10:59:21Z</time>
      </trkpt>
      <trkpt lat="39.063757" lon="-0.216105">
        <ele>3.008</ele>
        <time>2019-06-15T10:59:22Z</time>
      </trkpt>
      <trkpt lat="39.063689" lon="-0.216078">
        <ele>3.487</ele>
        <time>2019-06-15T10:59:23Z</time>
      </trkpt>
      <trkpt lat="39.063642" lon="-0.216039">
        <ele>3.811</ele>
        <time>2019-06-15T10:59:24Z</time>
      </trkpt>
      <trkpt lat="39.063587" lon="-0.216000">
        <ele>4.150</ele>
        <time>2019-06-15T10:59:25Z</time>
      </trkpt>
      <trkpt lat="39.063531" lon="-0.215968">
        <ele>4.343</ele>
        <time>2019-06-15T10:59:26Z</time>
      </trkpt>
      <trkpt lat="39.063481" lon="-0.215963">
        <ele>4.545</ele>
        <time>2019-06-15T10:59:27Z</time>
      </trkpt>
      <trkpt lat="39.063428" lon="-0.215930">
        <ele>4.762</ele>
        <time>2019-06-15T10:59:28Z</time>
      </trkpt>
      <trkpt lat="39.063387" lon="-0.215898">
        <ele>4.871</ele>
        <time>2019-06-15T10:59:29Z</time>
      </trkpt>
      <trkpt lat="39.063338" lon="-0.215859">
        <ele>5.076</ele>
        <time>2019-06-15T10:59:30Z</time>
      </trkpt>
      <trkpt lat="39.063281" lon="-0.215832">
        <ele>4.893</ele>
        <time>2019-06-15T10:59:31Z</time>
      </trkpt>
      <trkpt lat="39.063244" lon="-0.215786">
        <ele>4.665</ele>
        <time>2019-06-15T10:59:32Z</time>
      </trkpt>
      <trkpt lat="39.063180" lon="-0.215754">
        <ele>4.321</ele>
        <time>2019-06-15T10:59:33Z</time>
      </trkpt>
      <trkpt lat="39.063128" lon="-0.215717">
        <ele>4.208</ele>
        <time>2019-06-15T10:59:34Z</time>
      </trkpt>
      <trkpt lat="39.063083" lon="-0.215667">
        <ele>4.082</ele>
        <time>2019-06-15T10:59:35Z</time>
      </trkpt>
      <trkpt lat="39.063043" lon="-0.215623">
        <ele>4.036</ele>
        <time>2019-06-15T10:59:36Z</time>
      </trkpt>
      <trkpt lat="39.062987" lon="-0.215587">
        <ele>3.835</ele>
        <time>2019-06-15T10:59:37Z</time>
      </trkpt>
      <trkpt lat="39.062940" lon="-0.215551">
        <ele>3.668</ele>
        <time>2019-06-15T10:59:38Z</time>
      </trkpt>
      <trkpt lat="39.062895" lon="-0.215519">
        <ele>3.470</ele>
        <time>2019-06-15T10:59:39Z</time>
      </trkpt>
      <trkpt lat="39.062845" lon="-0.215493">
        <ele>3.267</ele>
        <time>2019-06-15T10:59:40Z</time>
      </trkpt>
      <trkpt lat="39.062794" lon="-0.215469">
        <ele>3.036</ele>
        <time>2019-06-15T10:59:41Z</time>
      </trkpt>
      <trkpt lat="39.062737" lon="-0.215440">
        <ele>2.981</ele>
        <time>2019-06-15T10:59:42Z</time>
      </trkpt>
      <trkpt lat="39.062685" lon="-0.215412">
        <ele>2.721</ele>
        <time>2019-06-15T10:59:43Z</time>
      </trkpt>
      <trkpt lat="39.062628" lon="-0.215404">
        <ele>2.541</ele>
        <time>2019-06-15T10:59:44Z</time>
      </trkpt>
      <trkpt lat="39.062563" lon="-0.215395">
        <ele>2.205</ele>
        <time>2019-06-15T10:59:45Z</time>
      </trkpt>
      <trkpt lat="39.062494" lon="-0.215389">
        <ele>2.008</ele>
        <time>2019-06-15T10:59:46Z</time>
      </trkpt>
      <trkpt lat="39.062426" lon="-0.215382">
        <ele>1.745</ele>
        <time>2019-06-15T10:59:47Z</time>
      </trkpt>
      <trkpt lat="39.062365" lon="-0.215367">
        <ele>1.579</ele>
        <time>2019-06-15T10:59:48Z</time>
      </trkpt>
      <trkpt lat="39.062308" lon="-0.215342">
        <ele>1.318</ele>
        <time>2019-06-15T10:59:49Z</time>
      </trkpt>
      <trkpt lat="39.062253" lon="-0.215307">
        <ele>1.151</ele>
        <time>2019-06-15T10:59:50Z</time>
      </trkpt>
      <trkpt lat="39.062202" lon="-0.215271">
        <ele>1.073</ele>
        <time>2019-06-15T10:59:51Z</time>
      </trkpt>
      <trkpt lat="39.062132" lon="-0.215234">
        <ele>1.180</ele>
        <time>2019-06-15T10:59:52Z</time>
      </trkpt>
      <trkpt lat="39.062075" lon="-0.215182">
        <ele>1.229</ele>
        <time>2019-06-15T10:59:53Z</time>
      </trkpt>
      <trkpt lat="39.062021" lon="-0.215136">
        <ele>1.194</ele>
        <time>2019-06-15T10:59:54Z</time>
      </trkpt>
      <trkpt lat="39.061965" lon="-0.215108">
        <ele>1.048</ele>
        <time>2019-06-15T10:59:55Z</time>
      </trkpt>
      <trkpt lat="39.061912" lon="-0.215074">
        <ele>1.061</ele>
        <time>2019-06-15T10:59:56Z</time>
      </trkpt>
      <trkpt lat="39.061853" lon="-0.215037">
        <ele>1.017</ele>
        <time>2019-06-15T10:59:57Z</time>
      </trkpt>
      <trkpt lat="39.061795" lon="-0.215004">
        <ele>1.008</ele>
        <time>2019-06-15T10:59:58Z</time>
      </trkpt>
      <trkpt lat="39.061733" lon="-0.214980">
        <ele>1.097</ele>
        <time>2019-06-15T10:59:59Z</time>
      </trkpt>
      <trkpt lat="39.061677" lon="-0.214944">
        <ele>1.081</ele>
        <time>2019-06-15T11:00:00Z</time>
      </trkpt>
      <trkpt lat="39.061608" lon="-0.214919">
        <ele>1.060</ele>
        <time>2019-06-15T11:00:01Z</time>
      </trkpt>
      <trkpt lat="39.061549" lon="-0.214890">
        <ele>1.013</ele>
        <time>2019-06-15T11:00:02Z</time>
      </trkpt>
      <trkpt lat="39.061498" lon="-0.214847">
        <ele>1.075</ele>
        <time>2019-06-15T11:00:03Z</time>
      </trkpt>
      <trkpt lat="39.061437" lon="-0.214817">
        <ele>1.022</ele>
        <time>2019-06-15T11:00:04Z</time>
      </trkpt>
      <trkpt lat="39.061381" lon="-0.214779">
        <ele>1.051</ele>
        <time>2019-06-15T11:00:05Z</time>
      </trkpt>
      <trkpt lat="39.061319" lon="-0.214746">
        <ele>1.016</ele>
        <time>2019-06-15T11:00:06Z</time>
      </trkpt>
      <trkpt lat="39.061260" lon="-0.214708">
        <ele>1.031</ele>
        <time>2019-06-15T11:00:07Z</time>
      </trkpt>
      <trkpt lat="39.061203" lon="-0.214669">
        <ele>1.161</ele>
        <time>2019-06-15T11:00:08Z</time>
      </trkpt>
      <trkpt lat="39.061144" lon="-0.214622">
        <ele>1.307</ele>
        <time>2019-06-15T11:00:09Z</time>
      </trkpt>
      <trkpt lat="39.061090" lon="-0.214568">
        <ele>1.508</ele>
        <time>2019-06-15T11:00:10Z</time>
      </trkpt>
      <trkpt lat="39.061034" lon="-0.214539">
        <ele>1.636</ele>
        <time>2019-06-15T11:00:11Z</time>
      </trkpt>
      <trkpt lat="39.060966" lon="-0.214505">
        <ele>1.540</ele>
        <time>2019-06-15T11:00:12Z</time>
      </trkpt>
      <trkpt lat="39.060909" lon="-0.214469">
        <ele>1.359</ele>
        <time>2019-06-15T11:00:13Z</time>
      </trkpt>
      <trkpt lat="39.060845" lon="-0.214433">
        <ele>1.052</ele>
        <time>2019-06-15T11:00:14Z</time>
      </trkpt>
      <trkpt lat="39.060784" lon="-0.214399">
        <ele>0.854</ele>
        <time>2019-06-15T11:00:15Z</time>
      </trkpt>
      <trkpt lat="39.060717" lon="-0.214371">
        <ele>0.531</ele>
        <time>2019-06-15T11:00:16Z</time>
      </trkpt>
      <trkpt lat="39.060658" lon="-0.214339">
        <ele>0.180</ele>
        <time>2019-06-15T11:00:17Z</time>
      </trkpt>
      <trkpt lat="39.060599" lon="-0.214310">
        <ele>-0.355</ele>
        <time>2019-06-15T11:00:18Z</time>
      </trkpt>
      <trkpt lat="39.060541" lon="-0.214277">
        <ele>-0.614</ele>
        <time>2019-06-15T11:00:19Z</time>
      </trkpt>
      <trkpt lat="39.060480" lon="-0.214244">
        <ele>-0.554</ele>
        <time>2019-06-15T11:00:20Z</time>
      </trkpt>
      <trkpt lat="39.060420" lon="-0.214218">
        <ele>-0.409</ele>
        <time>2019-06-15T11:00:21Z</time>
      </trkpt>
      <trkpt lat="39.060363" lon="-0.214187">
        <ele>-0.308</ele>
        <time>2019-06-15T11:00:22Z</time>
      </trkpt>
      <trkpt lat="39.060304" lon="-0.214156">
        <ele>-0.194</ele>
        <time>2019-06-15T11:00:23Z</time>
      </trkpt>
      <trkpt lat="39.060251" lon="-0.214128">
        <ele>0.238</ele>
        <time>2019-06-15T11:00:24Z</time>
      </trkpt>
      <trkpt lat="39.060200" lon="-0.214090">
        <ele>0.637</ele>
        <time>2019-06-15T11:00:25Z</time>
      </trkpt>
      <trkpt lat="39.060153" lon="-0.214055">
        <ele>0.910</ele>
        <time>2019-06-15T11:00:26Z</time>
      </trkpt>
      <trkpt lat="39.060096" lon="-0.214023">
        <ele>1.222</ele>
        <time>2019-06-15T11:00:27Z</time>
      </trkpt>
      <trkpt lat="39.060045" lon="-0.213988">
        <ele>1.589</ele>
        <time>2019-06-15T11:00:28Z</time>
      </trkpt>
      <trkpt lat="39.059987" lon="-0.213953">
        <ele>1.878</ele>
        <time>2019-06-15T11:00:29Z</time>
      </trkpt>
      <trkpt lat="39.059929" lon="-0.213911">
        <ele>1.953</ele>
        <time>2019-06-15T11:00:30Z</time>
      </trkpt>
      <trkpt lat="39.059861" lon="-0.213882">
        <ele>2.053</ele>
        <time>2019-06-15T11:00:31Z</time>
      </trkpt>
      <trkpt lat="39.059806" lon="-0.213842">
        <ele>2.204</ele>
        <time>2019-06-15T11:00:32Z</time>
      </trkpt>
      <trkpt lat="39.059751" lon="-0.213804">
        <ele>2.314</ele>
        <time>2019-06-15T11:00:33Z</time>
      </trkpt>
      <trkpt lat="39.059691" lon="-0.213763">
        <ele>2.508</ele>
        <time>2019-06-15T11:00:34Z</time>
      </trkpt>
      <trkpt lat="39.059634" lon="-0.213711">
        <ele>2.658</ele>
        <time>2019-06-15T11:00:35Z</time>
      </trkpt>
      <trkpt lat="39.059576" lon="-0.213666">
        <ele>2.562</ele>
        <time>2019-06-15T11:00:36Z</time>
      </trkpt>
      <trkpt lat="39.059523" lon="-0.213626">
        <ele>2.371</ele>
        <time>2019-06-15T11:00:37Z</time>
      </trkpt>
      <trkpt lat="39.059459" lon="-0.213589">
        <ele>2.064</ele>
        <time>2019-06-15T11:00:38Z</time>
      </trkpt>
      <trkpt lat="39.059408" lon="-0.213552">
        <ele>2.176</ele>
        <time>2019-06-15T11:00:39Z</time>
      </trkpt>
      <trkpt lat="39.059350" lon="-0.213507">
        <ele>2.383</ele>
        <time>2019-06-15T11:00:40Z</time>
      </trkpt>
      <trkpt lat="39.059292" lon="-0.213458">
        <ele>2.592</ele>
        <time>2019-06-15T11:00:41Z</time>
      </trkpt>
      <trkpt lat="39.059236" lon="-0.213417">
        <ele>2.887</ele>
        <time>2019-06-15T11:00:42Z</time>
      </trkpt>
      <trkpt lat="39.059178" lon="-0.213375">
        <ele>3.023</ele>
        <time>2019-06-15T11:00:43Z</time>
      </trkpt>
      <trkpt lat="39.059111" lon="-0.213339">
        <ele>3.283</ele>
        <time>2019-06-15T11:00:44Z</time>
      </trkpt>
      <trkpt lat="39.059056" lon="-0.213302">
        <ele>3.511</ele>
        <time>2019-06-15T11:00:45Z</time>
      </trkpt>
      <trkpt lat="39.058997" lon="-0.213268">
        <ele>3.708</ele>
        <time>2019-06-15T11:00:46Z</time>
      </trkpt>
      <trkpt lat="39.058938" lon="-0.213221">
        <ele>3.935</ele>
        <time>2019-06-15T11:00:47Z</time>
      </trkpt>
      <trkpt lat="39.058880" lon="-0.213195">
        <ele>4.069</ele>
        <time>2019-06-15T11:00:48Z</time>
      </trkpt>
      <trkpt lat="39.058813" lon="-0.213175">
        <ele>3.718</ele>
        <time>2019-06-15T11:00:49Z</time>
      </trkpt>
      <trkpt lat="39.058752" lon="-0.213142">
        <ele>3.571</ele>
        <time>2019-06-15T11:00:50Z</time>
      </trkpt>
      <trkpt lat="39.058685" lon="-0.213102">
        <ele>3.363</ele>
        <time>2019-06-15T11:00:51Z</time>
      </trkpt>
      <trkpt lat="39.058619" lon="-0.213070">
        <ele>3.080</ele>
        <time>2019-06-15T11:00:52Z</time>
      </trkpt>
      <trkpt lat="39.058556" lon="-0.213048">
        <ele>2.899</ele>
        <time>2019-06-15T11:00:53Z</time>
      </trkpt>
      <trkpt lat="39.058492" lon="-0.213014">
        <ele>2.514</ele>
        <time>2019-06-15T11:00:54Z</time>
      </trkpt>
      <trkpt lat="39.058432" lon="-0.212985">
        <ele>2.227</ele>
        <time>2019-06-15T11:00:55Z</time>
      </trkpt>
      <trkpt lat="39.058373" lon="-0.212948">
        <ele>1.868</ele>
        <time>2019-06-15T11:00:56Z</time>
      </trkpt>
      <trkpt lat="39.058315" lon="-0.212914">
        <ele>1.514</ele>
        <time>2019-06-15T11:00:57Z</time>
      </trkpt>
      <trkpt lat="39.058259" lon="-0.212870">
        <ele>1.408</ele>
        <time>2019-06-15T11:00:58Z</time>
      </trkpt>
      <trkpt lat="39.058197" lon="-0.212830">
        <ele>1.535</ele>
        <time>2019-06-15T11:00:59Z</time>
      </trkpt>
      <trkpt lat="39.058137" lon="-0.212801">
        <ele>1.779</ele>
        <time>2019-06-15T11:01:00Z</time>
      </trkpt>
      <trkpt lat="39.058084" lon="-0.212745">
        <ele>1.988</ele>
        <time>2019-06-15T11:01:01Z</time>
      </trkpt>
      <trkpt lat="39.058023" lon="-0.212712">
        <ele>2.011</ele>
        <time>2019-06-15T11:01:02Z</time>
      </trkpt>
      <trkpt lat="39.057968" lon="-0.212657">
        <ele>2.083</ele>
        <time>2019-06-15T11:01:03Z</time>
      </trkpt>
      <trkpt lat="39.057909" lon="-0.212617">
        <ele>2.070</ele>
        <time>2019-06-15T11:01:04Z</time>
      </trkpt>
      <trkpt lat="39.057851" lon="-0.212593">
        <ele>2.039</ele>
        <time>2019-06-15T11:01:05Z</time>
      </trkpt>
      <trkpt lat="39.057787" lon="-0.212573">
        <ele>2.034</ele>
        <time>2019-06-15T11:01:06Z</time>
      </trkpt>
      <trkpt lat="39.057730" lon="-0.212543">
        <ele>2.175</ele>
        <time>2019-06-15T11:01:07Z</time>
      </trkpt>
      <trkpt lat="39.057671" lon="-0.212508">
        <ele>2.428</ele>
        <time>2019-06-15T11:01:08Z</time>
      </trkpt>
      <trkpt lat="39.057607" lon="-0.212475">
        <ele>2.620</ele>
        <time>2019-06-15T11:01:09Z</time>
      </trkpt>
      <trkpt lat="39.057537" lon="-0.212452">
        <ele>2.908</ele>
        <time>2019-06-15T11:01:10Z</time>
      </trkpt>
      <trkpt lat="39.057473" lon="-0.212425">
        <ele>3.080</ele>
        <time>2019-06-15T11:01:11Z</time>
      </trkpt>
      <trkpt lat="39.057392" lon="-0.212415">
        <ele>3.134</ele>
        <time>2019-06-15T11:01:12Z</time>
      </trkpt>
      <trkpt lat="39.057333" lon="-0.212384">
        <ele>3.333</ele>
        <time>2019-06-15T11:01:13Z</time>
      </trkpt>
      <trkpt lat="39.057269" lon="-0.212361">
        <ele>3.476</ele>
        <time>2019-06-15T11:01:14Z</time>
      </trkpt>
      <trkpt lat="39.057202" lon="-0.212348">
        <ele>3.578</ele>
        <time>2019-06-15T11:01:15Z</time>
      </trkpt>
      <trkpt lat="39.057129" lon="-0.212325">
        <ele>3.485</ele>
        <time>2019-06-15T11:01:16Z</time>
      </trkpt>
      <trkpt lat="39.057069" lon="-0.212294">
        <ele>3.344</ele>
        <time>2019-06-15T11:01:17Z</time>
      </trkpt>
      <trkpt lat="39.057019" lon="-0.212254">
        <ele>3.279</ele>
        <time>2019-06-15T11:01:18Z</time>
      </trkpt>
      <trkpt lat="39.056962" lon="-0.212221">
        <ele>3.164</ele>
        <time>2019-06-15T11:01:19Z</time>
      </trkpt>
      <trkpt lat="39.056900" lon="-0.212187">
        <ele>2.806</ele>
        <time>2019-06-15T11:01:20Z</time>
      </trkpt>
      <trkpt lat="39.056842" lon="-0.212153">
        <ele>2.616</ele>
        <time>2019-06-15T11:01:21Z</time>
      </trkpt>
      <trkpt lat="39.056788" lon="-0.212122">
        <ele>2.408</ele>
        <time>2019-06-15T11:01:22Z</time>
      </trkpt>
      <trkpt lat="39.056735" lon="-0.212086">
        <ele>2.219</ele>
        <time>2019-06-15T11:01:23Z</time>
      </trkpt>
      <trkpt lat="39.056680" lon="-0.212054">
        <ele>2.013</ele>
        <time>2019-06-15T11:01:24Z</time>
      </trkpt>
      <trkpt lat="39.056633" lon="-0.212024">
        <ele>2.042</ele>
        <time>2019-06-15T11:01:25Z</time>
      </trkpt>
      <trkpt lat="39.056579" lon="-0.211995">
        <ele>2.055</ele>
        <time>2019-06-15T11:01:26Z</time>
      </trkpt>
      <trkpt lat="39.056522" lon="-0.211973">
        <ele>2.077</ele>
        <time>2019-06-15T11:01:27Z</time>
      </trkpt>
      <trkpt lat="39.056421" lon="-0.211949">
        <ele>2.054</ele>
        <time>2019-06-15T11:01:29Z</time>
      </trkpt>
      <trkpt lat="39.056365" lon="-0.211929">
        <ele>2.063</ele>
        <time>2019-06-15T11:01:31Z</time>
      </trkpt>
      <trkpt lat="39.056321" lon="-0.211897">
        <ele>2.048</ele>
        <time>2019-06-15T11:01:33Z</time>
      </trkpt>
      <trkpt lat="39.056276" lon="-0.211848">
        <ele>2.045</ele>
        <time>2019-06-15T11:01:35Z</time>
      </trkpt>
      <trkpt lat="39.056235" lon="-0.211811">
        <ele>2.047</ele>
        <time>2019-06-15T11:01:37Z</time>
      </trkpt>
      <trkpt lat="39.056184" lon="-0.211783">
        <ele>2.011</ele>
        <time>2019-06-15T11:01:39Z</time>
      </trkpt>
      <trkpt lat="39.056098" lon="-0.211717">
        <ele>2.008</ele>
        <time>2019-06-15T11:01:40Z</time>
      </trkpt>
      <trkpt lat="39.056027" lon="-0.211697">
        <ele>2.017</ele>
        <time>2019-06-15T11:01:42Z</time>
      </trkpt>
      <trkpt lat="39.055953" lon="-0.211652">
        <ele>2.011</ele>
        <time>2019-06-15T11:01:44Z</time>
      </trkpt>
      <trkpt lat="39.055910" lon="-0.211624">
        <ele>2.020</ele>
        <time>2019-06-15T11:01:45Z</time>
      </trkpt>
      <trkpt lat="39.055864" lon="-0.211609">
        <ele>2.073</ele>
        <time>2019-06-15T11:01:46Z</time>
      </trkpt>
      <trkpt lat="39.055817" lon="-0.211588">
        <ele>2.025</ele>
        <time>2019-06-15T11:01:47Z</time>
      </trkpt>
      <trkpt lat="39.055776" lon="-0.211559">
        <ele>2.042</ele>
        <time>2019-06-15T11:01:48Z</time>
      </trkpt>
      <trkpt lat="39.055703" lon="-0.211522">
        <ele>2.071</ele>
        <time>2019-06-15T11:01:50Z</time>
      </trkpt>
      <trkpt lat="39.055622" lon="-0.211484">
        <ele>2.076</ele>
        <time>2019-06-15T11:01:52Z</time>
      </trkpt>
      <trkpt lat="39.055551" lon="-0.211451">
        <ele>2.075</ele>
        <time>2019-06-15T11:01:54Z</time>
      </trkpt>
      <trkpt lat="39.055515" lon="-0.211415">
        <ele>2.028</ele>
        <time>2019-06-15T11:01:56Z</time>
      </trkpt>
      <trkpt lat="39.055466" lon="-0.211366">
        <ele>1.920</ele>
        <time>2019-06-15T11:01:58Z</time>
      </trkpt>
      <trkpt lat="39.055418" lon="-0.211312">
        <ele>1.908</ele>
        <time>2019-06-15T11:02:00Z</time>
      </trkpt>
      <trkpt lat="39.055370" lon="-0.211279">
        <ele>1.910</ele>
        <time>2019-06-15T11:02:02Z</time>
      </trkpt>
      <trkpt lat="39.055326" lon="-0.211262">
        <ele>1.964</ele>
        <time>2019-06-15T11:02:04Z</time>
      </trkpt>
      <trkpt lat="39.055275" lon="-0.211267">
        <ele>2.063</ele>
        <time>2019-06-15T11:02:06Z</time>
      </trkpt>
      <trkpt lat="39.055206" lon="-0.211245">
        <ele>2.056</ele>
        <time>2019-06-15T11:02:08Z</time>
      </trkpt>
      <trkpt lat="39.055143" lon="-0.211190">
        <ele>2.058</ele>
        <time>2019-06-15T11:02:10Z</time>
      </trkpt>
      <trkpt lat="39.055093" lon="-0.211187">
        <ele>2.015</ele>
        <time>2019-06-15T11:02:12Z</time>
      </trkpt>
      <trkpt lat="39.054967" lon="-0.211150">
        <ele>2.074</ele>
        <time>2019-06-15T11:02:15Z</time>
      </trkpt>
      <trkpt lat="39.054920" lon="-0.211146">
        <ele>2.059</ele>
        <time>2019-06-15T11:02:17Z</time>
      </trkpt>
      <trkpt lat="39.054865" lon="-0.211125">
        <ele>2.043</ele>
        <time>2019-06-15T11:02:18Z</time>
      </trkpt>
      <trkpt lat="39.054806" lon="-0.211036">
        <ele>2.264</ele>
        <time>2019-06-15T11:02:20Z</time>
      </trkpt>
      <trkpt lat="39.054777" lon="-0.210988">
        <ele>2.410</ele>
        <time>2019-06-15T11:02:21Z</time>
      </trkpt>
      <trkpt lat="39.054741" lon="-0.210940">
        <ele>2.608</ele>
        <time>2019-06-15T11:02:22Z</time>
      </trkpt>
      <trkpt lat="39.054709" lon="-0.210892">
        <ele>2.867</ele>
        <time>2019-06-15T11:02:23Z</time>
      </trkpt>
      <trkpt lat="39.054653" lon="-0.210808">
        <ele>3.081</ele>
        <time>2019-06-15T11:02:25Z</time>
      </trkpt>
      <trkpt lat="39.054616" lon="-0.210745">
        <ele>3.120</ele>
        <time>2019-06-15T11:02:27Z</time>
      </trkpt>
      <trkpt lat="39.054559" lon="-0.210648">
        <ele>3.483</ele>
        <time>2019-06-15T11:02:29Z</time>
      </trkpt>
      <trkpt lat="39.054426" lon="-0.210536">
        <ele>3.965</ele>
        <time>2019-06-15T11:02:32Z</time>
      </trkpt>
      <trkpt lat="39.054368" lon="-0.210492">
        <ele>3.862</ele>
        <time>2019-06-15T11:02:34Z</time>
      </trkpt>
      <trkpt lat="39.054327" lon="-0.210461">
        <ele>3.791</ele>
        <time>2019-06-15T11:02:35Z</time>
      </trkpt>
      <trkpt lat="39.054265" lon="-0.210407">
        <ele>3.756</ele>
        <time>2019-06-15T11:02:37Z</time>
      </trkpt>
      <trkpt lat="39.054218" lon="-0.210365">
        <ele>3.725</ele>
        <time>2019-06-15T11:02:38Z</time>
      </trkpt>
      <trkpt lat="39.054134" lon="-0.210303">
        <ele>3.826</ele>
        <time>2019-06-15T11:02:40Z</time>
      </trkpt>
      <trkpt lat="39.054030" lon="-0.210272">
        <ele>3.508</ele>
        <time>2019-06-15T11:02:41Z</time>
      </trkpt>
      <trkpt lat="39.053961" lon="-0.210272">
        <ele>3.308</ele>
        <time>2019-06-15T11:02:42Z</time>
      </trkpt>
      <trkpt lat="39.053900" lon="-0.210277">
        <ele>3.025</ele>
        <time>2019-06-15T11:02:43Z</time>
      </trkpt>
      <trkpt lat="39.053851" lon="-0.210194">
        <ele>3.359</ele>
        <time>2019-06-15T11:02:45Z</time>
      </trkpt>
      <trkpt lat="39.053790" lon="-0.210170">
        <ele>3.268</ele>
        <time>2019-06-15T11:02:46Z</time>
      </trkpt>
      <trkpt lat="39.053732" lon="-0.210145">
        <ele>3.221</ele>
        <time>2019-06-15T11:02:47Z</time>
      </trkpt>
      <trkpt lat="39.053675" lon="-0.210133">
        <ele>3.163</ele>
        <time>2019-06-15T11:02:48Z</time>
      </trkpt>
      <trkpt lat="39.053619" lon="-0.210132">
        <ele>3.090</ele>
        <time>2019-06-15T11:02:49Z</time>
      </trkpt>
      <trkpt lat="39.053541" lon="-0.210128">
        <ele>2.719</ele>
        <time>2019-06-15T11:02:50Z</time>
      </trkpt>
      <trkpt lat="39.053476" lon="-0.210114">
        <ele>2.574</ele>
        <time>2019-06-15T11:02:51Z</time>
      </trkpt>
      <trkpt lat="39.053416" lon="-0.210109">
        <ele>2.376</ele>
        <time>2019-06-15T11:02:52Z</time>
      </trkpt>
      <trkpt lat="39.053377" lon="-0.210073">
        <ele>2.290</ele>
        <time>2019-06-15T11:02:53Z</time>
      </trkpt>
      <trkpt lat="39.053279" lon="-0.210032">
        <ele>1.819</ele>
        <time>2019-06-15T11:02:55Z</time>
      </trkpt>
      <trkpt lat="39.053227" lon="-0.210003">
        <ele>1.608</ele>
        <time>2019-06-15T11:02:56Z</time>
      </trkpt>
      <trkpt lat="39.053188" lon="-0.209963">
        <ele>1.440</ele>
        <time>2019-06-15T11:02:57Z</time>
      </trkpt>
      <trkpt lat="39.053134" lon="-0.209946">
        <ele>1.224</ele>
        <time>2019-06-15T11:02:58Z</time>
      </trkpt>
      <trkpt lat="39.053080" lon="-0.209936">
        <ele>1.193</ele>
        <time>2019-06-15T11:02:59Z</time>
      </trkpt>
      <trkpt lat="39.053027" lon="-0.209927">
        <ele>1.196</ele>
        <time>2019-06-15T11:03:00Z</time>
      </trkpt>
      <trkpt lat="39.052977" lon="-0.209902">
        <ele>1.238</ele>
        <time>2019-06-15T11:03:01Z</time>
      </trkpt>
      <trkpt lat="39.052929" lon="-0.209881">
        <ele>1.375</ele>
        <time>2019-06-15T11:03:02Z</time>
      </trkpt>
      <trkpt lat="39.052878" lon="-0.209862">
        <ele>1.324</ele>
        <time>2019-06-15T11:03:03Z</time>
      </trkpt>
      <trkpt lat="39.052830" lon="-0.209842">
        <ele>1.489</ele>
        <time>2019-06-15T11:03:04Z</time>
      </trkpt>
      <trkpt lat="39.052784" lon="-0.209814">
        <ele>1.352</ele>
        <time>2019-06-15T11:03:05Z</time>
      </trkpt>
      <trkpt lat="39.052728" lon="-0.209795">
        <ele>1.353</ele>
        <time>2019-06-15T11:03:06Z</time>
      </trkpt>
      <trkpt lat="39.052679" lon="-0.209770">
        <ele>1.208</ele>
        <time>2019-06-15T11:03:07Z</time>
      </trkpt>
      <trkpt lat="39.052629" lon="-0.209744">
        <ele>1.108</ele>
        <time>2019-06-15T11:03:08Z</time>
      </trkpt>
      <trkpt lat="39.052585" lon="-0.209720">
        <ele>1.078</ele>
        <time>2019-06-15T11:03:09Z</time>
      </trkpt>
      <trkpt lat="39.052541" lon="-0.209694">
        <ele>1.082</ele>
        <time>2019-06-15T11:03:10Z</time>
      </trkpt>
      <trkpt lat="39.052490" lon="-0.209668">
        <ele>1.051</ele>
        <time>2019-06-15T11:03:11Z</time>
      </trkpt>
      <trkpt lat="39.052446" lon="-0.209637">
        <ele>0.864</ele>
        <time>2019-06-15T11:03:12Z</time>
      </trkpt>
      <trkpt lat="39.052392" lon="-0.209622">
        <ele>0.616</ele>
        <time>2019-06-15T11:03:13Z</time>
      </trkpt>
      <trkpt lat="39.052340" lon="-0.209592">
        <ele>0.413</ele>
        <time>2019-06-15T11:03:14Z</time>
      </trkpt>
      <trkpt lat="39.052291" lon="-0.209569">
        <ele>0.222</ele>
        <time>2019-06-15T11:03:15Z</time>
      </trkpt>
      <trkpt lat="39.052246" lon="-0.209544">
        <ele>0.147</ele>
        <time>2019-06-15T11:03:16Z</time>
      </trkpt>
      <trkpt lat="39.052190" lon="-0.209519">
        <ele>0.013</ele>
        <time>2019-06-15T11:03:17Z</time>
      </trkpt>
      <trkpt lat="39.052134" lon="-0.209500">
        <ele>0.043</ele>
        <time>2019-06-15T11:03:18Z</time>
      </trkpt>
      <trkpt lat="39.052079" lon="-0.209475">
        <ele>0.007</ele>
        <time>2019-06-15T11:03:19Z</time>
      </trkpt>
      <trkpt lat="39.052020" lon="-0.209450">
        <ele>0.008</ele>
        <time>2019-06-15T11:03:20Z</time>
      </trkpt>
      <trkpt lat="39.051964" lon="-0.209422">
        <ele>0.044</ele>
        <time>2019-06-15T11:03:21Z</time>
      </trkpt>
      <trkpt lat="39.051912" lon="-0.209394">
        <ele>0.238</ele>
        <time>2019-06-15T11:03:22Z</time>
      </trkpt>
      <trkpt lat="39.051865" lon="-0.209359">
        <ele>0.647</ele>
        <time>2019-06-15T11:03:23Z</time>
      </trkpt>
      <trkpt lat="39.051813" lon="-0.209328">
        <ele>0.930</ele>
        <time>2019-06-15T11:03:24Z</time>
      </trkpt>
      <trkpt lat="39.051764" lon="-0.209307">
        <ele>1.342</ele>
        <time>2019-06-15T11:03:25Z</time>
      </trkpt>
      <trkpt lat="39.051711" lon="-0.209276">
        <ele>1.789</ele>
        <time>2019-06-15T11:03:26Z</time>
      </trkpt>
      <trkpt lat="39.051664" lon="-0.209242">
        <ele>2.048</ele>
        <time>2019-06-15T11:03:27Z</time>
      </trkpt>
      <trkpt lat="39.051608" lon="-0.209206">
        <ele>2.273</ele>
        <time>2019-06-15T11:03:28Z</time>
      </trkpt>
      <trkpt lat="39.051552" lon="-0.209171">
        <ele>2.464</ele>
        <time>2019-06-15T11:03:29Z</time>
      </trkpt>
      <trkpt lat="39.051509" lon="-0.209145">
        <ele>2.606</ele>
        <time>2019-06-15T11:03:30Z</time>
      </trkpt>
      <trkpt lat="39.051465" lon="-0.209110">
        <ele>2.716</ele>
        <time>2019-06-15T11:03:31Z</time>
      </trkpt>
      <trkpt lat="39.051368" lon="-0.209063">
        <ele>3.008</ele>
        <time>2019-06-15T11:03:33Z</time>
      </trkpt>
      <trkpt lat="39.051324" lon="-0.209032">
        <ele>3.119</ele>
        <time>2019-06-15T11:03:34Z</time>
      </trkpt>
      <trkpt lat="39.051287" lon="-0.208973">
        <ele>3.373</ele>
        <time>2019-06-15T11:03:35Z</time>
      </trkpt>
      <trkpt lat="39.051244" lon="-0.208949">
        <ele>3.432</ele>
        <time>2019-06-15T11:03:36Z</time>
      </trkpt>
      <trkpt lat="39.051204" lon="-0.208905">
        <ele>3.655</ele>
        <time>2019-06-15T11:03:37Z</time>
      </trkpt>
      <trkpt lat="39.051157" lon="-0.208866">
        <ele>3.897</ele>
        <time>2019-06-15T11:03:38Z</time>
      </trkpt>
      <trkpt lat="39.051112" lon="-0.208828">
        <ele>4.094</ele>
        <time>2019-06-15T11:03:39Z</time>
      </trkpt>
      <trkpt lat="39.051013" lon="-0.208783">
        <ele>3.543</ele>
        <time>2019-06-15T11:03:41Z</time>
      </trkpt>
      <trkpt lat="39.050962" lon="-0.208737">
        <ele>3.278</ele>
        <time>2019-06-15T11:03:42Z</time>
      </trkpt>
      <trkpt lat="39.050890" lon="-0.208725">
        <ele>2.717</ele>
        <time>2019-06-15T11:03:43Z</time>
      </trkpt>
      <trkpt lat="39.050839" lon="-0.208684">
        <ele>2.387</ele>
        <time>2019-06-15T11:03:44Z</time>
      </trkpt>
      <trkpt lat="39.050779" lon="-0.208664">
        <ele>1.815</ele>
        <time>2019-06-15T11:03:45Z</time>
      </trkpt>
      <trkpt lat="39.050722" lon="-0.208644">
        <ele>1.408</ele>
        <time>2019-06-15T11:03:46Z</time>
      </trkpt>
      <trkpt lat="39.050663" lon="-0.208586">
        <ele>0.764</ele>
        <time>2019-06-15T11:03:48Z</time>
      </trkpt>
      <trkpt lat="39.050574" lon="-0.208638">
        <ele>0.368</ele>
        <time>2019-06-15T11:03:49Z</time>
      </trkpt>
      <trkpt lat="39.050595" lon="-0.208523">
        <ele>0.267</ele>
        <time>2019-06-15T11:03:50Z</time>
      </trkpt>
      <trkpt lat="39.050542" lon="-0.208483">
        <ele>0.180</ele>
        <time>2019-06-15T11:03:51Z</time>
      </trkpt>
      <trkpt lat="39.050490" lon="-0.208439">
        <ele>0.362</ele>
        <time>2019-06-15T11:03:52Z</time>
      </trkpt>
      <trkpt lat="39.050423" lon="-0.208410">
        <ele>0.629</ele>
        <time>2019-06-15T11:03:53Z</time>
      </trkpt>
      <trkpt lat="39.050374" lon="-0.208360">
        <ele>0.758</ele>
        <time>2019-06-15T11:03:54Z</time>
      </trkpt>
      <trkpt lat="39.050346" lon="-0.208297">
        <ele>0.943</ele>
        <time>2019-06-15T11:03:55Z</time>
      </trkpt>
      <trkpt lat="39.050310" lon="-0.208226">
        <ele>1.337</ele>
        <time>2019-06-15T11:03:56Z</time>
      </trkpt>
      <trkpt lat="39.050264" lon="-0.208164">
        <ele>1.749</ele>
        <time>2019-06-15T11:03:57Z</time>
      </trkpt>
      <trkpt lat="39.050208" lon="-0.208129">
        <ele>2.313</ele>
        <time>2019-06-15T11:03:58Z</time>
      </trkpt>
      <trkpt lat="39.050145" lon="-0.208064">
        <ele>2.908</ele>
        <time>2019-06-15T11:03:59Z</time>
      </trkpt>
      <trkpt lat="39.050091" lon="-0.208016">
        <ele>3.446</ele>
        <time>2019-06-15T11:04:00Z</time>
      </trkpt>
      <trkpt lat="39.050041" lon="-0.207957">
        <ele>3.850</ele>
        <time>2019-06-15T11:04:01Z</time>
      </trkpt>
      <trkpt lat="39.050027" lon="-0.207883">
        <ele>3.929</ele>
        <time>2019-06-15T11:04:02Z</time>
      </trkpt>
      <trkpt lat="39.049999" lon="-0.207830">
        <ele>4.032</ele>
        <time>2019-06-15T11:04:03Z</time>
      </trkpt>
      <trkpt lat="39.049956" lon="-0.207781">
        <ele>4.324</ele>
        <time>2019-06-15T11:04:04Z</time>
      </trkpt>
      <trkpt lat="39.049916" lon="-0.207688">
        <ele>4.451</ele>
        <time>2019-06-15T11:04:05Z</time>
      </trkpt>
      <trkpt lat="39.049863" lon="-0.207660">
        <ele>4.810</ele>
        <time>2019-06-15T11:04:06Z</time>
      </trkpt>
      <trkpt lat="39.049803" lon="-0.207679">
        <ele>5.335</ele>
        <time>2019-06-15T11:04:07Z</time>
      </trkpt>
      <trkpt lat="39.049759" lon="-0.207634">
        <ele>5.783</ele>
        <time>2019-06-15T11:04:08Z</time>
      </trkpt>
      <trkpt lat="39.049717" lon="-0.207606">
        <ele>6.025</ele>
        <time>2019-06-15T11:04:09Z</time>
      </trkpt>
      <trkpt lat="39.049675" lon="-0.207560">
        <ele>5.817</ele>
        <time>2019-06-15T11:04:10Z</time>
      </trkpt>
      <trkpt lat="39.049625" lon="-0.207514">
        <ele>5.708</ele>
        <time>2019-06-15T11:04:11Z</time>
      </trkpt>
      <trkpt lat="39.049569" lon="-0.207462">
        <ele>5.491</ele>
        <time>2019-06-15T11:04:12Z</time>
      </trkpt>
      <trkpt lat="39.049511" lon="-0.207403">
        <ele>5.275</ele>
        <time>2019-06-15T11:04:13Z</time>
      </trkpt>
      <trkpt lat="39.049441" lon="-0.207360">
        <ele>5.074</ele>
        <time>2019-06-15T11:04:14Z</time>
      </trkpt>
      <trkpt lat="39.049407" lon="-0.207307">
        <ele>4.957</ele>
        <time>2019-06-15T11:04:15Z</time>
      </trkpt>
      <trkpt lat="39.049351" lon="-0.207277">
        <ele>4.719</ele>
        <time>2019-06-15T11:04:16Z</time>
      </trkpt>
      <trkpt lat="39.049295" lon="-0.207251">
        <ele>4.576</ele>
        <time>2019-06-15T11:04:17Z</time>
      </trkpt>
      <trkpt lat="39.049210" lon="-0.207193">
        <ele>4.085</ele>
        <time>2019-06-15T11:04:19Z</time>
      </trkpt>
      <trkpt lat="39.049153" lon="-0.207174">
        <ele>3.760</ele>
        <time>2019-06-15T11:04:20Z</time>
      </trkpt>
      <trkpt lat="39.049117" lon="-0.207134">
        <ele>3.478</ele>
        <time>2019-06-15T11:04:21Z</time>
      </trkpt>
      <trkpt lat="39.049087" lon="-0.207087">
        <ele>3.233</ele>
        <time>2019-06-15T11:04:22Z</time>
      </trkpt>
      <trkpt lat="39.049014" lon="-0.207009">
        <ele>3.026</ele>
        <time>2019-06-15T11:04:24Z</time>
      </trkpt>
      <trkpt lat="39.048970" lon="-0.206977">
        <ele>3.008</ele>
        <time>2019-06-15T11:04:25Z</time>
      </trkpt>
      <trkpt lat="39.048916" lon="-0.206942">
        <ele>3.070</ele>
        <time>2019-06-15T11:04:26Z</time>
      </trkpt>
      <trkpt lat="39.048854" lon="-0.206899">
        <ele>2.894</ele>
        <time>2019-06-15T11:04:27Z</time>
      </trkpt>
      <trkpt lat="39.048799" lon="-0.206891">
        <ele>2.473</ele>
        <time>2019-06-15T11:04:28Z</time>
      </trkpt>
      <trkpt lat="39.048750" lon="-0.206845">
        <ele>2.216</ele>
        <time>2019-06-15T11:04:29Z</time>
      </trkpt>
      <trkpt lat="39.048688" lon="-0.206792">
        <ele>1.968</ele>
        <time>2019-06-15T11:04:30Z</time>
      </trkpt>
      <trkpt lat="39.048651" lon="-0.206749">
        <ele>1.945</ele>
        <time>2019-06-15T11:04:31Z</time>
      </trkpt>
      <trkpt lat="39.048599" lon="-0.206754">
        <ele>1.684</ele>
        <time>2019-06-15T11:04:32Z</time>
      </trkpt>
      <trkpt lat="39.048559" lon="-0.206680">
        <ele>1.889</ele>
        <time>2019-06-15T11:04:33Z</time>
      </trkpt>
      <trkpt lat="39.048482" lon="-0.206642">
        <ele>1.661</ele>
        <time>2019-06-15T11:04:35Z</time>
      </trkpt>
      <trkpt lat="39.048448" lon="-0.206587">
        <ele>1.721</ele>
        <time>2019-06-15T11:04:36Z</time>
      </trkpt>
      <trkpt lat="39.048412" lon="-0.206543">
        <ele>1.713</ele>
        <time>2019-06-15T11:04:37Z</time>
      </trkpt>
      <trkpt lat="39.048333" lon="-0.206489">
        <ele>1.608</ele>
        <time>2019-06-15T11:04:39Z</time>
      </trkpt>
      <trkpt lat="39.048286" lon="-0.206450">
        <ele>1.899</ele>
        <time>2019-06-15T11:04:40Z</time>
      </trkpt>
      <trkpt lat="39.048237" lon="-0.206391">
        <ele>2.083</ele>
        <time>2019-06-15T11:04:41Z</time>
      </trkpt>
      <trkpt lat="39.048192" lon="-0.206361">
        <ele>2.142</ele>
        <time>2019-06-15T11:04:42Z</time>
      </trkpt>
      <trkpt lat="39.048170" lon="-0.206310">
        <ele>2.325</ele>
        <time>2019-06-15T11:04:43Z</time>
      </trkpt>
      <trkpt lat="39.048111" lon="-0.206343">
        <ele>2.247</ele>
        <time>2019-06-15T11:04:44Z</time>
      </trkpt>
      <trkpt lat="39.048074" lon="-0.206279">
        <ele>2.484</ele>
        <time>2019-06-15T11:04:45Z</time>
      </trkpt>
      <trkpt lat="39.048101" lon="-0.206221">
        <ele>2.693</ele>
        <time>2019-06-15T11:04:51Z</time>
      </trkpt>
      <trkpt lat="39.048065" lon="-0.206170">
        <ele>2.848</ele>
        <time>2019-06-15T11:05:37Z</time>
      </trkpt>
      <trkpt lat="39.048031" lon="-0.206101">
        <ele>3.135</ele>
        <time>2019-06-15T11:05:39Z</time>
      </trkpt>
      <trkpt lat="39.047920" lon="-0.205968">
        <ele>3.586</ele>
        <time>2019-06-15T11:05:41Z</time>
      </trkpt>
      <trkpt lat="39.047860" lon="-0.205896">
        <ele>3.714</ele>
        <time>2019-06-15T11:05:43Z</time>
      </trkpt>
      <trkpt lat="39.047806" lon="-0.205864">
        <ele>3.908</ele>
        <time>2019-06-15T11:05:44Z</time>
      </trkpt>
      <trkpt lat="39.047727" lon="-0.205781">
        <ele>3.826</ele>
        <time>2019-06-15T11:05:47Z</time>
      </trkpt>
      <trkpt lat="39.047642" lon="-0.205699">
        <ele>3.590</ele>
        <time>2019-06-15T11:05:50Z</time>
      </trkpt>
      <trkpt lat="39.047589" lon="-0.205660">
        <ele>3.499</ele>
        <time>2019-06-15T11:05:52Z</time>
      </trkpt>
      <trkpt lat="39.047551" lon="-0.205629">
        <ele>3.332</ele>
        <time>2019-06-15T11:05:53Z</time>
      </trkpt>
      <trkpt lat="39.047482" lon="-0.205579">
        <ele>3.124</ele>
        <time>2019-06-15T11:05:55Z</time>
      </trkpt>
      <trkpt lat="39.047409" lon="-0.205529">
        <ele>3.091</ele>
        <time>2019-06-15T11:05:57Z</time>
      </trkpt>
      <trkpt lat="39.047325" lon="-0.205492">
        <ele>3.070</ele>
        <time>2019-06-15T11:05:59Z</time>
      </trkpt>
      <trkpt lat="39.047241" lon="-0.205480">
        <ele>3.045</ele>
        <time>2019-06-15T11:06:00Z</time>
      </trkpt>
      <trkpt lat="39.047175" lon="-0.205462">
        <ele>2.794</ele>
        <time>2019-06-15T11:06:01Z</time>
      </trkpt>
      <trkpt lat="39.047128" lon="-0.205455">
        <ele>2.457</ele>
        <time>2019-06-15T11:06:02Z</time>
      </trkpt>
      <trkpt lat="39.047079" lon="-0.205441">
        <ele>2.222</ele>
        <time>2019-06-15T11:06:03Z</time>
      </trkpt>
      <trkpt lat="39.047025" lon="-0.205455">
        <ele>1.808</ele>
        <time>2019-06-15T11:06:05Z</time>
      </trkpt>
      <trkpt lat="39.046917" lon="-0.205459">
        <ele>1.242</ele>
        <time>2019-06-15T11:06:07Z</time>
      </trkpt>
      <trkpt lat="39.046837" lon="-0.205438">
        <ele>1.026</ele>
        <time>2019-06-15T11:06:09Z</time>
      </trkpt>
      <trkpt lat="39.046782" lon="-0.205442">
        <ele>0.895</ele>
        <time>2019-06-15T11:06:10Z</time>
      </trkpt>
      <trkpt lat="39.046736" lon="-0.205455">
        <ele>0.618</ele>
        <time>2019-06-15T11:06:11Z</time>
      </trkpt>
      <trkpt lat="39.046658" lon="-0.205483">
        <ele>0.340</ele>
        <time>2019-06-15T11:06:13Z</time>
      </trkpt>
      <trkpt lat="39.046586" lon="-0.205491">
        <ele>0.557</ele>
        <time>2019-06-15T11:06:15Z</time>
      </trkpt>
      <trkpt lat="39.046533" lon="-0.205469">
        <ele>0.656</ele>
        <time>2019-06-15T11:06:16Z</time>
      </trkpt>
      <trkpt lat="39.046444" lon="-0.205481">
        <ele>0.911</ele>
        <time>2019-06-15T11:06:18Z</time>
      </trkpt>
      <trkpt lat="39.046397" lon="-0.205494">
        <ele>1.078</ele>
        <time>2019-06-15T11:06:19Z</time>
      </trkpt>
      <trkpt lat="39.046304" lon="-0.205511">
        <ele>1.033</ele>
        <time>2019-06-15T11:06:21Z</time>
      </trkpt>
      <trkpt lat="39.046198" lon="-0.205506">
        <ele>1.126</ele>
        <time>2019-06-15T11:06:23Z</time>
      </trkpt>
      <trkpt lat="39.046146" lon="-0.205503">
        <ele>1.208</ele>
        <time>2019-06-15T11:06:24Z</time>
      </trkpt>
      <trkpt lat="39.046058" lon="-0.205491">
        <ele>1.530</ele>
        <time>2019-06-15T11:06:26Z</time>
      </trkpt>
      <trkpt lat="39.046005" lon="-0.205508">
        <ele>1.854</ele>
        <time>2019-06-15T11:06:27Z</time>
      </trkpt>
      <trkpt lat="39.045955" lon="-0.205495">
        <ele>2.163</ele>
        <time>2019-06-15T11:06:28Z</time>
      </trkpt>
      <trkpt lat="39.045896" lon="-0.205504">
        <ele>2.496</ele>
        <time>2019-06-15T11:06:29Z</time>
      </trkpt>
      <trkpt lat="39.045812" lon="-0.205524">
        <ele>3.038</ele>
        <time>2019-06-15T11:06:31Z</time>
      </trkpt>
      <trkpt lat="39.045730" lon="-0.205546">
        <ele>3.415</ele>
        <time>2019-06-15T11:06:33Z</time>
      </trkpt>
      <trkpt lat="39.045676" lon="-0.205692">
        <ele>3.124</ele>
        <time>2019-06-15T11:06:37Z</time>
      </trkpt>
      <trkpt lat="39.045676" lon="-0.205692">
        <ele>3.169</ele>
        <time>2019-06-15T11:06:37Z</time>
      </trkpt>
      <trkpt lat="39.045676" lon="-0.205692">
        <ele>3.192</ele>
        <time>2019-06-15T11:06:37Z</time>
      </trkpt>
      <trkpt lat="39.045676" lon="-0.205692">
        <ele>3.173</ele>
        <time>2019-06-15T11:06:37Z</time>
      </trkpt>
      <trkpt lat="39.045687" lon="-0.205944">
        <ele>2.320</ele>
        <time>2019-06-15T11:06:42Z</time>
      </trkpt>
      <trkpt lat="39.045687" lon="-0.205944">
        <ele>2.308</ele>
        <time>2019-06-15T11:06:42Z</time>
      </trkpt>
      <trkpt lat="39.045687" lon="-0.205944">
        <ele>2.372</ele>
        <time>2019-06-15T11:06:42Z</time>
      </trkpt>
      <trkpt lat="39.045687" lon="-0.205944">
        <ele>2.356</ele>
        <time>2019-06-15T11:06:42Z</time>
      </trkpt>
      <trkpt lat="39.045687" lon="-0.205944">
        <ele>2.345</ele>
        <time>2019-06-15T11:06:42Z</time>
      </trkpt>
      <trkpt lat="39.045750" lon="-0.206099">
        <ele>2.068</ele>
        <time>2019-06-15T11:06:45Z</time>
      </trkpt>
      <trkpt lat="39.045750" lon="-0.206099">
        <ele>2.090</ele>
        <time>2019-06-15T11:06:45Z</time>
      </trkpt>
      <trkpt lat="39.045750" lon="-0.206099">
        <ele>2.017</ele>
        <time>2019-06-15T11:06:45Z</time>
      </trkpt>
      <trkpt lat="39.045944" lon="-0.206268">
        <ele>2.636</ele>
        <time>2019-06-15T11:06:51Z</time>
      </trkpt>
      <trkpt lat="39.045944" lon="-0.206268">
        <ele>2.661</ele>
        <time>2019-06-15T11:06:51Z</time>
      </trkpt>
      <trkpt lat="39.045944" lon="-0.206268">
        <ele>2.681</ele>
        <time>2019-06-15T11:06:51Z</time>
      </trkpt>
      <trkpt lat="39.045944" lon="-0.206268">
        <ele>2.661</ele>
        <time>2019-06-15T11:06:51Z</time>
      </trkpt>
      <trkpt lat="39.045944" lon="-0.206268">
        <ele>2.617</ele>
        <time>2019-06-15T11:06:51Z</time>
      </trkpt>
      <trkpt lat="39.045944" lon="-0.206268">
        <ele>2.608</ele>
        <time>2019-06-15T11:06:51Z</time>
      </trkpt>
      <trkpt lat="39.046059" lon="-0.206283">
        <ele>3.351</ele>
        <time>2019-06-15T11:06:55Z</time>
      </trkpt>
      <trkpt lat="39.046059" lon="-0.206283">
        <ele>3.385</ele>
        <time>2019-06-15T11:06:55Z</time>
      </trkpt>
      <trkpt lat="39.046059" lon="-0.206283">
        <ele>3.334</ele>
        <time>2019-06-15T11:06:55Z</time>
      </trkpt>
      <trkpt lat="39.046059" lon="-0.206283">
        <ele>3.397</ele>
        <time>2019-06-15T11:06:55Z</time>
      </trkpt>
      <trkpt lat="39.046000" lon="-0.206290">
        <ele>3.089</ele>
        <time>2019-06-15T11:08:55Z</time>
      </trkpt>
      <trkpt lat="39.045932" lon="-0.206247">
        <ele>2.516</ele>
        <time>2019-06-15T11:08:57Z</time>
      </trkpt>
      <trkpt lat="39.045881" lon="-0.206210">
        <ele>2.245</ele>
        <time>2019-06-15T11:08:59Z</time>
      </trkpt>
      <trkpt lat="39.045832" lon="-0.206169">
        <ele>2.070</ele>
        <time>2019-06-15T11:09:01Z</time>
      </trkpt>
      <trkpt lat="39.045787" lon="-0.206115">
        <ele>2.048</ele>
        <time>2019-06-15T11:09:03Z</time>
      </trkpt>
      <trkpt lat="39.045750" lon="-0.206057">
        <ele>2.061</ele>
        <time>2019-06-15T11:09:06Z</time>
      </trkpt>
      <trkpt lat="39.045704" lon="-0.205985">
        <ele>2.217</ele>
        <time>2019-06-15T11:09:09Z</time>
      </trkpt>
      <trkpt lat="39.045668" lon="-0.205931">
        <ele>2.508</ele>
        <time>2019-06-15T11:09:11Z</time>
      </trkpt>
      <trkpt lat="39.045622" lon="-0.205867">
        <ele>3.127</ele>
        <time>2019-06-15T11:09:14Z</time>
      </trkpt>
      <trkpt lat="39.045522" lon="-0.205823">
        <ele>4.111</ele>
        <time>2019-06-15T11:09:19Z</time>
      </trkpt>
      <trkpt lat="39.045522" lon="-0.205823">
        <ele>4.180</ele>
        <time>2019-06-15T11:09:19Z</time>
      </trkpt>
      <trkpt lat="39.045522" lon="-0.205823">
        <ele>4.113</ele>
        <time>2019-06-15T11:09:19Z</time>
      </trkpt>
      <trkpt lat="39.045522" lon="-0.205823">
        <ele>4.155</ele>
        <time>2019-06-15T11:09:19Z</time>
      </trkpt>
      <trkpt lat="39.045522" lon="-0.205823">
        <ele>4.122</ele>
        <time>2019-06-15T11:09:19Z</time>
      </trkpt>
      <trkpt lat="39.045363" lon="-0.205838">
        <ele>4.741</ele>
        <time>2019-06-15T11:09:22Z</time>
      </trkpt>
      <trkpt lat="39.045363" lon="-0.205838">
        <ele>4.786</ele>
        <time>2019-06-15T11:09:22Z</time>
      </trkpt>
      <trkpt lat="39.045363" lon="-0.205838">
        <ele>4.747</ele>
        <time>2019-06-15T11:09:22Z</time>
      </trkpt>
      <trkpt lat="39.045254" lon="-0.205786">
        <ele>4.829</ele>
        <time>2019-06-15T11:09:24Z</time>
      </trkpt>
      <trkpt lat="39.045254" lon="-0.205786">
        <ele>4.821</ele>
        <time>2019-06-15T11:09:24Z</time>
      </trkpt>
      <trkpt lat="39.045166" lon="-0.205675">
        <ele>4.008</ele>
        <time>2019-06-15T11:09:26Z</time>
      </trkpt>
      <trkpt lat="39.045166" lon="-0.205675">
        <ele>4.047</ele>
        <time>2019-06-15T11:09:26Z</time>
      </trkpt>
      <trkpt lat="39.045174" lon="-0.205156">
        <ele>2.261</ele>
        <time>2019-06-15T11:09:32Z</time>
      </trkpt>
      <trkpt lat="39.045174" lon="-0.205156">
        <ele>2.280</ele>
        <time>2019-06-15T11:09:32Z</time>
      </trkpt>
      <trkpt lat="39.045174" lon="-0.205156">
        <ele>2.233</ele>
        <time>2019-06-15T11:09:32Z</time>
      </trkpt>
      <trkpt lat="39.045174" lon="-0.205156">
        <ele>2.245</ele>
        <time>2019-06-15T11:09:32Z</time>
      </trkpt>
      <trkpt lat="39.045174" lon="-0.205156">
        <ele>2.212</ele>
        <time>2019-06-15T11:09:32Z</time>
      </trkpt>
      <trkpt lat="39.045174" lon="-0.205156">
        <ele>2.231</ele>
        <time>2019-06-15T11:09:32Z</time>
      </trkpt>
      <trkpt lat="39.045005" lon="-0.204907">
        <ele>1.046</ele>
        <time>2019-06-15T11:09:36Z</time>
      </trkpt>
      <trkpt lat="39.045005" lon="-0.204907">
        <ele>1.076</ele>
        <time>2019-06-15T11:09:36Z</time>
      </trkpt>
      <trkpt lat="39.045005" lon="-0.204907">
        <ele>1.090</ele>
        <time>2019-06-15T11:09:36Z</time>
      </trkpt>
      <trkpt lat="39.045005" lon="-0.204907">
        <ele>1.019</ele>
        <time>2019-06-15T11:09:36Z</time>
      </trkpt>
      <trkpt lat="39.044830" lon="-0.204790">
        <ele>1.008</ele>
        <time>2019-06-15T11:09:39Z</time>
      </trkpt>
      <trkpt lat="39.044830" lon="-0.204790">
        <ele>1.010</ele>
        <time>2019-06-15T11:09:39Z</time>
      </trkpt>
      <trkpt lat="39.044830" lon="-0.204790">
        <ele>1.034</ele>
        <time>2019-06-15T11:09:39Z</time>
      </trkpt>
      <trkpt lat="39.044593" lon="-0.204566">
        <ele>1.573</ele>
        <time>2019-06-15T11:09:43Z</time>
      </trkpt>
      <trkpt lat="39.044593" lon="-0.204566">
        <ele>1.566</ele>
        <time>2019-06-15T11:09:43Z</time>
      </trkpt>
      <trkpt lat="39.044593" lon="-0.204566">
        <ele>1.528</ele>
        <time>2019-06-15T11:09:43Z</time>
      </trkpt>
      <trkpt lat="39.044593" lon="-0.204566">
        <ele>1.585</ele>
        <time>2019-06-15T11:09:43Z</time>
      </trkpt>
      <trkpt lat="39.044221" lon="-0.204284">
        <ele>0.694</ele>
        <time>2019-06-15T11:09:49Z</time>
      </trkpt>
      <trkpt lat="39.044221" lon="-0.204284">
        <ele>0.629</ele>
        <time>2019-06-15T11:09:49Z</time>
      </trkpt>
      <trkpt lat="39.044221" lon="-0.204284">
        <ele>0.631</ele>
        <time>2019-06-15T11:09:49Z</time>
      </trkpt>
      <trkpt lat="39.044221" lon="-0.204284">
        <ele>0.661</ele>
        <time>2019-06-15T11:09:49Z</time>
      </trkpt>
      <trkpt lat="39.044221" lon="-0.204284">
        <ele>0.607</ele>
        <time>2019-06-15T11:09:49Z</time>
      </trkpt>
      <trkpt lat="39.044221" lon="-0.204284">
        <ele>0.608</ele>
        <time>2019-06-15T11:09:49Z</time>
      </trkpt>
      <trkpt lat="39.044089" lon="-0.204137">
        <ele>0.356</ele>
        <time>2019-06-15T11:09:51Z</time>
      </trkpt>
      <trkpt lat="39.044089" lon="-0.204137">
        <ele>0.340</ele>
        <time>2019-06-15T11:09:51Z</time>
      </trkpt>
      <trkpt lat="39.043900" lon="-0.203974">
        <ele>1.059</ele>
        <time>2019-06-15T11:09:54Z</time>
      </trkpt>
      <trkpt lat="39.043900" lon="-0.203974">
        <ele>1.092</ele>
        <time>2019-06-15T11:09:54Z</time>
      </trkpt>
      <trkpt lat="39.043900" lon="-0.203974">
        <ele>1.054</ele>
        <time>2019-06-15T11:09:54Z</time>
      </trkpt>
      <trkpt lat="39.043798" lon="-0.203973">
        <ele>1.041</ele>
        <time>2019-06-15T11:09:55Z</time>
      </trkpt>
      <trkpt lat="39.043727" lon="-0.203915">
        <ele>1.010</ele>
        <time>2019-06-15T11:09:56Z</time>
      </trkpt>
      <trkpt lat="39.043651" lon="-0.203901">
        <ele>1.045</ele>
        <time>2019-06-15T11:09:57Z</time>
      </trkpt>
      <trkpt lat="39.043573" lon="-0.203839">
        <ele>0.993</ele>
        <time>2019-06-15T11:09:58Z</time>
      </trkpt>
      <trkpt lat="39.043492" lon="-0.203769">
        <ele>0.665</ele>
        <time>2019-06-15T11:09:59Z</time>
      </trkpt>
      <trkpt lat="39.043441" lon="-0.203711">
        <ele>0.421</ele>
        <time>2019-06-15T11:10:00Z</time>
      </trkpt>
      <trkpt lat="39.043386" lon="-0.203635">
        <ele>0.208</ele>
        <time>2019-06-15T11:10:01Z</time>
      </trkpt>
      <trkpt lat="39.043304" lon="-0.203572">
        <ele>0.242</ele>
        <time>2019-06-15T11:10:02Z</time>
      </trkpt>
      <trkpt lat="39.043217" lon="-0.203472">
        <ele>0.746</ele>
        <time>2019-06-15T11:10:03Z</time>
      </trkpt>
      <trkpt lat="39.043169" lon="-0.203470">
        <ele>0.845</ele>
        <time>2019-06-15T11:10:05Z</time>
      </trkpt>
      <trkpt lat="39.043116" lon="-0.203340">
        <ele>1.038</ele>
        <time>2019-06-15T11:10:06Z</time>
      </trkpt>
      <trkpt lat="39.043056" lon="-0.203337">
        <ele>1.090</ele>
        <time>2019-06-15T11:10:07Z</time>
      </trkpt>
      <trkpt lat="39.043034" lon="-0.203266">
        <ele>1.237</ele>
        <time>2019-06-15T11:10:08Z</time>
      </trkpt>
      <trkpt lat="39.042964" lon="-0.203195">
        <ele>1.336</ele>
        <time>2019-06-15T11:10:09Z</time>
      </trkpt>
      <trkpt lat="39.042910" lon="-0.203122">
        <ele>1.641</ele>
        <time>2019-06-15T11:10:10Z</time>
      </trkpt>
      <trkpt lat="39.042851" lon="-0.203080">
        <ele>1.848</ele>
        <time>2019-06-15T11:10:11Z</time>
      </trkpt>
      <trkpt lat="39.042789" lon="-0.203072">
        <ele>1.961</ele>
        <time>2019-06-15T11:10:12Z</time>
      </trkpt>
      <trkpt lat="39.042672" lon="-0.202976">
        <ele>2.117</ele>
        <time>2019-06-15T11:10:13Z</time>
      </trkpt>
      <trkpt lat="39.042582" lon="-0.202858">
        <ele>2.208</ele>
        <time>2019-06-15T11:10:15Z</time>
      </trkpt>
      <trkpt lat="39.042494" lon="-0.202736">
        <ele>2.177</ele>
        <time>2019-06-15T11:10:17Z</time>
      </trkpt>
      <trkpt lat="39.042427" lon="-0.202644">
        <ele>2.221</ele>
        <time>2019-06-15T11:10:18Z</time>
      </trkpt>
      <trkpt lat="39.042362" lon="-0.202633">
        <ele>2.090</ele>
        <time>2019-06-15T11:10:19Z</time>
      </trkpt>
      <trkpt lat="39.042290" lon="-0.202599">
        <ele>1.763</ele>
        <time>2019-06-15T11:10:20Z</time>
      </trkpt>
      <trkpt lat="39.042247" lon="-0.202576">
        <ele>1.495</ele>
        <time>2019-06-15T11:10:21Z</time>
      </trkpt>
      <trkpt lat="39.042183" lon="-0.202555">
        <ele>1.252</ele>
        <time>2019-06-15T11:10:22Z</time>
      </trkpt>
      <trkpt lat="39.042073" lon="-0.202502">
        <ele>1.061</ele>
        <time>2019-06-15T11:10:23Z</time>
      </trkpt>
      <trkpt lat="39.041951" lon="-0.202446">
        <ele>0.896</ele>
        <time>2019-06-15T11:10:24Z</time>
      </trkpt>
      <trkpt lat="39.041899" lon="-0.202361">
        <ele>0.633</ele>
        <time>2019-06-15T11:10:25Z</time>
      </trkpt>
      <trkpt lat="39.041854" lon="-0.202308">
        <ele>0.423</ele>
        <time>2019-06-15T11:10:26Z</time>
      </trkpt>
      <trkpt lat="39.041802" lon="-0.202221">
        <ele>-0.015</ele>
        <time>2019-06-15T11:10:27Z</time>
      </trkpt>
      <trkpt lat="39.041745" lon="-0.202168">
        <ele>-0.108</ele>
        <time>2019-06-15T11:10:28Z</time>
      </trkpt>
      <trkpt lat="39.041690" lon="-0.202114">
        <ele>-0.046</ele>
        <time>2019-06-15T11:10:29Z</time>
      </trkpt>
      <trkpt lat="39.041583" lon="-0.202035">
        <ele>0.330</ele>
        <time>2019-06-15T11:10:30Z</time>
      </trkpt>
      <trkpt lat="39.041503" lon="-0.201943">
        <ele>0.619</ele>
        <time>2019-06-15T11:10:31Z</time>
      </trkpt>
      <trkpt lat="39.041451" lon="-0.201873">
        <ele>0.552</ele>
        <time>2019-06-15T11:10:33Z</time>
      </trkpt>
      <trkpt lat="39.041389" lon="-0.201787">
        <ele>0.494</ele>
        <time>2019-06-15T11:10:34Z</time>
      </trkpt>
      <trkpt lat="39.041332" lon="-0.201796">
        <ele>1.011</ele>
        <time>2019-06-15T11:10:35Z</time>
      </trkpt>
      <trkpt lat="39.041250" lon="-0.201738">
        <ele>1.690</ele>
        <time>2019-06-15T11:10:36Z</time>
      </trkpt>
      <trkpt lat="39.041198" lon="-0.201668">
        <ele>2.185</ele>
        <time>2019-06-15T11:10:37Z</time>
      </trkpt>
      <trkpt lat="39.041101" lon="-0.201613">
        <ele>3.065</ele>
        <time>2019-06-15T11:10:38Z</time>
      </trkpt>
      <trkpt lat="39.041044" lon="-0.201557">
        <ele>2.968</ele>
        <time>2019-06-15T11:10:39Z</time>
      </trkpt>
      <trkpt lat="39.040992" lon="-0.201515">
        <ele>2.814</ele>
        <time>2019-06-15T11:10:40Z</time>
      </trkpt>
      <trkpt lat="39.040933" lon="-0.201469">
        <ele>2.808</ele>
        <time>2019-06-15T11:10:41Z</time>
      </trkpt>
      <trkpt lat="39.040877" lon="-0.201409">
        <ele>2.949</ele>
        <time>2019-06-15T11:10:42Z</time>
      </trkpt>
      <trkpt lat="39.040817" lon="-0.201365">
        <ele>3.023</ele>
        <time>2019-06-15T11:10:43Z</time>
      </trkpt>
      <trkpt lat="39.040711" lon="-0.201285">
        <ele>2.532</ele>
        <time>2019-06-15T11:10:45Z</time>
      </trkpt>
      <trkpt lat="39.040665" lon="-0.201261">
        <ele>2.275</ele>
        <time>2019-06-15T11:10:46Z</time>
      </trkpt>
      <trkpt lat="39.040608" lon="-0.201209">
        <ele>2.027</ele>
        <time>2019-06-15T11:10:47Z</time>
      </trkpt>
      <trkpt lat="39.040544" lon="-0.201160">
        <ele>1.774</ele>
        <time>2019-06-15T11:10:48Z</time>
      </trkpt>
      <trkpt lat="39.040461" lon="-0.201110">
        <ele>1.343</ele>
        <time>2019-06-15T11:10:49Z</time>
      </trkpt>
      <trkpt lat="39.040411" lon="-0.201071">
        <ele>1.058</ele>
        <time>2019-06-15T11:10:50Z</time>
      </trkpt>
      <trkpt lat="39.040349" lon="-0.201007">
        <ele>0.865</ele>
        <time>2019-06-15T11:10:51Z</time>
      </trkpt>
      <trkpt lat="39.040289" lon="-0.200973">
        <ele>0.668</ele>
        <time>2019-06-15T11:10:52Z</time>
      </trkpt>
      <trkpt lat="39.040216" lon="-0.200935">
        <ele>1.014</ele>
        <time>2019-06-15T11:10:53Z</time>
      </trkpt>
      <trkpt lat="39.040145" lon="-0.200835">
        <ele>1.908</ele>
        <time>2019-06-15T11:10:54Z</time>
      </trkpt>
      <trkpt lat="39.040083" lon="-0.200786">
        <ele>2.699</ele>
        <time>2019-06-15T11:10:55Z</time>
      </trkpt>
      <trkpt lat="39.040019" lon="-0.200740">
        <ele>3.243</ele>
        <time>2019-06-15T11:10:56Z</time>
      </trkpt>
      <trkpt lat="39.039958" lon="-0.200664">
        <ele>3.822</ele>
        <time>2019-06-15T11:10:57Z</time>
      </trkpt>
      <trkpt lat="39.039892" lon="-0.200629">
        <ele>4.185</ele>
        <time>2019-06-15T11:10:58Z</time>
      </trkpt>
      <trkpt lat="39.039839" lon="-0.200573">
        <ele>4.557</ele>
        <time>2019-06-15T11:10:59Z</time>
      </trkpt>
      <trkpt lat="39.039787" lon="-0.200514">
        <ele>4.754</ele>
        <time>2019-06-15T11:11:00Z</time>
      </trkpt>
      <trkpt lat="39.039718" lon="-0.200453">
        <ele>4.653</ele>
        <time>2019-06-15T11:11:01Z</time>
      </trkpt>
      <trkpt lat="39.039661" lon="-0.200398">
        <ele>4.068</ele>
        <time>2019-06-15T11:11:02Z</time>
      </trkpt>
      <trkpt lat="39.039603" lon="-0.200347">
        <ele>3.471</ele>
        <time>2019-06-15T11:11:03Z</time>
      </trkpt>
      <trkpt lat="39.039537" lon="-0.200298">
        <ele>2.741</ele>
        <time>2019-06-15T11:11:04Z</time>
      </trkpt>
      <trkpt lat="39.039484" lon="-0.200245">
        <ele>2.315</ele>
        <time>2019-06-15T11:11:05Z</time>
      </trkpt>
      <trkpt lat="39.039432" lon="-0.200202">
        <ele>2.008</ele>
        <time>2019-06-15T11:11:06Z</time>
      </trkpt>
      <trkpt lat="39.039374" lon="-0.200150">
        <ele>2.040</ele>
        <time>2019-06-15T11:11:07Z</time>
      </trkpt>
      <trkpt lat="39.039320" lon="-0.200097">
        <ele>2.044</ele>
        <time>2019-06-15T11:11:08Z</time>
      </trkpt>
      <trkpt lat="39.039269" lon="-0.200048">
        <ele>2.023</ele>
        <time>2019-06-15T11:11:09Z</time>
      </trkpt>
      <trkpt lat="39.039210" lon="-0.200000">
        <ele>2.096</ele>
        <time>2019-06-15T11:11:10Z</time>
      </trkpt>
      <trkpt lat="39.039155" lon="-0.199968">
        <ele>2.118</ele>
        <time>2019-06-15T11:11:11Z</time>
      </trkpt>
      <trkpt lat="39.039109" lon="-0.199921">
        <ele>2.315</ele>
        <time>2019-06-15T11:11:12Z</time>
      </trkpt>
      <trkpt lat="39.039063" lon="-0.199881">
        <ele>2.454</ele>
        <time>2019-06-15T11:11:13Z</time>
      </trkpt>
      <trkpt lat="39.039015" lon="-0.199832">
        <ele>2.639</ele>
        <time>2019-06-15T11:11:14Z</time>
      </trkpt>
      <trkpt lat="39.038957" lon="-0.199781">
        <ele>2.899</ele>
        <time>2019-06-15T11:11:15Z</time>
      </trkpt>
      <trkpt lat="39.038899" lon="-0.199724">
        <ele>3.007</ele>
        <time>2019-06-15T11:11:16Z</time>
      </trkpt>
      <trkpt lat="39.038850" lon="-0.199679">
        <ele>3.127</ele>
        <time>2019-06-15T11:11:17Z</time>
      </trkpt>
      <trkpt lat="39.038772" lon="-0.199625">
        <ele>3.208</ele>
        <time>2019-06-15T11:11:18Z</time>
      </trkpt>
      <trkpt lat="39.038717" lon="-0.199579">
        <ele>3.222</ele>
        <time>2019-06-15T11:11:19Z</time>
      </trkpt>
      <trkpt lat="39.038649" lon="-0.199530">
        <ele>3.126</ele>
        <time>2019-06-15T11:11:20Z</time>
      </trkpt>
      <trkpt lat="39.038594" lon="-0.199473">
        <ele>3.045</ele>
        <time>2019-06-15T11:11:21Z</time>
      </trkpt>
      <trkpt lat="39.038555" lon="-0.199436">
        <ele>3.058</ele>
        <time>2019-06-15T11:11:22Z</time>
      </trkpt>
      <trkpt lat="39.038504" lon="-0.199389">
        <ele>3.060</ele>
        <time>2019-06-15T11:11:23Z</time>
      </trkpt>
      <trkpt lat="39.038457" lon="-0.199335">
        <ele>3.047</ele>
        <time>2019-06-15T11:11:24Z</time>
      </trkpt>
      <trkpt lat="39.038391" lon="-0.199279">
        <ele>3.016</ele>
        <time>2019-06-15T11:11:25Z</time>
      </trkpt>
      <trkpt lat="39.038346" lon="-0.199230">
        <ele>3.091</ele>
        <time>2019-06-15T11:11:26Z</time>
      </trkpt>
      <trkpt lat="39.038298" lon="-0.199183">
        <ele>2.917</ele>
        <time>2019-06-15T11:11:27Z</time>
      </trkpt>
      <trkpt lat="39.038235" lon="-0.199128">
        <ele>2.787</ele>
        <time>2019-06-15T11:11:28Z</time>
      </trkpt>
      <trkpt lat="39.038176" lon="-0.199074">
        <ele>2.615</ele>
        <time>2019-06-15T11:11:29Z</time>
      </trkpt>
      <trkpt lat="39.038118" lon="-0.199027">
        <ele>2.608</ele>
        <time>2019-06-15T11:11:30Z</time>
      </trkpt>
      <trkpt lat="39.038053" lon="-0.198978">
        <ele>2.744</ele>
        <time>2019-06-15T11:11:31Z</time>
      </trkpt>
      <trkpt lat="39.037992" lon="-0.198921">
        <ele>2.778</ele>
        <time>2019-06-15T11:11:32Z</time>
      </trkpt>
      <trkpt lat="39.037948" lon="-0.198874">
        <ele>2.777</ele>
        <time>2019-06-15T11:11:33Z</time>
      </trkpt>
      <trkpt lat="39.037890" lon="-0.198830">
        <ele>2.620</ele>
        <time>2019-06-15T11:11:34Z</time>
      </trkpt>
      <trkpt lat="39.037831" lon="-0.198781">
        <ele>2.632</ele>
        <time>2019-06-15T11:11:35Z</time>
      </trkpt>
      <trkpt lat="39.037775" lon="-0.198730">
        <ele>2.669</ele>
        <time>2019-06-15T11:11:36Z</time>
      </trkpt>
      <trkpt lat="39.037726" lon="-0.198679">
        <ele>2.648</ele>
        <time>2019-06-15T11:11:37Z</time>
      </trkpt>
      <trkpt lat="39.037654" lon="-0.198627">
        <ele>2.523</ele>
        <time>2019-06-15T11:11:38Z</time>
      </trkpt>
      <trkpt lat="39.037605" lon="-0.198586">
        <ele>2.361</ele>
        <time>2019-06-15T11:11:39Z</time>
      </trkpt>
      <trkpt lat="39.037550" lon="-0.198540">
        <ele>2.021</ele>
        <time>2019-06-15T11:11:40Z</time>
      </trkpt>
      <trkpt lat="39.037497" lon="-0.198490">
        <ele>1.613</ele>
        <time>2019-06-15T11:11:41Z</time>
      </trkpt>
      <trkpt lat="39.037433" lon="-0.198435">
        <ele>1.308</ele>
        <time>2019-06-15T11:11:42Z</time>
      </trkpt>
      <trkpt lat="39.037369" lon="-0.198387">
        <ele>1.199</ele>
        <time>2019-06-15T11:11:43Z</time>
      </trkpt>
      <trkpt lat="39.037323" lon="-0.198342">
        <ele>1.013</ele>
        <time>2019-06-15T11:11:44Z</time>
      </trkpt>
      <trkpt lat="39.037288" lon="-0.198306">
        <ele>1.082</ele>
        <time>2019-06-15T11:11:45Z</time>
      </trkpt>
      <trkpt lat="39.037241" lon="-0.198263">
        <ele>1.075</ele>
        <time>2019-06-15T11:11:46Z</time>
      </trkpt>
      <trkpt lat="39.037188" lon="-0.198226">
        <ele>1.047</ele>
        <time>2019-06-15T11:11:47Z</time>
      </trkpt>
      <trkpt lat="39.037148" lon="-0.198188">
        <ele>1.014</ele>
        <time>2019-06-15T11:11:48Z</time>
      </trkpt>
      <trkpt lat="39.037088" lon="-0.198144">
        <ele>1.063</ele>
        <time>2019-06-15T11:11:49Z</time>
      </trkpt>
      <trkpt lat="39.037024" lon="-0.198090">
        <ele>1.038</ele>
        <time>2019-06-15T11:11:50Z</time>
      </trkpt>
      <trkpt lat="39.036958" lon="-0.198049">
        <ele>1.055</ele>
        <time>2019-06-15T11:11:51Z</time>
      </trkpt>
      <trkpt lat="39.036917" lon="-0.198005">
        <ele>1.007</ele>
        <time>2019-06-15T11:11:52Z</time>
      </trkpt>
      <trkpt lat="39.036886" lon="-0.197962">
        <ele>1.017</ele>
        <time>2019-06-15T11:11:53Z</time>
      </trkpt>
      <trkpt lat="39.036832" lon="-0.197916">
        <ele>1.008</ele>
        <time>2019-06-15T11:11:54Z</time>
      </trkpt>
      <trkpt lat="39.036773" lon="-0.197857">
        <ele>1.068</ele>
        <time>2019-06-15T11:11:55Z</time>
      </trkpt>
      <trkpt lat="39.036729" lon="-0.197812">
        <ele>1.082</ele>
        <time>2019-06-15T11:11:56Z</time>
      </trkpt>
      <trkpt lat="39.036684" lon="-0.197774">
        <ele>1.011</ele>
        <time>2019-06-15T11:11:57Z</time>
      </trkpt>
      <trkpt lat="39.036620" lon="-0.197723">
        <ele>1.224</ele>
        <time>2019-06-15T11:11:58Z</time>
      </trkpt>
      <trkpt lat="39.036569" lon="-0.197684">
        <ele>1.496</ele>
        <time>2019-06-15T11:11:59Z</time>
      </trkpt>
      <trkpt lat="39.036516" lon="-0.197631">
        <ele>1.533</ele>
        <time>2019-06-15T11:12:00Z</time>
      </trkpt>
      <trkpt lat="39.036457" lon="-0.197593">
        <ele>1.892</ele>
        <time>2019-06-15T11:12:01Z</time>
      </trkpt>
      <trkpt lat="39.036382" lon="-0.197540">
        <ele>2.037</ele>
        <time>2019-06-15T11:12:02Z</time>
      </trkpt>
      <trkpt lat="39.036333" lon="-0.197493">
        <ele>2.091</ele>
        <time>2019-06-15T11:12:03Z</time>
      </trkpt>
      <trkpt lat="39.036292" lon="-0.197450">
        <ele>2.081</ele>
        <time>2019-06-15T11:12:04Z</time>
      </trkpt>
      <trkpt lat="39.036242" lon="-0.197404">
        <ele>2.019</ele>
        <time>2019-06-15T11:12:05Z</time>
      </trkpt>
      <trkpt lat="39.036179" lon="-0.197355">
        <ele>2.008</ele>
        <time>2019-06-15T11:12:06Z</time>
      </trkpt>
      <trkpt lat="39.036140" lon="-0.197313">
        <ele>2.022</ele>
        <time>2019-06-15T11:12:07Z</time>
      </trkpt>
      <trkpt lat="39.036082" lon="-0.197265">
        <ele>2.056</ele>
        <time>2019-06-15T11:12:08Z</time>
      </trkpt>
      <trkpt lat="39.036033" lon="-0.197245">
        <ele>2.015</ele>
        <time>2019-06-15T11:12:09Z</time>
      </trkpt>
      <trkpt lat="39.035982" lon="-0.197205">
        <ele>2.158</ele>
        <time>2019-06-15T11:12:10Z</time>
      </trkpt>
      <trkpt lat="39.035937" lon="-0.197158">
        <ele>2.320</ele>
        <time>2019-06-15T11:12:11Z</time>
      </trkpt>
      <trkpt lat="39.035882" lon="-0.197118">
        <ele>2.417</ele>
        <time>2019-06-15T11:12:12Z</time>
      </trkpt>
      <trkpt lat="39.035843" lon="-0.197078">
        <ele>2.586</ele>
        <time>2019-06-15T11:12:13Z</time>
      </trkpt>
      <trkpt lat="39.035778" lon="-0.197021">
        <ele>2.381</ele>
        <time>2019-06-15T11:12:14Z</time>
      </trkpt>
      <trkpt lat="39.035710" lon="-0.196983">
        <ele>2.095</ele>
        <time>2019-06-15T11:12:15Z</time>
      </trkpt>
      <trkpt lat="39.035656" lon="-0.196922">
        <ele>1.849</ele>
        <time>2019-06-15T11:12:16Z</time>
      </trkpt>
      <trkpt lat="39.035593" lon="-0.196892">
        <ele>1.523</ele>
        <time>2019-06-15T11:12:17Z</time>
      </trkpt>
      <trkpt lat="39.035534" lon="-0.196846">
        <ele>1.208</ele>
        <time>2019-06-15T11:12:18Z</time>
      </trkpt>
      <trkpt lat="39.035483" lon="-0.196799">
        <ele>1.192</ele>
        <time>2019-06-15T11:12:19Z</time>
      </trkpt>
      <trkpt lat="39.035428" lon="-0.196752">
        <ele>0.946</ele>
        <time>2019-06-15T11:12:20Z</time>
      </trkpt>
      <trkpt lat="39.035375" lon="-0.196700">
        <ele>0.775</ele>
        <time>2019-06-15T11:12:21Z</time>
      </trkpt>
      <trkpt lat="39.035318" lon="-0.196651">
        <ele>0.368</ele>
        <time>2019-06-15T11:12:22Z</time>
      </trkpt>
      <trkpt lat="39.035276" lon="-0.196603">
        <ele>0.230</ele>
        <time>2019-06-15T11:12:23Z</time>
      </trkpt>
      <trkpt lat="39.035222" lon="-0.196553">
        <ele>0.287</ele>
        <time>2019-06-15T11:12:24Z</time>
      </trkpt>
      <trkpt lat="39.035169" lon="-0.196497">
        <ele>0.126</ele>
        <time>2019-06-15T11:12:25Z</time>
      </trkpt>
      <trkpt lat="39.035113" lon="-0.196449">
        <ele>-0.131</ele>
        <time>2019-06-15T11:12:26Z</time>
      </trkpt>
      <trkpt lat="39.035061" lon="-0.196405">
        <ele>-0.542</ele>
        <time>2019-06-15T11:12:27Z</time>
      </trkpt>
      <trkpt lat="39.034998" lon="-0.196356">
        <ele>-0.922</ele>
        <time>2019-06-15T11:12:28Z</time>
      </trkpt>
      <trkpt lat="39.034945" lon="-0.196314">
        <ele>-0.814</ele>
        <time>2019-06-15T11:12:29Z</time>
      </trkpt>
      <trkpt lat="39.034894" lon="-0.196265">
        <ele>-0.708</ele>
        <time>2019-06-15T11:12:30Z</time>
      </trkpt>
      <trkpt lat="39.034845" lon="-0.196219">
        <ele>-0.777</ele>
        <time>2019-06-15T11:12:31Z</time>
      </trkpt>
      <trkpt lat="39.034790" lon="-0.196171">
        <ele>-0.811</ele>
        <time>2019-06-15T11:12:32Z</time>
      </trkpt>
      <trkpt lat="39.034747" lon="-0.196131">
        <ele>-0.930</ele>
        <time>2019-06-15T11:12:33Z</time>
      </trkpt>
      <trkpt lat="39.034690" lon="-0.196083">
        <ele>-0.923</ele>
        <time>2019-06-15T11:12:34Z</time>
      </trkpt>
      <trkpt lat="39.034631" lon="-0.196027">
        <ele>-0.795</ele>
        <time>2019-06-15T11:12:35Z</time>
      </trkpt>
      <trkpt lat="39.034569" lon="-0.195974">
        <ele>-0.522</ele>
        <time>2019-06-15T11:12:36Z</time>
      </trkpt>
      <trkpt lat="39.034518" lon="-0.195923">
        <ele>-0.361</ele>
        <time>2019-06-15T11:12:37Z</time>
      </trkpt>
      <trkpt lat="39.034465" lon="-0.195873">
        <ele>-0.166</ele>
        <time>2019-06-15T11:12:38Z</time>
      </trkpt>
      <trkpt lat="39.034408" lon="-0.195825">
        <ele>0.077</ele>
        <time>2019-06-15T11:12:39Z</time>
      </trkpt>
      <trkpt lat="39.034352" lon="-0.195784">
        <ele>0.261</ele>
        <time>2019-06-15T11:12:40Z</time>
      </trkpt>
      <trkpt lat="39.034298" lon="-0.195736">
        <ele>0.327</ele>
        <time>2019-06-15T11:12:41Z</time>
      </trkpt>
      <trkpt lat="39.034248" lon="-0.195699">
        <ele>0.508</ele>
        <time>2019-06-15T11:12:42Z</time>
      </trkpt>
      <trkpt lat="39.034195" lon="-0.195636">
        <ele>0.760</ele>
        <time>2019-06-15T11:12:43Z</time>
      </trkpt>
      <trkpt lat="39.034139" lon="-0.195594">
        <ele>0.974</ele>
        <time>2019-06-15T11:12:44Z</time>
      </trkpt>
      <trkpt lat="39.034092" lon="-0.195556">
        <ele>1.043</ele>
        <time>2019-06-15T11:12:45Z</time>
      </trkpt>
      <trkpt lat="39.034037" lon="-0.195509">
        <ele>1.126</ele>
        <time>2019-06-15T11:12:46Z</time>
      </trkpt>
      <trkpt lat="39.033991" lon="-0.195478">
        <ele>1.158</ele>
        <time>2019-06-15T11:12:47Z</time>
      </trkpt>
      <trkpt lat="39.033936" lon="-0.195422">
        <ele>1.115</ele>
        <time>2019-06-15T11:12:48Z</time>
      </trkpt>
      <trkpt lat="39.033885" lon="-0.195376">
        <ele>1.054</ele>
        <time>2019-06-15T11:12:49Z</time>
      </trkpt>
      <trkpt lat="39.033837" lon="-0.195330">
        <ele>1.229</ele>
        <time>2019-06-15T11:12:50Z</time>
      </trkpt>
      <trkpt lat="39.033790" lon="-0.195297">
        <ele>1.333</ele>
        <time>2019-06-15T11:12:51Z</time>
      </trkpt>
      <trkpt lat="39.033735" lon="-0.195254">
        <ele>1.623</ele>
        <time>2019-06-15T11:12:52Z</time>
      </trkpt>
      <trkpt lat="39.033683" lon="-0.195217">
        <ele>1.815</ele>
        <time>2019-06-15T11:12:53Z</time>
      </trkpt>
      <trkpt lat="39.033633" lon="-0.195181">
        <ele>1.908</ele>
        <time>2019-06-15T11:12:54Z</time>
      </trkpt>
      <trkpt lat="39.033584" lon="-0.195143">
        <ele>2.046</ele>
        <time>2019-06-15T11:12:55Z</time>
      </trkpt>
      <trkpt lat="39.033545" lon="-0.195105">
        <ele>2.040</ele>
        <time>2019-06-15T11:12:56Z</time>
      </trkpt>
      <trkpt lat="39.033494" lon="-0.195077">
        <ele>2.089</ele>
        <time>2019-06-15T11:12:57Z</time>
      </trkpt>
      <trkpt lat="39.033449" lon="-0.195036">
        <ele>2.042</ele>
        <time>2019-06-15T11:12:58Z</time>
      </trkpt>
      <trkpt lat="39.033402" lon="-0.194979">
        <ele>2.074</ele>
        <time>2019-06-15T11:12:59Z</time>
      </trkpt>
      <trkpt lat="39.033351" lon="-0.194941">
        <ele>2.091</ele>
        <time>2019-06-15T11:13:00Z</time>
      </trkpt>
      <trkpt lat="39.033301" lon="-0.194897">
        <ele>1.860</ele>
        <time>2019-06-15T11:13:01Z</time>
      </trkpt>
      <trkpt lat="39.033249" lon="-0.194851">
        <ele>1.635</ele>
        <time>2019-06-15T11:13:02Z</time>
      </trkpt>
      <trkpt lat="39.033202" lon="-0.194825">
        <ele>1.477</ele>
        <time>2019-06-15T11:13:03Z</time>
      </trkpt>
      <trkpt lat="39.033156" lon="-0.194777">
        <ele>1.261</ele>
        <time>2019-06-15T11:13:04Z</time>
      </trkpt>
      <trkpt lat="39.033105" lon="-0.194724">
        <ele>1.227</ele>
        <time>2019-06-15T11:13:05Z</time>
      </trkpt>
      <trkpt lat="39.033062" lon="-0.194679">
        <ele>1.208</ele>
        <time>2019-06-15T11:13:06Z</time>
      </trkpt>
      <trkpt lat="39.033012" lon="-0.194639">
        <ele>1.010</ele>
        <time>2019-06-15T11:13:07Z</time>
      </trkpt>
      <trkpt lat="39.032972" lon="-0.194609">
        <ele>0.854</ele>
        <time>2019-06-15T11:13:08Z</time>
      </trkpt>
      <trkpt lat="39.032921" lon="-0.194575">
        <ele>0.653</ele>
        <time>2019-06-15T11:13:09Z</time>
      </trkpt>
      <trkpt lat="39.032880" lon="-0.194533">
        <ele>0.446</ele>
        <time>2019-06-15T11:13:10Z</time>
      </trkpt>
      <trkpt lat="39.032840" lon="-0.194489">
        <ele>0.348</ele>
        <time>2019-06-15T11:13:11Z</time>
      </trkpt>
      <trkpt lat="39.032763" lon="-0.194433">
        <ele>0.045</ele>
        <time>2019-06-15T11:13:13Z</time>
      </trkpt>
      <trkpt lat="39.032685" lon="-0.194357">
        <ele>0.334</ele>
        <time>2019-06-15T11:13:15Z</time>
      </trkpt>
      <trkpt lat="39.032643" lon="-0.194323">
        <ele>0.469</ele>
        <time>2019-06-15T11:13:16Z</time>
      </trkpt>
      <trkpt lat="39.032602" lon="-0.194287">
        <ele>0.547</ele>
        <time>2019-06-15T11:13:17Z</time>
      </trkpt>
      <trkpt lat="39.032559" lon="-0.194254">
        <ele>0.629</ele>
        <time>2019-06-15T11:13:18Z</time>
      </trkpt>
      <trkpt lat="39.032520" lon="-0.194218">
        <ele>0.721</ele>
        <time>2019-06-15T11:13:19Z</time>
      </trkpt>
      <trkpt lat="39.032479" lon="-0.194191">
        <ele>0.808</ele>
        <time>2019-06-15T11:13:20Z</time>
      </trkpt>
      <trkpt lat="39.032436" lon="-0.194158">
        <ele>1.137</ele>
        <time>2019-06-15T11:13:21Z</time>
      </trkpt>
      <trkpt lat="39.032383" lon="-0.194126">
        <ele>1.261</ele>
        <time>2019-06-15T11:13:22Z</time>
      </trkpt>
      <trkpt lat="39.032341" lon="-0.194081">
        <ele>1.470</ele>
        <time>2019-06-15T11:13:23Z</time>
      </trkpt>
      <trkpt lat="39.032269" lon="-0.194024">
        <ele>1.623</ele>
        <time>2019-06-15T11:13:25Z</time>
      </trkpt>
      <trkpt lat="39.032224" lon="-0.193981">
        <ele>1.765</ele>
        <time>2019-06-15T11:13:26Z</time>
      </trkpt>
      <trkpt lat="39.032183" lon="-0.193939">
        <ele>1.852</ele>
        <time>2019-06-15T11:13:27Z</time>
      </trkpt>
      <trkpt lat="39.032139" lon="-0.193900">
        <ele>2.021</ele>
        <time>2019-06-15T11:13:28Z</time>
      </trkpt>
      <trkpt lat="39.032054" lon="-0.193841">
        <ele>2.176</ele>
        <time>2019-06-15T11:13:29Z</time>
      </trkpt>
      <trkpt lat="39.031996" lon="-0.193792">
        <ele>2.154</ele>
        <time>2019-06-15T11:13:30Z</time>
      </trkpt>
      <trkpt lat="39.031946" lon="-0.193751">
        <ele>2.056</ele>
        <time>2019-06-15T11:13:31Z</time>
      </trkpt>
      <trkpt lat="39.031871" lon="-0.193689">
        <ele>1.911</ele>
        <time>2019-06-15T11:13:33Z</time>
      </trkpt>
      <trkpt lat="39.031823" lon="-0.193645">
        <ele>1.908</ele>
        <time>2019-06-15T11:13:34Z</time>
      </trkpt>
      <trkpt lat="39.031772" lon="-0.193601">
        <ele>2.068</ele>
        <time>2019-06-15T11:13:35Z</time>
      </trkpt>
      <trkpt lat="39.031704" lon="-0.193559">
        <ele>2.252</ele>
        <time>2019-06-15T11:13:36Z</time>
      </trkpt>
      <trkpt lat="39.031648" lon="-0.193512">
        <ele>2.471</ele>
        <time>2019-06-15T11:13:37Z</time>
      </trkpt>
      <trkpt lat="39.031614" lon="-0.193475">
        <ele>2.584</ele>
        <time>2019-06-15T11:13:38Z</time>
      </trkpt>
      <trkpt lat="39.031564" lon="-0.193431">
        <ele>2.616</ele>
        <time>2019-06-15T11:13:39Z</time>
      </trkpt>
      <trkpt lat="39.031504" lon="-0.193382">
        <ele>2.843</ele>
        <time>2019-06-15T11:13:40Z</time>
      </trkpt>
      <trkpt lat="39.031421" lon="-0.193326">
        <ele>3.072</ele>
        <time>2019-06-15T11:13:41Z</time>
      </trkpt>
      <trkpt lat="39.031377" lon="-0.193274">
        <ele>2.757</ele>
        <time>2019-06-15T11:13:42Z</time>
      </trkpt>
      <trkpt lat="39.031327" lon="-0.193215">
        <ele>2.378</ele>
        <time>2019-06-15T11:13:43Z</time>
      </trkpt>
      <trkpt lat="39.031271" lon="-0.193147">
        <ele>2.033</ele>
        <time>2019-06-15T11:13:44Z</time>
      </trkpt>
      <trkpt lat="39.031222" lon="-0.193091">
        <ele>2.026</ele>
        <time>2019-06-15T11:13:45Z</time>
      </trkpt>
      <trkpt lat="39.031139" lon="-0.193049">
        <ele>2.008</ele>
        <time>2019-06-15T11:13:46Z</time>
      </trkpt>
      <trkpt lat="39.031080" lon="-0.192995">
        <ele>2.010</ele>
        <time>2019-06-15T11:13:47Z</time>
      </trkpt>
      <trkpt lat="39.031031" lon="-0.192958">
        <ele>2.144</ele>
        <time>2019-06-15T11:13:48Z</time>
      </trkpt>
      <trkpt lat="39.030966" lon="-0.192913">
        <ele>2.353</ele>
        <time>2019-06-15T11:13:49Z</time>
      </trkpt>
      <trkpt lat="39.030916" lon="-0.192860">
        <ele>2.546</ele>
        <time>2019-06-15T11:13:50Z</time>
      </trkpt>
      <trkpt lat="39.030863" lon="-0.192811">
        <ele>2.858</ele>
        <time>2019-06-15T11:13:51Z</time>
      </trkpt>
      <trkpt lat="39.030806" lon="-0.192759">
        <ele>3.165</ele>
        <time>2019-06-15T11:13:52Z</time>
      </trkpt>
      <trkpt lat="39.030759" lon="-0.192720">
        <ele>3.274</ele>
        <time>2019-06-15T11:13:53Z</time>
      </trkpt>
      <trkpt lat="39.030707" lon="-0.192673">
        <ele>3.469</ele>
        <time>2019-06-15T11:13:54Z</time>
      </trkpt>
      <trkpt lat="39.030652" lon="-0.192619">
        <ele>3.637</ele>
        <time>2019-06-15T11:13:55Z</time>
      </trkpt>
      <trkpt lat="39.030603" lon="-0.192576">
        <ele>3.749</ele>
        <time>2019-06-15T11:13:56Z</time>
      </trkpt>
      <trkpt lat="39.030547" lon="-0.192532">
        <ele>3.813</ele>
        <time>2019-06-15T11:13:57Z</time>
      </trkpt>
      <trkpt lat="39.030494" lon="-0.192489">
        <ele>3.608</ele>
        <time>2019-06-15T11:13:58Z</time>
      </trkpt>
      <trkpt lat="39.030441" lon="-0.192456">
        <ele>3.366</ele>
        <time>2019-06-15T11:13:59Z</time>
      </trkpt>
      <trkpt lat="39.030396" lon="-0.192411">
        <ele>3.210</ele>
        <time>2019-06-15T11:14:00Z</time>
      </trkpt>
      <trkpt lat="39.030351" lon="-0.192374">
        <ele>3.059</ele>
        <time>2019-06-15T11:14:01Z</time>
      </trkpt>
      <trkpt lat="39.030305" lon="-0.192338">
        <ele>2.892</ele>
        <time>2019-06-15T11:14:02Z</time>
      </trkpt>
      <trkpt lat="39.030249" lon="-0.192294">
        <ele>2.634</ele>
        <time>2019-06-15T11:14:03Z</time>
      </trkpt>
      <trkpt lat="39.030210" lon="-0.192242">
        <ele>2.721</ele>
        <time>2019-06-15T11:14:04Z</time>
      </trkpt>
      <trkpt lat="39.030162" lon="-0.192195">
        <ele>2.670</ele>
        <time>2019-06-15T11:14:05Z</time>
      </trkpt>
      <trkpt lat="39.030110" lon="-0.192149">
        <ele>2.635</ele>
        <time>2019-06-15T11:14:06Z</time>
      </trkpt>
      <trkpt lat="39.030044" lon="-0.192107">
        <ele>2.566</ele>
        <time>2019-06-15T11:14:07Z</time>
      </trkpt>
      <trkpt lat="39.029999" lon="-0.192062">
        <ele>2.629</ele>
        <time>2019-06-15T11:14:08Z</time>
      </trkpt>
      <trkpt lat="39.029939" lon="-0.192011">
        <ele>2.421</ele>
        <time>2019-06-15T11:14:09Z</time>
      </trkpt>
      <trkpt lat="39.029876" lon="-0.191965">
        <ele>2.108</ele>
        <time>2019-06-15T11:14:10Z</time>
      </trkpt>
      <trkpt lat="39.029826" lon="-0.191916">
        <ele>1.939</ele>
        <time>2019-06-15T11:14:11Z</time>
      </trkpt>
      <trkpt lat="39.029776" lon="-0.191873">
        <ele>1.683</ele>
        <time>2019-06-15T11:14:12Z</time>
      </trkpt>
      <trkpt lat="39.029723" lon="-0.191832">
        <ele>1.432</ele>
        <time>2019-06-15T11:14:13Z</time>
      </trkpt>
      <trkpt lat="39.029675" lon="-0.191793">
        <ele>1.445</ele>
        <time>2019-06-15T11:14:14Z</time>
      </trkpt>
      <trkpt lat="39.029629" lon="-0.191754">
        <ele>1.427</ele>
        <time>2019-06-15T11:14:15Z</time>
      </trkpt>
      <trkpt lat="39.029578" lon="-0.191707">
        <ele>1.334</ele>
        <time>2019-06-15T11:14:16Z</time>
      </trkpt>
      <trkpt lat="39.029524" lon="-0.191662">
        <ele>1.393</ele>
        <time>2019-06-15T11:14:17Z</time>
      </trkpt>
      <trkpt lat="39.029467" lon="-0.191618">
        <ele>1.318</ele>
        <time>2019-06-15T11:14:18Z</time>
      </trkpt>
      <trkpt lat="39.029417" lon="-0.191578">
        <ele>1.246</ele>
        <time>2019-06-15T11:14:19Z</time>
      </trkpt>
      <trkpt lat="39.029360" lon="-0.191539">
        <ele>1.288</ele>
        <time>2019-06-15T11:14:20Z</time>
      </trkpt>
      <trkpt lat="39.029310" lon="-0.191496">
        <ele>1.116</ele>
        <time>2019-06-15T11:14:21Z</time>
      </trkpt>
      <trkpt lat="39.029276" lon="-0.191449">
        <ele>1.208</ele>
        <time>2019-06-15T11:14:22Z</time>
      </trkpt>
      <trkpt lat="39.029217" lon="-0.191403">
        <ele>1.147</ele>
        <time>2019-06-15T11:14:23Z</time>
      </trkpt>
      <trkpt lat="39.029161" lon="-0.191344">
        <ele>1.391</ele>
        <time>2019-06-15T11:14:24Z</time>
      </trkpt>
      <trkpt lat="39.029097" lon="-0.191305">
        <ele>1.610</ele>
        <time>2019-06-15T11:14:25Z</time>
      </trkpt>
      <trkpt lat="39.029049" lon="-0.191262">
        <ele>1.923</ele>
        <time>2019-06-15T11:14:26Z</time>
      </trkpt>
      <trkpt lat="39.028989" lon="-0.191215">
        <ele>2.395</ele>
        <time>2019-06-15T11:14:27Z</time>
      </trkpt>
      <trkpt lat="39.028936" lon="-0.191170">
        <ele>2.672</ele>
        <time>2019-06-15T11:14:28Z</time>
      </trkpt>
      <trkpt lat="39.028860" lon="-0.191131">
        <ele>2.881</ele>
        <time>2019-06-15T11:14:29Z</time>
      </trkpt>
      <trkpt lat="39.028795" lon="-0.191094">
        <ele>2.776</ele>
        <time>2019-06-15T11:14:30Z</time>
      </trkpt>
      <trkpt lat="39.028751" lon="-0.191042">
        <ele>2.898</ele>
        <time>2019-06-15T11:14:31Z</time>
      </trkpt>
      <trkpt lat="39.028690" lon="-0.190987">
        <ele>2.715</ele>
        <time>2019-06-15T11:14:32Z</time>
      </trkpt>
      <trkpt lat="39.028634" lon="-0.190933">
        <ele>2.726</ele>
        <time>2019-06-15T11:14:33Z</time>
      </trkpt>
      <trkpt lat="39.028576" lon="-0.190880">
        <ele>2.608</ele>
        <time>2019-06-15T11:14:34Z</time>
      </trkpt>
      <trkpt lat="39.028506" lon="-0.190836">
        <ele>2.232</ele>
        <time>2019-06-15T11:14:35Z</time>
      </trkpt>
      <trkpt lat="39.028451" lon="-0.190786">
        <ele>2.076</ele>
        <time>2019-06-15T11:14:36Z</time>
      </trkpt>
      <trkpt lat="39.028393" lon="-0.190751">
        <ele>1.725</ele>
        <time>2019-06-15T11:14:37Z</time>
      </trkpt>
      <trkpt lat="39.028339" lon="-0.190707">
        <ele>1.598</ele>
        <time>2019-06-15T11:14:38Z</time>
      </trkpt>
      <trkpt lat="39.028284" lon="-0.190667">
        <ele>1.490</ele>
        <time>2019-06-15T11:14:39Z</time>
      </trkpt>
      <trkpt lat="39.028226" lon="-0.190617">
        <ele>1.457</ele>
        <time>2019-06-15T11:14:40Z</time>
      </trkpt>
      <trkpt lat="39.028171" lon="-0.190567">
        <ele>1.466</ele>
        <time>2019-06-15T11:14:41Z</time>
      </trkpt>
      <trkpt lat="39.028120" lon="-0.190520">
        <ele>1.471</ele>
        <time>2019-06-15T11:14:42Z</time>
      </trkpt>
      <trkpt lat="39.028068" lon="-0.190475">
        <ele>1.388</ele>
        <time>2019-06-15T11:14:43Z</time>
      </trkpt>
      <trkpt lat="39.028018" lon="-0.190425">
        <ele>1.324</ele>
        <time>2019-06-15T11:14:44Z</time>
      </trkpt>
      <trkpt lat="39.027971" lon="-0.190376">
        <ele>1.126</ele>
        <time>2019-06-15T11:14:45Z</time>
      </trkpt>
      <trkpt lat="39.027919" lon="-0.190334">
        <ele>0.908</ele>
        <time>2019-06-15T11:14:46Z</time>
      </trkpt>
      <trkpt lat="39.027870" lon="-0.190283">
        <ele>0.731</ele>
        <time>2019-06-15T11:14:47Z</time>
      </trkpt>
      <trkpt lat="39.027821" lon="-0.190235">
        <ele>0.625</ele>
        <time>2019-06-15T11:14:48Z</time>
      </trkpt>
      <trkpt lat="39.027764" lon="-0.190187">
        <ele>0.654</ele>
        <time>2019-06-15T11:14:49Z</time>
      </trkpt>
      <trkpt lat="39.027713" lon="-0.190139">
        <ele>0.847</ele>
        <time>2019-06-15T11:14:50Z</time>
      </trkpt>
      <trkpt lat="39.027661" lon="-0.190094">
        <ele>0.989</ele>
        <time>2019-06-15T11:14:51Z</time>
      </trkpt>
      <trkpt lat="39.027613" lon="-0.190051">
        <ele>1.066</ele>
        <time>2019-06-15T11:14:52Z</time>
      </trkpt>
      <trkpt lat="39.027563" lon="-0.190011">
        <ele>1.145</ele>
        <time>2019-06-15T11:14:53Z</time>
      </trkpt>
      <trkpt lat="39.027509" lon="-0.189963">
        <ele>1.370</ele>
        <time>2019-06-15T11:14:54Z</time>
      </trkpt>
      <trkpt lat="39.027459" lon="-0.189921">
        <ele>1.456</ele>
        <time>2019-06-15T11:14:55Z</time>
      </trkpt>
      <trkpt lat="39.027408" lon="-0.189883">
        <ele>1.559</ele>
        <time>2019-06-15T11:14:56Z</time>
      </trkpt>
      <trkpt lat="39.027354" lon="-0.189834">
        <ele>1.714</ele>
        <time>2019-06-15T11:14:57Z</time>
      </trkpt>
      <trkpt lat="39.027304" lon="-0.189791">
        <ele>1.808</ele>
        <time>2019-06-15T11:14:58Z</time>
      </trkpt>
      <trkpt lat="39.027250" lon="-0.189746">
        <ele>1.948</ele>
        <time>2019-06-15T11:14:59Z</time>
      </trkpt>
      <trkpt lat="39.027203" lon="-0.189705">
        <ele>1.952</ele>
        <time>2019-06-15T11:15:00Z</time>
      </trkpt>
      <trkpt lat="39.027144" lon="-0.189661">
        <ele>1.761</ele>
        <time>2019-06-15T11:15:01Z</time>
      </trkpt>
      <trkpt lat="39.027093" lon="-0.189616">
        <ele>1.564</ele>
        <time>2019-06-15T11:15:02Z</time>
      </trkpt>
      <trkpt lat="39.027041" lon="-0.189567">
        <ele>1.386</ele>
        <time>2019-06-15T11:15:03Z</time>
      </trkpt>
      <trkpt lat="39.026993" lon="-0.189531">
        <ele>1.223</ele>
        <time>2019-06-15T11:15:04Z</time>
      </trkpt>
      <trkpt lat="39.026950" lon="-0.189476">
        <ele>1.042</ele>
        <time>2019-06-15T11:15:05Z</time>
      </trkpt>
      <trkpt lat="39.026900" lon="-0.189432">
        <ele>1.227</ele>
        <time>2019-06-15T11:15:06Z</time>
      </trkpt>
      <trkpt lat="39.026853" lon="-0.189381">
        <ele>1.475</ele>
        <time>2019-06-15T11:15:07Z</time>
      </trkpt>
      <trkpt lat="39.026807" lon="-0.189348">
        <ele>1.728</ele>
        <time>2019-06-15T11:15:08Z</time>
      </trkpt>
      <trkpt lat="39.026742" lon="-0.189310">
        <ele>2.120</ele>
        <time>2019-06-15T11:15:09Z</time>
      </trkpt>
      <trkpt lat="39.026682" lon="-0.189272">
        <ele>2.508</ele>
        <time>2019-06-15T11:15:10Z</time>
      </trkpt>
      <trkpt lat="39.026619" lon="-0.189225">
        <ele>3.140</ele>
        <time>2019-06-15T11:15:11Z</time>
      </trkpt>
      <trkpt lat="39.026576" lon="-0.189178">
        <ele>3.674</ele>
        <time>2019-06-15T11:15:12Z</time>
      </trkpt>
      <trkpt lat="39.026528" lon="-0.189138">
        <ele>4.093</ele>
        <time>2019-06-15T11:15:13Z</time>
      </trkpt>
      <trkpt lat="39.026475" lon="-0.189094">
        <ele>4.586</ele>
        <time>2019-06-15T11:15:14Z</time>
      </trkpt>
      <trkpt lat="39.026421" lon="-0.189050">
        <ele>4.898</ele>
        <time>2019-06-15T11:15:15Z</time>
      </trkpt>
      <trkpt lat="39.026377" lon="-0.189004">
        <ele>5.055</ele>
        <time>2019-06-15T11:15:16Z</time>
      </trkpt>
      <trkpt lat="39.026329" lon="-0.188966">
        <ele>4.944</ele>
        <time>2019-06-15T11:15:17Z</time>
      </trkpt>
      <trkpt lat="39.026284" lon="-0.188924">
        <ele>5.029</ele>
        <time>2019-06-15T11:15:18Z</time>
      </trkpt>
      <trkpt lat="39.026242" lon="-0.188879">
        <ele>5.094</ele>
        <time>2019-06-15T11:15:19Z</time>
      </trkpt>
      <trkpt lat="39.026195" lon="-0.188840">
        <ele>5.157</ele>
        <time>2019-06-15T11:15:20Z</time>
      </trkpt>
      <trkpt lat="39.026134" lon="-0.188799">
        <ele>5.022</ele>
        <time>2019-06-15T11:15:22Z</time>
      </trkpt>
      <trkpt lat="39.026089" lon="-0.188757">
        <ele>4.908</ele>
        <time>2019-06-15T11:15:48Z</time>
      </trkpt>
      <trkpt lat="39.026054" lon="-0.188719">
        <ele>4.742</ele>
        <time>2019-06-15T11:28:28Z</time>
      </trkpt>
      <trkpt lat="39.026008" lon="-0.188730">
        <ele>4.536</ele>
        <time>2019-06-15T11:29:28Z</time>
      </trkpt>
      <trkpt lat="39.025964" lon="-0.188702">
        <ele>4.365</ele>
        <time>2019-06-15T11:29:29Z</time>
      </trkpt>
      <trkpt lat="39.026012" lon="-0.188667">
        <ele>4.628</ele>
        <time>2019-06-15T11:29:42Z</time>
      </trkpt>
      <trkpt lat="39.026055" lon="-0.188635">
        <ele>4.850</ele>
        <time>2019-06-15T11:29:47Z</time>
      </trkpt>
      <trkpt lat="39.026014" lon="-0.188599">
        <ele>4.777</ele>
        <time>2019-06-15T11:29:53Z</time>
      </trkpt>
      <trkpt lat="39.025973" lon="-0.188637">
        <ele>4.556</ele>
        <time>2019-06-15T11:29:57Z</time>
      </trkpt>
      <trkpt lat="39.025951" lon="-0.188688">
        <ele>4.371</ele>
        <time>2019-06-15T11:30:05Z</time>
      </trkpt>
      <trkpt lat="39.026011" lon="-0.188710">
        <ele>4.527</ele>
        <time>2019-06-15T11:30:35Z</time>
      </trkpt>
      <trkpt lat="39.026047" lon="-0.188750">
        <ele>4.768</ele>
        <time>2019-06-15T11:30:39Z</time>
      </trkpt>
      <trkpt lat="39.026071" lon="-0.188802">
        <ele>4.814</ele>
        <time>2019-06-15T11:30:47Z</time>
      </trkpt>
      <trkpt lat="39.026113" lon="-0.188772">
        <ele>5.008</ele>
        <time>2019-06-15T11:30:51Z</time>
      </trkpt>
      <trkpt lat="39.026148" lon="-0.188715">
        <ele>5.125</ele>
        <time>2019-06-15T11:30:55Z</time>
      </trkpt>
      <trkpt lat="39.026181" lon="-0.188668">
        <ele>5.239</ele>
        <time>2019-06-15T11:31:00Z</time>
      </trkpt>
      <trkpt lat="39.026100" lon="-0.188719">
        <ele>4.998</ele>
        <time>2019-06-15T11:31:28Z</time>
      </trkpt>
      <trkpt lat="39.026066" lon="-0.188676">
        <ele>4.831</ele>
        <time>2019-06-15T11:31:43Z</time>
      </trkpt>
      <trkpt lat="39.026018" lon="-0.188641">
        <ele>4.683</ele>
        <time>2019-06-15T11:31:46Z</time>
      </trkpt>
      <trkpt lat="39.025969" lon="-0.188600">
        <ele>4.590</ele>
        <time>2019-06-15T11:31:48Z</time>
      </trkpt>
      <trkpt lat="39.025869" lon="-0.188513">
        <ele>4.479</ele>
        <time>2019-06-15T11:31:50Z</time>
      </trkpt>
      <trkpt lat="39.025796" lon="-0.188455">
        <ele>4.344</ele>
        <time>2019-06-15T11:31:52Z</time>
      </trkpt>
      <trkpt lat="39.025759" lon="-0.188420">
        <ele>4.227</ele>
        <time>2019-06-15T11:31:53Z</time>
      </trkpt>
      <trkpt lat="39.025688" lon="-0.188351">
        <ele>3.968</ele>
        <time>2019-06-15T11:31:55Z</time>
      </trkpt>
      <trkpt lat="39.025651" lon="-0.188317">
        <ele>3.714</ele>
        <time>2019-06-15T11:31:56Z</time>
      </trkpt>
      <trkpt lat="39.025609" lon="-0.188284">
        <ele>3.408</ele>
        <time>2019-06-15T11:31:57Z</time>
      </trkpt>
      <trkpt lat="39.025567" lon="-0.188256">
        <ele>3.185</ele>
        <time>2019-06-15T11:31:58Z</time>
      </trkpt>
      <trkpt lat="39.025526" lon="-0.188223">
        <ele>2.819</ele>
        <time>2019-06-15T11:31:59Z</time>
      </trkpt>
      <trkpt lat="39.025485" lon="-0.188194">
        <ele>2.568</ele>
        <time>2019-06-15T11:32:00Z</time>
      </trkpt>
      <trkpt lat="39.025419" lon="-0.188140">
        <ele>2.051</ele>
        <time>2019-06-15T11:32:02Z</time>
      </trkpt>
      <trkpt lat="39.025350" lon="-0.188080">
        <ele>1.573</ele>
        <time>2019-06-15T11:32:04Z</time>
      </trkpt>
      <trkpt lat="39.025283" lon="-0.188015">
        <ele>1.390</ele>
        <time>2019-06-15T11:32:06Z</time>
      </trkpt>
      <trkpt lat="39.025214" lon="-0.187963">
        <ele>1.449</ele>
        <time>2019-06-15T11:32:08Z</time>
      </trkpt>
      <trkpt lat="39.025176" lon="-0.187922">
        <ele>1.614</ele>
        <time>2019-06-15T11:32:09Z</time>
      </trkpt>
      <trkpt lat="39.025138" lon="-0.187884">
        <ele>1.749</ele>
        <time>2019-06-15T11:32:10Z</time>
      </trkpt>
      <trkpt lat="39.025089" lon="-0.187850">
        <ele>1.802</ele>
        <time>2019-06-15T11:32:11Z</time>
      </trkpt>
      <trkpt lat="39.025049" lon="-0.187820">
        <ele>1.922</ele>
        <time>2019-06-15T11:32:12Z</time>
      </trkpt>
      <trkpt lat="39.025005" lon="-0.187782">
        <ele>2.008</ele>
        <time>2019-06-15T11:32:13Z</time>
      </trkpt>
      <trkpt lat="39.024922" lon="-0.187708">
        <ele>2.487</ele>
        <time>2019-06-15T11:32:15Z</time>
      </trkpt>
      <trkpt lat="39.024877" lon="-0.187673">
        <ele>2.671</ele>
        <time>2019-06-15T11:32:16Z</time>
      </trkpt>
      <trkpt lat="39.024839" lon="-0.187622">
        <ele>2.890</ele>
        <time>2019-06-15T11:32:17Z</time>
      </trkpt>
      <trkpt lat="39.024794" lon="-0.187578">
        <ele>2.943</ele>
        <time>2019-06-15T11:32:18Z</time>
      </trkpt>
      <trkpt lat="39.024749" lon="-0.187534">
        <ele>3.065</ele>
        <time>2019-06-15T11:32:19Z</time>
      </trkpt>
      <trkpt lat="39.024711" lon="-0.187494">
        <ele>3.022</ele>
        <time>2019-06-15T11:32:20Z</time>
      </trkpt>
      <trkpt lat="39.024667" lon="-0.187455">
        <ele>2.961</ele>
        <time>2019-06-15T11:32:21Z</time>
      </trkpt>
      <trkpt lat="39.024626" lon="-0.187423">
        <ele>2.876</ele>
        <time>2019-06-15T11:32:22Z</time>
      </trkpt>
      <trkpt lat="39.024583" lon="-0.187386">
        <ele>2.623</ele>
        <time>2019-06-15T11:32:23Z</time>
      </trkpt>
      <trkpt lat="39.024536" lon="-0.187344">
        <ele>2.283</ele>
        <time>2019-06-15T11:32:24Z</time>
      </trkpt>
      <trkpt lat="39.024488" lon="-0.187306">
        <ele>1.811</ele>
        <time>2019-06-15T11:32:25Z</time>
      </trkpt>
      <trkpt lat="39.024447" lon="-0.187270">
        <ele>1.408</ele>
        <time>2019-06-15T11:32:26Z</time>
      </trkpt>
      <trkpt lat="39.024408" lon="-0.187236">
        <ele>1.115</ele>
        <time>2019-06-15T11:32:27Z</time>
      </trkpt>
      <trkpt lat="39.024367" lon="-0.187191">
        <ele>1.169</ele>
        <time>2019-06-15T11:32:28Z</time>
      </trkpt>
      <trkpt lat="39.024325" lon="-0.187163">
        <ele>1.178</ele>
        <time>2019-06-15T11:32:29Z</time>
      </trkpt>
      <trkpt lat="39.024286" lon="-0.187128">
        <ele>1.181</ele>
        <time>2019-06-15T11:32:30Z</time>
      </trkpt>
      <trkpt lat="39.024243" lon="-0.187091">
        <ele>1.123</ele>
        <time>2019-06-15T11:32:31Z</time>
      </trkpt>
      <trkpt lat="39.024177" lon="-0.187028">
        <ele>1.030</ele>
        <time>2019-06-15T11:32:33Z</time>
      </trkpt>
      <trkpt lat="39.024114" lon="-0.186947">
        <ele>1.289</ele>
        <time>2019-06-15T11:32:35Z</time>
      </trkpt>
      <trkpt lat="39.024045" lon="-0.186883">
        <ele>1.654</ele>
        <time>2019-06-15T11:32:37Z</time>
      </trkpt>
      <trkpt lat="39.024003" lon="-0.186854">
        <ele>1.753</ele>
        <time>2019-06-15T11:32:38Z</time>
      </trkpt>
      <trkpt lat="39.023963" lon="-0.186817">
        <ele>1.904</ele>
        <time>2019-06-15T11:32:39Z</time>
      </trkpt>
      <trkpt lat="39.023920" lon="-0.186787">
        <ele>2.014</ele>
        <time>2019-06-15T11:32:40Z</time>
      </trkpt>
      <trkpt lat="39.023874" lon="-0.186749">
        <ele>2.008</ele>
        <time>2019-06-15T11:32:41Z</time>
      </trkpt>
      <trkpt lat="39.023792" lon="-0.186695">
        <ele>2.018</ele>
        <time>2019-06-15T11:32:43Z</time>
      </trkpt>
      <trkpt lat="39.023739" lon="-0.186654">
        <ele>2.042</ele>
        <time>2019-06-15T11:32:44Z</time>
      </trkpt>
      <trkpt lat="39.023691" lon="-0.186614">
        <ele>1.851</ele>
        <time>2019-06-15T11:32:45Z</time>
      </trkpt>
      <trkpt lat="39.023648" lon="-0.186563">
        <ele>1.644</ele>
        <time>2019-06-15T11:32:46Z</time>
      </trkpt>
      <trkpt lat="39.023595" lon="-0.186520">
        <ele>1.486</ele>
        <time>2019-06-15T11:32:47Z</time>
      </trkpt>
      <trkpt lat="39.023551" lon="-0.186472">
        <ele>1.273</ele>
        <time>2019-06-15T11:32:48Z</time>
      </trkpt>
      <trkpt lat="39.023505" lon="-0.186424">
        <ele>1.142</ele>
        <time>2019-06-15T11:32:49Z</time>
      </trkpt>
      <trkpt lat="39.023462" lon="-0.186384">
        <ele>1.087</ele>
        <time>2019-06-15T11:32:50Z</time>
      </trkpt>
      <trkpt lat="39.023366" lon="-0.186332">
        <ele>1.029</ele>
        <time>2019-06-15T11:32:52Z</time>
      </trkpt>
      <trkpt lat="39.023319" lon="-0.186298">
        <ele>1.000</ele>
        <time>2019-06-15T11:32:53Z</time>
      </trkpt>
      <trkpt lat="39.023272" lon="-0.186260">
        <ele>1.020</ele>
        <time>2019-06-15T11:32:54Z</time>
      </trkpt>
      <trkpt lat="39.023227" lon="-0.186216">
        <ele>1.008</ele>
        <time>2019-06-15T11:32:55Z</time>
      </trkpt>
      <trkpt lat="39.023154" lon="-0.186232">
        <ele>1.085</ele>
        <time>2019-06-15T11:32:57Z</time>
      </trkpt>
      <trkpt lat="39.023120" lon="-0.186164">
        <ele>1.079</ele>
        <time>2019-06-15T11:32:58Z</time>
      </trkpt>
      <trkpt lat="39.023064" lon="-0.186162">
        <ele>1.068</ele>
        <time>2019-06-15T11:32:59Z</time>
      </trkpt>
      <trkpt lat="39.023028" lon="-0.186106">
        <ele>1.181</ele>
        <time>2019-06-15T11:33:00Z</time>
      </trkpt>
      <trkpt lat="39.022997" lon="-0.186045">
        <ele>1.423</ele>
        <time>2019-06-15T11:33:01Z</time>
      </trkpt>
      <trkpt lat="39.022952" lon="-0.185979">
        <ele>1.840</ele>
        <time>2019-06-15T11:33:02Z</time>
      </trkpt>
      <trkpt lat="39.022893" lon="-0.185932">
        <ele>2.269</ele>
        <time>2019-06-15T11:33:03Z</time>
      </trkpt>
      <trkpt lat="39.022844" lon="-0.185889">
        <ele>2.694</ele>
        <time>2019-06-15T11:33:04Z</time>
      </trkpt>
      <trkpt lat="39.022780" lon="-0.185830">
        <ele>3.036</ele>
        <time>2019-06-15T11:33:05Z</time>
      </trkpt>
      <trkpt lat="39.022722" lon="-0.185777">
        <ele>3.017</ele>
        <time>2019-06-15T11:33:06Z</time>
      </trkpt>
      <trkpt lat="39.022669" lon="-0.185739">
        <ele>3.118</ele>
        <time>2019-06-15T11:33:07Z</time>
      </trkpt>
      <trkpt lat="39.022604" lon="-0.185655">
        <ele>3.408</ele>
        <time>2019-06-15T11:33:09Z</time>
      </trkpt>
      <trkpt lat="39.022567" lon="-0.185569">
        <ele>3.756</ele>
        <time>2019-06-15T11:33:10Z</time>
      </trkpt>
      <trkpt lat="39.022519" lon="-0.185511">
        <ele>3.930</ele>
        <time>2019-06-15T11:33:11Z</time>
      </trkpt>
      <trkpt lat="39.022460" lon="-0.185455">
        <ele>3.899</ele>
        <time>2019-06-15T11:33:12Z</time>
      </trkpt>
      <trkpt lat="39.022410" lon="-0.185410">
        <ele>3.512</ele>
        <time>2019-06-15T11:33:13Z</time>
      </trkpt>
      <trkpt lat="39.022360" lon="-0.185368">
        <ele>3.324</ele>
        <time>2019-06-15T11:33:14Z</time>
      </trkpt>
      <trkpt lat="39.022308" lon="-0.185336">
        <ele>3.271</ele>
        <time>2019-06-15T11:33:15Z</time>
      </trkpt>
      <trkpt lat="39.022258" lon="-0.185290">
        <ele>3.130</ele>
        <time>2019-06-15T11:33:16Z</time>
      </trkpt>
      <trkpt lat="39.022213" lon="-0.185239">
        <ele>2.935</ele>
        <time>2019-06-15T11:33:17Z</time>
      </trkpt>
      <trkpt lat="39.022163" lon="-0.185195">
        <ele>2.653</ele>
        <time>2019-06-15T11:33:18Z</time>
      </trkpt>
      <trkpt lat="39.022114" lon="-0.185157">
        <ele>2.404</ele>
        <time>2019-06-15T11:33:19Z</time>
      </trkpt>
      <trkpt lat="39.022065" lon="-0.185111">
        <ele>2.214</ele>
        <time>2019-06-15T11:33:20Z</time>
      </trkpt>
      <trkpt lat="39.022017" lon="-0.185073">
        <ele>2.108</ele>
        <time>2019-06-15T11:33:21Z</time>
      </trkpt>
      <trkpt lat="39.021971" lon="-0.185036">
        <ele>2.068</ele>
        <time>2019-06-15T11:33:22Z</time>
      </trkpt>
      <trkpt lat="39.021921" lon="-0.184994">
        <ele>2.012</ele>
        <time>2019-06-15T11:33:23Z</time>
      </trkpt>
      <trkpt lat="39.021875" lon="-0.184951">
        <ele>2.221</ele>
        <time>2019-06-15T11:33:24Z</time>
      </trkpt>
      <trkpt lat="39.021827" lon="-0.184912">
        <ele>2.324</ele>
        <time>2019-06-15T11:33:25Z</time>
      </trkpt>
      <trkpt lat="39.021785" lon="-0.184869">
        <ele>2.516</ele>
        <time>2019-06-15T11:33:26Z</time>
      </trkpt>
      <trkpt lat="39.021736" lon="-0.184828">
        <ele>2.633</ele>
        <time>2019-06-15T11:33:27Z</time>
      </trkpt>
      <trkpt lat="39.021686" lon="-0.184799">
        <ele>2.772</ele>
        <time>2019-06-15T11:33:28Z</time>
      </trkpt>
      <trkpt lat="39.021637" lon="-0.184759">
        <ele>2.997</ele>
        <time>2019-06-15T11:33:29Z</time>
      </trkpt>
      <trkpt lat="39.021586" lon="-0.184719">
        <ele>3.068</ele>
        <time>2019-06-15T11:33:30Z</time>
      </trkpt>
      <trkpt lat="39.021532" lon="-0.184676">
        <ele>3.242</ele>
        <time>2019-06-15T11:33:31Z</time>
      </trkpt>
      <trkpt lat="39.021482" lon="-0.184639">
        <ele>3.326</ele>
        <time>2019-06-15T11:33:32Z</time>
      </trkpt>
      <trkpt lat="39.021440" lon="-0.184594">
        <ele>3.508</ele>
        <time>2019-06-15T11:33:33Z</time>
      </trkpt>
      <trkpt lat="39.021388" lon="-0.184553">
        <ele>3.679</ele>
        <time>2019-06-15T11:33:34Z</time>
      </trkpt>
      <trkpt lat="39.021342" lon="-0.184503">
        <ele>3.663</ele>
        <time>2019-06-15T11:33:35Z</time>
      </trkpt>
      <trkpt lat="39.021302" lon="-0.184469">
        <ele>3.672</ele>
        <time>2019-06-15T11:33:36Z</time>
      </trkpt>
      <trkpt lat="39.021258" lon="-0.184430">
        <ele>3.645</ele>
        <time>2019-06-15T11:33:37Z</time>
      </trkpt>
      <trkpt lat="39.021198" lon="-0.184389">
        <ele>3.537</ele>
        <time>2019-06-15T11:33:38Z</time>
      </trkpt>
      <trkpt lat="39.021117" lon="-0.184310">
        <ele>3.594</ele>
        <time>2019-06-15T11:33:40Z</time>
      </trkpt>
      <trkpt lat="39.021067" lon="-0.184272">
        <ele>3.593</ele>
        <time>2019-06-15T11:33:41Z</time>
      </trkpt>
      <trkpt lat="39.021018" lon="-0.184233">
        <ele>3.488</ele>
        <time>2019-06-15T11:33:42Z</time>
      </trkpt>
      <trkpt lat="39.020965" lon="-0.184208">
        <ele>3.341</ele>
        <time>2019-06-15T11:33:43Z</time>
      </trkpt>
      <trkpt lat="39.020911" lon="-0.184172">
        <ele>3.381</ele>
        <time>2019-06-15T11:33:44Z</time>
      </trkpt>
      <trkpt lat="39.020865" lon="-0.184135">
        <ele>3.309</ele>
        <time>2019-06-15T11:33:45Z</time>
      </trkpt>
      <trkpt lat="39.020821" lon="-0.184084">
        <ele>3.608</ele>
        <time>2019-06-15T11:33:46Z</time>
      </trkpt>
      <trkpt lat="39.020780" lon="-0.184037">
        <ele>3.767</ele>
        <time>2019-06-15T11:33:47Z</time>
      </trkpt>
      <trkpt lat="39.020735" lon="-0.183998">
        <ele>3.931</ele>
        <time>2019-06-15T11:33:48Z</time>
      </trkpt>
      <trkpt lat="39.020685" lon="-0.183957">
        <ele>4.080</ele>
        <time>2019-06-15T11:33:49Z</time>
      </trkpt>
      <trkpt lat="39.020647" lon="-0.183920">
        <ele>4.173</ele>
        <time>2019-06-15T11:33:50Z</time>
      </trkpt>
      <trkpt lat="39.020604" lon="-0.183877">
        <ele>4.275</ele>
        <time>2019-06-15T11:33:51Z</time>
      </trkpt>
      <trkpt lat="39.020562" lon="-0.183829">
        <ele>4.292</ele>
        <time>2019-06-15T11:33:52Z</time>
      </trkpt>
      <trkpt lat="39.020523" lon="-0.183777">
        <ele>4.451</ele>
        <time>2019-06-15T11:33:53Z</time>
      </trkpt>
      <trkpt lat="39.020479" lon="-0.183740">
        <ele>4.466</ele>
        <time>2019-06-15T11:33:54Z</time>
      </trkpt>
      <trkpt lat="39.020428" lon="-0.183701">
        <ele>4.442</ele>
        <time>2019-06-15T11:33:55Z</time>
      </trkpt>
      <trkpt lat="39.020379" lon="-0.183662">
        <ele>4.322</ele>
        <time>2019-06-15T11:33:56Z</time>
      </trkpt>
      <trkpt lat="39.020324" lon="-0.183618">
        <ele>4.214</ele>
        <time>2019-06-15T11:33:57Z</time>
      </trkpt>
      <trkpt lat="39.020274" lon="-0.183576">
        <ele>4.008</ele>
        <time>2019-06-15T11:33:58Z</time>
      </trkpt>
      <trkpt lat="39.020227" lon="-0.183522">
        <ele>3.947</ele>
        <time>2019-06-15T11:33:59Z</time>
      </trkpt>
      <trkpt lat="39.020178" lon="-0.183474">
        <ele>3.851</ele>
        <time>2019-06-15T11:34:00Z</time>
      </trkpt>
      <trkpt lat="39.020124" lon="-0.183435">
        <ele>3.810</ele>
        <time>2019-06-15T11:34:01Z</time>
      </trkpt>
      <trkpt lat="39.020062" lon="-0.183440">
        <ele>3.723</ele>
        <time>2019-06-15T11:34:02Z</time>
      </trkpt>
      <trkpt lat="39.020018" lon="-0.183406">
        <ele>3.855</ele>
        <time>2019-06-15T11:34:03Z</time>
      </trkpt>
      <trkpt lat="39.019985" lon="-0.183342">
        <ele>4.092</ele>
        <time>2019-06-15T11:34:04Z</time>
      </trkpt>
      <trkpt lat="39.019930" lon="-0.183292">
        <ele>4.021</ele>
        <time>2019-06-15T11:34:05Z</time>
      </trkpt>
      <trkpt lat="39.019866" lon="-0.183250">
        <ele>4.036</ele>
        <time>2019-06-15T11:34:06Z</time>
      </trkpt>
      <trkpt lat="39.019790" lon="-0.183172">
        <ele>4.093</ele>
        <time>2019-06-15T11:34:08Z</time>
      </trkpt>
      <trkpt lat="39.019752" lon="-0.183128">
        <ele>4.065</ele>
        <time>2019-06-15T11:34:09Z</time>
      </trkpt>
      <trkpt lat="39.019708" lon="-0.183082">
        <ele>4.021</ele>
        <time>2019-06-15T11:34:10Z</time>
      </trkpt>
      <trkpt lat="39.019654" lon="-0.183042">
        <ele>4.308</ele>
        <time>2019-06-15T11:34:11Z</time>
      </trkpt>
      <trkpt lat="39.019611" lon="-0.183004">
        <ele>4.552</ele>
        <time>2019-06-15T11:34:12Z</time>
      </trkpt>
      <trkpt lat="39.019558" lon="-0.182964">
        <ele>4.786</ele>
        <time>2019-06-15T11:34:13Z</time>
      </trkpt>
      <trkpt lat="39.019500" lon="-0.182929">
        <ele>4.955</ele>
        <time>2019-06-15T11:34:14Z</time>
      </trkpt>
      <trkpt lat="39.019447" lon="-0.182879">
        <ele>5.098</ele>
        <time>2019-06-15T11:34:15Z</time>
      </trkpt>
      <trkpt lat="39.019396" lon="-0.182867">
        <ele>4.910</ele>
        <time>2019-06-15T11:34:16Z</time>
      </trkpt>
      <trkpt lat="39.019362" lon="-0.182820">
        <ele>4.947</ele>
        <time>2019-06-15T11:34:17Z</time>
      </trkpt>
      <trkpt lat="39.019315" lon="-0.182775">
        <ele>5.056</ele>
        <time>2019-06-15T11:34:18Z</time>
      </trkpt>
      <trkpt lat="39.019269" lon="-0.182724">
        <ele>5.591</ele>
        <time>2019-06-15T11:34:19Z</time>
      </trkpt>
      <trkpt lat="39.019230" lon="-0.182681">
        <ele>5.875</ele>
        <time>2019-06-15T11:34:20Z</time>
      </trkpt>
      <trkpt lat="39.019184" lon="-0.182634">
        <ele>6.128</ele>
        <time>2019-06-15T11:34:21Z</time>
      </trkpt>
      <trkpt lat="39.019135" lon="-0.182597">
        <ele>6.020</ele>
        <time>2019-06-15T11:34:22Z</time>
      </trkpt>
      <trkpt lat="39.019086" lon="-0.182561">
        <ele>5.708</ele>
        <time>2019-06-15T11:34:23Z</time>
      </trkpt>
      <trkpt lat="39.018998" lon="-0.182494">
        <ele>5.250</ele>
        <time>2019-06-15T11:34:25Z</time>
      </trkpt>
      <trkpt lat="39.018963" lon="-0.182447">
        <ele>5.034</ele>
        <time>2019-06-15T11:34:26Z</time>
      </trkpt>
      <trkpt lat="39.018919" lon="-0.182404">
        <ele>4.763</ele>
        <time>2019-06-15T11:34:27Z</time>
      </trkpt>
      <trkpt lat="39.018874" lon="-0.182356">
        <ele>4.446</ele>
        <time>2019-06-15T11:34:28Z</time>
      </trkpt>
      <trkpt lat="39.018833" lon="-0.182332">
        <ele>4.218</ele>
        <time>2019-06-15T11:34:29Z</time>
      </trkpt>
      <trkpt lat="39.018790" lon="-0.182296">
        <ele>4.055</ele>
        <time>2019-06-15T11:34:30Z</time>
      </trkpt>
      <trkpt lat="39.018747" lon="-0.182260">
        <ele>3.824</ele>
        <time>2019-06-15T11:34:31Z</time>
      </trkpt>
      <trkpt lat="39.018581" lon="-0.182129">
        <ele>3.079</ele>
        <time>2019-06-15T11:34:35Z</time>
      </trkpt>
      <trkpt lat="39.018550" lon="-0.182079">
        <ele>3.176</ele>
        <time>2019-06-15T11:34:36Z</time>
      </trkpt>
      <trkpt lat="39.018475" lon="-0.182086">
        <ele>3.290</ele>
        <time>2019-06-15T11:34:38Z</time>
      </trkpt>
      <trkpt lat="39.018436" lon="-0.182033">
        <ele>3.419</ele>
        <time>2019-06-15T11:34:39Z</time>
      </trkpt>
      <trkpt lat="39.018399" lon="-0.181989">
        <ele>3.608</ele>
        <time>2019-06-15T11:34:40Z</time>
      </trkpt>
      <trkpt lat="39.018323" lon="-0.182016">
        <ele>3.880</ele>
        <time>2019-06-15T11:34:41Z</time>
      </trkpt>
      <trkpt lat="39.018259" lon="-0.181997">
        <ele>4.114</ele>
        <time>2019-06-15T11:34:42Z</time>
      </trkpt>
      <trkpt lat="39.018194" lon="-0.182018">
        <ele>4.443</ele>
        <time>2019-06-15T11:34:43Z</time>
      </trkpt>
      <trkpt lat="39.018141" lon="-0.182007">
        <ele>4.636</ele>
        <time>2019-06-15T11:34:44Z</time>
      </trkpt>
      <trkpt lat="39.018077" lon="-0.182000">
        <ele>4.928</ele>
        <time>2019-06-15T11:34:45Z</time>
      </trkpt>
      <trkpt lat="39.018008" lon="-0.181945">
        <ele>4.815</ele>
        <time>2019-06-15T11:34:46Z</time>
      </trkpt>
      <trkpt lat="39.017943" lon="-0.181863">
        <ele>4.584</ele>
        <time>2019-06-15T11:34:47Z</time>
      </trkpt>
      <trkpt lat="39.017897" lon="-0.181813">
        <ele>4.289</ele>
        <time>2019-06-15T11:34:48Z</time>
      </trkpt>
      <trkpt lat="39.017852" lon="-0.181740">
        <ele>3.717</ele>
        <time>2019-06-15T11:34:49Z</time>
      </trkpt>
      <trkpt lat="39.017779" lon="-0.181657">
        <ele>3.087</ele>
        <time>2019-06-15T11:34:50Z</time>
      </trkpt>
      <trkpt lat="39.017731" lon="-0.181605">
        <ele>3.015</ele>
        <time>2019-06-15T11:34:51Z</time>
      </trkpt>
      <trkpt lat="39.017676" lon="-0.181532">
        <ele>2.808</ele>
        <time>2019-06-15T11:34:53Z</time>
      </trkpt>
      <trkpt lat="39.017661" lon="-0.181469">
        <ele>2.754</ele>
        <time>2019-06-15T11:34:54Z</time>
      </trkpt>
      <trkpt lat="39.017607" lon="-0.181375">
        <ele>2.418</ele>
        <time>2019-06-15T11:34:56Z</time>
      </trkpt>
      <trkpt lat="39.017565" lon="-0.181328">
        <ele>2.217</ele>
        <time>2019-06-15T11:34:57Z</time>
      </trkpt>
      <trkpt lat="39.017527" lon="-0.181255">
        <ele>2.170</ele>
        <time>2019-06-15T11:34:58Z</time>
      </trkpt>
      <trkpt lat="39.017482" lon="-0.181207">
        <ele>2.012</ele>
        <time>2019-06-15T11:34:59Z</time>
      </trkpt>
      <trkpt lat="39.017426" lon="-0.181152">
        <ele>2.099</ele>
        <time>2019-06-15T11:35:00Z</time>
      </trkpt>
      <trkpt lat="39.017398" lon="-0.181102">
        <ele>2.068</ele>
        <time>2019-06-15T11:35:01Z</time>
      </trkpt>
      <trkpt lat="39.017353" lon="-0.181059">
        <ele>2.073</ele>
        <time>2019-06-15T11:35:02Z</time>
      </trkpt>
      <trkpt lat="39.017306" lon="-0.181008">
        <ele>2.018</ele>
        <time>2019-06-15T11:35:03Z</time>
      </trkpt>
      <trkpt lat="39.017237" lon="-0.180963">
        <ele>2.098</ele>
        <time>2019-06-15T11:35:04Z</time>
      </trkpt>
      <trkpt lat="39.017189" lon="-0.180934">
        <ele>1.917</ele>
        <time>2019-06-15T11:35:05Z</time>
      </trkpt>
      <trkpt lat="39.017142" lon="-0.180897">
        <ele>1.708</ele>
        <time>2019-06-15T11:35:06Z</time>
      </trkpt>
      <trkpt lat="39.017094" lon="-0.180849">
        <ele>1.544</ele>
        <time>2019-06-15T11:35:07Z</time>
      </trkpt>
      <trkpt lat="39.017047" lon="-0.180805">
        <ele>1.428</ele>
        <time>2019-06-15T11:35:08Z</time>
      </trkpt>
      <trkpt lat="39.017012" lon="-0.180740">
        <ele>1.587</ele>
        <time>2019-06-15T11:35:09Z</time>
      </trkpt>
      <trkpt lat="39.016922" lon="-0.180690">
        <ele>1.370</ele>
        <time>2019-06-15T11:35:11Z</time>
      </trkpt>
      <trkpt lat="39.016889" lon="-0.180632">
        <ele>1.112</ele>
        <time>2019-06-15T11:35:12Z</time>
      </trkpt>
      <trkpt lat="39.016836" lon="-0.180611">
        <ele>0.619</ele>
        <time>2019-06-15T11:35:13Z</time>
      </trkpt>
      <trkpt lat="39.016785" lon="-0.180548">
        <ele>0.398</ele>
        <time>2019-06-15T11:35:15Z</time>
      </trkpt>
      <trkpt lat="39.016730" lon="-0.180490">
        <ele>-0.263</ele>
        <time>2019-06-15T11:35:16Z</time>
      </trkpt>
      <trkpt lat="39.016681" lon="-0.180410">
        <ele>-0.433</ele>
        <time>2019-06-15T11:35:17Z</time>
      </trkpt>
      <trkpt lat="39.016593" lon="-0.180384">
        <ele>-0.523</ele>
        <time>2019-06-15T11:35:19Z</time>
      </trkpt>
      <trkpt lat="39.016562" lon="-0.180340">
        <ele>-0.315</ele>
        <time>2019-06-15T11:35:20Z</time>
      </trkpt>
      <trkpt lat="39.016514" lon="-0.180283">
        <ele>-0.008</ele>
        <time>2019-06-15T11:35:21Z</time>
      </trkpt>
      <trkpt lat="39.016459" lon="-0.180215">
        <ele>0.246</ele>
        <time>2019-06-15T11:35:22Z</time>
      </trkpt>
      <trkpt lat="39.016408" lon="-0.180161">
        <ele>0.450</ele>
        <time>2019-06-15T11:35:23Z</time>
      </trkpt>
      <trkpt lat="39.016339" lon="-0.180103">
        <ele>0.839</ele>
        <time>2019-06-15T11:35:25Z</time>
      </trkpt>
      <trkpt lat="39.016309" lon="-0.180055">
        <ele>1.112</ele>
        <time>2019-06-15T11:35:26Z</time>
      </trkpt>
      <trkpt lat="39.016265" lon="-0.179982">
        <ele>1.544</ele>
        <time>2019-06-15T11:35:27Z</time>
      </trkpt>
      <trkpt lat="39.016203" lon="-0.179914">
        <ele>2.091</ele>
        <time>2019-06-15T11:35:28Z</time>
      </trkpt>
      <trkpt lat="39.016176" lon="-0.179834">
        <ele>2.480</ele>
        <time>2019-06-15T11:35:29Z</time>
      </trkpt>
      <trkpt lat="39.016135" lon="-0.179772">
        <ele>2.765</ele>
        <time>2019-06-15T11:35:30Z</time>
      </trkpt>
      <trkpt lat="39.016040" lon="-0.179750">
        <ele>2.919</ele>
        <time>2019-06-15T11:35:32Z</time>
      </trkpt>
      <trkpt lat="39.015997" lon="-0.179692">
        <ele>3.009</ele>
        <time>2019-06-15T11:35:33Z</time>
      </trkpt>
      <trkpt lat="39.015949" lon="-0.179631">
        <ele>3.019</ele>
        <time>2019-06-15T11:35:34Z</time>
      </trkpt>
      <trkpt lat="39.015904" lon="-0.179560">
        <ele>3.008</ele>
        <time>2019-06-15T11:35:35Z</time>
      </trkpt>
      <trkpt lat="39.015861" lon="-0.179478">
        <ele>3.014</ele>
        <time>2019-06-15T11:35:36Z</time>
      </trkpt>
      <trkpt lat="39.015814" lon="-0.179469">
        <ele>2.978</ele>
        <time>2019-06-15T11:35:37Z</time>
      </trkpt>
      <trkpt lat="39.015772" lon="-0.179415">
        <ele>2.557</ele>
        <time>2019-06-15T11:35:38Z</time>
      </trkpt>
      <trkpt lat="39.015720" lon="-0.179426">
        <ele>2.160</ele>
        <time>2019-06-15T11:35:39Z</time>
      </trkpt>
      <trkpt lat="39.015656" lon="-0.179441">
        <ele>1.752</ele>
        <time>2019-06-15T11:35:40Z</time>
      </trkpt>
      <trkpt lat="39.015600" lon="-0.179397">
        <ele>1.389</ele>
        <time>2019-06-15T11:35:41Z</time>
      </trkpt>
      <trkpt lat="39.015572" lon="-0.179323">
        <ele>1.138</ele>
        <time>2019-06-15T11:35:42Z</time>
      </trkpt>
      <trkpt lat="39.015544" lon="-0.179226">
        <ele>1.073</ele>
        <time>2019-06-15T11:35:43Z</time>
      </trkpt>
      <trkpt lat="39.015501" lon="-0.179148">
        <ele>0.954</ele>
        <time>2019-06-15T11:35:44Z</time>
      </trkpt>
      <trkpt lat="39.015431" lon="-0.179145">
        <ele>1.056</ele>
        <time>2019-06-15T11:35:45Z</time>
      </trkpt>
      <trkpt lat="39.015374" lon="-0.179140">
        <ele>1.011</ele>
        <time>2019-06-15T11:35:46Z</time>
      </trkpt>
      <trkpt lat="39.015337" lon="-0.179088">
        <ele>0.908</ele>
        <time>2019-06-15T11:35:47Z</time>
      </trkpt>
      <trkpt lat="39.015301" lon="-0.179024">
        <ele>1.048</ele>
        <time>2019-06-15T11:35:48Z</time>
      </trkpt>
      <trkpt lat="39.015275" lon="-0.178915">
        <ele>1.072</ele>
        <time>2019-06-15T11:35:49Z</time>
      </trkpt>
      <trkpt lat="39.015192" lon="-0.178932">
        <ele>1.631</ele>
        <time>2019-06-15T11:35:50Z</time>
      </trkpt>
      <trkpt lat="39.015136" lon="-0.178902">
        <ele>2.094</ele>
        <time>2019-06-15T11:35:51Z</time>
      </trkpt>
      <trkpt lat="39.015075" lon="-0.178827">
        <ele>2.236</ele>
        <time>2019-06-15T11:35:52Z</time>
      </trkpt>
      <trkpt lat="39.015013" lon="-0.178786">
        <ele>2.573</ele>
        <time>2019-06-15T11:35:53Z</time>
      </trkpt>
      <trkpt lat="39.014969" lon="-0.178832">
        <ele>2.982</ele>
        <time>2019-06-15T11:35:54Z</time>
      </trkpt>
      <trkpt lat="39.014923" lon="-0.178767">
        <ele>3.097</ele>
        <time>2019-06-15T11:35:55Z</time>
      </trkpt>
      <trkpt lat="39.014847" lon="-0.178728">
        <ele>3.311</ele>
        <time>2019-06-15T11:35:56Z</time>
      </trkpt>
      <trkpt lat="39.014796" lon="-0.178674">
        <ele>3.521</ele>
        <time>2019-06-15T11:35:57Z</time>
      </trkpt>
      <trkpt lat="39.014742" lon="-0.178633">
        <ele>3.903</ele>
        <time>2019-06-15T11:35:58Z</time>
      </trkpt>
      <trkpt lat="39.014666" lon="-0.178541">
        <ele>3.608</ele>
        <time>2019-06-15T11:36:00Z</time>
      </trkpt>
      <trkpt lat="39.014615" lon="-0.178494">
        <ele>3.444</ele>
        <time>2019-06-15T11:36:01Z</time>
      </trkpt>
      <trkpt lat="39.014571" lon="-0.178437">
        <ele>3.288</ele>
        <time>2019-06-15T11:36:02Z</time>
      </trkpt>
      <trkpt lat="39.014514" lon="-0.178390">
        <ele>3.177</ele>
        <time>2019-06-15T11:36:03Z</time>
      </trkpt>
      <trkpt lat="39.014457" lon="-0.178336">
        <ele>3.060</ele>
        <time>2019-06-15T11:36:04Z</time>
      </trkpt>
      <trkpt lat="39.014406" lon="-0.178298">
        <ele>2.932</ele>
        <time>2019-06-15T11:36:05Z</time>
      </trkpt>
      <trkpt lat="39.014351" lon="-0.178259">
        <ele>2.759</ele>
        <time>2019-06-15T11:36:06Z</time>
      </trkpt>
      <trkpt lat="39.014294" lon="-0.178206">
        <ele>2.558</ele>
        <time>2019-06-15T11:36:07Z</time>
      </trkpt>
      <trkpt lat="39.014242" lon="-0.178150">
        <ele>2.343</ele>
        <time>2019-06-15T11:36:08Z</time>
      </trkpt>
      <trkpt lat="39.014194" lon="-0.178084">
        <ele>2.139</ele>
        <time>2019-06-15T11:36:09Z</time>
      </trkpt>
      <trkpt lat="39.014149" lon="-0.178039">
        <ele>2.201</ele>
        <time>2019-06-15T11:36:10Z</time>
      </trkpt>
      <trkpt lat="39.014094" lon="-0.177999">
        <ele>2.621</ele>
        <time>2019-06-15T11:36:11Z</time>
      </trkpt>
      <trkpt lat="39.014042" lon="-0.177951">
        <ele>3.008</ele>
        <time>2019-06-15T11:36:12Z</time>
      </trkpt>
      <trkpt lat="39.013992" lon="-0.177915">
        <ele>3.396</ele>
        <time>2019-06-15T11:36:13Z</time>
      </trkpt>
      <trkpt lat="39.013941" lon="-0.177871">
        <ele>3.690</ele>
        <time>2019-06-15T11:36:14Z</time>
      </trkpt>
      <trkpt lat="39.013886" lon="-0.177825">
        <ele>3.899</ele>
        <time>2019-06-15T11:36:15Z</time>
      </trkpt>
      <trkpt lat="39.013832" lon="-0.177779">
        <ele>4.082</ele>
        <time>2019-06-15T11:36:16Z</time>
      </trkpt>
      <trkpt lat="39.013782" lon="-0.177727">
        <ele>4.394</ele>
        <time>2019-06-15T11:36:17Z</time>
      </trkpt>
      <trkpt lat="39.013735" lon="-0.177678">
        <ele>4.511</ele>
        <time>2019-06-15T11:36:18Z</time>
      </trkpt>
      <trkpt lat="39.013680" lon="-0.177631">
        <ele>4.760</ele>
        <time>2019-06-15T11:36:19Z</time>
      </trkpt>
      <trkpt lat="39.013628" lon="-0.177591">
        <ele>4.765</ele>
        <time>2019-06-15T11:36:20Z</time>
      </trkpt>
      <trkpt lat="39.013573" lon="-0.177548">
        <ele>4.623</ele>
        <time>2019-06-15T11:36:21Z</time>
      </trkpt>
      <trkpt lat="39.013523" lon="-0.177498">
        <ele>4.483</ele>
        <time>2019-06-15T11:36:22Z</time>
      </trkpt>
      <trkpt lat="39.013480" lon="-0.177451">
        <ele>4.111</ele>
        <time>2019-06-15T11:36:23Z</time>
      </trkpt>
      <trkpt lat="39.013423" lon="-0.177410">
        <ele>3.808</ele>
        <time>2019-06-15T11:36:24Z</time>
      </trkpt>
      <trkpt lat="39.013386" lon="-0.177356">
        <ele>3.595</ele>
        <time>2019-06-15T11:36:25Z</time>
      </trkpt>
      <trkpt lat="39.013334" lon="-0.177312">
        <ele>3.059</ele>
        <time>2019-06-15T11:36:26Z</time>
      </trkpt>
      <trkpt lat="39.013289" lon="-0.177268">
        <ele>2.458</ele>
        <time>2019-06-15T11:36:27Z</time>
      </trkpt>
      <trkpt lat="39.013238" lon="-0.177216">
        <ele>1.621</ele>
        <time>2019-06-15T11:36:28Z</time>
      </trkpt>
      <trkpt lat="39.013191" lon="-0.177176">
        <ele>1.093</ele>
        <time>2019-06-15T11:36:29Z</time>
      </trkpt>
      <trkpt lat="39.013140" lon="-0.177127">
        <ele>0.320</ele>
        <time>2019-06-15T11:36:30Z</time>
      </trkpt>
      <trkpt lat="39.013090" lon="-0.177083">
        <ele>-0.149</ele>
        <time>2019-06-15T11:36:31Z</time>
      </trkpt>
      <trkpt lat="39.013036" lon="-0.177039">
        <ele>-0.214</ele>
        <time>2019-06-15T11:36:32Z</time>
      </trkpt>
      <trkpt lat="39.012993" lon="-0.176991">
        <ele>0.372</ele>
        <time>2019-06-15T11:36:33Z</time>
      </trkpt>
      <trkpt lat="39.012943" lon="-0.176951">
        <ele>0.813</ele>
        <time>2019-06-15T11:36:34Z</time>
      </trkpt>
      <trkpt lat="39.012893" lon="-0.176912">
        <ele>1.414</ele>
        <time>2019-06-15T11:36:35Z</time>
      </trkpt>
      <trkpt lat="39.012831" lon="-0.176884">
        <ele>2.108</ele>
        <time>2019-06-15T11:36:36Z</time>
      </trkpt>
      <trkpt lat="39.012783" lon="-0.176837">
        <ele>2.750</ele>
        <time>2019-06-15T11:36:37Z</time>
      </trkpt>
      <trkpt lat="39.012736" lon="-0.176780">
        <ele>3.374</ele>
        <time>2019-06-15T11:36:38Z</time>
      </trkpt>
      <trkpt lat="39.012693" lon="-0.176712">
        <ele>4.073</ele>
        <time>2019-06-15T11:36:39Z</time>
      </trkpt>
      <trkpt lat="39.012642" lon="-0.176638">
        <ele>4.756</ele>
        <time>2019-06-15T11:36:40Z</time>
      </trkpt>
      <trkpt lat="39.012592" lon="-0.176596">
        <ele>5.118</ele>
        <time>2019-06-15T11:36:41Z</time>
      </trkpt>
      <trkpt lat="39.012554" lon="-0.176535">
        <ele>5.535</ele>
        <time>2019-06-15T11:36:42Z</time>
      </trkpt>
      <trkpt lat="39.012502" lon="-0.176503">
        <ele>5.664</ele>
        <time>2019-06-15T11:36:43Z</time>
      </trkpt>
      <trkpt lat="39.012458" lon="-0.176458">
        <ele>5.519</ele>
        <time>2019-06-15T11:36:44Z</time>
      </trkpt>
      <trkpt lat="39.012398" lon="-0.176424">
        <ele>5.248</ele>
        <time>2019-06-15T11:36:45Z</time>
      </trkpt>
      <trkpt lat="39.012326" lon="-0.176377">
        <ele>4.861</ele>
        <time>2019-06-15T11:36:46Z</time>
      </trkpt>
      <trkpt lat="39.012234" lon="-0.176379">
        <ele>4.217</ele>
        <time>2019-06-15T11:36:47Z</time>
      </trkpt>
      <trkpt lat="39.012178" lon="-0.176333">
        <ele>4.108</ele>
        <time>2019-06-15T11:36:48Z</time>
      </trkpt>
      <trkpt lat="39.012119" lon="-0.176278">
        <ele>4.167</ele>
        <time>2019-06-15T11:36:49Z</time>
      </trkpt>
      <trkpt lat="39.012078" lon="-0.176224">
        <ele>4.111</ele>
        <time>2019-06-15T11:36:50Z</time>
      </trkpt>
      <trkpt lat="39.012024" lon="-0.176167">
        <ele>4.230</ele>
        <time>2019-06-15T11:36:51Z</time>
      </trkpt>
      <trkpt lat="39.012003" lon="-0.176092">
        <ele>4.673</ele>
        <time>2019-06-15T11:36:52Z</time>
      </trkpt>
      <trkpt lat="39.011962" lon="-0.176029">
        <ele>5.055</ele>
        <time>2019-06-15T11:36:53Z</time>
      </trkpt>
      <trkpt lat="39.011917" lon="-0.175986">
        <ele>5.252</ele>
        <time>2019-06-15T11:36:54Z</time>
      </trkpt>
      <trkpt lat="39.011849" lon="-0.175960">
        <ele>4.961</ele>
        <time>2019-06-15T11:36:55Z</time>
      </trkpt>
      <trkpt lat="39.011800" lon="-0.175891">
        <ele>5.326</ele>
        <time>2019-06-15T11:36:56Z</time>
      </trkpt>
      <trkpt lat="39.011736" lon="-0.175835">
        <ele>5.518</ele>
        <time>2019-06-15T11:36:57Z</time>
      </trkpt>
      <trkpt lat="39.011692" lon="-0.175794">
        <ele>5.398</ele>
        <time>2019-06-15T11:36:58Z</time>
      </trkpt>
      <trkpt lat="39.011638" lon="-0.175742">
        <ele>5.317</ele>
        <time>2019-06-15T11:36:59Z</time>
      </trkpt>
      <trkpt lat="39.011586" lon="-0.175695">
        <ele>5.408</ele>
        <time>2019-06-15T11:37:00Z</time>
      </trkpt>
      <trkpt lat="39.011535" lon="-0.175650">
        <ele>5.594</ele>
        <time>2019-06-15T11:37:01Z</time>
      </trkpt>
      <trkpt lat="39.011488" lon="-0.175595">
        <ele>5.848</ele>
        <time>2019-06-15T11:37:02Z</time>
      </trkpt>
      <trkpt lat="39.011440" lon="-0.175539">
        <ele>6.157</ele>
        <time>2019-06-15T11:37:03Z</time>
      </trkpt>
      <trkpt lat="39.011396" lon="-0.175494">
        <ele>6.220</ele>
        <time>2019-06-15T11:37:04Z</time>
      </trkpt>
      <trkpt lat="39.011342" lon="-0.175450">
        <ele>6.282</ele>
        <time>2019-06-15T11:37:05Z</time>
      </trkpt>
      <trkpt lat="39.011293" lon="-0.175410">
        <ele>6.289</ele>
        <time>2019-06-15T11:37:06Z</time>
      </trkpt>
      <trkpt lat="39.011250" lon="-0.175361">
        <ele>6.238</ele>
        <time>2019-06-15T11:37:07Z</time>
      </trkpt>
      <trkpt lat="39.011197" lon="-0.175317">
        <ele>6.243</ele>
        <time>2019-06-15T11:37:08Z</time>
      </trkpt>
      <trkpt lat="39.011147" lon="-0.175269">
        <ele>6.114</ele>
        <time>2019-06-15T11:37:09Z</time>
      </trkpt>
      <trkpt lat="39.011114" lon="-0.175207">
        <ele>6.054</ele>
        <time>2019-06-15T11:37:10Z</time>
      </trkpt>
      <trkpt lat="39.011053" lon="-0.175162">
        <ele>5.809</ele>
        <time>2019-06-15T11:37:11Z</time>
      </trkpt>
      <trkpt lat="39.011005" lon="-0.175105">
        <ele>5.608</ele>
        <time>2019-06-15T11:37:12Z</time>
      </trkpt>
      <trkpt lat="39.010958" lon="-0.175057">
        <ele>5.434</ele>
        <time>2019-06-15T11:37:13Z</time>
      </trkpt>
      <trkpt lat="39.010906" lon="-0.175014">
        <ele>5.328</ele>
        <time>2019-06-15T11:37:14Z</time>
      </trkpt>
      <trkpt lat="39.010857" lon="-0.174962">
        <ele>5.247</ele>
        <time>2019-06-15T11:37:15Z</time>
      </trkpt>
      <trkpt lat="39.010809" lon="-0.174916">
        <ele>5.240</ele>
        <time>2019-06-15T11:37:16Z</time>
      </trkpt>
      <trkpt lat="39.010768" lon="-0.174873">
        <ele>5.112</ele>
        <time>2019-06-15T11:37:17Z</time>
      </trkpt>
      <trkpt lat="39.010719" lon="-0.174829">
        <ele>5.099</ele>
        <time>2019-06-15T11:37:18Z</time>
      </trkpt>
      <trkpt lat="39.010671" lon="-0.174789">
        <ele>4.788</ele>
        <time>2019-06-15T11:37:19Z</time>
      </trkpt>
      <trkpt lat="39.010624" lon="-0.174736">
        <ele>4.553</ele>
        <time>2019-06-15T11:37:20Z</time>
      </trkpt>
      <trkpt lat="39.010576" lon="-0.174690">
        <ele>4.185</ele>
        <time>2019-06-15T11:37:21Z</time>
      </trkpt>
      <trkpt lat="39.010521" lon="-0.174650">
        <ele>3.989</ele>
        <time>2019-06-15T11:37:22Z</time>
      </trkpt>
      <trkpt lat="39.010473" lon="-0.174602">
        <ele>3.817</ele>
        <time>2019-06-15T11:37:23Z</time>
      </trkpt>
      <trkpt lat="39.010427" lon="-0.174553">
        <ele>3.808</ele>
        <time>2019-06-15T11:37:24Z</time>
      </trkpt>
      <trkpt lat="39.010385" lon="-0.174508">
        <ele>3.961</ele>
        <time>2019-06-15T11:37:25Z</time>
      </trkpt>
      <trkpt lat="39.010344" lon="-0.174467">
        <ele>3.935</ele>
        <time>2019-06-15T11:37:26Z</time>
      </trkpt>
      <trkpt lat="39.010295" lon="-0.174416">
        <ele>4.164</ele>
        <time>2019-06-15T11:37:27Z</time>
      </trkpt>
      <trkpt lat="39.010251" lon="-0.174370">
        <ele>4.477</ele>
        <time>2019-06-15T11:37:28Z</time>
      </trkpt>
      <trkpt lat="39.010205" lon="-0.174328">
        <ele>4.759</ele>
        <time>2019-06-15T11:37:29Z</time>
      </trkpt>
      <trkpt lat="39.010161" lon="-0.174292">
        <ele>5.086</ele>
        <time>2019-06-15T11:37:30Z</time>
      </trkpt>
      <trkpt lat="39.010093" lon="-0.174251">
        <ele>5.425</ele>
        <time>2019-06-15T11:37:31Z</time>
      </trkpt>
      <trkpt lat="39.010054" lon="-0.174207">
        <ele>5.780</ele>
        <time>2019-06-15T11:37:32Z</time>
      </trkpt>
      <trkpt lat="39.010006" lon="-0.174159">
        <ele>6.089</ele>
        <time>2019-06-15T11:37:33Z</time>
      </trkpt>
      <trkpt lat="39.009950" lon="-0.174123">
        <ele>6.006</ele>
        <time>2019-06-15T11:37:34Z</time>
      </trkpt>
      <trkpt lat="39.009899" lon="-0.174079">
        <ele>6.026</ele>
        <time>2019-06-15T11:37:35Z</time>
      </trkpt>
      <trkpt lat="39.009854" lon="-0.174030">
        <ele>6.008</ele>
        <time>2019-06-15T11:37:36Z</time>
      </trkpt>
      <trkpt lat="39.009811" lon="-0.173987">
        <ele>6.021</ele>
        <time>2019-06-15T11:37:37Z</time>
      </trkpt>
      <trkpt lat="39.009757" lon="-0.173949">
        <ele>5.935</ele>
        <time>2019-06-15T11:37:38Z</time>
      </trkpt>
      <trkpt lat="39.009673" lon="-0.173878">
        <ele>5.714</ele>
        <time>2019-06-15T11:37:40Z</time>
      </trkpt>
      <trkpt lat="39.009534" lon="-0.173768">
        <ele>4.927</ele>
        <time>2019-06-15T11:37:43Z</time>
      </trkpt>
      <trkpt lat="39.009432" lon="-0.173807">
        <ele>4.279</ele>
        <time>2019-06-15T11:37:45Z</time>
      </trkpt>
      <trkpt lat="39.009397" lon="-0.173754">
        <ele>4.346</ele>
        <time>2019-06-15T11:37:46Z</time>
      </trkpt>
      <trkpt lat="39.009369" lon="-0.173694">
        <ele>4.425</ele>
        <time>2019-06-15T11:37:48Z</time>
      </trkpt>
      <trkpt lat="39.009299" lon="-0.173667">
        <ele>4.380</ele>
        <time>2019-06-15T11:37:49Z</time>
      </trkpt>
      <trkpt lat="39.009270" lon="-0.173576">
        <ele>4.422</ele>
        <time>2019-06-15T11:37:51Z</time>
      </trkpt>
      <trkpt lat="39.009230" lon="-0.173513">
        <ele>4.262</ele>
        <time>2019-06-15T11:37:52Z</time>
      </trkpt>
      <trkpt lat="39.009238" lon="-0.173412">
        <ele>4.308</ele>
        <time>2019-06-15T11:37:53Z</time>
      </trkpt>
      <trkpt lat="39.009171" lon="-0.173330">
        <ele>4.008</ele>
        <time>2019-06-15T11:37:54Z</time>
      </trkpt>
      <trkpt lat="39.009129" lon="-0.173272">
        <ele>4.185</ele>
        <time>2019-06-15T11:37:55Z</time>
      </trkpt>
      <trkpt lat="39.009108" lon="-0.173209">
        <ele>4.239</ele>
        <time>2019-06-15T11:37:56Z</time>
      </trkpt>
      <trkpt lat="39.009050" lon="-0.173252">
        <ele>3.918</ele>
        <time>2019-06-15T11:37:57Z</time>
      </trkpt>
      <trkpt lat="39.008974" lon="-0.173268">
        <ele>3.571</ele>
        <time>2019-06-15T11:37:58Z</time>
      </trkpt>
      <trkpt lat="39.008939" lon="-0.173217">
        <ele>3.653</ele>
        <time>2019-06-15T11:37:59Z</time>
      </trkpt>
      <trkpt lat="39.008885" lon="-0.173176">
        <ele>3.690</ele>
        <time>2019-06-15T11:38:00Z</time>
      </trkpt>
      <trkpt lat="39.008798" lon="-0.173148">
        <ele>3.859</ele>
        <time>2019-06-15T11:38:02Z</time>
      </trkpt>
      <trkpt lat="39.008748" lon="-0.173153">
        <ele>3.894</ele>
        <time>2019-06-15T11:38:03Z</time>
      </trkpt>
      <trkpt lat="39.008685" lon="-0.173129">
        <ele>3.926</ele>
        <time>2019-06-15T11:38:04Z</time>
      </trkpt>
      <trkpt lat="39.008620" lon="-0.173150">
        <ele>4.047</ele>
        <time>2019-06-15T11:38:05Z</time>
      </trkpt>
      <trkpt lat="39.008576" lon="-0.173112">
        <ele>4.111</ele>
        <time>2019-06-15T11:38:06Z</time>
      </trkpt>
      <trkpt lat="39.008484" lon="-0.173118">
        <ele>4.508</ele>
        <time>2019-06-15T11:38:08Z</time>
      </trkpt>
      <trkpt lat="39.008431" lon="-0.173141">
        <ele>4.645</ele>
        <time>2019-06-15T11:38:09Z</time>
      </trkpt>
      <trkpt lat="39.008379" lon="-0.173199">
        <ele>4.899</ele>
        <time>2019-06-15T11:38:10Z</time>
      </trkpt>
      <trkpt lat="39.008313" lon="-0.173285">
        <ele>5.098</ele>
        <time>2019-06-15T11:38:12Z</time>
      </trkpt>
      <trkpt lat="39.008282" lon="-0.173337">
        <ele>5.061</ele>
        <time>2019-06-15T11:38:13Z</time>
      </trkpt>
      <trkpt lat="39.008226" lon="-0.173379">
        <ele>4.973</ele>
        <time>2019-06-15T11:38:14Z</time>
      </trkpt>
      <trkpt lat="39.008196" lon="-0.173444">
        <ele>4.840</ele>
        <time>2019-06-15T11:38:15Z</time>
      </trkpt>
      <trkpt lat="39.008135" lon="-0.173490">
        <ele>4.689</ele>
        <time>2019-06-15T11:38:16Z</time>
      </trkpt>
      <trkpt lat="39.008082" lon="-0.173537">
        <ele>4.364</ele>
        <time>2019-06-15T11:38:17Z</time>
      </trkpt>
      <trkpt lat="39.008057" lon="-0.173589">
        <ele>4.134</ele>
        <time>2019-06-15T11:38:18Z</time>
      </trkpt>
      <trkpt lat="39.008004" lon="-0.173629">
        <ele>3.855</ele>
        <time>2019-06-15T11:38:19Z</time>
      </trkpt>
      <trkpt lat="39.007952" lon="-0.173677">
        <ele>3.410</ele>
        <time>2019-06-15T11:38:20Z</time>
      </trkpt>
      <trkpt lat="39.007912" lon="-0.173721">
        <ele>3.108</ele>
        <time>2019-06-15T11:38:21Z</time>
      </trkpt>
      <trkpt lat="39.007895" lon="-0.173793">
        <ele>2.876</ele>
        <time>2019-06-15T11:38:22Z</time>
      </trkpt>
      <trkpt lat="39.007844" lon="-0.173856">
        <ele>2.470</ele>
        <time>2019-06-15T11:38:23Z</time>
      </trkpt>
      <trkpt lat="39.007803" lon="-0.173923">
        <ele>2.199</ele>
        <time>2019-06-15T11:38:24Z</time>
      </trkpt>
      <trkpt lat="39.007768" lon="-0.173994">
        <ele>2.092</ele>
        <time>2019-06-15T11:38:25Z</time>
      </trkpt>
      <trkpt lat="39.007707" lon="-0.174045">
        <ele>2.094</ele>
        <time>2019-06-15T11:38:26Z</time>
      </trkpt>
      <trkpt lat="39.007654" lon="-0.174105">
        <ele>2.021</ele>
        <time>2019-06-15T11:38:27Z</time>
      </trkpt>
      <trkpt lat="39.007605" lon="-0.174156">
        <ele>2.050</ele>
        <time>2019-06-15T11:38:28Z</time>
      </trkpt>
      <trkpt lat="39.007555" lon="-0.174222">
        <ele>2.025</ele>
        <time>2019-06-15T11:38:29Z</time>
      </trkpt>
      <trkpt lat="39.007491" lon="-0.174259">
        <ele>2.032</ele>
        <time>2019-06-15T11:38:30Z</time>
      </trkpt>
      <trkpt lat="39.007455" lon="-0.174310">
        <ele>2.292</ele>
        <time>2019-06-15T11:38:31Z</time>
      </trkpt>
      <trkpt lat="39.007441" lon="-0.174386">
        <ele>2.211</ele>
        <time>2019-06-15T11:38:32Z</time>
      </trkpt>
      <trkpt lat="39.007398" lon="-0.174450">
        <ele>2.408</ele>
        <time>2019-06-15T11:38:33Z</time>
      </trkpt>
      <trkpt lat="39.007344" lon="-0.174490">
        <ele>2.536</ele>
        <time>2019-06-15T11:38:34Z</time>
      </trkpt>
      <trkpt lat="39.007307" lon="-0.174555">
        <ele>2.670</ele>
        <time>2019-06-15T11:38:35Z</time>
      </trkpt>
      <trkpt lat="39.007260" lon="-0.174599">
        <ele>2.829</ele>
        <time>2019-06-15T11:38:36Z</time>
      </trkpt>
      <trkpt lat="39.007215" lon="-0.174667">
        <ele>3.012</ele>
        <time>2019-06-15T11:38:37Z</time>
      </trkpt>
      <trkpt lat="39.007161" lon="-0.174710">
        <ele>3.094</ele>
        <time>2019-06-15T11:38:38Z</time>
      </trkpt>
      <trkpt lat="39.007108" lon="-0.174759">
        <ele>2.931</ele>
        <time>2019-06-15T11:38:39Z</time>
      </trkpt>
      <trkpt lat="39.007069" lon="-0.174803">
        <ele>2.980</ele>
        <time>2019-06-15T11:38:40Z</time>
      </trkpt>
      <trkpt lat="39.007028" lon="-0.174856">
        <ele>2.955</ele>
        <time>2019-06-15T11:38:41Z</time>
      </trkpt>
      <trkpt lat="39.006972" lon="-0.174909">
        <ele>2.978</ele>
        <time>2019-06-15T11:38:42Z</time>
      </trkpt>
      <trkpt lat="39.006930" lon="-0.174959">
        <ele>3.033</ele>
        <time>2019-06-15T11:38:43Z</time>
      </trkpt>
      <trkpt lat="39.006885" lon="-0.175002">
        <ele>3.026</ele>
        <time>2019-06-15T11:38:44Z</time>
      </trkpt>
      <trkpt lat="39.006835" lon="-0.175036">
        <ele>2.908</ele>
        <time>2019-06-15T11:38:45Z</time>
      </trkpt>
      <trkpt lat="39.006780" lon="-0.175077">
        <ele>2.930</ele>
        <time>2019-06-15T11:38:46Z</time>
      </trkpt>
      <trkpt lat="39.006734" lon="-0.175111">
        <ele>2.964</ele>
        <time>2019-06-15T11:38:47Z</time>
      </trkpt>
      <trkpt lat="39.006694" lon="-0.175151">
        <ele>2.983</ele>
        <time>2019-06-15T11:38:48Z</time>
      </trkpt>
      <trkpt lat="39.006648" lon="-0.175187">
        <ele>2.896</ele>
        <time>2019-06-15T11:38:49Z</time>
      </trkpt>
      <trkpt lat="39.006604" lon="-0.175240">
        <ele>2.528</ele>
        <time>2019-06-15T11:38:50Z</time>
      </trkpt>
      <trkpt lat="39.006560" lon="-0.175297">
        <ele>2.155</ele>
        <time>2019-06-15T11:38:51Z</time>
      </trkpt>
      <trkpt lat="39.006480" lon="-0.175326">
        <ele>1.514</ele>
        <time>2019-06-15T11:38:52Z</time>
      </trkpt>
      <trkpt lat="39.006439" lon="-0.175395">
        <ele>1.299</ele>
        <time>2019-06-15T11:38:53Z</time>
      </trkpt>
      <trkpt lat="39.006421" lon="-0.175449">
        <ele>1.156</ele>
        <time>2019-06-15T11:38:54Z</time>
      </trkpt>
      <trkpt lat="39.006358" lon="-0.175486">
        <ele>0.959</ele>
        <time>2019-06-15T11:38:55Z</time>
      </trkpt>
      <trkpt lat="39.006305" lon="-0.175525">
        <ele>0.914</ele>
        <time>2019-06-15T11:38:56Z</time>
      </trkpt>
      <trkpt lat="39.006252" lon="-0.175576">
        <ele>1.008</ele>
        <time>2019-06-15T11:38:57Z</time>
      </trkpt>
      <trkpt lat="39.006210" lon="-0.175636">
        <ele>1.248</ele>
        <time>2019-06-15T11:38:58Z</time>
      </trkpt>
      <trkpt lat="39.006158" lon="-0.175680">
        <ele>1.452</ele>
        <time>2019-06-15T11:38:59Z</time>
      </trkpt>
      <trkpt lat="39.006112" lon="-0.175721">
        <ele>1.611</ele>
        <time>2019-06-15T11:39:00Z</time>
      </trkpt>
      <trkpt lat="39.006063" lon="-0.175767">
        <ele>1.984</ele>
        <time>2019-06-15T11:39:01Z</time>
      </trkpt>
      <trkpt lat="39.006014" lon="-0.175812">
        <ele>2.386</ele>
        <time>2019-06-15T11:39:02Z</time>
      </trkpt>
      <trkpt lat="39.005965" lon="-0.175867">
        <ele>2.513</ele>
        <time>2019-06-15T11:39:03Z</time>
      </trkpt>
      <trkpt lat="39.005910" lon="-0.175909">
        <ele>2.742</ele>
        <time>2019-06-15T11:39:04Z</time>
      </trkpt>
      <trkpt lat="39.005858" lon="-0.175944">
        <ele>2.967</ele>
        <time>2019-06-15T11:39:05Z</time>
      </trkpt>
      <trkpt lat="39.005815" lon="-0.175994">
        <ele>3.011</ele>
        <time>2019-06-15T11:39:06Z</time>
      </trkpt>
      <trkpt lat="39.005765" lon="-0.176045">
        <ele>3.021</ele>
        <time>2019-06-15T11:39:07Z</time>
      </trkpt>
      <trkpt lat="39.005714" lon="-0.176115">
        <ele>3.003</ele>
        <time>2019-06-15T11:39:08Z</time>
      </trkpt>
      <trkpt lat="39.005673" lon="-0.176175">
        <ele>3.008</ele>
        <time>2019-06-15T11:39:09Z</time>
      </trkpt>
      <trkpt lat="39.005605" lon="-0.176200">
        <ele>3.054</ele>
        <time>2019-06-15T11:39:10Z</time>
      </trkpt>
      <trkpt lat="39.005535" lon="-0.176240">
        <ele>3.028</ele>
        <time>2019-06-15T11:39:11Z</time>
      </trkpt>
      <trkpt lat="39.005500" lon="-0.176276">
        <ele>3.147</ele>
        <time>2019-06-15T11:39:12Z</time>
      </trkpt>
      <trkpt lat="39.005458" lon="-0.176321">
        <ele>3.170</ele>
        <time>2019-06-15T11:39:13Z</time>
      </trkpt>
      <trkpt lat="39.005394" lon="-0.176352">
        <ele>3.182</ele>
        <time>2019-06-15T11:39:14Z</time>
      </trkpt>
      <trkpt lat="39.005343" lon="-0.176390">
        <ele>3.089</ele>
        <time>2019-06-15T11:39:15Z</time>
      </trkpt>
      <trkpt lat="39.005294" lon="-0.176460">
        <ele>2.588</ele>
        <time>2019-06-15T11:39:16Z</time>
      </trkpt>
      <trkpt lat="39.005238" lon="-0.176461">
        <ele>2.253</ele>
        <time>2019-06-15T11:39:17Z</time>
      </trkpt>
      <trkpt lat="39.005220" lon="-0.176561">
        <ele>1.597</ele>
        <time>2019-06-15T11:39:18Z</time>
      </trkpt>
      <trkpt lat="39.005171" lon="-0.176606">
        <ele>1.023</ele>
        <time>2019-06-15T11:39:19Z</time>
      </trkpt>
      <trkpt lat="39.005112" lon="-0.176646">
        <ele>0.525</ele>
        <time>2019-06-15T11:39:20Z</time>
      </trkpt>
      <trkpt lat="39.005061" lon="-0.176687">
        <ele>0.108</ele>
        <time>2019-06-15T11:39:21Z</time>
      </trkpt>
      <trkpt lat="39.005000" lon="-0.176721">
        <ele>-0.252</ele>
        <time>2019-06-15T11:39:22Z</time>
      </trkpt>
      <trkpt lat="39.004950" lon="-0.176776">
        <ele>-0.516</ele>
        <time>2019-06-15T11:39:23Z</time>
      </trkpt>
      <trkpt lat="39.004904" lon="-0.176825">
        <ele>-0.715</ele>
        <time>2019-06-15T11:39:24Z</time>
      </trkpt>
      <trkpt lat="39.004859" lon="-0.176878">
        <ele>-0.988</ele>
        <time>2019-06-15T11:39:25Z</time>
      </trkpt>
      <trkpt lat="39.004813" lon="-0.176924">
        <ele>-1.090</ele>
        <time>2019-06-15T11:39:26Z</time>
      </trkpt>
      <trkpt lat="39.004763" lon="-0.176969">
        <ele>-0.937</ele>
        <time>2019-06-15T11:39:27Z</time>
      </trkpt>
      <trkpt lat="39.004720" lon="-0.177017">
        <ele>-0.766</ele>
        <time>2019-06-15T11:39:28Z</time>
      </trkpt>
      <trkpt lat="39.004672" lon="-0.177065">
        <ele>-0.461</ele>
        <time>2019-06-15T11:39:29Z</time>
      </trkpt>
      <trkpt lat="39.004600" lon="-0.177110">
        <ele>0.088</ele>
        <time>2019-06-15T11:39:30Z</time>
      </trkpt>
      <trkpt lat="39.004553" lon="-0.177167">
        <ele>0.424</ele>
        <time>2019-06-15T11:39:31Z</time>
      </trkpt>
      <trkpt lat="39.004506" lon="-0.177214">
        <ele>0.726</ele>
        <time>2019-06-15T11:39:32Z</time>
      </trkpt>
      <trkpt lat="39.004459" lon="-0.177257">
        <ele>1.208</ele>
        <time>2019-06-15T11:39:33Z</time>
      </trkpt>
      <trkpt lat="39.004414" lon="-0.177314">
        <ele>1.641</ele>
        <time>2019-06-15T11:39:34Z</time>
      </trkpt>
      <trkpt lat="39.004364" lon="-0.177350">
        <ele>1.865</ele>
        <time>2019-06-15T11:39:35Z</time>
      </trkpt>
      <trkpt lat="39.004315" lon="-0.177402">
        <ele>2.034</ele>
        <time>2019-06-15T11:39:36Z</time>
      </trkpt>
      <trkpt lat="39.004259" lon="-0.177448">
        <ele>2.147</ele>
        <time>2019-06-15T11:39:37Z</time>
      </trkpt>
      <trkpt lat="39.004211" lon="-0.177503">
        <ele>2.299</ele>
        <time>2019-06-15T11:39:38Z</time>
      </trkpt>
      <trkpt lat="39.004164" lon="-0.177567">
        <ele>2.776</ele>
        <time>2019-06-15T11:39:39Z</time>
      </trkpt>
      <trkpt lat="39.004124" lon="-0.177624">
        <ele>3.045</ele>
        <time>2019-06-15T11:39:40Z</time>
      </trkpt>
      <trkpt lat="39.004087" lon="-0.177691">
        <ele>3.490</ele>
        <time>2019-06-15T11:39:41Z</time>
      </trkpt>
      <trkpt lat="39.004054" lon="-0.177763">
        <ele>3.716</ele>
        <time>2019-06-15T11:39:42Z</time>
      </trkpt>
      <trkpt lat="39.003998" lon="-0.177797">
        <ele>3.276</ele>
        <time>2019-06-15T11:39:43Z</time>
      </trkpt>
      <trkpt lat="39.003947" lon="-0.177837">
        <ele>2.813</ele>
        <time>2019-06-15T11:39:44Z</time>
      </trkpt>
      <trkpt lat="39.003890" lon="-0.177859">
        <ele>2.308</ele>
        <time>2019-06-15T11:39:45Z</time>
      </trkpt>
      <trkpt lat="39.003835" lon="-0.177883">
        <ele>2.124</ele>
        <time>2019-06-15T11:39:46Z</time>
      </trkpt>
      <trkpt lat="39.003787" lon="-0.177925">
        <ele>2.028</ele>
        <time>2019-06-15T11:39:47Z</time>
      </trkpt>
      <trkpt lat="39.003735" lon="-0.177941">
        <ele>1.797</ele>
        <time>2019-06-15T11:39:48Z</time>
      </trkpt>
      <trkpt lat="39.003738" lon="-0.178049">
        <ele>1.980</ele>
        <time>2019-06-15T11:39:49Z</time>
      </trkpt>
      <trkpt lat="39.003687" lon="-0.178067">
        <ele>1.652</ele>
        <time>2019-06-15T11:39:50Z</time>
      </trkpt>
      <trkpt lat="39.003648" lon="-0.178133">
        <ele>1.529</ele>
        <time>2019-06-15T11:39:51Z</time>
      </trkpt>
      <trkpt lat="39.003591" lon="-0.178149">
        <ele>1.378</ele>
        <time>2019-06-15T11:39:52Z</time>
      </trkpt>
      <trkpt lat="39.003549" lon="-0.178176">
        <ele>1.453</ele>
        <time>2019-06-15T11:39:53Z</time>
      </trkpt>
      <trkpt lat="39.003505" lon="-0.178211">
        <ele>1.655</ele>
        <time>2019-06-15T11:39:57Z</time>
      </trkpt>
      <trkpt lat="39.003460" lon="-0.178245">
        <ele>1.707</ele>
        <time>2019-06-15T11:40:00Z</time>
      </trkpt>
      <trkpt lat="39.003413" lon="-0.178276">
        <ele>1.817</ele>
        <time>2019-06-15T11:40:02Z</time>
      </trkpt>
      <trkpt lat="39.003364" lon="-0.178311">
        <ele>1.908</ele>
        <time>2019-06-15T11:40:04Z</time>
      </trkpt>
      <trkpt lat="39.003324" lon="-0.178351">
        <ele>2.218</ele>
        <time>2019-06-15T11:40:07Z</time>
      </trkpt>
      <trkpt lat="39.003296" lon="-0.178417">
        <ele>2.762</ele>
        <time>2019-06-15T11:40:10Z</time>
      </trkpt>
      <trkpt lat="39.003168" lon="-0.178494">
        <ele>3.441</ele>
        <time>2019-06-15T11:40:12Z</time>
      </trkpt>
      <trkpt lat="39.003125" lon="-0.178538">
        <ele>3.794</ele>
        <time>2019-06-15T11:40:13Z</time>
      </trkpt>
      <trkpt lat="39.003073" lon="-0.178631">
        <ele>4.066</ele>
        <time>2019-06-15T11:40:15Z</time>
      </trkpt>
      <trkpt lat="39.002998" lon="-0.178712">
        <ele>4.033</ele>
        <time>2019-06-15T11:40:17Z</time>
      </trkpt>
      <trkpt lat="39.002950" lon="-0.178746">
        <ele>4.062</ele>
        <time>2019-06-15T11:40:18Z</time>
      </trkpt>
      <trkpt lat="39.002907" lon="-0.178782">
        <ele>4.027</ele>
        <time>2019-06-15T11:40:19Z</time>
      </trkpt>
      <trkpt lat="39.002864" lon="-0.178816">
        <ele>4.054</ele>
        <time>2019-06-15T11:40:20Z</time>
      </trkpt>
      <trkpt lat="39.002818" lon="-0.178870">
        <ele>4.056</ele>
        <time>2019-06-15T11:40:21Z</time>
      </trkpt>
      <trkpt lat="39.002774" lon="-0.178918">
        <ele>3.911</ele>
        <time>2019-06-15T11:40:22Z</time>
      </trkpt>
      <trkpt lat="39.002731" lon="-0.178954">
        <ele>3.508</ele>
        <time>2019-06-15T11:40:23Z</time>
      </trkpt>
      <trkpt lat="39.002689" lon="-0.178996">
        <ele>3.168</ele>
        <time>2019-06-15T11:40:24Z</time>
      </trkpt>
      <trkpt lat="39.002638" lon="-0.179035">
        <ele>2.742</ele>
        <time>2019-06-15T11:40:25Z</time>
      </trkpt>
      <trkpt lat="39.002591" lon="-0.179076">
        <ele>2.461</ele>
        <time>2019-06-15T11:40:26Z</time>
      </trkpt>
      <trkpt lat="39.002541" lon="-0.179117">
        <ele>2.284</ele>
        <time>2019-06-15T11:40:27Z</time>
      </trkpt>
      <trkpt lat="39.002501" lon="-0.179161">
        <ele>2.016</ele>
        <time>2019-06-15T11:40:28Z</time>
      </trkpt>
      <trkpt lat="39.002454" lon="-0.179209">
        <ele>1.793</ele>
        <time>2019-06-15T11:40:29Z</time>
      </trkpt>
      <trkpt lat="39.002411" lon="-0.179253">
        <ele>1.582</ele>
        <time>2019-06-15T11:40:30Z</time>
      </trkpt>
      <trkpt lat="39.002367" lon="-0.179300">
        <ele>1.327</ele>
        <time>2019-06-15T11:40:31Z</time>
      </trkpt>
      <trkpt lat="39.002320" lon="-0.179343">
        <ele>1.182</ele>
        <time>2019-06-15T11:40:32Z</time>
      </trkpt>
      <trkpt lat="39.002277" lon="-0.179385">
        <ele>1.043</ele>
        <time>2019-06-15T11:40:33Z</time>
      </trkpt>
      <trkpt lat="39.002235" lon="-0.179420">
        <ele>1.017</ele>
        <time>2019-06-15T11:40:34Z</time>
      </trkpt>
      <trkpt lat="39.002188" lon="-0.179468">
        <ele>1.008</ele>
        <time>2019-06-15T11:40:35Z</time>
      </trkpt>
      <trkpt lat="39.002139" lon="-0.179514">
        <ele>1.031</ele>
        <time>2019-06-15T11:40:36Z</time>
      </trkpt>
      <trkpt lat="39.002089" lon="-0.179565">
        <ele>1.065</ele>
        <time>2019-06-15T11:40:37Z</time>
      </trkpt>
      <trkpt lat="39.002041" lon="-0.179610">
        <ele>1.054</ele>
        <time>2019-06-15T11:40:38Z</time>
      </trkpt>
      <trkpt lat="39.001995" lon="-0.179659">
        <ele>1.047</ele>
        <time>2019-06-15T11:40:39Z</time>
      </trkpt>
      <trkpt lat="39.001950" lon="-0.179698">
        <ele>1.049</ele>
        <time>2019-06-15T11:40:40Z</time>
      </trkpt>
      <trkpt lat="39.001905" lon="-0.179738">
        <ele>1.276</ele>
        <time>2019-06-15T11:40:41Z</time>
      </trkpt>
      <trkpt lat="39.001857" lon="-0.179781">
        <ele>1.565</ele>
        <time>2019-06-15T11:40:42Z</time>
      </trkpt>
      <trkpt lat="39.001810" lon="-0.179827">
        <ele>1.740</ele>
        <time>2019-06-15T11:40:43Z</time>
      </trkpt>
      <trkpt lat="39.001760" lon="-0.179878">
        <ele>1.964</ele>
        <time>2019-06-15T11:40:44Z</time>
      </trkpt>
      <trkpt lat="39.001712" lon="-0.179920">
        <ele>2.006</ele>
        <time>2019-06-15T11:40:45Z</time>
      </trkpt>
      <trkpt lat="39.001662" lon="-0.179969">
        <ele>2.016</ele>
        <time>2019-06-15T11:40:46Z</time>
      </trkpt>
      <trkpt lat="39.001611" lon="-0.180010">
        <ele>2.008</ele>
        <time>2019-06-15T11:40:47Z</time>
      </trkpt>
      <trkpt lat="39.001560" lon="-0.180055">
        <ele>2.149</ele>
        <time>2019-06-15T11:40:48Z</time>
      </trkpt>
      <trkpt lat="39.001515" lon="-0.180100">
        <ele>2.263</ele>
        <time>2019-06-15T11:40:49Z</time>
      </trkpt>
      <trkpt lat="39.001468" lon="-0.180152">
        <ele>2.232</ele>
        <time>2019-06-15T11:40:50Z</time>
      </trkpt>
      <trkpt lat="39.001421" lon="-0.180192">
        <ele>2.115</ele>
        <time>2019-06-15T11:40:51Z</time>
      </trkpt>
      <trkpt lat="39.001370" lon="-0.180240">
        <ele>1.977</ele>
        <time>2019-06-15T11:40:52Z</time>
      </trkpt>
      <trkpt lat="39.001315" lon="-0.180283">
        <ele>1.724</ele>
        <time>2019-06-15T11:40:53Z</time>
      </trkpt>
      <trkpt lat="39.001263" lon="-0.180333">
        <ele>1.413</ele>
        <time>2019-06-15T11:40:54Z</time>
      </trkpt>
      <trkpt lat="39.001209" lon="-0.180380">
        <ele>1.278</ele>
        <time>2019-06-15T11:40:55Z</time>
      </trkpt>
      <trkpt lat="39.001167" lon="-0.180430">
        <ele>1.198</ele>
        <time>2019-06-15T11:40:56Z</time>
      </trkpt>
      <trkpt lat="39.001116" lon="-0.180475">
        <ele>1.015</ele>
        <time>2019-06-15T11:40:57Z</time>
      </trkpt>
      <trkpt lat="39.001061" lon="-0.180523">
        <ele>1.226</ele>
        <time>2019-06-15T11:40:58Z</time>
      </trkpt>
      <trkpt lat="39.001010" lon="-0.180562">
        <ele>1.408</ele>
        <time>2019-06-15T11:40:59Z</time>
      </trkpt>
      <trkpt lat="39.000958" lon="-0.180614">
        <ele>1.662</ele>
        <time>2019-06-15T11:41:00Z</time>
      </trkpt>
      <trkpt lat="39.000901" lon="-0.180654">
        <ele>1.836</ele>
        <time>2019-06-15T11:41:01Z</time>
      </trkpt>
      <trkpt lat="39.000851" lon="-0.180701">
        <ele>1.935</ele>
        <time>2019-06-15T11:41:02Z</time>
      </trkpt>
      <trkpt lat="39.000807" lon="-0.180738">
        <ele>2.188</ele>
        <time>2019-06-15T11:41:03Z</time>
      </trkpt>
      <trkpt lat="39.000760" lon="-0.180787">
        <ele>2.360</ele>
        <time>2019-06-15T11:41:04Z</time>
      </trkpt>
      <trkpt lat="39.000711" lon="-0.180834">
        <ele>2.477</ele>
        <time>2019-06-15T11:41:05Z</time>
      </trkpt>
      <trkpt lat="39.000647" lon="-0.180879">
        <ele>2.596</ele>
        <time>2019-06-15T11:41:06Z</time>
      </trkpt>
      <trkpt lat="39.000593" lon="-0.180925">
        <ele>2.581</ele>
        <time>2019-06-15T11:41:07Z</time>
      </trkpt>
      <trkpt lat="39.000548" lon="-0.180965">
        <ele>2.662</ele>
        <time>2019-06-15T11:41:08Z</time>
      </trkpt>
      <trkpt lat="39.000496" lon="-0.181007">
        <ele>2.683</ele>
        <time>2019-06-15T11:41:09Z</time>
      </trkpt>
      <trkpt lat="39.000445" lon="-0.181057">
        <ele>2.611</ele>
        <time>2019-06-15T11:41:10Z</time>
      </trkpt>
      <trkpt lat="39.000395" lon="-0.181103">
        <ele>2.608</ele>
        <time>2019-06-15T11:41:11Z</time>
      </trkpt>
      <trkpt lat="39.000349" lon="-0.181147">
        <ele>2.619</ele>
        <time>2019-06-15T11:41:12Z</time>
      </trkpt>
      <trkpt lat="39.000300" lon="-0.181196">
        <ele>2.683</ele>
        <time>2019-06-15T11:41:13Z</time>
      </trkpt>
      <trkpt lat="39.000245" lon="-0.181242">
        <ele>2.392</ele>
        <time>2019-06-15T11:41:14Z</time>
      </trkpt>
      <trkpt lat="39.000192" lon="-0.181287">
        <ele>1.945</ele>
        <time>2019-06-15T11:41:15Z</time>
      </trkpt>
      <trkpt lat="39.000143" lon="-0.181332">
        <ele>1.657</ele>
        <time>2019-06-15T11:41:16Z</time>
      </trkpt>
      <trkpt lat="39.000091" lon="-0.181379">
        <ele>1.374</ele>
        <time>2019-06-15T11:41:17Z</time>
      </trkpt>
      <trkpt lat="39.000047" lon="-0.181425">
        <ele>1.293</ele>
        <time>2019-06-15T11:41:18Z</time>
      </trkpt>
      <trkpt lat="38.999997" lon="-0.181465">
        <ele>1.078</ele>
        <time>2019-06-15T11:41:19Z</time>
      </trkpt>
      <trkpt lat="38.999949" lon="-0.181510">
        <ele>1.015</ele>
        <time>2019-06-15T11:41:20Z</time>
      </trkpt>
      <trkpt lat="38.999901" lon="-0.181553">
        <ele>1.065</ele>
        <time>2019-06-15T11:41:21Z</time>
      </trkpt>
      <trkpt lat="38.999855" lon="-0.181600">
        <ele>1.011</ele>
        <time>2019-06-15T11:41:22Z</time>
      </trkpt>
      <trkpt lat="38.999811" lon="-0.181638">
        <ele>1.008</ele>
        <time>2019-06-15T11:41:23Z</time>
      </trkpt>
      <trkpt lat="38.999764" lon="-0.181681">
        <ele>1.154</ele>
        <time>2019-06-15T11:41:24Z</time>
      </trkpt>
      <trkpt lat="38.999718" lon="-0.181728">
        <ele>1.248</ele>
        <time>2019-06-15T11:41:25Z</time>
      </trkpt>
      <trkpt lat="38.999670" lon="-0.181767">
        <ele>1.447</ele>
        <time>2019-06-15T11:41:26Z</time>
      </trkpt>
      <trkpt lat="38.999623" lon="-0.181792">
        <ele>1.570</ele>
        <time>2019-06-15T11:41:27Z</time>
      </trkpt>
      <trkpt lat="38.999578" lon="-0.181821">
        <ele>1.592</ele>
        <time>2019-06-15T11:41:28Z</time>
      </trkpt>
      <trkpt lat="38.999539" lon="-0.181849">
        <ele>1.469</ele>
        <time>2019-06-15T11:41:29Z</time>
      </trkpt>
      <trkpt lat="38.999504" lon="-0.181900">
        <ele>1.348</ele>
        <time>2019-06-15T11:41:30Z</time>
      </trkpt>
      <trkpt lat="38.999463" lon="-0.181956">
        <ele>1.143</ele>
        <time>2019-06-15T11:41:31Z</time>
      </trkpt>
      <trkpt lat="38.999402" lon="-0.181984">
        <ele>1.132</ele>
        <time>2019-06-15T11:41:32Z</time>
      </trkpt>
      <trkpt lat="38.999357" lon="-0.182014">
        <ele>1.292</ele>
        <time>2019-06-15T11:41:33Z</time>
      </trkpt>
      <trkpt lat="38.999320" lon="-0.182054">
        <ele>1.311</ele>
        <time>2019-06-15T11:41:34Z</time>
      </trkpt>
      <trkpt lat="38.999273" lon="-0.182100">
        <ele>1.308</ele>
        <time>2019-06-15T11:41:35Z</time>
      </trkpt>
      <trkpt lat="38.999215" lon="-0.182138">
        <ele>1.236</ele>
        <time>2019-06-15T11:41:36Z</time>
      </trkpt>
      <trkpt lat="38.999187" lon="-0.182219">
        <ele>1.070</ele>
        <time>2019-06-15T11:41:38Z</time>
      </trkpt>
      <trkpt lat="38.999121" lon="-0.182282">
        <ele>1.179</ele>
        <time>2019-06-15T11:41:40Z</time>
      </trkpt>
      <trkpt lat="38.999093" lon="-0.182331">
        <ele>1.182</ele>
        <time>2019-06-15T11:41:41Z</time>
      </trkpt>
      <trkpt lat="38.999053" lon="-0.182373">
        <ele>1.384</ele>
        <time>2019-06-15T11:41:42Z</time>
      </trkpt>
      <trkpt lat="38.999022" lon="-0.182417">
        <ele>1.311</ele>
        <time>2019-06-15T11:41:43Z</time>
      </trkpt>
      <trkpt lat="38.998986" lon="-0.182456">
        <ele>1.520</ele>
        <time>2019-06-15T11:41:44Z</time>
      </trkpt>
      <trkpt lat="38.998936" lon="-0.182470">
        <ele>1.895</ele>
        <time>2019-06-15T11:41:45Z</time>
      </trkpt>
      <trkpt lat="38.998878" lon="-0.182546">
        <ele>1.917</ele>
        <time>2019-06-15T11:41:47Z</time>
      </trkpt>
      <trkpt lat="38.998810" lon="-0.182624">
        <ele>2.187</ele>
        <time>2019-06-15T11:41:49Z</time>
      </trkpt>
      <trkpt lat="38.998752" lon="-0.182680">
        <ele>2.315</ele>
        <time>2019-06-15T11:41:51Z</time>
      </trkpt>
      <trkpt lat="38.998728" lon="-0.182729">
        <ele>2.308</ele>
        <time>2019-06-15T11:41:52Z</time>
      </trkpt>
      <trkpt lat="38.998668" lon="-0.182790">
        <ele>2.634</ele>
        <time>2019-06-15T11:41:54Z</time>
      </trkpt>
      <trkpt lat="38.998599" lon="-0.182837">
        <ele>2.828</ele>
        <time>2019-06-15T11:41:56Z</time>
      </trkpt>
      <trkpt lat="38.998529" lon="-0.182823">
        <ele>3.187</ele>
        <time>2019-06-15T11:41:58Z</time>
      </trkpt>
      <trkpt lat="38.998461" lon="-0.182821">
        <ele>3.460</ele>
        <time>2019-06-15T11:41:59Z</time>
      </trkpt>
      <trkpt lat="38.998408" lon="-0.182871">
        <ele>3.442</ele>
        <time>2019-06-15T11:42:01Z</time>
      </trkpt>
      <trkpt lat="38.998371" lon="-0.182909">
        <ele>3.439</ele>
        <time>2019-06-15T11:42:02Z</time>
      </trkpt>
      <trkpt lat="38.998354" lon="-0.182969">
        <ele>3.268</ele>
        <time>2019-06-15T11:42:03Z</time>
      </trkpt>
      <trkpt lat="38.998316" lon="-0.183009">
        <ele>3.323</ele>
        <time>2019-06-15T11:42:04Z</time>
      </trkpt>
      <trkpt lat="38.998257" lon="-0.183033">
        <ele>3.664</ele>
        <time>2019-06-15T11:42:05Z</time>
      </trkpt>
      <trkpt lat="38.998223" lon="-0.183105">
        <ele>3.906</ele>
        <time>2019-06-15T11:42:07Z</time>
      </trkpt>
      <trkpt lat="38.998191" lon="-0.183162">
        <ele>4.216</ele>
        <time>2019-06-15T11:42:09Z</time>
      </trkpt>
      <trkpt lat="38.998102" lon="-0.183273">
        <ele>4.808</ele>
        <time>2019-06-15T11:42:11Z</time>
      </trkpt>
      <trkpt lat="38.998051" lon="-0.183314">
        <ele>5.099</ele>
        <time>2019-06-15T11:42:14Z</time>
      </trkpt>
      <trkpt lat="38.997993" lon="-0.183343">
        <ele>5.023</ele>
        <time>2019-06-15T11:42:16Z</time>
      </trkpt>
      <trkpt lat="38.997911" lon="-0.183427">
        <ele>5.342</ele>
        <time>2019-06-15T11:42:18Z</time>
      </trkpt>
      <trkpt lat="38.997866" lon="-0.183452">
        <ele>5.435</ele>
        <time>2019-06-15T11:42:19Z</time>
      </trkpt>
      <trkpt lat="38.997807" lon="-0.183511">
        <ele>5.697</ele>
        <time>2019-06-15T11:42:21Z</time>
      </trkpt>
      <trkpt lat="38.997731" lon="-0.183567">
        <ele>5.814</ele>
        <time>2019-06-15T11:42:23Z</time>
      </trkpt>
      <trkpt lat="38.997683" lon="-0.183628">
        <ele>6.043</ele>
        <time>2019-06-15T11:42:25Z</time>
      </trkpt>
      <trkpt lat="38.997660" lon="-0.183684">
        <ele>6.068</ele>
        <time>2019-06-15T11:42:26Z</time>
      </trkpt>
      <trkpt lat="38.997626" lon="-0.183731">
        <ele>6.058</ele>
        <time>2019-06-15T11:42:27Z</time>
      </trkpt>
      <trkpt lat="38.997573" lon="-0.183763">
        <ele>6.052</ele>
        <time>2019-06-15T11:42:28Z</time>
      </trkpt>
      <trkpt lat="38.997540" lon="-0.183807">
        <ele>6.017</ele>
        <time>2019-06-15T11:42:29Z</time>
      </trkpt>
      <trkpt lat="38.997505" lon="-0.183846">
        <ele>6.008</ele>
        <time>2019-06-15T11:42:30Z</time>
      </trkpt>
      <trkpt lat="38.997451" lon="-0.183870">
        <ele>6.058</ele>
        <time>2019-06-15T11:42:34Z</time>
      </trkpt>
      <trkpt lat="38.997451" lon="-0.183870">
        <ele>6.032</ele>
        <time>2019-06-15T11:42:34Z</time>
      </trkpt>
      <trkpt lat="38.997451" lon="-0.183870">
        <ele>6.031</ele>
        <time>2019-06-15T11:42:34Z</time>
      </trkpt>
      <trkpt lat="38.997451" lon="-0.183870">
        <ele>6.024</ele>
        <time>2019-06-15T11:42:34Z</time>
      </trkpt>
      <trkpt lat="38.997366" lon="-0.183815">
        <ele>6.326</ele>
        <time>2019-06-15T11:42:39Z</time>
      </trkpt>
      <trkpt lat="38.997366" lon="-0.183815">
        <ele>6.393</ele>
        <time>2019-06-15T11:42:39Z</time>
      </trkpt>
      <trkpt lat="38.997366" lon="-0.183815">
        <ele>6.362</ele>
        <time>2019-06-15T11:42:39Z</time>
      </trkpt>
      <trkpt lat="38.997366" lon="-0.183815">
        <ele>6.327</ele>
        <time>2019-06-15T11:42:39Z</time>
      </trkpt>
      <trkpt lat="38.997366" lon="-0.183815">
        <ele>6.318</ele>
        <time>2019-06-15T11:42:39Z</time>
      </trkpt>
      <trkpt lat="38.997305" lon="-0.183740">
        <ele>6.898</ele>
        <time>2019-06-15T11:42:42Z</time>
      </trkpt>
      <trkpt lat="38.997305" lon="-0.183740">
        <ele>6.817</ele>
        <time>2019-06-15T11:42:42Z</time>
      </trkpt>
      <trkpt lat="38.997305" lon="-0.183740">
        <ele>6.808</ele>
        <time>2019-06-15T11:42:42Z</time>
      </trkpt>
      <trkpt lat="38.997270" lon="-0.183680">
        <ele>7.294</ele>
        <time>2019-06-15T11:42:44Z</time>
      </trkpt>
      <trkpt lat="38.997233" lon="-0.183625">
        <ele>7.868</ele>
        <time>2019-06-15T11:42:46Z</time>
      </trkpt>
      <trkpt lat="38.997198" lon="-0.183582">
        <ele>7.977</ele>
        <time>2019-06-15T11:42:48Z</time>
      </trkpt>
      <trkpt lat="38.997157" lon="-0.183519">
        <ele>7.750</ele>
        <time>2019-06-15T11:42:50Z</time>
      </trkpt>
      <trkpt lat="38.997111" lon="-0.183454">
        <ele>7.482</ele>
        <time>2019-06-15T11:42:52Z</time>
      </trkpt>
      <trkpt lat="38.997049" lon="-0.183368">
        <ele>7.159</ele>
        <time>2019-06-15T11:42:53Z</time>
      </trkpt>
      <trkpt lat="38.997006" lon="-0.183285">
        <ele>6.778</ele>
        <time>2019-06-15T11:42:55Z</time>
      </trkpt>
      <trkpt lat="38.996972" lon="-0.183180">
        <ele>6.073</ele>
        <time>2019-06-15T11:42:57Z</time>
      </trkpt>
      <trkpt lat="38.996928" lon="-0.183121">
        <ele>5.477</ele>
        <time>2019-06-15T11:42:58Z</time>
      </trkpt>
      <trkpt lat="38.996898" lon="-0.183057">
        <ele>4.861</ele>
        <time>2019-06-15T11:42:59Z</time>
      </trkpt>
      <trkpt lat="38.996889" lon="-0.182990">
        <ele>4.827</ele>
        <time>2019-06-15T11:43:00Z</time>
      </trkpt>
      <trkpt lat="38.996847" lon="-0.182947">
        <ele>4.808</ele>
        <time>2019-06-15T11:43:01Z</time>
      </trkpt>
      <trkpt lat="38.996775" lon="-0.182884">
        <ele>4.870</ele>
        <time>2019-06-15T11:43:02Z</time>
      </trkpt>
      <trkpt lat="38.996725" lon="-0.182835">
        <ele>4.824</ele>
        <time>2019-06-15T11:43:03Z</time>
      </trkpt>
      <trkpt lat="38.996680" lon="-0.182779">
        <ele>5.083</ele>
        <time>2019-06-15T11:43:04Z</time>
      </trkpt>
      <trkpt lat="38.996667" lon="-0.182718">
        <ele>4.836</ele>
        <time>2019-06-15T11:43:05Z</time>
      </trkpt>
      <trkpt lat="38.996625" lon="-0.182661">
        <ele>4.918</ele>
        <time>2019-06-15T11:43:06Z</time>
      </trkpt>
      <trkpt lat="38.996567" lon="-0.182652">
        <ele>5.425</ele>
        <time>2019-06-15T11:43:07Z</time>
      </trkpt>
      <trkpt lat="38.996514" lon="-0.182608">
        <ele>5.884</ele>
        <time>2019-06-15T11:43:08Z</time>
      </trkpt>
      <trkpt lat="38.996505" lon="-0.182536">
        <ele>5.899</ele>
        <time>2019-06-15T11:43:09Z</time>
      </trkpt>
      <trkpt lat="38.996454" lon="-0.182444">
        <ele>6.171</ele>
        <time>2019-06-15T11:43:11Z</time>
      </trkpt>
      <trkpt lat="38.996468" lon="-0.182360">
        <ele>5.841</ele>
        <time>2019-06-15T11:43:12Z</time>
      </trkpt>
      <trkpt lat="38.996422" lon="-0.182301">
        <ele>6.015</ele>
        <time>2019-06-15T11:43:13Z</time>
      </trkpt>
      <trkpt lat="38.996394" lon="-0.182253">
        <ele>6.108</ele>
        <time>2019-06-15T11:43:14Z</time>
      </trkpt>
      <trkpt lat="38.996290" lon="-0.182200">
        <ele>6.610</ele>
        <time>2019-06-15T11:43:15Z</time>
      </trkpt>
      <trkpt lat="38.996187" lon="-0.182183">
        <ele>7.274</ele>
        <time>2019-06-15T11:43:16Z</time>
      </trkpt>
      <trkpt lat="38.996150" lon="-0.182084">
        <ele>6.843</ele>
        <time>2019-06-15T11:43:17Z</time>
      </trkpt>
      <trkpt lat="38.996085" lon="-0.182031">
        <ele>6.826</ele>
        <time>2019-06-15T11:43:18Z</time>
      </trkpt>
      <trkpt lat="38.996058" lon="-0.181950">
        <ele>6.428</ele>
        <time>2019-06-15T11:43:19Z</time>
      </trkpt>
      <trkpt lat="38.996006" lon="-0.181901">
        <ele>6.625</ele>
        <time>2019-06-15T11:43:20Z</time>
      </trkpt>
      <trkpt lat="38.995953" lon="-0.181853">
        <ele>6.864</ele>
        <time>2019-06-15T11:43:21Z</time>
      </trkpt>
      <trkpt lat="38.995905" lon="-0.181794">
        <ele>6.739</ele>
        <time>2019-06-15T11:43:22Z</time>
      </trkpt>
      <trkpt lat="38.995889" lon="-0.181720">
        <ele>6.364</ele>
        <time>2019-06-15T11:43:23Z</time>
      </trkpt>
      <trkpt lat="38.995881" lon="-0.181663">
        <ele>6.006</ele>
        <time>2019-06-15T11:43:24Z</time>
      </trkpt>
      <trkpt lat="38.995806" lon="-0.181632">
        <ele>5.316</ele>
        <time>2019-06-15T11:43:25Z</time>
      </trkpt>
      <trkpt lat="38.995775" lon="-0.181589">
        <ele>4.408</ele>
        <time>2019-06-15T11:43:26Z</time>
      </trkpt>
      <trkpt lat="38.995804" lon="-0.181544">
        <ele>4.019</ele>
        <time>2019-06-15T11:43:37Z</time>
      </trkpt>
      <trkpt lat="38.995758" lon="-0.181485">
        <ele>2.713</ele>
        <time>2019-06-15T11:43:59Z</time>
      </trkpt>
      <trkpt lat="38.995754" lon="-0.181383">
        <ele>1.192</ele>
        <time>2019-06-15T11:44:02Z</time>
      </trkpt>
      <trkpt lat="38.995762" lon="-0.181260">
        <ele>0.335</ele>
        <time>2019-06-15T11:44:03Z</time>
      </trkpt>
      <trkpt lat="38.995763" lon="-0.181200">
        <ele>-0.117</ele>
        <time>2019-06-15T11:44:04Z</time>
      </trkpt>
      <trkpt lat="38.995759" lon="-0.181134">
        <ele>-0.654</ele>
        <time>2019-06-15T11:44:05Z</time>
      </trkpt>
      <trkpt lat="38.995755" lon="-0.181067">
        <ele>-0.713</ele>
        <time>2019-06-15T11:44:06Z</time>
      </trkpt>
      <trkpt lat="38.995758" lon="-0.180974">
        <ele>-0.388</ele>
        <time>2019-06-15T11:44:07Z</time>
      </trkpt>
      <trkpt lat="38.995751" lon="-0.180897">
        <ele>-0.137</ele>
        <time>2019-06-15T11:44:08Z</time>
      </trkpt>
      <trkpt lat="38.995738" lon="-0.180815">
        <ele>0.149</ele>
        <time>2019-06-15T11:44:09Z</time>
      </trkpt>
      <trkpt lat="38.995719" lon="-0.180721">
        <ele>0.713</ele>
        <time>2019-06-15T11:44:10Z</time>
      </trkpt>
      <trkpt lat="38.995706" lon="-0.180629">
        <ele>1.408</ele>
        <time>2019-06-15T11:44:11Z</time>
      </trkpt>
      <trkpt lat="38.995704" lon="-0.180568">
        <ele>2.066</ele>
        <time>2019-06-15T11:44:12Z</time>
      </trkpt>
      <trkpt lat="38.995691" lon="-0.180493">
        <ele>2.350</ele>
        <time>2019-06-15T11:44:13Z</time>
      </trkpt>
      <trkpt lat="38.995696" lon="-0.180431">
        <ele>2.729</ele>
        <time>2019-06-15T11:44:14Z</time>
      </trkpt>
      <trkpt lat="38.995702" lon="-0.180364">
        <ele>3.122</ele>
        <time>2019-06-15T11:44:15Z</time>
      </trkpt>
      <trkpt lat="38.995690" lon="-0.180289">
        <ele>3.494</ele>
        <time>2019-06-15T11:44:16Z</time>
      </trkpt>
      <trkpt lat="38.995687" lon="-0.180212">
        <ele>3.831</ele>
        <time>2019-06-15T11:44:17Z</time>
      </trkpt>
      <trkpt lat="38.995659" lon="-0.180122">
        <ele>4.390</ele>
        <time>2019-06-15T11:44:18Z</time>
      </trkpt>
      <trkpt lat="38.995675" lon="-0.180062">
        <ele>4.775</ele>
        <time>2019-06-15T11:44:19Z</time>
      </trkpt>
      <trkpt lat="38.995717" lon="-0.179995">
        <ele>5.021</ele>
        <time>2019-06-15T11:44:22Z</time>
      </trkpt>
      <trkpt lat="38.995706" lon="-0.179924">
        <ele>4.941</ele>
        <time>2019-06-15T11:44:23Z</time>
      </trkpt>
      <trkpt lat="38.995660" lon="-0.179848">
        <ele>4.805</ele>
        <time>2019-06-15T11:44:25Z</time>
      </trkpt>
      <trkpt lat="38.995662" lon="-0.179785">
        <ele>4.708</ele>
        <time>2019-06-15T11:45:16Z</time>
      </trkpt>
      <trkpt lat="38.995647" lon="-0.179695">
        <ele>4.785</ele>
        <time>2019-06-15T11:45:17Z</time>
      </trkpt>
      <trkpt lat="38.995669" lon="-0.179624">
        <ele>4.669</ele>
        <time>2019-06-15T11:45:18Z</time>
      </trkpt>
      <trkpt lat="38.995694" lon="-0.179555">
        <ele>4.578</ele>
        <time>2019-06-15T11:45:19Z</time>
      </trkpt>
      <trkpt lat="38.995703" lon="-0.179468">
        <ele>4.551</ele>
        <time>2019-06-15T11:45:20Z</time>
      </trkpt>
      <trkpt lat="38.995674" lon="-0.179390">
        <ele>4.453</ele>
        <time>2019-06-15T11:45:21Z</time>
      </trkpt>
      <trkpt lat="38.995685" lon="-0.179312">
        <ele>4.140</ele>
        <time>2019-06-15T11:45:22Z</time>
      </trkpt>
      <trkpt lat="38.995681" lon="-0.179233">
        <ele>3.869</ele>
        <time>2019-06-15T11:45:23Z</time>
      </trkpt>
      <trkpt lat="38.995686" lon="-0.179165">
        <ele>3.514</ele>
        <time>2019-06-15T11:45:24Z</time>
      </trkpt>
      <trkpt lat="38.995703" lon="-0.179099">
        <ele>3.584</ele>
        <time>2019-06-15T11:45:25Z</time>
      </trkpt>
      <trkpt lat="38.995713" lon="-0.179037">
        <ele>3.407</ele>
        <time>2019-06-15T11:45:26Z</time>
      </trkpt>
      <trkpt lat="38.995705" lon="-0.178978">
        <ele>3.517</ele>
        <time>2019-06-15T11:45:27Z</time>
      </trkpt>
      <trkpt lat="38.995612" lon="-0.178983">
        <ele>3.808</ele>
        <time>2019-06-15T11:45:30Z</time>
      </trkpt>
      <trkpt lat="38.995558" lon="-0.179008">
        <ele>4.031</ele>
        <time>2019-06-15T11:45:31Z</time>
      </trkpt>
      <trkpt lat="38.995514" lon="-0.179020">
        <ele>4.185</ele>
        <time>2019-06-15T11:45:32Z</time>
      </trkpt>
      <trkpt lat="38.995470" lon="-0.179054">
        <ele>4.434</ele>
        <time>2019-06-15T11:45:33Z</time>
      </trkpt>
      <trkpt lat="38.995428" lon="-0.179079">
        <ele>4.677</ele>
        <time>2019-06-15T11:45:34Z</time>
      </trkpt>
      <trkpt lat="38.995376" lon="-0.179108">
        <ele>5.039</ele>
        <time>2019-06-15T11:45:35Z</time>
      </trkpt>
      <trkpt lat="38.995142" lon="-0.179265">
        <ele>6.776</ele>
        <time>2019-06-15T11:45:40Z</time>
      </trkpt>
      <trkpt lat="38.995142" lon="-0.179265">
        <ele>6.735</ele>
        <time>2019-06-15T11:45:40Z</time>
      </trkpt>
      <trkpt lat="38.995142" lon="-0.179265">
        <ele>6.790</ele>
        <time>2019-06-15T11:45:40Z</time>
      </trkpt>
      <trkpt lat="38.995142" lon="-0.179265">
        <ele>6.718</ele>
        <time>2019-06-15T11:45:40Z</time>
      </trkpt>
      <trkpt lat="38.995142" lon="-0.179265">
        <ele>6.798</ele>
        <time>2019-06-15T11:45:40Z</time>
      </trkpt>
      <trkpt lat="38.995003" lon="-0.179356">
        <ele>7.717</ele>
        <time>2019-06-15T11:45:43Z</time>
      </trkpt>
      <trkpt lat="38.995003" lon="-0.179356">
        <ele>7.708</ele>
        <time>2019-06-15T11:45:43Z</time>
      </trkpt>
      <trkpt lat="38.995003" lon="-0.179356">
        <ele>7.734</ele>
        <time>2019-06-15T11:45:43Z</time>
      </trkpt>
      <trkpt lat="38.994873" lon="-0.179452">
        <ele>7.658</ele>
        <time>2019-06-15T11:45:46Z</time>
      </trkpt>
      <trkpt lat="38.994873" lon="-0.179452">
        <ele>7.617</ele>
        <time>2019-06-15T11:45:46Z</time>
      </trkpt>
      <trkpt lat="38.994873" lon="-0.179452">
        <ele>7.650</ele>
        <time>2019-06-15T11:45:46Z</time>
      </trkpt>
      <trkpt lat="38.994795" lon="-0.179524">
        <ele>7.792</ele>
        <time>2019-06-15T11:45:48Z</time>
      </trkpt>
      <trkpt lat="38.994795" lon="-0.179524">
        <ele>7.719</ele>
        <time>2019-06-15T11:45:48Z</time>
      </trkpt>
      <trkpt lat="38.994645" lon="-0.179656">
        <ele>7.348</ele>
        <time>2019-06-15T11:45:52Z</time>
      </trkpt>
      <trkpt lat="38.994645" lon="-0.179656">
        <ele>7.393</ele>
        <time>2019-06-15T11:45:52Z</time>
      </trkpt>
      <trkpt lat="38.994645" lon="-0.179656">
        <ele>7.385</ele>
        <time>2019-06-15T11:45:52Z</time>
      </trkpt>
      <trkpt lat="38.994645" lon="-0.179656">
        <ele>7.389</ele>
        <time>2019-06-15T11:45:52Z</time>
      </trkpt>
      <trkpt lat="38.994377" lon="-0.179825">
        <ele>5.517</ele>
        <time>2019-06-15T11:45:58Z</time>
      </trkpt>
      <trkpt lat="38.994377" lon="-0.179825">
        <ele>5.508</ele>
        <time>2019-06-15T11:45:58Z</time>
      </trkpt>
      <trkpt lat="38.994377" lon="-0.179825">
        <ele>5.541</ele>
        <time>2019-06-15T11:45:58Z</time>
      </trkpt>
      <trkpt lat="38.994377" lon="-0.179825">
        <ele>5.565</ele>
        <time>2019-06-15T11:45:58Z</time>
      </trkpt>
      <trkpt lat="38.994377" lon="-0.179825">
        <ele>5.514</ele>
        <time>2019-06-15T11:45:58Z</time>
      </trkpt>
      <trkpt lat="38.994377" lon="-0.179825">
        <ele>5.567</ele>
        <time>2019-06-15T11:45:58Z</time>
      </trkpt>
      <trkpt lat="38.994221" lon="-0.179952">
        <ele>5.889</ele>
        <time>2019-06-15T11:46:01Z</time>
      </trkpt>
      <trkpt lat="38.994221" lon="-0.179952">
        <ele>5.866</ele>
        <time>2019-06-15T11:46:01Z</time>
      </trkpt>
      <trkpt lat="38.994221" lon="-0.179952">
        <ele>5.825</ele>
        <time>2019-06-15T11:46:01Z</time>
      </trkpt>
      <trkpt lat="38.994163" lon="-0.179996">
        <ele>6.050</ele>
        <time>2019-06-15T11:46:02Z</time>
      </trkpt>
      <trkpt lat="38.994108" lon="-0.180028">
        <ele>6.573</ele>
        <time>2019-06-15T11:46:03Z</time>
      </trkpt>
      <trkpt lat="38.994054" lon="-0.180068">
        <ele>7.085</ele>
        <time>2019-06-15T11:46:04Z</time>
      </trkpt>
      <trkpt lat="38.994007" lon="-0.180101">
        <ele>7.313</ele>
        <time>2019-06-15T11:46:05Z</time>
      </trkpt>
      <trkpt lat="38.993946" lon="-0.180132">
        <ele>7.708</ele>
        <time>2019-06-15T11:46:06Z</time>
      </trkpt>
      <trkpt lat="38.993896" lon="-0.180159">
        <ele>8.070</ele>
        <time>2019-06-15T11:46:07Z</time>
      </trkpt>
      <trkpt lat="38.993852" lon="-0.180204">
        <ele>7.914</ele>
        <time>2019-06-15T11:46:08Z</time>
      </trkpt>
      <trkpt lat="38.993816" lon="-0.180241">
        <ele>7.883</ele>
        <time>2019-06-15T11:46:09Z</time>
      </trkpt>
      <trkpt lat="38.993775" lon="-0.180278">
        <ele>7.676</ele>
        <time>2019-06-15T11:46:10Z</time>
      </trkpt>
      <trkpt lat="38.993727" lon="-0.180315">
        <ele>7.398</ele>
        <time>2019-06-15T11:46:11Z</time>
      </trkpt>
      <trkpt lat="38.993675" lon="-0.180349">
        <ele>7.055</ele>
        <time>2019-06-15T11:46:12Z</time>
      </trkpt>
      <trkpt lat="38.993616" lon="-0.180388">
        <ele>6.664</ele>
        <time>2019-06-15T11:46:13Z</time>
      </trkpt>
      <trkpt lat="38.993562" lon="-0.180429">
        <ele>5.899</ele>
        <time>2019-06-15T11:46:14Z</time>
      </trkpt>
      <trkpt lat="38.993520" lon="-0.180470">
        <ele>5.228</ele>
        <time>2019-06-15T11:46:15Z</time>
      </trkpt>
      <trkpt lat="38.993478" lon="-0.180523">
        <ele>4.689</ele>
        <time>2019-06-15T11:46:16Z</time>
      </trkpt>
      <trkpt lat="38.993436" lon="-0.180560">
        <ele>4.117</ele>
        <time>2019-06-15T11:46:17Z</time>
      </trkpt>
      <trkpt lat="38.993391" lon="-0.180585">
        <ele>3.608</ele>
        <time>2019-06-15T11:46:18Z</time>
      </trkpt>
      <trkpt lat="38.993342" lon="-0.180606">
        <ele>3.185</ele>
        <time>2019-06-15T11:46:19Z</time>
      </trkpt>
      <trkpt lat="38.993311" lon="-0.180660">
        <ele>3.039</ele>
        <time>2019-06-15T11:46:20Z</time>
      </trkpt>
      <trkpt lat="38.993261" lon="-0.180689">
        <ele>3.078</ele>
        <time>2019-06-15T11:46:21Z</time>
      </trkpt>
      <trkpt lat="38.993207" lon="-0.180716">
        <ele>3.051</ele>
        <time>2019-06-15T11:46:22Z</time>
      </trkpt>
      <trkpt lat="38.993166" lon="-0.180766">
        <ele>3.053</ele>
        <time>2019-06-15T11:46:23Z</time>
      </trkpt>
      <trkpt lat="38.993125" lon="-0.180799">
        <ele>3.010</ele>
        <time>2019-06-15T11:46:24Z</time>
      </trkpt>
      <trkpt lat="38.993083" lon="-0.180838">
        <ele>3.049</ele>
        <time>2019-06-15T11:46:25Z</time>
      </trkpt>
      <trkpt lat="38.993039" lon="-0.180879">
        <ele>3.224</ele>
        <time>2019-06-15T11:46:26Z</time>
      </trkpt>
      <trkpt lat="38.992997" lon="-0.180911">
        <ele>3.329</ele>
        <time>2019-06-15T11:46:27Z</time>
      </trkpt>
      <trkpt lat="38.992953" lon="-0.180944">
        <ele>3.400</ele>
        <time>2019-06-15T11:46:28Z</time>
      </trkpt>
      <trkpt lat="38.992909" lon="-0.180972">
        <ele>3.520</ele>
        <time>2019-06-15T11:46:29Z</time>
      </trkpt>
      <trkpt lat="38.992872" lon="-0.181010">
        <ele>3.608</ele>
        <time>2019-06-15T11:46:30Z</time>
      </trkpt>
      <trkpt lat="38.992821" lon="-0.181042">
        <ele>3.845</ele>
        <time>2019-06-15T11:46:31Z</time>
      </trkpt>
      <trkpt lat="38.992773" lon="-0.181077">
        <ele>3.999</ele>
        <time>2019-06-15T11:46:32Z</time>
      </trkpt>
      <trkpt lat="38.992728" lon="-0.181102">
        <ele>4.048</ele>
        <time>2019-06-15T11:46:33Z</time>
      </trkpt>
      <trkpt lat="38.992681" lon="-0.181115">
        <ele>4.011</ele>
        <time>2019-06-15T11:46:34Z</time>
      </trkpt>
      <trkpt lat="38.992639" lon="-0.181135">
        <ele>4.113</ele>
        <time>2019-06-15T11:46:35Z</time>
      </trkpt>
      <trkpt lat="38.992597" lon="-0.181159">
        <ele>4.290</ele>
        <time>2019-06-15T11:46:36Z</time>
      </trkpt>
      <trkpt lat="38.992527" lon="-0.181192">
        <ele>4.329</ele>
        <time>2019-06-15T11:46:38Z</time>
      </trkpt>
      <trkpt lat="38.992487" lon="-0.181234">
        <ele>4.474</ele>
        <time>2019-06-15T11:46:40Z</time>
      </trkpt>
      <trkpt lat="38.992438" lon="-0.181258">
        <ele>4.413</ele>
        <time>2019-06-15T11:46:41Z</time>
      </trkpt>
      <trkpt lat="38.992360" lon="-0.181333">
        <ele>4.443</ele>
        <time>2019-06-15T11:46:43Z</time>
      </trkpt>
      <trkpt lat="38.992352" lon="-0.181397">
        <ele>4.507</ele>
        <time>2019-06-15T11:46:44Z</time>
      </trkpt>
      <trkpt lat="38.992331" lon="-0.181450">
        <ele>4.708</ele>
        <time>2019-06-15T11:46:45Z</time>
      </trkpt>
      <trkpt lat="38.992297" lon="-0.181554">
        <ele>5.094</ele>
        <time>2019-06-15T11:46:47Z</time>
      </trkpt>
      <trkpt lat="38.992289" lon="-0.181619">
        <ele>5.338</ele>
        <time>2019-06-15T11:46:48Z</time>
      </trkpt>
      <trkpt lat="38.992238" lon="-0.181698">
        <ele>5.287</ele>
        <time>2019-06-15T11:46:50Z</time>
      </trkpt>
      <trkpt lat="38.992200" lon="-0.181789">
        <ele>5.390</ele>
        <time>2019-06-15T11:46:52Z</time>
      </trkpt>
      <trkpt lat="38.992170" lon="-0.181881">
        <ele>5.412</ele>
        <time>2019-06-15T11:46:54Z</time>
      </trkpt>
      <trkpt lat="38.992158" lon="-0.181979">
        <ele>5.649</ele>
        <time>2019-06-15T11:46:56Z</time>
      </trkpt>
      <trkpt lat="38.992088" lon="-0.182090">
        <ele>5.398</ele>
        <time>2019-06-15T11:46:59Z</time>
      </trkpt>
      <trkpt lat="38.992037" lon="-0.182077">
        <ele>5.083</ele>
        <time>2019-06-15T11:47:00Z</time>
      </trkpt>
      <trkpt lat="38.991989" lon="-0.182064">
        <ele>4.778</ele>
        <time>2019-06-15T11:47:01Z</time>
      </trkpt>
      <trkpt lat="38.991935" lon="-0.182062">
        <ele>4.533</ele>
        <time>2019-06-15T11:47:02Z</time>
      </trkpt>
      <trkpt lat="38.991842" lon="-0.182063">
        <ele>4.826</ele>
        <time>2019-06-15T11:47:04Z</time>
      </trkpt>
      <trkpt lat="38.991791" lon="-0.182079">
        <ele>5.008</ele>
        <time>2019-06-15T11:47:05Z</time>
      </trkpt>
      <trkpt lat="38.991742" lon="-0.182091">
        <ele>5.380</ele>
        <time>2019-06-15T11:47:06Z</time>
      </trkpt>
      <trkpt lat="38.991688" lon="-0.182073">
        <ele>5.424</ele>
        <time>2019-06-15T11:47:07Z</time>
      </trkpt>
      <trkpt lat="38.991590" lon="-0.182089">
        <ele>6.263</ele>
        <time>2019-06-15T11:47:09Z</time>
      </trkpt>
      <trkpt lat="38.991539" lon="-0.182089">
        <ele>6.726</ele>
        <time>2019-06-15T11:47:10Z</time>
      </trkpt>
      <trkpt lat="38.991502" lon="-0.182136">
        <ele>7.198</ele>
        <time>2019-06-15T11:47:11Z</time>
      </trkpt>
      <trkpt lat="38.991450" lon="-0.182186">
        <ele>7.535</ele>
        <time>2019-06-15T11:47:12Z</time>
      </trkpt>
      <trkpt lat="38.991387" lon="-0.182188">
        <ele>8.054</ele>
        <time>2019-06-15T11:47:13Z</time>
      </trkpt>
      <trkpt lat="38.991345" lon="-0.182226">
        <ele>8.269</ele>
        <time>2019-06-15T11:47:14Z</time>
      </trkpt>
      <trkpt lat="38.991238" lon="-0.182175">
        <ele>8.536</ele>
        <time>2019-06-15T11:47:16Z</time>
      </trkpt>
      <trkpt lat="38.991145" lon="-0.182152">
        <ele>8.717</ele>
        <time>2019-06-15T11:47:18Z</time>
      </trkpt>
      <trkpt lat="38.991073" lon="-0.182052">
        <ele>8.418</ele>
        <time>2019-06-15T11:47:19Z</time>
      </trkpt>
      <trkpt lat="38.991028" lon="-0.182073">
        <ele>8.508</ele>
        <time>2019-06-15T11:47:21Z</time>
      </trkpt>
      <trkpt lat="38.990982" lon="-0.182062">
        <ele>8.456</ele>
        <time>2019-06-15T11:47:22Z</time>
      </trkpt>
      <trkpt lat="38.990893" lon="-0.182023">
        <ele>8.340</ele>
        <time>2019-06-15T11:47:24Z</time>
      </trkpt>
      <trkpt lat="38.990823" lon="-0.182015">
        <ele>8.249</ele>
        <time>2019-06-15T11:47:25Z</time>
      </trkpt>
      <trkpt lat="38.990755" lon="-0.181953">
        <ele>8.092</ele>
        <time>2019-06-15T11:47:27Z</time>
      </trkpt>
      <trkpt lat="38.990719" lon="-0.181994">
        <ele>8.144</ele>
        <time>2019-06-15T11:47:29Z</time>
      </trkpt>
      <trkpt lat="38.990571" lon="-0.181908">
        <ele>7.941</ele>
        <time>2019-06-15T11:47:32Z</time>
      </trkpt>
      <trkpt lat="38.990481" lon="-0.181898">
        <ele>7.610</ele>
        <time>2019-06-15T11:47:33Z</time>
      </trkpt>
      <trkpt lat="38.990388" lon="-0.181767">
        <ele>7.115</ele>
        <time>2019-06-15T11:47:34Z</time>
      </trkpt>
      <trkpt lat="38.990351" lon="-0.181705">
        <ele>7.022</ele>
        <time>2019-06-15T11:47:37Z</time>
      </trkpt>
      <trkpt lat="38.990357" lon="-0.181624">
        <ele>6.962</ele>
        <time>2019-06-15T11:47:38Z</time>
      </trkpt>
      <trkpt lat="38.990285" lon="-0.181605">
        <ele>6.808</ele>
        <time>2019-06-15T11:47:39Z</time>
      </trkpt>
      <trkpt lat="38.990246" lon="-0.181552">
        <ele>6.708</ele>
        <time>2019-06-15T11:47:40Z</time>
      </trkpt>
      <trkpt lat="38.990202" lon="-0.181497">
        <ele>6.785</ele>
        <time>2019-06-15T11:47:41Z</time>
      </trkpt>
      <trkpt lat="38.990153" lon="-0.181392">
        <ele>6.549</ele>
        <time>2019-06-15T11:47:43Z</time>
      </trkpt>
      <trkpt lat="38.990103" lon="-0.181356">
        <ele>6.548</ele>
        <time>2019-06-15T11:47:44Z</time>
      </trkpt>
      <trkpt lat="38.990031" lon="-0.181308">
        <ele>6.641</ele>
        <time>2019-06-15T11:47:45Z</time>
      </trkpt>
      <trkpt lat="38.989966" lon="-0.181268">
        <ele>6.813</ele>
        <time>2019-06-15T11:47:47Z</time>
      </trkpt>
      <trkpt lat="38.989903" lon="-0.181249">
        <ele>7.270</ele>
        <time>2019-06-15T11:47:48Z</time>
      </trkpt>
      <trkpt lat="38.989843" lon="-0.181227">
        <ele>7.599</ele>
        <time>2019-06-15T11:47:49Z</time>
      </trkpt>
      <trkpt lat="38.989797" lon="-0.181213">
        <ele>7.854</ele>
        <time>2019-06-15T11:47:50Z</time>
      </trkpt>
      <trkpt lat="38.989754" lon="-0.181177">
        <ele>8.096</ele>
        <time>2019-06-15T11:47:51Z</time>
      </trkpt>
      <trkpt lat="38.989707" lon="-0.181171">
        <ele>8.231</ele>
        <time>2019-06-15T11:47:52Z</time>
      </trkpt>
      <trkpt lat="38.989655" lon="-0.181147">
        <ele>8.124</ele>
        <time>2019-06-15T11:47:53Z</time>
      </trkpt>
      <trkpt lat="38.989577" lon="-0.181121">
        <ele>8.008</ele>
        <time>2019-06-15T11:47:55Z</time>
      </trkpt>
      <trkpt lat="38.989503" lon="-0.181071">
        <ele>8.082</ele>
        <time>2019-06-15T11:47:57Z</time>
      </trkpt>
      <trkpt lat="38.989449" lon="-0.181042">
        <ele>8.096</ele>
        <time>2019-06-15T11:47:58Z</time>
      </trkpt>
      <trkpt lat="38.989399" lon="-0.181008">
        <ele>7.985</ele>
        <time>2019-06-15T11:47:59Z</time>
      </trkpt>
      <trkpt lat="38.989352" lon="-0.180975">
        <ele>7.828</ele>
        <time>2019-06-15T11:48:00Z</time>
      </trkpt>
      <trkpt lat="38.989307" lon="-0.180941">
        <ele>7.780</ele>
        <time>2019-06-15T11:48:01Z</time>
      </trkpt>
      <trkpt lat="38.989220" lon="-0.180914">
        <ele>7.487</ele>
        <time>2019-06-15T11:48:03Z</time>
      </trkpt>
      <trkpt lat="38.989138" lon="-0.180856">
        <ele>7.316</ele>
        <time>2019-06-15T11:48:05Z</time>
      </trkpt>
      <trkpt lat="38.989089" lon="-0.180830">
        <ele>7.651</ele>
        <time>2019-06-15T11:48:06Z</time>
      </trkpt>
      <trkpt lat="38.989043" lon="-0.180789">
        <ele>8.083</ele>
        <time>2019-06-15T11:48:07Z</time>
      </trkpt>
      <trkpt lat="38.988946" lon="-0.180772">
        <ele>8.625</ele>
        <time>2019-06-15T11:48:09Z</time>
      </trkpt>
      <trkpt lat="38.988893" lon="-0.180757">
        <ele>9.017</ele>
        <time>2019-06-15T11:48:10Z</time>
      </trkpt>
      <trkpt lat="38.988848" lon="-0.180733">
        <ele>9.308</ele>
        <time>2019-06-15T11:48:11Z</time>
      </trkpt>
      <trkpt lat="38.988801" lon="-0.180719">
        <ele>9.651</ele>
        <time>2019-06-15T11:48:12Z</time>
      </trkpt>
      <trkpt lat="38.988754" lon="-0.180710">
        <ele>10.035</ele>
        <time>2019-06-15T11:48:13Z</time>
      </trkpt>
      <trkpt lat="38.988699" lon="-0.180675">
        <ele>10.444</ele>
        <time>2019-06-15T11:48:14Z</time>
      </trkpt>
      <trkpt lat="38.988648" lon="-0.180660">
        <ele>10.747</ele>
        <time>2019-06-15T11:48:15Z</time>
      </trkpt>
      <trkpt lat="38.988561" lon="-0.180669">
        <ele>10.869</ele>
        <time>2019-06-15T11:48:17Z</time>
      </trkpt>
      <trkpt lat="38.988511" lon="-0.180643">
        <ele>10.616</ele>
        <time>2019-06-15T11:48:18Z</time>
      </trkpt>
      <trkpt lat="38.988466" lon="-0.180638">
        <ele>10.585</ele>
        <time>2019-06-15T11:48:19Z</time>
      </trkpt>
      <trkpt lat="38.988423" lon="-0.180618">
        <ele>10.340</ele>
        <time>2019-06-15T11:48:20Z</time>
      </trkpt>
      <trkpt lat="38.988335" lon="-0.180609">
        <ele>10.036</ele>
        <time>2019-06-15T11:48:22Z</time>
      </trkpt>
      <trkpt lat="38.988245" lon="-0.180576">
        <ele>9.717</ele>
        <time>2019-06-15T11:48:24Z</time>
      </trkpt>
      <trkpt lat="38.988197" lon="-0.180563">
        <ele>9.518</ele>
        <time>2019-06-15T11:48:25Z</time>
      </trkpt>
      <trkpt lat="38.988150" lon="-0.180556">
        <ele>9.308</ele>
        <time>2019-06-15T11:48:26Z</time>
      </trkpt>
      <trkpt lat="38.988101" lon="-0.180535">
        <ele>9.176</ele>
        <time>2019-06-15T11:48:27Z</time>
      </trkpt>
      <trkpt lat="38.988052" lon="-0.180505">
        <ele>8.880</ele>
        <time>2019-06-15T11:48:28Z</time>
      </trkpt>
      <trkpt lat="38.988000" lon="-0.180479">
        <ele>8.679</ele>
        <time>2019-06-15T11:48:29Z</time>
      </trkpt>
      <trkpt lat="38.987944" lon="-0.180458">
        <ele>8.462</ele>
        <time>2019-06-15T11:48:30Z</time>
      </trkpt>
      <trkpt lat="38.987887" lon="-0.180423">
        <ele>8.244</ele>
        <time>2019-06-15T11:48:31Z</time>
      </trkpt>
      <trkpt lat="38.987797" lon="-0.180417">
        <ele>8.021</ele>
        <time>2019-06-15T11:48:33Z</time>
      </trkpt>
      <trkpt lat="38.987742" lon="-0.180391">
        <ele>8.190</ele>
        <time>2019-06-15T11:48:34Z</time>
      </trkpt>
      <trkpt lat="38.987694" lon="-0.180386">
        <ele>8.345</ele>
        <time>2019-06-15T11:48:35Z</time>
      </trkpt>
      <trkpt lat="38.987637" lon="-0.180376">
        <ele>8.572</ele>
        <time>2019-06-15T11:48:36Z</time>
      </trkpt>
      <trkpt lat="38.987589" lon="-0.180349">
        <ele>8.713</ele>
        <time>2019-06-15T11:48:37Z</time>
      </trkpt>
      <trkpt lat="38.987540" lon="-0.180335">
        <ele>8.914</ele>
        <time>2019-06-15T11:48:38Z</time>
      </trkpt>
      <trkpt lat="38.987489" lon="-0.180300">
        <ele>9.008</ele>
        <time>2019-06-15T11:48:39Z</time>
      </trkpt>
      <trkpt lat="38.987398" lon="-0.180323">
        <ele>8.710</ele>
        <time>2019-06-15T11:48:41Z</time>
      </trkpt>
      <trkpt lat="38.987340" lon="-0.180296">
        <ele>8.514</ele>
        <time>2019-06-15T11:48:42Z</time>
      </trkpt>
      <trkpt lat="38.987285" lon="-0.180289">
        <ele>8.373</ele>
        <time>2019-06-15T11:48:43Z</time>
      </trkpt>
      <trkpt lat="38.987232" lon="-0.180281">
        <ele>8.076</ele>
        <time>2019-06-15T11:48:44Z</time>
      </trkpt>
      <trkpt lat="38.987175" lon="-0.180271">
        <ele>8.158</ele>
        <time>2019-06-15T11:48:45Z</time>
      </trkpt>
      <trkpt lat="38.987082" lon="-0.180254">
        <ele>8.445</ele>
        <time>2019-06-15T11:48:47Z</time>
      </trkpt>
      <trkpt lat="38.986997" lon="-0.180275">
        <ele>8.874</ele>
        <time>2019-06-15T11:48:49Z</time>
      </trkpt>
      <trkpt lat="38.986907" lon="-0.180273">
        <ele>9.389</ele>
        <time>2019-06-15T11:48:51Z</time>
      </trkpt>
      <trkpt lat="38.986822" lon="-0.180263">
        <ele>9.932</ele>
        <time>2019-06-15T11:48:53Z</time>
      </trkpt>
      <trkpt lat="38.986777" lon="-0.180244">
        <ele>10.292</ele>
        <time>2019-06-15T11:48:54Z</time>
      </trkpt>
      <trkpt lat="38.986703" lon="-0.180211">
        <ele>10.711</ele>
        <time>2019-06-15T11:48:56Z</time>
      </trkpt>
      <trkpt lat="38.986633" lon="-0.180149">
        <ele>11.208</ele>
        <time>2019-06-15T11:48:58Z</time>
      </trkpt>
      <trkpt lat="38.986563" lon="-0.180094">
        <ele>11.696</ele>
        <time>2019-06-15T11:49:00Z</time>
      </trkpt>
      <trkpt lat="38.986521" lon="-0.180072">
        <ele>11.970</ele>
        <time>2019-06-15T11:49:01Z</time>
      </trkpt>
      <trkpt lat="38.986432" lon="-0.180028">
        <ele>12.689</ele>
        <time>2019-06-15T11:49:03Z</time>
      </trkpt>
      <trkpt lat="38.986341" lon="-0.180010">
        <ele>13.342</ele>
        <time>2019-06-15T11:49:05Z</time>
      </trkpt>
      <trkpt lat="38.986293" lon="-0.179986">
        <ele>13.814</ele>
        <time>2019-06-15T11:49:06Z</time>
      </trkpt>
      <trkpt lat="38.986246" lon="-0.179959">
        <ele>14.381</ele>
        <time>2019-06-15T11:49:07Z</time>
      </trkpt>
      <trkpt lat="38.986203" lon="-0.179941">
        <ele>14.860</ele>
        <time>2019-06-15T11:49:08Z</time>
      </trkpt>
      <trkpt lat="38.986113" lon="-0.179921">
        <ele>15.835</ele>
        <time>2019-06-15T11:49:10Z</time>
      </trkpt>
      <trkpt lat="38.986031" lon="-0.179894">
        <ele>16.469</ele>
        <time>2019-06-15T11:49:12Z</time>
      </trkpt>
      <trkpt lat="38.985956" lon="-0.179866">
        <ele>17.004</ele>
        <time>2019-06-15T11:49:14Z</time>
      </trkpt>
      <trkpt lat="38.985880" lon="-0.179844">
        <ele>17.524</ele>
        <time>2019-06-15T11:49:16Z</time>
      </trkpt>
      <trkpt lat="38.985833" lon="-0.179831">
        <ele>17.808</ele>
        <time>2019-06-15T11:49:17Z</time>
      </trkpt>
      <trkpt lat="38.985788" lon="-0.179822">
        <ele>17.469</ele>
        <time>2019-06-15T11:49:18Z</time>
      </trkpt>
      <trkpt lat="38.985737" lon="-0.179812">
        <ele>17.033</ele>
        <time>2019-06-15T11:49:19Z</time>
      </trkpt>
      <trkpt lat="38.985653" lon="-0.179796">
        <ele>16.172</ele>
        <time>2019-06-15T11:49:21Z</time>
      </trkpt>
      <trkpt lat="38.985561" lon="-0.179807">
        <ele>15.115</ele>
        <time>2019-06-15T11:49:23Z</time>
      </trkpt>
      <trkpt lat="38.985517" lon="-0.179784">
        <ele>14.697</ele>
        <time>2019-06-15T11:49:24Z</time>
      </trkpt>
      <trkpt lat="38.985467" lon="-0.179788">
        <ele>14.144</ele>
        <time>2019-06-15T11:49:25Z</time>
      </trkpt>
      <trkpt lat="38.985408" lon="-0.179817">
        <ele>13.673</ele>
        <time>2019-06-15T11:49:26Z</time>
      </trkpt>
      <trkpt lat="38.985358" lon="-0.179817">
        <ele>13.188</ele>
        <time>2019-06-15T11:49:27Z</time>
      </trkpt>
      <trkpt lat="38.985257" lon="-0.179833">
        <ele>12.488</ele>
        <time>2019-06-15T11:49:29Z</time>
      </trkpt>
      <trkpt lat="38.985175" lon="-0.179846">
        <ele>12.324</ele>
        <time>2019-06-15T11:49:31Z</time>
      </trkpt>
      <trkpt lat="38.985117" lon="-0.179843">
        <ele>12.226</ele>
        <time>2019-06-15T11:49:32Z</time>
      </trkpt>
      <trkpt lat="38.985046" lon="-0.179841">
        <ele>12.108</ele>
        <time>2019-06-15T11:49:33Z</time>
      </trkpt>
      <trkpt lat="38.984994" lon="-0.179850">
        <ele>12.061</ele>
        <time>2019-06-15T11:49:34Z</time>
      </trkpt>
      <trkpt lat="38.984899" lon="-0.179866">
        <ele>12.585</ele>
        <time>2019-06-15T11:49:36Z</time>
      </trkpt>
      <trkpt lat="38.984849" lon="-0.179867">
        <ele>12.864</ele>
        <time>2019-06-15T11:49:37Z</time>
      </trkpt>
      <trkpt lat="38.984798" lon="-0.179863">
        <ele>13.137</ele>
        <time>2019-06-15T11:49:38Z</time>
      </trkpt>
      <trkpt lat="38.984736" lon="-0.179858">
        <ele>13.429</ele>
        <time>2019-06-15T11:49:39Z</time>
      </trkpt>
      <trkpt lat="38.984691" lon="-0.179840">
        <ele>13.826</ele>
        <time>2019-06-15T11:49:40Z</time>
      </trkpt>
      <trkpt lat="38.984587" lon="-0.179822">
        <ele>14.645</ele>
        <time>2019-06-15T11:49:42Z</time>
      </trkpt>
      <trkpt lat="38.984516" lon="-0.179810">
        <ele>15.260</ele>
        <time>2019-06-15T11:49:43Z</time>
      </trkpt>
      <trkpt lat="38.984458" lon="-0.179785">
        <ele>15.784</ele>
        <time>2019-06-15T11:49:44Z</time>
      </trkpt>
      <trkpt lat="38.984387" lon="-0.179719">
        <ele>16.607</ele>
        <time>2019-06-15T11:49:45Z</time>
      </trkpt>
      <trkpt lat="38.984328" lon="-0.179732">
        <ele>17.217</ele>
        <time>2019-06-15T11:49:46Z</time>
      </trkpt>
      <trkpt lat="38.984245" lon="-0.179682">
        <ele>18.308</ele>
        <time>2019-06-15T11:49:48Z</time>
      </trkpt>
      <trkpt lat="38.984189" lon="-0.179656">
        <ele>19.051</ele>
        <time>2019-06-15T11:49:49Z</time>
      </trkpt>
      <trkpt lat="38.984146" lon="-0.179640">
        <ele>19.495</ele>
        <time>2019-06-15T11:49:50Z</time>
      </trkpt>
      <trkpt lat="38.984099" lon="-0.179620">
        <ele>19.764</ele>
        <time>2019-06-15T11:49:51Z</time>
      </trkpt>
      <trkpt lat="38.984046" lon="-0.179591">
        <ele>19.937</ele>
        <time>2019-06-15T11:49:52Z</time>
      </trkpt>
      <trkpt lat="38.983999" lon="-0.179567">
        <ele>20.159</ele>
        <time>2019-06-15T11:49:53Z</time>
      </trkpt>
      <trkpt lat="38.983939" lon="-0.179530">
        <ele>20.266</ele>
        <time>2019-06-15T11:49:54Z</time>
      </trkpt>
      <trkpt lat="38.983860" lon="-0.179505">
        <ele>19.955</ele>
        <time>2019-06-15T11:49:56Z</time>
      </trkpt>
      <trkpt lat="38.983813" lon="-0.179469">
        <ele>19.340</ele>
        <time>2019-06-15T11:49:57Z</time>
      </trkpt>
      <trkpt lat="38.983768" lon="-0.179448">
        <ele>18.746</ele>
        <time>2019-06-15T11:49:58Z</time>
      </trkpt>
      <trkpt lat="38.983700" lon="-0.179452">
        <ele>18.088</ele>
        <time>2019-06-15T11:50:00Z</time>
      </trkpt>
      <trkpt lat="38.983648" lon="-0.179410">
        <ele>17.316</ele>
        <time>2019-06-15T11:50:01Z</time>
      </trkpt>
      <trkpt lat="38.983558" lon="-0.179362">
        <ele>16.208</ele>
        <time>2019-06-15T11:50:03Z</time>
      </trkpt>
      <trkpt lat="38.983501" lon="-0.179306">
        <ele>15.537</ele>
        <time>2019-06-15T11:50:04Z</time>
      </trkpt>
      <trkpt lat="38.983426" lon="-0.179276">
        <ele>14.851</ele>
        <time>2019-06-15T11:50:06Z</time>
      </trkpt>
      <trkpt lat="38.983377" lon="-0.179249">
        <ele>14.450</ele>
        <time>2019-06-15T11:50:07Z</time>
      </trkpt>
      <trkpt lat="38.983323" lon="-0.179221">
        <ele>14.033</ele>
        <time>2019-06-15T11:50:08Z</time>
      </trkpt>
      <trkpt lat="38.983280" lon="-0.179189">
        <ele>13.835</ele>
        <time>2019-06-15T11:50:09Z</time>
      </trkpt>
      <trkpt lat="38.983235" lon="-0.179161">
        <ele>13.762</ele>
        <time>2019-06-15T11:50:10Z</time>
      </trkpt>
      <trkpt lat="38.983187" lon="-0.179144">
        <ele>13.511</ele>
        <time>2019-06-15T11:50:11Z</time>
      </trkpt>
      <trkpt lat="38.983144" lon="-0.179118">
        <ele>13.436</ele>
        <time>2019-06-15T11:50:12Z</time>
      </trkpt>
      <trkpt lat="38.983093" lon="-0.179093">
        <ele>13.266</ele>
        <time>2019-06-15T11:50:13Z</time>
      </trkpt>
      <trkpt lat="38.983044" lon="-0.179060">
        <ele>12.929</ele>
        <time>2019-06-15T11:50:14Z</time>
      </trkpt>
      <trkpt lat="38.982993" lon="-0.179030">
        <ele>12.621</ele>
        <time>2019-06-15T11:50:15Z</time>
      </trkpt>
      <trkpt lat="38.982937" lon="-0.178988">
        <ele>12.008</ele>
        <time>2019-06-15T11:50:16Z</time>
      </trkpt>
      <trkpt lat="38.982880" lon="-0.178960">
        <ele>11.449</ele>
        <time>2019-06-15T11:50:17Z</time>
      </trkpt>
      <trkpt lat="38.982829" lon="-0.178937">
        <ele>10.883</ele>
        <time>2019-06-15T11:50:18Z</time>
      </trkpt>
      <trkpt lat="38.982755" lon="-0.178925">
        <ele>10.682</ele>
        <time>2019-06-15T11:50:20Z</time>
      </trkpt>
      <trkpt lat="38.982656" lon="-0.178851">
        <ele>11.675</ele>
        <time>2019-06-15T11:50:22Z</time>
      </trkpt>
      <trkpt lat="38.982584" lon="-0.178800">
        <ele>12.357</ele>
        <time>2019-06-15T11:50:23Z</time>
      </trkpt>
      <trkpt lat="38.982517" lon="-0.178749">
        <ele>12.854</ele>
        <time>2019-06-15T11:50:24Z</time>
      </trkpt>
      <trkpt lat="38.982453" lon="-0.178699">
        <ele>12.943</ele>
        <time>2019-06-15T11:50:25Z</time>
      </trkpt>
      <trkpt lat="38.982398" lon="-0.178658">
        <ele>12.888</ele>
        <time>2019-06-15T11:50:26Z</time>
      </trkpt>
      <trkpt lat="38.982335" lon="-0.178646">
        <ele>13.013</ele>
        <time>2019-06-15T11:50:27Z</time>
      </trkpt>
      <trkpt lat="38.982306" lon="-0.178596">
        <ele>12.643</ele>
        <time>2019-06-15T11:50:28Z</time>
      </trkpt>
      <trkpt lat="38.982267" lon="-0.178558">
        <ele>12.507</ele>
        <time>2019-06-15T11:50:29Z</time>
      </trkpt>
      <trkpt lat="38.982227" lon="-0.178507">
        <ele>12.208</ele>
        <time>2019-06-15T11:50:30Z</time>
      </trkpt>
      <trkpt lat="38.982157" lon="-0.178494">
        <ele>12.154</ele>
        <time>2019-06-15T11:50:31Z</time>
      </trkpt>
      <trkpt lat="38.982112" lon="-0.178460">
        <ele>11.728</ele>
        <time>2019-06-15T11:50:32Z</time>
      </trkpt>
      <trkpt lat="38.982049" lon="-0.178423">
        <ele>11.257</ele>
        <time>2019-06-15T11:50:33Z</time>
      </trkpt>
      <trkpt lat="38.982004" lon="-0.178336">
        <ele>10.290</ele>
        <time>2019-06-15T11:50:34Z</time>
      </trkpt>
      <trkpt lat="38.981968" lon="-0.178265">
        <ele>10.062</ele>
        <time>2019-06-15T11:50:35Z</time>
      </trkpt>
      <trkpt lat="38.981900" lon="-0.178208">
        <ele>10.259</ele>
        <time>2019-06-15T11:50:36Z</time>
      </trkpt>
      <trkpt lat="38.981852" lon="-0.178141">
        <ele>10.358</ele>
        <time>2019-06-15T11:50:37Z</time>
      </trkpt>
      <trkpt lat="38.981811" lon="-0.178057">
        <ele>10.533</ele>
        <time>2019-06-15T11:50:38Z</time>
      </trkpt>
      <trkpt lat="38.981773" lon="-0.177981">
        <ele>10.791</ele>
        <time>2019-06-15T11:50:39Z</time>
      </trkpt>
      <trkpt lat="38.981719" lon="-0.177928">
        <ele>10.981</ele>
        <time>2019-06-15T11:50:40Z</time>
      </trkpt>
      <trkpt lat="38.981680" lon="-0.177871">
        <ele>11.019</ele>
        <time>2019-06-15T11:50:41Z</time>
      </trkpt>
      <trkpt lat="38.981618" lon="-0.177885">
        <ele>11.208</ele>
        <time>2019-06-15T11:50:42Z</time>
      </trkpt>
      <trkpt lat="38.981545" lon="-0.177809">
        <ele>11.522</ele>
        <time>2019-06-15T11:50:44Z</time>
      </trkpt>
      <trkpt lat="38.981494" lon="-0.177784">
        <ele>11.666</ele>
        <time>2019-06-15T11:50:45Z</time>
      </trkpt>
      <trkpt lat="38.981426" lon="-0.177729">
        <ele>12.045</ele>
        <time>2019-06-15T11:50:47Z</time>
      </trkpt>
      <trkpt lat="38.981351" lon="-0.177665">
        <ele>13.068</ele>
        <time>2019-06-15T11:50:49Z</time>
      </trkpt>
      <trkpt lat="38.981324" lon="-0.177598">
        <ele>13.750</ele>
        <time>2019-06-15T11:50:52Z</time>
      </trkpt>
      <trkpt lat="38.981277" lon="-0.177555">
        <ele>14.727</ele>
        <time>2019-06-15T11:50:56Z</time>
      </trkpt>
      <trkpt lat="38.981098" lon="-0.177489">
        <ele>17.866</ele>
        <time>2019-06-15T11:50:59Z</time>
      </trkpt>
      <trkpt lat="38.981046" lon="-0.177461">
        <ele>17.281</ele>
        <time>2019-06-15T11:51:00Z</time>
      </trkpt>
      <trkpt lat="38.980965" lon="-0.177408">
        <ele>16.482</ele>
        <time>2019-06-15T11:51:13Z</time>
      </trkpt>
      <trkpt lat="38.980908" lon="-0.177413">
        <ele>16.043</ele>
        <time>2019-06-15T11:51:14Z</time>
      </trkpt>
      <trkpt lat="38.980830" lon="-0.177353">
        <ele>15.517</ele>
        <time>2019-06-15T11:51:15Z</time>
      </trkpt>
      <trkpt lat="38.980713" lon="-0.177248">
        <ele>13.408</ele>
        <time>2019-06-15T11:51:16Z</time>
      </trkpt>
      <trkpt lat="38.980643" lon="-0.177259">
        <ele>12.031</ele>
        <time>2019-06-15T11:51:18Z</time>
      </trkpt>
      <trkpt lat="38.980568" lon="-0.177238">
        <ele>10.415</ele>
        <time>2019-06-15T11:51:20Z</time>
      </trkpt>
      <trkpt lat="38.980464" lon="-0.177177">
        <ele>10.294</ele>
        <time>2019-06-15T11:51:21Z</time>
      </trkpt>
      <trkpt lat="38.980409" lon="-0.177137">
        <ele>10.277</ele>
        <time>2019-06-15T11:51:22Z</time>
      </trkpt>
      <trkpt lat="38.980356" lon="-0.177082">
        <ele>10.279</ele>
        <time>2019-06-15T11:51:23Z</time>
      </trkpt>
      <trkpt lat="38.980309" lon="-0.177029">
        <ele>10.226</ele>
        <time>2019-06-15T11:51:24Z</time>
      </trkpt>
      <trkpt lat="38.980315" lon="-0.176943">
        <ele>9.935</ele>
        <time>2019-06-15T11:51:25Z</time>
      </trkpt>
      <trkpt lat="38.980268" lon="-0.176986">
        <ele>10.370</ele>
        <time>2019-06-15T11:51:26Z</time>
      </trkpt>
      <trkpt lat="38.980200" lon="-0.176919">
        <ele>10.821</ele>
        <time>2019-06-15T11:51:28Z</time>
      </trkpt>
      <trkpt lat="38.980144" lon="-0.176840">
        <ele>11.341</ele>
        <time>2019-06-15T11:51:29Z</time>
      </trkpt>
      <trkpt lat="38.980087" lon="-0.176869">
        <ele>11.905</ele>
        <time>2019-06-15T11:51:30Z</time>
      </trkpt>
      <trkpt lat="38.980023" lon="-0.176784">
        <ele>12.208</ele>
        <time>2019-06-15T11:51:32Z</time>
      </trkpt>
      <trkpt lat="38.979964" lon="-0.176774">
        <ele>12.155</ele>
        <time>2019-06-15T11:51:33Z</time>
      </trkpt>
      <trkpt lat="38.979928" lon="-0.176681">
        <ele>11.569</ele>
        <time>2019-06-15T11:51:35Z</time>
      </trkpt>
      <trkpt lat="38.979877" lon="-0.176647">
        <ele>11.148</ele>
        <time>2019-06-15T11:51:36Z</time>
      </trkpt>
      <trkpt lat="38.979816" lon="-0.176629">
        <ele>10.891</ele>
        <time>2019-06-15T11:51:37Z</time>
      </trkpt>
      <trkpt lat="38.979778" lon="-0.176571">
        <ele>10.753</ele>
        <time>2019-06-15T11:51:38Z</time>
      </trkpt>
      <trkpt lat="38.979740" lon="-0.176496">
        <ele>10.710</ele>
        <time>2019-06-15T11:51:39Z</time>
      </trkpt>
      <trkpt lat="38.979694" lon="-0.176428">
        <ele>10.959</ele>
        <time>2019-06-15T11:51:40Z</time>
      </trkpt>
      <trkpt lat="38.979647" lon="-0.176415">
        <ele>10.934</ele>
        <time>2019-06-15T11:51:41Z</time>
      </trkpt>
      <trkpt lat="38.979608" lon="-0.176379">
        <ele>11.051</ele>
        <time>2019-06-15T11:51:42Z</time>
      </trkpt>
      <trkpt lat="38.979561" lon="-0.176352">
        <ele>11.101</ele>
        <time>2019-06-15T11:51:43Z</time>
      </trkpt>
      <trkpt lat="38.979523" lon="-0.176306">
        <ele>11.311</ele>
        <time>2019-06-15T11:51:44Z</time>
      </trkpt>
      <trkpt lat="38.979481" lon="-0.176262">
        <ele>11.508</ele>
        <time>2019-06-15T11:51:45Z</time>
      </trkpt>
      <trkpt lat="38.979432" lon="-0.176212">
        <ele>11.748</ele>
        <time>2019-06-15T11:51:46Z</time>
      </trkpt>
      <trkpt lat="38.979393" lon="-0.176165">
        <ele>11.972</ele>
        <time>2019-06-15T11:51:47Z</time>
      </trkpt>
      <trkpt lat="38.979344" lon="-0.176112">
        <ele>12.071</ele>
        <time>2019-06-15T11:51:48Z</time>
      </trkpt>
      <trkpt lat="38.979295" lon="-0.176061">
        <ele>11.944</ele>
        <time>2019-06-15T11:51:49Z</time>
      </trkpt>
      <trkpt lat="38.979247" lon="-0.176018">
        <ele>11.946</ele>
        <time>2019-06-15T11:51:50Z</time>
      </trkpt>
      <trkpt lat="38.979198" lon="-0.175981">
        <ele>11.953</ele>
        <time>2019-06-15T11:51:51Z</time>
      </trkpt>
      <trkpt lat="38.979152" lon="-0.175939">
        <ele>12.182</ele>
        <time>2019-06-15T11:51:52Z</time>
      </trkpt>
      <trkpt lat="38.979105" lon="-0.175905">
        <ele>12.447</ele>
        <time>2019-06-15T11:51:53Z</time>
      </trkpt>
      <trkpt lat="38.979060" lon="-0.175842">
        <ele>12.824</ele>
        <time>2019-06-15T11:51:54Z</time>
      </trkpt>
      <trkpt lat="38.979014" lon="-0.175805">
        <ele>13.104</ele>
        <time>2019-06-15T11:51:55Z</time>
      </trkpt>
      <trkpt lat="38.978961" lon="-0.175766">
        <ele>13.514</ele>
        <time>2019-06-15T11:51:56Z</time>
      </trkpt>
      <trkpt lat="38.978930" lon="-0.175714">
        <ele>13.708</ele>
        <time>2019-06-15T11:51:57Z</time>
      </trkpt>
      <trkpt lat="38.978872" lon="-0.175678">
        <ele>14.135</ele>
        <time>2019-06-15T11:51:58Z</time>
      </trkpt>
      <trkpt lat="38.978826" lon="-0.175627">
        <ele>14.599</ele>
        <time>2019-06-15T11:51:59Z</time>
      </trkpt>
      <trkpt lat="38.978787" lon="-0.175585">
        <ele>14.758</ele>
        <time>2019-06-15T11:52:00Z</time>
      </trkpt>
      <trkpt lat="38.978741" lon="-0.175533">
        <ele>15.021</ele>
        <time>2019-06-15T11:52:01Z</time>
      </trkpt>
      <trkpt lat="38.978661" lon="-0.175498">
        <ele>15.683</ele>
        <time>2019-06-15T11:52:03Z</time>
      </trkpt>
      <trkpt lat="38.978621" lon="-0.175461">
        <ele>15.930</ele>
        <time>2019-06-15T11:52:04Z</time>
      </trkpt>
      <trkpt lat="38.978569" lon="-0.175425">
        <ele>16.379</ele>
        <time>2019-06-15T11:52:05Z</time>
      </trkpt>
      <trkpt lat="38.978527" lon="-0.175389">
        <ele>16.614</ele>
        <time>2019-06-15T11:52:06Z</time>
      </trkpt>
      <trkpt lat="38.978494" lon="-0.175340">
        <ele>16.869</ele>
        <time>2019-06-15T11:52:07Z</time>
      </trkpt>
      <trkpt lat="38.978469" lon="-0.175291">
        <ele>17.004</ele>
        <time>2019-06-15T11:52:08Z</time>
      </trkpt>
      <trkpt lat="38.978431" lon="-0.175251">
        <ele>17.324</ele>
        <time>2019-06-15T11:52:09Z</time>
      </trkpt>
      <trkpt lat="38.978365" lon="-0.175190">
        <ele>17.808</ele>
        <time>2019-06-15T11:52:11Z</time>
      </trkpt>
      <trkpt lat="38.978290" lon="-0.175135">
        <ele>17.669</ele>
        <time>2019-06-15T11:52:13Z</time>
      </trkpt>
      <trkpt lat="38.978253" lon="-0.175095">
        <ele>17.243</ele>
        <time>2019-06-15T11:52:14Z</time>
      </trkpt>
      <trkpt lat="38.978213" lon="-0.175048">
        <ele>16.882</ele>
        <time>2019-06-15T11:52:15Z</time>
      </trkpt>
      <trkpt lat="38.978171" lon="-0.174996">
        <ele>16.255</ele>
        <time>2019-06-15T11:52:16Z</time>
      </trkpt>
      <trkpt lat="38.978124" lon="-0.174957">
        <ele>15.677</ele>
        <time>2019-06-15T11:52:17Z</time>
      </trkpt>
      <trkpt lat="38.978080" lon="-0.174922">
        <ele>15.024</ele>
        <time>2019-06-15T11:52:18Z</time>
      </trkpt>
      <trkpt lat="38.978042" lon="-0.174885">
        <ele>14.543</ele>
        <time>2019-06-15T11:52:19Z</time>
      </trkpt>
      <trkpt lat="38.977986" lon="-0.174856">
        <ele>14.298</ele>
        <time>2019-06-15T11:52:20Z</time>
      </trkpt>
      <trkpt lat="38.977941" lon="-0.174822">
        <ele>13.941</ele>
        <time>2019-06-15T11:52:21Z</time>
      </trkpt>
      <trkpt lat="38.977902" lon="-0.174785">
        <ele>13.781</ele>
        <time>2019-06-15T11:52:22Z</time>
      </trkpt>
      <trkpt lat="38.977838" lon="-0.174706">
        <ele>13.209</ele>
        <time>2019-06-15T11:52:24Z</time>
      </trkpt>
      <trkpt lat="38.977793" lon="-0.174670">
        <ele>13.008</ele>
        <time>2019-06-15T11:52:25Z</time>
      </trkpt>
      <trkpt lat="38.977745" lon="-0.174652">
        <ele>13.257</ele>
        <time>2019-06-15T11:52:26Z</time>
      </trkpt>
      <trkpt lat="38.977692" lon="-0.174653">
        <ele>13.681</ele>
        <time>2019-06-15T11:52:27Z</time>
      </trkpt>
      <trkpt lat="38.977644" lon="-0.174654">
        <ele>14.080</ele>
        <time>2019-06-15T11:52:28Z</time>
      </trkpt>
      <trkpt lat="38.977592" lon="-0.174673">
        <ele>14.373</ele>
        <time>2019-06-15T11:52:29Z</time>
      </trkpt>
      <trkpt lat="38.977545" lon="-0.174688">
        <ele>14.785</ele>
        <time>2019-06-15T11:52:30Z</time>
      </trkpt>
      <trkpt lat="38.977496" lon="-0.174702">
        <ele>15.092</ele>
        <time>2019-06-15T11:52:31Z</time>
      </trkpt>
      <trkpt lat="38.977450" lon="-0.174714">
        <ele>15.271</ele>
        <time>2019-06-15T11:52:32Z</time>
      </trkpt>
      <trkpt lat="38.977260" lon="-0.174773">
        <ele>16.126</ele>
        <time>2019-06-15T11:52:37Z</time>
      </trkpt>
      <trkpt lat="38.977203" lon="-0.174812">
        <ele>16.317</ele>
        <time>2019-06-15T11:52:38Z</time>
      </trkpt>
      <trkpt lat="38.977130" lon="-0.174876">
        <ele>16.687</ele>
        <time>2019-06-15T11:52:40Z</time>
      </trkpt>
      <trkpt lat="38.977119" lon="-0.174951">
        <ele>16.815</ele>
        <time>2019-06-15T11:52:41Z</time>
      </trkpt>
      <trkpt lat="38.977073" lon="-0.174978">
        <ele>16.908</ele>
        <time>2019-06-15T11:52:42Z</time>
      </trkpt>
      <trkpt lat="38.977042" lon="-0.175026">
        <ele>17.084</ele>
        <time>2019-06-15T11:52:43Z</time>
      </trkpt>
      <trkpt lat="38.976984" lon="-0.175093">
        <ele>17.078</ele>
        <time>2019-06-15T11:52:45Z</time>
      </trkpt>
      <trkpt lat="38.976980" lon="-0.175165">
        <ele>17.127</ele>
        <time>2019-06-15T11:52:46Z</time>
      </trkpt>
      <trkpt lat="38.976929" lon="-0.175244">
        <ele>17.190</ele>
        <time>2019-06-15T11:52:48Z</time>
      </trkpt>
      <trkpt lat="38.976929" lon="-0.175304">
        <ele>16.972</ele>
        <time>2019-06-15T11:52:50Z</time>
      </trkpt>
      <trkpt lat="38.976878" lon="-0.175370">
        <ele>16.789</ele>
        <time>2019-06-15T11:52:51Z</time>
      </trkpt>
      <trkpt lat="38.976862" lon="-0.175426">
        <ele>16.458</ele>
        <time>2019-06-15T11:52:52Z</time>
      </trkpt>
      <trkpt lat="38.976811" lon="-0.175442">
        <ele>16.613</ele>
        <time>2019-06-15T11:52:54Z</time>
      </trkpt>
      <trkpt lat="38.976714" lon="-0.175517">
        <ele>16.842</ele>
        <time>2019-06-15T11:52:56Z</time>
      </trkpt>
      <trkpt lat="38.976639" lon="-0.175552">
        <ele>16.822</ele>
        <time>2019-06-15T11:52:58Z</time>
      </trkpt>
      <trkpt lat="38.976625" lon="-0.175611">
        <ele>16.314</ele>
        <time>2019-06-15T11:52:59Z</time>
      </trkpt>
      <trkpt lat="38.976578" lon="-0.175703">
        <ele>15.508</ele>
        <time>2019-06-15T11:53:01Z</time>
      </trkpt>
      <trkpt lat="38.976573" lon="-0.175784">
        <ele>15.067</ele>
        <time>2019-06-15T11:53:02Z</time>
      </trkpt>
      <trkpt lat="38.976511" lon="-0.175873">
        <ele>14.391</ele>
        <time>2019-06-15T11:53:04Z</time>
      </trkpt>
      <trkpt lat="38.976452" lon="-0.175942">
        <ele>14.060</ele>
        <time>2019-06-15T11:53:06Z</time>
      </trkpt>
      <trkpt lat="38.976432" lon="-0.175996">
        <ele>14.063</ele>
        <time>2019-06-15T11:53:07Z</time>
      </trkpt>
      <trkpt lat="38.976369" lon="-0.176068">
        <ele>14.065</ele>
        <time>2019-06-15T11:53:09Z</time>
      </trkpt>
      <trkpt lat="38.976330" lon="-0.176157">
        <ele>14.192</ele>
        <time>2019-06-15T11:53:11Z</time>
      </trkpt>
      <trkpt lat="38.976279" lon="-0.176244">
        <ele>14.411</ele>
        <time>2019-06-15T11:53:13Z</time>
      </trkpt>
      <trkpt lat="38.976252" lon="-0.176294">
        <ele>14.646</ele>
        <time>2019-06-15T11:53:14Z</time>
      </trkpt>
      <trkpt lat="38.976228" lon="-0.176376">
        <ele>15.148</ele>
        <time>2019-06-15T11:53:16Z</time>
      </trkpt>
      <trkpt lat="38.976234" lon="-0.176443">
        <ele>15.161</ele>
        <time>2019-06-15T11:53:18Z</time>
      </trkpt>
      <trkpt lat="38.976298" lon="-0.176525">
        <ele>14.817</ele>
        <time>2019-06-15T11:53:19Z</time>
      </trkpt>
      <trkpt lat="38.976322" lon="-0.176577">
        <ele>14.808</ele>
        <time>2019-06-15T11:53:20Z</time>
      </trkpt>
      <trkpt lat="38.976350" lon="-0.176638">
        <ele>14.937</ele>
        <time>2019-06-15T11:53:21Z</time>
      </trkpt>
      <trkpt lat="38.976371" lon="-0.176691">
        <ele>15.071</ele>
        <time>2019-06-15T11:53:22Z</time>
      </trkpt>
      <trkpt lat="38.976393" lon="-0.176753">
        <ele>15.030</ele>
        <time>2019-06-15T11:53:23Z</time>
      </trkpt>
      <trkpt lat="38.976382" lon="-0.176884">
        <ele>15.083</ele>
        <time>2019-06-15T11:53:25Z</time>
      </trkpt>
      <trkpt lat="38.976383" lon="-0.176967">
        <ele>15.095</ele>
        <time>2019-06-15T11:53:26Z</time>
      </trkpt>
      <trkpt lat="38.976373" lon="-0.177035">
        <ele>15.082</ele>
        <time>2019-06-15T11:53:27Z</time>
      </trkpt>
      <trkpt lat="38.976349" lon="-0.177151">
        <ele>15.161</ele>
        <time>2019-06-15T11:53:29Z</time>
      </trkpt>
      <trkpt lat="38.976292" lon="-0.177237">
        <ele>15.366</ele>
        <time>2019-06-15T11:53:31Z</time>
      </trkpt>
      <trkpt lat="38.976250" lon="-0.177259">
        <ele>15.544</ele>
        <time>2019-06-15T11:53:32Z</time>
      </trkpt>
      <trkpt lat="38.976212" lon="-0.177305">
        <ele>15.705</ele>
        <time>2019-06-15T11:53:33Z</time>
      </trkpt>
      <trkpt lat="38.976193" lon="-0.177368">
        <ele>15.915</ele>
        <time>2019-06-15T11:53:34Z</time>
      </trkpt>
      <trkpt lat="38.976149" lon="-0.177426">
        <ele>16.408</ele>
        <time>2019-06-15T11:53:35Z</time>
      </trkpt>
      <trkpt lat="38.976097" lon="-0.177435">
        <ele>17.227</ele>
        <time>2019-06-15T11:53:36Z</time>
      </trkpt>
      <trkpt lat="38.976032" lon="-0.177448">
        <ele>19.381</ele>
        <time>2019-06-15T11:53:37Z</time>
      </trkpt>
      <trkpt lat="38.975974" lon="-0.177451">
        <ele>21.170</ele>
        <time>2019-06-15T11:53:38Z</time>
      </trkpt>
      <trkpt lat="38.975886" lon="-0.177451">
        <ele>23.853</ele>
        <time>2019-06-15T11:53:40Z</time>
      </trkpt>
      <trkpt lat="38.975819" lon="-0.177488">
        <ele>26.495</ele>
        <time>2019-06-15T11:53:42Z</time>
      </trkpt>
      <trkpt lat="38.975797" lon="-0.177541">
        <ele>27.372</ele>
        <time>2019-06-15T11:53:44Z</time>
      </trkpt>
      <trkpt lat="38.975740" lon="-0.177654">
        <ele>29.431</ele>
        <time>2019-06-15T11:53:46Z</time>
      </trkpt>
      <trkpt lat="38.975714" lon="-0.177720">
        <ele>30.326</ele>
        <time>2019-06-15T11:53:47Z</time>
      </trkpt>
      <trkpt lat="38.975671" lon="-0.177765">
        <ele>31.839</ele>
        <time>2019-06-15T11:53:48Z</time>
      </trkpt>
      <trkpt lat="38.975641" lon="-0.177815">
        <ele>32.301</ele>
        <time>2019-06-15T11:53:49Z</time>
      </trkpt>
      <trkpt lat="38.975588" lon="-0.177903">
        <ele>32.921</ele>
        <time>2019-06-15T11:53:51Z</time>
      </trkpt>
      <trkpt lat="38.975556" lon="-0.178002">
        <ele>32.808</ele>
        <time>2019-06-15T11:53:53Z</time>
      </trkpt>
      <trkpt lat="38.975581" lon="-0.178067">
        <ele>30.526</ele>
        <time>2019-06-15T11:53:54Z</time>
      </trkpt>
      <trkpt lat="38.975600" lon="-0.178182">
        <ele>27.160</ele>
        <time>2019-06-15T11:53:56Z</time>
      </trkpt>
      <trkpt lat="38.975612" lon="-0.178245">
        <ele>25.339</ele>
        <time>2019-06-15T11:53:57Z</time>
      </trkpt>
      <trkpt lat="38.975620" lon="-0.178368">
        <ele>23.062</ele>
        <time>2019-06-15T11:53:59Z</time>
      </trkpt>
      <trkpt lat="38.975630" lon="-0.178425">
        <ele>22.544</ele>
        <time>2019-06-15T11:54:00Z</time>
      </trkpt>
      <trkpt lat="38.975640" lon="-0.178488">
        <ele>22.061</ele>
        <time>2019-06-15T11:54:01Z</time>
      </trkpt>
      <trkpt lat="38.975649" lon="-0.178598">
        <ele>21.470</ele>
        <time>2019-06-15T11:54:03Z</time>
      </trkpt>
      <trkpt lat="38.975658" lon="-0.178658">
        <ele>21.145</ele>
        <time>2019-06-15T11:54:04Z</time>
      </trkpt>
      <trkpt lat="38.975662" lon="-0.178779">
        <ele>21.069</ele>
        <time>2019-06-15T11:54:06Z</time>
      </trkpt>
      <trkpt lat="38.975672" lon="-0.178846">
        <ele>20.904</ele>
        <time>2019-06-15T11:54:07Z</time>
      </trkpt>
      <trkpt lat="38.975685" lon="-0.178956">
        <ele>20.924</ele>
        <time>2019-06-15T11:54:09Z</time>
      </trkpt>
      <trkpt lat="38.975696" lon="-0.179017">
        <ele>20.908</ele>
        <time>2019-06-15T11:54:10Z</time>
      </trkpt>
      <trkpt lat="38.975699" lon="-0.179087">
        <ele>21.249</ele>
        <time>2019-06-15T11:54:11Z</time>
      </trkpt>
      <trkpt lat="38.975686" lon="-0.179193">
        <ele>21.513</ele>
        <time>2019-06-15T11:54:13Z</time>
      </trkpt>
      <trkpt lat="38.975714" lon="-0.179263">
        <ele>21.112</ele>
        <time>2019-06-15T11:54:14Z</time>
      </trkpt>
      <trkpt lat="38.975743" lon="-0.179347">
        <ele>20.515</ele>
        <time>2019-06-15T11:54:15Z</time>
      </trkpt>
      <trkpt lat="38.975749" lon="-0.179455">
        <ele>20.147</ele>
        <time>2019-06-15T11:54:17Z</time>
      </trkpt>
      <trkpt lat="38.975755" lon="-0.179517">
        <ele>19.644</ele>
        <time>2019-06-15T11:54:18Z</time>
      </trkpt>
      <trkpt lat="38.975762" lon="-0.179576">
        <ele>19.133</ele>
        <time>2019-06-15T11:54:19Z</time>
      </trkpt>
      <trkpt lat="38.975776" lon="-0.179635">
        <ele>18.588</ele>
        <time>2019-06-15T11:54:20Z</time>
      </trkpt>
      <trkpt lat="38.975804" lon="-0.179754">
        <ele>17.495</ele>
        <time>2019-06-15T11:54:22Z</time>
      </trkpt>
      <trkpt lat="38.975827" lon="-0.179815">
        <ele>17.149</ele>
        <time>2019-06-15T11:54:23Z</time>
      </trkpt>
      <trkpt lat="38.975865" lon="-0.179955">
        <ele>16.623</ele>
        <time>2019-06-15T11:54:25Z</time>
      </trkpt>
      <trkpt lat="38.975859" lon="-0.180021">
        <ele>16.908</ele>
        <time>2019-06-15T11:54:26Z</time>
      </trkpt>
      <trkpt lat="38.975863" lon="-0.180085">
        <ele>17.452</ele>
        <time>2019-06-15T11:54:27Z</time>
      </trkpt>
      <trkpt lat="38.975890" lon="-0.180171">
        <ele>18.186</ele>
        <time>2019-06-15T11:54:29Z</time>
      </trkpt>
      <trkpt lat="38.975948" lon="-0.180254">
        <ele>19.155</ele>
        <time>2019-06-15T11:54:31Z</time>
      </trkpt>
      <trkpt lat="38.975944" lon="-0.180321">
        <ele>19.798</ele>
        <time>2019-06-15T11:54:32Z</time>
      </trkpt>
      <trkpt lat="38.976018" lon="-0.180353">
        <ele>20.390</ele>
        <time>2019-06-15T11:54:33Z</time>
      </trkpt>
      <trkpt lat="38.976038" lon="-0.180418">
        <ele>21.097</ele>
        <time>2019-06-15T11:54:34Z</time>
      </trkpt>
      <trkpt lat="38.976047" lon="-0.180475">
        <ele>21.686</ele>
        <time>2019-06-15T11:54:35Z</time>
      </trkpt>
      <trkpt lat="38.976054" lon="-0.180543">
        <ele>22.391</ele>
        <time>2019-06-15T11:54:36Z</time>
      </trkpt>
      <trkpt lat="38.976066" lon="-0.180605">
        <ele>22.252</ele>
        <time>2019-06-15T11:54:37Z</time>
      </trkpt>
      <trkpt lat="38.976058" lon="-0.180668">
        <ele>21.753</ele>
        <time>2019-06-15T11:54:38Z</time>
      </trkpt>
      <trkpt lat="38.976029" lon="-0.180731">
        <ele>21.008</ele>
        <time>2019-06-15T11:54:39Z</time>
      </trkpt>
      <trkpt lat="38.976003" lon="-0.180789">
        <ele>20.508</ele>
        <time>2019-06-15T11:54:40Z</time>
      </trkpt>
      <trkpt lat="38.975971" lon="-0.180833">
        <ele>20.038</ele>
        <time>2019-06-15T11:54:41Z</time>
      </trkpt>
      <trkpt lat="38.975949" lon="-0.180895">
        <ele>19.312</ele>
        <time>2019-06-15T11:54:42Z</time>
      </trkpt>
      <trkpt lat="38.975921" lon="-0.180946">
        <ele>18.711</ele>
        <time>2019-06-15T11:54:43Z</time>
      </trkpt>
      <trkpt lat="38.975891" lon="-0.181003">
        <ele>18.134</ele>
        <time>2019-06-15T11:54:44Z</time>
      </trkpt>
      <trkpt lat="38.975939" lon="-0.181087">
        <ele>17.666</ele>
        <time>2019-06-15T11:54:45Z</time>
      </trkpt>
      <trkpt lat="38.975942" lon="-0.181167">
        <ele>17.253</ele>
        <time>2019-06-15T11:54:46Z</time>
      </trkpt>
      <trkpt lat="38.975939" lon="-0.181308">
        <ele>16.842</ele>
        <time>2019-06-15T11:54:48Z</time>
      </trkpt>
      <trkpt lat="38.975961" lon="-0.181442">
        <ele>16.827</ele>
        <time>2019-06-15T11:54:50Z</time>
      </trkpt>
      <trkpt lat="38.975972" lon="-0.181550">
        <ele>17.472</ele>
        <time>2019-06-15T11:54:52Z</time>
      </trkpt>
      <trkpt lat="38.975982" lon="-0.181628">
        <ele>17.713</ele>
        <time>2019-06-15T11:54:53Z</time>
      </trkpt>
      <trkpt lat="38.975983" lon="-0.181739">
        <ele>18.314</ele>
        <time>2019-06-15T11:54:55Z</time>
      </trkpt>
      <trkpt lat="38.975985" lon="-0.181804">
        <ele>18.608</ele>
        <time>2019-06-15T11:54:56Z</time>
      </trkpt>
      <trkpt lat="38.976008" lon="-0.181874">
        <ele>18.830</ele>
        <time>2019-06-15T11:54:57Z</time>
      </trkpt>
      <trkpt lat="38.976028" lon="-0.181933">
        <ele>18.874</ele>
        <time>2019-06-15T11:54:58Z</time>
      </trkpt>
      <trkpt lat="38.976069" lon="-0.181999">
        <ele>18.333</ele>
        <time>2019-06-15T11:54:59Z</time>
      </trkpt>
      <trkpt lat="38.976092" lon="-0.182050">
        <ele>17.956</ele>
        <time>2019-06-15T11:55:00Z</time>
      </trkpt>
      <trkpt lat="38.976099" lon="-0.182117">
        <ele>17.598</ele>
        <time>2019-06-15T11:55:01Z</time>
      </trkpt>
      <trkpt lat="38.976098" lon="-0.182211">
        <ele>17.245</ele>
        <time>2019-06-15T11:55:03Z</time>
      </trkpt>
      <trkpt lat="38.976128" lon="-0.182325">
        <ele>15.874</ele>
        <time>2019-06-15T11:55:05Z</time>
      </trkpt>
      <trkpt lat="38.976160" lon="-0.182403">
        <ele>14.819</ele>
        <time>2019-06-15T11:55:07Z</time>
      </trkpt>
      <trkpt lat="38.976222" lon="-0.182458">
        <ele>14.082</ele>
        <time>2019-06-15T11:55:08Z</time>
      </trkpt>
      <trkpt lat="38.976264" lon="-0.182480">
        <ele>13.643</ele>
        <time>2019-06-15T11:55:09Z</time>
      </trkpt>
      <trkpt lat="38.976322" lon="-0.182553">
        <ele>13.117</ele>
        <time>2019-06-15T11:55:11Z</time>
      </trkpt>
      <trkpt lat="38.976369" lon="-0.182660">
        <ele>12.908</ele>
        <time>2019-06-15T11:55:13Z</time>
      </trkpt>
      <trkpt lat="38.976396" lon="-0.182714">
        <ele>13.121</ele>
        <time>2019-06-15T11:55:14Z</time>
      </trkpt>
      <trkpt lat="38.976393" lon="-0.182789">
        <ele>13.235</ele>
        <time>2019-06-15T11:55:15Z</time>
      </trkpt>
      <trkpt lat="38.976402" lon="-0.182863">
        <ele>14.014</ele>
        <time>2019-06-15T11:55:16Z</time>
      </trkpt>
      <trkpt lat="38.976396" lon="-0.182988">
        <ele>15.367</ele>
        <time>2019-06-15T11:55:18Z</time>
      </trkpt>
      <trkpt lat="38.976406" lon="-0.183062">
        <ele>16.249</ele>
        <time>2019-06-15T11:55:19Z</time>
      </trkpt>
      <trkpt lat="38.976376" lon="-0.183115">
        <ele>16.916</ele>
        <time>2019-06-15T11:55:20Z</time>
      </trkpt>
      <trkpt lat="38.976326" lon="-0.183171">
        <ele>17.435</ele>
        <time>2019-06-15T11:55:21Z</time>
      </trkpt>
      <trkpt lat="38.976299" lon="-0.183225">
        <ele>18.120</ele>
        <time>2019-06-15T11:55:22Z</time>
      </trkpt>
      <trkpt lat="38.976219" lon="-0.183278">
        <ele>18.269</ele>
        <time>2019-06-15T11:55:24Z</time>
      </trkpt>
      <trkpt lat="38.976161" lon="-0.183293">
        <ele>17.804</ele>
        <time>2019-06-15T11:55:25Z</time>
      </trkpt>
      <trkpt lat="38.976102" lon="-0.183303">
        <ele>17.624</ele>
        <time>2019-06-15T11:55:26Z</time>
      </trkpt>
      <trkpt lat="38.976052" lon="-0.183323">
        <ele>18.908</ele>
        <time>2019-06-15T11:55:27Z</time>
      </trkpt>
      <trkpt lat="38.976000" lon="-0.183327">
        <ele>19.919</ele>
        <time>2019-06-15T11:55:28Z</time>
      </trkpt>
      <trkpt lat="38.975915" lon="-0.183369">
        <ele>22.013</ele>
        <time>2019-06-15T11:55:30Z</time>
      </trkpt>
      <trkpt lat="38.975837" lon="-0.183379">
        <ele>23.422</ele>
        <time>2019-06-15T11:55:31Z</time>
      </trkpt>
      <trkpt lat="38.975767" lon="-0.183382">
        <ele>25.725</ele>
        <time>2019-06-15T11:55:32Z</time>
      </trkpt>
      <trkpt lat="38.975720" lon="-0.183384">
        <ele>27.317</ele>
        <time>2019-06-15T11:55:33Z</time>
      </trkpt>
      <trkpt lat="38.975668" lon="-0.183379">
        <ele>29.154</ele>
        <time>2019-06-15T11:55:34Z</time>
      </trkpt>
      <trkpt lat="38.975599" lon="-0.183383">
        <ele>31.423</ele>
        <time>2019-06-15T11:55:35Z</time>
      </trkpt>
      <trkpt lat="38.975515" lon="-0.183410">
        <ele>32.868</ele>
        <time>2019-06-15T11:55:37Z</time>
      </trkpt>
      <trkpt lat="38.975467" lon="-0.183416">
        <ele>32.889</ele>
        <time>2019-06-15T11:55:38Z</time>
      </trkpt>
      <trkpt lat="38.975417" lon="-0.183434">
        <ele>32.806</ele>
        <time>2019-06-15T11:55:39Z</time>
      </trkpt>
      <trkpt lat="38.975375" lon="-0.183466">
        <ele>32.626</ele>
        <time>2019-06-15T11:55:40Z</time>
      </trkpt>
      <trkpt lat="38.975322" lon="-0.183485">
        <ele>32.408</ele>
        <time>2019-06-15T11:55:41Z</time>
      </trkpt>
      <trkpt lat="38.975274" lon="-0.183497">
        <ele>32.261</ele>
        <time>2019-06-15T11:55:42Z</time>
      </trkpt>
      <trkpt lat="38.975226" lon="-0.183507">
        <ele>31.525</ele>
        <time>2019-06-15T11:55:43Z</time>
      </trkpt>
      <trkpt lat="38.975165" lon="-0.183492">
        <ele>30.914</ele>
        <time>2019-06-15T11:55:45Z</time>
      </trkpt>
      <trkpt lat="38.975114" lon="-0.183531">
        <ele>29.997</ele>
        <time>2019-06-15T11:55:46Z</time>
      </trkpt>
      <trkpt lat="38.975045" lon="-0.183498">
        <ele>29.439</ele>
        <time>2019-06-15T11:55:47Z</time>
      </trkpt>
      <trkpt lat="38.975013" lon="-0.183560">
        <ele>28.546</ele>
        <time>2019-06-15T11:55:48Z</time>
      </trkpt>
      <trkpt lat="38.974957" lon="-0.183610">
        <ele>28.955</ele>
        <time>2019-06-15T11:55:49Z</time>
      </trkpt>
      <trkpt lat="38.974912" lon="-0.183604">
        <ele>30.040</ele>
        <time>2019-06-15T11:55:50Z</time>
      </trkpt>
      <trkpt lat="38.974880" lon="-0.183663">
        <ele>30.259</ele>
        <time>2019-06-15T11:55:51Z</time>
      </trkpt>
      <trkpt lat="38.974831" lon="-0.183693">
        <ele>31.103</ele>
        <time>2019-06-15T11:55:52Z</time>
      </trkpt>
      <trkpt lat="38.974759" lon="-0.183714">
        <ele>32.723</ele>
        <time>2019-06-15T11:55:54Z</time>
      </trkpt>
      <trkpt lat="38.974713" lon="-0.183741">
        <ele>33.608</ele>
        <time>2019-06-15T11:55:55Z</time>
      </trkpt>
      <trkpt lat="38.974664" lon="-0.183754">
        <ele>34.268</ele>
        <time>2019-06-15T11:55:56Z</time>
      </trkpt>
      <trkpt lat="38.974612" lon="-0.183761">
        <ele>34.882</ele>
        <time>2019-06-15T11:55:57Z</time>
      </trkpt>
      <trkpt lat="38.974558" lon="-0.183794">
        <ele>35.331</ele>
        <time>2019-06-15T11:56:00Z</time>
      </trkpt>
      <trkpt lat="38.974516" lon="-0.183851">
        <ele>35.514</ele>
        <time>2019-06-15T11:56:02Z</time>
      </trkpt>
      <trkpt lat="38.974490" lon="-0.183912">
        <ele>35.266</ele>
        <time>2019-06-15T11:56:09Z</time>
      </trkpt>
      <trkpt lat="38.974473" lon="-0.183856">
        <ele>35.953</ele>
        <time>2019-06-15T11:56:13Z</time>
      </trkpt>
      <trkpt lat="38.974352" lon="-0.183752">
        <ele>36.242</ele>
        <time>2019-06-15T11:57:19Z</time>
      </trkpt>
      <trkpt lat="38.974388" lon="-0.183829">
        <ele>36.047</ele>
        <time>2019-06-15T12:18:01Z</time>
      </trkpt>
      <trkpt lat="38.974441" lon="-0.183917">
        <ele>35.617</ele>
        <time>2019-06-15T12:18:04Z</time>
      </trkpt>
      <trkpt lat="38.974483" lon="-0.183963">
        <ele>34.687</ele>
        <time>2019-06-15T12:18:05Z</time>
      </trkpt>
      <trkpt lat="38.974547" lon="-0.184024">
        <ele>33.315</ele>
        <time>2019-06-15T12:18:07Z</time>
      </trkpt>
      <trkpt lat="38.974588" lon="-0.184053">
        <ele>32.708</ele>
        <time>2019-06-15T12:18:08Z</time>
      </trkpt>
      <trkpt lat="38.974548" lon="-0.184085">
        <ele>32.644</ele>
        <time>2019-06-15T12:18:14Z</time>
      </trkpt>
      <trkpt lat="38.974345" lon="-0.183738">
        <ele>36.288</ele>
        <time>2019-06-15T12:18:27Z</time>
      </trkpt>
      <trkpt lat="38.974299" lon="-0.183728">
        <ele>35.837</ele>
        <time>2019-06-15T12:18:52Z</time>
      </trkpt>
      <trkpt lat="38.974275" lon="-0.183661">
        <ele>35.910</ele>
        <time>2019-06-15T12:19:03Z</time>
      </trkpt>
      <trkpt lat="38.974275" lon="-0.183569">
        <ele>36.262</ele>
        <time>2019-06-15T12:19:06Z</time>
      </trkpt>
      <trkpt lat="38.974301" lon="-0.183512">
        <ele>36.529</ele>
        <time>2019-06-15T12:19:08Z</time>
      </trkpt>
      <trkpt lat="38.974360" lon="-0.183511">
        <ele>37.158</ele>
        <time>2019-06-15T12:19:12Z</time>
      </trkpt>
      <trkpt lat="38.974327" lon="-0.183654">
        <ele>36.513</ele>
        <time>2019-06-15T12:19:39Z</time>
      </trkpt>
      <trkpt lat="38.974328" lon="-0.183792">
        <ele>35.736</ele>
        <time>2019-06-15T12:19:40Z</time>
      </trkpt>
      <trkpt lat="38.974366" lon="-0.184006">
        <ele>33.617</ele>
        <time>2019-06-15T12:19:41Z</time>
      </trkpt>
      <trkpt lat="38.974315" lon="-0.183953">
        <ele>34.018</ele>
        <time>2019-06-15T12:19:43Z</time>
      </trkpt>
      <trkpt lat="38.974330" lon="-0.183889">
        <ele>35.208</ele>
        <time>2019-06-15T12:19:46Z</time>
      </trkpt>
      <trkpt lat="38.974326" lon="-0.183792">
        <ele>35.736</ele>
        <time>2019-06-15T12:20:19Z</time>
      </trkpt>
      <trkpt lat="38.974293" lon="-0.183624">
        <ele>36.340</ele>
        <time>2019-06-15T12:20:20Z</time>
      </trkpt>
      <trkpt lat="38.974278" lon="-0.183511">
        <ele>36.299</ele>
        <time>2019-06-15T12:20:21Z</time>
      </trkpt>
      <trkpt lat="38.974253" lon="-0.183425">
        <ele>35.912</ele>
        <time>2019-06-15T12:20:23Z</time>
      </trkpt>
      <trkpt lat="38.974246" lon="-0.183344">
        <ele>35.924</ele>
        <time>2019-06-15T12:20:25Z</time>
      </trkpt>
      <trkpt lat="38.974239" lon="-0.183259">
        <ele>35.591</ele>
        <time>2019-06-15T12:20:27Z</time>
      </trkpt>
      <trkpt lat="38.974242" lon="-0.183148">
        <ele>35.150</ele>
        <time>2019-06-15T12:20:29Z</time>
      </trkpt>
      <trkpt lat="38.974240" lon="-0.183040">
        <ele>34.755</ele>
        <time>2019-06-15T12:20:31Z</time>
      </trkpt>
      <trkpt lat="38.974228" lon="-0.182953">
        <ele>34.433</ele>
        <time>2019-06-15T12:20:33Z</time>
      </trkpt>
      <trkpt lat="38.974197" lon="-0.182883">
        <ele>34.123</ele>
        <time>2019-06-15T12:20:35Z</time>
      </trkpt>
      <trkpt lat="38.974151" lon="-0.182838">
        <ele>33.815</ele>
        <time>2019-06-15T12:20:37Z</time>
      </trkpt>
      <trkpt lat="38.974099" lon="-0.182816">
        <ele>33.308</ele>
        <time>2019-06-15T12:20:39Z</time>
      </trkpt>
      <trkpt lat="38.974045" lon="-0.182801">
        <ele>32.736</ele>
        <time>2019-06-15T12:20:41Z</time>
      </trkpt>
      <trkpt lat="38.973980" lon="-0.182782">
        <ele>32.040</ele>
        <time>2019-06-15T12:20:43Z</time>
      </trkpt>
      <trkpt lat="38.973930" lon="-0.182769">
        <ele>31.419</ele>
        <time>2019-06-15T12:20:44Z</time>
      </trkpt>
      <trkpt lat="38.973850" lon="-0.182753">
        <ele>30.222</ele>
        <time>2019-06-15T12:20:46Z</time>
      </trkpt>
      <trkpt lat="38.973684" lon="-0.182735">
        <ele>27.784</ele>
        <time>2019-06-15T12:20:48Z</time>
      </trkpt>
      <trkpt lat="38.973603" lon="-0.182734">
        <ele>26.781</ele>
        <time>2019-06-15T12:20:50Z</time>
      </trkpt>
      <trkpt lat="38.973526" lon="-0.182746">
        <ele>26.830</ele>
        <time>2019-06-15T12:20:52Z</time>
      </trkpt>
      <trkpt lat="38.973445" lon="-0.182762">
        <ele>26.975</ele>
        <time>2019-06-15T12:20:54Z</time>
      </trkpt>
      <trkpt lat="38.973374" lon="-0.182784">
        <ele>27.137</ele>
        <time>2019-06-15T12:20:57Z</time>
      </trkpt>
      <trkpt lat="38.973322" lon="-0.182801">
        <ele>27.249</ele>
        <time>2019-06-15T12:20:59Z</time>
      </trkpt>
      <trkpt lat="38.973232" lon="-0.182835">
        <ele>26.913</ele>
        <time>2019-06-15T12:21:00Z</time>
      </trkpt>
      <trkpt lat="38.973161" lon="-0.182871">
        <ele>26.808</ele>
        <time>2019-06-15T12:21:02Z</time>
      </trkpt>
      <trkpt lat="38.973094" lon="-0.182915">
        <ele>26.866</ele>
        <time>2019-06-15T12:21:04Z</time>
      </trkpt>
      <trkpt lat="38.973030" lon="-0.182969">
        <ele>27.030</ele>
        <time>2019-06-15T12:21:06Z</time>
      </trkpt>
      <trkpt lat="38.972962" lon="-0.183018">
        <ele>27.189</ele>
        <time>2019-06-15T12:21:08Z</time>
      </trkpt>
      <trkpt lat="38.972889" lon="-0.183082">
        <ele>26.952</ele>
        <time>2019-06-15T12:21:10Z</time>
      </trkpt>
      <trkpt lat="38.972845" lon="-0.183099">
        <ele>26.794</ele>
        <time>2019-06-15T12:21:11Z</time>
      </trkpt>
      <trkpt lat="38.972783" lon="-0.183150">
        <ele>26.451</ele>
        <time>2019-06-15T12:21:13Z</time>
      </trkpt>
      <trkpt lat="38.972721" lon="-0.183235">
        <ele>26.810</ele>
        <time>2019-06-15T12:21:15Z</time>
      </trkpt>
      <trkpt lat="38.972646" lon="-0.183277">
        <ele>27.025</ele>
        <time>2019-06-15T12:21:17Z</time>
      </trkpt>
      <trkpt lat="38.972555" lon="-0.183296">
        <ele>27.136</ele>
        <time>2019-06-15T12:21:19Z</time>
      </trkpt>
      <trkpt lat="38.972472" lon="-0.183266">
        <ele>27.417</ele>
        <time>2019-06-15T12:21:20Z</time>
      </trkpt>
      <trkpt lat="38.972428" lon="-0.183280">
        <ele>27.618</ele>
        <time>2019-06-15T12:21:21Z</time>
      </trkpt>
      <trkpt lat="38.972375" lon="-0.183283">
        <ele>27.808</ele>
        <time>2019-06-15T12:21:22Z</time>
      </trkpt>
      <trkpt lat="38.972308" lon="-0.183304">
        <ele>28.336</ele>
        <time>2019-06-15T12:21:24Z</time>
      </trkpt>
      <trkpt lat="38.972206" lon="-0.183336">
        <ele>29.070</ele>
        <time>2019-06-15T12:21:26Z</time>
      </trkpt>
      <trkpt lat="38.972149" lon="-0.183325">
        <ele>28.749</ele>
        <time>2019-06-15T12:21:28Z</time>
      </trkpt>
      <trkpt lat="38.972108" lon="-0.183350">
        <ele>28.712</ele>
        <time>2019-06-15T12:21:30Z</time>
      </trkpt>
      <trkpt lat="38.972064" lon="-0.183325">
        <ele>28.464</ele>
        <time>2019-06-15T12:21:34Z</time>
      </trkpt>
      <trkpt lat="38.972004" lon="-0.183333">
        <ele>28.261</ele>
        <time>2019-06-15T12:21:37Z</time>
      </trkpt>
      <trkpt lat="38.971942" lon="-0.183336">
        <ele>28.070</ele>
        <time>2019-06-15T12:21:40Z</time>
      </trkpt>
      <trkpt lat="38.971894" lon="-0.183356">
        <ele>28.795</ele>
        <time>2019-06-15T12:21:43Z</time>
      </trkpt>
      <trkpt lat="38.971823" lon="-0.183375">
        <ele>29.585</ele>
        <time>2019-06-15T12:21:46Z</time>
      </trkpt>
      <trkpt lat="38.971769" lon="-0.183402">
        <ele>30.289</ele>
        <time>2019-06-15T12:21:48Z</time>
      </trkpt>
      <trkpt lat="38.971722" lon="-0.183420">
        <ele>30.817</ele>
        <time>2019-06-15T12:21:50Z</time>
      </trkpt>
      <trkpt lat="38.971663" lon="-0.183438">
        <ele>31.408</ele>
        <time>2019-06-15T12:21:52Z</time>
      </trkpt>
      <trkpt lat="38.971516" lon="-0.183478">
        <ele>30.761</ele>
        <time>2019-06-15T12:21:54Z</time>
      </trkpt>
      <trkpt lat="38.971467" lon="-0.183488">
        <ele>30.515</ele>
        <time>2019-06-15T12:21:55Z</time>
      </trkpt>
      <trkpt lat="38.971418" lon="-0.183493">
        <ele>30.384</ele>
        <time>2019-06-15T12:21:56Z</time>
      </trkpt>
      <trkpt lat="38.971370" lon="-0.183497">
        <ele>30.127</ele>
        <time>2019-06-15T12:21:57Z</time>
      </trkpt>
      <trkpt lat="38.971306" lon="-0.183494">
        <ele>30.069</ele>
        <time>2019-06-15T12:22:00Z</time>
      </trkpt>
      <trkpt lat="38.971255" lon="-0.183491">
        <ele>29.996</ele>
        <time>2019-06-15T12:22:04Z</time>
      </trkpt>
      <trkpt lat="38.971207" lon="-0.183523">
        <ele>30.265</ele>
        <time>2019-06-15T12:22:15Z</time>
      </trkpt>
      <trkpt lat="38.971132" lon="-0.183510">
        <ele>29.910</ele>
        <time>2019-06-15T12:22:38Z</time>
      </trkpt>
      <trkpt lat="38.971010" lon="-0.183515">
        <ele>29.762</ele>
        <time>2019-06-15T12:22:41Z</time>
      </trkpt>
      <trkpt lat="38.970962" lon="-0.183533">
        <ele>29.883</ele>
        <time>2019-06-15T12:22:42Z</time>
      </trkpt>
      <trkpt lat="38.970906" lon="-0.183561">
        <ele>29.911</ele>
        <time>2019-06-15T12:22:43Z</time>
      </trkpt>
      <trkpt lat="38.970795" lon="-0.183612">
        <ele>30.008</ele>
        <time>2019-06-15T12:22:44Z</time>
      </trkpt>
      <trkpt lat="38.970727" lon="-0.183637">
        <ele>30.239</ele>
        <time>2019-06-15T12:22:46Z</time>
      </trkpt>
      <trkpt lat="38.970648" lon="-0.183701">
        <ele>30.493</ele>
        <time>2019-06-15T12:22:48Z</time>
      </trkpt>
      <trkpt lat="38.970603" lon="-0.183708">
        <ele>30.432</ele>
        <time>2019-06-15T12:22:49Z</time>
      </trkpt>
      <trkpt lat="38.970551" lon="-0.183741">
        <ele>30.515</ele>
        <time>2019-06-15T12:22:50Z</time>
      </trkpt>
      <trkpt lat="38.970490" lon="-0.183781">
        <ele>30.667</ele>
        <time>2019-06-15T12:22:51Z</time>
      </trkpt>
      <trkpt lat="38.970420" lon="-0.183783">
        <ele>30.694</ele>
        <time>2019-06-15T12:22:52Z</time>
      </trkpt>
      <trkpt lat="38.970370" lon="-0.183785">
        <ele>30.613</ele>
        <time>2019-06-15T12:22:53Z</time>
      </trkpt>
      <trkpt lat="38.970305" lon="-0.183802">
        <ele>30.778</ele>
        <time>2019-06-15T12:22:54Z</time>
      </trkpt>
      <trkpt lat="38.970257" lon="-0.183800">
        <ele>30.667</ele>
        <time>2019-06-15T12:22:55Z</time>
      </trkpt>
      <trkpt lat="38.970170" lon="-0.183863">
        <ele>30.581</ele>
        <time>2019-06-15T12:22:57Z</time>
      </trkpt>
      <trkpt lat="38.970107" lon="-0.183939">
        <ele>30.719</ele>
        <time>2019-06-15T12:22:59Z</time>
      </trkpt>
      <trkpt lat="38.970049" lon="-0.183952">
        <ele>30.608</ele>
        <time>2019-06-15T12:23:02Z</time>
      </trkpt>
      <trkpt lat="38.969991" lon="-0.183966">
        <ele>30.559</ele>
        <time>2019-06-15T12:23:13Z</time>
      </trkpt>
      <trkpt lat="38.969934" lon="-0.183935">
        <ele>29.953</ele>
        <time>2019-06-15T12:23:15Z</time>
      </trkpt>
      <trkpt lat="38.969889" lon="-0.183913">
        <ele>29.432</ele>
        <time>2019-06-15T12:23:17Z</time>
      </trkpt>
      <trkpt lat="38.969838" lon="-0.183910">
        <ele>29.095</ele>
        <time>2019-06-15T12:23:19Z</time>
      </trkpt>
      <trkpt lat="38.969775" lon="-0.183919">
        <ele>28.737</ele>
        <time>2019-06-15T12:23:22Z</time>
      </trkpt>
      <trkpt lat="38.969720" lon="-0.183937">
        <ele>28.524</ele>
        <time>2019-06-15T12:23:24Z</time>
      </trkpt>
      <trkpt lat="38.969651" lon="-0.183959">
        <ele>28.493</ele>
        <time>2019-06-15T12:23:26Z</time>
      </trkpt>
      <trkpt lat="38.969528" lon="-0.184008">
        <ele>28.328</ele>
        <time>2019-06-15T12:23:27Z</time>
      </trkpt>
      <trkpt lat="38.969476" lon="-0.184027">
        <ele>28.292</ele>
        <time>2019-06-15T12:23:28Z</time>
      </trkpt>
      <trkpt lat="38.969419" lon="-0.184051">
        <ele>28.073</ele>
        <time>2019-06-15T12:23:29Z</time>
      </trkpt>
      <trkpt lat="38.969290" lon="-0.184047">
        <ele>27.320</ele>
        <time>2019-06-15T12:23:30Z</time>
      </trkpt>
      <trkpt lat="38.969287" lon="-0.184129">
        <ele>28.108</ele>
        <time>2019-06-15T12:23:33Z</time>
      </trkpt>
      <trkpt lat="38.969216" lon="-0.184238">
        <ele>28.922</ele>
        <time>2019-06-15T12:23:34Z</time>
      </trkpt>
      <trkpt lat="38.969267" lon="-0.184237">
        <ele>29.176</ele>
        <time>2019-06-15T12:23:36Z</time>
      </trkpt>
      <trkpt lat="38.969217" lon="-0.184277">
        <ele>29.495</ele>
        <time>2019-06-15T12:23:54Z</time>
      </trkpt>
      <trkpt lat="38.969145" lon="-0.184295">
        <ele>29.318</ele>
        <time>2019-06-15T12:23:57Z</time>
      </trkpt>
      <trkpt lat="38.969089" lon="-0.184325">
        <ele>29.490</ele>
        <time>2019-06-15T12:23:59Z</time>
      </trkpt>
      <trkpt lat="38.969043" lon="-0.184358">
        <ele>29.647</ele>
        <time>2019-06-15T12:24:01Z</time>
      </trkpt>
      <trkpt lat="38.968912" lon="-0.184424">
        <ele>29.976</ele>
        <time>2019-06-15T12:24:03Z</time>
      </trkpt>
      <trkpt lat="38.968854" lon="-0.184439">
        <ele>30.111</ele>
        <time>2019-06-15T12:24:04Z</time>
      </trkpt>
      <trkpt lat="38.968745" lon="-0.184434">
        <ele>30.439</ele>
        <time>2019-06-15T12:24:05Z</time>
      </trkpt>
      <trkpt lat="38.968687" lon="-0.184440">
        <ele>30.701</ele>
        <time>2019-06-15T12:24:06Z</time>
      </trkpt>
      <trkpt lat="38.968620" lon="-0.184463">
        <ele>31.121</ele>
        <time>2019-06-15T12:24:07Z</time>
      </trkpt>
      <trkpt lat="38.968587" lon="-0.184504">
        <ele>31.508</ele>
        <time>2019-06-15T12:24:08Z</time>
      </trkpt>
      <trkpt lat="38.968528" lon="-0.184536">
        <ele>31.976</ele>
        <time>2019-06-15T12:24:09Z</time>
      </trkpt>
      <trkpt lat="38.968453" lon="-0.184575">
        <ele>32.560</ele>
        <time>2019-06-15T12:24:10Z</time>
      </trkpt>
      <trkpt lat="38.968380" lon="-0.184603">
        <ele>33.149</ele>
        <time>2019-06-15T12:24:11Z</time>
      </trkpt>
      <trkpt lat="38.968317" lon="-0.184587">
        <ele>33.232</ele>
        <time>2019-06-15T12:24:12Z</time>
      </trkpt>
      <trkpt lat="38.968227" lon="-0.184600">
        <ele>34.044</ele>
        <time>2019-06-15T12:24:13Z</time>
      </trkpt>
      <trkpt lat="38.968150" lon="-0.184608">
        <ele>34.721</ele>
        <time>2019-06-15T12:24:14Z</time>
      </trkpt>
      <trkpt lat="38.968091" lon="-0.184608">
        <ele>35.110</ele>
        <time>2019-06-15T12:24:15Z</time>
      </trkpt>
      <trkpt lat="38.968049" lon="-0.184642">
        <ele>35.845</ele>
        <time>2019-06-15T12:24:16Z</time>
      </trkpt>
      <trkpt lat="38.967994" lon="-0.184678">
        <ele>35.938</ele>
        <time>2019-06-15T12:24:17Z</time>
      </trkpt>
      <trkpt lat="38.967947" lon="-0.184674">
        <ele>35.570</ele>
        <time>2019-06-15T12:24:18Z</time>
      </trkpt>
      <trkpt lat="38.967900" lon="-0.184649">
        <ele>34.817</ele>
        <time>2019-06-15T12:24:21Z</time>
      </trkpt>
      <trkpt lat="38.967832" lon="-0.184646">
        <ele>34.308</ele>
        <time>2019-06-15T12:24:24Z</time>
      </trkpt>
      <trkpt lat="38.967764" lon="-0.184659">
        <ele>33.836</ele>
        <time>2019-06-15T12:24:26Z</time>
      </trkpt>
      <trkpt lat="38.967701" lon="-0.184651">
        <ele>32.580</ele>
        <time>2019-06-15T12:24:28Z</time>
      </trkpt>
      <trkpt lat="38.967658" lon="-0.184629">
        <ele>31.599</ele>
        <time>2019-06-15T12:24:30Z</time>
      </trkpt>
      <trkpt lat="38.967625" lon="-0.184584">
        <ele>30.542</ele>
        <time>2019-06-15T12:24:33Z</time>
      </trkpt>
      <trkpt lat="38.967580" lon="-0.184592">
        <ele>29.994</ele>
        <time>2019-06-15T12:24:37Z</time>
      </trkpt>
      <trkpt lat="38.967527" lon="-0.184594">
        <ele>29.051</ele>
        <time>2019-06-15T12:24:40Z</time>
      </trkpt>
      <trkpt lat="38.967473" lon="-0.184609">
        <ele>28.680</ele>
        <time>2019-06-15T12:24:42Z</time>
      </trkpt>
      <trkpt lat="38.967344" lon="-0.184664">
        <ele>29.125</ele>
        <time>2019-06-15T12:24:44Z</time>
      </trkpt>
      <trkpt lat="38.967260" lon="-0.184714">
        <ele>29.865</ele>
        <time>2019-06-15T12:24:46Z</time>
      </trkpt>
      <trkpt lat="38.967182" lon="-0.184770">
        <ele>30.868</ele>
        <time>2019-06-15T12:24:47Z</time>
      </trkpt>
      <trkpt lat="38.967119" lon="-0.184816">
        <ele>31.714</ele>
        <time>2019-06-15T12:24:48Z</time>
      </trkpt>
      <trkpt lat="38.967061" lon="-0.184822">
        <ele>32.008</ele>
        <time>2019-06-15T12:24:49Z</time>
      </trkpt>
      <trkpt lat="38.967003" lon="-0.184847">
        <ele>32.629</ele>
        <time>2019-06-15T12:24:50Z</time>
      </trkpt>
      <trkpt lat="38.966927" lon="-0.184887">
        <ele>33.263</ele>
        <time>2019-06-15T12:24:51Z</time>
      </trkpt>
      <trkpt lat="38.966882" lon="-0.184870">
        <ele>32.582</ele>
        <time>2019-06-15T12:24:52Z</time>
      </trkpt>
      <trkpt lat="38.966794" lon="-0.184887">
        <ele>31.915</ele>
        <time>2019-06-15T12:24:53Z</time>
      </trkpt>
      <trkpt lat="38.966733" lon="-0.184912">
        <ele>31.437</ele>
        <time>2019-06-15T12:24:54Z</time>
      </trkpt>
      <trkpt lat="38.966661" lon="-0.184946">
        <ele>30.974</ele>
        <time>2019-06-15T12:24:55Z</time>
      </trkpt>
      <trkpt lat="38.966616" lon="-0.184928">
        <ele>31.213</ele>
        <time>2019-06-15T12:24:57Z</time>
      </trkpt>
      <trkpt lat="38.966571" lon="-0.184867">
        <ele>31.228</ele>
        <time>2019-06-15T12:24:59Z</time>
      </trkpt>
      <trkpt lat="38.966527" lon="-0.184817">
        <ele>31.252</ele>
        <time>2019-06-15T12:25:01Z</time>
      </trkpt>
      <trkpt lat="38.966497" lon="-0.184756">
        <ele>30.953</ele>
        <time>2019-06-15T12:25:09Z</time>
      </trkpt>
      <trkpt lat="38.966422" lon="-0.184709">
        <ele>30.808</ele>
        <time>2019-06-15T12:25:10Z</time>
      </trkpt>
      <trkpt lat="38.966315" lon="-0.184994">
        <ele>34.508</ele>
        <time>2019-06-15T12:25:11Z</time>
      </trkpt>
      <trkpt lat="38.966265" lon="-0.184931">
        <ele>34.498</ele>
        <time>2019-06-15T12:25:12Z</time>
      </trkpt>
      <trkpt lat="38.966223" lon="-0.185003">
        <ele>35.232</ele>
        <time>2019-06-15T12:25:14Z</time>
      </trkpt>
      <trkpt lat="38.966178" lon="-0.184982">
        <ele>35.471</ele>
        <time>2019-06-15T12:25:16Z</time>
      </trkpt>
      <trkpt lat="38.966130" lon="-0.185016">
        <ele>36.074</ele>
        <time>2019-06-15T12:25:19Z</time>
      </trkpt>
      <trkpt lat="38.966087" lon="-0.185050">
        <ele>36.086</ele>
        <time>2019-06-15T12:25:23Z</time>
      </trkpt>
      <trkpt lat="38.966054" lon="-0.185094">
        <ele>35.993</ele>
        <time>2019-06-15T12:25:31Z</time>
      </trkpt>
      <trkpt lat="38.966059" lon="-0.185154">
        <ele>36.422</ele>
        <time>2019-06-15T12:25:36Z</time>
      </trkpt>
      <trkpt lat="38.965994" lon="-0.185156">
        <ele>35.437</ele>
        <time>2019-06-15T12:26:09Z</time>
      </trkpt>
      <trkpt lat="38.965856" lon="-0.185179">
        <ele>33.697</ele>
        <time>2019-06-15T12:26:10Z</time>
      </trkpt>
      <trkpt lat="38.965798" lon="-0.185190">
        <ele>33.223</ele>
        <time>2019-06-15T12:26:11Z</time>
      </trkpt>
      <trkpt lat="38.965674" lon="-0.185202">
        <ele>32.525</ele>
        <time>2019-06-15T12:26:13Z</time>
      </trkpt>
      <trkpt lat="38.965611" lon="-0.185216">
        <ele>32.108</ele>
        <time>2019-06-15T12:26:14Z</time>
      </trkpt>
      <trkpt lat="38.965535" lon="-0.185236">
        <ele>31.952</ele>
        <time>2019-06-15T12:26:15Z</time>
      </trkpt>
      <trkpt lat="38.965469" lon="-0.185221">
        <ele>31.826</ele>
        <time>2019-06-15T12:26:16Z</time>
      </trkpt>
      <trkpt lat="38.965385" lon="-0.185216">
        <ele>31.825</ele>
        <time>2019-06-15T12:26:17Z</time>
      </trkpt>
      <trkpt lat="38.965296" lon="-0.185211">
        <ele>31.838</ele>
        <time>2019-06-15T12:26:18Z</time>
      </trkpt>
      <trkpt lat="38.965215" lon="-0.185229">
        <ele>30.750</ele>
        <time>2019-06-15T12:26:20Z</time>
      </trkpt>
      <trkpt lat="38.965149" lon="-0.185227">
        <ele>29.687</ele>
        <time>2019-06-15T12:26:21Z</time>
      </trkpt>
      <trkpt lat="38.965110" lon="-0.185270">
        <ele>29.086</ele>
        <time>2019-06-15T12:26:23Z</time>
      </trkpt>
      <trkpt lat="38.965064" lon="-0.185305">
        <ele>28.321</ele>
        <time>2019-06-15T12:26:24Z</time>
      </trkpt>
      <trkpt lat="38.965004" lon="-0.185329">
        <ele>27.492</ele>
        <time>2019-06-15T12:26:27Z</time>
      </trkpt>
      <trkpt lat="38.964881" lon="-0.185390">
        <ele>27.473</ele>
        <time>2019-06-15T12:26:28Z</time>
      </trkpt>
      <trkpt lat="38.964822" lon="-0.185387">
        <ele>27.120</ele>
        <time>2019-06-15T12:26:29Z</time>
      </trkpt>
      <trkpt lat="38.964732" lon="-0.185424">
        <ele>27.108</ele>
        <time>2019-06-15T12:26:31Z</time>
      </trkpt>
      <trkpt lat="38.964665" lon="-0.185454">
        <ele>29.862</ele>
        <time>2019-06-15T12:26:32Z</time>
      </trkpt>
      <trkpt lat="38.964557" lon="-0.185511">
        <ele>35.546</ele>
        <time>2019-06-15T12:26:33Z</time>
      </trkpt>
      <trkpt lat="38.964426" lon="-0.185514">
        <ele>41.255</ele>
        <time>2019-06-15T12:26:34Z</time>
      </trkpt>
      <trkpt lat="38.964367" lon="-0.185525">
        <ele>42.428</ele>
        <time>2019-06-15T12:26:35Z</time>
      </trkpt>
      <trkpt lat="38.964318" lon="-0.185568">
        <ele>43.730</ele>
        <time>2019-06-15T12:26:36Z</time>
      </trkpt>
      <trkpt lat="38.964270" lon="-0.185593">
        <ele>44.117</ele>
        <time>2019-06-15T12:26:37Z</time>
      </trkpt>
      <trkpt lat="38.964148" lon="-0.185576">
        <ele>45.236</ele>
        <time>2019-06-15T12:26:39Z</time>
      </trkpt>
      <trkpt lat="38.964020" lon="-0.185583">
        <ele>41.511</ele>
        <time>2019-06-15T12:26:40Z</time>
      </trkpt>
      <trkpt lat="38.963914" lon="-0.185588">
        <ele>38.576</ele>
        <time>2019-06-15T12:26:41Z</time>
      </trkpt>
      <trkpt lat="38.963859" lon="-0.185583">
        <ele>37.190</ele>
        <time>2019-06-15T12:26:42Z</time>
      </trkpt>
      <trkpt lat="38.963773" lon="-0.185613">
        <ele>34.819</ele>
        <time>2019-06-15T12:26:43Z</time>
      </trkpt>
      <trkpt lat="38.963730" lon="-0.185649">
        <ele>33.508</ele>
        <time>2019-06-15T12:26:44Z</time>
      </trkpt>
      <trkpt lat="38.963672" lon="-0.185694">
        <ele>31.960</ele>
        <time>2019-06-15T12:26:45Z</time>
      </trkpt>
      <trkpt lat="38.963616" lon="-0.185695">
        <ele>30.654</ele>
        <time>2019-06-15T12:26:46Z</time>
      </trkpt>
      <trkpt lat="38.963554" lon="-0.185723">
        <ele>29.723</ele>
        <time>2019-06-15T12:26:47Z</time>
      </trkpt>
      <trkpt lat="38.963492" lon="-0.185741">
        <ele>28.946</ele>
        <time>2019-06-15T12:26:48Z</time>
      </trkpt>
      <trkpt lat="38.963418" lon="-0.185747">
        <ele>28.068</ele>
        <time>2019-06-15T12:26:49Z</time>
      </trkpt>
      <trkpt lat="38.963379" lon="-0.185785">
        <ele>27.575</ele>
        <time>2019-06-15T12:26:50Z</time>
      </trkpt>
      <trkpt lat="38.963304" lon="-0.185795">
        <ele>26.874</ele>
        <time>2019-06-15T12:26:51Z</time>
      </trkpt>
      <trkpt lat="38.963253" lon="-0.185789">
        <ele>26.559</ele>
        <time>2019-06-15T12:26:52Z</time>
      </trkpt>
      <trkpt lat="38.963188" lon="-0.185771">
        <ele>26.123</ele>
        <time>2019-06-15T12:26:53Z</time>
      </trkpt>
      <trkpt lat="38.963115" lon="-0.185813">
        <ele>25.583</ele>
        <time>2019-06-15T12:26:55Z</time>
      </trkpt>
      <trkpt lat="38.963065" lon="-0.185815">
        <ele>25.111</ele>
        <time>2019-06-15T12:26:56Z</time>
      </trkpt>
      <trkpt lat="38.962964" lon="-0.185829">
        <ele>24.708</ele>
        <time>2019-06-15T12:26:58Z</time>
      </trkpt>
      <trkpt lat="38.962911" lon="-0.185841">
        <ele>24.565</ele>
        <time>2019-06-15T12:26:59Z</time>
      </trkpt>
      <trkpt lat="38.962872" lon="-0.185884">
        <ele>24.769</ele>
        <time>2019-06-15T12:27:00Z</time>
      </trkpt>
      <trkpt lat="38.962858" lon="-0.185961">
        <ele>25.268</ele>
        <time>2019-06-15T12:27:01Z</time>
      </trkpt>
      <trkpt lat="38.962762" lon="-0.185914">
        <ele>24.691</ele>
        <time>2019-06-15T12:27:02Z</time>
      </trkpt>
      <trkpt lat="38.962664" lon="-0.185936">
        <ele>25.163</ele>
        <time>2019-06-15T12:27:04Z</time>
      </trkpt>
      <trkpt lat="38.962627" lon="-0.185903">
        <ele>25.060</ele>
        <time>2019-06-15T12:27:05Z</time>
      </trkpt>
      <trkpt lat="38.962576" lon="-0.185899">
        <ele>25.289</ele>
        <time>2019-06-15T12:27:06Z</time>
      </trkpt>
      <trkpt lat="38.962528" lon="-0.185882">
        <ele>25.284</ele>
        <time>2019-06-15T12:27:07Z</time>
      </trkpt>
      <trkpt lat="38.962514" lon="-0.185745">
        <ele>25.617</ele>
        <time>2019-06-15T12:27:08Z</time>
      </trkpt>
      <trkpt lat="38.962419" lon="-0.185763">
        <ele>26.987</ele>
        <time>2019-06-15T12:27:10Z</time>
      </trkpt>
      <trkpt lat="38.962388" lon="-0.185718">
        <ele>27.715</ele>
        <time>2019-06-15T12:27:11Z</time>
      </trkpt>
      <trkpt lat="38.962317" lon="-0.185714">
        <ele>28.908</ele>
        <time>2019-06-15T12:27:13Z</time>
      </trkpt>
      <trkpt lat="38.962267" lon="-0.185696">
        <ele>29.864</ele>
        <time>2019-06-15T12:27:14Z</time>
      </trkpt>
      <trkpt lat="38.962215" lon="-0.185744">
        <ele>30.468</ele>
        <time>2019-06-15T12:27:15Z</time>
      </trkpt>
      <trkpt lat="38.962128" lon="-0.185788">
        <ele>30.817</ele>
        <time>2019-06-15T12:27:17Z</time>
      </trkpt>
      <trkpt lat="38.962073" lon="-0.185830">
        <ele>31.190</ele>
        <time>2019-06-15T12:27:19Z</time>
      </trkpt>
      <trkpt lat="38.962042" lon="-0.185885">
        <ele>31.312</ele>
        <time>2019-06-15T12:27:20Z</time>
      </trkpt>
      <trkpt lat="38.961967" lon="-0.185922">
        <ele>31.899</ele>
        <time>2019-06-15T12:27:22Z</time>
      </trkpt>
      <trkpt lat="38.961905" lon="-0.185963">
        <ele>31.948</ele>
        <time>2019-06-15T12:27:24Z</time>
      </trkpt>
      <trkpt lat="38.961794" lon="-0.185930">
        <ele>31.593</ele>
        <time>2019-06-15T12:27:25Z</time>
      </trkpt>
      <trkpt lat="38.961743" lon="-0.186107">
        <ele>31.394</ele>
        <time>2019-06-15T12:27:26Z</time>
      </trkpt>
      <trkpt lat="38.961655" lon="-0.186129">
        <ele>31.057</ele>
        <time>2019-06-15T12:27:28Z</time>
      </trkpt>
      <trkpt lat="38.961599" lon="-0.186158">
        <ele>30.822</ele>
        <time>2019-06-15T12:27:29Z</time>
      </trkpt>
      <trkpt lat="38.961555" lon="-0.186248">
        <ele>30.608</ele>
        <time>2019-06-15T12:27:30Z</time>
      </trkpt>
      <trkpt lat="38.961538" lon="-0.186321">
        <ele>30.572</ele>
        <time>2019-06-15T12:27:31Z</time>
      </trkpt>
      <trkpt lat="38.961493" lon="-0.186350">
        <ele>30.466</ele>
        <time>2019-06-15T12:27:32Z</time>
      </trkpt>
      <trkpt lat="38.961479" lon="-0.186426">
        <ele>30.365</ele>
        <time>2019-06-15T12:27:33Z</time>
      </trkpt>
      <trkpt lat="38.961424" lon="-0.186448">
        <ele>30.168</ele>
        <time>2019-06-15T12:27:34Z</time>
      </trkpt>
      <trkpt lat="38.961371" lon="-0.186467">
        <ele>30.090</ele>
        <time>2019-06-15T12:27:35Z</time>
      </trkpt>
      <trkpt lat="38.961311" lon="-0.186479">
        <ele>30.097</ele>
        <time>2019-06-15T12:27:36Z</time>
      </trkpt>
      <trkpt lat="38.961272" lon="-0.186531">
        <ele>30.016</ele>
        <time>2019-06-15T12:27:37Z</time>
      </trkpt>
      <trkpt lat="38.961229" lon="-0.186575">
        <ele>30.011</ele>
        <time>2019-06-15T12:27:38Z</time>
      </trkpt>
      <trkpt lat="38.961177" lon="-0.186617">
        <ele>30.074</ele>
        <time>2019-06-15T12:27:39Z</time>
      </trkpt>
      <trkpt lat="38.961132" lon="-0.186665">
        <ele>30.056</ele>
        <time>2019-06-15T12:27:40Z</time>
      </trkpt>
      <trkpt lat="38.961095" lon="-0.186724">
        <ele>30.121</ele>
        <time>2019-06-15T12:27:41Z</time>
      </trkpt>
      <trkpt lat="38.961044" lon="-0.186737">
        <ele>30.208</ele>
        <time>2019-06-15T12:27:42Z</time>
      </trkpt>
      <trkpt lat="38.960997" lon="-0.186768">
        <ele>30.450</ele>
        <time>2019-06-15T12:27:43Z</time>
      </trkpt>
      <trkpt lat="38.960949" lon="-0.186788">
        <ele>30.614</ele>
        <time>2019-06-15T12:27:44Z</time>
      </trkpt>
      <trkpt lat="38.960900" lon="-0.186799">
        <ele>30.873</ele>
        <time>2019-06-15T12:27:45Z</time>
      </trkpt>
      <trkpt lat="38.960856" lon="-0.186840">
        <ele>30.996</ele>
        <time>2019-06-15T12:27:46Z</time>
      </trkpt>
      <trkpt lat="38.960823" lon="-0.186888">
        <ele>31.048</ele>
        <time>2019-06-15T12:27:47Z</time>
      </trkpt>
      <trkpt lat="38.960773" lon="-0.186911">
        <ele>31.275</ele>
        <time>2019-06-15T12:27:48Z</time>
      </trkpt>
      <trkpt lat="38.960703" lon="-0.186915">
        <ele>31.594</ele>
        <time>2019-06-15T12:27:49Z</time>
      </trkpt>
      <trkpt lat="38.960669" lon="-0.186975">
        <ele>31.529</ele>
        <time>2019-06-15T12:27:50Z</time>
      </trkpt>
      <trkpt lat="38.960621" lon="-0.187002">
        <ele>31.657</ele>
        <time>2019-06-15T12:27:51Z</time>
      </trkpt>
      <trkpt lat="38.960576" lon="-0.187045">
        <ele>31.600</ele>
        <time>2019-06-15T12:27:52Z</time>
      </trkpt>
      <trkpt lat="38.960530" lon="-0.187077">
        <ele>31.420</ele>
        <time>2019-06-15T12:27:53Z</time>
      </trkpt>
      <trkpt lat="38.960493" lon="-0.187142">
        <ele>31.008</ele>
        <time>2019-06-15T12:27:54Z</time>
      </trkpt>
      <trkpt lat="38.960447" lon="-0.187174">
        <ele>30.778</ele>
        <time>2019-06-15T12:27:55Z</time>
      </trkpt>
      <trkpt lat="38.960403" lon="-0.187216">
        <ele>30.572</ele>
        <time>2019-06-15T12:27:56Z</time>
      </trkpt>
      <trkpt lat="38.960367" lon="-0.187256">
        <ele>30.231</ele>
        <time>2019-06-15T12:27:57Z</time>
      </trkpt>
      <trkpt lat="38.960326" lon="-0.187292">
        <ele>30.074</ele>
        <time>2019-06-15T12:27:58Z</time>
      </trkpt>
      <trkpt lat="38.960280" lon="-0.187331">
        <ele>29.616</ele>
        <time>2019-06-15T12:27:59Z</time>
      </trkpt>
      <trkpt lat="38.960204" lon="-0.187396">
        <ele>29.583</ele>
        <time>2019-06-15T12:28:01Z</time>
      </trkpt>
      <trkpt lat="38.960173" lon="-0.187461">
        <ele>29.252</ele>
        <time>2019-06-15T12:28:02Z</time>
      </trkpt>
      <trkpt lat="38.960127" lon="-0.187488">
        <ele>29.117</ele>
        <time>2019-06-15T12:28:03Z</time>
      </trkpt>
      <trkpt lat="38.960090" lon="-0.187524">
        <ele>28.865</ele>
        <time>2019-06-15T12:28:04Z</time>
      </trkpt>
      <trkpt lat="38.960039" lon="-0.187558">
        <ele>28.468</ele>
        <time>2019-06-15T12:28:05Z</time>
      </trkpt>
      <trkpt lat="38.959966" lon="-0.187618">
        <ele>27.914</ele>
        <time>2019-06-15T12:28:07Z</time>
      </trkpt>
      <trkpt lat="38.959911" lon="-0.187642">
        <ele>28.008</ele>
        <time>2019-06-15T12:28:08Z</time>
      </trkpt>
      <trkpt lat="38.959864" lon="-0.187680">
        <ele>27.979</ele>
        <time>2019-06-15T12:28:09Z</time>
      </trkpt>
      <trkpt lat="38.959815" lon="-0.187700">
        <ele>28.013</ele>
        <time>2019-06-15T12:28:10Z</time>
      </trkpt>
      <trkpt lat="38.959762" lon="-0.187778">
        <ele>27.772</ele>
        <time>2019-06-15T12:28:12Z</time>
      </trkpt>
      <trkpt lat="38.959708" lon="-0.187839">
        <ele>27.855</ele>
        <time>2019-06-15T12:28:13Z</time>
      </trkpt>
      <trkpt lat="38.959664" lon="-0.187873">
        <ele>27.947</ele>
        <time>2019-06-15T12:28:15Z</time>
      </trkpt>
      <trkpt lat="38.959636" lon="-0.187940">
        <ele>27.994</ele>
        <time>2019-06-15T12:28:17Z</time>
      </trkpt>
      <trkpt lat="38.959557" lon="-0.188058">
        <ele>28.273</ele>
        <time>2019-06-15T12:28:19Z</time>
      </trkpt>
      <trkpt lat="38.959479" lon="-0.188069">
        <ele>28.828</ele>
        <time>2019-06-15T12:28:21Z</time>
      </trkpt>
      <trkpt lat="38.959424" lon="-0.188066">
        <ele>28.978</ele>
        <time>2019-06-15T12:28:22Z</time>
      </trkpt>
      <trkpt lat="38.959350" lon="-0.188128">
        <ele>28.633</ele>
        <time>2019-06-15T12:28:24Z</time>
      </trkpt>
      <trkpt lat="38.959283" lon="-0.188187">
        <ele>28.126</ele>
        <time>2019-06-15T12:28:26Z</time>
      </trkpt>
      <trkpt lat="38.959207" lon="-0.188238">
        <ele>27.608</ele>
        <time>2019-06-15T12:28:28Z</time>
      </trkpt>
      <trkpt lat="38.959136" lon="-0.188303">
        <ele>26.970</ele>
        <time>2019-06-15T12:28:30Z</time>
      </trkpt>
      <trkpt lat="38.959100" lon="-0.188347">
        <ele>26.424</ele>
        <time>2019-06-15T12:28:31Z</time>
      </trkpt>
      <trkpt lat="38.959024" lon="-0.188408">
        <ele>25.353</ele>
        <time>2019-06-15T12:28:33Z</time>
      </trkpt>
      <trkpt lat="38.958982" lon="-0.188435">
        <ele>24.886</ele>
        <time>2019-06-15T12:28:34Z</time>
      </trkpt>
      <trkpt lat="38.958940" lon="-0.188461">
        <ele>24.488</ele>
        <time>2019-06-15T12:28:35Z</time>
      </trkpt>
      <trkpt lat="38.958901" lon="-0.188496">
        <ele>23.935</ele>
        <time>2019-06-15T12:28:36Z</time>
      </trkpt>
      <trkpt lat="38.958822" lon="-0.188544">
        <ele>23.764</ele>
        <time>2019-06-15T12:28:38Z</time>
      </trkpt>
      <trkpt lat="38.958777" lon="-0.188569">
        <ele>23.799</ele>
        <time>2019-06-15T12:28:39Z</time>
      </trkpt>
      <trkpt lat="38.958710" lon="-0.188616">
        <ele>23.749</ele>
        <time>2019-06-15T12:28:41Z</time>
      </trkpt>
      <trkpt lat="38.958668" lon="-0.188639">
        <ele>23.902</ele>
        <time>2019-06-15T12:28:42Z</time>
      </trkpt>
      <trkpt lat="38.958619" lon="-0.188645">
        <ele>24.222</ele>
        <time>2019-06-15T12:28:43Z</time>
      </trkpt>
      <trkpt lat="38.958552" lon="-0.188691">
        <ele>25.108</ele>
        <time>2019-06-15T12:28:45Z</time>
      </trkpt>
      <trkpt lat="38.958520" lon="-0.188781">
        <ele>26.177</ele>
        <time>2019-06-15T12:28:47Z</time>
      </trkpt>
      <trkpt lat="38.958485" lon="-0.188871">
        <ele>27.291</ele>
        <time>2019-06-15T12:28:49Z</time>
      </trkpt>
      <trkpt lat="38.958451" lon="-0.188911">
        <ele>27.970</ele>
        <time>2019-06-15T12:28:50Z</time>
      </trkpt>
      <trkpt lat="38.958370" lon="-0.188907">
        <ele>28.793</ele>
        <time>2019-06-15T12:28:52Z</time>
      </trkpt>
      <trkpt lat="38.958329" lon="-0.188932">
        <ele>29.315</ele>
        <time>2019-06-15T12:28:53Z</time>
      </trkpt>
      <trkpt lat="38.958252" lon="-0.188992">
        <ele>29.762</ele>
        <time>2019-06-15T12:28:55Z</time>
      </trkpt>
      <trkpt lat="38.958210" lon="-0.189018">
        <ele>29.941</ele>
        <time>2019-06-15T12:28:56Z</time>
      </trkpt>
      <trkpt lat="38.958162" lon="-0.189043">
        <ele>30.176</ele>
        <time>2019-06-15T12:28:57Z</time>
      </trkpt>
      <trkpt lat="38.958126" lon="-0.189080">
        <ele>30.499</ele>
        <time>2019-06-15T12:28:58Z</time>
      </trkpt>
      <trkpt lat="38.958046" lon="-0.189135">
        <ele>30.807</ele>
        <time>2019-06-15T12:29:00Z</time>
      </trkpt>
      <trkpt lat="38.958010" lon="-0.189177">
        <ele>31.027</ele>
        <time>2019-06-15T12:29:01Z</time>
      </trkpt>
      <trkpt lat="38.957967" lon="-0.189213">
        <ele>31.208</ele>
        <time>2019-06-15T12:29:02Z</time>
      </trkpt>
      <trkpt lat="38.957905" lon="-0.189287">
        <ele>31.482</ele>
        <time>2019-06-15T12:29:04Z</time>
      </trkpt>
      <trkpt lat="38.957841" lon="-0.189349">
        <ele>31.756</ele>
        <time>2019-06-15T12:29:06Z</time>
      </trkpt>
      <trkpt lat="38.957795" lon="-0.189372">
        <ele>31.765</ele>
        <time>2019-06-15T12:29:07Z</time>
      </trkpt>
      <trkpt lat="38.957717" lon="-0.189421">
        <ele>31.948</ele>
        <time>2019-06-15T12:29:09Z</time>
      </trkpt>
      <trkpt lat="38.957672" lon="-0.189441">
        <ele>32.080</ele>
        <time>2019-06-15T12:29:10Z</time>
      </trkpt>
      <trkpt lat="38.957604" lon="-0.189493">
        <ele>32.247</ele>
        <time>2019-06-15T12:29:12Z</time>
      </trkpt>
      <trkpt lat="38.957565" lon="-0.189530">
        <ele>32.346</ele>
        <time>2019-06-15T12:29:13Z</time>
      </trkpt>
      <trkpt lat="38.957506" lon="-0.189597">
        <ele>32.551</ele>
        <time>2019-06-15T12:29:15Z</time>
      </trkpt>
      <trkpt lat="38.957452" lon="-0.189629">
        <ele>32.744</ele>
        <time>2019-06-15T12:29:17Z</time>
      </trkpt>
      <trkpt lat="38.957408" lon="-0.189658">
        <ele>32.805</ele>
        <time>2019-06-15T12:29:19Z</time>
      </trkpt>
      <trkpt lat="38.957374" lon="-0.189706">
        <ele>32.915</ele>
        <time>2019-06-15T12:29:25Z</time>
      </trkpt>
      <trkpt lat="38.957276" lon="-0.189734">
        <ele>33.008</ele>
        <time>2019-06-15T12:30:09Z</time>
      </trkpt>
      <trkpt lat="38.957237" lon="-0.189783">
        <ele>33.067</ele>
        <time>2019-06-15T12:30:10Z</time>
      </trkpt>
      <trkpt lat="38.957198" lon="-0.189827">
        <ele>33.121</ele>
        <time>2019-06-15T12:30:11Z</time>
      </trkpt>
      <trkpt lat="38.957154" lon="-0.189867">
        <ele>33.160</ele>
        <time>2019-06-15T12:30:12Z</time>
      </trkpt>
      <trkpt lat="38.957105" lon="-0.189907">
        <ele>33.153</ele>
        <time>2019-06-15T12:30:13Z</time>
      </trkpt>
      <trkpt lat="38.957013" lon="-0.189975">
        <ele>33.175</ele>
        <time>2019-06-15T12:30:14Z</time>
      </trkpt>
      <trkpt lat="38.956964" lon="-0.190017">
        <ele>32.952</ele>
        <time>2019-06-15T12:30:15Z</time>
      </trkpt>
      <trkpt lat="38.956924" lon="-0.190121">
        <ele>32.181</ele>
        <time>2019-06-15T12:30:17Z</time>
      </trkpt>
      <trkpt lat="38.956895" lon="-0.190184">
        <ele>31.676</ele>
        <time>2019-06-15T12:30:18Z</time>
      </trkpt>
      <trkpt lat="38.956885" lon="-0.190252">
        <ele>31.041</ele>
        <time>2019-06-15T12:30:19Z</time>
      </trkpt>
      <trkpt lat="38.956875" lon="-0.190319">
        <ele>30.681</ele>
        <time>2019-06-15T12:30:20Z</time>
      </trkpt>
      <trkpt lat="38.956852" lon="-0.190388">
        <ele>30.309</ele>
        <time>2019-06-15T12:30:21Z</time>
      </trkpt>
      <trkpt lat="38.956832" lon="-0.190452">
        <ele>30.008</ele>
        <time>2019-06-15T12:30:22Z</time>
      </trkpt>
      <trkpt lat="38.956804" lon="-0.190504">
        <ele>29.737</ele>
        <time>2019-06-15T12:30:23Z</time>
      </trkpt>
      <trkpt lat="38.956771" lon="-0.190556">
        <ele>29.471</ele>
        <time>2019-06-15T12:30:24Z</time>
      </trkpt>
      <trkpt lat="38.956737" lon="-0.190608">
        <ele>29.370</ele>
        <time>2019-06-15T12:30:25Z</time>
      </trkpt>
      <trkpt lat="38.956691" lon="-0.190653">
        <ele>29.173</ele>
        <time>2019-06-15T12:30:26Z</time>
      </trkpt>
      <trkpt lat="38.956634" lon="-0.190672">
        <ele>29.095</ele>
        <time>2019-06-15T12:30:27Z</time>
      </trkpt>
      <trkpt lat="38.956581" lon="-0.190688">
        <ele>29.132</ele>
        <time>2019-06-15T12:30:28Z</time>
      </trkpt>
      <trkpt lat="38.956534" lon="-0.190711">
        <ele>29.381</ele>
        <time>2019-06-15T12:30:29Z</time>
      </trkpt>
      <trkpt lat="38.956486" lon="-0.190727">
        <ele>29.466</ele>
        <time>2019-06-15T12:30:30Z</time>
      </trkpt>
      <trkpt lat="38.956396" lon="-0.190710">
        <ele>29.595</ele>
        <time>2019-06-15T12:30:32Z</time>
      </trkpt>
      <trkpt lat="38.956340" lon="-0.190671">
        <ele>29.649</ele>
        <time>2019-06-15T12:30:33Z</time>
      </trkpt>
      <trkpt lat="38.956289" lon="-0.190658">
        <ele>29.823</ele>
        <time>2019-06-15T12:30:34Z</time>
      </trkpt>
      <trkpt lat="38.956235" lon="-0.190660">
        <ele>30.108</ele>
        <time>2019-06-15T12:30:35Z</time>
      </trkpt>
      <trkpt lat="38.956189" lon="-0.190656">
        <ele>30.312</ele>
        <time>2019-06-15T12:30:36Z</time>
      </trkpt>
      <trkpt lat="38.956141" lon="-0.190657">
        <ele>30.586</ele>
        <time>2019-06-15T12:30:37Z</time>
      </trkpt>
      <trkpt lat="38.956076" lon="-0.190720">
        <ele>30.565</ele>
        <time>2019-06-15T12:30:39Z</time>
      </trkpt>
      <trkpt lat="38.956033" lon="-0.190755">
        <ele>30.698</ele>
        <time>2019-06-15T12:30:40Z</time>
      </trkpt>
      <trkpt lat="38.955983" lon="-0.190784">
        <ele>30.640</ele>
        <time>2019-06-15T12:30:41Z</time>
      </trkpt>
      <trkpt lat="38.955936" lon="-0.190812">
        <ele>30.777</ele>
        <time>2019-06-15T12:30:42Z</time>
      </trkpt>
      <trkpt lat="38.955895" lon="-0.190840">
        <ele>30.816</ele>
        <time>2019-06-15T12:30:43Z</time>
      </trkpt>
      <trkpt lat="38.955848" lon="-0.190871">
        <ele>31.061</ele>
        <time>2019-06-15T12:30:44Z</time>
      </trkpt>
      <trkpt lat="38.955802" lon="-0.190898">
        <ele>31.111</ele>
        <time>2019-06-15T12:30:45Z</time>
      </trkpt>
      <trkpt lat="38.955757" lon="-0.190935">
        <ele>31.321</ele>
        <time>2019-06-15T12:30:46Z</time>
      </trkpt>
      <trkpt lat="38.955712" lon="-0.190966">
        <ele>31.403</ele>
        <time>2019-06-15T12:30:47Z</time>
      </trkpt>
      <trkpt lat="38.955675" lon="-0.190999">
        <ele>31.608</ele>
        <time>2019-06-15T12:30:48Z</time>
      </trkpt>
      <trkpt lat="38.955638" lon="-0.191036">
        <ele>31.714</ele>
        <time>2019-06-15T12:30:49Z</time>
      </trkpt>
      <trkpt lat="38.955595" lon="-0.191065">
        <ele>31.928</ele>
        <time>2019-06-15T12:30:50Z</time>
      </trkpt>
      <trkpt lat="38.955555" lon="-0.191094">
        <ele>32.047</ele>
        <time>2019-06-15T12:30:51Z</time>
      </trkpt>
      <trkpt lat="38.955510" lon="-0.191125">
        <ele>32.220</ele>
        <time>2019-06-15T12:30:52Z</time>
      </trkpt>
      <trkpt lat="38.955466" lon="-0.191147">
        <ele>32.552</ele>
        <time>2019-06-15T12:30:53Z</time>
      </trkpt>
      <trkpt lat="38.955425" lon="-0.191186">
        <ele>32.719</ele>
        <time>2019-06-15T12:30:54Z</time>
      </trkpt>
      <trkpt lat="38.955349" lon="-0.191261">
        <ele>33.378</ele>
        <time>2019-06-15T12:30:56Z</time>
      </trkpt>
      <trkpt lat="38.955306" lon="-0.191295">
        <ele>33.633</ele>
        <time>2019-06-15T12:30:57Z</time>
      </trkpt>
      <trkpt lat="38.955260" lon="-0.191325">
        <ele>33.865</ele>
        <time>2019-06-15T12:30:58Z</time>
      </trkpt>
      <trkpt lat="38.955215" lon="-0.191358">
        <ele>34.168</ele>
        <time>2019-06-15T12:30:59Z</time>
      </trkpt>
      <trkpt lat="38.955170" lon="-0.191390">
        <ele>34.414</ele>
        <time>2019-06-15T12:31:00Z</time>
      </trkpt>
      <trkpt lat="38.955130" lon="-0.191428">
        <ele>34.708</ele>
        <time>2019-06-15T12:31:01Z</time>
      </trkpt>
      <trkpt lat="38.955084" lon="-0.191453">
        <ele>34.959</ele>
        <time>2019-06-15T12:31:02Z</time>
      </trkpt>
      <trkpt lat="38.955004" lon="-0.191531">
        <ele>35.593</ele>
        <time>2019-06-15T12:31:04Z</time>
      </trkpt>
      <trkpt lat="38.954960" lon="-0.191566">
        <ele>35.792</ele>
        <time>2019-06-15T12:31:05Z</time>
      </trkpt>
      <trkpt lat="38.954919" lon="-0.191597">
        <ele>36.045</ele>
        <time>2019-06-15T12:31:06Z</time>
      </trkpt>
      <trkpt lat="38.954873" lon="-0.191624">
        <ele>36.277</ele>
        <time>2019-06-15T12:31:07Z</time>
      </trkpt>
      <trkpt lat="38.954823" lon="-0.191657">
        <ele>36.684</ele>
        <time>2019-06-15T12:31:08Z</time>
      </trkpt>
      <trkpt lat="38.954777" lon="-0.191698">
        <ele>36.863</ele>
        <time>2019-06-15T12:31:09Z</time>
      </trkpt>
      <trkpt lat="38.954733" lon="-0.191727">
        <ele>37.068</ele>
        <time>2019-06-15T12:31:10Z</time>
      </trkpt>
      <trkpt lat="38.954689" lon="-0.191760">
        <ele>37.032</ele>
        <time>2019-06-15T12:31:11Z</time>
      </trkpt>
      <trkpt lat="38.954611" lon="-0.191819">
        <ele>36.892</ele>
        <time>2019-06-15T12:31:13Z</time>
      </trkpt>
      <trkpt lat="38.954572" lon="-0.191855">
        <ele>36.611</ele>
        <time>2019-06-15T12:31:14Z</time>
      </trkpt>
      <trkpt lat="38.954534" lon="-0.191886">
        <ele>36.508</ele>
        <time>2019-06-15T12:31:15Z</time>
      </trkpt>
      <trkpt lat="38.954495" lon="-0.191921">
        <ele>36.356</ele>
        <time>2019-06-15T12:31:16Z</time>
      </trkpt>
      <trkpt lat="38.954450" lon="-0.191946">
        <ele>36.020</ele>
        <time>2019-06-15T12:31:17Z</time>
      </trkpt>
      <trkpt lat="38.954374" lon="-0.191999">
        <ele>35.899</ele>
        <time>2019-06-15T12:31:19Z</time>
      </trkpt>
      <trkpt lat="38.954337" lon="-0.192032">
        <ele>35.752</ele>
        <time>2019-06-15T12:31:20Z</time>
      </trkpt>
      <trkpt lat="38.954298" lon="-0.192063">
        <ele>35.684</ele>
        <time>2019-06-15T12:31:21Z</time>
      </trkpt>
      <trkpt lat="38.954225" lon="-0.192119">
        <ele>35.461</ele>
        <time>2019-06-15T12:31:23Z</time>
      </trkpt>
      <trkpt lat="38.954183" lon="-0.192150">
        <ele>35.320</ele>
        <time>2019-06-15T12:31:24Z</time>
      </trkpt>
      <trkpt lat="38.954140" lon="-0.192178">
        <ele>35.225</ele>
        <time>2019-06-15T12:31:25Z</time>
      </trkpt>
      <trkpt lat="38.954104" lon="-0.192217">
        <ele>35.059</ele>
        <time>2019-06-15T12:31:26Z</time>
      </trkpt>
      <trkpt lat="38.954061" lon="-0.192244">
        <ele>35.003</ele>
        <time>2019-06-15T12:31:27Z</time>
      </trkpt>
      <trkpt lat="38.954021" lon="-0.192272">
        <ele>34.923</ele>
        <time>2019-06-15T12:31:28Z</time>
      </trkpt>
      <trkpt lat="38.953982" lon="-0.192301">
        <ele>34.908</ele>
        <time>2019-06-15T12:31:29Z</time>
      </trkpt>
      <trkpt lat="38.953937" lon="-0.192327">
        <ele>34.978</ele>
        <time>2019-06-15T12:31:30Z</time>
      </trkpt>
      <trkpt lat="38.953895" lon="-0.192359">
        <ele>35.012</ele>
        <time>2019-06-15T12:31:31Z</time>
      </trkpt>
      <trkpt lat="38.953856" lon="-0.192393">
        <ele>35.191</ele>
        <time>2019-06-15T12:31:32Z</time>
      </trkpt>
      <trkpt lat="38.953814" lon="-0.192424">
        <ele>35.264</ele>
        <time>2019-06-15T12:31:33Z</time>
      </trkpt>
      <trkpt lat="38.953775" lon="-0.192462">
        <ele>35.486</ele>
        <time>2019-06-15T12:31:34Z</time>
      </trkpt>
      <trkpt lat="38.953732" lon="-0.192497">
        <ele>35.643</ele>
        <time>2019-06-15T12:31:35Z</time>
      </trkpt>
      <trkpt lat="38.953686" lon="-0.192524">
        <ele>35.642</ele>
        <time>2019-06-15T12:31:36Z</time>
      </trkpt>
      <trkpt lat="38.953642" lon="-0.192554">
        <ele>35.757</ele>
        <time>2019-06-15T12:31:37Z</time>
      </trkpt>
      <trkpt lat="38.953566" lon="-0.192612">
        <ele>35.942</ele>
        <time>2019-06-15T12:31:39Z</time>
      </trkpt>
      <trkpt lat="38.953527" lon="-0.192644">
        <ele>36.122</ele>
        <time>2019-06-15T12:31:40Z</time>
      </trkpt>
      <trkpt lat="38.953483" lon="-0.192677">
        <ele>36.314</ele>
        <time>2019-06-15T12:31:41Z</time>
      </trkpt>
      <trkpt lat="38.953437" lon="-0.192706">
        <ele>36.508</ele>
        <time>2019-06-15T12:31:42Z</time>
      </trkpt>
      <trkpt lat="38.953391" lon="-0.192736">
        <ele>36.717</ele>
        <time>2019-06-15T12:31:43Z</time>
      </trkpt>
      <trkpt lat="38.953348" lon="-0.192769">
        <ele>36.931</ele>
        <time>2019-06-15T12:31:44Z</time>
      </trkpt>
      <trkpt lat="38.953304" lon="-0.192792">
        <ele>37.650</ele>
        <time>2019-06-15T12:31:45Z</time>
      </trkpt>
      <trkpt lat="38.953256" lon="-0.192819">
        <ele>38.683</ele>
        <time>2019-06-15T12:31:46Z</time>
      </trkpt>
      <trkpt lat="38.953221" lon="-0.192859">
        <ele>39.395</ele>
        <time>2019-06-15T12:31:47Z</time>
      </trkpt>
      <trkpt lat="38.953180" lon="-0.192886">
        <ele>40.172</ele>
        <time>2019-06-15T12:31:48Z</time>
      </trkpt>
      <trkpt lat="38.953139" lon="-0.192914">
        <ele>41.051</ele>
        <time>2019-06-15T12:31:49Z</time>
      </trkpt>
      <trkpt lat="38.953094" lon="-0.192947">
        <ele>42.116</ele>
        <time>2019-06-15T12:31:50Z</time>
      </trkpt>
      <trkpt lat="38.953049" lon="-0.192975">
        <ele>43.169</ele>
        <time>2019-06-15T12:31:51Z</time>
      </trkpt>
      <trkpt lat="38.952970" lon="-0.193042">
        <ele>45.004</ele>
        <time>2019-06-15T12:31:53Z</time>
      </trkpt>
      <trkpt lat="38.952932" lon="-0.193081">
        <ele>46.024</ele>
        <time>2019-06-15T12:31:54Z</time>
      </trkpt>
      <trkpt lat="38.952890" lon="-0.193110">
        <ele>46.908</ele>
        <time>2019-06-15T12:31:55Z</time>
      </trkpt>
      <trkpt lat="38.952845" lon="-0.193143">
        <ele>47.899</ele>
        <time>2019-06-15T12:31:56Z</time>
      </trkpt>
      <trkpt lat="38.952799" lon="-0.193183">
        <ele>48.653</ele>
        <time>2019-06-15T12:31:57Z</time>
      </trkpt>
      <trkpt lat="38.952716" lon="-0.193244">
        <ele>47.342</ele>
        <time>2019-06-15T12:31:59Z</time>
      </trkpt>
      <trkpt lat="38.952677" lon="-0.193283">
        <ele>46.555</ele>
        <time>2019-06-15T12:32:00Z</time>
      </trkpt>
      <trkpt lat="38.952632" lon="-0.193311">
        <ele>45.877</ele>
        <time>2019-06-15T12:32:01Z</time>
      </trkpt>
      <trkpt lat="38.952584" lon="-0.193342">
        <ele>45.134</ele>
        <time>2019-06-15T12:32:02Z</time>
      </trkpt>
      <trkpt lat="38.952539" lon="-0.193368">
        <ele>44.313</ele>
        <time>2019-06-15T12:32:03Z</time>
      </trkpt>
      <trkpt lat="38.952469" lon="-0.193426">
        <ele>42.798</ele>
        <time>2019-06-15T12:32:05Z</time>
      </trkpt>
      <trkpt lat="38.952418" lon="-0.193451">
        <ele>41.789</ele>
        <time>2019-06-15T12:32:06Z</time>
      </trkpt>
      <trkpt lat="38.952338" lon="-0.193517">
        <ele>40.506</ele>
        <time>2019-06-15T12:32:08Z</time>
      </trkpt>
      <trkpt lat="38.952289" lon="-0.193550">
        <ele>40.126</ele>
        <time>2019-06-15T12:32:09Z</time>
      </trkpt>
      <trkpt lat="38.952249" lon="-0.193578">
        <ele>39.908</ele>
        <time>2019-06-15T12:32:10Z</time>
      </trkpt>
      <trkpt lat="38.952206" lon="-0.193605">
        <ele>39.841</ele>
        <time>2019-06-15T12:32:11Z</time>
      </trkpt>
      <trkpt lat="38.952165" lon="-0.193634">
        <ele>39.455</ele>
        <time>2019-06-15T12:32:12Z</time>
      </trkpt>
      <trkpt lat="38.952120" lon="-0.193668">
        <ele>39.024</ele>
        <time>2019-06-15T12:32:13Z</time>
      </trkpt>
      <trkpt lat="38.952078" lon="-0.193706">
        <ele>38.617</ele>
        <time>2019-06-15T12:32:14Z</time>
      </trkpt>
      <trkpt lat="38.952034" lon="-0.193739">
        <ele>38.369</ele>
        <time>2019-06-15T12:32:15Z</time>
      </trkpt>
      <trkpt lat="38.951975" lon="-0.193802">
        <ele>37.966</ele>
        <time>2019-06-15T12:32:17Z</time>
      </trkpt>
      <trkpt lat="38.951901" lon="-0.193865">
        <ele>37.815</ele>
        <time>2019-06-15T12:32:19Z</time>
      </trkpt>
      <trkpt lat="38.951835" lon="-0.193937">
        <ele>37.750</ele>
        <time>2019-06-15T12:32:21Z</time>
      </trkpt>
      <trkpt lat="38.951815" lon="-0.193998">
        <ele>37.786</ele>
        <time>2019-06-15T12:32:22Z</time>
      </trkpt>
      <trkpt lat="38.951787" lon="-0.194050">
        <ele>37.860</ele>
        <time>2019-06-15T12:32:23Z</time>
      </trkpt>
      <trkpt lat="38.951772" lon="-0.194109">
        <ele>37.926</ele>
        <time>2019-06-15T12:32:24Z</time>
      </trkpt>
      <trkpt lat="38.951752" lon="-0.194162">
        <ele>38.008</ele>
        <time>2019-06-15T12:32:25Z</time>
      </trkpt>
      <trkpt lat="38.951723" lon="-0.194218">
        <ele>38.481</ele>
        <time>2019-06-15T12:32:26Z</time>
      </trkpt>
      <trkpt lat="38.951689" lon="-0.194256">
        <ele>38.965</ele>
        <time>2019-06-15T12:32:27Z</time>
      </trkpt>
      <trkpt lat="38.951615" lon="-0.194309">
        <ele>39.714</ele>
        <time>2019-06-15T12:32:29Z</time>
      </trkpt>
      <trkpt lat="38.951563" lon="-0.194312">
        <ele>39.937</ele>
        <time>2019-06-15T12:32:30Z</time>
      </trkpt>
      <trkpt lat="38.951474" lon="-0.194303">
        <ele>40.239</ele>
        <time>2019-06-15T12:32:32Z</time>
      </trkpt>
      <trkpt lat="38.951425" lon="-0.194320">
        <ele>40.556</ele>
        <time>2019-06-15T12:32:33Z</time>
      </trkpt>
      <trkpt lat="38.951377" lon="-0.194340">
        <ele>40.895</ele>
        <time>2019-06-15T12:32:34Z</time>
      </trkpt>
      <trkpt lat="38.951327" lon="-0.194372">
        <ele>41.020</ele>
        <time>2019-06-15T12:32:35Z</time>
      </trkpt>
      <trkpt lat="38.951281" lon="-0.194401">
        <ele>41.185</ele>
        <time>2019-06-15T12:32:36Z</time>
      </trkpt>
      <trkpt lat="38.951239" lon="-0.194430">
        <ele>41.389</ele>
        <time>2019-06-15T12:32:37Z</time>
      </trkpt>
      <trkpt lat="38.951195" lon="-0.194461">
        <ele>41.417</ele>
        <time>2019-06-15T12:32:38Z</time>
      </trkpt>
      <trkpt lat="38.951150" lon="-0.194490">
        <ele>41.308</ele>
        <time>2019-06-15T12:32:39Z</time>
      </trkpt>
      <trkpt lat="38.951105" lon="-0.194520">
        <ele>41.291</ele>
        <time>2019-06-15T12:32:40Z</time>
      </trkpt>
      <trkpt lat="38.951024" lon="-0.194575">
        <ele>41.015</ele>
        <time>2019-06-15T12:32:42Z</time>
      </trkpt>
      <trkpt lat="38.950981" lon="-0.194611">
        <ele>40.994</ele>
        <time>2019-06-15T12:32:43Z</time>
      </trkpt>
      <trkpt lat="38.950899" lon="-0.194681">
        <ele>40.477</ele>
        <time>2019-06-15T12:32:45Z</time>
      </trkpt>
      <trkpt lat="38.950862" lon="-0.194719">
        <ele>40.299</ele>
        <time>2019-06-15T12:32:46Z</time>
      </trkpt>
      <trkpt lat="38.950817" lon="-0.194750">
        <ele>39.856</ele>
        <time>2019-06-15T12:32:47Z</time>
      </trkpt>
      <trkpt lat="38.950775" lon="-0.194785">
        <ele>39.625</ele>
        <time>2019-06-15T12:32:48Z</time>
      </trkpt>
      <trkpt lat="38.950733" lon="-0.194824">
        <ele>39.360</ele>
        <time>2019-06-15T12:32:49Z</time>
      </trkpt>
      <trkpt lat="38.950695" lon="-0.194859">
        <ele>39.086</ele>
        <time>2019-06-15T12:32:50Z</time>
      </trkpt>
      <trkpt lat="38.950651" lon="-0.194888">
        <ele>38.760</ele>
        <time>2019-06-15T12:32:51Z</time>
      </trkpt>
      <trkpt lat="38.950576" lon="-0.194949">
        <ele>38.326</ele>
        <time>2019-06-15T12:32:53Z</time>
      </trkpt>
      <trkpt lat="38.950532" lon="-0.194983">
        <ele>38.108</ele>
        <time>2019-06-15T12:32:54Z</time>
      </trkpt>
      <trkpt lat="38.950485" lon="-0.195014">
        <ele>37.921</ele>
        <time>2019-06-15T12:32:55Z</time>
      </trkpt>
      <trkpt lat="38.950448" lon="-0.195059">
        <ele>37.715</ele>
        <time>2019-06-15T12:32:56Z</time>
      </trkpt>
      <trkpt lat="38.950403" lon="-0.195094">
        <ele>37.784</ele>
        <time>2019-06-15T12:32:57Z</time>
      </trkpt>
      <trkpt lat="38.950366" lon="-0.195128">
        <ele>37.757</ele>
        <time>2019-06-15T12:32:58Z</time>
      </trkpt>
      <trkpt lat="38.950326" lon="-0.195159">
        <ele>37.829</ele>
        <time>2019-06-15T12:32:59Z</time>
      </trkpt>
      <trkpt lat="38.950287" lon="-0.195196">
        <ele>38.066</ele>
        <time>2019-06-15T12:33:00Z</time>
      </trkpt>
      <trkpt lat="38.950242" lon="-0.195233">
        <ele>38.235</ele>
        <time>2019-06-15T12:33:01Z</time>
      </trkpt>
      <trkpt lat="38.950199" lon="-0.195262">
        <ele>38.630</ele>
        <time>2019-06-15T12:33:02Z</time>
      </trkpt>
      <trkpt lat="38.950150" lon="-0.195297">
        <ele>38.924</ele>
        <time>2019-06-15T12:33:03Z</time>
      </trkpt>
      <trkpt lat="38.950110" lon="-0.195329">
        <ele>39.104</ele>
        <time>2019-06-15T12:33:04Z</time>
      </trkpt>
      <trkpt lat="38.950068" lon="-0.195362">
        <ele>39.414</ele>
        <time>2019-06-15T12:33:05Z</time>
      </trkpt>
      <trkpt lat="38.950027" lon="-0.195388">
        <ele>39.808</ele>
        <time>2019-06-15T12:33:06Z</time>
      </trkpt>
      <trkpt lat="38.949982" lon="-0.195421">
        <ele>40.125</ele>
        <time>2019-06-15T12:33:07Z</time>
      </trkpt>
      <trkpt lat="38.949942" lon="-0.195455">
        <ele>40.379</ele>
        <time>2019-06-15T12:33:08Z</time>
      </trkpt>
      <trkpt lat="38.949904" lon="-0.195487">
        <ele>40.658</ele>
        <time>2019-06-15T12:33:09Z</time>
      </trkpt>
      <trkpt lat="38.949863" lon="-0.195522">
        <ele>40.911</ele>
        <time>2019-06-15T12:33:10Z</time>
      </trkpt>
      <trkpt lat="38.949819" lon="-0.195553">
        <ele>41.313</ele>
        <time>2019-06-15T12:33:11Z</time>
      </trkpt>
      <trkpt lat="38.949779" lon="-0.195589">
        <ele>41.790</ele>
        <time>2019-06-15T12:33:12Z</time>
      </trkpt>
      <trkpt lat="38.949735" lon="-0.195617">
        <ele>42.139</ele>
        <time>2019-06-15T12:33:13Z</time>
      </trkpt>
      <trkpt lat="38.949690" lon="-0.195649">
        <ele>42.474</ele>
        <time>2019-06-15T12:33:14Z</time>
      </trkpt>
      <trkpt lat="38.949646" lon="-0.195680">
        <ele>42.669</ele>
        <time>2019-06-15T12:33:15Z</time>
      </trkpt>
      <trkpt lat="38.949609" lon="-0.195717">
        <ele>42.804</ele>
        <time>2019-06-15T12:33:16Z</time>
      </trkpt>
      <trkpt lat="38.949576" lon="-0.195758">
        <ele>42.924</ele>
        <time>2019-06-15T12:33:17Z</time>
      </trkpt>
      <trkpt lat="38.949524" lon="-0.195781">
        <ele>42.908</ele>
        <time>2019-06-15T12:33:18Z</time>
      </trkpt>
      <trkpt lat="38.949481" lon="-0.195818">
        <ele>43.029</ele>
        <time>2019-06-15T12:33:19Z</time>
      </trkpt>
      <trkpt lat="38.949440" lon="-0.195844">
        <ele>42.843</ele>
        <time>2019-06-15T12:33:20Z</time>
      </trkpt>
      <trkpt lat="38.949400" lon="-0.195876">
        <ele>41.782</ele>
        <time>2019-06-15T12:33:21Z</time>
      </trkpt>
      <trkpt lat="38.949320" lon="-0.195927">
        <ele>39.635</ele>
        <time>2019-06-15T12:33:23Z</time>
      </trkpt>
      <trkpt lat="38.949279" lon="-0.195960">
        <ele>38.447</ele>
        <time>2019-06-15T12:33:24Z</time>
      </trkpt>
      <trkpt lat="38.949231" lon="-0.195989">
        <ele>37.074</ele>
        <time>2019-06-15T12:33:25Z</time>
      </trkpt>
      <trkpt lat="38.949181" lon="-0.196019">
        <ele>35.653</ele>
        <time>2019-06-15T12:33:26Z</time>
      </trkpt>
      <trkpt lat="38.949110" lon="-0.196100">
        <ele>34.578</ele>
        <time>2019-06-15T12:33:28Z</time>
      </trkpt>
      <trkpt lat="38.949063" lon="-0.196133">
        <ele>34.625</ele>
        <time>2019-06-15T12:33:29Z</time>
      </trkpt>
      <trkpt lat="38.949023" lon="-0.196163">
        <ele>34.826</ele>
        <time>2019-06-15T12:33:30Z</time>
      </trkpt>
      <trkpt lat="38.948981" lon="-0.196198">
        <ele>34.908</ele>
        <time>2019-06-15T12:33:31Z</time>
      </trkpt>
      <trkpt lat="38.948937" lon="-0.196228">
        <ele>35.208</ele>
        <time>2019-06-15T12:33:32Z</time>
      </trkpt>
      <trkpt lat="38.948895" lon="-0.196258">
        <ele>35.425</ele>
        <time>2019-06-15T12:33:33Z</time>
      </trkpt>
      <trkpt lat="38.948853" lon="-0.196278">
        <ele>35.979</ele>
        <time>2019-06-15T12:33:34Z</time>
      </trkpt>
      <trkpt lat="38.948812" lon="-0.196311">
        <ele>36.318</ele>
        <time>2019-06-15T12:33:35Z</time>
      </trkpt>
      <trkpt lat="38.948742" lon="-0.196372">
        <ele>37.121</ele>
        <time>2019-06-15T12:33:37Z</time>
      </trkpt>
      <trkpt lat="38.948702" lon="-0.196401">
        <ele>37.773</ele>
        <time>2019-06-15T12:33:38Z</time>
      </trkpt>
      <trkpt lat="38.948657" lon="-0.196426">
        <ele>38.210</ele>
        <time>2019-06-15T12:33:39Z</time>
      </trkpt>
      <trkpt lat="38.948614" lon="-0.196455">
        <ele>38.789</ele>
        <time>2019-06-15T12:33:40Z</time>
      </trkpt>
      <trkpt lat="38.948571" lon="-0.196491">
        <ele>38.964</ele>
        <time>2019-06-15T12:33:41Z</time>
      </trkpt>
      <trkpt lat="38.948534" lon="-0.196525">
        <ele>39.135</ele>
        <time>2019-06-15T12:33:42Z</time>
      </trkpt>
      <trkpt lat="38.948492" lon="-0.196559">
        <ele>39.286</ele>
        <time>2019-06-15T12:33:43Z</time>
      </trkpt>
      <trkpt lat="38.948447" lon="-0.196590">
        <ele>39.514</ele>
        <time>2019-06-15T12:33:44Z</time>
      </trkpt>
      <trkpt lat="38.948409" lon="-0.196624">
        <ele>39.608</ele>
        <time>2019-06-15T12:33:45Z</time>
      </trkpt>
      <trkpt lat="38.948366" lon="-0.196656">
        <ele>39.896</ele>
        <time>2019-06-15T12:33:46Z</time>
      </trkpt>
      <trkpt lat="38.948296" lon="-0.196728">
        <ele>39.540</ele>
        <time>2019-06-15T12:33:48Z</time>
      </trkpt>
      <trkpt lat="38.948253" lon="-0.196761">
        <ele>39.199</ele>
        <time>2019-06-15T12:33:49Z</time>
      </trkpt>
      <trkpt lat="38.948183" lon="-0.196825">
        <ele>38.712</ele>
        <time>2019-06-15T12:33:51Z</time>
      </trkpt>
      <trkpt lat="38.948125" lon="-0.196891">
        <ele>38.864</ele>
        <time>2019-06-15T12:33:53Z</time>
      </trkpt>
      <trkpt lat="38.948087" lon="-0.196923">
        <ele>38.961</ele>
        <time>2019-06-15T12:33:54Z</time>
      </trkpt>
      <trkpt lat="38.948017" lon="-0.196997">
        <ele>39.360</ele>
        <time>2019-06-15T12:33:56Z</time>
      </trkpt>
      <trkpt lat="38.947955" lon="-0.197080">
        <ele>39.615</ele>
        <time>2019-06-15T12:33:58Z</time>
      </trkpt>
      <trkpt lat="38.947900" lon="-0.197181">
        <ele>40.317</ele>
        <time>2019-06-15T12:34:00Z</time>
      </trkpt>
      <trkpt lat="38.947892" lon="-0.197246">
        <ele>41.887</ele>
        <time>2019-06-15T12:34:01Z</time>
      </trkpt>
      <trkpt lat="38.947874" lon="-0.197301">
        <ele>43.415</ele>
        <time>2019-06-15T12:34:02Z</time>
      </trkpt>
      <trkpt lat="38.947829" lon="-0.197396">
        <ele>46.108</ele>
        <time>2019-06-15T12:34:04Z</time>
      </trkpt>
      <trkpt lat="38.947802" lon="-0.197446">
        <ele>47.484</ele>
        <time>2019-06-15T12:34:05Z</time>
      </trkpt>
      <trkpt lat="38.947727" lon="-0.197497">
        <ele>47.868</ele>
        <time>2019-06-15T12:34:07Z</time>
      </trkpt>
      <trkpt lat="38.947681" lon="-0.197506">
        <ele>47.047</ele>
        <time>2019-06-15T12:34:08Z</time>
      </trkpt>
      <trkpt lat="38.947590" lon="-0.197491">
        <ele>44.770</ele>
        <time>2019-06-15T12:34:10Z</time>
      </trkpt>
      <trkpt lat="38.947508" lon="-0.197477">
        <ele>42.762</ele>
        <time>2019-06-15T12:34:12Z</time>
      </trkpt>
      <trkpt lat="38.947463" lon="-0.197471">
        <ele>42.679</ele>
        <time>2019-06-15T12:34:13Z</time>
      </trkpt>
      <trkpt lat="38.947412" lon="-0.197478">
        <ele>42.918</ele>
        <time>2019-06-15T12:34:14Z</time>
      </trkpt>
      <trkpt lat="38.947363" lon="-0.197491">
        <ele>43.313</ele>
        <time>2019-06-15T12:34:15Z</time>
      </trkpt>
      <trkpt lat="38.947318" lon="-0.197510">
        <ele>43.894</ele>
        <time>2019-06-15T12:34:16Z</time>
      </trkpt>
      <trkpt lat="38.947274" lon="-0.197537">
        <ele>44.357</ele>
        <time>2019-06-15T12:34:17Z</time>
      </trkpt>
      <trkpt lat="38.947198" lon="-0.197604">
        <ele>45.022</ele>
        <time>2019-06-15T12:34:19Z</time>
      </trkpt>
      <trkpt lat="38.947153" lon="-0.197634">
        <ele>45.108</ele>
        <time>2019-06-15T12:34:20Z</time>
      </trkpt>
      <trkpt lat="38.947070" lon="-0.197697">
        <ele>45.272</ele>
        <time>2019-06-15T12:34:22Z</time>
      </trkpt>
      <trkpt lat="38.947033" lon="-0.197735">
        <ele>45.396</ele>
        <time>2019-06-15T12:34:23Z</time>
      </trkpt>
      <trkpt lat="38.946953" lon="-0.197799">
        <ele>45.295</ele>
        <time>2019-06-15T12:34:25Z</time>
      </trkpt>
      <trkpt lat="38.946872" lon="-0.197864">
        <ele>43.728</ele>
        <time>2019-06-15T12:34:27Z</time>
      </trkpt>
      <trkpt lat="38.946823" lon="-0.197897">
        <ele>42.640</ele>
        <time>2019-06-15T12:34:28Z</time>
      </trkpt>
      <trkpt lat="38.946773" lon="-0.197919">
        <ele>41.447</ele>
        <time>2019-06-15T12:34:29Z</time>
      </trkpt>
      <trkpt lat="38.946694" lon="-0.197980">
        <ele>39.556</ele>
        <time>2019-06-15T12:34:31Z</time>
      </trkpt>
      <trkpt lat="38.946655" lon="-0.198016">
        <ele>38.751</ele>
        <time>2019-06-15T12:34:32Z</time>
      </trkpt>
      <trkpt lat="38.946578" lon="-0.198085">
        <ele>37.926</ele>
        <time>2019-06-15T12:34:34Z</time>
      </trkpt>
      <trkpt lat="38.946537" lon="-0.198127">
        <ele>37.447</ele>
        <time>2019-06-15T12:34:35Z</time>
      </trkpt>
      <trkpt lat="38.946491" lon="-0.198163">
        <ele>36.811</ele>
        <time>2019-06-15T12:34:36Z</time>
      </trkpt>
      <trkpt lat="38.946448" lon="-0.198200">
        <ele>36.108</ele>
        <time>2019-06-15T12:34:37Z</time>
      </trkpt>
      <trkpt lat="38.946405" lon="-0.198228">
        <ele>35.395</ele>
        <time>2019-06-15T12:34:38Z</time>
      </trkpt>
      <trkpt lat="38.946354" lon="-0.198257">
        <ele>35.569</ele>
        <time>2019-06-15T12:34:39Z</time>
      </trkpt>
      <trkpt lat="38.946317" lon="-0.198297">
        <ele>36.048</ele>
        <time>2019-06-15T12:34:40Z</time>
      </trkpt>
      <trkpt lat="38.946275" lon="-0.198333">
        <ele>36.691</ele>
        <time>2019-06-15T12:34:41Z</time>
      </trkpt>
      <trkpt lat="38.946242" lon="-0.198377">
        <ele>37.313</ele>
        <time>2019-06-15T12:34:42Z</time>
      </trkpt>
      <trkpt lat="38.946186" lon="-0.198405">
        <ele>38.160</ele>
        <time>2019-06-15T12:34:43Z</time>
      </trkpt>
      <trkpt lat="38.946139" lon="-0.198439">
        <ele>38.759</ele>
        <time>2019-06-15T12:34:44Z</time>
      </trkpt>
      <trkpt lat="38.946093" lon="-0.198478">
        <ele>39.114</ele>
        <time>2019-06-15T12:34:45Z</time>
      </trkpt>
      <trkpt lat="38.946043" lon="-0.198525">
        <ele>39.431</ele>
        <time>2019-06-15T12:34:46Z</time>
      </trkpt>
      <trkpt lat="38.945996" lon="-0.198562">
        <ele>39.861</ele>
        <time>2019-06-15T12:34:47Z</time>
      </trkpt>
      <trkpt lat="38.945947" lon="-0.198604">
        <ele>40.207</ele>
        <time>2019-06-15T12:34:48Z</time>
      </trkpt>
      <trkpt lat="38.945895" lon="-0.198638">
        <ele>40.508</ele>
        <time>2019-06-15T12:34:49Z</time>
      </trkpt>
      <trkpt lat="38.945842" lon="-0.198672">
        <ele>40.756</ele>
        <time>2019-06-15T12:34:50Z</time>
      </trkpt>
      <trkpt lat="38.945789" lon="-0.198705">
        <ele>40.610</ele>
        <time>2019-06-15T12:34:51Z</time>
      </trkpt>
      <trkpt lat="38.945751" lon="-0.198746">
        <ele>40.569</ele>
        <time>2019-06-15T12:34:52Z</time>
      </trkpt>
      <trkpt lat="38.945705" lon="-0.198783">
        <ele>40.542</ele>
        <time>2019-06-15T12:34:53Z</time>
      </trkpt>
      <trkpt lat="38.945646" lon="-0.198816">
        <ele>40.634</ele>
        <time>2019-06-15T12:34:54Z</time>
      </trkpt>
      <trkpt lat="38.945589" lon="-0.198916">
        <ele>41.081</ele>
        <time>2019-06-15T12:34:56Z</time>
      </trkpt>
      <trkpt lat="38.945541" lon="-0.198948">
        <ele>41.330</ele>
        <time>2019-06-15T12:34:57Z</time>
      </trkpt>
      <trkpt lat="38.945504" lon="-0.199008">
        <ele>41.635</ele>
        <time>2019-06-15T12:34:58Z</time>
      </trkpt>
      <trkpt lat="38.945503" lon="-0.199074">
        <ele>41.976</ele>
        <time>2019-06-15T12:34:59Z</time>
      </trkpt>
      <trkpt lat="38.945434" lon="-0.199100">
        <ele>42.290</ele>
        <time>2019-06-15T12:35:00Z</time>
      </trkpt>
      <trkpt lat="38.945387" lon="-0.199139">
        <ele>42.519</ele>
        <time>2019-06-15T12:35:01Z</time>
      </trkpt>
      <trkpt lat="38.945342" lon="-0.199184">
        <ele>42.808</ele>
        <time>2019-06-15T12:35:02Z</time>
      </trkpt>
      <trkpt lat="38.945295" lon="-0.199219">
        <ele>43.120</ele>
        <time>2019-06-15T12:35:03Z</time>
      </trkpt>
      <trkpt lat="38.945242" lon="-0.199249">
        <ele>43.184</ele>
        <time>2019-06-15T12:35:04Z</time>
      </trkpt>
      <trkpt lat="38.945180" lon="-0.199279">
        <ele>42.843</ele>
        <time>2019-06-15T12:35:05Z</time>
      </trkpt>
      <trkpt lat="38.945129" lon="-0.199310">
        <ele>42.466</ele>
        <time>2019-06-15T12:35:06Z</time>
      </trkpt>
      <trkpt lat="38.945077" lon="-0.199342">
        <ele>42.078</ele>
        <time>2019-06-15T12:35:07Z</time>
      </trkpt>
      <trkpt lat="38.945039" lon="-0.199382">
        <ele>41.675</ele>
        <time>2019-06-15T12:35:08Z</time>
      </trkpt>
      <trkpt lat="38.944986" lon="-0.199419">
        <ele>41.074</ele>
        <time>2019-06-15T12:35:09Z</time>
      </trkpt>
      <trkpt lat="38.944950" lon="-0.199458">
        <ele>40.759</ele>
        <time>2019-06-15T12:35:10Z</time>
      </trkpt>
      <trkpt lat="38.944925" lon="-0.199509">
        <ele>40.654</ele>
        <time>2019-06-15T12:35:11Z</time>
      </trkpt>
      <trkpt lat="38.944860" lon="-0.199530">
        <ele>40.056</ele>
        <time>2019-06-15T12:35:12Z</time>
      </trkpt>
      <trkpt lat="38.944801" lon="-0.199550">
        <ele>39.411</ele>
        <time>2019-06-15T12:35:13Z</time>
      </trkpt>
      <trkpt lat="38.944761" lon="-0.199586">
        <ele>38.908</ele>
        <time>2019-06-15T12:35:14Z</time>
      </trkpt>
      <trkpt lat="38.944712" lon="-0.199617">
        <ele>38.388</ele>
        <time>2019-06-15T12:35:15Z</time>
      </trkpt>
      <trkpt lat="38.944662" lon="-0.199639">
        <ele>38.172</ele>
        <time>2019-06-15T12:35:16Z</time>
      </trkpt>
      <trkpt lat="38.944611" lon="-0.199666">
        <ele>37.811</ele>
        <time>2019-06-15T12:35:17Z</time>
      </trkpt>
      <trkpt lat="38.944543" lon="-0.199739">
        <ele>37.454</ele>
        <time>2019-06-15T12:35:19Z</time>
      </trkpt>
      <trkpt lat="38.944464" lon="-0.199803">
        <ele>37.446</ele>
        <time>2019-06-15T12:35:21Z</time>
      </trkpt>
      <trkpt lat="38.944413" lon="-0.199840">
        <ele>37.693</ele>
        <time>2019-06-15T12:35:22Z</time>
      </trkpt>
      <trkpt lat="38.944359" lon="-0.199873">
        <ele>38.022</ele>
        <time>2019-06-15T12:35:23Z</time>
      </trkpt>
      <trkpt lat="38.944307" lon="-0.199904">
        <ele>38.327</ele>
        <time>2019-06-15T12:35:24Z</time>
      </trkpt>
      <trkpt lat="38.944264" lon="-0.199948">
        <ele>38.612</ele>
        <time>2019-06-15T12:35:25Z</time>
      </trkpt>
      <trkpt lat="38.944196" lon="-0.200020">
        <ele>38.832</ele>
        <time>2019-06-15T12:35:27Z</time>
      </trkpt>
      <trkpt lat="38.944119" lon="-0.200091">
        <ele>38.805</ele>
        <time>2019-06-15T12:35:29Z</time>
      </trkpt>
      <trkpt lat="38.944068" lon="-0.200123">
        <ele>38.908</ele>
        <time>2019-06-15T12:35:30Z</time>
      </trkpt>
      <trkpt lat="38.944016" lon="-0.200157">
        <ele>39.024</ele>
        <time>2019-06-15T12:35:31Z</time>
      </trkpt>
      <trkpt lat="38.943970" lon="-0.200185">
        <ele>39.058</ele>
        <time>2019-06-15T12:35:32Z</time>
      </trkpt>
      <trkpt lat="38.943916" lon="-0.200208">
        <ele>39.257</ele>
        <time>2019-06-15T12:35:33Z</time>
      </trkpt>
      <trkpt lat="38.943855" lon="-0.200235">
        <ele>39.050</ele>
        <time>2019-06-15T12:35:34Z</time>
      </trkpt>
      <trkpt lat="38.943808" lon="-0.200274">
        <ele>38.742</ele>
        <time>2019-06-15T12:35:35Z</time>
      </trkpt>
      <trkpt lat="38.943767" lon="-0.200307">
        <ele>38.419</ele>
        <time>2019-06-15T12:35:36Z</time>
      </trkpt>
      <trkpt lat="38.943725" lon="-0.200340">
        <ele>38.158</ele>
        <time>2019-06-15T12:35:37Z</time>
      </trkpt>
      <trkpt lat="38.943680" lon="-0.200374">
        <ele>37.893</ele>
        <time>2019-06-15T12:35:38Z</time>
      </trkpt>
      <trkpt lat="38.943641" lon="-0.200409">
        <ele>37.625</ele>
        <time>2019-06-15T12:35:39Z</time>
      </trkpt>
      <trkpt lat="38.943600" lon="-0.200450">
        <ele>37.426</ele>
        <time>2019-06-15T12:35:40Z</time>
      </trkpt>
      <trkpt lat="38.943547" lon="-0.200489">
        <ele>37.408</ele>
        <time>2019-06-15T12:35:41Z</time>
      </trkpt>
      <trkpt lat="38.943497" lon="-0.200521">
        <ele>37.508</ele>
        <time>2019-06-15T12:35:42Z</time>
      </trkpt>
      <trkpt lat="38.943455" lon="-0.200559">
        <ele>37.695</ele>
        <time>2019-06-15T12:35:43Z</time>
      </trkpt>
      <trkpt lat="38.943412" lon="-0.200594">
        <ele>37.749</ele>
        <time>2019-06-15T12:35:44Z</time>
      </trkpt>
      <trkpt lat="38.943368" lon="-0.200630">
        <ele>37.968</ele>
        <time>2019-06-15T12:35:45Z</time>
      </trkpt>
      <trkpt lat="38.943330" lon="-0.200663">
        <ele>38.081</ele>
        <time>2019-06-15T12:35:46Z</time>
      </trkpt>
      <trkpt lat="38.943277" lon="-0.200697">
        <ele>38.743</ele>
        <time>2019-06-15T12:35:47Z</time>
      </trkpt>
      <trkpt lat="38.943230" lon="-0.200731">
        <ele>39.430</ele>
        <time>2019-06-15T12:35:48Z</time>
      </trkpt>
      <trkpt lat="38.943184" lon="-0.200765">
        <ele>40.079</ele>
        <time>2019-06-15T12:35:49Z</time>
      </trkpt>
      <trkpt lat="38.943133" lon="-0.200801">
        <ele>40.854</ele>
        <time>2019-06-15T12:35:50Z</time>
      </trkpt>
      <trkpt lat="38.943091" lon="-0.200834">
        <ele>41.576</ele>
        <time>2019-06-15T12:35:51Z</time>
      </trkpt>
      <trkpt lat="38.943039" lon="-0.200863">
        <ele>41.890</ele>
        <time>2019-06-15T12:35:52Z</time>
      </trkpt>
      <trkpt lat="38.942996" lon="-0.200897">
        <ele>41.819</ele>
        <time>2019-06-15T12:35:53Z</time>
      </trkpt>
      <trkpt lat="38.942952" lon="-0.200935">
        <ele>41.608</ele>
        <time>2019-06-15T12:35:54Z</time>
      </trkpt>
      <trkpt lat="38.942911" lon="-0.200971">
        <ele>41.570</ele>
        <time>2019-06-15T12:35:55Z</time>
      </trkpt>
      <trkpt lat="38.942865" lon="-0.201007">
        <ele>41.434</ele>
        <time>2019-06-15T12:35:56Z</time>
      </trkpt>
      <trkpt lat="38.942814" lon="-0.201036">
        <ele>41.443</ele>
        <time>2019-06-15T12:35:57Z</time>
      </trkpt>
      <trkpt lat="38.942768" lon="-0.201068">
        <ele>41.426</ele>
        <time>2019-06-15T12:35:58Z</time>
      </trkpt>
      <trkpt lat="38.942720" lon="-0.201102">
        <ele>41.578</ele>
        <time>2019-06-15T12:35:59Z</time>
      </trkpt>
      <trkpt lat="38.942677" lon="-0.201134">
        <ele>41.615</ele>
        <time>2019-06-15T12:36:00Z</time>
      </trkpt>
      <trkpt lat="38.942636" lon="-0.201171">
        <ele>41.864</ele>
        <time>2019-06-15T12:36:01Z</time>
      </trkpt>
      <trkpt lat="38.942582" lon="-0.201202">
        <ele>42.179</ele>
        <time>2019-06-15T12:36:02Z</time>
      </trkpt>
      <trkpt lat="38.942536" lon="-0.201235">
        <ele>42.348</ele>
        <time>2019-06-15T12:36:03Z</time>
      </trkpt>
      <trkpt lat="38.942477" lon="-0.201268">
        <ele>42.661</ele>
        <time>2019-06-15T12:36:04Z</time>
      </trkpt>
      <trkpt lat="38.942429" lon="-0.201306">
        <ele>43.017</ele>
        <time>2019-06-15T12:36:05Z</time>
      </trkpt>
      <trkpt lat="38.942380" lon="-0.201340">
        <ele>43.408</ele>
        <time>2019-06-15T12:36:06Z</time>
      </trkpt>
      <trkpt lat="38.942337" lon="-0.201369">
        <ele>43.887</ele>
        <time>2019-06-15T12:36:07Z</time>
      </trkpt>
      <trkpt lat="38.942281" lon="-0.201410">
        <ele>44.381</ele>
        <time>2019-06-15T12:36:08Z</time>
      </trkpt>
      <trkpt lat="38.942240" lon="-0.201459">
        <ele>44.520</ele>
        <time>2019-06-15T12:36:09Z</time>
      </trkpt>
      <trkpt lat="38.942195" lon="-0.201492">
        <ele>44.783</ele>
        <time>2019-06-15T12:36:10Z</time>
      </trkpt>
      <trkpt lat="38.942148" lon="-0.201525">
        <ele>45.035</ele>
        <time>2019-06-15T12:36:11Z</time>
      </trkpt>
      <trkpt lat="38.942100" lon="-0.201562">
        <ele>45.882</ele>
        <time>2019-06-15T12:36:12Z</time>
      </trkpt>
      <trkpt lat="38.942027" lon="-0.201641">
        <ele>48.451</ele>
        <time>2019-06-15T12:36:14Z</time>
      </trkpt>
      <trkpt lat="38.941979" lon="-0.201673">
        <ele>50.236</ele>
        <time>2019-06-15T12:36:15Z</time>
      </trkpt>
      <trkpt lat="38.941940" lon="-0.201708">
        <ele>51.852</ele>
        <time>2019-06-15T12:36:16Z</time>
      </trkpt>
      <trkpt lat="38.941867" lon="-0.201769">
        <ele>53.253</ele>
        <time>2019-06-15T12:36:18Z</time>
      </trkpt>
      <trkpt lat="38.941824" lon="-0.201802">
        <ele>53.908</ele>
        <time>2019-06-15T12:36:19Z</time>
      </trkpt>
      <trkpt lat="38.941757" lon="-0.201880">
        <ele>55.208</ele>
        <time>2019-06-15T12:36:21Z</time>
      </trkpt>
      <trkpt lat="38.941715" lon="-0.201912">
        <ele>55.678</ele>
        <time>2019-06-15T12:36:22Z</time>
      </trkpt>
      <trkpt lat="38.941674" lon="-0.201951">
        <ele>55.972</ele>
        <time>2019-06-15T12:36:23Z</time>
      </trkpt>
      <trkpt lat="38.941639" lon="-0.201988">
        <ele>54.941</ele>
        <time>2019-06-15T12:36:24Z</time>
      </trkpt>
      <trkpt lat="38.941600" lon="-0.202033">
        <ele>53.664</ele>
        <time>2019-06-15T12:36:25Z</time>
      </trkpt>
      <trkpt lat="38.941524" lon="-0.202127">
        <ele>51.146</ele>
        <time>2019-06-15T12:36:27Z</time>
      </trkpt>
      <trkpt lat="38.941481" lon="-0.202164">
        <ele>50.063</ele>
        <time>2019-06-15T12:36:28Z</time>
      </trkpt>
      <trkpt lat="38.941466" lon="-0.202226">
        <ele>49.172</ele>
        <time>2019-06-15T12:36:29Z</time>
      </trkpt>
      <trkpt lat="38.941420" lon="-0.202313">
        <ele>47.487</ele>
        <time>2019-06-15T12:36:31Z</time>
      </trkpt>
      <trkpt lat="38.941394" lon="-0.202363">
        <ele>46.544</ele>
        <time>2019-06-15T12:36:32Z</time>
      </trkpt>
      <trkpt lat="38.941373" lon="-0.202416">
        <ele>45.905</ele>
        <time>2019-06-15T12:36:33Z</time>
      </trkpt>
      <trkpt lat="38.941325" lon="-0.202517">
        <ele>45.415</ele>
        <time>2019-06-15T12:36:35Z</time>
      </trkpt>
      <trkpt lat="38.941267" lon="-0.202604">
        <ele>46.208</ele>
        <time>2019-06-15T12:36:37Z</time>
      </trkpt>
      <trkpt lat="38.941227" lon="-0.202639">
        <ele>46.627</ele>
        <time>2019-06-15T12:36:38Z</time>
      </trkpt>
      <trkpt lat="38.941182" lon="-0.202661">
        <ele>46.991</ele>
        <time>2019-06-15T12:36:39Z</time>
      </trkpt>
      <trkpt lat="38.941131" lon="-0.202671">
        <ele>47.280</ele>
        <time>2019-06-15T12:36:40Z</time>
      </trkpt>
      <trkpt lat="38.941077" lon="-0.202663">
        <ele>46.913</ele>
        <time>2019-06-15T12:36:41Z</time>
      </trkpt>
      <trkpt lat="38.941024" lon="-0.202650">
        <ele>46.425</ele>
        <time>2019-06-15T12:36:42Z</time>
      </trkpt>
      <trkpt lat="38.940977" lon="-0.202645">
        <ele>46.112</ele>
        <time>2019-06-15T12:36:43Z</time>
      </trkpt>
      <trkpt lat="38.940931" lon="-0.202650">
        <ele>45.781</ele>
        <time>2019-06-15T12:36:44Z</time>
      </trkpt>
      <trkpt lat="38.940841" lon="-0.202666">
        <ele>45.186</ele>
        <time>2019-06-15T12:36:46Z</time>
      </trkpt>
      <trkpt lat="38.940796" lon="-0.202684">
        <ele>44.642</ele>
        <time>2019-06-15T12:36:47Z</time>
      </trkpt>
      <trkpt lat="38.940749" lon="-0.202701">
        <ele>44.022</ele>
        <time>2019-06-15T12:36:48Z</time>
      </trkpt>
      <trkpt lat="38.940700" lon="-0.202727">
        <ele>43.514</ele>
        <time>2019-06-15T12:36:49Z</time>
      </trkpt>
      <trkpt lat="38.940654" lon="-0.202750">
        <ele>43.008</ele>
        <time>2019-06-15T12:36:50Z</time>
      </trkpt>
      <trkpt lat="38.940608" lon="-0.202774">
        <ele>42.677</ele>
        <time>2019-06-15T12:36:51Z</time>
      </trkpt>
      <trkpt lat="38.940562" lon="-0.202801">
        <ele>42.261</ele>
        <time>2019-06-15T12:36:52Z</time>
      </trkpt>
      <trkpt lat="38.940516" lon="-0.202834">
        <ele>41.950</ele>
        <time>2019-06-15T12:36:53Z</time>
      </trkpt>
      <trkpt lat="38.940470" lon="-0.202860">
        <ele>41.863</ele>
        <time>2019-06-15T12:36:54Z</time>
      </trkpt>
      <trkpt lat="38.940398" lon="-0.202951">
        <ele>41.895</ele>
        <time>2019-06-15T12:36:56Z</time>
      </trkpt>
      <trkpt lat="38.940357" lon="-0.202987">
        <ele>41.972</ele>
        <time>2019-06-15T12:36:57Z</time>
      </trkpt>
      <trkpt lat="38.940308" lon="-0.203013">
        <ele>41.861</ele>
        <time>2019-06-15T12:36:58Z</time>
      </trkpt>
      <trkpt lat="38.940255" lon="-0.203046">
        <ele>41.996</ele>
        <time>2019-06-15T12:36:59Z</time>
      </trkpt>
      <trkpt lat="38.940210" lon="-0.203076">
        <ele>42.031</ele>
        <time>2019-06-15T12:37:00Z</time>
      </trkpt>
      <trkpt lat="38.940165" lon="-0.203104">
        <ele>42.061</ele>
        <time>2019-06-15T12:37:01Z</time>
      </trkpt>
      <trkpt lat="38.940123" lon="-0.203141">
        <ele>42.007</ele>
        <time>2019-06-15T12:37:02Z</time>
      </trkpt>
      <trkpt lat="38.940078" lon="-0.203172">
        <ele>41.808</ele>
        <time>2019-06-15T12:37:03Z</time>
      </trkpt>
      <trkpt lat="38.940028" lon="-0.203209">
        <ele>41.686</ele>
        <time>2019-06-15T12:37:04Z</time>
      </trkpt>
      <trkpt lat="38.939985" lon="-0.203242">
        <ele>41.560</ele>
        <time>2019-06-15T12:37:05Z</time>
      </trkpt>
      <trkpt lat="38.939946" lon="-0.203272">
        <ele>41.769</ele>
        <time>2019-06-15T12:37:06Z</time>
      </trkpt>
      <trkpt lat="38.939872" lon="-0.203338">
        <ele>41.932</ele>
        <time>2019-06-15T12:37:08Z</time>
      </trkpt>
      <trkpt lat="38.939832" lon="-0.203372">
        <ele>42.124</ele>
        <time>2019-06-15T12:37:09Z</time>
      </trkpt>
      <trkpt lat="38.939785" lon="-0.203413">
        <ele>42.281</ele>
        <time>2019-06-15T12:37:10Z</time>
      </trkpt>
      <trkpt lat="38.939737" lon="-0.203449">
        <ele>42.160</ele>
        <time>2019-06-15T12:37:11Z</time>
      </trkpt>
      <trkpt lat="38.939692" lon="-0.203482">
        <ele>42.015</ele>
        <time>2019-06-15T12:37:12Z</time>
      </trkpt>
      <trkpt lat="38.939648" lon="-0.203517">
        <ele>41.939</ele>
        <time>2019-06-15T12:37:13Z</time>
      </trkpt>
      <trkpt lat="38.939596" lon="-0.203552">
        <ele>41.901</ele>
        <time>2019-06-15T12:37:14Z</time>
      </trkpt>
      <trkpt lat="38.939551" lon="-0.203592">
        <ele>41.821</ele>
        <time>2019-06-15T12:37:15Z</time>
      </trkpt>
      <trkpt lat="38.939502" lon="-0.203621">
        <ele>41.808</ele>
        <time>2019-06-15T12:37:16Z</time>
      </trkpt>
      <trkpt lat="38.939456" lon="-0.203650">
        <ele>42.036</ele>
        <time>2019-06-15T12:37:17Z</time>
      </trkpt>
      <trkpt lat="38.939407" lon="-0.203690">
        <ele>42.640</ele>
        <time>2019-06-15T12:37:18Z</time>
      </trkpt>
      <trkpt lat="38.939360" lon="-0.203729">
        <ele>43.529</ele>
        <time>2019-06-15T12:37:19Z</time>
      </trkpt>
      <trkpt lat="38.939309" lon="-0.203762">
        <ele>44.542</ele>
        <time>2019-06-15T12:37:20Z</time>
      </trkpt>
      <trkpt lat="38.939261" lon="-0.203796">
        <ele>45.584</ele>
        <time>2019-06-15T12:37:21Z</time>
      </trkpt>
      <trkpt lat="38.939210" lon="-0.203835">
        <ele>46.721</ele>
        <time>2019-06-15T12:37:22Z</time>
      </trkpt>
      <trkpt lat="38.939163" lon="-0.203868">
        <ele>47.890</ele>
        <time>2019-06-15T12:37:23Z</time>
      </trkpt>
      <trkpt lat="38.939112" lon="-0.203908">
        <ele>48.165</ele>
        <time>2019-06-15T12:37:24Z</time>
      </trkpt>
      <trkpt lat="38.939069" lon="-0.203951">
        <ele>48.667</ele>
        <time>2019-06-15T12:37:25Z</time>
      </trkpt>
      <trkpt lat="38.939018" lon="-0.203988">
        <ele>49.381</ele>
        <time>2019-06-15T12:37:26Z</time>
      </trkpt>
      <trkpt lat="38.938970" lon="-0.204026">
        <ele>50.219</ele>
        <time>2019-06-15T12:37:27Z</time>
      </trkpt>
      <trkpt lat="38.938922" lon="-0.204061">
        <ele>51.308</ele>
        <time>2019-06-15T12:37:28Z</time>
      </trkpt>
      <trkpt lat="38.938862" lon="-0.204102">
        <ele>52.219</ele>
        <time>2019-06-15T12:37:29Z</time>
      </trkpt>
      <trkpt lat="38.938820" lon="-0.204139">
        <ele>52.283</ele>
        <time>2019-06-15T12:37:30Z</time>
      </trkpt>
      <trkpt lat="38.938774" lon="-0.204174">
        <ele>51.912</ele>
        <time>2019-06-15T12:37:31Z</time>
      </trkpt>
      <trkpt lat="38.938732" lon="-0.204209">
        <ele>51.375</ele>
        <time>2019-06-15T12:37:32Z</time>
      </trkpt>
      <trkpt lat="38.938688" lon="-0.204245">
        <ele>50.617</ele>
        <time>2019-06-15T12:37:33Z</time>
      </trkpt>
      <trkpt lat="38.938629" lon="-0.204284">
        <ele>49.734</ele>
        <time>2019-06-15T12:37:34Z</time>
      </trkpt>
      <trkpt lat="38.938581" lon="-0.204317">
        <ele>49.373</ele>
        <time>2019-06-15T12:37:35Z</time>
      </trkpt>
      <trkpt lat="38.938535" lon="-0.204344">
        <ele>48.988</ele>
        <time>2019-06-15T12:37:36Z</time>
      </trkpt>
      <trkpt lat="38.938486" lon="-0.204379">
        <ele>48.594</ele>
        <time>2019-06-15T12:37:37Z</time>
      </trkpt>
      <trkpt lat="38.938442" lon="-0.204409">
        <ele>48.157</ele>
        <time>2019-06-15T12:37:38Z</time>
      </trkpt>
      <trkpt lat="38.938395" lon="-0.204438">
        <ele>47.722</ele>
        <time>2019-06-15T12:37:39Z</time>
      </trkpt>
      <trkpt lat="38.938351" lon="-0.204466">
        <ele>47.208</ele>
        <time>2019-06-15T12:37:40Z</time>
      </trkpt>
      <trkpt lat="38.938313" lon="-0.204518">
        <ele>46.982</ele>
        <time>2019-06-15T12:37:41Z</time>
      </trkpt>
      <trkpt lat="38.938266" lon="-0.204556">
        <ele>46.566</ele>
        <time>2019-06-15T12:37:42Z</time>
      </trkpt>
      <trkpt lat="38.938227" lon="-0.204587">
        <ele>46.265</ele>
        <time>2019-06-15T12:37:43Z</time>
      </trkpt>
      <trkpt lat="38.938184" lon="-0.204620">
        <ele>45.938</ele>
        <time>2019-06-15T12:37:44Z</time>
      </trkpt>
      <trkpt lat="38.938106" lon="-0.204695">
        <ele>45.460</ele>
        <time>2019-06-15T12:37:46Z</time>
      </trkpt>
      <trkpt lat="38.938056" lon="-0.204728">
        <ele>45.097</ele>
        <time>2019-06-15T12:37:47Z</time>
      </trkpt>
      <trkpt lat="38.938011" lon="-0.204764">
        <ele>44.726</ele>
        <time>2019-06-15T12:37:48Z</time>
      </trkpt>
      <trkpt lat="38.937967" lon="-0.204815">
        <ele>44.511</ele>
        <time>2019-06-15T12:37:49Z</time>
      </trkpt>
      <trkpt lat="38.937925" lon="-0.204853">
        <ele>44.312</ele>
        <time>2019-06-15T12:37:50Z</time>
      </trkpt>
      <trkpt lat="38.937883" lon="-0.204890">
        <ele>44.132</ele>
        <time>2019-06-15T12:37:51Z</time>
      </trkpt>
      <trkpt lat="38.937836" lon="-0.204932">
        <ele>44.105</ele>
        <time>2019-06-15T12:37:52Z</time>
      </trkpt>
      <trkpt lat="38.937788" lon="-0.204968">
        <ele>44.008</ele>
        <time>2019-06-15T12:37:53Z</time>
      </trkpt>
      <trkpt lat="38.937743" lon="-0.205017">
        <ele>44.134</ele>
        <time>2019-06-15T12:37:54Z</time>
      </trkpt>
      <trkpt lat="38.937701" lon="-0.205070">
        <ele>44.388</ele>
        <time>2019-06-15T12:37:55Z</time>
      </trkpt>
      <trkpt lat="38.937658" lon="-0.205122">
        <ele>44.617</ele>
        <time>2019-06-15T12:37:56Z</time>
      </trkpt>
      <trkpt lat="38.937610" lon="-0.205172">
        <ele>45.010</ele>
        <time>2019-06-15T12:37:57Z</time>
      </trkpt>
      <trkpt lat="38.937583" lon="-0.205226">
        <ele>45.392</ele>
        <time>2019-06-15T12:37:58Z</time>
      </trkpt>
      <trkpt lat="38.937531" lon="-0.205270">
        <ele>45.869</ele>
        <time>2019-06-15T12:37:59Z</time>
      </trkpt>
      <trkpt lat="38.937481" lon="-0.205315">
        <ele>46.058</ele>
        <time>2019-06-15T12:38:00Z</time>
      </trkpt>
      <trkpt lat="38.937461" lon="-0.205372">
        <ele>46.033</ele>
        <time>2019-06-15T12:38:01Z</time>
      </trkpt>
      <trkpt lat="38.937421" lon="-0.205430">
        <ele>46.082</ele>
        <time>2019-06-15T12:38:02Z</time>
      </trkpt>
      <trkpt lat="38.937385" lon="-0.205478">
        <ele>46.243</ele>
        <time>2019-06-15T12:38:03Z</time>
      </trkpt>
      <trkpt lat="38.937350" lon="-0.205536">
        <ele>46.517</ele>
        <time>2019-06-15T12:38:04Z</time>
      </trkpt>
      <trkpt lat="38.937308" lon="-0.205584">
        <ele>46.708</ele>
        <time>2019-06-15T12:38:05Z</time>
      </trkpt>
      <trkpt lat="38.937261" lon="-0.205633">
        <ele>46.831</ele>
        <time>2019-06-15T12:38:06Z</time>
      </trkpt>
      <trkpt lat="38.937215" lon="-0.205680">
        <ele>47.015</ele>
        <time>2019-06-15T12:38:07Z</time>
      </trkpt>
      <trkpt lat="38.937167" lon="-0.205728">
        <ele>46.954</ele>
        <time>2019-06-15T12:38:08Z</time>
      </trkpt>
      <trkpt lat="38.937124" lon="-0.205772">
        <ele>46.947</ele>
        <time>2019-06-15T12:38:09Z</time>
      </trkpt>
      <trkpt lat="38.937086" lon="-0.205823">
        <ele>47.099</ele>
        <time>2019-06-15T12:38:10Z</time>
      </trkpt>
      <trkpt lat="38.937052" lon="-0.205874">
        <ele>46.986</ele>
        <time>2019-06-15T12:38:11Z</time>
      </trkpt>
      <trkpt lat="38.937019" lon="-0.205923">
        <ele>46.715</ele>
        <time>2019-06-15T12:38:12Z</time>
      </trkpt>
      <trkpt lat="38.937014" lon="-0.205984">
        <ele>46.550</ele>
        <time>2019-06-15T12:38:13Z</time>
      </trkpt>
      <trkpt lat="38.936949" lon="-0.206081">
        <ele>46.123</ele>
        <time>2019-06-15T12:38:15Z</time>
      </trkpt>
      <trkpt lat="38.936926" lon="-0.206150">
        <ele>45.783</ele>
        <time>2019-06-15T12:38:16Z</time>
      </trkpt>
      <trkpt lat="38.936877" lon="-0.206255">
        <ele>45.211</ele>
        <time>2019-06-15T12:38:18Z</time>
      </trkpt>
      <trkpt lat="38.936847" lon="-0.206311">
        <ele>45.108</ele>
        <time>2019-06-15T12:38:19Z</time>
      </trkpt>
      <trkpt lat="38.936817" lon="-0.206364">
        <ele>45.055</ele>
        <time>2019-06-15T12:38:20Z</time>
      </trkpt>
      <trkpt lat="38.936782" lon="-0.206420">
        <ele>45.199</ele>
        <time>2019-06-15T12:38:21Z</time>
      </trkpt>
      <trkpt lat="38.936756" lon="-0.206489">
        <ele>45.438</ele>
        <time>2019-06-15T12:38:22Z</time>
      </trkpt>
      <trkpt lat="38.936695" lon="-0.206590">
        <ele>45.711</ele>
        <time>2019-06-15T12:38:24Z</time>
      </trkpt>
      <trkpt lat="38.936659" lon="-0.206642">
        <ele>45.983</ele>
        <time>2019-06-15T12:38:25Z</time>
      </trkpt>
      <trkpt lat="38.936628" lon="-0.206698">
        <ele>46.090</ele>
        <time>2019-06-15T12:38:26Z</time>
      </trkpt>
      <trkpt lat="38.936607" lon="-0.206750">
        <ele>46.199</ele>
        <time>2019-06-15T12:38:27Z</time>
      </trkpt>
      <trkpt lat="38.936585" lon="-0.206813">
        <ele>46.394</ele>
        <time>2019-06-15T12:38:28Z</time>
      </trkpt>
      <trkpt lat="38.936562" lon="-0.206875">
        <ele>46.678</ele>
        <time>2019-06-15T12:38:29Z</time>
      </trkpt>
      <trkpt lat="38.936543" lon="-0.206937">
        <ele>46.933</ele>
        <time>2019-06-15T12:38:30Z</time>
      </trkpt>
      <trkpt lat="38.936512" lon="-0.206994">
        <ele>47.326</ele>
        <time>2019-06-15T12:38:31Z</time>
      </trkpt>
      <trkpt lat="38.936483" lon="-0.207062">
        <ele>47.708</ele>
        <time>2019-06-15T12:38:32Z</time>
      </trkpt>
      <trkpt lat="38.936465" lon="-0.207121">
        <ele>48.150</ele>
        <time>2019-06-15T12:38:33Z</time>
      </trkpt>
      <trkpt lat="38.936432" lon="-0.207182">
        <ele>48.554</ele>
        <time>2019-06-15T12:38:34Z</time>
      </trkpt>
      <trkpt lat="38.936401" lon="-0.207242">
        <ele>49.153</ele>
        <time>2019-06-15T12:38:35Z</time>
      </trkpt>
      <trkpt lat="38.936381" lon="-0.207306">
        <ele>49.736</ele>
        <time>2019-06-15T12:38:36Z</time>
      </trkpt>
      <trkpt lat="38.936350" lon="-0.207363">
        <ele>50.358</ele>
        <time>2019-06-15T12:38:37Z</time>
      </trkpt>
      <trkpt lat="38.936331" lon="-0.207420">
        <ele>50.895</ele>
        <time>2019-06-15T12:38:38Z</time>
      </trkpt>
      <trkpt lat="38.936307" lon="-0.207478">
        <ele>51.244</ele>
        <time>2019-06-15T12:38:39Z</time>
      </trkpt>
      <trkpt lat="38.936278" lon="-0.207523">
        <ele>51.569</ele>
        <time>2019-06-15T12:38:40Z</time>
      </trkpt>
      <trkpt lat="38.936254" lon="-0.207585">
        <ele>51.741</ele>
        <time>2019-06-15T12:38:41Z</time>
      </trkpt>
      <trkpt lat="38.936224" lon="-0.207644">
        <ele>51.781</ele>
        <time>2019-06-15T12:38:42Z</time>
      </trkpt>
      <trkpt lat="38.936201" lon="-0.207700">
        <ele>51.709</ele>
        <time>2019-06-15T12:38:43Z</time>
      </trkpt>
      <trkpt lat="38.936177" lon="-0.207758">
        <ele>51.508</ele>
        <time>2019-06-15T12:38:44Z</time>
      </trkpt>
      <trkpt lat="38.936152" lon="-0.207818">
        <ele>51.247</ele>
        <time>2019-06-15T12:38:45Z</time>
      </trkpt>
      <trkpt lat="38.936130" lon="-0.207871">
        <ele>50.851</ele>
        <time>2019-06-15T12:38:46Z</time>
      </trkpt>
      <trkpt lat="38.936106" lon="-0.207929">
        <ele>50.440</ele>
        <time>2019-06-15T12:38:47Z</time>
      </trkpt>
      <trkpt lat="38.936077" lon="-0.207988">
        <ele>50.163</ele>
        <time>2019-06-15T12:38:48Z</time>
      </trkpt>
      <trkpt lat="38.936054" lon="-0.208046">
        <ele>49.815</ele>
        <time>2019-06-15T12:38:49Z</time>
      </trkpt>
      <trkpt lat="38.936032" lon="-0.208099">
        <ele>49.752</ele>
        <time>2019-06-15T12:38:50Z</time>
      </trkpt>
      <trkpt lat="38.936014" lon="-0.208160">
        <ele>49.641</ele>
        <time>2019-06-15T12:38:51Z</time>
      </trkpt>
      <trkpt lat="38.935991" lon="-0.208213">
        <ele>49.646</ele>
        <time>2019-06-15T12:38:52Z</time>
      </trkpt>
      <trkpt lat="38.935968" lon="-0.208266">
        <ele>49.534</ele>
        <time>2019-06-15T12:38:53Z</time>
      </trkpt>
      <trkpt lat="38.935942" lon="-0.208317">
        <ele>49.455</ele>
        <time>2019-06-15T12:38:54Z</time>
      </trkpt>
      <trkpt lat="38.935904" lon="-0.208405">
        <ele>49.510</ele>
        <time>2019-06-15T12:38:56Z</time>
      </trkpt>
      <trkpt lat="38.935860" lon="-0.208501">
        <ele>49.708</ele>
        <time>2019-06-15T12:38:58Z</time>
      </trkpt>
      <trkpt lat="38.935821" lon="-0.208590">
        <ele>49.986</ele>
        <time>2019-06-15T12:39:00Z</time>
      </trkpt>
      <trkpt lat="38.935793" lon="-0.208691">
        <ele>50.310</ele>
        <time>2019-06-15T12:39:02Z</time>
      </trkpt>
      <trkpt lat="38.935741" lon="-0.208774">
        <ele>50.579</ele>
        <time>2019-06-15T12:39:04Z</time>
      </trkpt>
      <trkpt lat="38.935696" lon="-0.208877">
        <ele>50.522</ele>
        <time>2019-06-15T12:39:06Z</time>
      </trkpt>
      <trkpt lat="38.935662" lon="-0.208923">
        <ele>50.544</ele>
        <time>2019-06-15T12:39:07Z</time>
      </trkpt>
      <trkpt lat="38.935638" lon="-0.208976">
        <ele>50.651</ele>
        <time>2019-06-15T12:39:08Z</time>
      </trkpt>
      <trkpt lat="38.935602" lon="-0.209079">
        <ele>50.660</ele>
        <time>2019-06-15T12:39:10Z</time>
      </trkpt>
      <trkpt lat="38.935566" lon="-0.209182">
        <ele>50.495</ele>
        <time>2019-06-15T12:39:12Z</time>
      </trkpt>
      <trkpt lat="38.935521" lon="-0.209277">
        <ele>50.635</ele>
        <time>2019-06-15T12:39:14Z</time>
      </trkpt>
      <trkpt lat="38.935476" lon="-0.209373">
        <ele>50.886</ele>
        <time>2019-06-15T12:39:16Z</time>
      </trkpt>
      <trkpt lat="38.935433" lon="-0.209474">
        <ele>51.014</ele>
        <time>2019-06-15T12:39:18Z</time>
      </trkpt>
      <trkpt lat="38.935409" lon="-0.209529">
        <ele>51.208</ele>
        <time>2019-06-15T12:39:19Z</time>
      </trkpt>
      <trkpt lat="38.935378" lon="-0.209580">
        <ele>51.116</ele>
        <time>2019-06-15T12:39:20Z</time>
      </trkpt>
      <trkpt lat="38.935345" lon="-0.209636">
        <ele>50.960</ele>
        <time>2019-06-15T12:39:21Z</time>
      </trkpt>
      <trkpt lat="38.935299" lon="-0.209726">
        <ele>50.569</ele>
        <time>2019-06-15T12:39:23Z</time>
      </trkpt>
      <trkpt lat="38.935286" lon="-0.209786">
        <ele>50.432</ele>
        <time>2019-06-15T12:39:24Z</time>
      </trkpt>
      <trkpt lat="38.935262" lon="-0.209841">
        <ele>50.394</ele>
        <time>2019-06-15T12:39:25Z</time>
      </trkpt>
      <trkpt lat="38.935219" lon="-0.209950">
        <ele>50.341</ele>
        <time>2019-06-15T12:39:27Z</time>
      </trkpt>
      <trkpt lat="38.935209" lon="-0.210020">
        <ele>50.460</ele>
        <time>2019-06-15T12:39:28Z</time>
      </trkpt>
      <trkpt lat="38.935187" lon="-0.210073">
        <ele>50.555</ele>
        <time>2019-06-15T12:39:29Z</time>
      </trkpt>
      <trkpt lat="38.935148" lon="-0.210172">
        <ele>50.521</ele>
        <time>2019-06-15T12:39:31Z</time>
      </trkpt>
      <trkpt lat="38.935118" lon="-0.210241">
        <ele>50.541</ele>
        <time>2019-06-15T12:39:32Z</time>
      </trkpt>
      <trkpt lat="38.935098" lon="-0.210303">
        <ele>50.605</ele>
        <time>2019-06-15T12:39:33Z</time>
      </trkpt>
      <trkpt lat="38.935059" lon="-0.210389">
        <ele>50.808</ele>
        <time>2019-06-15T12:39:35Z</time>
      </trkpt>
      <trkpt lat="38.935033" lon="-0.210449">
        <ele>51.125</ele>
        <time>2019-06-15T12:39:36Z</time>
      </trkpt>
      <trkpt lat="38.935009" lon="-0.210505">
        <ele>51.569</ele>
        <time>2019-06-15T12:39:37Z</time>
      </trkpt>
      <trkpt lat="38.934976" lon="-0.210611">
        <ele>52.038</ele>
        <time>2019-06-15T12:39:39Z</time>
      </trkpt>
      <trkpt lat="38.934956" lon="-0.210670">
        <ele>52.071</ele>
        <time>2019-06-15T12:39:40Z</time>
      </trkpt>
      <trkpt lat="38.934940" lon="-0.210789">
        <ele>52.493</ele>
        <time>2019-06-15T12:39:42Z</time>
      </trkpt>
      <trkpt lat="38.934963" lon="-0.210897">
        <ele>53.090</ele>
        <time>2019-06-15T12:39:44Z</time>
      </trkpt>
      <trkpt lat="38.934970" lon="-0.210963">
        <ele>53.369</ele>
        <time>2019-06-15T12:39:45Z</time>
      </trkpt>
      <trkpt lat="38.934969" lon="-0.211026">
        <ele>53.594</ele>
        <time>2019-06-15T12:39:46Z</time>
      </trkpt>
      <trkpt lat="38.934962" lon="-0.211095">
        <ele>53.767</ele>
        <time>2019-06-15T12:39:47Z</time>
      </trkpt>
      <trkpt lat="38.934948" lon="-0.211159">
        <ele>53.681</ele>
        <time>2019-06-15T12:39:48Z</time>
      </trkpt>
      <trkpt lat="38.934896" lon="-0.211262">
        <ele>53.319</ele>
        <time>2019-06-15T12:39:50Z</time>
      </trkpt>
      <trkpt lat="38.934859" lon="-0.211301">
        <ele>53.008</ele>
        <time>2019-06-15T12:39:51Z</time>
      </trkpt>
      <trkpt lat="38.934805" lon="-0.211335">
        <ele>52.669</ele>
        <time>2019-06-15T12:39:52Z</time>
      </trkpt>
      <trkpt lat="38.934757" lon="-0.211352">
        <ele>52.273</ele>
        <time>2019-06-15T12:39:53Z</time>
      </trkpt>
      <trkpt lat="38.934708" lon="-0.211382">
        <ele>52.072</ele>
        <time>2019-06-15T12:39:54Z</time>
      </trkpt>
      <trkpt lat="38.934665" lon="-0.211413">
        <ele>52.085</ele>
        <time>2019-06-15T12:39:55Z</time>
      </trkpt>
      <trkpt lat="38.934627" lon="-0.211457">
        <ele>52.067</ele>
        <time>2019-06-15T12:39:56Z</time>
      </trkpt>
      <trkpt lat="38.934588" lon="-0.211508">
        <ele>52.044</ele>
        <time>2019-06-15T12:39:57Z</time>
      </trkpt>
      <trkpt lat="38.934547" lon="-0.211555">
        <ele>52.053</ele>
        <time>2019-06-15T12:39:58Z</time>
      </trkpt>
      <trkpt lat="38.934516" lon="-0.211616">
        <ele>52.048</ele>
        <time>2019-06-15T12:39:59Z</time>
      </trkpt>
      <trkpt lat="38.934498" lon="-0.211679">
        <ele>52.016</ele>
        <time>2019-06-15T12:40:00Z</time>
      </trkpt>
      <trkpt lat="38.934469" lon="-0.211728">
        <ele>51.876</ele>
        <time>2019-06-15T12:40:01Z</time>
      </trkpt>
      <trkpt lat="38.934441" lon="-0.211781">
        <ele>51.613</ele>
        <time>2019-06-15T12:40:02Z</time>
      </trkpt>
      <trkpt lat="38.934425" lon="-0.211844">
        <ele>51.308</ele>
        <time>2019-06-15T12:40:03Z</time>
      </trkpt>
      <trkpt lat="38.934399" lon="-0.211892">
        <ele>51.024</ele>
        <time>2019-06-15T12:40:04Z</time>
      </trkpt>
      <trkpt lat="38.934374" lon="-0.211948">
        <ele>50.778</ele>
        <time>2019-06-15T12:40:05Z</time>
      </trkpt>
      <trkpt lat="38.934329" lon="-0.212039">
        <ele>50.017</ele>
        <time>2019-06-15T12:40:07Z</time>
      </trkpt>
      <trkpt lat="38.934294" lon="-0.212101">
        <ele>49.680</ele>
        <time>2019-06-15T12:40:08Z</time>
      </trkpt>
      <trkpt lat="38.934270" lon="-0.212155">
        <ele>49.312</ele>
        <time>2019-06-15T12:40:09Z</time>
      </trkpt>
      <trkpt lat="38.934263" lon="-0.212240">
        <ele>48.949</ele>
        <time>2019-06-15T12:40:10Z</time>
      </trkpt>
      <trkpt lat="38.934244" lon="-0.212299">
        <ele>48.768</ele>
        <time>2019-06-15T12:40:11Z</time>
      </trkpt>
      <trkpt lat="38.934214" lon="-0.212356">
        <ele>48.513</ele>
        <time>2019-06-15T12:40:12Z</time>
      </trkpt>
      <trkpt lat="38.934180" lon="-0.212408">
        <ele>48.394</ele>
        <time>2019-06-15T12:40:13Z</time>
      </trkpt>
      <trkpt lat="38.934172" lon="-0.212474">
        <ele>48.157</ele>
        <time>2019-06-15T12:40:14Z</time>
      </trkpt>
      <trkpt lat="38.934141" lon="-0.212521">
        <ele>48.322</ele>
        <time>2019-06-15T12:40:15Z</time>
      </trkpt>
      <trkpt lat="38.934107" lon="-0.212574">
        <ele>48.708</ele>
        <time>2019-06-15T12:40:16Z</time>
      </trkpt>
      <trkpt lat="38.934083" lon="-0.212628">
        <ele>49.142</ele>
        <time>2019-06-15T12:40:17Z</time>
      </trkpt>
      <trkpt lat="38.934057" lon="-0.212695">
        <ele>49.576</ele>
        <time>2019-06-15T12:40:18Z</time>
      </trkpt>
      <trkpt lat="38.934027" lon="-0.212757">
        <ele>49.915</ele>
        <time>2019-06-15T12:40:19Z</time>
      </trkpt>
      <trkpt lat="38.933998" lon="-0.212813">
        <ele>50.458</ele>
        <time>2019-06-15T12:40:20Z</time>
      </trkpt>
      <trkpt lat="38.933969" lon="-0.212868">
        <ele>50.870</ele>
        <time>2019-06-15T12:40:21Z</time>
      </trkpt>
      <trkpt lat="38.933913" lon="-0.212973">
        <ele>51.657</ele>
        <time>2019-06-15T12:40:23Z</time>
      </trkpt>
      <trkpt lat="38.933895" lon="-0.213032">
        <ele>51.996</ele>
        <time>2019-06-15T12:40:24Z</time>
      </trkpt>
      <trkpt lat="38.933876" lon="-0.213090">
        <ele>52.051</ele>
        <time>2019-06-15T12:40:25Z</time>
      </trkpt>
      <trkpt lat="38.933850" lon="-0.213149">
        <ele>52.177</ele>
        <time>2019-06-15T12:40:26Z</time>
      </trkpt>
      <trkpt lat="38.933826" lon="-0.213206">
        <ele>52.161</ele>
        <time>2019-06-15T12:40:27Z</time>
      </trkpt>
      <trkpt lat="38.933798" lon="-0.213255">
        <ele>52.127</ele>
        <time>2019-06-15T12:40:28Z</time>
      </trkpt>
      <trkpt lat="38.933781" lon="-0.213315">
        <ele>52.208</ele>
        <time>2019-06-15T12:40:29Z</time>
      </trkpt>
      <trkpt lat="38.933756" lon="-0.213372">
        <ele>52.220</ele>
        <time>2019-06-15T12:40:30Z</time>
      </trkpt>
      <trkpt lat="38.933734" lon="-0.213424">
        <ele>52.244</ele>
        <time>2019-06-15T12:40:31Z</time>
      </trkpt>
      <trkpt lat="38.933705" lon="-0.213475">
        <ele>52.293</ele>
        <time>2019-06-15T12:40:32Z</time>
      </trkpt>
      <trkpt lat="38.933682" lon="-0.213533">
        <ele>52.246</ele>
        <time>2019-06-15T12:40:33Z</time>
      </trkpt>
      <trkpt lat="38.933656" lon="-0.213591">
        <ele>52.398</ele>
        <time>2019-06-15T12:40:34Z</time>
      </trkpt>
      <trkpt lat="38.933604" lon="-0.213712">
        <ele>52.395</ele>
        <time>2019-06-15T12:40:36Z</time>
      </trkpt>
      <trkpt lat="38.933558" lon="-0.213808">
        <ele>52.334</ele>
        <time>2019-06-15T12:40:38Z</time>
      </trkpt>
      <trkpt lat="38.933537" lon="-0.213866">
        <ele>52.419</ele>
        <time>2019-06-15T12:40:39Z</time>
      </trkpt>
      <trkpt lat="38.933512" lon="-0.213915">
        <ele>52.428</ele>
        <time>2019-06-15T12:40:40Z</time>
      </trkpt>
      <trkpt lat="38.933490" lon="-0.213976">
        <ele>52.489</ele>
        <time>2019-06-15T12:40:41Z</time>
      </trkpt>
      <trkpt lat="38.933452" lon="-0.214081">
        <ele>52.517</ele>
        <time>2019-06-15T12:40:43Z</time>
      </trkpt>
      <trkpt lat="38.933416" lon="-0.214165">
        <ele>52.608</ele>
        <time>2019-06-15T12:40:45Z</time>
      </trkpt>
      <trkpt lat="38.933379" lon="-0.214255">
        <ele>52.615</ele>
        <time>2019-06-15T12:40:47Z</time>
      </trkpt>
      <trkpt lat="38.933337" lon="-0.214341">
        <ele>52.719</ele>
        <time>2019-06-15T12:40:49Z</time>
      </trkpt>
      <trkpt lat="38.933283" lon="-0.214458">
        <ele>53.098</ele>
        <time>2019-06-15T12:40:52Z</time>
      </trkpt>
      <trkpt lat="38.933257" lon="-0.214523">
        <ele>53.011</ele>
        <time>2019-06-15T12:40:53Z</time>
      </trkpt>
      <trkpt lat="38.933213" lon="-0.214614">
        <ele>53.073</ele>
        <time>2019-06-15T12:40:55Z</time>
      </trkpt>
      <trkpt lat="38.933183" lon="-0.214702">
        <ele>53.070</ele>
        <time>2019-06-15T12:40:57Z</time>
      </trkpt>
      <trkpt lat="38.933157" lon="-0.214750">
        <ele>53.069</ele>
        <time>2019-06-15T12:40:58Z</time>
      </trkpt>
      <trkpt lat="38.933133" lon="-0.214816">
        <ele>53.124</ele>
        <time>2019-06-15T12:41:00Z</time>
      </trkpt>
      <trkpt lat="38.933114" lon="-0.214879">
        <ele>53.112</ele>
        <time>2019-06-15T12:41:01Z</time>
      </trkpt>
      <trkpt lat="38.933084" lon="-0.214932">
        <ele>53.132</ele>
        <time>2019-06-15T12:41:03Z</time>
      </trkpt>
      <trkpt lat="38.933055" lon="-0.214999">
        <ele>53.005</ele>
        <time>2019-06-15T12:41:05Z</time>
      </trkpt>
      <trkpt lat="38.933021" lon="-0.215074">
        <ele>54.008</ele>
        <time>2019-06-15T12:41:07Z</time>
      </trkpt>
      <trkpt lat="38.932995" lon="-0.215135">
        <ele>54.864</ele>
        <time>2019-06-15T12:41:09Z</time>
      </trkpt>
      <trkpt lat="38.932967" lon="-0.215207">
        <ele>55.758</ele>
        <time>2019-06-15T12:41:11Z</time>
      </trkpt>
      <trkpt lat="38.932935" lon="-0.215287">
        <ele>56.787</ele>
        <time>2019-06-15T12:41:13Z</time>
      </trkpt>
      <trkpt lat="38.932903" lon="-0.215362">
        <ele>57.750</ele>
        <time>2019-06-15T12:41:15Z</time>
      </trkpt>
      <trkpt lat="38.932875" lon="-0.215428">
        <ele>58.592</ele>
        <time>2019-06-15T12:41:17Z</time>
      </trkpt>
      <trkpt lat="38.932847" lon="-0.215508">
        <ele>59.679</ele>
        <time>2019-06-15T12:41:19Z</time>
      </trkpt>
      <trkpt lat="38.932831" lon="-0.215581">
        <ele>60.578</ele>
        <time>2019-06-15T12:41:21Z</time>
      </trkpt>
      <trkpt lat="38.932833" lon="-0.215671">
        <ele>61.523</ele>
        <time>2019-06-15T12:41:23Z</time>
      </trkpt>
      <trkpt lat="38.932846" lon="-0.215740">
        <ele>62.463</ele>
        <time>2019-06-15T12:41:25Z</time>
      </trkpt>
      <trkpt lat="38.932868" lon="-0.215830">
        <ele>63.644</ele>
        <time>2019-06-15T12:41:26Z</time>
      </trkpt>
      <trkpt lat="38.932882" lon="-0.215921">
        <ele>64.418</ele>
        <time>2019-06-15T12:41:28Z</time>
      </trkpt>
      <trkpt lat="38.932870" lon="-0.216007">
        <ele>64.908</ele>
        <time>2019-06-15T12:41:31Z</time>
      </trkpt>
      <trkpt lat="38.932838" lon="-0.216117">
        <ele>65.449</ele>
        <time>2019-06-15T12:41:33Z</time>
      </trkpt>
      <trkpt lat="38.932808" lon="-0.216166">
        <ele>64.753</ele>
        <time>2019-06-15T12:41:34Z</time>
      </trkpt>
      <trkpt lat="38.932773" lon="-0.216216">
        <ele>63.872</ele>
        <time>2019-06-15T12:41:35Z</time>
      </trkpt>
      <trkpt lat="38.932737" lon="-0.216259">
        <ele>63.255</ele>
        <time>2019-06-15T12:41:36Z</time>
      </trkpt>
      <trkpt lat="38.932693" lon="-0.216296">
        <ele>62.687</ele>
        <time>2019-06-15T12:41:37Z</time>
      </trkpt>
      <trkpt lat="38.932647" lon="-0.216319">
        <ele>62.254</ele>
        <time>2019-06-15T12:41:38Z</time>
      </trkpt>
      <trkpt lat="38.932600" lon="-0.216339">
        <ele>61.813</ele>
        <time>2019-06-15T12:41:39Z</time>
      </trkpt>
      <trkpt lat="38.932551" lon="-0.216346">
        <ele>61.528</ele>
        <time>2019-06-15T12:41:40Z</time>
      </trkpt>
      <trkpt lat="38.932498" lon="-0.216352">
        <ele>61.231</ele>
        <time>2019-06-15T12:41:41Z</time>
      </trkpt>
      <trkpt lat="38.932406" lon="-0.216390">
        <ele>59.061</ele>
        <time>2019-06-15T12:41:43Z</time>
      </trkpt>
      <trkpt lat="38.932365" lon="-0.216428">
        <ele>57.407</ele>
        <time>2019-06-15T12:41:44Z</time>
      </trkpt>
      <trkpt lat="38.932318" lon="-0.216463">
        <ele>56.008</ele>
        <time>2019-06-15T12:41:45Z</time>
      </trkpt>
      <trkpt lat="38.932278" lon="-0.216503">
        <ele>54.776</ele>
        <time>2019-06-15T12:41:46Z</time>
      </trkpt>
      <trkpt lat="38.932234" lon="-0.216554">
        <ele>53.480</ele>
        <time>2019-06-15T12:41:47Z</time>
      </trkpt>
      <trkpt lat="38.932197" lon="-0.216600">
        <ele>52.459</ele>
        <time>2019-06-15T12:41:48Z</time>
      </trkpt>
      <trkpt lat="38.932164" lon="-0.216654">
        <ele>51.322</ele>
        <time>2019-06-15T12:41:49Z</time>
      </trkpt>
      <trkpt lat="38.932130" lon="-0.216718">
        <ele>49.924</ele>
        <time>2019-06-15T12:41:50Z</time>
      </trkpt>
      <trkpt lat="38.932101" lon="-0.216781">
        <ele>48.791</ele>
        <time>2019-06-15T12:41:51Z</time>
      </trkpt>
      <trkpt lat="38.932064" lon="-0.216844">
        <ele>47.720</ele>
        <time>2019-06-15T12:41:52Z</time>
      </trkpt>
      <trkpt lat="38.932028" lon="-0.216910">
        <ele>47.045</ele>
        <time>2019-06-15T12:41:53Z</time>
      </trkpt>
      <trkpt lat="38.931987" lon="-0.216976">
        <ele>46.548</ele>
        <time>2019-06-15T12:41:54Z</time>
      </trkpt>
      <trkpt lat="38.931950" lon="-0.217039">
        <ele>46.061</ele>
        <time>2019-06-15T12:41:55Z</time>
      </trkpt>
      <trkpt lat="38.931910" lon="-0.217109">
        <ele>45.217</ele>
        <time>2019-06-15T12:41:56Z</time>
      </trkpt>
      <trkpt lat="38.931869" lon="-0.217174">
        <ele>44.708</ele>
        <time>2019-06-15T12:41:57Z</time>
      </trkpt>
      <trkpt lat="38.931828" lon="-0.217238">
        <ele>44.447</ele>
        <time>2019-06-15T12:41:58Z</time>
      </trkpt>
      <trkpt lat="38.931787" lon="-0.217305">
        <ele>44.461</ele>
        <time>2019-06-15T12:41:59Z</time>
      </trkpt>
      <trkpt lat="38.931758" lon="-0.217372">
        <ele>44.590</ele>
        <time>2019-06-15T12:42:00Z</time>
      </trkpt>
      <trkpt lat="38.931725" lon="-0.217440">
        <ele>44.653</ele>
        <time>2019-06-15T12:42:01Z</time>
      </trkpt>
      <trkpt lat="38.931684" lon="-0.217504">
        <ele>44.925</ele>
        <time>2019-06-15T12:42:02Z</time>
      </trkpt>
      <trkpt lat="38.931647" lon="-0.217573">
        <ele>44.942</ele>
        <time>2019-06-15T12:42:03Z</time>
      </trkpt>
      <trkpt lat="38.931604" lon="-0.217638">
        <ele>45.161</ele>
        <time>2019-06-15T12:42:04Z</time>
      </trkpt>
      <trkpt lat="38.931560" lon="-0.217709">
        <ele>45.376</ele>
        <time>2019-06-15T12:42:05Z</time>
      </trkpt>
      <trkpt lat="38.931516" lon="-0.217784">
        <ele>45.658</ele>
        <time>2019-06-15T12:42:06Z</time>
      </trkpt>
      <trkpt lat="38.931476" lon="-0.217857">
        <ele>46.152</ele>
        <time>2019-06-15T12:42:07Z</time>
      </trkpt>
      <trkpt lat="38.931435" lon="-0.217930">
        <ele>46.517</ele>
        <time>2019-06-15T12:42:08Z</time>
      </trkpt>
      <trkpt lat="38.931391" lon="-0.218022">
        <ele>47.008</ele>
        <time>2019-06-15T12:42:09Z</time>
      </trkpt>
      <trkpt lat="38.931352" lon="-0.218098">
        <ele>47.448</ele>
        <time>2019-06-15T12:42:10Z</time>
      </trkpt>
      <trkpt lat="38.931307" lon="-0.218177">
        <ele>47.822</ele>
        <time>2019-06-15T12:42:11Z</time>
      </trkpt>
      <trkpt lat="38.931262" lon="-0.218262">
        <ele>48.031</ele>
        <time>2019-06-15T12:42:12Z</time>
      </trkpt>
      <trkpt lat="38.931236" lon="-0.218338">
        <ele>48.134</ele>
        <time>2019-06-15T12:42:13Z</time>
      </trkpt>
      <trkpt lat="38.931196" lon="-0.218415">
        <ele>48.486</ele>
        <time>2019-06-15T12:42:14Z</time>
      </trkpt>
      <trkpt lat="38.931161" lon="-0.218493">
        <ele>48.633</ele>
        <time>2019-06-15T12:42:15Z</time>
      </trkpt>
      <trkpt lat="38.931126" lon="-0.218569">
        <ele>48.962</ele>
        <time>2019-06-15T12:42:16Z</time>
      </trkpt>
      <trkpt lat="38.931113" lon="-0.218632">
        <ele>48.997</ele>
        <time>2019-06-15T12:42:17Z</time>
      </trkpt>
      <trkpt lat="38.931093" lon="-0.218709">
        <ele>48.615</ele>
        <time>2019-06-15T12:42:18Z</time>
      </trkpt>
      <trkpt lat="38.931082" lon="-0.218819">
        <ele>48.165</ele>
        <time>2019-06-15T12:42:20Z</time>
      </trkpt>
      <trkpt lat="38.931089" lon="-0.218877">
        <ele>48.011</ele>
        <time>2019-06-15T12:42:21Z</time>
      </trkpt>
      <trkpt lat="38.931112" lon="-0.218937">
        <ele>47.808</ele>
        <time>2019-06-15T12:42:22Z</time>
      </trkpt>
      <trkpt lat="38.931116" lon="-0.219003">
        <ele>47.694</ele>
        <time>2019-06-15T12:42:23Z</time>
      </trkpt>
      <trkpt lat="38.931134" lon="-0.219077">
        <ele>47.268</ele>
        <time>2019-06-15T12:42:25Z</time>
      </trkpt>
      <trkpt lat="38.931129" lon="-0.219148">
        <ele>47.047</ele>
        <time>2019-06-15T12:43:21Z</time>
      </trkpt>
      <trkpt lat="38.931030" lon="-0.219223">
        <ele>46.490</ele>
        <time>2019-06-15T12:43:23Z</time>
      </trkpt>
      <trkpt lat="38.930972" lon="-0.219282">
        <ele>46.052</ele>
        <time>2019-06-15T12:43:25Z</time>
      </trkpt>
      <trkpt lat="38.930927" lon="-0.219289">
        <ele>45.799</ele>
        <time>2019-06-15T12:43:26Z</time>
      </trkpt>
      <trkpt lat="38.930873" lon="-0.219282">
        <ele>45.398</ele>
        <time>2019-06-15T12:43:27Z</time>
      </trkpt>
      <trkpt lat="38.930797" lon="-0.219251">
        <ele>44.733</ele>
        <time>2019-06-15T12:43:29Z</time>
      </trkpt>
      <trkpt lat="38.930746" lon="-0.219236">
        <ele>44.438</ele>
        <time>2019-06-15T12:43:30Z</time>
      </trkpt>
      <trkpt lat="38.930700" lon="-0.219219">
        <ele>44.070</ele>
        <time>2019-06-15T12:43:31Z</time>
      </trkpt>
      <trkpt lat="38.930642" lon="-0.219211">
        <ele>43.617</ele>
        <time>2019-06-15T12:43:32Z</time>
      </trkpt>
      <trkpt lat="38.930579" lon="-0.219197">
        <ele>43.208</ele>
        <time>2019-06-15T12:43:33Z</time>
      </trkpt>
      <trkpt lat="38.930504" lon="-0.219184">
        <ele>42.896</ele>
        <time>2019-06-15T12:43:34Z</time>
      </trkpt>
      <trkpt lat="38.930431" lon="-0.219192">
        <ele>42.650</ele>
        <time>2019-06-15T12:43:35Z</time>
      </trkpt>
      <trkpt lat="38.930366" lon="-0.219185">
        <ele>42.449</ele>
        <time>2019-06-15T12:43:36Z</time>
      </trkpt>
      <trkpt lat="38.930310" lon="-0.219181">
        <ele>42.222</ele>
        <time>2019-06-15T12:43:37Z</time>
      </trkpt>
      <trkpt lat="38.930244" lon="-0.219183">
        <ele>42.414</ele>
        <time>2019-06-15T12:43:38Z</time>
      </trkpt>
      <trkpt lat="38.930183" lon="-0.219174">
        <ele>42.881</ele>
        <time>2019-06-15T12:43:39Z</time>
      </trkpt>
      <trkpt lat="38.930122" lon="-0.219178">
        <ele>43.220</ele>
        <time>2019-06-15T12:43:40Z</time>
      </trkpt>
      <trkpt lat="38.930073" lon="-0.219192">
        <ele>43.835</ele>
        <time>2019-06-15T12:43:41Z</time>
      </trkpt>
      <trkpt lat="38.930024" lon="-0.219204">
        <ele>44.384</ele>
        <time>2019-06-15T12:43:42Z</time>
      </trkpt>
      <trkpt lat="38.929968" lon="-0.219198">
        <ele>45.107</ele>
        <time>2019-06-15T12:43:43Z</time>
      </trkpt>
      <trkpt lat="38.929912" lon="-0.219192">
        <ele>46.217</ele>
        <time>2019-06-15T12:43:44Z</time>
      </trkpt>
      <trkpt lat="38.929858" lon="-0.219203">
        <ele>47.508</ele>
        <time>2019-06-15T12:43:45Z</time>
      </trkpt>
      <trkpt lat="38.929809" lon="-0.219218">
        <ele>48.611</ele>
        <time>2019-06-15T12:43:46Z</time>
      </trkpt>
      <trkpt lat="38.929757" lon="-0.219217">
        <ele>49.745</ele>
        <time>2019-06-15T12:43:47Z</time>
      </trkpt>
      <trkpt lat="38.929707" lon="-0.219225">
        <ele>50.624</ele>
        <time>2019-06-15T12:43:48Z</time>
      </trkpt>
      <trkpt lat="38.929659" lon="-0.219232">
        <ele>51.127</ele>
        <time>2019-06-15T12:43:49Z</time>
      </trkpt>
      <trkpt lat="38.929610" lon="-0.219247">
        <ele>51.799</ele>
        <time>2019-06-15T12:43:50Z</time>
      </trkpt>
      <trkpt lat="38.929560" lon="-0.219245">
        <ele>52.256</ele>
        <time>2019-06-15T12:43:51Z</time>
      </trkpt>
      <trkpt lat="38.929507" lon="-0.219243">
        <ele>52.755</ele>
        <time>2019-06-15T12:43:52Z</time>
      </trkpt>
      <trkpt lat="38.929457" lon="-0.219249">
        <ele>53.230</ele>
        <time>2019-06-15T12:43:53Z</time>
      </trkpt>
      <trkpt lat="38.929415" lon="-0.219278">
        <ele>53.867</ele>
        <time>2019-06-15T12:43:54Z</time>
      </trkpt>
      <trkpt lat="38.929360" lon="-0.219277">
        <ele>54.681</ele>
        <time>2019-06-15T12:43:55Z</time>
      </trkpt>
      <trkpt lat="38.929311" lon="-0.219282">
        <ele>55.319</ele>
        <time>2019-06-15T12:43:56Z</time>
      </trkpt>
      <trkpt lat="38.929256" lon="-0.219293">
        <ele>56.208</ele>
        <time>2019-06-15T12:43:57Z</time>
      </trkpt>
      <trkpt lat="38.929210" lon="-0.219310">
        <ele>56.969</ele>
        <time>2019-06-15T12:43:58Z</time>
      </trkpt>
      <trkpt lat="38.929140" lon="-0.219361">
        <ele>57.873</ele>
        <time>2019-06-15T12:44:00Z</time>
      </trkpt>
      <trkpt lat="38.929092" lon="-0.219370">
        <ele>58.132</ele>
        <time>2019-06-15T12:44:01Z</time>
      </trkpt>
      <trkpt lat="38.929001" lon="-0.219380">
        <ele>58.545</ele>
        <time>2019-06-15T12:44:03Z</time>
      </trkpt>
      <trkpt lat="38.928954" lon="-0.219372">
        <ele>58.777</ele>
        <time>2019-06-15T12:44:04Z</time>
      </trkpt>
      <trkpt lat="38.928909" lon="-0.219373">
        <ele>58.994</ele>
        <time>2019-06-15T12:44:05Z</time>
      </trkpt>
      <trkpt lat="38.928865" lon="-0.219356">
        <ele>58.973</ele>
        <time>2019-06-15T12:44:06Z</time>
      </trkpt>
      <trkpt lat="38.928776" lon="-0.219365">
        <ele>58.698</ele>
        <time>2019-06-15T12:44:08Z</time>
      </trkpt>
      <trkpt lat="38.928691" lon="-0.219381">
        <ele>58.396</ele>
        <time>2019-06-15T12:44:10Z</time>
      </trkpt>
      <trkpt lat="38.928619" lon="-0.219441">
        <ele>58.031</ele>
        <time>2019-06-15T12:44:12Z</time>
      </trkpt>
      <trkpt lat="38.928576" lon="-0.219462">
        <ele>57.924</ele>
        <time>2019-06-15T12:44:13Z</time>
      </trkpt>
      <trkpt lat="38.928544" lon="-0.219505">
        <ele>57.808</ele>
        <time>2019-06-15T12:44:14Z</time>
      </trkpt>
      <trkpt lat="38.928498" lon="-0.219526">
        <ele>57.712</ele>
        <time>2019-06-15T12:44:15Z</time>
      </trkpt>
      <trkpt lat="38.928436" lon="-0.219591">
        <ele>57.566</ele>
        <time>2019-06-15T12:44:17Z</time>
      </trkpt>
      <trkpt lat="38.928363" lon="-0.219640">
        <ele>57.335</ele>
        <time>2019-06-15T12:44:19Z</time>
      </trkpt>
      <trkpt lat="38.928285" lon="-0.219694">
        <ele>57.838</ele>
        <time>2019-06-15T12:44:21Z</time>
      </trkpt>
      <trkpt lat="38.928208" lon="-0.219739">
        <ele>58.870</ele>
        <time>2019-06-15T12:44:23Z</time>
      </trkpt>
      <trkpt lat="38.928152" lon="-0.219801">
        <ele>59.447</ele>
        <time>2019-06-15T12:44:25Z</time>
      </trkpt>
      <trkpt lat="38.928108" lon="-0.219820">
        <ele>60.066</ele>
        <time>2019-06-15T12:44:26Z</time>
      </trkpt>
      <trkpt lat="38.928089" lon="-0.219875">
        <ele>60.021</ele>
        <time>2019-06-15T12:44:27Z</time>
      </trkpt>
      <trkpt lat="38.928019" lon="-0.219931">
        <ele>60.646</ele>
        <time>2019-06-15T12:44:29Z</time>
      </trkpt>
      <trkpt lat="38.927962" lon="-0.219996">
        <ele>61.088</ele>
        <time>2019-06-15T12:44:31Z</time>
      </trkpt>
      <trkpt lat="38.927921" lon="-0.220024">
        <ele>61.516</ele>
        <time>2019-06-15T12:44:32Z</time>
      </trkpt>
      <trkpt lat="38.927861" lon="-0.220089">
        <ele>62.108</ele>
        <time>2019-06-15T12:44:34Z</time>
      </trkpt>
      <trkpt lat="38.927781" lon="-0.220148">
        <ele>63.087</ele>
        <time>2019-06-15T12:44:36Z</time>
      </trkpt>
      <trkpt lat="38.927748" lon="-0.220221">
        <ele>63.171</ele>
        <time>2019-06-15T12:44:38Z</time>
      </trkpt>
      <trkpt lat="38.927693" lon="-0.220288">
        <ele>63.390</ele>
        <time>2019-06-15T12:44:40Z</time>
      </trkpt>
      <trkpt lat="38.927628" lon="-0.220347">
        <ele>63.813</ele>
        <time>2019-06-15T12:44:42Z</time>
      </trkpt>
      <trkpt lat="38.927554" lon="-0.220391">
        <ele>64.595</ele>
        <time>2019-06-15T12:44:44Z</time>
      </trkpt>
      <trkpt lat="38.927471" lon="-0.220419">
        <ele>64.992</ele>
        <time>2019-06-15T12:44:46Z</time>
      </trkpt>
      <trkpt lat="38.927426" lon="-0.220431">
        <ele>64.781</ele>
        <time>2019-06-15T12:44:47Z</time>
      </trkpt>
      <trkpt lat="38.927337" lon="-0.220457">
        <ele>64.546</ele>
        <time>2019-06-15T12:44:49Z</time>
      </trkpt>
      <trkpt lat="38.927257" lon="-0.220484">
        <ele>64.474</ele>
        <time>2019-06-15T12:44:51Z</time>
      </trkpt>
      <trkpt lat="38.927189" lon="-0.220520">
        <ele>64.556</ele>
        <time>2019-06-15T12:44:53Z</time>
      </trkpt>
      <trkpt lat="38.927118" lon="-0.220566">
        <ele>64.721</ele>
        <time>2019-06-15T12:44:55Z</time>
      </trkpt>
      <trkpt lat="38.927038" lon="-0.220607">
        <ele>64.908</ele>
        <time>2019-06-15T12:44:57Z</time>
      </trkpt>
      <trkpt lat="38.926956" lon="-0.220646">
        <ele>65.050</ele>
        <time>2019-06-15T12:44:59Z</time>
      </trkpt>
      <trkpt lat="38.926879" lon="-0.220684">
        <ele>65.444</ele>
        <time>2019-06-15T12:45:01Z</time>
      </trkpt>
      <trkpt lat="38.926801" lon="-0.220719">
        <ele>65.723</ele>
        <time>2019-06-15T12:45:03Z</time>
      </trkpt>
      <trkpt lat="38.926727" lon="-0.220758">
        <ele>65.866</ele>
        <time>2019-06-15T12:45:05Z</time>
      </trkpt>
      <trkpt lat="38.926650" lon="-0.220813">
        <ele>66.078</ele>
        <time>2019-06-15T12:45:07Z</time>
      </trkpt>
      <trkpt lat="38.926606" lon="-0.220850">
        <ele>66.425</ele>
        <time>2019-06-15T12:45:08Z</time>
      </trkpt>
      <trkpt lat="38.926562" lon="-0.220894">
        <ele>67.074</ele>
        <time>2019-06-15T12:45:09Z</time>
      </trkpt>
      <trkpt lat="38.926527" lon="-0.220973">
        <ele>67.899</ele>
        <time>2019-06-15T12:45:11Z</time>
      </trkpt>
      <trkpt lat="38.926475" lon="-0.220990">
        <ele>68.053</ele>
        <time>2019-06-15T12:45:12Z</time>
      </trkpt>
      <trkpt lat="38.926429" lon="-0.221004">
        <ele>68.204</ele>
        <time>2019-06-15T12:45:13Z</time>
      </trkpt>
      <trkpt lat="38.926359" lon="-0.220997">
        <ele>68.114</ele>
        <time>2019-06-15T12:45:14Z</time>
      </trkpt>
      <trkpt lat="38.926308" lon="-0.221007">
        <ele>68.008</ele>
        <time>2019-06-15T12:45:15Z</time>
      </trkpt>
      <trkpt lat="38.926245" lon="-0.221033">
        <ele>67.968</ele>
        <time>2019-06-15T12:45:17Z</time>
      </trkpt>
      <trkpt lat="38.926201" lon="-0.221044">
        <ele>67.852</ele>
        <time>2019-06-15T12:45:18Z</time>
      </trkpt>
      <trkpt lat="38.926119" lon="-0.221061">
        <ele>67.781</ele>
        <time>2019-06-15T12:45:20Z</time>
      </trkpt>
      <trkpt lat="38.926039" lon="-0.221052">
        <ele>67.114</ele>
        <time>2019-06-15T12:45:22Z</time>
      </trkpt>
      <trkpt lat="38.925967" lon="-0.221061">
        <ele>66.786</ele>
        <time>2019-06-15T12:45:24Z</time>
      </trkpt>
      <trkpt lat="38.925891" lon="-0.221089">
        <ele>66.353</ele>
        <time>2019-06-15T12:45:26Z</time>
      </trkpt>
      <trkpt lat="38.925809" lon="-0.221127">
        <ele>66.342</ele>
        <time>2019-06-15T12:45:28Z</time>
      </trkpt>
      <trkpt lat="38.925727" lon="-0.221149">
        <ele>66.827</ele>
        <time>2019-06-15T12:45:30Z</time>
      </trkpt>
      <trkpt lat="38.925670" lon="-0.221163">
        <ele>67.162</ele>
        <time>2019-06-15T12:45:32Z</time>
      </trkpt>
      <trkpt lat="38.925614" lon="-0.221173">
        <ele>67.383</ele>
        <time>2019-06-15T12:45:33Z</time>
      </trkpt>
      <trkpt lat="38.925536" lon="-0.221193">
        <ele>67.711</ele>
        <time>2019-06-15T12:45:35Z</time>
      </trkpt>
      <trkpt lat="38.925481" lon="-0.221218">
        <ele>68.008</ele>
        <time>2019-06-15T12:45:37Z</time>
      </trkpt>
      <trkpt lat="38.925430" lon="-0.221243">
        <ele>68.419</ele>
        <time>2019-06-15T12:45:38Z</time>
      </trkpt>
      <trkpt lat="38.925375" lon="-0.221267">
        <ele>68.843</ele>
        <time>2019-06-15T12:45:40Z</time>
      </trkpt>
      <trkpt lat="38.925334" lon="-0.221292">
        <ele>69.162</ele>
        <time>2019-06-15T12:45:42Z</time>
      </trkpt>
      <trkpt lat="38.925289" lon="-0.221323">
        <ele>69.585</ele>
        <time>2019-06-15T12:45:44Z</time>
      </trkpt>
      <trkpt lat="38.925243" lon="-0.221355">
        <ele>69.917</ele>
        <time>2019-06-15T12:45:46Z</time>
      </trkpt>
      <trkpt lat="38.925192" lon="-0.221384">
        <ele>70.394</ele>
        <time>2019-06-15T12:45:48Z</time>
      </trkpt>
      <trkpt lat="38.925144" lon="-0.221406">
        <ele>70.613</ele>
        <time>2019-06-15T12:45:50Z</time>
      </trkpt>
      <trkpt lat="38.925098" lon="-0.221401">
        <ele>70.788</ele>
        <time>2019-06-15T12:45:53Z</time>
      </trkpt>
      <trkpt lat="38.925075" lon="-0.221350">
        <ele>70.731</ele>
        <time>2019-06-15T12:45:59Z</time>
      </trkpt>
      <trkpt lat="38.925077" lon="-0.221280">
        <ele>70.561</ele>
        <time>2019-06-15T12:46:05Z</time>
      </trkpt>
      <trkpt lat="38.925030" lon="-0.221297">
        <ele>70.807</ele>
        <time>2019-06-15T12:46:22Z</time>
      </trkpt>
      <trkpt lat="38.924996" lon="-0.221340">
        <ele>71.008</ele>
        <time>2019-06-15T12:46:24Z</time>
      </trkpt>
      <trkpt lat="38.924969" lon="-0.221390">
        <ele>71.136</ele>
        <time>2019-06-15T12:46:26Z</time>
      </trkpt>
      <trkpt lat="38.924935" lon="-0.221441">
        <ele>71.470</ele>
        <time>2019-06-15T12:46:28Z</time>
      </trkpt>
      <trkpt lat="38.924877" lon="-0.221520">
        <ele>71.739</ele>
        <time>2019-06-15T12:46:30Z</time>
      </trkpt>
      <trkpt lat="38.924819" lon="-0.221571">
        <ele>71.992</ele>
        <time>2019-06-15T12:46:32Z</time>
      </trkpt>
      <trkpt lat="38.924779" lon="-0.221599">
        <ele>72.094</ele>
        <time>2019-06-15T12:46:33Z</time>
      </trkpt>
      <trkpt lat="38.924717" lon="-0.221648">
        <ele>72.031</ele>
        <time>2019-06-15T12:46:35Z</time>
      </trkpt>
      <trkpt lat="38.924660" lon="-0.221696">
        <ele>71.810</ele>
        <time>2019-06-15T12:46:37Z</time>
      </trkpt>
      <trkpt lat="38.924570" lon="-0.221801">
        <ele>71.725</ele>
        <time>2019-06-15T12:46:39Z</time>
      </trkpt>
      <trkpt lat="38.924522" lon="-0.221852">
        <ele>71.812</ele>
        <time>2019-06-15T12:46:42Z</time>
      </trkpt>
      <trkpt lat="38.924477" lon="-0.221890">
        <ele>71.832</ele>
        <time>2019-06-15T12:46:44Z</time>
      </trkpt>
      <trkpt lat="38.924420" lon="-0.221930">
        <ele>71.905</ele>
        <time>2019-06-15T12:46:46Z</time>
      </trkpt>
      <trkpt lat="38.924367" lon="-0.221966">
        <ele>71.808</ele>
        <time>2019-06-15T12:46:48Z</time>
      </trkpt>
      <trkpt lat="38.924321" lon="-0.221999">
        <ele>71.754</ele>
        <time>2019-06-15T12:46:50Z</time>
      </trkpt>
      <trkpt lat="38.924274" lon="-0.222038">
        <ele>71.538</ele>
        <time>2019-06-15T12:46:52Z</time>
      </trkpt>
      <trkpt lat="38.924223" lon="-0.222066">
        <ele>71.387</ele>
        <time>2019-06-15T12:46:54Z</time>
      </trkpt>
      <trkpt lat="38.924167" lon="-0.222063">
        <ele>71.010</ele>
        <time>2019-06-15T12:46:56Z</time>
      </trkpt>
      <trkpt lat="38.924106" lon="-0.222023">
        <ele>70.552</ele>
        <time>2019-06-15T12:46:58Z</time>
      </trkpt>
      <trkpt lat="38.924030" lon="-0.221928">
        <ele>69.539</ele>
        <time>2019-06-15T12:46:59Z</time>
      </trkpt>
      <trkpt lat="38.924012" lon="-0.221866">
        <ele>69.218</ele>
        <time>2019-06-15T12:47:00Z</time>
      </trkpt>
      <trkpt lat="38.924000" lon="-0.221794">
        <ele>69.173</ele>
        <time>2019-06-15T12:47:01Z</time>
      </trkpt>
      <trkpt lat="38.923992" lon="-0.221727">
        <ele>69.026</ele>
        <time>2019-06-15T12:47:02Z</time>
      </trkpt>
      <trkpt lat="38.923987" lon="-0.221605">
        <ele>69.047</ele>
        <time>2019-06-15T12:47:04Z</time>
      </trkpt>
      <trkpt lat="38.923994" lon="-0.221538">
        <ele>69.011</ele>
        <time>2019-06-15T12:47:06Z</time>
      </trkpt>
      <trkpt lat="38.924017" lon="-0.221480">
        <ele>69.008</ele>
        <time>2019-06-15T12:47:08Z</time>
      </trkpt>
      <trkpt lat="38.924065" lon="-0.221451">
        <ele>69.075</ele>
        <time>2019-06-15T12:47:10Z</time>
      </trkpt>
      <trkpt lat="38.924120" lon="-0.221456">
        <ele>69.099</ele>
        <time>2019-06-15T12:47:12Z</time>
      </trkpt>
      <trkpt lat="38.924171" lon="-0.221485">
        <ele>69.028</ele>
        <time>2019-06-15T12:47:15Z</time>
      </trkpt>
      <trkpt lat="38.924210" lon="-0.221518">
        <ele>69.181</ele>
        <time>2019-06-15T12:47:18Z</time>
      </trkpt>
      <trkpt lat="38.924258" lon="-0.221553">
        <ele>69.443</ele>
        <time>2019-06-15T12:47:23Z</time>
      </trkpt>
      <trkpt lat="38.924268" lon="-0.221617">
        <ele>69.680</ele>
        <time>2019-06-15T12:47:28Z</time>
      </trkpt>
      <trkpt lat="38.924285" lon="-0.221671">
        <ele>69.929</ele>
        <time>2019-06-15T12:48:23Z</time>
      </trkpt>
      <trkpt lat="38.924288" lon="-0.221736">
        <ele>70.374</ele>
        <time>2019-06-15T12:48:27Z</time>
      </trkpt>
      <trkpt lat="38.924309" lon="-0.221796">
        <ele>70.758</ele>
        <time>2019-06-15T12:48:31Z</time>
      </trkpt>
      <trkpt lat="38.924328" lon="-0.221857">
        <ele>71.152</ele>
        <time>2019-06-15T12:48:37Z</time>
      </trkpt>
      <trkpt lat="38.924376" lon="-0.221875">
        <ele>71.417</ele>
        <time>2019-06-15T12:48:52Z</time>
      </trkpt>
      <trkpt lat="38.924408" lon="-0.221830">
        <ele>71.408</ele>
        <time>2019-06-15T12:48:56Z</time>
      </trkpt>
      <trkpt lat="38.924437" lon="-0.221771">
        <ele>71.338</ele>
        <time>2019-06-15T12:49:01Z</time>
      </trkpt>
      <trkpt lat="38.924483" lon="-0.221762">
        <ele>71.412</ele>
        <time>2019-06-15T12:49:05Z</time>
      </trkpt>
      <trkpt lat="38.924520" lon="-0.221824">
        <ele>71.711</ele>
        <time>2019-06-15T12:49:07Z</time>
      </trkpt>
      <trkpt lat="38.924535" lon="-0.221887">
        <ele>71.994</ele>
        <time>2019-06-15T12:49:09Z</time>
      </trkpt>
      <trkpt lat="38.924530" lon="-0.221952">
        <ele>72.056</ele>
        <time>2019-06-15T12:49:13Z</time>
      </trkpt>
      <trkpt lat="38.924572" lon="-0.221915">
        <ele>71.933</ele>
        <time>2019-06-15T12:49:19Z</time>
      </trkpt>
      <trkpt lat="38.924613" lon="-0.221869">
        <ele>71.972</ele>
        <time>2019-06-15T12:49:23Z</time>
      </trkpt>
      <trkpt lat="38.924658" lon="-0.221829">
        <ele>71.947</ele>
        <time>2019-06-15T12:49:27Z</time>
      </trkpt>
      <trkpt lat="38.924690" lon="-0.221787">
        <ele>71.982</ele>
        <time>2019-06-15T12:49:38Z</time>
      </trkpt>
      <trkpt lat="38.924744" lon="-0.221805">
        <ele>72.143</ele>
        <time>2019-06-15T12:49:42Z</time>
      </trkpt>
      <trkpt lat="38.924793" lon="-0.221819">
        <ele>72.317</ele>
        <time>2019-06-15T12:49:49Z</time>
      </trkpt>
      <trkpt lat="38.924838" lon="-0.221844">
        <ele>72.508</ele>
        <time>2019-06-15T12:49:56Z</time>
      </trkpt>
      <trkpt lat="38.924851" lon="-0.221907">
        <ele>72.821</ele>
        <time>2019-06-15T12:49:59Z</time>
      </trkpt>
      <trkpt lat="38.924854" lon="-0.221975">
        <ele>73.295</ele>
        <time>2019-06-15T12:50:01Z</time>
      </trkpt>
      <trkpt lat="38.924862" lon="-0.222068">
        <ele>73.974</ele>
        <time>2019-06-15T12:50:03Z</time>
      </trkpt>
      <trkpt lat="38.924869" lon="-0.222147">
        <ele>74.557</ele>
        <time>2019-06-15T12:50:05Z</time>
      </trkpt>
      <trkpt lat="38.924885" lon="-0.222209">
        <ele>75.139</ele>
        <time>2019-06-15T12:50:07Z</time>
      </trkpt>
      <trkpt lat="38.924937" lon="-0.222239">
        <ele>75.786</ele>
        <time>2019-06-15T12:50:10Z</time>
      </trkpt>
      <trkpt lat="38.924982" lon="-0.222248">
        <ele>76.175</ele>
        <time>2019-06-15T12:50:18Z</time>
      </trkpt>
      <trkpt lat="38.924940" lon="-0.222212">
        <ele>75.580</ele>
        <time>2019-06-15T12:51:20Z</time>
      </trkpt>
      <trkpt lat="38.924909" lon="-0.222162">
        <ele>74.974</ele>
        <time>2019-06-15T12:51:24Z</time>
      </trkpt>
      <trkpt lat="38.924874" lon="-0.222117">
        <ele>74.356</ele>
        <time>2019-06-15T12:51:26Z</time>
      </trkpt>
      <trkpt lat="38.924835" lon="-0.222057">
        <ele>73.621</ele>
        <time>2019-06-15T12:51:28Z</time>
      </trkpt>
      <trkpt lat="38.924791" lon="-0.222000">
        <ele>72.908</ele>
        <time>2019-06-15T12:51:30Z</time>
      </trkpt>
      <trkpt lat="38.924755" lon="-0.221934">
        <ele>72.280</ele>
        <time>2019-06-15T12:51:32Z</time>
      </trkpt>
      <trkpt lat="38.924723" lon="-0.221874">
        <ele>72.014</ele>
        <time>2019-06-15T12:51:34Z</time>
      </trkpt>
      <trkpt lat="38.924700" lon="-0.221807">
        <ele>72.033</ele>
        <time>2019-06-15T12:51:36Z</time>
      </trkpt>
      <trkpt lat="38.924659" lon="-0.221734">
        <ele>71.866</ele>
        <time>2019-06-15T12:51:38Z</time>
      </trkpt>
      <trkpt lat="38.924612" lon="-0.221721">
        <ele>71.738</ele>
        <time>2019-06-15T12:51:40Z</time>
      </trkpt>
      <trkpt lat="38.924561" lon="-0.221730">
        <ele>71.665</ele>
        <time>2019-06-15T12:51:42Z</time>
      </trkpt>
      <trkpt lat="38.924521" lon="-0.221760">
        <ele>71.534</ele>
        <time>2019-06-15T12:51:44Z</time>
      </trkpt>
      <trkpt lat="38.924477" lon="-0.221806">
        <ele>71.629</ele>
        <time>2019-06-15T12:51:47Z</time>
      </trkpt>
      <trkpt lat="38.924444" lon="-0.221847">
        <ele>71.689</ele>
        <time>2019-06-15T12:51:49Z</time>
      </trkpt>
      <trkpt lat="38.924405" lon="-0.221881">
        <ele>71.606</ele>
        <time>2019-06-15T12:51:51Z</time>
      </trkpt>
      <trkpt lat="38.924366" lon="-0.221917">
        <ele>71.626</ele>
        <time>2019-06-15T12:51:53Z</time>
      </trkpt>
      <trkpt lat="38.924311" lon="-0.221956">
        <ele>71.508</ele>
        <time>2019-06-15T12:51:55Z</time>
      </trkpt>
      <trkpt lat="38.924212" lon="-0.222002">
        <ele>71.261</ele>
        <time>2019-06-15T12:51:56Z</time>
      </trkpt>
      <trkpt lat="38.924156" lon="-0.222031">
        <ele>70.985</ele>
        <time>2019-06-15T12:51:59Z</time>
      </trkpt>
      <trkpt lat="38.924105" lon="-0.222080">
        <ele>70.614</ele>
        <time>2019-06-15T12:52:02Z</time>
      </trkpt>
      <trkpt lat="38.924072" lon="-0.222120">
        <ele>70.427</ele>
        <time>2019-06-15T12:52:04Z</time>
      </trkpt>
      <trkpt lat="38.924031" lon="-0.222157">
        <ele>70.319</ele>
        <time>2019-06-15T12:52:06Z</time>
      </trkpt>
      <trkpt lat="38.923985" lon="-0.222186">
        <ele>70.266</ele>
        <time>2019-06-15T12:52:08Z</time>
      </trkpt>
      <trkpt lat="38.923934" lon="-0.222220">
        <ele>70.125</ele>
        <time>2019-06-15T12:52:10Z</time>
      </trkpt>
      <trkpt lat="38.923875" lon="-0.222267">
        <ele>70.420</ele>
        <time>2019-06-15T12:52:12Z</time>
      </trkpt>
      <trkpt lat="38.923820" lon="-0.222312">
        <ele>70.883</ele>
        <time>2019-06-15T12:52:14Z</time>
      </trkpt>
      <trkpt lat="38.923753" lon="-0.222367">
        <ele>71.325</ele>
        <time>2019-06-15T12:52:16Z</time>
      </trkpt>
      <trkpt lat="38.923688" lon="-0.222421">
        <ele>71.617</ele>
        <time>2019-06-15T12:52:18Z</time>
      </trkpt>
      <trkpt lat="38.923631" lon="-0.222465">
        <ele>71.908</ele>
        <time>2019-06-15T12:52:20Z</time>
      </trkpt>
      <trkpt lat="38.923575" lon="-0.222512">
        <ele>72.421</ele>
        <time>2019-06-15T12:52:22Z</time>
      </trkpt>
      <trkpt lat="38.923509" lon="-0.222555">
        <ele>72.995</ele>
        <time>2019-06-15T12:52:24Z</time>
      </trkpt>
      <trkpt lat="38.923448" lon="-0.222591">
        <ele>73.224</ele>
        <time>2019-06-15T12:52:26Z</time>
      </trkpt>
      <trkpt lat="38.923388" lon="-0.222632">
        <ele>73.347</ele>
        <time>2019-06-15T12:52:28Z</time>
      </trkpt>
      <trkpt lat="38.923340" lon="-0.222678">
        <ele>73.119</ele>
        <time>2019-06-15T12:52:30Z</time>
      </trkpt>
      <trkpt lat="38.923287" lon="-0.222737">
        <ele>73.266</ele>
        <time>2019-06-15T12:52:32Z</time>
      </trkpt>
      <trkpt lat="38.923169" lon="-0.222845">
        <ele>74.725</ele>
        <time>2019-06-15T12:52:34Z</time>
      </trkpt>
      <trkpt lat="38.923079" lon="-0.222859">
        <ele>76.040</ele>
        <time>2019-06-15T12:52:36Z</time>
      </trkpt>
      <trkpt lat="38.923031" lon="-0.222859">
        <ele>76.761</ele>
        <time>2019-06-15T12:52:38Z</time>
      </trkpt>
      <trkpt lat="38.922978" lon="-0.222858">
        <ele>77.421</ele>
        <time>2019-06-15T12:52:40Z</time>
      </trkpt>
      <trkpt lat="38.922891" lon="-0.222865">
        <ele>78.513</ele>
        <time>2019-06-15T12:52:41Z</time>
      </trkpt>
      <trkpt lat="38.922838" lon="-0.222885">
        <ele>79.208</ele>
        <time>2019-06-15T12:52:43Z</time>
      </trkpt>
      <trkpt lat="38.922793" lon="-0.222899">
        <ele>79.839</ele>
        <time>2019-06-15T12:52:45Z</time>
      </trkpt>
      <trkpt lat="38.922737" lon="-0.222918">
        <ele>80.063</ele>
        <time>2019-06-15T12:52:47Z</time>
      </trkpt>
      <trkpt lat="38.922649" lon="-0.222945">
        <ele>80.152</ele>
        <time>2019-06-15T12:52:48Z</time>
      </trkpt>
      <trkpt lat="38.922589" lon="-0.222969">
        <ele>80.385</ele>
        <time>2019-06-15T12:52:50Z</time>
      </trkpt>
      <trkpt lat="38.922545" lon="-0.223000">
        <ele>80.547</ele>
        <time>2019-06-15T12:52:52Z</time>
      </trkpt>
      <trkpt lat="38.922494" lon="-0.223031">
        <ele>80.844</ele>
        <time>2019-06-15T12:52:54Z</time>
      </trkpt>
      <trkpt lat="38.922385" lon="-0.223099">
        <ele>80.883</ele>
        <time>2019-06-15T12:52:56Z</time>
      </trkpt>
      <trkpt lat="38.922324" lon="-0.223131">
        <ele>80.838</ele>
        <time>2019-06-15T12:52:59Z</time>
      </trkpt>
      <trkpt lat="38.922273" lon="-0.223153">
        <ele>80.892</ele>
        <time>2019-06-15T12:53:01Z</time>
      </trkpt>
      <trkpt lat="38.922226" lon="-0.223169">
        <ele>80.873</ele>
        <time>2019-06-15T12:53:03Z</time>
      </trkpt>
      <trkpt lat="38.922121" lon="-0.223195">
        <ele>80.620</ele>
        <time>2019-06-15T12:53:04Z</time>
      </trkpt>
      <trkpt lat="38.922074" lon="-0.223195">
        <ele>80.508</ele>
        <time>2019-06-15T12:53:06Z</time>
      </trkpt>
      <trkpt lat="38.922025" lon="-0.223201">
        <ele>80.352</ele>
        <time>2019-06-15T12:53:08Z</time>
      </trkpt>
      <trkpt lat="38.921972" lon="-0.223221">
        <ele>80.396</ele>
        <time>2019-06-15T12:53:10Z</time>
      </trkpt>
      <trkpt lat="38.921873" lon="-0.223259">
        <ele>80.165</ele>
        <time>2019-06-15T12:53:14Z</time>
      </trkpt>
      <trkpt lat="38.921797" lon="-0.223278">
        <ele>79.888</ele>
        <time>2019-06-15T12:53:16Z</time>
      </trkpt>
      <trkpt lat="38.921740" lon="-0.223275">
        <ele>79.450</ele>
        <time>2019-06-15T12:53:18Z</time>
      </trkpt>
      <trkpt lat="38.921686" lon="-0.223258">
        <ele>79.147</ele>
        <time>2019-06-15T12:53:20Z</time>
      </trkpt>
      <trkpt lat="38.921629" lon="-0.223234">
        <ele>79.536</ele>
        <time>2019-06-15T12:53:22Z</time>
      </trkpt>
      <trkpt lat="38.921559" lon="-0.223214">
        <ele>80.461</ele>
        <time>2019-06-15T12:53:24Z</time>
      </trkpt>
      <trkpt lat="38.921497" lon="-0.223197">
        <ele>81.258</ele>
        <time>2019-06-15T12:53:26Z</time>
      </trkpt>
      <trkpt lat="38.921438" lon="-0.223185">
        <ele>81.852</ele>
        <time>2019-06-15T12:53:28Z</time>
      </trkpt>
      <trkpt lat="38.921343" lon="-0.223180">
        <ele>82.417</ele>
        <time>2019-06-15T12:53:29Z</time>
      </trkpt>
      <trkpt lat="38.921286" lon="-0.223177">
        <ele>82.508</ele>
        <time>2019-06-15T12:53:31Z</time>
      </trkpt>
      <trkpt lat="38.921197" lon="-0.223149">
        <ele>82.258</ele>
        <time>2019-06-15T12:53:33Z</time>
      </trkpt>
      <trkpt lat="38.921149" lon="-0.223130">
        <ele>82.052</ele>
        <time>2019-06-15T12:53:34Z</time>
      </trkpt>
      <trkpt lat="38.921102" lon="-0.223116">
        <ele>81.941</ele>
        <time>2019-06-15T12:53:35Z</time>
      </trkpt>
      <trkpt lat="38.921017" lon="-0.223092">
        <ele>81.544</ele>
        <time>2019-06-15T12:53:37Z</time>
      </trkpt>
      <trkpt lat="38.920968" lon="-0.223081">
        <ele>81.496</ele>
        <time>2019-06-15T12:53:38Z</time>
      </trkpt>
      <trkpt lat="38.920885" lon="-0.223058">
        <ele>81.053</ele>
        <time>2019-06-15T12:53:40Z</time>
      </trkpt>
      <trkpt lat="38.920800" lon="-0.223029">
        <ele>80.892</ele>
        <time>2019-06-15T12:53:42Z</time>
      </trkpt>
      <trkpt lat="38.920715" lon="-0.223010">
        <ele>80.997</ele>
        <time>2019-06-15T12:53:44Z</time>
      </trkpt>
      <trkpt lat="38.920630" lon="-0.222999">
        <ele>81.114</ele>
        <time>2019-06-15T12:53:46Z</time>
      </trkpt>
      <trkpt lat="38.920544" lon="-0.222983">
        <ele>81.354</ele>
        <time>2019-06-15T12:53:48Z</time>
      </trkpt>
      <trkpt lat="38.920456" lon="-0.222965">
        <ele>81.409</ele>
        <time>2019-06-15T12:53:50Z</time>
      </trkpt>
      <trkpt lat="38.920368" lon="-0.222951">
        <ele>81.508</ele>
        <time>2019-06-15T12:53:52Z</time>
      </trkpt>
      <trkpt lat="38.920282" lon="-0.222941">
        <ele>81.724</ele>
        <time>2019-06-15T12:53:54Z</time>
      </trkpt>
      <trkpt lat="38.920200" lon="-0.222928">
        <ele>81.238</ele>
        <time>2019-06-15T12:53:56Z</time>
      </trkpt>
      <trkpt lat="38.920118" lon="-0.222912">
        <ele>80.627</ele>
        <time>2019-06-15T12:53:58Z</time>
      </trkpt>
      <trkpt lat="38.920038" lon="-0.222896">
        <ele>79.990</ele>
        <time>2019-06-15T12:54:00Z</time>
      </trkpt>
      <trkpt lat="38.919950" lon="-0.222878">
        <ele>79.742</ele>
        <time>2019-06-15T12:54:02Z</time>
      </trkpt>
      <trkpt lat="38.919866" lon="-0.222853">
        <ele>79.879</ele>
        <time>2019-06-15T12:54:04Z</time>
      </trkpt>
      <trkpt lat="38.919785" lon="-0.222837">
        <ele>80.128</ele>
        <time>2019-06-15T12:54:06Z</time>
      </trkpt>
      <trkpt lat="38.919706" lon="-0.222831">
        <ele>80.563</ele>
        <time>2019-06-15T12:54:08Z</time>
      </trkpt>
      <trkpt lat="38.919623" lon="-0.222820">
        <ele>81.342</ele>
        <time>2019-06-15T12:54:10Z</time>
      </trkpt>
      <trkpt lat="38.919546" lon="-0.222810">
        <ele>82.022</ele>
        <time>2019-06-15T12:54:12Z</time>
      </trkpt>
      <trkpt lat="38.919465" lon="-0.222797">
        <ele>82.814</ele>
        <time>2019-06-15T12:54:14Z</time>
      </trkpt>
      <trkpt lat="38.919382" lon="-0.222779">
        <ele>83.508</ele>
        <time>2019-06-15T12:54:16Z</time>
      </trkpt>
      <trkpt lat="38.919325" lon="-0.222746">
        <ele>84.027</ele>
        <time>2019-06-15T12:54:17Z</time>
      </trkpt>
      <trkpt lat="38.919252" lon="-0.222725">
        <ele>84.611</ele>
        <time>2019-06-15T12:54:19Z</time>
      </trkpt>
      <trkpt lat="38.919175" lon="-0.222683">
        <ele>85.320</ele>
        <time>2019-06-15T12:54:21Z</time>
      </trkpt>
      <trkpt lat="38.919089" lon="-0.222676">
        <ele>85.083</ele>
        <time>2019-06-15T12:54:23Z</time>
      </trkpt>
      <trkpt lat="38.919002" lon="-0.222663">
        <ele>84.585</ele>
        <time>2019-06-15T12:54:25Z</time>
      </trkpt>
      <trkpt lat="38.918949" lon="-0.222647">
        <ele>84.082</ele>
        <time>2019-06-15T12:54:26Z</time>
      </trkpt>
      <trkpt lat="38.918890" lon="-0.222644">
        <ele>83.661</ele>
        <time>2019-06-15T12:54:28Z</time>
      </trkpt>
      <trkpt lat="38.918835" lon="-0.222630">
        <ele>83.466</ele>
        <time>2019-06-15T12:54:29Z</time>
      </trkpt>
      <trkpt lat="38.918747" lon="-0.222629">
        <ele>83.656</ele>
        <time>2019-06-15T12:54:31Z</time>
      </trkpt>
      <trkpt lat="38.918651" lon="-0.222636">
        <ele>83.959</ele>
        <time>2019-06-15T12:54:33Z</time>
      </trkpt>
      <trkpt lat="38.918605" lon="-0.222676">
        <ele>84.914</ele>
        <time>2019-06-15T12:54:34Z</time>
      </trkpt>
      <trkpt lat="38.918548" lon="-0.222672">
        <ele>85.908</ele>
        <time>2019-06-15T12:54:35Z</time>
      </trkpt>
      <trkpt lat="38.918482" lon="-0.222652">
        <ele>86.838</ele>
        <time>2019-06-15T12:54:36Z</time>
      </trkpt>
      <trkpt lat="38.918429" lon="-0.222662">
        <ele>88.032</ele>
        <time>2019-06-15T12:54:37Z</time>
      </trkpt>
      <trkpt lat="38.918371" lon="-0.222661">
        <ele>89.241</ele>
        <time>2019-06-15T12:54:38Z</time>
      </trkpt>
      <trkpt lat="38.918312" lon="-0.222667">
        <ele>89.914</ele>
        <time>2019-06-15T12:54:39Z</time>
      </trkpt>
      <trkpt lat="38.918249" lon="-0.222658">
        <ele>89.646</ele>
        <time>2019-06-15T12:54:40Z</time>
      </trkpt>
      <trkpt lat="38.918178" lon="-0.222644">
        <ele>89.363</ele>
        <time>2019-06-15T12:54:41Z</time>
      </trkpt>
      <trkpt lat="38.918116" lon="-0.222643">
        <ele>89.112</ele>
        <time>2019-06-15T12:54:42Z</time>
      </trkpt>
      <trkpt lat="38.918046" lon="-0.222640">
        <ele>88.897</ele>
        <time>2019-06-15T12:54:43Z</time>
      </trkpt>
      <trkpt lat="38.918002" lon="-0.222657">
        <ele>87.932</ele>
        <time>2019-06-15T12:54:44Z</time>
      </trkpt>
      <trkpt lat="38.917944" lon="-0.222660">
        <ele>86.592</ele>
        <time>2019-06-15T12:54:45Z</time>
      </trkpt>
      <trkpt lat="38.917886" lon="-0.222672">
        <ele>85.211</ele>
        <time>2019-06-15T12:54:46Z</time>
      </trkpt>
      <trkpt lat="38.917816" lon="-0.222659">
        <ele>83.508</ele>
        <time>2019-06-15T12:54:47Z</time>
      </trkpt>
      <trkpt lat="38.917751" lon="-0.222648">
        <ele>82.156</ele>
        <time>2019-06-15T12:54:48Z</time>
      </trkpt>
      <trkpt lat="38.917671" lon="-0.222634">
        <ele>80.790</ele>
        <time>2019-06-15T12:54:49Z</time>
      </trkpt>
      <trkpt lat="38.917593" lon="-0.222616">
        <ele>79.439</ele>
        <time>2019-06-15T12:54:50Z</time>
      </trkpt>
      <trkpt lat="38.917535" lon="-0.222614">
        <ele>78.422</ele>
        <time>2019-06-15T12:54:51Z</time>
      </trkpt>
      <trkpt lat="38.917454" lon="-0.222605">
        <ele>78.274</ele>
        <time>2019-06-15T12:54:52Z</time>
      </trkpt>
      <trkpt lat="38.917392" lon="-0.222601">
        <ele>78.891</ele>
        <time>2019-06-15T12:54:53Z</time>
      </trkpt>
      <trkpt lat="38.917326" lon="-0.222587">
        <ele>79.350</ele>
        <time>2019-06-15T12:54:54Z</time>
      </trkpt>
      <trkpt lat="38.917266" lon="-0.222602">
        <ele>80.035</ele>
        <time>2019-06-15T12:54:55Z</time>
      </trkpt>
      <trkpt lat="38.917193" lon="-0.222596">
        <ele>80.344</ele>
        <time>2019-06-15T12:54:56Z</time>
      </trkpt>
      <trkpt lat="38.917127" lon="-0.222584">
        <ele>80.105</ele>
        <time>2019-06-15T12:54:57Z</time>
      </trkpt>
      <trkpt lat="38.917064" lon="-0.222574">
        <ele>79.815</ele>
        <time>2019-06-15T12:54:58Z</time>
      </trkpt>
      <trkpt lat="38.917005" lon="-0.222567">
        <ele>79.608</ele>
        <time>2019-06-15T12:54:59Z</time>
      </trkpt>
      <trkpt lat="38.916944" lon="-0.222562">
        <ele>79.447</ele>
        <time>2019-06-15T12:55:00Z</time>
      </trkpt>
      <trkpt lat="38.916888" lon="-0.222573">
        <ele>79.581</ele>
        <time>2019-06-15T12:55:01Z</time>
      </trkpt>
      <trkpt lat="38.916837" lon="-0.222576">
        <ele>79.550</ele>
        <time>2019-06-15T12:55:02Z</time>
      </trkpt>
      <trkpt lat="38.916776" lon="-0.222575">
        <ele>79.513</ele>
        <time>2019-06-15T12:55:03Z</time>
      </trkpt>
      <trkpt lat="38.916723" lon="-0.222577">
        <ele>79.645</ele>
        <time>2019-06-15T12:55:04Z</time>
      </trkpt>
      <trkpt lat="38.916663" lon="-0.222571">
        <ele>79.612</ele>
        <time>2019-06-15T12:55:05Z</time>
      </trkpt>
      <trkpt lat="38.916605" lon="-0.222575">
        <ele>80.461</ele>
        <time>2019-06-15T12:55:06Z</time>
      </trkpt>
      <trkpt lat="38.916557" lon="-0.222578">
        <ele>81.016</ele>
        <time>2019-06-15T12:55:07Z</time>
      </trkpt>
      <trkpt lat="38.916502" lon="-0.222570">
        <ele>81.765</ele>
        <time>2019-06-15T12:55:08Z</time>
      </trkpt>
      <trkpt lat="38.916439" lon="-0.222554">
        <ele>82.568</ele>
        <time>2019-06-15T12:55:09Z</time>
      </trkpt>
      <trkpt lat="38.916383" lon="-0.222541">
        <ele>83.114</ele>
        <time>2019-06-15T12:55:10Z</time>
      </trkpt>
      <trkpt lat="38.916332" lon="-0.222536">
        <ele>83.108</ele>
        <time>2019-06-15T12:55:11Z</time>
      </trkpt>
      <trkpt lat="38.916283" lon="-0.222549">
        <ele>83.239</ele>
        <time>2019-06-15T12:55:12Z</time>
      </trkpt>
      <trkpt lat="38.916231" lon="-0.222562">
        <ele>83.243</ele>
        <time>2019-06-15T12:55:13Z</time>
      </trkpt>
      <trkpt lat="38.916184" lon="-0.222561">
        <ele>83.282</ele>
        <time>2019-06-15T12:55:14Z</time>
      </trkpt>
      <trkpt lat="38.916139" lon="-0.222562">
        <ele>83.275</ele>
        <time>2019-06-15T12:55:15Z</time>
      </trkpt>
      <trkpt lat="38.916089" lon="-0.222551">
        <ele>83.137</ele>
        <time>2019-06-15T12:55:16Z</time>
      </trkpt>
      <trkpt lat="38.916002" lon="-0.222558">
        <ele>82.834</ele>
        <time>2019-06-15T12:55:18Z</time>
      </trkpt>
      <trkpt lat="38.915957" lon="-0.222556">
        <ele>82.653</ele>
        <time>2019-06-15T12:55:19Z</time>
      </trkpt>
      <trkpt lat="38.915883" lon="-0.222586">
        <ele>82.558</ele>
        <time>2019-06-15T12:55:21Z</time>
      </trkpt>
      <trkpt lat="38.915828" lon="-0.222568">
        <ele>82.347</ele>
        <time>2019-06-15T12:55:22Z</time>
      </trkpt>
      <trkpt lat="38.915777" lon="-0.222544">
        <ele>82.429</ele>
        <time>2019-06-15T12:55:23Z</time>
      </trkpt>
      <trkpt lat="38.915723" lon="-0.222525">
        <ele>82.521</ele>
        <time>2019-06-15T12:55:24Z</time>
      </trkpt>
      <trkpt lat="38.915679" lon="-0.222510">
        <ele>82.608</ele>
        <time>2019-06-15T12:55:25Z</time>
      </trkpt>
      <trkpt lat="38.915632" lon="-0.222497">
        <ele>82.787</ele>
        <time>2019-06-15T12:55:26Z</time>
      </trkpt>
      <trkpt lat="38.915549" lon="-0.222487">
        <ele>83.021</ele>
        <time>2019-06-15T12:55:28Z</time>
      </trkpt>
      <trkpt lat="38.915502" lon="-0.222487">
        <ele>83.780</ele>
        <time>2019-06-15T12:55:29Z</time>
      </trkpt>
      <trkpt lat="38.915453" lon="-0.222473">
        <ele>84.323</ele>
        <time>2019-06-15T12:55:30Z</time>
      </trkpt>
      <trkpt lat="38.915374" lon="-0.222458">
        <ele>85.225</ele>
        <time>2019-06-15T12:55:32Z</time>
      </trkpt>
      <trkpt lat="38.915329" lon="-0.222444">
        <ele>85.672</ele>
        <time>2019-06-15T12:55:33Z</time>
      </trkpt>
      <trkpt lat="38.915247" lon="-0.222420">
        <ele>85.821</ele>
        <time>2019-06-15T12:55:35Z</time>
      </trkpt>
      <trkpt lat="38.915166" lon="-0.222395">
        <ele>85.566</ele>
        <time>2019-06-15T12:55:37Z</time>
      </trkpt>
      <trkpt lat="38.915082" lon="-0.222362">
        <ele>85.029</ele>
        <time>2019-06-15T12:55:39Z</time>
      </trkpt>
      <trkpt lat="38.915002" lon="-0.222320">
        <ele>84.400</ele>
        <time>2019-06-15T12:55:41Z</time>
      </trkpt>
      <trkpt lat="38.914928" lon="-0.222279">
        <ele>84.020</ele>
        <time>2019-06-15T12:55:43Z</time>
      </trkpt>
      <trkpt lat="38.914876" lon="-0.222280">
        <ele>84.108</ele>
        <time>2019-06-15T12:55:44Z</time>
      </trkpt>
      <trkpt lat="38.914791" lon="-0.222244">
        <ele>83.915</ele>
        <time>2019-06-15T12:55:46Z</time>
      </trkpt>
      <trkpt lat="38.914719" lon="-0.222203">
        <ele>83.939</ele>
        <time>2019-06-15T12:55:48Z</time>
      </trkpt>
      <trkpt lat="38.914647" lon="-0.222173">
        <ele>85.038</ele>
        <time>2019-06-15T12:55:50Z</time>
      </trkpt>
      <trkpt lat="38.914575" lon="-0.222147">
        <ele>86.281</ele>
        <time>2019-06-15T12:55:52Z</time>
      </trkpt>
      <trkpt lat="38.914499" lon="-0.222124">
        <ele>87.513</ele>
        <time>2019-06-15T12:55:54Z</time>
      </trkpt>
      <trkpt lat="38.914424" lon="-0.222105">
        <ele>88.210</ele>
        <time>2019-06-15T12:55:56Z</time>
      </trkpt>
      <trkpt lat="38.914356" lon="-0.222068">
        <ele>87.599</ele>
        <time>2019-06-15T12:55:58Z</time>
      </trkpt>
      <trkpt lat="38.914290" lon="-0.222031">
        <ele>86.984</ele>
        <time>2019-06-15T12:56:00Z</time>
      </trkpt>
      <trkpt lat="38.914218" lon="-0.221996">
        <ele>86.419</ele>
        <time>2019-06-15T12:56:02Z</time>
      </trkpt>
      <trkpt lat="38.914144" lon="-0.221969">
        <ele>86.109</ele>
        <time>2019-06-15T12:56:04Z</time>
      </trkpt>
      <trkpt lat="38.914066" lon="-0.221936">
        <ele>85.619</ele>
        <time>2019-06-15T12:56:06Z</time>
      </trkpt>
      <trkpt lat="38.913992" lon="-0.221909">
        <ele>85.308</ele>
        <time>2019-06-15T12:56:08Z</time>
      </trkpt>
      <trkpt lat="38.913921" lon="-0.221874">
        <ele>85.154</ele>
        <time>2019-06-15T12:56:10Z</time>
      </trkpt>
      <trkpt lat="38.913849" lon="-0.221848">
        <ele>85.278</ele>
        <time>2019-06-15T12:56:12Z</time>
      </trkpt>
      <trkpt lat="38.913774" lon="-0.221821">
        <ele>85.627</ele>
        <time>2019-06-15T12:56:14Z</time>
      </trkpt>
      <trkpt lat="38.913699" lon="-0.221793">
        <ele>86.030</ele>
        <time>2019-06-15T12:56:16Z</time>
      </trkpt>
      <trkpt lat="38.913619" lon="-0.221757">
        <ele>86.312</ele>
        <time>2019-06-15T12:56:18Z</time>
      </trkpt>
      <trkpt lat="38.913531" lon="-0.221718">
        <ele>86.829</ele>
        <time>2019-06-15T12:56:20Z</time>
      </trkpt>
      <trkpt lat="38.913488" lon="-0.221695">
        <ele>87.028</ele>
        <time>2019-06-15T12:56:21Z</time>
      </trkpt>
      <trkpt lat="38.913440" lon="-0.221683">
        <ele>87.363</ele>
        <time>2019-06-15T12:56:22Z</time>
      </trkpt>
      <trkpt lat="38.913395" lon="-0.221659">
        <ele>87.526</ele>
        <time>2019-06-15T12:56:23Z</time>
      </trkpt>
      <trkpt lat="38.913306" lon="-0.221617">
        <ele>87.347</ele>
        <time>2019-06-15T12:56:25Z</time>
      </trkpt>
      <trkpt lat="38.913263" lon="-0.221597">
        <ele>86.911</ele>
        <time>2019-06-15T12:56:26Z</time>
      </trkpt>
      <trkpt lat="38.913212" lon="-0.221577">
        <ele>86.408</ele>
        <time>2019-06-15T12:56:27Z</time>
      </trkpt>
      <trkpt lat="38.913168" lon="-0.221545">
        <ele>86.015</ele>
        <time>2019-06-15T12:56:28Z</time>
      </trkpt>
      <trkpt lat="38.913106" lon="-0.221534">
        <ele>85.719</ele>
        <time>2019-06-15T12:56:29Z</time>
      </trkpt>
      <trkpt lat="38.913056" lon="-0.221509">
        <ele>85.428</ele>
        <time>2019-06-15T12:56:30Z</time>
      </trkpt>
      <trkpt lat="38.913006" lon="-0.221480">
        <ele>85.511</ele>
        <time>2019-06-15T12:56:31Z</time>
      </trkpt>
      <trkpt lat="38.912943" lon="-0.221456">
        <ele>85.663</ele>
        <time>2019-06-15T12:56:32Z</time>
      </trkpt>
      <trkpt lat="38.912888" lon="-0.221434">
        <ele>85.880</ele>
        <time>2019-06-15T12:56:33Z</time>
      </trkpt>
      <trkpt lat="38.912838" lon="-0.221418">
        <ele>85.989</ele>
        <time>2019-06-15T12:56:34Z</time>
      </trkpt>
      <trkpt lat="38.912780" lon="-0.221398">
        <ele>86.024</ele>
        <time>2019-06-15T12:56:35Z</time>
      </trkpt>
      <trkpt lat="38.912723" lon="-0.221377">
        <ele>85.954</ele>
        <time>2019-06-15T12:56:36Z</time>
      </trkpt>
      <trkpt lat="38.912672" lon="-0.221364">
        <ele>85.856</ele>
        <time>2019-06-15T12:56:37Z</time>
      </trkpt>
      <trkpt lat="38.912618" lon="-0.221342">
        <ele>85.511</ele>
        <time>2019-06-15T12:56:38Z</time>
      </trkpt>
      <trkpt lat="38.912565" lon="-0.221318">
        <ele>85.108</ele>
        <time>2019-06-15T12:56:39Z</time>
      </trkpt>
      <trkpt lat="38.912513" lon="-0.221306">
        <ele>84.878</ele>
        <time>2019-06-15T12:56:40Z</time>
      </trkpt>
      <trkpt lat="38.912457" lon="-0.221287">
        <ele>84.112</ele>
        <time>2019-06-15T12:56:41Z</time>
      </trkpt>
      <trkpt lat="38.912403" lon="-0.221276">
        <ele>83.321</ele>
        <time>2019-06-15T12:56:42Z</time>
      </trkpt>
      <trkpt lat="38.912345" lon="-0.221268">
        <ele>82.644</ele>
        <time>2019-06-15T12:56:43Z</time>
      </trkpt>
      <trkpt lat="38.912284" lon="-0.221261">
        <ele>81.896</ele>
        <time>2019-06-15T12:56:44Z</time>
      </trkpt>
      <trkpt lat="38.912225" lon="-0.221250">
        <ele>81.023</ele>
        <time>2019-06-15T12:56:45Z</time>
      </trkpt>
      <trkpt lat="38.912162" lon="-0.221238">
        <ele>81.132</ele>
        <time>2019-06-15T12:56:46Z</time>
      </trkpt>
      <trkpt lat="38.912100" lon="-0.221228">
        <ele>81.237</ele>
        <time>2019-06-15T12:56:47Z</time>
      </trkpt>
      <trkpt lat="38.912040" lon="-0.221218">
        <ele>81.361</ele>
        <time>2019-06-15T12:56:48Z</time>
      </trkpt>
      <trkpt lat="38.911976" lon="-0.221216">
        <ele>81.621</ele>
        <time>2019-06-15T12:56:49Z</time>
      </trkpt>
      <trkpt lat="38.911914" lon="-0.221213">
        <ele>82.913</ele>
        <time>2019-06-15T12:56:50Z</time>
      </trkpt>
      <trkpt lat="38.911848" lon="-0.221213">
        <ele>85.308</ele>
        <time>2019-06-15T12:56:51Z</time>
      </trkpt>
      <trkpt lat="38.911790" lon="-0.221214">
        <ele>87.459</ele>
        <time>2019-06-15T12:56:52Z</time>
      </trkpt>
      <trkpt lat="38.911729" lon="-0.221215">
        <ele>89.753</ele>
        <time>2019-06-15T12:56:53Z</time>
      </trkpt>
      <trkpt lat="38.911664" lon="-0.221208">
        <ele>92.092</ele>
        <time>2019-06-15T12:56:54Z</time>
      </trkpt>
      <trkpt lat="38.911601" lon="-0.221213">
        <ele>91.595</ele>
        <time>2019-06-15T12:56:55Z</time>
      </trkpt>
      <trkpt lat="38.911536" lon="-0.221204">
        <ele>90.927</ele>
        <time>2019-06-15T12:56:56Z</time>
      </trkpt>
      <trkpt lat="38.911478" lon="-0.221205">
        <ele>90.454</ele>
        <time>2019-06-15T12:56:57Z</time>
      </trkpt>
      <trkpt lat="38.911423" lon="-0.221211">
        <ele>90.153</ele>
        <time>2019-06-15T12:56:58Z</time>
      </trkpt>
      <trkpt lat="38.911371" lon="-0.221221">
        <ele>90.228</ele>
        <time>2019-06-15T12:56:59Z</time>
      </trkpt>
      <trkpt lat="38.911314" lon="-0.221214">
        <ele>90.611</ele>
        <time>2019-06-15T12:57:00Z</time>
      </trkpt>
      <trkpt lat="38.911255" lon="-0.221205">
        <ele>91.021</ele>
        <time>2019-06-15T12:57:01Z</time>
      </trkpt>
      <trkpt lat="38.911202" lon="-0.221198">
        <ele>91.303</ele>
        <time>2019-06-15T12:57:02Z</time>
      </trkpt>
      <trkpt lat="38.911149" lon="-0.221195">
        <ele>91.708</ele>
        <time>2019-06-15T12:57:03Z</time>
      </trkpt>
      <trkpt lat="38.911095" lon="-0.221191">
        <ele>92.024</ele>
        <time>2019-06-15T12:57:04Z</time>
      </trkpt>
      <trkpt lat="38.911040" lon="-0.221180">
        <ele>92.098</ele>
        <time>2019-06-15T12:57:05Z</time>
      </trkpt>
      <trkpt lat="38.910983" lon="-0.221171">
        <ele>92.127</ele>
        <time>2019-06-15T12:57:06Z</time>
      </trkpt>
      <trkpt lat="38.910923" lon="-0.221154">
        <ele>91.950</ele>
        <time>2019-06-15T12:57:07Z</time>
      </trkpt>
      <trkpt lat="38.910875" lon="-0.221156">
        <ele>92.352</ele>
        <time>2019-06-15T12:57:08Z</time>
      </trkpt>
      <trkpt lat="38.910817" lon="-0.221128">
        <ele>91.799</ele>
        <time>2019-06-15T12:57:09Z</time>
      </trkpt>
      <trkpt lat="38.910760" lon="-0.221122">
        <ele>91.658</ele>
        <time>2019-06-15T12:57:10Z</time>
      </trkpt>
      <trkpt lat="38.910712" lon="-0.221124">
        <ele>91.913</ele>
        <time>2019-06-15T12:57:11Z</time>
      </trkpt>
      <trkpt lat="38.910660" lon="-0.221140">
        <ele>92.533</ele>
        <time>2019-06-15T12:57:12Z</time>
      </trkpt>
      <trkpt lat="38.910601" lon="-0.221117">
        <ele>92.023</ele>
        <time>2019-06-15T12:57:13Z</time>
      </trkpt>
      <trkpt lat="38.910556" lon="-0.221117">
        <ele>92.215</ele>
        <time>2019-06-15T12:57:14Z</time>
      </trkpt>
      <trkpt lat="38.910506" lon="-0.221093">
        <ele>91.508</ele>
        <time>2019-06-15T12:57:15Z</time>
      </trkpt>
      <trkpt lat="38.910459" lon="-0.221072">
        <ele>91.036</ele>
        <time>2019-06-15T12:57:16Z</time>
      </trkpt>
      <trkpt lat="38.910364" lon="-0.221059">
        <ele>90.910</ele>
        <time>2019-06-15T12:57:18Z</time>
      </trkpt>
      <trkpt lat="38.910311" lon="-0.221042">
        <ele>90.759</ele>
        <time>2019-06-15T12:57:19Z</time>
      </trkpt>
      <trkpt lat="38.910254" lon="-0.221026">
        <ele>90.442</ele>
        <time>2019-06-15T12:57:20Z</time>
      </trkpt>
      <trkpt lat="38.910198" lon="-0.221008">
        <ele>89.944</ele>
        <time>2019-06-15T12:57:21Z</time>
      </trkpt>
      <trkpt lat="38.910150" lon="-0.220989">
        <ele>89.361</ele>
        <time>2019-06-15T12:57:22Z</time>
      </trkpt>
      <trkpt lat="38.910099" lon="-0.220967">
        <ele>88.850</ele>
        <time>2019-06-15T12:57:23Z</time>
      </trkpt>
      <trkpt lat="38.910048" lon="-0.220956">
        <ele>88.425</ele>
        <time>2019-06-15T12:57:24Z</time>
      </trkpt>
      <trkpt lat="38.909984" lon="-0.220930">
        <ele>87.855</ele>
        <time>2019-06-15T12:57:25Z</time>
      </trkpt>
      <trkpt lat="38.909930" lon="-0.220905">
        <ele>87.407</ele>
        <time>2019-06-15T12:57:26Z</time>
      </trkpt>
      <trkpt lat="38.909876" lon="-0.220887">
        <ele>87.217</ele>
        <time>2019-06-15T12:57:27Z</time>
      </trkpt>
      <trkpt lat="38.909819" lon="-0.220866">
        <ele>87.108</ele>
        <time>2019-06-15T12:57:28Z</time>
      </trkpt>
      <trkpt lat="38.909771" lon="-0.220838">
        <ele>86.918</ele>
        <time>2019-06-15T12:57:29Z</time>
      </trkpt>
      <trkpt lat="38.909717" lon="-0.220808">
        <ele>86.722</ele>
        <time>2019-06-15T12:57:30Z</time>
      </trkpt>
      <trkpt lat="38.909671" lon="-0.220782">
        <ele>86.761</ele>
        <time>2019-06-15T12:57:31Z</time>
      </trkpt>
      <trkpt lat="38.909613" lon="-0.220747">
        <ele>86.724</ele>
        <time>2019-06-15T12:57:32Z</time>
      </trkpt>
      <trkpt lat="38.909556" lon="-0.220718">
        <ele>86.826</ele>
        <time>2019-06-15T12:57:33Z</time>
      </trkpt>
      <trkpt lat="38.909503" lon="-0.220679">
        <ele>87.023</ele>
        <time>2019-06-15T12:57:34Z</time>
      </trkpt>
      <trkpt lat="38.909453" lon="-0.220658">
        <ele>87.312</ele>
        <time>2019-06-15T12:57:35Z</time>
      </trkpt>
      <trkpt lat="38.909406" lon="-0.220633">
        <ele>87.297</ele>
        <time>2019-06-15T12:57:36Z</time>
      </trkpt>
      <trkpt lat="38.909348" lon="-0.220614">
        <ele>87.134</ele>
        <time>2019-06-15T12:57:37Z</time>
      </trkpt>
      <trkpt lat="38.909288" lon="-0.220581">
        <ele>87.055</ele>
        <time>2019-06-15T12:57:38Z</time>
      </trkpt>
      <trkpt lat="38.909239" lon="-0.220549">
        <ele>87.010</ele>
        <time>2019-06-15T12:57:39Z</time>
      </trkpt>
      <trkpt lat="38.909181" lon="-0.220517">
        <ele>86.808</ele>
        <time>2019-06-15T12:57:40Z</time>
      </trkpt>
      <trkpt lat="38.909120" lon="-0.220485">
        <ele>86.626</ele>
        <time>2019-06-15T12:57:41Z</time>
      </trkpt>
      <trkpt lat="38.909069" lon="-0.220440">
        <ele>86.490</ele>
        <time>2019-06-15T12:57:42Z</time>
      </trkpt>
      <trkpt lat="38.909011" lon="-0.220405">
        <ele>86.249</ele>
        <time>2019-06-15T12:57:43Z</time>
      </trkpt>
      <trkpt lat="38.908954" lon="-0.220366">
        <ele>86.172</ele>
        <time>2019-06-15T12:57:44Z</time>
      </trkpt>
      <trkpt lat="38.908893" lon="-0.220323">
        <ele>86.094</ele>
        <time>2019-06-15T12:57:45Z</time>
      </trkpt>
      <trkpt lat="38.908834" lon="-0.220282">
        <ele>85.671</ele>
        <time>2019-06-15T12:57:46Z</time>
      </trkpt>
      <trkpt lat="38.908774" lon="-0.220248">
        <ele>84.990</ele>
        <time>2019-06-15T12:57:47Z</time>
      </trkpt>
      <trkpt lat="38.908715" lon="-0.220212">
        <ele>84.035</ele>
        <time>2019-06-15T12:57:48Z</time>
      </trkpt>
      <trkpt lat="38.908653" lon="-0.220183">
        <ele>83.098</ele>
        <time>2019-06-15T12:57:49Z</time>
      </trkpt>
      <trkpt lat="38.908596" lon="-0.220146">
        <ele>81.915</ele>
        <time>2019-06-15T12:57:50Z</time>
      </trkpt>
      <trkpt lat="38.908531" lon="-0.220120">
        <ele>80.926</ele>
        <time>2019-06-15T12:57:51Z</time>
      </trkpt>
      <trkpt lat="38.908469" lon="-0.220091">
        <ele>80.008</ele>
        <time>2019-06-15T12:57:52Z</time>
      </trkpt>
      <trkpt lat="38.908407" lon="-0.220059">
        <ele>79.152</ele>
        <time>2019-06-15T12:57:53Z</time>
      </trkpt>
      <trkpt lat="38.908339" lon="-0.220026">
        <ele>78.296</ele>
        <time>2019-06-15T12:57:54Z</time>
      </trkpt>
      <trkpt lat="38.908285" lon="-0.219998">
        <ele>78.445</ele>
        <time>2019-06-15T12:57:55Z</time>
      </trkpt>
      <trkpt lat="38.908231" lon="-0.219958">
        <ele>79.088</ele>
        <time>2019-06-15T12:57:56Z</time>
      </trkpt>
      <trkpt lat="38.908176" lon="-0.219925">
        <ele>79.530</ele>
        <time>2019-06-15T12:57:57Z</time>
      </trkpt>
      <trkpt lat="38.908124" lon="-0.219892">
        <ele>80.037</ele>
        <time>2019-06-15T12:57:58Z</time>
      </trkpt>
      <trkpt lat="38.908071" lon="-0.219859">
        <ele>80.446</ele>
        <time>2019-06-15T12:57:59Z</time>
      </trkpt>
      <trkpt lat="38.908012" lon="-0.219831">
        <ele>80.861</ele>
        <time>2019-06-15T12:58:00Z</time>
      </trkpt>
      <trkpt lat="38.907956" lon="-0.219799">
        <ele>81.159</ele>
        <time>2019-06-15T12:58:01Z</time>
      </trkpt>
      <trkpt lat="38.907899" lon="-0.219766">
        <ele>81.403</ele>
        <time>2019-06-15T12:58:02Z</time>
      </trkpt>
      <trkpt lat="38.907841" lon="-0.219729">
        <ele>81.723</ele>
        <time>2019-06-15T12:58:03Z</time>
      </trkpt>
      <trkpt lat="38.907788" lon="-0.219692">
        <ele>82.008</ele>
        <time>2019-06-15T12:58:04Z</time>
      </trkpt>
      <trkpt lat="38.907730" lon="-0.219656">
        <ele>82.018</ele>
        <time>2019-06-15T12:58:05Z</time>
      </trkpt>
      <trkpt lat="38.907655" lon="-0.219626">
        <ele>82.042</ele>
        <time>2019-06-15T12:58:06Z</time>
      </trkpt>
      <trkpt lat="38.907591" lon="-0.219589">
        <ele>82.091</ele>
        <time>2019-06-15T12:58:07Z</time>
      </trkpt>
      <trkpt lat="38.907535" lon="-0.219554">
        <ele>82.074</ele>
        <time>2019-06-15T12:58:08Z</time>
      </trkpt>
      <trkpt lat="38.907476" lon="-0.219521">
        <ele>82.116</ele>
        <time>2019-06-15T12:58:09Z</time>
      </trkpt>
      <trkpt lat="38.907417" lon="-0.219481">
        <ele>82.353</ele>
        <time>2019-06-15T12:58:10Z</time>
      </trkpt>
      <trkpt lat="38.907367" lon="-0.219453">
        <ele>82.562</ele>
        <time>2019-06-15T12:58:11Z</time>
      </trkpt>
      <trkpt lat="38.907310" lon="-0.219417">
        <ele>82.837</ele>
        <time>2019-06-15T12:58:12Z</time>
      </trkpt>
      <trkpt lat="38.907244" lon="-0.219385">
        <ele>83.155</ele>
        <time>2019-06-15T12:58:13Z</time>
      </trkpt>
      <trkpt lat="38.907189" lon="-0.219357">
        <ele>83.407</ele>
        <time>2019-06-15T12:58:14Z</time>
      </trkpt>
      <trkpt lat="38.907127" lon="-0.219324">
        <ele>83.617</ele>
        <time>2019-06-15T12:58:15Z</time>
      </trkpt>
      <trkpt lat="38.907068" lon="-0.219293">
        <ele>83.808</ele>
        <time>2019-06-15T12:58:16Z</time>
      </trkpt>
      <trkpt lat="38.907004" lon="-0.219271">
        <ele>83.948</ele>
        <time>2019-06-15T12:58:17Z</time>
      </trkpt>
      <trkpt lat="38.906945" lon="-0.219242">
        <ele>84.052</ele>
        <time>2019-06-15T12:58:18Z</time>
      </trkpt>
      <trkpt lat="38.906887" lon="-0.219224">
        <ele>83.531</ele>
        <time>2019-06-15T12:58:19Z</time>
      </trkpt>
      <trkpt lat="38.906836" lon="-0.219203">
        <ele>83.214</ele>
        <time>2019-06-15T12:58:20Z</time>
      </trkpt>
      <trkpt lat="38.906779" lon="-0.219182">
        <ele>82.896</ele>
        <time>2019-06-15T12:58:21Z</time>
      </trkpt>
      <trkpt lat="38.906726" lon="-0.219170">
        <ele>82.453</ele>
        <time>2019-06-15T12:58:22Z</time>
      </trkpt>
      <trkpt lat="38.906671" lon="-0.219148">
        <ele>82.062</ele>
        <time>2019-06-15T12:58:23Z</time>
      </trkpt>
      <trkpt lat="38.906608" lon="-0.219122">
        <ele>81.657</ele>
        <time>2019-06-15T12:58:24Z</time>
      </trkpt>
      <trkpt lat="38.906549" lon="-0.219102">
        <ele>81.272</ele>
        <time>2019-06-15T12:58:25Z</time>
      </trkpt>
      <trkpt lat="38.906493" lon="-0.219084">
        <ele>80.813</ele>
        <time>2019-06-15T12:58:26Z</time>
      </trkpt>
      <trkpt lat="38.906436" lon="-0.219060">
        <ele>80.314</ele>
        <time>2019-06-15T12:58:27Z</time>
      </trkpt>
      <trkpt lat="38.906378" lon="-0.219033">
        <ele>80.008</ele>
        <time>2019-06-15T12:58:28Z</time>
      </trkpt>
      <trkpt lat="38.906321" lon="-0.219002">
        <ele>80.150</ele>
        <time>2019-06-15T12:58:29Z</time>
      </trkpt>
      <trkpt lat="38.906266" lon="-0.218970">
        <ele>80.144</ele>
        <time>2019-06-15T12:58:30Z</time>
      </trkpt>
      <trkpt lat="38.906211" lon="-0.218943">
        <ele>80.163</ele>
        <time>2019-06-15T12:58:31Z</time>
      </trkpt>
      <trkpt lat="38.906154" lon="-0.218900">
        <ele>80.066</ele>
        <time>2019-06-15T12:58:32Z</time>
      </trkpt>
      <trkpt lat="38.906095" lon="-0.218866">
        <ele>80.058</ele>
        <time>2019-06-15T12:58:33Z</time>
      </trkpt>
      <trkpt lat="38.906043" lon="-0.218831">
        <ele>79.915</ele>
        <time>2019-06-15T12:58:34Z</time>
      </trkpt>
      <trkpt lat="38.905989" lon="-0.218788">
        <ele>79.754</ele>
        <time>2019-06-15T12:58:35Z</time>
      </trkpt>
      <trkpt lat="38.905937" lon="-0.218744">
        <ele>79.379</ele>
        <time>2019-06-15T12:58:36Z</time>
      </trkpt>
      <trkpt lat="38.905880" lon="-0.218705">
        <ele>78.939</ele>
        <time>2019-06-15T12:58:37Z</time>
      </trkpt>
      <trkpt lat="38.905815" lon="-0.218666">
        <ele>78.401</ele>
        <time>2019-06-15T12:58:38Z</time>
      </trkpt>
      <trkpt lat="38.905746" lon="-0.218640">
        <ele>78.521</ele>
        <time>2019-06-15T12:58:39Z</time>
      </trkpt>
      <trkpt lat="38.905677" lon="-0.218621">
        <ele>78.608</ele>
        <time>2019-06-15T12:58:40Z</time>
      </trkpt>
      <trkpt lat="38.905618" lon="-0.218646">
        <ele>78.956</ele>
        <time>2019-06-15T12:58:41Z</time>
      </trkpt>
      <trkpt lat="38.905550" lon="-0.218638">
        <ele>79.190</ele>
        <time>2019-06-15T12:58:42Z</time>
      </trkpt>
      <trkpt lat="38.905497" lon="-0.218610">
        <ele>79.249</ele>
        <time>2019-06-15T12:58:43Z</time>
      </trkpt>
      <trkpt lat="38.905449" lon="-0.218564">
        <ele>79.322</ele>
        <time>2019-06-15T12:58:44Z</time>
      </trkpt>
      <trkpt lat="38.905410" lon="-0.218515">
        <ele>79.344</ele>
        <time>2019-06-15T12:58:45Z</time>
      </trkpt>
      <trkpt lat="38.905380" lon="-0.218453">
        <ele>79.331</ele>
        <time>2019-06-15T12:58:46Z</time>
      </trkpt>
      <trkpt lat="38.905355" lon="-0.218404">
        <ele>79.230</ele>
        <time>2019-06-15T12:58:47Z</time>
      </trkpt>
      <trkpt lat="38.905313" lon="-0.218347">
        <ele>79.055</ele>
        <time>2019-06-15T12:58:48Z</time>
      </trkpt>
      <trkpt lat="38.905267" lon="-0.218286">
        <ele>79.538</ele>
        <time>2019-06-15T12:58:49Z</time>
      </trkpt>
      <trkpt lat="38.905214" lon="-0.218240">
        <ele>80.370</ele>
        <time>2019-06-15T12:58:50Z</time>
      </trkpt>
      <trkpt lat="38.905165" lon="-0.218202">
        <ele>81.017</ele>
        <time>2019-06-15T12:58:51Z</time>
      </trkpt>
      <trkpt lat="38.905116" lon="-0.218154">
        <ele>81.708</ele>
        <time>2019-06-15T12:58:52Z</time>
      </trkpt>
      <trkpt lat="38.905060" lon="-0.218108">
        <ele>82.336</ele>
        <time>2019-06-15T12:58:53Z</time>
      </trkpt>
      <trkpt lat="38.905007" lon="-0.218069">
        <ele>82.910</ele>
        <time>2019-06-15T12:58:54Z</time>
      </trkpt>
      <trkpt lat="38.904948" lon="-0.218041">
        <ele>83.249</ele>
        <time>2019-06-15T12:58:55Z</time>
      </trkpt>
      <trkpt lat="38.904894" lon="-0.218008">
        <ele>83.492</ele>
        <time>2019-06-15T12:58:56Z</time>
      </trkpt>
      <trkpt lat="38.904844" lon="-0.217987">
        <ele>83.574</ele>
        <time>2019-06-15T12:58:57Z</time>
      </trkpt>
      <trkpt lat="38.904794" lon="-0.217965">
        <ele>83.651</ele>
        <time>2019-06-15T12:58:58Z</time>
      </trkpt>
      <trkpt lat="38.904741" lon="-0.217928">
        <ele>83.520</ele>
        <time>2019-06-15T12:58:59Z</time>
      </trkpt>
      <trkpt lat="38.904690" lon="-0.217896">
        <ele>83.465</ele>
        <time>2019-06-15T12:59:00Z</time>
      </trkpt>
      <trkpt lat="38.904636" lon="-0.217865">
        <ele>83.121</ele>
        <time>2019-06-15T12:59:01Z</time>
      </trkpt>
      <trkpt lat="38.904583" lon="-0.217827">
        <ele>82.841</ele>
        <time>2019-06-15T12:59:02Z</time>
      </trkpt>
      <trkpt lat="38.904533" lon="-0.217786">
        <ele>82.405</ele>
        <time>2019-06-15T12:59:03Z</time>
      </trkpt>
      <trkpt lat="38.904477" lon="-0.217747">
        <ele>82.008</ele>
        <time>2019-06-15T12:59:04Z</time>
      </trkpt>
      <trkpt lat="38.904417" lon="-0.217711">
        <ele>81.735</ele>
        <time>2019-06-15T12:59:05Z</time>
      </trkpt>
      <trkpt lat="38.904362" lon="-0.217667">
        <ele>81.419</ele>
        <time>2019-06-15T12:59:06Z</time>
      </trkpt>
      <trkpt lat="38.904298" lon="-0.217623">
        <ele>81.268</ele>
        <time>2019-06-15T12:59:07Z</time>
      </trkpt>
      <trkpt lat="38.904241" lon="-0.217580">
        <ele>81.141</ele>
        <time>2019-06-15T12:59:08Z</time>
      </trkpt>
      <trkpt lat="38.904177" lon="-0.217545">
        <ele>81.023</ele>
        <time>2019-06-15T12:59:09Z</time>
      </trkpt>
      <trkpt lat="38.904114" lon="-0.217511">
        <ele>81.260</ele>
        <time>2019-06-15T12:59:10Z</time>
      </trkpt>
      <trkpt lat="38.904051" lon="-0.217471">
        <ele>81.239</ele>
        <time>2019-06-15T12:59:11Z</time>
      </trkpt>
      <trkpt lat="38.903981" lon="-0.217436">
        <ele>81.214</ele>
        <time>2019-06-15T12:59:12Z</time>
      </trkpt>
      <trkpt lat="38.903910" lon="-0.217404">
        <ele>81.265</ele>
        <time>2019-06-15T12:59:13Z</time>
      </trkpt>
      <trkpt lat="38.903848" lon="-0.217358">
        <ele>81.168</ele>
        <time>2019-06-15T12:59:14Z</time>
      </trkpt>
      <trkpt lat="38.903780" lon="-0.217310">
        <ele>81.014</ele>
        <time>2019-06-15T12:59:15Z</time>
      </trkpt>
      <trkpt lat="38.903706" lon="-0.217270">
        <ele>81.008</ele>
        <time>2019-06-15T12:59:16Z</time>
      </trkpt>
      <trkpt lat="38.903646" lon="-0.217221">
        <ele>80.979</ele>
        <time>2019-06-15T12:59:17Z</time>
      </trkpt>
      <trkpt lat="38.903575" lon="-0.217194">
        <ele>80.463</ele>
        <time>2019-06-15T12:59:18Z</time>
      </trkpt>
      <trkpt lat="38.903497" lon="-0.217154">
        <ele>79.492</ele>
        <time>2019-06-15T12:59:19Z</time>
      </trkpt>
      <trkpt lat="38.903428" lon="-0.217121">
        <ele>78.725</ele>
        <time>2019-06-15T12:59:20Z</time>
      </trkpt>
      <trkpt lat="38.903366" lon="-0.217061">
        <ele>77.967</ele>
        <time>2019-06-15T12:59:21Z</time>
      </trkpt>
      <trkpt lat="38.903307" lon="-0.217014">
        <ele>77.714</ele>
        <time>2019-06-15T12:59:22Z</time>
      </trkpt>
      <trkpt lat="38.903229" lon="-0.216978">
        <ele>78.043</ele>
        <time>2019-06-15T12:59:23Z</time>
      </trkpt>
      <trkpt lat="38.903173" lon="-0.216932">
        <ele>78.178</ele>
        <time>2019-06-15T12:59:24Z</time>
      </trkpt>
      <trkpt lat="38.903117" lon="-0.216892">
        <ele>78.371</ele>
        <time>2019-06-15T12:59:25Z</time>
      </trkpt>
      <trkpt lat="38.903050" lon="-0.216845">
        <ele>78.341</ele>
        <time>2019-06-15T12:59:26Z</time>
      </trkpt>
      <trkpt lat="38.902982" lon="-0.216801">
        <ele>77.715</ele>
        <time>2019-06-15T12:59:27Z</time>
      </trkpt>
      <trkpt lat="38.902919" lon="-0.216750">
        <ele>77.308</ele>
        <time>2019-06-15T12:59:28Z</time>
      </trkpt>
      <trkpt lat="38.902873" lon="-0.216688">
        <ele>77.110</ele>
        <time>2019-06-15T12:59:29Z</time>
      </trkpt>
      <trkpt lat="38.902817" lon="-0.216641">
        <ele>77.154</ele>
        <time>2019-06-15T12:59:30Z</time>
      </trkpt>
      <trkpt lat="38.902752" lon="-0.216598">
        <ele>77.453</ele>
        <time>2019-06-15T12:59:31Z</time>
      </trkpt>
      <trkpt lat="38.902700" lon="-0.216540">
        <ele>77.976</ele>
        <time>2019-06-15T12:59:32Z</time>
      </trkpt>
      <trkpt lat="38.902637" lon="-0.216491">
        <ele>78.518</ele>
        <time>2019-06-15T12:59:33Z</time>
      </trkpt>
      <trkpt lat="38.902579" lon="-0.216444">
        <ele>79.195</ele>
        <time>2019-06-15T12:59:34Z</time>
      </trkpt>
      <trkpt lat="38.902515" lon="-0.216404">
        <ele>79.894</ele>
        <time>2019-06-15T12:59:35Z</time>
      </trkpt>
      <trkpt lat="38.902455" lon="-0.216357">
        <ele>80.419</ele>
        <time>2019-06-15T12:59:36Z</time>
      </trkpt>
      <trkpt lat="38.902393" lon="-0.216313">
        <ele>80.918</ele>
        <time>2019-06-15T12:59:37Z</time>
      </trkpt>
      <trkpt lat="38.902336" lon="-0.216264">
        <ele>81.498</ele>
        <time>2019-06-15T12:59:38Z</time>
      </trkpt>
      <trkpt lat="38.902277" lon="-0.216221">
        <ele>81.717</ele>
        <time>2019-06-15T12:59:39Z</time>
      </trkpt>
      <trkpt lat="38.902227" lon="-0.216169">
        <ele>82.008</ele>
        <time>2019-06-15T12:59:40Z</time>
      </trkpt>
      <trkpt lat="38.902146" lon="-0.216121">
        <ele>82.324</ele>
        <time>2019-06-15T12:59:41Z</time>
      </trkpt>
      <trkpt lat="38.902085" lon="-0.216067">
        <ele>82.318</ele>
        <time>2019-06-15T12:59:42Z</time>
      </trkpt>
      <trkpt lat="38.901997" lon="-0.216050">
        <ele>82.627</ele>
        <time>2019-06-15T12:59:43Z</time>
      </trkpt>
      <trkpt lat="38.901950" lon="-0.216018">
        <ele>82.670</ele>
        <time>2019-06-15T12:59:44Z</time>
      </trkpt>
      <trkpt lat="38.901906" lon="-0.215965">
        <ele>82.882</ele>
        <time>2019-06-15T12:59:45Z</time>
      </trkpt>
      <trkpt lat="38.901858" lon="-0.215913">
        <ele>82.989</ele>
        <time>2019-06-15T12:59:46Z</time>
      </trkpt>
      <trkpt lat="38.901807" lon="-0.215866">
        <ele>83.178</ele>
        <time>2019-06-15T12:59:47Z</time>
      </trkpt>
      <trkpt lat="38.901754" lon="-0.215812">
        <ele>83.253</ele>
        <time>2019-06-15T12:59:48Z</time>
      </trkpt>
      <trkpt lat="38.901692" lon="-0.215761">
        <ele>83.335</ele>
        <time>2019-06-15T12:59:49Z</time>
      </trkpt>
      <trkpt lat="38.901635" lon="-0.215712">
        <ele>83.286</ele>
        <time>2019-06-15T12:59:50Z</time>
      </trkpt>
      <trkpt lat="38.901581" lon="-0.215665">
        <ele>83.114</ele>
        <time>2019-06-15T12:59:51Z</time>
      </trkpt>
      <trkpt lat="38.901537" lon="-0.215619">
        <ele>82.908</ele>
        <time>2019-06-15T12:59:52Z</time>
      </trkpt>
      <trkpt lat="38.901476" lon="-0.215569">
        <ele>82.816</ele>
        <time>2019-06-15T12:59:53Z</time>
      </trkpt>
      <trkpt lat="38.901417" lon="-0.215524">
        <ele>82.810</ele>
        <time>2019-06-15T12:59:54Z</time>
      </trkpt>
      <trkpt lat="38.901353" lon="-0.215486">
        <ele>82.879</ele>
        <time>2019-06-15T12:59:55Z</time>
      </trkpt>
      <trkpt lat="38.901283" lon="-0.215444">
        <ele>82.852</ele>
        <time>2019-06-15T12:59:56Z</time>
      </trkpt>
      <trkpt lat="38.901177" lon="-0.215402">
        <ele>82.894</ele>
        <time>2019-06-15T12:59:57Z</time>
      </trkpt>
      <trkpt lat="38.901123" lon="-0.215349">
        <ele>82.581</ele>
        <time>2019-06-15T12:59:58Z</time>
      </trkpt>
      <trkpt lat="38.901068" lon="-0.215317">
        <ele>82.590</ele>
        <time>2019-06-15T12:59:59Z</time>
      </trkpt>
      <trkpt lat="38.901035" lon="-0.215270">
        <ele>82.515</ele>
        <time>2019-06-15T13:00:00Z</time>
      </trkpt>
      <trkpt lat="38.900984" lon="-0.215223">
        <ele>82.865</ele>
        <time>2019-06-15T13:00:01Z</time>
      </trkpt>
      <trkpt lat="38.900936" lon="-0.215174">
        <ele>83.168</ele>
        <time>2019-06-15T13:00:02Z</time>
      </trkpt>
      <trkpt lat="38.900879" lon="-0.215135">
        <ele>83.614</ele>
        <time>2019-06-15T13:00:03Z</time>
      </trkpt>
      <trkpt lat="38.900824" lon="-0.215090">
        <ele>84.108</ele>
        <time>2019-06-15T13:00:04Z</time>
      </trkpt>
      <trkpt lat="38.900775" lon="-0.215036">
        <ele>84.879</ele>
        <time>2019-06-15T13:00:05Z</time>
      </trkpt>
      <trkpt lat="38.900721" lon="-0.214995">
        <ele>85.743</ele>
        <time>2019-06-15T13:00:06Z</time>
      </trkpt>
      <trkpt lat="38.900669" lon="-0.214950">
        <ele>86.852</ele>
        <time>2019-06-15T13:00:07Z</time>
      </trkpt>
      <trkpt lat="38.900607" lon="-0.214905">
        <ele>88.235</ele>
        <time>2019-06-15T13:00:08Z</time>
      </trkpt>
      <trkpt lat="38.900546" lon="-0.214864">
        <ele>89.527</ele>
        <time>2019-06-15T13:00:09Z</time>
      </trkpt>
      <trkpt lat="38.900494" lon="-0.214825">
        <ele>89.854</ele>
        <time>2019-06-15T13:00:10Z</time>
      </trkpt>
      <trkpt lat="38.900442" lon="-0.214779">
        <ele>89.713</ele>
        <time>2019-06-15T13:00:11Z</time>
      </trkpt>
      <trkpt lat="38.900391" lon="-0.214741">
        <ele>89.338</ele>
        <time>2019-06-15T13:00:12Z</time>
      </trkpt>
      <trkpt lat="38.900331" lon="-0.214697">
        <ele>88.635</ele>
        <time>2019-06-15T13:00:13Z</time>
      </trkpt>
      <trkpt lat="38.900272" lon="-0.214658">
        <ele>87.786</ele>
        <time>2019-06-15T13:00:14Z</time>
      </trkpt>
      <trkpt lat="38.900227" lon="-0.214609">
        <ele>87.114</ele>
        <time>2019-06-15T13:00:15Z</time>
      </trkpt>
      <trkpt lat="38.900177" lon="-0.214562">
        <ele>86.208</ele>
        <time>2019-06-15T13:00:16Z</time>
      </trkpt>
      <trkpt lat="38.900127" lon="-0.214514">
        <ele>84.876</ele>
        <time>2019-06-15T13:00:17Z</time>
      </trkpt>
      <trkpt lat="38.900071" lon="-0.214464">
        <ele>82.910</ele>
        <time>2019-06-15T13:00:18Z</time>
      </trkpt>
      <trkpt lat="38.900022" lon="-0.214423">
        <ele>81.329</ele>
        <time>2019-06-15T13:00:19Z</time>
      </trkpt>
      <trkpt lat="38.899974" lon="-0.214381">
        <ele>80.842</ele>
        <time>2019-06-15T13:00:20Z</time>
      </trkpt>
      <trkpt lat="38.899913" lon="-0.214348">
        <ele>80.914</ele>
        <time>2019-06-15T13:00:21Z</time>
      </trkpt>
      <trkpt lat="38.899859" lon="-0.214332">
        <ele>81.151</ele>
        <time>2019-06-15T13:00:22Z</time>
      </trkpt>
      <trkpt lat="38.899803" lon="-0.214316">
        <ele>81.280</ele>
        <time>2019-06-15T13:00:23Z</time>
      </trkpt>
      <trkpt lat="38.899744" lon="-0.214309">
        <ele>81.495</ele>
        <time>2019-06-15T13:00:24Z</time>
      </trkpt>
      <trkpt lat="38.899688" lon="-0.214347">
        <ele>82.727</ele>
        <time>2019-06-15T13:00:25Z</time>
      </trkpt>
      <trkpt lat="38.899627" lon="-0.214367">
        <ele>83.968</ele>
        <time>2019-06-15T13:00:26Z</time>
      </trkpt>
      <trkpt lat="38.899576" lon="-0.214362">
        <ele>84.614</ele>
        <time>2019-06-15T13:00:27Z</time>
      </trkpt>
      <trkpt lat="38.899530" lon="-0.214336">
        <ele>84.908</ele>
        <time>2019-06-15T13:00:28Z</time>
      </trkpt>
      <trkpt lat="38.899485" lon="-0.214294">
        <ele>85.275</ele>
        <time>2019-06-15T13:00:29Z</time>
      </trkpt>
      <trkpt lat="38.899453" lon="-0.214243">
        <ele>85.429</ele>
        <time>2019-06-15T13:00:30Z</time>
      </trkpt>
      <trkpt lat="38.899419" lon="-0.214191">
        <ele>85.758</ele>
        <time>2019-06-15T13:00:31Z</time>
      </trkpt>
      <trkpt lat="38.899396" lon="-0.214129">
        <ele>85.671</ele>
        <time>2019-06-15T13:00:32Z</time>
      </trkpt>
      <trkpt lat="38.899373" lon="-0.214059">
        <ele>85.233</ele>
        <time>2019-06-15T13:00:33Z</time>
      </trkpt>
      <trkpt lat="38.899350" lon="-0.213984">
        <ele>84.660</ele>
        <time>2019-06-15T13:00:34Z</time>
      </trkpt>
      <trkpt lat="38.899303" lon="-0.213926">
        <ele>84.659</ele>
        <time>2019-06-15T13:00:35Z</time>
      </trkpt>
      <trkpt lat="38.899249" lon="-0.213871">
        <ele>84.744</ele>
        <time>2019-06-15T13:00:36Z</time>
      </trkpt>
      <trkpt lat="38.899195" lon="-0.213821">
        <ele>85.568</ele>
        <time>2019-06-15T13:00:37Z</time>
      </trkpt>
      <trkpt lat="38.899126" lon="-0.213775">
        <ele>86.642</ele>
        <time>2019-06-15T13:00:38Z</time>
      </trkpt>
      <trkpt lat="38.899059" lon="-0.213731">
        <ele>87.526</ele>
        <time>2019-06-15T13:00:39Z</time>
      </trkpt>
      <trkpt lat="38.898996" lon="-0.213677">
        <ele>88.108</ele>
        <time>2019-06-15T13:00:40Z</time>
      </trkpt>
      <trkpt lat="38.898920" lon="-0.213632">
        <ele>88.869</ele>
        <time>2019-06-15T13:00:41Z</time>
      </trkpt>
      <trkpt lat="38.898850" lon="-0.213583">
        <ele>88.463</ele>
        <time>2019-06-15T13:00:42Z</time>
      </trkpt>
      <trkpt lat="38.898785" lon="-0.213535">
        <ele>87.362</ele>
        <time>2019-06-15T13:00:43Z</time>
      </trkpt>
      <trkpt lat="38.898721" lon="-0.213484">
        <ele>86.335</ele>
        <time>2019-06-15T13:00:44Z</time>
      </trkpt>
      <trkpt lat="38.898651" lon="-0.213432">
        <ele>85.127</ele>
        <time>2019-06-15T13:00:45Z</time>
      </trkpt>
      <trkpt lat="38.898584" lon="-0.213380">
        <ele>84.494</ele>
        <time>2019-06-15T13:00:46Z</time>
      </trkpt>
      <trkpt lat="38.898517" lon="-0.213328">
        <ele>84.033</ele>
        <time>2019-06-15T13:00:47Z</time>
      </trkpt>
      <trkpt lat="38.898455" lon="-0.213275">
        <ele>83.738</ele>
        <time>2019-06-15T13:00:48Z</time>
      </trkpt>
      <trkpt lat="38.898393" lon="-0.213229">
        <ele>83.388</ele>
        <time>2019-06-15T13:00:49Z</time>
      </trkpt>
      <trkpt lat="38.898330" lon="-0.213180">
        <ele>82.924</ele>
        <time>2019-06-15T13:00:50Z</time>
      </trkpt>
      <trkpt lat="38.898268" lon="-0.213118">
        <ele>83.326</ele>
        <time>2019-06-15T13:00:51Z</time>
      </trkpt>
      <trkpt lat="38.898201" lon="-0.213064">
        <ele>83.908</ele>
        <time>2019-06-15T13:00:52Z</time>
      </trkpt>
      <trkpt lat="38.898149" lon="-0.213027">
        <ele>84.671</ele>
        <time>2019-06-15T13:00:53Z</time>
      </trkpt>
      <trkpt lat="38.898111" lon="-0.212982">
        <ele>85.025</ele>
        <time>2019-06-15T13:00:54Z</time>
      </trkpt>
      <trkpt lat="38.898066" lon="-0.212937">
        <ele>85.474</ele>
        <time>2019-06-15T13:00:55Z</time>
      </trkpt>
      <trkpt lat="38.897980" lon="-0.212894">
        <ele>85.857</ele>
        <time>2019-06-15T13:00:56Z</time>
      </trkpt>
      <trkpt lat="38.897901" lon="-0.212967">
        <ele>86.489</ele>
        <time>2019-06-15T13:00:57Z</time>
      </trkpt>
      <trkpt lat="38.897807" lon="-0.212963">
        <ele>86.916</ele>
        <time>2019-06-15T13:00:59Z</time>
      </trkpt>
      <trkpt lat="38.897754" lon="-0.212911">
        <ele>87.295</ele>
        <time>2019-06-15T13:01:00Z</time>
      </trkpt>
      <trkpt lat="38.897717" lon="-0.212841">
        <ele>87.510</ele>
        <time>2019-06-15T13:01:01Z</time>
      </trkpt>
      <trkpt lat="38.897664" lon="-0.212730">
        <ele>87.567</ele>
        <time>2019-06-15T13:01:03Z</time>
      </trkpt>
      <trkpt lat="38.897603" lon="-0.212659">
        <ele>87.381</ele>
        <time>2019-06-15T13:01:05Z</time>
      </trkpt>
      <trkpt lat="38.897528" lon="-0.212553">
        <ele>86.519</ele>
        <time>2019-06-15T13:01:06Z</time>
      </trkpt>
      <trkpt lat="38.897428" lon="-0.212514">
        <ele>85.608</ele>
        <time>2019-06-15T13:01:07Z</time>
      </trkpt>
      <trkpt lat="38.897375" lon="-0.212448">
        <ele>84.569</ele>
        <time>2019-06-15T13:01:08Z</time>
      </trkpt>
      <trkpt lat="38.897304" lon="-0.212427">
        <ele>83.913</ele>
        <time>2019-06-15T13:01:09Z</time>
      </trkpt>
      <trkpt lat="38.897217" lon="-0.212384">
        <ele>83.192</ele>
        <time>2019-06-15T13:01:10Z</time>
      </trkpt>
      <trkpt lat="38.897165" lon="-0.212342">
        <ele>82.735</ele>
        <time>2019-06-15T13:01:11Z</time>
      </trkpt>
      <trkpt lat="38.897116" lon="-0.212322">
        <ele>82.397</ele>
        <time>2019-06-15T13:01:12Z</time>
      </trkpt>
      <trkpt lat="38.897045" lon="-0.212289">
        <ele>81.864</ele>
        <time>2019-06-15T13:01:13Z</time>
      </trkpt>
      <trkpt lat="38.897005" lon="-0.212250">
        <ele>81.463</ele>
        <time>2019-06-15T13:01:14Z</time>
      </trkpt>
      <trkpt lat="38.896948" lon="-0.212215">
        <ele>81.048</ele>
        <time>2019-06-15T13:01:15Z</time>
      </trkpt>
      <trkpt lat="38.896888" lon="-0.212185">
        <ele>80.691</ele>
        <time>2019-06-15T13:01:16Z</time>
      </trkpt>
      <trkpt lat="38.896820" lon="-0.212198">
        <ele>80.481</ele>
        <time>2019-06-15T13:01:17Z</time>
      </trkpt>
      <trkpt lat="38.896751" lon="-0.212185">
        <ele>80.119</ele>
        <time>2019-06-15T13:01:18Z</time>
      </trkpt>
      <trkpt lat="38.896681" lon="-0.212189">
        <ele>79.808</ele>
        <time>2019-06-15T13:01:19Z</time>
      </trkpt>
      <trkpt lat="38.896623" lon="-0.212200">
        <ele>79.762</ele>
        <time>2019-06-15T13:01:20Z</time>
      </trkpt>
      <trkpt lat="38.896535" lon="-0.212247">
        <ele>79.786</ele>
        <time>2019-06-15T13:01:21Z</time>
      </trkpt>
      <trkpt lat="38.896481" lon="-0.212290">
        <ele>80.075</ele>
        <time>2019-06-15T13:01:22Z</time>
      </trkpt>
      <trkpt lat="38.896446" lon="-0.212342">
        <ele>80.448</ele>
        <time>2019-06-15T13:01:23Z</time>
      </trkpt>
      <trkpt lat="38.896407" lon="-0.212398">
        <ele>80.970</ele>
        <time>2019-06-15T13:01:24Z</time>
      </trkpt>
      <trkpt lat="38.896338" lon="-0.212403">
        <ele>80.997</ele>
        <time>2019-06-15T13:01:25Z</time>
      </trkpt>
      <trkpt lat="38.896263" lon="-0.212408">
        <ele>81.096</ele>
        <time>2019-06-15T13:01:26Z</time>
      </trkpt>
      <trkpt lat="38.896204" lon="-0.212382">
        <ele>80.521</ele>
        <time>2019-06-15T13:01:27Z</time>
      </trkpt>
      <trkpt lat="38.896160" lon="-0.212359">
        <ele>80.014</ele>
        <time>2019-06-15T13:01:28Z</time>
      </trkpt>
      <trkpt lat="38.896114" lon="-0.212319">
        <ele>79.154</ele>
        <time>2019-06-15T13:01:29Z</time>
      </trkpt>
      <trkpt lat="38.896071" lon="-0.212291">
        <ele>78.509</ele>
        <time>2019-06-15T13:01:30Z</time>
      </trkpt>
      <trkpt lat="38.896049" lon="-0.212230">
        <ele>77.408</ele>
        <time>2019-06-15T13:01:31Z</time>
      </trkpt>
      <trkpt lat="38.895998" lon="-0.212199">
        <ele>77.384</ele>
        <time>2019-06-15T13:01:32Z</time>
      </trkpt>
      <trkpt lat="38.895943" lon="-0.212153">
        <ele>77.248</ele>
        <time>2019-06-15T13:01:33Z</time>
      </trkpt>
      <trkpt lat="38.895849" lon="-0.212136">
        <ele>77.367</ele>
        <time>2019-06-15T13:01:35Z</time>
      </trkpt>
      <trkpt lat="38.895799" lon="-0.212128">
        <ele>77.320</ele>
        <time>2019-06-15T13:01:36Z</time>
      </trkpt>
      <trkpt lat="38.895739" lon="-0.212113">
        <ele>77.182</ele>
        <time>2019-06-15T13:01:37Z</time>
      </trkpt>
      <trkpt lat="38.895687" lon="-0.212116">
        <ele>77.099</ele>
        <time>2019-06-15T13:01:38Z</time>
      </trkpt>
      <trkpt lat="38.895642" lon="-0.212130">
        <ele>77.158</ele>
        <time>2019-06-15T13:01:39Z</time>
      </trkpt>
      <trkpt lat="38.895568" lon="-0.212172">
        <ele>77.563</ele>
        <time>2019-06-15T13:01:40Z</time>
      </trkpt>
      <trkpt lat="38.895505" lon="-0.212192">
        <ele>78.275</ele>
        <time>2019-06-15T13:01:41Z</time>
      </trkpt>
      <trkpt lat="38.895451" lon="-0.212188">
        <ele>78.728</ele>
        <time>2019-06-15T13:01:42Z</time>
      </trkpt>
      <trkpt lat="38.895390" lon="-0.212201">
        <ele>79.520</ele>
        <time>2019-06-15T13:01:43Z</time>
      </trkpt>
      <trkpt lat="38.895326" lon="-0.212207">
        <ele>80.308</ele>
        <time>2019-06-15T13:01:44Z</time>
      </trkpt>
      <trkpt lat="38.895281" lon="-0.212245">
        <ele>81.240</ele>
        <time>2019-06-15T13:01:45Z</time>
      </trkpt>
      <trkpt lat="38.895220" lon="-0.212263">
        <ele>81.594</ele>
        <time>2019-06-15T13:01:46Z</time>
      </trkpt>
      <trkpt lat="38.895162" lon="-0.212273">
        <ele>81.613</ele>
        <time>2019-06-15T13:01:47Z</time>
      </trkpt>
      <trkpt lat="38.895068" lon="-0.212290">
        <ele>81.956</ele>
        <time>2019-06-15T13:01:49Z</time>
      </trkpt>
      <trkpt lat="38.895009" lon="-0.212295">
        <ele>82.038</ele>
        <time>2019-06-15T13:01:50Z</time>
      </trkpt>
      <trkpt lat="38.894944" lon="-0.212285">
        <ele>81.575</ele>
        <time>2019-06-15T13:01:51Z</time>
      </trkpt>
      <trkpt lat="38.894861" lon="-0.212285">
        <ele>80.964</ele>
        <time>2019-06-15T13:01:52Z</time>
      </trkpt>
      <trkpt lat="38.894808" lon="-0.212277">
        <ele>80.469</ele>
        <time>2019-06-15T13:01:53Z</time>
      </trkpt>
      <trkpt lat="38.894760" lon="-0.212295">
        <ele>80.352</ele>
        <time>2019-06-15T13:01:54Z</time>
      </trkpt>
      <trkpt lat="38.894711" lon="-0.212304">
        <ele>80.153</ele>
        <time>2019-06-15T13:01:55Z</time>
      </trkpt>
      <trkpt lat="38.894653" lon="-0.212275">
        <ele>79.608</ele>
        <time>2019-06-15T13:01:56Z</time>
      </trkpt>
      <trkpt lat="38.894608" lon="-0.212265">
        <ele>79.308</ele>
        <time>2019-06-15T13:01:57Z</time>
      </trkpt>
      <trkpt lat="38.894565" lon="-0.212170">
        <ele>78.118</ele>
        <time>2019-06-15T13:01:59Z</time>
      </trkpt>
      <trkpt lat="38.894553" lon="-0.212060">
        <ele>77.592</ele>
        <time>2019-06-15T13:02:00Z</time>
      </trkpt>
      <trkpt lat="38.894527" lon="-0.211990">
        <ele>76.951</ele>
        <time>2019-06-15T13:02:01Z</time>
      </trkpt>
      <trkpt lat="38.894504" lon="-0.211886">
        <ele>76.614</ele>
        <time>2019-06-15T13:02:02Z</time>
      </trkpt>
      <trkpt lat="38.894481" lon="-0.211813">
        <ele>76.776</ele>
        <time>2019-06-15T13:02:03Z</time>
      </trkpt>
      <trkpt lat="38.894465" lon="-0.211750">
        <ele>76.813</ele>
        <time>2019-06-15T13:02:04Z</time>
      </trkpt>
      <trkpt lat="38.894470" lon="-0.211661">
        <ele>77.272</ele>
        <time>2019-06-15T13:02:06Z</time>
      </trkpt>
      <trkpt lat="38.894415" lon="-0.211605">
        <ele>77.597</ele>
        <time>2019-06-15T13:02:07Z</time>
      </trkpt>
      <trkpt lat="38.894421" lon="-0.211534">
        <ele>78.312</ele>
        <time>2019-06-15T13:02:08Z</time>
      </trkpt>
      <trkpt lat="38.894414" lon="-0.211458">
        <ele>79.032</ele>
        <time>2019-06-15T13:02:09Z</time>
      </trkpt>
      <trkpt lat="38.894398" lon="-0.211399">
        <ele>79.605</ele>
        <time>2019-06-15T13:02:10Z</time>
      </trkpt>
      <trkpt lat="38.894302" lon="-0.211376">
        <ele>79.108</ele>
        <time>2019-06-15T13:02:11Z</time>
      </trkpt>
      <trkpt lat="38.894248" lon="-0.211417">
        <ele>78.374</ele>
        <time>2019-06-15T13:02:13Z</time>
      </trkpt>
      <trkpt lat="38.894201" lon="-0.211442">
        <ele>77.758</ele>
        <time>2019-06-15T13:02:14Z</time>
      </trkpt>
      <trkpt lat="38.894155" lon="-0.211453">
        <ele>77.497</ele>
        <time>2019-06-15T13:02:15Z</time>
      </trkpt>
      <trkpt lat="38.894108" lon="-0.211462">
        <ele>77.870</ele>
        <time>2019-06-15T13:02:16Z</time>
      </trkpt>
      <trkpt lat="38.894057" lon="-0.211462">
        <ele>78.332</ele>
        <time>2019-06-15T13:02:17Z</time>
      </trkpt>
      <trkpt lat="38.893964" lon="-0.211487">
        <ele>79.289</ele>
        <time>2019-06-15T13:02:19Z</time>
      </trkpt>
      <trkpt lat="38.893881" lon="-0.211552">
        <ele>80.338</ele>
        <time>2019-06-15T13:02:21Z</time>
      </trkpt>
      <trkpt lat="38.893799" lon="-0.211571">
        <ele>83.473</ele>
        <time>2019-06-15T13:02:23Z</time>
      </trkpt>
      <trkpt lat="38.893728" lon="-0.211644">
        <ele>86.864</ele>
        <time>2019-06-15T13:02:25Z</time>
      </trkpt>
      <trkpt lat="38.893684" lon="-0.211669">
        <ele>88.806</ele>
        <time>2019-06-15T13:02:26Z</time>
      </trkpt>
      <trkpt lat="38.893609" lon="-0.211745">
        <ele>90.916</ele>
        <time>2019-06-15T13:02:28Z</time>
      </trkpt>
      <trkpt lat="38.893570" lon="-0.211776">
        <ele>90.108</ele>
        <time>2019-06-15T13:02:29Z</time>
      </trkpt>
      <trkpt lat="38.893531" lon="-0.211814">
        <ele>89.569</ele>
        <time>2019-06-15T13:02:30Z</time>
      </trkpt>
      <trkpt lat="38.893475" lon="-0.211881">
        <ele>88.843</ele>
        <time>2019-06-15T13:02:32Z</time>
      </trkpt>
      <trkpt lat="38.893421" lon="-0.211944">
        <ele>88.722</ele>
        <time>2019-06-15T13:02:34Z</time>
      </trkpt>
      <trkpt lat="38.893382" lon="-0.212037">
        <ele>87.485</ele>
        <time>2019-06-15T13:02:36Z</time>
      </trkpt>
      <trkpt lat="38.893360" lon="-0.212089">
        <ele>86.817</ele>
        <time>2019-06-15T13:02:37Z</time>
      </trkpt>
      <trkpt lat="38.893318" lon="-0.212188">
        <ele>85.844</ele>
        <time>2019-06-15T13:02:39Z</time>
      </trkpt>
      <trkpt lat="38.893300" lon="-0.212244">
        <ele>85.563</ele>
        <time>2019-06-15T13:02:40Z</time>
      </trkpt>
      <trkpt lat="38.893255" lon="-0.212350">
        <ele>85.488</ele>
        <time>2019-06-15T13:02:42Z</time>
      </trkpt>
      <trkpt lat="38.893223" lon="-0.212396">
        <ele>85.816</ele>
        <time>2019-06-15T13:02:43Z</time>
      </trkpt>
      <trkpt lat="38.893197" lon="-0.212450">
        <ele>85.976</ele>
        <time>2019-06-15T13:02:44Z</time>
      </trkpt>
      <trkpt lat="38.893163" lon="-0.212498">
        <ele>86.313</ele>
        <time>2019-06-15T13:02:45Z</time>
      </trkpt>
      <trkpt lat="38.893131" lon="-0.212547">
        <ele>86.208</ele>
        <time>2019-06-15T13:02:46Z</time>
      </trkpt>
      <trkpt lat="38.893089" lon="-0.212587">
        <ele>86.434</ele>
        <time>2019-06-15T13:02:47Z</time>
      </trkpt>
      <trkpt lat="38.893050" lon="-0.212627">
        <ele>86.398</ele>
        <time>2019-06-15T13:02:48Z</time>
      </trkpt>
      <trkpt lat="38.892986" lon="-0.212689">
        <ele>86.097</ele>
        <time>2019-06-15T13:02:50Z</time>
      </trkpt>
      <trkpt lat="38.892913" lon="-0.212756">
        <ele>86.040</ele>
        <time>2019-06-15T13:02:52Z</time>
      </trkpt>
      <trkpt lat="38.892861" lon="-0.212790">
        <ele>86.352</ele>
        <time>2019-06-15T13:02:54Z</time>
      </trkpt>
      <trkpt lat="38.892815" lon="-0.212824">
        <ele>86.549</ele>
        <time>2019-06-15T13:02:55Z</time>
      </trkpt>
      <trkpt lat="38.892745" lon="-0.212867">
        <ele>86.438</ele>
        <time>2019-06-15T13:02:57Z</time>
      </trkpt>
      <trkpt lat="38.892701" lon="-0.212880">
        <ele>86.363</ele>
        <time>2019-06-15T13:02:58Z</time>
      </trkpt>
      <trkpt lat="38.892657" lon="-0.212903">
        <ele>86.174</ele>
        <time>2019-06-15T13:02:59Z</time>
      </trkpt>
      <trkpt lat="38.892613" lon="-0.212921">
        <ele>86.156</ele>
        <time>2019-06-15T13:03:00Z</time>
      </trkpt>
      <trkpt lat="38.892570" lon="-0.212941">
        <ele>86.121</ele>
        <time>2019-06-15T13:03:01Z</time>
      </trkpt>
      <trkpt lat="38.892498" lon="-0.212988">
        <ele>86.208</ele>
        <time>2019-06-15T13:03:03Z</time>
      </trkpt>
      <trkpt lat="38.892452" lon="-0.212996">
        <ele>86.360</ele>
        <time>2019-06-15T13:03:04Z</time>
      </trkpt>
      <trkpt lat="38.892361" lon="-0.213024">
        <ele>86.214</ele>
        <time>2019-06-15T13:03:06Z</time>
      </trkpt>
      <trkpt lat="38.892267" lon="-0.213054">
        <ele>86.093</ele>
        <time>2019-06-15T13:03:08Z</time>
      </trkpt>
      <trkpt lat="38.892217" lon="-0.213072">
        <ele>85.916</ele>
        <time>2019-06-15T13:03:09Z</time>
      </trkpt>
      <trkpt lat="38.892172" lon="-0.213099">
        <ele>85.588</ele>
        <time>2019-06-15T13:03:10Z</time>
      </trkpt>
      <trkpt lat="38.892126" lon="-0.213115">
        <ele>85.225</ele>
        <time>2019-06-15T13:03:11Z</time>
      </trkpt>
      <trkpt lat="38.892080" lon="-0.213133">
        <ele>84.884</ele>
        <time>2019-06-15T13:03:12Z</time>
      </trkpt>
      <trkpt lat="38.892033" lon="-0.213152">
        <ele>84.589</ele>
        <time>2019-06-15T13:03:13Z</time>
      </trkpt>
      <trkpt lat="38.891988" lon="-0.213163">
        <ele>84.338</ele>
        <time>2019-06-15T13:03:14Z</time>
      </trkpt>
      <trkpt lat="38.891935" lon="-0.213166">
        <ele>84.070</ele>
        <time>2019-06-15T13:03:15Z</time>
      </trkpt>
      <trkpt lat="38.891887" lon="-0.213184">
        <ele>83.717</ele>
        <time>2019-06-15T13:03:16Z</time>
      </trkpt>
      <trkpt lat="38.891806" lon="-0.213223">
        <ele>83.208</ele>
        <time>2019-06-15T13:03:18Z</time>
      </trkpt>
      <trkpt lat="38.891716" lon="-0.213252">
        <ele>82.666</ele>
        <time>2019-06-15T13:03:20Z</time>
      </trkpt>
      <trkpt lat="38.891662" lon="-0.213255">
        <ele>82.320</ele>
        <time>2019-06-15T13:03:21Z</time>
      </trkpt>
      <trkpt lat="38.891609" lon="-0.213262">
        <ele>82.859</ele>
        <time>2019-06-15T13:03:22Z</time>
      </trkpt>
      <trkpt lat="38.891560" lon="-0.213280">
        <ele>83.112</ele>
        <time>2019-06-15T13:03:23Z</time>
      </trkpt>
      <trkpt lat="38.891500" lon="-0.213294">
        <ele>83.544</ele>
        <time>2019-06-15T13:03:24Z</time>
      </trkpt>
      <trkpt lat="38.891412" lon="-0.213337">
        <ele>83.891</ele>
        <time>2019-06-15T13:03:26Z</time>
      </trkpt>
      <trkpt lat="38.891353" lon="-0.213347">
        <ele>84.450</ele>
        <time>2019-06-15T13:03:27Z</time>
      </trkpt>
      <trkpt lat="38.891262" lon="-0.213357">
        <ele>85.245</ele>
        <time>2019-06-15T13:03:29Z</time>
      </trkpt>
      <trkpt lat="38.891153" lon="-0.213358">
        <ele>86.279</ele>
        <time>2019-06-15T13:03:31Z</time>
      </trkpt>
      <trkpt lat="38.891094" lon="-0.213359">
        <ele>86.505</ele>
        <time>2019-06-15T13:03:32Z</time>
      </trkpt>
      <trkpt lat="38.891044" lon="-0.213364">
        <ele>86.225</ele>
        <time>2019-06-15T13:03:33Z</time>
      </trkpt>
      <trkpt lat="38.890991" lon="-0.213384">
        <ele>85.708</ele>
        <time>2019-06-15T13:03:34Z</time>
      </trkpt>
      <trkpt lat="38.890926" lon="-0.213423">
        <ele>84.760</ele>
        <time>2019-06-15T13:03:35Z</time>
      </trkpt>
      <trkpt lat="38.890877" lon="-0.213436">
        <ele>84.354</ele>
        <time>2019-06-15T13:03:36Z</time>
      </trkpt>
      <trkpt lat="38.890832" lon="-0.213438">
        <ele>84.123</ele>
        <time>2019-06-15T13:03:37Z</time>
      </trkpt>
      <trkpt lat="38.890780" lon="-0.213416">
        <ele>84.136</ele>
        <time>2019-06-15T13:03:38Z</time>
      </trkpt>
      <trkpt lat="38.890711" lon="-0.213435">
        <ele>83.118</ele>
        <time>2019-06-15T13:03:40Z</time>
      </trkpt>
      <trkpt lat="38.890659" lon="-0.213443">
        <ele>82.535</ele>
        <time>2019-06-15T13:03:41Z</time>
      </trkpt>
      <trkpt lat="38.890603" lon="-0.213427">
        <ele>82.454</ele>
        <time>2019-06-15T13:03:42Z</time>
      </trkpt>
      <trkpt lat="38.890558" lon="-0.213404">
        <ele>82.519</ele>
        <time>2019-06-15T13:03:43Z</time>
      </trkpt>
      <trkpt lat="38.890479" lon="-0.213421">
        <ele>82.362</ele>
        <time>2019-06-15T13:03:45Z</time>
      </trkpt>
      <trkpt lat="38.890431" lon="-0.213408">
        <ele>82.683</ele>
        <time>2019-06-15T13:03:46Z</time>
      </trkpt>
      <trkpt lat="38.890351" lon="-0.213404">
        <ele>82.811</ele>
        <time>2019-06-15T13:03:48Z</time>
      </trkpt>
      <trkpt lat="38.890297" lon="-0.213384">
        <ele>83.208</ele>
        <time>2019-06-15T13:03:49Z</time>
      </trkpt>
      <trkpt lat="38.890253" lon="-0.213371">
        <ele>83.459</ele>
        <time>2019-06-15T13:03:50Z</time>
      </trkpt>
      <trkpt lat="38.890201" lon="-0.213386">
        <ele>83.093</ele>
        <time>2019-06-15T13:03:51Z</time>
      </trkpt>
      <trkpt lat="38.890104" lon="-0.213348">
        <ele>83.282</ele>
        <time>2019-06-15T13:03:53Z</time>
      </trkpt>
      <trkpt lat="38.890043" lon="-0.213329">
        <ele>83.265</ele>
        <time>2019-06-15T13:03:54Z</time>
      </trkpt>
      <trkpt lat="38.890000" lon="-0.213303">
        <ele>83.477</ele>
        <time>2019-06-15T13:03:55Z</time>
      </trkpt>
      <trkpt lat="38.889958" lon="-0.213264">
        <ele>84.014</ele>
        <time>2019-06-15T13:03:56Z</time>
      </trkpt>
      <trkpt lat="38.889858" lon="-0.213232">
        <ele>84.313</ele>
        <time>2019-06-15T13:03:58Z</time>
      </trkpt>
      <trkpt lat="38.889812" lon="-0.213197">
        <ele>84.638</ele>
        <time>2019-06-15T13:03:59Z</time>
      </trkpt>
      <trkpt lat="38.889736" lon="-0.213150">
        <ele>85.021</ele>
        <time>2019-06-15T13:04:01Z</time>
      </trkpt>
      <trkpt lat="38.889687" lon="-0.213124">
        <ele>84.941</ele>
        <time>2019-06-15T13:04:02Z</time>
      </trkpt>
      <trkpt lat="38.889649" lon="-0.213088">
        <ele>84.905</ele>
        <time>2019-06-15T13:04:03Z</time>
      </trkpt>
      <trkpt lat="38.889576" lon="-0.213046">
        <ele>84.608</ele>
        <time>2019-06-15T13:04:05Z</time>
      </trkpt>
      <trkpt lat="38.889544" lon="-0.213003">
        <ele>84.985</ele>
        <time>2019-06-15T13:04:06Z</time>
      </trkpt>
      <trkpt lat="38.889498" lon="-0.212984">
        <ele>84.799</ele>
        <time>2019-06-15T13:04:07Z</time>
      </trkpt>
      <trkpt lat="38.889464" lon="-0.212944">
        <ele>84.838</ele>
        <time>2019-06-15T13:04:08Z</time>
      </trkpt>
      <trkpt lat="38.889412" lon="-0.212926">
        <ele>84.621</ele>
        <time>2019-06-15T13:04:09Z</time>
      </trkpt>
      <trkpt lat="38.889372" lon="-0.212887">
        <ele>84.723</ele>
        <time>2019-06-15T13:04:10Z</time>
      </trkpt>
      <trkpt lat="38.889325" lon="-0.212864">
        <ele>84.430</ele>
        <time>2019-06-15T13:04:11Z</time>
      </trkpt>
      <trkpt lat="38.889284" lon="-0.212840">
        <ele>84.299</ele>
        <time>2019-06-15T13:04:12Z</time>
      </trkpt>
      <trkpt lat="38.889202" lon="-0.212803">
        <ele>83.474</ele>
        <time>2019-06-15T13:04:14Z</time>
      </trkpt>
      <trkpt lat="38.889156" lon="-0.212771">
        <ele>83.234</ele>
        <time>2019-06-15T13:04:15Z</time>
      </trkpt>
      <trkpt lat="38.889071" lon="-0.212724">
        <ele>84.955</ele>
        <time>2019-06-15T13:04:17Z</time>
      </trkpt>
      <trkpt lat="38.889002" lon="-0.212668">
        <ele>86.310</ele>
        <time>2019-06-15T13:04:19Z</time>
      </trkpt>
      <trkpt lat="38.888960" lon="-0.212647">
        <ele>86.908</ele>
        <time>2019-06-15T13:04:20Z</time>
      </trkpt>
      <trkpt lat="38.888874" lon="-0.212622">
        <ele>87.856</ele>
        <time>2019-06-15T13:04:22Z</time>
      </trkpt>
      <trkpt lat="38.888829" lon="-0.212621">
        <ele>88.290</ele>
        <time>2019-06-15T13:04:23Z</time>
      </trkpt>
      <trkpt lat="38.888775" lon="-0.212603">
        <ele>88.969</ele>
        <time>2019-06-15T13:04:24Z</time>
      </trkpt>
      <trkpt lat="38.888714" lon="-0.212616">
        <ele>89.322</ele>
        <time>2019-06-15T13:04:25Z</time>
      </trkpt>
      <trkpt lat="38.888639" lon="-0.212560">
        <ele>90.364</ele>
        <time>2019-06-15T13:04:27Z</time>
      </trkpt>
      <trkpt lat="38.888607" lon="-0.212517">
        <ele>90.971</ele>
        <time>2019-06-15T13:04:28Z</time>
      </trkpt>
      <trkpt lat="38.888544" lon="-0.212459">
        <ele>92.160</ele>
        <time>2019-06-15T13:04:30Z</time>
      </trkpt>
      <trkpt lat="38.888491" lon="-0.212451">
        <ele>92.875</ele>
        <time>2019-06-15T13:04:31Z</time>
      </trkpt>
      <trkpt lat="38.888431" lon="-0.212396">
        <ele>93.794</ele>
        <time>2019-06-15T13:04:33Z</time>
      </trkpt>
      <trkpt lat="38.888348" lon="-0.212371">
        <ele>94.857</ele>
        <time>2019-06-15T13:04:35Z</time>
      </trkpt>
      <trkpt lat="38.888348" lon="-0.212371">
        <ele>94.822</ele>
        <time>2019-06-15T13:04:35Z</time>
      </trkpt>
      <trkpt lat="38.888198" lon="-0.212355">
        <ele>94.508</ele>
        <time>2019-06-15T13:04:41Z</time>
      </trkpt>
      <trkpt lat="38.888198" lon="-0.212355">
        <ele>94.582</ele>
        <time>2019-06-15T13:04:41Z</time>
      </trkpt>
      <trkpt lat="38.888198" lon="-0.212355">
        <ele>94.586</ele>
        <time>2019-06-15T13:04:41Z</time>
      </trkpt>
      <trkpt lat="38.888198" lon="-0.212355">
        <ele>94.565</ele>
        <time>2019-06-15T13:04:41Z</time>
      </trkpt>
      <trkpt lat="38.888198" lon="-0.212355">
        <ele>94.578</ele>
        <time>2019-06-15T13:04:41Z</time>
      </trkpt>
      <trkpt lat="38.888198" lon="-0.212355">
        <ele>94.520</ele>
        <time>2019-06-15T13:04:41Z</time>
      </trkpt>
      <trkpt lat="38.888198" lon="-0.212355">
        <ele>94.537</ele>
        <time>2019-06-15T13:04:41Z</time>
      </trkpt>
      <trkpt lat="38.888097" lon="-0.212430">
        <ele>94.196</ele>
        <time>2019-06-15T13:04:46Z</time>
      </trkpt>
      <trkpt lat="38.888097" lon="-0.212430">
        <ele>94.111</ele>
        <time>2019-06-15T13:04:46Z</time>
      </trkpt>
      <trkpt lat="38.888097" lon="-0.212430">
        <ele>94.154</ele>
        <time>2019-06-15T13:04:46Z</time>
      </trkpt>
      <trkpt lat="38.888097" lon="-0.212430">
        <ele>94.156</ele>
        <time>2019-06-15T13:04:46Z</time>
      </trkpt>
      <trkpt lat="38.888097" lon="-0.212430">
        <ele>94.111</ele>
        <time>2019-06-15T13:04:46Z</time>
      </trkpt>
      <trkpt lat="38.887971" lon="-0.212598">
        <ele>93.808</ele>
        <time>2019-06-15T13:04:50Z</time>
      </trkpt>
      <trkpt lat="38.887971" lon="-0.212598">
        <ele>93.858</ele>
        <time>2019-06-15T13:04:50Z</time>
      </trkpt>
      <trkpt lat="38.887971" lon="-0.212598">
        <ele>93.842</ele>
        <time>2019-06-15T13:04:50Z</time>
      </trkpt>
      <trkpt lat="38.887971" lon="-0.212598">
        <ele>93.821</ele>
        <time>2019-06-15T13:04:50Z</time>
      </trkpt>
      <trkpt lat="38.887901" lon="-0.212708">
        <ele>93.914</ele>
        <time>2019-06-15T13:04:53Z</time>
      </trkpt>
      <trkpt lat="38.887901" lon="-0.212708">
        <ele>93.956</ele>
        <time>2019-06-15T13:04:53Z</time>
      </trkpt>
      <trkpt lat="38.887901" lon="-0.212708">
        <ele>93.973</ele>
        <time>2019-06-15T13:04:53Z</time>
      </trkpt>
      <trkpt lat="38.887853" lon="-0.212783">
        <ele>94.012</ele>
        <time>2019-06-15T13:04:55Z</time>
      </trkpt>
      <trkpt lat="38.887853" lon="-0.212783">
        <ele>94.047</ele>
        <time>2019-06-15T13:04:55Z</time>
      </trkpt>
      <trkpt lat="38.887804" lon="-0.212869">
        <ele>94.367</ele>
        <time>2019-06-15T13:04:57Z</time>
      </trkpt>
      <trkpt lat="38.887804" lon="-0.212869">
        <ele>94.381</ele>
        <time>2019-06-15T13:04:57Z</time>
      </trkpt>
      <trkpt lat="38.887758" lon="-0.212961">
        <ele>94.719</ele>
        <time>2019-06-15T13:04:59Z</time>
      </trkpt>
      <trkpt lat="38.887758" lon="-0.212961">
        <ele>94.708</ele>
        <time>2019-06-15T13:04:59Z</time>
      </trkpt>
      <trkpt lat="38.887687" lon="-0.213071">
        <ele>95.259</ele>
        <time>2019-06-15T13:05:01Z</time>
      </trkpt>
      <trkpt lat="38.887687" lon="-0.213071">
        <ele>95.213</ele>
        <time>2019-06-15T13:05:01Z</time>
      </trkpt>
      <trkpt lat="38.887626" lon="-0.213146">
        <ele>95.142</ele>
        <time>2019-06-15T13:05:03Z</time>
      </trkpt>
      <trkpt lat="38.887596" lon="-0.213201">
        <ele>95.095</ele>
        <time>2019-06-15T13:05:04Z</time>
      </trkpt>
      <trkpt lat="38.887556" lon="-0.213304">
        <ele>94.727</ele>
        <time>2019-06-15T13:05:06Z</time>
      </trkpt>
      <trkpt lat="38.887544" lon="-0.213364">
        <ele>94.334</ele>
        <time>2019-06-15T13:05:07Z</time>
      </trkpt>
      <trkpt lat="38.887490" lon="-0.213447">
        <ele>93.433</ele>
        <time>2019-06-15T13:05:09Z</time>
      </trkpt>
      <trkpt lat="38.887454" lon="-0.213536">
        <ele>92.368</ele>
        <time>2019-06-15T13:05:11Z</time>
      </trkpt>
      <trkpt lat="38.887406" lon="-0.213577">
        <ele>92.169</ele>
        <time>2019-06-15T13:05:12Z</time>
      </trkpt>
      <trkpt lat="38.887371" lon="-0.213670">
        <ele>91.604</ele>
        <time>2019-06-15T13:05:14Z</time>
      </trkpt>
      <trkpt lat="38.887395" lon="-0.213741">
        <ele>91.124</ele>
        <time>2019-06-15T13:05:15Z</time>
      </trkpt>
      <trkpt lat="38.887356" lon="-0.213835">
        <ele>90.808</ele>
        <time>2019-06-15T13:05:17Z</time>
      </trkpt>
      <trkpt lat="38.887314" lon="-0.213918">
        <ele>90.629</ele>
        <time>2019-06-15T13:05:19Z</time>
      </trkpt>
      <trkpt lat="38.887292" lon="-0.214043">
        <ele>90.523</ele>
        <time>2019-06-15T13:05:21Z</time>
      </trkpt>
      <trkpt lat="38.887231" lon="-0.214055">
        <ele>90.462</ele>
        <time>2019-06-15T13:05:22Z</time>
      </trkpt>
      <trkpt lat="38.887254" lon="-0.214125">
        <ele>90.255</ele>
        <time>2019-06-15T13:05:23Z</time>
      </trkpt>
      <trkpt lat="38.887200" lon="-0.214212">
        <ele>88.677</ele>
        <time>2019-06-15T13:05:25Z</time>
      </trkpt>
      <trkpt lat="38.887196" lon="-0.214276">
        <ele>87.094</ele>
        <time>2019-06-15T13:05:26Z</time>
      </trkpt>
      <trkpt lat="38.887144" lon="-0.214382">
        <ele>84.223</ele>
        <time>2019-06-15T13:05:28Z</time>
      </trkpt>
      <trkpt lat="38.887130" lon="-0.214449">
        <ele>82.678</ele>
        <time>2019-06-15T13:05:29Z</time>
      </trkpt>
      <trkpt lat="38.887110" lon="-0.214524">
        <ele>82.057</ele>
        <time>2019-06-15T13:05:30Z</time>
      </trkpt>
      <trkpt lat="38.887093" lon="-0.214578">
        <ele>81.600</ele>
        <time>2019-06-15T13:05:31Z</time>
      </trkpt>
      <trkpt lat="38.887083" lon="-0.214644">
        <ele>81.120</ele>
        <time>2019-06-15T13:05:32Z</time>
      </trkpt>
      <trkpt lat="38.887053" lon="-0.214749">
        <ele>80.808</ele>
        <time>2019-06-15T13:05:34Z</time>
      </trkpt>
      <trkpt lat="38.887041" lon="-0.214854">
        <ele>82.498</ele>
        <time>2019-06-15T13:05:36Z</time>
      </trkpt>
      <trkpt lat="38.887033" lon="-0.214970">
        <ele>84.292</ele>
        <time>2019-06-15T13:05:38Z</time>
      </trkpt>
      <trkpt lat="38.887026" lon="-0.215031">
        <ele>85.221</ele>
        <time>2019-06-15T13:05:39Z</time>
      </trkpt>
      <trkpt lat="38.887003" lon="-0.215139">
        <ele>87.394</ele>
        <time>2019-06-15T13:05:41Z</time>
      </trkpt>
      <trkpt lat="38.886984" lon="-0.215248">
        <ele>89.596</ele>
        <time>2019-06-15T13:05:43Z</time>
      </trkpt>
      <trkpt lat="38.886970" lon="-0.215359">
        <ele>91.013</ele>
        <time>2019-06-15T13:05:45Z</time>
      </trkpt>
      <trkpt lat="38.886954" lon="-0.215466">
        <ele>92.192</ele>
        <time>2019-06-15T13:05:47Z</time>
      </trkpt>
      <trkpt lat="38.886933" lon="-0.215574">
        <ele>93.277</ele>
        <time>2019-06-15T13:05:49Z</time>
      </trkpt>
      <trkpt lat="38.886921" lon="-0.215640">
        <ele>93.867</ele>
        <time>2019-06-15T13:05:50Z</time>
      </trkpt>
      <trkpt lat="38.886908" lon="-0.215755">
        <ele>94.681</ele>
        <time>2019-06-15T13:05:52Z</time>
      </trkpt>
      <trkpt lat="38.886909" lon="-0.215869">
        <ele>95.419</ele>
        <time>2019-06-15T13:05:54Z</time>
      </trkpt>
      <trkpt lat="38.886905" lon="-0.215932">
        <ele>95.808</ele>
        <time>2019-06-15T13:05:55Z</time>
      </trkpt>
      <trkpt lat="38.886899" lon="-0.216043">
        <ele>96.419</ele>
        <time>2019-06-15T13:05:57Z</time>
      </trkpt>
      <trkpt lat="38.886898" lon="-0.216112">
        <ele>96.833</ele>
        <time>2019-06-15T13:05:58Z</time>
      </trkpt>
      <trkpt lat="38.886898" lon="-0.216217">
        <ele>96.572</ele>
        <time>2019-06-15T13:06:00Z</time>
      </trkpt>
      <trkpt lat="38.886884" lon="-0.216322">
        <ele>96.285</ele>
        <time>2019-06-15T13:06:02Z</time>
      </trkpt>
      <trkpt lat="38.886885" lon="-0.216431">
        <ele>95.647</ele>
        <time>2019-06-15T13:06:04Z</time>
      </trkpt>
      <trkpt lat="38.886890" lon="-0.216545">
        <ele>94.494</ele>
        <time>2019-06-15T13:06:06Z</time>
      </trkpt>
      <trkpt lat="38.886880" lon="-0.216652">
        <ele>93.453</ele>
        <time>2019-06-15T13:06:08Z</time>
      </trkpt>
      <trkpt lat="38.886884" lon="-0.216758">
        <ele>92.728</ele>
        <time>2019-06-15T13:06:10Z</time>
      </trkpt>
      <trkpt lat="38.886886" lon="-0.216821">
        <ele>92.319</ele>
        <time>2019-06-15T13:06:11Z</time>
      </trkpt>
      <trkpt lat="38.886880" lon="-0.216937">
        <ele>91.709</ele>
        <time>2019-06-15T13:06:13Z</time>
      </trkpt>
      <trkpt lat="38.886881" lon="-0.216996">
        <ele>91.719</ele>
        <time>2019-06-15T13:06:14Z</time>
      </trkpt>
      <trkpt lat="38.886878" lon="-0.217104">
        <ele>91.708</ele>
        <time>2019-06-15T13:06:16Z</time>
      </trkpt>
      <trkpt lat="38.886879" lon="-0.217209">
        <ele>91.714</ele>
        <time>2019-06-15T13:06:18Z</time>
      </trkpt>
      <trkpt lat="38.886879" lon="-0.217310">
        <ele>92.678</ele>
        <time>2019-06-15T13:06:20Z</time>
      </trkpt>
      <trkpt lat="38.886880" lon="-0.217411">
        <ele>93.667</ele>
        <time>2019-06-15T13:06:22Z</time>
      </trkpt>
      <trkpt lat="38.886882" lon="-0.217513">
        <ele>94.540</ele>
        <time>2019-06-15T13:06:24Z</time>
      </trkpt>
      <trkpt lat="38.886879" lon="-0.217588">
        <ele>95.132</ele>
        <time>2019-06-15T13:06:26Z</time>
      </trkpt>
      <trkpt lat="38.886876" lon="-0.217654">
        <ele>95.639</ele>
        <time>2019-06-15T13:06:27Z</time>
      </trkpt>
      <trkpt lat="38.886878" lon="-0.217744">
        <ele>96.218</ele>
        <time>2019-06-15T13:06:29Z</time>
      </trkpt>
      <trkpt lat="38.886878" lon="-0.217835">
        <ele>96.823</ele>
        <time>2019-06-15T13:06:31Z</time>
      </trkpt>
      <trkpt lat="38.886874" lon="-0.217933">
        <ele>97.353</ele>
        <time>2019-06-15T13:06:33Z</time>
      </trkpt>
      <trkpt lat="38.886874" lon="-0.218036">
        <ele>97.904</ele>
        <time>2019-06-15T13:06:35Z</time>
      </trkpt>
      <trkpt lat="38.886874" lon="-0.218145">
        <ele>98.214</ele>
        <time>2019-06-15T13:06:37Z</time>
      </trkpt>
      <trkpt lat="38.886873" lon="-0.218248">
        <ele>98.508</ele>
        <time>2019-06-15T13:06:39Z</time>
      </trkpt>
      <trkpt lat="38.886876" lon="-0.218351">
        <ele>98.858</ele>
        <time>2019-06-15T13:06:41Z</time>
      </trkpt>
      <trkpt lat="38.886874" lon="-0.218454">
        <ele>98.972</ele>
        <time>2019-06-15T13:06:43Z</time>
      </trkpt>
      <trkpt lat="38.886868" lon="-0.218559">
        <ele>98.981</ele>
        <time>2019-06-15T13:06:45Z</time>
      </trkpt>
      <trkpt lat="38.886860" lon="-0.218663">
        <ele>99.084</ele>
        <time>2019-06-15T13:06:47Z</time>
      </trkpt>
      <trkpt lat="38.886858" lon="-0.218768">
        <ele>99.026</ele>
        <time>2019-06-15T13:06:49Z</time>
      </trkpt>
      <trkpt lat="38.886860" lon="-0.218872">
        <ele>99.033</ele>
        <time>2019-06-15T13:06:51Z</time>
      </trkpt>
      <trkpt lat="38.886856" lon="-0.218969">
        <ele>98.872</ele>
        <time>2019-06-15T13:06:53Z</time>
      </trkpt>
      <trkpt lat="38.886850" lon="-0.219068">
        <ele>98.647</ele>
        <time>2019-06-15T13:06:55Z</time>
      </trkpt>
      <trkpt lat="38.886846" lon="-0.219167">
        <ele>98.421</ele>
        <time>2019-06-15T13:06:57Z</time>
      </trkpt>
      <trkpt lat="38.886845" lon="-0.219270">
        <ele>99.041</ele>
        <time>2019-06-15T13:06:59Z</time>
      </trkpt>
      <trkpt lat="38.886845" lon="-0.219371">
        <ele>99.605</ele>
        <time>2019-06-15T13:07:01Z</time>
      </trkpt>
      <trkpt lat="38.886843" lon="-0.219469">
        <ele>100.208</ele>
        <time>2019-06-15T13:07:03Z</time>
      </trkpt>
      <trkpt lat="38.886839" lon="-0.219566">
        <ele>100.985</ele>
        <time>2019-06-15T13:07:05Z</time>
      </trkpt>
      <trkpt lat="38.886837" lon="-0.219669">
        <ele>101.659</ele>
        <time>2019-06-15T13:07:07Z</time>
      </trkpt>
      <trkpt lat="38.886833" lon="-0.219769">
        <ele>102.178</ele>
        <time>2019-06-15T13:07:09Z</time>
      </trkpt>
      <trkpt lat="38.886829" lon="-0.219874">
        <ele>102.551</ele>
        <time>2019-06-15T13:07:11Z</time>
      </trkpt>
      <trkpt lat="38.886828" lon="-0.219985">
        <ele>102.883</ele>
        <time>2019-06-15T13:07:13Z</time>
      </trkpt>
      <trkpt lat="38.886827" lon="-0.220088">
        <ele>103.280</ele>
        <time>2019-06-15T13:07:15Z</time>
      </trkpt>
      <trkpt lat="38.886829" lon="-0.220190">
        <ele>103.519</ele>
        <time>2019-06-15T13:07:17Z</time>
      </trkpt>
      <trkpt lat="38.886828" lon="-0.220292">
        <ele>103.964</ele>
        <time>2019-06-15T13:07:19Z</time>
      </trkpt>
      <trkpt lat="38.886826" lon="-0.220400">
        <ele>104.131</ele>
        <time>2019-06-15T13:07:21Z</time>
      </trkpt>
      <trkpt lat="38.886822" lon="-0.220505">
        <ele>104.361</ele>
        <time>2019-06-15T13:07:23Z</time>
      </trkpt>
      <trkpt lat="38.886819" lon="-0.220606">
        <ele>104.507</ele>
        <time>2019-06-15T13:07:25Z</time>
      </trkpt>
      <trkpt lat="38.886819" lon="-0.220707">
        <ele>104.508</ele>
        <time>2019-06-15T13:07:27Z</time>
      </trkpt>
      <trkpt lat="38.886823" lon="-0.220809">
        <ele>104.486</ele>
        <time>2019-06-15T13:07:29Z</time>
      </trkpt>
      <trkpt lat="38.886826" lon="-0.220910">
        <ele>104.380</ele>
        <time>2019-06-15T13:07:31Z</time>
      </trkpt>
      <trkpt lat="38.886827" lon="-0.221015">
        <ele>104.069</ele>
        <time>2019-06-15T13:07:33Z</time>
      </trkpt>
      <trkpt lat="38.886826" lon="-0.221123">
        <ele>103.932</ele>
        <time>2019-06-15T13:07:35Z</time>
      </trkpt>
      <trkpt lat="38.886827" lon="-0.221230">
        <ele>103.844</ele>
        <time>2019-06-15T13:07:37Z</time>
      </trkpt>
      <trkpt lat="38.886825" lon="-0.221336">
        <ele>103.951</ele>
        <time>2019-06-15T13:07:39Z</time>
      </trkpt>
      <trkpt lat="38.886819" lon="-0.221448">
        <ele>103.630</ele>
        <time>2019-06-15T13:07:41Z</time>
      </trkpt>
      <trkpt lat="38.886814" lon="-0.221560">
        <ele>103.085</ele>
        <time>2019-06-15T13:07:43Z</time>
      </trkpt>
      <trkpt lat="38.886814" lon="-0.221618">
        <ele>102.712</ele>
        <time>2019-06-15T13:07:44Z</time>
      </trkpt>
      <trkpt lat="38.886813" lon="-0.221677">
        <ele>102.432</ele>
        <time>2019-06-15T13:07:45Z</time>
      </trkpt>
      <trkpt lat="38.886810" lon="-0.221736">
        <ele>102.205</ele>
        <time>2019-06-15T13:07:46Z</time>
      </trkpt>
      <trkpt lat="38.886804" lon="-0.221848">
        <ele>101.908</ele>
        <time>2019-06-15T13:07:48Z</time>
      </trkpt>
      <trkpt lat="38.886799" lon="-0.221964">
        <ele>101.644</ele>
        <time>2019-06-15T13:07:50Z</time>
      </trkpt>
      <trkpt lat="38.886795" lon="-0.222072">
        <ele>102.198</ele>
        <time>2019-06-15T13:07:52Z</time>
      </trkpt>
      <trkpt lat="38.886795" lon="-0.222136">
        <ele>102.397</ele>
        <time>2019-06-15T13:07:53Z</time>
      </trkpt>
      <trkpt lat="38.886797" lon="-0.222255">
        <ele>102.650</ele>
        <time>2019-06-15T13:07:55Z</time>
      </trkpt>
      <trkpt lat="38.886797" lon="-0.222319">
        <ele>102.822</ele>
        <time>2019-06-15T13:07:56Z</time>
      </trkpt>
      <trkpt lat="38.886784" lon="-0.222422">
        <ele>103.099</ele>
        <time>2019-06-15T13:07:58Z</time>
      </trkpt>
      <trkpt lat="38.886786" lon="-0.222529">
        <ele>103.318</ele>
        <time>2019-06-15T13:08:00Z</time>
      </trkpt>
      <trkpt lat="38.886785" lon="-0.222592">
        <ele>103.853</ele>
        <time>2019-06-15T13:08:01Z</time>
      </trkpt>
      <trkpt lat="38.886774" lon="-0.222710">
        <ele>104.631</ele>
        <time>2019-06-15T13:08:03Z</time>
      </trkpt>
      <trkpt lat="38.886771" lon="-0.222775">
        <ele>105.061</ele>
        <time>2019-06-15T13:08:04Z</time>
      </trkpt>
      <trkpt lat="38.886768" lon="-0.222835">
        <ele>105.307</ele>
        <time>2019-06-15T13:08:05Z</time>
      </trkpt>
      <trkpt lat="38.886767" lon="-0.222950">
        <ele>105.808</ele>
        <time>2019-06-15T13:08:07Z</time>
      </trkpt>
      <trkpt lat="38.886764" lon="-0.223015">
        <ele>106.166</ele>
        <time>2019-06-15T13:08:08Z</time>
      </trkpt>
      <trkpt lat="38.886753" lon="-0.223075">
        <ele>106.440</ele>
        <time>2019-06-15T13:08:09Z</time>
      </trkpt>
      <trkpt lat="38.886759" lon="-0.223150">
        <ele>106.739</ele>
        <time>2019-06-15T13:08:10Z</time>
      </trkpt>
      <trkpt lat="38.886755" lon="-0.223218">
        <ele>106.932</ele>
        <time>2019-06-15T13:08:11Z</time>
      </trkpt>
      <trkpt lat="38.886752" lon="-0.223292">
        <ele>107.274</ele>
        <time>2019-06-15T13:08:12Z</time>
      </trkpt>
      <trkpt lat="38.886753" lon="-0.223364">
        <ele>107.671</ele>
        <time>2019-06-15T13:08:13Z</time>
      </trkpt>
      <trkpt lat="38.886749" lon="-0.223423">
        <ele>107.950</ele>
        <time>2019-06-15T13:08:14Z</time>
      </trkpt>
      <trkpt lat="38.886743" lon="-0.223489">
        <ele>108.395</ele>
        <time>2019-06-15T13:08:15Z</time>
      </trkpt>
      <trkpt lat="38.886740" lon="-0.223551">
        <ele>108.765</ele>
        <time>2019-06-15T13:08:16Z</time>
      </trkpt>
      <trkpt lat="38.886742" lon="-0.223621">
        <ele>109.068</ele>
        <time>2019-06-15T13:08:17Z</time>
      </trkpt>
      <trkpt lat="38.886741" lon="-0.223688">
        <ele>108.914</ele>
        <time>2019-06-15T13:08:18Z</time>
      </trkpt>
      <trkpt lat="38.886755" lon="-0.223773">
        <ele>108.808</ele>
        <time>2019-06-15T13:08:19Z</time>
      </trkpt>
      <trkpt lat="38.886752" lon="-0.223839">
        <ele>108.769</ele>
        <time>2019-06-15T13:08:20Z</time>
      </trkpt>
      <trkpt lat="38.886746" lon="-0.223906">
        <ele>108.663</ele>
        <time>2019-06-15T13:08:21Z</time>
      </trkpt>
      <trkpt lat="38.886750" lon="-0.223971">
        <ele>108.122</ele>
        <time>2019-06-15T13:08:22Z</time>
      </trkpt>
      <trkpt lat="38.886756" lon="-0.224047">
        <ele>107.545</ele>
        <time>2019-06-15T13:08:23Z</time>
      </trkpt>
      <trkpt lat="38.886757" lon="-0.224113">
        <ele>107.167</ele>
        <time>2019-06-15T13:08:24Z</time>
      </trkpt>
      <trkpt lat="38.886754" lon="-0.224182">
        <ele>106.614</ele>
        <time>2019-06-15T13:08:25Z</time>
      </trkpt>
      <trkpt lat="38.886750" lon="-0.224248">
        <ele>106.133</ele>
        <time>2019-06-15T13:08:26Z</time>
      </trkpt>
      <trkpt lat="38.886748" lon="-0.224307">
        <ele>105.658</ele>
        <time>2019-06-15T13:08:27Z</time>
      </trkpt>
      <trkpt lat="38.886738" lon="-0.224372">
        <ele>105.284</ele>
        <time>2019-06-15T13:08:28Z</time>
      </trkpt>
      <trkpt lat="38.886731" lon="-0.224440">
        <ele>104.907</ele>
        <time>2019-06-15T13:08:29Z</time>
      </trkpt>
      <trkpt lat="38.886727" lon="-0.224515">
        <ele>104.317</ele>
        <time>2019-06-15T13:08:30Z</time>
      </trkpt>
      <trkpt lat="38.886718" lon="-0.224583">
        <ele>103.908</ele>
        <time>2019-06-15T13:08:31Z</time>
      </trkpt>
      <trkpt lat="38.886711" lon="-0.224655">
        <ele>103.431</ele>
        <time>2019-06-15T13:08:32Z</time>
      </trkpt>
      <trkpt lat="38.886702" lon="-0.224725">
        <ele>103.195</ele>
        <time>2019-06-15T13:08:33Z</time>
      </trkpt>
      <trkpt lat="38.886695" lon="-0.224805">
        <ele>103.374</ele>
        <time>2019-06-15T13:08:34Z</time>
      </trkpt>
      <trkpt lat="38.886681" lon="-0.224877">
        <ele>103.627</ele>
        <time>2019-06-15T13:08:35Z</time>
      </trkpt>
      <trkpt lat="38.886667" lon="-0.224944">
        <ele>104.069</ele>
        <time>2019-06-15T13:08:36Z</time>
      </trkpt>
      <trkpt lat="38.886653" lon="-0.225008">
        <ele>104.286</ele>
        <time>2019-06-15T13:08:37Z</time>
      </trkpt>
      <trkpt lat="38.886635" lon="-0.225073">
        <ele>104.645</ele>
        <time>2019-06-15T13:08:38Z</time>
      </trkpt>
      <trkpt lat="38.886617" lon="-0.225141">
        <ele>104.970</ele>
        <time>2019-06-15T13:08:39Z</time>
      </trkpt>
      <trkpt lat="38.886614" lon="-0.225202">
        <ele>104.995</ele>
        <time>2019-06-15T13:08:40Z</time>
      </trkpt>
      <trkpt lat="38.886593" lon="-0.225262">
        <ele>105.349</ele>
        <time>2019-06-15T13:08:41Z</time>
      </trkpt>
      <trkpt lat="38.886580" lon="-0.225324">
        <ele>105.223</ele>
        <time>2019-06-15T13:08:42Z</time>
      </trkpt>
      <trkpt lat="38.886543" lon="-0.225437">
        <ele>105.108</ele>
        <time>2019-06-15T13:08:44Z</time>
      </trkpt>
      <trkpt lat="38.886523" lon="-0.225494">
        <ele>105.092</ele>
        <time>2019-06-15T13:08:45Z</time>
      </trkpt>
      <trkpt lat="38.886508" lon="-0.225554">
        <ele>104.916</ele>
        <time>2019-06-15T13:08:46Z</time>
      </trkpt>
      <trkpt lat="38.886491" lon="-0.225610">
        <ele>104.935</ele>
        <time>2019-06-15T13:08:47Z</time>
      </trkpt>
      <trkpt lat="38.886472" lon="-0.225673">
        <ele>105.028</ele>
        <time>2019-06-15T13:08:48Z</time>
      </trkpt>
      <trkpt lat="38.886453" lon="-0.225735">
        <ele>105.150</ele>
        <time>2019-06-15T13:08:49Z</time>
      </trkpt>
      <trkpt lat="38.886426" lon="-0.225789">
        <ele>105.457</ele>
        <time>2019-06-15T13:08:50Z</time>
      </trkpt>
      <trkpt lat="38.886401" lon="-0.225857">
        <ele>105.756</ele>
        <time>2019-06-15T13:08:51Z</time>
      </trkpt>
      <trkpt lat="38.886386" lon="-0.225926">
        <ele>105.791</ele>
        <time>2019-06-15T13:08:52Z</time>
      </trkpt>
      <trkpt lat="38.886370" lon="-0.225993">
        <ele>105.817</ele>
        <time>2019-06-15T13:08:53Z</time>
      </trkpt>
      <trkpt lat="38.886350" lon="-0.226045">
        <ele>106.287</ele>
        <time>2019-06-15T13:08:54Z</time>
      </trkpt>
      <trkpt lat="38.886322" lon="-0.226114">
        <ele>106.715</ele>
        <time>2019-06-15T13:08:55Z</time>
      </trkpt>
      <trkpt lat="38.886305" lon="-0.226168">
        <ele>106.808</ele>
        <time>2019-06-15T13:08:56Z</time>
      </trkpt>
      <trkpt lat="38.886285" lon="-0.226231">
        <ele>107.064</ele>
        <time>2019-06-15T13:08:57Z</time>
      </trkpt>
      <trkpt lat="38.886251" lon="-0.226297">
        <ele>107.518</ele>
        <time>2019-06-15T13:08:58Z</time>
      </trkpt>
      <trkpt lat="38.886222" lon="-0.226371">
        <ele>107.777</ele>
        <time>2019-06-15T13:08:59Z</time>
      </trkpt>
      <trkpt lat="38.886197" lon="-0.226438">
        <ele>107.740</ele>
        <time>2019-06-15T13:09:00Z</time>
      </trkpt>
      <trkpt lat="38.886173" lon="-0.226511">
        <ele>107.472</ele>
        <time>2019-06-15T13:09:01Z</time>
      </trkpt>
      <trkpt lat="38.886148" lon="-0.226598">
        <ele>107.099</ele>
        <time>2019-06-15T13:09:02Z</time>
      </trkpt>
      <trkpt lat="38.886131" lon="-0.226670">
        <ele>106.638</ele>
        <time>2019-06-15T13:09:03Z</time>
      </trkpt>
      <trkpt lat="38.886109" lon="-0.226739">
        <ele>106.083</ele>
        <time>2019-06-15T13:09:04Z</time>
      </trkpt>
      <trkpt lat="38.886087" lon="-0.226807">
        <ele>105.289</ele>
        <time>2019-06-15T13:09:05Z</time>
      </trkpt>
      <trkpt lat="38.886070" lon="-0.226881">
        <ele>104.406</ele>
        <time>2019-06-15T13:09:06Z</time>
      </trkpt>
      <trkpt lat="38.886043" lon="-0.226950">
        <ele>103.926</ele>
        <time>2019-06-15T13:09:07Z</time>
      </trkpt>
      <trkpt lat="38.886020" lon="-0.227018">
        <ele>103.808</ele>
        <time>2019-06-15T13:09:08Z</time>
      </trkpt>
      <trkpt lat="38.886007" lon="-0.227089">
        <ele>103.571</ele>
        <time>2019-06-15T13:09:09Z</time>
      </trkpt>
      <trkpt lat="38.885986" lon="-0.227152">
        <ele>103.335</ele>
        <time>2019-06-15T13:09:10Z</time>
      </trkpt>
      <trkpt lat="38.885960" lon="-0.227207">
        <ele>103.354</ele>
        <time>2019-06-15T13:09:11Z</time>
      </trkpt>
      <trkpt lat="38.885938" lon="-0.227272">
        <ele>103.727</ele>
        <time>2019-06-15T13:09:12Z</time>
      </trkpt>
      <trkpt lat="38.885911" lon="-0.227331">
        <ele>104.259</ele>
        <time>2019-06-15T13:09:13Z</time>
      </trkpt>
      <trkpt lat="38.885894" lon="-0.227394">
        <ele>104.586</ele>
        <time>2019-06-15T13:09:14Z</time>
      </trkpt>
      <trkpt lat="38.885876" lon="-0.227453">
        <ele>104.835</ele>
        <time>2019-06-15T13:09:15Z</time>
      </trkpt>
      <trkpt lat="38.885866" lon="-0.227520">
        <ele>105.110</ele>
        <time>2019-06-15T13:09:16Z</time>
      </trkpt>
      <trkpt lat="38.885840" lon="-0.227574">
        <ele>105.813</ele>
        <time>2019-06-15T13:09:17Z</time>
      </trkpt>
      <trkpt lat="38.885853" lon="-0.227646">
        <ele>106.543</ele>
        <time>2019-06-15T13:09:18Z</time>
      </trkpt>
      <trkpt lat="38.885867" lon="-0.227706">
        <ele>107.107</ele>
        <time>2019-06-15T13:09:19Z</time>
      </trkpt>
      <trkpt lat="38.885882" lon="-0.227765">
        <ele>107.708</ele>
        <time>2019-06-15T13:09:20Z</time>
      </trkpt>
      <trkpt lat="38.885895" lon="-0.227821">
        <ele>108.134</ele>
        <time>2019-06-15T13:09:21Z</time>
      </trkpt>
      <trkpt lat="38.885896" lon="-0.227900">
        <ele>108.768</ele>
        <time>2019-06-15T13:09:22Z</time>
      </trkpt>
      <trkpt lat="38.885901" lon="-0.227959">
        <ele>109.177</ele>
        <time>2019-06-15T13:09:23Z</time>
      </trkpt>
      <trkpt lat="38.885909" lon="-0.228071">
        <ele>109.790</ele>
        <time>2019-06-15T13:09:25Z</time>
      </trkpt>
      <trkpt lat="38.885905" lon="-0.228183">
        <ele>109.682</ele>
        <time>2019-06-15T13:09:27Z</time>
      </trkpt>
      <trkpt lat="38.885908" lon="-0.228250">
        <ele>109.519</ele>
        <time>2019-06-15T13:09:28Z</time>
      </trkpt>
      <trkpt lat="38.885895" lon="-0.228311">
        <ele>109.678</ele>
        <time>2019-06-15T13:09:29Z</time>
      </trkpt>
      <trkpt lat="38.885897" lon="-0.228369">
        <ele>109.253</ele>
        <time>2019-06-15T13:09:30Z</time>
      </trkpt>
      <trkpt lat="38.885894" lon="-0.228436">
        <ele>108.562</ele>
        <time>2019-06-15T13:09:31Z</time>
      </trkpt>
      <trkpt lat="38.885928" lon="-0.228535">
        <ele>107.183</ele>
        <time>2019-06-15T13:09:33Z</time>
      </trkpt>
      <trkpt lat="38.885923" lon="-0.228625">
        <ele>106.111</ele>
        <time>2019-06-15T13:09:35Z</time>
      </trkpt>
      <trkpt lat="38.885919" lon="-0.228709">
        <ele>104.708</ele>
        <time>2019-06-15T13:09:37Z</time>
      </trkpt>
      <trkpt lat="38.885943" lon="-0.228818">
        <ele>102.879</ele>
        <time>2019-06-15T13:09:39Z</time>
      </trkpt>
      <trkpt lat="38.885929" lon="-0.228912">
        <ele>101.773</ele>
        <time>2019-06-15T13:09:41Z</time>
      </trkpt>
      <trkpt lat="38.885932" lon="-0.229027">
        <ele>101.652</ele>
        <time>2019-06-15T13:09:43Z</time>
      </trkpt>
      <trkpt lat="38.885937" lon="-0.229092">
        <ele>101.535</ele>
        <time>2019-06-15T13:09:44Z</time>
      </trkpt>
      <trkpt lat="38.885936" lon="-0.229204">
        <ele>101.987</ele>
        <time>2019-06-15T13:09:46Z</time>
      </trkpt>
      <trkpt lat="38.885932" lon="-0.229281">
        <ele>102.794</ele>
        <time>2019-06-15T13:09:47Z</time>
      </trkpt>
      <trkpt lat="38.885936" lon="-0.229341">
        <ele>103.283</ele>
        <time>2019-06-15T13:09:48Z</time>
      </trkpt>
      <trkpt lat="38.885944" lon="-0.229411">
        <ele>103.928</ele>
        <time>2019-06-15T13:09:49Z</time>
      </trkpt>
      <trkpt lat="38.885948" lon="-0.229472">
        <ele>104.423</ele>
        <time>2019-06-15T13:09:50Z</time>
      </trkpt>
      <trkpt lat="38.885951" lon="-0.229536">
        <ele>104.883</ele>
        <time>2019-06-15T13:09:51Z</time>
      </trkpt>
      <trkpt lat="38.885947" lon="-0.229595">
        <ele>105.211</ele>
        <time>2019-06-15T13:09:52Z</time>
      </trkpt>
      <trkpt lat="38.885936" lon="-0.229651">
        <ele>105.908</ele>
        <time>2019-06-15T13:09:53Z</time>
      </trkpt>
      <trkpt lat="38.885912" lon="-0.229737">
        <ele>106.875</ele>
        <time>2019-06-15T13:09:55Z</time>
      </trkpt>
      <trkpt lat="38.885889" lon="-0.229797">
        <ele>106.729</ele>
        <time>2019-06-15T13:09:57Z</time>
      </trkpt>
      <trkpt lat="38.885855" lon="-0.229863">
        <ele>106.988</ele>
        <time>2019-06-15T13:09:58Z</time>
      </trkpt>
      <trkpt lat="38.885807" lon="-0.229933">
        <ele>107.491</ele>
        <time>2019-06-15T13:10:00Z</time>
      </trkpt>
      <trkpt lat="38.885750" lon="-0.230001">
        <ele>108.453</ele>
        <time>2019-06-15T13:10:02Z</time>
      </trkpt>
      <trkpt lat="38.885693" lon="-0.230063">
        <ele>108.610</ele>
        <time>2019-06-15T13:10:04Z</time>
      </trkpt>
      <trkpt lat="38.885627" lon="-0.230119">
        <ele>109.549</ele>
        <time>2019-06-15T13:10:07Z</time>
      </trkpt>
      <trkpt lat="38.885580" lon="-0.230178">
        <ele>109.914</ele>
        <time>2019-06-15T13:10:09Z</time>
      </trkpt>
      <trkpt lat="38.885527" lon="-0.230239">
        <ele>110.364</ele>
        <time>2019-06-15T13:10:10Z</time>
      </trkpt>
      <trkpt lat="38.885481" lon="-0.230313">
        <ele>109.606</ele>
        <time>2019-06-15T13:10:12Z</time>
      </trkpt>
      <trkpt lat="38.885455" lon="-0.230364">
        <ele>108.916</ele>
        <time>2019-06-15T13:10:14Z</time>
      </trkpt>
      <trkpt lat="38.885391" lon="-0.230439">
        <ele>109.208</ele>
        <time>2019-06-15T13:10:16Z</time>
      </trkpt>
      <trkpt lat="38.885319" lon="-0.230492">
        <ele>111.019</ele>
        <time>2019-06-15T13:10:18Z</time>
      </trkpt>
      <trkpt lat="38.885253" lon="-0.230564">
        <ele>112.333</ele>
        <time>2019-06-15T13:10:20Z</time>
      </trkpt>
      <trkpt lat="38.885178" lon="-0.230656">
        <ele>112.732</ele>
        <time>2019-06-15T13:10:22Z</time>
      </trkpt>
      <trkpt lat="38.885111" lon="-0.230729">
        <ele>113.715</ele>
        <time>2019-06-15T13:10:24Z</time>
      </trkpt>
      <trkpt lat="38.885077" lon="-0.230769">
        <ele>114.377</ele>
        <time>2019-06-15T13:10:25Z</time>
      </trkpt>
      <trkpt lat="38.885018" lon="-0.230868">
        <ele>115.264</ele>
        <time>2019-06-15T13:10:27Z</time>
      </trkpt>
      <trkpt lat="38.884968" lon="-0.230960">
        <ele>114.793</ele>
        <time>2019-06-15T13:10:29Z</time>
      </trkpt>
      <trkpt lat="38.884947" lon="-0.231012">
        <ele>114.218</ele>
        <time>2019-06-15T13:10:30Z</time>
      </trkpt>
      <trkpt lat="38.884894" lon="-0.231093">
        <ele>113.672</ele>
        <time>2019-06-15T13:10:32Z</time>
      </trkpt>
      <trkpt lat="38.884836" lon="-0.231177">
        <ele>112.013</ele>
        <time>2019-06-15T13:10:34Z</time>
      </trkpt>
      <trkpt lat="38.884798" lon="-0.231213">
        <ele>111.514</ele>
        <time>2019-06-15T13:10:35Z</time>
      </trkpt>
      <trkpt lat="38.884767" lon="-0.231264">
        <ele>110.708</ele>
        <time>2019-06-15T13:10:36Z</time>
      </trkpt>
      <trkpt lat="38.884731" lon="-0.231305">
        <ele>110.440</ele>
        <time>2019-06-15T13:10:37Z</time>
      </trkpt>
      <trkpt lat="38.884697" lon="-0.231346">
        <ele>110.424</ele>
        <time>2019-06-15T13:10:38Z</time>
      </trkpt>
      <trkpt lat="38.884658" lon="-0.231386">
        <ele>110.753</ele>
        <time>2019-06-15T13:10:39Z</time>
      </trkpt>
      <trkpt lat="38.884608" lon="-0.231417">
        <ele>111.246</ele>
        <time>2019-06-15T13:10:40Z</time>
      </trkpt>
      <trkpt lat="38.884544" lon="-0.231486">
        <ele>111.158</ele>
        <time>2019-06-15T13:10:42Z</time>
      </trkpt>
      <trkpt lat="38.884509" lon="-0.231524">
        <ele>111.225</ele>
        <time>2019-06-15T13:10:43Z</time>
      </trkpt>
      <trkpt lat="38.884430" lon="-0.231571">
        <ele>112.314</ele>
        <time>2019-06-15T13:10:45Z</time>
      </trkpt>
      <trkpt lat="38.884399" lon="-0.231684">
        <ele>110.579</ele>
        <time>2019-06-15T13:10:47Z</time>
      </trkpt>
      <trkpt lat="38.884361" lon="-0.231720">
        <ele>110.597</ele>
        <time>2019-06-15T13:10:48Z</time>
      </trkpt>
      <trkpt lat="38.884320" lon="-0.231757">
        <ele>110.723</ele>
        <time>2019-06-15T13:10:49Z</time>
      </trkpt>
      <trkpt lat="38.884284" lon="-0.231812">
        <ele>110.725</ele>
        <time>2019-06-15T13:10:50Z</time>
      </trkpt>
      <trkpt lat="38.884256" lon="-0.231862">
        <ele>110.608</ele>
        <time>2019-06-15T13:10:51Z</time>
      </trkpt>
      <trkpt lat="38.884217" lon="-0.231905">
        <ele>111.162</ele>
        <time>2019-06-15T13:10:52Z</time>
      </trkpt>
      <trkpt lat="38.884181" lon="-0.231946">
        <ele>111.636</ele>
        <time>2019-06-15T13:10:53Z</time>
      </trkpt>
      <trkpt lat="38.884130" lon="-0.231985">
        <ele>112.275</ele>
        <time>2019-06-15T13:10:54Z</time>
      </trkpt>
      <trkpt lat="38.884102" lon="-0.232046">
        <ele>112.178</ele>
        <time>2019-06-15T13:10:55Z</time>
      </trkpt>
      <trkpt lat="38.884072" lon="-0.232098">
        <ele>112.260</ele>
        <time>2019-06-15T13:10:56Z</time>
      </trkpt>
      <trkpt lat="38.884038" lon="-0.232144">
        <ele>112.657</ele>
        <time>2019-06-15T13:10:57Z</time>
      </trkpt>
      <trkpt lat="38.884001" lon="-0.232196">
        <ele>113.046</ele>
        <time>2019-06-15T13:10:58Z</time>
      </trkpt>
      <trkpt lat="38.883965" lon="-0.232245">
        <ele>113.781</ele>
        <time>2019-06-15T13:10:59Z</time>
      </trkpt>
      <trkpt lat="38.883932" lon="-0.232285">
        <ele>114.379</ele>
        <time>2019-06-15T13:11:00Z</time>
      </trkpt>
      <trkpt lat="38.883898" lon="-0.232325">
        <ele>115.005</ele>
        <time>2019-06-15T13:11:01Z</time>
      </trkpt>
      <trkpt lat="38.883866" lon="-0.232371">
        <ele>115.225</ele>
        <time>2019-06-15T13:11:02Z</time>
      </trkpt>
      <trkpt lat="38.883814" lon="-0.232449">
        <ele>115.208</ele>
        <time>2019-06-15T13:11:04Z</time>
      </trkpt>
      <trkpt lat="38.883785" lon="-0.232493">
        <ele>115.210</ele>
        <time>2019-06-15T13:11:05Z</time>
      </trkpt>
      <trkpt lat="38.883754" lon="-0.232538">
        <ele>115.354</ele>
        <time>2019-06-15T13:11:06Z</time>
      </trkpt>
      <trkpt lat="38.883731" lon="-0.232589">
        <ele>115.243</ele>
        <time>2019-06-15T13:11:07Z</time>
      </trkpt>
      <trkpt lat="38.883696" lon="-0.232657">
        <ele>115.126</ele>
        <time>2019-06-15T13:11:08Z</time>
      </trkpt>
      <trkpt lat="38.883662" lon="-0.232756">
        <ele>114.838</ele>
        <time>2019-06-15T13:11:10Z</time>
      </trkpt>
      <trkpt lat="38.883630" lon="-0.232858">
        <ele>114.845</ele>
        <time>2019-06-15T13:11:12Z</time>
      </trkpt>
      <trkpt lat="38.883615" lon="-0.232961">
        <ele>114.994</ele>
        <time>2019-06-15T13:11:14Z</time>
      </trkpt>
      <trkpt lat="38.883572" lon="-0.233046">
        <ele>115.449</ele>
        <time>2019-06-15T13:11:16Z</time>
      </trkpt>
      <trkpt lat="38.883509" lon="-0.233112">
        <ele>115.868</ele>
        <time>2019-06-15T13:11:18Z</time>
      </trkpt>
      <trkpt lat="38.883456" lon="-0.233195">
        <ele>116.342</ele>
        <time>2019-06-15T13:11:20Z</time>
      </trkpt>
      <trkpt lat="38.883442" lon="-0.233267">
        <ele>116.426</ele>
        <time>2019-06-15T13:11:21Z</time>
      </trkpt>
      <trkpt lat="38.883424" lon="-0.233326">
        <ele>116.708</ele>
        <time>2019-06-15T13:11:22Z</time>
      </trkpt>
      <trkpt lat="38.883345" lon="-0.233376">
        <ele>118.299</ele>
        <time>2019-06-15T13:11:24Z</time>
      </trkpt>
      <trkpt lat="38.883296" lon="-0.233458">
        <ele>118.153</ele>
        <time>2019-06-15T13:11:26Z</time>
      </trkpt>
      <trkpt lat="38.883272" lon="-0.233523">
        <ele>117.892</ele>
        <time>2019-06-15T13:11:27Z</time>
      </trkpt>
      <trkpt lat="38.883240" lon="-0.233585">
        <ele>117.695</ele>
        <time>2019-06-15T13:11:28Z</time>
      </trkpt>
      <trkpt lat="38.883199" lon="-0.233653">
        <ele>117.617</ele>
        <time>2019-06-15T13:11:29Z</time>
      </trkpt>
      <trkpt lat="38.883177" lon="-0.233730">
        <ele>117.474</ele>
        <time>2019-06-15T13:11:30Z</time>
      </trkpt>
      <trkpt lat="38.883141" lon="-0.233797">
        <ele>117.483</ele>
        <time>2019-06-15T13:11:31Z</time>
      </trkpt>
      <trkpt lat="38.883117" lon="-0.233859">
        <ele>117.388</ele>
        <time>2019-06-15T13:11:32Z</time>
      </trkpt>
      <trkpt lat="38.883101" lon="-0.233925">
        <ele>117.192</ele>
        <time>2019-06-15T13:11:33Z</time>
      </trkpt>
      <trkpt lat="38.883089" lon="-0.233996">
        <ele>116.873</ele>
        <time>2019-06-15T13:11:34Z</time>
      </trkpt>
      <trkpt lat="38.883055" lon="-0.234083">
        <ele>116.620</ele>
        <time>2019-06-15T13:11:35Z</time>
      </trkpt>
      <trkpt lat="38.882977" lon="-0.234132">
        <ele>116.308</ele>
        <time>2019-06-15T13:11:36Z</time>
      </trkpt>
      <trkpt lat="38.882947" lon="-0.234187">
        <ele>115.842</ele>
        <time>2019-06-15T13:11:37Z</time>
      </trkpt>
      <trkpt lat="38.882898" lon="-0.234236">
        <ele>115.186</ele>
        <time>2019-06-15T13:11:38Z</time>
      </trkpt>
      <trkpt lat="38.882869" lon="-0.234292">
        <ele>114.365</ele>
        <time>2019-06-15T13:11:39Z</time>
      </trkpt>
      <trkpt lat="38.882817" lon="-0.234372">
        <ele>113.188</ele>
        <time>2019-06-15T13:11:40Z</time>
      </trkpt>
      <trkpt lat="38.882782" lon="-0.234440">
        <ele>112.160</ele>
        <time>2019-06-15T13:11:41Z</time>
      </trkpt>
      <trkpt lat="38.882727" lon="-0.234518">
        <ele>111.097</ele>
        <time>2019-06-15T13:11:42Z</time>
      </trkpt>
      <trkpt lat="38.882663" lon="-0.234565">
        <ele>111.616</ele>
        <time>2019-06-15T13:11:43Z</time>
      </trkpt>
      <trkpt lat="38.882592" lon="-0.234677">
        <ele>109.451</ele>
        <time>2019-06-15T13:11:44Z</time>
      </trkpt>
      <trkpt lat="38.882538" lon="-0.234778">
        <ele>107.963</ele>
        <time>2019-06-15T13:11:45Z</time>
      </trkpt>
      <trkpt lat="38.882516" lon="-0.234905">
        <ele>105.144</ele>
        <time>2019-06-15T13:11:46Z</time>
      </trkpt>
      <trkpt lat="38.882443" lon="-0.234958">
        <ele>108.318</ele>
        <time>2019-06-15T13:11:47Z</time>
      </trkpt>
      <trkpt lat="38.882379" lon="-0.235018">
        <ele>111.308</ele>
        <time>2019-06-15T13:11:48Z</time>
      </trkpt>
      <trkpt lat="38.882339" lon="-0.235076">
        <ele>112.579</ele>
        <time>2019-06-15T13:11:49Z</time>
      </trkpt>
      <trkpt lat="38.882297" lon="-0.235131">
        <ele>113.733</ele>
        <time>2019-06-15T13:11:50Z</time>
      </trkpt>
      <trkpt lat="38.882267" lon="-0.235185">
        <ele>113.842</ele>
        <time>2019-06-15T13:11:51Z</time>
      </trkpt>
      <trkpt lat="38.882238" lon="-0.235243">
        <ele>113.435</ele>
        <time>2019-06-15T13:11:52Z</time>
      </trkpt>
      <trkpt lat="38.882204" lon="-0.235309">
        <ele>113.477</ele>
        <time>2019-06-15T13:11:53Z</time>
      </trkpt>
      <trkpt lat="38.882156" lon="-0.235372">
        <ele>114.934</ele>
        <time>2019-06-15T13:11:54Z</time>
      </trkpt>
      <trkpt lat="38.882131" lon="-0.235453">
        <ele>113.793</ele>
        <time>2019-06-15T13:11:55Z</time>
      </trkpt>
      <trkpt lat="38.882029" lon="-0.235502">
        <ele>118.838</ele>
        <time>2019-06-15T13:11:56Z</time>
      </trkpt>
      <trkpt lat="38.881960" lon="-0.235560">
        <ele>120.844</ele>
        <time>2019-06-15T13:11:57Z</time>
      </trkpt>
      <trkpt lat="38.881904" lon="-0.235698">
        <ele>121.005</ele>
        <time>2019-06-15T13:12:02Z</time>
      </trkpt>
      <trkpt lat="38.881897" lon="-0.235808">
        <ele>117.715</ele>
        <time>2019-06-15T13:12:04Z</time>
      </trkpt>
      <trkpt lat="38.881868" lon="-0.235858">
        <ele>118.908</ele>
        <time>2019-06-15T13:12:05Z</time>
      </trkpt>
      <trkpt lat="38.881852" lon="-0.235942">
        <ele>116.157</ele>
        <time>2019-06-15T13:12:07Z</time>
      </trkpt>
      <trkpt lat="38.881819" lon="-0.236038">
        <ele>115.171</ele>
        <time>2019-06-15T13:12:09Z</time>
      </trkpt>
      <trkpt lat="38.881811" lon="-0.236106">
        <ele>112.580</ele>
        <time>2019-06-15T13:12:11Z</time>
      </trkpt>
      <trkpt lat="38.881772" lon="-0.236206">
        <ele>112.493</ele>
        <time>2019-06-15T13:12:13Z</time>
      </trkpt>
      <trkpt lat="38.881742" lon="-0.236285">
        <ele>110.565</ele>
        <time>2019-06-15T13:12:16Z</time>
      </trkpt>
      <trkpt lat="38.881724" lon="-0.236344">
        <ele>107.662</ele>
        <time>2019-06-15T13:12:18Z</time>
      </trkpt>
      <trkpt lat="38.881707" lon="-0.236402">
        <ele>105.141</ele>
        <time>2019-06-15T13:12:20Z</time>
      </trkpt>
      <trkpt lat="38.881692" lon="-0.236460">
        <ele>105.556</ele>
        <time>2019-06-15T13:12:22Z</time>
      </trkpt>
      <trkpt lat="38.881679" lon="-0.236522">
        <ele>105.774</ele>
        <time>2019-06-15T13:12:24Z</time>
      </trkpt>
      <trkpt lat="38.881668" lon="-0.236586">
        <ele>105.656</ele>
        <time>2019-06-15T13:12:26Z</time>
      </trkpt>
      <trkpt lat="38.881656" lon="-0.236657">
        <ele>106.321</ele>
        <time>2019-06-15T13:12:28Z</time>
      </trkpt>
      <trkpt lat="38.881642" lon="-0.236734">
        <ele>108.508</ele>
        <time>2019-06-15T13:12:30Z</time>
      </trkpt>
      <trkpt lat="38.881627" lon="-0.236802">
        <ele>110.170</ele>
        <time>2019-06-15T13:12:32Z</time>
      </trkpt>
      <trkpt lat="38.881609" lon="-0.236865">
        <ele>111.144</ele>
        <time>2019-06-15T13:12:34Z</time>
      </trkpt>
      <trkpt lat="38.881585" lon="-0.236921">
        <ele>111.293</ele>
        <time>2019-06-15T13:12:36Z</time>
      </trkpt>
      <trkpt lat="38.881560" lon="-0.236969">
        <ele>110.686</ele>
        <time>2019-06-15T13:12:38Z</time>
      </trkpt>
      <trkpt lat="38.881525" lon="-0.237031">
        <ele>109.888</ele>
        <time>2019-06-15T13:12:41Z</time>
      </trkpt>
      <trkpt lat="38.881493" lon="-0.237086">
        <ele>109.255</ele>
        <time>2019-06-15T13:12:44Z</time>
      </trkpt>
      <trkpt lat="38.881463" lon="-0.237143">
        <ele>108.824</ele>
        <time>2019-06-15T13:12:47Z</time>
      </trkpt>
      <trkpt lat="38.881436" lon="-0.237203">
        <ele>108.579</ele>
        <time>2019-06-15T13:12:50Z</time>
      </trkpt>
      <trkpt lat="38.881408" lon="-0.237280">
        <ele>108.768</ele>
        <time>2019-06-15T13:12:53Z</time>
      </trkpt>
      <trkpt lat="38.881392" lon="-0.237341">
        <ele>108.942</ele>
        <time>2019-06-15T13:12:55Z</time>
      </trkpt>
      <trkpt lat="38.881376" lon="-0.237400">
        <ele>109.026</ele>
        <time>2019-06-15T13:12:57Z</time>
      </trkpt>
      <trkpt lat="38.881357" lon="-0.237461">
        <ele>108.608</ele>
        <time>2019-06-15T13:12:59Z</time>
      </trkpt>
      <trkpt lat="38.881334" lon="-0.237521">
        <ele>107.999</ele>
        <time>2019-06-15T13:13:01Z</time>
      </trkpt>
      <trkpt lat="38.881270" lon="-0.237655">
        <ele>108.643</ele>
        <time>2019-06-15T13:13:06Z</time>
      </trkpt>
      <trkpt lat="38.881270" lon="-0.237655">
        <ele>108.642</ele>
        <time>2019-06-15T13:13:06Z</time>
      </trkpt>
      <trkpt lat="38.881270" lon="-0.237655">
        <ele>108.665</ele>
        <time>2019-06-15T13:13:06Z</time>
      </trkpt>
      <trkpt lat="38.881270" lon="-0.237655">
        <ele>108.687</ele>
        <time>2019-06-15T13:13:06Z</time>
      </trkpt>
      <trkpt lat="38.881239" lon="-0.237725">
        <ele>109.794</ele>
        <time>2019-06-15T13:13:09Z</time>
      </trkpt>
      <trkpt lat="38.881239" lon="-0.237725">
        <ele>109.783</ele>
        <time>2019-06-15T13:13:09Z</time>
      </trkpt>
      <trkpt lat="38.881239" lon="-0.237725">
        <ele>109.748</ele>
        <time>2019-06-15T13:13:09Z</time>
      </trkpt>
      <trkpt lat="38.881239" lon="-0.237725">
        <ele>109.797</ele>
        <time>2019-06-15T13:13:09Z</time>
      </trkpt>
      <trkpt lat="38.881219" lon="-0.237780">
        <ele>110.923</ele>
        <time>2019-06-15T13:13:12Z</time>
      </trkpt>
      <trkpt lat="38.881219" lon="-0.237780">
        <ele>110.925</ele>
        <time>2019-06-15T13:13:12Z</time>
      </trkpt>
      <trkpt lat="38.881219" lon="-0.237780">
        <ele>110.908</ele>
        <time>2019-06-15T13:13:12Z</time>
      </trkpt>
      <trkpt lat="38.881183" lon="-0.237842">
        <ele>113.152</ele>
        <time>2019-06-15T13:13:15Z</time>
      </trkpt>
      <trkpt lat="38.881136" lon="-0.237900">
        <ele>115.866</ele>
        <time>2019-06-15T13:13:18Z</time>
      </trkpt>
      <trkpt lat="38.881099" lon="-0.237951">
        <ele>119.245</ele>
        <time>2019-06-15T13:13:21Z</time>
      </trkpt>
      <trkpt lat="38.881055" lon="-0.237985">
        <ele>123.718</ele>
        <time>2019-06-15T13:13:24Z</time>
      </trkpt>
      <trkpt lat="38.881003" lon="-0.238028">
        <ele>128.730</ele>
        <time>2019-06-15T13:13:27Z</time>
      </trkpt>
      <trkpt lat="38.880965" lon="-0.238066">
        <ele>131.937</ele>
        <time>2019-06-15T13:13:29Z</time>
      </trkpt>
      <trkpt lat="38.880928" lon="-0.238108">
        <ele>133.836</ele>
        <time>2019-06-15T13:13:31Z</time>
      </trkpt>
      <trkpt lat="38.880889" lon="-0.238161">
        <ele>135.251</ele>
        <time>2019-06-15T13:13:34Z</time>
      </trkpt>
      <trkpt lat="38.880856" lon="-0.238222">
        <ele>135.763</ele>
        <time>2019-06-15T13:13:37Z</time>
      </trkpt>
      <trkpt lat="38.880829" lon="-0.238279">
        <ele>135.644</ele>
        <time>2019-06-15T13:13:40Z</time>
      </trkpt>
      <trkpt lat="38.880796" lon="-0.238338">
        <ele>135.818</ele>
        <time>2019-06-15T13:13:43Z</time>
      </trkpt>
      <trkpt lat="38.880768" lon="-0.238389">
        <ele>136.508</ele>
        <time>2019-06-15T13:13:46Z</time>
      </trkpt>
      <trkpt lat="38.880735" lon="-0.238456">
        <ele>137.059</ele>
        <time>2019-06-15T13:13:49Z</time>
      </trkpt>
      <trkpt lat="38.880698" lon="-0.238524">
        <ele>137.493</ele>
        <time>2019-06-15T13:13:52Z</time>
      </trkpt>
      <trkpt lat="38.880662" lon="-0.238571">
        <ele>138.082</ele>
        <time>2019-06-15T13:13:55Z</time>
      </trkpt>
      <trkpt lat="38.880626" lon="-0.238619">
        <ele>138.485</ele>
        <time>2019-06-15T13:13:58Z</time>
      </trkpt>
      <trkpt lat="38.880594" lon="-0.238662">
        <ele>139.247</ele>
        <time>2019-06-15T13:14:01Z</time>
      </trkpt>
      <trkpt lat="38.880563" lon="-0.238710">
        <ele>140.014</ele>
        <time>2019-06-15T13:14:04Z</time>
      </trkpt>
      <trkpt lat="38.880519" lon="-0.238758">
        <ele>141.513</ele>
        <time>2019-06-15T13:14:07Z</time>
      </trkpt>
      <trkpt lat="38.880471" lon="-0.238805">
        <ele>143.228</ele>
        <time>2019-06-15T13:14:10Z</time>
      </trkpt>
      <trkpt lat="38.880431" lon="-0.238871">
        <ele>144.517</ele>
        <time>2019-06-15T13:14:13Z</time>
      </trkpt>
      <trkpt lat="38.880417" lon="-0.238936">
        <ele>144.987</ele>
        <time>2019-06-15T13:14:16Z</time>
      </trkpt>
      <trkpt lat="38.880422" lon="-0.238995">
        <ele>144.615</ele>
        <time>2019-06-15T13:14:19Z</time>
      </trkpt>
      <trkpt lat="38.880424" lon="-0.239063">
        <ele>144.408</ele>
        <time>2019-06-15T13:14:22Z</time>
      </trkpt>
      <trkpt lat="38.880430" lon="-0.239138">
        <ele>143.954</ele>
        <time>2019-06-15T13:14:25Z</time>
      </trkpt>
      <trkpt lat="38.880424" lon="-0.239223">
        <ele>144.148</ele>
        <time>2019-06-15T13:14:28Z</time>
      </trkpt>
      <trkpt lat="38.880435" lon="-0.239283">
        <ele>143.587</ele>
        <time>2019-06-15T13:14:38Z</time>
      </trkpt>
      <trkpt lat="38.880399" lon="-0.239345">
        <ele>144.940</ele>
        <time>2019-06-15T13:19:48Z</time>
      </trkpt>
      <trkpt lat="38.880376" lon="-0.239431">
        <ele>145.532</ele>
        <time>2019-06-15T13:19:50Z</time>
      </trkpt>
      <trkpt lat="38.880337" lon="-0.239519">
        <ele>145.739</ele>
        <time>2019-06-15T13:19:52Z</time>
      </trkpt>
      <trkpt lat="38.880286" lon="-0.239599">
        <ele>146.968</ele>
        <time>2019-06-15T13:19:54Z</time>
      </trkpt>
      <trkpt lat="38.880238" lon="-0.239672">
        <ele>149.333</ele>
        <time>2019-06-15T13:19:56Z</time>
      </trkpt>
      <trkpt lat="38.880187" lon="-0.239742">
        <ele>152.244</ele>
        <time>2019-06-15T13:19:58Z</time>
      </trkpt>
      <trkpt lat="38.880136" lon="-0.239805">
        <ele>155.205</ele>
        <time>2019-06-15T13:20:00Z</time>
      </trkpt>
      <trkpt lat="38.880106" lon="-0.239876">
        <ele>156.815</ele>
        <time>2019-06-15T13:20:02Z</time>
      </trkpt>
      <trkpt lat="38.880076" lon="-0.239941">
        <ele>158.708</ele>
        <time>2019-06-15T13:20:04Z</time>
      </trkpt>
      <trkpt lat="38.880066" lon="-0.240022">
        <ele>158.867</ele>
        <time>2019-06-15T13:20:07Z</time>
      </trkpt>
      <trkpt lat="38.880062" lon="-0.240085">
        <ele>158.321</ele>
        <time>2019-06-15T13:20:09Z</time>
      </trkpt>
      <trkpt lat="38.880050" lon="-0.240166">
        <ele>158.270</ele>
        <time>2019-06-15T13:20:11Z</time>
      </trkpt>
      <trkpt lat="38.880046" lon="-0.240238">
        <ele>157.673</ele>
        <time>2019-06-15T13:20:13Z</time>
      </trkpt>
      <trkpt lat="38.880046" lon="-0.240306">
        <ele>156.655</ele>
        <time>2019-06-15T13:20:15Z</time>
      </trkpt>
      <trkpt lat="38.880027" lon="-0.240368">
        <ele>157.312</ele>
        <time>2019-06-15T13:20:17Z</time>
      </trkpt>
      <trkpt lat="38.879993" lon="-0.240420">
        <ele>159.671</ele>
        <time>2019-06-15T13:20:19Z</time>
      </trkpt>
      <trkpt lat="38.879954" lon="-0.240462">
        <ele>162.956</ele>
        <time>2019-06-15T13:20:21Z</time>
      </trkpt>
      <trkpt lat="38.879911" lon="-0.240496">
        <ele>166.893</ele>
        <time>2019-06-15T13:20:23Z</time>
      </trkpt>
      <trkpt lat="38.879864" lon="-0.240543">
        <ele>171.365</ele>
        <time>2019-06-15T13:20:26Z</time>
      </trkpt>
      <trkpt lat="38.879843" lon="-0.240608">
        <ele>173.021</ele>
        <time>2019-06-15T13:20:29Z</time>
      </trkpt>
      <trkpt lat="38.879815" lon="-0.240681">
        <ele>175.608</ele>
        <time>2019-06-15T13:20:32Z</time>
      </trkpt>
      <trkpt lat="38.879777" lon="-0.240739">
        <ele>179.472</ele>
        <time>2019-06-15T13:20:35Z</time>
      </trkpt>
      <trkpt lat="38.879742" lon="-0.240789">
        <ele>183.046</ele>
        <time>2019-06-15T13:20:38Z</time>
      </trkpt>
      <trkpt lat="38.879718" lon="-0.240843">
        <ele>184.845</ele>
        <time>2019-06-15T13:20:40Z</time>
      </trkpt>
      <trkpt lat="38.879701" lon="-0.240909">
        <ele>183.268</ele>
        <time>2019-06-15T13:20:42Z</time>
      </trkpt>
      <trkpt lat="38.879704" lon="-0.240981">
        <ele>180.580</ele>
        <time>2019-06-15T13:20:45Z</time>
      </trkpt>
      <trkpt lat="38.879715" lon="-0.241051">
        <ele>177.097</ele>
        <time>2019-06-15T13:20:48Z</time>
      </trkpt>
      <trkpt lat="38.879707" lon="-0.241124">
        <ele>175.316</ele>
        <time>2019-06-15T13:20:51Z</time>
      </trkpt>
      <trkpt lat="38.879695" lon="-0.241193">
        <ele>175.481</ele>
        <time>2019-06-15T13:20:54Z</time>
      </trkpt>
      <trkpt lat="38.879684" lon="-0.241251">
        <ele>175.631</ele>
        <time>2019-06-15T13:20:56Z</time>
      </trkpt>
      <trkpt lat="38.879677" lon="-0.241329">
        <ele>175.061</ele>
        <time>2019-06-15T13:20:59Z</time>
      </trkpt>
      <trkpt lat="38.879695" lon="-0.241397">
        <ele>172.307</ele>
        <time>2019-06-15T13:21:02Z</time>
      </trkpt>
      <trkpt lat="38.879703" lon="-0.241457">
        <ele>170.508</ele>
        <time>2019-06-15T13:21:04Z</time>
      </trkpt>
      <trkpt lat="38.879702" lon="-0.241518">
        <ele>169.436</ele>
        <time>2019-06-15T13:21:07Z</time>
      </trkpt>
      <trkpt lat="38.879657" lon="-0.241571">
        <ele>172.140</ele>
        <time>2019-06-15T13:21:10Z</time>
      </trkpt>
      <trkpt lat="38.879612" lon="-0.241600">
        <ele>175.269</ele>
        <time>2019-06-15T13:21:12Z</time>
      </trkpt>
      <trkpt lat="38.879560" lon="-0.241647">
        <ele>178.322</ele>
        <time>2019-06-15T13:21:14Z</time>
      </trkpt>
      <trkpt lat="38.879530" lon="-0.241691">
        <ele>179.884</ele>
        <time>2019-06-15T13:21:16Z</time>
      </trkpt>
      <trkpt lat="38.879503" lon="-0.241771">
        <ele>180.341</ele>
        <time>2019-06-15T13:21:19Z</time>
      </trkpt>
      <trkpt lat="38.879467" lon="-0.241846">
        <ele>181.550</ele>
        <time>2019-06-15T13:21:22Z</time>
      </trkpt>
      <trkpt lat="38.879436" lon="-0.241900">
        <ele>182.425</ele>
        <time>2019-06-15T13:21:24Z</time>
      </trkpt>
      <trkpt lat="38.879407" lon="-0.241977">
        <ele>182.785</ele>
        <time>2019-06-15T13:21:27Z</time>
      </trkpt>
      <trkpt lat="38.879391" lon="-0.242040">
        <ele>182.989</ele>
        <time>2019-06-15T13:21:30Z</time>
      </trkpt>
      <trkpt lat="38.879378" lon="-0.242117">
        <ele>182.817</ele>
        <time>2019-06-15T13:21:33Z</time>
      </trkpt>
      <trkpt lat="38.879346" lon="-0.242185">
        <ele>184.108</ele>
        <time>2019-06-15T13:21:36Z</time>
      </trkpt>
      <trkpt lat="38.879247" lon="-0.242293">
        <ele>189.351</ele>
        <time>2019-06-15T13:21:38Z</time>
      </trkpt>
      <trkpt lat="38.879216" lon="-0.242352">
        <ele>190.475</ele>
        <time>2019-06-15T13:21:41Z</time>
      </trkpt>
      <trkpt lat="38.879202" lon="-0.242431">
        <ele>189.944</ele>
        <time>2019-06-15T13:21:44Z</time>
      </trkpt>
      <trkpt lat="38.879205" lon="-0.242493">
        <ele>188.667</ele>
        <time>2019-06-15T13:21:47Z</time>
      </trkpt>
      <trkpt lat="38.879224" lon="-0.242550">
        <ele>186.469</ele>
        <time>2019-06-15T13:21:50Z</time>
      </trkpt>
      <trkpt lat="38.879236" lon="-0.242620">
        <ele>184.556</ele>
        <time>2019-06-15T13:21:53Z</time>
      </trkpt>
      <trkpt lat="38.879240" lon="-0.242694">
        <ele>182.925</ele>
        <time>2019-06-15T13:21:56Z</time>
      </trkpt>
      <trkpt lat="38.879256" lon="-0.242773">
        <ele>180.690</ele>
        <time>2019-06-15T13:21:59Z</time>
      </trkpt>
      <trkpt lat="38.879285" lon="-0.242830">
        <ele>178.816</ele>
        <time>2019-06-15T13:22:01Z</time>
      </trkpt>
      <trkpt lat="38.879319" lon="-0.242894">
        <ele>176.976</ele>
        <time>2019-06-15T13:22:03Z</time>
      </trkpt>
      <trkpt lat="38.879348" lon="-0.242943">
        <ele>175.313</ele>
        <time>2019-06-15T13:22:05Z</time>
      </trkpt>
      <trkpt lat="38.879371" lon="-0.242995">
        <ele>174.108</ele>
        <time>2019-06-15T13:22:07Z</time>
      </trkpt>
      <trkpt lat="38.879377" lon="-0.243056">
        <ele>173.964</ele>
        <time>2019-06-15T13:22:09Z</time>
      </trkpt>
      <trkpt lat="38.879369" lon="-0.243132">
        <ele>175.238</ele>
        <time>2019-06-15T13:22:12Z</time>
      </trkpt>
      <trkpt lat="38.879370" lon="-0.243209">
        <ele>175.967</ele>
        <time>2019-06-15T13:22:15Z</time>
      </trkpt>
      <trkpt lat="38.879368" lon="-0.243295">
        <ele>177.080</ele>
        <time>2019-06-15T13:22:18Z</time>
      </trkpt>
      <trkpt lat="38.879358" lon="-0.243366">
        <ele>177.862</ele>
        <time>2019-06-15T13:22:21Z</time>
      </trkpt>
      <trkpt lat="38.879341" lon="-0.243420">
        <ele>178.589</ele>
        <time>2019-06-15T13:22:24Z</time>
      </trkpt>
      <trkpt lat="38.879319" lon="-0.243472">
        <ele>179.628</ele>
        <time>2019-06-15T13:22:28Z</time>
      </trkpt>
      <trkpt lat="38.879299" lon="-0.243531">
        <ele>180.793</ele>
        <time>2019-06-15T13:22:32Z</time>
      </trkpt>
      <trkpt lat="38.879284" lon="-0.243595">
        <ele>181.667</ele>
        <time>2019-06-15T13:22:36Z</time>
      </trkpt>
      <trkpt lat="38.879263" lon="-0.243657">
        <ele>182.581</ele>
        <time>2019-06-15T13:22:39Z</time>
      </trkpt>
      <trkpt lat="38.879223" lon="-0.243712">
        <ele>184.619</ele>
        <time>2019-06-15T13:22:42Z</time>
      </trkpt>
      <trkpt lat="38.879188" lon="-0.243750">
        <ele>186.508</ele>
        <time>2019-06-15T13:22:44Z</time>
      </trkpt>
      <trkpt lat="38.879151" lon="-0.243787">
        <ele>187.889</ele>
        <time>2019-06-15T13:22:46Z</time>
      </trkpt>
      <trkpt lat="38.879113" lon="-0.243820">
        <ele>188.253</ele>
        <time>2019-06-15T13:22:48Z</time>
      </trkpt>
      <trkpt lat="38.879065" lon="-0.243860">
        <ele>188.422</ele>
        <time>2019-06-15T13:22:51Z</time>
      </trkpt>
      <trkpt lat="38.879018" lon="-0.243893">
        <ele>188.625</ele>
        <time>2019-06-15T13:22:54Z</time>
      </trkpt>
      <trkpt lat="38.878967" lon="-0.243927">
        <ele>188.827</ele>
        <time>2019-06-15T13:22:57Z</time>
      </trkpt>
      <trkpt lat="38.878914" lon="-0.243957">
        <ele>189.164</ele>
        <time>2019-06-15T13:23:00Z</time>
      </trkpt>
      <trkpt lat="38.878855" lon="-0.243962">
        <ele>190.483</ele>
        <time>2019-06-15T13:23:03Z</time>
      </trkpt>
      <trkpt lat="38.878805" lon="-0.243941">
        <ele>192.378</ele>
        <time>2019-06-15T13:23:06Z</time>
      </trkpt>
      <trkpt lat="38.878769" lon="-0.243907">
        <ele>194.456</ele>
        <time>2019-06-15T13:23:09Z</time>
      </trkpt>
      <trkpt lat="38.878736" lon="-0.243861">
        <ele>196.559</ele>
        <time>2019-06-15T13:23:12Z</time>
      </trkpt>
      <trkpt lat="38.878709" lon="-0.243791">
        <ele>198.714</ele>
        <time>2019-06-15T13:23:14Z</time>
      </trkpt>
      <trkpt lat="38.878683" lon="-0.243680">
        <ele>201.508</ele>
        <time>2019-06-15T13:23:16Z</time>
      </trkpt>
      <trkpt lat="38.878673" lon="-0.243614">
        <ele>202.878</ele>
        <time>2019-06-15T13:23:17Z</time>
      </trkpt>
      <trkpt lat="38.878665" lon="-0.243555">
        <ele>202.652</ele>
        <time>2019-06-15T13:23:18Z</time>
      </trkpt>
      <trkpt lat="38.878669" lon="-0.243464">
        <ele>201.861</ele>
        <time>2019-06-15T13:23:20Z</time>
      </trkpt>
      <trkpt lat="38.878725" lon="-0.243468">
        <ele>201.274</ele>
        <time>2019-06-15T13:23:21Z</time>
      </trkpt>
      <trkpt lat="38.878766" lon="-0.243499">
        <ele>200.956</ele>
        <time>2019-06-15T13:23:25Z</time>
      </trkpt>
      <trkpt lat="38.878787" lon="-0.243446">
        <ele>200.613</ele>
        <time>2019-06-15T13:23:29Z</time>
      </trkpt>
      <trkpt lat="38.878833" lon="-0.243368">
        <ele>200.222</ele>
        <time>2019-06-15T13:23:31Z</time>
      </trkpt>
      <trkpt lat="38.878868" lon="-0.243284">
        <ele>199.227</ele>
        <time>2019-06-15T13:23:33Z</time>
      </trkpt>
      <trkpt lat="38.878850" lon="-0.243202">
        <ele>198.011</ele>
        <time>2019-06-15T13:23:36Z</time>
      </trkpt>
      <trkpt lat="38.878814" lon="-0.243127">
        <ele>197.221</ele>
        <time>2019-06-15T13:23:39Z</time>
      </trkpt>
      <trkpt lat="38.878779" lon="-0.243077">
        <ele>196.903</ele>
        <time>2019-06-15T13:23:41Z</time>
      </trkpt>
      <trkpt lat="38.878746" lon="-0.243025">
        <ele>196.908</ele>
        <time>2019-06-15T13:23:43Z</time>
      </trkpt>
      <trkpt lat="38.878713" lon="-0.242977">
        <ele>197.014</ele>
        <time>2019-06-15T13:23:45Z</time>
      </trkpt>
      <trkpt lat="38.878675" lon="-0.242927">
        <ele>197.048</ele>
        <time>2019-06-15T13:23:47Z</time>
      </trkpt>
      <trkpt lat="38.878633" lon="-0.242872">
        <ele>196.947</ele>
        <time>2019-06-15T13:23:49Z</time>
      </trkpt>
      <trkpt lat="38.878587" lon="-0.242818">
        <ele>196.120</ele>
        <time>2019-06-15T13:23:51Z</time>
      </trkpt>
      <trkpt lat="38.878525" lon="-0.242777">
        <ele>194.462</ele>
        <time>2019-06-15T13:23:53Z</time>
      </trkpt>
      <trkpt lat="38.878462" lon="-0.242762">
        <ele>193.239</ele>
        <time>2019-06-15T13:23:55Z</time>
      </trkpt>
      <trkpt lat="38.878400" lon="-0.242771">
        <ele>192.228</ele>
        <time>2019-06-15T13:23:57Z</time>
      </trkpt>
      <trkpt lat="38.878352" lon="-0.242794">
        <ele>191.843</ele>
        <time>2019-06-15T13:23:59Z</time>
      </trkpt>
      <trkpt lat="38.878083" lon="-0.242919">
        <ele>200.019</ele>
        <time>2019-06-15T13:24:01Z</time>
      </trkpt>
      <trkpt lat="38.878125" lon="-0.243046">
        <ele>199.909</ele>
        <time>2019-06-15T13:24:06Z</time>
      </trkpt>
      <trkpt lat="38.878091" lon="-0.243148">
        <ele>202.219</ele>
        <time>2019-06-15T13:24:08Z</time>
      </trkpt>
      <trkpt lat="38.878014" lon="-0.243196">
        <ele>202.808</ele>
        <time>2019-06-15T13:24:10Z</time>
      </trkpt>
      <trkpt lat="38.877966" lon="-0.243240">
        <ele>202.124</ele>
        <time>2019-06-15T13:24:12Z</time>
      </trkpt>
      <trkpt lat="38.877948" lon="-0.243299">
        <ele>201.628</ele>
        <time>2019-06-15T13:24:13Z</time>
      </trkpt>
      <trkpt lat="38.877890" lon="-0.243318">
        <ele>198.957</ele>
        <time>2019-06-15T13:24:17Z</time>
      </trkpt>
      <trkpt lat="38.877731" lon="-0.243444">
        <ele>191.340</ele>
        <time>2019-06-15T13:24:18Z</time>
      </trkpt>
      <trkpt lat="38.877564" lon="-0.243407">
        <ele>186.352</ele>
        <time>2019-06-15T13:24:32Z</time>
      </trkpt>
      <trkpt lat="38.877436" lon="-0.243427">
        <ele>182.519</ele>
        <time>2019-06-15T13:24:33Z</time>
      </trkpt>
      <trkpt lat="38.877304" lon="-0.243391">
        <ele>181.178</ele>
        <time>2019-06-15T13:24:34Z</time>
      </trkpt>
      <trkpt lat="38.877249" lon="-0.243360">
        <ele>180.973</ele>
        <time>2019-06-15T13:24:35Z</time>
      </trkpt>
      <trkpt lat="38.877186" lon="-0.243312">
        <ele>181.814</ele>
        <time>2019-06-15T13:24:36Z</time>
      </trkpt>
      <trkpt lat="38.877122" lon="-0.243279">
        <ele>182.654</ele>
        <time>2019-06-15T13:24:37Z</time>
      </trkpt>
      <trkpt lat="38.877069" lon="-0.243233">
        <ele>183.909</ele>
        <time>2019-06-15T13:24:38Z</time>
      </trkpt>
      <trkpt lat="38.876978" lon="-0.243203">
        <ele>182.708</ele>
        <time>2019-06-15T13:24:39Z</time>
      </trkpt>
      <trkpt lat="38.876838" lon="-0.243235">
        <ele>181.434</ele>
        <time>2019-06-15T13:24:40Z</time>
      </trkpt>
      <trkpt lat="38.876742" lon="-0.243191">
        <ele>183.258</ele>
        <time>2019-06-15T13:24:42Z</time>
      </trkpt>
      <trkpt lat="38.876742" lon="-0.243191">
        <ele>183.287</ele>
        <time>2019-06-15T13:24:42Z</time>
      </trkpt>
      <trkpt lat="38.876712" lon="-0.243147">
        <ele>184.270</ele>
        <time>2019-06-15T13:24:43Z</time>
      </trkpt>
      <trkpt lat="38.876648" lon="-0.243115">
        <ele>185.172</ele>
        <time>2019-06-15T13:24:44Z</time>
      </trkpt>
      <trkpt lat="38.876588" lon="-0.243095">
        <ele>185.919</ele>
        <time>2019-06-15T13:24:45Z</time>
      </trkpt>
      <trkpt lat="38.876460" lon="-0.243069">
        <ele>187.278</ele>
        <time>2019-06-15T13:24:47Z</time>
      </trkpt>
      <trkpt lat="38.876460" lon="-0.243069">
        <ele>187.253</ele>
        <time>2019-06-15T13:24:47Z</time>
      </trkpt>
      <trkpt lat="38.876341" lon="-0.243047">
        <ele>188.491</ele>
        <time>2019-06-15T13:24:49Z</time>
      </trkpt>
      <trkpt lat="38.876341" lon="-0.243047">
        <ele>188.481</ele>
        <time>2019-06-15T13:24:49Z</time>
      </trkpt>
      <trkpt lat="38.876218" lon="-0.243066">
        <ele>188.519</ele>
        <time>2019-06-15T13:24:51Z</time>
      </trkpt>
      <trkpt lat="38.876218" lon="-0.243066">
        <ele>188.508</ele>
        <time>2019-06-15T13:24:51Z</time>
      </trkpt>
      <trkpt lat="38.876083" lon="-0.243064">
        <ele>189.222</ele>
        <time>2019-06-15T13:24:53Z</time>
      </trkpt>
      <trkpt lat="38.876083" lon="-0.243064">
        <ele>189.296</ele>
        <time>2019-06-15T13:24:53Z</time>
      </trkpt>
      <trkpt lat="38.875969" lon="-0.243027">
        <ele>190.095</ele>
        <time>2019-06-15T13:24:55Z</time>
      </trkpt>
      <trkpt lat="38.875969" lon="-0.243027">
        <ele>190.088</ele>
        <time>2019-06-15T13:24:55Z</time>
      </trkpt>
      <trkpt lat="38.875894" lon="-0.242998">
        <ele>190.670</ele>
        <time>2019-06-15T13:24:57Z</time>
      </trkpt>
      <trkpt lat="38.875894" lon="-0.242998">
        <ele>190.647</ele>
        <time>2019-06-15T13:24:57Z</time>
      </trkpt>
      <trkpt lat="38.875818" lon="-0.243006">
        <ele>191.366</ele>
        <time>2019-06-15T13:24:59Z</time>
      </trkpt>
      <trkpt lat="38.875818" lon="-0.243006">
        <ele>191.351</ele>
        <time>2019-06-15T13:24:59Z</time>
      </trkpt>
      <trkpt lat="38.875728" lon="-0.243011">
        <ele>193.316</ele>
        <time>2019-06-15T13:25:01Z</time>
      </trkpt>
      <trkpt lat="38.875728" lon="-0.243011">
        <ele>193.376</ele>
        <time>2019-06-15T13:25:01Z</time>
      </trkpt>
      <trkpt lat="38.875657" lon="-0.243015">
        <ele>194.813</ele>
        <time>2019-06-15T13:25:04Z</time>
      </trkpt>
      <trkpt lat="38.875524" lon="-0.243072">
        <ele>197.108</ele>
        <time>2019-06-15T13:25:08Z</time>
      </trkpt>
      <trkpt lat="38.875524" lon="-0.243072">
        <ele>197.164</ele>
        <time>2019-06-15T13:25:08Z</time>
      </trkpt>
      <trkpt lat="38.875524" lon="-0.243072">
        <ele>197.178</ele>
        <time>2019-06-15T13:25:08Z</time>
      </trkpt>
      <trkpt lat="38.875524" lon="-0.243072">
        <ele>197.117</ele>
        <time>2019-06-15T13:25:08Z</time>
      </trkpt>
      <trkpt lat="38.875459" lon="-0.243115">
        <ele>198.960</ele>
        <time>2019-06-15T13:25:11Z</time>
      </trkpt>
      <trkpt lat="38.875459" lon="-0.243115">
        <ele>198.912</ele>
        <time>2019-06-15T13:25:11Z</time>
      </trkpt>
      <trkpt lat="38.875459" lon="-0.243115">
        <ele>198.949</ele>
        <time>2019-06-15T13:25:11Z</time>
      </trkpt>
      <trkpt lat="38.875416" lon="-0.243145">
        <ele>199.928</ele>
        <time>2019-06-15T13:25:14Z</time>
      </trkpt>
      <trkpt lat="38.875416" lon="-0.243145">
        <ele>199.943</ele>
        <time>2019-06-15T13:25:14Z</time>
      </trkpt>
      <trkpt lat="38.875416" lon="-0.243145">
        <ele>199.956</ele>
        <time>2019-06-15T13:25:14Z</time>
      </trkpt>
      <trkpt lat="38.875354" lon="-0.243188">
        <ele>201.059</ele>
        <time>2019-06-15T13:25:17Z</time>
      </trkpt>
      <trkpt lat="38.875354" lon="-0.243188">
        <ele>201.014</ele>
        <time>2019-06-15T13:25:17Z</time>
      </trkpt>
      <trkpt lat="38.875354" lon="-0.243188">
        <ele>201.008</ele>
        <time>2019-06-15T13:25:17Z</time>
      </trkpt>
      <trkpt lat="38.875297" lon="-0.243240">
        <ele>201.248</ele>
        <time>2019-06-15T13:25:20Z</time>
      </trkpt>
      <trkpt lat="38.875297" lon="-0.243240">
        <ele>201.272</ele>
        <time>2019-06-15T13:25:20Z</time>
      </trkpt>
      <trkpt lat="38.875297" lon="-0.243240">
        <ele>201.271</ele>
        <time>2019-06-15T13:25:20Z</time>
      </trkpt>
      <trkpt lat="38.875162" lon="-0.243383">
        <ele>201.694</ele>
        <time>2019-06-15T13:25:26Z</time>
      </trkpt>
      <trkpt lat="38.875162" lon="-0.243383">
        <ele>201.626</ele>
        <time>2019-06-15T13:25:26Z</time>
      </trkpt>
      <trkpt lat="38.875162" lon="-0.243383">
        <ele>201.643</ele>
        <time>2019-06-15T13:25:26Z</time>
      </trkpt>
      <trkpt lat="38.875162" lon="-0.243383">
        <ele>201.662</ele>
        <time>2019-06-15T13:25:26Z</time>
      </trkpt>
      <trkpt lat="38.875162" lon="-0.243383">
        <ele>201.657</ele>
        <time>2019-06-15T13:25:26Z</time>
      </trkpt>
      <trkpt lat="38.875162" lon="-0.243383">
        <ele>201.672</ele>
        <time>2019-06-15T13:25:26Z</time>
      </trkpt>
      <trkpt lat="38.874984" lon="-0.243612">
        <ele>199.313</ele>
        <time>2019-06-15T13:26:23Z</time>
      </trkpt>
      <trkpt lat="38.874957" lon="-0.243661">
        <ele>199.714</ele>
        <time>2019-06-15T13:26:28Z</time>
      </trkpt>
      <trkpt lat="38.874958" lon="-0.243849">
        <ele>198.908</ele>
        <time>2019-06-15T13:26:29Z</time>
      </trkpt>
      <trkpt lat="38.874943" lon="-0.243684">
        <ele>199.950</ele>
        <time>2019-06-15T13:26:30Z</time>
      </trkpt>
      <trkpt lat="38.874942" lon="-0.243611">
        <ele>200.394</ele>
        <time>2019-06-15T13:26:31Z</time>
      </trkpt>
      <trkpt lat="38.874972" lon="-0.243525">
        <ele>202.333</ele>
        <time>2019-06-15T13:26:33Z</time>
      </trkpt>
      <trkpt lat="38.874972" lon="-0.243525">
        <ele>202.396</ele>
        <time>2019-06-15T13:26:33Z</time>
      </trkpt>
      <trkpt lat="38.875030" lon="-0.243538">
        <ele>200.738</ele>
        <time>2019-06-15T13:26:35Z</time>
      </trkpt>
      <trkpt lat="38.875030" lon="-0.243538">
        <ele>200.755</ele>
        <time>2019-06-15T13:26:35Z</time>
      </trkpt>
      <trkpt lat="38.875071" lon="-0.243495">
        <ele>201.184</ele>
        <time>2019-06-15T13:26:43Z</time>
      </trkpt>
      <trkpt lat="38.875097" lon="-0.243438">
        <ele>202.069</ele>
        <time>2019-06-15T13:26:47Z</time>
      </trkpt>
      <trkpt lat="38.875112" lon="-0.243362">
        <ele>203.681</ele>
        <time>2019-06-15T13:26:50Z</time>
      </trkpt>
      <trkpt lat="38.875131" lon="-0.243281">
        <ele>205.661</ele>
        <time>2019-06-15T13:26:53Z</time>
      </trkpt>
      <trkpt lat="38.875310" lon="-0.243252">
        <ele>200.617</ele>
        <time>2019-06-15T13:26:56Z</time>
      </trkpt>
      <trkpt lat="38.875375" lon="-0.243257">
        <ele>198.908</ele>
        <time>2019-06-15T13:26:57Z</time>
      </trkpt>
      <trkpt lat="38.875445" lon="-0.243267">
        <ele>197.091</ele>
        <time>2019-06-15T13:26:59Z</time>
      </trkpt>
      <trkpt lat="38.875491" lon="-0.243266">
        <ele>196.055</ele>
        <time>2019-06-15T13:27:01Z</time>
      </trkpt>
      <trkpt lat="38.875539" lon="-0.243264">
        <ele>194.994</ele>
        <time>2019-06-15T13:27:04Z</time>
      </trkpt>
      <trkpt lat="38.875601" lon="-0.243257">
        <ele>194.077</ele>
        <time>2019-06-15T13:27:07Z</time>
      </trkpt>
      <trkpt lat="38.875798" lon="-0.243295">
        <ele>191.429</ele>
        <time>2019-06-15T13:27:43Z</time>
      </trkpt>
      <trkpt lat="38.875914" lon="-0.243405">
        <ele>189.616</ele>
        <time>2019-06-15T13:29:48Z</time>
      </trkpt>
      <trkpt lat="38.875957" lon="-0.243575">
        <ele>187.245</ele>
        <time>2019-06-15T13:29:49Z</time>
      </trkpt>
      <trkpt lat="38.876138" lon="-0.243999">
        <ele>185.640</ele>
        <time>2019-06-15T13:29:53Z</time>
      </trkpt>
      <trkpt lat="38.876138" lon="-0.243999">
        <ele>185.625</ele>
        <time>2019-06-15T13:29:53Z</time>
      </trkpt>
      <trkpt lat="38.876138" lon="-0.243999">
        <ele>185.626</ele>
        <time>2019-06-15T13:29:53Z</time>
      </trkpt>
      <trkpt lat="38.876138" lon="-0.243999">
        <ele>185.608</ele>
        <time>2019-06-15T13:29:53Z</time>
      </trkpt>
      <trkpt lat="38.876328" lon="-0.244365">
        <ele>192.808</ele>
        <time>2019-06-15T13:29:57Z</time>
      </trkpt>
      <trkpt lat="38.876328" lon="-0.244365">
        <ele>192.855</ele>
        <time>2019-06-15T13:29:57Z</time>
      </trkpt>
      <trkpt lat="38.876328" lon="-0.244365">
        <ele>192.839</ele>
        <time>2019-06-15T13:29:57Z</time>
      </trkpt>
      <trkpt lat="38.876328" lon="-0.244365">
        <ele>192.868</ele>
        <time>2019-06-15T13:29:57Z</time>
      </trkpt>
      <trkpt lat="38.876531" lon="-0.244623">
        <ele>194.571</ele>
        <time>2019-06-15T13:30:01Z</time>
      </trkpt>
      <trkpt lat="38.876531" lon="-0.244623">
        <ele>194.573</ele>
        <time>2019-06-15T13:30:01Z</time>
      </trkpt>
      <trkpt lat="38.876531" lon="-0.244623">
        <ele>194.530</ele>
        <time>2019-06-15T13:30:01Z</time>
      </trkpt>
      <trkpt lat="38.876531" lon="-0.244623">
        <ele>194.559</ele>
        <time>2019-06-15T13:30:01Z</time>
      </trkpt>
      <trkpt lat="38.876607" lon="-0.244756">
        <ele>194.244</ele>
        <time>2019-06-15T13:30:05Z</time>
      </trkpt>
      <trkpt lat="38.876607" lon="-0.244756">
        <ele>194.292</ele>
        <time>2019-06-15T13:30:05Z</time>
      </trkpt>
      <trkpt lat="38.876607" lon="-0.244756">
        <ele>194.273</ele>
        <time>2019-06-15T13:30:05Z</time>
      </trkpt>
      <trkpt lat="38.876607" lon="-0.244756">
        <ele>194.220</ele>
        <time>2019-06-15T13:30:05Z</time>
      </trkpt>
      <trkpt lat="38.876710" lon="-0.244799">
        <ele>191.208</ele>
        <time>2019-06-15T13:30:10Z</time>
      </trkpt>
      <trkpt lat="38.876747" lon="-0.244750">
        <ele>189.332</ele>
        <time>2019-06-15T13:30:18Z</time>
      </trkpt>
      <trkpt lat="38.876813" lon="-0.244718">
        <ele>186.716</ele>
        <time>2019-06-15T13:30:21Z</time>
      </trkpt>
      <trkpt lat="38.876926" lon="-0.244701">
        <ele>182.725</ele>
        <time>2019-06-15T13:30:23Z</time>
      </trkpt>
      <trkpt lat="38.877015" lon="-0.244690">
        <ele>179.468</ele>
        <time>2019-06-15T13:30:24Z</time>
      </trkpt>
      <trkpt lat="38.877078" lon="-0.244701">
        <ele>177.120</ele>
        <time>2019-06-15T13:30:25Z</time>
      </trkpt>
      <trkpt lat="38.877123" lon="-0.244720">
        <ele>175.687</ele>
        <time>2019-06-15T13:30:26Z</time>
      </trkpt>
      <trkpt lat="38.877268" lon="-0.244846">
        <ele>171.996</ele>
        <time>2019-06-15T13:30:28Z</time>
      </trkpt>
      <trkpt lat="38.877347" lon="-0.245021">
        <ele>172.041</ele>
        <time>2019-06-15T13:30:32Z</time>
      </trkpt>
      <trkpt lat="38.877347" lon="-0.245021">
        <ele>172.012</ele>
        <time>2019-06-15T13:30:32Z</time>
      </trkpt>
      <trkpt lat="38.877347" lon="-0.245021">
        <ele>172.032</ele>
        <time>2019-06-15T13:30:32Z</time>
      </trkpt>
      <trkpt lat="38.877347" lon="-0.245021">
        <ele>172.005</ele>
        <time>2019-06-15T13:30:32Z</time>
      </trkpt>
      <trkpt lat="38.877513" lon="-0.245294">
        <ele>174.008</ele>
        <time>2019-06-15T13:30:35Z</time>
      </trkpt>
      <trkpt lat="38.877513" lon="-0.245294">
        <ele>174.024</ele>
        <time>2019-06-15T13:30:35Z</time>
      </trkpt>
      <trkpt lat="38.877513" lon="-0.245294">
        <ele>174.058</ele>
        <time>2019-06-15T13:30:35Z</time>
      </trkpt>
      <trkpt lat="38.877574" lon="-0.245388">
        <ele>174.147</ele>
        <time>2019-06-15T13:30:37Z</time>
      </trkpt>
      <trkpt lat="38.877574" lon="-0.245388">
        <ele>174.170</ele>
        <time>2019-06-15T13:30:37Z</time>
      </trkpt>
      <trkpt lat="38.877650" lon="-0.245487">
        <ele>174.292</ele>
        <time>2019-06-15T13:30:39Z</time>
      </trkpt>
      <trkpt lat="38.877650" lon="-0.245487">
        <ele>174.259</ele>
        <time>2019-06-15T13:30:39Z</time>
      </trkpt>
      <trkpt lat="38.877738" lon="-0.245539">
        <ele>173.498</ele>
        <time>2019-06-15T13:30:41Z</time>
      </trkpt>
      <trkpt lat="38.877738" lon="-0.245539">
        <ele>173.493</ele>
        <time>2019-06-15T13:30:41Z</time>
      </trkpt>
      <trkpt lat="38.877786" lon="-0.245578">
        <ele>173.526</ele>
        <time>2019-06-15T13:30:43Z</time>
      </trkpt>
      <trkpt lat="38.877786" lon="-0.245578">
        <ele>173.547</ele>
        <time>2019-06-15T13:30:43Z</time>
      </trkpt>
      <trkpt lat="38.877870" lon="-0.245611">
        <ele>172.711</ele>
        <time>2019-06-15T13:30:45Z</time>
      </trkpt>
      <trkpt lat="38.877870" lon="-0.245611">
        <ele>172.708</ele>
        <time>2019-06-15T13:30:45Z</time>
      </trkpt>
      <trkpt lat="38.877915" lon="-0.245632">
        <ele>172.485</ele>
        <time>2019-06-15T13:30:48Z</time>
      </trkpt>
      <trkpt lat="38.878086" lon="-0.245641">
        <ele>168.999</ele>
        <time>2019-06-15T13:30:50Z</time>
      </trkpt>
      <trkpt lat="38.878156" lon="-0.245634">
        <ele>166.898</ele>
        <time>2019-06-15T13:30:51Z</time>
      </trkpt>
      <trkpt lat="38.878267" lon="-0.245643">
        <ele>164.271</ele>
        <time>2019-06-15T13:31:11Z</time>
      </trkpt>
      <trkpt lat="38.878370" lon="-0.245483">
        <ele>158.543</ele>
        <time>2019-06-15T13:31:12Z</time>
      </trkpt>
      <trkpt lat="38.878427" lon="-0.245522">
        <ele>159.780</ele>
        <time>2019-06-15T13:31:13Z</time>
      </trkpt>
      <trkpt lat="38.878499" lon="-0.245546">
        <ele>160.779</ele>
        <time>2019-06-15T13:31:14Z</time>
      </trkpt>
      <trkpt lat="38.878545" lon="-0.245518">
        <ele>161.154</ele>
        <time>2019-06-15T13:31:15Z</time>
      </trkpt>
      <trkpt lat="38.878615" lon="-0.245526">
        <ele>162.055</ele>
        <time>2019-06-15T13:31:16Z</time>
      </trkpt>
      <trkpt lat="38.878677" lon="-0.245509">
        <ele>163.407</ele>
        <time>2019-06-15T13:31:17Z</time>
      </trkpt>
      <trkpt lat="38.878755" lon="-0.245545">
        <ele>165.517</ele>
        <time>2019-06-15T13:31:18Z</time>
      </trkpt>
      <trkpt lat="38.878807" lon="-0.245586">
        <ele>167.808</ele>
        <time>2019-06-15T13:31:19Z</time>
      </trkpt>
      <trkpt lat="38.878925" lon="-0.245648">
        <ele>171.668</ele>
        <time>2019-06-15T13:31:21Z</time>
      </trkpt>
      <trkpt lat="38.878983" lon="-0.245668">
        <ele>172.232</ele>
        <time>2019-06-15T13:31:23Z</time>
      </trkpt>
      <trkpt lat="38.879056" lon="-0.245689">
        <ele>173.141</ele>
        <time>2019-06-15T13:31:25Z</time>
      </trkpt>
      <trkpt lat="38.879143" lon="-0.245712">
        <ele>174.394</ele>
        <time>2019-06-15T13:31:27Z</time>
      </trkpt>
      <trkpt lat="38.879206" lon="-0.245706">
        <ele>173.426</ele>
        <time>2019-06-15T13:31:28Z</time>
      </trkpt>
      <trkpt lat="38.879359" lon="-0.245689">
        <ele>170.243</ele>
        <time>2019-06-15T13:31:29Z</time>
      </trkpt>
      <trkpt lat="38.879426" lon="-0.245677">
        <ele>168.812</ele>
        <time>2019-06-15T13:31:30Z</time>
      </trkpt>
      <trkpt lat="38.879512" lon="-0.245706">
        <ele>166.857</ele>
        <time>2019-06-15T13:31:31Z</time>
      </trkpt>
      <trkpt lat="38.879573" lon="-0.245709">
        <ele>164.662</ele>
        <time>2019-06-15T13:31:33Z</time>
      </trkpt>
      <trkpt lat="38.879618" lon="-0.245686">
        <ele>162.183</ele>
        <time>2019-06-15T13:31:35Z</time>
      </trkpt>
      <trkpt lat="38.879670" lon="-0.245665">
        <ele>159.411</ele>
        <time>2019-06-15T13:31:39Z</time>
      </trkpt>
      <trkpt lat="38.879710" lon="-0.245619">
        <ele>156.008</ele>
        <time>2019-06-15T13:31:42Z</time>
      </trkpt>
      <trkpt lat="38.879825" lon="-0.245557">
        <ele>150.879</ele>
        <time>2019-06-15T13:31:49Z</time>
      </trkpt>
      <trkpt lat="38.879907" lon="-0.245609">
        <ele>151.493</ele>
        <time>2019-06-15T13:31:50Z</time>
      </trkpt>
      <trkpt lat="38.879968" lon="-0.245654">
        <ele>152.272</ele>
        <time>2019-06-15T13:31:51Z</time>
      </trkpt>
      <trkpt lat="38.880100" lon="-0.245672">
        <ele>150.975</ele>
        <time>2019-06-15T13:31:53Z</time>
      </trkpt>
      <trkpt lat="38.880178" lon="-0.245697">
        <ele>150.497</ele>
        <time>2019-06-15T13:31:54Z</time>
      </trkpt>
      <trkpt lat="38.880602" lon="-0.245978">
        <ele>155.674</ele>
        <time>2019-06-15T13:32:28Z</time>
      </trkpt>
      <trkpt lat="38.880648" lon="-0.245966">
        <ele>155.733</ele>
        <time>2019-06-15T13:32:42Z</time>
      </trkpt>
      <trkpt lat="38.880830" lon="-0.246472">
        <ele>168.298</ele>
        <time>2019-06-15T13:32:43Z</time>
      </trkpt>
      <trkpt lat="38.881217" lon="-0.246803">
        <ele>175.779</ele>
        <time>2019-06-15T13:32:47Z</time>
      </trkpt>
      <trkpt lat="38.881217" lon="-0.246803">
        <ele>175.705</ele>
        <time>2019-06-15T13:32:47Z</time>
      </trkpt>
      <trkpt lat="38.881217" lon="-0.246803">
        <ele>175.725</ele>
        <time>2019-06-15T13:32:47Z</time>
      </trkpt>
      <trkpt lat="38.881400" lon="-0.246760">
        <ele>173.108</ele>
        <time>2019-06-15T13:32:48Z</time>
      </trkpt>
      <trkpt lat="38.881712" lon="-0.246684">
        <ele>164.890</ele>
        <time>2019-06-15T13:32:49Z</time>
      </trkpt>
      <trkpt lat="38.881926" lon="-0.246567">
        <ele>156.124</ele>
        <time>2019-06-15T13:32:50Z</time>
      </trkpt>
      <trkpt lat="38.881969" lon="-0.246594">
        <ele>155.463</ele>
        <time>2019-06-15T13:32:51Z</time>
      </trkpt>
      <trkpt lat="38.882063" lon="-0.246589">
        <ele>153.226</ele>
        <time>2019-06-15T13:32:52Z</time>
      </trkpt>
      <trkpt lat="38.882113" lon="-0.246617">
        <ele>152.578</ele>
        <time>2019-06-15T13:32:54Z</time>
      </trkpt>
      <trkpt lat="38.882167" lon="-0.246663">
        <ele>152.195</ele>
        <time>2019-06-15T13:32:56Z</time>
      </trkpt>
      <trkpt lat="38.882249" lon="-0.246773">
        <ele>151.464</ele>
        <time>2019-06-15T13:32:57Z</time>
      </trkpt>
      <trkpt lat="38.882278" lon="-0.246828">
        <ele>151.169</ele>
        <time>2019-06-15T13:33:02Z</time>
      </trkpt>
      <trkpt lat="38.882264" lon="-0.246899">
        <ele>152.262</ele>
        <time>2019-06-15T13:33:05Z</time>
      </trkpt>
      <trkpt lat="38.882281" lon="-0.247161">
        <ele>152.783</ele>
        <time>2019-06-15T13:33:06Z</time>
      </trkpt>
      <trkpt lat="38.882239" lon="-0.247225">
        <ele>154.411</ele>
        <time>2019-06-15T13:33:07Z</time>
      </trkpt>
      <trkpt lat="38.882191" lon="-0.247301">
        <ele>156.808</ele>
        <time>2019-06-15T13:33:09Z</time>
      </trkpt>
      <trkpt lat="38.882187" lon="-0.247364">
        <ele>157.579</ele>
        <time>2019-06-15T13:33:10Z</time>
      </trkpt>
      <trkpt lat="38.882163" lon="-0.247437">
        <ele>159.163</ele>
        <time>2019-06-15T13:33:15Z</time>
      </trkpt>
      <trkpt lat="38.882104" lon="-0.247639">
        <ele>161.872</ele>
        <time>2019-06-15T13:33:17Z</time>
      </trkpt>
      <trkpt lat="38.882079" lon="-0.247697">
        <ele>162.875</ele>
        <time>2019-06-15T13:33:20Z</time>
      </trkpt>
      <trkpt lat="38.882065" lon="-0.247768">
        <ele>163.457</ele>
        <time>2019-06-15T13:33:23Z</time>
      </trkpt>
      <trkpt lat="38.882046" lon="-0.247999">
        <ele>163.254</ele>
        <time>2019-06-15T13:33:25Z</time>
      </trkpt>
      <trkpt lat="38.882028" lon="-0.248186">
        <ele>162.023</ele>
        <time>2019-06-15T13:33:26Z</time>
      </trkpt>
      <trkpt lat="38.882016" lon="-0.248254">
        <ele>161.748</ele>
        <time>2019-06-15T13:33:27Z</time>
      </trkpt>
      <trkpt lat="38.882011" lon="-0.248314">
        <ele>161.254</ele>
        <time>2019-06-15T13:33:31Z</time>
      </trkpt>
      <trkpt lat="38.881988" lon="-0.248378">
        <ele>161.056</ele>
        <time>2019-06-15T13:33:32Z</time>
      </trkpt>
      <trkpt lat="38.881967" lon="-0.248435">
        <ele>160.411</ele>
        <time>2019-06-15T13:33:33Z</time>
      </trkpt>
      <trkpt lat="38.881936" lon="-0.248496">
        <ele>160.108</ele>
        <time>2019-06-15T13:33:34Z</time>
      </trkpt>
      <trkpt lat="38.881922" lon="-0.248557">
        <ele>158.868</ele>
        <time>2019-06-15T13:33:36Z</time>
      </trkpt>
      <trkpt lat="38.881909" lon="-0.248613">
        <ele>157.782</ele>
        <time>2019-06-15T13:33:38Z</time>
      </trkpt>
      <trkpt lat="38.881891" lon="-0.248673">
        <ele>156.741</ele>
        <time>2019-06-15T13:33:41Z</time>
      </trkpt>
      <trkpt lat="38.881901" lon="-0.248764">
        <ele>153.314</ele>
        <time>2019-06-15T13:34:25Z</time>
      </trkpt>
      <trkpt lat="38.881864" lon="-0.248838">
        <ele>152.946</ele>
        <time>2019-06-15T13:37:22Z</time>
      </trkpt>
      <trkpt lat="38.881836" lon="-0.248921">
        <ele>152.883</ele>
        <time>2019-06-15T13:37:24Z</time>
      </trkpt>
      <trkpt lat="38.881807" lon="-0.249024">
        <ele>154.422</ele>
        <time>2019-06-15T13:37:26Z</time>
      </trkpt>
      <trkpt lat="38.881761" lon="-0.249193">
        <ele>158.247</ele>
        <time>2019-06-15T13:37:27Z</time>
      </trkpt>
      <trkpt lat="38.881733" lon="-0.249282">
        <ele>162.617</ele>
        <time>2019-06-15T13:37:31Z</time>
      </trkpt>
      <trkpt lat="38.881725" lon="-0.249599">
        <ele>165.987</ele>
        <time>2019-06-15T13:37:32Z</time>
      </trkpt>
      <trkpt lat="38.881686" lon="-0.249672">
        <ele>168.215</ele>
        <time>2019-06-15T13:37:34Z</time>
      </trkpt>
      <trkpt lat="38.881674" lon="-0.249739">
        <ele>168.108</ele>
        <time>2019-06-15T13:37:36Z</time>
      </trkpt>
      <trkpt lat="38.881657" lon="-0.249805">
        <ele>167.764</ele>
        <time>2019-06-15T13:37:37Z</time>
      </trkpt>
      <trkpt lat="38.881599" lon="-0.249886">
        <ele>168.948</ele>
        <time>2019-06-15T13:37:39Z</time>
      </trkpt>
      <trkpt lat="38.881546" lon="-0.249922">
        <ele>170.857</ele>
        <time>2019-06-15T13:37:40Z</time>
      </trkpt>
      <trkpt lat="38.881504" lon="-0.250076">
        <ele>169.570</ele>
        <time>2019-06-15T13:37:43Z</time>
      </trkpt>
      <trkpt lat="38.881498" lon="-0.250183">
        <ele>167.422</ele>
        <time>2019-06-15T13:37:45Z</time>
      </trkpt>
      <trkpt lat="38.881494" lon="-0.250241">
        <ele>166.379</ele>
        <time>2019-06-15T13:37:46Z</time>
      </trkpt>
      <trkpt lat="38.881492" lon="-0.250307">
        <ele>164.468</ele>
        <time>2019-06-15T13:37:48Z</time>
      </trkpt>
      <trkpt lat="38.881451" lon="-0.250372">
        <ele>163.523</ele>
        <time>2019-06-15T13:37:52Z</time>
      </trkpt>
      <trkpt lat="38.881398" lon="-0.250419">
        <ele>163.684</ele>
        <time>2019-06-15T13:37:54Z</time>
      </trkpt>
      <trkpt lat="38.881366" lon="-0.250481">
        <ele>162.007</ele>
        <time>2019-06-15T13:37:56Z</time>
      </trkpt>
      <trkpt lat="38.881327" lon="-0.250533">
        <ele>161.317</ele>
        <time>2019-06-15T13:37:58Z</time>
      </trkpt>
      <trkpt lat="38.881282" lon="-0.250571">
        <ele>161.808</ele>
        <time>2019-06-15T13:38:00Z</time>
      </trkpt>
      <trkpt lat="38.881248" lon="-0.250632">
        <ele>161.551</ele>
        <time>2019-06-15T13:38:03Z</time>
      </trkpt>
      <trkpt lat="38.881216" lon="-0.250684">
        <ele>161.285</ele>
        <time>2019-06-15T13:38:06Z</time>
      </trkpt>
      <trkpt lat="38.881189" lon="-0.250738">
        <ele>160.644</ele>
        <time>2019-06-15T13:38:08Z</time>
      </trkpt>
      <trkpt lat="38.881159" lon="-0.250806">
        <ele>159.597</ele>
        <time>2019-06-15T13:38:10Z</time>
      </trkpt>
      <trkpt lat="38.881132" lon="-0.250878">
        <ele>158.949</ele>
        <time>2019-06-15T13:38:12Z</time>
      </trkpt>
      <trkpt lat="38.881109" lon="-0.250948">
        <ele>158.836</ele>
        <time>2019-06-15T13:38:14Z</time>
      </trkpt>
      <trkpt lat="38.881087" lon="-0.251014">
        <ele>158.825</ele>
        <time>2019-06-15T13:38:16Z</time>
      </trkpt>
      <trkpt lat="38.881066" lon="-0.251072">
        <ele>158.960</ele>
        <time>2019-06-15T13:38:18Z</time>
      </trkpt>
      <trkpt lat="38.881036" lon="-0.251132">
        <ele>159.559</ele>
        <time>2019-06-15T13:38:20Z</time>
      </trkpt>
      <trkpt lat="38.880978" lon="-0.251248">
        <ele>161.803</ele>
        <time>2019-06-15T13:38:21Z</time>
      </trkpt>
      <trkpt lat="38.880915" lon="-0.251361">
        <ele>163.923</ele>
        <time>2019-06-15T13:38:23Z</time>
      </trkpt>
      <trkpt lat="38.880877" lon="-0.251411">
        <ele>164.808</ele>
        <time>2019-06-15T13:38:24Z</time>
      </trkpt>
      <trkpt lat="38.880881" lon="-0.251474">
        <ele>164.438</ele>
        <time>2019-06-15T13:38:25Z</time>
      </trkpt>
      <trkpt lat="38.880889" lon="-0.251552">
        <ele>163.972</ele>
        <time>2019-06-15T13:38:26Z</time>
      </trkpt>
      <trkpt lat="38.880880" lon="-0.251615">
        <ele>163.991</ele>
        <time>2019-06-15T13:38:29Z</time>
      </trkpt>
      <trkpt lat="38.880880" lon="-0.251683">
        <ele>163.524</ele>
        <time>2019-06-15T13:38:31Z</time>
      </trkpt>
      <trkpt lat="38.880891" lon="-0.251761">
        <ele>162.566</ele>
        <time>2019-06-15T13:38:34Z</time>
      </trkpt>
      <trkpt lat="38.880902" lon="-0.251830">
        <ele>161.553</ele>
        <time>2019-06-15T13:38:37Z</time>
      </trkpt>
      <trkpt lat="38.880937" lon="-0.252218">
        <ele>159.362</ele>
        <time>2019-06-15T13:38:40Z</time>
      </trkpt>
      <trkpt lat="38.880890" lon="-0.252226">
        <ele>159.637</ele>
        <time>2019-06-15T13:38:42Z</time>
      </trkpt>
      <trkpt lat="38.880830" lon="-0.252267">
        <ele>160.323</ele>
        <time>2019-06-15T13:38:45Z</time>
      </trkpt>
      <trkpt lat="38.880779" lon="-0.252315">
        <ele>162.083</ele>
        <time>2019-06-15T13:38:48Z</time>
      </trkpt>
      <trkpt lat="38.880750" lon="-0.252453">
        <ele>163.011</ele>
        <time>2019-06-15T13:38:49Z</time>
      </trkpt>
      <trkpt lat="38.880754" lon="-0.252513">
        <ele>162.908</ele>
        <time>2019-06-15T13:38:53Z</time>
      </trkpt>
      <trkpt lat="38.880788" lon="-0.252558">
        <ele>161.925</ele>
        <time>2019-06-15T13:38:56Z</time>
      </trkpt>
      <trkpt lat="38.880843" lon="-0.252597">
        <ele>160.519</ele>
        <time>2019-06-15T13:38:59Z</time>
      </trkpt>
      <trkpt lat="38.880886" lon="-0.252622">
        <ele>160.028</ele>
        <time>2019-06-15T13:39:01Z</time>
      </trkpt>
      <trkpt lat="38.880933" lon="-0.252647">
        <ele>159.451</ele>
        <time>2019-06-15T13:39:03Z</time>
      </trkpt>
      <trkpt lat="38.880981" lon="-0.252685">
        <ele>158.723</ele>
        <time>2019-06-15T13:39:05Z</time>
      </trkpt>
      <trkpt lat="38.881014" lon="-0.252754">
        <ele>158.140</ele>
        <time>2019-06-15T13:39:06Z</time>
      </trkpt>
      <trkpt lat="38.881046" lon="-0.252844">
        <ele>158.189</ele>
        <time>2019-06-15T13:39:07Z</time>
      </trkpt>
      <trkpt lat="38.881074" lon="-0.252951">
        <ele>158.514</ele>
        <time>2019-06-15T13:39:08Z</time>
      </trkpt>
      <trkpt lat="38.881094" lon="-0.253035">
        <ele>158.925</ele>
        <time>2019-06-15T13:39:09Z</time>
      </trkpt>
      <trkpt lat="38.881103" lon="-0.253111">
        <ele>159.226</ele>
        <time>2019-06-15T13:39:10Z</time>
      </trkpt>
      <trkpt lat="38.881140" lon="-0.253346">
        <ele>157.208</ele>
        <time>2019-06-15T13:39:11Z</time>
      </trkpt>
      <trkpt lat="38.881159" lon="-0.253416">
        <ele>155.208</ele>
        <time>2019-06-15T13:39:13Z</time>
      </trkpt>
      <trkpt lat="38.881175" lon="-0.253481">
        <ele>153.555</ele>
        <time>2019-06-15T13:39:15Z</time>
      </trkpt>
      <trkpt lat="38.881198" lon="-0.253535">
        <ele>151.159</ele>
        <time>2019-06-15T13:39:18Z</time>
      </trkpt>
      <trkpt lat="38.881268" lon="-0.253725">
        <ele>145.028</ele>
        <time>2019-06-15T13:39:19Z</time>
      </trkpt>
      <trkpt lat="38.881238" lon="-0.253881">
        <ele>148.511</ele>
        <time>2019-06-15T13:39:27Z</time>
      </trkpt>
      <trkpt lat="38.881235" lon="-0.253999">
        <ele>148.133</ele>
        <time>2019-06-15T13:39:28Z</time>
      </trkpt>
      <trkpt lat="38.881235" lon="-0.254092">
        <ele>147.480</ele>
        <time>2019-06-15T13:39:29Z</time>
      </trkpt>
      <trkpt lat="38.881254" lon="-0.254202">
        <ele>145.169</ele>
        <time>2019-06-15T13:39:30Z</time>
      </trkpt>
      <trkpt lat="38.881284" lon="-0.254364">
        <ele>142.794</ele>
        <time>2019-06-15T13:39:32Z</time>
      </trkpt>
      <trkpt lat="38.881338" lon="-0.254449">
        <ele>139.389</ele>
        <time>2019-06-15T13:39:33Z</time>
      </trkpt>
      <trkpt lat="38.881318" lon="-0.254505">
        <ele>141.106</ele>
        <time>2019-06-15T13:39:34Z</time>
      </trkpt>
      <trkpt lat="38.881288" lon="-0.254564">
        <ele>143.326</ele>
        <time>2019-06-15T13:39:35Z</time>
      </trkpt>
      <trkpt lat="38.881245" lon="-0.254669">
        <ele>146.008</ele>
        <time>2019-06-15T13:39:37Z</time>
      </trkpt>
      <trkpt lat="38.881215" lon="-0.254740">
        <ele>147.421</ele>
        <time>2019-06-15T13:39:38Z</time>
      </trkpt>
      <trkpt lat="38.881231" lon="-0.254807">
        <ele>146.425</ele>
        <time>2019-06-15T13:39:39Z</time>
      </trkpt>
      <trkpt lat="38.881195" lon="-0.254851">
        <ele>147.444</ele>
        <time>2019-06-15T13:39:40Z</time>
      </trkpt>
      <trkpt lat="38.881199" lon="-0.254915">
        <ele>146.757</ele>
        <time>2019-06-15T13:39:41Z</time>
      </trkpt>
      <trkpt lat="38.881210" lon="-0.254995">
        <ele>145.959</ele>
        <time>2019-06-15T13:39:42Z</time>
      </trkpt>
      <trkpt lat="38.881162" lon="-0.255069">
        <ele>146.956</ele>
        <time>2019-06-15T13:39:44Z</time>
      </trkpt>
      <trkpt lat="38.881165" lon="-0.255134">
        <ele>146.835</ele>
        <time>2019-06-15T13:39:45Z</time>
      </trkpt>
      <trkpt lat="38.881125" lon="-0.255226">
        <ele>147.760</ele>
        <time>2019-06-15T13:39:47Z</time>
      </trkpt>
      <trkpt lat="38.881121" lon="-0.255302">
        <ele>147.899</ele>
        <time>2019-06-15T13:39:48Z</time>
      </trkpt>
      <trkpt lat="38.881181" lon="-0.255345">
        <ele>146.407</ele>
        <time>2019-06-15T13:39:49Z</time>
      </trkpt>
      <trkpt lat="38.881179" lon="-0.255412">
        <ele>146.327</ele>
        <time>2019-06-15T13:39:50Z</time>
      </trkpt>
      <trkpt lat="38.881135" lon="-0.255466">
        <ele>147.408</ele>
        <time>2019-06-15T13:39:51Z</time>
      </trkpt>
      <trkpt lat="38.881112" lon="-0.255521">
        <ele>148.052</ele>
        <time>2019-06-15T13:39:52Z</time>
      </trkpt>
      <trkpt lat="38.881050" lon="-0.255574">
        <ele>150.346</ele>
        <time>2019-06-15T13:39:54Z</time>
      </trkpt>
      <trkpt lat="38.881050" lon="-0.255637">
        <ele>150.145</ele>
        <time>2019-06-15T13:39:55Z</time>
      </trkpt>
      <trkpt lat="38.881020" lon="-0.255683">
        <ele>150.958</ele>
        <time>2019-06-15T13:39:58Z</time>
      </trkpt>
      <trkpt lat="38.880928" lon="-0.255874">
        <ele>151.460</ele>
        <time>2019-06-15T13:40:00Z</time>
      </trkpt>
      <trkpt lat="38.880868" lon="-0.255960">
        <ele>151.427</ele>
        <time>2019-06-15T13:40:02Z</time>
      </trkpt>
      <trkpt lat="38.880844" lon="-0.256041">
        <ele>150.876</ele>
        <time>2019-06-15T13:40:05Z</time>
      </trkpt>
      <trkpt lat="38.880830" lon="-0.256148">
        <ele>149.691</ele>
        <time>2019-06-15T13:40:06Z</time>
      </trkpt>
      <trkpt lat="38.880788" lon="-0.256267">
        <ele>149.766</ele>
        <time>2019-06-15T13:40:08Z</time>
      </trkpt>
      <trkpt lat="38.880760" lon="-0.256315">
        <ele>150.229</ele>
        <time>2019-06-15T13:40:12Z</time>
      </trkpt>
      <trkpt lat="38.880664" lon="-0.256484">
        <ele>150.521</ele>
        <time>2019-06-15T13:40:13Z</time>
      </trkpt>
      <trkpt lat="38.880614" lon="-0.256555">
        <ele>150.708</ele>
        <time>2019-06-15T13:40:15Z</time>
      </trkpt>
      <trkpt lat="38.880607" lon="-0.256638">
        <ele>148.829</ele>
        <time>2019-06-15T13:40:18Z</time>
      </trkpt>
      <trkpt lat="38.880590" lon="-0.256715">
        <ele>147.633</ele>
        <time>2019-06-15T13:40:20Z</time>
      </trkpt>
      <trkpt lat="38.880575" lon="-0.256793">
        <ele>146.672</ele>
        <time>2019-06-15T13:40:23Z</time>
      </trkpt>
      <trkpt lat="38.880537" lon="-0.256938">
        <ele>144.975</ele>
        <time>2019-06-15T13:40:48Z</time>
      </trkpt>
      <trkpt lat="38.880495" lon="-0.256968">
        <ele>145.977</ele>
        <time>2019-06-15T13:41:46Z</time>
      </trkpt>
      <trkpt lat="38.880452" lon="-0.257037">
        <ele>145.774</ele>
        <time>2019-06-15T13:41:50Z</time>
      </trkpt>
      <trkpt lat="38.880432" lon="-0.257092">
        <ele>144.983</ele>
        <time>2019-06-15T13:41:52Z</time>
      </trkpt>
      <trkpt lat="38.880415" lon="-0.257153">
        <ele>143.758</ele>
        <time>2019-06-15T13:41:54Z</time>
      </trkpt>
      <trkpt lat="38.880401" lon="-0.257212">
        <ele>142.414</ele>
        <time>2019-06-15T13:41:56Z</time>
      </trkpt>
      <trkpt lat="38.880386" lon="-0.257269">
        <ele>141.854</ele>
        <time>2019-06-15T13:41:57Z</time>
      </trkpt>
      <trkpt lat="38.880237" lon="-0.257459">
        <ele>144.209</ele>
        <time>2019-06-15T13:42:08Z</time>
      </trkpt>
      <trkpt lat="38.880188" lon="-0.257492">
        <ele>146.308</ele>
        <time>2019-06-15T13:42:11Z</time>
      </trkpt>
      <trkpt lat="38.878112" lon="-0.258870">
        <ele>193.454</ele>
        <time>2019-06-15T13:43:53Z</time>
      </trkpt>
      <trkpt lat="38.878052" lon="-0.258964">
        <ele>206.068</ele>
        <time>2019-06-15T13:43:55Z</time>
      </trkpt>
      <trkpt lat="38.878017" lon="-0.259014">
        <ele>213.247</ele>
        <time>2019-06-15T13:43:56Z</time>
      </trkpt>
      <trkpt lat="38.877980" lon="-0.259058">
        <ele>219.640</ele>
        <time>2019-06-15T13:43:57Z</time>
      </trkpt>
      <trkpt lat="38.877710" lon="-0.259106">
        <ele>258.632</ele>
        <time>2019-06-15T13:43:58Z</time>
      </trkpt>
      <trkpt lat="38.877911" lon="-0.259202">
        <ele>225.279</ele>
        <time>2019-06-15T13:44:18Z</time>
      </trkpt>
      <trkpt lat="38.878097" lon="-0.259228">
        <ele>197.338</ele>
        <time>2019-06-15T13:44:19Z</time>
      </trkpt>
      <trkpt lat="38.878473" lon="-0.259776">
        <ele>164.073</ele>
        <time>2019-06-15T13:44:21Z</time>
      </trkpt>
      <trkpt lat="38.878473" lon="-0.259776">
        <ele>164.057</ele>
        <time>2019-06-15T13:44:21Z</time>
      </trkpt>
      <trkpt lat="38.878543" lon="-0.259835">
        <ele>159.900</ele>
        <time>2019-06-15T13:44:22Z</time>
      </trkpt>
      <trkpt lat="38.878625" lon="-0.259872">
        <ele>155.720</ele>
        <time>2019-06-15T13:44:24Z</time>
      </trkpt>
      <trkpt lat="38.878687" lon="-0.259885">
        <ele>154.108</ele>
        <time>2019-06-15T13:44:25Z</time>
      </trkpt>
      <trkpt lat="38.878733" lon="-0.259891">
        <ele>152.888</ele>
        <time>2019-06-15T13:44:27Z</time>
      </trkpt>
      <trkpt lat="38.878791" lon="-0.259944">
        <ele>151.232</ele>
        <time>2019-06-15T13:44:32Z</time>
      </trkpt>
      <trkpt lat="38.878988" lon="-0.260291">
        <ele>149.831</ele>
        <time>2019-06-15T13:44:48Z</time>
      </trkpt>
      <trkpt lat="38.879029" lon="-0.260346">
        <ele>149.814</ele>
        <time>2019-06-15T13:44:49Z</time>
      </trkpt>
      <trkpt lat="38.879071" lon="-0.260371">
        <ele>149.186</ele>
        <time>2019-06-15T13:44:50Z</time>
      </trkpt>
      <trkpt lat="38.879133" lon="-0.260403">
        <ele>148.143</ele>
        <time>2019-06-15T13:44:51Z</time>
      </trkpt>
      <trkpt lat="38.879170" lon="-0.260497">
        <ele>150.152</ele>
        <time>2019-06-15T13:44:52Z</time>
      </trkpt>
      <trkpt lat="38.879220" lon="-0.260499">
        <ele>149.537</ele>
        <time>2019-06-15T13:44:53Z</time>
      </trkpt>
      <trkpt lat="38.879251" lon="-0.260660">
        <ele>154.372</ele>
        <time>2019-06-15T13:44:55Z</time>
      </trkpt>
      <trkpt lat="38.879267" lon="-0.260723">
        <ele>156.113</ele>
        <time>2019-06-15T13:44:56Z</time>
      </trkpt>
      <trkpt lat="38.879296" lon="-0.260774">
        <ele>157.314</ele>
        <time>2019-06-15T13:44:58Z</time>
      </trkpt>
      <trkpt lat="38.879351" lon="-0.260850">
        <ele>158.508</ele>
        <time>2019-06-15T13:45:01Z</time>
      </trkpt>
      <trkpt lat="38.879681" lon="-0.261135">
        <ele>159.720</ele>
        <time>2019-06-15T13:45:02Z</time>
      </trkpt>
      <trkpt lat="38.879685" lon="-0.261219">
        <ele>161.774</ele>
        <time>2019-06-15T13:45:03Z</time>
      </trkpt>
      <trkpt lat="38.879650" lon="-0.261393">
        <ele>167.223</ele>
        <time>2019-06-15T13:45:28Z</time>
      </trkpt>
      <trkpt lat="38.879720" lon="-0.262095">
        <ele>186.916</ele>
        <time>2019-06-15T13:46:07Z</time>
      </trkpt>
      <trkpt lat="38.879763" lon="-0.262421">
        <ele>193.618</ele>
        <time>2019-06-15T13:46:08Z</time>
      </trkpt>
      <trkpt lat="38.879777" lon="-0.262592">
        <ele>196.655</ele>
        <time>2019-06-15T13:46:09Z</time>
      </trkpt>
      <trkpt lat="38.879779" lon="-0.262694">
        <ele>199.024</ele>
        <time>2019-06-15T13:46:10Z</time>
      </trkpt>
      <trkpt lat="38.879776" lon="-0.262768">
        <ele>201.149</ele>
        <time>2019-06-15T13:46:11Z</time>
      </trkpt>
      <trkpt lat="38.879773" lon="-0.262886">
        <ele>204.967</ele>
        <time>2019-06-15T13:46:13Z</time>
      </trkpt>
      <trkpt lat="38.879782" lon="-0.262993">
        <ele>207.281</ele>
        <time>2019-06-15T13:46:15Z</time>
      </trkpt>
      <trkpt lat="38.880135" lon="-0.263122">
        <ele>181.419</ele>
        <time>2019-06-15T13:46:17Z</time>
      </trkpt>
      <trkpt lat="38.880184" lon="-0.263167">
        <ele>177.108</ele>
        <time>2019-06-15T13:46:18Z</time>
      </trkpt>
      <trkpt lat="38.880162" lon="-0.263234">
        <ele>180.269</ele>
        <time>2019-06-15T13:46:21Z</time>
      </trkpt>
      <trkpt lat="38.880171" lon="-0.263317">
        <ele>179.883</ele>
        <time>2019-06-15T13:46:24Z</time>
      </trkpt>
      <trkpt lat="38.880192" lon="-0.263383">
        <ele>177.122</ele>
        <time>2019-06-15T13:46:26Z</time>
      </trkpt>
      <trkpt lat="38.880209" lon="-0.263458">
        <ele>174.575</ele>
        <time>2019-06-15T13:46:28Z</time>
      </trkpt>
      <trkpt lat="38.880218" lon="-0.263561">
        <ele>172.917</ele>
        <time>2019-06-15T13:46:30Z</time>
      </trkpt>
      <trkpt lat="38.880208" lon="-0.263665">
        <ele>174.964</ele>
        <time>2019-06-15T13:46:32Z</time>
      </trkpt>
      <trkpt lat="38.880246" lon="-0.263757">
        <ele>168.813</ele>
        <time>2019-06-15T13:46:34Z</time>
      </trkpt>
      <trkpt lat="38.880273" lon="-0.263825">
        <ele>164.488</ele>
        <time>2019-06-15T13:46:36Z</time>
      </trkpt>
      <trkpt lat="38.880309" lon="-0.263886">
        <ele>163.146</ele>
        <time>2019-06-15T13:46:39Z</time>
      </trkpt>
      <trkpt lat="38.880343" lon="-0.263935">
        <ele>162.688</ele>
        <time>2019-06-15T13:46:42Z</time>
      </trkpt>
      <trkpt lat="38.880368" lon="-0.263983">
        <ele>162.316</ele>
        <time>2019-06-15T13:46:45Z</time>
      </trkpt>
      <trkpt lat="38.880389" lon="-0.264037">
        <ele>162.208</ele>
        <time>2019-06-15T13:46:46Z</time>
      </trkpt>
      <trkpt lat="38.880420" lon="-0.264116">
        <ele>161.927</ele>
        <time>2019-06-15T13:46:47Z</time>
      </trkpt>
      <trkpt lat="38.880440" lon="-0.264172">
        <ele>161.851</ele>
        <time>2019-06-15T13:46:48Z</time>
      </trkpt>
      <trkpt lat="38.880503" lon="-0.264380">
        <ele>161.570</ele>
        <time>2019-06-15T13:46:55Z</time>
      </trkpt>
      <trkpt lat="38.880533" lon="-0.264479">
        <ele>161.313</ele>
        <time>2019-06-15T13:46:57Z</time>
      </trkpt>
      <trkpt lat="38.880561" lon="-0.264545">
        <ele>161.145</ele>
        <time>2019-06-15T13:46:58Z</time>
      </trkpt>
      <trkpt lat="38.880578" lon="-0.264651">
        <ele>162.192</ele>
        <time>2019-06-15T13:47:00Z</time>
      </trkpt>
      <trkpt lat="38.880601" lon="-0.264703">
        <ele>162.631</ele>
        <time>2019-06-15T13:47:01Z</time>
      </trkpt>
      <trkpt lat="38.880621" lon="-0.264776">
        <ele>163.366</ele>
        <time>2019-06-15T13:47:03Z</time>
      </trkpt>
      <trkpt lat="38.880629" lon="-0.264843">
        <ele>163.814</ele>
        <time>2019-06-15T13:47:05Z</time>
      </trkpt>
      <trkpt lat="38.880628" lon="-0.264922">
        <ele>164.554</ele>
        <time>2019-06-15T13:47:09Z</time>
      </trkpt>
      <trkpt lat="38.880639" lon="-0.264988">
        <ele>164.809</ele>
        <time>2019-06-15T13:47:10Z</time>
      </trkpt>
      <trkpt lat="38.880648" lon="-0.265057">
        <ele>165.008</ele>
        <time>2019-06-15T13:47:11Z</time>
      </trkpt>
      <trkpt lat="38.880660" lon="-0.265127">
        <ele>165.124</ele>
        <time>2019-06-15T13:47:12Z</time>
      </trkpt>
      <trkpt lat="38.880662" lon="-0.265188">
        <ele>165.428</ele>
        <time>2019-06-15T13:47:13Z</time>
      </trkpt>
      <trkpt lat="38.880669" lon="-0.265252">
        <ele>165.697</ele>
        <time>2019-06-15T13:47:14Z</time>
      </trkpt>
      <trkpt lat="38.880675" lon="-0.265350">
        <ele>166.370</ele>
        <time>2019-06-15T13:47:16Z</time>
      </trkpt>
      <trkpt lat="38.880692" lon="-0.265552">
        <ele>168.012</ele>
        <time>2019-06-15T13:47:17Z</time>
      </trkpt>
      <trkpt lat="38.880658" lon="-0.265603">
        <ele>169.119</ele>
        <time>2019-06-15T13:47:21Z</time>
      </trkpt>
      <trkpt lat="38.880672" lon="-0.265820">
        <ele>170.488</ele>
        <time>2019-06-15T13:47:24Z</time>
      </trkpt>
      <trkpt lat="38.880690" lon="-0.265919">
        <ele>170.433</ele>
        <time>2019-06-15T13:47:25Z</time>
      </trkpt>
      <trkpt lat="38.880716" lon="-0.266036">
        <ele>170.347</ele>
        <time>2019-06-15T13:47:27Z</time>
      </trkpt>
      <trkpt lat="38.880663" lon="-0.266043">
        <ele>171.429</ele>
        <time>2019-06-15T13:47:28Z</time>
      </trkpt>
      <trkpt lat="38.880686" lon="-0.266097">
        <ele>171.121</ele>
        <time>2019-06-15T13:47:29Z</time>
      </trkpt>
      <trkpt lat="38.880645" lon="-0.266136">
        <ele>172.108</ele>
        <time>2019-06-15T13:47:32Z</time>
      </trkpt>
      <trkpt lat="38.880408" lon="-0.266183">
        <ele>176.877</ele>
        <time>2019-06-15T13:47:35Z</time>
      </trkpt>
      <trkpt lat="38.880393" lon="-0.266243">
        <ele>176.781</ele>
        <time>2019-06-15T13:47:36Z</time>
      </trkpt>
      <trkpt lat="38.880352" lon="-0.266293">
        <ele>177.010</ele>
        <time>2019-06-15T13:47:37Z</time>
      </trkpt>
      <trkpt lat="38.880285" lon="-0.266336">
        <ele>177.533</ele>
        <time>2019-06-15T13:47:39Z</time>
      </trkpt>
      <trkpt lat="38.880225" lon="-0.266396">
        <ele>177.115</ele>
        <time>2019-06-15T13:47:41Z</time>
      </trkpt>
      <trkpt lat="38.880233" lon="-0.266459">
        <ele>176.142</ele>
        <time>2019-06-15T13:47:46Z</time>
      </trkpt>
      <trkpt lat="38.880236" lon="-0.266547">
        <ele>174.741</ele>
        <time>2019-06-15T13:47:49Z</time>
      </trkpt>
      <trkpt lat="38.880003" lon="-0.266671">
        <ele>171.996</ele>
        <time>2019-06-15T13:48:00Z</time>
      </trkpt>
      <trkpt lat="38.879890" lon="-0.266709">
        <ele>168.322</ele>
        <time>2019-06-15T13:48:01Z</time>
      </trkpt>
      <trkpt lat="38.879810" lon="-0.266742">
        <ele>165.962</ele>
        <time>2019-06-15T13:48:02Z</time>
      </trkpt>
      <trkpt lat="38.879741" lon="-0.266796">
        <ele>163.508</ele>
        <time>2019-06-15T13:48:03Z</time>
      </trkpt>
      <trkpt lat="38.879722" lon="-0.266859">
        <ele>162.208</ele>
        <time>2019-06-15T13:48:04Z</time>
      </trkpt>
      <trkpt lat="38.879641" lon="-0.266826">
        <ele>161.765</ele>
        <time>2019-06-15T13:48:05Z</time>
      </trkpt>
      <trkpt lat="38.879599" lon="-0.266871">
        <ele>160.959</ele>
        <time>2019-06-15T13:48:06Z</time>
      </trkpt>
      <trkpt lat="38.879550" lon="-0.266854">
        <ele>160.598</ele>
        <time>2019-06-15T13:48:09Z</time>
      </trkpt>
      <trkpt lat="38.879505" lon="-0.266878">
        <ele>160.131</ele>
        <time>2019-06-15T13:48:13Z</time>
      </trkpt>
      <trkpt lat="38.879439" lon="-0.266932">
        <ele>160.043</ele>
        <time>2019-06-15T13:48:15Z</time>
      </trkpt>
      <trkpt lat="38.879267" lon="-0.267102">
        <ele>163.750</ele>
        <time>2019-06-15T13:48:16Z</time>
      </trkpt>
      <trkpt lat="38.879206" lon="-0.267091">
        <ele>164.279</ele>
        <time>2019-06-15T13:48:19Z</time>
      </trkpt>
      <trkpt lat="38.879059" lon="-0.267080">
        <ele>165.044</ele>
        <time>2019-06-15T13:48:22Z</time>
      </trkpt>
      <trkpt lat="38.879015" lon="-0.267049">
        <ele>164.971</ele>
        <time>2019-06-15T13:48:23Z</time>
      </trkpt>
      <trkpt lat="38.879045" lon="-0.267099">
        <ele>165.441</ele>
        <time>2019-06-15T13:48:24Z</time>
      </trkpt>
      <trkpt lat="38.879006" lon="-0.267140">
        <ele>166.015</ele>
        <time>2019-06-15T13:48:27Z</time>
      </trkpt>
      <trkpt lat="38.878948" lon="-0.267169">
        <ele>166.508</ele>
        <time>2019-06-15T13:48:32Z</time>
      </trkpt>
      <trkpt lat="38.878872" lon="-0.267190">
        <ele>166.840</ele>
        <time>2019-06-15T13:48:35Z</time>
      </trkpt>
      <trkpt lat="38.878808" lon="-0.267202">
        <ele>167.174</ele>
        <time>2019-06-15T13:48:37Z</time>
      </trkpt>
      <trkpt lat="38.878716" lon="-0.267230">
        <ele>167.773</ele>
        <time>2019-06-15T13:49:00Z</time>
      </trkpt>
      <trkpt lat="38.878677" lon="-0.267291">
        <ele>168.476</ele>
        <time>2019-06-15T13:49:06Z</time>
      </trkpt>
      <trkpt lat="38.878678" lon="-0.267383">
        <ele>169.448</ele>
        <time>2019-06-15T13:49:35Z</time>
      </trkpt>
      <trkpt lat="38.878624" lon="-0.267383">
        <ele>169.745</ele>
        <time>2019-06-15T13:52:45Z</time>
      </trkpt>
      <trkpt lat="38.878568" lon="-0.267419">
        <ele>170.524</ele>
        <time>2019-06-15T13:52:49Z</time>
      </trkpt>
      <trkpt lat="38.878534" lon="-0.267475">
        <ele>171.389</ele>
        <time>2019-06-15T13:52:52Z</time>
      </trkpt>
      <trkpt lat="38.878501" lon="-0.267527">
        <ele>171.981</ele>
        <time>2019-06-15T13:52:55Z</time>
      </trkpt>
      <trkpt lat="38.878457" lon="-0.267576">
        <ele>172.761</ele>
        <time>2019-06-15T13:52:58Z</time>
      </trkpt>
      <trkpt lat="38.878424" lon="-0.267629">
        <ele>173.617</ele>
        <time>2019-06-15T13:53:01Z</time>
      </trkpt>
      <trkpt lat="38.878401" lon="-0.267696">
        <ele>174.608</ele>
        <time>2019-06-15T13:53:04Z</time>
      </trkpt>
      <trkpt lat="38.878356" lon="-0.267761">
        <ele>176.331</ele>
        <time>2019-06-15T13:53:07Z</time>
      </trkpt>
      <trkpt lat="38.878317" lon="-0.267803">
        <ele>177.225</ele>
        <time>2019-06-15T13:53:09Z</time>
      </trkpt>
      <trkpt lat="38.878272" lon="-0.267843">
        <ele>177.624</ele>
        <time>2019-06-15T13:53:11Z</time>
      </trkpt>
      <trkpt lat="38.878227" lon="-0.267907">
        <ele>178.367</ele>
        <time>2019-06-15T13:53:14Z</time>
      </trkpt>
      <trkpt lat="38.878198" lon="-0.267952">
        <ele>178.979</ele>
        <time>2019-06-15T13:53:16Z</time>
      </trkpt>
      <trkpt lat="38.878160" lon="-0.267992">
        <ele>179.596</ele>
        <time>2019-06-15T13:53:18Z</time>
      </trkpt>
      <trkpt lat="38.878134" lon="-0.268049">
        <ele>180.435</ele>
        <time>2019-06-15T13:53:21Z</time>
      </trkpt>
      <trkpt lat="38.878100" lon="-0.268104">
        <ele>181.160</ele>
        <time>2019-06-15T13:53:24Z</time>
      </trkpt>
      <trkpt lat="38.878072" lon="-0.268177">
        <ele>182.148</ele>
        <time>2019-06-15T13:53:27Z</time>
      </trkpt>
      <trkpt lat="38.878058" lon="-0.268236">
        <ele>182.961</ele>
        <time>2019-06-15T13:53:29Z</time>
      </trkpt>
      <trkpt lat="38.878015" lon="-0.268314">
        <ele>184.217</ele>
        <time>2019-06-15T13:53:32Z</time>
      </trkpt>
      <trkpt lat="38.877988" lon="-0.268361">
        <ele>184.908</ele>
        <time>2019-06-15T13:53:34Z</time>
      </trkpt>
      <trkpt lat="38.877959" lon="-0.268428">
        <ele>185.787</ele>
        <time>2019-06-15T13:53:36Z</time>
      </trkpt>
      <trkpt lat="38.877960" lon="-0.268491">
        <ele>186.291</ele>
        <time>2019-06-15T13:53:38Z</time>
      </trkpt>
      <trkpt lat="38.878111" lon="-0.268656">
        <ele>184.990</ele>
        <time>2019-06-15T13:54:49Z</time>
      </trkpt>
      <trkpt lat="38.878043" lon="-0.268706">
        <ele>185.873</ele>
        <time>2019-06-15T13:55:10Z</time>
      </trkpt>
      <trkpt lat="38.878010" lon="-0.268754">
        <ele>186.135</ele>
        <time>2019-06-15T13:56:09Z</time>
      </trkpt>
      <trkpt lat="38.878018" lon="-0.268885">
        <ele>185.722</ele>
        <time>2019-06-15T13:56:40Z</time>
      </trkpt>
      <trkpt lat="38.877982" lon="-0.268948">
        <ele>185.671</ele>
        <time>2019-06-15T13:57:14Z</time>
      </trkpt>
      <trkpt lat="38.877931" lon="-0.268927">
        <ele>186.826</ele>
        <time>2019-06-15T13:58:01Z</time>
      </trkpt>
      <trkpt lat="38.877888" lon="-0.268987">
        <ele>186.778</ele>
        <time>2019-06-15T13:58:05Z</time>
      </trkpt>
      <trkpt lat="38.877866" lon="-0.269054">
        <ele>186.233</ele>
        <time>2019-06-15T13:58:07Z</time>
      </trkpt>
      <trkpt lat="38.877839" lon="-0.269127">
        <ele>185.726</ele>
        <time>2019-06-15T13:58:09Z</time>
      </trkpt>
      <trkpt lat="38.877806" lon="-0.269194">
        <ele>185.308</ele>
        <time>2019-06-15T13:58:11Z</time>
      </trkpt>
      <trkpt lat="38.877759" lon="-0.269296">
        <ele>184.710</ele>
        <time>2019-06-15T13:58:13Z</time>
      </trkpt>
      <trkpt lat="38.877726" lon="-0.269354">
        <ele>184.224</ele>
        <time>2019-06-15T13:58:14Z</time>
      </trkpt>
      <trkpt lat="38.877615" lon="-0.269573">
        <ele>181.573</ele>
        <time>2019-06-15T13:58:15Z</time>
      </trkpt>
      <trkpt lat="38.877609" lon="-0.269664">
        <ele>180.546</ele>
        <time>2019-06-15T13:58:16Z</time>
      </trkpt>
      <trkpt lat="38.877545" lon="-0.269673">
        <ele>180.068</ele>
        <time>2019-06-15T13:58:18Z</time>
      </trkpt>
      <trkpt lat="38.877516" lon="-0.269732">
        <ele>179.125</ele>
        <time>2019-06-15T13:58:23Z</time>
      </trkpt>
      <trkpt lat="38.877465" lon="-0.269775">
        <ele>179.294</ele>
        <time>2019-06-15T13:58:27Z</time>
      </trkpt>
      <trkpt lat="38.877373" lon="-0.269809">
        <ele>180.339</ele>
        <time>2019-06-15T13:58:29Z</time>
      </trkpt>
      <trkpt lat="38.877329" lon="-0.269825">
        <ele>180.663</ele>
        <time>2019-06-15T13:58:30Z</time>
      </trkpt>
      <trkpt lat="38.877260" lon="-0.269864">
        <ele>180.544</ele>
        <time>2019-06-15T13:58:32Z</time>
      </trkpt>
      <trkpt lat="38.877208" lon="-0.269911">
        <ele>179.618</ele>
        <time>2019-06-15T13:58:34Z</time>
      </trkpt>
      <trkpt lat="38.877156" lon="-0.269944">
        <ele>178.608</ele>
        <time>2019-06-15T13:58:36Z</time>
      </trkpt>
      <trkpt lat="38.877107" lon="-0.269977">
        <ele>177.189</ele>
        <time>2019-06-15T13:58:38Z</time>
      </trkpt>
      <trkpt lat="38.877051" lon="-0.270023">
        <ele>175.673</ele>
        <time>2019-06-15T13:58:40Z</time>
      </trkpt>
      <trkpt lat="38.876978" lon="-0.270072">
        <ele>174.792</ele>
        <time>2019-06-15T13:58:42Z</time>
      </trkpt>
      <trkpt lat="38.876921" lon="-0.270111">
        <ele>173.415</ele>
        <time>2019-06-15T13:58:44Z</time>
      </trkpt>
      <trkpt lat="38.876882" lon="-0.270159">
        <ele>172.477</ele>
        <time>2019-06-15T13:58:46Z</time>
      </trkpt>
      <trkpt lat="38.876833" lon="-0.270193">
        <ele>171.954</ele>
        <time>2019-06-15T13:58:48Z</time>
      </trkpt>
      <trkpt lat="38.876788" lon="-0.270225">
        <ele>172.113</ele>
        <time>2019-06-15T13:58:50Z</time>
      </trkpt>
      <trkpt lat="38.876734" lon="-0.270261">
        <ele>173.148</ele>
        <time>2019-06-15T13:58:53Z</time>
      </trkpt>
      <trkpt lat="38.876693" lon="-0.270290">
        <ele>174.627</ele>
        <time>2019-06-15T13:58:55Z</time>
      </trkpt>
      <trkpt lat="38.876650" lon="-0.270323">
        <ele>176.968</ele>
        <time>2019-06-15T13:58:56Z</time>
      </trkpt>
      <trkpt lat="38.876610" lon="-0.270353">
        <ele>179.114</ele>
        <time>2019-06-15T13:58:57Z</time>
      </trkpt>
      <trkpt lat="38.876545" lon="-0.270403">
        <ele>182.608</ele>
        <time>2019-06-15T13:58:59Z</time>
      </trkpt>
      <trkpt lat="38.876490" lon="-0.270440">
        <ele>185.075</ele>
        <time>2019-06-15T13:59:01Z</time>
      </trkpt>
      <trkpt lat="38.876449" lon="-0.270470">
        <ele>186.869</ele>
        <time>2019-06-15T13:59:03Z</time>
      </trkpt>
      <trkpt lat="38.876404" lon="-0.270481">
        <ele>187.798</ele>
        <time>2019-06-15T13:59:14Z</time>
      </trkpt>
      <trkpt lat="38.876293" lon="-0.270436">
        <ele>198.771</ele>
        <time>2019-06-15T13:59:16Z</time>
      </trkpt>
      <trkpt lat="38.876163" lon="-0.270396">
        <ele>224.293</ele>
        <time>2019-06-15T13:59:17Z</time>
      </trkpt>
      <trkpt lat="38.876072" lon="-0.270385">
        <ele>232.270</ele>
        <time>2019-06-15T13:59:18Z</time>
      </trkpt>
      <trkpt lat="38.876009" lon="-0.270387">
        <ele>225.379</ele>
        <time>2019-06-15T13:59:19Z</time>
      </trkpt>
      <trkpt lat="38.875953" lon="-0.270398">
        <ele>217.674</ele>
        <time>2019-06-15T13:59:20Z</time>
      </trkpt>
      <trkpt lat="38.875906" lon="-0.270417">
        <ele>210.283</ele>
        <time>2019-06-15T13:59:21Z</time>
      </trkpt>
      <trkpt lat="38.875864" lon="-0.270440">
        <ele>203.625</ele>
        <time>2019-06-15T13:59:22Z</time>
      </trkpt>
      <trkpt lat="38.875784" lon="-0.270487">
        <ele>196.217</ele>
        <time>2019-06-15T13:59:24Z</time>
      </trkpt>
      <trkpt lat="38.875721" lon="-0.270576">
        <ele>188.608</ele>
        <time>2019-06-15T13:59:25Z</time>
      </trkpt>
      <trkpt lat="38.875669" lon="-0.270645">
        <ele>187.141</ele>
        <time>2019-06-15T13:59:26Z</time>
      </trkpt>
      <trkpt lat="38.875627" lon="-0.270684">
        <ele>186.655</ele>
        <time>2019-06-15T13:59:27Z</time>
      </trkpt>
      <trkpt lat="38.875561" lon="-0.270746">
        <ele>186.164</ele>
        <time>2019-06-15T13:59:29Z</time>
      </trkpt>
      <trkpt lat="38.875504" lon="-0.270788">
        <ele>186.247</ele>
        <time>2019-06-15T13:59:31Z</time>
      </trkpt>
      <trkpt lat="38.875453" lon="-0.270821">
        <ele>186.219</ele>
        <time>2019-06-15T13:59:34Z</time>
      </trkpt>
      <trkpt lat="38.875408" lon="-0.270862">
        <ele>185.956</ele>
        <time>2019-06-15T13:59:38Z</time>
      </trkpt>
      <trkpt lat="38.875373" lon="-0.270914">
        <ele>185.145</ele>
        <time>2019-06-15T13:59:41Z</time>
      </trkpt>
      <trkpt lat="38.875330" lon="-0.270974">
        <ele>184.130</ele>
        <time>2019-06-15T13:59:42Z</time>
      </trkpt>
      <trkpt lat="38.875276" lon="-0.271045">
        <ele>182.987</ele>
        <time>2019-06-15T13:59:43Z</time>
      </trkpt>
      <trkpt lat="38.875238" lon="-0.271096">
        <ele>182.242</ele>
        <time>2019-06-15T13:59:44Z</time>
      </trkpt>
      <trkpt lat="38.875200" lon="-0.271146">
        <ele>181.826</ele>
        <time>2019-06-15T13:59:45Z</time>
      </trkpt>
      <trkpt lat="38.875146" lon="-0.271234">
        <ele>181.208</ele>
        <time>2019-06-15T13:59:47Z</time>
      </trkpt>
      <trkpt lat="38.875102" lon="-0.271300">
        <ele>180.841</ele>
        <time>2019-06-15T13:59:49Z</time>
      </trkpt>
      <trkpt lat="38.875071" lon="-0.271348">
        <ele>180.565</ele>
        <time>2019-06-15T13:59:51Z</time>
      </trkpt>
      <trkpt lat="38.875030" lon="-0.271418">
        <ele>180.544</ele>
        <time>2019-06-15T13:59:53Z</time>
      </trkpt>
      <trkpt lat="38.874949" lon="-0.271570">
        <ele>183.087</ele>
        <time>2019-06-15T13:59:54Z</time>
      </trkpt>
      <trkpt lat="38.874908" lon="-0.271508">
        <ele>184.629</ele>
        <time>2019-06-15T13:59:55Z</time>
      </trkpt>
      <trkpt lat="38.874929" lon="-0.271597">
        <ele>183.816</ele>
        <time>2019-06-15T13:59:58Z</time>
      </trkpt>
      <trkpt lat="38.874917" lon="-0.271742">
        <ele>185.065</ele>
        <time>2019-06-15T13:59:59Z</time>
      </trkpt>
      <trkpt lat="38.874889" lon="-0.271789">
        <ele>186.540</ele>
        <time>2019-06-15T14:00:02Z</time>
      </trkpt>
      <trkpt lat="38.874872" lon="-0.271854">
        <ele>187.895</ele>
        <time>2019-06-15T14:00:04Z</time>
      </trkpt>
      <trkpt lat="38.874878" lon="-0.272127">
        <ele>189.949</ele>
        <time>2019-06-15T14:00:41Z</time>
      </trkpt>
      <trkpt lat="38.874847" lon="-0.272310">
        <ele>191.823</ele>
        <time>2019-06-15T14:00:42Z</time>
      </trkpt>
      <trkpt lat="38.874852" lon="-0.272402">
        <ele>192.108</ele>
        <time>2019-06-15T14:00:44Z</time>
      </trkpt>
      <trkpt lat="38.874862" lon="-0.272500">
        <ele>192.522</ele>
        <time>2019-06-15T14:00:46Z</time>
      </trkpt>
      <trkpt lat="38.874885" lon="-0.272714">
        <ele>191.036</ele>
        <time>2019-06-15T14:00:48Z</time>
      </trkpt>
      <trkpt lat="38.874877" lon="-0.272778">
        <ele>190.865</ele>
        <time>2019-06-15T14:00:49Z</time>
      </trkpt>
      <trkpt lat="38.874875" lon="-0.272860">
        <ele>190.838</ele>
        <time>2019-06-15T14:00:50Z</time>
      </trkpt>
      <trkpt lat="38.874859" lon="-0.272920">
        <ele>191.090</ele>
        <time>2019-06-15T14:00:51Z</time>
      </trkpt>
      <trkpt lat="38.874846" lon="-0.273040">
        <ele>191.167</ele>
        <time>2019-06-15T14:00:53Z</time>
      </trkpt>
      <trkpt lat="38.874802" lon="-0.273066">
        <ele>191.536</ele>
        <time>2019-06-15T14:00:55Z</time>
      </trkpt>
      <trkpt lat="38.874784" lon="-0.273143">
        <ele>192.251</ele>
        <time>2019-06-15T14:00:59Z</time>
      </trkpt>
      <trkpt lat="38.874766" lon="-0.273215">
        <ele>193.038</ele>
        <time>2019-06-15T14:01:02Z</time>
      </trkpt>
      <trkpt lat="38.874745" lon="-0.273294">
        <ele>194.170</ele>
        <time>2019-06-15T14:01:05Z</time>
      </trkpt>
      <trkpt lat="38.874736" lon="-0.273411">
        <ele>195.017</ele>
        <time>2019-06-15T14:01:07Z</time>
      </trkpt>
      <trkpt lat="38.874733" lon="-0.273490">
        <ele>195.308</ele>
        <time>2019-06-15T14:01:08Z</time>
      </trkpt>
      <trkpt lat="38.874736" lon="-0.273567">
        <ele>195.526</ele>
        <time>2019-06-15T14:01:09Z</time>
      </trkpt>
      <trkpt lat="38.874738" lon="-0.273638">
        <ele>195.770</ele>
        <time>2019-06-15T14:01:10Z</time>
      </trkpt>
      <trkpt lat="38.874742" lon="-0.273697">
        <ele>195.979</ele>
        <time>2019-06-15T14:01:11Z</time>
      </trkpt>
      <trkpt lat="38.874739" lon="-0.273756">
        <ele>196.492</ele>
        <time>2019-06-15T14:01:12Z</time>
      </trkpt>
      <trkpt lat="38.874725" lon="-0.273848">
        <ele>197.634</ele>
        <time>2019-06-15T14:01:14Z</time>
      </trkpt>
      <trkpt lat="38.874716" lon="-0.273928">
        <ele>198.111</ele>
        <time>2019-06-15T14:01:16Z</time>
      </trkpt>
      <trkpt lat="38.874699" lon="-0.274105">
        <ele>198.360</ele>
        <time>2019-06-15T14:01:18Z</time>
      </trkpt>
      <trkpt lat="38.874695" lon="-0.274222">
        <ele>198.025</ele>
        <time>2019-06-15T14:01:20Z</time>
      </trkpt>
      <trkpt lat="38.874690" lon="-0.274284">
        <ele>198.097</ele>
        <time>2019-06-15T14:01:21Z</time>
      </trkpt>
      <trkpt lat="38.874684" lon="-0.274347">
        <ele>198.123</ele>
        <time>2019-06-15T14:01:22Z</time>
      </trkpt>
      <trkpt lat="38.874673" lon="-0.274408">
        <ele>198.725</ele>
        <time>2019-06-15T14:01:23Z</time>
      </trkpt>
      <trkpt lat="38.874658" lon="-0.274472">
        <ele>199.308</ele>
        <time>2019-06-15T14:01:24Z</time>
      </trkpt>
      <trkpt lat="38.874645" lon="-0.274537">
        <ele>199.472</ele>
        <time>2019-06-15T14:01:25Z</time>
      </trkpt>
      <trkpt lat="38.874626" lon="-0.274591">
        <ele>200.266</ele>
        <time>2019-06-15T14:01:26Z</time>
      </trkpt>
      <trkpt lat="38.874607" lon="-0.274646">
        <ele>201.035</ele>
        <time>2019-06-15T14:01:27Z</time>
      </trkpt>
      <trkpt lat="38.874574" lon="-0.274687">
        <ele>203.428</ele>
        <time>2019-06-15T14:01:30Z</time>
      </trkpt>
      <trkpt lat="38.874451" lon="-0.274924">
        <ele>205.920</ele>
        <time>2019-06-15T14:01:32Z</time>
      </trkpt>
      <trkpt lat="38.874419" lon="-0.275009">
        <ele>204.077</ele>
        <time>2019-06-15T14:01:33Z</time>
      </trkpt>
      <trkpt lat="38.874420" lon="-0.275072">
        <ele>201.846</ele>
        <time>2019-06-15T14:01:34Z</time>
      </trkpt>
      <trkpt lat="38.874428" lon="-0.275160">
        <ele>198.581</ele>
        <time>2019-06-15T14:01:36Z</time>
      </trkpt>
      <trkpt lat="38.874453" lon="-0.275212">
        <ele>196.093</ele>
        <time>2019-06-15T14:01:37Z</time>
      </trkpt>
      <trkpt lat="38.874404" lon="-0.275262">
        <ele>195.965</ele>
        <time>2019-06-15T14:01:40Z</time>
      </trkpt>
      <trkpt lat="38.874372" lon="-0.275310">
        <ele>195.521</ele>
        <time>2019-06-15T14:01:42Z</time>
      </trkpt>
      <trkpt lat="38.874344" lon="-0.275367">
        <ele>194.908</ele>
        <time>2019-06-15T14:01:45Z</time>
      </trkpt>
      <trkpt lat="38.874311" lon="-0.275439">
        <ele>194.062</ele>
        <time>2019-06-15T14:01:47Z</time>
      </trkpt>
      <trkpt lat="38.874279" lon="-0.275516">
        <ele>192.836</ele>
        <time>2019-06-15T14:01:49Z</time>
      </trkpt>
      <trkpt lat="38.874239" lon="-0.275595">
        <ele>192.575</ele>
        <time>2019-06-15T14:01:51Z</time>
      </trkpt>
      <trkpt lat="38.874216" lon="-0.275678">
        <ele>192.148</ele>
        <time>2019-06-15T14:01:53Z</time>
      </trkpt>
      <trkpt lat="38.874192" lon="-0.275772">
        <ele>191.440</ele>
        <time>2019-06-15T14:01:55Z</time>
      </trkpt>
      <trkpt lat="38.874151" lon="-0.275945">
        <ele>195.817</ele>
        <time>2019-06-15T14:01:57Z</time>
      </trkpt>
      <trkpt lat="38.874092" lon="-0.276043">
        <ele>201.486</ele>
        <time>2019-06-15T14:01:59Z</time>
      </trkpt>
      <trkpt lat="38.874044" lon="-0.276141">
        <ele>205.541</ele>
        <time>2019-06-15T14:02:02Z</time>
      </trkpt>
      <trkpt lat="38.874048" lon="-0.276270">
        <ele>209.381</ele>
        <time>2019-06-15T14:02:04Z</time>
      </trkpt>
      <trkpt lat="38.874033" lon="-0.276350">
        <ele>212.261</ele>
        <time>2019-06-15T14:02:06Z</time>
      </trkpt>
      <trkpt lat="38.874011" lon="-0.276413">
        <ele>213.617</ele>
        <time>2019-06-15T14:02:07Z</time>
      </trkpt>
      <trkpt lat="38.873980" lon="-0.276493">
        <ele>213.308</ele>
        <time>2019-06-15T14:02:10Z</time>
      </trkpt>
      <trkpt lat="38.873945" lon="-0.276580">
        <ele>213.251</ele>
        <time>2019-06-15T14:02:11Z</time>
      </trkpt>
      <trkpt lat="38.873918" lon="-0.276674">
        <ele>212.765</ele>
        <time>2019-06-15T14:02:13Z</time>
      </trkpt>
      <trkpt lat="38.873896" lon="-0.276728">
        <ele>210.324</ele>
        <time>2019-06-15T14:02:14Z</time>
      </trkpt>
      <trkpt lat="38.873862" lon="-0.276823">
        <ele>206.797</ele>
        <time>2019-06-15T14:02:16Z</time>
      </trkpt>
      <trkpt lat="38.873823" lon="-0.276910">
        <ele>204.659</ele>
        <time>2019-06-15T14:02:18Z</time>
      </trkpt>
      <trkpt lat="38.873796" lon="-0.276969">
        <ele>203.786</ele>
        <time>2019-06-15T14:02:20Z</time>
      </trkpt>
      <trkpt lat="38.873754" lon="-0.277056">
        <ele>203.325</ele>
        <time>2019-06-15T14:02:24Z</time>
      </trkpt>
      <trkpt lat="38.873694" lon="-0.277203">
        <ele>201.460</ele>
        <time>2019-06-15T14:02:25Z</time>
      </trkpt>
      <trkpt lat="38.873644" lon="-0.277236">
        <ele>203.763</ele>
        <time>2019-06-15T14:02:27Z</time>
      </trkpt>
      <trkpt lat="38.873610" lon="-0.277277">
        <ele>205.344</ele>
        <time>2019-06-15T14:02:29Z</time>
      </trkpt>
      <trkpt lat="38.873518" lon="-0.277376">
        <ele>211.718</ele>
        <time>2019-06-15T14:02:31Z</time>
      </trkpt>
      <trkpt lat="38.873489" lon="-0.277437">
        <ele>213.408</ele>
        <time>2019-06-15T14:02:36Z</time>
      </trkpt>
      <trkpt lat="38.873489" lon="-0.277521">
        <ele>212.249</ele>
        <time>2019-06-15T14:02:38Z</time>
      </trkpt>
      <trkpt lat="38.873490" lon="-0.277588">
        <ele>211.123</ele>
        <time>2019-06-15T14:02:39Z</time>
      </trkpt>
      <trkpt lat="38.873491" lon="-0.277689">
        <ele>209.522</ele>
        <time>2019-06-15T14:02:41Z</time>
      </trkpt>
      <trkpt lat="38.873491" lon="-0.277759">
        <ele>208.435</ele>
        <time>2019-06-15T14:02:43Z</time>
      </trkpt>
      <trkpt lat="38.873491" lon="-0.277908">
        <ele>205.787</ele>
        <time>2019-06-15T14:02:49Z</time>
      </trkpt>
      <trkpt lat="38.873477" lon="-0.278009">
        <ele>205.354</ele>
        <time>2019-06-15T14:02:51Z</time>
      </trkpt>
      <trkpt lat="38.873504" lon="-0.278170">
        <ele>201.813</ele>
        <time>2019-06-15T14:02:52Z</time>
      </trkpt>
      <trkpt lat="38.873541" lon="-0.278321">
        <ele>197.448</ele>
        <time>2019-06-15T14:02:53Z</time>
      </trkpt>
      <trkpt lat="38.873531" lon="-0.278445">
        <ele>198.795</ele>
        <time>2019-06-15T14:02:55Z</time>
      </trkpt>
      <trkpt lat="38.873580" lon="-0.278519">
        <ele>194.049</ele>
        <time>2019-06-15T14:02:56Z</time>
      </trkpt>
      <trkpt lat="38.873521" lon="-0.278597">
        <ele>199.823</ele>
        <time>2019-06-15T14:02:58Z</time>
      </trkpt>
      <trkpt lat="38.873498" lon="-0.278674">
        <ele>200.908</ele>
        <time>2019-06-15T14:03:01Z</time>
      </trkpt>
      <trkpt lat="38.873569" lon="-0.278928">
        <ele>197.922</ele>
        <time>2019-06-15T14:03:02Z</time>
      </trkpt>
      <trkpt lat="38.873615" lon="-0.279003">
        <ele>199.286</ele>
        <time>2019-06-15T14:03:04Z</time>
      </trkpt>
      <trkpt lat="38.873570" lon="-0.279052">
        <ele>201.645</ele>
        <time>2019-06-15T14:03:05Z</time>
      </trkpt>
      <trkpt lat="38.873601" lon="-0.279128">
        <ele>203.138</ele>
        <time>2019-06-15T14:03:08Z</time>
      </trkpt>
      <trkpt lat="38.873635" lon="-0.279173">
        <ele>203.040</ele>
        <time>2019-06-15T14:03:10Z</time>
      </trkpt>
      <trkpt lat="38.873683" lon="-0.279222">
        <ele>201.457</ele>
        <time>2019-06-15T14:03:13Z</time>
      </trkpt>
      <trkpt lat="38.873738" lon="-0.279286">
        <ele>199.436</ele>
        <time>2019-06-15T14:03:16Z</time>
      </trkpt>
      <trkpt lat="38.873853" lon="-0.279618">
        <ele>194.791</ele>
        <time>2019-06-15T14:03:17Z</time>
      </trkpt>
      <trkpt lat="38.873876" lon="-0.279682">
        <ele>193.633</ele>
        <time>2019-06-15T14:03:18Z</time>
      </trkpt>
      <trkpt lat="38.873909" lon="-0.279743">
        <ele>192.523</ele>
        <time>2019-06-15T14:03:20Z</time>
      </trkpt>
      <trkpt lat="38.873948" lon="-0.279799">
        <ele>191.815</ele>
        <time>2019-06-15T14:03:21Z</time>
      </trkpt>
      <trkpt lat="38.873989" lon="-0.279850">
        <ele>191.008</ele>
        <time>2019-06-15T14:03:23Z</time>
      </trkpt>
      <trkpt lat="38.874005" lon="-0.279914">
        <ele>191.296</ele>
        <time>2019-06-15T14:03:27Z</time>
      </trkpt>
      <trkpt lat="38.874019" lon="-0.279969">
        <ele>191.450</ele>
        <time>2019-06-15T14:03:29Z</time>
      </trkpt>
      <trkpt lat="38.874044" lon="-0.280063">
        <ele>192.219</ele>
        <time>2019-06-15T14:03:31Z</time>
      </trkpt>
      <trkpt lat="38.874077" lon="-0.280153">
        <ele>193.032</ele>
        <time>2019-06-15T14:03:33Z</time>
      </trkpt>
      <trkpt lat="38.874107" lon="-0.280222">
        <ele>193.574</ele>
        <time>2019-06-15T14:03:35Z</time>
      </trkpt>
      <trkpt lat="38.874140" lon="-0.280394">
        <ele>194.541</ele>
        <time>2019-06-15T14:03:36Z</time>
      </trkpt>
      <trkpt lat="38.874115" lon="-0.280451">
        <ele>195.750</ele>
        <time>2019-06-15T14:03:39Z</time>
      </trkpt>
      <trkpt lat="38.874115" lon="-0.280515">
        <ele>196.275</ele>
        <time>2019-06-15T14:03:42Z</time>
      </trkpt>
      <trkpt lat="38.874111" lon="-0.280590">
        <ele>196.768</ele>
        <time>2019-06-15T14:03:44Z</time>
      </trkpt>
      <trkpt lat="38.874110" lon="-0.280662">
        <ele>196.842</ele>
        <time>2019-06-15T14:03:46Z</time>
      </trkpt>
      <trkpt lat="38.874096" lon="-0.280720">
        <ele>197.226</ele>
        <time>2019-06-15T14:03:48Z</time>
      </trkpt>
      <trkpt lat="38.874077" lon="-0.280790">
        <ele>197.608</ele>
        <time>2019-06-15T14:03:50Z</time>
      </trkpt>
      <trkpt lat="38.874056" lon="-0.280861">
        <ele>197.829</ele>
        <time>2019-06-15T14:03:52Z</time>
      </trkpt>
      <trkpt lat="38.874030" lon="-0.280930">
        <ele>197.883</ele>
        <time>2019-06-15T14:03:55Z</time>
      </trkpt>
      <trkpt lat="38.874017" lon="-0.281000">
        <ele>197.442</ele>
        <time>2019-06-15T14:03:58Z</time>
      </trkpt>
      <trkpt lat="38.873993" lon="-0.281068">
        <ele>197.215</ele>
        <time>2019-06-15T14:04:01Z</time>
      </trkpt>
      <trkpt lat="38.873958" lon="-0.281128">
        <ele>197.097</ele>
        <time>2019-06-15T14:04:03Z</time>
      </trkpt>
      <trkpt lat="38.873922" lon="-0.281209">
        <ele>196.034</ele>
        <time>2019-06-15T14:04:04Z</time>
      </trkpt>
      <trkpt lat="38.873886" lon="-0.281271">
        <ele>195.293</ele>
        <time>2019-06-15T14:04:05Z</time>
      </trkpt>
      <trkpt lat="38.873846" lon="-0.281333">
        <ele>195.848</ele>
        <time>2019-06-15T14:04:06Z</time>
      </trkpt>
      <trkpt lat="38.873815" lon="-0.281382">
        <ele>196.352</ele>
        <time>2019-06-15T14:04:07Z</time>
      </trkpt>
      <trkpt lat="38.873763" lon="-0.281457">
        <ele>197.253</ele>
        <time>2019-06-15T14:04:09Z</time>
      </trkpt>
      <trkpt lat="38.873722" lon="-0.281507">
        <ele>197.608</ele>
        <time>2019-06-15T14:04:11Z</time>
      </trkpt>
      <trkpt lat="38.873692" lon="-0.281570">
        <ele>197.008</ele>
        <time>2019-06-15T14:04:13Z</time>
      </trkpt>
      <trkpt lat="38.873649" lon="-0.281612">
        <ele>196.958</ele>
        <time>2019-06-15T14:04:15Z</time>
      </trkpt>
      <trkpt lat="38.873522" lon="-0.281668">
        <ele>200.182</ele>
        <time>2019-06-15T14:04:16Z</time>
      </trkpt>
      <trkpt lat="38.873494" lon="-0.281721">
        <ele>199.321</ele>
        <time>2019-06-15T14:04:18Z</time>
      </trkpt>
      <trkpt lat="38.873460" lon="-0.281797">
        <ele>197.254</ele>
        <time>2019-06-15T14:04:19Z</time>
      </trkpt>
      <trkpt lat="38.873367" lon="-0.281789">
        <ele>200.576</ele>
        <time>2019-06-15T14:04:22Z</time>
      </trkpt>
      <trkpt lat="38.873316" lon="-0.281832">
        <ele>199.183</ele>
        <time>2019-06-15T14:04:23Z</time>
      </trkpt>
      <trkpt lat="38.873264" lon="-0.281820">
        <ele>200.532</ele>
        <time>2019-06-15T14:04:24Z</time>
      </trkpt>
      <trkpt lat="38.873219" lon="-0.281840">
        <ele>199.897</ele>
        <time>2019-06-15T14:04:25Z</time>
      </trkpt>
      <trkpt lat="38.873167" lon="-0.281947">
        <ele>193.837</ele>
        <time>2019-06-15T14:04:26Z</time>
      </trkpt>
      <trkpt lat="38.873122" lon="-0.281965">
        <ele>194.249</ele>
        <time>2019-06-15T14:04:27Z</time>
      </trkpt>
      <trkpt lat="38.873073" lon="-0.282073">
        <ele>194.313</ele>
        <time>2019-06-15T14:04:28Z</time>
      </trkpt>
      <trkpt lat="38.873024" lon="-0.282091">
        <ele>195.208</ele>
        <time>2019-06-15T14:04:29Z</time>
      </trkpt>
      <trkpt lat="38.872964" lon="-0.282103">
        <ele>196.436</ele>
        <time>2019-06-15T14:04:30Z</time>
      </trkpt>
      <trkpt lat="38.872903" lon="-0.282118">
        <ele>197.340</ele>
        <time>2019-06-15T14:04:31Z</time>
      </trkpt>
      <trkpt lat="38.872767" lon="-0.282243">
        <ele>194.139</ele>
        <time>2019-06-15T14:04:34Z</time>
      </trkpt>
      <trkpt lat="38.872711" lon="-0.282247">
        <ele>194.952</ele>
        <time>2019-06-15T14:04:35Z</time>
      </trkpt>
      <trkpt lat="38.872643" lon="-0.282369">
        <ele>195.484</ele>
        <time>2019-06-15T14:04:36Z</time>
      </trkpt>
      <trkpt lat="38.872573" lon="-0.282513">
        <ele>195.751</ele>
        <time>2019-06-15T14:04:37Z</time>
      </trkpt>
      <trkpt lat="38.872523" lon="-0.282451">
        <ele>196.240</ele>
        <time>2019-06-15T14:04:39Z</time>
      </trkpt>
      <trkpt lat="38.872424" lon="-0.282434">
        <ele>198.165</ele>
        <time>2019-06-15T14:04:40Z</time>
      </trkpt>
      <trkpt lat="38.872381" lon="-0.282478">
        <ele>198.746</ele>
        <time>2019-06-15T14:04:44Z</time>
      </trkpt>
      <trkpt lat="38.872281" lon="-0.282476">
        <ele>200.988</ele>
        <time>2019-06-15T14:04:46Z</time>
      </trkpt>
      <trkpt lat="38.872202" lon="-0.282444">
        <ele>202.316</ele>
        <time>2019-06-15T14:04:48Z</time>
      </trkpt>
      <trkpt lat="38.872143" lon="-0.282444">
        <ele>202.108</ele>
        <time>2019-06-15T14:04:51Z</time>
      </trkpt>
      <trkpt lat="38.871940" lon="-0.282561">
        <ele>200.947</ele>
        <time>2019-06-15T14:04:53Z</time>
      </trkpt>
      <trkpt lat="38.871880" lon="-0.282568">
        <ele>199.191</ele>
        <time>2019-06-15T14:04:54Z</time>
      </trkpt>
      <trkpt lat="38.871666" lon="-0.282699">
        <ele>196.710</ele>
        <time>2019-06-15T14:05:08Z</time>
      </trkpt>
      <trkpt lat="38.871569" lon="-0.282869">
        <ele>198.763</ele>
        <time>2019-06-15T14:05:09Z</time>
      </trkpt>
      <trkpt lat="38.871404" lon="-0.282906">
        <ele>192.575</ele>
        <time>2019-06-15T14:05:10Z</time>
      </trkpt>
      <trkpt lat="38.871335" lon="-0.282903">
        <ele>190.842</ele>
        <time>2019-06-15T14:05:11Z</time>
      </trkpt>
      <trkpt lat="38.871238" lon="-0.282852">
        <ele>188.961</ele>
        <time>2019-06-15T14:05:12Z</time>
      </trkpt>
      <trkpt lat="38.871109" lon="-0.282730">
        <ele>187.916</ele>
        <time>2019-06-15T14:05:13Z</time>
      </trkpt>
      <trkpt lat="38.871026" lon="-0.282765">
        <ele>190.873</ele>
        <time>2019-06-15T14:05:14Z</time>
      </trkpt>
      <trkpt lat="38.871057" lon="-0.282810">
        <ele>189.585</ele>
        <time>2019-06-15T14:05:15Z</time>
      </trkpt>
      <trkpt lat="38.871027" lon="-0.282889">
        <ele>189.613</ele>
        <time>2019-06-15T14:05:18Z</time>
      </trkpt>
      <trkpt lat="38.870994" lon="-0.282955">
        <ele>189.708</ele>
        <time>2019-06-15T14:05:21Z</time>
      </trkpt>
      <trkpt lat="38.870946" lon="-0.282995">
        <ele>190.410</ele>
        <time>2019-06-15T14:05:24Z</time>
      </trkpt>
      <trkpt lat="38.870780" lon="-0.283126">
        <ele>192.994</ele>
        <time>2019-06-15T14:05:25Z</time>
      </trkpt>
      <trkpt lat="38.870764" lon="-0.283196">
        <ele>192.513</ele>
        <time>2019-06-15T14:05:26Z</time>
      </trkpt>
      <trkpt lat="38.870728" lon="-0.283286">
        <ele>192.576</ele>
        <time>2019-06-15T14:05:27Z</time>
      </trkpt>
      <trkpt lat="38.870681" lon="-0.283315">
        <ele>193.728</ele>
        <time>2019-06-15T14:05:29Z</time>
      </trkpt>
      <trkpt lat="38.870628" lon="-0.283343">
        <ele>195.525</ele>
        <time>2019-06-15T14:05:33Z</time>
      </trkpt>
      <trkpt lat="38.870581" lon="-0.283342">
        <ele>197.184</ele>
        <time>2019-06-15T14:05:38Z</time>
      </trkpt>
      <trkpt lat="38.870612" lon="-0.283295">
        <ele>196.549</ele>
        <time>2019-06-15T14:06:11Z</time>
      </trkpt>
      <trkpt lat="38.870611" lon="-0.283354">
        <ele>196.218</ele>
        <time>2019-06-15T14:06:39Z</time>
      </trkpt>
      <trkpt lat="38.870649" lon="-0.283403">
        <ele>195.798</ele>
        <time>2019-06-15T14:06:43Z</time>
      </trkpt>
      <trkpt lat="38.870685" lon="-0.283451">
        <ele>195.917</ele>
        <time>2019-06-15T14:06:47Z</time>
      </trkpt>
      <trkpt lat="38.870727" lon="-0.283429">
        <ele>194.708</ele>
        <time>2019-06-15T14:06:53Z</time>
      </trkpt>
      <trkpt lat="38.870761" lon="-0.283377">
        <ele>192.274</ele>
        <time>2019-06-15T14:07:00Z</time>
      </trkpt>
      <trkpt lat="38.870810" lon="-0.283399">
        <ele>191.978</ele>
        <time>2019-06-15T14:07:18Z</time>
      </trkpt>
      <trkpt lat="38.870765" lon="-0.283356">
        <ele>191.397</ele>
        <time>2019-06-15T14:07:28Z</time>
      </trkpt>
      <trkpt lat="38.870679" lon="-0.283369">
        <ele>194.360</ele>
        <time>2019-06-15T14:07:44Z</time>
      </trkpt>
      <trkpt lat="38.870616" lon="-0.283403">
        <ele>196.432</ele>
        <time>2019-06-15T14:07:49Z</time>
      </trkpt>
      <trkpt lat="38.870577" lon="-0.283433">
        <ele>197.399</ele>
        <time>2019-06-15T14:09:27Z</time>
      </trkpt>
      <trkpt lat="38.870647" lon="-0.283426">
        <ele>196.048</ele>
        <time>2019-06-15T14:09:53Z</time>
      </trkpt>
      <trkpt lat="38.870735" lon="-0.283298">
        <ele>192.053</ele>
        <time>2019-06-15T14:09:55Z</time>
      </trkpt>
      <trkpt lat="38.870765" lon="-0.283187">
        <ele>192.676</ele>
        <time>2019-06-15T14:09:57Z</time>
      </trkpt>
      <trkpt lat="38.870709" lon="-0.283203">
        <ele>194.490</ele>
        <time>2019-06-15T14:10:02Z</time>
      </trkpt>
      <trkpt lat="38.870670" lon="-0.283308">
        <ele>194.219</ele>
        <time>2019-06-15T14:11:11Z</time>
      </trkpt>
      <trkpt lat="38.870723" lon="-0.283298">
        <ele>192.508</ele>
        <time>2019-06-15T14:21:20Z</time>
      </trkpt>
      <trkpt lat="38.870678" lon="-0.283290">
        <ele>194.210</ele>
        <time>2019-06-15T14:22:42Z</time>
      </trkpt>
      <trkpt lat="38.870627" lon="-0.283263">
        <ele>196.414</ele>
        <time>2019-06-15T14:22:45Z</time>
      </trkpt>
      <trkpt lat="38.870577" lon="-0.283207">
        <ele>199.043</ele>
        <time>2019-06-15T14:42:00Z</time>
      </trkpt>
      <trkpt lat="38.870594" lon="-0.283268">
        <ele>197.626</ele>
        <time>2019-06-15T15:05:55Z</time>
      </trkpt>
      <trkpt lat="38.870617" lon="-0.283329">
        <ele>195.838</ele>
        <time>2019-06-15T15:05:58Z</time>
      </trkpt>
      <trkpt lat="38.870624" lon="-0.283397">
        <ele>196.225</ele>
        <time>2019-06-15T15:06:01Z</time>
      </trkpt>
      <trkpt lat="38.870607" lon="-0.283459">
        <ele>197.084</ele>
        <time>2019-06-15T15:06:04Z</time>
      </trkpt>
      <trkpt lat="38.870575" lon="-0.283511">
        <ele>197.329</ele>
        <time>2019-06-15T15:06:08Z</time>
      </trkpt>
      <trkpt lat="38.870534" lon="-0.283551">
        <ele>197.288</ele>
        <time>2019-06-15T15:06:12Z</time>
      </trkpt>
      <trkpt lat="38.870463" lon="-0.283584">
        <ele>197.124</ele>
        <time>2019-06-15T15:06:32Z</time>
      </trkpt>
      <trkpt lat="38.870424" lon="-0.283614">
        <ele>197.126</ele>
        <time>2019-06-15T15:06:36Z</time>
      </trkpt>
      <trkpt lat="38.870396" lon="-0.283660">
        <ele>198.408</ele>
        <time>2019-06-15T15:06:40Z</time>
      </trkpt>
      <trkpt lat="38.870343" lon="-0.283685">
        <ele>198.861</ele>
        <time>2019-06-15T15:06:45Z</time>
      </trkpt>
      <trkpt lat="38.870284" lon="-0.283699">
        <ele>198.615</ele>
        <time>2019-06-15T15:06:50Z</time>
      </trkpt>
      <trkpt lat="38.870330" lon="-0.283681">
        <ele>198.664</ele>
        <time>2019-06-15T15:07:02Z</time>
      </trkpt>
      <trkpt lat="38.870371" lon="-0.283655">
        <ele>198.227</ele>
        <time>2019-06-15T15:07:07Z</time>
      </trkpt>
      <trkpt lat="38.869833" lon="-0.283976">
        <ele>200.999</ele>
        <time>2019-06-15T15:07:09Z</time>
      </trkpt>
      <trkpt lat="38.869683" lon="-0.284037">
        <ele>201.126</ele>
        <time>2019-06-15T15:07:11Z</time>
      </trkpt>
      <trkpt lat="38.869683" lon="-0.284037">
        <ele>201.135</ele>
        <time>2019-06-15T15:07:11Z</time>
      </trkpt>
      <trkpt lat="38.869550" lon="-0.284063">
        <ele>201.530</ele>
        <time>2019-06-15T15:07:15Z</time>
      </trkpt>
      <trkpt lat="38.869550" lon="-0.284063">
        <ele>201.546</ele>
        <time>2019-06-15T15:07:15Z</time>
      </trkpt>
      <trkpt lat="38.869550" lon="-0.284063">
        <ele>201.588</ele>
        <time>2019-06-15T15:07:15Z</time>
      </trkpt>
      <trkpt lat="38.869500" lon="-0.284087">
        <ele>202.216</ele>
        <time>2019-06-15T15:07:18Z</time>
      </trkpt>
      <trkpt lat="38.869440" lon="-0.284119">
        <ele>203.208</ele>
        <time>2019-06-15T15:07:25Z</time>
      </trkpt>
      <trkpt lat="38.869377" lon="-0.284170">
        <ele>203.667</ele>
        <time>2019-06-15T15:07:26Z</time>
      </trkpt>
      <trkpt lat="38.869324" lon="-0.284203">
        <ele>203.611</ele>
        <time>2019-06-15T15:07:27Z</time>
      </trkpt>
      <trkpt lat="38.869282" lon="-0.284236">
        <ele>203.940</ele>
        <time>2019-06-15T15:07:28Z</time>
      </trkpt>
      <trkpt lat="38.869219" lon="-0.284282">
        <ele>204.573</ele>
        <time>2019-06-15T15:07:30Z</time>
      </trkpt>
      <trkpt lat="38.869152" lon="-0.284315">
        <ele>204.675</ele>
        <time>2019-06-15T15:07:32Z</time>
      </trkpt>
      <trkpt lat="38.869093" lon="-0.284362">
        <ele>205.342</ele>
        <time>2019-06-15T15:07:34Z</time>
      </trkpt>
      <trkpt lat="38.869050" lon="-0.284392">
        <ele>205.491</ele>
        <time>2019-06-15T15:07:37Z</time>
      </trkpt>
      <trkpt lat="38.869002" lon="-0.284439">
        <ele>205.756</ele>
        <time>2019-06-15T15:07:42Z</time>
      </trkpt>
      <trkpt lat="38.868963" lon="-0.284473">
        <ele>205.712</ele>
        <time>2019-06-15T15:07:47Z</time>
      </trkpt>
      <trkpt lat="38.868918" lon="-0.284494">
        <ele>205.232</ele>
        <time>2019-06-15T15:07:51Z</time>
      </trkpt>
      <trkpt lat="38.868873" lon="-0.284502">
        <ele>204.405</ele>
        <time>2019-06-15T15:08:07Z</time>
      </trkpt>
      <trkpt lat="38.868826" lon="-0.284564">
        <ele>205.408</ele>
        <time>2019-06-15T15:08:10Z</time>
      </trkpt>
      <trkpt lat="38.868781" lon="-0.284599">
        <ele>205.434</ele>
        <time>2019-06-15T15:08:12Z</time>
      </trkpt>
      <trkpt lat="38.868732" lon="-0.284640">
        <ele>205.398</ele>
        <time>2019-06-15T15:08:15Z</time>
      </trkpt>
      <trkpt lat="38.868693" lon="-0.284679">
        <ele>205.367</ele>
        <time>2019-06-15T15:08:20Z</time>
      </trkpt>
      <trkpt lat="38.868651" lon="-0.284751">
        <ele>205.680</ele>
        <time>2019-06-15T15:08:23Z</time>
      </trkpt>
      <trkpt lat="38.868609" lon="-0.284821">
        <ele>206.192</ele>
        <time>2019-06-15T15:08:25Z</time>
      </trkpt>
      <trkpt lat="38.868564" lon="-0.284889">
        <ele>206.969</ele>
        <time>2019-06-15T15:08:27Z</time>
      </trkpt>
      <trkpt lat="38.868531" lon="-0.284943">
        <ele>207.348</ele>
        <time>2019-06-15T15:08:29Z</time>
      </trkpt>
      <trkpt lat="38.868503" lon="-0.284995">
        <ele>207.673</ele>
        <time>2019-06-15T15:08:31Z</time>
      </trkpt>
      <trkpt lat="38.868478" lon="-0.285047">
        <ele>208.342</ele>
        <time>2019-06-15T15:08:33Z</time>
      </trkpt>
      <trkpt lat="38.868446" lon="-0.285097">
        <ele>208.822</ele>
        <time>2019-06-15T15:08:35Z</time>
      </trkpt>
      <trkpt lat="38.868414" lon="-0.285150">
        <ele>209.314</ele>
        <time>2019-06-15T15:08:37Z</time>
      </trkpt>
      <trkpt lat="38.868375" lon="-0.285205">
        <ele>209.508</ele>
        <time>2019-06-15T15:08:39Z</time>
      </trkpt>
      <trkpt lat="38.868336" lon="-0.285250">
        <ele>209.567</ele>
        <time>2019-06-15T15:08:41Z</time>
      </trkpt>
      <trkpt lat="38.868301" lon="-0.285288">
        <ele>209.791</ele>
        <time>2019-06-15T15:08:44Z</time>
      </trkpt>
      <trkpt lat="38.867989" lon="-0.285880">
        <ele>215.180</ele>
        <time>2019-06-15T15:08:47Z</time>
      </trkpt>
      <trkpt lat="38.867958" lon="-0.285959">
        <ele>214.843</ele>
        <time>2019-06-15T15:08:48Z</time>
      </trkpt>
      <trkpt lat="38.867928" lon="-0.286042">
        <ele>214.765</ele>
        <time>2019-06-15T15:08:50Z</time>
      </trkpt>
      <trkpt lat="38.867882" lon="-0.286135">
        <ele>213.962</ele>
        <time>2019-06-15T15:08:52Z</time>
      </trkpt>
      <trkpt lat="38.867849" lon="-0.286203">
        <ele>213.011</ele>
        <time>2019-06-15T15:08:53Z</time>
      </trkpt>
      <trkpt lat="38.867827" lon="-0.286255">
        <ele>212.486</ele>
        <time>2019-06-15T15:08:54Z</time>
      </trkpt>
      <trkpt lat="38.867809" lon="-0.286352">
        <ele>212.195</ele>
        <time>2019-06-15T15:08:56Z</time>
      </trkpt>
      <trkpt lat="38.867815" lon="-0.286552">
        <ele>213.149</ele>
        <time>2019-06-15T15:08:58Z</time>
      </trkpt>
      <trkpt lat="38.867790" lon="-0.286644">
        <ele>212.423</ele>
        <time>2019-06-15T15:09:00Z</time>
      </trkpt>
      <trkpt lat="38.867783" lon="-0.286766">
        <ele>210.808</ele>
        <time>2019-06-15T15:09:02Z</time>
      </trkpt>
      <trkpt lat="38.867776" lon="-0.286823">
        <ele>209.782</ele>
        <time>2019-06-15T15:09:03Z</time>
      </trkpt>
      <trkpt lat="38.867779" lon="-0.286888">
        <ele>208.996</ele>
        <time>2019-06-15T15:09:04Z</time>
      </trkpt>
      <trkpt lat="38.867782" lon="-0.286946">
        <ele>208.225</ele>
        <time>2019-06-15T15:09:05Z</time>
      </trkpt>
      <trkpt lat="38.867802" lon="-0.287060">
        <ele>206.888</ele>
        <time>2019-06-15T15:09:07Z</time>
      </trkpt>
      <trkpt lat="38.867833" lon="-0.287109">
        <ele>207.590</ele>
        <time>2019-06-15T15:09:08Z</time>
      </trkpt>
      <trkpt lat="38.867890" lon="-0.287121">
        <ele>210.477</ele>
        <time>2019-06-15T15:09:09Z</time>
      </trkpt>
      <trkpt lat="38.867943" lon="-0.287151">
        <ele>212.896</ele>
        <time>2019-06-15T15:09:10Z</time>
      </trkpt>
      <trkpt lat="38.868032" lon="-0.287203">
        <ele>216.991</ele>
        <time>2019-06-15T15:09:12Z</time>
      </trkpt>
      <trkpt lat="38.868100" lon="-0.287244">
        <ele>220.069</ele>
        <time>2019-06-15T15:09:14Z</time>
      </trkpt>
      <trkpt lat="38.868127" lon="-0.287306">
        <ele>220.004</ele>
        <time>2019-06-15T15:09:18Z</time>
      </trkpt>
      <trkpt lat="38.868163" lon="-0.287359">
        <ele>220.724</ele>
        <time>2019-06-15T15:09:22Z</time>
      </trkpt>
      <trkpt lat="38.868197" lon="-0.287405">
        <ele>221.508</ele>
        <time>2019-06-15T15:09:25Z</time>
      </trkpt>
      <trkpt lat="38.868182" lon="-0.288028">
        <ele>210.249</ele>
        <time>2019-06-15T15:09:27Z</time>
      </trkpt>
      <trkpt lat="38.868197" lon="-0.288086">
        <ele>209.663</ele>
        <time>2019-06-15T15:09:28Z</time>
      </trkpt>
      <trkpt lat="38.868250" lon="-0.288124">
        <ele>209.842</ele>
        <time>2019-06-15T15:09:29Z</time>
      </trkpt>
      <trkpt lat="38.868205" lon="-0.288172">
        <ele>208.595</ele>
        <time>2019-06-15T15:09:30Z</time>
      </trkpt>
      <trkpt lat="38.868257" lon="-0.288246">
        <ele>208.257</ele>
        <time>2019-06-15T15:09:31Z</time>
      </trkpt>
      <trkpt lat="38.868289" lon="-0.288312">
        <ele>207.794</ele>
        <time>2019-06-15T15:09:32Z</time>
      </trkpt>
      <trkpt lat="38.868337" lon="-0.288327">
        <ele>208.383</ele>
        <time>2019-06-15T15:09:34Z</time>
      </trkpt>
      <trkpt lat="38.868331" lon="-0.288391">
        <ele>207.178</ele>
        <time>2019-06-15T15:09:36Z</time>
      </trkpt>
      <trkpt lat="38.868356" lon="-0.288450">
        <ele>207.766</ele>
        <time>2019-06-15T15:09:38Z</time>
      </trkpt>
      <trkpt lat="38.868380" lon="-0.288514">
        <ele>208.229</ele>
        <time>2019-06-15T15:09:40Z</time>
      </trkpt>
      <trkpt lat="38.868428" lon="-0.288565">
        <ele>210.421</ele>
        <time>2019-06-15T15:09:42Z</time>
      </trkpt>
      <trkpt lat="38.868463" lon="-0.288636">
        <ele>211.608</ele>
        <time>2019-06-15T15:09:44Z</time>
      </trkpt>
      <trkpt lat="38.868494" lon="-0.288707">
        <ele>212.499</ele>
        <time>2019-06-15T15:09:46Z</time>
      </trkpt>
      <trkpt lat="38.868554" lon="-0.288965">
        <ele>210.453</ele>
        <time>2019-06-15T15:09:48Z</time>
      </trkpt>
      <trkpt lat="38.868629" lon="-0.289058">
        <ele>211.032</ele>
        <time>2019-06-15T15:09:49Z</time>
      </trkpt>
      <trkpt lat="38.868592" lon="-0.289097">
        <ele>208.415</ele>
        <time>2019-06-15T15:09:51Z</time>
      </trkpt>
      <trkpt lat="38.868591" lon="-0.289156">
        <ele>207.097</ele>
        <time>2019-06-15T15:09:55Z</time>
      </trkpt>
      <trkpt lat="38.868611" lon="-0.289236">
        <ele>206.034</ele>
        <time>2019-06-15T15:09:58Z</time>
      </trkpt>
      <trkpt lat="38.868627" lon="-0.289308">
        <ele>205.643</ele>
        <time>2019-06-15T15:10:00Z</time>
      </trkpt>
      <trkpt lat="38.868653" lon="-0.289390">
        <ele>204.988</ele>
        <time>2019-06-15T15:10:02Z</time>
      </trkpt>
      <trkpt lat="38.868705" lon="-0.289499">
        <ele>204.542</ele>
        <time>2019-06-15T15:10:04Z</time>
      </trkpt>
      <trkpt lat="38.869043" lon="-0.289782">
        <ele>212.722</ele>
        <time>2019-06-15T15:10:05Z</time>
      </trkpt>
      <trkpt lat="38.869080" lon="-0.289817">
        <ele>214.314</ele>
        <time>2019-06-15T15:10:06Z</time>
      </trkpt>
      <trkpt lat="38.869131" lon="-0.289844">
        <ele>216.808</ele>
        <time>2019-06-15T15:10:07Z</time>
      </trkpt>
      <trkpt lat="38.869179" lon="-0.289858">
        <ele>219.637</ele>
        <time>2019-06-15T15:10:08Z</time>
      </trkpt>
      <trkpt lat="38.869219" lon="-0.289956">
        <ele>221.591</ele>
        <time>2019-06-15T15:10:10Z</time>
      </trkpt>
      <trkpt lat="38.869266" lon="-0.290053">
        <ele>222.330</ele>
        <time>2019-06-15T15:10:12Z</time>
      </trkpt>
      <trkpt lat="38.869285" lon="-0.290113">
        <ele>221.333</ele>
        <time>2019-06-15T15:10:15Z</time>
      </trkpt>
      <trkpt lat="38.869325" lon="-0.290198">
        <ele>220.285</ele>
        <time>2019-06-15T15:10:16Z</time>
      </trkpt>
      <trkpt lat="38.869386" lon="-0.290308">
        <ele>218.742</ele>
        <time>2019-06-15T15:10:18Z</time>
      </trkpt>
      <trkpt lat="38.869412" lon="-0.290365">
        <ele>218.241</ele>
        <time>2019-06-15T15:10:19Z</time>
      </trkpt>
      <trkpt lat="38.869456" lon="-0.290497">
        <ele>216.556</ele>
        <time>2019-06-15T15:10:21Z</time>
      </trkpt>
      <trkpt lat="38.869486" lon="-0.290547">
        <ele>217.146</ele>
        <time>2019-06-15T15:10:22Z</time>
      </trkpt>
      <trkpt lat="38.869520" lon="-0.290598">
        <ele>218.588</ele>
        <time>2019-06-15T15:10:23Z</time>
      </trkpt>
      <trkpt lat="38.869546" lon="-0.290653">
        <ele>219.116</ele>
        <time>2019-06-15T15:10:24Z</time>
      </trkpt>
      <trkpt lat="38.869581" lon="-0.290696">
        <ele>220.308</ele>
        <time>2019-06-15T15:10:25Z</time>
      </trkpt>
      <trkpt lat="38.869637" lon="-0.290790">
        <ele>221.177</ele>
        <time>2019-06-15T15:10:27Z</time>
      </trkpt>
      <trkpt lat="38.869679" lon="-0.290824">
        <ele>222.211</ele>
        <time>2019-06-15T15:10:28Z</time>
      </trkpt>
      <trkpt lat="38.869691" lon="-0.290886">
        <ele>221.560</ele>
        <time>2019-06-15T15:10:29Z</time>
      </trkpt>
      <trkpt lat="38.869690" lon="-0.290977">
        <ele>219.723</ele>
        <time>2019-06-15T15:10:30Z</time>
      </trkpt>
      <trkpt lat="38.869702" lon="-0.291039">
        <ele>218.945</ele>
        <time>2019-06-15T15:10:31Z</time>
      </trkpt>
      <trkpt lat="38.869727" lon="-0.291103">
        <ele>218.562</ele>
        <time>2019-06-15T15:10:32Z</time>
      </trkpt>
      <trkpt lat="38.869766" lon="-0.291142">
        <ele>221.091</ele>
        <time>2019-06-15T15:10:33Z</time>
      </trkpt>
      <trkpt lat="38.869781" lon="-0.291204">
        <ele>221.976</ele>
        <time>2019-06-15T15:10:34Z</time>
      </trkpt>
      <trkpt lat="38.869792" lon="-0.291330">
        <ele>222.635</ele>
        <time>2019-06-15T15:10:36Z</time>
      </trkpt>
      <trkpt lat="38.869788" lon="-0.291471">
        <ele>223.786</ele>
        <time>2019-06-15T15:10:38Z</time>
      </trkpt>
      <trkpt lat="38.869791" lon="-0.291598">
        <ele>226.014</ele>
        <time>2019-06-15T15:10:40Z</time>
      </trkpt>
      <trkpt lat="38.869788" lon="-0.291675">
        <ele>227.208</ele>
        <time>2019-06-15T15:10:41Z</time>
      </trkpt>
      <trkpt lat="38.869812" lon="-0.291762">
        <ele>229.296</ele>
        <time>2019-06-15T15:10:42Z</time>
      </trkpt>
      <trkpt lat="38.869785" lon="-0.291866">
        <ele>229.110</ele>
        <time>2019-06-15T15:10:43Z</time>
      </trkpt>
      <trkpt lat="38.869710" lon="-0.291925">
        <ele>226.399</ele>
        <time>2019-06-15T15:10:44Z</time>
      </trkpt>
      <trkpt lat="38.869668" lon="-0.292040">
        <ele>226.572</ele>
        <time>2019-06-15T15:10:45Z</time>
      </trkpt>
      <trkpt lat="38.869617" lon="-0.292090">
        <ele>225.534</ele>
        <time>2019-06-15T15:10:46Z</time>
      </trkpt>
      <trkpt lat="38.869578" lon="-0.292143">
        <ele>225.151</ele>
        <time>2019-06-15T15:10:47Z</time>
      </trkpt>
      <trkpt lat="38.869519" lon="-0.292244">
        <ele>225.150</ele>
        <time>2019-06-15T15:10:49Z</time>
      </trkpt>
      <trkpt lat="38.869501" lon="-0.292331">
        <ele>226.115</ele>
        <time>2019-06-15T15:10:50Z</time>
      </trkpt>
      <trkpt lat="38.869444" lon="-0.292411">
        <ele>226.158</ele>
        <time>2019-06-15T15:10:51Z</time>
      </trkpt>
      <trkpt lat="38.869410" lon="-0.292458">
        <ele>226.152</ele>
        <time>2019-06-15T15:10:53Z</time>
      </trkpt>
      <trkpt lat="38.869360" lon="-0.292503">
        <ele>225.517</ele>
        <time>2019-06-15T15:10:54Z</time>
      </trkpt>
      <trkpt lat="38.869336" lon="-0.292595">
        <ele>223.408</ele>
        <time>2019-06-15T15:10:55Z</time>
      </trkpt>
      <trkpt lat="38.869288" lon="-0.292646">
        <ele>222.378</ele>
        <time>2019-06-15T15:10:58Z</time>
      </trkpt>
      <trkpt lat="38.869260" lon="-0.292784">
        <ele>221.642</ele>
        <time>2019-06-15T15:10:59Z</time>
      </trkpt>
      <trkpt lat="38.869259" lon="-0.292940">
        <ele>220.741</ele>
        <time>2019-06-15T15:11:00Z</time>
      </trkpt>
      <trkpt lat="38.869234" lon="-0.293007">
        <ele>219.524</ele>
        <time>2019-06-15T15:11:01Z</time>
      </trkpt>
      <trkpt lat="38.869173" lon="-0.293107">
        <ele>217.456</ele>
        <time>2019-06-15T15:11:03Z</time>
      </trkpt>
      <trkpt lat="38.869156" lon="-0.293225">
        <ele>219.573</ele>
        <time>2019-06-15T15:11:05Z</time>
      </trkpt>
      <trkpt lat="38.869150" lon="-0.293338">
        <ele>221.872</ele>
        <time>2019-06-15T15:11:06Z</time>
      </trkpt>
      <trkpt lat="38.869134" lon="-0.293428">
        <ele>224.967</ele>
        <time>2019-06-15T15:11:07Z</time>
      </trkpt>
      <trkpt lat="38.869083" lon="-0.293464">
        <ele>224.898</ele>
        <time>2019-06-15T15:11:08Z</time>
      </trkpt>
      <trkpt lat="38.869053" lon="-0.293599">
        <ele>228.515</ele>
        <time>2019-06-15T15:11:10Z</time>
      </trkpt>
      <trkpt lat="38.869002" lon="-0.293601">
        <ele>226.826</ele>
        <time>2019-06-15T15:11:11Z</time>
      </trkpt>
      <trkpt lat="38.868936" lon="-0.293590">
        <ele>224.108</ele>
        <time>2019-06-15T15:11:12Z</time>
      </trkpt>
      <trkpt lat="38.868881" lon="-0.293600">
        <ele>222.792</ele>
        <time>2019-06-15T15:11:13Z</time>
      </trkpt>
      <trkpt lat="38.868801" lon="-0.293654">
        <ele>223.556</ele>
        <time>2019-06-15T15:11:15Z</time>
      </trkpt>
      <trkpt lat="38.868758" lon="-0.293697">
        <ele>224.125</ele>
        <time>2019-06-15T15:11:16Z</time>
      </trkpt>
      <trkpt lat="38.868748" lon="-0.293766">
        <ele>225.668</ele>
        <time>2019-06-15T15:11:17Z</time>
      </trkpt>
      <trkpt lat="38.868747" lon="-0.293870">
        <ele>228.080</ele>
        <time>2019-06-15T15:11:18Z</time>
      </trkpt>
      <trkpt lat="38.868679" lon="-0.293855">
        <ele>226.187</ele>
        <time>2019-06-15T15:11:19Z</time>
      </trkpt>
      <trkpt lat="38.868641" lon="-0.293888">
        <ele>225.766</ele>
        <time>2019-06-15T15:11:21Z</time>
      </trkpt>
      <trkpt lat="38.868565" lon="-0.293888">
        <ele>224.751</ele>
        <time>2019-06-15T15:11:23Z</time>
      </trkpt>
      <trkpt lat="38.868556" lon="-0.293963">
        <ele>227.375</ele>
        <time>2019-06-15T15:11:24Z</time>
      </trkpt>
      <trkpt lat="38.868483" lon="-0.294021">
        <ele>228.428</ele>
        <time>2019-06-15T15:11:26Z</time>
      </trkpt>
      <trkpt lat="38.868439" lon="-0.294044">
        <ele>228.520</ele>
        <time>2019-06-15T15:11:27Z</time>
      </trkpt>
      <trkpt lat="38.868378" lon="-0.294070">
        <ele>228.308</ele>
        <time>2019-06-15T15:11:28Z</time>
      </trkpt>
      <trkpt lat="38.868319" lon="-0.294119">
        <ele>228.990</ele>
        <time>2019-06-15T15:11:29Z</time>
      </trkpt>
      <trkpt lat="38.868255" lon="-0.294170">
        <ele>230.174</ele>
        <time>2019-06-15T15:11:31Z</time>
      </trkpt>
      <trkpt lat="38.868216" lon="-0.294215">
        <ele>231.713</ele>
        <time>2019-06-15T15:11:32Z</time>
      </trkpt>
      <trkpt lat="38.868180" lon="-0.294260">
        <ele>233.116</ele>
        <time>2019-06-15T15:11:33Z</time>
      </trkpt>
      <trkpt lat="38.868118" lon="-0.294317">
        <ele>234.448</ele>
        <time>2019-06-15T15:11:35Z</time>
      </trkpt>
      <trkpt lat="38.868056" lon="-0.294383">
        <ele>235.515</ele>
        <time>2019-06-15T15:11:37Z</time>
      </trkpt>
      <trkpt lat="38.868003" lon="-0.294387">
        <ele>233.434</ele>
        <time>2019-06-15T15:11:40Z</time>
      </trkpt>
      <trkpt lat="38.867958" lon="-0.294414">
        <ele>231.919</ele>
        <time>2019-06-15T15:11:42Z</time>
      </trkpt>
      <trkpt lat="38.867846" lon="-0.294468">
        <ele>228.375</ele>
        <time>2019-06-15T15:11:43Z</time>
      </trkpt>
      <trkpt lat="38.867800" lon="-0.294504">
        <ele>228.028</ele>
        <time>2019-06-15T15:11:44Z</time>
      </trkpt>
      <trkpt lat="38.867752" lon="-0.294531">
        <ele>227.720</ele>
        <time>2019-06-15T15:11:45Z</time>
      </trkpt>
      <trkpt lat="38.867707" lon="-0.294557">
        <ele>227.508</ele>
        <time>2019-06-15T15:11:46Z</time>
      </trkpt>
      <trkpt lat="38.867663" lon="-0.294586">
        <ele>226.990</ele>
        <time>2019-06-15T15:11:47Z</time>
      </trkpt>
      <trkpt lat="38.867618" lon="-0.294614">
        <ele>225.824</ele>
        <time>2019-06-15T15:11:48Z</time>
      </trkpt>
      <trkpt lat="38.867570" lon="-0.294643">
        <ele>224.093</ele>
        <time>2019-06-15T15:11:49Z</time>
      </trkpt>
      <trkpt lat="38.867520" lon="-0.294694">
        <ele>221.456</ele>
        <time>2019-06-15T15:11:50Z</time>
      </trkpt>
      <trkpt lat="38.867473" lon="-0.294710">
        <ele>219.788</ele>
        <time>2019-06-15T15:11:51Z</time>
      </trkpt>
      <trkpt lat="38.867425" lon="-0.294738">
        <ele>219.675</ele>
        <time>2019-06-15T15:11:52Z</time>
      </trkpt>
      <trkpt lat="38.867375" lon="-0.294767">
        <ele>220.044</ele>
        <time>2019-06-15T15:11:53Z</time>
      </trkpt>
      <trkpt lat="38.867317" lon="-0.294789">
        <ele>219.779</ele>
        <time>2019-06-15T15:11:54Z</time>
      </trkpt>
      <trkpt lat="38.867268" lon="-0.294821">
        <ele>219.691</ele>
        <time>2019-06-15T15:11:55Z</time>
      </trkpt>
      <trkpt lat="38.867222" lon="-0.294851">
        <ele>219.281</ele>
        <time>2019-06-15T15:11:56Z</time>
      </trkpt>
      <trkpt lat="38.867173" lon="-0.294883">
        <ele>220.919</ele>
        <time>2019-06-15T15:11:57Z</time>
      </trkpt>
      <trkpt lat="38.867125" lon="-0.294916">
        <ele>222.008</ele>
        <time>2019-06-15T15:11:58Z</time>
      </trkpt>
      <trkpt lat="38.867080" lon="-0.294953">
        <ele>222.532</ele>
        <time>2019-06-15T15:11:59Z</time>
      </trkpt>
      <trkpt lat="38.867034" lon="-0.294991">
        <ele>222.466</ele>
        <time>2019-06-15T15:12:00Z</time>
      </trkpt>
      <trkpt lat="38.866962" lon="-0.295040">
        <ele>223.375</ele>
        <time>2019-06-15T15:12:01Z</time>
      </trkpt>
      <trkpt lat="38.866990" lon="-0.295118">
        <ele>226.528</ele>
        <time>2019-06-15T15:12:02Z</time>
      </trkpt>
      <trkpt lat="38.866894" lon="-0.295120">
        <ele>225.550</ele>
        <time>2019-06-15T15:12:03Z</time>
      </trkpt>
      <trkpt lat="38.866823" lon="-0.295155">
        <ele>225.697</ele>
        <time>2019-06-15T15:12:05Z</time>
      </trkpt>
      <trkpt lat="38.866779" lon="-0.295184">
        <ele>225.286</ele>
        <time>2019-06-15T15:12:06Z</time>
      </trkpt>
      <trkpt lat="38.866739" lon="-0.295289">
        <ele>223.651</ele>
        <time>2019-06-15T15:12:08Z</time>
      </trkpt>
      <trkpt lat="38.866690" lon="-0.295348">
        <ele>222.964</ele>
        <time>2019-06-15T15:12:09Z</time>
      </trkpt>
      <trkpt lat="38.866643" lon="-0.295386">
        <ele>222.606</ele>
        <time>2019-06-15T15:12:10Z</time>
      </trkpt>
      <trkpt lat="38.866592" lon="-0.295422">
        <ele>222.916</ele>
        <time>2019-06-15T15:12:11Z</time>
      </trkpt>
      <trkpt lat="38.866585" lon="-0.295482">
        <ele>223.308</ele>
        <time>2019-06-15T15:12:12Z</time>
      </trkpt>
      <trkpt lat="38.866534" lon="-0.295512">
        <ele>223.079</ele>
        <time>2019-06-15T15:12:13Z</time>
      </trkpt>
      <trkpt lat="38.866470" lon="-0.295556">
        <ele>222.253</ele>
        <time>2019-06-15T15:12:14Z</time>
      </trkpt>
      <trkpt lat="38.866416" lon="-0.295605">
        <ele>223.692</ele>
        <time>2019-06-15T15:12:15Z</time>
      </trkpt>
      <trkpt lat="38.866407" lon="-0.295668">
        <ele>226.395</ele>
        <time>2019-06-15T15:12:16Z</time>
      </trkpt>
      <trkpt lat="38.866389" lon="-0.295732">
        <ele>228.667</ele>
        <time>2019-06-15T15:12:17Z</time>
      </trkpt>
      <trkpt lat="38.866386" lon="-0.295837">
        <ele>233.034</ele>
        <time>2019-06-15T15:12:18Z</time>
      </trkpt>
      <trkpt lat="38.866339" lon="-0.295877">
        <ele>232.563</ele>
        <time>2019-06-15T15:12:19Z</time>
      </trkpt>
      <trkpt lat="38.866289" lon="-0.295903">
        <ele>231.378</ele>
        <time>2019-06-15T15:12:20Z</time>
      </trkpt>
      <trkpt lat="38.866262" lon="-0.295952">
        <ele>230.872</ele>
        <time>2019-06-15T15:12:21Z</time>
      </trkpt>
      <trkpt lat="38.866191" lon="-0.295979">
        <ele>228.213</ele>
        <time>2019-06-15T15:12:23Z</time>
      </trkpt>
      <trkpt lat="38.866174" lon="-0.296053">
        <ele>227.414</ele>
        <time>2019-06-15T15:12:24Z</time>
      </trkpt>
      <trkpt lat="38.866139" lon="-0.296104">
        <ele>225.508</ele>
        <time>2019-06-15T15:12:25Z</time>
      </trkpt>
      <trkpt lat="38.866105" lon="-0.296160">
        <ele>227.280</ele>
        <time>2019-06-15T15:12:26Z</time>
      </trkpt>
      <trkpt lat="38.866069" lon="-0.296210">
        <ele>229.194</ele>
        <time>2019-06-15T15:12:27Z</time>
      </trkpt>
      <trkpt lat="38.866042" lon="-0.296258">
        <ele>230.653</ele>
        <time>2019-06-15T15:12:28Z</time>
      </trkpt>
      <trkpt lat="38.866020" lon="-0.296323">
        <ele>232.626</ele>
        <time>2019-06-15T15:12:29Z</time>
      </trkpt>
      <trkpt lat="38.865970" lon="-0.296407">
        <ele>232.438</ele>
        <time>2019-06-15T15:12:31Z</time>
      </trkpt>
      <trkpt lat="38.865947" lon="-0.296462">
        <ele>232.685</ele>
        <time>2019-06-15T15:12:32Z</time>
      </trkpt>
      <trkpt lat="38.865930" lon="-0.296532">
        <ele>234.174</ele>
        <time>2019-06-15T15:12:33Z</time>
      </trkpt>
      <trkpt lat="38.865888" lon="-0.296569">
        <ele>233.439</ele>
        <time>2019-06-15T15:12:34Z</time>
      </trkpt>
      <trkpt lat="38.865850" lon="-0.296611">
        <ele>233.763</ele>
        <time>2019-06-15T15:12:35Z</time>
      </trkpt>
      <trkpt lat="38.865774" lon="-0.296653">
        <ele>232.644</ele>
        <time>2019-06-15T15:12:37Z</time>
      </trkpt>
      <trkpt lat="38.865729" lon="-0.296685">
        <ele>232.918</ele>
        <time>2019-06-15T15:12:38Z</time>
      </trkpt>
      <trkpt lat="38.865657" lon="-0.296737">
        <ele>233.608</ele>
        <time>2019-06-15T15:12:40Z</time>
      </trkpt>
      <trkpt lat="38.865579" lon="-0.296767">
        <ele>231.059</ele>
        <time>2019-06-15T15:12:42Z</time>
      </trkpt>
      <trkpt lat="38.865502" lon="-0.296825">
        <ele>233.783</ele>
        <time>2019-06-15T15:12:44Z</time>
      </trkpt>
      <trkpt lat="38.865446" lon="-0.296820">
        <ele>233.832</ele>
        <time>2019-06-15T15:12:45Z</time>
      </trkpt>
      <trkpt lat="38.865402" lon="-0.296841">
        <ele>235.745</ele>
        <time>2019-06-15T15:12:46Z</time>
      </trkpt>
      <trkpt lat="38.865351" lon="-0.296864">
        <ele>237.947</ele>
        <time>2019-06-15T15:12:47Z</time>
      </trkpt>
      <trkpt lat="38.865307" lon="-0.296886">
        <ele>240.084</ele>
        <time>2019-06-15T15:12:48Z</time>
      </trkpt>
      <trkpt lat="38.865256" lon="-0.296892">
        <ele>240.723</ele>
        <time>2019-06-15T15:12:49Z</time>
      </trkpt>
      <trkpt lat="38.865205" lon="-0.296896">
        <ele>240.828</ele>
        <time>2019-06-15T15:12:50Z</time>
      </trkpt>
      <trkpt lat="38.865152" lon="-0.296900">
        <ele>240.944</ele>
        <time>2019-06-15T15:12:51Z</time>
      </trkpt>
      <trkpt lat="38.865064" lon="-0.296896">
        <ele>240.105</ele>
        <time>2019-06-15T15:12:53Z</time>
      </trkpt>
      <trkpt lat="38.864982" lon="-0.296887">
        <ele>238.815</ele>
        <time>2019-06-15T15:12:55Z</time>
      </trkpt>
      <trkpt lat="38.864932" lon="-0.296895">
        <ele>238.708</ele>
        <time>2019-06-15T15:12:58Z</time>
      </trkpt>
      <trkpt lat="38.864883" lon="-0.296845">
        <ele>234.547</ele>
        <time>2019-06-15T15:13:23Z</time>
      </trkpt>
      <trkpt lat="38.864835" lon="-0.296846">
        <ele>234.211</ele>
        <time>2019-06-15T15:13:38Z</time>
      </trkpt>
      <trkpt lat="38.864779" lon="-0.296859">
        <ele>234.570</ele>
        <time>2019-06-15T15:13:42Z</time>
      </trkpt>
      <trkpt lat="38.864719" lon="-0.296871">
        <ele>234.523</ele>
        <time>2019-06-15T15:13:45Z</time>
      </trkpt>
      <trkpt lat="38.864672" lon="-0.296875">
        <ele>234.075</ele>
        <time>2019-06-15T15:13:47Z</time>
      </trkpt>
      <trkpt lat="38.864623" lon="-0.296866">
        <ele>232.912</ele>
        <time>2019-06-15T15:13:49Z</time>
      </trkpt>
      <trkpt lat="38.864568" lon="-0.296848">
        <ele>231.351</ele>
        <time>2019-06-15T15:13:51Z</time>
      </trkpt>
      <trkpt lat="38.864509" lon="-0.296826">
        <ele>229.486</ele>
        <time>2019-06-15T15:13:53Z</time>
      </trkpt>
      <trkpt lat="38.864440" lon="-0.296805">
        <ele>227.432</ele>
        <time>2019-06-15T15:13:55Z</time>
      </trkpt>
      <trkpt lat="38.864365" lon="-0.296781">
        <ele>225.992</ele>
        <time>2019-06-15T15:13:57Z</time>
      </trkpt>
      <trkpt lat="38.864265" lon="-0.296733">
        <ele>223.511</ele>
        <time>2019-06-15T15:13:59Z</time>
      </trkpt>
      <trkpt lat="38.864216" lon="-0.296701">
        <ele>222.208</ele>
        <time>2019-06-15T15:14:00Z</time>
      </trkpt>
      <trkpt lat="38.864127" lon="-0.296626">
        <ele>220.316</ele>
        <time>2019-06-15T15:15:25Z</time>
      </trkpt>
      <trkpt lat="38.864080" lon="-0.296600">
        <ele>219.940</ele>
        <time>2019-06-15T15:15:27Z</time>
      </trkpt>
      <trkpt lat="38.863959" lon="-0.296521">
        <ele>218.899</ele>
        <time>2019-06-15T15:15:29Z</time>
      </trkpt>
      <trkpt lat="38.863869" lon="-0.296499">
        <ele>219.062</ele>
        <time>2019-06-15T15:15:31Z</time>
      </trkpt>
      <trkpt lat="38.863827" lon="-0.296474">
        <ele>218.934</ele>
        <time>2019-06-15T15:15:36Z</time>
      </trkpt>
      <trkpt lat="38.863498" lon="-0.296440">
        <ele>222.811</ele>
        <time>2019-06-15T15:15:41Z</time>
      </trkpt>
      <trkpt lat="38.863431" lon="-0.296424">
        <ele>223.780</ele>
        <time>2019-06-15T15:15:42Z</time>
      </trkpt>
      <trkpt lat="38.863382" lon="-0.296409">
        <ele>224.415</ele>
        <time>2019-06-15T15:15:43Z</time>
      </trkpt>
      <trkpt lat="38.863264" lon="-0.296353">
        <ele>225.377</ele>
        <time>2019-06-15T15:15:44Z</time>
      </trkpt>
      <trkpt lat="38.863215" lon="-0.296346">
        <ele>225.861</ele>
        <time>2019-06-15T15:15:45Z</time>
      </trkpt>
      <trkpt lat="38.863153" lon="-0.296339">
        <ele>226.527</ele>
        <time>2019-06-15T15:15:47Z</time>
      </trkpt>
      <trkpt lat="38.863107" lon="-0.296346">
        <ele>227.208</ele>
        <time>2019-06-15T15:15:48Z</time>
      </trkpt>
      <trkpt lat="38.863020" lon="-0.296345">
        <ele>228.090</ele>
        <time>2019-06-15T15:15:50Z</time>
      </trkpt>
      <trkpt lat="38.862956" lon="-0.296383">
        <ele>228.954</ele>
        <time>2019-06-15T15:15:52Z</time>
      </trkpt>
      <trkpt lat="38.862916" lon="-0.296430">
        <ele>229.283</ele>
        <time>2019-06-15T15:15:55Z</time>
      </trkpt>
      <trkpt lat="38.862707" lon="-0.296507">
        <ele>228.856</ele>
        <time>2019-06-15T15:15:59Z</time>
      </trkpt>
      <trkpt lat="38.862638" lon="-0.296524">
        <ele>228.068</ele>
        <time>2019-06-15T15:16:01Z</time>
      </trkpt>
      <trkpt lat="38.862600" lon="-0.296560">
        <ele>227.795</ele>
        <time>2019-06-15T15:16:02Z</time>
      </trkpt>
      <trkpt lat="38.862519" lon="-0.296609">
        <ele>226.954</ele>
        <time>2019-06-15T15:16:04Z</time>
      </trkpt>
      <trkpt lat="38.862425" lon="-0.296659">
        <ele>225.919</ele>
        <time>2019-06-15T15:16:05Z</time>
      </trkpt>
      <trkpt lat="38.862394" lon="-0.296708">
        <ele>225.488</ele>
        <time>2019-06-15T15:16:07Z</time>
      </trkpt>
      <trkpt lat="38.862297" lon="-0.296790">
        <ele>224.724</ele>
        <time>2019-06-15T15:16:10Z</time>
      </trkpt>
      <trkpt lat="38.862268" lon="-0.296844">
        <ele>224.926</ele>
        <time>2019-06-15T15:16:11Z</time>
      </trkpt>
      <trkpt lat="38.862200" lon="-0.296936">
        <ele>225.908</ele>
        <time>2019-06-15T15:16:13Z</time>
      </trkpt>
      <trkpt lat="38.862150" lon="-0.296991">
        <ele>226.681</ele>
        <time>2019-06-15T15:16:14Z</time>
      </trkpt>
      <trkpt lat="38.862118" lon="-0.297034">
        <ele>227.275</ele>
        <time>2019-06-15T15:16:19Z</time>
      </trkpt>
      <trkpt lat="38.861977" lon="-0.297263">
        <ele>232.174</ele>
        <time>2019-06-15T15:16:22Z</time>
      </trkpt>
      <trkpt lat="38.861919" lon="-0.297283">
        <ele>232.787</ele>
        <time>2019-06-15T15:16:23Z</time>
      </trkpt>
      <trkpt lat="38.861781" lon="-0.297562">
        <ele>236.979</ele>
        <time>2019-06-15T15:16:27Z</time>
      </trkpt>
      <trkpt lat="38.861735" lon="-0.297685">
        <ele>238.536</ele>
        <time>2019-06-15T15:16:29Z</time>
      </trkpt>
      <trkpt lat="38.861703" lon="-0.297759">
        <ele>239.015</ele>
        <time>2019-06-15T15:16:30Z</time>
      </trkpt>
      <trkpt lat="38.861691" lon="-0.297829">
        <ele>239.440</ele>
        <time>2019-06-15T15:16:31Z</time>
      </trkpt>
      <trkpt lat="38.861649" lon="-0.297994">
        <ele>238.728</ele>
        <time>2019-06-15T15:16:33Z</time>
      </trkpt>
      <trkpt lat="38.861628" lon="-0.298048">
        <ele>238.089</ele>
        <time>2019-06-15T15:16:34Z</time>
      </trkpt>
      <trkpt lat="38.861602" lon="-0.298107">
        <ele>237.217</ele>
        <time>2019-06-15T15:16:35Z</time>
      </trkpt>
      <trkpt lat="38.861549" lon="-0.298196">
        <ele>235.308</ele>
        <time>2019-06-15T15:16:37Z</time>
      </trkpt>
      <trkpt lat="38.861521" lon="-0.298246">
        <ele>234.415</ele>
        <time>2019-06-15T15:16:38Z</time>
      </trkpt>
      <trkpt lat="38.861484" lon="-0.298288">
        <ele>233.059</ele>
        <time>2019-06-15T15:16:39Z</time>
      </trkpt>
      <trkpt lat="38.861479" lon="-0.298349">
        <ele>233.628</ele>
        <time>2019-06-15T15:16:40Z</time>
      </trkpt>
      <trkpt lat="38.861445" lon="-0.298412">
        <ele>233.711</ele>
        <time>2019-06-15T15:16:41Z</time>
      </trkpt>
      <trkpt lat="38.861434" lon="-0.298477">
        <ele>234.873</ele>
        <time>2019-06-15T15:16:42Z</time>
      </trkpt>
      <trkpt lat="38.861388" lon="-0.298545">
        <ele>234.340</ele>
        <time>2019-06-15T15:16:43Z</time>
      </trkpt>
      <trkpt lat="38.861356" lon="-0.298593">
        <ele>234.579</ele>
        <time>2019-06-15T15:16:44Z</time>
      </trkpt>
      <trkpt lat="38.861294" lon="-0.298685">
        <ele>235.884</ele>
        <time>2019-06-15T15:16:46Z</time>
      </trkpt>
      <trkpt lat="38.861267" lon="-0.298749">
        <ele>237.313</ele>
        <time>2019-06-15T15:16:47Z</time>
      </trkpt>
      <trkpt lat="38.861222" lon="-0.298778">
        <ele>236.843</ele>
        <time>2019-06-15T15:16:48Z</time>
      </trkpt>
      <trkpt lat="38.861194" lon="-0.298839">
        <ele>238.107</ele>
        <time>2019-06-15T15:16:49Z</time>
      </trkpt>
      <trkpt lat="38.861171" lon="-0.298907">
        <ele>239.908</ele>
        <time>2019-06-15T15:16:50Z</time>
      </trkpt>
      <trkpt lat="38.861116" lon="-0.299000">
        <ele>241.644</ele>
        <time>2019-06-15T15:16:52Z</time>
      </trkpt>
      <trkpt lat="38.861051" lon="-0.299078">
        <ele>243.348</ele>
        <time>2019-06-15T15:16:54Z</time>
      </trkpt>
      <trkpt lat="38.861020" lon="-0.299125">
        <ele>244.577</ele>
        <time>2019-06-15T15:16:55Z</time>
      </trkpt>
      <trkpt lat="38.860984" lon="-0.299159">
        <ele>245.060</ele>
        <time>2019-06-15T15:16:56Z</time>
      </trkpt>
      <trkpt lat="38.860921" lon="-0.299226">
        <ele>245.652</ele>
        <time>2019-06-15T15:16:58Z</time>
      </trkpt>
      <trkpt lat="38.860839" lon="-0.299272">
        <ele>244.859</ele>
        <time>2019-06-15T15:17:00Z</time>
      </trkpt>
      <trkpt lat="38.860787" lon="-0.299359">
        <ele>245.968</ele>
        <time>2019-06-15T15:17:02Z</time>
      </trkpt>
      <trkpt lat="38.860734" lon="-0.299380">
        <ele>245.473</ele>
        <time>2019-06-15T15:17:03Z</time>
      </trkpt>
      <trkpt lat="38.860671" lon="-0.299404">
        <ele>244.677</ele>
        <time>2019-06-15T15:17:04Z</time>
      </trkpt>
      <trkpt lat="38.860630" lon="-0.299450">
        <ele>244.761</ele>
        <time>2019-06-15T15:17:05Z</time>
      </trkpt>
      <trkpt lat="38.860580" lon="-0.299481">
        <ele>244.027</ele>
        <time>2019-06-15T15:17:06Z</time>
      </trkpt>
      <trkpt lat="38.860540" lon="-0.299528">
        <ele>243.608</ele>
        <time>2019-06-15T15:17:07Z</time>
      </trkpt>
      <trkpt lat="38.860461" lon="-0.299575">
        <ele>242.730</ele>
        <time>2019-06-15T15:17:09Z</time>
      </trkpt>
      <trkpt lat="38.860424" lon="-0.299615">
        <ele>242.594</ele>
        <time>2019-06-15T15:17:10Z</time>
      </trkpt>
      <trkpt lat="38.860379" lon="-0.299647">
        <ele>242.013</ele>
        <time>2019-06-15T15:17:11Z</time>
      </trkpt>
      <trkpt lat="38.860321" lon="-0.299670">
        <ele>241.236</ele>
        <time>2019-06-15T15:17:12Z</time>
      </trkpt>
      <trkpt lat="38.860271" lon="-0.299686">
        <ele>240.668</ele>
        <time>2019-06-15T15:17:13Z</time>
      </trkpt>
      <trkpt lat="38.860227" lon="-0.299722">
        <ele>241.015</ele>
        <time>2019-06-15T15:17:14Z</time>
      </trkpt>
      <trkpt lat="38.860183" lon="-0.299738">
        <ele>241.444</ele>
        <time>2019-06-15T15:17:15Z</time>
      </trkpt>
      <trkpt lat="38.860128" lon="-0.299755">
        <ele>241.849</ele>
        <time>2019-06-15T15:17:16Z</time>
      </trkpt>
      <trkpt lat="38.860086" lon="-0.299783">
        <ele>242.674</ele>
        <time>2019-06-15T15:17:17Z</time>
      </trkpt>
      <trkpt lat="38.860054" lon="-0.299836">
        <ele>244.156</ele>
        <time>2019-06-15T15:17:18Z</time>
      </trkpt>
      <trkpt lat="38.860008" lon="-0.299867">
        <ele>245.121</ele>
        <time>2019-06-15T15:17:19Z</time>
      </trkpt>
      <trkpt lat="38.859961" lon="-0.299890">
        <ele>245.608</ele>
        <time>2019-06-15T15:17:20Z</time>
      </trkpt>
      <trkpt lat="38.859920" lon="-0.299944">
        <ele>247.090</ele>
        <time>2019-06-15T15:17:21Z</time>
      </trkpt>
      <trkpt lat="38.859881" lon="-0.299989">
        <ele>248.264</ele>
        <time>2019-06-15T15:17:22Z</time>
      </trkpt>
      <trkpt lat="38.859853" lon="-0.300035">
        <ele>249.163</ele>
        <time>2019-06-15T15:17:23Z</time>
      </trkpt>
      <trkpt lat="38.859783" lon="-0.300099">
        <ele>249.696</ele>
        <time>2019-06-15T15:17:25Z</time>
      </trkpt>
      <trkpt lat="38.859717" lon="-0.300160">
        <ele>249.728</ele>
        <time>2019-06-15T15:17:27Z</time>
      </trkpt>
      <trkpt lat="38.859652" lon="-0.300224">
        <ele>250.545</ele>
        <time>2019-06-15T15:17:29Z</time>
      </trkpt>
      <trkpt lat="38.859600" lon="-0.300275">
        <ele>251.414</ele>
        <time>2019-06-15T15:17:43Z</time>
      </trkpt>
      <trkpt lat="38.859552" lon="-0.300307">
        <ele>252.139</ele>
        <time>2019-06-15T15:17:47Z</time>
      </trkpt>
      <trkpt lat="38.859501" lon="-0.300366">
        <ele>253.195</ele>
        <time>2019-06-15T15:17:52Z</time>
      </trkpt>
      <trkpt lat="38.859457" lon="-0.300428">
        <ele>254.149</ele>
        <time>2019-06-15T15:17:56Z</time>
      </trkpt>
      <trkpt lat="38.859458" lon="-0.300489">
        <ele>255.023</ele>
        <time>2019-06-15T15:17:57Z</time>
      </trkpt>
      <trkpt lat="38.859471" lon="-0.300829">
        <ele>259.308</ele>
        <time>2019-06-15T15:17:58Z</time>
      </trkpt>
      <trkpt lat="38.859477" lon="-0.300913">
        <ele>257.512</ele>
        <time>2019-06-15T15:17:59Z</time>
      </trkpt>
      <trkpt lat="38.859469" lon="-0.300973">
        <ele>255.916</ele>
        <time>2019-06-15T15:18:00Z</time>
      </trkpt>
      <trkpt lat="38.859328" lon="-0.301415">
        <ele>234.465</ele>
        <time>2019-06-15T15:18:01Z</time>
      </trkpt>
      <trkpt lat="38.859356" lon="-0.301509">
        <ele>233.678</ele>
        <time>2019-06-15T15:18:02Z</time>
      </trkpt>
      <trkpt lat="38.859357" lon="-0.301599">
        <ele>231.640</ele>
        <time>2019-06-15T15:18:03Z</time>
      </trkpt>
      <trkpt lat="38.859383" lon="-0.301694">
        <ele>231.137</ele>
        <time>2019-06-15T15:18:05Z</time>
      </trkpt>
      <trkpt lat="38.859373" lon="-0.301763">
        <ele>231.166</ele>
        <time>2019-06-15T15:18:06Z</time>
      </trkpt>
      <trkpt lat="38.859372" lon="-0.301879">
        <ele>231.661</ele>
        <time>2019-06-15T15:18:08Z</time>
      </trkpt>
      <trkpt lat="38.859382" lon="-0.301943">
        <ele>232.213</ele>
        <time>2019-06-15T15:18:09Z</time>
      </trkpt>
      <trkpt lat="38.859382" lon="-0.302051">
        <ele>232.443</ele>
        <time>2019-06-15T15:18:11Z</time>
      </trkpt>
      <trkpt lat="38.859391" lon="-0.302155">
        <ele>232.807</ele>
        <time>2019-06-15T15:18:13Z</time>
      </trkpt>
      <trkpt lat="38.859401" lon="-0.302212">
        <ele>233.108</ele>
        <time>2019-06-15T15:18:14Z</time>
      </trkpt>
      <trkpt lat="38.859408" lon="-0.302314">
        <ele>233.044</ele>
        <time>2019-06-15T15:18:16Z</time>
      </trkpt>
      <trkpt lat="38.859407" lon="-0.302428">
        <ele>232.718</ele>
        <time>2019-06-15T15:18:18Z</time>
      </trkpt>
      <trkpt lat="38.859428" lon="-0.302521">
        <ele>232.747</ele>
        <time>2019-06-15T15:18:20Z</time>
      </trkpt>
      <trkpt lat="38.859431" lon="-0.302580">
        <ele>232.540</ele>
        <time>2019-06-15T15:18:21Z</time>
      </trkpt>
      <trkpt lat="38.859421" lon="-0.302688">
        <ele>231.982</ele>
        <time>2019-06-15T15:18:23Z</time>
      </trkpt>
      <trkpt lat="38.859428" lon="-0.302782">
        <ele>231.719</ele>
        <time>2019-06-15T15:18:25Z</time>
      </trkpt>
      <trkpt lat="38.859428" lon="-0.302892">
        <ele>231.348</ele>
        <time>2019-06-15T15:18:27Z</time>
      </trkpt>
      <trkpt lat="38.859422" lon="-0.302973">
        <ele>230.983</ele>
        <time>2019-06-15T15:18:31Z</time>
      </trkpt>
      <trkpt lat="38.859407" lon="-0.303084">
        <ele>230.374</ele>
        <time>2019-06-15T15:18:33Z</time>
      </trkpt>
      <trkpt lat="38.859409" lon="-0.303152">
        <ele>230.456</ele>
        <time>2019-06-15T15:18:34Z</time>
      </trkpt>
      <trkpt lat="38.859419" lon="-0.303263">
        <ele>230.521</ele>
        <time>2019-06-15T15:18:36Z</time>
      </trkpt>
      <trkpt lat="38.859422" lon="-0.303381">
        <ele>230.908</ele>
        <time>2019-06-15T15:18:37Z</time>
      </trkpt>
      <trkpt lat="38.859415" lon="-0.303496">
        <ele>231.620</ele>
        <time>2019-06-15T15:18:39Z</time>
      </trkpt>
      <trkpt lat="38.859425" lon="-0.303599">
        <ele>232.514</ele>
        <time>2019-06-15T15:18:41Z</time>
      </trkpt>
      <trkpt lat="38.859440" lon="-0.303700">
        <ele>232.623</ele>
        <time>2019-06-15T15:18:43Z</time>
      </trkpt>
      <trkpt lat="38.859437" lon="-0.303815">
        <ele>232.126</ele>
        <time>2019-06-15T15:18:46Z</time>
      </trkpt>
      <trkpt lat="38.859440" lon="-0.303880">
        <ele>231.978</ele>
        <time>2019-06-15T15:18:47Z</time>
      </trkpt>
      <trkpt lat="38.859439" lon="-0.303948">
        <ele>231.695</ele>
        <time>2019-06-15T15:18:48Z</time>
      </trkpt>
      <trkpt lat="38.859440" lon="-0.304014">
        <ele>231.484</ele>
        <time>2019-06-15T15:18:49Z</time>
      </trkpt>
      <trkpt lat="38.859448" lon="-0.304080">
        <ele>231.579</ele>
        <time>2019-06-15T15:18:50Z</time>
      </trkpt>
      <trkpt lat="38.859474" lon="-0.304184">
        <ele>232.054</ele>
        <time>2019-06-15T15:18:52Z</time>
      </trkpt>
      <trkpt lat="38.859516" lon="-0.304288">
        <ele>232.656</ele>
        <time>2019-06-15T15:18:54Z</time>
      </trkpt>
      <trkpt lat="38.859542" lon="-0.304344">
        <ele>232.911</ele>
        <time>2019-06-15T15:18:55Z</time>
      </trkpt>
      <trkpt lat="38.859551" lon="-0.304437">
        <ele>232.208</ele>
        <time>2019-06-15T15:18:56Z</time>
      </trkpt>
      <trkpt lat="38.859576" lon="-0.304490">
        <ele>232.578</ele>
        <time>2019-06-15T15:18:57Z</time>
      </trkpt>
      <trkpt lat="38.859580" lon="-0.304550">
        <ele>232.182</ele>
        <time>2019-06-15T15:18:58Z</time>
      </trkpt>
      <trkpt lat="38.859599" lon="-0.304603">
        <ele>232.491</ele>
        <time>2019-06-15T15:18:59Z</time>
      </trkpt>
      <trkpt lat="38.859615" lon="-0.304667">
        <ele>232.594</ele>
        <time>2019-06-15T15:19:00Z</time>
      </trkpt>
      <trkpt lat="38.859626" lon="-0.304725">
        <ele>232.576</ele>
        <time>2019-06-15T15:19:01Z</time>
      </trkpt>
      <trkpt lat="38.859642" lon="-0.304781">
        <ele>233.153</ele>
        <time>2019-06-15T15:19:02Z</time>
      </trkpt>
      <trkpt lat="38.859658" lon="-0.304837">
        <ele>233.732</ele>
        <time>2019-06-15T15:19:03Z</time>
      </trkpt>
      <trkpt lat="38.859661" lon="-0.304907">
        <ele>233.887</ele>
        <time>2019-06-15T15:19:04Z</time>
      </trkpt>
      <trkpt lat="38.859677" lon="-0.304971">
        <ele>234.494</ele>
        <time>2019-06-15T15:19:05Z</time>
      </trkpt>
      <trkpt lat="38.859693" lon="-0.305029">
        <ele>235.057</ele>
        <time>2019-06-15T15:19:06Z</time>
      </trkpt>
      <trkpt lat="38.859713" lon="-0.305091">
        <ele>235.722</ele>
        <time>2019-06-15T15:19:07Z</time>
      </trkpt>
      <trkpt lat="38.859721" lon="-0.305150">
        <ele>236.008</ele>
        <time>2019-06-15T15:19:08Z</time>
      </trkpt>
      <trkpt lat="38.859740" lon="-0.305208">
        <ele>236.862</ele>
        <time>2019-06-15T15:19:09Z</time>
      </trkpt>
      <trkpt lat="38.859753" lon="-0.305272">
        <ele>237.396</ele>
        <time>2019-06-15T15:19:10Z</time>
      </trkpt>
      <trkpt lat="38.859775" lon="-0.305326">
        <ele>237.495</ele>
        <time>2019-06-15T15:19:11Z</time>
      </trkpt>
      <trkpt lat="38.859789" lon="-0.305385">
        <ele>236.988</ele>
        <time>2019-06-15T15:19:12Z</time>
      </trkpt>
      <trkpt lat="38.859784" lon="-0.305464">
        <ele>235.270</ele>
        <time>2019-06-15T15:19:13Z</time>
      </trkpt>
      <trkpt lat="38.859800" lon="-0.305530">
        <ele>234.647</ele>
        <time>2019-06-15T15:19:14Z</time>
      </trkpt>
      <trkpt lat="38.859810" lon="-0.305599">
        <ele>233.976</ele>
        <time>2019-06-15T15:19:15Z</time>
      </trkpt>
      <trkpt lat="38.859831" lon="-0.305660">
        <ele>234.041</ele>
        <time>2019-06-15T15:19:16Z</time>
      </trkpt>
      <trkpt lat="38.859858" lon="-0.305717">
        <ele>234.683</ele>
        <time>2019-06-15T15:19:17Z</time>
      </trkpt>
      <trkpt lat="38.859849" lon="-0.305791">
        <ele>233.325</ele>
        <time>2019-06-15T15:19:18Z</time>
      </trkpt>
      <trkpt lat="38.859858" lon="-0.305850">
        <ele>233.517</ele>
        <time>2019-06-15T15:19:19Z</time>
      </trkpt>
      <trkpt lat="38.859864" lon="-0.305909">
        <ele>234.308</ele>
        <time>2019-06-15T15:19:20Z</time>
      </trkpt>
      <trkpt lat="38.859856" lon="-0.305989">
        <ele>234.741</ele>
        <time>2019-06-15T15:19:21Z</time>
      </trkpt>
      <trkpt lat="38.859876" lon="-0.306047">
        <ele>236.185</ele>
        <time>2019-06-15T15:19:22Z</time>
      </trkpt>
      <trkpt lat="38.859912" lon="-0.306084">
        <ele>238.054</ele>
        <time>2019-06-15T15:19:23Z</time>
      </trkpt>
      <trkpt lat="38.859927" lon="-0.306204">
        <ele>242.137</ele>
        <time>2019-06-15T15:19:25Z</time>
      </trkpt>
      <trkpt lat="38.859933" lon="-0.306267">
        <ele>244.689</ele>
        <time>2019-06-15T15:19:26Z</time>
      </trkpt>
      <trkpt lat="38.859939" lon="-0.306384">
        <ele>249.176</ele>
        <time>2019-06-15T15:19:28Z</time>
      </trkpt>
      <trkpt lat="38.859973" lon="-0.306489">
        <ele>254.945</ele>
        <time>2019-06-15T15:19:30Z</time>
      </trkpt>
      <trkpt lat="38.859979" lon="-0.306548">
        <ele>257.470</ele>
        <time>2019-06-15T15:19:31Z</time>
      </trkpt>
      <trkpt lat="38.859965" lon="-0.306673">
        <ele>260.848</ele>
        <time>2019-06-15T15:19:33Z</time>
      </trkpt>
      <trkpt lat="38.859949" lon="-0.306745">
        <ele>260.961</ele>
        <time>2019-06-15T15:19:34Z</time>
      </trkpt>
      <trkpt lat="38.859949" lon="-0.306840">
        <ele>262.417</ele>
        <time>2019-06-15T15:19:36Z</time>
      </trkpt>
      <trkpt lat="38.859928" lon="-0.306903">
        <ele>261.708</ele>
        <time>2019-06-15T15:19:37Z</time>
      </trkpt>
      <trkpt lat="38.859886" lon="-0.307025">
        <ele>261.717</ele>
        <time>2019-06-15T15:19:39Z</time>
      </trkpt>
      <trkpt lat="38.859873" lon="-0.307083">
        <ele>262.421</ele>
        <time>2019-06-15T15:19:40Z</time>
      </trkpt>
      <trkpt lat="38.859853" lon="-0.307143">
        <ele>262.290</ele>
        <time>2019-06-15T15:19:41Z</time>
      </trkpt>
      <trkpt lat="38.859822" lon="-0.307225">
        <ele>261.063</ele>
        <time>2019-06-15T15:19:43Z</time>
      </trkpt>
      <trkpt lat="38.859788" lon="-0.307280">
        <ele>260.385</ele>
        <time>2019-06-15T15:19:44Z</time>
      </trkpt>
      <trkpt lat="38.859765" lon="-0.307352">
        <ele>262.532</ele>
        <time>2019-06-15T15:19:45Z</time>
      </trkpt>
      <trkpt lat="38.859736" lon="-0.307447">
        <ele>266.381</ele>
        <time>2019-06-15T15:19:47Z</time>
      </trkpt>
      <trkpt lat="38.859727" lon="-0.307554">
        <ele>270.526</ele>
        <time>2019-06-15T15:19:49Z</time>
      </trkpt>
      <trkpt lat="38.859644" lon="-0.307586">
        <ele>262.851</ele>
        <time>2019-06-15T15:19:51Z</time>
      </trkpt>
      <trkpt lat="38.859642" lon="-0.307680">
        <ele>265.201</ele>
        <time>2019-06-15T15:19:52Z</time>
      </trkpt>
      <trkpt lat="38.859602" lon="-0.307715">
        <ele>262.311</ele>
        <time>2019-06-15T15:19:53Z</time>
      </trkpt>
      <trkpt lat="38.859573" lon="-0.307760">
        <ele>261.008</ele>
        <time>2019-06-15T15:19:54Z</time>
      </trkpt>
      <trkpt lat="38.859519" lon="-0.307851">
        <ele>257.598</ele>
        <time>2019-06-15T15:19:56Z</time>
      </trkpt>
      <trkpt lat="38.859477" lon="-0.307894">
        <ele>254.722</ele>
        <time>2019-06-15T15:19:57Z</time>
      </trkpt>
      <trkpt lat="38.859452" lon="-0.307987">
        <ele>254.311</ele>
        <time>2019-06-15T15:19:58Z</time>
      </trkpt>
      <trkpt lat="38.859422" lon="-0.308046">
        <ele>253.334</ele>
        <time>2019-06-15T15:19:59Z</time>
      </trkpt>
      <trkpt lat="38.859369" lon="-0.308139">
        <ele>250.176</ele>
        <time>2019-06-15T15:20:01Z</time>
      </trkpt>
      <trkpt lat="38.859349" lon="-0.308195">
        <ele>249.063</ele>
        <time>2019-06-15T15:20:02Z</time>
      </trkpt>
      <trkpt lat="38.859283" lon="-0.308284">
        <ele>245.412</ele>
        <time>2019-06-15T15:20:04Z</time>
      </trkpt>
      <trkpt lat="38.859237" lon="-0.308375">
        <ele>243.517</ele>
        <time>2019-06-15T15:20:06Z</time>
      </trkpt>
      <trkpt lat="38.859154" lon="-0.308449">
        <ele>240.132</ele>
        <time>2019-06-15T15:20:08Z</time>
      </trkpt>
      <trkpt lat="38.859117" lon="-0.308501">
        <ele>240.392</ele>
        <time>2019-06-15T15:20:09Z</time>
      </trkpt>
      <trkpt lat="38.859078" lon="-0.308559">
        <ele>240.711</ele>
        <time>2019-06-15T15:20:10Z</time>
      </trkpt>
      <trkpt lat="38.859027" lon="-0.308592">
        <ele>240.708</ele>
        <time>2019-06-15T15:20:11Z</time>
      </trkpt>
      <trkpt lat="38.858978" lon="-0.308627">
        <ele>240.976</ele>
        <time>2019-06-15T15:20:12Z</time>
      </trkpt>
      <trkpt lat="38.858936" lon="-0.308652">
        <ele>240.930</ele>
        <time>2019-06-15T15:20:13Z</time>
      </trkpt>
      <trkpt lat="38.858900" lon="-0.308695">
        <ele>241.049</ele>
        <time>2019-06-15T15:20:14Z</time>
      </trkpt>
      <trkpt lat="38.858845" lon="-0.308735">
        <ele>240.882</ele>
        <time>2019-06-15T15:20:15Z</time>
      </trkpt>
      <trkpt lat="38.858800" lon="-0.308779">
        <ele>240.724</ele>
        <time>2019-06-15T15:20:16Z</time>
      </trkpt>
      <trkpt lat="38.858763" lon="-0.308813">
        <ele>240.761</ele>
        <time>2019-06-15T15:20:17Z</time>
      </trkpt>
      <trkpt lat="38.858688" lon="-0.308863">
        <ele>240.540</ele>
        <time>2019-06-15T15:20:19Z</time>
      </trkpt>
      <trkpt lat="38.858635" lon="-0.308950">
        <ele>240.835</ele>
        <time>2019-06-15T15:20:21Z</time>
      </trkpt>
      <trkpt lat="38.858596" lon="-0.308981">
        <ele>240.342</ele>
        <time>2019-06-15T15:20:22Z</time>
      </trkpt>
      <trkpt lat="38.858553" lon="-0.309038">
        <ele>239.722</ele>
        <time>2019-06-15T15:20:23Z</time>
      </trkpt>
      <trkpt lat="38.858484" lon="-0.309103">
        <ele>238.714</ele>
        <time>2019-06-15T15:20:25Z</time>
      </trkpt>
      <trkpt lat="38.858437" lon="-0.309139">
        <ele>238.008</ele>
        <time>2019-06-15T15:20:26Z</time>
      </trkpt>
      <trkpt lat="38.858329" lon="-0.309208">
        <ele>236.787</ele>
        <time>2019-06-15T15:20:28Z</time>
      </trkpt>
      <trkpt lat="38.858268" lon="-0.309282">
        <ele>237.251</ele>
        <time>2019-06-15T15:20:30Z</time>
      </trkpt>
      <trkpt lat="38.858197" lon="-0.309332">
        <ele>236.960</ele>
        <time>2019-06-15T15:20:32Z</time>
      </trkpt>
      <trkpt lat="38.858129" lon="-0.309399">
        <ele>236.763</ele>
        <time>2019-06-15T15:20:34Z</time>
      </trkpt>
      <trkpt lat="38.858063" lon="-0.309465">
        <ele>236.595</ele>
        <time>2019-06-15T15:20:36Z</time>
      </trkpt>
      <trkpt lat="38.858018" lon="-0.309500">
        <ele>236.612</ele>
        <time>2019-06-15T15:20:37Z</time>
      </trkpt>
      <trkpt lat="38.857962" lon="-0.309529">
        <ele>236.571</ele>
        <time>2019-06-15T15:20:38Z</time>
      </trkpt>
      <trkpt lat="38.857927" lon="-0.309598">
        <ele>237.166</ele>
        <time>2019-06-15T15:20:40Z</time>
      </trkpt>
      <trkpt lat="38.857883" lon="-0.309665">
        <ele>237.283</ele>
        <time>2019-06-15T15:20:42Z</time>
      </trkpt>
      <trkpt lat="38.857849" lon="-0.309704">
        <ele>237.125</ele>
        <time>2019-06-15T15:20:43Z</time>
      </trkpt>
      <trkpt lat="38.857819" lon="-0.309752">
        <ele>237.217</ele>
        <time>2019-06-15T15:20:44Z</time>
      </trkpt>
      <trkpt lat="38.857768" lon="-0.309819">
        <ele>237.308</ele>
        <time>2019-06-15T15:20:46Z</time>
      </trkpt>
      <trkpt lat="38.857729" lon="-0.309851">
        <ele>237.661</ele>
        <time>2019-06-15T15:20:47Z</time>
      </trkpt>
      <trkpt lat="38.857694" lon="-0.309901">
        <ele>238.185</ele>
        <time>2019-06-15T15:20:50Z</time>
      </trkpt>
      <trkpt lat="38.857585" lon="-0.309991">
        <ele>238.534</ele>
        <time>2019-06-15T15:20:53Z</time>
      </trkpt>
      <trkpt lat="38.857551" lon="-0.310032">
        <ele>238.627</ele>
        <time>2019-06-15T15:20:54Z</time>
      </trkpt>
      <trkpt lat="38.857519" lon="-0.310085">
        <ele>238.889</ele>
        <time>2019-06-15T15:20:57Z</time>
      </trkpt>
      <trkpt lat="38.857431" lon="-0.310206">
        <ele>238.946</ele>
        <time>2019-06-15T15:21:00Z</time>
      </trkpt>
      <trkpt lat="38.857368" lon="-0.310259">
        <ele>238.955</ele>
        <time>2019-06-15T15:21:01Z</time>
      </trkpt>
      <trkpt lat="38.857325" lon="-0.310302">
        <ele>239.080</ele>
        <time>2019-06-15T15:21:02Z</time>
      </trkpt>
      <trkpt lat="38.857244" lon="-0.310383">
        <ele>239.395</ele>
        <time>2019-06-15T15:21:04Z</time>
      </trkpt>
      <trkpt lat="38.857202" lon="-0.310411">
        <ele>239.449</ele>
        <time>2019-06-15T15:21:05Z</time>
      </trkpt>
      <trkpt lat="38.857171" lon="-0.310459">
        <ele>239.823</ele>
        <time>2019-06-15T15:21:06Z</time>
      </trkpt>
      <trkpt lat="38.857134" lon="-0.310516">
        <ele>240.508</ele>
        <time>2019-06-15T15:21:09Z</time>
      </trkpt>
      <trkpt lat="38.857087" lon="-0.310554">
        <ele>241.032</ele>
        <time>2019-06-15T15:21:11Z</time>
      </trkpt>
      <trkpt lat="38.857042" lon="-0.310582">
        <ele>241.486</ele>
        <time>2019-06-15T15:21:13Z</time>
      </trkpt>
      <trkpt lat="38.856986" lon="-0.310613">
        <ele>241.755</ele>
        <time>2019-06-15T15:21:16Z</time>
      </trkpt>
      <trkpt lat="38.856942" lon="-0.310671">
        <ele>242.298</ele>
        <time>2019-06-15T15:21:17Z</time>
      </trkpt>
      <trkpt lat="38.856908" lon="-0.310712">
        <ele>242.370</ele>
        <time>2019-06-15T15:21:18Z</time>
      </trkpt>
      <trkpt lat="38.856875" lon="-0.310756">
        <ele>242.457</ele>
        <time>2019-06-15T15:21:19Z</time>
      </trkpt>
      <trkpt lat="38.856758" lon="-0.310918">
        <ele>242.126</ele>
        <time>2019-06-15T15:21:20Z</time>
      </trkpt>
      <trkpt lat="38.856695" lon="-0.310994">
        <ele>241.471</ele>
        <time>2019-06-15T15:21:22Z</time>
      </trkpt>
      <trkpt lat="38.856636" lon="-0.311019">
        <ele>240.936</ele>
        <time>2019-06-15T15:21:24Z</time>
      </trkpt>
      <trkpt lat="38.856585" lon="-0.311035">
        <ele>240.817</ele>
        <time>2019-06-15T15:21:26Z</time>
      </trkpt>
      <trkpt lat="38.856508" lon="-0.311057">
        <ele>240.718</ele>
        <time>2019-06-15T15:21:28Z</time>
      </trkpt>
      <trkpt lat="38.856368" lon="-0.311118">
        <ele>241.408</ele>
        <time>2019-06-15T15:21:30Z</time>
      </trkpt>
      <trkpt lat="38.856323" lon="-0.311154">
        <ele>242.426</ele>
        <time>2019-06-15T15:21:31Z</time>
      </trkpt>
      <trkpt lat="38.856266" lon="-0.311168">
        <ele>243.480</ele>
        <time>2019-06-15T15:21:32Z</time>
      </trkpt>
      <trkpt lat="38.856194" lon="-0.311194">
        <ele>244.719</ele>
        <time>2019-06-15T15:21:34Z</time>
      </trkpt>
      <trkpt lat="38.856145" lon="-0.311214">
        <ele>245.632</ele>
        <time>2019-06-15T15:21:36Z</time>
      </trkpt>
      <trkpt lat="38.856060" lon="-0.311250">
        <ele>246.354</ele>
        <time>2019-06-15T15:21:37Z</time>
      </trkpt>
      <trkpt lat="38.855980" lon="-0.311293">
        <ele>246.381</ele>
        <time>2019-06-15T15:21:39Z</time>
      </trkpt>
      <trkpt lat="38.855893" lon="-0.311314">
        <ele>246.040</ele>
        <time>2019-06-15T15:21:41Z</time>
      </trkpt>
      <trkpt lat="38.855828" lon="-0.311346">
        <ele>245.845</ele>
        <time>2019-06-15T15:21:43Z</time>
      </trkpt>
      <trkpt lat="38.855773" lon="-0.311356">
        <ele>245.634</ele>
        <time>2019-06-15T15:21:47Z</time>
      </trkpt>
      <trkpt lat="38.855668" lon="-0.311371">
        <ele>245.255</ele>
        <time>2019-06-15T15:21:48Z</time>
      </trkpt>
      <trkpt lat="38.855581" lon="-0.311384">
        <ele>245.010</ele>
        <time>2019-06-15T15:21:50Z</time>
      </trkpt>
      <trkpt lat="38.855533" lon="-0.311390">
        <ele>245.008</ele>
        <time>2019-06-15T15:21:51Z</time>
      </trkpt>
      <trkpt lat="38.855453" lon="-0.311413">
        <ele>245.636</ele>
        <time>2019-06-15T15:21:53Z</time>
      </trkpt>
      <trkpt lat="38.855372" lon="-0.311439">
        <ele>246.310</ele>
        <time>2019-06-15T15:21:55Z</time>
      </trkpt>
      <trkpt lat="38.855300" lon="-0.311464">
        <ele>247.189</ele>
        <time>2019-06-15T15:21:56Z</time>
      </trkpt>
      <trkpt lat="38.855225" lon="-0.311502">
        <ele>247.542</ele>
        <time>2019-06-15T15:21:58Z</time>
      </trkpt>
      <trkpt lat="38.855152" lon="-0.311526">
        <ele>247.444</ele>
        <time>2019-06-15T15:22:00Z</time>
      </trkpt>
      <trkpt lat="38.855082" lon="-0.311523">
        <ele>246.491</ele>
        <time>2019-06-15T15:22:02Z</time>
      </trkpt>
      <trkpt lat="38.855037" lon="-0.311530">
        <ele>246.110</ele>
        <time>2019-06-15T15:22:04Z</time>
      </trkpt>
      <trkpt lat="38.854923" lon="-0.311564">
        <ele>246.295</ele>
        <time>2019-06-15T15:22:08Z</time>
      </trkpt>
      <trkpt lat="38.854854" lon="-0.311601">
        <ele>246.854</ele>
        <time>2019-06-15T15:22:10Z</time>
      </trkpt>
      <trkpt lat="38.854783" lon="-0.311649">
        <ele>247.456</ele>
        <time>2019-06-15T15:22:12Z</time>
      </trkpt>
      <trkpt lat="38.854719" lon="-0.311696">
        <ele>247.711</ele>
        <time>2019-06-15T15:22:14Z</time>
      </trkpt>
      <trkpt lat="38.854640" lon="-0.311760">
        <ele>248.408</ele>
        <time>2019-06-15T15:22:16Z</time>
      </trkpt>
      <trkpt lat="38.854610" lon="-0.311804">
        <ele>249.048</ele>
        <time>2019-06-15T15:22:17Z</time>
      </trkpt>
      <trkpt lat="38.854537" lon="-0.311852">
        <ele>249.262</ele>
        <time>2019-06-15T15:22:19Z</time>
      </trkpt>
      <trkpt lat="38.854456" lon="-0.311906">
        <ele>249.341</ele>
        <time>2019-06-15T15:22:21Z</time>
      </trkpt>
      <trkpt lat="38.854425" lon="-0.311954">
        <ele>250.014</ele>
        <time>2019-06-15T15:22:23Z</time>
      </trkpt>
      <trkpt lat="38.854389" lon="-0.311999">
        <ele>250.696</ele>
        <time>2019-06-15T15:22:26Z</time>
      </trkpt>
      <trkpt lat="38.854260" lon="-0.312086">
        <ele>250.913</ele>
        <time>2019-06-15T15:22:30Z</time>
      </trkpt>
      <trkpt lat="38.854154" lon="-0.312234">
        <ele>253.112</ele>
        <time>2019-06-15T15:22:31Z</time>
      </trkpt>
      <trkpt lat="38.854104" lon="-0.312308">
        <ele>254.087</ele>
        <time>2019-06-15T15:22:33Z</time>
      </trkpt>
      <trkpt lat="38.854064" lon="-0.312343">
        <ele>254.156</ele>
        <time>2019-06-15T15:22:34Z</time>
      </trkpt>
      <trkpt lat="38.854021" lon="-0.312391">
        <ele>254.459</ele>
        <time>2019-06-15T15:22:35Z</time>
      </trkpt>
      <trkpt lat="38.853985" lon="-0.312430">
        <ele>254.614</ele>
        <time>2019-06-15T15:22:36Z</time>
      </trkpt>
      <trkpt lat="38.853928" lon="-0.312502">
        <ele>255.008</ele>
        <time>2019-06-15T15:22:38Z</time>
      </trkpt>
      <trkpt lat="38.853894" lon="-0.312577">
        <ele>256.468</ele>
        <time>2019-06-15T15:22:41Z</time>
      </trkpt>
      <trkpt lat="38.853841" lon="-0.312664">
        <ele>256.782</ele>
        <time>2019-06-15T15:22:42Z</time>
      </trkpt>
      <trkpt lat="38.853803" lon="-0.312719">
        <ele>256.351</ele>
        <time>2019-06-15T15:22:44Z</time>
      </trkpt>
      <trkpt lat="38.853753" lon="-0.312790">
        <ele>255.414</ele>
        <time>2019-06-15T15:22:46Z</time>
      </trkpt>
      <trkpt lat="38.853697" lon="-0.312868">
        <ele>254.366</ele>
        <time>2019-06-15T15:22:48Z</time>
      </trkpt>
      <trkpt lat="38.853665" lon="-0.312929">
        <ele>253.883</ele>
        <time>2019-06-15T15:22:52Z</time>
      </trkpt>
      <trkpt lat="38.853627" lon="-0.312991">
        <ele>252.832</ele>
        <time>2019-06-15T15:22:55Z</time>
      </trkpt>
      <trkpt lat="38.853594" lon="-0.313047">
        <ele>252.487</ele>
        <time>2019-06-15T15:22:57Z</time>
      </trkpt>
      <trkpt lat="38.853551" lon="-0.313114">
        <ele>253.472</ele>
        <time>2019-06-15T15:22:59Z</time>
      </trkpt>
      <trkpt lat="38.853506" lon="-0.313181">
        <ele>254.113</ele>
        <time>2019-06-15T15:23:01Z</time>
      </trkpt>
      <trkpt lat="38.853460" lon="-0.313251">
        <ele>254.514</ele>
        <time>2019-06-15T15:23:03Z</time>
      </trkpt>
      <trkpt lat="38.853410" lon="-0.313327">
        <ele>254.408</ele>
        <time>2019-06-15T15:23:05Z</time>
      </trkpt>
      <trkpt lat="38.853354" lon="-0.313409">
        <ele>254.840</ele>
        <time>2019-06-15T15:23:07Z</time>
      </trkpt>
      <trkpt lat="38.853305" lon="-0.313485">
        <ele>255.714</ele>
        <time>2019-06-15T15:23:09Z</time>
      </trkpt>
      <trkpt lat="38.853106" lon="-0.313743">
        <ele>258.683</ele>
        <time>2019-06-15T15:23:11Z</time>
      </trkpt>
      <trkpt lat="38.853036" lon="-0.313799">
        <ele>257.796</ele>
        <time>2019-06-15T15:23:13Z</time>
      </trkpt>
      <trkpt lat="38.852990" lon="-0.313837">
        <ele>257.258</ele>
        <time>2019-06-15T15:23:15Z</time>
      </trkpt>
      <trkpt lat="38.852947" lon="-0.313887">
        <ele>257.035</ele>
        <time>2019-06-15T15:23:16Z</time>
      </trkpt>
      <trkpt lat="38.852911" lon="-0.313938">
        <ele>256.654</ele>
        <time>2019-06-15T15:23:17Z</time>
      </trkpt>
      <trkpt lat="38.852874" lon="-0.313983">
        <ele>255.979</ele>
        <time>2019-06-15T15:23:19Z</time>
      </trkpt>
      <trkpt lat="38.852838" lon="-0.314033">
        <ele>255.441</ele>
        <time>2019-06-15T15:23:22Z</time>
      </trkpt>
      <trkpt lat="38.852800" lon="-0.314073">
        <ele>254.581</ele>
        <time>2019-06-15T15:23:25Z</time>
      </trkpt>
      <trkpt lat="38.852735" lon="-0.314165">
        <ele>253.909</ele>
        <time>2019-06-15T15:23:27Z</time>
      </trkpt>
      <trkpt lat="38.852707" lon="-0.314211">
        <ele>253.508</ele>
        <time>2019-06-15T15:23:28Z</time>
      </trkpt>
      <trkpt lat="38.852608" lon="-0.314398">
        <ele>253.177</ele>
        <time>2019-06-15T15:23:30Z</time>
      </trkpt>
      <trkpt lat="38.852594" lon="-0.314471">
        <ele>253.981</ele>
        <time>2019-06-15T15:23:32Z</time>
      </trkpt>
      <trkpt lat="38.852558" lon="-0.314525">
        <ele>254.550</ele>
        <time>2019-06-15T15:23:33Z</time>
      </trkpt>
      <trkpt lat="38.852516" lon="-0.314567">
        <ele>254.513</ele>
        <time>2019-06-15T15:23:34Z</time>
      </trkpt>
      <trkpt lat="38.852479" lon="-0.314616">
        <ele>254.735</ele>
        <time>2019-06-15T15:23:36Z</time>
      </trkpt>
      <trkpt lat="38.852447" lon="-0.314672">
        <ele>255.132</ele>
        <time>2019-06-15T15:23:39Z</time>
      </trkpt>
      <trkpt lat="38.852413" lon="-0.314835">
        <ele>256.791</ele>
        <time>2019-06-15T15:23:41Z</time>
      </trkpt>
      <trkpt lat="38.852379" lon="-0.314955">
        <ele>257.126</ele>
        <time>2019-06-15T15:23:43Z</time>
      </trkpt>
      <trkpt lat="38.852349" lon="-0.315018">
        <ele>256.648</ele>
        <time>2019-06-15T15:23:44Z</time>
      </trkpt>
      <trkpt lat="38.852335" lon="-0.315108">
        <ele>256.061</ele>
        <time>2019-06-15T15:23:46Z</time>
      </trkpt>
      <trkpt lat="38.852333" lon="-0.315208">
        <ele>255.717</ele>
        <time>2019-06-15T15:23:48Z</time>
      </trkpt>
      <trkpt lat="38.852337" lon="-0.315302">
        <ele>255.508</ele>
        <time>2019-06-15T15:23:50Z</time>
      </trkpt>
      <trkpt lat="38.852338" lon="-0.315364">
        <ele>254.967</ele>
        <time>2019-06-15T15:23:53Z</time>
      </trkpt>
      <trkpt lat="38.852338" lon="-0.315455">
        <ele>254.181</ele>
        <time>2019-06-15T15:23:56Z</time>
      </trkpt>
      <trkpt lat="38.852331" lon="-0.315602">
        <ele>252.560</ele>
        <time>2019-06-15T15:24:38Z</time>
      </trkpt>
      <trkpt lat="38.852367" lon="-0.315685">
        <ele>252.273</ele>
        <time>2019-06-15T15:24:39Z</time>
      </trkpt>
      <trkpt lat="38.852407" lon="-0.315770">
        <ele>252.095</ele>
        <time>2019-06-15T15:24:41Z</time>
      </trkpt>
      <trkpt lat="38.852458" lon="-0.315828">
        <ele>252.322</ele>
        <time>2019-06-15T15:24:42Z</time>
      </trkpt>
      <trkpt lat="38.852493" lon="-0.315888">
        <ele>252.751</ele>
        <time>2019-06-15T15:24:43Z</time>
      </trkpt>
      <trkpt lat="38.852521" lon="-0.315938">
        <ele>253.156</ele>
        <time>2019-06-15T15:24:44Z</time>
      </trkpt>
      <trkpt lat="38.852551" lon="-0.315982">
        <ele>253.514</ele>
        <time>2019-06-15T15:24:45Z</time>
      </trkpt>
      <trkpt lat="38.852588" lon="-0.316036">
        <ele>253.954</ele>
        <time>2019-06-15T15:24:46Z</time>
      </trkpt>
      <trkpt lat="38.852641" lon="-0.316141">
        <ele>253.809</ele>
        <time>2019-06-15T15:24:48Z</time>
      </trkpt>
      <trkpt lat="38.852681" lon="-0.316196">
        <ele>254.008</ele>
        <time>2019-06-15T15:24:49Z</time>
      </trkpt>
      <trkpt lat="38.852735" lon="-0.316291">
        <ele>254.184</ele>
        <time>2019-06-15T15:24:51Z</time>
      </trkpt>
      <trkpt lat="38.852779" lon="-0.316344">
        <ele>254.338</ele>
        <time>2019-06-15T15:24:52Z</time>
      </trkpt>
      <trkpt lat="38.852829" lon="-0.316364">
        <ele>254.887</ele>
        <time>2019-06-15T15:24:53Z</time>
      </trkpt>
      <trkpt lat="38.852879" lon="-0.316389">
        <ele>255.180</ele>
        <time>2019-06-15T15:24:54Z</time>
      </trkpt>
      <trkpt lat="38.852947" lon="-0.316458">
        <ele>254.972</ele>
        <time>2019-06-15T15:24:56Z</time>
      </trkpt>
      <trkpt lat="38.852997" lon="-0.316521">
        <ele>254.699</ele>
        <time>2019-06-15T15:24:57Z</time>
      </trkpt>
      <trkpt lat="38.853050" lon="-0.316529">
        <ele>254.968</ele>
        <time>2019-06-15T15:24:58Z</time>
      </trkpt>
      <trkpt lat="38.853127" lon="-0.316594">
        <ele>254.853</ele>
        <time>2019-06-15T15:25:00Z</time>
      </trkpt>
      <trkpt lat="38.853202" lon="-0.316665">
        <ele>254.174</ele>
        <time>2019-06-15T15:25:02Z</time>
      </trkpt>
      <trkpt lat="38.853246" lon="-0.316702">
        <ele>254.256</ele>
        <time>2019-06-15T15:25:03Z</time>
      </trkpt>
      <trkpt lat="38.853293" lon="-0.316731">
        <ele>254.321</ele>
        <time>2019-06-15T15:25:04Z</time>
      </trkpt>
      <trkpt lat="38.853335" lon="-0.316758">
        <ele>254.408</ele>
        <time>2019-06-15T15:25:05Z</time>
      </trkpt>
      <trkpt lat="38.853405" lon="-0.316818">
        <ele>256.580</ele>
        <time>2019-06-15T15:25:07Z</time>
      </trkpt>
      <trkpt lat="38.853439" lon="-0.316864">
        <ele>257.474</ele>
        <time>2019-06-15T15:25:08Z</time>
      </trkpt>
      <trkpt lat="38.853488" lon="-0.316891">
        <ele>259.093</ele>
        <time>2019-06-15T15:25:09Z</time>
      </trkpt>
      <trkpt lat="38.853516" lon="-0.316945">
        <ele>259.656</ele>
        <time>2019-06-15T15:25:10Z</time>
      </trkpt>
      <trkpt lat="38.853581" lon="-0.317022">
        <ele>261.248</ele>
        <time>2019-06-15T15:25:12Z</time>
      </trkpt>
      <trkpt lat="38.853623" lon="-0.317060">
        <ele>262.185</ele>
        <time>2019-06-15T15:25:13Z</time>
      </trkpt>
      <trkpt lat="38.853684" lon="-0.317152">
        <ele>263.164</ele>
        <time>2019-06-15T15:25:15Z</time>
      </trkpt>
      <trkpt lat="38.853726" lon="-0.317250">
        <ele>263.589</ele>
        <time>2019-06-15T15:25:17Z</time>
      </trkpt>
      <trkpt lat="38.853770" lon="-0.317271">
        <ele>264.858</ele>
        <time>2019-06-15T15:25:18Z</time>
      </trkpt>
      <trkpt lat="38.853813" lon="-0.317349">
        <ele>265.452</ele>
        <time>2019-06-15T15:25:20Z</time>
      </trkpt>
      <trkpt lat="38.853868" lon="-0.317436">
        <ele>266.117</ele>
        <time>2019-06-15T15:25:22Z</time>
      </trkpt>
      <trkpt lat="38.853896" lon="-0.317491">
        <ele>266.208</ele>
        <time>2019-06-15T15:25:24Z</time>
      </trkpt>
      <trkpt lat="38.853927" lon="-0.317534">
        <ele>266.428</ele>
        <time>2019-06-15T15:25:27Z</time>
      </trkpt>
      <trkpt lat="38.853956" lon="-0.317589">
        <ele>266.562</ele>
        <time>2019-06-15T15:25:31Z</time>
      </trkpt>
      <trkpt lat="38.853984" lon="-0.317644">
        <ele>266.571</ele>
        <time>2019-06-15T15:25:34Z</time>
      </trkpt>
      <trkpt lat="38.854100" lon="-0.318118">
        <ele>265.764</ele>
        <time>2019-06-15T15:25:36Z</time>
      </trkpt>
      <trkpt lat="38.854118" lon="-0.318216">
        <ele>266.326</ele>
        <time>2019-06-15T15:25:38Z</time>
      </trkpt>
      <trkpt lat="38.854133" lon="-0.318322">
        <ele>267.013</ele>
        <time>2019-06-15T15:25:40Z</time>
      </trkpt>
      <trkpt lat="38.854140" lon="-0.318418">
        <ele>267.652</ele>
        <time>2019-06-15T15:25:42Z</time>
      </trkpt>
      <trkpt lat="38.854148" lon="-0.318487">
        <ele>268.157</ele>
        <time>2019-06-15T15:25:44Z</time>
      </trkpt>
      <trkpt lat="38.854137" lon="-0.318550">
        <ele>268.059</ele>
        <time>2019-06-15T15:25:50Z</time>
      </trkpt>
      <trkpt lat="38.854116" lon="-0.318948">
        <ele>269.803</ele>
        <time>2019-06-15T15:25:52Z</time>
      </trkpt>
      <trkpt lat="38.854085" lon="-0.319054">
        <ele>269.223</ele>
        <time>2019-06-15T15:25:54Z</time>
      </trkpt>
      <trkpt lat="38.854078" lon="-0.319136">
        <ele>269.308</ele>
        <time>2019-06-15T15:25:56Z</time>
      </trkpt>
      <trkpt lat="38.854062" lon="-0.319238">
        <ele>269.288</ele>
        <time>2019-06-15T15:25:58Z</time>
      </trkpt>
      <trkpt lat="38.854045" lon="-0.319302">
        <ele>269.062</ele>
        <time>2019-06-15T15:26:00Z</time>
      </trkpt>
      <trkpt lat="38.854045" lon="-0.319361">
        <ele>269.241</ele>
        <time>2019-06-15T15:26:04Z</time>
      </trkpt>
      <trkpt lat="38.854014" lon="-0.319658">
        <ele>270.174</ele>
        <time>2019-06-15T15:26:08Z</time>
      </trkpt>
      <trkpt lat="38.853985" lon="-0.319723">
        <ele>269.846</ele>
        <time>2019-06-15T15:26:10Z</time>
      </trkpt>
      <trkpt lat="38.853932" lon="-0.319826">
        <ele>268.973</ele>
        <time>2019-06-15T15:26:12Z</time>
      </trkpt>
      <trkpt lat="38.853912" lon="-0.319906">
        <ele>268.972</ele>
        <time>2019-06-15T15:26:15Z</time>
      </trkpt>
      <trkpt lat="38.853884" lon="-0.319973">
        <ele>268.747</ele>
        <time>2019-06-15T15:26:18Z</time>
      </trkpt>
      <trkpt lat="38.853844" lon="-0.320033">
        <ele>268.069</ele>
        <time>2019-06-15T15:26:20Z</time>
      </trkpt>
      <trkpt lat="38.853744" lon="-0.320140">
        <ele>266.104</ele>
        <time>2019-06-15T15:26:21Z</time>
      </trkpt>
      <trkpt lat="38.853691" lon="-0.320238">
        <ele>265.624</ele>
        <time>2019-06-15T15:26:23Z</time>
      </trkpt>
      <trkpt lat="38.853643" lon="-0.320312">
        <ele>264.808</ele>
        <time>2019-06-15T15:26:25Z</time>
      </trkpt>
      <trkpt lat="38.853590" lon="-0.320372">
        <ele>263.919</ele>
        <time>2019-06-15T15:26:27Z</time>
      </trkpt>
      <trkpt lat="38.853556" lon="-0.320420">
        <ele>263.993</ele>
        <time>2019-06-15T15:26:29Z</time>
      </trkpt>
      <trkpt lat="38.853505" lon="-0.320469">
        <ele>263.942</ele>
        <time>2019-06-15T15:26:32Z</time>
      </trkpt>
      <trkpt lat="38.853442" lon="-0.320525">
        <ele>263.975</ele>
        <time>2019-06-15T15:26:33Z</time>
      </trkpt>
      <trkpt lat="38.853361" lon="-0.320609">
        <ele>264.497</ele>
        <time>2019-06-15T15:26:36Z</time>
      </trkpt>
      <trkpt lat="38.853316" lon="-0.320641">
        <ele>264.994</ele>
        <time>2019-06-15T15:26:37Z</time>
      </trkpt>
      <trkpt lat="38.853272" lon="-0.320678">
        <ele>265.993</ele>
        <time>2019-06-15T15:26:41Z</time>
      </trkpt>
      <trkpt lat="38.853232" lon="-0.320708">
        <ele>266.828</ele>
        <time>2019-06-15T15:26:43Z</time>
      </trkpt>
      <trkpt lat="38.853175" lon="-0.320752">
        <ele>268.149</ele>
        <time>2019-06-15T15:26:45Z</time>
      </trkpt>
      <trkpt lat="38.853104" lon="-0.320803">
        <ele>269.802</ele>
        <time>2019-06-15T15:26:47Z</time>
      </trkpt>
      <trkpt lat="38.853028" lon="-0.320854">
        <ele>271.422</ele>
        <time>2019-06-15T15:26:49Z</time>
      </trkpt>
      <trkpt lat="38.852957" lon="-0.320897">
        <ele>272.108</ele>
        <time>2019-06-15T15:26:51Z</time>
      </trkpt>
      <trkpt lat="38.852879" lon="-0.320945">
        <ele>273.077</ele>
        <time>2019-06-15T15:26:53Z</time>
      </trkpt>
      <trkpt lat="38.852812" lon="-0.320992">
        <ele>274.161</ele>
        <time>2019-06-15T15:26:55Z</time>
      </trkpt>
      <trkpt lat="38.852771" lon="-0.321021">
        <ele>274.510</ele>
        <time>2019-06-15T15:26:56Z</time>
      </trkpt>
      <trkpt lat="38.852727" lon="-0.321041">
        <ele>273.863</ele>
        <time>2019-06-15T15:26:57Z</time>
      </trkpt>
      <trkpt lat="38.852647" lon="-0.321092">
        <ele>272.885</ele>
        <time>2019-06-15T15:26:59Z</time>
      </trkpt>
      <trkpt lat="38.852581" lon="-0.321133">
        <ele>272.242</ele>
        <time>2019-06-15T15:27:01Z</time>
      </trkpt>
      <trkpt lat="38.852524" lon="-0.321175">
        <ele>272.661</ele>
        <time>2019-06-15T15:27:03Z</time>
      </trkpt>
      <trkpt lat="38.852466" lon="-0.321215">
        <ele>273.136</ele>
        <time>2019-06-15T15:27:05Z</time>
      </trkpt>
      <trkpt lat="38.852422" lon="-0.321249">
        <ele>273.681</ele>
        <time>2019-06-15T15:27:07Z</time>
      </trkpt>
      <trkpt lat="38.852376" lon="-0.321287">
        <ele>274.261</ele>
        <time>2019-06-15T15:27:09Z</time>
      </trkpt>
      <trkpt lat="38.852310" lon="-0.321349">
        <ele>275.017</ele>
        <time>2019-06-15T15:27:12Z</time>
      </trkpt>
      <trkpt lat="38.852235" lon="-0.321402">
        <ele>275.308</ele>
        <time>2019-06-15T15:27:14Z</time>
      </trkpt>
      <trkpt lat="38.852196" lon="-0.321434">
        <ele>277.411</ele>
        <time>2019-06-15T15:27:15Z</time>
      </trkpt>
      <trkpt lat="38.852127" lon="-0.321490">
        <ele>280.815</ele>
        <time>2019-06-15T15:27:17Z</time>
      </trkpt>
      <trkpt lat="38.852071" lon="-0.321534">
        <ele>282.624</ele>
        <time>2019-06-15T15:27:19Z</time>
      </trkpt>
      <trkpt lat="38.852018" lon="-0.321578">
        <ele>283.847</ele>
        <time>2019-06-15T15:27:21Z</time>
      </trkpt>
      <trkpt lat="38.851963" lon="-0.321624">
        <ele>284.259</ele>
        <time>2019-06-15T15:27:23Z</time>
      </trkpt>
      <trkpt lat="38.851913" lon="-0.321665">
        <ele>284.416</ele>
        <time>2019-06-15T15:27:25Z</time>
      </trkpt>
      <trkpt lat="38.851865" lon="-0.321702">
        <ele>285.095</ele>
        <time>2019-06-15T15:27:27Z</time>
      </trkpt>
      <trkpt lat="38.851824" lon="-0.321733">
        <ele>285.380</ele>
        <time>2019-06-15T15:27:29Z</time>
      </trkpt>
      <trkpt lat="38.851700" lon="-0.321862">
        <ele>286.694</ele>
        <time>2019-06-15T15:27:32Z</time>
      </trkpt>
      <trkpt lat="38.851656" lon="-0.321903">
        <ele>286.557</ele>
        <time>2019-06-15T15:27:33Z</time>
      </trkpt>
      <trkpt lat="38.851601" lon="-0.321959">
        <ele>286.322</ele>
        <time>2019-06-15T15:27:35Z</time>
      </trkpt>
      <trkpt lat="38.851520" lon="-0.322035">
        <ele>285.708</ele>
        <time>2019-06-15T15:27:36Z</time>
      </trkpt>
      <trkpt lat="38.851472" lon="-0.322063">
        <ele>284.822</ele>
        <time>2019-06-15T15:27:37Z</time>
      </trkpt>
      <trkpt lat="38.851427" lon="-0.322131">
        <ele>285.056</ele>
        <time>2019-06-15T15:27:39Z</time>
      </trkpt>
      <trkpt lat="38.851369" lon="-0.322127">
        <ele>283.015</ele>
        <time>2019-06-15T15:27:42Z</time>
      </trkpt>
      <trkpt lat="38.851317" lon="-0.322141">
        <ele>281.948</ele>
        <time>2019-06-15T15:27:44Z</time>
      </trkpt>
      <trkpt lat="38.851264" lon="-0.322173">
        <ele>281.290</ele>
        <time>2019-06-15T15:27:46Z</time>
      </trkpt>
      <trkpt lat="38.851206" lon="-0.322222">
        <ele>280.777</ele>
        <time>2019-06-15T15:27:48Z</time>
      </trkpt>
      <trkpt lat="38.851152" lon="-0.322269">
        <ele>279.976</ele>
        <time>2019-06-15T15:27:50Z</time>
      </trkpt>
      <trkpt lat="38.851085" lon="-0.322317">
        <ele>278.941</ele>
        <time>2019-06-15T15:27:52Z</time>
      </trkpt>
      <trkpt lat="38.850955" lon="-0.322429">
        <ele>277.513</ele>
        <time>2019-06-15T15:27:54Z</time>
      </trkpt>
      <trkpt lat="38.850922" lon="-0.322478">
        <ele>277.743</ele>
        <time>2019-06-15T15:27:57Z</time>
      </trkpt>
      <trkpt lat="38.850885" lon="-0.322532">
        <ele>277.807</ele>
        <time>2019-06-15T15:27:59Z</time>
      </trkpt>
      <trkpt lat="38.850845" lon="-0.322595">
        <ele>278.008</ele>
        <time>2019-06-15T15:28:01Z</time>
      </trkpt>
      <trkpt lat="38.850813" lon="-0.322645">
        <ele>278.344</ele>
        <time>2019-06-15T15:28:03Z</time>
      </trkpt>
      <trkpt lat="38.850788" lon="-0.322708">
        <ele>279.148</ele>
        <time>2019-06-15T15:28:05Z</time>
      </trkpt>
      <trkpt lat="38.850748" lon="-0.322824">
        <ele>280.837</ele>
        <time>2019-06-15T15:28:06Z</time>
      </trkpt>
      <trkpt lat="38.850720" lon="-0.322897">
        <ele>281.890</ele>
        <time>2019-06-15T15:28:08Z</time>
      </trkpt>
      <trkpt lat="38.850692" lon="-0.322968">
        <ele>282.712</ele>
        <time>2019-06-15T15:28:09Z</time>
      </trkpt>
      <trkpt lat="38.850666" lon="-0.323022">
        <ele>283.229</ele>
        <time>2019-06-15T15:28:11Z</time>
      </trkpt>
      <trkpt lat="38.850617" lon="-0.323118">
        <ele>283.858</ele>
        <time>2019-06-15T15:28:12Z</time>
      </trkpt>
      <trkpt lat="38.850593" lon="-0.323181">
        <ele>284.693</ele>
        <time>2019-06-15T15:28:15Z</time>
      </trkpt>
      <trkpt lat="38.850545" lon="-0.323340">
        <ele>287.036</ele>
        <time>2019-06-15T15:28:17Z</time>
      </trkpt>
      <trkpt lat="38.850541" lon="-0.323401">
        <ele>288.117</ele>
        <time>2019-06-15T15:28:20Z</time>
      </trkpt>
      <trkpt lat="38.850525" lon="-0.323478">
        <ele>289.318</ele>
        <time>2019-06-15T15:28:22Z</time>
      </trkpt>
      <trkpt lat="38.850497" lon="-0.323533">
        <ele>290.008</ele>
        <time>2019-06-15T15:28:24Z</time>
      </trkpt>
      <trkpt lat="38.850408" lon="-0.323420">
        <ele>287.386</ele>
        <time>2019-06-15T15:29:47Z</time>
      </trkpt>
      <trkpt lat="38.850388" lon="-0.323310">
        <ele>285.330</ele>
        <time>2019-06-15T15:29:48Z</time>
      </trkpt>
      <trkpt lat="38.850396" lon="-0.323227">
        <ele>283.839</ele>
        <time>2019-06-15T15:29:49Z</time>
      </trkpt>
      <trkpt lat="38.850353" lon="-0.323180">
        <ele>282.682</ele>
        <time>2019-06-15T15:29:50Z</time>
      </trkpt>
      <trkpt lat="38.850310" lon="-0.323211">
        <ele>283.024</ele>
        <time>2019-06-15T15:29:51Z</time>
      </trkpt>
      <trkpt lat="38.850252" lon="-0.323173">
        <ele>281.721</ele>
        <time>2019-06-15T15:29:52Z</time>
      </trkpt>
      <trkpt lat="38.850149" lon="-0.323184">
        <ele>280.030</ele>
        <time>2019-06-15T15:29:54Z</time>
      </trkpt>
      <trkpt lat="38.850046" lon="-0.323174">
        <ele>278.115</ele>
        <time>2019-06-15T15:29:55Z</time>
      </trkpt>
      <trkpt lat="38.849969" lon="-0.323216">
        <ele>277.336</ele>
        <time>2019-06-15T15:29:56Z</time>
      </trkpt>
      <trkpt lat="38.849827" lon="-0.323204">
        <ele>275.417</ele>
        <time>2019-06-15T15:29:57Z</time>
      </trkpt>
      <trkpt lat="38.849766" lon="-0.323212">
        <ele>274.718</ele>
        <time>2019-06-15T15:29:58Z</time>
      </trkpt>
      <trkpt lat="38.849701" lon="-0.323196">
        <ele>273.408</ele>
        <time>2019-06-15T15:29:59Z</time>
      </trkpt>
      <trkpt lat="38.849652" lon="-0.323213">
        <ele>272.196</ele>
        <time>2019-06-15T15:30:00Z</time>
      </trkpt>
      <trkpt lat="38.849598" lon="-0.323120">
        <ele>269.920</ele>
        <time>2019-06-15T15:30:04Z</time>
      </trkpt>
      <trkpt lat="38.849546" lon="-0.323081">
        <ele>268.199</ele>
        <time>2019-06-15T15:30:06Z</time>
      </trkpt>
      <trkpt lat="38.849538" lon="-0.323024">
        <ele>267.432</ele>
        <time>2019-06-15T15:30:07Z</time>
      </trkpt>
      <trkpt lat="38.849481" lon="-0.322969">
        <ele>265.374</ele>
        <time>2019-06-15T15:30:08Z</time>
      </trkpt>
      <trkpt lat="38.849421" lon="-0.322960">
        <ele>264.051</ele>
        <time>2019-06-15T15:30:09Z</time>
      </trkpt>
      <trkpt lat="38.849367" lon="-0.322920">
        <ele>263.040</ele>
        <time>2019-06-15T15:30:10Z</time>
      </trkpt>
      <trkpt lat="38.849301" lon="-0.322899">
        <ele>262.115</ele>
        <time>2019-06-15T15:30:11Z</time>
      </trkpt>
      <trkpt lat="38.849249" lon="-0.322835">
        <ele>261.254</ele>
        <time>2019-06-15T15:30:13Z</time>
      </trkpt>
      <trkpt lat="38.849189" lon="-0.322780">
        <ele>260.256</ele>
        <time>2019-06-15T15:30:14Z</time>
      </trkpt>
      <trkpt lat="38.849205" lon="-0.322677">
        <ele>260.011</ele>
        <time>2019-06-15T15:30:16Z</time>
      </trkpt>
      <trkpt lat="38.849244" lon="-0.322599">
        <ele>259.808</ele>
        <time>2019-06-15T15:30:19Z</time>
      </trkpt>
      <trkpt lat="38.849317" lon="-0.322477">
        <ele>259.558</ele>
        <time>2019-06-15T15:30:20Z</time>
      </trkpt>
      <trkpt lat="38.849328" lon="-0.322407">
        <ele>259.282</ele>
        <time>2019-06-15T15:30:22Z</time>
      </trkpt>
      <trkpt lat="38.849349" lon="-0.322318">
        <ele>259.011</ele>
        <time>2019-06-15T15:30:25Z</time>
      </trkpt>
      <trkpt lat="38.849378" lon="-0.322269">
        <ele>258.984</ele>
        <time>2019-06-15T15:30:28Z</time>
      </trkpt>
      <trkpt lat="38.849464" lon="-0.322220">
        <ele>259.156</ele>
        <time>2019-06-15T15:31:33Z</time>
      </trkpt>
      <trkpt lat="38.849484" lon="-0.322166">
        <ele>259.573</ele>
        <time>2019-06-15T15:31:38Z</time>
      </trkpt>
      <trkpt lat="38.849518" lon="-0.322113">
        <ele>260.092</ele>
        <time>2019-06-15T15:31:42Z</time>
      </trkpt>
      <trkpt lat="38.849559" lon="-0.322084">
        <ele>260.587</ele>
        <time>2019-06-15T15:31:46Z</time>
      </trkpt>
      <trkpt lat="38.849606" lon="-0.322061">
        <ele>261.134</ele>
        <time>2019-06-15T15:31:51Z</time>
      </trkpt>
      <trkpt lat="38.849657" lon="-0.322027">
        <ele>261.855</ele>
        <time>2019-06-15T15:31:55Z</time>
      </trkpt>
      <trkpt lat="38.849706" lon="-0.321996">
        <ele>262.510</ele>
        <time>2019-06-15T15:31:59Z</time>
      </trkpt>
      <trkpt lat="38.849758" lon="-0.321969">
        <ele>262.808</ele>
        <time>2019-06-15T15:32:17Z</time>
      </trkpt>
      <trkpt lat="38.849773" lon="-0.321908">
        <ele>263.166</ele>
        <time>2019-06-15T15:32:21Z</time>
      </trkpt>
      <trkpt lat="38.849786" lon="-0.321845">
        <ele>263.420</ele>
        <time>2019-06-15T15:32:24Z</time>
      </trkpt>
      <trkpt lat="38.849794" lon="-0.321776">
        <ele>263.699</ele>
        <time>2019-06-15T15:32:28Z</time>
      </trkpt>
      <trkpt lat="38.849807" lon="-0.321716">
        <ele>263.882</ele>
        <time>2019-06-15T15:32:31Z</time>
      </trkpt>
      <trkpt lat="38.849801" lon="-0.321652">
        <ele>263.854</ele>
        <time>2019-06-15T15:32:35Z</time>
      </trkpt>
      <trkpt lat="38.849848" lon="-0.321668">
        <ele>264.061</ele>
        <time>2019-06-15T15:34:24Z</time>
      </trkpt>
      <trkpt lat="38.849813" lon="-0.321707">
        <ele>263.980</ele>
        <time>2019-06-15T15:38:15Z</time>
      </trkpt>
      <trkpt lat="38.849847" lon="-0.321668">
        <ele>264.035</ele>
        <time>2019-06-15T15:39:27Z</time>
      </trkpt>
      <trkpt lat="38.849849" lon="-0.321749">
        <ele>263.745</ele>
        <time>2019-06-15T15:41:07Z</time>
      </trkpt>
      <trkpt lat="38.849895" lon="-0.321739">
        <ele>263.747</ele>
        <time>2019-06-15T15:41:15Z</time>
      </trkpt>
      <trkpt lat="38.850313" lon="-0.322111">
        <ele>262.411</ele>
        <time>2019-06-15T15:41:37Z</time>
      </trkpt>
      <trkpt lat="38.850357" lon="-0.322189">
        <ele>263.508</ele>
        <time>2019-06-15T15:42:09Z</time>
      </trkpt>
      <trkpt lat="38.850323" lon="-0.322235">
        <ele>264.447</ele>
        <time>2019-06-15T15:43:56Z</time>
      </trkpt>
      <trkpt lat="38.850273" lon="-0.322277">
        <ele>265.521</ele>
        <time>2019-06-15T15:44:02Z</time>
      </trkpt>
      <trkpt lat="38.850229" lon="-0.322322">
        <ele>266.490</ele>
        <time>2019-06-15T15:44:03Z</time>
      </trkpt>
      <trkpt lat="38.850193" lon="-0.322369">
        <ele>267.343</ele>
        <time>2019-06-15T15:44:04Z</time>
      </trkpt>
      <trkpt lat="38.850161" lon="-0.322414">
        <ele>267.965</ele>
        <time>2019-06-15T15:44:05Z</time>
      </trkpt>
      <trkpt lat="38.850115" lon="-0.322467">
        <ele>268.442</ele>
        <time>2019-06-15T15:44:20Z</time>
      </trkpt>
      <trkpt lat="38.850064" lon="-0.322515">
        <ele>268.511</ele>
        <time>2019-06-15T15:44:22Z</time>
      </trkpt>
      <trkpt lat="38.850021" lon="-0.322574">
        <ele>269.286</ele>
        <time>2019-06-15T15:44:24Z</time>
      </trkpt>
      <trkpt lat="38.849979" lon="-0.322645">
        <ele>270.383</ele>
        <time>2019-06-15T15:44:26Z</time>
      </trkpt>
      <trkpt lat="38.849923" lon="-0.322736">
        <ele>271.625</ele>
        <time>2019-06-15T15:44:27Z</time>
      </trkpt>
      <trkpt lat="38.849864" lon="-0.322824">
        <ele>272.017</ele>
        <time>2019-06-15T15:44:29Z</time>
      </trkpt>
      <trkpt lat="38.849834" lon="-0.322876">
        <ele>272.108</ele>
        <time>2019-06-15T15:44:30Z</time>
      </trkpt>
      <trkpt lat="38.849800" lon="-0.322948">
        <ele>272.551</ele>
        <time>2019-06-15T15:44:31Z</time>
      </trkpt>
      <trkpt lat="38.849755" lon="-0.322994">
        <ele>272.545</ele>
        <time>2019-06-15T15:44:32Z</time>
      </trkpt>
      <trkpt lat="38.849721" lon="-0.323040">
        <ele>272.774</ele>
        <time>2019-06-15T15:44:33Z</time>
      </trkpt>
      <trkpt lat="38.849650" lon="-0.323086">
        <ele>271.137</ele>
        <time>2019-06-15T15:44:35Z</time>
      </trkpt>
      <trkpt lat="38.849599" lon="-0.323114">
        <ele>269.999</ele>
        <time>2019-06-15T15:44:38Z</time>
      </trkpt>
      <trkpt lat="38.849512" lon="-0.323180">
        <ele>267.876</ele>
        <time>2019-06-15T15:44:40Z</time>
      </trkpt>
      <trkpt lat="38.849423" lon="-0.323128">
        <ele>265.295</ele>
        <time>2019-06-15T15:44:42Z</time>
      </trkpt>
      <trkpt lat="38.849377" lon="-0.323081">
        <ele>264.250</ele>
        <time>2019-06-15T15:44:43Z</time>
      </trkpt>
      <trkpt lat="38.849313" lon="-0.323012">
        <ele>262.982</ele>
        <time>2019-06-15T15:44:44Z</time>
      </trkpt>
      <trkpt lat="38.849274" lon="-0.322960">
        <ele>262.143</ele>
        <time>2019-06-15T15:44:45Z</time>
      </trkpt>
      <trkpt lat="38.849224" lon="-0.322928">
        <ele>261.317</ele>
        <time>2019-06-15T15:44:46Z</time>
      </trkpt>
      <trkpt lat="38.849154" lon="-0.322883">
        <ele>260.408</ele>
        <time>2019-06-15T15:44:48Z</time>
      </trkpt>
      <trkpt lat="38.849092" lon="-0.322839">
        <ele>260.231</ele>
        <time>2019-06-15T15:44:50Z</time>
      </trkpt>
      <trkpt lat="38.849048" lon="-0.322789">
        <ele>260.015</ele>
        <time>2019-06-15T15:44:51Z</time>
      </trkpt>
      <trkpt lat="38.849023" lon="-0.322728">
        <ele>259.734</ele>
        <time>2019-06-15T15:44:53Z</time>
      </trkpt>
      <trkpt lat="38.849000" lon="-0.322606">
        <ele>259.037</ele>
        <time>2019-06-15T15:44:55Z</time>
      </trkpt>
      <trkpt lat="38.848959" lon="-0.322502">
        <ele>258.379</ele>
        <time>2019-06-15T15:44:57Z</time>
      </trkpt>
      <trkpt lat="38.848934" lon="-0.322400">
        <ele>257.556</ele>
        <time>2019-06-15T15:44:59Z</time>
      </trkpt>
      <trkpt lat="38.848938" lon="-0.322314">
        <ele>257.075</ele>
        <time>2019-06-15T15:45:01Z</time>
      </trkpt>
      <trkpt lat="38.848946" lon="-0.322238">
        <ele>256.570</ele>
        <time>2019-06-15T15:45:02Z</time>
      </trkpt>
      <trkpt lat="38.848959" lon="-0.322167">
        <ele>256.265</ele>
        <time>2019-06-15T15:45:03Z</time>
      </trkpt>
      <trkpt lat="38.848972" lon="-0.322084">
        <ele>255.968</ele>
        <time>2019-06-15T15:45:04Z</time>
      </trkpt>
      <trkpt lat="38.848966" lon="-0.321977">
        <ele>255.314</ele>
        <time>2019-06-15T15:45:06Z</time>
      </trkpt>
      <trkpt lat="38.848979" lon="-0.321920">
        <ele>255.208</ele>
        <time>2019-06-15T15:45:07Z</time>
      </trkpt>
      <trkpt lat="38.848988" lon="-0.321847">
        <ele>254.999</ele>
        <time>2019-06-15T15:45:08Z</time>
      </trkpt>
      <trkpt lat="38.848995" lon="-0.321769">
        <ele>254.583</ele>
        <time>2019-06-15T15:45:09Z</time>
      </trkpt>
      <trkpt lat="38.849001" lon="-0.321704">
        <ele>254.222</ele>
        <time>2019-06-15T15:45:10Z</time>
      </trkpt>
      <trkpt lat="38.849000" lon="-0.321634">
        <ele>254.025</ele>
        <time>2019-06-15T15:45:11Z</time>
      </trkpt>
      <trkpt lat="38.849002" lon="-0.321557">
        <ele>253.977</ele>
        <time>2019-06-15T15:45:12Z</time>
      </trkpt>
      <trkpt lat="38.848983" lon="-0.321482">
        <ele>253.554</ele>
        <time>2019-06-15T15:45:13Z</time>
      </trkpt>
      <trkpt lat="38.848998" lon="-0.321409">
        <ele>253.693</ele>
        <time>2019-06-15T15:45:14Z</time>
      </trkpt>
      <trkpt lat="38.849000" lon="-0.321329">
        <ele>253.728</ele>
        <time>2019-06-15T15:45:15Z</time>
      </trkpt>
      <trkpt lat="38.849006" lon="-0.321256">
        <ele>254.028</ele>
        <time>2019-06-15T15:45:16Z</time>
      </trkpt>
      <trkpt lat="38.848985" lon="-0.321175">
        <ele>253.989</ele>
        <time>2019-06-15T15:45:17Z</time>
      </trkpt>
      <trkpt lat="38.848967" lon="-0.321102">
        <ele>253.817</ele>
        <time>2019-06-15T15:45:18Z</time>
      </trkpt>
      <trkpt lat="38.848959" lon="-0.321014">
        <ele>253.708</ele>
        <time>2019-06-15T15:45:19Z</time>
      </trkpt>
      <trkpt lat="38.848953" lon="-0.320936">
        <ele>253.555</ele>
        <time>2019-06-15T15:45:20Z</time>
      </trkpt>
      <trkpt lat="38.848960" lon="-0.320842">
        <ele>253.529</ele>
        <time>2019-06-15T15:45:21Z</time>
      </trkpt>
      <trkpt lat="38.848961" lon="-0.320748">
        <ele>252.838</ele>
        <time>2019-06-15T15:45:22Z</time>
      </trkpt>
      <trkpt lat="38.848959" lon="-0.320655">
        <ele>252.151</ele>
        <time>2019-06-15T15:45:23Z</time>
      </trkpt>
      <trkpt lat="38.848965" lon="-0.320568">
        <ele>251.493</ele>
        <time>2019-06-15T15:45:24Z</time>
      </trkpt>
      <trkpt lat="38.848973" lon="-0.320472">
        <ele>251.110</ele>
        <time>2019-06-15T15:45:25Z</time>
      </trkpt>
      <trkpt lat="38.848966" lon="-0.320392">
        <ele>251.069</ele>
        <time>2019-06-15T15:45:26Z</time>
      </trkpt>
      <trkpt lat="38.848963" lon="-0.320313">
        <ele>250.824</ele>
        <time>2019-06-15T15:45:27Z</time>
      </trkpt>
      <trkpt lat="38.848971" lon="-0.320238">
        <ele>250.718</ele>
        <time>2019-06-15T15:45:28Z</time>
      </trkpt>
      <trkpt lat="38.848964" lon="-0.320171">
        <ele>250.698</ele>
        <time>2019-06-15T15:45:29Z</time>
      </trkpt>
      <trkpt lat="38.848977" lon="-0.320103">
        <ele>250.517</ele>
        <time>2019-06-15T15:45:30Z</time>
      </trkpt>
      <trkpt lat="38.848985" lon="-0.320039">
        <ele>250.408</ele>
        <time>2019-06-15T15:45:31Z</time>
      </trkpt>
      <trkpt lat="38.848931" lon="-0.319992">
        <ele>250.624</ele>
        <time>2019-06-15T15:45:32Z</time>
      </trkpt>
      <trkpt lat="38.848898" lon="-0.319904">
        <ele>250.378</ele>
        <time>2019-06-15T15:45:34Z</time>
      </trkpt>
      <trkpt lat="38.848897" lon="-0.319844">
        <ele>249.927</ele>
        <time>2019-06-15T15:45:35Z</time>
      </trkpt>
      <trkpt lat="38.848886" lon="-0.319753">
        <ele>249.240</ele>
        <time>2019-06-15T15:45:37Z</time>
      </trkpt>
      <trkpt lat="38.848902" lon="-0.319688">
        <ele>248.612</ele>
        <time>2019-06-15T15:45:38Z</time>
      </trkpt>
      <trkpt lat="38.848924" lon="-0.319627">
        <ele>248.089</ele>
        <time>2019-06-15T15:45:39Z</time>
      </trkpt>
      <trkpt lat="38.848947" lon="-0.319573">
        <ele>247.558</ele>
        <time>2019-06-15T15:45:40Z</time>
      </trkpt>
      <trkpt lat="38.848970" lon="-0.319507">
        <ele>246.943</ele>
        <time>2019-06-15T15:45:41Z</time>
      </trkpt>
      <trkpt lat="38.848994" lon="-0.319409">
        <ele>246.041</ele>
        <time>2019-06-15T15:45:43Z</time>
      </trkpt>
      <trkpt lat="38.849022" lon="-0.319345">
        <ele>245.681</ele>
        <time>2019-06-15T15:45:44Z</time>
      </trkpt>
      <trkpt lat="38.849040" lon="-0.319282">
        <ele>245.109</ele>
        <time>2019-06-15T15:45:45Z</time>
      </trkpt>
      <trkpt lat="38.849067" lon="-0.319170">
        <ele>244.308</ele>
        <time>2019-06-15T15:45:47Z</time>
      </trkpt>
      <trkpt lat="38.849090" lon="-0.319108">
        <ele>244.497</ele>
        <time>2019-06-15T15:45:48Z</time>
      </trkpt>
      <trkpt lat="38.849107" lon="-0.319004">
        <ele>244.441</ele>
        <time>2019-06-15T15:45:50Z</time>
      </trkpt>
      <trkpt lat="38.849109" lon="-0.318944">
        <ele>244.490</ele>
        <time>2019-06-15T15:45:51Z</time>
      </trkpt>
      <trkpt lat="38.849096" lon="-0.318881">
        <ele>244.363</ele>
        <time>2019-06-15T15:45:52Z</time>
      </trkpt>
      <trkpt lat="38.849132" lon="-0.318794">
        <ele>245.035</ele>
        <time>2019-06-15T15:45:54Z</time>
      </trkpt>
      <trkpt lat="38.849155" lon="-0.318725">
        <ele>245.582</ele>
        <time>2019-06-15T15:45:56Z</time>
      </trkpt>
      <trkpt lat="38.849208" lon="-0.318668">
        <ele>246.261</ele>
        <time>2019-06-15T15:45:57Z</time>
      </trkpt>
      <trkpt lat="38.849268" lon="-0.318613">
        <ele>247.146</ele>
        <time>2019-06-15T15:45:58Z</time>
      </trkpt>
      <trkpt lat="38.849290" lon="-0.318557">
        <ele>247.991</ele>
        <time>2019-06-15T15:45:59Z</time>
      </trkpt>
      <trkpt lat="38.849296" lon="-0.318454">
        <ele>249.181</ele>
        <time>2019-06-15T15:46:01Z</time>
      </trkpt>
      <trkpt lat="38.849338" lon="-0.318408">
        <ele>250.019</ele>
        <time>2019-06-15T15:46:02Z</time>
      </trkpt>
      <trkpt lat="38.849338" lon="-0.318305">
        <ele>251.208</ele>
        <time>2019-06-15T15:46:04Z</time>
      </trkpt>
      <trkpt lat="38.849337" lon="-0.318210">
        <ele>252.292</ele>
        <time>2019-06-15T15:46:06Z</time>
      </trkpt>
      <trkpt lat="38.849303" lon="-0.318121">
        <ele>252.886</ele>
        <time>2019-06-15T15:46:08Z</time>
      </trkpt>
      <trkpt lat="38.849234" lon="-0.318062">
        <ele>252.745</ele>
        <time>2019-06-15T15:46:10Z</time>
      </trkpt>
      <trkpt lat="38.849190" lon="-0.318000">
        <ele>252.768</ele>
        <time>2019-06-15T15:46:12Z</time>
      </trkpt>
      <trkpt lat="38.849113" lon="-0.317952">
        <ele>252.740</ele>
        <time>2019-06-15T15:46:14Z</time>
      </trkpt>
      <trkpt lat="38.849052" lon="-0.317876">
        <ele>253.027</ele>
        <time>2019-06-15T15:46:16Z</time>
      </trkpt>
      <trkpt lat="38.848999" lon="-0.317823">
        <ele>253.246</ele>
        <time>2019-06-15T15:46:18Z</time>
      </trkpt>
      <trkpt lat="38.848951" lon="-0.317787">
        <ele>253.281</ele>
        <time>2019-06-15T15:46:19Z</time>
      </trkpt>
      <trkpt lat="38.848870" lon="-0.317721">
        <ele>254.172</ele>
        <time>2019-06-15T15:46:21Z</time>
      </trkpt>
      <trkpt lat="38.848831" lon="-0.317687">
        <ele>254.813</ele>
        <time>2019-06-15T15:46:22Z</time>
      </trkpt>
      <trkpt lat="38.848790" lon="-0.317659">
        <ele>255.314</ele>
        <time>2019-06-15T15:46:23Z</time>
      </trkpt>
      <trkpt lat="38.848766" lon="-0.317606">
        <ele>256.308</ele>
        <time>2019-06-15T15:46:24Z</time>
      </trkpt>
      <trkpt lat="38.848712" lon="-0.317560">
        <ele>257.180</ele>
        <time>2019-06-15T15:46:25Z</time>
      </trkpt>
      <trkpt lat="38.848650" lon="-0.317545">
        <ele>257.384</ele>
        <time>2019-06-15T15:46:26Z</time>
      </trkpt>
      <trkpt lat="38.848609" lon="-0.317595">
        <ele>256.663</ele>
        <time>2019-06-15T15:46:27Z</time>
      </trkpt>
      <trkpt lat="38.848554" lon="-0.317586">
        <ele>255.966</ele>
        <time>2019-06-15T15:46:28Z</time>
      </trkpt>
      <trkpt lat="38.848534" lon="-0.317533">
        <ele>256.268</ele>
        <time>2019-06-15T15:46:32Z</time>
      </trkpt>
      <trkpt lat="38.848421" lon="-0.317465">
        <ele>254.915</ele>
        <time>2019-06-15T15:46:34Z</time>
      </trkpt>
      <trkpt lat="38.848367" lon="-0.317411">
        <ele>254.424</ele>
        <time>2019-06-15T15:46:36Z</time>
      </trkpt>
      <trkpt lat="38.848294" lon="-0.317336">
        <ele>253.669</ele>
        <time>2019-06-15T15:46:38Z</time>
      </trkpt>
      <trkpt lat="38.848254" lon="-0.317308">
        <ele>253.286</ele>
        <time>2019-06-15T15:46:39Z</time>
      </trkpt>
      <trkpt lat="38.848185" lon="-0.317232">
        <ele>252.860</ele>
        <time>2019-06-15T15:46:41Z</time>
      </trkpt>
      <trkpt lat="38.848123" lon="-0.317183">
        <ele>252.526</ele>
        <time>2019-06-15T15:46:43Z</time>
      </trkpt>
      <trkpt lat="38.848066" lon="-0.317126">
        <ele>252.508</ele>
        <time>2019-06-15T15:46:45Z</time>
      </trkpt>
      <trkpt lat="38.848003" lon="-0.317055">
        <ele>252.571</ele>
        <time>2019-06-15T15:46:47Z</time>
      </trkpt>
      <trkpt lat="38.847968" lon="-0.317015">
        <ele>252.575</ele>
        <time>2019-06-15T15:46:48Z</time>
      </trkpt>
      <trkpt lat="38.847932" lon="-0.316971">
        <ele>252.414</ele>
        <time>2019-06-15T15:46:49Z</time>
      </trkpt>
      <trkpt lat="38.847866" lon="-0.316880">
        <ele>252.467</ele>
        <time>2019-06-15T15:46:51Z</time>
      </trkpt>
      <trkpt lat="38.847819" lon="-0.316846">
        <ele>251.979</ele>
        <time>2019-06-15T15:46:52Z</time>
      </trkpt>
      <trkpt lat="38.847764" lon="-0.316773">
        <ele>251.616</ele>
        <time>2019-06-15T15:46:54Z</time>
      </trkpt>
      <trkpt lat="38.847741" lon="-0.316652">
        <ele>252.495</ele>
        <time>2019-06-15T15:46:56Z</time>
      </trkpt>
      <trkpt lat="38.847735" lon="-0.316553">
        <ele>252.680</ele>
        <time>2019-06-15T15:46:58Z</time>
      </trkpt>
      <trkpt lat="38.847723" lon="-0.316484">
        <ele>252.776</ele>
        <time>2019-06-15T15:46:59Z</time>
      </trkpt>
      <trkpt lat="38.847734" lon="-0.316396">
        <ele>253.290</ele>
        <time>2019-06-15T15:47:00Z</time>
      </trkpt>
      <trkpt lat="38.847733" lon="-0.316241">
        <ele>253.619</ele>
        <time>2019-06-15T15:47:02Z</time>
      </trkpt>
      <trkpt lat="38.847747" lon="-0.316166">
        <ele>254.108</ele>
        <time>2019-06-15T15:47:03Z</time>
      </trkpt>
      <trkpt lat="38.847763" lon="-0.316083">
        <ele>254.690</ele>
        <time>2019-06-15T15:47:04Z</time>
      </trkpt>
      <trkpt lat="38.847758" lon="-0.316015">
        <ele>254.634</ele>
        <time>2019-06-15T15:47:05Z</time>
      </trkpt>
      <trkpt lat="38.847769" lon="-0.315935">
        <ele>254.863</ele>
        <time>2019-06-15T15:47:06Z</time>
      </trkpt>
      <trkpt lat="38.847769" lon="-0.315852">
        <ele>254.846</ele>
        <time>2019-06-15T15:47:07Z</time>
      </trkpt>
      <trkpt lat="38.847788" lon="-0.315771">
        <ele>255.748</ele>
        <time>2019-06-15T15:47:08Z</time>
      </trkpt>
      <trkpt lat="38.847797" lon="-0.315681">
        <ele>256.395</ele>
        <time>2019-06-15T15:47:09Z</time>
      </trkpt>
      <trkpt lat="38.847792" lon="-0.315612">
        <ele>256.374</ele>
        <time>2019-06-15T15:47:10Z</time>
      </trkpt>
      <trkpt lat="38.847756" lon="-0.315546">
        <ele>255.949</ele>
        <time>2019-06-15T15:47:11Z</time>
      </trkpt>
      <trkpt lat="38.847767" lon="-0.315485">
        <ele>256.586</ele>
        <time>2019-06-15T15:47:12Z</time>
      </trkpt>
      <trkpt lat="38.847805" lon="-0.315401">
        <ele>257.860</ele>
        <time>2019-06-15T15:47:13Z</time>
      </trkpt>
      <trkpt lat="38.847830" lon="-0.315335">
        <ele>258.726</ele>
        <time>2019-06-15T15:47:14Z</time>
      </trkpt>
      <trkpt lat="38.847834" lon="-0.315226">
        <ele>259.608</ele>
        <time>2019-06-15T15:47:16Z</time>
      </trkpt>
      <trkpt lat="38.847861" lon="-0.315159">
        <ele>260.661</ele>
        <time>2019-06-15T15:47:17Z</time>
      </trkpt>
      <trkpt lat="38.847852" lon="-0.315100">
        <ele>261.085</ele>
        <time>2019-06-15T15:47:18Z</time>
      </trkpt>
      <trkpt lat="38.847873" lon="-0.315021">
        <ele>261.834</ele>
        <time>2019-06-15T15:47:19Z</time>
      </trkpt>
      <trkpt lat="38.847866" lon="-0.314932">
        <ele>261.837</ele>
        <time>2019-06-15T15:47:20Z</time>
      </trkpt>
      <trkpt lat="38.847885" lon="-0.314847">
        <ele>261.459</ele>
        <time>2019-06-15T15:47:22Z</time>
      </trkpt>
      <trkpt lat="38.847888" lon="-0.314773">
        <ele>261.246</ele>
        <time>2019-06-15T15:47:23Z</time>
      </trkpt>
      <trkpt lat="38.847854" lon="-0.314709">
        <ele>260.895</ele>
        <time>2019-06-15T15:47:24Z</time>
      </trkpt>
      <trkpt lat="38.847864" lon="-0.314611">
        <ele>259.780</ele>
        <time>2019-06-15T15:47:26Z</time>
      </trkpt>
      <trkpt lat="38.847851" lon="-0.314535">
        <ele>258.785</ele>
        <time>2019-06-15T15:47:28Z</time>
      </trkpt>
      <trkpt lat="38.847789" lon="-0.314397">
        <ele>255.989</ele>
        <time>2019-06-15T15:47:32Z</time>
      </trkpt>
      <trkpt lat="38.847744" lon="-0.314311">
        <ele>256.017</ele>
        <time>2019-06-15T15:47:34Z</time>
      </trkpt>
      <trkpt lat="38.847688" lon="-0.314246">
        <ele>256.908</ele>
        <time>2019-06-15T15:47:36Z</time>
      </trkpt>
      <trkpt lat="38.847668" lon="-0.314191">
        <ele>256.711</ele>
        <time>2019-06-15T15:47:37Z</time>
      </trkpt>
      <trkpt lat="38.847636" lon="-0.314140">
        <ele>256.785</ele>
        <time>2019-06-15T15:47:39Z</time>
      </trkpt>
      <trkpt lat="38.847599" lon="-0.314094">
        <ele>256.764</ele>
        <time>2019-06-15T15:47:41Z</time>
      </trkpt>
      <trkpt lat="38.847567" lon="-0.314027">
        <ele>255.967</ele>
        <time>2019-06-15T15:47:44Z</time>
      </trkpt>
      <trkpt lat="38.847528" lon="-0.313976">
        <ele>255.199</ele>
        <time>2019-06-15T15:47:47Z</time>
      </trkpt>
      <trkpt lat="38.847498" lon="-0.313925">
        <ele>254.056</ele>
        <time>2019-06-15T15:47:50Z</time>
      </trkpt>
      <trkpt lat="38.847465" lon="-0.313869">
        <ele>254.495</ele>
        <time>2019-06-15T15:47:53Z</time>
      </trkpt>
      <trkpt lat="38.847517" lon="-0.313863">
        <ele>253.270</ele>
        <time>2019-06-15T15:48:00Z</time>
      </trkpt>
      <trkpt lat="38.847566" lon="-0.313909">
        <ele>253.697</ele>
        <time>2019-06-15T15:48:02Z</time>
      </trkpt>
      <trkpt lat="38.847625" lon="-0.313905">
        <ele>253.723</ele>
        <time>2019-06-15T15:48:04Z</time>
      </trkpt>
      <trkpt lat="38.847665" lon="-0.313843">
        <ele>253.825</ele>
        <time>2019-06-15T15:48:07Z</time>
      </trkpt>
      <trkpt lat="38.847661" lon="-0.313760">
        <ele>254.008</ele>
        <time>2019-06-15T15:48:10Z</time>
      </trkpt>
      <trkpt lat="38.847627" lon="-0.313662">
        <ele>254.332</ele>
        <time>2019-06-15T15:48:14Z</time>
      </trkpt>
      <trkpt lat="38.847607" lon="-0.313603">
        <ele>254.496</ele>
        <time>2019-06-15T15:48:15Z</time>
      </trkpt>
      <trkpt lat="38.847593" lon="-0.313542">
        <ele>254.795</ele>
        <time>2019-06-15T15:48:16Z</time>
      </trkpt>
      <trkpt lat="38.847573" lon="-0.313449">
        <ele>255.068</ele>
        <time>2019-06-15T15:48:18Z</time>
      </trkpt>
      <trkpt lat="38.847554" lon="-0.313374">
        <ele>255.290</ele>
        <time>2019-06-15T15:48:20Z</time>
      </trkpt>
      <trkpt lat="38.847543" lon="-0.313300">
        <ele>255.697</ele>
        <time>2019-06-15T15:48:22Z</time>
      </trkpt>
      <trkpt lat="38.847529" lon="-0.313228">
        <ele>256.056</ele>
        <time>2019-06-15T15:48:25Z</time>
      </trkpt>
      <trkpt lat="38.847519" lon="-0.313161">
        <ele>256.491</ele>
        <time>2019-06-15T15:48:29Z</time>
      </trkpt>
      <trkpt lat="38.847492" lon="-0.313091">
        <ele>256.763</ele>
        <time>2019-06-15T15:48:32Z</time>
      </trkpt>
      <trkpt lat="38.847465" lon="-0.313035">
        <ele>257.144</ele>
        <time>2019-06-15T15:48:34Z</time>
      </trkpt>
      <trkpt lat="38.847421" lon="-0.312978">
        <ele>257.418</ele>
        <time>2019-06-15T15:48:36Z</time>
      </trkpt>
      <trkpt lat="38.847346" lon="-0.312927">
        <ele>257.308</ele>
        <time>2019-06-15T15:48:38Z</time>
      </trkpt>
      <trkpt lat="38.847289" lon="-0.312871">
        <ele>257.219</ele>
        <time>2019-06-15T15:48:40Z</time>
      </trkpt>
      <trkpt lat="38.847248" lon="-0.312826">
        <ele>257.113</ele>
        <time>2019-06-15T15:48:42Z</time>
      </trkpt>
      <trkpt lat="38.847201" lon="-0.312782">
        <ele>257.182</ele>
        <time>2019-06-15T15:48:44Z</time>
      </trkpt>
      <trkpt lat="38.847157" lon="-0.312743">
        <ele>257.645</ele>
        <time>2019-06-15T15:48:46Z</time>
      </trkpt>
      <trkpt lat="38.847114" lon="-0.312708">
        <ele>257.927</ele>
        <time>2019-06-15T15:48:48Z</time>
      </trkpt>
      <trkpt lat="38.847066" lon="-0.312673">
        <ele>258.384</ele>
        <time>2019-06-15T15:48:50Z</time>
      </trkpt>
      <trkpt lat="38.847020" lon="-0.312638">
        <ele>258.683</ele>
        <time>2019-06-15T15:48:52Z</time>
      </trkpt>
      <trkpt lat="38.846971" lon="-0.312587">
        <ele>258.918</ele>
        <time>2019-06-15T15:48:54Z</time>
      </trkpt>
      <trkpt lat="38.846925" lon="-0.312538">
        <ele>259.425</ele>
        <time>2019-06-15T15:48:56Z</time>
      </trkpt>
      <trkpt lat="38.846883" lon="-0.312495">
        <ele>260.226</ele>
        <time>2019-06-15T15:48:58Z</time>
      </trkpt>
      <trkpt lat="38.846841" lon="-0.312456">
        <ele>261.308</ele>
        <time>2019-06-15T15:49:00Z</time>
      </trkpt>
      <trkpt lat="38.846796" lon="-0.312416">
        <ele>262.208</ele>
        <time>2019-06-15T15:49:02Z</time>
      </trkpt>
      <trkpt lat="38.846758" lon="-0.312381">
        <ele>262.895</ele>
        <time>2019-06-15T15:49:04Z</time>
      </trkpt>
      <trkpt lat="38.846743" lon="-0.312324">
        <ele>263.029</ele>
        <time>2019-06-15T15:49:06Z</time>
      </trkpt>
      <trkpt lat="38.846754" lon="-0.312256">
        <ele>263.268</ele>
        <time>2019-06-15T15:49:09Z</time>
      </trkpt>
      <trkpt lat="38.846802" lon="-0.312205">
        <ele>263.621</ele>
        <time>2019-06-15T15:49:12Z</time>
      </trkpt>
      <trkpt lat="38.846854" lon="-0.312179">
        <ele>264.053</ele>
        <time>2019-06-15T15:49:15Z</time>
      </trkpt>
      <trkpt lat="38.846915" lon="-0.312172">
        <ele>264.470</ele>
        <time>2019-06-15T15:49:18Z</time>
      </trkpt>
      <trkpt lat="38.846971" lon="-0.312171">
        <ele>264.429</ele>
        <time>2019-06-15T15:49:20Z</time>
      </trkpt>
      <trkpt lat="38.847044" lon="-0.312158">
        <ele>264.274</ele>
        <time>2019-06-15T15:49:22Z</time>
      </trkpt>
      <trkpt lat="38.847149" lon="-0.312107">
        <ele>264.787</ele>
        <time>2019-06-15T15:49:23Z</time>
      </trkpt>
      <trkpt lat="38.847198" lon="-0.312067">
        <ele>265.442</ele>
        <time>2019-06-15T15:49:26Z</time>
      </trkpt>
      <trkpt lat="38.847203" lon="-0.311998">
        <ele>266.826</ele>
        <time>2019-06-15T15:49:32Z</time>
      </trkpt>
      <trkpt lat="38.847260" lon="-0.311990">
        <ele>268.208</ele>
        <time>2019-06-15T15:49:51Z</time>
      </trkpt>
      <trkpt lat="38.847308" lon="-0.311986">
        <ele>269.891</ele>
        <time>2019-06-15T15:49:54Z</time>
      </trkpt>
      <trkpt lat="38.847342" lon="-0.312037">
        <ele>270.215</ele>
        <time>2019-06-15T15:49:58Z</time>
      </trkpt>
      <trkpt lat="38.847364" lon="-0.312095">
        <ele>270.244</ele>
        <time>2019-06-15T15:50:02Z</time>
      </trkpt>
      <trkpt lat="38.847394" lon="-0.312146">
        <ele>270.827</ele>
        <time>2019-06-15T15:50:07Z</time>
      </trkpt>
      <trkpt lat="38.847306" lon="-0.312101">
        <ele>267.939</ele>
        <time>2019-06-15T15:54:46Z</time>
      </trkpt>
      <trkpt lat="38.847254" lon="-0.312093">
        <ele>266.096</ele>
        <time>2019-06-15T15:54:48Z</time>
      </trkpt>
      <trkpt lat="38.847334" lon="-0.312152">
        <ele>268.285</ele>
        <time>2019-06-15T15:55:09Z</time>
      </trkpt>
      <trkpt lat="38.847239" lon="-0.312205">
        <ele>263.130</ele>
        <time>2019-06-15T15:55:14Z</time>
      </trkpt>
      <trkpt lat="38.847244" lon="-0.312143">
        <ele>264.615</ele>
        <time>2019-06-15T15:55:50Z</time>
      </trkpt>
      <trkpt lat="38.847202" lon="-0.312116">
        <ele>264.465</ele>
        <time>2019-06-15T15:55:55Z</time>
      </trkpt>
      <trkpt lat="38.847156" lon="-0.312134">
        <ele>264.211</ele>
        <time>2019-06-15T15:56:01Z</time>
      </trkpt>
      <trkpt lat="38.847171" lon="-0.312076">
        <ele>265.208</ele>
        <time>2019-06-15T15:56:12Z</time>
      </trkpt>
      <trkpt lat="38.847213" lon="-0.312042">
        <ele>265.914</ele>
        <time>2019-06-15T15:56:16Z</time>
      </trkpt>
      <trkpt lat="38.847261" lon="-0.312042">
        <ele>267.358</ele>
        <time>2019-06-15T15:56:23Z</time>
      </trkpt>
      <trkpt lat="38.847300" lon="-0.312080">
        <ele>268.097</ele>
        <time>2019-06-15T15:56:27Z</time>
      </trkpt>
      <trkpt lat="38.847339" lon="-0.312110">
        <ele>269.080</ele>
        <time>2019-06-15T15:56:31Z</time>
      </trkpt>
      <trkpt lat="38.847374" lon="-0.312149">
        <ele>270.042</ele>
        <time>2019-06-15T15:56:35Z</time>
      </trkpt>
      <trkpt lat="38.847405" lon="-0.312194">
        <ele>270.839</ele>
        <time>2019-06-15T15:56:39Z</time>
      </trkpt>
      <trkpt lat="38.847448" lon="-0.312231">
        <ele>272.418</ele>
        <time>2019-06-15T15:56:44Z</time>
      </trkpt>
      <trkpt lat="38.847417" lon="-0.312154">
        <ele>271.723</ele>
        <time>2019-06-15T16:37:43Z</time>
      </trkpt>
      <trkpt lat="38.847083" lon="-0.312121">
        <ele>264.645</ele>
        <time>2019-06-16T08:57:10Z</time>
      </trkpt>
      <trkpt lat="38.847026" lon="-0.312105">
        <ele>265.147</ele>
        <time>2019-06-16T08:57:29Z</time>
      </trkpt>
      <trkpt lat="38.846973" lon="-0.312115">
        <ele>265.111</ele>
        <time>2019-06-16T08:57:31Z</time>
      </trkpt>
      <trkpt lat="38.846922" lon="-0.312141">
        <ele>264.708</ele>
        <time>2019-06-16T08:57:33Z</time>
      </trkpt>
      <trkpt lat="38.846870" lon="-0.312168">
        <ele>264.217</ele>
        <time>2019-06-16T08:57:36Z</time>
      </trkpt>
      <trkpt lat="38.846833" lon="-0.312207">
        <ele>263.761</ele>
        <time>2019-06-16T08:57:40Z</time>
      </trkpt>
      <trkpt lat="38.846791" lon="-0.312237">
        <ele>263.420</ele>
        <time>2019-06-16T08:57:51Z</time>
      </trkpt>
      <trkpt lat="38.846746" lon="-0.312216">
        <ele>263.323</ele>
        <time>2019-06-16T08:57:58Z</time>
      </trkpt>
      <trkpt lat="38.846703" lon="-0.312187">
        <ele>263.355</ele>
        <time>2019-06-16T08:58:02Z</time>
      </trkpt>
      <trkpt lat="38.846638" lon="-0.312191">
        <ele>262.872</ele>
        <time>2019-06-16T08:58:27Z</time>
      </trkpt>
      <trkpt lat="38.846521" lon="-0.312075">
        <ele>262.221</ele>
        <time>2019-06-16T08:58:29Z</time>
      </trkpt>
      <trkpt lat="38.846449" lon="-0.312028">
        <ele>261.956</ele>
        <time>2019-06-16T08:58:30Z</time>
      </trkpt>
      <trkpt lat="38.846477" lon="-0.312114">
        <ele>261.649</ele>
        <time>2019-06-16T08:58:36Z</time>
      </trkpt>
      <trkpt lat="38.846488" lon="-0.312173">
        <ele>261.402</ele>
        <time>2019-06-16T08:58:37Z</time>
      </trkpt>
      <trkpt lat="38.846516" lon="-0.312275">
        <ele>262.022</ele>
        <time>2019-06-16T08:58:39Z</time>
      </trkpt>
      <trkpt lat="38.846516" lon="-0.312275">
        <ele>262.008</ele>
        <time>2019-06-16T08:58:39Z</time>
      </trkpt>
      <trkpt lat="38.846565" lon="-0.312345">
        <ele>263.097</ele>
        <time>2019-06-16T08:58:42Z</time>
      </trkpt>
      <trkpt lat="38.846565" lon="-0.312345">
        <ele>263.011</ele>
        <time>2019-06-16T08:58:42Z</time>
      </trkpt>
      <trkpt lat="38.846565" lon="-0.312345">
        <ele>263.040</ele>
        <time>2019-06-16T08:58:42Z</time>
      </trkpt>
      <trkpt lat="38.846614" lon="-0.312458">
        <ele>263.963</ele>
        <time>2019-06-16T08:58:46Z</time>
      </trkpt>
      <trkpt lat="38.846614" lon="-0.312458">
        <ele>263.975</ele>
        <time>2019-06-16T08:58:46Z</time>
      </trkpt>
      <trkpt lat="38.846614" lon="-0.312458">
        <ele>263.972</ele>
        <time>2019-06-16T08:58:46Z</time>
      </trkpt>
      <trkpt lat="38.846614" lon="-0.312458">
        <ele>263.991</ele>
        <time>2019-06-16T08:58:46Z</time>
      </trkpt>
      <trkpt lat="38.846795" lon="-0.312745">
        <ele>262.666</ele>
        <time>2019-06-16T08:58:52Z</time>
      </trkpt>
      <trkpt lat="38.846795" lon="-0.312745">
        <ele>262.637</ele>
        <time>2019-06-16T08:58:52Z</time>
      </trkpt>
      <trkpt lat="38.846795" lon="-0.312745">
        <ele>262.649</ele>
        <time>2019-06-16T08:58:52Z</time>
      </trkpt>
      <trkpt lat="38.846795" lon="-0.312745">
        <ele>262.613</ele>
        <time>2019-06-16T08:58:52Z</time>
      </trkpt>
      <trkpt lat="38.846795" lon="-0.312745">
        <ele>262.608</ele>
        <time>2019-06-16T08:58:52Z</time>
      </trkpt>
      <trkpt lat="38.846795" lon="-0.312745">
        <ele>262.676</ele>
        <time>2019-06-16T08:58:52Z</time>
      </trkpt>
      <trkpt lat="38.847083" lon="-0.313154">
        <ele>259.630</ele>
        <time>2019-06-16T08:59:01Z</time>
      </trkpt>
      <trkpt lat="38.847083" lon="-0.313154">
        <ele>259.679</ele>
        <time>2019-06-16T08:59:01Z</time>
      </trkpt>
      <trkpt lat="38.847083" lon="-0.313154">
        <ele>259.642</ele>
        <time>2019-06-16T08:59:01Z</time>
      </trkpt>
      <trkpt lat="38.847083" lon="-0.313154">
        <ele>259.624</ele>
        <time>2019-06-16T08:59:01Z</time>
      </trkpt>
      <trkpt lat="38.847083" lon="-0.313154">
        <ele>259.621</ele>
        <time>2019-06-16T08:59:01Z</time>
      </trkpt>
      <trkpt lat="38.847083" lon="-0.313154">
        <ele>259.610</ele>
        <time>2019-06-16T08:59:01Z</time>
      </trkpt>
      <trkpt lat="38.847083" lon="-0.313154">
        <ele>259.665</ele>
        <time>2019-06-16T08:59:01Z</time>
      </trkpt>
      <trkpt lat="38.847083" lon="-0.313154">
        <ele>259.623</ele>
        <time>2019-06-16T08:59:01Z</time>
      </trkpt>
      <trkpt lat="38.847083" lon="-0.313154">
        <ele>259.683</ele>
        <time>2019-06-16T08:59:01Z</time>
      </trkpt>
      <trkpt lat="38.847611" lon="-0.313965">
        <ele>254.611</ele>
        <time>2019-06-16T08:59:15Z</time>
      </trkpt>
      <trkpt lat="38.847611" lon="-0.313965">
        <ele>254.608</ele>
        <time>2019-06-16T08:59:15Z</time>
      </trkpt>
      <trkpt lat="38.847611" lon="-0.313965">
        <ele>254.675</ele>
        <time>2019-06-16T08:59:15Z</time>
      </trkpt>
      <trkpt lat="38.847611" lon="-0.313965">
        <ele>254.669</ele>
        <time>2019-06-16T08:59:15Z</time>
      </trkpt>
      <trkpt lat="38.847611" lon="-0.313965">
        <ele>254.698</ele>
        <time>2019-06-16T08:59:15Z</time>
      </trkpt>
      <trkpt lat="38.847611" lon="-0.313965">
        <ele>254.631</ele>
        <time>2019-06-16T08:59:15Z</time>
      </trkpt>
      <trkpt lat="38.847611" lon="-0.313965">
        <ele>254.613</ele>
        <time>2019-06-16T08:59:15Z</time>
      </trkpt>
      <trkpt lat="38.847611" lon="-0.313965">
        <ele>254.690</ele>
        <time>2019-06-16T08:59:15Z</time>
      </trkpt>
      <trkpt lat="38.847611" lon="-0.313965">
        <ele>254.669</ele>
        <time>2019-06-16T08:59:15Z</time>
      </trkpt>
      <trkpt lat="38.847611" lon="-0.313965">
        <ele>254.614</ele>
        <time>2019-06-16T08:59:15Z</time>
      </trkpt>
      <trkpt lat="38.847611" lon="-0.313965">
        <ele>254.657</ele>
        <time>2019-06-16T08:59:15Z</time>
      </trkpt>
      <trkpt lat="38.847611" lon="-0.313965">
        <ele>254.600</ele>
        <time>2019-06-16T08:59:15Z</time>
      </trkpt>
      <trkpt lat="38.847611" lon="-0.313965">
        <ele>254.620</ele>
        <time>2019-06-16T08:59:15Z</time>
      </trkpt>
      <trkpt lat="38.847611" lon="-0.313965">
        <ele>254.608</ele>
        <time>2019-06-16T08:59:15Z</time>
      </trkpt>
      <trkpt lat="38.847881" lon="-0.315632">
        <ele>259.558</ele>
        <time>2019-06-16T08:59:37Z</time>
      </trkpt>
      <trkpt lat="38.847881" lon="-0.315632">
        <ele>259.542</ele>
        <time>2019-06-16T08:59:37Z</time>
      </trkpt>
      <trkpt lat="38.847881" lon="-0.315632">
        <ele>259.591</ele>
        <time>2019-06-16T08:59:37Z</time>
      </trkpt>
      <trkpt lat="38.847881" lon="-0.315632">
        <ele>259.574</ele>
        <time>2019-06-16T08:59:37Z</time>
      </trkpt>
      <trkpt lat="38.847881" lon="-0.315632">
        <ele>259.556</ele>
        <time>2019-06-16T08:59:37Z</time>
      </trkpt>
      <trkpt lat="38.847881" lon="-0.315632">
        <ele>259.573</ele>
        <time>2019-06-16T08:59:37Z</time>
      </trkpt>
      <trkpt lat="38.847881" lon="-0.315632">
        <ele>259.592</ele>
        <time>2019-06-16T08:59:37Z</time>
      </trkpt>
      <trkpt lat="38.847881" lon="-0.315632">
        <ele>259.537</ele>
        <time>2019-06-16T08:59:37Z</time>
      </trkpt>
      <trkpt lat="38.847881" lon="-0.315632">
        <ele>259.594</ele>
        <time>2019-06-16T08:59:37Z</time>
      </trkpt>
      <trkpt lat="38.847881" lon="-0.315632">
        <ele>259.557</ele>
        <time>2019-06-16T08:59:37Z</time>
      </trkpt>
      <trkpt lat="38.847881" lon="-0.315632">
        <ele>259.522</ele>
        <time>2019-06-16T08:59:37Z</time>
      </trkpt>
      <trkpt lat="38.847881" lon="-0.315632">
        <ele>259.508</ele>
        <time>2019-06-16T08:59:37Z</time>
      </trkpt>
      <trkpt lat="38.847881" lon="-0.315632">
        <ele>259.562</ele>
        <time>2019-06-16T08:59:37Z</time>
      </trkpt>
      <trkpt lat="38.847881" lon="-0.315632">
        <ele>259.536</ele>
        <time>2019-06-16T08:59:37Z</time>
      </trkpt>
      <trkpt lat="38.847881" lon="-0.315632">
        <ele>259.525</ele>
        <time>2019-06-16T08:59:37Z</time>
      </trkpt>
      <trkpt lat="38.847881" lon="-0.315632">
        <ele>259.548</ele>
        <time>2019-06-16T08:59:37Z</time>
      </trkpt>
      <trkpt lat="38.847881" lon="-0.315632">
        <ele>259.570</ele>
        <time>2019-06-16T08:59:37Z</time>
      </trkpt>
      <trkpt lat="38.847881" lon="-0.315632">
        <ele>259.577</ele>
        <time>2019-06-16T08:59:37Z</time>
      </trkpt>
      <trkpt lat="38.847881" lon="-0.315632">
        <ele>259.516</ele>
        <time>2019-06-16T08:59:37Z</time>
      </trkpt>
      <trkpt lat="38.847881" lon="-0.315632">
        <ele>259.561</ele>
        <time>2019-06-16T08:59:37Z</time>
      </trkpt>
      <trkpt lat="38.847881" lon="-0.315632">
        <ele>259.545</ele>
        <time>2019-06-16T08:59:37Z</time>
      </trkpt>
      <trkpt lat="38.847881" lon="-0.315632">
        <ele>259.547</ele>
        <time>2019-06-16T08:59:37Z</time>
      </trkpt>
      <trkpt lat="38.847863" lon="-0.315877">
        <ele>258.911</ele>
        <time>2019-06-16T08:59:40Z</time>
      </trkpt>
      <trkpt lat="38.847863" lon="-0.315877">
        <ele>258.908</ele>
        <time>2019-06-16T08:59:40Z</time>
      </trkpt>
      <trkpt lat="38.847863" lon="-0.315877">
        <ele>258.937</ele>
        <time>2019-06-16T08:59:40Z</time>
      </trkpt>
      <trkpt lat="38.847843" lon="-0.315966">
        <ele>257.941</ele>
        <time>2019-06-16T08:59:41Z</time>
      </trkpt>
      <trkpt lat="38.847832" lon="-0.316041">
        <ele>257.440</ele>
        <time>2019-06-16T08:59:42Z</time>
      </trkpt>
      <trkpt lat="38.847823" lon="-0.316117">
        <ele>256.913</ele>
        <time>2019-06-16T08:59:43Z</time>
      </trkpt>
      <trkpt lat="38.847817" lon="-0.316195">
        <ele>256.355</ele>
        <time>2019-06-16T08:59:44Z</time>
      </trkpt>
      <trkpt lat="38.847803" lon="-0.316315">
        <ele>255.222</ele>
        <time>2019-06-16T08:59:46Z</time>
      </trkpt>
      <trkpt lat="38.847806" lon="-0.316387">
        <ele>255.021</ele>
        <time>2019-06-16T08:59:47Z</time>
      </trkpt>
      <trkpt lat="38.847802" lon="-0.316453">
        <ele>254.616</ele>
        <time>2019-06-16T08:59:48Z</time>
      </trkpt>
      <trkpt lat="38.847802" lon="-0.316514">
        <ele>254.354</ele>
        <time>2019-06-16T08:59:49Z</time>
      </trkpt>
      <trkpt lat="38.847813" lon="-0.316575">
        <ele>254.356</ele>
        <time>2019-06-16T08:59:50Z</time>
      </trkpt>
      <trkpt lat="38.847827" lon="-0.316633">
        <ele>254.411</ele>
        <time>2019-06-16T08:59:51Z</time>
      </trkpt>
      <trkpt lat="38.847847" lon="-0.316689">
        <ele>254.508</ele>
        <time>2019-06-16T08:59:52Z</time>
      </trkpt>
      <trkpt lat="38.847891" lon="-0.316794">
        <ele>254.128</ele>
        <time>2019-06-16T08:59:54Z</time>
      </trkpt>
      <trkpt lat="38.847921" lon="-0.316846">
        <ele>254.032</ele>
        <time>2019-06-16T08:59:55Z</time>
      </trkpt>
      <trkpt lat="38.847954" lon="-0.316892">
        <ele>254.041</ele>
        <time>2019-06-16T08:59:56Z</time>
      </trkpt>
      <trkpt lat="38.847986" lon="-0.316947">
        <ele>253.734</ele>
        <time>2019-06-16T08:59:57Z</time>
      </trkpt>
      <trkpt lat="38.848021" lon="-0.316997">
        <ele>253.646</ele>
        <time>2019-06-16T08:59:58Z</time>
      </trkpt>
      <trkpt lat="38.848058" lon="-0.317044">
        <ele>253.623</ele>
        <time>2019-06-16T08:59:59Z</time>
      </trkpt>
      <trkpt lat="38.848090" lon="-0.317090">
        <ele>253.342</ele>
        <time>2019-06-16T09:00:00Z</time>
      </trkpt>
      <trkpt lat="38.848133" lon="-0.317130">
        <ele>253.417</ele>
        <time>2019-06-16T09:00:01Z</time>
      </trkpt>
      <trkpt lat="38.848175" lon="-0.317168">
        <ele>253.481</ele>
        <time>2019-06-16T09:00:02Z</time>
      </trkpt>
      <trkpt lat="38.848219" lon="-0.317208">
        <ele>253.561</ele>
        <time>2019-06-16T09:00:03Z</time>
      </trkpt>
      <trkpt lat="38.848262" lon="-0.317257">
        <ele>253.717</ele>
        <time>2019-06-16T09:00:04Z</time>
      </trkpt>
      <trkpt lat="38.848310" lon="-0.317291">
        <ele>254.108</ele>
        <time>2019-06-16T09:00:05Z</time>
      </trkpt>
      <trkpt lat="38.848354" lon="-0.317334">
        <ele>254.791</ele>
        <time>2019-06-16T09:00:06Z</time>
      </trkpt>
      <trkpt lat="38.848397" lon="-0.317375">
        <ele>255.445</ele>
        <time>2019-06-16T09:00:07Z</time>
      </trkpt>
      <trkpt lat="38.848442" lon="-0.317412">
        <ele>256.054</ele>
        <time>2019-06-16T09:00:08Z</time>
      </trkpt>
      <trkpt lat="38.848491" lon="-0.317445">
        <ele>256.687</ele>
        <time>2019-06-16T09:00:09Z</time>
      </trkpt>
      <trkpt lat="38.848542" lon="-0.317483">
        <ele>257.069</ele>
        <time>2019-06-16T09:00:10Z</time>
      </trkpt>
      <trkpt lat="38.848585" lon="-0.317525">
        <ele>257.266</ele>
        <time>2019-06-16T09:00:11Z</time>
      </trkpt>
      <trkpt lat="38.848635" lon="-0.317562">
        <ele>257.145</ele>
        <time>2019-06-16T09:00:12Z</time>
      </trkpt>
      <trkpt lat="38.848693" lon="-0.317549">
        <ele>257.290</ele>
        <time>2019-06-16T09:00:13Z</time>
      </trkpt>
      <trkpt lat="38.848746" lon="-0.317575">
        <ele>256.858</ele>
        <time>2019-06-16T09:00:14Z</time>
      </trkpt>
      <trkpt lat="38.848804" lon="-0.317602">
        <ele>256.352</ele>
        <time>2019-06-16T09:00:15Z</time>
      </trkpt>
      <trkpt lat="38.848855" lon="-0.317627">
        <ele>255.817</ele>
        <time>2019-06-16T09:00:16Z</time>
      </trkpt>
      <trkpt lat="38.848909" lon="-0.317652">
        <ele>255.208</ele>
        <time>2019-06-16T09:00:17Z</time>
      </trkpt>
      <trkpt lat="38.848962" lon="-0.317676">
        <ele>254.818</ele>
        <time>2019-06-16T09:00:18Z</time>
      </trkpt>
      <trkpt lat="38.849004" lon="-0.317746">
        <ele>253.812</ele>
        <time>2019-06-16T09:00:19Z</time>
      </trkpt>
      <trkpt lat="38.849046" lon="-0.317784">
        <ele>253.521</ele>
        <time>2019-06-16T09:00:20Z</time>
      </trkpt>
      <trkpt lat="38.849091" lon="-0.317836">
        <ele>253.424</ele>
        <time>2019-06-16T09:00:21Z</time>
      </trkpt>
      <trkpt lat="38.849139" lon="-0.317878">
        <ele>253.286</ele>
        <time>2019-06-16T09:00:22Z</time>
      </trkpt>
      <trkpt lat="38.849199" lon="-0.317929">
        <ele>253.393</ele>
        <time>2019-06-16T09:00:23Z</time>
      </trkpt>
      <trkpt lat="38.849246" lon="-0.318007">
        <ele>253.322</ele>
        <time>2019-06-16T09:00:24Z</time>
      </trkpt>
      <trkpt lat="38.849304" lon="-0.318062">
        <ele>253.457</ele>
        <time>2019-06-16T09:00:25Z</time>
      </trkpt>
      <trkpt lat="38.849353" lon="-0.318115">
        <ele>253.442</ele>
        <time>2019-06-16T09:00:26Z</time>
      </trkpt>
      <trkpt lat="38.849389" lon="-0.318190">
        <ele>252.922</ele>
        <time>2019-06-16T09:00:27Z</time>
      </trkpt>
      <trkpt lat="38.849397" lon="-0.318275">
        <ele>252.114</ele>
        <time>2019-06-16T09:00:28Z</time>
      </trkpt>
      <trkpt lat="38.849379" lon="-0.318362">
        <ele>251.008</ele>
        <time>2019-06-16T09:00:29Z</time>
      </trkpt>
      <trkpt lat="38.849356" lon="-0.318416">
        <ele>250.297</ele>
        <time>2019-06-16T09:00:30Z</time>
      </trkpt>
      <trkpt lat="38.849327" lon="-0.318492">
        <ele>249.061</ele>
        <time>2019-06-16T09:00:31Z</time>
      </trkpt>
      <trkpt lat="38.849304" lon="-0.318555">
        <ele>248.130</ele>
        <time>2019-06-16T09:00:32Z</time>
      </trkpt>
      <trkpt lat="38.849279" lon="-0.318610">
        <ele>247.253</ele>
        <time>2019-06-16T09:00:33Z</time>
      </trkpt>
      <trkpt lat="38.849260" lon="-0.318667">
        <ele>246.645</ele>
        <time>2019-06-16T09:00:34Z</time>
      </trkpt>
      <trkpt lat="38.849260" lon="-0.318667">
        <ele>246.612</ele>
        <time>2019-06-16T09:00:34Z</time>
      </trkpt>
      <trkpt lat="38.849211" lon="-0.318887">
        <ele>245.011</ele>
        <time>2019-06-16T09:00:38Z</time>
      </trkpt>
      <trkpt lat="38.849211" lon="-0.318887">
        <ele>245.036</ele>
        <time>2019-06-16T09:00:38Z</time>
      </trkpt>
      <trkpt lat="38.849211" lon="-0.318887">
        <ele>245.046</ele>
        <time>2019-06-16T09:00:38Z</time>
      </trkpt>
      <trkpt lat="38.849211" lon="-0.318887">
        <ele>245.088</ele>
        <time>2019-06-16T09:00:38Z</time>
      </trkpt>
      <trkpt lat="38.849127" lon="-0.319198">
        <ele>245.016</ele>
        <time>2019-06-16T09:00:44Z</time>
      </trkpt>
      <trkpt lat="38.849127" lon="-0.319198">
        <ele>245.008</ele>
        <time>2019-06-16T09:00:44Z</time>
      </trkpt>
      <trkpt lat="38.849127" lon="-0.319198">
        <ele>245.097</ele>
        <time>2019-06-16T09:00:44Z</time>
      </trkpt>
      <trkpt lat="38.849127" lon="-0.319198">
        <ele>245.081</ele>
        <time>2019-06-16T09:00:44Z</time>
      </trkpt>
      <trkpt lat="38.849127" lon="-0.319198">
        <ele>245.010</ele>
        <time>2019-06-16T09:00:44Z</time>
      </trkpt>
      <trkpt lat="38.849127" lon="-0.319198">
        <ele>245.073</ele>
        <time>2019-06-16T09:00:44Z</time>
      </trkpt>
      <trkpt lat="38.848975" lon="-0.319666">
        <ele>248.565</ele>
        <time>2019-06-16T09:00:53Z</time>
      </trkpt>
      <trkpt lat="38.848975" lon="-0.319666">
        <ele>248.532</ele>
        <time>2019-06-16T09:00:53Z</time>
      </trkpt>
      <trkpt lat="38.848975" lon="-0.319666">
        <ele>248.551</ele>
        <time>2019-06-16T09:00:53Z</time>
      </trkpt>
      <trkpt lat="38.848975" lon="-0.319666">
        <ele>248.546</ele>
        <time>2019-06-16T09:00:53Z</time>
      </trkpt>
      <trkpt lat="38.848975" lon="-0.319666">
        <ele>248.566</ele>
        <time>2019-06-16T09:00:53Z</time>
      </trkpt>
      <trkpt lat="38.848975" lon="-0.319666">
        <ele>248.529</ele>
        <time>2019-06-16T09:00:53Z</time>
      </trkpt>
      <trkpt lat="38.848975" lon="-0.319666">
        <ele>248.521</ele>
        <time>2019-06-16T09:00:53Z</time>
      </trkpt>
      <trkpt lat="38.848975" lon="-0.319666">
        <ele>248.508</ele>
        <time>2019-06-16T09:00:53Z</time>
      </trkpt>
      <trkpt lat="38.848975" lon="-0.319666">
        <ele>248.549</ele>
        <time>2019-06-16T09:00:53Z</time>
      </trkpt>
      <trkpt lat="38.848980" lon="-0.320402">
        <ele>251.033</ele>
        <time>2019-06-16T09:01:08Z</time>
      </trkpt>
      <trkpt lat="38.848980" lon="-0.320402">
        <ele>251.022</ele>
        <time>2019-06-16T09:01:08Z</time>
      </trkpt>
      <trkpt lat="38.848980" lon="-0.320402">
        <ele>251.015</ele>
        <time>2019-06-16T09:01:08Z</time>
      </trkpt>
      <trkpt lat="38.848980" lon="-0.320402">
        <ele>251.057</ele>
        <time>2019-06-16T09:01:08Z</time>
      </trkpt>
      <trkpt lat="38.848980" lon="-0.320402">
        <ele>251.094</ele>
        <time>2019-06-16T09:01:08Z</time>
      </trkpt>
      <trkpt lat="38.848980" lon="-0.320402">
        <ele>251.053</ele>
        <time>2019-06-16T09:01:08Z</time>
      </trkpt>
      <trkpt lat="38.848980" lon="-0.320402">
        <ele>251.058</ele>
        <time>2019-06-16T09:01:08Z</time>
      </trkpt>
      <trkpt lat="38.848980" lon="-0.320402">
        <ele>251.094</ele>
        <time>2019-06-16T09:01:08Z</time>
      </trkpt>
      <trkpt lat="38.848980" lon="-0.320402">
        <ele>251.057</ele>
        <time>2019-06-16T09:01:08Z</time>
      </trkpt>
      <trkpt lat="38.848980" lon="-0.320402">
        <ele>251.022</ele>
        <time>2019-06-16T09:01:08Z</time>
      </trkpt>
      <trkpt lat="38.848980" lon="-0.320402">
        <ele>251.008</ele>
        <time>2019-06-16T09:01:08Z</time>
      </trkpt>
      <trkpt lat="38.848980" lon="-0.320402">
        <ele>251.082</ele>
        <time>2019-06-16T09:01:08Z</time>
      </trkpt>
      <trkpt lat="38.848980" lon="-0.320402">
        <ele>251.046</ele>
        <time>2019-06-16T09:01:08Z</time>
      </trkpt>
      <trkpt lat="38.848980" lon="-0.320402">
        <ele>251.095</ele>
        <time>2019-06-16T09:01:08Z</time>
      </trkpt>
      <trkpt lat="38.848980" lon="-0.320402">
        <ele>251.018</ele>
        <time>2019-06-16T09:01:08Z</time>
      </trkpt>
      <trkpt lat="38.849028" lon="-0.321397">
        <ele>254.060</ele>
        <time>2019-06-16T09:01:31Z</time>
      </trkpt>
      <trkpt lat="38.849028" lon="-0.321397">
        <ele>254.057</ele>
        <time>2019-06-16T09:01:31Z</time>
      </trkpt>
      <trkpt lat="38.849028" lon="-0.321397">
        <ele>254.076</ele>
        <time>2019-06-16T09:01:31Z</time>
      </trkpt>
      <trkpt lat="38.849028" lon="-0.321397">
        <ele>254.081</ele>
        <time>2019-06-16T09:01:31Z</time>
      </trkpt>
      <trkpt lat="38.849028" lon="-0.321397">
        <ele>254.076</ele>
        <time>2019-06-16T09:01:31Z</time>
      </trkpt>
      <trkpt lat="38.849028" lon="-0.321397">
        <ele>254.090</ele>
        <time>2019-06-16T09:01:31Z</time>
      </trkpt>
      <trkpt lat="38.849028" lon="-0.321397">
        <ele>254.019</ele>
        <time>2019-06-16T09:01:31Z</time>
      </trkpt>
      <trkpt lat="38.849028" lon="-0.321397">
        <ele>254.008</ele>
        <time>2019-06-16T09:01:31Z</time>
      </trkpt>
      <trkpt lat="38.849028" lon="-0.321397">
        <ele>254.060</ele>
        <time>2019-06-16T09:01:31Z</time>
      </trkpt>
      <trkpt lat="38.849028" lon="-0.321397">
        <ele>254.074</ele>
        <time>2019-06-16T09:01:31Z</time>
      </trkpt>
      <trkpt lat="38.849028" lon="-0.321397">
        <ele>254.023</ele>
        <time>2019-06-16T09:01:31Z</time>
      </trkpt>
      <trkpt lat="38.849028" lon="-0.321397">
        <ele>254.076</ele>
        <time>2019-06-16T09:01:31Z</time>
      </trkpt>
      <trkpt lat="38.849028" lon="-0.321397">
        <ele>254.068</ele>
        <time>2019-06-16T09:01:31Z</time>
      </trkpt>
      <trkpt lat="38.849028" lon="-0.321397">
        <ele>254.045</ele>
        <time>2019-06-16T09:01:31Z</time>
      </trkpt>
      <trkpt lat="38.849028" lon="-0.321397">
        <ele>254.094</ele>
        <time>2019-06-16T09:01:31Z</time>
      </trkpt>
      <trkpt lat="38.849028" lon="-0.321397">
        <ele>254.039</ele>
        <time>2019-06-16T09:01:31Z</time>
      </trkpt>
      <trkpt lat="38.849028" lon="-0.321397">
        <ele>254.025</ele>
        <time>2019-06-16T09:01:31Z</time>
      </trkpt>
      <trkpt lat="38.849028" lon="-0.321397">
        <ele>254.026</ele>
        <time>2019-06-16T09:01:31Z</time>
      </trkpt>
      <trkpt lat="38.849028" lon="-0.321397">
        <ele>254.008</ele>
        <time>2019-06-16T09:01:31Z</time>
      </trkpt>
      <trkpt lat="38.849028" lon="-0.321397">
        <ele>254.008</ele>
        <time>2019-06-16T09:01:31Z</time>
      </trkpt>
      <trkpt lat="38.849028" lon="-0.321397">
        <ele>254.025</ele>
        <time>2019-06-16T09:01:31Z</time>
      </trkpt>
      <trkpt lat="38.849028" lon="-0.321397">
        <ele>254.089</ele>
        <time>2019-06-16T09:01:31Z</time>
      </trkpt>
      <trkpt lat="38.849028" lon="-0.321397">
        <ele>254.048</ele>
        <time>2019-06-16T09:01:31Z</time>
      </trkpt>
      <trkpt lat="38.849174" lon="-0.322788">
        <ele>260.161</ele>
        <time>2019-06-16T09:02:08Z</time>
      </trkpt>
      <trkpt lat="38.849174" lon="-0.322788">
        <ele>260.173</ele>
        <time>2019-06-16T09:02:08Z</time>
      </trkpt>
      <trkpt lat="38.849174" lon="-0.322788">
        <ele>260.160</ele>
        <time>2019-06-16T09:02:08Z</time>
      </trkpt>
      <trkpt lat="38.849174" lon="-0.322788">
        <ele>260.179</ele>
        <time>2019-06-16T09:02:08Z</time>
      </trkpt>
      <trkpt lat="38.849174" lon="-0.322788">
        <ele>260.184</ele>
        <time>2019-06-16T09:02:08Z</time>
      </trkpt>
      <trkpt lat="38.849174" lon="-0.322788">
        <ele>260.157</ele>
        <time>2019-06-16T09:02:08Z</time>
      </trkpt>
      <trkpt lat="38.849174" lon="-0.322788">
        <ele>260.100</ele>
        <time>2019-06-16T09:02:08Z</time>
      </trkpt>
      <trkpt lat="38.849174" lon="-0.322788">
        <ele>260.120</ele>
        <time>2019-06-16T09:02:08Z</time>
      </trkpt>
      <trkpt lat="38.849174" lon="-0.322788">
        <ele>260.108</ele>
        <time>2019-06-16T09:02:08Z</time>
      </trkpt>
      <trkpt lat="38.849174" lon="-0.322788">
        <ele>260.148</ele>
        <time>2019-06-16T09:02:08Z</time>
      </trkpt>
      <trkpt lat="38.849174" lon="-0.322788">
        <ele>260.112</ele>
        <time>2019-06-16T09:02:08Z</time>
      </trkpt>
      <trkpt lat="38.849174" lon="-0.322788">
        <ele>260.161</ele>
        <time>2019-06-16T09:02:08Z</time>
      </trkpt>
      <trkpt lat="38.849174" lon="-0.322788">
        <ele>260.144</ele>
        <time>2019-06-16T09:02:08Z</time>
      </trkpt>
      <trkpt lat="38.849174" lon="-0.322788">
        <ele>260.136</ele>
        <time>2019-06-16T09:02:08Z</time>
      </trkpt>
      <trkpt lat="38.849174" lon="-0.322788">
        <ele>260.133</ele>
        <time>2019-06-16T09:02:08Z</time>
      </trkpt>
      <trkpt lat="38.849174" lon="-0.322788">
        <ele>260.142</ele>
        <time>2019-06-16T09:02:08Z</time>
      </trkpt>
      <trkpt lat="38.849174" lon="-0.322788">
        <ele>260.157</ele>
        <time>2019-06-16T09:02:08Z</time>
      </trkpt>
      <trkpt lat="38.849174" lon="-0.322788">
        <ele>260.192</ele>
        <time>2019-06-16T09:02:08Z</time>
      </trkpt>
      <trkpt lat="38.849174" lon="-0.322788">
        <ele>260.173</ele>
        <time>2019-06-16T09:02:08Z</time>
      </trkpt>
      <trkpt lat="38.849174" lon="-0.322788">
        <ele>260.120</ele>
        <time>2019-06-16T09:02:08Z</time>
      </trkpt>
      <trkpt lat="38.849174" lon="-0.322788">
        <ele>260.108</ele>
        <time>2019-06-16T09:02:08Z</time>
      </trkpt>
      <trkpt lat="38.849174" lon="-0.322788">
        <ele>260.112</ele>
        <time>2019-06-16T09:02:08Z</time>
      </trkpt>
      <trkpt lat="38.849174" lon="-0.322788">
        <ele>260.156</ele>
        <time>2019-06-16T09:02:08Z</time>
      </trkpt>
      <trkpt lat="38.849174" lon="-0.322788">
        <ele>260.165</ele>
        <time>2019-06-16T09:02:08Z</time>
      </trkpt>
      <trkpt lat="38.849174" lon="-0.322788">
        <ele>260.178</ele>
        <time>2019-06-16T09:02:08Z</time>
      </trkpt>
      <trkpt lat="38.849174" lon="-0.322788">
        <ele>260.150</ele>
        <time>2019-06-16T09:02:08Z</time>
      </trkpt>
      <trkpt lat="38.849174" lon="-0.322788">
        <ele>260.127</ele>
        <time>2019-06-16T09:02:08Z</time>
      </trkpt>
      <trkpt lat="38.849174" lon="-0.322788">
        <ele>260.186</ele>
        <time>2019-06-16T09:02:08Z</time>
      </trkpt>
      <trkpt lat="38.849174" lon="-0.322788">
        <ele>260.161</ele>
        <time>2019-06-16T09:02:08Z</time>
      </trkpt>
      <trkpt lat="38.849174" lon="-0.322788">
        <ele>260.159</ele>
        <time>2019-06-16T09:02:08Z</time>
      </trkpt>
      <trkpt lat="38.849174" lon="-0.322788">
        <ele>260.103</ele>
        <time>2019-06-16T09:02:08Z</time>
      </trkpt>
      <trkpt lat="38.849174" lon="-0.322788">
        <ele>260.123</ele>
        <time>2019-06-16T09:02:08Z</time>
      </trkpt>
      <trkpt lat="38.849174" lon="-0.322788">
        <ele>260.108</ele>
        <time>2019-06-16T09:02:08Z</time>
      </trkpt>
      <trkpt lat="38.849174" lon="-0.322788">
        <ele>260.118</ele>
        <time>2019-06-16T09:02:08Z</time>
      </trkpt>
      <trkpt lat="38.849174" lon="-0.322788">
        <ele>260.152</ele>
        <time>2019-06-16T09:02:08Z</time>
      </trkpt>
      <trkpt lat="38.849174" lon="-0.322788">
        <ele>260.131</ele>
        <time>2019-06-16T09:02:08Z</time>
      </trkpt>
      <trkpt lat="38.849174" lon="-0.322788">
        <ele>260.164</ele>
        <time>2019-06-16T09:02:08Z</time>
      </trkpt>
      <trkpt lat="38.850263" lon="-0.322367">
        <ele>268.056</ele>
        <time>2019-06-16T09:03:10Z</time>
      </trkpt>
      <trkpt lat="38.850263" lon="-0.322367">
        <ele>268.073</ele>
        <time>2019-06-16T09:03:10Z</time>
      </trkpt>
      <trkpt lat="38.850263" lon="-0.322367">
        <ele>268.012</ele>
        <time>2019-06-16T09:03:10Z</time>
      </trkpt>
      <trkpt lat="38.850263" lon="-0.322367">
        <ele>268.067</ele>
        <time>2019-06-16T09:03:10Z</time>
      </trkpt>
      <trkpt lat="38.850263" lon="-0.322367">
        <ele>268.063</ele>
        <time>2019-06-16T09:03:10Z</time>
      </trkpt>
      <trkpt lat="38.850263" lon="-0.322367">
        <ele>268.044</ele>
        <time>2019-06-16T09:03:10Z</time>
      </trkpt>
      <trkpt lat="38.850263" lon="-0.322367">
        <ele>268.018</ele>
        <time>2019-06-16T09:03:10Z</time>
      </trkpt>
      <trkpt lat="38.850263" lon="-0.322367">
        <ele>268.008</ele>
        <time>2019-06-16T09:03:10Z</time>
      </trkpt>
      <trkpt lat="38.850263" lon="-0.322367">
        <ele>268.099</ele>
        <time>2019-06-16T09:03:10Z</time>
      </trkpt>
      <trkpt lat="38.850263" lon="-0.322367">
        <ele>268.023</ele>
        <time>2019-06-16T09:03:10Z</time>
      </trkpt>
      <trkpt lat="38.850263" lon="-0.322367">
        <ele>268.092</ele>
        <time>2019-06-16T09:03:10Z</time>
      </trkpt>
      <trkpt lat="38.850263" lon="-0.322367">
        <ele>268.065</ele>
        <time>2019-06-16T09:03:10Z</time>
      </trkpt>
      <trkpt lat="38.850263" lon="-0.322367">
        <ele>268.037</ele>
        <time>2019-06-16T09:03:10Z</time>
      </trkpt>
      <trkpt lat="38.850263" lon="-0.322367">
        <ele>268.054</ele>
        <time>2019-06-16T09:03:10Z</time>
      </trkpt>
      <trkpt lat="38.850263" lon="-0.322367">
        <ele>268.013</ele>
        <time>2019-06-16T09:03:10Z</time>
      </trkpt>
      <trkpt lat="38.850263" lon="-0.322367">
        <ele>268.018</ele>
        <time>2019-06-16T09:03:10Z</time>
      </trkpt>
      <trkpt lat="38.850263" lon="-0.322367">
        <ele>268.027</ele>
        <time>2019-06-16T09:03:10Z</time>
      </trkpt>
      <trkpt lat="38.850263" lon="-0.322367">
        <ele>268.068</ele>
        <time>2019-06-16T09:03:10Z</time>
      </trkpt>
      <trkpt lat="38.850263" lon="-0.322367">
        <ele>268.014</ele>
        <time>2019-06-16T09:03:10Z</time>
      </trkpt>
      <trkpt lat="38.850263" lon="-0.322367">
        <ele>268.008</ele>
        <time>2019-06-16T09:03:10Z</time>
      </trkpt>
      <trkpt lat="38.850263" lon="-0.322367">
        <ele>268.095</ele>
        <time>2019-06-16T09:03:10Z</time>
      </trkpt>
      <trkpt lat="38.850263" lon="-0.322367">
        <ele>268.029</ele>
        <time>2019-06-16T09:03:10Z</time>
      </trkpt>
      <trkpt lat="38.850263" lon="-0.322367">
        <ele>268.088</ele>
        <time>2019-06-16T09:03:10Z</time>
      </trkpt>
      <trkpt lat="38.850263" lon="-0.322367">
        <ele>268.071</ele>
        <time>2019-06-16T09:03:10Z</time>
      </trkpt>
      <trkpt lat="38.850263" lon="-0.322367">
        <ele>268.083</ele>
        <time>2019-06-16T09:03:10Z</time>
      </trkpt>
      <trkpt lat="38.850263" lon="-0.322367">
        <ele>268.030</ele>
        <time>2019-06-16T09:03:10Z</time>
      </trkpt>
      <trkpt lat="38.850263" lon="-0.322367">
        <ele>268.029</ele>
        <time>2019-06-16T09:03:10Z</time>
      </trkpt>
      <trkpt lat="38.850263" lon="-0.322367">
        <ele>268.084</ele>
        <time>2019-06-16T09:03:10Z</time>
      </trkpt>
      <trkpt lat="38.850263" lon="-0.322367">
        <ele>268.099</ele>
        <time>2019-06-16T09:03:10Z</time>
      </trkpt>
      <trkpt lat="38.850263" lon="-0.322367">
        <ele>268.007</ele>
        <time>2019-06-16T09:03:10Z</time>
      </trkpt>
      <trkpt lat="38.850263" lon="-0.322367">
        <ele>268.027</ele>
        <time>2019-06-16T09:03:10Z</time>
      </trkpt>
      <trkpt lat="38.850263" lon="-0.322367">
        <ele>268.008</ele>
        <time>2019-06-16T09:03:10Z</time>
      </trkpt>
      <trkpt lat="38.850263" lon="-0.322367">
        <ele>268.082</ele>
        <time>2019-06-16T09:03:10Z</time>
      </trkpt>
      <trkpt lat="38.850263" lon="-0.322367">
        <ele>268.096</ele>
        <time>2019-06-16T09:03:10Z</time>
      </trkpt>
      <trkpt lat="38.850263" lon="-0.322367">
        <ele>268.035</ele>
        <time>2019-06-16T09:03:10Z</time>
      </trkpt>
      <trkpt lat="38.850263" lon="-0.322367">
        <ele>268.018</ele>
        <time>2019-06-16T09:03:10Z</time>
      </trkpt>
      <trkpt lat="38.850263" lon="-0.322367">
        <ele>268.050</ele>
        <time>2019-06-16T09:03:10Z</time>
      </trkpt>
      <trkpt lat="38.850263" lon="-0.322367">
        <ele>268.037</ele>
        <time>2019-06-16T09:03:10Z</time>
      </trkpt>
      <trkpt lat="38.850263" lon="-0.322367">
        <ele>268.056</ele>
        <time>2019-06-16T09:03:10Z</time>
      </trkpt>
      <trkpt lat="38.850263" lon="-0.322367">
        <ele>268.041</ele>
        <time>2019-06-16T09:03:10Z</time>
      </trkpt>
      <trkpt lat="38.850263" lon="-0.322367">
        <ele>268.032</ele>
        <time>2019-06-16T09:03:10Z</time>
      </trkpt>
      <trkpt lat="38.850263" lon="-0.322367">
        <ele>268.092</ele>
        <time>2019-06-16T09:03:10Z</time>
      </trkpt>
      <trkpt lat="38.850263" lon="-0.322367">
        <ele>268.011</ele>
        <time>2019-06-16T09:03:10Z</time>
      </trkpt>
      <trkpt lat="38.850263" lon="-0.322367">
        <ele>268.008</ele>
        <time>2019-06-16T09:03:10Z</time>
      </trkpt>
      <trkpt lat="38.850263" lon="-0.322367">
        <ele>268.016</ele>
        <time>2019-06-16T09:03:10Z</time>
      </trkpt>
      <trkpt lat="38.850263" lon="-0.322367">
        <ele>268.090</ele>
        <time>2019-06-16T09:03:10Z</time>
      </trkpt>
      <trkpt lat="38.850263" lon="-0.322367">
        <ele>268.039</ele>
        <time>2019-06-16T09:03:10Z</time>
      </trkpt>
      <trkpt lat="38.850263" lon="-0.322367">
        <ele>268.022</ele>
        <time>2019-06-16T09:03:10Z</time>
      </trkpt>
      <trkpt lat="38.850263" lon="-0.322367">
        <ele>268.094</ele>
        <time>2019-06-16T09:03:10Z</time>
      </trkpt>
      <trkpt lat="38.850263" lon="-0.322367">
        <ele>268.021</ele>
        <time>2019-06-16T09:03:10Z</time>
      </trkpt>
      <trkpt lat="38.850263" lon="-0.322367">
        <ele>268.040</ele>
        <time>2019-06-16T09:03:10Z</time>
      </trkpt>
      <trkpt lat="38.850263" lon="-0.322367">
        <ele>268.015</ele>
        <time>2019-06-16T09:03:10Z</time>
      </trkpt>
      <trkpt lat="38.850263" lon="-0.322367">
        <ele>268.083</ele>
        <time>2019-06-16T09:03:10Z</time>
      </trkpt>
      <trkpt lat="38.850263" lon="-0.322367">
        <ele>268.025</ele>
        <time>2019-06-16T09:03:10Z</time>
      </trkpt>
      <trkpt lat="38.850263" lon="-0.322367">
        <ele>268.017</ele>
        <time>2019-06-16T09:03:10Z</time>
      </trkpt>
      <trkpt lat="38.850263" lon="-0.322367">
        <ele>268.008</ele>
        <time>2019-06-16T09:03:10Z</time>
      </trkpt>
      <trkpt lat="38.850263" lon="-0.322367">
        <ele>268.091</ele>
        <time>2019-06-16T09:03:10Z</time>
      </trkpt>
      <trkpt lat="38.850263" lon="-0.322367">
        <ele>268.075</ele>
        <time>2019-06-16T09:03:10Z</time>
      </trkpt>
      <trkpt lat="38.850263" lon="-0.322367">
        <ele>268.024</ele>
        <time>2019-06-16T09:03:10Z</time>
      </trkpt>
      <trkpt lat="38.850263" lon="-0.322367">
        <ele>268.097</ele>
        <time>2019-06-16T09:03:10Z</time>
      </trkpt>
      <trkpt lat="38.850263" lon="-0.322367">
        <ele>268.029</ele>
        <time>2019-06-16T09:03:10Z</time>
      </trkpt>
      <trkpt lat="38.850263" lon="-0.322367">
        <ele>268.086</ele>
        <time>2019-06-16T09:03:10Z</time>
      </trkpt>
      <trkpt lat="38.850231" lon="-0.322325">
        <ele>266.535</ele>
        <time>2019-06-16T09:04:57Z</time>
      </trkpt>
      <trkpt lat="38.850185" lon="-0.322304">
        <ele>265.650</ele>
        <time>2019-06-16T09:05:01Z</time>
      </trkpt>
      <trkpt lat="38.850158" lon="-0.322354">
        <ele>266.524</ele>
        <time>2019-06-16T09:05:03Z</time>
      </trkpt>
      <trkpt lat="38.850126" lon="-0.322435">
        <ele>267.904</ele>
        <time>2019-06-16T09:05:05Z</time>
      </trkpt>
      <trkpt lat="38.850080" lon="-0.322513">
        <ele>268.714</ele>
        <time>2019-06-16T09:05:07Z</time>
      </trkpt>
      <trkpt lat="38.850031" lon="-0.322568">
        <ele>269.208</ele>
        <time>2019-06-16T09:05:09Z</time>
      </trkpt>
      <trkpt lat="38.849971" lon="-0.322624">
        <ele>269.775</ele>
        <time>2019-06-16T09:05:11Z</time>
      </trkpt>
      <trkpt lat="38.849902" lon="-0.322712">
        <ele>270.779</ele>
        <time>2019-06-16T09:05:13Z</time>
      </trkpt>
      <trkpt lat="38.849876" lon="-0.322771">
        <ele>271.678</ele>
        <time>2019-06-16T09:05:15Z</time>
      </trkpt>
      <trkpt lat="38.849843" lon="-0.322845">
        <ele>271.991</ele>
        <time>2019-06-16T09:05:17Z</time>
      </trkpt>
      <trkpt lat="38.849802" lon="-0.322905">
        <ele>272.023</ele>
        <time>2019-06-16T09:05:19Z</time>
      </trkpt>
      <trkpt lat="38.849752" lon="-0.322951">
        <ele>271.960</ele>
        <time>2019-06-16T09:05:21Z</time>
      </trkpt>
      <trkpt lat="38.849706" lon="-0.322987">
        <ele>271.679</ele>
        <time>2019-06-16T09:05:23Z</time>
      </trkpt>
      <trkpt lat="38.849667" lon="-0.323022">
        <ele>271.044</ele>
        <time>2019-06-16T09:05:25Z</time>
      </trkpt>
      <trkpt lat="38.849632" lon="-0.323073">
        <ele>270.584</ele>
        <time>2019-06-16T09:05:27Z</time>
      </trkpt>
      <trkpt lat="38.849609" lon="-0.323133">
        <ele>270.307</ele>
        <time>2019-06-16T09:05:29Z</time>
      </trkpt>
      <trkpt lat="38.849605" lon="-0.323196">
        <ele>270.617</ele>
        <time>2019-06-16T09:05:31Z</time>
      </trkpt>
      <trkpt lat="38.849633" lon="-0.323243">
        <ele>271.808</ele>
        <time>2019-06-16T09:05:33Z</time>
      </trkpt>
      <trkpt lat="38.849684" lon="-0.323256">
        <ele>273.311</ele>
        <time>2019-06-16T09:05:35Z</time>
      </trkpt>
      <trkpt lat="38.849739" lon="-0.323245">
        <ele>274.635</ele>
        <time>2019-06-16T09:05:37Z</time>
      </trkpt>
      <trkpt lat="38.849792" lon="-0.323225">
        <ele>275.124</ele>
        <time>2019-06-16T09:05:39Z</time>
      </trkpt>
      <trkpt lat="38.849842" lon="-0.323197">
        <ele>275.517</ele>
        <time>2019-06-16T09:05:41Z</time>
      </trkpt>
      <trkpt lat="38.849890" lon="-0.323170">
        <ele>275.979</ele>
        <time>2019-06-16T09:05:43Z</time>
      </trkpt>
      <trkpt lat="38.849941" lon="-0.323150">
        <ele>276.396</ele>
        <time>2019-06-16T09:05:45Z</time>
      </trkpt>
      <trkpt lat="38.849998" lon="-0.323124">
        <ele>276.785</ele>
        <time>2019-06-16T09:05:47Z</time>
      </trkpt>
      <trkpt lat="38.850057" lon="-0.323081">
        <ele>277.190</ele>
        <time>2019-06-16T09:05:49Z</time>
      </trkpt>
      <trkpt lat="38.850121" lon="-0.323023">
        <ele>277.439</ele>
        <time>2019-06-16T09:05:51Z</time>
      </trkpt>
      <trkpt lat="38.850178" lon="-0.322962">
        <ele>277.501</ele>
        <time>2019-06-16T09:05:53Z</time>
      </trkpt>
      <trkpt lat="38.850232" lon="-0.322904">
        <ele>277.321</ele>
        <time>2019-06-16T09:05:55Z</time>
      </trkpt>
      <trkpt lat="38.850291" lon="-0.322859">
        <ele>277.208</ele>
        <time>2019-06-16T09:05:57Z</time>
      </trkpt>
      <trkpt lat="38.850348" lon="-0.322831">
        <ele>277.056</ele>
        <time>2019-06-16T09:05:59Z</time>
      </trkpt>
      <trkpt lat="38.850400" lon="-0.322828">
        <ele>277.230</ele>
        <time>2019-06-16T09:06:01Z</time>
      </trkpt>
      <trkpt lat="38.850445" lon="-0.322864">
        <ele>277.839</ele>
        <time>2019-06-16T09:06:03Z</time>
      </trkpt>
      <trkpt lat="38.850480" lon="-0.322929">
        <ele>278.942</ele>
        <time>2019-06-16T09:06:05Z</time>
      </trkpt>
      <trkpt lat="38.850490" lon="-0.323007">
        <ele>280.144</ele>
        <time>2019-06-16T09:06:07Z</time>
      </trkpt>
      <trkpt lat="38.850469" lon="-0.323093">
        <ele>281.591</ele>
        <time>2019-06-16T09:06:09Z</time>
      </trkpt>
      <trkpt lat="38.850432" lon="-0.323181">
        <ele>283.110</ele>
        <time>2019-06-16T09:06:11Z</time>
      </trkpt>
      <trkpt lat="38.850400" lon="-0.323267">
        <ele>284.655</ele>
        <time>2019-06-16T09:06:13Z</time>
      </trkpt>
      <trkpt lat="38.850375" lon="-0.323350">
        <ele>286.097</ele>
        <time>2019-06-16T09:06:15Z</time>
      </trkpt>
      <trkpt lat="38.850360" lon="-0.323429">
        <ele>287.123</ele>
        <time>2019-06-16T09:06:17Z</time>
      </trkpt>
      <trkpt lat="38.850353" lon="-0.323509">
        <ele>288.225</ele>
        <time>2019-06-16T09:06:19Z</time>
      </trkpt>
      <trkpt lat="38.850354" lon="-0.323589">
        <ele>289.508</ele>
        <time>2019-06-16T09:06:21Z</time>
      </trkpt>
      <trkpt lat="38.850360" lon="-0.323667">
        <ele>289.212</ele>
        <time>2019-06-16T09:06:23Z</time>
      </trkpt>
      <trkpt lat="38.850363" lon="-0.323734">
        <ele>288.446</ele>
        <time>2019-06-16T09:06:25Z</time>
      </trkpt>
      <trkpt lat="38.850368" lon="-0.323814">
        <ele>287.525</ele>
        <time>2019-06-16T09:06:28Z</time>
      </trkpt>
      <trkpt lat="38.850391" lon="-0.323925">
        <ele>286.458</ele>
        <time>2019-06-16T09:06:37Z</time>
      </trkpt>
      <trkpt lat="38.850382" lon="-0.323993">
        <ele>285.060</ele>
        <time>2019-06-16T09:06:44Z</time>
      </trkpt>
      <trkpt lat="38.850334" lon="-0.324020">
        <ele>283.597</ele>
        <time>2019-06-16T09:06:49Z</time>
      </trkpt>
      <trkpt lat="38.850291" lon="-0.324065">
        <ele>281.596</ele>
        <time>2019-06-16T09:06:54Z</time>
      </trkpt>
      <trkpt lat="38.850242" lon="-0.324045">
        <ele>281.111</ele>
        <time>2019-06-16T09:07:44Z</time>
      </trkpt>
      <trkpt lat="38.850207" lon="-0.324100">
        <ele>279.642</ele>
        <time>2019-06-16T09:07:48Z</time>
      </trkpt>
      <trkpt lat="38.850191" lon="-0.324165">
        <ele>278.122</ele>
        <time>2019-06-16T09:07:52Z</time>
      </trkpt>
      <trkpt lat="38.850181" lon="-0.324229">
        <ele>277.714</ele>
        <time>2019-06-16T09:07:58Z</time>
      </trkpt>
      <trkpt lat="38.850174" lon="-0.324296">
        <ele>277.308</ele>
        <time>2019-06-16T09:08:03Z</time>
      </trkpt>
      <trkpt lat="38.850225" lon="-0.324341">
        <ele>277.467</ele>
        <time>2019-06-16T09:12:38Z</time>
      </trkpt>
      <trkpt lat="38.850223" lon="-0.324402">
        <ele>277.021</ele>
        <time>2019-06-16T09:20:11Z</time>
      </trkpt>
      <trkpt lat="38.850183" lon="-0.324463">
        <ele>276.620</ele>
        <time>2019-06-16T09:20:15Z</time>
      </trkpt>
      <trkpt lat="38.850159" lon="-0.324519">
        <ele>276.443</ele>
        <time>2019-06-16T09:20:17Z</time>
      </trkpt>
      <trkpt lat="38.850159" lon="-0.324519">
        <ele>276.415</ele>
        <time>2019-06-16T09:20:17Z</time>
      </trkpt>
      <trkpt lat="38.850128" lon="-0.324606">
        <ele>276.252</ele>
        <time>2019-06-16T09:20:20Z</time>
      </trkpt>
      <trkpt lat="38.850128" lon="-0.324606">
        <ele>276.251</ele>
        <time>2019-06-16T09:20:20Z</time>
      </trkpt>
      <trkpt lat="38.850128" lon="-0.324606">
        <ele>276.216</ele>
        <time>2019-06-16T09:20:20Z</time>
      </trkpt>
      <trkpt lat="38.850079" lon="-0.324743">
        <ele>276.599</ele>
        <time>2019-06-16T09:20:25Z</time>
      </trkpt>
      <trkpt lat="38.850079" lon="-0.324743">
        <ele>276.507</ele>
        <time>2019-06-16T09:20:25Z</time>
      </trkpt>
      <trkpt lat="38.850079" lon="-0.324743">
        <ele>276.527</ele>
        <time>2019-06-16T09:20:25Z</time>
      </trkpt>
      <trkpt lat="38.850079" lon="-0.324743">
        <ele>276.508</ele>
        <time>2019-06-16T09:20:25Z</time>
      </trkpt>
      <trkpt lat="38.850079" lon="-0.324743">
        <ele>276.592</ele>
        <time>2019-06-16T09:20:25Z</time>
      </trkpt>
      <trkpt lat="38.849971" lon="-0.324983">
        <ele>277.986</ele>
        <time>2019-06-16T09:20:33Z</time>
      </trkpt>
      <trkpt lat="38.849971" lon="-0.324983">
        <ele>277.915</ele>
        <time>2019-06-16T09:20:33Z</time>
      </trkpt>
      <trkpt lat="38.849971" lon="-0.324983">
        <ele>277.948</ele>
        <time>2019-06-16T09:20:33Z</time>
      </trkpt>
      <trkpt lat="38.849971" lon="-0.324983">
        <ele>277.970</ele>
        <time>2019-06-16T09:20:33Z</time>
      </trkpt>
      <trkpt lat="38.849971" lon="-0.324983">
        <ele>277.947</ele>
        <time>2019-06-16T09:20:33Z</time>
      </trkpt>
      <trkpt lat="38.849971" lon="-0.324983">
        <ele>277.966</ele>
        <time>2019-06-16T09:20:33Z</time>
      </trkpt>
      <trkpt lat="38.849971" lon="-0.324983">
        <ele>277.971</ele>
        <time>2019-06-16T09:20:33Z</time>
      </trkpt>
      <trkpt lat="38.849971" lon="-0.324983">
        <ele>277.939</ele>
        <time>2019-06-16T09:20:33Z</time>
      </trkpt>
      <trkpt lat="38.849786" lon="-0.325449">
        <ele>280.801</ele>
        <time>2019-06-16T09:20:46Z</time>
      </trkpt>
      <trkpt lat="38.849786" lon="-0.325449">
        <ele>280.821</ele>
        <time>2019-06-16T09:20:46Z</time>
      </trkpt>
      <trkpt lat="38.849786" lon="-0.325449">
        <ele>280.808</ele>
        <time>2019-06-16T09:20:46Z</time>
      </trkpt>
      <trkpt lat="38.849786" lon="-0.325449">
        <ele>280.836</ele>
        <time>2019-06-16T09:20:46Z</time>
      </trkpt>
      <trkpt lat="38.849786" lon="-0.325449">
        <ele>280.850</ele>
        <time>2019-06-16T09:20:46Z</time>
      </trkpt>
      <trkpt lat="38.849786" lon="-0.325449">
        <ele>280.849</ele>
        <time>2019-06-16T09:20:46Z</time>
      </trkpt>
      <trkpt lat="38.849786" lon="-0.325449">
        <ele>280.842</ele>
        <time>2019-06-16T09:20:46Z</time>
      </trkpt>
      <trkpt lat="38.849786" lon="-0.325449">
        <ele>280.854</ele>
        <time>2019-06-16T09:20:46Z</time>
      </trkpt>
      <trkpt lat="38.849786" lon="-0.325449">
        <ele>280.811</ele>
        <time>2019-06-16T09:20:46Z</time>
      </trkpt>
      <trkpt lat="38.849786" lon="-0.325449">
        <ele>280.890</ele>
        <time>2019-06-16T09:20:46Z</time>
      </trkpt>
      <trkpt lat="38.849786" lon="-0.325449">
        <ele>280.835</ele>
        <time>2019-06-16T09:20:46Z</time>
      </trkpt>
      <trkpt lat="38.849786" lon="-0.325449">
        <ele>280.844</ele>
        <time>2019-06-16T09:20:46Z</time>
      </trkpt>
      <trkpt lat="38.849786" lon="-0.325449">
        <ele>280.805</ele>
        <time>2019-06-16T09:20:46Z</time>
      </trkpt>
      <trkpt lat="38.849399" lon="-0.326238">
        <ele>277.715</ele>
        <time>2019-06-16T09:21:06Z</time>
      </trkpt>
      <trkpt lat="38.849399" lon="-0.326238">
        <ele>277.708</ele>
        <time>2019-06-16T09:21:06Z</time>
      </trkpt>
      <trkpt lat="38.849399" lon="-0.326238">
        <ele>277.757</ele>
        <time>2019-06-16T09:21:06Z</time>
      </trkpt>
      <trkpt lat="38.849399" lon="-0.326238">
        <ele>277.771</ele>
        <time>2019-06-16T09:21:06Z</time>
      </trkpt>
      <trkpt lat="38.849399" lon="-0.326238">
        <ele>277.750</ele>
        <time>2019-06-16T09:21:06Z</time>
      </trkpt>
      <trkpt lat="38.849399" lon="-0.326238">
        <ele>277.723</ele>
        <time>2019-06-16T09:21:06Z</time>
      </trkpt>
      <trkpt lat="38.849399" lon="-0.326238">
        <ele>277.795</ele>
        <time>2019-06-16T09:21:06Z</time>
      </trkpt>
      <trkpt lat="38.849399" lon="-0.326238">
        <ele>277.742</ele>
        <time>2019-06-16T09:21:06Z</time>
      </trkpt>
      <trkpt lat="38.849399" lon="-0.326238">
        <ele>277.731</ele>
        <time>2019-06-16T09:21:06Z</time>
      </trkpt>
      <trkpt lat="38.849399" lon="-0.326238">
        <ele>277.756</ele>
        <time>2019-06-16T09:21:06Z</time>
      </trkpt>
      <trkpt lat="38.849399" lon="-0.326238">
        <ele>277.745</ele>
        <time>2019-06-16T09:21:06Z</time>
      </trkpt>
      <trkpt lat="38.849399" lon="-0.326238">
        <ele>277.747</ele>
        <time>2019-06-16T09:21:06Z</time>
      </trkpt>
      <trkpt lat="38.849399" lon="-0.326238">
        <ele>277.711</ele>
        <time>2019-06-16T09:21:06Z</time>
      </trkpt>
      <trkpt lat="38.849399" lon="-0.326238">
        <ele>277.708</ele>
        <time>2019-06-16T09:21:06Z</time>
      </trkpt>
      <trkpt lat="38.849399" lon="-0.326238">
        <ele>277.727</ele>
        <time>2019-06-16T09:21:06Z</time>
      </trkpt>
      <trkpt lat="38.849399" lon="-0.326238">
        <ele>277.741</ele>
        <time>2019-06-16T09:21:06Z</time>
      </trkpt>
      <trkpt lat="38.849399" lon="-0.326238">
        <ele>277.730</ele>
        <time>2019-06-16T09:21:06Z</time>
      </trkpt>
      <trkpt lat="38.849399" lon="-0.326238">
        <ele>277.733</ele>
        <time>2019-06-16T09:21:06Z</time>
      </trkpt>
      <trkpt lat="38.849399" lon="-0.326238">
        <ele>277.765</ele>
        <time>2019-06-16T09:21:06Z</time>
      </trkpt>
      <trkpt lat="38.849399" lon="-0.326238">
        <ele>277.752</ele>
        <time>2019-06-16T09:21:06Z</time>
      </trkpt>
      <trkpt lat="38.848265" lon="-0.326854">
        <ele>288.591</ele>
        <time>2019-06-16T09:21:37Z</time>
      </trkpt>
      <trkpt lat="38.848265" lon="-0.326854">
        <ele>288.566</ele>
        <time>2019-06-16T09:21:37Z</time>
      </trkpt>
      <trkpt lat="38.848265" lon="-0.326854">
        <ele>288.589</ele>
        <time>2019-06-16T09:21:37Z</time>
      </trkpt>
      <trkpt lat="38.848265" lon="-0.326854">
        <ele>288.506</ele>
        <time>2019-06-16T09:21:37Z</time>
      </trkpt>
      <trkpt lat="38.848265" lon="-0.326854">
        <ele>288.526</ele>
        <time>2019-06-16T09:21:37Z</time>
      </trkpt>
      <trkpt lat="38.848265" lon="-0.326854">
        <ele>288.508</ele>
        <time>2019-06-16T09:21:37Z</time>
      </trkpt>
      <trkpt lat="38.848265" lon="-0.326854">
        <ele>288.511</ele>
        <time>2019-06-16T09:21:37Z</time>
      </trkpt>
      <trkpt lat="38.848265" lon="-0.326854">
        <ele>288.595</ele>
        <time>2019-06-16T09:21:37Z</time>
      </trkpt>
      <trkpt lat="38.848265" lon="-0.326854">
        <ele>288.544</ele>
        <time>2019-06-16T09:21:37Z</time>
      </trkpt>
      <trkpt lat="38.848265" lon="-0.326854">
        <ele>288.557</ele>
        <time>2019-06-16T09:21:37Z</time>
      </trkpt>
      <trkpt lat="38.848265" lon="-0.326854">
        <ele>288.589</ele>
        <time>2019-06-16T09:21:37Z</time>
      </trkpt>
      <trkpt lat="38.848265" lon="-0.326854">
        <ele>288.536</ele>
        <time>2019-06-16T09:21:37Z</time>
      </trkpt>
      <trkpt lat="38.848265" lon="-0.326854">
        <ele>288.535</ele>
        <time>2019-06-16T09:21:37Z</time>
      </trkpt>
      <trkpt lat="38.848265" lon="-0.326854">
        <ele>288.510</ele>
        <time>2019-06-16T09:21:37Z</time>
      </trkpt>
      <trkpt lat="38.848265" lon="-0.326854">
        <ele>288.526</ele>
        <time>2019-06-16T09:21:37Z</time>
      </trkpt>
      <trkpt lat="38.848265" lon="-0.326854">
        <ele>288.547</ele>
        <time>2019-06-16T09:21:37Z</time>
      </trkpt>
      <trkpt lat="38.848265" lon="-0.326854">
        <ele>288.511</ele>
        <time>2019-06-16T09:21:37Z</time>
      </trkpt>
      <trkpt lat="38.848265" lon="-0.326854">
        <ele>288.508</ele>
        <time>2019-06-16T09:21:37Z</time>
      </trkpt>
      <trkpt lat="38.848265" lon="-0.326854">
        <ele>288.575</ele>
        <time>2019-06-16T09:21:37Z</time>
      </trkpt>
      <trkpt lat="38.848265" lon="-0.326854">
        <ele>288.589</ele>
        <time>2019-06-16T09:21:37Z</time>
      </trkpt>
      <trkpt lat="38.848265" lon="-0.326854">
        <ele>288.598</ele>
        <time>2019-06-16T09:21:37Z</time>
      </trkpt>
      <trkpt lat="38.848265" lon="-0.326854">
        <ele>288.561</ele>
        <time>2019-06-16T09:21:37Z</time>
      </trkpt>
      <trkpt lat="38.848265" lon="-0.326854">
        <ele>288.533</ele>
        <time>2019-06-16T09:21:37Z</time>
      </trkpt>
      <trkpt lat="38.848265" lon="-0.326854">
        <ele>288.530</ele>
        <time>2019-06-16T09:21:37Z</time>
      </trkpt>
      <trkpt lat="38.848265" lon="-0.326854">
        <ele>288.589</ele>
        <time>2019-06-16T09:21:37Z</time>
      </trkpt>
      <trkpt lat="38.848265" lon="-0.326854">
        <ele>288.554</ele>
        <time>2019-06-16T09:21:37Z</time>
      </trkpt>
      <trkpt lat="38.848265" lon="-0.326854">
        <ele>288.565</ele>
        <time>2019-06-16T09:21:37Z</time>
      </trkpt>
      <trkpt lat="38.848265" lon="-0.326854">
        <ele>288.568</ele>
        <time>2019-06-16T09:21:37Z</time>
      </trkpt>
      <trkpt lat="38.848265" lon="-0.326854">
        <ele>288.514</ele>
        <time>2019-06-16T09:21:37Z</time>
      </trkpt>
      <trkpt lat="38.848265" lon="-0.326854">
        <ele>288.508</ele>
        <time>2019-06-16T09:21:37Z</time>
      </trkpt>
      <trkpt lat="38.848265" lon="-0.326854">
        <ele>288.599</ele>
        <time>2019-06-16T09:21:37Z</time>
      </trkpt>
      <trkpt lat="38.848190" lon="-0.326882">
        <ele>289.413</ele>
        <time>2019-06-16T09:21:39Z</time>
      </trkpt>
      <trkpt lat="38.848190" lon="-0.326882">
        <ele>289.482</ele>
        <time>2019-06-16T09:21:39Z</time>
      </trkpt>
      <trkpt lat="38.848120" lon="-0.326908">
        <ele>290.195</ele>
        <time>2019-06-16T09:21:41Z</time>
      </trkpt>
      <trkpt lat="38.848046" lon="-0.326932">
        <ele>290.947</ele>
        <time>2019-06-16T09:21:43Z</time>
      </trkpt>
      <trkpt lat="38.847987" lon="-0.326961">
        <ele>291.244</ele>
        <time>2019-06-16T09:21:45Z</time>
      </trkpt>
      <trkpt lat="38.847934" lon="-0.326987">
        <ele>291.623</ele>
        <time>2019-06-16T09:21:47Z</time>
      </trkpt>
      <trkpt lat="38.847877" lon="-0.327008">
        <ele>291.958</ele>
        <time>2019-06-16T09:21:50Z</time>
      </trkpt>
      <trkpt lat="38.847830" lon="-0.327057">
        <ele>292.618</ele>
        <time>2019-06-16T09:22:41Z</time>
      </trkpt>
      <trkpt lat="38.847750" lon="-0.327091">
        <ele>292.998</ele>
        <time>2019-06-16T09:22:42Z</time>
      </trkpt>
      <trkpt lat="38.847665" lon="-0.327110">
        <ele>292.317</ele>
        <time>2019-06-16T09:22:44Z</time>
      </trkpt>
      <trkpt lat="38.847620" lon="-0.327115">
        <ele>292.008</ele>
        <time>2019-06-16T09:22:45Z</time>
      </trkpt>
      <trkpt lat="38.847530" lon="-0.327127">
        <ele>291.364</ele>
        <time>2019-06-16T09:22:47Z</time>
      </trkpt>
      <trkpt lat="38.847443" lon="-0.327142">
        <ele>290.758</ele>
        <time>2019-06-16T09:22:49Z</time>
      </trkpt>
      <trkpt lat="38.847397" lon="-0.327146">
        <ele>290.317</ele>
        <time>2019-06-16T09:22:50Z</time>
      </trkpt>
      <trkpt lat="38.847352" lon="-0.327150">
        <ele>290.010</ele>
        <time>2019-06-16T09:22:51Z</time>
      </trkpt>
      <trkpt lat="38.847307" lon="-0.327154">
        <ele>289.782</ele>
        <time>2019-06-16T09:22:52Z</time>
      </trkpt>
      <trkpt lat="38.847262" lon="-0.327158">
        <ele>289.439</ele>
        <time>2019-06-16T09:22:53Z</time>
      </trkpt>
      <trkpt lat="38.847216" lon="-0.327159">
        <ele>289.068</ele>
        <time>2019-06-16T09:22:54Z</time>
      </trkpt>
      <trkpt lat="38.847170" lon="-0.327157">
        <ele>288.493</ele>
        <time>2019-06-16T09:22:55Z</time>
      </trkpt>
      <trkpt lat="38.847123" lon="-0.327152">
        <ele>287.692</ele>
        <time>2019-06-16T09:22:56Z</time>
      </trkpt>
      <trkpt lat="38.847078" lon="-0.327146">
        <ele>286.973</ele>
        <time>2019-06-16T09:22:57Z</time>
      </trkpt>
      <trkpt lat="38.846987" lon="-0.327131">
        <ele>285.320</ele>
        <time>2019-06-16T09:22:59Z</time>
      </trkpt>
      <trkpt lat="38.846942" lon="-0.327120">
        <ele>284.408</ele>
        <time>2019-06-16T09:23:00Z</time>
      </trkpt>
      <trkpt lat="38.846853" lon="-0.327093">
        <ele>283.472</ele>
        <time>2019-06-16T09:23:02Z</time>
      </trkpt>
      <trkpt lat="38.846808" lon="-0.327080">
        <ele>282.956</ele>
        <time>2019-06-16T09:23:03Z</time>
      </trkpt>
      <trkpt lat="38.846764" lon="-0.327069">
        <ele>282.525</ele>
        <time>2019-06-16T09:23:04Z</time>
      </trkpt>
      <trkpt lat="38.846678" lon="-0.327044">
        <ele>281.638</ele>
        <time>2019-06-16T09:23:06Z</time>
      </trkpt>
      <trkpt lat="38.846596" lon="-0.327011">
        <ele>280.690</ele>
        <time>2019-06-16T09:23:08Z</time>
      </trkpt>
      <trkpt lat="38.846515" lon="-0.326973">
        <ele>279.797</ele>
        <time>2019-06-16T09:23:10Z</time>
      </trkpt>
      <trkpt lat="38.846436" lon="-0.326935">
        <ele>278.836</ele>
        <time>2019-06-16T09:23:12Z</time>
      </trkpt>
      <trkpt lat="38.846355" lon="-0.326897">
        <ele>278.781</ele>
        <time>2019-06-16T09:23:14Z</time>
      </trkpt>
      <trkpt lat="38.846274" lon="-0.326861">
        <ele>279.497</ele>
        <time>2019-06-16T09:23:16Z</time>
      </trkpt>
      <trkpt lat="38.846193" lon="-0.326822">
        <ele>280.223</ele>
        <time>2019-06-16T09:23:18Z</time>
      </trkpt>
      <trkpt lat="38.846115" lon="-0.326782">
        <ele>281.225</ele>
        <time>2019-06-16T09:23:20Z</time>
      </trkpt>
      <trkpt lat="38.846038" lon="-0.326743">
        <ele>282.208</ele>
        <time>2019-06-16T09:23:22Z</time>
      </trkpt>
      <trkpt lat="38.845960" lon="-0.326703">
        <ele>283.242</ele>
        <time>2019-06-16T09:23:24Z</time>
      </trkpt>
      <trkpt lat="38.845882" lon="-0.326663">
        <ele>284.146</ele>
        <time>2019-06-16T09:23:26Z</time>
      </trkpt>
      <trkpt lat="38.845805" lon="-0.326623">
        <ele>285.075</ele>
        <time>2019-06-16T09:23:28Z</time>
      </trkpt>
      <trkpt lat="38.845724" lon="-0.326583">
        <ele>286.128</ele>
        <time>2019-06-16T09:23:30Z</time>
      </trkpt>
      <trkpt lat="38.845643" lon="-0.326551">
        <ele>287.280</ele>
        <time>2019-06-16T09:23:32Z</time>
      </trkpt>
      <trkpt lat="38.845564" lon="-0.326528">
        <ele>288.417</ele>
        <time>2019-06-16T09:23:34Z</time>
      </trkpt>
      <trkpt lat="38.845489" lon="-0.326508">
        <ele>290.186</ele>
        <time>2019-06-16T09:23:36Z</time>
      </trkpt>
      <trkpt lat="38.845429" lon="-0.326498">
        <ele>291.541</ele>
        <time>2019-06-16T09:23:38Z</time>
      </trkpt>
      <trkpt lat="38.845381" lon="-0.326493">
        <ele>292.856</ele>
        <time>2019-06-16T09:23:39Z</time>
      </trkpt>
      <trkpt lat="38.845305" lon="-0.326500">
        <ele>294.959</ele>
        <time>2019-06-16T09:23:41Z</time>
      </trkpt>
      <trkpt lat="38.845233" lon="-0.326512">
        <ele>296.614</ele>
        <time>2019-06-16T09:23:43Z</time>
      </trkpt>
      <trkpt lat="38.845180" lon="-0.326521">
        <ele>297.708</ele>
        <time>2019-06-16T09:23:45Z</time>
      </trkpt>
      <trkpt lat="38.845128" lon="-0.326533">
        <ele>298.758</ele>
        <time>2019-06-16T09:23:46Z</time>
      </trkpt>
      <trkpt lat="38.845054" lon="-0.326551">
        <ele>300.092</ele>
        <time>2019-06-16T09:23:48Z</time>
      </trkpt>
      <trkpt lat="38.844982" lon="-0.326572">
        <ele>300.531</ele>
        <time>2019-06-16T09:23:50Z</time>
      </trkpt>
      <trkpt lat="38.844914" lon="-0.326599">
        <ele>299.954</ele>
        <time>2019-06-16T09:23:52Z</time>
      </trkpt>
      <trkpt lat="38.844849" lon="-0.326630">
        <ele>299.436</ele>
        <time>2019-06-16T09:23:54Z</time>
      </trkpt>
      <trkpt lat="38.844784" lon="-0.326669">
        <ele>299.253</ele>
        <time>2019-06-16T09:23:56Z</time>
      </trkpt>
      <trkpt lat="38.844722" lon="-0.326718">
        <ele>299.442</ele>
        <time>2019-06-16T09:23:58Z</time>
      </trkpt>
      <trkpt lat="38.844666" lon="-0.326775">
        <ele>298.887</ele>
        <time>2019-06-16T09:24:00Z</time>
      </trkpt>
      <trkpt lat="38.844612" lon="-0.326841">
        <ele>298.596</ele>
        <time>2019-06-16T09:24:02Z</time>
      </trkpt>
      <trkpt lat="38.844554" lon="-0.326908">
        <ele>298.231</ele>
        <time>2019-06-16T09:24:04Z</time>
      </trkpt>
      <trkpt lat="38.844497" lon="-0.326974">
        <ele>297.824</ele>
        <time>2019-06-16T09:24:06Z</time>
      </trkpt>
      <trkpt lat="38.844441" lon="-0.327043">
        <ele>297.308</ele>
        <time>2019-06-16T09:24:08Z</time>
      </trkpt>
      <trkpt lat="38.844387" lon="-0.327120">
        <ele>296.252</ele>
        <time>2019-06-16T09:24:10Z</time>
      </trkpt>
      <trkpt lat="38.844335" lon="-0.327201">
        <ele>295.516</ele>
        <time>2019-06-16T09:24:12Z</time>
      </trkpt>
      <trkpt lat="38.844287" lon="-0.327288">
        <ele>294.665</ele>
        <time>2019-06-16T09:24:14Z</time>
      </trkpt>
      <trkpt lat="38.844243" lon="-0.327382">
        <ele>293.978</ele>
        <time>2019-06-16T09:24:16Z</time>
      </trkpt>
      <trkpt lat="38.844205" lon="-0.327485">
        <ele>293.520</ele>
        <time>2019-06-16T09:24:18Z</time>
      </trkpt>
      <trkpt lat="38.844192" lon="-0.327541">
        <ele>293.427</ele>
        <time>2019-06-16T09:24:19Z</time>
      </trkpt>
      <trkpt lat="38.844167" lon="-0.327654">
        <ele>293.096</ele>
        <time>2019-06-16T09:24:21Z</time>
      </trkpt>
      <trkpt lat="38.844146" lon="-0.327707">
        <ele>292.671</ele>
        <time>2019-06-16T09:24:22Z</time>
      </trkpt>
      <trkpt lat="38.844154" lon="-0.327782">
        <ele>292.848</ele>
        <time>2019-06-16T09:24:23Z</time>
      </trkpt>
      <trkpt lat="38.844108" lon="-0.327879">
        <ele>291.961</ele>
        <time>2019-06-16T09:24:25Z</time>
      </trkpt>
      <trkpt lat="38.844090" lon="-0.327946">
        <ele>291.517</ele>
        <time>2019-06-16T09:24:26Z</time>
      </trkpt>
      <trkpt lat="38.844084" lon="-0.328004">
        <ele>291.308</ele>
        <time>2019-06-16T09:24:27Z</time>
      </trkpt>
      <trkpt lat="38.844078" lon="-0.328077">
        <ele>291.037</ele>
        <time>2019-06-16T09:24:28Z</time>
      </trkpt>
      <trkpt lat="38.844063" lon="-0.328142">
        <ele>290.291</ele>
        <time>2019-06-16T09:24:29Z</time>
      </trkpt>
      <trkpt lat="38.844050" lon="-0.328220">
        <ele>289.480</ele>
        <time>2019-06-16T09:24:30Z</time>
      </trkpt>
      <trkpt lat="38.844040" lon="-0.328295">
        <ele>288.623</ele>
        <time>2019-06-16T09:24:31Z</time>
      </trkpt>
      <trkpt lat="38.844028" lon="-0.328376">
        <ele>288.415</ele>
        <time>2019-06-16T09:24:32Z</time>
      </trkpt>
      <trkpt lat="38.844022" lon="-0.328457">
        <ele>289.082</ele>
        <time>2019-06-16T09:24:33Z</time>
      </trkpt>
      <trkpt lat="38.844020" lon="-0.328529">
        <ele>289.641</ele>
        <time>2019-06-16T09:24:34Z</time>
      </trkpt>
      <trkpt lat="38.844025" lon="-0.328597">
        <ele>290.336</ele>
        <time>2019-06-16T09:24:35Z</time>
      </trkpt>
      <trkpt lat="38.844018" lon="-0.328662">
        <ele>290.953</ele>
        <time>2019-06-16T09:24:36Z</time>
      </trkpt>
      <trkpt lat="38.844030" lon="-0.328733">
        <ele>291.804</ele>
        <time>2019-06-16T09:24:37Z</time>
      </trkpt>
      <trkpt lat="38.844042" lon="-0.328847">
        <ele>293.214</ele>
        <time>2019-06-16T09:24:39Z</time>
      </trkpt>
      <trkpt lat="38.844058" lon="-0.328949">
        <ele>294.108</ele>
        <time>2019-06-16T09:24:41Z</time>
      </trkpt>
      <trkpt lat="38.844088" lon="-0.329071">
        <ele>295.048</ele>
        <time>2019-06-16T09:24:43Z</time>
      </trkpt>
      <trkpt lat="38.844116" lon="-0.329174">
        <ele>295.692</ele>
        <time>2019-06-16T09:24:45Z</time>
      </trkpt>
      <trkpt lat="38.844131" lon="-0.329231">
        <ele>295.781</ele>
        <time>2019-06-16T09:24:46Z</time>
      </trkpt>
      <trkpt lat="38.844159" lon="-0.329328">
        <ele>295.944</ele>
        <time>2019-06-16T09:24:48Z</time>
      </trkpt>
      <trkpt lat="38.844186" lon="-0.329430">
        <ele>296.156</ele>
        <time>2019-06-16T09:24:50Z</time>
      </trkpt>
      <trkpt lat="38.844196" lon="-0.329507">
        <ele>296.213</ele>
        <time>2019-06-16T09:24:53Z</time>
      </trkpt>
      <trkpt lat="38.844208" lon="-0.329588">
        <ele>296.322</ele>
        <time>2019-06-16T09:24:55Z</time>
      </trkpt>
      <trkpt lat="38.844247" lon="-0.329718">
        <ele>296.647</ele>
        <time>2019-06-16T09:24:56Z</time>
      </trkpt>
      <trkpt lat="38.844261" lon="-0.329778">
        <ele>296.979</ele>
        <time>2019-06-16T09:24:57Z</time>
      </trkpt>
      <trkpt lat="38.844279" lon="-0.329833">
        <ele>297.405</ele>
        <time>2019-06-16T09:24:58Z</time>
      </trkpt>
      <trkpt lat="38.844309" lon="-0.329941">
        <ele>298.225</ele>
        <time>2019-06-16T09:25:00Z</time>
      </trkpt>
      <trkpt lat="38.844336" lon="-0.330048">
        <ele>299.008</ele>
        <time>2019-06-16T09:25:02Z</time>
      </trkpt>
      <trkpt lat="38.844364" lon="-0.330117">
        <ele>299.580</ele>
        <time>2019-06-16T09:25:03Z</time>
      </trkpt>
      <trkpt lat="38.844377" lon="-0.330228">
        <ele>299.924</ele>
        <time>2019-06-16T09:25:05Z</time>
      </trkpt>
      <trkpt lat="38.844391" lon="-0.330335">
        <ele>300.043</ele>
        <time>2019-06-16T09:25:07Z</time>
      </trkpt>
      <trkpt lat="38.844414" lon="-0.330435">
        <ele>300.036</ele>
        <time>2019-06-16T09:25:09Z</time>
      </trkpt>
      <trkpt lat="38.844427" lon="-0.330491">
        <ele>300.038</ele>
        <time>2019-06-16T09:25:10Z</time>
      </trkpt>
      <trkpt lat="38.844447" lon="-0.330564">
        <ele>300.035</ele>
        <time>2019-06-16T09:25:13Z</time>
      </trkpt>
      <trkpt lat="38.844466" lon="-0.330630">
        <ele>299.924</ele>
        <time>2019-06-16T09:25:15Z</time>
      </trkpt>
      <trkpt lat="38.844489" lon="-0.330720">
        <ele>300.119</ele>
        <time>2019-06-16T09:25:16Z</time>
      </trkpt>
      <trkpt lat="38.844502" lon="-0.330784">
        <ele>300.419</ele>
        <time>2019-06-16T09:25:17Z</time>
      </trkpt>
      <trkpt lat="38.844519" lon="-0.330868">
        <ele>300.909</ele>
        <time>2019-06-16T09:25:18Z</time>
      </trkpt>
      <trkpt lat="38.844533" lon="-0.330975">
        <ele>301.219</ele>
        <time>2019-06-16T09:25:19Z</time>
      </trkpt>
      <trkpt lat="38.844557" lon="-0.331080">
        <ele>302.008</ele>
        <time>2019-06-16T09:25:21Z</time>
      </trkpt>
      <trkpt lat="38.844581" lon="-0.331186">
        <ele>302.234</ele>
        <time>2019-06-16T09:25:23Z</time>
      </trkpt>
      <trkpt lat="38.844610" lon="-0.331290">
        <ele>302.328</ele>
        <time>2019-06-16T09:25:25Z</time>
      </trkpt>
      <trkpt lat="38.844632" lon="-0.331398">
        <ele>302.057</ele>
        <time>2019-06-16T09:25:27Z</time>
      </trkpt>
      <trkpt lat="38.844643" lon="-0.331455">
        <ele>301.950</ele>
        <time>2019-06-16T09:25:28Z</time>
      </trkpt>
      <trkpt lat="38.844651" lon="-0.331514">
        <ele>301.632</ele>
        <time>2019-06-16T09:25:29Z</time>
      </trkpt>
      <trkpt lat="38.844668" lon="-0.331585">
        <ele>301.289</ele>
        <time>2019-06-16T09:25:31Z</time>
      </trkpt>
      <trkpt lat="38.844683" lon="-0.331693">
        <ele>300.478</ele>
        <time>2019-06-16T09:25:33Z</time>
      </trkpt>
      <trkpt lat="38.844703" lon="-0.331780">
        <ele>300.183</ele>
        <time>2019-06-16T09:25:36Z</time>
      </trkpt>
      <trkpt lat="38.844717" lon="-0.331841">
        <ele>299.762</ele>
        <time>2019-06-16T09:25:37Z</time>
      </trkpt>
      <trkpt lat="38.844735" lon="-0.331965">
        <ele>299.683</ele>
        <time>2019-06-16T09:25:38Z</time>
      </trkpt>
      <trkpt lat="38.844745" lon="-0.332066">
        <ele>301.211</ele>
        <time>2019-06-16T09:25:40Z</time>
      </trkpt>
      <trkpt lat="38.844746" lon="-0.332162">
        <ele>302.508</ele>
        <time>2019-06-16T09:25:42Z</time>
      </trkpt>
      <trkpt lat="38.844747" lon="-0.332257">
        <ele>303.879</ele>
        <time>2019-06-16T09:25:44Z</time>
      </trkpt>
      <trkpt lat="38.844750" lon="-0.332362">
        <ele>305.393</ele>
        <time>2019-06-16T09:25:46Z</time>
      </trkpt>
      <trkpt lat="38.844750" lon="-0.332423">
        <ele>306.222</ele>
        <time>2019-06-16T09:25:48Z</time>
      </trkpt>
      <trkpt lat="38.844745" lon="-0.332488">
        <ele>307.185</ele>
        <time>2019-06-16T09:25:50Z</time>
      </trkpt>
      <trkpt lat="38.844741" lon="-0.332578">
        <ele>308.037</ele>
        <time>2019-06-16T09:25:51Z</time>
      </trkpt>
      <trkpt lat="38.844722" lon="-0.332659">
        <ele>308.734</ele>
        <time>2019-06-16T09:25:52Z</time>
      </trkpt>
      <trkpt lat="38.844713" lon="-0.332747">
        <ele>309.533</ele>
        <time>2019-06-16T09:25:54Z</time>
      </trkpt>
      <trkpt lat="38.844682" lon="-0.332791">
        <ele>309.148</ele>
        <time>2019-06-16T09:25:55Z</time>
      </trkpt>
      <trkpt lat="38.844643" lon="-0.332901">
        <ele>308.085</ele>
        <time>2019-06-16T09:25:57Z</time>
      </trkpt>
      <trkpt lat="38.844617" lon="-0.332964">
        <ele>307.389</ele>
        <time>2019-06-16T09:25:59Z</time>
      </trkpt>
      <trkpt lat="38.844581" lon="-0.333045">
        <ele>306.517</ele>
        <time>2019-06-16T09:26:02Z</time>
      </trkpt>
      <trkpt lat="38.844549" lon="-0.333096">
        <ele>305.808</ele>
        <time>2019-06-16T09:26:04Z</time>
      </trkpt>
      <trkpt lat="38.844514" lon="-0.333138">
        <ele>305.191</ele>
        <time>2019-06-16T09:26:06Z</time>
      </trkpt>
      <trkpt lat="38.844380" lon="-0.333326">
        <ele>303.755</ele>
        <time>2019-06-16T09:26:08Z</time>
      </trkpt>
      <trkpt lat="38.844330" lon="-0.333375">
        <ele>303.754</ele>
        <time>2019-06-16T09:26:10Z</time>
      </trkpt>
      <trkpt lat="38.844290" lon="-0.333415">
        <ele>304.057</ele>
        <time>2019-06-16T09:26:11Z</time>
      </trkpt>
      <trkpt lat="38.844230" lon="-0.333474">
        <ele>304.769</ele>
        <time>2019-06-16T09:26:13Z</time>
      </trkpt>
      <trkpt lat="38.844183" lon="-0.333507">
        <ele>305.466</ele>
        <time>2019-06-16T09:26:15Z</time>
      </trkpt>
      <trkpt lat="38.844142" lon="-0.333538">
        <ele>306.085</ele>
        <time>2019-06-16T09:26:17Z</time>
      </trkpt>
      <trkpt lat="38.844093" lon="-0.333565">
        <ele>306.680</ele>
        <time>2019-06-16T09:26:20Z</time>
      </trkpt>
      <trkpt lat="38.844045" lon="-0.333587">
        <ele>307.381</ele>
        <time>2019-06-16T09:26:21Z</time>
      </trkpt>
      <trkpt lat="38.843990" lon="-0.333610">
        <ele>308.261</ele>
        <time>2019-06-16T09:26:22Z</time>
      </trkpt>
      <trkpt lat="38.843916" lon="-0.333644">
        <ele>309.617</ele>
        <time>2019-06-16T09:26:24Z</time>
      </trkpt>
      <trkpt lat="38.843852" lon="-0.333679">
        <ele>310.408</ele>
        <time>2019-06-16T09:26:26Z</time>
      </trkpt>
      <trkpt lat="38.843784" lon="-0.333704">
        <ele>310.651</ele>
        <time>2019-06-16T09:26:28Z</time>
      </trkpt>
      <trkpt lat="38.843707" lon="-0.333727">
        <ele>310.845</ele>
        <time>2019-06-16T09:26:29Z</time>
      </trkpt>
      <trkpt lat="38.843659" lon="-0.333731">
        <ele>310.624</ele>
        <time>2019-06-16T09:26:31Z</time>
      </trkpt>
      <trkpt lat="38.843598" lon="-0.333729">
        <ele>310.277</ele>
        <time>2019-06-16T09:26:33Z</time>
      </trkpt>
      <trkpt lat="38.843486" lon="-0.333730">
        <ele>310.169</ele>
        <time>2019-06-16T09:26:35Z</time>
      </trkpt>
      <trkpt lat="38.843422" lon="-0.333716">
        <ele>309.516</ele>
        <time>2019-06-16T09:26:37Z</time>
      </trkpt>
      <trkpt lat="38.843348" lon="-0.333697">
        <ele>308.825</ele>
        <time>2019-06-16T09:26:39Z</time>
      </trkpt>
      <trkpt lat="38.843270" lon="-0.333694">
        <ele>308.380</ele>
        <time>2019-06-16T09:26:41Z</time>
      </trkpt>
      <trkpt lat="38.843220" lon="-0.333697">
        <ele>308.189</ele>
        <time>2019-06-16T09:26:44Z</time>
      </trkpt>
      <trkpt lat="38.843080" lon="-0.333726">
        <ele>308.106</ele>
        <time>2019-06-16T09:26:49Z</time>
      </trkpt>
      <trkpt lat="38.843021" lon="-0.333737">
        <ele>307.726</ele>
        <time>2019-06-16T09:26:50Z</time>
      </trkpt>
      <trkpt lat="38.842900" lon="-0.333779">
        <ele>307.208</ele>
        <time>2019-06-16T09:26:51Z</time>
      </trkpt>
      <trkpt lat="38.842836" lon="-0.333808">
        <ele>307.071</ele>
        <time>2019-06-16T09:26:53Z</time>
      </trkpt>
      <trkpt lat="38.842772" lon="-0.333846">
        <ele>307.035</ele>
        <time>2019-06-16T09:26:55Z</time>
      </trkpt>
      <trkpt lat="38.842725" lon="-0.333876">
        <ele>307.394</ele>
        <time>2019-06-16T09:26:57Z</time>
      </trkpt>
      <trkpt lat="38.842667" lon="-0.333918">
        <ele>307.597</ele>
        <time>2019-06-16T09:27:00Z</time>
      </trkpt>
      <trkpt lat="38.842618" lon="-0.333958">
        <ele>307.469</ele>
        <time>2019-06-16T09:27:02Z</time>
      </trkpt>
      <trkpt lat="38.842564" lon="-0.334009">
        <ele>307.246</ele>
        <time>2019-06-16T09:27:03Z</time>
      </trkpt>
      <trkpt lat="38.842499" lon="-0.334078">
        <ele>306.765</ele>
        <time>2019-06-16T09:27:04Z</time>
      </trkpt>
      <trkpt lat="38.842422" lon="-0.334178">
        <ele>307.110</ele>
        <time>2019-06-16T09:27:05Z</time>
      </trkpt>
      <trkpt lat="38.842374" lon="-0.334211">
        <ele>307.381</ele>
        <time>2019-06-16T09:27:06Z</time>
      </trkpt>
      <trkpt lat="38.842335" lon="-0.334261">
        <ele>307.461</ele>
        <time>2019-06-16T09:27:07Z</time>
      </trkpt>
      <trkpt lat="38.842298" lon="-0.334316">
        <ele>307.417</ele>
        <time>2019-06-16T09:27:08Z</time>
      </trkpt>
      <trkpt lat="38.842253" lon="-0.334403">
        <ele>307.308</ele>
        <time>2019-06-16T09:27:10Z</time>
      </trkpt>
      <trkpt lat="38.842212" lon="-0.334475">
        <ele>307.191</ele>
        <time>2019-06-16T09:27:11Z</time>
      </trkpt>
      <trkpt lat="38.842174" lon="-0.334546">
        <ele>307.675</ele>
        <time>2019-06-16T09:27:12Z</time>
      </trkpt>
      <trkpt lat="38.842144" lon="-0.334608">
        <ele>308.064</ele>
        <time>2019-06-16T09:27:13Z</time>
      </trkpt>
      <trkpt lat="38.842111" lon="-0.334671">
        <ele>308.377</ele>
        <time>2019-06-16T09:27:14Z</time>
      </trkpt>
      <trkpt lat="38.842089" lon="-0.334734">
        <ele>308.499</ele>
        <time>2019-06-16T09:27:15Z</time>
      </trkpt>
      <trkpt lat="38.842065" lon="-0.334800">
        <ele>308.796</ele>
        <time>2019-06-16T09:27:16Z</time>
      </trkpt>
      <trkpt lat="38.842023" lon="-0.334852">
        <ele>308.995</ele>
        <time>2019-06-16T09:27:17Z</time>
      </trkpt>
      <trkpt lat="38.842001" lon="-0.334914">
        <ele>309.050</ele>
        <time>2019-06-16T09:27:18Z</time>
      </trkpt>
      <trkpt lat="38.841967" lon="-0.334964">
        <ele>309.047</ele>
        <time>2019-06-16T09:27:19Z</time>
      </trkpt>
      <trkpt lat="38.841934" lon="-0.335016">
        <ele>309.029</ele>
        <time>2019-06-16T09:27:20Z</time>
      </trkpt>
      <trkpt lat="38.841896" lon="-0.335064">
        <ele>308.921</ele>
        <time>2019-06-16T09:27:21Z</time>
      </trkpt>
      <trkpt lat="38.841856" lon="-0.335109">
        <ele>308.608</ele>
        <time>2019-06-16T09:27:22Z</time>
      </trkpt>
      <trkpt lat="38.841821" lon="-0.335157">
        <ele>308.197</ele>
        <time>2019-06-16T09:27:23Z</time>
      </trkpt>
      <trkpt lat="38.841786" lon="-0.335204">
        <ele>307.361</ele>
        <time>2019-06-16T09:27:24Z</time>
      </trkpt>
      <trkpt lat="38.841741" lon="-0.335250">
        <ele>306.380</ele>
        <time>2019-06-16T09:27:25Z</time>
      </trkpt>
      <trkpt lat="38.841704" lon="-0.335291">
        <ele>305.273</ele>
        <time>2019-06-16T09:27:26Z</time>
      </trkpt>
      <trkpt lat="38.841651" lon="-0.335321">
        <ele>304.425</ele>
        <time>2019-06-16T09:27:27Z</time>
      </trkpt>
      <trkpt lat="38.841608" lon="-0.335360">
        <ele>303.612</ele>
        <time>2019-06-16T09:27:28Z</time>
      </trkpt>
      <trkpt lat="38.841555" lon="-0.335398">
        <ele>302.791</ele>
        <time>2019-06-16T09:27:29Z</time>
      </trkpt>
      <trkpt lat="38.841497" lon="-0.335422">
        <ele>302.086</ele>
        <time>2019-06-16T09:27:30Z</time>
      </trkpt>
      <trkpt lat="38.841430" lon="-0.335426">
        <ele>301.546</ele>
        <time>2019-06-16T09:27:31Z</time>
      </trkpt>
      <trkpt lat="38.841370" lon="-0.335444">
        <ele>301.388</ele>
        <time>2019-06-16T09:27:32Z</time>
      </trkpt>
      <trkpt lat="38.841299" lon="-0.335423">
        <ele>303.616</ele>
        <time>2019-06-16T09:27:33Z</time>
      </trkpt>
      <trkpt lat="38.841256" lon="-0.335487">
        <ele>303.108</ele>
        <time>2019-06-16T09:27:34Z</time>
      </trkpt>
      <trkpt lat="38.841161" lon="-0.335519">
        <ele>304.757</ele>
        <time>2019-06-16T09:27:36Z</time>
      </trkpt>
      <trkpt lat="38.841101" lon="-0.335532">
        <ele>305.881</ele>
        <time>2019-06-16T09:27:37Z</time>
      </trkpt>
      <trkpt lat="38.841055" lon="-0.335558">
        <ele>306.440</ele>
        <time>2019-06-16T09:27:38Z</time>
      </trkpt>
      <trkpt lat="38.841004" lon="-0.335576">
        <ele>307.573</ele>
        <time>2019-06-16T09:27:39Z</time>
      </trkpt>
      <trkpt lat="38.840943" lon="-0.335607">
        <ele>308.755</ele>
        <time>2019-06-16T09:27:40Z</time>
      </trkpt>
      <trkpt lat="38.840887" lon="-0.335629">
        <ele>309.922</ele>
        <time>2019-06-16T09:27:41Z</time>
      </trkpt>
      <trkpt lat="38.840824" lon="-0.335648">
        <ele>311.051</ele>
        <time>2019-06-16T09:27:42Z</time>
      </trkpt>
      <trkpt lat="38.840764" lon="-0.335664">
        <ele>311.256</ele>
        <time>2019-06-16T09:27:43Z</time>
      </trkpt>
      <trkpt lat="38.840691" lon="-0.335683">
        <ele>311.458</ele>
        <time>2019-06-16T09:27:44Z</time>
      </trkpt>
      <trkpt lat="38.840636" lon="-0.335691">
        <ele>311.652</ele>
        <time>2019-06-16T09:27:45Z</time>
      </trkpt>
      <trkpt lat="38.840561" lon="-0.335725">
        <ele>311.717</ele>
        <time>2019-06-16T09:27:46Z</time>
      </trkpt>
      <trkpt lat="38.840501" lon="-0.335769">
        <ele>311.108</ele>
        <time>2019-06-16T09:27:47Z</time>
      </trkpt>
      <trkpt lat="38.840439" lon="-0.335806">
        <ele>310.458</ele>
        <time>2019-06-16T09:27:48Z</time>
      </trkpt>
      <trkpt lat="38.840394" lon="-0.335848">
        <ele>309.472</ele>
        <time>2019-06-16T09:27:49Z</time>
      </trkpt>
      <trkpt lat="38.840330" lon="-0.335888">
        <ele>308.231</ele>
        <time>2019-06-16T09:27:50Z</time>
      </trkpt>
      <trkpt lat="38.840272" lon="-0.335930">
        <ele>307.294</ele>
        <time>2019-06-16T09:27:51Z</time>
      </trkpt>
      <trkpt lat="38.840219" lon="-0.335990">
        <ele>305.516</ele>
        <time>2019-06-16T09:27:52Z</time>
      </trkpt>
      <trkpt lat="38.840171" lon="-0.336052">
        <ele>304.323</ele>
        <time>2019-06-16T09:27:53Z</time>
      </trkpt>
      <trkpt lat="38.840122" lon="-0.336113">
        <ele>303.482</ele>
        <time>2019-06-16T09:27:54Z</time>
      </trkpt>
      <trkpt lat="38.840091" lon="-0.336193">
        <ele>302.587</ele>
        <time>2019-06-16T09:27:55Z</time>
      </trkpt>
      <trkpt lat="38.840042" lon="-0.336259">
        <ele>302.432</ele>
        <time>2019-06-16T09:27:56Z</time>
      </trkpt>
      <trkpt lat="38.840000" lon="-0.336329">
        <ele>303.092</ele>
        <time>2019-06-16T09:27:57Z</time>
      </trkpt>
      <trkpt lat="38.839963" lon="-0.336388">
        <ele>302.311</ele>
        <time>2019-06-16T09:27:58Z</time>
      </trkpt>
      <trkpt lat="38.839925" lon="-0.336446">
        <ele>301.508</ele>
        <time>2019-06-16T09:27:59Z</time>
      </trkpt>
      <trkpt lat="38.839897" lon="-0.336528">
        <ele>300.916</ele>
        <time>2019-06-16T09:28:00Z</time>
      </trkpt>
      <trkpt lat="38.839866" lon="-0.336595">
        <ele>300.530</ele>
        <time>2019-06-16T09:28:01Z</time>
      </trkpt>
      <trkpt lat="38.839834" lon="-0.336661">
        <ele>300.489</ele>
        <time>2019-06-16T09:28:02Z</time>
      </trkpt>
      <trkpt lat="38.839802" lon="-0.336729">
        <ele>300.272</ele>
        <time>2019-06-16T09:28:03Z</time>
      </trkpt>
      <trkpt lat="38.839777" lon="-0.336799">
        <ele>300.174</ele>
        <time>2019-06-16T09:28:04Z</time>
      </trkpt>
      <trkpt lat="38.839746" lon="-0.336877">
        <ele>300.011</ele>
        <time>2019-06-16T09:28:05Z</time>
      </trkpt>
      <trkpt lat="38.839713" lon="-0.336950">
        <ele>299.810</ele>
        <time>2019-06-16T09:28:06Z</time>
      </trkpt>
      <trkpt lat="38.839689" lon="-0.337028">
        <ele>299.465</ele>
        <time>2019-06-16T09:28:07Z</time>
      </trkpt>
      <trkpt lat="38.839664" lon="-0.337109">
        <ele>299.082</ele>
        <time>2019-06-16T09:28:08Z</time>
      </trkpt>
      <trkpt lat="38.839633" lon="-0.337189">
        <ele>298.443</ele>
        <time>2019-06-16T09:28:09Z</time>
      </trkpt>
      <trkpt lat="38.839602" lon="-0.337269">
        <ele>297.917</ele>
        <time>2019-06-16T09:28:10Z</time>
      </trkpt>
      <trkpt lat="38.839574" lon="-0.337341">
        <ele>297.608</ele>
        <time>2019-06-16T09:28:11Z</time>
      </trkpt>
      <trkpt lat="38.839536" lon="-0.337410">
        <ele>297.671</ele>
        <time>2019-06-16T09:28:12Z</time>
      </trkpt>
      <trkpt lat="38.839495" lon="-0.337484">
        <ele>297.975</ele>
        <time>2019-06-16T09:28:13Z</time>
      </trkpt>
      <trkpt lat="38.839465" lon="-0.337561">
        <ele>298.094</ele>
        <time>2019-06-16T09:28:14Z</time>
      </trkpt>
      <trkpt lat="38.839432" lon="-0.337642">
        <ele>298.067</ele>
        <time>2019-06-16T09:28:15Z</time>
      </trkpt>
      <trkpt lat="38.839391" lon="-0.337701">
        <ele>298.489</ele>
        <time>2019-06-16T09:28:16Z</time>
      </trkpt>
      <trkpt lat="38.839347" lon="-0.337765">
        <ele>299.026</ele>
        <time>2019-06-16T09:28:17Z</time>
      </trkpt>
      <trkpt lat="38.839306" lon="-0.337839">
        <ele>300.015</ele>
        <time>2019-06-16T09:28:18Z</time>
      </trkpt>
      <trkpt lat="38.839271" lon="-0.337909">
        <ele>301.080</ele>
        <time>2019-06-16T09:28:19Z</time>
      </trkpt>
      <trkpt lat="38.839234" lon="-0.337973">
        <ele>301.851</ele>
        <time>2019-06-16T09:28:20Z</time>
      </trkpt>
      <trkpt lat="38.839189" lon="-0.338025">
        <ele>302.601</ele>
        <time>2019-06-16T09:28:21Z</time>
      </trkpt>
      <trkpt lat="38.839145" lon="-0.338078">
        <ele>303.211</ele>
        <time>2019-06-16T09:28:22Z</time>
      </trkpt>
      <trkpt lat="38.839097" lon="-0.338123">
        <ele>303.508</ele>
        <time>2019-06-16T09:28:23Z</time>
      </trkpt>
      <trkpt lat="38.839053" lon="-0.338178">
        <ele>303.968</ele>
        <time>2019-06-16T09:28:24Z</time>
      </trkpt>
      <trkpt lat="38.839007" lon="-0.338226">
        <ele>304.262</ele>
        <time>2019-06-16T09:28:25Z</time>
      </trkpt>
      <trkpt lat="38.838961" lon="-0.338265">
        <ele>304.521</ele>
        <time>2019-06-16T09:28:26Z</time>
      </trkpt>
      <trkpt lat="38.838936" lon="-0.338333">
        <ele>305.094</ele>
        <time>2019-06-16T09:28:27Z</time>
      </trkpt>
      <trkpt lat="38.838894" lon="-0.338376">
        <ele>305.366</ele>
        <time>2019-06-16T09:28:28Z</time>
      </trkpt>
      <trkpt lat="38.838849" lon="-0.338415">
        <ele>305.443</ele>
        <time>2019-06-16T09:28:29Z</time>
      </trkpt>
      <trkpt lat="38.838797" lon="-0.338454">
        <ele>305.492</ele>
        <time>2019-06-16T09:28:30Z</time>
      </trkpt>
      <trkpt lat="38.838735" lon="-0.338481">
        <ele>305.297</ele>
        <time>2019-06-16T09:28:31Z</time>
      </trkpt>
      <trkpt lat="38.838690" lon="-0.338519">
        <ele>305.183</ele>
        <time>2019-06-16T09:28:32Z</time>
      </trkpt>
      <trkpt lat="38.838637" lon="-0.338554">
        <ele>305.025</ele>
        <time>2019-06-16T09:28:33Z</time>
      </trkpt>
      <trkpt lat="38.838592" lon="-0.338597">
        <ele>304.717</ele>
        <time>2019-06-16T09:28:34Z</time>
      </trkpt>
      <trkpt lat="38.838547" lon="-0.338641">
        <ele>304.508</ele>
        <time>2019-06-16T09:28:35Z</time>
      </trkpt>
      <trkpt lat="38.838498" lon="-0.338678">
        <ele>304.411</ele>
        <time>2019-06-16T09:28:36Z</time>
      </trkpt>
      <trkpt lat="38.838454" lon="-0.338715">
        <ele>304.385</ele>
        <time>2019-06-16T09:28:37Z</time>
      </trkpt>
      <trkpt lat="38.838408" lon="-0.338759">
        <ele>304.374</ele>
        <time>2019-06-16T09:28:38Z</time>
      </trkpt>
      <trkpt lat="38.838352" lon="-0.338789">
        <ele>304.187</ele>
        <time>2019-06-16T09:28:39Z</time>
      </trkpt>
      <trkpt lat="38.838300" lon="-0.338824">
        <ele>303.899</ele>
        <time>2019-06-16T09:28:40Z</time>
      </trkpt>
      <trkpt lat="38.838264" lon="-0.338884">
        <ele>303.956</ele>
        <time>2019-06-16T09:28:41Z</time>
      </trkpt>
      <trkpt lat="38.838211" lon="-0.338925">
        <ele>303.715</ele>
        <time>2019-06-16T09:28:42Z</time>
      </trkpt>
      <trkpt lat="38.838169" lon="-0.338969">
        <ele>303.630</ele>
        <time>2019-06-16T09:28:43Z</time>
      </trkpt>
      <trkpt lat="38.838128" lon="-0.339019">
        <ele>303.664</ele>
        <time>2019-06-16T09:28:44Z</time>
      </trkpt>
      <trkpt lat="38.838083" lon="-0.339070">
        <ele>303.406</ele>
        <time>2019-06-16T09:28:45Z</time>
      </trkpt>
      <trkpt lat="38.838042" lon="-0.339120">
        <ele>303.416</ele>
        <time>2019-06-16T09:28:46Z</time>
      </trkpt>
      <trkpt lat="38.837997" lon="-0.339170">
        <ele>303.408</ele>
        <time>2019-06-16T09:28:47Z</time>
      </trkpt>
      <trkpt lat="38.837973" lon="-0.339240">
        <ele>303.589</ele>
        <time>2019-06-16T09:28:48Z</time>
      </trkpt>
      <trkpt lat="38.837945" lon="-0.339293">
        <ele>303.413</ele>
        <time>2019-06-16T09:28:49Z</time>
      </trkpt>
      <trkpt lat="38.837915" lon="-0.339354">
        <ele>303.162</ele>
        <time>2019-06-16T09:28:50Z</time>
      </trkpt>
      <trkpt lat="38.837886" lon="-0.339419">
        <ele>302.955</ele>
        <time>2019-06-16T09:28:51Z</time>
      </trkpt>
      <trkpt lat="38.837858" lon="-0.339490">
        <ele>302.317</ele>
        <time>2019-06-16T09:28:52Z</time>
      </trkpt>
      <trkpt lat="38.837829" lon="-0.339557">
        <ele>301.584</ele>
        <time>2019-06-16T09:28:53Z</time>
      </trkpt>
      <trkpt lat="38.837797" lon="-0.339616">
        <ele>300.733</ele>
        <time>2019-06-16T09:28:54Z</time>
      </trkpt>
      <trkpt lat="38.837767" lon="-0.339679">
        <ele>300.098</ele>
        <time>2019-06-16T09:28:55Z</time>
      </trkpt>
      <trkpt lat="38.837742" lon="-0.339750">
        <ele>299.631</ele>
        <time>2019-06-16T09:28:56Z</time>
      </trkpt>
      <trkpt lat="38.837720" lon="-0.339828">
        <ele>299.461</ele>
        <time>2019-06-16T09:28:57Z</time>
      </trkpt>
      <trkpt lat="38.837699" lon="-0.339897">
        <ele>299.107</ele>
        <time>2019-06-16T09:28:58Z</time>
      </trkpt>
      <trkpt lat="38.837685" lon="-0.339968">
        <ele>299.008</ele>
        <time>2019-06-16T09:28:59Z</time>
      </trkpt>
      <trkpt lat="38.837674" lon="-0.340044">
        <ele>298.946</ele>
        <time>2019-06-16T09:29:00Z</time>
      </trkpt>
      <trkpt lat="38.837660" lon="-0.340124">
        <ele>298.960</ele>
        <time>2019-06-16T09:29:01Z</time>
      </trkpt>
      <trkpt lat="38.837649" lon="-0.340204">
        <ele>298.949</ele>
        <time>2019-06-16T09:29:02Z</time>
      </trkpt>
      <trkpt lat="38.837643" lon="-0.340285">
        <ele>299.012</ele>
        <time>2019-06-16T09:29:03Z</time>
      </trkpt>
      <trkpt lat="38.837642" lon="-0.340367">
        <ele>298.974</ele>
        <time>2019-06-16T09:29:04Z</time>
      </trkpt>
      <trkpt lat="38.837638" lon="-0.340454">
        <ele>298.711</ele>
        <time>2019-06-16T09:29:05Z</time>
      </trkpt>
      <trkpt lat="38.837640" lon="-0.340534">
        <ele>298.570</ele>
        <time>2019-06-16T09:29:06Z</time>
      </trkpt>
      <trkpt lat="38.837644" lon="-0.340624">
        <ele>298.495</ele>
        <time>2019-06-16T09:29:07Z</time>
      </trkpt>
      <trkpt lat="38.837654" lon="-0.340692">
        <ele>298.475</ele>
        <time>2019-06-16T09:29:08Z</time>
      </trkpt>
      <trkpt lat="38.837665" lon="-0.340776">
        <ele>298.428</ele>
        <time>2019-06-16T09:29:09Z</time>
      </trkpt>
      <trkpt lat="38.837667" lon="-0.340848">
        <ele>298.520</ele>
        <time>2019-06-16T09:29:10Z</time>
      </trkpt>
      <trkpt lat="38.837671" lon="-0.340920">
        <ele>298.908</ele>
        <time>2019-06-16T09:29:11Z</time>
      </trkpt>
      <trkpt lat="38.837674" lon="-0.340996">
        <ele>299.330</ele>
        <time>2019-06-16T09:29:12Z</time>
      </trkpt>
      <trkpt lat="38.837687" lon="-0.341074">
        <ele>299.834</ele>
        <time>2019-06-16T09:29:13Z</time>
      </trkpt>
      <trkpt lat="38.837697" lon="-0.341147">
        <ele>300.293</ele>
        <time>2019-06-16T09:29:14Z</time>
      </trkpt>
      <trkpt lat="38.837705" lon="-0.341229">
        <ele>300.476</ele>
        <time>2019-06-16T09:29:15Z</time>
      </trkpt>
      <trkpt lat="38.837715" lon="-0.341304">
        <ele>300.618</ele>
        <time>2019-06-16T09:29:16Z</time>
      </trkpt>
      <trkpt lat="38.837723" lon="-0.341376">
        <ele>300.865</ele>
        <time>2019-06-16T09:29:17Z</time>
      </trkpt>
      <trkpt lat="38.837731" lon="-0.341452">
        <ele>300.344</ele>
        <time>2019-06-16T09:29:18Z</time>
      </trkpt>
      <trkpt lat="38.837742" lon="-0.341521">
        <ele>299.999</ele>
        <time>2019-06-16T09:29:19Z</time>
      </trkpt>
      <trkpt lat="38.837754" lon="-0.341588">
        <ele>299.498</ele>
        <time>2019-06-16T09:29:20Z</time>
      </trkpt>
      <trkpt lat="38.837768" lon="-0.341656">
        <ele>299.015</ele>
        <time>2019-06-16T09:29:21Z</time>
      </trkpt>
      <trkpt lat="38.837780" lon="-0.341726">
        <ele>298.626</ele>
        <time>2019-06-16T09:29:22Z</time>
      </trkpt>
      <trkpt lat="38.837792" lon="-0.341797">
        <ele>298.208</ele>
        <time>2019-06-16T09:29:23Z</time>
      </trkpt>
      <trkpt lat="38.837796" lon="-0.341861">
        <ele>297.862</ele>
        <time>2019-06-16T09:29:24Z</time>
      </trkpt>
      <trkpt lat="38.837803" lon="-0.341935">
        <ele>297.466</ele>
        <time>2019-06-16T09:29:25Z</time>
      </trkpt>
      <trkpt lat="38.837816" lon="-0.342013">
        <ele>297.365</ele>
        <time>2019-06-16T09:29:26Z</time>
      </trkpt>
      <trkpt lat="38.837826" lon="-0.342075">
        <ele>297.348</ele>
        <time>2019-06-16T09:29:27Z</time>
      </trkpt>
      <trkpt lat="38.837833" lon="-0.342147">
        <ele>297.250</ele>
        <time>2019-06-16T09:29:28Z</time>
      </trkpt>
      <trkpt lat="38.837841" lon="-0.342218">
        <ele>297.127</ele>
        <time>2019-06-16T09:29:29Z</time>
      </trkpt>
      <trkpt lat="38.837841" lon="-0.342293">
        <ele>297.716</ele>
        <time>2019-06-16T09:29:30Z</time>
      </trkpt>
      <trkpt lat="38.837844" lon="-0.342372">
        <ele>298.421</ele>
        <time>2019-06-16T09:29:31Z</time>
      </trkpt>
      <trkpt lat="38.837845" lon="-0.342450">
        <ele>299.046</ele>
        <time>2019-06-16T09:29:32Z</time>
      </trkpt>
      <trkpt lat="38.837843" lon="-0.342531">
        <ele>299.688</ele>
        <time>2019-06-16T09:29:33Z</time>
      </trkpt>
      <trkpt lat="38.837842" lon="-0.342609">
        <ele>300.016</ele>
        <time>2019-06-16T09:29:34Z</time>
      </trkpt>
      <trkpt lat="38.837844" lon="-0.342686">
        <ele>300.408</ele>
        <time>2019-06-16T09:29:35Z</time>
      </trkpt>
      <trkpt lat="38.837838" lon="-0.342765">
        <ele>300.887</ele>
        <time>2019-06-16T09:29:36Z</time>
      </trkpt>
      <trkpt lat="38.837828" lon="-0.342835">
        <ele>300.911</ele>
        <time>2019-06-16T09:29:37Z</time>
      </trkpt>
      <trkpt lat="38.837813" lon="-0.342917">
        <ele>300.910</ele>
        <time>2019-06-16T09:29:38Z</time>
      </trkpt>
      <trkpt lat="38.837800" lon="-0.342986">
        <ele>301.073</ele>
        <time>2019-06-16T09:29:39Z</time>
      </trkpt>
      <trkpt lat="38.837784" lon="-0.343059">
        <ele>301.145</ele>
        <time>2019-06-16T09:29:40Z</time>
      </trkpt>
      <trkpt lat="38.837776" lon="-0.343120">
        <ele>301.032</ele>
        <time>2019-06-16T09:29:41Z</time>
      </trkpt>
      <trkpt lat="38.837758" lon="-0.343192">
        <ele>300.871</ele>
        <time>2019-06-16T09:29:42Z</time>
      </trkpt>
      <trkpt lat="38.837740" lon="-0.343261">
        <ele>300.676</ele>
        <time>2019-06-16T09:29:43Z</time>
      </trkpt>
      <trkpt lat="38.837726" lon="-0.343331">
        <ele>300.436</ele>
        <time>2019-06-16T09:29:44Z</time>
      </trkpt>
      <trkpt lat="38.837705" lon="-0.343397">
        <ele>300.617</ele>
        <time>2019-06-16T09:29:45Z</time>
      </trkpt>
      <trkpt lat="38.837688" lon="-0.343479">
        <ele>300.718</ele>
        <time>2019-06-16T09:29:46Z</time>
      </trkpt>
      <trkpt lat="38.837671" lon="-0.343551">
        <ele>300.808</ele>
        <time>2019-06-16T09:29:47Z</time>
      </trkpt>
      <trkpt lat="38.837646" lon="-0.343610">
        <ele>300.626</ele>
        <time>2019-06-16T09:29:48Z</time>
      </trkpt>
      <trkpt lat="38.837627" lon="-0.343681">
        <ele>300.790</ele>
        <time>2019-06-16T09:29:49Z</time>
      </trkpt>
      <trkpt lat="38.837597" lon="-0.343753">
        <ele>300.439</ele>
        <time>2019-06-16T09:29:50Z</time>
      </trkpt>
      <trkpt lat="38.837566" lon="-0.343811">
        <ele>300.152</ele>
        <time>2019-06-16T09:29:51Z</time>
      </trkpt>
      <trkpt lat="38.837532" lon="-0.343876">
        <ele>299.684</ele>
        <time>2019-06-16T09:29:52Z</time>
      </trkpt>
      <trkpt lat="38.837502" lon="-0.343939">
        <ele>299.821</ele>
        <time>2019-06-16T09:29:53Z</time>
      </trkpt>
      <trkpt lat="38.837451" lon="-0.344000">
        <ele>299.810</ele>
        <time>2019-06-16T09:29:54Z</time>
      </trkpt>
      <trkpt lat="38.837416" lon="-0.344062">
        <ele>299.965</ele>
        <time>2019-06-16T09:29:55Z</time>
      </trkpt>
      <trkpt lat="38.837378" lon="-0.344119">
        <ele>299.873</ele>
        <time>2019-06-16T09:29:56Z</time>
      </trkpt>
      <trkpt lat="38.837352" lon="-0.344168">
        <ele>299.885</ele>
        <time>2019-06-16T09:29:57Z</time>
      </trkpt>
      <trkpt lat="38.837325" lon="-0.344224">
        <ele>300.313</ele>
        <time>2019-06-16T09:29:58Z</time>
      </trkpt>
      <trkpt lat="38.837286" lon="-0.344279">
        <ele>300.408</ele>
        <time>2019-06-16T09:29:59Z</time>
      </trkpt>
      <trkpt lat="38.837255" lon="-0.344346">
        <ele>300.940</ele>
        <time>2019-06-16T09:30:00Z</time>
      </trkpt>
      <trkpt lat="38.837212" lon="-0.344398">
        <ele>301.194</ele>
        <time>2019-06-16T09:30:01Z</time>
      </trkpt>
      <trkpt lat="38.837167" lon="-0.344445">
        <ele>301.653</ele>
        <time>2019-06-16T09:30:02Z</time>
      </trkpt>
      <trkpt lat="38.837122" lon="-0.344494">
        <ele>302.486</ele>
        <time>2019-06-16T09:30:03Z</time>
      </trkpt>
      <trkpt lat="38.837074" lon="-0.344544">
        <ele>303.158</ele>
        <time>2019-06-16T09:30:04Z</time>
      </trkpt>
      <trkpt lat="38.837006" lon="-0.344647">
        <ele>304.455</ele>
        <time>2019-06-16T09:30:06Z</time>
      </trkpt>
      <trkpt lat="38.836967" lon="-0.344693">
        <ele>304.884</ele>
        <time>2019-06-16T09:30:07Z</time>
      </trkpt>
      <trkpt lat="38.836924" lon="-0.344737">
        <ele>304.999</ele>
        <time>2019-06-16T09:30:08Z</time>
      </trkpt>
      <trkpt lat="38.836884" lon="-0.344785">
        <ele>305.126</ele>
        <time>2019-06-16T09:30:09Z</time>
      </trkpt>
      <trkpt lat="38.836840" lon="-0.344827">
        <ele>305.147</ele>
        <time>2019-06-16T09:30:10Z</time>
      </trkpt>
      <trkpt lat="38.836796" lon="-0.344876">
        <ele>305.411</ele>
        <time>2019-06-16T09:30:11Z</time>
      </trkpt>
      <trkpt lat="38.836751" lon="-0.344924">
        <ele>305.708</ele>
        <time>2019-06-16T09:30:12Z</time>
      </trkpt>
      <trkpt lat="38.836716" lon="-0.344978">
        <ele>306.275</ele>
        <time>2019-06-16T09:30:13Z</time>
      </trkpt>
      <trkpt lat="38.836671" lon="-0.345019">
        <ele>306.169</ele>
        <time>2019-06-16T09:30:14Z</time>
      </trkpt>
      <trkpt lat="38.836627" lon="-0.345065">
        <ele>305.388</ele>
        <time>2019-06-16T09:30:15Z</time>
      </trkpt>
      <trkpt lat="38.836586" lon="-0.345116">
        <ele>304.511</ele>
        <time>2019-06-16T09:30:16Z</time>
      </trkpt>
      <trkpt lat="38.836543" lon="-0.345161">
        <ele>303.743</ele>
        <time>2019-06-16T09:30:17Z</time>
      </trkpt>
      <trkpt lat="38.836506" lon="-0.345220">
        <ele>303.250</ele>
        <time>2019-06-16T09:30:18Z</time>
      </trkpt>
      <trkpt lat="38.836467" lon="-0.345276">
        <ele>302.769</ele>
        <time>2019-06-16T09:30:19Z</time>
      </trkpt>
      <trkpt lat="38.836434" lon="-0.345343">
        <ele>302.244</ele>
        <time>2019-06-16T09:30:20Z</time>
      </trkpt>
      <trkpt lat="38.836393" lon="-0.345393">
        <ele>301.562</ele>
        <time>2019-06-16T09:30:21Z</time>
      </trkpt>
      <trkpt lat="38.836367" lon="-0.345449">
        <ele>301.483</ele>
        <time>2019-06-16T09:30:22Z</time>
      </trkpt>
      <trkpt lat="38.836332" lon="-0.345517">
        <ele>301.211</ele>
        <time>2019-06-16T09:30:23Z</time>
      </trkpt>
      <trkpt lat="38.836297" lon="-0.345582">
        <ele>301.408</ele>
        <time>2019-06-16T09:30:24Z</time>
      </trkpt>
      <trkpt lat="38.836265" lon="-0.345650">
        <ele>302.019</ele>
        <time>2019-06-16T09:30:25Z</time>
      </trkpt>
      <trkpt lat="38.836239" lon="-0.345717">
        <ele>302.723</ele>
        <time>2019-06-16T09:30:26Z</time>
      </trkpt>
      <trkpt lat="38.836213" lon="-0.345787">
        <ele>303.442</ele>
        <time>2019-06-16T09:30:27Z</time>
      </trkpt>
      <trkpt lat="38.836188" lon="-0.345856">
        <ele>304.115</ele>
        <time>2019-06-16T09:30:28Z</time>
      </trkpt>
      <trkpt lat="38.836170" lon="-0.345925">
        <ele>304.657</ele>
        <time>2019-06-16T09:30:29Z</time>
      </trkpt>
      <trkpt lat="38.836124" lon="-0.346070">
        <ele>305.774</ele>
        <time>2019-06-16T09:30:31Z</time>
      </trkpt>
      <trkpt lat="38.836090" lon="-0.346207">
        <ele>306.263</ele>
        <time>2019-06-16T09:30:33Z</time>
      </trkpt>
      <trkpt lat="38.836090" lon="-0.346207">
        <ele>306.298</ele>
        <time>2019-06-16T09:30:33Z</time>
      </trkpt>
      <trkpt lat="38.836090" lon="-0.346207">
        <ele>306.249</ele>
        <time>2019-06-16T09:30:33Z</time>
      </trkpt>
      <trkpt lat="38.836038" lon="-0.346451">
        <ele>307.102</ele>
        <time>2019-06-16T09:30:38Z</time>
      </trkpt>
      <trkpt lat="38.836038" lon="-0.346451">
        <ele>307.122</ele>
        <time>2019-06-16T09:30:38Z</time>
      </trkpt>
      <trkpt lat="38.836038" lon="-0.346451">
        <ele>307.108</ele>
        <time>2019-06-16T09:30:38Z</time>
      </trkpt>
      <trkpt lat="38.836038" lon="-0.346451">
        <ele>307.117</ele>
        <time>2019-06-16T09:30:38Z</time>
      </trkpt>
      <trkpt lat="38.836038" lon="-0.346451">
        <ele>307.161</ele>
        <time>2019-06-16T09:30:38Z</time>
      </trkpt>
      <trkpt lat="38.835931" lon="-0.346808">
        <ele>307.670</ele>
        <time>2019-06-16T09:30:46Z</time>
      </trkpt>
      <trkpt lat="38.835931" lon="-0.346808">
        <ele>307.693</ele>
        <time>2019-06-16T09:30:46Z</time>
      </trkpt>
      <trkpt lat="38.835931" lon="-0.346808">
        <ele>307.635</ele>
        <time>2019-06-16T09:30:46Z</time>
      </trkpt>
      <trkpt lat="38.835931" lon="-0.346808">
        <ele>307.672</ele>
        <time>2019-06-16T09:30:46Z</time>
      </trkpt>
      <trkpt lat="38.835931" lon="-0.346808">
        <ele>307.691</ele>
        <time>2019-06-16T09:30:46Z</time>
      </trkpt>
      <trkpt lat="38.835931" lon="-0.346808">
        <ele>307.686</ele>
        <time>2019-06-16T09:30:46Z</time>
      </trkpt>
      <trkpt lat="38.835931" lon="-0.346808">
        <ele>307.661</ele>
        <time>2019-06-16T09:30:46Z</time>
      </trkpt>
      <trkpt lat="38.835931" lon="-0.346808">
        <ele>307.621</ele>
        <time>2019-06-16T09:30:46Z</time>
      </trkpt>
      <trkpt lat="38.835727" lon="-0.347591">
        <ele>309.913</ele>
        <time>2019-06-16T09:30:59Z</time>
      </trkpt>
      <trkpt lat="38.835727" lon="-0.347591">
        <ele>309.908</ele>
        <time>2019-06-16T09:30:59Z</time>
      </trkpt>
      <trkpt lat="38.835727" lon="-0.347591">
        <ele>309.989</ele>
        <time>2019-06-16T09:30:59Z</time>
      </trkpt>
      <trkpt lat="38.835727" lon="-0.347591">
        <ele>309.933</ele>
        <time>2019-06-16T09:30:59Z</time>
      </trkpt>
      <trkpt lat="38.835727" lon="-0.347591">
        <ele>309.972</ele>
        <time>2019-06-16T09:30:59Z</time>
      </trkpt>
      <trkpt lat="38.835727" lon="-0.347591">
        <ele>309.985</ele>
        <time>2019-06-16T09:30:59Z</time>
      </trkpt>
      <trkpt lat="38.835727" lon="-0.347591">
        <ele>309.977</ele>
        <time>2019-06-16T09:30:59Z</time>
      </trkpt>
      <trkpt lat="38.835727" lon="-0.347591">
        <ele>309.954</ele>
        <time>2019-06-16T09:30:59Z</time>
      </trkpt>
      <trkpt lat="38.835727" lon="-0.347591">
        <ele>309.933</ele>
        <time>2019-06-16T09:30:59Z</time>
      </trkpt>
      <trkpt lat="38.835727" lon="-0.347591">
        <ele>309.998</ele>
        <time>2019-06-16T09:30:59Z</time>
      </trkpt>
      <trkpt lat="38.835727" lon="-0.347591">
        <ele>309.927</ele>
        <time>2019-06-16T09:30:59Z</time>
      </trkpt>
      <trkpt lat="38.835727" lon="-0.347591">
        <ele>309.968</ele>
        <time>2019-06-16T09:30:59Z</time>
      </trkpt>
      <trkpt lat="38.835727" lon="-0.347591">
        <ele>309.914</ele>
        <time>2019-06-16T09:30:59Z</time>
      </trkpt>
      <trkpt lat="38.835707" lon="-0.347645">
        <ele>310.108</ele>
        <time>2019-06-16T09:31:00Z</time>
      </trkpt>
      <trkpt lat="38.835676" lon="-0.347707">
        <ele>310.075</ele>
        <time>2019-06-16T09:31:01Z</time>
      </trkpt>
      <trkpt lat="38.835645" lon="-0.347767">
        <ele>309.869</ele>
        <time>2019-06-16T09:31:02Z</time>
      </trkpt>
      <trkpt lat="38.835618" lon="-0.347832">
        <ele>309.858</ele>
        <time>2019-06-16T09:31:03Z</time>
      </trkpt>
      <trkpt lat="38.835590" lon="-0.347891">
        <ele>309.611</ele>
        <time>2019-06-16T09:31:04Z</time>
      </trkpt>
      <trkpt lat="38.835563" lon="-0.347940">
        <ele>309.343</ele>
        <time>2019-06-16T09:31:05Z</time>
      </trkpt>
      <trkpt lat="38.835537" lon="-0.347995">
        <ele>309.320</ele>
        <time>2019-06-16T09:31:06Z</time>
      </trkpt>
      <trkpt lat="38.835506" lon="-0.348042">
        <ele>309.449</ele>
        <time>2019-06-16T09:31:07Z</time>
      </trkpt>
      <trkpt lat="38.835483" lon="-0.348097">
        <ele>309.624</ele>
        <time>2019-06-16T09:31:08Z</time>
      </trkpt>
      <trkpt lat="38.835445" lon="-0.348155">
        <ele>309.724</ele>
        <time>2019-06-16T09:31:09Z</time>
      </trkpt>
      <trkpt lat="38.835414" lon="-0.348202">
        <ele>309.804</ele>
        <time>2019-06-16T09:31:10Z</time>
      </trkpt>
      <trkpt lat="38.835372" lon="-0.348254">
        <ele>309.714</ele>
        <time>2019-06-16T09:31:11Z</time>
      </trkpt>
      <trkpt lat="38.835342" lon="-0.348320">
        <ele>309.808</ele>
        <time>2019-06-16T09:31:12Z</time>
      </trkpt>
      <trkpt lat="38.835320" lon="-0.348377">
        <ele>310.185</ele>
        <time>2019-06-16T09:31:13Z</time>
      </trkpt>
      <trkpt lat="38.835290" lon="-0.348436">
        <ele>310.329</ele>
        <time>2019-06-16T09:31:14Z</time>
      </trkpt>
      <trkpt lat="38.835265" lon="-0.348486">
        <ele>310.598</ele>
        <time>2019-06-16T09:31:15Z</time>
      </trkpt>
      <trkpt lat="38.835235" lon="-0.348535">
        <ele>310.631</ele>
        <time>2019-06-16T09:31:16Z</time>
      </trkpt>
      <trkpt lat="38.835200" lon="-0.348583">
        <ele>310.673</ele>
        <time>2019-06-16T09:31:17Z</time>
      </trkpt>
      <trkpt lat="38.835156" lon="-0.348625">
        <ele>310.510</ele>
        <time>2019-06-16T09:31:18Z</time>
      </trkpt>
      <trkpt lat="38.835113" lon="-0.348681">
        <ele>310.879</ele>
        <time>2019-06-16T09:31:19Z</time>
      </trkpt>
      <trkpt lat="38.835071" lon="-0.348727">
        <ele>310.984</ele>
        <time>2019-06-16T09:31:20Z</time>
      </trkpt>
      <trkpt lat="38.835030" lon="-0.348774">
        <ele>310.964</ele>
        <time>2019-06-16T09:31:21Z</time>
      </trkpt>
      <trkpt lat="38.834991" lon="-0.348823">
        <ele>310.906</ele>
        <time>2019-06-16T09:31:22Z</time>
      </trkpt>
      <trkpt lat="38.834950" lon="-0.348874">
        <ele>310.916</ele>
        <time>2019-06-16T09:31:23Z</time>
      </trkpt>
      <trkpt lat="38.834904" lon="-0.348928">
        <ele>311.008</ele>
        <time>2019-06-16T09:31:24Z</time>
      </trkpt>
      <trkpt lat="38.834867" lon="-0.348980">
        <ele>311.449</ele>
        <time>2019-06-16T09:31:25Z</time>
      </trkpt>
      <trkpt lat="38.834825" lon="-0.349027">
        <ele>311.673</ele>
        <time>2019-06-16T09:31:26Z</time>
      </trkpt>
      <trkpt lat="38.834776" lon="-0.349079">
        <ele>311.982</ele>
        <time>2019-06-16T09:31:27Z</time>
      </trkpt>
      <trkpt lat="38.834723" lon="-0.349116">
        <ele>311.955</ele>
        <time>2019-06-16T09:31:28Z</time>
      </trkpt>
      <trkpt lat="38.834668" lon="-0.349159">
        <ele>311.787</ele>
        <time>2019-06-16T09:31:29Z</time>
      </trkpt>
      <trkpt lat="38.834616" lon="-0.349205">
        <ele>311.414</ele>
        <time>2019-06-16T09:31:30Z</time>
      </trkpt>
      <trkpt lat="38.834579" lon="-0.349252">
        <ele>311.523</ele>
        <time>2019-06-16T09:31:31Z</time>
      </trkpt>
      <trkpt lat="38.834524" lon="-0.349295">
        <ele>311.248</ele>
        <time>2019-06-16T09:31:32Z</time>
      </trkpt>
      <trkpt lat="38.834487" lon="-0.349346">
        <ele>311.663</ele>
        <time>2019-06-16T09:31:33Z</time>
      </trkpt>
      <trkpt lat="38.834442" lon="-0.349391">
        <ele>311.844</ele>
        <time>2019-06-16T09:31:34Z</time>
      </trkpt>
      <trkpt lat="38.834409" lon="-0.349434">
        <ele>311.918</ele>
        <time>2019-06-16T09:31:35Z</time>
      </trkpt>
      <trkpt lat="38.834373" lon="-0.349474">
        <ele>311.508</ele>
        <time>2019-06-16T09:31:36Z</time>
      </trkpt>
      <trkpt lat="38.834329" lon="-0.349525">
        <ele>311.019</ele>
        <time>2019-06-16T09:31:37Z</time>
      </trkpt>
      <trkpt lat="38.834286" lon="-0.349570">
        <ele>310.473</ele>
        <time>2019-06-16T09:31:38Z</time>
      </trkpt>
      <trkpt lat="38.834244" lon="-0.349613">
        <ele>309.832</ele>
        <time>2019-06-16T09:31:39Z</time>
      </trkpt>
      <trkpt lat="38.834204" lon="-0.349658">
        <ele>309.245</ele>
        <time>2019-06-16T09:31:40Z</time>
      </trkpt>
      <trkpt lat="38.834150" lon="-0.349698">
        <ele>308.647</ele>
        <time>2019-06-16T09:31:41Z</time>
      </trkpt>
      <trkpt lat="38.834106" lon="-0.349749">
        <ele>308.634</ele>
        <time>2019-06-16T09:31:42Z</time>
      </trkpt>
      <trkpt lat="38.834062" lon="-0.349790">
        <ele>308.693</ele>
        <time>2019-06-16T09:31:43Z</time>
      </trkpt>
      <trkpt lat="38.833991" lon="-0.349875">
        <ele>308.858</ele>
        <time>2019-06-16T09:31:45Z</time>
      </trkpt>
      <trkpt lat="38.833954" lon="-0.349925">
        <ele>308.964</ele>
        <time>2019-06-16T09:31:46Z</time>
      </trkpt>
      <trkpt lat="38.833913" lon="-0.349970">
        <ele>308.906</ele>
        <time>2019-06-16T09:31:47Z</time>
      </trkpt>
      <trkpt lat="38.833860" lon="-0.350010">
        <ele>308.816</ele>
        <time>2019-06-16T09:31:48Z</time>
      </trkpt>
      <trkpt lat="38.833829" lon="-0.350069">
        <ele>309.008</ele>
        <time>2019-06-16T09:31:49Z</time>
      </trkpt>
      <trkpt lat="38.833802" lon="-0.350132">
        <ele>309.389</ele>
        <time>2019-06-16T09:31:50Z</time>
      </trkpt>
      <trkpt lat="38.833749" lon="-0.350239">
        <ele>309.683</ele>
        <time>2019-06-16T09:31:52Z</time>
      </trkpt>
      <trkpt lat="38.833723" lon="-0.350295">
        <ele>309.732</ele>
        <time>2019-06-16T09:31:53Z</time>
      </trkpt>
      <trkpt lat="38.833695" lon="-0.350356">
        <ele>309.895</ele>
        <time>2019-06-16T09:31:54Z</time>
      </trkpt>
      <trkpt lat="38.833672" lon="-0.350415">
        <ele>309.947</ele>
        <time>2019-06-16T09:31:55Z</time>
      </trkpt>
      <trkpt lat="38.833641" lon="-0.350472">
        <ele>309.874</ele>
        <time>2019-06-16T09:31:56Z</time>
      </trkpt>
      <trkpt lat="38.833616" lon="-0.350529">
        <ele>309.943</ele>
        <time>2019-06-16T09:31:57Z</time>
      </trkpt>
      <trkpt lat="38.833587" lon="-0.350589">
        <ele>310.098</ele>
        <time>2019-06-16T09:31:58Z</time>
      </trkpt>
      <trkpt lat="38.833569" lon="-0.350652">
        <ele>310.174</ele>
        <time>2019-06-16T09:31:59Z</time>
      </trkpt>
      <trkpt lat="38.833550" lon="-0.350714">
        <ele>310.256</ele>
        <time>2019-06-16T09:32:00Z</time>
      </trkpt>
      <trkpt lat="38.833539" lon="-0.350783">
        <ele>310.421</ele>
        <time>2019-06-16T09:32:01Z</time>
      </trkpt>
      <trkpt lat="38.833522" lon="-0.350841">
        <ele>310.408</ele>
        <time>2019-06-16T09:32:02Z</time>
      </trkpt>
      <trkpt lat="38.833499" lon="-0.350902">
        <ele>310.490</ele>
        <time>2019-06-16T09:32:03Z</time>
      </trkpt>
      <trkpt lat="38.833478" lon="-0.350966">
        <ele>310.344</ele>
        <time>2019-06-16T09:32:04Z</time>
      </trkpt>
      <trkpt lat="38.833457" lon="-0.351027">
        <ele>310.273</ele>
        <time>2019-06-16T09:32:05Z</time>
      </trkpt>
      <trkpt lat="38.833429" lon="-0.351081">
        <ele>309.966</ele>
        <time>2019-06-16T09:32:06Z</time>
      </trkpt>
      <trkpt lat="38.833415" lon="-0.351146">
        <ele>310.138</ele>
        <time>2019-06-16T09:32:07Z</time>
      </trkpt>
      <trkpt lat="38.833400" lon="-0.351205">
        <ele>310.245</ele>
        <time>2019-06-16T09:32:08Z</time>
      </trkpt>
      <trkpt lat="38.833363" lon="-0.351317">
        <ele>310.284</ele>
        <time>2019-06-16T09:32:10Z</time>
      </trkpt>
      <trkpt lat="38.833332" lon="-0.351390">
        <ele>310.019</ele>
        <time>2019-06-16T09:32:11Z</time>
      </trkpt>
      <trkpt lat="38.833309" lon="-0.351448">
        <ele>310.641</ele>
        <time>2019-06-16T09:32:12Z</time>
      </trkpt>
      <trkpt lat="38.833298" lon="-0.351511">
        <ele>311.381</ele>
        <time>2019-06-16T09:32:13Z</time>
      </trkpt>
      <trkpt lat="38.833282" lon="-0.351565">
        <ele>311.709</ele>
        <time>2019-06-16T09:32:14Z</time>
      </trkpt>
      <trkpt lat="38.833262" lon="-0.351626">
        <ele>312.208</ele>
        <time>2019-06-16T09:32:15Z</time>
      </trkpt>
      <trkpt lat="38.833239" lon="-0.351683">
        <ele>312.787</ele>
        <time>2019-06-16T09:32:16Z</time>
      </trkpt>
      <trkpt lat="38.833220" lon="-0.351740">
        <ele>313.531</ele>
        <time>2019-06-16T09:32:17Z</time>
      </trkpt>
      <trkpt lat="38.833196" lon="-0.351796">
        <ele>314.110</ele>
        <time>2019-06-16T09:32:18Z</time>
      </trkpt>
      <trkpt lat="38.833161" lon="-0.351852">
        <ele>314.393</ele>
        <time>2019-06-16T09:32:19Z</time>
      </trkpt>
      <trkpt lat="38.833111" lon="-0.351955">
        <ele>314.995</ele>
        <time>2019-06-16T09:32:21Z</time>
      </trkpt>
      <trkpt lat="38.833080" lon="-0.352005">
        <ele>315.562</ele>
        <time>2019-06-16T09:32:22Z</time>
      </trkpt>
      <trkpt lat="38.833047" lon="-0.352051">
        <ele>315.911</ele>
        <time>2019-06-16T09:32:23Z</time>
      </trkpt>
      <trkpt lat="38.833016" lon="-0.352100">
        <ele>316.446</ele>
        <time>2019-06-16T09:32:24Z</time>
      </trkpt>
      <trkpt lat="38.832987" lon="-0.352155">
        <ele>317.123</ele>
        <time>2019-06-16T09:32:25Z</time>
      </trkpt>
      <trkpt lat="38.832914" lon="-0.352230">
        <ele>316.683</ele>
        <time>2019-06-16T09:32:27Z</time>
      </trkpt>
      <trkpt lat="38.832888" lon="-0.352279">
        <ele>316.811</ele>
        <time>2019-06-16T09:32:28Z</time>
      </trkpt>
      <trkpt lat="38.832802" lon="-0.352405">
        <ele>316.708</ele>
        <time>2019-06-16T09:32:31Z</time>
      </trkpt>
      <trkpt lat="38.832802" lon="-0.352405">
        <ele>316.785</ele>
        <time>2019-06-16T09:32:31Z</time>
      </trkpt>
      <trkpt lat="38.832761" lon="-0.352547">
        <ele>318.649</ele>
        <time>2019-06-16T09:32:35Z</time>
      </trkpt>
      <trkpt lat="38.832761" lon="-0.352547">
        <ele>318.648</ele>
        <time>2019-06-16T09:32:35Z</time>
      </trkpt>
      <trkpt lat="38.832761" lon="-0.352547">
        <ele>318.671</ele>
        <time>2019-06-16T09:32:35Z</time>
      </trkpt>
      <trkpt lat="38.832761" lon="-0.352547">
        <ele>318.633</ele>
        <time>2019-06-16T09:32:35Z</time>
      </trkpt>
      <trkpt lat="38.832904" lon="-0.352752">
        <ele>327.150</ele>
        <time>2019-06-16T09:32:45Z</time>
      </trkpt>
      <trkpt lat="38.832904" lon="-0.352752">
        <ele>327.129</ele>
        <time>2019-06-16T09:32:45Z</time>
      </trkpt>
      <trkpt lat="38.832904" lon="-0.352752">
        <ele>327.164</ele>
        <time>2019-06-16T09:32:45Z</time>
      </trkpt>
      <trkpt lat="38.832904" lon="-0.352752">
        <ele>327.136</ele>
        <time>2019-06-16T09:32:45Z</time>
      </trkpt>
      <trkpt lat="38.832904" lon="-0.352752">
        <ele>327.117</ele>
        <time>2019-06-16T09:32:45Z</time>
      </trkpt>
      <trkpt lat="38.832904" lon="-0.352752">
        <ele>327.118</ele>
        <time>2019-06-16T09:32:45Z</time>
      </trkpt>
      <trkpt lat="38.832904" lon="-0.352752">
        <ele>327.108</ele>
        <time>2019-06-16T09:32:45Z</time>
      </trkpt>
      <trkpt lat="38.832904" lon="-0.352752">
        <ele>327.186</ele>
        <time>2019-06-16T09:32:45Z</time>
      </trkpt>
      <trkpt lat="38.832904" lon="-0.352752">
        <ele>327.120</ele>
        <time>2019-06-16T09:32:45Z</time>
      </trkpt>
      <trkpt lat="38.832904" lon="-0.352752">
        <ele>327.119</ele>
        <time>2019-06-16T09:32:45Z</time>
      </trkpt>
      <trkpt lat="38.832797" lon="-0.352485">
        <ele>318.362</ele>
        <time>2019-06-16T09:33:01Z</time>
      </trkpt>
      <trkpt lat="38.832797" lon="-0.352485">
        <ele>318.334</ele>
        <time>2019-06-16T09:33:01Z</time>
      </trkpt>
      <trkpt lat="38.832797" lon="-0.352485">
        <ele>318.321</ele>
        <time>2019-06-16T09:33:01Z</time>
      </trkpt>
      <trkpt lat="38.832797" lon="-0.352485">
        <ele>318.330</ele>
        <time>2019-06-16T09:33:01Z</time>
      </trkpt>
      <trkpt lat="38.832797" lon="-0.352485">
        <ele>318.355</ele>
        <time>2019-06-16T09:33:01Z</time>
      </trkpt>
      <trkpt lat="38.832797" lon="-0.352485">
        <ele>318.378</ele>
        <time>2019-06-16T09:33:01Z</time>
      </trkpt>
      <trkpt lat="38.832797" lon="-0.352485">
        <ele>318.333</ele>
        <time>2019-06-16T09:33:01Z</time>
      </trkpt>
      <trkpt lat="38.832797" lon="-0.352485">
        <ele>318.326</ele>
        <time>2019-06-16T09:33:01Z</time>
      </trkpt>
      <trkpt lat="38.832797" lon="-0.352485">
        <ele>318.308</ele>
        <time>2019-06-16T09:33:01Z</time>
      </trkpt>
      <trkpt lat="38.832797" lon="-0.352485">
        <ele>318.370</ele>
        <time>2019-06-16T09:33:01Z</time>
      </trkpt>
      <trkpt lat="38.832797" lon="-0.352485">
        <ele>318.374</ele>
        <time>2019-06-16T09:33:01Z</time>
      </trkpt>
      <trkpt lat="38.832797" lon="-0.352485">
        <ele>318.343</ele>
        <time>2019-06-16T09:33:01Z</time>
      </trkpt>
      <trkpt lat="38.832797" lon="-0.352485">
        <ele>318.326</ele>
        <time>2019-06-16T09:33:01Z</time>
      </trkpt>
      <trkpt lat="38.832797" lon="-0.352485">
        <ele>318.328</ele>
        <time>2019-06-16T09:33:01Z</time>
      </trkpt>
      <trkpt lat="38.832797" lon="-0.352485">
        <ele>318.335</ele>
        <time>2019-06-16T09:33:01Z</time>
      </trkpt>
      <trkpt lat="38.832797" lon="-0.352485">
        <ele>318.354</ele>
        <time>2019-06-16T09:33:01Z</time>
      </trkpt>
      <trkpt lat="38.832756" lon="-0.352515">
        <ele>317.849</ele>
        <time>2019-06-16T09:34:29Z</time>
      </trkpt>
      <trkpt lat="38.832657" lon="-0.352624">
        <ele>317.498</ele>
        <time>2019-06-16T09:34:32Z</time>
      </trkpt>
      <trkpt lat="38.832629" lon="-0.352673">
        <ele>317.715</ele>
        <time>2019-06-16T09:34:35Z</time>
      </trkpt>
      <trkpt lat="38.832605" lon="-0.352724">
        <ele>318.026</ele>
        <time>2019-06-16T09:34:37Z</time>
      </trkpt>
      <trkpt lat="38.832547" lon="-0.352823">
        <ele>318.308</ele>
        <time>2019-06-16T09:34:38Z</time>
      </trkpt>
      <trkpt lat="38.832466" lon="-0.352928">
        <ele>318.642</ele>
        <time>2019-06-16T09:34:39Z</time>
      </trkpt>
      <trkpt lat="38.832419" lon="-0.352973">
        <ele>318.676</ele>
        <time>2019-06-16T09:34:40Z</time>
      </trkpt>
      <trkpt lat="38.832370" lon="-0.353007">
        <ele>318.235</ele>
        <time>2019-06-16T09:34:41Z</time>
      </trkpt>
      <trkpt lat="38.832331" lon="-0.353064">
        <ele>318.528</ele>
        <time>2019-06-16T09:34:42Z</time>
      </trkpt>
      <trkpt lat="38.832287" lon="-0.353114">
        <ele>318.510</ele>
        <time>2019-06-16T09:34:43Z</time>
      </trkpt>
      <trkpt lat="38.832246" lon="-0.353161">
        <ele>318.567</ele>
        <time>2019-06-16T09:34:44Z</time>
      </trkpt>
      <trkpt lat="38.832199" lon="-0.353202">
        <ele>318.236</ele>
        <time>2019-06-16T09:34:45Z</time>
      </trkpt>
      <trkpt lat="38.832153" lon="-0.353244">
        <ele>318.181</ele>
        <time>2019-06-16T09:34:46Z</time>
      </trkpt>
      <trkpt lat="38.832114" lon="-0.353290">
        <ele>318.077</ele>
        <time>2019-06-16T09:34:47Z</time>
      </trkpt>
      <trkpt lat="38.832075" lon="-0.353339">
        <ele>317.961</ele>
        <time>2019-06-16T09:34:48Z</time>
      </trkpt>
      <trkpt lat="38.832041" lon="-0.353395">
        <ele>317.727</ele>
        <time>2019-06-16T09:34:49Z</time>
      </trkpt>
      <trkpt lat="38.831975" lon="-0.353422">
        <ele>316.408</ele>
        <time>2019-06-16T09:34:50Z</time>
      </trkpt>
      <trkpt lat="38.831956" lon="-0.353480">
        <ele>316.480</ele>
        <time>2019-06-16T09:34:51Z</time>
      </trkpt>
      <trkpt lat="38.831947" lon="-0.353544">
        <ele>316.624</ele>
        <time>2019-06-16T09:34:52Z</time>
      </trkpt>
      <trkpt lat="38.831890" lon="-0.353584">
        <ele>315.833</ele>
        <time>2019-06-16T09:34:53Z</time>
      </trkpt>
      <trkpt lat="38.831839" lon="-0.353622">
        <ele>315.216</ele>
        <time>2019-06-16T09:34:54Z</time>
      </trkpt>
      <trkpt lat="38.831817" lon="-0.353676">
        <ele>315.438</ele>
        <time>2019-06-16T09:34:55Z</time>
      </trkpt>
      <trkpt lat="38.831793" lon="-0.353738">
        <ele>315.635</ele>
        <time>2019-06-16T09:34:56Z</time>
      </trkpt>
      <trkpt lat="38.831744" lon="-0.353780">
        <ele>315.284</ele>
        <time>2019-06-16T09:34:57Z</time>
      </trkpt>
      <trkpt lat="38.831703" lon="-0.353827">
        <ele>315.029</ele>
        <time>2019-06-16T09:34:58Z</time>
      </trkpt>
      <trkpt lat="38.831663" lon="-0.353878">
        <ele>314.987</ele>
        <time>2019-06-16T09:34:59Z</time>
      </trkpt>
      <trkpt lat="38.831605" lon="-0.353965">
        <ele>315.542</ele>
        <time>2019-06-16T09:35:01Z</time>
      </trkpt>
      <trkpt lat="38.831563" lon="-0.354012">
        <ele>315.826</ele>
        <time>2019-06-16T09:35:02Z</time>
      </trkpt>
      <trkpt lat="38.831537" lon="-0.354077">
        <ele>316.208</ele>
        <time>2019-06-16T09:35:03Z</time>
      </trkpt>
      <trkpt lat="38.831480" lon="-0.354130">
        <ele>316.321</ele>
        <time>2019-06-16T09:35:04Z</time>
      </trkpt>
      <trkpt lat="38.831439" lon="-0.354175">
        <ele>316.415</ele>
        <time>2019-06-16T09:35:05Z</time>
      </trkpt>
      <trkpt lat="38.831393" lon="-0.354223">
        <ele>316.414</ele>
        <time>2019-06-16T09:35:06Z</time>
      </trkpt>
      <trkpt lat="38.831363" lon="-0.354275">
        <ele>316.587</ele>
        <time>2019-06-16T09:35:07Z</time>
      </trkpt>
      <trkpt lat="38.831333" lon="-0.354325">
        <ele>316.439</ele>
        <time>2019-06-16T09:35:08Z</time>
      </trkpt>
      <trkpt lat="38.831290" lon="-0.354385">
        <ele>316.256</ele>
        <time>2019-06-16T09:35:09Z</time>
      </trkpt>
      <trkpt lat="38.831252" lon="-0.354436">
        <ele>316.015</ele>
        <time>2019-06-16T09:35:10Z</time>
      </trkpt>
      <trkpt lat="38.831212" lon="-0.354490">
        <ele>315.950</ele>
        <time>2019-06-16T09:35:11Z</time>
      </trkpt>
      <trkpt lat="38.831169" lon="-0.354545">
        <ele>315.992</ele>
        <time>2019-06-16T09:35:12Z</time>
      </trkpt>
      <trkpt lat="38.831141" lon="-0.354591">
        <ele>316.073</ele>
        <time>2019-06-16T09:35:13Z</time>
      </trkpt>
      <trkpt lat="38.831107" lon="-0.354634">
        <ele>316.020</ele>
        <time>2019-06-16T09:35:14Z</time>
      </trkpt>
      <trkpt lat="38.831074" lon="-0.354685">
        <ele>316.108</ele>
        <time>2019-06-16T09:35:15Z</time>
      </trkpt>
      <trkpt lat="38.831036" lon="-0.354731">
        <ele>316.142</ele>
        <time>2019-06-16T09:35:16Z</time>
      </trkpt>
      <trkpt lat="38.831005" lon="-0.354780">
        <ele>316.526</ele>
        <time>2019-06-16T09:35:17Z</time>
      </trkpt>
      <trkpt lat="38.830975" lon="-0.354832">
        <ele>317.025</ele>
        <time>2019-06-16T09:35:18Z</time>
      </trkpt>
      <trkpt lat="38.830952" lon="-0.354891">
        <ele>317.728</ele>
        <time>2019-06-16T09:35:19Z</time>
      </trkpt>
      <trkpt lat="38.830924" lon="-0.354952">
        <ele>318.450</ele>
        <time>2019-06-16T09:35:20Z</time>
      </trkpt>
      <trkpt lat="38.830893" lon="-0.355001">
        <ele>318.917</ele>
        <time>2019-06-16T09:35:21Z</time>
      </trkpt>
      <trkpt lat="38.830877" lon="-0.355060">
        <ele>319.356</ele>
        <time>2019-06-16T09:35:22Z</time>
      </trkpt>
      <trkpt lat="38.830845" lon="-0.355109">
        <ele>319.441</ele>
        <time>2019-06-16T09:35:23Z</time>
      </trkpt>
      <trkpt lat="38.830837" lon="-0.355178">
        <ele>320.096</ele>
        <time>2019-06-16T09:35:24Z</time>
      </trkpt>
      <trkpt lat="38.830814" lon="-0.355235">
        <ele>320.231</ele>
        <time>2019-06-16T09:35:25Z</time>
      </trkpt>
      <trkpt lat="38.830786" lon="-0.355281">
        <ele>320.224</ele>
        <time>2019-06-16T09:35:26Z</time>
      </trkpt>
      <trkpt lat="38.830726" lon="-0.355359">
        <ele>319.808</ele>
        <time>2019-06-16T09:35:28Z</time>
      </trkpt>
      <trkpt lat="38.830697" lon="-0.355415">
        <ele>319.812</ele>
        <time>2019-06-16T09:35:29Z</time>
      </trkpt>
      <trkpt lat="38.830669" lon="-0.355488">
        <ele>319.966</ele>
        <time>2019-06-16T09:35:31Z</time>
      </trkpt>
      <trkpt lat="38.830632" lon="-0.355588">
        <ele>319.975</ele>
        <time>2019-06-16T09:35:33Z</time>
      </trkpt>
      <trkpt lat="38.830603" lon="-0.355700">
        <ele>320.078</ele>
        <time>2019-06-16T09:35:35Z</time>
      </trkpt>
      <trkpt lat="38.830574" lon="-0.355759">
        <ele>319.880</ele>
        <time>2019-06-16T09:35:36Z</time>
      </trkpt>
      <trkpt lat="38.830551" lon="-0.355820">
        <ele>319.837</ele>
        <time>2019-06-16T09:35:37Z</time>
      </trkpt>
      <trkpt lat="38.830529" lon="-0.355884">
        <ele>320.086</ele>
        <time>2019-06-16T09:35:38Z</time>
      </trkpt>
      <trkpt lat="38.830512" lon="-0.355941">
        <ele>320.251</ele>
        <time>2019-06-16T09:35:39Z</time>
      </trkpt>
      <trkpt lat="38.830471" lon="-0.356044">
        <ele>320.221</ele>
        <time>2019-06-16T09:35:41Z</time>
      </trkpt>
      <trkpt lat="38.830434" lon="-0.356152">
        <ele>320.541</ele>
        <time>2019-06-16T09:35:43Z</time>
      </trkpt>
      <trkpt lat="38.830390" lon="-0.356243">
        <ele>320.705</ele>
        <time>2019-06-16T09:35:45Z</time>
      </trkpt>
      <trkpt lat="38.830353" lon="-0.356285">
        <ele>320.408</ele>
        <time>2019-06-16T09:35:46Z</time>
      </trkpt>
      <trkpt lat="38.830331" lon="-0.356352">
        <ele>320.855</ele>
        <time>2019-06-16T09:35:48Z</time>
      </trkpt>
      <trkpt lat="38.830301" lon="-0.356426">
        <ele>321.149</ele>
        <time>2019-06-16T09:35:51Z</time>
      </trkpt>
      <trkpt lat="38.830234" lon="-0.356566">
        <ele>321.728</ele>
        <time>2019-06-16T09:35:54Z</time>
      </trkpt>
      <trkpt lat="38.830195" lon="-0.356673">
        <ele>322.651</ele>
        <time>2019-06-16T09:35:55Z</time>
      </trkpt>
      <trkpt lat="38.830151" lon="-0.356813">
        <ele>323.673</ele>
        <time>2019-06-16T09:35:56Z</time>
      </trkpt>
      <trkpt lat="38.830128" lon="-0.356866">
        <ele>323.850</ele>
        <time>2019-06-16T09:35:57Z</time>
      </trkpt>
      <trkpt lat="38.830112" lon="-0.356927">
        <ele>324.299</ele>
        <time>2019-06-16T09:35:58Z</time>
      </trkpt>
      <trkpt lat="38.830090" lon="-0.356981">
        <ele>324.154</ele>
        <time>2019-06-16T09:35:59Z</time>
      </trkpt>
      <trkpt lat="38.830068" lon="-0.357033">
        <ele>323.897</ele>
        <time>2019-06-16T09:36:00Z</time>
      </trkpt>
      <trkpt lat="38.830043" lon="-0.357083">
        <ele>323.223</ele>
        <time>2019-06-16T09:36:01Z</time>
      </trkpt>
      <trkpt lat="38.829998" lon="-0.357186">
        <ele>322.025</ele>
        <time>2019-06-16T09:36:03Z</time>
      </trkpt>
      <trkpt lat="38.829964" lon="-0.357228">
        <ele>321.708</ele>
        <time>2019-06-16T09:36:04Z</time>
      </trkpt>
      <trkpt lat="38.829936" lon="-0.357274">
        <ele>321.752</ele>
        <time>2019-06-16T09:36:05Z</time>
      </trkpt>
      <trkpt lat="38.829904" lon="-0.357323">
        <ele>321.646</ele>
        <time>2019-06-16T09:36:06Z</time>
      </trkpt>
      <trkpt lat="38.829876" lon="-0.357372">
        <ele>321.375</ele>
        <time>2019-06-16T09:36:07Z</time>
      </trkpt>
      <trkpt lat="38.829822" lon="-0.357465">
        <ele>320.538</ele>
        <time>2019-06-16T09:36:09Z</time>
      </trkpt>
      <trkpt lat="38.829777" lon="-0.357496">
        <ele>319.430</ele>
        <time>2019-06-16T09:36:10Z</time>
      </trkpt>
      <trkpt lat="38.829718" lon="-0.357580">
        <ele>319.127</ele>
        <time>2019-06-16T09:36:12Z</time>
      </trkpt>
      <trkpt lat="38.829660" lon="-0.357650">
        <ele>319.756</ele>
        <time>2019-06-16T09:36:14Z</time>
      </trkpt>
      <trkpt lat="38.829620" lon="-0.357683">
        <ele>319.851</ele>
        <time>2019-06-16T09:36:15Z</time>
      </trkpt>
      <trkpt lat="38.829613" lon="-0.357741">
        <ele>320.469</ele>
        <time>2019-06-16T09:36:16Z</time>
      </trkpt>
      <trkpt lat="38.829542" lon="-0.357809">
        <ele>320.704</ele>
        <time>2019-06-16T09:36:18Z</time>
      </trkpt>
      <trkpt lat="38.829500" lon="-0.357839">
        <ele>320.824</ele>
        <time>2019-06-16T09:36:21Z</time>
      </trkpt>
      <trkpt lat="38.829452" lon="-0.357875">
        <ele>320.908</ele>
        <time>2019-06-16T09:36:23Z</time>
      </trkpt>
      <trkpt lat="38.829348" lon="-0.357945">
        <ele>322.639</ele>
        <time>2019-06-16T09:36:24Z</time>
      </trkpt>
      <trkpt lat="38.829295" lon="-0.357970">
        <ele>323.353</ele>
        <time>2019-06-16T09:36:25Z</time>
      </trkpt>
      <trkpt lat="38.829251" lon="-0.358000">
        <ele>324.012</ele>
        <time>2019-06-16T09:36:26Z</time>
      </trkpt>
      <trkpt lat="38.829177" lon="-0.358037">
        <ele>324.895</ele>
        <time>2019-06-16T09:36:27Z</time>
      </trkpt>
      <trkpt lat="38.829138" lon="-0.358069">
        <ele>325.137</ele>
        <time>2019-06-16T09:36:28Z</time>
      </trkpt>
      <trkpt lat="38.829097" lon="-0.358097">
        <ele>325.284</ele>
        <time>2019-06-16T09:36:29Z</time>
      </trkpt>
      <trkpt lat="38.829021" lon="-0.358150">
        <ele>325.163</ele>
        <time>2019-06-16T09:36:31Z</time>
      </trkpt>
      <trkpt lat="38.828945" lon="-0.358214">
        <ele>324.738</ele>
        <time>2019-06-16T09:36:33Z</time>
      </trkpt>
      <trkpt lat="38.828859" lon="-0.358264">
        <ele>323.928</ele>
        <time>2019-06-16T09:36:35Z</time>
      </trkpt>
      <trkpt lat="38.828792" lon="-0.358305">
        <ele>323.689</ele>
        <time>2019-06-16T09:36:37Z</time>
      </trkpt>
      <trkpt lat="38.828711" lon="-0.358359">
        <ele>323.717</ele>
        <time>2019-06-16T09:36:39Z</time>
      </trkpt>
      <trkpt lat="38.828666" lon="-0.358395">
        <ele>323.908</ele>
        <time>2019-06-16T09:36:41Z</time>
      </trkpt>
      <trkpt lat="38.828623" lon="-0.358420">
        <ele>324.015</ele>
        <time>2019-06-16T09:36:43Z</time>
      </trkpt>
      <trkpt lat="38.828506" lon="-0.358498">
        <ele>323.439</ele>
        <time>2019-06-16T09:36:45Z</time>
      </trkpt>
      <trkpt lat="38.828430" lon="-0.358560">
        <ele>323.088</ele>
        <time>2019-06-16T09:36:47Z</time>
      </trkpt>
      <trkpt lat="38.828370" lon="-0.358627">
        <ele>322.831</ele>
        <time>2019-06-16T09:36:49Z</time>
      </trkpt>
      <trkpt lat="38.828307" lon="-0.358695">
        <ele>322.913</ele>
        <time>2019-06-16T09:36:51Z</time>
      </trkpt>
      <trkpt lat="38.828256" lon="-0.358738">
        <ele>322.430</ele>
        <time>2019-06-16T09:36:52Z</time>
      </trkpt>
      <trkpt lat="38.828195" lon="-0.358810">
        <ele>321.999</ele>
        <time>2019-06-16T09:36:54Z</time>
      </trkpt>
      <trkpt lat="38.828141" lon="-0.358894">
        <ele>321.644</ele>
        <time>2019-06-16T09:36:56Z</time>
      </trkpt>
      <trkpt lat="38.828080" lon="-0.358970">
        <ele>321.529</ele>
        <time>2019-06-16T09:36:58Z</time>
      </trkpt>
      <trkpt lat="38.828047" lon="-0.359024">
        <ele>321.900</ele>
        <time>2019-06-16T09:37:01Z</time>
      </trkpt>
      <trkpt lat="38.828015" lon="-0.359080">
        <ele>322.920</ele>
        <time>2019-06-16T09:37:03Z</time>
      </trkpt>
      <trkpt lat="38.827951" lon="-0.359226">
        <ele>325.208</ele>
        <time>2019-06-16T09:37:05Z</time>
      </trkpt>
      <trkpt lat="38.827913" lon="-0.359330">
        <ele>326.335</ele>
        <time>2019-06-16T09:37:07Z</time>
      </trkpt>
      <trkpt lat="38.827880" lon="-0.359433">
        <ele>327.389</ele>
        <time>2019-06-16T09:37:09Z</time>
      </trkpt>
      <trkpt lat="38.827861" lon="-0.359490">
        <ele>328.258</ele>
        <time>2019-06-16T09:37:10Z</time>
      </trkpt>
      <trkpt lat="38.827827" lon="-0.359570">
        <ele>329.291</ele>
        <time>2019-06-16T09:37:11Z</time>
      </trkpt>
      <trkpt lat="38.827806" lon="-0.359663">
        <ele>330.683</ele>
        <time>2019-06-16T09:37:13Z</time>
      </trkpt>
      <trkpt lat="38.827794" lon="-0.359765">
        <ele>332.380</ele>
        <time>2019-06-16T09:37:15Z</time>
      </trkpt>
      <trkpt lat="38.827779" lon="-0.359867">
        <ele>334.249</ele>
        <time>2019-06-16T09:37:17Z</time>
      </trkpt>
      <trkpt lat="38.827769" lon="-0.359923">
        <ele>335.164</ele>
        <time>2019-06-16T09:37:18Z</time>
      </trkpt>
      <trkpt lat="38.827758" lon="-0.359990">
        <ele>336.225</ele>
        <time>2019-06-16T09:37:20Z</time>
      </trkpt>
      <trkpt lat="38.827742" lon="-0.360118">
        <ele>336.726</ele>
        <time>2019-06-16T09:37:23Z</time>
      </trkpt>
      <trkpt lat="38.827741" lon="-0.360181">
        <ele>337.108</ele>
        <time>2019-06-16T09:37:24Z</time>
      </trkpt>
      <trkpt lat="38.827734" lon="-0.360298">
        <ele>337.308</ele>
        <time>2019-06-16T09:37:26Z</time>
      </trkpt>
      <trkpt lat="38.827727" lon="-0.360404">
        <ele>336.615</ele>
        <time>2019-06-16T09:37:28Z</time>
      </trkpt>
      <trkpt lat="38.827719" lon="-0.360512">
        <ele>335.929</ele>
        <time>2019-06-16T09:37:30Z</time>
      </trkpt>
      <trkpt lat="38.827717" lon="-0.360657">
        <ele>335.058</ele>
        <time>2019-06-16T09:37:32Z</time>
      </trkpt>
      <trkpt lat="38.827706" lon="-0.360765">
        <ele>334.061</ele>
        <time>2019-06-16T09:37:34Z</time>
      </trkpt>
      <trkpt lat="38.827710" lon="-0.360827">
        <ele>333.873</ele>
        <time>2019-06-16T09:37:35Z</time>
      </trkpt>
      <trkpt lat="38.827693" lon="-0.360931">
        <ele>333.460</ele>
        <time>2019-06-16T09:37:37Z</time>
      </trkpt>
      <trkpt lat="38.827673" lon="-0.361024">
        <ele>332.979</ele>
        <time>2019-06-16T09:37:39Z</time>
      </trkpt>
      <trkpt lat="38.827647" lon="-0.361097">
        <ele>332.274</ele>
        <time>2019-06-16T09:37:43Z</time>
      </trkpt>
      <trkpt lat="38.827596" lon="-0.361208">
        <ele>331.617</ele>
        <time>2019-06-16T09:37:45Z</time>
      </trkpt>
      <trkpt lat="38.827574" lon="-0.361264">
        <ele>331.487</ele>
        <time>2019-06-16T09:37:46Z</time>
      </trkpt>
      <trkpt lat="38.827541" lon="-0.361345">
        <ele>331.015</ele>
        <time>2019-06-16T09:37:47Z</time>
      </trkpt>
      <trkpt lat="38.827507" lon="-0.361421">
        <ele>330.308</ele>
        <time>2019-06-16T09:37:48Z</time>
      </trkpt>
      <trkpt lat="38.827456" lon="-0.361505">
        <ele>330.094</ele>
        <time>2019-06-16T09:37:50Z</time>
      </trkpt>
      <trkpt lat="38.827400" lon="-0.361582">
        <ele>329.938</ele>
        <time>2019-06-16T09:37:52Z</time>
      </trkpt>
      <trkpt lat="38.827350" lon="-0.361661">
        <ele>329.927</ele>
        <time>2019-06-16T09:37:54Z</time>
      </trkpt>
      <trkpt lat="38.827318" lon="-0.361716">
        <ele>330.170</ele>
        <time>2019-06-16T09:37:56Z</time>
      </trkpt>
      <trkpt lat="38.827272" lon="-0.361767">
        <ele>330.192</ele>
        <time>2019-06-16T09:37:59Z</time>
      </trkpt>
      <trkpt lat="38.827202" lon="-0.361838">
        <ele>330.459</ele>
        <time>2019-06-16T09:38:00Z</time>
      </trkpt>
      <trkpt lat="38.827142" lon="-0.361913">
        <ele>331.318</ele>
        <time>2019-06-16T09:38:02Z</time>
      </trkpt>
      <trkpt lat="38.827067" lon="-0.361980">
        <ele>332.983</ele>
        <time>2019-06-16T09:38:04Z</time>
      </trkpt>
      <trkpt lat="38.826996" lon="-0.362026">
        <ele>334.225</ele>
        <time>2019-06-16T09:38:06Z</time>
      </trkpt>
      <trkpt lat="38.826910" lon="-0.362074">
        <ele>335.326</ele>
        <time>2019-06-16T09:38:08Z</time>
      </trkpt>
      <trkpt lat="38.826845" lon="-0.362116">
        <ele>336.008</ele>
        <time>2019-06-16T09:38:10Z</time>
      </trkpt>
      <trkpt lat="38.826772" lon="-0.362160">
        <ele>336.708</ele>
        <time>2019-06-16T09:38:12Z</time>
      </trkpt>
      <trkpt lat="38.826690" lon="-0.362199">
        <ele>337.545</ele>
        <time>2019-06-16T09:38:14Z</time>
      </trkpt>
      <trkpt lat="38.826608" lon="-0.362223">
        <ele>338.089</ele>
        <time>2019-06-16T09:38:16Z</time>
      </trkpt>
      <trkpt lat="38.826531" lon="-0.362250">
        <ele>338.738</ele>
        <time>2019-06-16T09:38:18Z</time>
      </trkpt>
      <trkpt lat="38.826449" lon="-0.362278">
        <ele>339.371</ele>
        <time>2019-06-16T09:38:20Z</time>
      </trkpt>
      <trkpt lat="38.826368" lon="-0.362312">
        <ele>340.083</ele>
        <time>2019-06-16T09:38:22Z</time>
      </trkpt>
      <trkpt lat="38.826288" lon="-0.362350">
        <ele>341.160</ele>
        <time>2019-06-16T09:38:24Z</time>
      </trkpt>
      <trkpt lat="38.826217" lon="-0.362392">
        <ele>342.469</ele>
        <time>2019-06-16T09:38:26Z</time>
      </trkpt>
      <trkpt lat="38.826140" lon="-0.362433">
        <ele>343.964</ele>
        <time>2019-06-16T09:38:28Z</time>
      </trkpt>
      <trkpt lat="38.826057" lon="-0.362467">
        <ele>343.912</ele>
        <time>2019-06-16T09:38:30Z</time>
      </trkpt>
      <trkpt lat="38.825985" lon="-0.362496">
        <ele>343.232</ele>
        <time>2019-06-16T09:38:32Z</time>
      </trkpt>
      <trkpt lat="38.825943" lon="-0.362516">
        <ele>342.905</ele>
        <time>2019-06-16T09:38:33Z</time>
      </trkpt>
      <trkpt lat="38.825864" lon="-0.362556">
        <ele>342.508</ele>
        <time>2019-06-16T09:38:35Z</time>
      </trkpt>
      <trkpt lat="38.825822" lon="-0.362590">
        <ele>342.674</ele>
        <time>2019-06-16T09:38:36Z</time>
      </trkpt>
      <trkpt lat="38.825779" lon="-0.362620">
        <ele>342.568</ele>
        <time>2019-06-16T09:38:37Z</time>
      </trkpt>
      <trkpt lat="38.825737" lon="-0.362647">
        <ele>342.357</ele>
        <time>2019-06-16T09:38:38Z</time>
      </trkpt>
      <trkpt lat="38.825643" lon="-0.362695">
        <ele>341.510</ele>
        <time>2019-06-16T09:38:40Z</time>
      </trkpt>
      <trkpt lat="38.825597" lon="-0.362709">
        <ele>340.892</ele>
        <time>2019-06-16T09:38:41Z</time>
      </trkpt>
      <trkpt lat="38.825531" lon="-0.362767">
        <ele>341.459</ele>
        <time>2019-06-16T09:38:43Z</time>
      </trkpt>
      <trkpt lat="38.825458" lon="-0.362816">
        <ele>342.028</ele>
        <time>2019-06-16T09:38:45Z</time>
      </trkpt>
      <trkpt lat="38.825399" lon="-0.362875">
        <ele>343.173</ele>
        <time>2019-06-16T09:38:47Z</time>
      </trkpt>
      <trkpt lat="38.825332" lon="-0.362936">
        <ele>344.186</ele>
        <time>2019-06-16T09:38:49Z</time>
      </trkpt>
      <trkpt lat="38.825276" lon="-0.363002">
        <ele>345.460</ele>
        <time>2019-06-16T09:38:51Z</time>
      </trkpt>
      <trkpt lat="38.825208" lon="-0.363057">
        <ele>345.526</ele>
        <time>2019-06-16T09:38:53Z</time>
      </trkpt>
      <trkpt lat="38.825153" lon="-0.363129">
        <ele>345.308</ele>
        <time>2019-06-16T09:38:55Z</time>
      </trkpt>
      <trkpt lat="38.825120" lon="-0.363215">
        <ele>345.551</ele>
        <time>2019-06-16T09:38:57Z</time>
      </trkpt>
      <trkpt lat="38.825072" lon="-0.363297">
        <ele>345.015</ele>
        <time>2019-06-16T09:38:59Z</time>
      </trkpt>
      <trkpt lat="38.825023" lon="-0.363376">
        <ele>344.434</ele>
        <time>2019-06-16T09:39:01Z</time>
      </trkpt>
      <trkpt lat="38.824963" lon="-0.363456">
        <ele>343.857</ele>
        <time>2019-06-16T09:39:03Z</time>
      </trkpt>
      <trkpt lat="38.824896" lon="-0.363530">
        <ele>343.199</ele>
        <time>2019-06-16T09:39:05Z</time>
      </trkpt>
      <trkpt lat="38.824869" lon="-0.363585">
        <ele>343.396</ele>
        <time>2019-06-16T09:39:06Z</time>
      </trkpt>
      <trkpt lat="38.824843" lon="-0.363640">
        <ele>343.755</ele>
        <time>2019-06-16T09:39:07Z</time>
      </trkpt>
      <trkpt lat="38.824803" lon="-0.363741">
        <ele>344.840</ele>
        <time>2019-06-16T09:39:09Z</time>
      </trkpt>
      <trkpt lat="38.824776" lon="-0.363796">
        <ele>345.112</ele>
        <time>2019-06-16T09:39:10Z</time>
      </trkpt>
      <trkpt lat="38.824765" lon="-0.363853">
        <ele>345.832</ele>
        <time>2019-06-16T09:39:11Z</time>
      </trkpt>
      <trkpt lat="38.824752" lon="-0.363912">
        <ele>346.505</ele>
        <time>2019-06-16T09:39:12Z</time>
      </trkpt>
      <trkpt lat="38.824743" lon="-0.363972">
        <ele>347.208</ele>
        <time>2019-06-16T09:39:13Z</time>
      </trkpt>
      <trkpt lat="38.824722" lon="-0.364077">
        <ele>348.414</ele>
        <time>2019-06-16T09:39:15Z</time>
      </trkpt>
      <trkpt lat="38.824699" lon="-0.364173">
        <ele>349.518</ele>
        <time>2019-06-16T09:39:17Z</time>
      </trkpt>
      <trkpt lat="38.824680" lon="-0.364286">
        <ele>350.597</ele>
        <time>2019-06-16T09:39:19Z</time>
      </trkpt>
      <trkpt lat="38.824667" lon="-0.364388">
        <ele>351.550</ele>
        <time>2019-06-16T09:39:21Z</time>
      </trkpt>
      <trkpt lat="38.824655" lon="-0.364449">
        <ele>351.842</ele>
        <time>2019-06-16T09:39:22Z</time>
      </trkpt>
      <trkpt lat="38.824657" lon="-0.364521">
        <ele>352.059</ele>
        <time>2019-06-16T09:39:23Z</time>
      </trkpt>
      <trkpt lat="38.824631" lon="-0.364629">
        <ele>351.318</ele>
        <time>2019-06-16T09:39:25Z</time>
      </trkpt>
      <trkpt lat="38.824620" lon="-0.364734">
        <ele>350.923</ele>
        <time>2019-06-16T09:39:27Z</time>
      </trkpt>
      <trkpt lat="38.824606" lon="-0.364828">
        <ele>349.791</ele>
        <time>2019-06-16T09:39:29Z</time>
      </trkpt>
      <trkpt lat="38.824587" lon="-0.364947">
        <ele>348.081</ele>
        <time>2019-06-16T09:39:31Z</time>
      </trkpt>
      <trkpt lat="38.824590" lon="-0.365009">
        <ele>347.819</ele>
        <time>2019-06-16T09:39:32Z</time>
      </trkpt>
      <trkpt lat="38.824563" lon="-0.365111">
        <ele>346.208</ele>
        <time>2019-06-16T09:39:34Z</time>
      </trkpt>
      <trkpt lat="38.824520" lon="-0.365211">
        <ele>345.042</ele>
        <time>2019-06-16T09:39:36Z</time>
      </trkpt>
      <trkpt lat="38.824491" lon="-0.365315">
        <ele>345.026</ele>
        <time>2019-06-16T09:39:38Z</time>
      </trkpt>
      <trkpt lat="38.824455" lon="-0.365409">
        <ele>345.915</ele>
        <time>2019-06-16T09:39:40Z</time>
      </trkpt>
      <trkpt lat="38.824411" lon="-0.365495">
        <ele>346.788</ele>
        <time>2019-06-16T09:39:42Z</time>
      </trkpt>
      <trkpt lat="38.824357" lon="-0.365635">
        <ele>348.530</ele>
        <time>2019-06-16T09:39:45Z</time>
      </trkpt>
      <trkpt lat="38.824357" lon="-0.365635">
        <ele>348.587</ele>
        <time>2019-06-16T09:39:45Z</time>
      </trkpt>
      <trkpt lat="38.824314" lon="-0.365759">
        <ele>350.396</ele>
        <time>2019-06-16T09:39:48Z</time>
      </trkpt>
      <trkpt lat="38.824314" lon="-0.365759">
        <ele>350.351</ele>
        <time>2019-06-16T09:39:48Z</time>
      </trkpt>
      <trkpt lat="38.824314" lon="-0.365759">
        <ele>350.329</ele>
        <time>2019-06-16T09:39:48Z</time>
      </trkpt>
      <trkpt lat="38.824188" lon="-0.365934">
        <ele>352.100</ele>
        <time>2019-06-16T09:39:53Z</time>
      </trkpt>
      <trkpt lat="38.824188" lon="-0.365934">
        <ele>352.120</ele>
        <time>2019-06-16T09:39:53Z</time>
      </trkpt>
      <trkpt lat="38.824188" lon="-0.365934">
        <ele>352.108</ele>
        <time>2019-06-16T09:39:53Z</time>
      </trkpt>
      <trkpt lat="38.824188" lon="-0.365934">
        <ele>352.195</ele>
        <time>2019-06-16T09:39:53Z</time>
      </trkpt>
      <trkpt lat="38.824188" lon="-0.365934">
        <ele>352.169</ele>
        <time>2019-06-16T09:39:53Z</time>
      </trkpt>
      <trkpt lat="38.823914" lon="-0.366273">
        <ele>351.848</ele>
        <time>2019-06-16T09:40:02Z</time>
      </trkpt>
      <trkpt lat="38.823914" lon="-0.366273">
        <ele>351.821</ele>
        <time>2019-06-16T09:40:02Z</time>
      </trkpt>
      <trkpt lat="38.823914" lon="-0.366273">
        <ele>351.823</ele>
        <time>2019-06-16T09:40:02Z</time>
      </trkpt>
      <trkpt lat="38.823914" lon="-0.366273">
        <ele>351.870</ele>
        <time>2019-06-16T09:40:02Z</time>
      </trkpt>
      <trkpt lat="38.823914" lon="-0.366273">
        <ele>351.899</ele>
        <time>2019-06-16T09:40:02Z</time>
      </trkpt>
      <trkpt lat="38.823914" lon="-0.366273">
        <ele>351.814</ele>
        <time>2019-06-16T09:40:02Z</time>
      </trkpt>
      <trkpt lat="38.823914" lon="-0.366273">
        <ele>351.867</ele>
        <time>2019-06-16T09:40:02Z</time>
      </trkpt>
      <trkpt lat="38.823914" lon="-0.366273">
        <ele>351.881</ele>
        <time>2019-06-16T09:40:02Z</time>
      </trkpt>
      <trkpt lat="38.823914" lon="-0.366273">
        <ele>351.819</ele>
        <time>2019-06-16T09:40:02Z</time>
      </trkpt>
      <trkpt lat="38.823883" lon="-0.366318">
        <ele>351.908</ele>
        <time>2019-06-16T09:40:03Z</time>
      </trkpt>
      <trkpt lat="38.823860" lon="-0.366385">
        <ele>352.439</ele>
        <time>2019-06-16T09:40:04Z</time>
      </trkpt>
      <trkpt lat="38.823825" lon="-0.366424">
        <ele>352.363</ele>
        <time>2019-06-16T09:40:05Z</time>
      </trkpt>
      <trkpt lat="38.823787" lon="-0.366460">
        <ele>352.142</ele>
        <time>2019-06-16T09:40:06Z</time>
      </trkpt>
      <trkpt lat="38.823764" lon="-0.366515">
        <ele>352.415</ele>
        <time>2019-06-16T09:40:07Z</time>
      </trkpt>
      <trkpt lat="38.823703" lon="-0.366581">
        <ele>352.047</ele>
        <time>2019-06-16T09:40:09Z</time>
      </trkpt>
      <trkpt lat="38.823669" lon="-0.366620">
        <ele>351.784</ele>
        <time>2019-06-16T09:40:10Z</time>
      </trkpt>
      <trkpt lat="38.823608" lon="-0.366702">
        <ele>351.533</ele>
        <time>2019-06-16T09:40:12Z</time>
      </trkpt>
      <trkpt lat="38.823570" lon="-0.366750">
        <ele>352.038</ele>
        <time>2019-06-16T09:40:13Z</time>
      </trkpt>
      <trkpt lat="38.823538" lon="-0.366800">
        <ele>352.488</ele>
        <time>2019-06-16T09:40:14Z</time>
      </trkpt>
      <trkpt lat="38.823511" lon="-0.366857">
        <ele>352.924</ele>
        <time>2019-06-16T09:40:15Z</time>
      </trkpt>
      <trkpt lat="38.823475" lon="-0.366907">
        <ele>353.126</ele>
        <time>2019-06-16T09:40:16Z</time>
      </trkpt>
      <trkpt lat="38.823444" lon="-0.367007">
        <ele>353.708</ele>
        <time>2019-06-16T09:40:18Z</time>
      </trkpt>
      <trkpt lat="38.823423" lon="-0.367061">
        <ele>353.831</ele>
        <time>2019-06-16T09:40:19Z</time>
      </trkpt>
      <trkpt lat="38.823393" lon="-0.367142">
        <ele>353.855</ele>
        <time>2019-06-16T09:40:21Z</time>
      </trkpt>
      <trkpt lat="38.823367" lon="-0.367190">
        <ele>353.654</ele>
        <time>2019-06-16T09:40:22Z</time>
      </trkpt>
      <trkpt lat="38.823320" lon="-0.367289">
        <ele>353.177</ele>
        <time>2019-06-16T09:40:24Z</time>
      </trkpt>
      <trkpt lat="38.823296" lon="-0.367392">
        <ele>353.179</ele>
        <time>2019-06-16T09:40:26Z</time>
      </trkpt>
      <trkpt lat="38.823271" lon="-0.367488">
        <ele>353.176</ele>
        <time>2019-06-16T09:40:28Z</time>
      </trkpt>
      <trkpt lat="38.823249" lon="-0.367584">
        <ele>353.195</ele>
        <time>2019-06-16T09:40:30Z</time>
      </trkpt>
      <trkpt lat="38.823219" lon="-0.367684">
        <ele>352.950</ele>
        <time>2019-06-16T09:40:32Z</time>
      </trkpt>
      <trkpt lat="38.823212" lon="-0.367749">
        <ele>352.929</ele>
        <time>2019-06-16T09:40:33Z</time>
      </trkpt>
      <trkpt lat="38.823198" lon="-0.367850">
        <ele>353.000</ele>
        <time>2019-06-16T09:40:35Z</time>
      </trkpt>
      <trkpt lat="38.823192" lon="-0.367960">
        <ele>353.420</ele>
        <time>2019-06-16T09:40:37Z</time>
      </trkpt>
      <trkpt lat="38.823190" lon="-0.368029">
        <ele>353.808</ele>
        <time>2019-06-16T09:40:38Z</time>
      </trkpt>
      <trkpt lat="38.823194" lon="-0.368134">
        <ele>354.775</ele>
        <time>2019-06-16T09:40:40Z</time>
      </trkpt>
      <trkpt lat="38.823186" lon="-0.368243">
        <ele>355.579</ele>
        <time>2019-06-16T09:40:42Z</time>
      </trkpt>
      <trkpt lat="38.823186" lon="-0.368303">
        <ele>356.168</ele>
        <time>2019-06-16T09:40:43Z</time>
      </trkpt>
      <trkpt lat="38.823193" lon="-0.368414">
        <ele>356.831</ele>
        <time>2019-06-16T09:40:45Z</time>
      </trkpt>
      <trkpt lat="38.823201" lon="-0.368524">
        <ele>357.343</ele>
        <time>2019-06-16T09:40:47Z</time>
      </trkpt>
      <trkpt lat="38.823200" lon="-0.368634">
        <ele>357.710</ele>
        <time>2019-06-16T09:40:49Z</time>
      </trkpt>
      <trkpt lat="38.823198" lon="-0.368742">
        <ele>358.189</ele>
        <time>2019-06-16T09:40:51Z</time>
      </trkpt>
      <trkpt lat="38.823199" lon="-0.368853">
        <ele>358.594</ele>
        <time>2019-06-16T09:40:53Z</time>
      </trkpt>
      <trkpt lat="38.823190" lon="-0.368961">
        <ele>358.634</ele>
        <time>2019-06-16T09:40:55Z</time>
      </trkpt>
      <trkpt lat="38.823172" lon="-0.369065">
        <ele>358.355</ele>
        <time>2019-06-16T09:40:57Z</time>
      </trkpt>
      <trkpt lat="38.823150" lon="-0.369170">
        <ele>357.810</ele>
        <time>2019-06-16T09:40:59Z</time>
      </trkpt>
      <trkpt lat="38.823128" lon="-0.369276">
        <ele>358.708</ele>
        <time>2019-06-16T09:41:01Z</time>
      </trkpt>
      <trkpt lat="38.823101" lon="-0.369373">
        <ele>359.466</ele>
        <time>2019-06-16T09:41:03Z</time>
      </trkpt>
      <trkpt lat="38.823062" lon="-0.369468">
        <ele>359.510</ele>
        <time>2019-06-16T09:41:05Z</time>
      </trkpt>
      <trkpt lat="38.823016" lon="-0.369562">
        <ele>358.939</ele>
        <time>2019-06-16T09:41:07Z</time>
      </trkpt>
      <trkpt lat="38.822969" lon="-0.369652">
        <ele>358.522</ele>
        <time>2019-06-16T09:41:09Z</time>
      </trkpt>
      <trkpt lat="38.822919" lon="-0.369746">
        <ele>358.224</ele>
        <time>2019-06-16T09:41:11Z</time>
      </trkpt>
      <trkpt lat="38.822868" lon="-0.369837">
        <ele>357.421</ele>
        <time>2019-06-16T09:41:13Z</time>
      </trkpt>
      <trkpt lat="38.822822" lon="-0.369916">
        <ele>356.710</ele>
        <time>2019-06-16T09:41:15Z</time>
      </trkpt>
      <trkpt lat="38.822783" lon="-0.369992">
        <ele>356.195</ele>
        <time>2019-06-16T09:41:18Z</time>
      </trkpt>
      <trkpt lat="38.822752" lon="-0.370053">
        <ele>355.817</ele>
        <time>2019-06-16T09:41:20Z</time>
      </trkpt>
      <trkpt lat="38.822717" lon="-0.370116">
        <ele>355.687</ele>
        <time>2019-06-16T09:41:22Z</time>
      </trkpt>
      <trkpt lat="38.822685" lon="-0.370175">
        <ele>355.615</ele>
        <time>2019-06-16T09:41:24Z</time>
      </trkpt>
      <trkpt lat="38.822651" lon="-0.370237">
        <ele>355.808</ele>
        <time>2019-06-16T09:41:26Z</time>
      </trkpt>
      <trkpt lat="38.822615" lon="-0.370290">
        <ele>356.194</ele>
        <time>2019-06-16T09:41:28Z</time>
      </trkpt>
      <trkpt lat="38.822573" lon="-0.370320">
        <ele>356.288</ele>
        <time>2019-06-16T09:41:36Z</time>
      </trkpt>
      <trkpt lat="38.822506" lon="-0.370328">
        <ele>356.487</ele>
        <time>2019-06-16T09:41:57Z</time>
      </trkpt>
      <trkpt lat="38.822386" lon="-0.370366">
        <ele>358.340</ele>
        <time>2019-06-16T09:41:58Z</time>
      </trkpt>
      <trkpt lat="38.822290" lon="-0.370433">
        <ele>360.162</ele>
        <time>2019-06-16T09:42:00Z</time>
      </trkpt>
      <trkpt lat="38.822290" lon="-0.370433">
        <ele>360.189</ele>
        <time>2019-06-16T09:42:00Z</time>
      </trkpt>
      <trkpt lat="38.822168" lon="-0.370478">
        <ele>362.388</ele>
        <time>2019-06-16T09:42:03Z</time>
      </trkpt>
      <trkpt lat="38.822168" lon="-0.370478">
        <ele>362.333</ele>
        <time>2019-06-16T09:42:03Z</time>
      </trkpt>
      <trkpt lat="38.822168" lon="-0.370478">
        <ele>362.354</ele>
        <time>2019-06-16T09:42:03Z</time>
      </trkpt>
      <trkpt lat="38.822120" lon="-0.370494">
        <ele>363.156</ele>
        <time>2019-06-16T09:42:04Z</time>
      </trkpt>
      <trkpt lat="38.822066" lon="-0.370502">
        <ele>364.011</ele>
        <time>2019-06-16T09:42:05Z</time>
      </trkpt>
      <trkpt lat="38.822005" lon="-0.370520">
        <ele>365.008</ele>
        <time>2019-06-16T09:42:06Z</time>
      </trkpt>
      <trkpt lat="38.821922" lon="-0.370539">
        <ele>366.048</ele>
        <time>2019-06-16T09:42:08Z</time>
      </trkpt>
      <trkpt lat="38.821870" lon="-0.370541">
        <ele>366.262</ele>
        <time>2019-06-16T09:42:09Z</time>
      </trkpt>
      <trkpt lat="38.821782" lon="-0.370576">
        <ele>366.741</ele>
        <time>2019-06-16T09:42:11Z</time>
      </trkpt>
      <trkpt lat="38.821741" lon="-0.370612">
        <ele>367.094</ele>
        <time>2019-06-16T09:42:12Z</time>
      </trkpt>
      <trkpt lat="38.821655" lon="-0.370628">
        <ele>367.156</ele>
        <time>2019-06-16T09:42:14Z</time>
      </trkpt>
      <trkpt lat="38.821580" lon="-0.370655">
        <ele>366.553</ele>
        <time>2019-06-16T09:42:16Z</time>
      </trkpt>
      <trkpt lat="38.821505" lon="-0.370708">
        <ele>366.142</ele>
        <time>2019-06-16T09:42:18Z</time>
      </trkpt>
      <trkpt lat="38.821464" lon="-0.370736">
        <ele>365.997</ele>
        <time>2019-06-16T09:42:19Z</time>
      </trkpt>
      <trkpt lat="38.821415" lon="-0.370756">
        <ele>365.734</ele>
        <time>2019-06-16T09:42:20Z</time>
      </trkpt>
      <trkpt lat="38.821376" lon="-0.370790">
        <ele>365.655</ele>
        <time>2019-06-16T09:42:21Z</time>
      </trkpt>
      <trkpt lat="38.821314" lon="-0.370876">
        <ele>365.810</ele>
        <time>2019-06-16T09:42:23Z</time>
      </trkpt>
      <trkpt lat="38.821232" lon="-0.370934">
        <ele>365.408</ele>
        <time>2019-06-16T09:42:25Z</time>
      </trkpt>
      <trkpt lat="38.821195" lon="-0.370974">
        <ele>365.186</ele>
        <time>2019-06-16T09:42:26Z</time>
      </trkpt>
      <trkpt lat="38.821154" lon="-0.371010">
        <ele>364.740</ele>
        <time>2019-06-16T09:42:27Z</time>
      </trkpt>
      <trkpt lat="38.821112" lon="-0.371043">
        <ele>364.379</ele>
        <time>2019-06-16T09:42:28Z</time>
      </trkpt>
      <trkpt lat="38.821079" lon="-0.371089">
        <ele>364.112</ele>
        <time>2019-06-16T09:42:29Z</time>
      </trkpt>
      <trkpt lat="38.821041" lon="-0.371128">
        <ele>364.174</ele>
        <time>2019-06-16T09:42:30Z</time>
      </trkpt>
      <trkpt lat="38.821010" lon="-0.371179">
        <ele>364.581</ele>
        <time>2019-06-16T09:42:31Z</time>
      </trkpt>
      <trkpt lat="38.820948" lon="-0.371260">
        <ele>364.730</ele>
        <time>2019-06-16T09:42:33Z</time>
      </trkpt>
      <trkpt lat="38.820920" lon="-0.371306">
        <ele>364.755</ele>
        <time>2019-06-16T09:42:34Z</time>
      </trkpt>
      <trkpt lat="38.820889" lon="-0.371351">
        <ele>364.584</ele>
        <time>2019-06-16T09:42:35Z</time>
      </trkpt>
      <trkpt lat="38.820854" lon="-0.371395">
        <ele>364.207</ele>
        <time>2019-06-16T09:42:36Z</time>
      </trkpt>
      <trkpt lat="38.820842" lon="-0.371452">
        <ele>364.117</ele>
        <time>2019-06-16T09:42:37Z</time>
      </trkpt>
      <trkpt lat="38.820769" lon="-0.371523">
        <ele>364.108</ele>
        <time>2019-06-16T09:42:39Z</time>
      </trkpt>
      <trkpt lat="38.820702" lon="-0.371584">
        <ele>364.331</ele>
        <time>2019-06-16T09:42:41Z</time>
      </trkpt>
      <trkpt lat="38.820685" lon="-0.371640">
        <ele>364.525</ele>
        <time>2019-06-16T09:42:42Z</time>
      </trkpt>
      <trkpt lat="38.820655" lon="-0.371687">
        <ele>364.784</ele>
        <time>2019-06-16T09:42:45Z</time>
      </trkpt>
      <trkpt lat="38.820598" lon="-0.371712">
        <ele>364.987</ele>
        <time>2019-06-16T09:42:56Z</time>
      </trkpt>
      <trkpt lat="38.820563" lon="-0.371770">
        <ele>365.099</ele>
        <time>2019-06-16T09:42:58Z</time>
      </trkpt>
      <trkpt lat="38.820521" lon="-0.371832">
        <ele>365.116</ele>
        <time>2019-06-16T09:43:00Z</time>
      </trkpt>
      <trkpt lat="38.820465" lon="-0.371906">
        <ele>365.535</ele>
        <time>2019-06-16T09:43:01Z</time>
      </trkpt>
      <trkpt lat="38.820411" lon="-0.371978">
        <ele>366.160</ele>
        <time>2019-06-16T09:43:03Z</time>
      </trkpt>
      <trkpt lat="38.820381" lon="-0.372032">
        <ele>366.561</ele>
        <time>2019-06-16T09:43:05Z</time>
      </trkpt>
      <trkpt lat="38.820353" lon="-0.372082">
        <ele>366.821</ele>
        <time>2019-06-16T09:43:07Z</time>
      </trkpt>
      <trkpt lat="38.820321" lon="-0.372144">
        <ele>367.313</ele>
        <time>2019-06-16T09:43:10Z</time>
      </trkpt>
      <trkpt lat="38.820282" lon="-0.372209">
        <ele>367.908</ele>
        <time>2019-06-16T09:43:16Z</time>
      </trkpt>
      <trkpt lat="38.820253" lon="-0.372256">
        <ele>368.269</ele>
        <time>2019-06-16T09:43:18Z</time>
      </trkpt>
      <trkpt lat="38.820215" lon="-0.372311">
        <ele>368.653</ele>
        <time>2019-06-16T09:43:20Z</time>
      </trkpt>
      <trkpt lat="38.820169" lon="-0.372373">
        <ele>369.192</ele>
        <time>2019-06-16T09:43:22Z</time>
      </trkpt>
      <trkpt lat="38.820111" lon="-0.372450">
        <ele>369.635</ele>
        <time>2019-06-16T09:43:23Z</time>
      </trkpt>
      <trkpt lat="38.820061" lon="-0.372527">
        <ele>370.227</ele>
        <time>2019-06-16T09:43:25Z</time>
      </trkpt>
      <trkpt lat="38.820024" lon="-0.372585">
        <ele>370.664</ele>
        <time>2019-06-16T09:43:27Z</time>
      </trkpt>
      <trkpt lat="38.819995" lon="-0.372631">
        <ele>371.083</ele>
        <time>2019-06-16T09:43:29Z</time>
      </trkpt>
      <trkpt lat="38.819956" lon="-0.372683">
        <ele>371.558</ele>
        <time>2019-06-16T09:43:39Z</time>
      </trkpt>
      <trkpt lat="38.819929" lon="-0.372740">
        <ele>372.086</ele>
        <time>2019-06-16T09:45:41Z</time>
      </trkpt>
      <trkpt lat="38.819883" lon="-0.372798">
        <ele>372.560</ele>
        <time>2019-06-16T09:45:44Z</time>
      </trkpt>
      <trkpt lat="38.819844" lon="-0.372850">
        <ele>373.026</ele>
        <time>2019-06-16T09:45:46Z</time>
      </trkpt>
      <trkpt lat="38.819800" lon="-0.372913">
        <ele>373.608</ele>
        <time>2019-06-16T09:45:48Z</time>
      </trkpt>
      <trkpt lat="38.819757" lon="-0.372977">
        <ele>374.261</ele>
        <time>2019-06-16T09:45:50Z</time>
      </trkpt>
      <trkpt lat="38.819713" lon="-0.373045">
        <ele>375.085</ele>
        <time>2019-06-16T09:45:52Z</time>
      </trkpt>
      <trkpt lat="38.819668" lon="-0.373110">
        <ele>375.494</ele>
        <time>2019-06-16T09:45:54Z</time>
      </trkpt>
      <trkpt lat="38.819587" lon="-0.373222">
        <ele>375.777</ele>
        <time>2019-06-16T09:45:56Z</time>
      </trkpt>
      <trkpt lat="38.819539" lon="-0.373293">
        <ele>375.829</ele>
        <time>2019-06-16T09:45:58Z</time>
      </trkpt>
      <trkpt lat="38.819491" lon="-0.373363">
        <ele>375.986</ele>
        <time>2019-06-16T09:46:00Z</time>
      </trkpt>
      <trkpt lat="38.819454" lon="-0.373418">
        <ele>376.075</ele>
        <time>2019-06-16T09:46:02Z</time>
      </trkpt>
      <trkpt lat="38.819424" lon="-0.373473">
        <ele>376.190</ele>
        <time>2019-06-16T09:46:03Z</time>
      </trkpt>
      <trkpt lat="38.819386" lon="-0.373552">
        <ele>376.423</ele>
        <time>2019-06-16T09:46:05Z</time>
      </trkpt>
      <trkpt lat="38.819345" lon="-0.373632">
        <ele>376.983</ele>
        <time>2019-06-16T09:46:07Z</time>
      </trkpt>
      <trkpt lat="38.819309" lon="-0.373687">
        <ele>377.811</ele>
        <time>2019-06-16T09:46:09Z</time>
      </trkpt>
      <trkpt lat="38.819278" lon="-0.373729">
        <ele>378.508</ele>
        <time>2019-06-16T09:46:11Z</time>
      </trkpt>
      <trkpt lat="38.819240" lon="-0.373778">
        <ele>379.375</ele>
        <time>2019-06-16T09:46:13Z</time>
      </trkpt>
      <trkpt lat="38.819204" lon="-0.373824">
        <ele>380.099</ele>
        <time>2019-06-16T09:46:15Z</time>
      </trkpt>
      <trkpt lat="38.819165" lon="-0.373885">
        <ele>381.018</ele>
        <time>2019-06-16T09:46:18Z</time>
      </trkpt>
      <trkpt lat="38.819130" lon="-0.373957">
        <ele>382.181</ele>
        <time>2019-06-16T09:46:22Z</time>
      </trkpt>
      <trkpt lat="38.819106" lon="-0.374008">
        <ele>382.853</ele>
        <time>2019-06-16T09:46:47Z</time>
      </trkpt>
      <trkpt lat="38.819066" lon="-0.374060">
        <ele>383.720</ele>
        <time>2019-06-16T09:46:54Z</time>
      </trkpt>
      <trkpt lat="38.819033" lon="-0.374106">
        <ele>384.449</ele>
        <time>2019-06-16T09:46:57Z</time>
      </trkpt>
      <trkpt lat="38.818999" lon="-0.374151">
        <ele>385.154</ele>
        <time>2019-06-16T09:47:00Z</time>
      </trkpt>
      <trkpt lat="38.818720" lon="-0.374739">
        <ele>392.174</ele>
        <time>2019-06-16T09:47:20Z</time>
      </trkpt>
      <trkpt lat="38.818329" lon="-0.375569">
        <ele>390.056</ele>
        <time>2019-06-16T09:47:21Z</time>
      </trkpt>
      <trkpt lat="38.818199" lon="-0.375875">
        <ele>390.321</ele>
        <time>2019-06-16T09:47:22Z</time>
      </trkpt>
      <trkpt lat="38.818152" lon="-0.376018">
        <ele>390.808</ele>
        <time>2019-06-16T09:47:23Z</time>
      </trkpt>
      <trkpt lat="38.818030" lon="-0.376320">
        <ele>390.040</ele>
        <time>2019-06-16T09:47:24Z</time>
      </trkpt>
      <trkpt lat="38.818024" lon="-0.376417">
        <ele>389.634</ele>
        <time>2019-06-16T09:47:26Z</time>
      </trkpt>
      <trkpt lat="38.818024" lon="-0.376518">
        <ele>388.833</ele>
        <time>2019-06-16T09:47:28Z</time>
      </trkpt>
      <trkpt lat="38.818050" lon="-0.376600">
        <ele>388.476</ele>
        <time>2019-06-16T09:47:30Z</time>
      </trkpt>
      <trkpt lat="38.818056" lon="-0.376692">
        <ele>387.838</ele>
        <time>2019-06-16T09:47:32Z</time>
      </trkpt>
      <trkpt lat="38.818063" lon="-0.376754">
        <ele>387.425</ele>
        <time>2019-06-16T09:47:34Z</time>
      </trkpt>
      <trkpt lat="38.818082" lon="-0.376806">
        <ele>387.214</ele>
        <time>2019-06-16T09:47:36Z</time>
      </trkpt>
      <trkpt lat="38.818096" lon="-0.376868">
        <ele>386.969</ele>
        <time>2019-06-16T09:47:38Z</time>
      </trkpt>
      <trkpt lat="38.818104" lon="-0.376926">
        <ele>386.622</ele>
        <time>2019-06-16T09:47:40Z</time>
      </trkpt>
      <trkpt lat="38.818148" lon="-0.377173">
        <ele>386.762</ele>
        <time>2019-06-16T09:47:42Z</time>
      </trkpt>
      <trkpt lat="38.818169" lon="-0.377273">
        <ele>386.908</ele>
        <time>2019-06-16T09:47:44Z</time>
      </trkpt>
      <trkpt lat="38.818185" lon="-0.377343">
        <ele>387.208</ele>
        <time>2019-06-16T09:47:46Z</time>
      </trkpt>
      <trkpt lat="38.818209" lon="-0.377399">
        <ele>387.485</ele>
        <time>2019-06-16T09:47:48Z</time>
      </trkpt>
      <trkpt lat="38.818233" lon="-0.377463">
        <ele>387.659</ele>
        <time>2019-06-16T09:47:50Z</time>
      </trkpt>
      <trkpt lat="38.818269" lon="-0.377534">
        <ele>387.868</ele>
        <time>2019-06-16T09:47:53Z</time>
      </trkpt>
      <trkpt lat="38.818314" lon="-0.377617">
        <ele>387.981</ele>
        <time>2019-06-16T09:47:55Z</time>
      </trkpt>
      <trkpt lat="38.818361" lon="-0.377731">
        <ele>388.153</ele>
        <time>2019-06-16T09:47:58Z</time>
      </trkpt>
      <trkpt lat="38.818400" lon="-0.377873">
        <ele>387.950</ele>
        <time>2019-06-16T09:48:00Z</time>
      </trkpt>
      <trkpt lat="38.818400" lon="-0.377873">
        <ele>387.989</ele>
        <time>2019-06-16T09:48:00Z</time>
      </trkpt>
      <trkpt lat="38.818413" lon="-0.377953">
        <ele>387.784</ele>
        <time>2019-06-16T09:48:04Z</time>
      </trkpt>
      <trkpt lat="38.818436" lon="-0.378017">
        <ele>387.584</ele>
        <time>2019-06-16T09:48:06Z</time>
      </trkpt>
      <trkpt lat="38.818473" lon="-0.378102">
        <ele>387.107</ele>
        <time>2019-06-16T09:48:08Z</time>
      </trkpt>
      <trkpt lat="38.818473" lon="-0.378102">
        <ele>387.117</ele>
        <time>2019-06-16T09:48:08Z</time>
      </trkpt>
      <trkpt lat="38.818549" lon="-0.378192">
        <ele>386.708</ele>
        <time>2019-06-16T09:48:11Z</time>
      </trkpt>
      <trkpt lat="38.818549" lon="-0.378192">
        <ele>386.741</ele>
        <time>2019-06-16T09:48:11Z</time>
      </trkpt>
      <trkpt lat="38.818549" lon="-0.378192">
        <ele>386.755</ele>
        <time>2019-06-16T09:48:11Z</time>
      </trkpt>
      <trkpt lat="38.818716" lon="-0.378520">
        <ele>385.314</ele>
        <time>2019-06-16T09:48:17Z</time>
      </trkpt>
      <trkpt lat="38.818716" lon="-0.378520">
        <ele>385.377</ele>
        <time>2019-06-16T09:48:17Z</time>
      </trkpt>
      <trkpt lat="38.818716" lon="-0.378520">
        <ele>385.349</ele>
        <time>2019-06-16T09:48:17Z</time>
      </trkpt>
      <trkpt lat="38.818716" lon="-0.378520">
        <ele>385.376</ele>
        <time>2019-06-16T09:48:17Z</time>
      </trkpt>
      <trkpt lat="38.818716" lon="-0.378520">
        <ele>385.325</ele>
        <time>2019-06-16T09:48:17Z</time>
      </trkpt>
      <trkpt lat="38.818716" lon="-0.378520">
        <ele>385.320</ele>
        <time>2019-06-16T09:48:17Z</time>
      </trkpt>
      <trkpt lat="38.819005" lon="-0.379063">
        <ele>382.649</ele>
        <time>2019-06-16T09:48:27Z</time>
      </trkpt>
      <trkpt lat="38.819005" lon="-0.379063">
        <ele>382.602</ele>
        <time>2019-06-16T09:48:27Z</time>
      </trkpt>
      <trkpt lat="38.819005" lon="-0.379063">
        <ele>382.622</ele>
        <time>2019-06-16T09:48:27Z</time>
      </trkpt>
      <trkpt lat="38.819005" lon="-0.379063">
        <ele>382.608</ele>
        <time>2019-06-16T09:48:27Z</time>
      </trkpt>
      <trkpt lat="38.819005" lon="-0.379063">
        <ele>382.637</ele>
        <time>2019-06-16T09:48:27Z</time>
      </trkpt>
      <trkpt lat="38.819005" lon="-0.379063">
        <ele>382.681</ele>
        <time>2019-06-16T09:48:27Z</time>
      </trkpt>
      <trkpt lat="38.819005" lon="-0.379063">
        <ele>382.640</ele>
        <time>2019-06-16T09:48:27Z</time>
      </trkpt>
      <trkpt lat="38.819005" lon="-0.379063">
        <ele>382.633</ele>
        <time>2019-06-16T09:48:27Z</time>
      </trkpt>
      <trkpt lat="38.819005" lon="-0.379063">
        <ele>382.615</ele>
        <time>2019-06-16T09:48:27Z</time>
      </trkpt>
      <trkpt lat="38.819005" lon="-0.379063">
        <ele>382.662</ele>
        <time>2019-06-16T09:48:27Z</time>
      </trkpt>
      <trkpt lat="38.819040" lon="-0.379122">
        <ele>382.831</ele>
        <time>2019-06-16T09:48:28Z</time>
      </trkpt>
      <trkpt lat="38.819071" lon="-0.379183">
        <ele>383.046</ele>
        <time>2019-06-16T09:48:29Z</time>
      </trkpt>
      <trkpt lat="38.819096" lon="-0.379255">
        <ele>383.592</ele>
        <time>2019-06-16T09:48:30Z</time>
      </trkpt>
      <trkpt lat="38.819124" lon="-0.379319">
        <ele>384.073</ele>
        <time>2019-06-16T09:48:31Z</time>
      </trkpt>
      <trkpt lat="38.819150" lon="-0.379382">
        <ele>384.520</ele>
        <time>2019-06-16T09:48:32Z</time>
      </trkpt>
      <trkpt lat="38.819167" lon="-0.379474">
        <ele>384.908</ele>
        <time>2019-06-16T09:48:33Z</time>
      </trkpt>
      <trkpt lat="38.819189" lon="-0.379548">
        <ele>384.962</ele>
        <time>2019-06-16T09:48:34Z</time>
      </trkpt>
      <trkpt lat="38.819222" lon="-0.379603">
        <ele>385.066</ele>
        <time>2019-06-16T09:48:35Z</time>
      </trkpt>
      <trkpt lat="38.819232" lon="-0.379680">
        <ele>384.945</ele>
        <time>2019-06-16T09:48:36Z</time>
      </trkpt>
      <trkpt lat="38.819254" lon="-0.379755">
        <ele>384.718</ele>
        <time>2019-06-16T09:48:37Z</time>
      </trkpt>
      <trkpt lat="38.819273" lon="-0.379829">
        <ele>384.420</ele>
        <time>2019-06-16T09:48:38Z</time>
      </trkpt>
      <trkpt lat="38.819288" lon="-0.379906">
        <ele>384.027</ele>
        <time>2019-06-16T09:48:39Z</time>
      </trkpt>
      <trkpt lat="38.819316" lon="-0.379975">
        <ele>383.876</ele>
        <time>2019-06-16T09:48:40Z</time>
      </trkpt>
      <trkpt lat="38.819331" lon="-0.380051">
        <ele>383.671</ele>
        <time>2019-06-16T09:48:41Z</time>
      </trkpt>
      <trkpt lat="38.819350" lon="-0.380126">
        <ele>383.549</ele>
        <time>2019-06-16T09:48:42Z</time>
      </trkpt>
      <trkpt lat="38.819365" lon="-0.380208">
        <ele>383.402</ele>
        <time>2019-06-16T09:48:43Z</time>
      </trkpt>
      <trkpt lat="38.819375" lon="-0.380291">
        <ele>383.222</ele>
        <time>2019-06-16T09:48:44Z</time>
      </trkpt>
      <trkpt lat="38.819387" lon="-0.380365">
        <ele>383.308</ele>
        <time>2019-06-16T09:48:45Z</time>
      </trkpt>
      <trkpt lat="38.819396" lon="-0.380436">
        <ele>383.417</ele>
        <time>2019-06-16T09:48:46Z</time>
      </trkpt>
      <trkpt lat="38.819398" lon="-0.380524">
        <ele>383.481</ele>
        <time>2019-06-16T09:48:47Z</time>
      </trkpt>
      <trkpt lat="38.819398" lon="-0.380618">
        <ele>383.350</ele>
        <time>2019-06-16T09:48:48Z</time>
      </trkpt>
      <trkpt lat="38.819395" lon="-0.380708">
        <ele>383.233</ele>
        <time>2019-06-16T09:48:49Z</time>
      </trkpt>
      <trkpt lat="38.819396" lon="-0.380794">
        <ele>383.275</ele>
        <time>2019-06-16T09:48:50Z</time>
      </trkpt>
      <trkpt lat="38.819403" lon="-0.380872">
        <ele>383.212</ele>
        <time>2019-06-16T09:48:51Z</time>
      </trkpt>
      <trkpt lat="38.819396" lon="-0.380965">
        <ele>383.091</ele>
        <time>2019-06-16T09:48:52Z</time>
      </trkpt>
      <trkpt lat="38.819392" lon="-0.381059">
        <ele>382.976</ele>
        <time>2019-06-16T09:48:53Z</time>
      </trkpt>
      <trkpt lat="38.819386" lon="-0.381145">
        <ele>382.741</ele>
        <time>2019-06-16T09:48:54Z</time>
      </trkpt>
      <trkpt lat="38.819375" lon="-0.381230">
        <ele>382.381</ele>
        <time>2019-06-16T09:48:55Z</time>
      </trkpt>
      <trkpt lat="38.819360" lon="-0.381316">
        <ele>381.909</ele>
        <time>2019-06-16T09:48:56Z</time>
      </trkpt>
      <trkpt lat="38.819345" lon="-0.381394">
        <ele>381.608</ele>
        <time>2019-06-16T09:48:57Z</time>
      </trkpt>
      <trkpt lat="38.819331" lon="-0.381477">
        <ele>381.487</ele>
        <time>2019-06-16T09:48:58Z</time>
      </trkpt>
      <trkpt lat="38.819313" lon="-0.381563">
        <ele>381.181</ele>
        <time>2019-06-16T09:48:59Z</time>
      </trkpt>
      <trkpt lat="38.819289" lon="-0.381648">
        <ele>380.870</ele>
        <time>2019-06-16T09:49:00Z</time>
      </trkpt>
      <trkpt lat="38.819280" lon="-0.381747">
        <ele>380.863</ele>
        <time>2019-06-16T09:49:01Z</time>
      </trkpt>
      <trkpt lat="38.819250" lon="-0.381817">
        <ele>380.645</ele>
        <time>2019-06-16T09:49:02Z</time>
      </trkpt>
      <trkpt lat="38.819226" lon="-0.381902">
        <ele>380.582</ele>
        <time>2019-06-16T09:49:03Z</time>
      </trkpt>
      <trkpt lat="38.819204" lon="-0.381975">
        <ele>380.621</ele>
        <time>2019-06-16T09:49:04Z</time>
      </trkpt>
      <trkpt lat="38.819177" lon="-0.382057">
        <ele>380.996</ele>
        <time>2019-06-16T09:49:05Z</time>
      </trkpt>
      <trkpt lat="38.819151" lon="-0.382132">
        <ele>381.225</ele>
        <time>2019-06-16T09:49:06Z</time>
      </trkpt>
      <trkpt lat="38.819128" lon="-0.382218">
        <ele>381.426</ele>
        <time>2019-06-16T09:49:07Z</time>
      </trkpt>
      <trkpt lat="38.819115" lon="-0.382309">
        <ele>381.308</ele>
        <time>2019-06-16T09:49:08Z</time>
      </trkpt>
      <trkpt lat="38.819106" lon="-0.382385">
        <ele>381.308</ele>
        <time>2019-06-16T09:49:09Z</time>
      </trkpt>
      <trkpt lat="38.818989" lon="-0.382760">
        <ele>381.645</ele>
        <time>2019-06-16T09:49:14Z</time>
      </trkpt>
      <trkpt lat="38.818989" lon="-0.382760">
        <ele>381.689</ele>
        <time>2019-06-16T09:49:14Z</time>
      </trkpt>
      <trkpt lat="38.818989" lon="-0.382760">
        <ele>381.698</ele>
        <time>2019-06-16T09:49:14Z</time>
      </trkpt>
      <trkpt lat="38.818989" lon="-0.382760">
        <ele>381.681</ele>
        <time>2019-06-16T09:49:14Z</time>
      </trkpt>
      <trkpt lat="38.818989" lon="-0.382760">
        <ele>381.673</ele>
        <time>2019-06-16T09:49:14Z</time>
      </trkpt>
      <trkpt lat="38.818989" lon="-0.382760">
        <ele>381.660</ele>
        <time>2019-06-16T09:49:14Z</time>
      </trkpt>
      <trkpt lat="38.818755" lon="-0.383415">
        <ele>383.569</ele>
        <time>2019-06-16T09:49:24Z</time>
      </trkpt>
      <trkpt lat="38.818755" lon="-0.383415">
        <ele>383.534</ele>
        <time>2019-06-16T09:49:24Z</time>
      </trkpt>
      <trkpt lat="38.818755" lon="-0.383415">
        <ele>383.553</ele>
        <time>2019-06-16T09:49:24Z</time>
      </trkpt>
      <trkpt lat="38.818755" lon="-0.383415">
        <ele>383.504</ele>
        <time>2019-06-16T09:49:24Z</time>
      </trkpt>
      <trkpt lat="38.818755" lon="-0.383415">
        <ele>383.514</ele>
        <time>2019-06-16T09:49:24Z</time>
      </trkpt>
      <trkpt lat="38.818755" lon="-0.383415">
        <ele>383.508</ele>
        <time>2019-06-16T09:49:24Z</time>
      </trkpt>
      <trkpt lat="38.818755" lon="-0.383415">
        <ele>383.538</ele>
        <time>2019-06-16T09:49:24Z</time>
      </trkpt>
      <trkpt lat="38.818755" lon="-0.383415">
        <ele>383.522</ele>
        <time>2019-06-16T09:49:24Z</time>
      </trkpt>
      <trkpt lat="38.818755" lon="-0.383415">
        <ele>383.531</ele>
        <time>2019-06-16T09:49:24Z</time>
      </trkpt>
      <trkpt lat="38.818755" lon="-0.383415">
        <ele>383.524</ele>
        <time>2019-06-16T09:49:24Z</time>
      </trkpt>
      <trkpt lat="38.818316" lon="-0.384720">
        <ele>378.976</ele>
        <time>2019-06-16T09:49:42Z</time>
      </trkpt>
      <trkpt lat="38.818316" lon="-0.384720">
        <ele>378.973</ele>
        <time>2019-06-16T09:49:42Z</time>
      </trkpt>
      <trkpt lat="38.818316" lon="-0.384720">
        <ele>378.972</ele>
        <time>2019-06-16T09:49:42Z</time>
      </trkpt>
      <trkpt lat="38.818316" lon="-0.384720">
        <ele>378.947</ele>
        <time>2019-06-16T09:49:42Z</time>
      </trkpt>
      <trkpt lat="38.818316" lon="-0.384720">
        <ele>378.977</ele>
        <time>2019-06-16T09:49:42Z</time>
      </trkpt>
      <trkpt lat="38.818316" lon="-0.384720">
        <ele>378.961</ele>
        <time>2019-06-16T09:49:42Z</time>
      </trkpt>
      <trkpt lat="38.818316" lon="-0.384720">
        <ele>378.927</ele>
        <time>2019-06-16T09:49:42Z</time>
      </trkpt>
      <trkpt lat="38.818316" lon="-0.384720">
        <ele>378.908</ele>
        <time>2019-06-16T09:49:42Z</time>
      </trkpt>
      <trkpt lat="38.818316" lon="-0.384720">
        <ele>378.980</ele>
        <time>2019-06-16T09:49:42Z</time>
      </trkpt>
      <trkpt lat="38.818316" lon="-0.384720">
        <ele>378.974</ele>
        <time>2019-06-16T09:49:42Z</time>
      </trkpt>
      <trkpt lat="38.818316" lon="-0.384720">
        <ele>378.983</ele>
        <time>2019-06-16T09:49:42Z</time>
      </trkpt>
      <trkpt lat="38.818316" lon="-0.384720">
        <ele>378.966</ele>
        <time>2019-06-16T09:49:42Z</time>
      </trkpt>
      <trkpt lat="38.818316" lon="-0.384720">
        <ele>378.918</ele>
        <time>2019-06-16T09:49:42Z</time>
      </trkpt>
      <trkpt lat="38.818316" lon="-0.384720">
        <ele>378.975</ele>
        <time>2019-06-16T09:49:42Z</time>
      </trkpt>
      <trkpt lat="38.818316" lon="-0.384720">
        <ele>378.984</ele>
        <time>2019-06-16T09:49:42Z</time>
      </trkpt>
      <trkpt lat="38.818316" lon="-0.384720">
        <ele>378.999</ele>
        <time>2019-06-16T09:49:42Z</time>
      </trkpt>
      <trkpt lat="38.818316" lon="-0.384720">
        <ele>378.989</ele>
        <time>2019-06-16T09:49:42Z</time>
      </trkpt>
      <trkpt lat="38.818316" lon="-0.384720">
        <ele>378.906</ele>
        <time>2019-06-16T09:49:42Z</time>
      </trkpt>
      <trkpt lat="38.818292" lon="-0.384803">
        <ele>378.726</ele>
        <time>2019-06-16T09:49:43Z</time>
      </trkpt>
      <trkpt lat="38.818266" lon="-0.384881">
        <ele>378.508</ele>
        <time>2019-06-16T09:49:44Z</time>
      </trkpt>
      <trkpt lat="38.818243" lon="-0.384972">
        <ele>378.451</ele>
        <time>2019-06-16T09:49:45Z</time>
      </trkpt>
      <trkpt lat="38.818213" lon="-0.385095">
        <ele>378.155</ele>
        <time>2019-06-16T09:49:46Z</time>
      </trkpt>
      <trkpt lat="38.818172" lon="-0.385161">
        <ele>377.844</ele>
        <time>2019-06-16T09:49:47Z</time>
      </trkpt>
      <trkpt lat="38.818141" lon="-0.385248">
        <ele>377.697</ele>
        <time>2019-06-16T09:49:48Z</time>
      </trkpt>
      <trkpt lat="38.818091" lon="-0.385322">
        <ele>377.339</ele>
        <time>2019-06-16T09:49:49Z</time>
      </trkpt>
      <trkpt lat="38.818066" lon="-0.385418">
        <ele>377.136</ele>
        <time>2019-06-16T09:49:50Z</time>
      </trkpt>
      <trkpt lat="38.818035" lon="-0.385508">
        <ele>376.865</ele>
        <time>2019-06-16T09:49:51Z</time>
      </trkpt>
      <trkpt lat="38.818010" lon="-0.385603">
        <ele>376.510</ele>
        <time>2019-06-16T09:49:52Z</time>
      </trkpt>
      <trkpt lat="38.817975" lon="-0.385695">
        <ele>376.372</ele>
        <time>2019-06-16T09:49:53Z</time>
      </trkpt>
      <trkpt lat="38.817943" lon="-0.385789">
        <ele>376.113</ele>
        <time>2019-06-16T09:49:54Z</time>
      </trkpt>
      <trkpt lat="38.817918" lon="-0.385881">
        <ele>375.914</ele>
        <time>2019-06-16T09:49:55Z</time>
      </trkpt>
      <trkpt lat="38.817891" lon="-0.385983">
        <ele>375.608</ele>
        <time>2019-06-16T09:49:56Z</time>
      </trkpt>
      <trkpt lat="38.817858" lon="-0.386079">
        <ele>375.310</ele>
        <time>2019-06-16T09:49:57Z</time>
      </trkpt>
      <trkpt lat="38.817832" lon="-0.386186">
        <ele>374.914</ele>
        <time>2019-06-16T09:49:58Z</time>
      </trkpt>
      <trkpt lat="38.817818" lon="-0.386298">
        <ele>374.563</ele>
        <time>2019-06-16T09:49:59Z</time>
      </trkpt>
      <trkpt lat="38.817804" lon="-0.386417">
        <ele>374.026</ele>
        <time>2019-06-16T09:50:00Z</time>
      </trkpt>
      <trkpt lat="38.817791" lon="-0.386529">
        <ele>373.638</ele>
        <time>2019-06-16T09:50:01Z</time>
      </trkpt>
      <trkpt lat="38.817783" lon="-0.386653">
        <ele>373.115</ele>
        <time>2019-06-16T09:50:02Z</time>
      </trkpt>
      <trkpt lat="38.817776" lon="-0.386781">
        <ele>373.044</ele>
        <time>2019-06-16T09:50:03Z</time>
      </trkpt>
      <trkpt lat="38.817763" lon="-0.386909">
        <ele>372.939</ele>
        <time>2019-06-16T09:50:04Z</time>
      </trkpt>
      <trkpt lat="38.817763" lon="-0.387048">
        <ele>372.134</ele>
        <time>2019-06-16T09:50:05Z</time>
      </trkpt>
      <trkpt lat="38.817756" lon="-0.387192">
        <ele>371.155</ele>
        <time>2019-06-16T09:50:06Z</time>
      </trkpt>
      <trkpt lat="38.817752" lon="-0.387313">
        <ele>370.310</ele>
        <time>2019-06-16T09:50:07Z</time>
      </trkpt>
      <trkpt lat="38.817733" lon="-0.387447">
        <ele>369.608</ele>
        <time>2019-06-16T09:50:08Z</time>
      </trkpt>
      <trkpt lat="38.817728" lon="-0.387572">
        <ele>369.866</ele>
        <time>2019-06-16T09:50:09Z</time>
      </trkpt>
      <trkpt lat="38.817712" lon="-0.387697">
        <ele>370.760</ele>
        <time>2019-06-16T09:50:10Z</time>
      </trkpt>
      <trkpt lat="38.817702" lon="-0.387803">
        <ele>371.499</ele>
        <time>2019-06-16T09:50:11Z</time>
      </trkpt>
      <trkpt lat="38.817693" lon="-0.387893">
        <ele>372.072</ele>
        <time>2019-06-16T09:50:12Z</time>
      </trkpt>
      <trkpt lat="38.817691" lon="-0.387991">
        <ele>372.614</ele>
        <time>2019-06-16T09:50:13Z</time>
      </trkpt>
      <trkpt lat="38.817693" lon="-0.388081">
        <ele>373.271</ele>
        <time>2019-06-16T09:50:14Z</time>
      </trkpt>
      <trkpt lat="38.817685" lon="-0.388162">
        <ele>373.950</ele>
        <time>2019-06-16T09:50:15Z</time>
      </trkpt>
      <trkpt lat="38.817684" lon="-0.388234">
        <ele>374.525</ele>
        <time>2019-06-16T09:50:16Z</time>
      </trkpt>
      <trkpt lat="38.817680" lon="-0.388306">
        <ele>375.193</ele>
        <time>2019-06-16T09:50:17Z</time>
      </trkpt>
      <trkpt lat="38.817671" lon="-0.388382">
        <ele>375.865</ele>
        <time>2019-06-16T09:50:18Z</time>
      </trkpt>
      <trkpt lat="38.817670" lon="-0.388452">
        <ele>376.321</ele>
        <time>2019-06-16T09:50:19Z</time>
      </trkpt>
      <trkpt lat="38.817667" lon="-0.388522">
        <ele>376.908</ele>
        <time>2019-06-16T09:50:20Z</time>
      </trkpt>
      <trkpt lat="38.817657" lon="-0.388583">
        <ele>377.432</ele>
        <time>2019-06-16T09:50:21Z</time>
      </trkpt>
      <trkpt lat="38.817659" lon="-0.388641">
        <ele>377.726</ele>
        <time>2019-06-16T09:50:22Z</time>
      </trkpt>
      <trkpt lat="38.817657" lon="-0.388699">
        <ele>377.995</ele>
        <time>2019-06-16T09:50:23Z</time>
      </trkpt>
      <trkpt lat="38.817657" lon="-0.388760">
        <ele>378.198</ele>
        <time>2019-06-16T09:50:24Z</time>
      </trkpt>
      <trkpt lat="38.817643" lon="-0.388866">
        <ele>378.460</ele>
        <time>2019-06-16T09:50:26Z</time>
      </trkpt>
      <trkpt lat="38.817637" lon="-0.388978">
        <ele>378.777</ele>
        <time>2019-06-16T09:50:28Z</time>
      </trkpt>
      <trkpt lat="38.817623" lon="-0.389033">
        <ele>378.746</ele>
        <time>2019-06-16T09:50:29Z</time>
      </trkpt>
      <trkpt lat="38.817626" lon="-0.389097">
        <ele>378.911</ele>
        <time>2019-06-16T09:50:30Z</time>
      </trkpt>
      <trkpt lat="38.817632" lon="-0.389205">
        <ele>379.158</ele>
        <time>2019-06-16T09:50:32Z</time>
      </trkpt>
      <trkpt lat="38.817617" lon="-0.389284">
        <ele>379.452</ele>
        <time>2019-06-16T09:50:34Z</time>
      </trkpt>
      <trkpt lat="38.817615" lon="-0.389364">
        <ele>379.717</ele>
        <time>2019-06-16T09:50:36Z</time>
      </trkpt>
      <trkpt lat="38.817599" lon="-0.389438">
        <ele>380.008</ele>
        <time>2019-06-16T09:50:38Z</time>
      </trkpt>
      <trkpt lat="38.817591" lon="-0.389496">
        <ele>380.048</ele>
        <time>2019-06-16T09:50:40Z</time>
      </trkpt>
      <trkpt lat="38.817582" lon="-0.389594">
        <ele>380.032</ele>
        <time>2019-06-16T09:50:42Z</time>
      </trkpt>
      <trkpt lat="38.817556" lon="-0.389708">
        <ele>380.031</ele>
        <time>2019-06-16T09:50:44Z</time>
      </trkpt>
      <trkpt lat="38.817553" lon="-0.389791">
        <ele>380.054</ele>
        <time>2019-06-16T09:50:45Z</time>
      </trkpt>
      <trkpt lat="38.817521" lon="-0.389898">
        <ele>380.096</ele>
        <time>2019-06-16T09:50:47Z</time>
      </trkpt>
      <trkpt lat="38.817486" lon="-0.390018">
        <ele>380.043</ele>
        <time>2019-06-16T09:50:49Z</time>
      </trkpt>
      <trkpt lat="38.817471" lon="-0.390074">
        <ele>380.092</ele>
        <time>2019-06-16T09:50:50Z</time>
      </trkpt>
      <trkpt lat="38.817456" lon="-0.390156">
        <ele>380.227</ele>
        <time>2019-06-16T09:50:51Z</time>
      </trkpt>
      <trkpt lat="38.817427" lon="-0.390224">
        <ele>380.122</ele>
        <time>2019-06-16T09:50:52Z</time>
      </trkpt>
      <trkpt lat="38.817407" lon="-0.390296">
        <ele>379.962</ele>
        <time>2019-06-16T09:50:53Z</time>
      </trkpt>
      <trkpt lat="38.817389" lon="-0.390369">
        <ele>379.508</ele>
        <time>2019-06-16T09:50:54Z</time>
      </trkpt>
      <trkpt lat="38.817372" lon="-0.390449">
        <ele>379.008</ele>
        <time>2019-06-16T09:50:55Z</time>
      </trkpt>
      <trkpt lat="38.817349" lon="-0.390517">
        <ele>378.565</ele>
        <time>2019-06-16T09:50:56Z</time>
      </trkpt>
      <trkpt lat="38.817329" lon="-0.390601">
        <ele>378.129</ele>
        <time>2019-06-16T09:50:57Z</time>
      </trkpt>
      <trkpt lat="38.817307" lon="-0.390669">
        <ele>377.628</ele>
        <time>2019-06-16T09:50:58Z</time>
      </trkpt>
      <trkpt lat="38.817285" lon="-0.390764">
        <ele>377.121</ele>
        <time>2019-06-16T09:50:59Z</time>
      </trkpt>
      <trkpt lat="38.817266" lon="-0.390854">
        <ele>376.783</ele>
        <time>2019-06-16T09:51:00Z</time>
      </trkpt>
      <trkpt lat="38.817242" lon="-0.390939">
        <ele>376.780</ele>
        <time>2019-06-16T09:51:01Z</time>
      </trkpt>
      <trkpt lat="38.817216" lon="-0.391023">
        <ele>376.799</ele>
        <time>2019-06-16T09:51:02Z</time>
      </trkpt>
      <trkpt lat="38.817189" lon="-0.391117">
        <ele>376.944</ele>
        <time>2019-06-16T09:51:03Z</time>
      </trkpt>
      <trkpt lat="38.817170" lon="-0.391214">
        <ele>377.635</ele>
        <time>2019-06-16T09:51:04Z</time>
      </trkpt>
      <trkpt lat="38.817139" lon="-0.391307">
        <ele>378.186</ele>
        <time>2019-06-16T09:51:05Z</time>
      </trkpt>
      <trkpt lat="38.817110" lon="-0.391403">
        <ele>378.614</ele>
        <time>2019-06-16T09:51:06Z</time>
      </trkpt>
      <trkpt lat="38.817082" lon="-0.391499">
        <ele>378.908</ele>
        <time>2019-06-16T09:51:07Z</time>
      </trkpt>
      <trkpt lat="38.817057" lon="-0.391584">
        <ele>379.296</ele>
        <time>2019-06-16T09:51:08Z</time>
      </trkpt>
      <trkpt lat="38.817017" lon="-0.391658">
        <ele>379.730</ele>
        <time>2019-06-16T09:51:09Z</time>
      </trkpt>
      <trkpt lat="38.816997" lon="-0.391736">
        <ele>380.139</ele>
        <time>2019-06-16T09:51:10Z</time>
      </trkpt>
      <trkpt lat="38.816971" lon="-0.391820">
        <ele>380.582</ele>
        <time>2019-06-16T09:51:11Z</time>
      </trkpt>
      <trkpt lat="38.816938" lon="-0.391889">
        <ele>380.834</ele>
        <time>2019-06-16T09:51:12Z</time>
      </trkpt>
      <trkpt lat="38.816898" lon="-0.391950">
        <ele>381.031</ele>
        <time>2019-06-16T09:51:13Z</time>
      </trkpt>
      <trkpt lat="38.816871" lon="-0.392017">
        <ele>380.810</ele>
        <time>2019-06-16T09:51:14Z</time>
      </trkpt>
      <trkpt lat="38.816837" lon="-0.392064">
        <ele>380.745</ele>
        <time>2019-06-16T09:51:15Z</time>
      </trkpt>
      <trkpt lat="38.816788" lon="-0.392116">
        <ele>380.728</ele>
        <time>2019-06-16T09:51:16Z</time>
      </trkpt>
      <trkpt lat="38.816745" lon="-0.392156">
        <ele>380.889</ele>
        <time>2019-06-16T09:51:17Z</time>
      </trkpt>
      <trkpt lat="38.816727" lon="-0.392228">
        <ele>380.817</ele>
        <time>2019-06-16T09:51:18Z</time>
      </trkpt>
      <trkpt lat="38.816671" lon="-0.392278">
        <ele>380.808</ele>
        <time>2019-06-16T09:51:19Z</time>
      </trkpt>
      <trkpt lat="38.816616" lon="-0.392310">
        <ele>380.645</ele>
        <time>2019-06-16T09:51:20Z</time>
      </trkpt>
      <trkpt lat="38.816581" lon="-0.392353">
        <ele>380.499</ele>
        <time>2019-06-16T09:51:21Z</time>
      </trkpt>
      <trkpt lat="38.816545" lon="-0.392396">
        <ele>380.268</ele>
        <time>2019-06-16T09:51:22Z</time>
      </trkpt>
      <trkpt lat="38.816506" lon="-0.392442">
        <ele>380.161</ele>
        <time>2019-06-16T09:51:23Z</time>
      </trkpt>
      <trkpt lat="38.816475" lon="-0.392493">
        <ele>380.063</ele>
        <time>2019-06-16T09:51:24Z</time>
      </trkpt>
      <trkpt lat="38.816444" lon="-0.392540">
        <ele>380.190</ele>
        <time>2019-06-16T09:51:25Z</time>
      </trkpt>
      <trkpt lat="38.816404" lon="-0.392591">
        <ele>380.359</ele>
        <time>2019-06-16T09:51:26Z</time>
      </trkpt>
      <trkpt lat="38.816352" lon="-0.392635">
        <ele>380.624</ele>
        <time>2019-06-16T09:51:27Z</time>
      </trkpt>
      <trkpt lat="38.816323" lon="-0.392690">
        <ele>380.855</ele>
        <time>2019-06-16T09:51:28Z</time>
      </trkpt>
      <trkpt lat="38.816287" lon="-0.392745">
        <ele>381.207</ele>
        <time>2019-06-16T09:51:29Z</time>
      </trkpt>
      <trkpt lat="38.816259" lon="-0.392812">
        <ele>381.717</ele>
        <time>2019-06-16T09:51:30Z</time>
      </trkpt>
      <trkpt lat="38.816228" lon="-0.392873">
        <ele>382.108</ele>
        <time>2019-06-16T09:51:31Z</time>
      </trkpt>
      <trkpt lat="38.816201" lon="-0.392938">
        <ele>382.458</ele>
        <time>2019-06-16T09:51:32Z</time>
      </trkpt>
      <trkpt lat="38.816165" lon="-0.392999">
        <ele>382.822</ele>
        <time>2019-06-16T09:51:33Z</time>
      </trkpt>
      <trkpt lat="38.816139" lon="-0.393058">
        <ele>383.041</ele>
        <time>2019-06-16T09:51:34Z</time>
      </trkpt>
      <trkpt lat="38.816107" lon="-0.393118">
        <ele>383.464</ele>
        <time>2019-06-16T09:51:35Z</time>
      </trkpt>
      <trkpt lat="38.816063" lon="-0.393175">
        <ele>383.426</ele>
        <time>2019-06-16T09:51:36Z</time>
      </trkpt>
      <trkpt lat="38.816046" lon="-0.393240">
        <ele>383.583</ele>
        <time>2019-06-16T09:51:37Z</time>
      </trkpt>
      <trkpt lat="38.816018" lon="-0.393299">
        <ele>383.592</ele>
        <time>2019-06-16T09:51:38Z</time>
      </trkpt>
      <trkpt lat="38.815994" lon="-0.393366">
        <ele>383.417</ele>
        <time>2019-06-16T09:51:39Z</time>
      </trkpt>
      <trkpt lat="38.815966" lon="-0.393428">
        <ele>383.356</ele>
        <time>2019-06-16T09:51:40Z</time>
      </trkpt>
      <trkpt lat="38.815942" lon="-0.393489">
        <ele>383.159</ele>
        <time>2019-06-16T09:51:41Z</time>
      </trkpt>
      <trkpt lat="38.815921" lon="-0.393559">
        <ele>383.114</ele>
        <time>2019-06-16T09:51:42Z</time>
      </trkpt>
      <trkpt lat="38.815900" lon="-0.393617">
        <ele>383.008</ele>
        <time>2019-06-16T09:51:43Z</time>
      </trkpt>
      <trkpt lat="38.815875" lon="-0.393684">
        <ele>383.398</ele>
        <time>2019-06-16T09:51:44Z</time>
      </trkpt>
      <trkpt lat="38.815844" lon="-0.393738">
        <ele>383.582</ele>
        <time>2019-06-16T09:51:45Z</time>
      </trkpt>
      <trkpt lat="38.815816" lon="-0.393805">
        <ele>383.991</ele>
        <time>2019-06-16T09:51:46Z</time>
      </trkpt>
      <trkpt lat="38.815785" lon="-0.393866">
        <ele>384.214</ele>
        <time>2019-06-16T09:51:47Z</time>
      </trkpt>
      <trkpt lat="38.815754" lon="-0.393929">
        <ele>384.646</ele>
        <time>2019-06-16T09:51:48Z</time>
      </trkpt>
      <trkpt lat="38.815737" lon="-0.393989">
        <ele>385.083</ele>
        <time>2019-06-16T09:51:49Z</time>
      </trkpt>
      <trkpt lat="38.815711" lon="-0.394056">
        <ele>385.592</ele>
        <time>2019-06-16T09:51:50Z</time>
      </trkpt>
      <trkpt lat="38.815683" lon="-0.394117">
        <ele>385.847</ele>
        <time>2019-06-16T09:51:51Z</time>
      </trkpt>
      <trkpt lat="38.815659" lon="-0.394183">
        <ele>386.266</ele>
        <time>2019-06-16T09:51:52Z</time>
      </trkpt>
      <trkpt lat="38.815631" lon="-0.394255">
        <ele>386.229</ele>
        <time>2019-06-16T09:51:53Z</time>
      </trkpt>
      <trkpt lat="38.815607" lon="-0.394332">
        <ele>386.321</ele>
        <time>2019-06-16T09:51:54Z</time>
      </trkpt>
      <trkpt lat="38.815580" lon="-0.394405">
        <ele>386.208</ele>
        <time>2019-06-16T09:51:55Z</time>
      </trkpt>
      <trkpt lat="38.815552" lon="-0.394487">
        <ele>385.929</ele>
        <time>2019-06-16T09:51:56Z</time>
      </trkpt>
      <trkpt lat="38.815516" lon="-0.394556">
        <ele>385.263</ele>
        <time>2019-06-16T09:51:57Z</time>
      </trkpt>
      <trkpt lat="38.815482" lon="-0.394631">
        <ele>384.632</ele>
        <time>2019-06-16T09:51:58Z</time>
      </trkpt>
      <trkpt lat="38.815450" lon="-0.394707">
        <ele>384.155</ele>
        <time>2019-06-16T09:51:59Z</time>
      </trkpt>
      <trkpt lat="38.815416" lon="-0.394783">
        <ele>383.647</ele>
        <time>2019-06-16T09:52:00Z</time>
      </trkpt>
      <trkpt lat="38.815375" lon="-0.394859">
        <ele>383.114</ele>
        <time>2019-06-16T09:52:01Z</time>
      </trkpt>
      <trkpt lat="38.815341" lon="-0.394944">
        <ele>382.843</ele>
        <time>2019-06-16T09:52:02Z</time>
      </trkpt>
      <trkpt lat="38.815302" lon="-0.395019">
        <ele>382.548</ele>
        <time>2019-06-16T09:52:03Z</time>
      </trkpt>
      <trkpt lat="38.815268" lon="-0.395090">
        <ele>382.657</ele>
        <time>2019-06-16T09:52:04Z</time>
      </trkpt>
      <trkpt lat="38.815231" lon="-0.395158">
        <ele>383.000</ele>
        <time>2019-06-16T09:52:05Z</time>
      </trkpt>
      <trkpt lat="38.815190" lon="-0.395220">
        <ele>383.320</ele>
        <time>2019-06-16T09:52:06Z</time>
      </trkpt>
      <trkpt lat="38.815152" lon="-0.395271">
        <ele>383.508</ele>
        <time>2019-06-16T09:52:07Z</time>
      </trkpt>
      <trkpt lat="38.815110" lon="-0.395326">
        <ele>383.738</ele>
        <time>2019-06-16T09:52:08Z</time>
      </trkpt>
      <trkpt lat="38.815066" lon="-0.395382">
        <ele>383.982</ele>
        <time>2019-06-16T09:52:09Z</time>
      </trkpt>
      <trkpt lat="38.815027" lon="-0.395445">
        <ele>384.241</ele>
        <time>2019-06-16T09:52:10Z</time>
      </trkpt>
      <trkpt lat="38.814986" lon="-0.395505">
        <ele>384.674</ele>
        <time>2019-06-16T09:52:11Z</time>
      </trkpt>
      <trkpt lat="38.814949" lon="-0.395552">
        <ele>384.896</ele>
        <time>2019-06-16T09:52:12Z</time>
      </trkpt>
      <trkpt lat="38.814909" lon="-0.395614">
        <ele>385.043</ele>
        <time>2019-06-16T09:52:13Z</time>
      </trkpt>
      <trkpt lat="38.814868" lon="-0.395672">
        <ele>385.032</ele>
        <time>2019-06-16T09:52:14Z</time>
      </trkpt>
      <trkpt lat="38.814824" lon="-0.395729">
        <ele>384.867</ele>
        <time>2019-06-16T09:52:15Z</time>
      </trkpt>
      <trkpt lat="38.814780" lon="-0.395788">
        <ele>384.665</ele>
        <time>2019-06-16T09:52:16Z</time>
      </trkpt>
      <trkpt lat="38.814737" lon="-0.395847">
        <ele>384.368</ele>
        <time>2019-06-16T09:52:17Z</time>
      </trkpt>
      <trkpt lat="38.814697" lon="-0.395905">
        <ele>384.314</ele>
        <time>2019-06-16T09:52:18Z</time>
      </trkpt>
      <trkpt lat="38.814675" lon="-0.395971">
        <ele>384.608</ele>
        <time>2019-06-16T09:52:19Z</time>
      </trkpt>
      <trkpt lat="38.814619" lon="-0.396020">
        <ele>384.499</ele>
        <time>2019-06-16T09:52:20Z</time>
      </trkpt>
      <trkpt lat="38.814593" lon="-0.396088">
        <ele>384.593</ele>
        <time>2019-06-16T09:52:21Z</time>
      </trkpt>
      <trkpt lat="38.814564" lon="-0.396159">
        <ele>384.772</ele>
        <time>2019-06-16T09:52:22Z</time>
      </trkpt>
      <trkpt lat="38.814514" lon="-0.396223">
        <ele>384.995</ele>
        <time>2019-06-16T09:52:23Z</time>
      </trkpt>
      <trkpt lat="38.814449" lon="-0.396261">
        <ele>384.757</ele>
        <time>2019-06-16T09:52:24Z</time>
      </trkpt>
      <trkpt lat="38.814398" lon="-0.396317">
        <ele>385.114</ele>
        <time>2019-06-16T09:52:25Z</time>
      </trkpt>
      <trkpt lat="38.814361" lon="-0.396381">
        <ele>385.673</ele>
        <time>2019-06-16T09:52:26Z</time>
      </trkpt>
      <trkpt lat="38.814313" lon="-0.396450">
        <ele>386.038</ele>
        <time>2019-06-16T09:52:27Z</time>
      </trkpt>
      <trkpt lat="38.814274" lon="-0.396514">
        <ele>386.387</ele>
        <time>2019-06-16T09:52:28Z</time>
      </trkpt>
      <trkpt lat="38.814247" lon="-0.396579">
        <ele>386.742</ele>
        <time>2019-06-16T09:52:29Z</time>
      </trkpt>
      <trkpt lat="38.814217" lon="-0.396643">
        <ele>387.026</ele>
        <time>2019-06-16T09:52:30Z</time>
      </trkpt>
      <trkpt lat="38.814183" lon="-0.396704">
        <ele>387.308</ele>
        <time>2019-06-16T09:52:31Z</time>
      </trkpt>
      <trkpt lat="38.814155" lon="-0.396760">
        <ele>387.631</ele>
        <time>2019-06-16T09:52:32Z</time>
      </trkpt>
      <trkpt lat="38.814108" lon="-0.396815">
        <ele>387.975</ele>
        <time>2019-06-16T09:52:33Z</time>
      </trkpt>
      <trkpt lat="38.814078" lon="-0.396872">
        <ele>388.234</ele>
        <time>2019-06-16T09:52:34Z</time>
      </trkpt>
      <trkpt lat="38.814048" lon="-0.396929">
        <ele>388.557</ele>
        <time>2019-06-16T09:52:35Z</time>
      </trkpt>
      <trkpt lat="38.814005" lon="-0.397002">
        <ele>388.839</ele>
        <time>2019-06-16T09:52:36Z</time>
      </trkpt>
      <trkpt lat="38.813973" lon="-0.397065">
        <ele>389.286</ele>
        <time>2019-06-16T09:52:37Z</time>
      </trkpt>
      <trkpt lat="38.813941" lon="-0.397126">
        <ele>389.565</ele>
        <time>2019-06-16T09:52:38Z</time>
      </trkpt>
      <trkpt lat="38.813886" lon="-0.397229">
        <ele>390.090</ele>
        <time>2019-06-16T09:52:40Z</time>
      </trkpt>
      <trkpt lat="38.813855" lon="-0.397293">
        <ele>389.937</ele>
        <time>2019-06-16T09:52:41Z</time>
      </trkpt>
      <trkpt lat="38.813821" lon="-0.397347">
        <ele>389.949</ele>
        <time>2019-06-16T09:52:42Z</time>
      </trkpt>
      <trkpt lat="38.813777" lon="-0.397401">
        <ele>389.913</ele>
        <time>2019-06-16T09:52:43Z</time>
      </trkpt>
      <trkpt lat="38.813742" lon="-0.397456">
        <ele>389.908</ele>
        <time>2019-06-16T09:52:44Z</time>
      </trkpt>
      <trkpt lat="38.813711" lon="-0.397510">
        <ele>390.096</ele>
        <time>2019-06-16T09:52:45Z</time>
      </trkpt>
      <trkpt lat="38.813675" lon="-0.397565">
        <ele>390.040</ele>
        <time>2019-06-16T09:52:46Z</time>
      </trkpt>
      <trkpt lat="38.813655" lon="-0.397627">
        <ele>390.069</ele>
        <time>2019-06-16T09:52:47Z</time>
      </trkpt>
      <trkpt lat="38.813633" lon="-0.397688">
        <ele>390.052</ele>
        <time>2019-06-16T09:52:48Z</time>
      </trkpt>
      <trkpt lat="38.813621" lon="-0.397744">
        <ele>390.094</ele>
        <time>2019-06-16T09:52:49Z</time>
      </trkpt>
      <trkpt lat="38.813596" lon="-0.397802">
        <ele>389.921</ele>
        <time>2019-06-16T09:52:50Z</time>
      </trkpt>
      <trkpt lat="38.813563" lon="-0.397856">
        <ele>389.790</ele>
        <time>2019-06-16T09:52:51Z</time>
      </trkpt>
      <trkpt lat="38.813540" lon="-0.397913">
        <ele>389.545</ele>
        <time>2019-06-16T09:52:52Z</time>
      </trkpt>
      <trkpt lat="38.813510" lon="-0.397968">
        <ele>389.366</ele>
        <time>2019-06-16T09:52:53Z</time>
      </trkpt>
      <trkpt lat="38.813473" lon="-0.398020">
        <ele>389.129</ele>
        <time>2019-06-16T09:52:54Z</time>
      </trkpt>
      <trkpt lat="38.813444" lon="-0.398074">
        <ele>389.021</ele>
        <time>2019-06-16T09:52:55Z</time>
      </trkpt>
      <trkpt lat="38.813408" lon="-0.398126">
        <ele>389.108</ele>
        <time>2019-06-16T09:52:56Z</time>
      </trkpt>
      <trkpt lat="38.813373" lon="-0.398173">
        <ele>389.189</ele>
        <time>2019-06-16T09:52:57Z</time>
      </trkpt>
      <trkpt lat="38.813345" lon="-0.398235">
        <ele>389.013</ele>
        <time>2019-06-16T09:52:58Z</time>
      </trkpt>
      <trkpt lat="38.813316" lon="-0.398290">
        <ele>389.072</ele>
        <time>2019-06-16T09:52:59Z</time>
      </trkpt>
      <trkpt lat="38.813313" lon="-0.398359">
        <ele>389.235</ele>
        <time>2019-06-16T09:53:00Z</time>
      </trkpt>
      <trkpt lat="38.813281" lon="-0.398410">
        <ele>389.547</ele>
        <time>2019-06-16T09:53:01Z</time>
      </trkpt>
      <trkpt lat="38.813255" lon="-0.398463">
        <ele>389.884</ele>
        <time>2019-06-16T09:53:02Z</time>
      </trkpt>
      <trkpt lat="38.813220" lon="-0.398506">
        <ele>390.093</ele>
        <time>2019-06-16T09:53:03Z</time>
      </trkpt>
      <trkpt lat="38.813163" lon="-0.398596">
        <ele>390.388</ele>
        <time>2019-06-16T09:53:05Z</time>
      </trkpt>
      <trkpt lat="38.813133" lon="-0.398643">
        <ele>390.694</ele>
        <time>2019-06-16T09:53:06Z</time>
      </trkpt>
      <trkpt lat="38.813102" lon="-0.398691">
        <ele>391.057</ele>
        <time>2019-06-16T09:53:07Z</time>
      </trkpt>
      <trkpt lat="38.813079" lon="-0.398746">
        <ele>391.522</ele>
        <time>2019-06-16T09:53:08Z</time>
      </trkpt>
      <trkpt lat="38.813051" lon="-0.398795">
        <ele>391.908</ele>
        <time>2019-06-16T09:53:09Z</time>
      </trkpt>
      <trkpt lat="38.813013" lon="-0.398905">
        <ele>392.552</ele>
        <time>2019-06-16T09:53:11Z</time>
      </trkpt>
      <trkpt lat="38.812987" lon="-0.398958">
        <ele>392.446</ele>
        <time>2019-06-16T09:53:12Z</time>
      </trkpt>
      <trkpt lat="38.812951" lon="-0.399008">
        <ele>392.225</ele>
        <time>2019-06-16T09:53:13Z</time>
      </trkpt>
      <trkpt lat="38.812922" lon="-0.399064">
        <ele>392.078</ele>
        <time>2019-06-16T09:53:14Z</time>
      </trkpt>
      <trkpt lat="38.812890" lon="-0.399169">
        <ele>392.050</ele>
        <time>2019-06-16T09:53:16Z</time>
      </trkpt>
      <trkpt lat="38.812877" lon="-0.399227">
        <ele>392.067</ele>
        <time>2019-06-16T09:53:17Z</time>
      </trkpt>
      <trkpt lat="38.812865" lon="-0.399287">
        <ele>392.016</ele>
        <time>2019-06-16T09:53:18Z</time>
      </trkpt>
      <trkpt lat="38.812850" lon="-0.399393">
        <ele>392.161</ele>
        <time>2019-06-16T09:53:20Z</time>
      </trkpt>
      <trkpt lat="38.812846" lon="-0.399457">
        <ele>392.311</ele>
        <time>2019-06-16T09:53:21Z</time>
      </trkpt>
      <trkpt lat="38.812824" lon="-0.399566">
        <ele>392.621</ele>
        <time>2019-06-16T09:53:23Z</time>
      </trkpt>
      <trkpt lat="38.812802" lon="-0.399674">
        <ele>393.003</ele>
        <time>2019-06-16T09:53:25Z</time>
      </trkpt>
      <trkpt lat="38.812794" lon="-0.399735">
        <ele>393.308</ele>
        <time>2019-06-16T09:53:26Z</time>
      </trkpt>
      <trkpt lat="38.812792" lon="-0.399838">
        <ele>393.684</ele>
        <time>2019-06-16T09:53:28Z</time>
      </trkpt>
      <trkpt lat="38.812786" lon="-0.399913">
        <ele>393.848</ele>
        <time>2019-06-16T09:53:29Z</time>
      </trkpt>
      <trkpt lat="38.812785" lon="-0.400001">
        <ele>394.137</ele>
        <time>2019-06-16T09:53:30Z</time>
      </trkpt>
      <trkpt lat="38.812777" lon="-0.400068">
        <ele>394.270</ele>
        <time>2019-06-16T09:53:31Z</time>
      </trkpt>
      <trkpt lat="38.812758" lon="-0.400131">
        <ele>394.222</ele>
        <time>2019-06-16T09:53:32Z</time>
      </trkpt>
      <trkpt lat="38.812746" lon="-0.400203">
        <ele>394.319</ele>
        <time>2019-06-16T09:53:33Z</time>
      </trkpt>
      <trkpt lat="38.812729" lon="-0.400279">
        <ele>394.358</ele>
        <time>2019-06-16T09:53:34Z</time>
      </trkpt>
      <trkpt lat="38.812722" lon="-0.400362">
        <ele>394.593</ele>
        <time>2019-06-16T09:53:35Z</time>
      </trkpt>
      <trkpt lat="38.812715" lon="-0.400435">
        <ele>394.779</ele>
        <time>2019-06-16T09:53:36Z</time>
      </trkpt>
      <trkpt lat="38.812709" lon="-0.400506">
        <ele>394.805</ele>
        <time>2019-06-16T09:53:37Z</time>
      </trkpt>
      <trkpt lat="38.812710" lon="-0.400578">
        <ele>395.025</ele>
        <time>2019-06-16T09:53:38Z</time>
      </trkpt>
      <trkpt lat="38.812705" lon="-0.400643">
        <ele>394.708</ele>
        <time>2019-06-16T09:53:39Z</time>
      </trkpt>
      <trkpt lat="38.812702" lon="-0.400716">
        <ele>394.580</ele>
        <time>2019-06-16T09:53:40Z</time>
      </trkpt>
      <trkpt lat="38.812703" lon="-0.400795">
        <ele>394.314</ele>
        <time>2019-06-16T09:53:41Z</time>
      </trkpt>
      <trkpt lat="38.812701" lon="-0.400869">
        <ele>394.023</ele>
        <time>2019-06-16T09:53:42Z</time>
      </trkpt>
      <trkpt lat="38.812698" lon="-0.400938">
        <ele>393.896</ele>
        <time>2019-06-16T09:53:43Z</time>
      </trkpt>
      <trkpt lat="38.812695" lon="-0.401001">
        <ele>393.588</ele>
        <time>2019-06-16T09:53:44Z</time>
      </trkpt>
      <trkpt lat="38.812691" lon="-0.401067">
        <ele>393.215</ele>
        <time>2019-06-16T09:53:45Z</time>
      </trkpt>
      <trkpt lat="38.812701" lon="-0.401145">
        <ele>393.044</ele>
        <time>2019-06-16T09:53:46Z</time>
      </trkpt>
      <trkpt lat="38.812700" lon="-0.401209">
        <ele>392.829</ele>
        <time>2019-06-16T09:53:47Z</time>
      </trkpt>
      <trkpt lat="38.812695" lon="-0.401273">
        <ele>392.584</ele>
        <time>2019-06-16T09:53:48Z</time>
      </trkpt>
      <trkpt lat="38.812697" lon="-0.401335">
        <ele>392.307</ele>
        <time>2019-06-16T09:53:49Z</time>
      </trkpt>
      <trkpt lat="38.812693" lon="-0.401404">
        <ele>392.217</ele>
        <time>2019-06-16T09:53:50Z</time>
      </trkpt>
      <trkpt lat="38.812685" lon="-0.401472">
        <ele>392.608</ele>
        <time>2019-06-16T09:53:51Z</time>
      </trkpt>
      <trkpt lat="38.812681" lon="-0.401545">
        <ele>393.151</ele>
        <time>2019-06-16T09:53:52Z</time>
      </trkpt>
      <trkpt lat="38.812680" lon="-0.401616">
        <ele>393.655</ele>
        <time>2019-06-16T09:53:53Z</time>
      </trkpt>
      <trkpt lat="38.812684" lon="-0.401702">
        <ele>394.254</ele>
        <time>2019-06-16T09:53:54Z</time>
      </trkpt>
      <trkpt lat="38.812676" lon="-0.401777">
        <ele>394.427</ele>
        <time>2019-06-16T09:53:55Z</time>
      </trkpt>
      <trkpt lat="38.812667" lon="-0.401843">
        <ele>394.789</ele>
        <time>2019-06-16T09:53:56Z</time>
      </trkpt>
      <trkpt lat="38.812662" lon="-0.401920">
        <ele>395.076</ele>
        <time>2019-06-16T09:53:57Z</time>
      </trkpt>
      <trkpt lat="38.812658" lon="-0.402005">
        <ele>395.485</ele>
        <time>2019-06-16T09:53:58Z</time>
      </trkpt>
      <trkpt lat="38.812664" lon="-0.402078">
        <ele>395.750</ele>
        <time>2019-06-16T09:53:59Z</time>
      </trkpt>
      <trkpt lat="38.812656" lon="-0.402148">
        <ele>395.958</ele>
        <time>2019-06-16T09:54:00Z</time>
      </trkpt>
      <trkpt lat="38.812657" lon="-0.402229">
        <ele>396.152</ele>
        <time>2019-06-16T09:54:01Z</time>
      </trkpt>
      <trkpt lat="38.812649" lon="-0.402303">
        <ele>396.217</ele>
        <time>2019-06-16T09:54:02Z</time>
      </trkpt>
      <trkpt lat="38.812640" lon="-0.402378">
        <ele>396.308</ele>
        <time>2019-06-16T09:54:03Z</time>
      </trkpt>
      <trkpt lat="38.812634" lon="-0.402462">
        <ele>396.448</ele>
        <time>2019-06-16T09:54:04Z</time>
      </trkpt>
      <trkpt lat="38.812619" lon="-0.402539">
        <ele>396.392</ele>
        <time>2019-06-16T09:54:05Z</time>
      </trkpt>
      <trkpt lat="38.812607" lon="-0.402610">
        <ele>396.171</ele>
        <time>2019-06-16T09:54:06Z</time>
      </trkpt>
      <trkpt lat="38.812592" lon="-0.402684">
        <ele>395.914</ele>
        <time>2019-06-16T09:54:07Z</time>
      </trkpt>
      <trkpt lat="38.812578" lon="-0.402750">
        <ele>395.676</ele>
        <time>2019-06-16T09:54:08Z</time>
      </trkpt>
      <trkpt lat="38.812566" lon="-0.402816">
        <ele>395.493</ele>
        <time>2019-06-16T09:54:09Z</time>
      </trkpt>
      <trkpt lat="38.812553" lon="-0.402886">
        <ele>395.152</ele>
        <time>2019-06-16T09:54:10Z</time>
      </trkpt>
      <trkpt lat="38.812551" lon="-0.402978">
        <ele>394.867</ele>
        <time>2019-06-16T09:54:11Z</time>
      </trkpt>
      <trkpt lat="38.812544" lon="-0.403053">
        <ele>394.525</ele>
        <time>2019-06-16T09:54:12Z</time>
      </trkpt>
      <trkpt lat="38.812533" lon="-0.403137">
        <ele>394.426</ele>
        <time>2019-06-16T09:54:13Z</time>
      </trkpt>
      <trkpt lat="38.812510" lon="-0.403220">
        <ele>394.108</ele>
        <time>2019-06-16T09:54:14Z</time>
      </trkpt>
      <trkpt lat="38.812494" lon="-0.403310">
        <ele>394.008</ele>
        <time>2019-06-16T09:54:15Z</time>
      </trkpt>
      <trkpt lat="38.812469" lon="-0.403407">
        <ele>394.235</ele>
        <time>2019-06-16T09:54:16Z</time>
      </trkpt>
      <trkpt lat="38.812444" lon="-0.403517">
        <ele>394.579</ele>
        <time>2019-06-16T09:54:17Z</time>
      </trkpt>
      <trkpt lat="38.812426" lon="-0.403622">
        <ele>394.748</ele>
        <time>2019-06-16T09:54:18Z</time>
      </trkpt>
      <trkpt lat="38.812404" lon="-0.403723">
        <ele>394.781</ele>
        <time>2019-06-16T09:54:19Z</time>
      </trkpt>
      <trkpt lat="38.812377" lon="-0.403813">
        <ele>394.673</ele>
        <time>2019-06-16T09:54:20Z</time>
      </trkpt>
      <trkpt lat="38.812351" lon="-0.403918">
        <ele>394.410</ele>
        <time>2019-06-16T09:54:21Z</time>
      </trkpt>
      <trkpt lat="38.812335" lon="-0.404018">
        <ele>393.939</ele>
        <time>2019-06-16T09:54:22Z</time>
      </trkpt>
      <trkpt lat="38.812318" lon="-0.404138">
        <ele>393.434</ele>
        <time>2019-06-16T09:54:23Z</time>
      </trkpt>
      <trkpt lat="38.812303" lon="-0.404247">
        <ele>393.279</ele>
        <time>2019-06-16T09:54:24Z</time>
      </trkpt>
      <trkpt lat="38.812291" lon="-0.404344">
        <ele>393.105</ele>
        <time>2019-06-16T09:54:25Z</time>
      </trkpt>
      <trkpt lat="38.812278" lon="-0.404444">
        <ele>393.025</ele>
        <time>2019-06-16T09:54:26Z</time>
      </trkpt>
      <trkpt lat="38.812258" lon="-0.404538">
        <ele>393.008</ele>
        <time>2019-06-16T09:54:27Z</time>
      </trkpt>
      <trkpt lat="38.812244" lon="-0.404634">
        <ele>392.930</ele>
        <time>2019-06-16T09:54:28Z</time>
      </trkpt>
      <trkpt lat="38.812225" lon="-0.404726">
        <ele>393.024</ele>
        <time>2019-06-16T09:54:29Z</time>
      </trkpt>
      <trkpt lat="38.812202" lon="-0.404819">
        <ele>393.093</ele>
        <time>2019-06-16T09:54:30Z</time>
      </trkpt>
      <trkpt lat="38.812185" lon="-0.404914">
        <ele>393.186</ele>
        <time>2019-06-16T09:54:31Z</time>
      </trkpt>
      <trkpt lat="38.812179" lon="-0.405023">
        <ele>393.218</ele>
        <time>2019-06-16T09:54:32Z</time>
      </trkpt>
      <trkpt lat="38.812170" lon="-0.405127">
        <ele>393.675</ele>
        <time>2019-06-16T09:54:33Z</time>
      </trkpt>
      <trkpt lat="38.812163" lon="-0.405216">
        <ele>393.834</ele>
        <time>2019-06-16T09:54:34Z</time>
      </trkpt>
      <trkpt lat="38.812154" lon="-0.405289">
        <ele>394.059</ele>
        <time>2019-06-16T09:54:35Z</time>
      </trkpt>
      <trkpt lat="38.812147" lon="-0.405356">
        <ele>394.353</ele>
        <time>2019-06-16T09:54:36Z</time>
      </trkpt>
      <trkpt lat="38.812131" lon="-0.405415">
        <ele>394.504</ele>
        <time>2019-06-16T09:54:37Z</time>
      </trkpt>
      <trkpt lat="38.812133" lon="-0.405497">
        <ele>394.814</ele>
        <time>2019-06-16T09:54:38Z</time>
      </trkpt>
      <trkpt lat="38.812130" lon="-0.405581">
        <ele>395.208</ele>
        <time>2019-06-16T09:54:39Z</time>
      </trkpt>
      <trkpt lat="38.812126" lon="-0.405650">
        <ele>395.788</ele>
        <time>2019-06-16T09:54:40Z</time>
      </trkpt>
      <trkpt lat="38.812131" lon="-0.405752">
        <ele>396.462</ele>
        <time>2019-06-16T09:54:42Z</time>
      </trkpt>
      <trkpt lat="38.812117" lon="-0.405814">
        <ele>396.971</ele>
        <time>2019-06-16T09:54:43Z</time>
      </trkpt>
      <trkpt lat="38.812113" lon="-0.405876">
        <ele>397.214</ele>
        <time>2019-06-16T09:54:44Z</time>
      </trkpt>
      <trkpt lat="38.812108" lon="-0.405941">
        <ele>397.646</ele>
        <time>2019-06-16T09:54:45Z</time>
      </trkpt>
      <trkpt lat="38.812106" lon="-0.406061">
        <ele>398.333</ele>
        <time>2019-06-16T09:54:47Z</time>
      </trkpt>
      <trkpt lat="38.812095" lon="-0.406182">
        <ele>398.982</ele>
        <time>2019-06-16T09:54:49Z</time>
      </trkpt>
      <trkpt lat="38.812090" lon="-0.406279">
        <ele>399.437</ele>
        <time>2019-06-16T09:54:51Z</time>
      </trkpt>
      <trkpt lat="38.812073" lon="-0.406380">
        <ele>399.986</ele>
        <time>2019-06-16T09:54:53Z</time>
      </trkpt>
      <trkpt lat="38.812045" lon="-0.406464">
        <ele>400.260</ele>
        <time>2019-06-16T09:54:55Z</time>
      </trkpt>
      <trkpt lat="38.812032" lon="-0.406519">
        <ele>400.426</ele>
        <time>2019-06-16T09:54:56Z</time>
      </trkpt>
      <trkpt lat="38.811976" lon="-0.406603">
        <ele>400.208</ele>
        <time>2019-06-16T09:54:58Z</time>
      </trkpt>
      <trkpt lat="38.811962" lon="-0.406662">
        <ele>400.251</ele>
        <time>2019-06-16T09:54:59Z</time>
      </trkpt>
      <trkpt lat="38.811932" lon="-0.406721">
        <ele>400.895</ele>
        <time>2019-06-16T09:55:00Z</time>
      </trkpt>
      <trkpt lat="38.811869" lon="-0.406796">
        <ele>401.564</ele>
        <time>2019-06-16T09:55:02Z</time>
      </trkpt>
      <trkpt lat="38.811836" lon="-0.406838">
        <ele>401.717</ele>
        <time>2019-06-16T09:55:03Z</time>
      </trkpt>
      <trkpt lat="38.811777" lon="-0.406908">
        <ele>401.939</ele>
        <time>2019-06-16T09:55:05Z</time>
      </trkpt>
      <trkpt lat="38.811715" lon="-0.406992">
        <ele>402.266</ele>
        <time>2019-06-16T09:55:07Z</time>
      </trkpt>
      <trkpt lat="38.811664" lon="-0.407053">
        <ele>402.635</ele>
        <time>2019-06-16T09:55:09Z</time>
      </trkpt>
      <trkpt lat="38.811611" lon="-0.407126">
        <ele>403.490</ele>
        <time>2019-06-16T09:55:11Z</time>
      </trkpt>
      <trkpt lat="38.811578" lon="-0.407168">
        <ele>403.821</ele>
        <time>2019-06-16T09:55:12Z</time>
      </trkpt>
      <trkpt lat="38.811526" lon="-0.407261">
        <ele>404.641</ele>
        <time>2019-06-16T09:55:14Z</time>
      </trkpt>
      <trkpt lat="38.811473" lon="-0.407344">
        <ele>405.305</ele>
        <time>2019-06-16T09:55:16Z</time>
      </trkpt>
      <trkpt lat="38.811419" lon="-0.407425">
        <ele>405.608</ele>
        <time>2019-06-16T09:55:18Z</time>
      </trkpt>
      <trkpt lat="38.811369" lon="-0.407506">
        <ele>406.195</ele>
        <time>2019-06-16T09:55:20Z</time>
      </trkpt>
      <trkpt lat="38.811324" lon="-0.407586">
        <ele>407.079</ele>
        <time>2019-06-16T09:55:22Z</time>
      </trkpt>
      <trkpt lat="38.811285" lon="-0.407668">
        <ele>407.778</ele>
        <time>2019-06-16T09:55:24Z</time>
      </trkpt>
      <trkpt lat="38.811250" lon="-0.407754">
        <ele>408.371</ele>
        <time>2019-06-16T09:55:26Z</time>
      </trkpt>
      <trkpt lat="38.811209" lon="-0.407842">
        <ele>408.063</ele>
        <time>2019-06-16T09:55:28Z</time>
      </trkpt>
      <trkpt lat="38.811163" lon="-0.407941">
        <ele>407.530</ele>
        <time>2019-06-16T09:55:30Z</time>
      </trkpt>
      <trkpt lat="38.811142" lon="-0.407994">
        <ele>407.229</ele>
        <time>2019-06-16T09:55:31Z</time>
      </trkpt>
      <trkpt lat="38.811126" lon="-0.408053">
        <ele>407.174</ele>
        <time>2019-06-16T09:55:32Z</time>
      </trkpt>
      <trkpt lat="38.811108" lon="-0.408107">
        <ele>406.811</ele>
        <time>2019-06-16T09:55:33Z</time>
      </trkpt>
      <trkpt lat="38.811091" lon="-0.408165">
        <ele>406.721</ele>
        <time>2019-06-16T09:55:34Z</time>
      </trkpt>
      <trkpt lat="38.811072" lon="-0.408223">
        <ele>406.503</ele>
        <time>2019-06-16T09:55:35Z</time>
      </trkpt>
      <trkpt lat="38.811051" lon="-0.408279">
        <ele>406.408</ele>
        <time>2019-06-16T09:55:36Z</time>
      </trkpt>
      <trkpt lat="38.811035" lon="-0.408334">
        <ele>406.344</ele>
        <time>2019-06-16T09:55:37Z</time>
      </trkpt>
      <trkpt lat="38.811014" lon="-0.408399">
        <ele>406.498</ele>
        <time>2019-06-16T09:55:38Z</time>
      </trkpt>
      <trkpt lat="38.811000" lon="-0.408465">
        <ele>406.547</ele>
        <time>2019-06-16T09:55:39Z</time>
      </trkpt>
      <trkpt lat="38.810986" lon="-0.408531">
        <ele>406.540</ele>
        <time>2019-06-16T09:55:40Z</time>
      </trkpt>
      <trkpt lat="38.810963" lon="-0.408595">
        <ele>406.532</ele>
        <time>2019-06-16T09:55:41Z</time>
      </trkpt>
      <trkpt lat="38.810946" lon="-0.408657">
        <ele>406.569</ele>
        <time>2019-06-16T09:55:42Z</time>
      </trkpt>
      <trkpt lat="38.810929" lon="-0.408718">
        <ele>406.648</ele>
        <time>2019-06-16T09:55:43Z</time>
      </trkpt>
      <trkpt lat="38.810910" lon="-0.408787">
        <ele>406.653</ele>
        <time>2019-06-16T09:55:44Z</time>
      </trkpt>
      <trkpt lat="38.810891" lon="-0.408852">
        <ele>406.637</ele>
        <time>2019-06-16T09:55:45Z</time>
      </trkpt>
      <trkpt lat="38.810877" lon="-0.408924">
        <ele>406.749</ele>
        <time>2019-06-16T09:55:46Z</time>
      </trkpt>
      <trkpt lat="38.810873" lon="-0.408994">
        <ele>407.213</ele>
        <time>2019-06-16T09:55:47Z</time>
      </trkpt>
      <trkpt lat="38.810867" lon="-0.409058">
        <ele>407.608</ele>
        <time>2019-06-16T09:55:48Z</time>
      </trkpt>
      <trkpt lat="38.810859" lon="-0.409137">
        <ele>408.166</ele>
        <time>2019-06-16T09:55:49Z</time>
      </trkpt>
      <trkpt lat="38.810850" lon="-0.409207">
        <ele>408.310</ele>
        <time>2019-06-16T09:55:50Z</time>
      </trkpt>
      <trkpt lat="38.810842" lon="-0.409277">
        <ele>408.579</ele>
        <time>2019-06-16T09:55:51Z</time>
      </trkpt>
      <trkpt lat="38.810834" lon="-0.409350">
        <ele>408.732</ele>
        <time>2019-06-16T09:55:52Z</time>
      </trkpt>
      <trkpt lat="38.810832" lon="-0.409421">
        <ele>408.914</ele>
        <time>2019-06-16T09:55:53Z</time>
      </trkpt>
      <trkpt lat="38.810829" lon="-0.409491">
        <ele>409.111</ele>
        <time>2019-06-16T09:55:54Z</time>
      </trkpt>
      <trkpt lat="38.810831" lon="-0.409556">
        <ele>409.460</ele>
        <time>2019-06-16T09:55:55Z</time>
      </trkpt>
      <trkpt lat="38.810830" lon="-0.409625">
        <ele>409.625</ele>
        <time>2019-06-16T09:55:56Z</time>
      </trkpt>
      <trkpt lat="38.810831" lon="-0.409692">
        <ele>409.832</ele>
        <time>2019-06-16T09:55:57Z</time>
      </trkpt>
      <trkpt lat="38.810837" lon="-0.409760">
        <ele>409.992</ele>
        <time>2019-06-16T09:55:58Z</time>
      </trkpt>
      <trkpt lat="38.810838" lon="-0.409835">
        <ele>409.711</ele>
        <time>2019-06-16T09:55:59Z</time>
      </trkpt>
      <trkpt lat="38.810824" lon="-0.409954">
        <ele>409.108</ele>
        <time>2019-06-16T09:56:01Z</time>
      </trkpt>
      <trkpt lat="38.810824" lon="-0.410018">
        <ele>408.896</ele>
        <time>2019-06-16T09:56:02Z</time>
      </trkpt>
      <trkpt lat="38.810822" lon="-0.410140">
        <ele>408.430</ele>
        <time>2019-06-16T09:56:04Z</time>
      </trkpt>
      <trkpt lat="38.810819" lon="-0.410202">
        <ele>408.119</ele>
        <time>2019-06-16T09:56:05Z</time>
      </trkpt>
      <trkpt lat="38.810808" lon="-0.410322">
        <ele>407.762</ele>
        <time>2019-06-16T09:56:07Z</time>
      </trkpt>
      <trkpt lat="38.810796" lon="-0.410389">
        <ele>407.674</ele>
        <time>2019-06-16T09:56:08Z</time>
      </trkpt>
      <trkpt lat="38.810786" lon="-0.410448">
        <ele>407.541</ele>
        <time>2019-06-16T09:56:09Z</time>
      </trkpt>
      <trkpt lat="38.810768" lon="-0.410515">
        <ele>407.380</ele>
        <time>2019-06-16T09:56:10Z</time>
      </trkpt>
      <trkpt lat="38.810730" lon="-0.410578">
        <ele>406.975</ele>
        <time>2019-06-16T09:56:11Z</time>
      </trkpt>
      <trkpt lat="38.810688" lon="-0.410625">
        <ele>406.487</ele>
        <time>2019-06-16T09:56:12Z</time>
      </trkpt>
      <trkpt lat="38.810632" lon="-0.410659">
        <ele>405.842</ele>
        <time>2019-06-16T09:56:13Z</time>
      </trkpt>
      <trkpt lat="38.810567" lon="-0.410686">
        <ele>405.126</ele>
        <time>2019-06-16T09:56:14Z</time>
      </trkpt>
      <trkpt lat="38.810505" lon="-0.410698">
        <ele>404.408</ele>
        <time>2019-06-16T09:56:15Z</time>
      </trkpt>
      <trkpt lat="38.810439" lon="-0.410700">
        <ele>403.571</ele>
        <time>2019-06-16T09:56:16Z</time>
      </trkpt>
      <trkpt lat="38.810352" lon="-0.410685">
        <ele>402.525</ele>
        <time>2019-06-16T09:56:17Z</time>
      </trkpt>
      <trkpt lat="38.810268" lon="-0.410676">
        <ele>401.574</ele>
        <time>2019-06-16T09:56:18Z</time>
      </trkpt>
      <trkpt lat="38.810180" lon="-0.410663">
        <ele>400.737</ele>
        <time>2019-06-16T09:56:19Z</time>
      </trkpt>
      <trkpt lat="38.810093" lon="-0.410651">
        <ele>399.929</ele>
        <time>2019-06-16T09:56:20Z</time>
      </trkpt>
      <trkpt lat="38.809999" lon="-0.410642">
        <ele>399.066</ele>
        <time>2019-06-16T09:56:21Z</time>
      </trkpt>
      <trkpt lat="38.809907" lon="-0.410627">
        <ele>399.165</ele>
        <time>2019-06-16T09:56:22Z</time>
      </trkpt>
      <trkpt lat="38.809812" lon="-0.410620">
        <ele>399.270</ele>
        <time>2019-06-16T09:56:23Z</time>
      </trkpt>
      <trkpt lat="38.809716" lon="-0.410618">
        <ele>399.223</ele>
        <time>2019-06-16T09:56:24Z</time>
      </trkpt>
      <trkpt lat="38.808998" lon="-0.410541">
        <ele>396.883</ele>
        <time>2019-06-16T09:56:31Z</time>
      </trkpt>
      <trkpt lat="38.808998" lon="-0.410541">
        <ele>396.811</ele>
        <time>2019-06-16T09:56:31Z</time>
      </trkpt>
      <trkpt lat="38.808998" lon="-0.410541">
        <ele>396.808</ele>
        <time>2019-06-16T09:56:31Z</time>
      </trkpt>
      <trkpt lat="38.808998" lon="-0.410541">
        <ele>396.855</ele>
        <time>2019-06-16T09:56:31Z</time>
      </trkpt>
      <trkpt lat="38.808998" lon="-0.410541">
        <ele>396.879</ele>
        <time>2019-06-16T09:56:31Z</time>
      </trkpt>
      <trkpt lat="38.808998" lon="-0.410541">
        <ele>396.868</ele>
        <time>2019-06-16T09:56:31Z</time>
      </trkpt>
      <trkpt lat="38.808998" lon="-0.410541">
        <ele>396.831</ele>
        <time>2019-06-16T09:56:31Z</time>
      </trkpt>
      <trkpt lat="38.808896" lon="-0.410530">
        <ele>396.143</ele>
        <time>2019-06-16T09:56:32Z</time>
      </trkpt>
      <trkpt lat="38.808799" lon="-0.410529">
        <ele>395.820</ele>
        <time>2019-06-16T09:56:33Z</time>
      </trkpt>
      <trkpt lat="38.808693" lon="-0.410525">
        <ele>395.429</ele>
        <time>2019-06-16T09:56:34Z</time>
      </trkpt>
      <trkpt lat="38.808591" lon="-0.410525">
        <ele>395.124</ele>
        <time>2019-06-16T09:56:35Z</time>
      </trkpt>
      <trkpt lat="38.808487" lon="-0.410524">
        <ele>395.123</ele>
        <time>2019-06-16T09:56:36Z</time>
      </trkpt>
      <trkpt lat="38.808392" lon="-0.410524">
        <ele>395.083</ele>
        <time>2019-06-16T09:56:37Z</time>
      </trkpt>
      <trkpt lat="38.808290" lon="-0.410537">
        <ele>394.811</ele>
        <time>2019-06-16T09:56:38Z</time>
      </trkpt>
      <trkpt lat="38.808186" lon="-0.410562">
        <ele>394.508</ele>
        <time>2019-06-16T09:56:39Z</time>
      </trkpt>
      <trkpt lat="38.808082" lon="-0.410578">
        <ele>394.225</ele>
        <time>2019-06-16T09:56:40Z</time>
      </trkpt>
      <trkpt lat="38.807995" lon="-0.410620">
        <ele>394.289</ele>
        <time>2019-06-16T09:56:41Z</time>
      </trkpt>
      <trkpt lat="38.807902" lon="-0.410643">
        <ele>394.328</ele>
        <time>2019-06-16T09:56:42Z</time>
      </trkpt>
      <trkpt lat="38.807819" lon="-0.410659">
        <ele>394.411</ele>
        <time>2019-06-16T09:56:43Z</time>
      </trkpt>
      <trkpt lat="38.807731" lon="-0.410675">
        <ele>394.673</ele>
        <time>2019-06-16T09:56:44Z</time>
      </trkpt>
      <trkpt lat="38.807650" lon="-0.410717">
        <ele>395.060</ele>
        <time>2019-06-16T09:56:45Z</time>
      </trkpt>
      <trkpt lat="38.807570" lon="-0.410746">
        <ele>395.459</ele>
        <time>2019-06-16T09:56:46Z</time>
      </trkpt>
      <trkpt lat="38.807496" lon="-0.410772">
        <ele>395.844</ele>
        <time>2019-06-16T09:56:47Z</time>
      </trkpt>
      <trkpt lat="38.807422" lon="-0.410796">
        <ele>395.915</ele>
        <time>2019-06-16T09:56:48Z</time>
      </trkpt>
      <trkpt lat="38.807358" lon="-0.410850">
        <ele>396.165</ele>
        <time>2019-06-16T09:56:49Z</time>
      </trkpt>
      <trkpt lat="38.807308" lon="-0.410932">
        <ele>396.411</ele>
        <time>2019-06-16T09:56:50Z</time>
      </trkpt>
      <trkpt lat="38.807258" lon="-0.411009">
        <ele>396.608</ele>
        <time>2019-06-16T09:56:51Z</time>
      </trkpt>
      <trkpt lat="38.807204" lon="-0.411066">
        <ele>396.764</ele>
        <time>2019-06-16T09:56:52Z</time>
      </trkpt>
      <trkpt lat="38.807133" lon="-0.411098">
        <ele>396.328</ele>
        <time>2019-06-16T09:56:53Z</time>
      </trkpt>
      <trkpt lat="38.807068" lon="-0.411103">
        <ele>395.967</ele>
        <time>2019-06-16T09:56:54Z</time>
      </trkpt>
      <trkpt lat="38.806970" lon="-0.411050">
        <ele>395.050</ele>
        <time>2019-06-16T09:56:55Z</time>
      </trkpt>
      <trkpt lat="38.806913" lon="-0.410995">
        <ele>394.472</ele>
        <time>2019-06-16T09:56:56Z</time>
      </trkpt>
      <trkpt lat="38.806853" lon="-0.410960">
        <ele>394.059</ele>
        <time>2019-06-16T09:56:57Z</time>
      </trkpt>
      <trkpt lat="38.806779" lon="-0.410944">
        <ele>393.688</ele>
        <time>2019-06-16T09:56:58Z</time>
      </trkpt>
      <trkpt lat="38.806706" lon="-0.410927">
        <ele>393.243</ele>
        <time>2019-06-16T09:56:59Z</time>
      </trkpt>
      <trkpt lat="38.806631" lon="-0.410922">
        <ele>393.178</ele>
        <time>2019-06-16T09:57:00Z</time>
      </trkpt>
      <trkpt lat="38.806554" lon="-0.410940">
        <ele>393.333</ele>
        <time>2019-06-16T09:57:01Z</time>
      </trkpt>
      <trkpt lat="38.806483" lon="-0.410947">
        <ele>393.526</ele>
        <time>2019-06-16T09:57:02Z</time>
      </trkpt>
      <trkpt lat="38.806412" lon="-0.410961">
        <ele>393.808</ele>
        <time>2019-06-16T09:57:03Z</time>
      </trkpt>
      <trkpt lat="38.806347" lon="-0.410977">
        <ele>394.270</ele>
        <time>2019-06-16T09:57:04Z</time>
      </trkpt>
      <trkpt lat="38.806283" lon="-0.410993">
        <ele>394.534</ele>
        <time>2019-06-16T09:57:05Z</time>
      </trkpt>
      <trkpt lat="38.806214" lon="-0.411014">
        <ele>394.783</ele>
        <time>2019-06-16T09:57:06Z</time>
      </trkpt>
      <trkpt lat="38.806145" lon="-0.411028">
        <ele>394.956</ele>
        <time>2019-06-16T09:57:07Z</time>
      </trkpt>
      <trkpt lat="38.806077" lon="-0.411044">
        <ele>395.278</ele>
        <time>2019-06-16T09:57:08Z</time>
      </trkpt>
      <trkpt lat="38.806025" lon="-0.411081">
        <ele>395.645</ele>
        <time>2019-06-16T09:57:09Z</time>
      </trkpt>
      <trkpt lat="38.805900" lon="-0.411112">
        <ele>396.574</ele>
        <time>2019-06-16T09:57:11Z</time>
      </trkpt>
      <trkpt lat="38.805900" lon="-0.411112">
        <ele>396.579</ele>
        <time>2019-06-16T09:57:11Z</time>
      </trkpt>
      <trkpt lat="38.805667" lon="-0.411194">
        <ele>396.964</ele>
        <time>2019-06-16T09:57:15Z</time>
      </trkpt>
      <trkpt lat="38.805667" lon="-0.411194">
        <ele>396.906</ele>
        <time>2019-06-16T09:57:15Z</time>
      </trkpt>
      <trkpt lat="38.805425" lon="-0.411219">
        <ele>396.116</ele>
        <time>2019-06-16T09:57:18Z</time>
      </trkpt>
      <trkpt lat="38.805425" lon="-0.411219">
        <ele>396.108</ele>
        <time>2019-06-16T09:57:18Z</time>
      </trkpt>
      <trkpt lat="38.805425" lon="-0.411219">
        <ele>396.159</ele>
        <time>2019-06-16T09:57:18Z</time>
      </trkpt>
      <trkpt lat="38.805152" lon="-0.411214">
        <ele>394.353</ele>
        <time>2019-06-16T09:57:24Z</time>
      </trkpt>
      <trkpt lat="38.805152" lon="-0.411214">
        <ele>394.352</ele>
        <time>2019-06-16T09:57:24Z</time>
      </trkpt>
      <trkpt lat="38.805152" lon="-0.411214">
        <ele>394.335</ele>
        <time>2019-06-16T09:57:24Z</time>
      </trkpt>
      <trkpt lat="38.805152" lon="-0.411214">
        <ele>394.327</ele>
        <time>2019-06-16T09:57:24Z</time>
      </trkpt>
      <trkpt lat="38.805152" lon="-0.411214">
        <ele>394.324</ele>
        <time>2019-06-16T09:57:24Z</time>
      </trkpt>
      <trkpt lat="38.805152" lon="-0.411214">
        <ele>394.393</ele>
        <time>2019-06-16T09:57:24Z</time>
      </trkpt>
      <trkpt lat="38.805109" lon="-0.411167">
        <ele>393.988</ele>
        <time>2019-06-16T09:58:38Z</time>
      </trkpt>
      <trkpt lat="38.805067" lon="-0.411195">
        <ele>393.727</ele>
        <time>2019-06-16T09:58:40Z</time>
      </trkpt>
      <trkpt lat="38.805011" lon="-0.411221">
        <ele>393.568</ele>
        <time>2019-06-16T09:58:42Z</time>
      </trkpt>
      <trkpt lat="38.804903" lon="-0.411281">
        <ele>393.814</ele>
        <time>2019-06-16T09:58:43Z</time>
      </trkpt>
      <trkpt lat="38.804848" lon="-0.411305">
        <ele>394.108</ele>
        <time>2019-06-16T09:58:44Z</time>
      </trkpt>
      <trkpt lat="38.804805" lon="-0.411339">
        <ele>394.475</ele>
        <time>2019-06-16T09:58:45Z</time>
      </trkpt>
      <trkpt lat="38.804765" lon="-0.411376">
        <ele>394.899</ele>
        <time>2019-06-16T09:58:46Z</time>
      </trkpt>
      <trkpt lat="38.804674" lon="-0.411408">
        <ele>395.278</ele>
        <time>2019-06-16T09:58:47Z</time>
      </trkpt>
      <trkpt lat="38.804578" lon="-0.411422">
        <ele>395.661</ele>
        <time>2019-06-16T09:58:49Z</time>
      </trkpt>
      <trkpt lat="38.804536" lon="-0.411444">
        <ele>395.833</ele>
        <time>2019-06-16T09:58:50Z</time>
      </trkpt>
      <trkpt lat="38.804434" lon="-0.411451">
        <ele>396.340</ele>
        <time>2019-06-16T09:58:52Z</time>
      </trkpt>
      <trkpt lat="38.804372" lon="-0.411449">
        <ele>396.549</ele>
        <time>2019-06-16T09:58:53Z</time>
      </trkpt>
      <trkpt lat="38.804309" lon="-0.411448">
        <ele>396.754</ele>
        <time>2019-06-16T09:58:54Z</time>
      </trkpt>
      <trkpt lat="38.804215" lon="-0.411458">
        <ele>397.185</ele>
        <time>2019-06-16T09:58:56Z</time>
      </trkpt>
      <trkpt lat="38.804164" lon="-0.411469">
        <ele>397.389</ele>
        <time>2019-06-16T09:58:57Z</time>
      </trkpt>
      <trkpt lat="38.804110" lon="-0.411468">
        <ele>397.117</ele>
        <time>2019-06-16T09:58:58Z</time>
      </trkpt>
      <trkpt lat="38.804061" lon="-0.411479">
        <ele>397.108</ele>
        <time>2019-06-16T09:58:59Z</time>
      </trkpt>
      <trkpt lat="38.804015" lon="-0.411481">
        <ele>397.061</ele>
        <time>2019-06-16T09:59:00Z</time>
      </trkpt>
      <trkpt lat="38.803968" lon="-0.411493">
        <ele>396.975</ele>
        <time>2019-06-16T09:59:01Z</time>
      </trkpt>
      <trkpt lat="38.803920" lon="-0.411499">
        <ele>396.964</ele>
        <time>2019-06-16T09:59:02Z</time>
      </trkpt>
      <trkpt lat="38.803828" lon="-0.411510">
        <ele>396.717</ele>
        <time>2019-06-16T09:59:04Z</time>
      </trkpt>
      <trkpt lat="38.803746" lon="-0.411524">
        <ele>396.579</ele>
        <time>2019-06-16T09:59:06Z</time>
      </trkpt>
      <trkpt lat="38.803667" lon="-0.411542">
        <ele>396.326</ele>
        <time>2019-06-16T09:59:08Z</time>
      </trkpt>
      <trkpt lat="38.803588" lon="-0.411559">
        <ele>396.545</ele>
        <time>2019-06-16T09:59:10Z</time>
      </trkpt>
      <trkpt lat="38.803519" lon="-0.411589">
        <ele>397.570</ele>
        <time>2019-06-16T09:59:12Z</time>
      </trkpt>
      <trkpt lat="38.803444" lon="-0.411611">
        <ele>398.593</ele>
        <time>2019-06-16T09:59:14Z</time>
      </trkpt>
      <trkpt lat="38.803368" lon="-0.411626">
        <ele>399.565</ele>
        <time>2019-06-16T09:59:16Z</time>
      </trkpt>
      <trkpt lat="38.803293" lon="-0.411624">
        <ele>400.121</ele>
        <time>2019-06-16T09:59:18Z</time>
      </trkpt>
      <trkpt lat="38.803216" lon="-0.411626">
        <ele>400.708</ele>
        <time>2019-06-16T09:59:20Z</time>
      </trkpt>
      <trkpt lat="38.803140" lon="-0.411620">
        <ele>401.222</ele>
        <time>2019-06-16T09:59:22Z</time>
      </trkpt>
      <trkpt lat="38.803060" lon="-0.411607">
        <ele>401.816</ele>
        <time>2019-06-16T09:59:24Z</time>
      </trkpt>
      <trkpt lat="38.802984" lon="-0.411595">
        <ele>402.045</ele>
        <time>2019-06-16T09:59:26Z</time>
      </trkpt>
      <trkpt lat="38.802984" lon="-0.411595">
        <ele>402.048</ele>
        <time>2019-06-16T09:59:26Z</time>
      </trkpt>
      <trkpt lat="38.802869" lon="-0.411576">
        <ele>402.390</ele>
        <time>2019-06-16T09:59:30Z</time>
      </trkpt>
      <trkpt lat="38.802869" lon="-0.411576">
        <ele>402.367</ele>
        <time>2019-06-16T09:59:30Z</time>
      </trkpt>
      <trkpt lat="38.802869" lon="-0.411576">
        <ele>402.356</ele>
        <time>2019-06-16T09:59:30Z</time>
      </trkpt>
      <trkpt lat="38.802869" lon="-0.411576">
        <ele>402.381</ele>
        <time>2019-06-16T09:59:30Z</time>
      </trkpt>
      <trkpt lat="38.802540" lon="-0.411630">
        <ele>400.475</ele>
        <time>2019-06-16T09:59:37Z</time>
      </trkpt>
      <trkpt lat="38.802540" lon="-0.411630">
        <ele>400.428</ele>
        <time>2019-06-16T09:59:37Z</time>
      </trkpt>
      <trkpt lat="38.802540" lon="-0.411630">
        <ele>400.420</ele>
        <time>2019-06-16T09:59:37Z</time>
      </trkpt>
      <trkpt lat="38.802540" lon="-0.411630">
        <ele>400.408</ele>
        <time>2019-06-16T09:59:37Z</time>
      </trkpt>
      <trkpt lat="38.802540" lon="-0.411630">
        <ele>400.440</ele>
        <time>2019-06-16T09:59:37Z</time>
      </trkpt>
      <trkpt lat="38.802540" lon="-0.411630">
        <ele>400.434</ele>
        <time>2019-06-16T09:59:37Z</time>
      </trkpt>
      <trkpt lat="38.802540" lon="-0.411630">
        <ele>400.453</ele>
        <time>2019-06-16T09:59:37Z</time>
      </trkpt>
      <trkpt lat="38.801744" lon="-0.411732">
        <ele>395.576</ele>
        <time>2019-06-16T09:59:50Z</time>
      </trkpt>
      <trkpt lat="38.801744" lon="-0.411732">
        <ele>395.578</ele>
        <time>2019-06-16T09:59:50Z</time>
      </trkpt>
      <trkpt lat="38.801744" lon="-0.411732">
        <ele>395.535</ele>
        <time>2019-06-16T09:59:50Z</time>
      </trkpt>
      <trkpt lat="38.801744" lon="-0.411732">
        <ele>395.524</ele>
        <time>2019-06-16T09:59:50Z</time>
      </trkpt>
      <trkpt lat="38.801744" lon="-0.411732">
        <ele>395.569</ele>
        <time>2019-06-16T09:59:50Z</time>
      </trkpt>
      <trkpt lat="38.801744" lon="-0.411732">
        <ele>395.592</ele>
        <time>2019-06-16T09:59:50Z</time>
      </trkpt>
      <trkpt lat="38.801744" lon="-0.411732">
        <ele>395.573</ele>
        <time>2019-06-16T09:59:50Z</time>
      </trkpt>
      <trkpt lat="38.801744" lon="-0.411732">
        <ele>395.520</ele>
        <time>2019-06-16T09:59:50Z</time>
      </trkpt>
      <trkpt lat="38.801744" lon="-0.411732">
        <ele>395.508</ele>
        <time>2019-06-16T09:59:50Z</time>
      </trkpt>
      <trkpt lat="38.801744" lon="-0.411732">
        <ele>395.532</ele>
        <time>2019-06-16T09:59:50Z</time>
      </trkpt>
      <trkpt lat="38.801744" lon="-0.411732">
        <ele>395.526</ele>
        <time>2019-06-16T09:59:50Z</time>
      </trkpt>
      <trkpt lat="38.801744" lon="-0.411732">
        <ele>395.555</ele>
        <time>2019-06-16T09:59:50Z</time>
      </trkpt>
      <trkpt lat="38.801744" lon="-0.411732">
        <ele>395.548</ele>
        <time>2019-06-16T09:59:50Z</time>
      </trkpt>
      <trkpt lat="38.801661" lon="-0.411738">
        <ele>395.560</ele>
        <time>2019-06-16T09:59:51Z</time>
      </trkpt>
      <trkpt lat="38.801586" lon="-0.411768">
        <ele>395.597</ele>
        <time>2019-06-16T09:59:52Z</time>
      </trkpt>
      <trkpt lat="38.801505" lon="-0.411807">
        <ele>395.476</ele>
        <time>2019-06-16T09:59:53Z</time>
      </trkpt>
      <trkpt lat="38.801419" lon="-0.411818">
        <ele>395.191</ele>
        <time>2019-06-16T09:59:54Z</time>
      </trkpt>
      <trkpt lat="38.801334" lon="-0.411832">
        <ele>394.892</ele>
        <time>2019-06-16T09:59:55Z</time>
      </trkpt>
      <trkpt lat="38.801244" lon="-0.411852">
        <ele>394.573</ele>
        <time>2019-06-16T09:59:56Z</time>
      </trkpt>
      <trkpt lat="38.801157" lon="-0.411872">
        <ele>394.220</ele>
        <time>2019-06-16T09:59:57Z</time>
      </trkpt>
      <trkpt lat="38.801072" lon="-0.411885">
        <ele>393.908</ele>
        <time>2019-06-16T09:59:58Z</time>
      </trkpt>
      <trkpt lat="38.800988" lon="-0.411908">
        <ele>393.632</ele>
        <time>2019-06-16T09:59:59Z</time>
      </trkpt>
      <trkpt lat="38.800905" lon="-0.411935">
        <ele>393.346</ele>
        <time>2019-06-16T10:00:00Z</time>
      </trkpt>
      <trkpt lat="38.800837" lon="-0.411980">
        <ele>393.055</ele>
        <time>2019-06-16T10:00:01Z</time>
      </trkpt>
      <trkpt lat="38.800762" lon="-0.412041">
        <ele>392.738</ele>
        <time>2019-06-16T10:00:02Z</time>
      </trkpt>
      <trkpt lat="38.800683" lon="-0.412080">
        <ele>392.580</ele>
        <time>2019-06-16T10:00:03Z</time>
      </trkpt>
      <trkpt lat="38.800597" lon="-0.412115">
        <ele>392.197</ele>
        <time>2019-06-16T10:00:04Z</time>
      </trkpt>
      <trkpt lat="38.800516" lon="-0.412162">
        <ele>392.096</ele>
        <time>2019-06-16T10:00:05Z</time>
      </trkpt>
      <trkpt lat="38.800449" lon="-0.412219">
        <ele>392.041</ele>
        <time>2019-06-16T10:00:06Z</time>
      </trkpt>
      <trkpt lat="38.800373" lon="-0.412272">
        <ele>391.815</ele>
        <time>2019-06-16T10:00:07Z</time>
      </trkpt>
      <trkpt lat="38.800295" lon="-0.412310">
        <ele>391.465</ele>
        <time>2019-06-16T10:00:08Z</time>
      </trkpt>
      <trkpt lat="38.800219" lon="-0.412374">
        <ele>390.411</ele>
        <time>2019-06-16T10:00:09Z</time>
      </trkpt>
      <trkpt lat="38.800134" lon="-0.412435">
        <ele>389.308</ele>
        <time>2019-06-16T10:00:10Z</time>
      </trkpt>
      <trkpt lat="38.800055" lon="-0.412502">
        <ele>388.494</ele>
        <time>2019-06-16T10:00:11Z</time>
      </trkpt>
      <trkpt lat="38.799971" lon="-0.412552">
        <ele>387.668</ele>
        <time>2019-06-16T10:00:12Z</time>
      </trkpt>
      <trkpt lat="38.799887" lon="-0.412603">
        <ele>386.717</ele>
        <time>2019-06-16T10:00:13Z</time>
      </trkpt>
      <trkpt lat="38.799798" lon="-0.412655">
        <ele>385.610</ele>
        <time>2019-06-16T10:00:14Z</time>
      </trkpt>
      <trkpt lat="38.799720" lon="-0.412722">
        <ele>384.472</ele>
        <time>2019-06-16T10:00:15Z</time>
      </trkpt>
      <trkpt lat="38.799637" lon="-0.412794">
        <ele>383.499</ele>
        <time>2019-06-16T10:00:16Z</time>
      </trkpt>
      <trkpt lat="38.799577" lon="-0.412887">
        <ele>383.128</ele>
        <time>2019-06-16T10:00:17Z</time>
      </trkpt>
      <trkpt lat="38.799528" lon="-0.412991">
        <ele>382.863</ele>
        <time>2019-06-16T10:00:18Z</time>
      </trkpt>
      <trkpt lat="38.799501" lon="-0.413098">
        <ele>382.845</ele>
        <time>2019-06-16T10:00:19Z</time>
      </trkpt>
      <trkpt lat="38.799485" lon="-0.413223">
        <ele>383.047</ele>
        <time>2019-06-16T10:00:20Z</time>
      </trkpt>
      <trkpt lat="38.799478" lon="-0.413339">
        <ele>383.411</ele>
        <time>2019-06-16T10:00:21Z</time>
      </trkpt>
      <trkpt lat="38.799464" lon="-0.413460">
        <ele>383.708</ele>
        <time>2019-06-16T10:00:22Z</time>
      </trkpt>
      <trkpt lat="38.799444" lon="-0.413583">
        <ele>383.947</ele>
        <time>2019-06-16T10:00:23Z</time>
      </trkpt>
      <trkpt lat="38.799446" lon="-0.413704">
        <ele>383.721</ele>
        <time>2019-06-16T10:00:24Z</time>
      </trkpt>
      <trkpt lat="38.799463" lon="-0.413826">
        <ele>383.420</ele>
        <time>2019-06-16T10:00:25Z</time>
      </trkpt>
      <trkpt lat="38.799491" lon="-0.413940">
        <ele>383.083</ele>
        <time>2019-06-16T10:00:26Z</time>
      </trkpt>
      <trkpt lat="38.799549" lon="-0.414028">
        <ele>382.655</ele>
        <time>2019-06-16T10:00:27Z</time>
      </trkpt>
      <trkpt lat="38.799620" lon="-0.414095">
        <ele>382.012</ele>
        <time>2019-06-16T10:00:28Z</time>
      </trkpt>
      <trkpt lat="38.799688" lon="-0.414170">
        <ele>381.091</ele>
        <time>2019-06-16T10:00:29Z</time>
      </trkpt>
      <trkpt lat="38.799763" lon="-0.414236">
        <ele>380.656</ele>
        <time>2019-06-16T10:00:30Z</time>
      </trkpt>
      <trkpt lat="38.799835" lon="-0.414305">
        <ele>380.463</ele>
        <time>2019-06-16T10:00:31Z</time>
      </trkpt>
      <trkpt lat="38.799917" lon="-0.414385">
        <ele>380.144</ele>
        <time>2019-06-16T10:00:32Z</time>
      </trkpt>
      <trkpt lat="38.799996" lon="-0.414471">
        <ele>379.618</ele>
        <time>2019-06-16T10:00:33Z</time>
      </trkpt>
      <trkpt lat="38.800057" lon="-0.414583">
        <ele>379.108</ele>
        <time>2019-06-16T10:00:34Z</time>
      </trkpt>
      <trkpt lat="38.800117" lon="-0.414692">
        <ele>378.639</ele>
        <time>2019-06-16T10:00:35Z</time>
      </trkpt>
      <trkpt lat="38.800137" lon="-0.414847">
        <ele>376.263</ele>
        <time>2019-06-16T10:00:36Z</time>
      </trkpt>
      <trkpt lat="38.800186" lon="-0.414980">
        <ele>374.422</ele>
        <time>2019-06-16T10:00:37Z</time>
      </trkpt>
      <trkpt lat="38.800246" lon="-0.415099">
        <ele>373.975</ele>
        <time>2019-06-16T10:00:38Z</time>
      </trkpt>
      <trkpt lat="38.800315" lon="-0.415215">
        <ele>373.857</ele>
        <time>2019-06-16T10:00:39Z</time>
      </trkpt>
      <trkpt lat="38.800399" lon="-0.415313">
        <ele>373.624</ele>
        <time>2019-06-16T10:00:40Z</time>
      </trkpt>
      <trkpt lat="38.800476" lon="-0.415408">
        <ele>373.543</ele>
        <time>2019-06-16T10:00:41Z</time>
      </trkpt>
      <trkpt lat="38.800553" lon="-0.415514">
        <ele>373.338</ele>
        <time>2019-06-16T10:00:42Z</time>
      </trkpt>
      <trkpt lat="38.800633" lon="-0.415619">
        <ele>373.234</ele>
        <time>2019-06-16T10:00:43Z</time>
      </trkpt>
      <trkpt lat="38.800716" lon="-0.415716">
        <ele>373.055</ele>
        <time>2019-06-16T10:00:44Z</time>
      </trkpt>
      <trkpt lat="38.800783" lon="-0.415824">
        <ele>372.610</ele>
        <time>2019-06-16T10:00:45Z</time>
      </trkpt>
      <trkpt lat="38.800849" lon="-0.415925">
        <ele>372.108</ele>
        <time>2019-06-16T10:00:46Z</time>
      </trkpt>
      <trkpt lat="38.800916" lon="-0.416024">
        <ele>371.436</ele>
        <time>2019-06-16T10:00:47Z</time>
      </trkpt>
      <trkpt lat="38.800961" lon="-0.416132">
        <ele>370.420</ele>
        <time>2019-06-16T10:00:48Z</time>
      </trkpt>
      <trkpt lat="38.800988" lon="-0.416247">
        <ele>369.829</ele>
        <time>2019-06-16T10:00:49Z</time>
      </trkpt>
      <trkpt lat="38.800987" lon="-0.416362">
        <ele>369.142</ele>
        <time>2019-06-16T10:00:50Z</time>
      </trkpt>
      <trkpt lat="38.800933" lon="-0.416473">
        <ele>369.414</ele>
        <time>2019-06-16T10:00:51Z</time>
      </trkpt>
      <trkpt lat="38.800887" lon="-0.416574">
        <ele>370.131</ele>
        <time>2019-06-16T10:00:52Z</time>
      </trkpt>
      <trkpt lat="38.800815" lon="-0.416630">
        <ele>371.070</ele>
        <time>2019-06-16T10:00:53Z</time>
      </trkpt>
      <trkpt lat="38.800746" lon="-0.416708">
        <ele>373.015</ele>
        <time>2019-06-16T10:00:54Z</time>
      </trkpt>
      <trkpt lat="38.800672" lon="-0.416618">
        <ele>372.869</ele>
        <time>2019-06-16T10:00:55Z</time>
      </trkpt>
      <trkpt lat="38.800608" lon="-0.416612">
        <ele>373.504</ele>
        <time>2019-06-16T10:00:56Z</time>
      </trkpt>
      <trkpt lat="38.800553" lon="-0.416576">
        <ele>373.724</ele>
        <time>2019-06-16T10:00:57Z</time>
      </trkpt>
      <trkpt lat="38.800497" lon="-0.416545">
        <ele>374.108</ele>
        <time>2019-06-16T10:00:58Z</time>
      </trkpt>
      <trkpt lat="38.800395" lon="-0.416552">
        <ele>375.949</ele>
        <time>2019-06-16T10:01:00Z</time>
      </trkpt>
      <trkpt lat="38.800395" lon="-0.416552">
        <ele>375.983</ele>
        <time>2019-06-16T10:01:00Z</time>
      </trkpt>
      <trkpt lat="38.800227" lon="-0.416521">
        <ele>377.732</ele>
        <time>2019-06-16T10:01:04Z</time>
      </trkpt>
      <trkpt lat="38.800227" lon="-0.416521">
        <ele>377.715</ele>
        <time>2019-06-16T10:01:04Z</time>
      </trkpt>
      <trkpt lat="38.800227" lon="-0.416521">
        <ele>377.717</ele>
        <time>2019-06-16T10:01:04Z</time>
      </trkpt>
      <trkpt lat="38.800227" lon="-0.416521">
        <ele>377.754</ele>
        <time>2019-06-16T10:01:04Z</time>
      </trkpt>
      <trkpt lat="38.800002" lon="-0.416398">
        <ele>379.233</ele>
        <time>2019-06-16T10:01:11Z</time>
      </trkpt>
      <trkpt lat="38.800002" lon="-0.416398">
        <ele>379.228</ele>
        <time>2019-06-16T10:01:11Z</time>
      </trkpt>
      <trkpt lat="38.800002" lon="-0.416398">
        <ele>379.272</ele>
        <time>2019-06-16T10:01:11Z</time>
      </trkpt>
      <trkpt lat="38.800002" lon="-0.416398">
        <ele>379.213</ele>
        <time>2019-06-16T10:01:11Z</time>
      </trkpt>
      <trkpt lat="38.800002" lon="-0.416398">
        <ele>379.214</ele>
        <time>2019-06-16T10:01:11Z</time>
      </trkpt>
      <trkpt lat="38.800002" lon="-0.416398">
        <ele>379.208</ele>
        <time>2019-06-16T10:01:11Z</time>
      </trkpt>
      <trkpt lat="38.800002" lon="-0.416398">
        <ele>379.240</ele>
        <time>2019-06-16T10:01:11Z</time>
      </trkpt>
      <trkpt lat="38.799556" lon="-0.416320">
        <ele>380.144</ele>
        <time>2019-06-16T10:01:23Z</time>
      </trkpt>
      <trkpt lat="38.799556" lon="-0.416320">
        <ele>380.193</ele>
        <time>2019-06-16T10:01:23Z</time>
      </trkpt>
      <trkpt lat="38.799556" lon="-0.416320">
        <ele>380.146</ele>
        <time>2019-06-16T10:01:23Z</time>
      </trkpt>
      <trkpt lat="38.799556" lon="-0.416320">
        <ele>380.178</ele>
        <time>2019-06-16T10:01:23Z</time>
      </trkpt>
      <trkpt lat="38.799556" lon="-0.416320">
        <ele>380.185</ele>
        <time>2019-06-16T10:01:23Z</time>
      </trkpt>
      <trkpt lat="38.799556" lon="-0.416320">
        <ele>380.134</ele>
        <time>2019-06-16T10:01:23Z</time>
      </trkpt>
      <trkpt lat="38.799556" lon="-0.416320">
        <ele>380.169</ele>
        <time>2019-06-16T10:01:23Z</time>
      </trkpt>
      <trkpt lat="38.799556" lon="-0.416320">
        <ele>380.192</ele>
        <time>2019-06-16T10:01:23Z</time>
      </trkpt>
      <trkpt lat="38.799556" lon="-0.416320">
        <ele>380.173</ele>
        <time>2019-06-16T10:01:23Z</time>
      </trkpt>
      <trkpt lat="38.799556" lon="-0.416320">
        <ele>380.120</ele>
        <time>2019-06-16T10:01:23Z</time>
      </trkpt>
      <trkpt lat="38.799556" lon="-0.416320">
        <ele>380.108</ele>
        <time>2019-06-16T10:01:23Z</time>
      </trkpt>
      <trkpt lat="38.798958" lon="-0.416327">
        <ele>376.932</ele>
        <time>2019-06-16T10:01:43Z</time>
      </trkpt>
      <trkpt lat="38.798904" lon="-0.416327">
        <ele>376.386</ele>
        <time>2019-06-16T10:01:44Z</time>
      </trkpt>
      <trkpt lat="38.798830" lon="-0.416384">
        <ele>376.585</ele>
        <time>2019-06-16T10:01:48Z</time>
      </trkpt>
      <trkpt lat="38.798732" lon="-0.416491">
        <ele>377.338</ele>
        <time>2019-06-16T10:01:50Z</time>
      </trkpt>
      <trkpt lat="38.798678" lon="-0.416588">
        <ele>378.370</ele>
        <time>2019-06-16T10:01:54Z</time>
      </trkpt>
      <trkpt lat="38.798651" lon="-0.416647">
        <ele>379.087</ele>
        <time>2019-06-16T10:01:56Z</time>
      </trkpt>
      <trkpt lat="38.798591" lon="-0.416784">
        <ele>381.246</ele>
        <time>2019-06-16T10:01:58Z</time>
      </trkpt>
      <trkpt lat="38.798559" lon="-0.416874">
        <ele>382.881</ele>
        <time>2019-06-16T10:02:00Z</time>
      </trkpt>
      <trkpt lat="38.798527" lon="-0.416977">
        <ele>384.347</ele>
        <time>2019-06-16T10:02:02Z</time>
      </trkpt>
      <trkpt lat="38.798496" lon="-0.417096">
        <ele>385.229</ele>
        <time>2019-06-16T10:02:04Z</time>
      </trkpt>
      <trkpt lat="38.798458" lon="-0.417211">
        <ele>385.821</ele>
        <time>2019-06-16T10:02:06Z</time>
      </trkpt>
      <trkpt lat="38.798411" lon="-0.417334">
        <ele>385.808</ele>
        <time>2019-06-16T10:02:08Z</time>
      </trkpt>
      <trkpt lat="38.798370" lon="-0.417468">
        <ele>386.037</ele>
        <time>2019-06-16T10:02:10Z</time>
      </trkpt>
      <trkpt lat="38.798330" lon="-0.417593">
        <ele>386.091</ele>
        <time>2019-06-16T10:02:12Z</time>
      </trkpt>
      <trkpt lat="38.798292" lon="-0.417718">
        <ele>385.740</ele>
        <time>2019-06-16T10:02:14Z</time>
      </trkpt>
      <trkpt lat="38.798255" lon="-0.417837">
        <ele>385.643</ele>
        <time>2019-06-16T10:02:16Z</time>
      </trkpt>
      <trkpt lat="38.798213" lon="-0.417958">
        <ele>385.865</ele>
        <time>2019-06-16T10:02:18Z</time>
      </trkpt>
      <trkpt lat="38.798175" lon="-0.418066">
        <ele>385.972</ele>
        <time>2019-06-16T10:02:20Z</time>
      </trkpt>
      <trkpt lat="38.798142" lon="-0.418177">
        <ele>385.661</ele>
        <time>2019-06-16T10:02:22Z</time>
      </trkpt>
      <trkpt lat="38.798108" lon="-0.418296">
        <ele>385.416</ele>
        <time>2019-06-16T10:02:24Z</time>
      </trkpt>
      <trkpt lat="38.798068" lon="-0.418406">
        <ele>385.619</ele>
        <time>2019-06-16T10:02:26Z</time>
      </trkpt>
      <trkpt lat="38.798030" lon="-0.418520">
        <ele>386.109</ele>
        <time>2019-06-16T10:02:28Z</time>
      </trkpt>
      <trkpt lat="38.797998" lon="-0.418616">
        <ele>386.419</ele>
        <time>2019-06-16T10:02:30Z</time>
      </trkpt>
      <trkpt lat="38.797967" lon="-0.418717">
        <ele>387.208</ele>
        <time>2019-06-16T10:02:32Z</time>
      </trkpt>
      <trkpt lat="38.797939" lon="-0.418803">
        <ele>387.844</ele>
        <time>2019-06-16T10:02:34Z</time>
      </trkpt>
      <trkpt lat="38.797908" lon="-0.418889">
        <ele>388.438</ele>
        <time>2019-06-16T10:02:36Z</time>
      </trkpt>
      <trkpt lat="38.797868" lon="-0.418981">
        <ele>388.657</ele>
        <time>2019-06-16T10:02:38Z</time>
      </trkpt>
      <trkpt lat="38.797827" lon="-0.419077">
        <ele>388.970</ele>
        <time>2019-06-16T10:02:40Z</time>
      </trkpt>
      <trkpt lat="38.797763" lon="-0.419171">
        <ele>388.722</ele>
        <time>2019-06-16T10:02:42Z</time>
      </trkpt>
      <trkpt lat="38.797689" lon="-0.419267">
        <ele>387.419</ele>
        <time>2019-06-16T10:02:44Z</time>
      </trkpt>
      <trkpt lat="38.797590" lon="-0.419378">
        <ele>385.758</ele>
        <time>2019-06-16T10:02:46Z</time>
      </trkpt>
      <trkpt lat="38.797477" lon="-0.419486">
        <ele>383.993</ele>
        <time>2019-06-16T10:02:48Z</time>
      </trkpt>
      <trkpt lat="38.797338" lon="-0.419572">
        <ele>383.216</ele>
        <time>2019-06-16T10:02:50Z</time>
      </trkpt>
      <trkpt lat="38.797186" lon="-0.419655">
        <ele>383.376</ele>
        <time>2019-06-16T10:02:52Z</time>
      </trkpt>
      <trkpt lat="38.797044" lon="-0.419743">
        <ele>384.213</ele>
        <time>2019-06-16T10:02:54Z</time>
      </trkpt>
      <trkpt lat="38.796917" lon="-0.419815">
        <ele>385.008</ele>
        <time>2019-06-16T10:02:56Z</time>
      </trkpt>
      <trkpt lat="38.796807" lon="-0.419882">
        <ele>385.434</ele>
        <time>2019-06-16T10:02:58Z</time>
      </trkpt>
      <trkpt lat="38.796735" lon="-0.419972">
        <ele>386.028</ele>
        <time>2019-06-16T10:03:00Z</time>
      </trkpt>
      <trkpt lat="38.796686" lon="-0.420050">
        <ele>386.497</ele>
        <time>2019-06-16T10:03:02Z</time>
      </trkpt>
      <trkpt lat="38.796637" lon="-0.420157">
        <ele>387.130</ele>
        <time>2019-06-16T10:03:04Z</time>
      </trkpt>
      <trkpt lat="38.796594" lon="-0.420272">
        <ele>388.062</ele>
        <time>2019-06-16T10:03:06Z</time>
      </trkpt>
      <trkpt lat="38.796555" lon="-0.420390">
        <ele>388.889</ele>
        <time>2019-06-16T10:03:08Z</time>
      </trkpt>
      <trkpt lat="38.796518" lon="-0.420489">
        <ele>389.518</ele>
        <time>2019-06-16T10:03:10Z</time>
      </trkpt>
      <trkpt lat="38.796491" lon="-0.420601">
        <ele>390.343</ele>
        <time>2019-06-16T10:03:12Z</time>
      </trkpt>
      <trkpt lat="38.796462" lon="-0.420714">
        <ele>391.073</ele>
        <time>2019-06-16T10:03:14Z</time>
      </trkpt>
      <trkpt lat="38.796432" lon="-0.420833">
        <ele>391.885</ele>
        <time>2019-06-16T10:03:16Z</time>
      </trkpt>
      <trkpt lat="38.796394" lon="-0.420935">
        <ele>392.013</ele>
        <time>2019-06-16T10:03:18Z</time>
      </trkpt>
      <trkpt lat="38.796361" lon="-0.421044">
        <ele>391.708</ele>
        <time>2019-06-16T10:03:20Z</time>
      </trkpt>
      <trkpt lat="38.796327" lon="-0.421162">
        <ele>391.330</ele>
        <time>2019-06-16T10:03:22Z</time>
      </trkpt>
      <trkpt lat="38.796286" lon="-0.421288">
        <ele>390.954</ele>
        <time>2019-06-16T10:03:24Z</time>
      </trkpt>
      <trkpt lat="38.796241" lon="-0.421416">
        <ele>390.453</ele>
        <time>2019-06-16T10:03:26Z</time>
      </trkpt>
      <trkpt lat="38.796195" lon="-0.421556">
        <ele>389.796</ele>
        <time>2019-06-16T10:03:28Z</time>
      </trkpt>
      <trkpt lat="38.796153" lon="-0.421695">
        <ele>389.348</ele>
        <time>2019-06-16T10:03:30Z</time>
      </trkpt>
      <trkpt lat="38.796107" lon="-0.421844">
        <ele>388.975</ele>
        <time>2019-06-16T10:03:32Z</time>
      </trkpt>
      <trkpt lat="38.796059" lon="-0.421981">
        <ele>388.764</ele>
        <time>2019-06-16T10:03:34Z</time>
      </trkpt>
      <trkpt lat="38.796008" lon="-0.422131">
        <ele>389.089</ele>
        <time>2019-06-16T10:03:36Z</time>
      </trkpt>
      <trkpt lat="38.795957" lon="-0.422284">
        <ele>389.091</ele>
        <time>2019-06-16T10:03:38Z</time>
      </trkpt>
      <trkpt lat="38.795916" lon="-0.422441">
        <ele>389.081</ele>
        <time>2019-06-16T10:03:40Z</time>
      </trkpt>
      <trkpt lat="38.795863" lon="-0.422607">
        <ele>388.419</ele>
        <time>2019-06-16T10:03:42Z</time>
      </trkpt>
      <trkpt lat="38.795819" lon="-0.422770">
        <ele>387.808</ele>
        <time>2019-06-16T10:03:44Z</time>
      </trkpt>
      <trkpt lat="38.795760" lon="-0.422932">
        <ele>387.992</ele>
        <time>2019-06-16T10:03:46Z</time>
      </trkpt>
      <trkpt lat="38.795685" lon="-0.423098">
        <ele>388.256</ele>
        <time>2019-06-16T10:03:48Z</time>
      </trkpt>
      <trkpt lat="38.795585" lon="-0.423245">
        <ele>388.535</ele>
        <time>2019-06-16T10:03:50Z</time>
      </trkpt>
      <trkpt lat="38.795466" lon="-0.423381">
        <ele>387.988</ele>
        <time>2019-06-16T10:03:52Z</time>
      </trkpt>
      <trkpt lat="38.795321" lon="-0.423514">
        <ele>386.370</ele>
        <time>2019-06-16T10:03:54Z</time>
      </trkpt>
      <trkpt lat="38.795202" lon="-0.423672">
        <ele>384.687</ele>
        <time>2019-06-16T10:03:56Z</time>
      </trkpt>
      <trkpt lat="38.795116" lon="-0.423849">
        <ele>383.456</ele>
        <time>2019-06-16T10:03:58Z</time>
      </trkpt>
      <trkpt lat="38.795075" lon="-0.424100">
        <ele>383.451</ele>
        <time>2019-06-16T10:04:00Z</time>
      </trkpt>
      <trkpt lat="38.795168" lon="-0.424505">
        <ele>383.194</ele>
        <time>2019-06-16T10:04:03Z</time>
      </trkpt>
      <trkpt lat="38.795168" lon="-0.424505">
        <ele>383.157</ele>
        <time>2019-06-16T10:04:03Z</time>
      </trkpt>
      <trkpt lat="38.795307" lon="-0.425537">
        <ele>381.422</ele>
        <time>2019-06-16T10:04:11Z</time>
      </trkpt>
      <trkpt lat="38.795307" lon="-0.425537">
        <ele>381.408</ele>
        <time>2019-06-16T10:04:11Z</time>
      </trkpt>
      <trkpt lat="38.795307" lon="-0.425537">
        <ele>381.472</ele>
        <time>2019-06-16T10:04:11Z</time>
      </trkpt>
      <trkpt lat="38.795307" lon="-0.425537">
        <ele>381.446</ele>
        <time>2019-06-16T10:04:11Z</time>
      </trkpt>
      <trkpt lat="38.795307" lon="-0.425537">
        <ele>381.445</ele>
        <time>2019-06-16T10:04:11Z</time>
      </trkpt>
      <trkpt lat="38.795307" lon="-0.425537">
        <ele>381.488</ele>
        <time>2019-06-16T10:04:11Z</time>
      </trkpt>
      <trkpt lat="38.795307" lon="-0.425537">
        <ele>381.420</ele>
        <time>2019-06-16T10:04:11Z</time>
      </trkpt>
      <trkpt lat="38.795307" lon="-0.425537">
        <ele>381.417</ele>
        <time>2019-06-16T10:04:11Z</time>
      </trkpt>
      <trkpt lat="38.794509" lon="-0.425638">
        <ele>368.766</ele>
        <time>2019-06-16T10:04:18Z</time>
      </trkpt>
      <trkpt lat="38.794509" lon="-0.425638">
        <ele>368.761</ele>
        <time>2019-06-16T10:04:18Z</time>
      </trkpt>
      <trkpt lat="38.794509" lon="-0.425638">
        <ele>368.773</ele>
        <time>2019-06-16T10:04:18Z</time>
      </trkpt>
      <trkpt lat="38.794509" lon="-0.425638">
        <ele>368.785</ele>
        <time>2019-06-16T10:04:18Z</time>
      </trkpt>
      <trkpt lat="38.794509" lon="-0.425638">
        <ele>368.713</ele>
        <time>2019-06-16T10:04:18Z</time>
      </trkpt>
      <trkpt lat="38.794509" lon="-0.425638">
        <ele>368.708</ele>
        <time>2019-06-16T10:04:18Z</time>
      </trkpt>
      <trkpt lat="38.794509" lon="-0.425638">
        <ele>368.730</ele>
        <time>2019-06-16T10:04:18Z</time>
      </trkpt>
      <trkpt lat="38.793871" lon="-0.425580">
        <ele>379.514</ele>
        <time>2019-06-16T10:04:25Z</time>
      </trkpt>
      <trkpt lat="38.793871" lon="-0.425580">
        <ele>379.533</ele>
        <time>2019-06-16T10:04:25Z</time>
      </trkpt>
      <trkpt lat="38.793871" lon="-0.425580">
        <ele>379.516</ele>
        <time>2019-06-16T10:04:25Z</time>
      </trkpt>
      <trkpt lat="38.793871" lon="-0.425580">
        <ele>379.518</ele>
        <time>2019-06-16T10:04:25Z</time>
      </trkpt>
      <trkpt lat="38.793871" lon="-0.425580">
        <ele>379.585</ele>
        <time>2019-06-16T10:04:25Z</time>
      </trkpt>
      <trkpt lat="38.793871" lon="-0.425580">
        <ele>379.514</ele>
        <time>2019-06-16T10:04:25Z</time>
      </trkpt>
      <trkpt lat="38.793871" lon="-0.425580">
        <ele>379.569</ele>
        <time>2019-06-16T10:04:25Z</time>
      </trkpt>
      <trkpt lat="38.793439" lon="-0.425548">
        <ele>387.851</ele>
        <time>2019-06-16T10:04:31Z</time>
      </trkpt>
      <trkpt lat="38.793439" lon="-0.425548">
        <ele>387.801</ele>
        <time>2019-06-16T10:04:31Z</time>
      </trkpt>
      <trkpt lat="38.793439" lon="-0.425548">
        <ele>387.811</ele>
        <time>2019-06-16T10:04:31Z</time>
      </trkpt>
      <trkpt lat="38.793439" lon="-0.425548">
        <ele>387.808</ele>
        <time>2019-06-16T10:04:31Z</time>
      </trkpt>
      <trkpt lat="38.793439" lon="-0.425548">
        <ele>387.818</ele>
        <time>2019-06-16T10:04:31Z</time>
      </trkpt>
      <trkpt lat="38.793439" lon="-0.425548">
        <ele>387.872</ele>
        <time>2019-06-16T10:04:31Z</time>
      </trkpt>
      <trkpt lat="38.793134" lon="-0.425519">
        <ele>388.111</ele>
        <time>2019-06-16T10:04:36Z</time>
      </trkpt>
      <trkpt lat="38.793134" lon="-0.425519">
        <ele>388.154</ele>
        <time>2019-06-16T10:04:36Z</time>
      </trkpt>
      <trkpt lat="38.793134" lon="-0.425519">
        <ele>388.136</ele>
        <time>2019-06-16T10:04:36Z</time>
      </trkpt>
      <trkpt lat="38.793134" lon="-0.425519">
        <ele>388.193</ele>
        <time>2019-06-16T10:04:36Z</time>
      </trkpt>
      <trkpt lat="38.793134" lon="-0.425519">
        <ele>388.132</ele>
        <time>2019-06-16T10:04:36Z</time>
      </trkpt>
      <trkpt lat="38.792924" lon="-0.425531">
        <ele>388.497</ele>
        <time>2019-06-16T10:04:40Z</time>
      </trkpt>
      <trkpt lat="38.792924" lon="-0.425531">
        <ele>388.441</ele>
        <time>2019-06-16T10:04:40Z</time>
      </trkpt>
      <trkpt lat="38.792924" lon="-0.425531">
        <ele>388.481</ele>
        <time>2019-06-16T10:04:40Z</time>
      </trkpt>
      <trkpt lat="38.792924" lon="-0.425531">
        <ele>388.409</ele>
        <time>2019-06-16T10:04:40Z</time>
      </trkpt>
      <trkpt lat="38.792817" lon="-0.425536">
        <ele>388.808</ele>
        <time>2019-06-16T10:04:42Z</time>
      </trkpt>
      <trkpt lat="38.792817" lon="-0.425536">
        <ele>388.887</ele>
        <time>2019-06-16T10:04:42Z</time>
      </trkpt>
      <trkpt lat="38.792525" lon="-0.425551">
        <ele>389.031</ele>
        <time>2019-06-16T10:04:52Z</time>
      </trkpt>
      <trkpt lat="38.792440" lon="-0.425498">
        <ele>389.050</ele>
        <time>2019-06-16T10:04:54Z</time>
      </trkpt>
      <trkpt lat="38.792393" lon="-0.425483">
        <ele>389.043</ele>
        <time>2019-06-16T10:04:55Z</time>
      </trkpt>
      <trkpt lat="38.792357" lon="-0.425519">
        <ele>389.095</ele>
        <time>2019-06-16T10:04:57Z</time>
      </trkpt>
      <trkpt lat="38.792300" lon="-0.425525">
        <ele>389.012</ele>
        <time>2019-06-16T10:04:59Z</time>
      </trkpt>
      <trkpt lat="38.792230" lon="-0.425536">
        <ele>389.021</ele>
        <time>2019-06-16T10:05:01Z</time>
      </trkpt>
      <trkpt lat="38.792178" lon="-0.425556">
        <ele>389.336</ele>
        <time>2019-06-16T10:05:03Z</time>
      </trkpt>
      <trkpt lat="38.792131" lon="-0.425564">
        <ele>389.744</ele>
        <time>2019-06-16T10:05:09Z</time>
      </trkpt>
      <trkpt lat="38.792082" lon="-0.425555">
        <ele>390.005</ele>
        <time>2019-06-16T10:05:42Z</time>
      </trkpt>
      <trkpt lat="38.792031" lon="-0.425523">
        <ele>390.315</ele>
        <time>2019-06-16T10:05:44Z</time>
      </trkpt>
      <trkpt lat="38.791944" lon="-0.425504">
        <ele>390.808</ele>
        <time>2019-06-16T10:05:45Z</time>
      </trkpt>
      <trkpt lat="38.791874" lon="-0.425510">
        <ele>390.677</ele>
        <time>2019-06-16T10:05:47Z</time>
      </trkpt>
      <trkpt lat="38.791827" lon="-0.425508">
        <ele>390.561</ele>
        <time>2019-06-16T10:05:48Z</time>
      </trkpt>
      <trkpt lat="38.791782" lon="-0.425507">
        <ele>390.380</ele>
        <time>2019-06-16T10:05:49Z</time>
      </trkpt>
      <trkpt lat="38.791732" lon="-0.425506">
        <ele>390.243</ele>
        <time>2019-06-16T10:05:50Z</time>
      </trkpt>
      <trkpt lat="38.791678" lon="-0.425492">
        <ele>390.095</ele>
        <time>2019-06-16T10:05:51Z</time>
      </trkpt>
      <trkpt lat="38.791624" lon="-0.425483">
        <ele>389.432</ele>
        <time>2019-06-16T10:05:52Z</time>
      </trkpt>
      <trkpt lat="38.791576" lon="-0.425502">
        <ele>388.761</ele>
        <time>2019-06-16T10:05:53Z</time>
      </trkpt>
      <trkpt lat="38.791525" lon="-0.425516">
        <ele>388.036</ele>
        <time>2019-06-16T10:05:54Z</time>
      </trkpt>
      <trkpt lat="38.791475" lon="-0.425540">
        <ele>387.247</ele>
        <time>2019-06-16T10:05:55Z</time>
      </trkpt>
      <trkpt lat="38.791427" lon="-0.425553">
        <ele>386.529</ele>
        <time>2019-06-16T10:05:56Z</time>
      </trkpt>
      <trkpt lat="38.791367" lon="-0.425585">
        <ele>385.421</ele>
        <time>2019-06-16T10:05:57Z</time>
      </trkpt>
      <trkpt lat="38.791314" lon="-0.425638">
        <ele>384.208</ele>
        <time>2019-06-16T10:05:58Z</time>
      </trkpt>
      <trkpt lat="38.791270" lon="-0.425686">
        <ele>383.247</ele>
        <time>2019-06-16T10:05:59Z</time>
      </trkpt>
      <trkpt lat="38.791219" lon="-0.425740">
        <ele>382.161</ele>
        <time>2019-06-16T10:06:00Z</time>
      </trkpt>
      <trkpt lat="38.791179" lon="-0.425798">
        <ele>381.350</ele>
        <time>2019-06-16T10:06:01Z</time>
      </trkpt>
      <trkpt lat="38.791140" lon="-0.425854">
        <ele>380.763</ele>
        <time>2019-06-16T10:06:02Z</time>
      </trkpt>
      <trkpt lat="38.791108" lon="-0.425934">
        <ele>380.715</ele>
        <time>2019-06-16T10:06:03Z</time>
      </trkpt>
      <trkpt lat="38.791080" lon="-0.426012">
        <ele>381.372</ele>
        <time>2019-06-16T10:06:04Z</time>
      </trkpt>
      <trkpt lat="38.791057" lon="-0.426092">
        <ele>381.981</ele>
        <time>2019-06-16T10:06:05Z</time>
      </trkpt>
      <trkpt lat="38.791021" lon="-0.426170">
        <ele>382.556</ele>
        <time>2019-06-16T10:06:06Z</time>
      </trkpt>
      <trkpt lat="38.791010" lon="-0.426262">
        <ele>383.218</ele>
        <time>2019-06-16T10:06:07Z</time>
      </trkpt>
      <trkpt lat="38.790987" lon="-0.426382">
        <ele>384.198</ele>
        <time>2019-06-16T10:06:08Z</time>
      </trkpt>
      <trkpt lat="38.790916" lon="-0.426431">
        <ele>383.617</ele>
        <time>2019-06-16T10:06:10Z</time>
      </trkpt>
      <trkpt lat="38.790878" lon="-0.426482">
        <ele>383.308</ele>
        <time>2019-06-16T10:06:12Z</time>
      </trkpt>
      <trkpt lat="38.790885" lon="-0.426425">
        <ele>383.434</ele>
        <time>2019-06-16T10:06:16Z</time>
      </trkpt>
      <trkpt lat="38.790889" lon="-0.426317">
        <ele>383.098</ele>
        <time>2019-06-16T10:07:21Z</time>
      </trkpt>
      <trkpt lat="38.790814" lon="-0.426279">
        <ele>382.527</ele>
        <time>2019-06-16T10:07:22Z</time>
      </trkpt>
      <trkpt lat="38.790771" lon="-0.426252">
        <ele>382.320</ele>
        <time>2019-06-16T10:07:23Z</time>
      </trkpt>
      <trkpt lat="38.790731" lon="-0.426222">
        <ele>382.192</ele>
        <time>2019-06-16T10:07:24Z</time>
      </trkpt>
      <trkpt lat="38.790653" lon="-0.426182">
        <ele>381.979</ele>
        <time>2019-06-16T10:07:26Z</time>
      </trkpt>
      <trkpt lat="38.790513" lon="-0.426187">
        <ele>381.518</ele>
        <time>2019-06-16T10:07:28Z</time>
      </trkpt>
      <trkpt lat="38.790454" lon="-0.426241">
        <ele>381.043</ele>
        <time>2019-06-16T10:07:29Z</time>
      </trkpt>
      <trkpt lat="38.790420" lon="-0.426309">
        <ele>380.756</ele>
        <time>2019-06-16T10:07:30Z</time>
      </trkpt>
      <trkpt lat="38.790340" lon="-0.426324">
        <ele>380.359</ele>
        <time>2019-06-16T10:07:31Z</time>
      </trkpt>
      <trkpt lat="38.790318" lon="-0.426386">
        <ele>380.114</ele>
        <time>2019-06-16T10:07:32Z</time>
      </trkpt>
      <trkpt lat="38.790245" lon="-0.426404">
        <ele>379.808</ele>
        <time>2019-06-16T10:07:33Z</time>
      </trkpt>
      <trkpt lat="38.790167" lon="-0.426417">
        <ele>379.568</ele>
        <time>2019-06-16T10:07:34Z</time>
      </trkpt>
      <trkpt lat="38.790092" lon="-0.426460">
        <ele>379.342</ele>
        <time>2019-06-16T10:07:35Z</time>
      </trkpt>
      <trkpt lat="38.790039" lon="-0.426478">
        <ele>379.321</ele>
        <time>2019-06-16T10:07:36Z</time>
      </trkpt>
      <trkpt lat="38.789989" lon="-0.426514">
        <ele>379.584</ele>
        <time>2019-06-16T10:07:37Z</time>
      </trkpt>
      <trkpt lat="38.789936" lon="-0.426528">
        <ele>379.696</ele>
        <time>2019-06-16T10:07:38Z</time>
      </trkpt>
      <trkpt lat="38.789893" lon="-0.426557">
        <ele>379.813</ele>
        <time>2019-06-16T10:07:39Z</time>
      </trkpt>
      <trkpt lat="38.789856" lon="-0.426620">
        <ele>380.382</ele>
        <time>2019-06-16T10:07:40Z</time>
      </trkpt>
      <trkpt lat="38.789816" lon="-0.426656">
        <ele>380.687</ele>
        <time>2019-06-16T10:07:41Z</time>
      </trkpt>
      <trkpt lat="38.789758" lon="-0.426679">
        <ele>381.083</ele>
        <time>2019-06-16T10:07:42Z</time>
      </trkpt>
      <trkpt lat="38.789691" lon="-0.426694">
        <ele>381.225</ele>
        <time>2019-06-16T10:07:43Z</time>
      </trkpt>
      <trkpt lat="38.789603" lon="-0.426752">
        <ele>381.717</ele>
        <time>2019-06-16T10:07:45Z</time>
      </trkpt>
      <trkpt lat="38.789555" lon="-0.426780">
        <ele>382.108</ele>
        <time>2019-06-16T10:07:46Z</time>
      </trkpt>
      <trkpt lat="38.789507" lon="-0.426811">
        <ele>382.431</ele>
        <time>2019-06-16T10:07:47Z</time>
      </trkpt>
      <trkpt lat="38.789459" lon="-0.426850">
        <ele>382.965</ele>
        <time>2019-06-16T10:07:48Z</time>
      </trkpt>
      <trkpt lat="38.789393" lon="-0.426874">
        <ele>383.154</ele>
        <time>2019-06-16T10:07:49Z</time>
      </trkpt>
      <trkpt lat="38.789308" lon="-0.426905">
        <ele>383.277</ele>
        <time>2019-06-16T10:07:50Z</time>
      </trkpt>
      <trkpt lat="38.789280" lon="-0.426975">
        <ele>383.699</ele>
        <time>2019-06-16T10:07:51Z</time>
      </trkpt>
      <trkpt lat="38.789224" lon="-0.427022">
        <ele>383.866</ele>
        <time>2019-06-16T10:07:52Z</time>
      </trkpt>
      <trkpt lat="38.789168" lon="-0.427063">
        <ele>383.985</ele>
        <time>2019-06-16T10:07:53Z</time>
      </trkpt>
      <trkpt lat="38.789109" lon="-0.427102">
        <ele>383.790</ele>
        <time>2019-06-16T10:07:54Z</time>
      </trkpt>
      <trkpt lat="38.789076" lon="-0.427176">
        <ele>383.893</ele>
        <time>2019-06-16T10:07:55Z</time>
      </trkpt>
      <trkpt lat="38.789031" lon="-0.427233">
        <ele>383.665</ele>
        <time>2019-06-16T10:07:56Z</time>
      </trkpt>
      <trkpt lat="38.788995" lon="-0.427299">
        <ele>383.421</ele>
        <time>2019-06-16T10:07:57Z</time>
      </trkpt>
      <trkpt lat="38.788958" lon="-0.427374">
        <ele>383.308</ele>
        <time>2019-06-16T10:07:58Z</time>
      </trkpt>
      <trkpt lat="38.788937" lon="-0.427445">
        <ele>383.362</ele>
        <time>2019-06-16T10:07:59Z</time>
      </trkpt>
      <trkpt lat="38.788911" lon="-0.427533">
        <ele>383.256</ele>
        <time>2019-06-16T10:08:00Z</time>
      </trkpt>
      <trkpt lat="38.788873" lon="-0.427593">
        <ele>382.895</ele>
        <time>2019-06-16T10:08:01Z</time>
      </trkpt>
      <trkpt lat="38.788851" lon="-0.427667">
        <ele>382.438</ele>
        <time>2019-06-16T10:08:02Z</time>
      </trkpt>
      <trkpt lat="38.788855" lon="-0.427765">
        <ele>382.490</ele>
        <time>2019-06-16T10:08:03Z</time>
      </trkpt>
      <trkpt lat="38.788850" lon="-0.427871">
        <ele>381.737</ele>
        <time>2019-06-16T10:08:04Z</time>
      </trkpt>
      <trkpt lat="38.788807" lon="-0.427959">
        <ele>380.436</ele>
        <time>2019-06-16T10:08:05Z</time>
      </trkpt>
      <trkpt lat="38.788787" lon="-0.428042">
        <ele>379.681</ele>
        <time>2019-06-16T10:08:06Z</time>
      </trkpt>
      <trkpt lat="38.788776" lon="-0.428129">
        <ele>379.376</ele>
        <time>2019-06-16T10:08:07Z</time>
      </trkpt>
      <trkpt lat="38.788745" lon="-0.428221">
        <ele>378.690</ele>
        <time>2019-06-16T10:08:08Z</time>
      </trkpt>
      <trkpt lat="38.788702" lon="-0.428318">
        <ele>377.719</ele>
        <time>2019-06-16T10:08:09Z</time>
      </trkpt>
      <trkpt lat="38.788658" lon="-0.428421">
        <ele>377.208</ele>
        <time>2019-06-16T10:08:10Z</time>
      </trkpt>
      <trkpt lat="38.788611" lon="-0.428516">
        <ele>376.780</ele>
        <time>2019-06-16T10:08:11Z</time>
      </trkpt>
      <trkpt lat="38.788561" lon="-0.428618">
        <ele>376.314</ele>
        <time>2019-06-16T10:08:12Z</time>
      </trkpt>
      <trkpt lat="38.788525" lon="-0.428734">
        <ele>375.663</ele>
        <time>2019-06-16T10:08:13Z</time>
      </trkpt>
      <trkpt lat="38.788495" lon="-0.428848">
        <ele>375.066</ele>
        <time>2019-06-16T10:08:14Z</time>
      </trkpt>
      <trkpt lat="38.788480" lon="-0.428969">
        <ele>374.128</ele>
        <time>2019-06-16T10:08:15Z</time>
      </trkpt>
      <trkpt lat="38.788490" lon="-0.429090">
        <ele>373.495</ele>
        <time>2019-06-16T10:08:16Z</time>
      </trkpt>
      <trkpt lat="38.788508" lon="-0.429215">
        <ele>372.894</ele>
        <time>2019-06-16T10:08:17Z</time>
      </trkpt>
      <trkpt lat="38.788537" lon="-0.429333">
        <ele>372.519</ele>
        <time>2019-06-16T10:08:18Z</time>
      </trkpt>
      <trkpt lat="38.788544" lon="-0.429451">
        <ele>371.879</ele>
        <time>2019-06-16T10:08:19Z</time>
      </trkpt>
      <trkpt lat="38.788557" lon="-0.429577">
        <ele>371.305</ele>
        <time>2019-06-16T10:08:20Z</time>
      </trkpt>
      <trkpt lat="38.788575" lon="-0.429678">
        <ele>370.925</ele>
        <time>2019-06-16T10:08:21Z</time>
      </trkpt>
      <trkpt lat="38.788601" lon="-0.429774">
        <ele>370.208</ele>
        <time>2019-06-16T10:08:22Z</time>
      </trkpt>
      <trkpt lat="38.788593" lon="-0.429881">
        <ele>368.670</ele>
        <time>2019-06-16T10:08:23Z</time>
      </trkpt>
      <trkpt lat="38.788553" lon="-0.430001">
        <ele>366.634</ele>
        <time>2019-06-16T10:08:24Z</time>
      </trkpt>
      <trkpt lat="38.788548" lon="-0.430121">
        <ele>365.923</ele>
        <time>2019-06-16T10:08:25Z</time>
      </trkpt>
      <trkpt lat="38.788459" lon="-0.430185">
        <ele>364.566</ele>
        <time>2019-06-16T10:08:26Z</time>
      </trkpt>
      <trkpt lat="38.788392" lon="-0.430273">
        <ele>362.988</ele>
        <time>2019-06-16T10:08:27Z</time>
      </trkpt>
      <trkpt lat="38.788340" lon="-0.430356">
        <ele>362.445</ele>
        <time>2019-06-16T10:08:28Z</time>
      </trkpt>
      <trkpt lat="38.788252" lon="-0.430369">
        <ele>361.984</ele>
        <time>2019-06-16T10:08:29Z</time>
      </trkpt>
      <trkpt lat="38.788184" lon="-0.430444">
        <ele>361.769</ele>
        <time>2019-06-16T10:08:30Z</time>
      </trkpt>
      <trkpt lat="38.788109" lon="-0.430497">
        <ele>361.335</ele>
        <time>2019-06-16T10:08:31Z</time>
      </trkpt>
      <trkpt lat="38.788061" lon="-0.430557">
        <ele>361.186</ele>
        <time>2019-06-16T10:08:32Z</time>
      </trkpt>
      <trkpt lat="38.787988" lon="-0.430607">
        <ele>361.314</ele>
        <time>2019-06-16T10:08:33Z</time>
      </trkpt>
      <trkpt lat="38.787914" lon="-0.430659">
        <ele>361.408</ele>
        <time>2019-06-16T10:08:34Z</time>
      </trkpt>
      <trkpt lat="38.787836" lon="-0.430695">
        <ele>361.246</ele>
        <time>2019-06-16T10:08:35Z</time>
      </trkpt>
      <trkpt lat="38.787748" lon="-0.430716">
        <ele>361.510</ele>
        <time>2019-06-16T10:08:36Z</time>
      </trkpt>
      <trkpt lat="38.787681" lon="-0.430752">
        <ele>362.899</ele>
        <time>2019-06-16T10:08:37Z</time>
      </trkpt>
      <trkpt lat="38.787619" lon="-0.430778">
        <ele>364.162</ele>
        <time>2019-06-16T10:08:38Z</time>
      </trkpt>
      <trkpt lat="38.787561" lon="-0.430786">
        <ele>365.374</ele>
        <time>2019-06-16T10:08:39Z</time>
      </trkpt>
      <trkpt lat="38.787498" lon="-0.430812">
        <ele>366.891</ele>
        <time>2019-06-16T10:08:40Z</time>
      </trkpt>
      <trkpt lat="38.787448" lon="-0.430831">
        <ele>368.340</ele>
        <time>2019-06-16T10:08:41Z</time>
      </trkpt>
      <trkpt lat="38.787395" lon="-0.430847">
        <ele>369.985</ele>
        <time>2019-06-16T10:08:42Z</time>
      </trkpt>
      <trkpt lat="38.787347" lon="-0.430855">
        <ele>371.241</ele>
        <time>2019-06-16T10:08:43Z</time>
      </trkpt>
      <trkpt lat="38.787297" lon="-0.430865">
        <ele>372.581</ele>
        <time>2019-06-16T10:08:44Z</time>
      </trkpt>
      <trkpt lat="38.787251" lon="-0.430858">
        <ele>373.609</ele>
        <time>2019-06-16T10:08:45Z</time>
      </trkpt>
      <trkpt lat="38.787203" lon="-0.430859">
        <ele>374.408</ele>
        <time>2019-06-16T10:08:46Z</time>
      </trkpt>
      <trkpt lat="38.787153" lon="-0.430853">
        <ele>374.737</ele>
        <time>2019-06-16T10:08:47Z</time>
      </trkpt>
      <trkpt lat="38.787103" lon="-0.430845">
        <ele>375.081</ele>
        <time>2019-06-16T10:08:48Z</time>
      </trkpt>
      <trkpt lat="38.787054" lon="-0.430841">
        <ele>375.370</ele>
        <time>2019-06-16T10:08:49Z</time>
      </trkpt>
      <trkpt lat="38.787006" lon="-0.430836">
        <ele>375.633</ele>
        <time>2019-06-16T10:08:50Z</time>
      </trkpt>
      <trkpt lat="38.786959" lon="-0.430815">
        <ele>375.885</ele>
        <time>2019-06-16T10:08:51Z</time>
      </trkpt>
      <trkpt lat="38.786914" lon="-0.430790">
        <ele>375.872</ele>
        <time>2019-06-16T10:08:52Z</time>
      </trkpt>
      <trkpt lat="38.786874" lon="-0.430762">
        <ele>375.861</ele>
        <time>2019-06-16T10:08:53Z</time>
      </trkpt>
      <trkpt lat="38.786791" lon="-0.430722">
        <ele>376.016</ele>
        <time>2019-06-16T10:08:55Z</time>
      </trkpt>
      <trkpt lat="38.786750" lon="-0.430692">
        <ele>376.038</ele>
        <time>2019-06-16T10:08:56Z</time>
      </trkpt>
      <trkpt lat="38.786677" lon="-0.430649">
        <ele>376.370</ele>
        <time>2019-06-16T10:08:58Z</time>
      </trkpt>
      <trkpt lat="38.786550" lon="-0.430571">
        <ele>377.317</ele>
        <time>2019-06-16T10:09:01Z</time>
      </trkpt>
      <trkpt lat="38.786475" lon="-0.430559">
        <ele>378.108</ele>
        <time>2019-06-16T10:09:02Z</time>
      </trkpt>
      <trkpt lat="38.786404" lon="-0.430543">
        <ele>378.996</ele>
        <time>2019-06-16T10:09:04Z</time>
      </trkpt>
      <trkpt lat="38.786324" lon="-0.430513">
        <ele>378.990</ele>
        <time>2019-06-16T10:09:06Z</time>
      </trkpt>
      <trkpt lat="38.786262" lon="-0.430477">
        <ele>378.829</ele>
        <time>2019-06-16T10:09:08Z</time>
      </trkpt>
      <trkpt lat="38.786212" lon="-0.430474">
        <ele>378.712</ele>
        <time>2019-06-16T10:09:09Z</time>
      </trkpt>
      <trkpt lat="38.786123" lon="-0.430472">
        <ele>378.314</ele>
        <time>2019-06-16T10:09:11Z</time>
      </trkpt>
      <trkpt lat="38.786075" lon="-0.430470">
        <ele>378.481</ele>
        <time>2019-06-16T10:09:12Z</time>
      </trkpt>
      <trkpt lat="38.785992" lon="-0.430477">
        <ele>378.790</ele>
        <time>2019-06-16T10:09:14Z</time>
      </trkpt>
      <trkpt lat="38.785918" lon="-0.430500">
        <ele>378.975</ele>
        <time>2019-06-16T10:09:16Z</time>
      </trkpt>
      <trkpt lat="38.785840" lon="-0.430534">
        <ele>379.153</ele>
        <time>2019-06-16T10:09:18Z</time>
      </trkpt>
      <trkpt lat="38.785764" lon="-0.430568">
        <ele>380.004</ele>
        <time>2019-06-16T10:09:20Z</time>
      </trkpt>
      <trkpt lat="38.785689" lon="-0.430621">
        <ele>380.814</ele>
        <time>2019-06-16T10:09:22Z</time>
      </trkpt>
      <trkpt lat="38.785646" lon="-0.430645">
        <ele>381.308</ele>
        <time>2019-06-16T10:09:23Z</time>
      </trkpt>
      <trkpt lat="38.785607" lon="-0.430673">
        <ele>381.618</ele>
        <time>2019-06-16T10:09:24Z</time>
      </trkpt>
      <trkpt lat="38.785565" lon="-0.430705">
        <ele>381.882</ele>
        <time>2019-06-16T10:09:25Z</time>
      </trkpt>
      <trkpt lat="38.785524" lon="-0.430742">
        <ele>381.851</ele>
        <time>2019-06-16T10:09:26Z</time>
      </trkpt>
      <trkpt lat="38.785483" lon="-0.430777">
        <ele>381.974</ele>
        <time>2019-06-16T10:09:27Z</time>
      </trkpt>
      <trkpt lat="38.785439" lon="-0.430808">
        <ele>382.076</ele>
        <time>2019-06-16T10:09:28Z</time>
      </trkpt>
      <trkpt lat="38.785398" lon="-0.430838">
        <ele>382.163</ele>
        <time>2019-06-16T10:09:29Z</time>
      </trkpt>
      <trkpt lat="38.785322" lon="-0.430903">
        <ele>382.772</ele>
        <time>2019-06-16T10:09:31Z</time>
      </trkpt>
      <trkpt lat="38.785282" lon="-0.430937">
        <ele>383.077</ele>
        <time>2019-06-16T10:09:32Z</time>
      </trkpt>
      <trkpt lat="38.785237" lon="-0.430967">
        <ele>383.048</ele>
        <time>2019-06-16T10:09:33Z</time>
      </trkpt>
      <trkpt lat="38.785200" lon="-0.431004">
        <ele>383.061</ele>
        <time>2019-06-16T10:09:34Z</time>
      </trkpt>
      <trkpt lat="38.785158" lon="-0.431038">
        <ele>383.017</ele>
        <time>2019-06-16T10:09:35Z</time>
      </trkpt>
      <trkpt lat="38.785121" lon="-0.431074">
        <ele>383.008</ele>
        <time>2019-06-16T10:09:36Z</time>
      </trkpt>
      <trkpt lat="38.785037" lon="-0.431127">
        <ele>383.037</ele>
        <time>2019-06-16T10:09:38Z</time>
      </trkpt>
      <trkpt lat="38.784970" lon="-0.431183">
        <ele>383.341</ele>
        <time>2019-06-16T10:09:40Z</time>
      </trkpt>
      <trkpt lat="38.784931" lon="-0.431213">
        <ele>383.550</ele>
        <time>2019-06-16T10:09:41Z</time>
      </trkpt>
      <trkpt lat="38.784891" lon="-0.431239">
        <ele>383.773</ele>
        <time>2019-06-16T10:09:42Z</time>
      </trkpt>
      <trkpt lat="38.784850" lon="-0.431267">
        <ele>383.865</ele>
        <time>2019-06-16T10:09:43Z</time>
      </trkpt>
      <trkpt lat="38.784802" lon="-0.431295">
        <ele>383.952</ele>
        <time>2019-06-16T10:09:44Z</time>
      </trkpt>
      <trkpt lat="38.784753" lon="-0.431333">
        <ele>384.061</ele>
        <time>2019-06-16T10:09:45Z</time>
      </trkpt>
      <trkpt lat="38.784702" lon="-0.431364">
        <ele>384.156</ele>
        <time>2019-06-16T10:09:46Z</time>
      </trkpt>
      <trkpt lat="38.784651" lon="-0.431399">
        <ele>384.394</ele>
        <time>2019-06-16T10:09:47Z</time>
      </trkpt>
      <trkpt lat="38.784599" lon="-0.431434">
        <ele>384.557</ele>
        <time>2019-06-16T10:09:48Z</time>
      </trkpt>
      <trkpt lat="38.784538" lon="-0.431457">
        <ele>384.722</ele>
        <time>2019-06-16T10:09:49Z</time>
      </trkpt>
      <trkpt lat="38.784489" lon="-0.431494">
        <ele>384.908</ele>
        <time>2019-06-16T10:09:50Z</time>
      </trkpt>
      <trkpt lat="38.784440" lon="-0.431534">
        <ele>385.092</ele>
        <time>2019-06-16T10:09:51Z</time>
      </trkpt>
      <trkpt lat="38.784394" lon="-0.431568">
        <ele>385.036</ele>
        <time>2019-06-16T10:09:52Z</time>
      </trkpt>
      <trkpt lat="38.784313" lon="-0.431616">
        <ele>385.045</ele>
        <time>2019-06-16T10:09:54Z</time>
      </trkpt>
      <trkpt lat="38.784268" lon="-0.431651">
        <ele>385.068</ele>
        <time>2019-06-16T10:09:55Z</time>
      </trkpt>
      <trkpt lat="38.784231" lon="-0.431688">
        <ele>384.910</ele>
        <time>2019-06-16T10:09:56Z</time>
      </trkpt>
      <trkpt lat="38.784156" lon="-0.431758">
        <ele>384.857</ele>
        <time>2019-06-16T10:09:58Z</time>
      </trkpt>
      <trkpt lat="38.784124" lon="-0.431819">
        <ele>384.826</ele>
        <time>2019-06-16T10:09:59Z</time>
      </trkpt>
      <trkpt lat="38.784082" lon="-0.431856">
        <ele>385.051</ele>
        <time>2019-06-16T10:10:00Z</time>
      </trkpt>
      <trkpt lat="38.784006" lon="-0.431927">
        <ele>385.333</ele>
        <time>2019-06-16T10:10:02Z</time>
      </trkpt>
      <trkpt lat="38.783961" lon="-0.431975">
        <ele>385.223</ele>
        <time>2019-06-16T10:10:03Z</time>
      </trkpt>
      <trkpt lat="38.783917" lon="-0.432009">
        <ele>385.015</ele>
        <time>2019-06-16T10:10:04Z</time>
      </trkpt>
      <trkpt lat="38.783867" lon="-0.432063">
        <ele>384.408</ele>
        <time>2019-06-16T10:10:05Z</time>
      </trkpt>
      <trkpt lat="38.783834" lon="-0.432104">
        <ele>384.156</ele>
        <time>2019-06-16T10:10:06Z</time>
      </trkpt>
      <trkpt lat="38.783811" lon="-0.432155">
        <ele>383.770</ele>
        <time>2019-06-16T10:10:07Z</time>
      </trkpt>
      <trkpt lat="38.783724" lon="-0.432206">
        <ele>383.929</ele>
        <time>2019-06-16T10:10:09Z</time>
      </trkpt>
      <trkpt lat="38.783682" lon="-0.432238">
        <ele>384.242</ele>
        <time>2019-06-16T10:10:10Z</time>
      </trkpt>
      <trkpt lat="38.783630" lon="-0.432303">
        <ele>384.364</ele>
        <time>2019-06-16T10:10:12Z</time>
      </trkpt>
      <trkpt lat="38.783557" lon="-0.432369">
        <ele>384.481</ele>
        <time>2019-06-16T10:10:14Z</time>
      </trkpt>
      <trkpt lat="38.783504" lon="-0.432441">
        <ele>384.520</ele>
        <time>2019-06-16T10:10:16Z</time>
      </trkpt>
      <trkpt lat="38.783433" lon="-0.432506">
        <ele>385.065</ele>
        <time>2019-06-16T10:10:18Z</time>
      </trkpt>
      <trkpt lat="38.783354" lon="-0.432550">
        <ele>386.013</ele>
        <time>2019-06-16T10:10:20Z</time>
      </trkpt>
      <trkpt lat="38.783311" lon="-0.432599">
        <ele>386.543</ele>
        <time>2019-06-16T10:10:23Z</time>
      </trkpt>
      <trkpt lat="38.783305" lon="-0.432656">
        <ele>386.707</ele>
        <time>2019-06-16T10:10:30Z</time>
      </trkpt>
      <trkpt lat="38.783351" lon="-0.432633">
        <ele>386.308</ele>
        <time>2019-06-16T10:10:35Z</time>
      </trkpt>
      <trkpt lat="38.783406" lon="-0.432609">
        <ele>385.844</ele>
        <time>2019-06-16T10:10:38Z</time>
      </trkpt>
      <trkpt lat="38.783463" lon="-0.432602">
        <ele>385.378</ele>
        <time>2019-06-16T10:10:46Z</time>
      </trkpt>
      <trkpt lat="38.783414" lon="-0.432574">
        <ele>385.677</ele>
        <time>2019-06-16T10:11:52Z</time>
      </trkpt>
      <trkpt lat="38.783375" lon="-0.432529">
        <ele>385.760</ele>
        <time>2019-06-16T10:11:56Z</time>
      </trkpt>
      <trkpt lat="38.783337" lon="-0.432495">
        <ele>386.032</ele>
        <time>2019-06-16T10:11:58Z</time>
      </trkpt>
      <trkpt lat="38.783299" lon="-0.432435">
        <ele>386.519</ele>
        <time>2019-06-16T10:11:59Z</time>
      </trkpt>
      <trkpt lat="38.782974" lon="-0.432756">
        <ele>388.398</ele>
        <time>2019-06-16T10:12:15Z</time>
      </trkpt>
      <trkpt lat="38.782977" lon="-0.432817">
        <ele>388.523</ele>
        <time>2019-06-16T10:12:16Z</time>
      </trkpt>
      <trkpt lat="38.782927" lon="-0.432845">
        <ele>388.831</ele>
        <time>2019-06-16T10:12:17Z</time>
      </trkpt>
      <trkpt lat="38.782858" lon="-0.432921">
        <ele>389.461</ele>
        <time>2019-06-16T10:12:19Z</time>
      </trkpt>
      <trkpt lat="38.782793" lon="-0.432941">
        <ele>389.607</ele>
        <time>2019-06-16T10:12:20Z</time>
      </trkpt>
      <trkpt lat="38.782738" lon="-0.432964">
        <ele>389.808</ele>
        <time>2019-06-16T10:12:21Z</time>
      </trkpt>
      <trkpt lat="38.782703" lon="-0.433002">
        <ele>390.146</ele>
        <time>2019-06-16T10:12:22Z</time>
      </trkpt>
      <trkpt lat="38.782632" lon="-0.433046">
        <ele>390.580</ele>
        <time>2019-06-16T10:12:24Z</time>
      </trkpt>
      <trkpt lat="38.782575" lon="-0.433105">
        <ele>391.049</ele>
        <time>2019-06-16T10:12:26Z</time>
      </trkpt>
      <trkpt lat="38.782506" lon="-0.433166">
        <ele>391.462</ele>
        <time>2019-06-16T10:12:28Z</time>
      </trkpt>
      <trkpt lat="38.782424" lon="-0.433216">
        <ele>391.624</ele>
        <time>2019-06-16T10:12:30Z</time>
      </trkpt>
      <trkpt lat="38.782352" lon="-0.433279">
        <ele>391.871</ele>
        <time>2019-06-16T10:12:32Z</time>
      </trkpt>
      <trkpt lat="38.782352" lon="-0.433358">
        <ele>392.120</ele>
        <time>2019-06-16T10:12:33Z</time>
      </trkpt>
      <trkpt lat="38.782268" lon="-0.433410">
        <ele>392.355</ele>
        <time>2019-06-16T10:12:36Z</time>
      </trkpt>
      <trkpt lat="38.782224" lon="-0.433430">
        <ele>392.398</ele>
        <time>2019-06-16T10:12:37Z</time>
      </trkpt>
      <trkpt lat="38.782187" lon="-0.433466">
        <ele>392.415</ele>
        <time>2019-06-16T10:12:38Z</time>
      </trkpt>
      <trkpt lat="38.782103" lon="-0.433517">
        <ele>392.526</ele>
        <time>2019-06-16T10:12:40Z</time>
      </trkpt>
      <trkpt lat="38.782042" lon="-0.433570">
        <ele>392.808</ele>
        <time>2019-06-16T10:12:42Z</time>
      </trkpt>
      <trkpt lat="38.781972" lon="-0.433611">
        <ele>393.072</ele>
        <time>2019-06-16T10:12:44Z</time>
      </trkpt>
      <trkpt lat="38.781924" lon="-0.433602">
        <ele>392.916</ele>
        <time>2019-06-16T10:12:45Z</time>
      </trkpt>
      <trkpt lat="38.781947" lon="-0.433682">
        <ele>393.355</ele>
        <time>2019-06-16T10:12:47Z</time>
      </trkpt>
      <trkpt lat="38.781922" lon="-0.433732">
        <ele>393.398</ele>
        <time>2019-06-16T10:12:49Z</time>
      </trkpt>
      <trkpt lat="38.781882" lon="-0.433780">
        <ele>393.260</ele>
        <time>2019-06-16T10:12:51Z</time>
      </trkpt>
      <trkpt lat="38.781831" lon="-0.433822">
        <ele>393.027</ele>
        <time>2019-06-16T10:12:54Z</time>
      </trkpt>
      <trkpt lat="38.781801" lon="-0.433865">
        <ele>392.916</ele>
        <time>2019-06-16T10:12:58Z</time>
      </trkpt>
      <trkpt lat="38.781785" lon="-0.433774">
        <ele>392.791</ele>
        <time>2019-06-16T10:13:41Z</time>
      </trkpt>
      <trkpt lat="38.781800" lon="-0.433708">
        <ele>392.615</ele>
        <time>2019-06-16T10:13:42Z</time>
      </trkpt>
      <trkpt lat="38.781810" lon="-0.433639">
        <ele>392.665</ele>
        <time>2019-06-16T10:13:45Z</time>
      </trkpt>
      <trkpt lat="38.781792" lon="-0.433539">
        <ele>392.211</ele>
        <time>2019-06-16T10:13:47Z</time>
      </trkpt>
      <trkpt lat="38.781775" lon="-0.433481">
        <ele>392.008</ele>
        <time>2019-06-16T10:13:50Z</time>
      </trkpt>
      <trkpt lat="38.781756" lon="-0.433418">
        <ele>391.994</ele>
        <time>2019-06-16T10:14:00Z</time>
      </trkpt>
      <trkpt lat="38.781720" lon="-0.433382">
        <ele>391.998</ele>
        <time>2019-06-16T10:14:08Z</time>
      </trkpt>
      <trkpt lat="38.781712" lon="-0.433323">
        <ele>391.817</ele>
        <time>2019-06-16T10:14:13Z</time>
      </trkpt>
      <trkpt lat="38.781745" lon="-0.433277">
        <ele>391.530</ele>
        <time>2019-06-16T10:14:25Z</time>
      </trkpt>
      <trkpt lat="38.781771" lon="-0.433325">
        <ele>391.652</ele>
        <time>2019-06-16T10:14:29Z</time>
      </trkpt>
      <trkpt lat="38.781772" lon="-0.433402">
        <ele>391.899</ele>
        <time>2019-06-16T10:14:32Z</time>
      </trkpt>
      <trkpt lat="38.781779" lon="-0.433474">
        <ele>392.098</ele>
        <time>2019-06-16T10:14:35Z</time>
      </trkpt>
      <trkpt lat="38.781782" lon="-0.433544">
        <ele>392.213</ele>
        <time>2019-06-16T10:14:37Z</time>
      </trkpt>
      <trkpt lat="38.781784" lon="-0.433614">
        <ele>392.424</ele>
        <time>2019-06-16T10:14:39Z</time>
      </trkpt>
      <trkpt lat="38.781781" lon="-0.433734">
        <ele>392.604</ele>
        <time>2019-06-16T10:14:40Z</time>
      </trkpt>
      <trkpt lat="38.781779" lon="-0.433808">
        <ele>392.714</ele>
        <time>2019-06-16T10:14:41Z</time>
      </trkpt>
      <trkpt lat="38.781776" lon="-0.433951">
        <ele>393.208</ele>
        <time>2019-06-16T10:14:42Z</time>
      </trkpt>
      <trkpt lat="38.781774" lon="-0.434025">
        <ele>393.795</ele>
        <time>2019-06-16T10:14:43Z</time>
      </trkpt>
      <trkpt lat="38.781773" lon="-0.434084">
        <ele>394.179</ele>
        <time>2019-06-16T10:14:44Z</time>
      </trkpt>
      <trkpt lat="38.781767" lon="-0.434144">
        <ele>394.538</ele>
        <time>2019-06-16T10:14:45Z</time>
      </trkpt>
      <trkpt lat="38.781735" lon="-0.434187">
        <ele>394.931</ele>
        <time>2019-06-16T10:14:46Z</time>
      </trkpt>
      <trkpt lat="38.781754" lon="-0.434279">
        <ele>395.443</ele>
        <time>2019-06-16T10:14:47Z</time>
      </trkpt>
      <trkpt lat="38.781802" lon="-0.434330">
        <ele>395.480</ele>
        <time>2019-06-16T10:14:49Z</time>
      </trkpt>
      <trkpt lat="38.781827" lon="-0.434393">
        <ele>395.689</ele>
        <time>2019-06-16T10:14:50Z</time>
      </trkpt>
      <trkpt lat="38.781831" lon="-0.434476">
        <ele>396.054</ele>
        <time>2019-06-16T10:14:51Z</time>
      </trkpt>
      <trkpt lat="38.781865" lon="-0.434540">
        <ele>396.272</ele>
        <time>2019-06-16T10:14:52Z</time>
      </trkpt>
      <trkpt lat="38.781853" lon="-0.434601">
        <ele>396.613</ele>
        <time>2019-06-16T10:14:53Z</time>
      </trkpt>
      <trkpt lat="38.781821" lon="-0.434668">
        <ele>397.114</ele>
        <time>2019-06-16T10:14:54Z</time>
      </trkpt>
      <trkpt lat="38.781818" lon="-0.434733">
        <ele>397.508</ele>
        <time>2019-06-16T10:14:55Z</time>
      </trkpt>
      <trkpt lat="38.781785" lon="-0.434806">
        <ele>397.710</ele>
        <time>2019-06-16T10:14:56Z</time>
      </trkpt>
      <trkpt lat="38.781793" lon="-0.434867">
        <ele>397.854</ele>
        <time>2019-06-16T10:14:57Z</time>
      </trkpt>
      <trkpt lat="38.781843" lon="-0.434896">
        <ele>397.823</ele>
        <time>2019-06-16T10:14:58Z</time>
      </trkpt>
      <trkpt lat="38.781813" lon="-0.434965">
        <ele>397.966</ele>
        <time>2019-06-16T10:14:59Z</time>
      </trkpt>
      <trkpt lat="38.781798" lon="-0.435035">
        <ele>397.958</ele>
        <time>2019-06-16T10:15:00Z</time>
      </trkpt>
      <trkpt lat="38.781792" lon="-0.435095">
        <ele>397.845</ele>
        <time>2019-06-16T10:15:01Z</time>
      </trkpt>
      <trkpt lat="38.781774" lon="-0.435161">
        <ele>397.824</ele>
        <time>2019-06-16T10:15:02Z</time>
      </trkpt>
      <trkpt lat="38.781751" lon="-0.435254">
        <ele>397.739</ele>
        <time>2019-06-16T10:15:03Z</time>
      </trkpt>
      <trkpt lat="38.781744" lon="-0.435322">
        <ele>397.853</ele>
        <time>2019-06-16T10:15:04Z</time>
      </trkpt>
      <trkpt lat="38.781740" lon="-0.435389">
        <ele>397.804</ele>
        <time>2019-06-16T10:15:05Z</time>
      </trkpt>
      <trkpt lat="38.781752" lon="-0.435473">
        <ele>397.914</ele>
        <time>2019-06-16T10:15:07Z</time>
      </trkpt>
      <trkpt lat="38.781750" lon="-0.435537">
        <ele>398.008</ele>
        <time>2019-06-16T10:15:08Z</time>
      </trkpt>
      <trkpt lat="38.781739" lon="-0.435634">
        <ele>398.328</ele>
        <time>2019-06-16T10:15:10Z</time>
      </trkpt>
      <trkpt lat="38.781723" lon="-0.435726">
        <ele>398.652</ele>
        <time>2019-06-16T10:15:12Z</time>
      </trkpt>
      <trkpt lat="38.781706" lon="-0.435788">
        <ele>398.891</ele>
        <time>2019-06-16T10:15:13Z</time>
      </trkpt>
      <trkpt lat="38.781702" lon="-0.435857">
        <ele>399.174</ele>
        <time>2019-06-16T10:15:14Z</time>
      </trkpt>
      <trkpt lat="38.781691" lon="-0.435971">
        <ele>399.546</ele>
        <time>2019-06-16T10:15:16Z</time>
      </trkpt>
      <trkpt lat="38.781693" lon="-0.436037">
        <ele>399.783</ele>
        <time>2019-06-16T10:15:17Z</time>
      </trkpt>
      <trkpt lat="38.781669" lon="-0.436086">
        <ele>399.942</ele>
        <time>2019-06-16T10:15:18Z</time>
      </trkpt>
      <trkpt lat="38.781649" lon="-0.436141">
        <ele>399.777</ele>
        <time>2019-06-16T10:15:19Z</time>
      </trkpt>
      <trkpt lat="38.781671" lon="-0.436233">
        <ele>399.661</ele>
        <time>2019-06-16T10:15:20Z</time>
      </trkpt>
      <trkpt lat="38.781644" lon="-0.436350">
        <ele>399.021</ele>
        <time>2019-06-16T10:15:22Z</time>
      </trkpt>
      <trkpt lat="38.781635" lon="-0.436441">
        <ele>399.113</ele>
        <time>2019-06-16T10:15:23Z</time>
      </trkpt>
      <trkpt lat="38.781660" lon="-0.436503">
        <ele>399.408</ele>
        <time>2019-06-16T10:15:24Z</time>
      </trkpt>
      <trkpt lat="38.781624" lon="-0.436635">
        <ele>399.799</ele>
        <time>2019-06-16T10:15:26Z</time>
      </trkpt>
      <trkpt lat="38.781547" lon="-0.436744">
        <ele>400.123</ele>
        <time>2019-06-16T10:15:28Z</time>
      </trkpt>
      <trkpt lat="38.781606" lon="-0.436807">
        <ele>400.822</ele>
        <time>2019-06-16T10:15:30Z</time>
      </trkpt>
      <trkpt lat="38.781624" lon="-0.436865">
        <ele>401.315</ele>
        <time>2019-06-16T10:15:31Z</time>
      </trkpt>
      <trkpt lat="38.781536" lon="-0.436868">
        <ele>401.077</ele>
        <time>2019-06-16T10:15:32Z</time>
      </trkpt>
      <trkpt lat="38.781487" lon="-0.436900">
        <ele>401.044</ele>
        <time>2019-06-16T10:15:33Z</time>
      </trkpt>
      <trkpt lat="38.781476" lon="-0.436962">
        <ele>401.473</ele>
        <time>2019-06-16T10:15:34Z</time>
      </trkpt>
      <trkpt lat="38.781468" lon="-0.437023">
        <ele>401.998</ele>
        <time>2019-06-16T10:15:35Z</time>
      </trkpt>
      <trkpt lat="38.781463" lon="-0.437178">
        <ele>402.975</ele>
        <time>2019-06-16T10:15:37Z</time>
      </trkpt>
      <trkpt lat="38.781477" lon="-0.437254">
        <ele>403.528</ele>
        <time>2019-06-16T10:15:39Z</time>
      </trkpt>
      <trkpt lat="38.781475" lon="-0.437330">
        <ele>404.020</ele>
        <time>2019-06-16T10:15:40Z</time>
      </trkpt>
      <trkpt lat="38.781490" lon="-0.437396">
        <ele>404.408</ele>
        <time>2019-06-16T10:15:41Z</time>
      </trkpt>
      <trkpt lat="38.781504" lon="-0.437458">
        <ele>404.810</ele>
        <time>2019-06-16T10:15:42Z</time>
      </trkpt>
      <trkpt lat="38.781506" lon="-0.437519">
        <ele>405.034</ele>
        <time>2019-06-16T10:15:43Z</time>
      </trkpt>
      <trkpt lat="38.781432" lon="-0.437560">
        <ele>405.063</ele>
        <time>2019-06-16T10:15:44Z</time>
      </trkpt>
      <trkpt lat="38.781407" lon="-0.437622">
        <ele>405.026</ele>
        <time>2019-06-16T10:15:46Z</time>
      </trkpt>
      <trkpt lat="38.781359" lon="-0.437688">
        <ele>405.038</ele>
        <time>2019-06-16T10:15:47Z</time>
      </trkpt>
      <trkpt lat="38.781321" lon="-0.437723">
        <ele>405.025</ele>
        <time>2019-06-16T10:15:48Z</time>
      </trkpt>
      <trkpt lat="38.781306" lon="-0.437823">
        <ele>404.844</ele>
        <time>2019-06-16T10:15:50Z</time>
      </trkpt>
      <trkpt lat="38.781335" lon="-0.437882">
        <ele>404.699</ele>
        <time>2019-06-16T10:15:51Z</time>
      </trkpt>
      <trkpt lat="38.781307" lon="-0.437935">
        <ele>404.487</ele>
        <time>2019-06-16T10:15:52Z</time>
      </trkpt>
      <trkpt lat="38.781288" lon="-0.437990">
        <ele>404.242</ele>
        <time>2019-06-16T10:15:53Z</time>
      </trkpt>
      <trkpt lat="38.781244" lon="-0.438044">
        <ele>404.026</ele>
        <time>2019-06-16T10:15:54Z</time>
      </trkpt>
      <trkpt lat="38.781212" lon="-0.438085">
        <ele>404.108</ele>
        <time>2019-06-16T10:15:55Z</time>
      </trkpt>
      <trkpt lat="38.781165" lon="-0.438118">
        <ele>404.211</ele>
        <time>2019-06-16T10:15:56Z</time>
      </trkpt>
      <trkpt lat="38.781129" lon="-0.438166">
        <ele>404.425</ele>
        <time>2019-06-16T10:15:57Z</time>
      </trkpt>
      <trkpt lat="38.781104" lon="-0.438261">
        <ele>404.854</ele>
        <time>2019-06-16T10:15:59Z</time>
      </trkpt>
      <trkpt lat="38.781069" lon="-0.438297">
        <ele>405.037</ele>
        <time>2019-06-16T10:16:00Z</time>
      </trkpt>
      <trkpt lat="38.781052" lon="-0.438383">
        <ele>405.349</ele>
        <time>2019-06-16T10:16:02Z</time>
      </trkpt>
      <trkpt lat="38.781033" lon="-0.438446">
        <ele>405.556</ele>
        <time>2019-06-16T10:16:04Z</time>
      </trkpt>
      <trkpt lat="38.780987" lon="-0.438553">
        <ele>406.295</ele>
        <time>2019-06-16T10:16:06Z</time>
      </trkpt>
      <trkpt lat="38.780980" lon="-0.438627">
        <ele>406.420</ele>
        <time>2019-06-16T10:16:08Z</time>
      </trkpt>
      <trkpt lat="38.780956" lon="-0.438681">
        <ele>406.869</ele>
        <time>2019-06-16T10:16:10Z</time>
      </trkpt>
      <trkpt lat="38.780922" lon="-0.438747">
        <ele>407.204</ele>
        <time>2019-06-16T10:16:12Z</time>
      </trkpt>
      <trkpt lat="38.780870" lon="-0.438842">
        <ele>407.724</ele>
        <time>2019-06-16T10:16:13Z</time>
      </trkpt>
      <trkpt lat="38.780841" lon="-0.438897">
        <ele>407.908</ele>
        <time>2019-06-16T10:16:15Z</time>
      </trkpt>
      <trkpt lat="38.780811" lon="-0.438960">
        <ele>408.159</ele>
        <time>2019-06-16T10:16:17Z</time>
      </trkpt>
      <trkpt lat="38.780788" lon="-0.439035">
        <ele>408.183</ele>
        <time>2019-06-16T10:16:19Z</time>
      </trkpt>
      <trkpt lat="38.780773" lon="-0.439116">
        <ele>408.052</ele>
        <time>2019-06-16T10:16:21Z</time>
      </trkpt>
      <trkpt lat="38.780775" lon="-0.439183">
        <ele>408.065</ele>
        <time>2019-06-16T10:16:23Z</time>
      </trkpt>
      <trkpt lat="38.780789" lon="-0.439264">
        <ele>408.027</ele>
        <time>2019-06-16T10:16:25Z</time>
      </trkpt>
      <trkpt lat="38.780802" lon="-0.439340">
        <ele>408.074</ele>
        <time>2019-06-16T10:16:27Z</time>
      </trkpt>
      <trkpt lat="38.780819" lon="-0.439456">
        <ele>408.153</ele>
        <time>2019-06-16T10:16:28Z</time>
      </trkpt>
      <trkpt lat="38.780821" lon="-0.439516">
        <ele>408.588</ele>
        <time>2019-06-16T10:16:29Z</time>
      </trkpt>
      <trkpt lat="38.780825" lon="-0.439576">
        <ele>408.965</ele>
        <time>2019-06-16T10:16:30Z</time>
      </trkpt>
      <trkpt lat="38.780832" lon="-0.439634">
        <ele>409.468</ele>
        <time>2019-06-16T10:16:31Z</time>
      </trkpt>
      <trkpt lat="38.780852" lon="-0.439742">
        <ele>409.914</ele>
        <time>2019-06-16T10:16:33Z</time>
      </trkpt>
      <trkpt lat="38.780892" lon="-0.439815">
        <ele>410.108</ele>
        <time>2019-06-16T10:16:35Z</time>
      </trkpt>
      <trkpt lat="38.780932" lon="-0.439869">
        <ele>410.219</ele>
        <time>2019-06-16T10:16:37Z</time>
      </trkpt>
      <trkpt lat="38.780969" lon="-0.439922">
        <ele>410.463</ele>
        <time>2019-06-16T10:16:38Z</time>
      </trkpt>
      <trkpt lat="38.781012" lon="-0.440002">
        <ele>411.062</ele>
        <time>2019-06-16T10:16:40Z</time>
      </trkpt>
      <trkpt lat="38.781037" lon="-0.440109">
        <ele>412.295</ele>
        <time>2019-06-16T10:16:42Z</time>
      </trkpt>
      <trkpt lat="38.781055" lon="-0.440215">
        <ele>413.327</ele>
        <time>2019-06-16T10:16:44Z</time>
      </trkpt>
      <trkpt lat="38.781080" lon="-0.440314">
        <ele>414.174</ele>
        <time>2019-06-16T10:16:46Z</time>
      </trkpt>
      <trkpt lat="38.781122" lon="-0.440389">
        <ele>414.313</ele>
        <time>2019-06-16T10:16:48Z</time>
      </trkpt>
      <trkpt lat="38.781137" lon="-0.440443">
        <ele>414.388</ele>
        <time>2019-06-16T10:16:49Z</time>
      </trkpt>
      <trkpt lat="38.781146" lon="-0.440512">
        <ele>414.468</ele>
        <time>2019-06-16T10:16:50Z</time>
      </trkpt>
      <trkpt lat="38.781106" lon="-0.440662">
        <ele>415.042</ele>
        <time>2019-06-16T10:16:51Z</time>
      </trkpt>
      <trkpt lat="38.781119" lon="-0.440745">
        <ele>414.926</ele>
        <time>2019-06-16T10:16:52Z</time>
      </trkpt>
      <trkpt lat="38.781136" lon="-0.440819">
        <ele>414.808</ele>
        <time>2019-06-16T10:16:54Z</time>
      </trkpt>
      <trkpt lat="38.781151" lon="-0.440884">
        <ele>414.859</ele>
        <time>2019-06-16T10:16:56Z</time>
      </trkpt>
      <trkpt lat="38.781175" lon="-0.440937">
        <ele>414.793</ele>
        <time>2019-06-16T10:16:57Z</time>
      </trkpt>
      <trkpt lat="38.781173" lon="-0.440996">
        <ele>414.832</ele>
        <time>2019-06-16T10:16:58Z</time>
      </trkpt>
      <trkpt lat="38.781189" lon="-0.441068">
        <ele>414.935</ele>
        <time>2019-06-16T10:16:59Z</time>
      </trkpt>
      <trkpt lat="38.781224" lon="-0.441144">
        <ele>415.277</ele>
        <time>2019-06-16T10:17:01Z</time>
      </trkpt>
      <trkpt lat="38.781227" lon="-0.441267">
        <ele>416.024</ele>
        <time>2019-06-16T10:17:03Z</time>
      </trkpt>
      <trkpt lat="38.781256" lon="-0.441375">
        <ele>416.943</ele>
        <time>2019-06-16T10:17:05Z</time>
      </trkpt>
      <trkpt lat="38.781248" lon="-0.441453">
        <ele>417.428</ele>
        <time>2019-06-16T10:17:06Z</time>
      </trkpt>
      <trkpt lat="38.781220" lon="-0.441535">
        <ele>417.822</ele>
        <time>2019-06-16T10:17:07Z</time>
      </trkpt>
      <trkpt lat="38.781125" lon="-0.441558">
        <ele>417.362</ele>
        <time>2019-06-16T10:17:11Z</time>
      </trkpt>
      <trkpt lat="38.781125" lon="-0.441558">
        <ele>417.308</ele>
        <time>2019-06-16T10:17:11Z</time>
      </trkpt>
      <trkpt lat="38.781125" lon="-0.441558">
        <ele>417.308</ele>
        <time>2019-06-16T10:17:11Z</time>
      </trkpt>
      <trkpt lat="38.781024" lon="-0.441572">
        <ele>416.515</ele>
        <time>2019-06-16T10:17:14Z</time>
      </trkpt>
      <trkpt lat="38.781024" lon="-0.441572">
        <ele>416.599</ele>
        <time>2019-06-16T10:17:14Z</time>
      </trkpt>
      <trkpt lat="38.781024" lon="-0.441572">
        <ele>416.578</ele>
        <time>2019-06-16T10:17:14Z</time>
      </trkpt>
      <trkpt lat="38.780938" lon="-0.441601">
        <ele>415.881</ele>
        <time>2019-06-16T10:17:16Z</time>
      </trkpt>
      <trkpt lat="38.780938" lon="-0.441601">
        <ele>415.833</ele>
        <time>2019-06-16T10:17:16Z</time>
      </trkpt>
      <trkpt lat="38.780839" lon="-0.441589">
        <ele>414.810</ele>
        <time>2019-06-16T10:17:18Z</time>
      </trkpt>
      <trkpt lat="38.780839" lon="-0.441589">
        <ele>414.859</ele>
        <time>2019-06-16T10:17:18Z</time>
      </trkpt>
      <trkpt lat="38.780730" lon="-0.441576">
        <ele>414.744</ele>
        <time>2019-06-16T10:17:20Z</time>
      </trkpt>
      <trkpt lat="38.780730" lon="-0.441576">
        <ele>414.744</ele>
        <time>2019-06-16T10:17:20Z</time>
      </trkpt>
      <trkpt lat="38.780616" lon="-0.441542">
        <ele>414.605</ele>
        <time>2019-06-16T10:17:22Z</time>
      </trkpt>
      <trkpt lat="38.780616" lon="-0.441542">
        <ele>414.615</ele>
        <time>2019-06-16T10:17:22Z</time>
      </trkpt>
      <trkpt lat="38.780515" lon="-0.441577">
        <ele>414.708</ele>
        <time>2019-06-16T10:17:24Z</time>
      </trkpt>
      <trkpt lat="38.780515" lon="-0.441577">
        <ele>414.767</ele>
        <time>2019-06-16T10:17:24Z</time>
      </trkpt>
      <trkpt lat="38.780461" lon="-0.441589">
        <ele>414.891</ele>
        <time>2019-06-16T10:17:25Z</time>
      </trkpt>
      <trkpt lat="38.780386" lon="-0.441610">
        <ele>414.930</ele>
        <time>2019-06-16T10:17:27Z</time>
      </trkpt>
      <trkpt lat="38.780308" lon="-0.441650">
        <ele>415.073</ele>
        <time>2019-06-16T10:17:29Z</time>
      </trkpt>
      <trkpt lat="38.780195" lon="-0.441702">
        <ele>414.365</ele>
        <time>2019-06-16T10:17:31Z</time>
      </trkpt>
      <trkpt lat="38.780094" lon="-0.441731">
        <ele>413.432</ele>
        <time>2019-06-16T10:17:33Z</time>
      </trkpt>
      <trkpt lat="38.780040" lon="-0.441723">
        <ele>413.171</ele>
        <time>2019-06-16T10:17:34Z</time>
      </trkpt>
      <trkpt lat="38.779983" lon="-0.441723">
        <ele>412.776</ele>
        <time>2019-06-16T10:17:35Z</time>
      </trkpt>
      <trkpt lat="38.779929" lon="-0.441708">
        <ele>412.667</ele>
        <time>2019-06-16T10:17:36Z</time>
      </trkpt>
      <trkpt lat="38.779847" lon="-0.441673">
        <ele>412.481</ele>
        <time>2019-06-16T10:17:38Z</time>
      </trkpt>
      <trkpt lat="38.779800" lon="-0.441662">
        <ele>412.319</ele>
        <time>2019-06-16T10:17:39Z</time>
      </trkpt>
      <trkpt lat="38.779752" lon="-0.441649">
        <ele>412.208</ele>
        <time>2019-06-16T10:17:40Z</time>
      </trkpt>
      <trkpt lat="38.779702" lon="-0.441642">
        <ele>412.269</ele>
        <time>2019-06-16T10:17:41Z</time>
      </trkpt>
      <trkpt lat="38.779616" lon="-0.441637">
        <ele>412.433</ele>
        <time>2019-06-16T10:17:43Z</time>
      </trkpt>
      <trkpt lat="38.779564" lon="-0.441627">
        <ele>412.682</ele>
        <time>2019-06-16T10:17:44Z</time>
      </trkpt>
      <trkpt lat="38.779506" lon="-0.441608">
        <ele>412.875</ele>
        <time>2019-06-16T10:17:45Z</time>
      </trkpt>
      <trkpt lat="38.779456" lon="-0.441594">
        <ele>413.047</ele>
        <time>2019-06-16T10:17:46Z</time>
      </trkpt>
      <trkpt lat="38.779405" lon="-0.441569">
        <ele>413.234</ele>
        <time>2019-06-16T10:17:47Z</time>
      </trkpt>
      <trkpt lat="38.779357" lon="-0.441550">
        <ele>413.483</ele>
        <time>2019-06-16T10:17:48Z</time>
      </trkpt>
      <trkpt lat="38.779306" lon="-0.441541">
        <ele>413.578</ele>
        <time>2019-06-16T10:17:49Z</time>
      </trkpt>
      <trkpt lat="38.779259" lon="-0.441517">
        <ele>413.671</ele>
        <time>2019-06-16T10:17:50Z</time>
      </trkpt>
      <trkpt lat="38.779209" lon="-0.441504">
        <ele>413.741</ele>
        <time>2019-06-16T10:17:51Z</time>
      </trkpt>
      <trkpt lat="38.779107" lon="-0.441502">
        <ele>414.315</ele>
        <time>2019-06-16T10:17:53Z</time>
      </trkpt>
      <trkpt lat="38.779061" lon="-0.441522">
        <ele>414.708</ele>
        <time>2019-06-16T10:17:54Z</time>
      </trkpt>
      <trkpt lat="38.779005" lon="-0.441523">
        <ele>415.110</ele>
        <time>2019-06-16T10:17:55Z</time>
      </trkpt>
      <trkpt lat="38.778959" lon="-0.441497">
        <ele>415.494</ele>
        <time>2019-06-16T10:17:56Z</time>
      </trkpt>
      <trkpt lat="38.778919" lon="-0.441450">
        <ele>415.773</ele>
        <time>2019-06-16T10:17:57Z</time>
      </trkpt>
      <trkpt lat="38.778884" lon="-0.441408">
        <ele>416.026</ele>
        <time>2019-06-16T10:17:58Z</time>
      </trkpt>
      <trkpt lat="38.778843" lon="-0.441378">
        <ele>416.168</ele>
        <time>2019-06-16T10:17:59Z</time>
      </trkpt>
      <trkpt lat="38.778808" lon="-0.441324">
        <ele>416.075</ele>
        <time>2019-06-16T10:18:00Z</time>
      </trkpt>
      <trkpt lat="38.778767" lon="-0.441277">
        <ele>416.094</ele>
        <time>2019-06-16T10:18:01Z</time>
      </trkpt>
      <trkpt lat="38.778725" lon="-0.441181">
        <ele>416.059</ele>
        <time>2019-06-16T10:18:03Z</time>
      </trkpt>
      <trkpt lat="38.778669" lon="-0.441119">
        <ele>416.445</ele>
        <time>2019-06-16T10:18:04Z</time>
      </trkpt>
      <trkpt lat="38.778621" lon="-0.441071">
        <ele>416.747</ele>
        <time>2019-06-16T10:18:05Z</time>
      </trkpt>
      <trkpt lat="38.778565" lon="-0.441029">
        <ele>416.811</ele>
        <time>2019-06-16T10:18:06Z</time>
      </trkpt>
      <trkpt lat="38.778526" lon="-0.440991">
        <ele>416.708</ele>
        <time>2019-06-16T10:18:07Z</time>
      </trkpt>
      <trkpt lat="38.778475" lon="-0.440945">
        <ele>416.657</ele>
        <time>2019-06-16T10:18:08Z</time>
      </trkpt>
      <trkpt lat="38.778425" lon="-0.440912">
        <ele>416.541</ele>
        <time>2019-06-16T10:18:09Z</time>
      </trkpt>
      <trkpt lat="38.778372" lon="-0.440883">
        <ele>416.380</ele>
        <time>2019-06-16T10:18:10Z</time>
      </trkpt>
      <trkpt lat="38.778317" lon="-0.440853">
        <ele>416.193</ele>
        <time>2019-06-16T10:18:11Z</time>
      </trkpt>
      <trkpt lat="38.778271" lon="-0.440789">
        <ele>415.655</ele>
        <time>2019-06-16T10:18:12Z</time>
      </trkpt>
      <trkpt lat="38.778226" lon="-0.440749">
        <ele>415.342</ele>
        <time>2019-06-16T10:18:13Z</time>
      </trkpt>
      <trkpt lat="38.778180" lon="-0.440717">
        <ele>414.931</ele>
        <time>2019-06-16T10:18:14Z</time>
      </trkpt>
      <trkpt lat="38.778117" lon="-0.440669">
        <ele>414.426</ele>
        <time>2019-06-16T10:18:15Z</time>
      </trkpt>
      <trkpt lat="38.778068" lon="-0.440640">
        <ele>413.991</ele>
        <time>2019-06-16T10:18:16Z</time>
      </trkpt>
      <trkpt lat="38.778025" lon="-0.440610">
        <ele>413.681</ele>
        <time>2019-06-16T10:18:17Z</time>
      </trkpt>
      <trkpt lat="38.777971" lon="-0.440572">
        <ele>413.219</ele>
        <time>2019-06-16T10:18:18Z</time>
      </trkpt>
      <trkpt lat="38.777924" lon="-0.440540">
        <ele>412.908</ele>
        <time>2019-06-16T10:18:19Z</time>
      </trkpt>
      <trkpt lat="38.777875" lon="-0.440503">
        <ele>412.892</ele>
        <time>2019-06-16T10:18:20Z</time>
      </trkpt>
      <trkpt lat="38.777825" lon="-0.440464">
        <ele>412.796</ele>
        <time>2019-06-16T10:18:21Z</time>
      </trkpt>
      <trkpt lat="38.777771" lon="-0.440432">
        <ele>412.655</ele>
        <time>2019-06-16T10:18:22Z</time>
      </trkpt>
      <trkpt lat="38.777722" lon="-0.440409">
        <ele>412.618</ele>
        <time>2019-06-16T10:18:23Z</time>
      </trkpt>
      <trkpt lat="38.777677" lon="-0.440377">
        <ele>412.670</ele>
        <time>2019-06-16T10:18:24Z</time>
      </trkpt>
      <trkpt lat="38.777634" lon="-0.440348">
        <ele>412.637</ele>
        <time>2019-06-16T10:18:25Z</time>
      </trkpt>
      <trkpt lat="38.777586" lon="-0.440254">
        <ele>412.846</ele>
        <time>2019-06-16T10:18:27Z</time>
      </trkpt>
      <trkpt lat="38.777554" lon="-0.440169">
        <ele>413.281</ele>
        <time>2019-06-16T10:18:29Z</time>
      </trkpt>
      <trkpt lat="38.777512" lon="-0.440093">
        <ele>413.624</ele>
        <time>2019-06-16T10:18:31Z</time>
      </trkpt>
      <trkpt lat="38.777464" lon="-0.440066">
        <ele>413.904</ele>
        <time>2019-06-16T10:18:32Z</time>
      </trkpt>
      <trkpt lat="38.777418" lon="-0.440037">
        <ele>414.214</ele>
        <time>2019-06-16T10:18:33Z</time>
      </trkpt>
      <trkpt lat="38.777366" lon="-0.440016">
        <ele>414.408</ele>
        <time>2019-06-16T10:18:34Z</time>
      </trkpt>
      <trkpt lat="38.777314" lon="-0.439979">
        <ele>414.895</ele>
        <time>2019-06-16T10:18:35Z</time>
      </trkpt>
      <trkpt lat="38.777258" lon="-0.439947">
        <ele>415.229</ele>
        <time>2019-06-16T10:18:36Z</time>
      </trkpt>
      <trkpt lat="38.777220" lon="-0.439915">
        <ele>415.628</ele>
        <time>2019-06-16T10:18:37Z</time>
      </trkpt>
      <trkpt lat="38.777167" lon="-0.439872">
        <ele>415.791</ele>
        <time>2019-06-16T10:18:38Z</time>
      </trkpt>
      <trkpt lat="38.777099" lon="-0.439835">
        <ele>415.773</ele>
        <time>2019-06-16T10:18:39Z</time>
      </trkpt>
      <trkpt lat="38.777043" lon="-0.439774">
        <ele>415.650</ele>
        <time>2019-06-16T10:18:40Z</time>
      </trkpt>
      <trkpt lat="38.776977" lon="-0.439746">
        <ele>415.219</ele>
        <time>2019-06-16T10:18:41Z</time>
      </trkpt>
      <trkpt lat="38.776931" lon="-0.439708">
        <ele>414.954</ele>
        <time>2019-06-16T10:18:42Z</time>
      </trkpt>
      <trkpt lat="38.776885" lon="-0.439683">
        <ele>414.662</ele>
        <time>2019-06-16T10:18:43Z</time>
      </trkpt>
      <trkpt lat="38.776838" lon="-0.439635">
        <ele>414.383</ele>
        <time>2019-06-16T10:18:44Z</time>
      </trkpt>
      <trkpt lat="38.776788" lon="-0.439581">
        <ele>413.911</ele>
        <time>2019-06-16T10:18:45Z</time>
      </trkpt>
      <trkpt lat="38.776737" lon="-0.439549">
        <ele>413.608</ele>
        <time>2019-06-16T10:18:46Z</time>
      </trkpt>
      <trkpt lat="38.776679" lon="-0.439497">
        <ele>413.259</ele>
        <time>2019-06-16T10:18:47Z</time>
      </trkpt>
      <trkpt lat="38.776630" lon="-0.439462">
        <ele>413.173</ele>
        <time>2019-06-16T10:18:48Z</time>
      </trkpt>
      <trkpt lat="38.776573" lon="-0.439419">
        <ele>413.012</ele>
        <time>2019-06-16T10:18:49Z</time>
      </trkpt>
      <trkpt lat="38.776521" lon="-0.439391">
        <ele>413.055</ele>
        <time>2019-06-16T10:18:50Z</time>
      </trkpt>
      <trkpt lat="38.776469" lon="-0.439357">
        <ele>413.057</ele>
        <time>2019-06-16T10:18:51Z</time>
      </trkpt>
      <trkpt lat="38.776420" lon="-0.439317">
        <ele>413.054</ele>
        <time>2019-06-16T10:18:52Z</time>
      </trkpt>
      <trkpt lat="38.776370" lon="-0.439285">
        <ele>413.063</ele>
        <time>2019-06-16T10:18:53Z</time>
      </trkpt>
      <trkpt lat="38.776322" lon="-0.439244">
        <ele>413.128</ele>
        <time>2019-06-16T10:18:54Z</time>
      </trkpt>
      <trkpt lat="38.776271" lon="-0.439210">
        <ele>413.186</ele>
        <time>2019-06-16T10:18:55Z</time>
      </trkpt>
      <trkpt lat="38.776215" lon="-0.439165">
        <ele>413.060</ele>
        <time>2019-06-16T10:18:56Z</time>
      </trkpt>
      <trkpt lat="38.776158" lon="-0.439132">
        <ele>412.826</ele>
        <time>2019-06-16T10:18:57Z</time>
      </trkpt>
      <trkpt lat="38.776098" lon="-0.439104">
        <ele>412.708</ele>
        <time>2019-06-16T10:18:58Z</time>
      </trkpt>
      <trkpt lat="38.776050" lon="-0.439057">
        <ele>412.861</ele>
        <time>2019-06-16T10:18:59Z</time>
      </trkpt>
      <trkpt lat="38.775999" lon="-0.439017">
        <ele>412.925</ele>
        <time>2019-06-16T10:19:00Z</time>
      </trkpt>
      <trkpt lat="38.775948" lon="-0.438969">
        <ele>412.964</ele>
        <time>2019-06-16T10:19:01Z</time>
      </trkpt>
      <trkpt lat="38.775897" lon="-0.438916">
        <ele>412.857</ele>
        <time>2019-06-16T10:19:02Z</time>
      </trkpt>
      <trkpt lat="38.775849" lon="-0.438876">
        <ele>412.759</ele>
        <time>2019-06-16T10:19:03Z</time>
      </trkpt>
      <trkpt lat="38.775801" lon="-0.438834">
        <ele>412.636</ele>
        <time>2019-06-16T10:19:04Z</time>
      </trkpt>
      <trkpt lat="38.775739" lon="-0.438797">
        <ele>412.775</ele>
        <time>2019-06-16T10:19:05Z</time>
      </trkpt>
      <trkpt lat="38.775690" lon="-0.438760">
        <ele>412.710</ele>
        <time>2019-06-16T10:19:06Z</time>
      </trkpt>
      <trkpt lat="38.775632" lon="-0.438718">
        <ele>412.757</ele>
        <time>2019-06-16T10:19:07Z</time>
      </trkpt>
      <trkpt lat="38.775576" lon="-0.438675">
        <ele>412.700</ele>
        <time>2019-06-16T10:19:08Z</time>
      </trkpt>
      <trkpt lat="38.775522" lon="-0.438625">
        <ele>412.720</ele>
        <time>2019-06-16T10:19:09Z</time>
      </trkpt>
      <trkpt lat="38.775464" lon="-0.438579">
        <ele>413.008</ele>
        <time>2019-06-16T10:19:10Z</time>
      </trkpt>
      <trkpt lat="38.775406" lon="-0.438548">
        <ele>413.548</ele>
        <time>2019-06-16T10:19:11Z</time>
      </trkpt>
      <trkpt lat="38.775350" lon="-0.438500">
        <ele>413.852</ele>
        <time>2019-06-16T10:19:12Z</time>
      </trkpt>
      <trkpt lat="38.775294" lon="-0.438471">
        <ele>414.351</ele>
        <time>2019-06-16T10:19:13Z</time>
      </trkpt>
      <trkpt lat="38.775242" lon="-0.438422">
        <ele>414.564</ele>
        <time>2019-06-16T10:19:14Z</time>
      </trkpt>
      <trkpt lat="38.775188" lon="-0.438392">
        <ele>415.156</ele>
        <time>2019-06-16T10:19:15Z</time>
      </trkpt>
      <trkpt lat="38.775131" lon="-0.438352">
        <ele>415.853</ele>
        <time>2019-06-16T10:19:16Z</time>
      </trkpt>
      <trkpt lat="38.775075" lon="-0.438310">
        <ele>416.352</ele>
        <time>2019-06-16T10:19:17Z</time>
      </trkpt>
      <trkpt lat="38.775019" lon="-0.438285">
        <ele>417.057</ele>
        <time>2019-06-16T10:19:18Z</time>
      </trkpt>
      <trkpt lat="38.774962" lon="-0.438253">
        <ele>416.818</ele>
        <time>2019-06-16T10:19:19Z</time>
      </trkpt>
      <trkpt lat="38.774903" lon="-0.438221">
        <ele>416.398</ele>
        <time>2019-06-16T10:19:20Z</time>
      </trkpt>
      <trkpt lat="38.774850" lon="-0.438184">
        <ele>415.917</ele>
        <time>2019-06-16T10:19:21Z</time>
      </trkpt>
      <trkpt lat="38.774797" lon="-0.438152">
        <ele>415.608</ele>
        <time>2019-06-16T10:19:22Z</time>
      </trkpt>
      <trkpt lat="38.774739" lon="-0.438119">
        <ele>415.474</ele>
        <time>2019-06-16T10:19:23Z</time>
      </trkpt>
      <trkpt lat="38.774690" lon="-0.438101">
        <ele>414.988</ele>
        <time>2019-06-16T10:19:24Z</time>
      </trkpt>
      <trkpt lat="38.774647" lon="-0.438077">
        <ele>414.117</ele>
        <time>2019-06-16T10:19:27Z</time>
      </trkpt>
      <trkpt lat="38.774529" lon="-0.438022">
        <ele>411.830</ele>
        <time>2019-06-16T10:19:50Z</time>
      </trkpt>
      <trkpt lat="38.774447" lon="-0.437987">
        <ele>410.132</ele>
        <time>2019-06-16T10:19:52Z</time>
      </trkpt>
      <trkpt lat="38.774385" lon="-0.437971">
        <ele>409.629</ele>
        <time>2019-06-16T10:19:53Z</time>
      </trkpt>
      <trkpt lat="38.774335" lon="-0.437960">
        <ele>409.228</ele>
        <time>2019-06-16T10:19:54Z</time>
      </trkpt>
      <trkpt lat="38.774241" lon="-0.437928">
        <ele>408.493</ele>
        <time>2019-06-16T10:19:56Z</time>
      </trkpt>
      <trkpt lat="38.774192" lon="-0.437921">
        <ele>408.265</ele>
        <time>2019-06-16T10:19:57Z</time>
      </trkpt>
      <trkpt lat="38.774146" lon="-0.437933">
        <ele>408.368</ele>
        <time>2019-06-16T10:19:58Z</time>
      </trkpt>
      <trkpt lat="38.774095" lon="-0.437935">
        <ele>408.414</ele>
        <time>2019-06-16T10:19:59Z</time>
      </trkpt>
      <trkpt lat="38.774040" lon="-0.437944">
        <ele>408.608</ele>
        <time>2019-06-16T10:20:00Z</time>
      </trkpt>
      <trkpt lat="38.773990" lon="-0.437945">
        <ele>408.799</ele>
        <time>2019-06-16T10:20:01Z</time>
      </trkpt>
      <trkpt lat="38.773942" lon="-0.437946">
        <ele>408.773</ele>
        <time>2019-06-16T10:20:02Z</time>
      </trkpt>
      <trkpt lat="38.773894" lon="-0.437948">
        <ele>408.852</ele>
        <time>2019-06-16T10:20:03Z</time>
      </trkpt>
      <trkpt lat="38.773813" lon="-0.437956">
        <ele>408.885</ele>
        <time>2019-06-16T10:20:05Z</time>
      </trkpt>
      <trkpt lat="38.773764" lon="-0.437954">
        <ele>408.797</ele>
        <time>2019-06-16T10:20:06Z</time>
      </trkpt>
      <trkpt lat="38.773710" lon="-0.437950">
        <ele>408.654</ele>
        <time>2019-06-16T10:20:07Z</time>
      </trkpt>
      <trkpt lat="38.773663" lon="-0.437960">
        <ele>408.723</ele>
        <time>2019-06-16T10:20:08Z</time>
      </trkpt>
      <trkpt lat="38.773606" lon="-0.437957">
        <ele>408.658</ele>
        <time>2019-06-16T10:20:09Z</time>
      </trkpt>
      <trkpt lat="38.773550" lon="-0.437958">
        <ele>408.787</ele>
        <time>2019-06-16T10:20:10Z</time>
      </trkpt>
      <trkpt lat="38.773484" lon="-0.437939">
        <ele>408.642</ele>
        <time>2019-06-16T10:20:11Z</time>
      </trkpt>
      <trkpt lat="38.773421" lon="-0.437921">
        <ele>408.426</ele>
        <time>2019-06-16T10:20:12Z</time>
      </trkpt>
      <trkpt lat="38.773353" lon="-0.437930">
        <ele>408.708</ele>
        <time>2019-06-16T10:20:13Z</time>
      </trkpt>
      <trkpt lat="38.773298" lon="-0.437933">
        <ele>409.261</ele>
        <time>2019-06-16T10:20:14Z</time>
      </trkpt>
      <trkpt lat="38.773249" lon="-0.437930">
        <ele>409.785</ele>
        <time>2019-06-16T10:20:15Z</time>
      </trkpt>
      <trkpt lat="38.773190" lon="-0.437927">
        <ele>410.274</ele>
        <time>2019-06-16T10:20:16Z</time>
      </trkpt>
      <trkpt lat="38.773108" lon="-0.437967">
        <ele>411.837</ele>
        <time>2019-06-16T10:20:18Z</time>
      </trkpt>
      <trkpt lat="38.773055" lon="-0.437966">
        <ele>412.439</ele>
        <time>2019-06-16T10:20:19Z</time>
      </trkpt>
      <trkpt lat="38.772992" lon="-0.437956">
        <ele>412.396</ele>
        <time>2019-06-16T10:20:20Z</time>
      </trkpt>
      <trkpt lat="38.772944" lon="-0.437951">
        <ele>412.375</ele>
        <time>2019-06-16T10:20:21Z</time>
      </trkpt>
      <trkpt lat="38.772885" lon="-0.437936">
        <ele>412.170</ele>
        <time>2019-06-16T10:20:22Z</time>
      </trkpt>
      <trkpt lat="38.772845" lon="-0.437979">
        <ele>412.825</ele>
        <time>2019-06-16T10:20:23Z</time>
      </trkpt>
      <trkpt lat="38.772786" lon="-0.437971">
        <ele>412.826</ele>
        <time>2019-06-16T10:20:24Z</time>
      </trkpt>
      <trkpt lat="38.772737" lon="-0.437971">
        <ele>412.808</ele>
        <time>2019-06-16T10:20:25Z</time>
      </trkpt>
      <trkpt lat="38.772669" lon="-0.437975">
        <ele>412.808</ele>
        <time>2019-06-16T10:20:27Z</time>
      </trkpt>
      <trkpt lat="38.772623" lon="-0.437959">
        <ele>412.655</ele>
        <time>2019-06-16T10:20:28Z</time>
      </trkpt>
      <trkpt lat="38.772558" lon="-0.437934">
        <ele>412.249</ele>
        <time>2019-06-16T10:20:29Z</time>
      </trkpt>
      <trkpt lat="38.772503" lon="-0.437936">
        <ele>412.338</ele>
        <time>2019-06-16T10:20:30Z</time>
      </trkpt>
      <trkpt lat="38.772450" lon="-0.437934">
        <ele>412.471</ele>
        <time>2019-06-16T10:20:31Z</time>
      </trkpt>
      <trkpt lat="38.772402" lon="-0.437933">
        <ele>412.663</ele>
        <time>2019-06-16T10:20:32Z</time>
      </trkpt>
      <trkpt lat="38.772343" lon="-0.437927">
        <ele>412.730</ele>
        <time>2019-06-16T10:20:33Z</time>
      </trkpt>
      <trkpt lat="38.772295" lon="-0.437937">
        <ele>413.039</ele>
        <time>2019-06-16T10:20:34Z</time>
      </trkpt>
      <trkpt lat="38.772249" lon="-0.437937">
        <ele>413.264</ele>
        <time>2019-06-16T10:20:35Z</time>
      </trkpt>
      <trkpt lat="38.772173" lon="-0.437941">
        <ele>413.649</ele>
        <time>2019-06-16T10:20:37Z</time>
      </trkpt>
      <trkpt lat="38.772093" lon="-0.437938">
        <ele>414.002</ele>
        <time>2019-06-16T10:20:39Z</time>
      </trkpt>
      <trkpt lat="38.772023" lon="-0.437925">
        <ele>414.222</ele>
        <time>2019-06-16T10:20:41Z</time>
      </trkpt>
      <trkpt lat="38.771939" lon="-0.437931">
        <ele>414.608</ele>
        <time>2019-06-16T10:20:43Z</time>
      </trkpt>
      <trkpt lat="38.771873" lon="-0.437929">
        <ele>413.637</ele>
        <time>2019-06-16T10:20:46Z</time>
      </trkpt>
      <trkpt lat="38.771782" lon="-0.437923">
        <ele>412.261</ele>
        <time>2019-06-16T10:20:48Z</time>
      </trkpt>
      <trkpt lat="38.771703" lon="-0.437926">
        <ele>411.140</ele>
        <time>2019-06-16T10:20:50Z</time>
      </trkpt>
      <trkpt lat="38.771622" lon="-0.437921">
        <ele>410.393</ele>
        <time>2019-06-16T10:20:52Z</time>
      </trkpt>
      <trkpt lat="38.771558" lon="-0.437911">
        <ele>409.955</ele>
        <time>2019-06-16T10:20:54Z</time>
      </trkpt>
      <trkpt lat="38.771500" lon="-0.437901">
        <ele>409.562</ele>
        <time>2019-06-16T10:20:57Z</time>
      </trkpt>
      <trkpt lat="38.771429" lon="-0.437894">
        <ele>409.191</ele>
        <time>2019-06-16T10:21:00Z</time>
      </trkpt>
      <trkpt lat="38.771361" lon="-0.437877">
        <ele>408.966</ele>
        <time>2019-06-16T10:21:02Z</time>
      </trkpt>
      <trkpt lat="38.771154" lon="-0.437820">
        <ele>409.354</ele>
        <time>2019-06-16T10:21:03Z</time>
      </trkpt>
      <trkpt lat="38.771097" lon="-0.437819">
        <ele>409.556</ele>
        <time>2019-06-16T10:21:04Z</time>
      </trkpt>
      <trkpt lat="38.771047" lon="-0.437794">
        <ele>409.611</ele>
        <time>2019-06-16T10:21:05Z</time>
      </trkpt>
      <trkpt lat="38.771002" lon="-0.437771">
        <ele>409.808</ele>
        <time>2019-06-16T10:21:06Z</time>
      </trkpt>
      <trkpt lat="38.770946" lon="-0.437754">
        <ele>410.138</ele>
        <time>2019-06-16T10:21:07Z</time>
      </trkpt>
      <trkpt lat="38.770895" lon="-0.437723">
        <ele>410.512</ele>
        <time>2019-06-16T10:21:08Z</time>
      </trkpt>
      <trkpt lat="38.770844" lon="-0.437689">
        <ele>410.911</ele>
        <time>2019-06-16T10:21:09Z</time>
      </trkpt>
      <trkpt lat="38.770792" lon="-0.437666">
        <ele>411.244</ele>
        <time>2019-06-16T10:21:10Z</time>
      </trkpt>
      <trkpt lat="38.770742" lon="-0.437639">
        <ele>411.326</ele>
        <time>2019-06-16T10:21:11Z</time>
      </trkpt>
      <trkpt lat="38.770690" lon="-0.437605">
        <ele>411.473</ele>
        <time>2019-06-16T10:21:12Z</time>
      </trkpt>
      <trkpt lat="38.770637" lon="-0.437567">
        <ele>411.312</ele>
        <time>2019-06-16T10:21:13Z</time>
      </trkpt>
      <trkpt lat="38.770585" lon="-0.437528">
        <ele>411.257</ele>
        <time>2019-06-16T10:21:14Z</time>
      </trkpt>
      <trkpt lat="38.770534" lon="-0.437490">
        <ele>410.968</ele>
        <time>2019-06-16T10:21:15Z</time>
      </trkpt>
      <trkpt lat="38.770481" lon="-0.437457">
        <ele>410.442</ele>
        <time>2019-06-16T10:21:16Z</time>
      </trkpt>
      <trkpt lat="38.770423" lon="-0.437441">
        <ele>410.326</ele>
        <time>2019-06-16T10:21:17Z</time>
      </trkpt>
      <trkpt lat="38.770375" lon="-0.437400">
        <ele>409.808</ele>
        <time>2019-06-16T10:21:18Z</time>
      </trkpt>
      <trkpt lat="38.770328" lon="-0.437360">
        <ele>409.469</ele>
        <time>2019-06-16T10:21:19Z</time>
      </trkpt>
      <trkpt lat="38.770270" lon="-0.437326">
        <ele>409.273</ele>
        <time>2019-06-16T10:21:20Z</time>
      </trkpt>
      <trkpt lat="38.770217" lon="-0.437297">
        <ele>409.592</ele>
        <time>2019-06-16T10:21:21Z</time>
      </trkpt>
      <trkpt lat="38.770159" lon="-0.437244">
        <ele>409.515</ele>
        <time>2019-06-16T10:21:22Z</time>
      </trkpt>
      <trkpt lat="38.770107" lon="-0.437205">
        <ele>409.637</ele>
        <time>2019-06-16T10:21:23Z</time>
      </trkpt>
      <trkpt lat="38.770052" lon="-0.437163">
        <ele>409.814</ele>
        <time>2019-06-16T10:21:24Z</time>
      </trkpt>
      <trkpt lat="38.769998" lon="-0.437129">
        <ele>410.023</ele>
        <time>2019-06-16T10:21:25Z</time>
      </trkpt>
      <trkpt lat="38.769943" lon="-0.437096">
        <ele>410.538</ele>
        <time>2019-06-16T10:21:26Z</time>
      </trkpt>
      <trkpt lat="38.769882" lon="-0.437056">
        <ele>410.895</ele>
        <time>2019-06-16T10:21:27Z</time>
      </trkpt>
      <trkpt lat="38.769818" lon="-0.437026">
        <ele>411.249</ele>
        <time>2019-06-16T10:21:28Z</time>
      </trkpt>
      <trkpt lat="38.769768" lon="-0.436997">
        <ele>411.423</ele>
        <time>2019-06-16T10:21:29Z</time>
      </trkpt>
      <trkpt lat="38.769719" lon="-0.436962">
        <ele>411.308</ele>
        <time>2019-06-16T10:21:30Z</time>
      </trkpt>
      <trkpt lat="38.769661" lon="-0.436927">
        <ele>410.932</ele>
        <time>2019-06-16T10:21:31Z</time>
      </trkpt>
      <trkpt lat="38.769602" lon="-0.436913">
        <ele>410.856</ele>
        <time>2019-06-16T10:21:32Z</time>
      </trkpt>
      <trkpt lat="38.769543" lon="-0.436897">
        <ele>410.745</ele>
        <time>2019-06-16T10:21:33Z</time>
      </trkpt>
      <trkpt lat="38.769486" lon="-0.436880">
        <ele>410.518</ele>
        <time>2019-06-16T10:21:34Z</time>
      </trkpt>
      <trkpt lat="38.769426" lon="-0.436863">
        <ele>410.380</ele>
        <time>2019-06-16T10:21:35Z</time>
      </trkpt>
      <trkpt lat="38.769369" lon="-0.436865">
        <ele>410.627</ele>
        <time>2019-06-16T10:21:36Z</time>
      </trkpt>
      <trkpt lat="38.769313" lon="-0.436853">
        <ele>410.586</ele>
        <time>2019-06-16T10:21:37Z</time>
      </trkpt>
      <trkpt lat="38.769255" lon="-0.436845">
        <ele>410.511</ele>
        <time>2019-06-16T10:21:38Z</time>
      </trkpt>
      <trkpt lat="38.769180" lon="-0.436855">
        <ele>411.089</ele>
        <time>2019-06-16T10:21:39Z</time>
      </trkpt>
      <trkpt lat="38.769118" lon="-0.436850">
        <ele>410.706</ele>
        <time>2019-06-16T10:21:40Z</time>
      </trkpt>
      <trkpt lat="38.769058" lon="-0.436864">
        <ele>410.626</ele>
        <time>2019-06-16T10:21:41Z</time>
      </trkpt>
      <trkpt lat="38.768997" lon="-0.436867">
        <ele>410.308</ele>
        <time>2019-06-16T10:21:42Z</time>
      </trkpt>
      <trkpt lat="38.768939" lon="-0.436875">
        <ele>410.171</ele>
        <time>2019-06-16T10:21:43Z</time>
      </trkpt>
      <trkpt lat="38.768881" lon="-0.436876">
        <ele>409.785</ele>
        <time>2019-06-16T10:21:44Z</time>
      </trkpt>
      <trkpt lat="38.768831" lon="-0.436880">
        <ele>409.664</ele>
        <time>2019-06-16T10:21:45Z</time>
      </trkpt>
      <trkpt lat="38.768787" lon="-0.436901">
        <ele>409.867</ele>
        <time>2019-06-16T10:21:46Z</time>
      </trkpt>
      <trkpt lat="38.768732" lon="-0.436912">
        <ele>409.849</ele>
        <time>2019-06-16T10:21:47Z</time>
      </trkpt>
      <trkpt lat="38.768680" lon="-0.436929">
        <ele>409.976</ele>
        <time>2019-06-16T10:21:48Z</time>
      </trkpt>
      <trkpt lat="38.768624" lon="-0.436941">
        <ele>410.015</ele>
        <time>2019-06-16T10:21:49Z</time>
      </trkpt>
      <trkpt lat="38.768563" lon="-0.436963">
        <ele>409.880</ele>
        <time>2019-06-16T10:21:50Z</time>
      </trkpt>
      <trkpt lat="38.768507" lon="-0.436997">
        <ele>409.741</ele>
        <time>2019-06-16T10:21:51Z</time>
      </trkpt>
      <trkpt lat="38.768454" lon="-0.437032">
        <ele>409.781</ele>
        <time>2019-06-16T10:21:52Z</time>
      </trkpt>
      <trkpt lat="38.768406" lon="-0.437059">
        <ele>409.709</ele>
        <time>2019-06-16T10:21:53Z</time>
      </trkpt>
      <trkpt lat="38.768358" lon="-0.437077">
        <ele>409.608</ele>
        <time>2019-06-16T10:21:54Z</time>
      </trkpt>
      <trkpt lat="38.768305" lon="-0.437114">
        <ele>409.697</ele>
        <time>2019-06-16T10:21:55Z</time>
      </trkpt>
      <trkpt lat="38.768257" lon="-0.437150">
        <ele>409.381</ele>
        <time>2019-06-16T10:21:56Z</time>
      </trkpt>
      <trkpt lat="38.768205" lon="-0.437179">
        <ele>408.730</ele>
        <time>2019-06-16T10:21:57Z</time>
      </trkpt>
      <trkpt lat="38.768160" lon="-0.437211">
        <ele>408.143</ele>
        <time>2019-06-16T10:21:58Z</time>
      </trkpt>
      <trkpt lat="38.768103" lon="-0.437236">
        <ele>407.155</ele>
        <time>2019-06-16T10:21:59Z</time>
      </trkpt>
      <trkpt lat="38.768053" lon="-0.437266">
        <ele>406.362</ele>
        <time>2019-06-16T10:22:00Z</time>
      </trkpt>
      <trkpt lat="38.768008" lon="-0.437298">
        <ele>405.861</ele>
        <time>2019-06-16T10:22:01Z</time>
      </trkpt>
      <trkpt lat="38.767964" lon="-0.437315">
        <ele>405.246</ele>
        <time>2019-06-16T10:22:02Z</time>
      </trkpt>
      <trkpt lat="38.767878" lon="-0.437350">
        <ele>404.162</ele>
        <time>2019-06-16T10:22:04Z</time>
      </trkpt>
      <trkpt lat="38.767829" lon="-0.437375">
        <ele>403.483</ele>
        <time>2019-06-16T10:22:05Z</time>
      </trkpt>
      <trkpt lat="38.767749" lon="-0.437403">
        <ele>402.511</ele>
        <time>2019-06-16T10:22:07Z</time>
      </trkpt>
      <trkpt lat="38.767803" lon="-0.437434">
        <ele>403.208</ele>
        <time>2019-06-16T10:22:26Z</time>
      </trkpt>
      <trkpt lat="38.767641" lon="-0.437419">
        <ele>402.269</ele>
        <time>2019-06-16T10:26:13Z</time>
      </trkpt>
      <trkpt lat="38.767571" lon="-0.437447">
        <ele>402.163</ele>
        <time>2019-06-16T10:26:15Z</time>
      </trkpt>
      <trkpt lat="38.767486" lon="-0.437471">
        <ele>402.022</ele>
        <time>2019-06-16T10:26:17Z</time>
      </trkpt>
      <trkpt lat="38.767441" lon="-0.437478">
        <ele>402.375</ele>
        <time>2019-06-16T10:26:18Z</time>
      </trkpt>
      <trkpt lat="38.767390" lon="-0.437481">
        <ele>402.757</ele>
        <time>2019-06-16T10:26:19Z</time>
      </trkpt>
      <trkpt lat="38.767344" lon="-0.437485">
        <ele>403.114</ele>
        <time>2019-06-16T10:26:20Z</time>
      </trkpt>
      <trkpt lat="38.767262" lon="-0.437488">
        <ele>403.733</ele>
        <time>2019-06-16T10:26:22Z</time>
      </trkpt>
      <trkpt lat="38.767182" lon="-0.437485">
        <ele>404.438</ele>
        <time>2019-06-16T10:26:24Z</time>
      </trkpt>
      <trkpt lat="38.767097" lon="-0.437477">
        <ele>405.386</ele>
        <time>2019-06-16T10:26:26Z</time>
      </trkpt>
      <trkpt lat="38.767045" lon="-0.437470">
        <ele>405.860</ele>
        <time>2019-06-16T10:26:28Z</time>
      </trkpt>
      <trkpt lat="38.766989" lon="-0.437464">
        <ele>406.426</ele>
        <time>2019-06-16T10:26:30Z</time>
      </trkpt>
      <trkpt lat="38.766939" lon="-0.437460">
        <ele>406.908</ele>
        <time>2019-06-16T10:26:32Z</time>
      </trkpt>
      <trkpt lat="38.766894" lon="-0.437468">
        <ele>407.661</ele>
        <time>2019-06-16T10:31:01Z</time>
      </trkpt>
      <trkpt lat="38.766843" lon="-0.437454">
        <ele>408.275</ele>
        <time>2019-06-16T10:32:27Z</time>
      </trkpt>
      <trkpt lat="38.766786" lon="-0.437430">
        <ele>408.944</ele>
        <time>2019-06-16T10:32:30Z</time>
      </trkpt>
      <trkpt lat="38.766614" lon="-0.437361">
        <ele>410.587</ele>
        <time>2019-06-16T10:32:32Z</time>
      </trkpt>
      <trkpt lat="38.766534" lon="-0.437321">
        <ele>411.059</ele>
        <time>2019-06-16T10:32:34Z</time>
      </trkpt>
      <trkpt lat="38.766464" lon="-0.437263">
        <ele>411.446</ele>
        <time>2019-06-16T10:32:36Z</time>
      </trkpt>
      <trkpt lat="38.766394" lon="-0.437236">
        <ele>412.045</ele>
        <time>2019-06-16T10:32:38Z</time>
      </trkpt>
      <trkpt lat="38.766351" lon="-0.437218">
        <ele>411.820</ele>
        <time>2019-06-16T10:32:39Z</time>
      </trkpt>
      <trkpt lat="38.766303" lon="-0.437197">
        <ele>411.411</ele>
        <time>2019-06-16T10:32:40Z</time>
      </trkpt>
      <trkpt lat="38.766249" lon="-0.437173">
        <ele>410.921</ele>
        <time>2019-06-16T10:32:43Z</time>
      </trkpt>
      <trkpt lat="38.766196" lon="-0.437144">
        <ele>410.403</ele>
        <time>2019-06-16T10:32:45Z</time>
      </trkpt>
      <trkpt lat="38.766102" lon="-0.437076">
        <ele>409.508</ele>
        <time>2019-06-16T10:32:46Z</time>
      </trkpt>
      <trkpt lat="38.766050" lon="-0.437042">
        <ele>409.784</ele>
        <time>2019-06-16T10:32:47Z</time>
      </trkpt>
      <trkpt lat="38.766000" lon="-0.437007">
        <ele>409.928</ele>
        <time>2019-06-16T10:32:48Z</time>
      </trkpt>
      <trkpt lat="38.765945" lon="-0.436979">
        <ele>410.287</ele>
        <time>2019-06-16T10:32:49Z</time>
      </trkpt>
      <trkpt lat="38.765895" lon="-0.436954">
        <ele>410.450</ele>
        <time>2019-06-16T10:32:50Z</time>
      </trkpt>
      <trkpt lat="38.765845" lon="-0.436926">
        <ele>410.832</ele>
        <time>2019-06-16T10:32:51Z</time>
      </trkpt>
      <trkpt lat="38.765793" lon="-0.436894">
        <ele>411.149</ele>
        <time>2019-06-16T10:32:52Z</time>
      </trkpt>
      <trkpt lat="38.765701" lon="-0.436822">
        <ele>411.588</ele>
        <time>2019-06-16T10:32:53Z</time>
      </trkpt>
      <trkpt lat="38.765651" lon="-0.436796">
        <ele>411.823</ele>
        <time>2019-06-16T10:32:54Z</time>
      </trkpt>
      <trkpt lat="38.765606" lon="-0.436767">
        <ele>412.071</ele>
        <time>2019-06-16T10:32:55Z</time>
      </trkpt>
      <trkpt lat="38.765560" lon="-0.436747">
        <ele>412.341</ele>
        <time>2019-06-16T10:32:56Z</time>
      </trkpt>
      <trkpt lat="38.765513" lon="-0.436728">
        <ele>412.215</ele>
        <time>2019-06-16T10:32:57Z</time>
      </trkpt>
      <trkpt lat="38.765455" lon="-0.436704">
        <ele>411.908</ele>
        <time>2019-06-16T10:32:58Z</time>
      </trkpt>
      <trkpt lat="38.765406" lon="-0.436684">
        <ele>411.660</ele>
        <time>2019-06-16T10:32:59Z</time>
      </trkpt>
      <trkpt lat="38.765303" lon="-0.436675">
        <ele>411.234</ele>
        <time>2019-06-16T10:33:01Z</time>
      </trkpt>
      <trkpt lat="38.765231" lon="-0.436651">
        <ele>411.173</ele>
        <time>2019-06-16T10:33:03Z</time>
      </trkpt>
      <trkpt lat="38.765157" lon="-0.436635">
        <ele>411.456</ele>
        <time>2019-06-16T10:33:05Z</time>
      </trkpt>
      <trkpt lat="38.765069" lon="-0.436618">
        <ele>411.798</ele>
        <time>2019-06-16T10:33:07Z</time>
      </trkpt>
      <trkpt lat="38.765023" lon="-0.436623">
        <ele>412.165</ele>
        <time>2019-06-16T10:33:08Z</time>
      </trkpt>
      <trkpt lat="38.764968" lon="-0.436616">
        <ele>412.294</ele>
        <time>2019-06-16T10:33:09Z</time>
      </trkpt>
      <trkpt lat="38.764903" lon="-0.436623">
        <ele>412.659</ele>
        <time>2019-06-16T10:33:10Z</time>
      </trkpt>
      <trkpt lat="38.764857" lon="-0.436607">
        <ele>412.636</ele>
        <time>2019-06-16T10:33:11Z</time>
      </trkpt>
      <trkpt lat="38.764811" lon="-0.436617">
        <ele>412.917</ele>
        <time>2019-06-16T10:33:12Z</time>
      </trkpt>
      <trkpt lat="38.764764" lon="-0.436631">
        <ele>413.318</ele>
        <time>2019-06-16T10:33:13Z</time>
      </trkpt>
      <trkpt lat="38.764673" lon="-0.436638">
        <ele>413.608</ele>
        <time>2019-06-16T10:33:15Z</time>
      </trkpt>
      <trkpt lat="38.764622" lon="-0.436640">
        <ele>413.746</ele>
        <time>2019-06-16T10:33:16Z</time>
      </trkpt>
      <trkpt lat="38.764565" lon="-0.436640">
        <ele>413.760</ele>
        <time>2019-06-16T10:33:17Z</time>
      </trkpt>
      <trkpt lat="38.764514" lon="-0.436646">
        <ele>413.829</ele>
        <time>2019-06-16T10:33:18Z</time>
      </trkpt>
      <trkpt lat="38.764423" lon="-0.436654">
        <ele>414.092</ele>
        <time>2019-06-16T10:33:20Z</time>
      </trkpt>
      <trkpt lat="38.764372" lon="-0.436659">
        <ele>414.224</ele>
        <time>2019-06-16T10:33:21Z</time>
      </trkpt>
      <trkpt lat="38.764317" lon="-0.436656">
        <ele>414.471</ele>
        <time>2019-06-16T10:33:22Z</time>
      </trkpt>
      <trkpt lat="38.764269" lon="-0.436655">
        <ele>414.550</ele>
        <time>2019-06-16T10:33:23Z</time>
      </trkpt>
      <trkpt lat="38.764219" lon="-0.436658">
        <ele>414.715</ele>
        <time>2019-06-16T10:33:24Z</time>
      </trkpt>
      <trkpt lat="38.764164" lon="-0.436655">
        <ele>414.969</ele>
        <time>2019-06-16T10:33:25Z</time>
      </trkpt>
      <trkpt lat="38.764116" lon="-0.436662">
        <ele>414.604</ele>
        <time>2019-06-16T10:33:26Z</time>
      </trkpt>
      <trkpt lat="38.764065" lon="-0.436661">
        <ele>414.224</ele>
        <time>2019-06-16T10:33:27Z</time>
      </trkpt>
      <trkpt lat="38.764011" lon="-0.436660">
        <ele>413.808</ele>
        <time>2019-06-16T10:33:28Z</time>
      </trkpt>
      <trkpt lat="38.763959" lon="-0.436662">
        <ele>413.579</ele>
        <time>2019-06-16T10:33:29Z</time>
      </trkpt>
      <trkpt lat="38.763907" lon="-0.436651">
        <ele>413.073</ele>
        <time>2019-06-16T10:33:30Z</time>
      </trkpt>
      <trkpt lat="38.763853" lon="-0.436650">
        <ele>413.392</ele>
        <time>2019-06-16T10:33:31Z</time>
      </trkpt>
      <trkpt lat="38.763807" lon="-0.436647">
        <ele>413.865</ele>
        <time>2019-06-16T10:33:32Z</time>
      </trkpt>
      <trkpt lat="38.763755" lon="-0.436642">
        <ele>414.467</ele>
        <time>2019-06-16T10:33:33Z</time>
      </trkpt>
      <trkpt lat="38.763708" lon="-0.436642">
        <ele>414.924</ele>
        <time>2019-06-16T10:33:34Z</time>
      </trkpt>
      <trkpt lat="38.763621" lon="-0.436640">
        <ele>415.913</ele>
        <time>2019-06-16T10:33:36Z</time>
      </trkpt>
      <trkpt lat="38.763574" lon="-0.436641">
        <ele>416.118</ele>
        <time>2019-06-16T10:33:37Z</time>
      </trkpt>
      <trkpt lat="38.763524" lon="-0.436641">
        <ele>416.313</ele>
        <time>2019-06-16T10:33:38Z</time>
      </trkpt>
      <trkpt lat="38.763477" lon="-0.436633">
        <ele>416.543</ele>
        <time>2019-06-16T10:33:39Z</time>
      </trkpt>
      <trkpt lat="38.763424" lon="-0.436619">
        <ele>416.707</ele>
        <time>2019-06-16T10:33:40Z</time>
      </trkpt>
      <trkpt lat="38.763378" lon="-0.436611">
        <ele>416.808</ele>
        <time>2019-06-16T10:33:41Z</time>
      </trkpt>
      <trkpt lat="38.763328" lon="-0.436609">
        <ele>417.034</ele>
        <time>2019-06-16T10:33:42Z</time>
      </trkpt>
      <trkpt lat="38.763276" lon="-0.436611">
        <ele>416.688</ele>
        <time>2019-06-16T10:33:43Z</time>
      </trkpt>
      <trkpt lat="38.763187" lon="-0.436599">
        <ele>416.147</ele>
        <time>2019-06-16T10:33:45Z</time>
      </trkpt>
      <trkpt lat="38.763136" lon="-0.436598">
        <ele>415.810</ele>
        <time>2019-06-16T10:33:46Z</time>
      </trkpt>
      <trkpt lat="38.763079" lon="-0.436582">
        <ele>415.482</ele>
        <time>2019-06-16T10:33:47Z</time>
      </trkpt>
      <trkpt lat="38.763009" lon="-0.436586">
        <ele>415.349</ele>
        <time>2019-06-16T10:33:48Z</time>
      </trkpt>
      <trkpt lat="38.762964" lon="-0.436585">
        <ele>415.318</ele>
        <time>2019-06-16T10:33:49Z</time>
      </trkpt>
      <trkpt lat="38.762917" lon="-0.436588">
        <ele>415.323</ele>
        <time>2019-06-16T10:33:50Z</time>
      </trkpt>
      <trkpt lat="38.762861" lon="-0.436582">
        <ele>415.336</ele>
        <time>2019-06-16T10:33:51Z</time>
      </trkpt>
      <trkpt lat="38.762766" lon="-0.436581">
        <ele>415.317</ele>
        <time>2019-06-16T10:33:53Z</time>
      </trkpt>
      <trkpt lat="38.762720" lon="-0.436570">
        <ele>415.218</ele>
        <time>2019-06-16T10:33:54Z</time>
      </trkpt>
      <trkpt lat="38.762668" lon="-0.436563">
        <ele>415.108</ele>
        <time>2019-06-16T10:33:55Z</time>
      </trkpt>
      <trkpt lat="38.762616" lon="-0.436560">
        <ele>415.026</ele>
        <time>2019-06-16T10:33:56Z</time>
      </trkpt>
      <trkpt lat="38.762564" lon="-0.436560">
        <ele>414.930</ele>
        <time>2019-06-16T10:33:57Z</time>
      </trkpt>
      <trkpt lat="38.762519" lon="-0.436565">
        <ele>414.899</ele>
        <time>2019-06-16T10:33:58Z</time>
      </trkpt>
      <trkpt lat="38.762466" lon="-0.436562">
        <ele>414.642</ele>
        <time>2019-06-16T10:33:59Z</time>
      </trkpt>
      <trkpt lat="38.762415" lon="-0.436558">
        <ele>414.414</ele>
        <time>2019-06-16T10:34:00Z</time>
      </trkpt>
      <trkpt lat="38.762351" lon="-0.436555">
        <ele>414.141</ele>
        <time>2019-06-16T10:34:01Z</time>
      </trkpt>
      <trkpt lat="38.762298" lon="-0.436557">
        <ele>413.830</ele>
        <time>2019-06-16T10:34:02Z</time>
      </trkpt>
      <trkpt lat="38.762243" lon="-0.436554">
        <ele>413.595</ele>
        <time>2019-06-16T10:34:03Z</time>
      </trkpt>
      <trkpt lat="38.762191" lon="-0.436560">
        <ele>413.417</ele>
        <time>2019-06-16T10:34:04Z</time>
      </trkpt>
      <trkpt lat="38.762132" lon="-0.436567">
        <ele>413.587</ele>
        <time>2019-06-16T10:34:05Z</time>
      </trkpt>
      <trkpt lat="38.762077" lon="-0.436570">
        <ele>413.515</ele>
        <time>2019-06-16T10:34:06Z</time>
      </trkpt>
      <trkpt lat="38.762027" lon="-0.436567">
        <ele>413.608</ele>
        <time>2019-06-16T10:34:07Z</time>
      </trkpt>
      <trkpt lat="38.761970" lon="-0.436576">
        <ele>413.634</ele>
        <time>2019-06-16T10:34:08Z</time>
      </trkpt>
      <trkpt lat="38.761868" lon="-0.436569">
        <ele>413.948</ele>
        <time>2019-06-16T10:34:10Z</time>
      </trkpt>
      <trkpt lat="38.761820" lon="-0.436557">
        <ele>414.157</ele>
        <time>2019-06-16T10:34:11Z</time>
      </trkpt>
      <trkpt lat="38.761770" lon="-0.436547">
        <ele>414.250</ele>
        <time>2019-06-16T10:34:12Z</time>
      </trkpt>
      <trkpt lat="38.761717" lon="-0.436540">
        <ele>414.472</ele>
        <time>2019-06-16T10:34:13Z</time>
      </trkpt>
      <trkpt lat="38.761668" lon="-0.436542">
        <ele>414.589</ele>
        <time>2019-06-16T10:34:14Z</time>
      </trkpt>
      <trkpt lat="38.761611" lon="-0.436545">
        <ele>413.928</ele>
        <time>2019-06-16T10:34:15Z</time>
      </trkpt>
      <trkpt lat="38.761560" lon="-0.436558">
        <ele>413.353</ele>
        <time>2019-06-16T10:34:16Z</time>
      </trkpt>
      <trkpt lat="38.761500" lon="-0.436566">
        <ele>412.615</ele>
        <time>2019-06-16T10:34:17Z</time>
      </trkpt>
      <trkpt lat="38.761448" lon="-0.436561">
        <ele>412.065</ele>
        <time>2019-06-16T10:34:18Z</time>
      </trkpt>
      <trkpt lat="38.761396" lon="-0.436569">
        <ele>411.411</ele>
        <time>2019-06-16T10:34:19Z</time>
      </trkpt>
      <trkpt lat="38.761345" lon="-0.436563">
        <ele>410.808</ele>
        <time>2019-06-16T10:34:20Z</time>
      </trkpt>
      <trkpt lat="38.761291" lon="-0.436569">
        <ele>410.484</ele>
        <time>2019-06-16T10:34:21Z</time>
      </trkpt>
      <trkpt lat="38.761232" lon="-0.436562">
        <ele>409.878</ele>
        <time>2019-06-16T10:34:22Z</time>
      </trkpt>
      <trkpt lat="38.761180" lon="-0.436561">
        <ele>409.347</ele>
        <time>2019-06-16T10:34:23Z</time>
      </trkpt>
      <trkpt lat="38.761122" lon="-0.436558">
        <ele>408.720</ele>
        <time>2019-06-16T10:34:24Z</time>
      </trkpt>
      <trkpt lat="38.761066" lon="-0.436552">
        <ele>408.752</ele>
        <time>2019-06-16T10:34:25Z</time>
      </trkpt>
      <trkpt lat="38.761009" lon="-0.436545">
        <ele>408.769</ele>
        <time>2019-06-16T10:34:26Z</time>
      </trkpt>
      <trkpt lat="38.760960" lon="-0.436552">
        <ele>408.898</ele>
        <time>2019-06-16T10:34:27Z</time>
      </trkpt>
      <trkpt lat="38.760906" lon="-0.436551">
        <ele>408.923</ele>
        <time>2019-06-16T10:34:28Z</time>
      </trkpt>
      <trkpt lat="38.760855" lon="-0.436558">
        <ele>409.049</ele>
        <time>2019-06-16T10:34:29Z</time>
      </trkpt>
      <trkpt lat="38.760799" lon="-0.436540">
        <ele>409.502</ele>
        <time>2019-06-16T10:34:30Z</time>
      </trkpt>
      <trkpt lat="38.760746" lon="-0.436539">
        <ele>410.322</ele>
        <time>2019-06-16T10:34:31Z</time>
      </trkpt>
      <trkpt lat="38.760690" lon="-0.436548">
        <ele>411.108</ele>
        <time>2019-06-16T10:34:32Z</time>
      </trkpt>
      <trkpt lat="38.760634" lon="-0.436544">
        <ele>411.947</ele>
        <time>2019-06-16T10:34:33Z</time>
      </trkpt>
      <trkpt lat="38.760580" lon="-0.436536">
        <ele>412.631</ele>
        <time>2019-06-16T10:34:34Z</time>
      </trkpt>
      <trkpt lat="38.760525" lon="-0.436531">
        <ele>413.640</ele>
        <time>2019-06-16T10:34:35Z</time>
      </trkpt>
      <trkpt lat="38.760478" lon="-0.436525">
        <ele>414.413</ele>
        <time>2019-06-16T10:34:36Z</time>
      </trkpt>
      <trkpt lat="38.760429" lon="-0.436525">
        <ele>415.385</ele>
        <time>2019-06-16T10:34:37Z</time>
      </trkpt>
      <trkpt lat="38.760373" lon="-0.436516">
        <ele>416.322</ele>
        <time>2019-06-16T10:34:38Z</time>
      </trkpt>
      <trkpt lat="38.760322" lon="-0.436517">
        <ele>417.221</ele>
        <time>2019-06-16T10:34:39Z</time>
      </trkpt>
      <trkpt lat="38.760276" lon="-0.436504">
        <ele>418.036</ele>
        <time>2019-06-16T10:34:40Z</time>
      </trkpt>
      <trkpt lat="38.760231" lon="-0.436499">
        <ele>418.132</ele>
        <time>2019-06-16T10:34:41Z</time>
      </trkpt>
      <trkpt lat="38.760183" lon="-0.436496">
        <ele>418.192</ele>
        <time>2019-06-16T10:34:42Z</time>
      </trkpt>
      <trkpt lat="38.760133" lon="-0.436499">
        <ele>418.211</ele>
        <time>2019-06-16T10:34:43Z</time>
      </trkpt>
      <trkpt lat="38.760082" lon="-0.436492">
        <ele>418.308</ele>
        <time>2019-06-16T10:34:44Z</time>
      </trkpt>
      <trkpt lat="38.759992" lon="-0.436494">
        <ele>418.476</ele>
        <time>2019-06-16T10:34:46Z</time>
      </trkpt>
      <trkpt lat="38.759935" lon="-0.436491">
        <ele>418.490</ele>
        <time>2019-06-16T10:34:47Z</time>
      </trkpt>
      <trkpt lat="38.759888" lon="-0.436490">
        <ele>418.489</ele>
        <time>2019-06-16T10:34:48Z</time>
      </trkpt>
      <trkpt lat="38.759798" lon="-0.436486">
        <ele>418.482</ele>
        <time>2019-06-16T10:34:50Z</time>
      </trkpt>
      <trkpt lat="38.759739" lon="-0.436483">
        <ele>418.314</ele>
        <time>2019-06-16T10:34:51Z</time>
      </trkpt>
      <trkpt lat="38.759693" lon="-0.436493">
        <ele>418.411</ele>
        <time>2019-06-16T10:34:52Z</time>
      </trkpt>
      <trkpt lat="38.759603" lon="-0.436488">
        <ele>418.620</ele>
        <time>2019-06-16T10:34:54Z</time>
      </trkpt>
      <trkpt lat="38.759556" lon="-0.436489">
        <ele>418.765</ele>
        <time>2019-06-16T10:34:55Z</time>
      </trkpt>
      <trkpt lat="38.759477" lon="-0.436494">
        <ele>418.929</ele>
        <time>2019-06-16T10:34:57Z</time>
      </trkpt>
      <trkpt lat="38.759394" lon="-0.436498">
        <ele>418.900</ele>
        <time>2019-06-16T10:34:59Z</time>
      </trkpt>
      <trkpt lat="38.759310" lon="-0.436482">
        <ele>418.820</ele>
        <time>2019-06-16T10:35:01Z</time>
      </trkpt>
      <trkpt lat="38.759224" lon="-0.436477">
        <ele>418.708</ele>
        <time>2019-06-16T10:35:03Z</time>
      </trkpt>
      <trkpt lat="38.759161" lon="-0.436471">
        <ele>418.715</ele>
        <time>2019-06-16T10:35:08Z</time>
      </trkpt>
      <trkpt lat="38.759115" lon="-0.436448">
        <ele>419.039</ele>
        <time>2019-06-16T10:35:09Z</time>
      </trkpt>
      <trkpt lat="38.759055" lon="-0.436436">
        <ele>419.358</ele>
        <time>2019-06-16T10:35:10Z</time>
      </trkpt>
      <trkpt lat="38.759006" lon="-0.436432">
        <ele>419.531</ele>
        <time>2019-06-16T10:35:11Z</time>
      </trkpt>
      <trkpt lat="38.758958" lon="-0.436431">
        <ele>419.723</ele>
        <time>2019-06-16T10:35:12Z</time>
      </trkpt>
      <trkpt lat="38.758838" lon="-0.436443">
        <ele>420.610</ele>
        <time>2019-06-16T10:35:14Z</time>
      </trkpt>
      <trkpt lat="38.758765" lon="-0.436455">
        <ele>421.419</ele>
        <time>2019-06-16T10:35:16Z</time>
      </trkpt>
      <trkpt lat="38.758686" lon="-0.436470">
        <ele>422.464</ele>
        <time>2019-06-16T10:35:18Z</time>
      </trkpt>
      <trkpt lat="38.758638" lon="-0.436460">
        <ele>422.964</ele>
        <time>2019-06-16T10:35:19Z</time>
      </trkpt>
      <trkpt lat="38.758592" lon="-0.436464">
        <ele>423.306</ele>
        <time>2019-06-16T10:35:22Z</time>
      </trkpt>
      <trkpt lat="38.758538" lon="-0.436465">
        <ele>423.316</ele>
        <time>2019-06-16T10:35:24Z</time>
      </trkpt>
      <trkpt lat="38.758422" lon="-0.436461">
        <ele>423.308</ele>
        <time>2019-06-16T10:35:26Z</time>
      </trkpt>
      <trkpt lat="38.758328" lon="-0.436453">
        <ele>423.239</ele>
        <time>2019-06-16T10:35:27Z</time>
      </trkpt>
      <trkpt lat="38.758220" lon="-0.436444">
        <ele>422.813</ele>
        <time>2019-06-16T10:35:28Z</time>
      </trkpt>
      <trkpt lat="38.758167" lon="-0.436443">
        <ele>422.692</ele>
        <time>2019-06-16T10:35:29Z</time>
      </trkpt>
      <trkpt lat="38.758086" lon="-0.436431">
        <ele>422.365</ele>
        <time>2019-06-16T10:35:31Z</time>
      </trkpt>
      <trkpt lat="38.758002" lon="-0.436424">
        <ele>422.557</ele>
        <time>2019-06-16T10:35:33Z</time>
      </trkpt>
      <trkpt lat="38.757911" lon="-0.436401">
        <ele>423.194</ele>
        <time>2019-06-16T10:35:35Z</time>
      </trkpt>
      <trkpt lat="38.757866" lon="-0.436402">
        <ele>423.433</ele>
        <time>2019-06-16T10:35:36Z</time>
      </trkpt>
      <trkpt lat="38.757819" lon="-0.436405">
        <ele>423.718</ele>
        <time>2019-06-16T10:35:37Z</time>
      </trkpt>
      <trkpt lat="38.757773" lon="-0.436404">
        <ele>424.082</ele>
        <time>2019-06-16T10:35:38Z</time>
      </trkpt>
      <trkpt lat="38.757728" lon="-0.436400">
        <ele>424.243</ele>
        <time>2019-06-16T10:35:39Z</time>
      </trkpt>
      <trkpt lat="38.757678" lon="-0.436398">
        <ele>424.417</ele>
        <time>2019-06-16T10:35:40Z</time>
      </trkpt>
      <trkpt lat="38.757601" lon="-0.436391">
        <ele>424.608</ele>
        <time>2019-06-16T10:35:42Z</time>
      </trkpt>
      <trkpt lat="38.757553" lon="-0.436384">
        <ele>424.861</ele>
        <time>2019-06-16T10:35:43Z</time>
      </trkpt>
      <trkpt lat="38.757499" lon="-0.436381">
        <ele>425.035</ele>
        <time>2019-06-16T10:35:45Z</time>
      </trkpt>
      <trkpt lat="38.757452" lon="-0.436383">
        <ele>425.074</ele>
        <time>2019-06-16T10:35:47Z</time>
      </trkpt>
      <trkpt lat="38.757405" lon="-0.436380">
        <ele>425.077</ele>
        <time>2019-06-16T10:35:49Z</time>
      </trkpt>
      <trkpt lat="38.757308" lon="-0.436383">
        <ele>425.059</ele>
        <time>2019-06-16T10:35:50Z</time>
      </trkpt>
      <trkpt lat="38.757259" lon="-0.436378">
        <ele>425.066</ele>
        <time>2019-06-16T10:35:51Z</time>
      </trkpt>
      <trkpt lat="38.757209" lon="-0.436378">
        <ele>424.945</ele>
        <time>2019-06-16T10:35:52Z</time>
      </trkpt>
      <trkpt lat="38.757126" lon="-0.436358">
        <ele>424.470</ele>
        <time>2019-06-16T10:35:54Z</time>
      </trkpt>
      <trkpt lat="38.757041" lon="-0.436349">
        <ele>423.919</ele>
        <time>2019-06-16T10:35:56Z</time>
      </trkpt>
      <trkpt lat="38.756992" lon="-0.436353">
        <ele>423.709</ele>
        <time>2019-06-16T10:35:57Z</time>
      </trkpt>
      <trkpt lat="38.756900" lon="-0.436358">
        <ele>422.919</ele>
        <time>2019-06-16T10:35:59Z</time>
      </trkpt>
      <trkpt lat="38.756849" lon="-0.436357">
        <ele>422.208</ele>
        <time>2019-06-16T10:36:00Z</time>
      </trkpt>
      <trkpt lat="38.756797" lon="-0.436346">
        <ele>421.364</ele>
        <time>2019-06-16T10:36:01Z</time>
      </trkpt>
      <trkpt lat="38.756746" lon="-0.436339">
        <ele>420.448</ele>
        <time>2019-06-16T10:36:02Z</time>
      </trkpt>
      <trkpt lat="38.756691" lon="-0.436339">
        <ele>419.667</ele>
        <time>2019-06-16T10:36:03Z</time>
      </trkpt>
      <trkpt lat="38.756631" lon="-0.436353">
        <ele>419.190</ele>
        <time>2019-06-16T10:36:04Z</time>
      </trkpt>
      <trkpt lat="38.756582" lon="-0.436370">
        <ele>418.812</ele>
        <time>2019-06-16T10:36:05Z</time>
      </trkpt>
      <trkpt lat="38.756525" lon="-0.436385">
        <ele>418.439</ele>
        <time>2019-06-16T10:36:06Z</time>
      </trkpt>
      <trkpt lat="38.756479" lon="-0.436405">
        <ele>418.258</ele>
        <time>2019-06-16T10:36:07Z</time>
      </trkpt>
      <trkpt lat="38.756423" lon="-0.436419">
        <ele>417.853</ele>
        <time>2019-06-16T10:36:08Z</time>
      </trkpt>
      <trkpt lat="38.756371" lon="-0.436428">
        <ele>417.639</ele>
        <time>2019-06-16T10:36:09Z</time>
      </trkpt>
      <trkpt lat="38.756283" lon="-0.436446">
        <ele>417.801</ele>
        <time>2019-06-16T10:36:11Z</time>
      </trkpt>
      <trkpt lat="38.756218" lon="-0.436511">
        <ele>418.821</ele>
        <time>2019-06-16T10:36:13Z</time>
      </trkpt>
      <trkpt lat="38.756175" lon="-0.436563">
        <ele>419.508</ele>
        <time>2019-06-16T10:36:15Z</time>
      </trkpt>
      <trkpt lat="38.756139" lon="-0.436627">
        <ele>420.416</ele>
        <time>2019-06-16T10:36:17Z</time>
      </trkpt>
      <trkpt lat="38.756113" lon="-0.436681">
        <ele>421.230</ele>
        <time>2019-06-16T10:36:19Z</time>
      </trkpt>
      <trkpt lat="38.756101" lon="-0.436738">
        <ele>421.889</ele>
        <time>2019-06-16T10:36:21Z</time>
      </trkpt>
      <trkpt lat="38.756085" lon="-0.436796">
        <ele>422.472</ele>
        <time>2019-06-16T10:36:24Z</time>
      </trkpt>
      <trkpt lat="38.756058" lon="-0.436880">
        <ele>423.394</ele>
        <time>2019-06-16T10:36:45Z</time>
      </trkpt>
      <trkpt lat="38.756031" lon="-0.436949">
        <ele>424.081</ele>
        <time>2019-06-16T10:36:48Z</time>
      </trkpt>
      <trkpt lat="38.755970" lon="-0.437117">
        <ele>424.950</ele>
        <time>2019-06-16T10:36:50Z</time>
      </trkpt>
      <trkpt lat="38.755929" lon="-0.437165">
        <ele>424.865</ele>
        <time>2019-06-16T10:36:53Z</time>
      </trkpt>
      <trkpt lat="38.755871" lon="-0.437178">
        <ele>424.395</ele>
        <time>2019-06-16T10:36:55Z</time>
      </trkpt>
      <trkpt lat="38.755809" lon="-0.437160">
        <ele>423.949</ele>
        <time>2019-06-16T10:36:57Z</time>
      </trkpt>
      <trkpt lat="38.755742" lon="-0.437115">
        <ele>423.723</ele>
        <time>2019-06-16T10:36:59Z</time>
      </trkpt>
      <trkpt lat="38.755704" lon="-0.437083">
        <ele>423.508</ele>
        <time>2019-06-16T10:37:00Z</time>
      </trkpt>
      <trkpt lat="38.755636" lon="-0.437045">
        <ele>423.352</ele>
        <time>2019-06-16T10:37:02Z</time>
      </trkpt>
      <trkpt lat="38.755528" lon="-0.437022">
        <ele>422.936</ele>
        <time>2019-06-16T10:37:04Z</time>
      </trkpt>
      <trkpt lat="38.755444" lon="-0.437058">
        <ele>422.785</ele>
        <time>2019-06-16T10:37:06Z</time>
      </trkpt>
      <trkpt lat="38.755404" lon="-0.437088">
        <ele>422.878</ele>
        <time>2019-06-16T10:37:07Z</time>
      </trkpt>
      <trkpt lat="38.755339" lon="-0.437165">
        <ele>423.320</ele>
        <time>2019-06-16T10:37:09Z</time>
      </trkpt>
      <trkpt lat="38.755278" lon="-0.437280">
        <ele>425.077</ele>
        <time>2019-06-16T10:37:11Z</time>
      </trkpt>
      <trkpt lat="38.755219" lon="-0.437289">
        <ele>426.066</ele>
        <time>2019-06-16T10:37:13Z</time>
      </trkpt>
      <trkpt lat="38.755173" lon="-0.437308">
        <ele>427.191</ele>
        <time>2019-06-16T10:37:14Z</time>
      </trkpt>
      <trkpt lat="38.755130" lon="-0.437341">
        <ele>428.398</ele>
        <time>2019-06-16T10:37:15Z</time>
      </trkpt>
      <trkpt lat="38.755046" lon="-0.437381">
        <ele>430.215</ele>
        <time>2019-06-16T10:37:17Z</time>
      </trkpt>
      <trkpt lat="38.754975" lon="-0.437421">
        <ele>431.826</ele>
        <time>2019-06-16T10:37:19Z</time>
      </trkpt>
      <trkpt lat="38.754901" lon="-0.437455">
        <ele>433.308</ele>
        <time>2019-06-16T10:37:21Z</time>
      </trkpt>
      <trkpt lat="38.754830" lon="-0.437502">
        <ele>434.922</ele>
        <time>2019-06-16T10:37:23Z</time>
      </trkpt>
      <trkpt lat="38.754758" lon="-0.437557">
        <ele>436.286</ele>
        <time>2019-06-16T10:37:25Z</time>
      </trkpt>
      <trkpt lat="38.754687" lon="-0.437610">
        <ele>436.915</ele>
        <time>2019-06-16T10:37:27Z</time>
      </trkpt>
      <trkpt lat="38.754608" lon="-0.437658">
        <ele>436.988</ele>
        <time>2019-06-16T10:37:29Z</time>
      </trkpt>
      <trkpt lat="38.754529" lon="-0.437703">
        <ele>436.810</ele>
        <time>2019-06-16T10:37:31Z</time>
      </trkpt>
      <trkpt lat="38.754454" lon="-0.437749">
        <ele>436.827</ele>
        <time>2019-06-16T10:37:33Z</time>
      </trkpt>
      <trkpt lat="38.754311" lon="-0.437710">
        <ele>433.946</ele>
        <time>2019-06-16T10:37:35Z</time>
      </trkpt>
      <trkpt lat="38.754218" lon="-0.437738">
        <ele>432.541</ele>
        <time>2019-06-16T10:37:37Z</time>
      </trkpt>
      <trkpt lat="38.754145" lon="-0.437801">
        <ele>431.973</ele>
        <time>2019-06-16T10:37:39Z</time>
      </trkpt>
      <trkpt lat="38.754072" lon="-0.437820">
        <ele>431.085</ele>
        <time>2019-06-16T10:37:40Z</time>
      </trkpt>
      <trkpt lat="38.754027" lon="-0.437860">
        <ele>430.713</ele>
        <time>2019-06-16T10:37:43Z</time>
      </trkpt>
      <trkpt lat="38.753946" lon="-0.437919">
        <ele>429.908</ele>
        <time>2019-06-16T10:37:45Z</time>
      </trkpt>
      <trkpt lat="38.753867" lon="-0.437957">
        <ele>429.330</ele>
        <time>2019-06-16T10:37:47Z</time>
      </trkpt>
      <trkpt lat="38.753802" lon="-0.437979">
        <ele>429.424</ele>
        <time>2019-06-16T10:37:50Z</time>
      </trkpt>
      <trkpt lat="38.753763" lon="-0.438021">
        <ele>429.793</ele>
        <time>2019-06-16T10:37:52Z</time>
      </trkpt>
      <trkpt lat="38.753743" lon="-0.438103">
        <ele>430.276</ele>
        <time>2019-06-16T10:37:54Z</time>
      </trkpt>
      <trkpt lat="38.753742" lon="-0.438188">
        <ele>430.578</ele>
        <time>2019-06-16T10:37:56Z</time>
      </trkpt>
      <trkpt lat="38.753749" lon="-0.438274">
        <ele>430.875</ele>
        <time>2019-06-16T10:37:58Z</time>
      </trkpt>
      <trkpt lat="38.753768" lon="-0.438437">
        <ele>431.264</ele>
        <time>2019-06-16T10:38:00Z</time>
      </trkpt>
      <trkpt lat="38.753764" lon="-0.438547">
        <ele>431.439</ele>
        <time>2019-06-16T10:38:02Z</time>
      </trkpt>
      <trkpt lat="38.753720" lon="-0.438643">
        <ele>431.563</ele>
        <time>2019-06-16T10:38:04Z</time>
      </trkpt>
      <trkpt lat="38.753646" lon="-0.438710">
        <ele>431.544</ele>
        <time>2019-06-16T10:38:06Z</time>
      </trkpt>
      <trkpt lat="38.753600" lon="-0.438721">
        <ele>431.418</ele>
        <time>2019-06-16T10:38:07Z</time>
      </trkpt>
      <trkpt lat="38.753508" lon="-0.438628">
        <ele>431.408</ele>
        <time>2019-06-16T10:38:08Z</time>
      </trkpt>
      <trkpt lat="38.753463" lon="-0.438590">
        <ele>431.639</ele>
        <time>2019-06-16T10:38:09Z</time>
      </trkpt>
      <trkpt lat="38.753415" lon="-0.438569">
        <ele>431.973</ele>
        <time>2019-06-16T10:38:10Z</time>
      </trkpt>
      <trkpt lat="38.753375" lon="-0.438532">
        <ele>432.382</ele>
        <time>2019-06-16T10:38:11Z</time>
      </trkpt>
      <trkpt lat="38.753294" lon="-0.438500">
        <ele>433.025</ele>
        <time>2019-06-16T10:38:13Z</time>
      </trkpt>
      <trkpt lat="38.753238" lon="-0.438505">
        <ele>433.397</ele>
        <time>2019-06-16T10:38:14Z</time>
      </trkpt>
      <trkpt lat="38.753174" lon="-0.438502">
        <ele>433.754</ele>
        <time>2019-06-16T10:38:15Z</time>
      </trkpt>
      <trkpt lat="38.753108" lon="-0.438507">
        <ele>434.143</ele>
        <time>2019-06-16T10:38:16Z</time>
      </trkpt>
      <trkpt lat="38.753053" lon="-0.438508">
        <ele>434.488</ele>
        <time>2019-06-16T10:38:17Z</time>
      </trkpt>
      <trkpt lat="38.753000" lon="-0.438521">
        <ele>434.343</ele>
        <time>2019-06-16T10:38:18Z</time>
      </trkpt>
      <trkpt lat="38.752951" lon="-0.438533">
        <ele>434.264</ele>
        <time>2019-06-16T10:38:19Z</time>
      </trkpt>
      <trkpt lat="38.752882" lon="-0.438541">
        <ele>434.110</ele>
        <time>2019-06-16T10:38:20Z</time>
      </trkpt>
      <trkpt lat="38.752822" lon="-0.438557">
        <ele>434.008</ele>
        <time>2019-06-16T10:38:21Z</time>
      </trkpt>
      <trkpt lat="38.752766" lon="-0.438571">
        <ele>434.197</ele>
        <time>2019-06-16T10:38:22Z</time>
      </trkpt>
      <trkpt lat="38.752667" lon="-0.438568">
        <ele>434.741</ele>
        <time>2019-06-16T10:38:24Z</time>
      </trkpt>
      <trkpt lat="38.752622" lon="-0.438581">
        <ele>435.040</ele>
        <time>2019-06-16T10:38:25Z</time>
      </trkpt>
      <trkpt lat="38.752575" lon="-0.438584">
        <ele>435.333</ele>
        <time>2019-06-16T10:38:26Z</time>
      </trkpt>
      <trkpt lat="38.752521" lon="-0.438594">
        <ele>435.745</ele>
        <time>2019-06-16T10:38:27Z</time>
      </trkpt>
      <trkpt lat="38.752469" lon="-0.438604">
        <ele>435.852</ele>
        <time>2019-06-16T10:38:28Z</time>
      </trkpt>
      <trkpt lat="38.752410" lon="-0.438614">
        <ele>435.721</ele>
        <time>2019-06-16T10:38:30Z</time>
      </trkpt>
      <trkpt lat="38.752365" lon="-0.438634">
        <ele>435.696</ele>
        <time>2019-06-16T10:38:34Z</time>
      </trkpt>
      <trkpt lat="38.752308" lon="-0.438619">
        <ele>435.368</ele>
        <time>2019-06-16T10:39:04Z</time>
      </trkpt>
      <trkpt lat="38.752167" lon="-0.438649">
        <ele>435.442</ele>
        <time>2019-06-16T10:39:06Z</time>
      </trkpt>
      <trkpt lat="38.752126" lon="-0.438688">
        <ele>435.726</ele>
        <time>2019-06-16T10:39:07Z</time>
      </trkpt>
      <trkpt lat="38.752073" lon="-0.438704">
        <ele>436.108</ele>
        <time>2019-06-16T10:39:08Z</time>
      </trkpt>
      <trkpt lat="38.752013" lon="-0.438728">
        <ele>436.579</ele>
        <time>2019-06-16T10:39:09Z</time>
      </trkpt>
      <trkpt lat="38.751958" lon="-0.438754">
        <ele>437.083</ele>
        <time>2019-06-16T10:39:10Z</time>
      </trkpt>
      <trkpt lat="38.751891" lon="-0.438791">
        <ele>437.852</ele>
        <time>2019-06-16T10:39:11Z</time>
      </trkpt>
      <trkpt lat="38.751841" lon="-0.438789">
        <ele>438.375</ele>
        <time>2019-06-16T10:39:12Z</time>
      </trkpt>
      <trkpt lat="38.751764" lon="-0.438790">
        <ele>439.057</ele>
        <time>2019-06-16T10:39:13Z</time>
      </trkpt>
      <trkpt lat="38.751692" lon="-0.438784">
        <ele>439.614</ele>
        <time>2019-06-16T10:39:14Z</time>
      </trkpt>
      <trkpt lat="38.751631" lon="-0.438800">
        <ele>440.083</ele>
        <time>2019-06-16T10:39:15Z</time>
      </trkpt>
      <trkpt lat="38.751561" lon="-0.438809">
        <ele>440.028</ele>
        <time>2019-06-16T10:39:16Z</time>
      </trkpt>
      <trkpt lat="38.751497" lon="-0.438821">
        <ele>440.169</ele>
        <time>2019-06-16T10:39:17Z</time>
      </trkpt>
      <trkpt lat="38.751435" lon="-0.438840">
        <ele>440.304</ele>
        <time>2019-06-16T10:39:18Z</time>
      </trkpt>
      <trkpt lat="38.751376" lon="-0.438864">
        <ele>440.424</ele>
        <time>2019-06-16T10:39:19Z</time>
      </trkpt>
      <trkpt lat="38.751317" lon="-0.438899">
        <ele>439.608</ele>
        <time>2019-06-16T10:39:20Z</time>
      </trkpt>
      <trkpt lat="38.751244" lon="-0.438909">
        <ele>438.289</ele>
        <time>2019-06-16T10:39:21Z</time>
      </trkpt>
      <trkpt lat="38.751171" lon="-0.438904">
        <ele>436.653</ele>
        <time>2019-06-16T10:39:22Z</time>
      </trkpt>
      <trkpt lat="38.751094" lon="-0.438914">
        <ele>435.322</ele>
        <time>2019-06-16T10:39:23Z</time>
      </trkpt>
      <trkpt lat="38.751019" lon="-0.438919">
        <ele>434.815</ele>
        <time>2019-06-16T10:39:24Z</time>
      </trkpt>
      <trkpt lat="38.750947" lon="-0.438934">
        <ele>434.417</ele>
        <time>2019-06-16T10:39:25Z</time>
      </trkpt>
      <trkpt lat="38.750903" lon="-0.438964">
        <ele>434.434</ele>
        <time>2019-06-16T10:39:26Z</time>
      </trkpt>
      <trkpt lat="38.750832" lon="-0.438969">
        <ele>433.933</ele>
        <time>2019-06-16T10:39:27Z</time>
      </trkpt>
      <trkpt lat="38.750761" lon="-0.438956">
        <ele>433.518</ele>
        <time>2019-06-16T10:39:28Z</time>
      </trkpt>
      <trkpt lat="38.750690" lon="-0.438965">
        <ele>433.454</ele>
        <time>2019-06-16T10:39:29Z</time>
      </trkpt>
      <trkpt lat="38.750633" lon="-0.438984">
        <ele>433.356</ele>
        <time>2019-06-16T10:39:30Z</time>
      </trkpt>
      <trkpt lat="38.750568" lon="-0.438998">
        <ele>433.111</ele>
        <time>2019-06-16T10:39:31Z</time>
      </trkpt>
      <trkpt lat="38.750501" lon="-0.439007">
        <ele>433.008</ele>
        <time>2019-06-16T10:39:32Z</time>
      </trkpt>
      <trkpt lat="38.750444" lon="-0.439016">
        <ele>433.088</ele>
        <time>2019-06-16T10:39:33Z</time>
      </trkpt>
      <trkpt lat="38.750382" lon="-0.439036">
        <ele>433.092</ele>
        <time>2019-06-16T10:39:34Z</time>
      </trkpt>
      <trkpt lat="38.750308" lon="-0.439063">
        <ele>433.051</ele>
        <time>2019-06-16T10:39:35Z</time>
      </trkpt>
      <trkpt lat="38.750236" lon="-0.439103">
        <ele>433.094</ele>
        <time>2019-06-16T10:39:36Z</time>
      </trkpt>
      <trkpt lat="38.750171" lon="-0.439111">
        <ele>433.016</ele>
        <time>2019-06-16T10:39:37Z</time>
      </trkpt>
      <trkpt lat="38.750102" lon="-0.439149">
        <ele>433.083</ele>
        <time>2019-06-16T10:39:38Z</time>
      </trkpt>
      <trkpt lat="38.750034" lon="-0.439159">
        <ele>433.062</ele>
        <time>2019-06-16T10:39:39Z</time>
      </trkpt>
      <trkpt lat="38.749961" lon="-0.439165">
        <ele>433.387</ele>
        <time>2019-06-16T10:39:40Z</time>
      </trkpt>
      <trkpt lat="38.749887" lon="-0.439195">
        <ele>433.834</ele>
        <time>2019-06-16T10:39:41Z</time>
      </trkpt>
      <trkpt lat="38.749819" lon="-0.439208">
        <ele>434.355</ele>
        <time>2019-06-16T10:39:42Z</time>
      </trkpt>
      <trkpt lat="38.749747" lon="-0.439215">
        <ele>434.810</ele>
        <time>2019-06-16T10:39:43Z</time>
      </trkpt>
      <trkpt lat="38.749666" lon="-0.439202">
        <ele>435.108</ele>
        <time>2019-06-16T10:39:44Z</time>
      </trkpt>
      <trkpt lat="38.749591" lon="-0.439209">
        <ele>435.136</ele>
        <time>2019-06-16T10:39:45Z</time>
      </trkpt>
      <trkpt lat="38.749523" lon="-0.439225">
        <ele>435.330</ele>
        <time>2019-06-16T10:39:46Z</time>
      </trkpt>
      <trkpt lat="38.749457" lon="-0.439240">
        <ele>435.599</ele>
        <time>2019-06-16T10:39:47Z</time>
      </trkpt>
      <trkpt lat="38.749387" lon="-0.439266">
        <ele>435.522</ele>
        <time>2019-06-16T10:39:48Z</time>
      </trkpt>
      <trkpt lat="38.749316" lon="-0.439273">
        <ele>435.394</ele>
        <time>2019-06-16T10:39:49Z</time>
      </trkpt>
      <trkpt lat="38.749257" lon="-0.439291">
        <ele>435.261</ele>
        <time>2019-06-16T10:39:50Z</time>
      </trkpt>
      <trkpt lat="38.749193" lon="-0.439313">
        <ele>435.160</ele>
        <time>2019-06-16T10:39:51Z</time>
      </trkpt>
      <trkpt lat="38.749114" lon="-0.439327">
        <ele>435.195</ele>
        <time>2019-06-16T10:39:52Z</time>
      </trkpt>
      <trkpt lat="38.749049" lon="-0.439350">
        <ele>435.296</ele>
        <time>2019-06-16T10:39:53Z</time>
      </trkpt>
      <trkpt lat="38.748986" lon="-0.439361">
        <ele>435.231</ele>
        <time>2019-06-16T10:39:54Z</time>
      </trkpt>
      <trkpt lat="38.748908" lon="-0.439369">
        <ele>435.224</ele>
        <time>2019-06-16T10:39:55Z</time>
      </trkpt>
      <trkpt lat="38.748821" lon="-0.439376">
        <ele>435.508</ele>
        <time>2019-06-16T10:39:56Z</time>
      </trkpt>
      <trkpt lat="38.748770" lon="-0.439399">
        <ele>435.932</ele>
        <time>2019-06-16T10:39:57Z</time>
      </trkpt>
      <trkpt lat="38.748682" lon="-0.439381">
        <ele>436.176</ele>
        <time>2019-06-16T10:39:58Z</time>
      </trkpt>
      <trkpt lat="38.748612" lon="-0.439405">
        <ele>436.635</ele>
        <time>2019-06-16T10:39:59Z</time>
      </trkpt>
      <trkpt lat="38.748533" lon="-0.439418">
        <ele>436.238</ele>
        <time>2019-06-16T10:40:00Z</time>
      </trkpt>
      <trkpt lat="38.748468" lon="-0.439445">
        <ele>436.050</ele>
        <time>2019-06-16T10:40:01Z</time>
      </trkpt>
      <trkpt lat="38.748390" lon="-0.439445">
        <ele>435.457</ele>
        <time>2019-06-16T10:40:02Z</time>
      </trkpt>
      <trkpt lat="38.748306" lon="-0.439414">
        <ele>434.546</ele>
        <time>2019-06-16T10:40:03Z</time>
      </trkpt>
      <trkpt lat="38.748237" lon="-0.439391">
        <ele>433.781</ele>
        <time>2019-06-16T10:40:04Z</time>
      </trkpt>
      <trkpt lat="38.748197" lon="-0.439341">
        <ele>433.149</ele>
        <time>2019-06-16T10:40:05Z</time>
      </trkpt>
      <trkpt lat="38.748148" lon="-0.439294">
        <ele>432.602</ele>
        <time>2019-06-16T10:40:06Z</time>
      </trkpt>
      <trkpt lat="38.748081" lon="-0.439253">
        <ele>432.122</ele>
        <time>2019-06-16T10:40:07Z</time>
      </trkpt>
      <trkpt lat="38.748016" lon="-0.439258">
        <ele>432.208</ele>
        <time>2019-06-16T10:40:08Z</time>
      </trkpt>
      <trkpt lat="38.747960" lon="-0.439259">
        <ele>432.557</ele>
        <time>2019-06-16T10:40:09Z</time>
      </trkpt>
      <trkpt lat="38.747898" lon="-0.439251">
        <ele>432.721</ele>
        <time>2019-06-16T10:40:10Z</time>
      </trkpt>
      <trkpt lat="38.747842" lon="-0.439242">
        <ele>433.030</ele>
        <time>2019-06-16T10:40:11Z</time>
      </trkpt>
      <trkpt lat="38.747777" lon="-0.439225">
        <ele>433.223</ele>
        <time>2019-06-16T10:40:12Z</time>
      </trkpt>
      <trkpt lat="38.747722" lon="-0.439213">
        <ele>433.685</ele>
        <time>2019-06-16T10:40:13Z</time>
      </trkpt>
      <trkpt lat="38.747662" lon="-0.439201">
        <ele>434.092</ele>
        <time>2019-06-16T10:40:14Z</time>
      </trkpt>
      <trkpt lat="38.747604" lon="-0.439186">
        <ele>434.491</ele>
        <time>2019-06-16T10:40:15Z</time>
      </trkpt>
      <trkpt lat="38.747541" lon="-0.439168">
        <ele>434.786</ele>
        <time>2019-06-16T10:40:16Z</time>
      </trkpt>
      <trkpt lat="38.747483" lon="-0.439144">
        <ele>434.877</ele>
        <time>2019-06-16T10:40:17Z</time>
      </trkpt>
      <trkpt lat="38.747416" lon="-0.439134">
        <ele>434.861</ele>
        <time>2019-06-16T10:40:18Z</time>
      </trkpt>
      <trkpt lat="38.747348" lon="-0.439094">
        <ele>434.527</ele>
        <time>2019-06-16T10:40:19Z</time>
      </trkpt>
      <trkpt lat="38.747289" lon="-0.439097">
        <ele>434.508</ele>
        <time>2019-06-16T10:40:20Z</time>
      </trkpt>
      <trkpt lat="38.747221" lon="-0.439080">
        <ele>434.440</ele>
        <time>2019-06-16T10:40:21Z</time>
      </trkpt>
      <trkpt lat="38.747167" lon="-0.439048">
        <ele>433.784</ele>
        <time>2019-06-16T10:40:22Z</time>
      </trkpt>
      <trkpt lat="38.747104" lon="-0.438989">
        <ele>432.643</ele>
        <time>2019-06-16T10:40:23Z</time>
      </trkpt>
      <trkpt lat="38.747047" lon="-0.438955">
        <ele>431.756</ele>
        <time>2019-06-16T10:40:24Z</time>
      </trkpt>
      <trkpt lat="38.746983" lon="-0.438937">
        <ele>430.958</ele>
        <time>2019-06-16T10:40:25Z</time>
      </trkpt>
      <trkpt lat="38.746946" lon="-0.438871">
        <ele>430.075</ele>
        <time>2019-06-16T10:40:26Z</time>
      </trkpt>
      <trkpt lat="38.746872" lon="-0.438849">
        <ele>429.854</ele>
        <time>2019-06-16T10:40:27Z</time>
      </trkpt>
      <trkpt lat="38.746803" lon="-0.438927">
        <ele>429.879</ele>
        <time>2019-06-16T10:40:28Z</time>
      </trkpt>
      <trkpt lat="38.746699" lon="-0.438874">
        <ele>429.239</ele>
        <time>2019-06-16T10:40:30Z</time>
      </trkpt>
      <trkpt lat="38.746636" lon="-0.438840">
        <ele>429.401</ele>
        <time>2019-06-16T10:40:31Z</time>
      </trkpt>
      <trkpt lat="38.746554" lon="-0.438835">
        <ele>430.021</ele>
        <time>2019-06-16T10:40:32Z</time>
      </trkpt>
      <trkpt lat="38.746495" lon="-0.438772">
        <ele>430.708</ele>
        <time>2019-06-16T10:40:33Z</time>
      </trkpt>
      <trkpt lat="38.746445" lon="-0.438803">
        <ele>430.996</ele>
        <time>2019-06-16T10:40:34Z</time>
      </trkpt>
      <trkpt lat="38.746433" lon="-0.438735">
        <ele>431.270</ele>
        <time>2019-06-16T10:40:35Z</time>
      </trkpt>
      <trkpt lat="38.746427" lon="-0.438674">
        <ele>431.569</ele>
        <time>2019-06-16T10:40:36Z</time>
      </trkpt>
      <trkpt lat="38.746360" lon="-0.438688">
        <ele>431.952</ele>
        <time>2019-06-16T10:40:37Z</time>
      </trkpt>
      <trkpt lat="38.746300" lon="-0.438629">
        <ele>432.374</ele>
        <time>2019-06-16T10:40:38Z</time>
      </trkpt>
      <trkpt lat="38.746225" lon="-0.438627">
        <ele>432.681</ele>
        <time>2019-06-16T10:40:39Z</time>
      </trkpt>
      <trkpt lat="38.746178" lon="-0.438629">
        <ele>432.850</ele>
        <time>2019-06-16T10:40:40Z</time>
      </trkpt>
      <trkpt lat="38.746118" lon="-0.438634">
        <ele>433.145</ele>
        <time>2019-06-16T10:40:41Z</time>
      </trkpt>
      <trkpt lat="38.746051" lon="-0.438639">
        <ele>433.592</ele>
        <time>2019-06-16T10:40:42Z</time>
      </trkpt>
      <trkpt lat="38.745978" lon="-0.438601">
        <ele>434.073</ele>
        <time>2019-06-16T10:40:44Z</time>
      </trkpt>
      <trkpt lat="38.745904" lon="-0.438560">
        <ele>434.520</ele>
        <time>2019-06-16T10:40:46Z</time>
      </trkpt>
      <trkpt lat="38.745813" lon="-0.438535">
        <ele>435.108</ele>
        <time>2019-06-16T10:40:48Z</time>
      </trkpt>
      <trkpt lat="38.745760" lon="-0.438531">
        <ele>435.572</ele>
        <time>2019-06-16T10:40:49Z</time>
      </trkpt>
      <trkpt lat="38.745691" lon="-0.438483">
        <ele>436.036</ele>
        <time>2019-06-16T10:40:51Z</time>
      </trkpt>
      <trkpt lat="38.745638" lon="-0.438443">
        <ele>436.485</ele>
        <time>2019-06-16T10:40:52Z</time>
      </trkpt>
      <trkpt lat="38.745537" lon="-0.438407">
        <ele>437.188</ele>
        <time>2019-06-16T10:40:54Z</time>
      </trkpt>
      <trkpt lat="38.745488" lon="-0.438372">
        <ele>437.350</ele>
        <time>2019-06-16T10:40:55Z</time>
      </trkpt>
      <trkpt lat="38.745453" lon="-0.438319">
        <ele>437.427</ele>
        <time>2019-06-16T10:40:56Z</time>
      </trkpt>
      <trkpt lat="38.745382" lon="-0.438322">
        <ele>437.656</ele>
        <time>2019-06-16T10:40:57Z</time>
      </trkpt>
      <trkpt lat="38.745327" lon="-0.438349">
        <ele>437.931</ele>
        <time>2019-06-16T10:40:58Z</time>
      </trkpt>
      <trkpt lat="38.745147" lon="-0.438338">
        <ele>439.449</ele>
        <time>2019-06-16T10:41:02Z</time>
      </trkpt>
      <trkpt lat="38.745147" lon="-0.438338">
        <ele>439.402</ele>
        <time>2019-06-16T10:41:02Z</time>
      </trkpt>
      <trkpt lat="38.745147" lon="-0.438338">
        <ele>439.422</ele>
        <time>2019-06-16T10:41:02Z</time>
      </trkpt>
      <trkpt lat="38.745014" lon="-0.438270">
        <ele>440.208</ele>
        <time>2019-06-16T10:41:05Z</time>
      </trkpt>
      <trkpt lat="38.745014" lon="-0.438270">
        <ele>440.267</ele>
        <time>2019-06-16T10:41:05Z</time>
      </trkpt>
      <trkpt lat="38.745014" lon="-0.438270">
        <ele>440.261</ele>
        <time>2019-06-16T10:41:05Z</time>
      </trkpt>
      <trkpt lat="38.744863" lon="-0.438269">
        <ele>439.860</ele>
        <time>2019-06-16T10:41:08Z</time>
      </trkpt>
      <trkpt lat="38.744863" lon="-0.438269">
        <ele>439.873</ele>
        <time>2019-06-16T10:41:08Z</time>
      </trkpt>
      <trkpt lat="38.744863" lon="-0.438269">
        <ele>439.825</ele>
        <time>2019-06-16T10:41:08Z</time>
      </trkpt>
      <trkpt lat="38.744739" lon="-0.438262">
        <ele>439.342</ele>
        <time>2019-06-16T10:41:11Z</time>
      </trkpt>
      <trkpt lat="38.744739" lon="-0.438262">
        <ele>439.391</ele>
        <time>2019-06-16T10:41:11Z</time>
      </trkpt>
      <trkpt lat="38.744739" lon="-0.438262">
        <ele>439.376</ele>
        <time>2019-06-16T10:41:11Z</time>
      </trkpt>
      <trkpt lat="38.744654" lon="-0.438158">
        <ele>438.571</ele>
        <time>2019-06-16T10:41:14Z</time>
      </trkpt>
      <trkpt lat="38.744654" lon="-0.438158">
        <ele>438.541</ele>
        <time>2019-06-16T10:41:14Z</time>
      </trkpt>
      <trkpt lat="38.744654" lon="-0.438158">
        <ele>438.515</ele>
        <time>2019-06-16T10:41:14Z</time>
      </trkpt>
      <trkpt lat="38.744526" lon="-0.438119">
        <ele>439.208</ele>
        <time>2019-06-16T10:41:17Z</time>
      </trkpt>
      <trkpt lat="38.744526" lon="-0.438119">
        <ele>439.220</ele>
        <time>2019-06-16T10:41:17Z</time>
      </trkpt>
      <trkpt lat="38.744526" lon="-0.438119">
        <ele>439.274</ele>
        <time>2019-06-16T10:41:17Z</time>
      </trkpt>
      <trkpt lat="38.744394" lon="-0.438044">
        <ele>440.073</ele>
        <time>2019-06-16T10:41:20Z</time>
      </trkpt>
      <trkpt lat="38.744394" lon="-0.438044">
        <ele>440.056</ele>
        <time>2019-06-16T10:41:20Z</time>
      </trkpt>
      <trkpt lat="38.744394" lon="-0.438044">
        <ele>440.048</ele>
        <time>2019-06-16T10:41:20Z</time>
      </trkpt>
      <trkpt lat="38.744274" lon="-0.437992">
        <ele>440.235</ele>
        <time>2019-06-16T10:41:23Z</time>
      </trkpt>
      <trkpt lat="38.744274" lon="-0.437992">
        <ele>440.244</ele>
        <time>2019-06-16T10:41:23Z</time>
      </trkpt>
      <trkpt lat="38.744274" lon="-0.437992">
        <ele>440.289</ele>
        <time>2019-06-16T10:41:23Z</time>
      </trkpt>
      <trkpt lat="38.744120" lon="-0.437985">
        <ele>440.883</ele>
        <time>2019-06-16T10:41:26Z</time>
      </trkpt>
      <trkpt lat="38.744120" lon="-0.437985">
        <ele>440.825</ele>
        <time>2019-06-16T10:41:26Z</time>
      </trkpt>
      <trkpt lat="38.744120" lon="-0.437985">
        <ele>440.817</ele>
        <time>2019-06-16T10:41:26Z</time>
      </trkpt>
      <trkpt lat="38.744008" lon="-0.437920">
        <ele>441.808</ele>
        <time>2019-06-16T10:41:29Z</time>
      </trkpt>
      <trkpt lat="38.744008" lon="-0.437920">
        <ele>441.831</ele>
        <time>2019-06-16T10:41:29Z</time>
      </trkpt>
      <trkpt lat="38.744008" lon="-0.437920">
        <ele>441.855</ele>
        <time>2019-06-16T10:41:29Z</time>
      </trkpt>
      <trkpt lat="38.743839" lon="-0.437929">
        <ele>442.734</ele>
        <time>2019-06-16T10:41:32Z</time>
      </trkpt>
      <trkpt lat="38.743839" lon="-0.437929">
        <ele>442.747</ele>
        <time>2019-06-16T10:41:32Z</time>
      </trkpt>
      <trkpt lat="38.743839" lon="-0.437929">
        <ele>442.769</ele>
        <time>2019-06-16T10:41:32Z</time>
      </trkpt>
      <trkpt lat="38.743707" lon="-0.437921">
        <ele>443.546</ele>
        <time>2019-06-16T10:41:35Z</time>
      </trkpt>
      <trkpt lat="38.743707" lon="-0.437921">
        <ele>443.585</ele>
        <time>2019-06-16T10:41:35Z</time>
      </trkpt>
      <trkpt lat="38.743707" lon="-0.437921">
        <ele>443.540</ele>
        <time>2019-06-16T10:41:35Z</time>
      </trkpt>
      <trkpt lat="38.743569" lon="-0.437932">
        <ele>444.234</ele>
        <time>2019-06-16T10:41:38Z</time>
      </trkpt>
      <trkpt lat="38.743569" lon="-0.437932">
        <ele>444.255</ele>
        <time>2019-06-16T10:41:38Z</time>
      </trkpt>
      <trkpt lat="38.743569" lon="-0.437932">
        <ele>444.210</ele>
        <time>2019-06-16T10:41:38Z</time>
      </trkpt>
      <trkpt lat="38.743428" lon="-0.437968">
        <ele>444.708</ele>
        <time>2019-06-16T10:41:41Z</time>
      </trkpt>
      <trkpt lat="38.743428" lon="-0.437968">
        <ele>444.736</ele>
        <time>2019-06-16T10:41:41Z</time>
      </trkpt>
      <trkpt lat="38.743428" lon="-0.437968">
        <ele>444.740</ele>
        <time>2019-06-16T10:41:41Z</time>
      </trkpt>
      <trkpt lat="38.743307" lon="-0.437995">
        <ele>444.919</ele>
        <time>2019-06-16T10:41:44Z</time>
      </trkpt>
      <trkpt lat="38.743307" lon="-0.437995">
        <ele>444.992</ele>
        <time>2019-06-16T10:41:44Z</time>
      </trkpt>
      <trkpt lat="38.743307" lon="-0.437995">
        <ele>444.994</ele>
        <time>2019-06-16T10:41:44Z</time>
      </trkpt>
      <trkpt lat="38.743186" lon="-0.438035">
        <ele>444.421</ele>
        <time>2019-06-16T10:41:47Z</time>
      </trkpt>
      <trkpt lat="38.743186" lon="-0.438035">
        <ele>444.420</ele>
        <time>2019-06-16T10:41:47Z</time>
      </trkpt>
      <trkpt lat="38.743186" lon="-0.438035">
        <ele>444.435</ele>
        <time>2019-06-16T10:41:47Z</time>
      </trkpt>
      <trkpt lat="38.743032" lon="-0.438083">
        <ele>444.158</ele>
        <time>2019-06-16T10:41:51Z</time>
      </trkpt>
      <trkpt lat="38.743032" lon="-0.438083">
        <ele>444.152</ele>
        <time>2019-06-16T10:41:51Z</time>
      </trkpt>
      <trkpt lat="38.743032" lon="-0.438083">
        <ele>444.117</ele>
        <time>2019-06-16T10:41:51Z</time>
      </trkpt>
      <trkpt lat="38.743032" lon="-0.438083">
        <ele>444.108</ele>
        <time>2019-06-16T10:41:51Z</time>
      </trkpt>
      <trkpt lat="38.742895" lon="-0.438095">
        <ele>444.128</ele>
        <time>2019-06-16T10:41:54Z</time>
      </trkpt>
      <trkpt lat="38.742895" lon="-0.438095">
        <ele>444.192</ele>
        <time>2019-06-16T10:41:54Z</time>
      </trkpt>
      <trkpt lat="38.742895" lon="-0.438095">
        <ele>444.161</ele>
        <time>2019-06-16T10:41:54Z</time>
      </trkpt>
      <trkpt lat="38.742763" lon="-0.438123">
        <ele>444.354</ele>
        <time>2019-06-16T10:41:57Z</time>
      </trkpt>
      <trkpt lat="38.742763" lon="-0.438123">
        <ele>444.396</ele>
        <time>2019-06-16T10:41:57Z</time>
      </trkpt>
      <trkpt lat="38.742763" lon="-0.438123">
        <ele>444.363</ele>
        <time>2019-06-16T10:41:57Z</time>
      </trkpt>
      <trkpt lat="38.742664" lon="-0.438130">
        <ele>444.762</ele>
        <time>2019-06-16T10:42:00Z</time>
      </trkpt>
      <trkpt lat="38.742664" lon="-0.438130">
        <ele>444.737</ele>
        <time>2019-06-16T10:42:00Z</time>
      </trkpt>
      <trkpt lat="38.742664" lon="-0.438130">
        <ele>444.799</ele>
        <time>2019-06-16T10:42:00Z</time>
      </trkpt>
      <trkpt lat="38.742524" lon="-0.438156">
        <ele>445.307</ele>
        <time>2019-06-16T10:42:03Z</time>
      </trkpt>
      <trkpt lat="38.742524" lon="-0.438156">
        <ele>445.327</ele>
        <time>2019-06-16T10:42:03Z</time>
      </trkpt>
      <trkpt lat="38.742524" lon="-0.438156">
        <ele>445.308</ele>
        <time>2019-06-16T10:42:03Z</time>
      </trkpt>
      <trkpt lat="38.742374" lon="-0.438235">
        <ele>445.362</ele>
        <time>2019-06-16T10:42:07Z</time>
      </trkpt>
      <trkpt lat="38.742374" lon="-0.438235">
        <ele>445.386</ele>
        <time>2019-06-16T10:42:07Z</time>
      </trkpt>
      <trkpt lat="38.742374" lon="-0.438235">
        <ele>445.355</ele>
        <time>2019-06-16T10:42:07Z</time>
      </trkpt>
      <trkpt lat="38.742374" lon="-0.438235">
        <ele>445.318</ele>
        <time>2019-06-16T10:42:07Z</time>
      </trkpt>
      <trkpt lat="38.742230" lon="-0.438320">
        <ele>445.920</ele>
        <time>2019-06-16T10:42:11Z</time>
      </trkpt>
      <trkpt lat="38.742230" lon="-0.438320">
        <ele>445.987</ele>
        <time>2019-06-16T10:42:11Z</time>
      </trkpt>
      <trkpt lat="38.742230" lon="-0.438320">
        <ele>445.916</ele>
        <time>2019-06-16T10:42:11Z</time>
      </trkpt>
      <trkpt lat="38.742230" lon="-0.438320">
        <ele>445.951</ele>
        <time>2019-06-16T10:42:11Z</time>
      </trkpt>
      <trkpt lat="38.742109" lon="-0.438338">
        <ele>446.429</ele>
        <time>2019-06-16T10:42:15Z</time>
      </trkpt>
      <trkpt lat="38.742109" lon="-0.438338">
        <ele>446.400</ele>
        <time>2019-06-16T10:42:15Z</time>
      </trkpt>
      <trkpt lat="38.742109" lon="-0.438338">
        <ele>446.420</ele>
        <time>2019-06-16T10:42:15Z</time>
      </trkpt>
      <trkpt lat="38.742109" lon="-0.438338">
        <ele>446.408</ele>
        <time>2019-06-16T10:42:15Z</time>
      </trkpt>
      <trkpt lat="38.741976" lon="-0.438447">
        <ele>447.795</ele>
        <time>2019-06-16T10:42:19Z</time>
      </trkpt>
      <trkpt lat="38.741976" lon="-0.438447">
        <ele>447.779</ele>
        <time>2019-06-16T10:42:19Z</time>
      </trkpt>
      <trkpt lat="38.741976" lon="-0.438447">
        <ele>447.788</ele>
        <time>2019-06-16T10:42:19Z</time>
      </trkpt>
      <trkpt lat="38.741976" lon="-0.438447">
        <ele>447.771</ele>
        <time>2019-06-16T10:42:19Z</time>
      </trkpt>
      <trkpt lat="38.741848" lon="-0.438558">
        <ele>448.663</ele>
        <time>2019-06-16T10:42:23Z</time>
      </trkpt>
      <trkpt lat="38.741848" lon="-0.438558">
        <ele>448.680</ele>
        <time>2019-06-16T10:42:23Z</time>
      </trkpt>
      <trkpt lat="38.741848" lon="-0.438558">
        <ele>448.619</ele>
        <time>2019-06-16T10:42:23Z</time>
      </trkpt>
      <trkpt lat="38.741848" lon="-0.438558">
        <ele>448.664</ele>
        <time>2019-06-16T10:42:23Z</time>
      </trkpt>
      <trkpt lat="38.741686" lon="-0.438649">
        <ele>448.979</ele>
        <time>2019-06-16T10:42:27Z</time>
      </trkpt>
      <trkpt lat="38.741686" lon="-0.438649">
        <ele>448.905</ele>
        <time>2019-06-16T10:42:27Z</time>
      </trkpt>
      <trkpt lat="38.741686" lon="-0.438649">
        <ele>448.925</ele>
        <time>2019-06-16T10:42:27Z</time>
      </trkpt>
      <trkpt lat="38.741686" lon="-0.438649">
        <ele>448.908</ele>
        <time>2019-06-16T10:42:27Z</time>
      </trkpt>
      <trkpt lat="38.741536" lon="-0.438748">
        <ele>450.230</ele>
        <time>2019-06-16T10:42:31Z</time>
      </trkpt>
      <trkpt lat="38.741536" lon="-0.438748">
        <ele>450.284</ele>
        <time>2019-06-16T10:42:31Z</time>
      </trkpt>
      <trkpt lat="38.741536" lon="-0.438748">
        <ele>450.293</ele>
        <time>2019-06-16T10:42:31Z</time>
      </trkpt>
      <trkpt lat="38.741536" lon="-0.438748">
        <ele>450.296</ele>
        <time>2019-06-16T10:42:31Z</time>
      </trkpt>
      <trkpt lat="38.741385" lon="-0.438844">
        <ele>451.458</ele>
        <time>2019-06-16T10:42:35Z</time>
      </trkpt>
      <trkpt lat="38.741385" lon="-0.438844">
        <ele>451.495</ele>
        <time>2019-06-16T10:42:35Z</time>
      </trkpt>
      <trkpt lat="38.741385" lon="-0.438844">
        <ele>451.494</ele>
        <time>2019-06-16T10:42:35Z</time>
      </trkpt>
      <trkpt lat="38.741385" lon="-0.438844">
        <ele>451.499</ele>
        <time>2019-06-16T10:42:35Z</time>
      </trkpt>
      <trkpt lat="38.741207" lon="-0.438875">
        <ele>454.325</ele>
        <time>2019-06-16T10:42:39Z</time>
      </trkpt>
      <trkpt lat="38.741207" lon="-0.438875">
        <ele>454.326</ele>
        <time>2019-06-16T10:42:39Z</time>
      </trkpt>
      <trkpt lat="38.741207" lon="-0.438875">
        <ele>454.308</ele>
        <time>2019-06-16T10:42:39Z</time>
      </trkpt>
      <trkpt lat="38.741207" lon="-0.438875">
        <ele>454.308</ele>
        <time>2019-06-16T10:42:39Z</time>
      </trkpt>
      <trkpt lat="38.741044" lon="-0.438932">
        <ele>455.685</ele>
        <time>2019-06-16T10:42:43Z</time>
      </trkpt>
      <trkpt lat="38.741044" lon="-0.438932">
        <ele>455.669</ele>
        <time>2019-06-16T10:42:43Z</time>
      </trkpt>
      <trkpt lat="38.741044" lon="-0.438932">
        <ele>455.618</ele>
        <time>2019-06-16T10:42:43Z</time>
      </trkpt>
      <trkpt lat="38.741044" lon="-0.438932">
        <ele>455.661</ele>
        <time>2019-06-16T10:42:43Z</time>
      </trkpt>
      <trkpt lat="38.740859" lon="-0.438975">
        <ele>455.173</ele>
        <time>2019-06-16T10:42:47Z</time>
      </trkpt>
      <trkpt lat="38.740859" lon="-0.438975">
        <ele>455.160</ele>
        <time>2019-06-16T10:42:47Z</time>
      </trkpt>
      <trkpt lat="38.740859" lon="-0.438975">
        <ele>455.179</ele>
        <time>2019-06-16T10:42:47Z</time>
      </trkpt>
      <trkpt lat="38.740859" lon="-0.438975">
        <ele>455.194</ele>
        <time>2019-06-16T10:42:47Z</time>
      </trkpt>
      <trkpt lat="38.740677" lon="-0.439004">
        <ele>455.343</ele>
        <time>2019-06-16T10:42:51Z</time>
      </trkpt>
      <trkpt lat="38.740677" lon="-0.439004">
        <ele>455.364</ele>
        <time>2019-06-16T10:42:51Z</time>
      </trkpt>
      <trkpt lat="38.740677" lon="-0.439004">
        <ele>455.310</ele>
        <time>2019-06-16T10:42:51Z</time>
      </trkpt>
      <trkpt lat="38.740677" lon="-0.439004">
        <ele>455.308</ele>
        <time>2019-06-16T10:42:51Z</time>
      </trkpt>
      <trkpt lat="38.740544" lon="-0.439089">
        <ele>455.377</ele>
        <time>2019-06-16T10:42:55Z</time>
      </trkpt>
      <trkpt lat="38.740544" lon="-0.439089">
        <ele>455.341</ele>
        <time>2019-06-16T10:42:55Z</time>
      </trkpt>
      <trkpt lat="38.740544" lon="-0.439089">
        <ele>455.340</ele>
        <time>2019-06-16T10:42:55Z</time>
      </trkpt>
      <trkpt lat="38.740544" lon="-0.439089">
        <ele>455.343</ele>
        <time>2019-06-16T10:42:55Z</time>
      </trkpt>
      <trkpt lat="38.740396" lon="-0.439133">
        <ele>455.655</ele>
        <time>2019-06-16T10:42:59Z</time>
      </trkpt>
      <trkpt lat="38.740396" lon="-0.439133">
        <ele>455.692</ele>
        <time>2019-06-16T10:42:59Z</time>
      </trkpt>
      <trkpt lat="38.740396" lon="-0.439133">
        <ele>455.671</ele>
        <time>2019-06-16T10:42:59Z</time>
      </trkpt>
      <trkpt lat="38.740396" lon="-0.439133">
        <ele>455.696</ele>
        <time>2019-06-16T10:42:59Z</time>
      </trkpt>
      <trkpt lat="38.740205" lon="-0.439219">
        <ele>456.358</ele>
        <time>2019-06-16T10:43:04Z</time>
      </trkpt>
      <trkpt lat="38.740205" lon="-0.439219">
        <ele>456.352</ele>
        <time>2019-06-16T10:43:04Z</time>
      </trkpt>
      <trkpt lat="38.740205" lon="-0.439219">
        <ele>456.317</ele>
        <time>2019-06-16T10:43:04Z</time>
      </trkpt>
      <trkpt lat="38.740205" lon="-0.439219">
        <ele>456.308</ele>
        <time>2019-06-16T10:43:04Z</time>
      </trkpt>
      <trkpt lat="38.740205" lon="-0.439219">
        <ele>456.318</ele>
        <time>2019-06-16T10:43:04Z</time>
      </trkpt>
      <trkpt lat="38.740160" lon="-0.439241">
        <ele>456.422</ele>
        <time>2019-06-16T10:43:05Z</time>
      </trkpt>
      <trkpt lat="38.740114" lon="-0.439270">
        <ele>456.671</ele>
        <time>2019-06-16T10:43:06Z</time>
      </trkpt>
      <trkpt lat="38.740017" lon="-0.439325">
        <ele>456.994</ele>
        <time>2019-06-16T10:43:09Z</time>
      </trkpt>
      <trkpt lat="38.740017" lon="-0.439325">
        <ele>456.956</ele>
        <time>2019-06-16T10:43:09Z</time>
      </trkpt>
      <trkpt lat="38.740017" lon="-0.439325">
        <ele>456.933</ele>
        <time>2019-06-16T10:43:09Z</time>
      </trkpt>
      <trkpt lat="38.739948" lon="-0.439374">
        <ele>457.512</ele>
        <time>2019-06-16T10:43:13Z</time>
      </trkpt>
      <trkpt lat="38.739948" lon="-0.439374">
        <ele>457.587</ele>
        <time>2019-06-16T10:43:13Z</time>
      </trkpt>
      <trkpt lat="38.739948" lon="-0.439374">
        <ele>457.592</ele>
        <time>2019-06-16T10:43:13Z</time>
      </trkpt>
      <trkpt lat="38.739948" lon="-0.439374">
        <ele>457.573</ele>
        <time>2019-06-16T10:43:13Z</time>
      </trkpt>
      <trkpt lat="38.739892" lon="-0.439404">
        <ele>458.120</ele>
        <time>2019-06-16T10:43:45Z</time>
      </trkpt>
      <trkpt lat="38.739849" lon="-0.439431">
        <ele>458.608</ele>
        <time>2019-06-16T10:43:46Z</time>
      </trkpt>
      <trkpt lat="38.739804" lon="-0.439466">
        <ele>459.292</ele>
        <time>2019-06-16T10:43:47Z</time>
      </trkpt>
      <trkpt lat="38.739758" lon="-0.439497">
        <ele>459.876</ele>
        <time>2019-06-16T10:43:48Z</time>
      </trkpt>
      <trkpt lat="38.739710" lon="-0.439530">
        <ele>460.345</ele>
        <time>2019-06-16T10:43:49Z</time>
      </trkpt>
      <trkpt lat="38.739615" lon="-0.439596">
        <ele>460.828</ele>
        <time>2019-06-16T10:43:51Z</time>
      </trkpt>
      <trkpt lat="38.739615" lon="-0.439596">
        <ele>460.860</ele>
        <time>2019-06-16T10:43:51Z</time>
      </trkpt>
      <trkpt lat="38.739519" lon="-0.439652">
        <ele>461.327</ele>
        <time>2019-06-16T10:43:53Z</time>
      </trkpt>
      <trkpt lat="38.739519" lon="-0.439652">
        <ele>461.386</ele>
        <time>2019-06-16T10:43:53Z</time>
      </trkpt>
      <trkpt lat="38.739435" lon="-0.439691">
        <ele>461.831</ele>
        <time>2019-06-16T10:43:55Z</time>
      </trkpt>
      <trkpt lat="38.739435" lon="-0.439691">
        <ele>461.862</ele>
        <time>2019-06-16T10:43:55Z</time>
      </trkpt>
      <trkpt lat="38.739317" lon="-0.439736">
        <ele>462.583</ele>
        <time>2019-06-16T10:43:58Z</time>
      </trkpt>
      <trkpt lat="38.739317" lon="-0.439736">
        <ele>462.511</ele>
        <time>2019-06-16T10:43:58Z</time>
      </trkpt>
      <trkpt lat="38.739317" lon="-0.439736">
        <ele>462.508</ele>
        <time>2019-06-16T10:43:58Z</time>
      </trkpt>
      <trkpt lat="38.739085" lon="-0.439807">
        <ele>463.789</ele>
        <time>2019-06-16T10:44:03Z</time>
      </trkpt>
      <trkpt lat="38.739085" lon="-0.439807">
        <ele>463.763</ele>
        <time>2019-06-16T10:44:03Z</time>
      </trkpt>
      <trkpt lat="38.739085" lon="-0.439807">
        <ele>463.742</ele>
        <time>2019-06-16T10:44:03Z</time>
      </trkpt>
      <trkpt lat="38.739085" lon="-0.439807">
        <ele>463.725</ele>
        <time>2019-06-16T10:44:03Z</time>
      </trkpt>
      <trkpt lat="38.739085" lon="-0.439807">
        <ele>463.757</ele>
        <time>2019-06-16T10:44:03Z</time>
      </trkpt>
      <trkpt lat="38.738836" lon="-0.439923">
        <ele>465.884</ele>
        <time>2019-06-16T10:44:08Z</time>
      </trkpt>
      <trkpt lat="38.738836" lon="-0.439923">
        <ele>465.863</ele>
        <time>2019-06-16T10:44:08Z</time>
      </trkpt>
      <trkpt lat="38.738836" lon="-0.439923">
        <ele>465.878</ele>
        <time>2019-06-16T10:44:08Z</time>
      </trkpt>
      <trkpt lat="38.738836" lon="-0.439923">
        <ele>465.856</ele>
        <time>2019-06-16T10:44:08Z</time>
      </trkpt>
      <trkpt lat="38.738836" lon="-0.439923">
        <ele>465.859</ele>
        <time>2019-06-16T10:44:08Z</time>
      </trkpt>
      <trkpt lat="38.738610" lon="-0.440000">
        <ele>468.014</ele>
        <time>2019-06-16T10:44:13Z</time>
      </trkpt>
      <trkpt lat="38.738610" lon="-0.440000">
        <ele>468.008</ele>
        <time>2019-06-16T10:44:13Z</time>
      </trkpt>
      <trkpt lat="38.738610" lon="-0.440000">
        <ele>468.048</ele>
        <time>2019-06-16T10:44:13Z</time>
      </trkpt>
      <trkpt lat="38.738610" lon="-0.440000">
        <ele>468.022</ele>
        <time>2019-06-16T10:44:13Z</time>
      </trkpt>
      <trkpt lat="38.738610" lon="-0.440000">
        <ele>468.071</ele>
        <time>2019-06-16T10:44:13Z</time>
      </trkpt>
      <trkpt lat="38.738370" lon="-0.440030">
        <ele>469.294</ele>
        <time>2019-06-16T10:44:18Z</time>
      </trkpt>
      <trkpt lat="38.738370" lon="-0.440030">
        <ele>469.246</ele>
        <time>2019-06-16T10:44:18Z</time>
      </trkpt>
      <trkpt lat="38.738370" lon="-0.440030">
        <ele>469.273</ele>
        <time>2019-06-16T10:44:18Z</time>
      </trkpt>
      <trkpt lat="38.738370" lon="-0.440030">
        <ele>469.232</ele>
        <time>2019-06-16T10:44:18Z</time>
      </trkpt>
      <trkpt lat="38.738370" lon="-0.440030">
        <ele>469.217</ele>
        <time>2019-06-16T10:44:18Z</time>
      </trkpt>
      <trkpt lat="38.738173" lon="-0.440109">
        <ele>468.846</ele>
        <time>2019-06-16T10:44:24Z</time>
      </trkpt>
      <trkpt lat="38.738173" lon="-0.440109">
        <ele>468.888</ele>
        <time>2019-06-16T10:44:24Z</time>
      </trkpt>
      <trkpt lat="38.738173" lon="-0.440109">
        <ele>468.816</ele>
        <time>2019-06-16T10:44:24Z</time>
      </trkpt>
      <trkpt lat="38.738173" lon="-0.440109">
        <ele>468.808</ele>
        <time>2019-06-16T10:44:24Z</time>
      </trkpt>
      <trkpt lat="38.738173" lon="-0.440109">
        <ele>468.847</ele>
        <time>2019-06-16T10:44:24Z</time>
      </trkpt>
      <trkpt lat="38.738173" lon="-0.440109">
        <ele>468.881</ele>
        <time>2019-06-16T10:44:24Z</time>
      </trkpt>
      <trkpt lat="38.737932" lon="-0.440164">
        <ele>467.790</ele>
        <time>2019-06-16T10:44:30Z</time>
      </trkpt>
      <trkpt lat="38.737932" lon="-0.440164">
        <ele>467.783</ele>
        <time>2019-06-16T10:44:30Z</time>
      </trkpt>
      <trkpt lat="38.737932" lon="-0.440164">
        <ele>467.735</ele>
        <time>2019-06-16T10:44:30Z</time>
      </trkpt>
      <trkpt lat="38.737932" lon="-0.440164">
        <ele>467.732</ele>
        <time>2019-06-16T10:44:30Z</time>
      </trkpt>
      <trkpt lat="38.737932" lon="-0.440164">
        <ele>467.751</ele>
        <time>2019-06-16T10:44:30Z</time>
      </trkpt>
      <trkpt lat="38.737932" lon="-0.440164">
        <ele>467.766</ele>
        <time>2019-06-16T10:44:30Z</time>
      </trkpt>
      <trkpt lat="38.737802" lon="-0.440418">
        <ele>467.746</ele>
        <time>2019-06-16T10:44:36Z</time>
      </trkpt>
      <trkpt lat="38.737802" lon="-0.440418">
        <ele>467.788</ele>
        <time>2019-06-16T10:44:36Z</time>
      </trkpt>
      <trkpt lat="38.737802" lon="-0.440418">
        <ele>467.716</ele>
        <time>2019-06-16T10:44:36Z</time>
      </trkpt>
      <trkpt lat="38.737802" lon="-0.440418">
        <ele>467.708</ele>
        <time>2019-06-16T10:44:36Z</time>
      </trkpt>
      <trkpt lat="38.737802" lon="-0.440418">
        <ele>467.717</ele>
        <time>2019-06-16T10:44:36Z</time>
      </trkpt>
      <trkpt lat="38.737802" lon="-0.440418">
        <ele>467.721</ele>
        <time>2019-06-16T10:44:36Z</time>
      </trkpt>
      <trkpt lat="38.737567" lon="-0.440435">
        <ele>469.820</ele>
        <time>2019-06-16T10:44:42Z</time>
      </trkpt>
      <trkpt lat="38.737567" lon="-0.440435">
        <ele>469.833</ele>
        <time>2019-06-16T10:44:42Z</time>
      </trkpt>
      <trkpt lat="38.737567" lon="-0.440435">
        <ele>469.845</ele>
        <time>2019-06-16T10:44:42Z</time>
      </trkpt>
      <trkpt lat="38.737567" lon="-0.440435">
        <ele>469.852</ele>
        <time>2019-06-16T10:44:42Z</time>
      </trkpt>
      <trkpt lat="38.737567" lon="-0.440435">
        <ele>469.831</ele>
        <time>2019-06-16T10:44:42Z</time>
      </trkpt>
      <trkpt lat="38.737567" lon="-0.440435">
        <ele>469.896</ele>
        <time>2019-06-16T10:44:42Z</time>
      </trkpt>
      <trkpt lat="38.737300" lon="-0.440479">
        <ele>473.177</ele>
        <time>2019-06-16T10:44:48Z</time>
      </trkpt>
      <trkpt lat="38.737300" lon="-0.440479">
        <ele>473.161</ele>
        <time>2019-06-16T10:44:48Z</time>
      </trkpt>
      <trkpt lat="38.737300" lon="-0.440479">
        <ele>473.127</ele>
        <time>2019-06-16T10:44:48Z</time>
      </trkpt>
      <trkpt lat="38.737300" lon="-0.440479">
        <ele>473.108</ele>
        <time>2019-06-16T10:44:48Z</time>
      </trkpt>
      <trkpt lat="38.737300" lon="-0.440479">
        <ele>473.120</ele>
        <time>2019-06-16T10:44:48Z</time>
      </trkpt>
      <trkpt lat="38.737300" lon="-0.440479">
        <ele>473.154</ele>
        <time>2019-06-16T10:44:48Z</time>
      </trkpt>
      <trkpt lat="38.737054" lon="-0.440515">
        <ele>475.233</ele>
        <time>2019-06-16T10:44:54Z</time>
      </trkpt>
      <trkpt lat="38.737054" lon="-0.440515">
        <ele>475.236</ele>
        <time>2019-06-16T10:44:54Z</time>
      </trkpt>
      <trkpt lat="38.737054" lon="-0.440515">
        <ele>475.238</ele>
        <time>2019-06-16T10:44:54Z</time>
      </trkpt>
      <trkpt lat="38.737054" lon="-0.440515">
        <ele>475.275</ele>
        <time>2019-06-16T10:44:54Z</time>
      </trkpt>
      <trkpt lat="38.737054" lon="-0.440515">
        <ele>475.234</ele>
        <time>2019-06-16T10:44:54Z</time>
      </trkpt>
      <trkpt lat="38.737054" lon="-0.440515">
        <ele>475.269</ele>
        <time>2019-06-16T10:44:54Z</time>
      </trkpt>
      <trkpt lat="38.736865" lon="-0.440567">
        <ele>475.789</ele>
        <time>2019-06-16T10:45:00Z</time>
      </trkpt>
      <trkpt lat="38.736865" lon="-0.440567">
        <ele>475.706</ele>
        <time>2019-06-16T10:45:00Z</time>
      </trkpt>
      <trkpt lat="38.736865" lon="-0.440567">
        <ele>475.726</ele>
        <time>2019-06-16T10:45:00Z</time>
      </trkpt>
      <trkpt lat="38.736865" lon="-0.440567">
        <ele>475.708</ele>
        <time>2019-06-16T10:45:00Z</time>
      </trkpt>
      <trkpt lat="38.736865" lon="-0.440567">
        <ele>475.771</ele>
        <time>2019-06-16T10:45:00Z</time>
      </trkpt>
      <trkpt lat="38.736865" lon="-0.440567">
        <ele>475.755</ele>
        <time>2019-06-16T10:45:00Z</time>
      </trkpt>
      <trkpt lat="38.736699" lon="-0.440624">
        <ele>475.114</ele>
        <time>2019-06-16T10:45:06Z</time>
      </trkpt>
      <trkpt lat="38.736699" lon="-0.440624">
        <ele>475.147</ele>
        <time>2019-06-16T10:45:06Z</time>
      </trkpt>
      <trkpt lat="38.736699" lon="-0.440624">
        <ele>475.129</ele>
        <time>2019-06-16T10:45:06Z</time>
      </trkpt>
      <trkpt lat="38.736699" lon="-0.440624">
        <ele>475.126</ele>
        <time>2019-06-16T10:45:06Z</time>
      </trkpt>
      <trkpt lat="38.736699" lon="-0.440624">
        <ele>475.145</ele>
        <time>2019-06-16T10:45:06Z</time>
      </trkpt>
      <trkpt lat="38.736699" lon="-0.440624">
        <ele>475.150</ele>
        <time>2019-06-16T10:45:06Z</time>
      </trkpt>
      <trkpt lat="38.736431" lon="-0.440667">
        <ele>474.731</ele>
        <time>2019-06-16T10:45:13Z</time>
      </trkpt>
      <trkpt lat="38.736431" lon="-0.440667">
        <ele>474.761</ele>
        <time>2019-06-16T10:45:13Z</time>
      </trkpt>
      <trkpt lat="38.736431" lon="-0.440667">
        <ele>474.707</ele>
        <time>2019-06-16T10:45:13Z</time>
      </trkpt>
      <trkpt lat="38.736431" lon="-0.440667">
        <ele>474.708</ele>
        <time>2019-06-16T10:45:13Z</time>
      </trkpt>
      <trkpt lat="38.736431" lon="-0.440667">
        <ele>474.716</ele>
        <time>2019-06-16T10:45:13Z</time>
      </trkpt>
      <trkpt lat="38.736431" lon="-0.440667">
        <ele>474.710</ele>
        <time>2019-06-16T10:45:13Z</time>
      </trkpt>
      <trkpt lat="38.736431" lon="-0.440667">
        <ele>474.749</ele>
        <time>2019-06-16T10:45:13Z</time>
      </trkpt>
      <trkpt lat="38.736225" lon="-0.440719">
        <ele>475.152</ele>
        <time>2019-06-16T10:45:20Z</time>
      </trkpt>
      <trkpt lat="38.736225" lon="-0.440719">
        <ele>475.174</ele>
        <time>2019-06-16T10:45:20Z</time>
      </trkpt>
      <trkpt lat="38.736225" lon="-0.440719">
        <ele>475.191</ele>
        <time>2019-06-16T10:45:20Z</time>
      </trkpt>
      <trkpt lat="38.736225" lon="-0.440719">
        <ele>475.110</ele>
        <time>2019-06-16T10:45:20Z</time>
      </trkpt>
      <trkpt lat="38.736225" lon="-0.440719">
        <ele>475.125</ele>
        <time>2019-06-16T10:45:20Z</time>
      </trkpt>
      <trkpt lat="38.736225" lon="-0.440719">
        <ele>475.175</ele>
        <time>2019-06-16T10:45:20Z</time>
      </trkpt>
      <trkpt lat="38.736225" lon="-0.440719">
        <ele>475.128</ele>
        <time>2019-06-16T10:45:20Z</time>
      </trkpt>
      <trkpt lat="38.736062" lon="-0.440845">
        <ele>476.520</ele>
        <time>2019-06-16T10:45:27Z</time>
      </trkpt>
      <trkpt lat="38.736062" lon="-0.440845">
        <ele>476.508</ele>
        <time>2019-06-16T10:45:27Z</time>
      </trkpt>
      <trkpt lat="38.736062" lon="-0.440845">
        <ele>476.530</ele>
        <time>2019-06-16T10:45:27Z</time>
      </trkpt>
      <trkpt lat="38.736062" lon="-0.440845">
        <ele>476.514</ele>
        <time>2019-06-16T10:45:27Z</time>
      </trkpt>
      <trkpt lat="38.736062" lon="-0.440845">
        <ele>476.533</ele>
        <time>2019-06-16T10:45:27Z</time>
      </trkpt>
      <trkpt lat="38.736062" lon="-0.440845">
        <ele>476.546</ele>
        <time>2019-06-16T10:45:27Z</time>
      </trkpt>
      <trkpt lat="38.736062" lon="-0.440845">
        <ele>476.598</ele>
        <time>2019-06-16T10:45:27Z</time>
      </trkpt>
      <trkpt lat="38.735865" lon="-0.440964">
        <ele>478.795</ele>
        <time>2019-06-16T10:45:34Z</time>
      </trkpt>
      <trkpt lat="38.735865" lon="-0.440964">
        <ele>478.774</ele>
        <time>2019-06-16T10:45:34Z</time>
      </trkpt>
      <trkpt lat="38.735865" lon="-0.440964">
        <ele>478.719</ele>
        <time>2019-06-16T10:45:34Z</time>
      </trkpt>
      <trkpt lat="38.735865" lon="-0.440964">
        <ele>478.791</ele>
        <time>2019-06-16T10:45:34Z</time>
      </trkpt>
      <trkpt lat="38.735865" lon="-0.440964">
        <ele>478.781</ele>
        <time>2019-06-16T10:45:34Z</time>
      </trkpt>
      <trkpt lat="38.735865" lon="-0.440964">
        <ele>478.719</ele>
        <time>2019-06-16T10:45:34Z</time>
      </trkpt>
      <trkpt lat="38.735865" lon="-0.440964">
        <ele>478.708</ele>
        <time>2019-06-16T10:45:34Z</time>
      </trkpt>
      <trkpt lat="38.735638" lon="-0.441066">
        <ele>481.222</ele>
        <time>2019-06-16T10:45:41Z</time>
      </trkpt>
      <trkpt lat="38.735638" lon="-0.441066">
        <ele>481.266</ele>
        <time>2019-06-16T10:45:41Z</time>
      </trkpt>
      <trkpt lat="38.735638" lon="-0.441066">
        <ele>481.285</ele>
        <time>2019-06-16T10:45:41Z</time>
      </trkpt>
      <trkpt lat="38.735638" lon="-0.441066">
        <ele>481.238</ele>
        <time>2019-06-16T10:45:41Z</time>
      </trkpt>
      <trkpt lat="38.735638" lon="-0.441066">
        <ele>481.270</ele>
        <time>2019-06-16T10:45:41Z</time>
      </trkpt>
      <trkpt lat="38.735638" lon="-0.441066">
        <ele>481.237</ele>
        <time>2019-06-16T10:45:41Z</time>
      </trkpt>
      <trkpt lat="38.735638" lon="-0.441066">
        <ele>481.216</ele>
        <time>2019-06-16T10:45:41Z</time>
      </trkpt>
      <trkpt lat="38.735479" lon="-0.441261">
        <ele>483.571</ele>
        <time>2019-06-16T10:45:48Z</time>
      </trkpt>
      <trkpt lat="38.735479" lon="-0.441261">
        <ele>483.574</ele>
        <time>2019-06-16T10:45:48Z</time>
      </trkpt>
      <trkpt lat="38.735479" lon="-0.441261">
        <ele>483.556</ele>
        <time>2019-06-16T10:45:48Z</time>
      </trkpt>
      <trkpt lat="38.735479" lon="-0.441261">
        <ele>483.521</ele>
        <time>2019-06-16T10:45:48Z</time>
      </trkpt>
      <trkpt lat="38.735479" lon="-0.441261">
        <ele>483.508</ele>
        <time>2019-06-16T10:45:48Z</time>
      </trkpt>
      <trkpt lat="38.735479" lon="-0.441261">
        <ele>483.540</ele>
        <time>2019-06-16T10:45:48Z</time>
      </trkpt>
      <trkpt lat="38.735479" lon="-0.441261">
        <ele>483.574</ele>
        <time>2019-06-16T10:45:48Z</time>
      </trkpt>
      <trkpt lat="38.735455" lon="-0.441334">
        <ele>484.083</ele>
        <time>2019-06-16T10:45:50Z</time>
      </trkpt>
      <trkpt lat="38.735417" lon="-0.441398">
        <ele>484.666</ele>
        <time>2019-06-16T10:45:52Z</time>
      </trkpt>
      <trkpt lat="38.735369" lon="-0.441433">
        <ele>485.018</ele>
        <time>2019-06-16T10:45:54Z</time>
      </trkpt>
      <trkpt lat="38.735314" lon="-0.441454">
        <ele>485.455</ele>
        <time>2019-06-16T10:45:56Z</time>
      </trkpt>
      <trkpt lat="38.735263" lon="-0.441483">
        <ele>485.794</ele>
        <time>2019-06-16T10:45:58Z</time>
      </trkpt>
      <trkpt lat="38.735216" lon="-0.441530">
        <ele>486.259</ele>
        <time>2019-06-16T10:46:00Z</time>
      </trkpt>
      <trkpt lat="38.735182" lon="-0.441574">
        <ele>486.678</ele>
        <time>2019-06-16T10:46:02Z</time>
      </trkpt>
      <trkpt lat="38.735148" lon="-0.441623">
        <ele>486.833</ele>
        <time>2019-06-16T10:46:04Z</time>
      </trkpt>
      <trkpt lat="38.735106" lon="-0.441673">
        <ele>487.026</ele>
        <time>2019-06-16T10:46:06Z</time>
      </trkpt>
      <trkpt lat="38.735057" lon="-0.441724">
        <ele>487.208</ele>
        <time>2019-06-16T10:46:08Z</time>
      </trkpt>
      <trkpt lat="38.735012" lon="-0.441771">
        <ele>487.450</ele>
        <time>2019-06-16T10:46:10Z</time>
      </trkpt>
      <trkpt lat="38.734958" lon="-0.441819">
        <ele>487.254</ele>
        <time>2019-06-16T10:46:12Z</time>
      </trkpt>
      <trkpt lat="38.734899" lon="-0.441859">
        <ele>486.933</ele>
        <time>2019-06-16T10:46:14Z</time>
      </trkpt>
      <trkpt lat="38.734837" lon="-0.441897">
        <ele>486.626</ele>
        <time>2019-06-16T10:46:16Z</time>
      </trkpt>
      <trkpt lat="38.734789" lon="-0.441938">
        <ele>486.468</ele>
        <time>2019-06-16T10:46:18Z</time>
      </trkpt>
      <trkpt lat="38.734741" lon="-0.441995">
        <ele>486.525</ele>
        <time>2019-06-16T10:46:20Z</time>
      </trkpt>
      <trkpt lat="38.734706" lon="-0.442043">
        <ele>486.764</ele>
        <time>2019-06-16T10:46:22Z</time>
      </trkpt>
      <trkpt lat="38.734671" lon="-0.442090">
        <ele>487.189</ele>
        <time>2019-06-16T10:46:24Z</time>
      </trkpt>
      <trkpt lat="38.734633" lon="-0.442136">
        <ele>487.569</ele>
        <time>2019-06-16T10:46:26Z</time>
      </trkpt>
      <trkpt lat="38.734590" lon="-0.442183">
        <ele>488.104</ele>
        <time>2019-06-16T10:46:28Z</time>
      </trkpt>
      <trkpt lat="38.734544" lon="-0.442226">
        <ele>488.724</ele>
        <time>2019-06-16T10:46:30Z</time>
      </trkpt>
      <trkpt lat="38.734502" lon="-0.442255">
        <ele>488.908</ele>
        <time>2019-06-16T10:46:32Z</time>
      </trkpt>
      <trkpt lat="38.734442" lon="-0.442301">
        <ele>489.329</ele>
        <time>2019-06-16T10:46:34Z</time>
      </trkpt>
      <trkpt lat="38.734384" lon="-0.442344">
        <ele>490.113</ele>
        <time>2019-06-16T10:46:36Z</time>
      </trkpt>
      <trkpt lat="38.734330" lon="-0.442388">
        <ele>490.842</ele>
        <time>2019-06-16T10:46:38Z</time>
      </trkpt>
      <trkpt lat="38.734280" lon="-0.442430">
        <ele>491.595</ele>
        <time>2019-06-16T10:46:40Z</time>
      </trkpt>
      <trkpt lat="38.734241" lon="-0.442464">
        <ele>492.167</ele>
        <time>2019-06-16T10:46:42Z</time>
      </trkpt>
      <trkpt lat="38.734201" lon="-0.442508">
        <ele>492.794</ele>
        <time>2019-06-16T10:46:44Z</time>
      </trkpt>
      <trkpt lat="38.734163" lon="-0.442552">
        <ele>493.283</ele>
        <time>2019-06-16T10:46:46Z</time>
      </trkpt>
      <trkpt lat="38.734126" lon="-0.442590">
        <ele>493.428</ele>
        <time>2019-06-16T10:46:48Z</time>
      </trkpt>
      <trkpt lat="38.734085" lon="-0.442628">
        <ele>493.636</ele>
        <time>2019-06-16T10:46:50Z</time>
      </trkpt>
      <trkpt lat="38.734042" lon="-0.442650">
        <ele>493.817</ele>
        <time>2019-06-16T10:46:52Z</time>
      </trkpt>
      <trkpt lat="38.733999" lon="-0.442669">
        <ele>494.018</ele>
        <time>2019-06-16T10:46:54Z</time>
      </trkpt>
      <trkpt lat="38.733957" lon="-0.442704">
        <ele>494.308</ele>
        <time>2019-06-16T10:46:56Z</time>
      </trkpt>
      <trkpt lat="38.733926" lon="-0.442747">
        <ele>494.766</ele>
        <time>2019-06-16T10:46:58Z</time>
      </trkpt>
      <trkpt lat="38.733901" lon="-0.442819">
        <ele>494.890</ele>
        <time>2019-06-16T10:47:00Z</time>
      </trkpt>
      <trkpt lat="38.733878" lon="-0.442888">
        <ele>494.759</ele>
        <time>2019-06-16T10:47:02Z</time>
      </trkpt>
      <trkpt lat="38.733849" lon="-0.442946">
        <ele>494.632</ele>
        <time>2019-06-16T10:47:04Z</time>
      </trkpt>
      <trkpt lat="38.733804" lon="-0.442995">
        <ele>494.664</ele>
        <time>2019-06-16T10:47:06Z</time>
      </trkpt>
      <trkpt lat="38.733750" lon="-0.443034">
        <ele>494.651</ele>
        <time>2019-06-16T10:47:08Z</time>
      </trkpt>
      <trkpt lat="38.733691" lon="-0.443059">
        <ele>494.780</ele>
        <time>2019-06-16T10:47:10Z</time>
      </trkpt>
      <trkpt lat="38.733624" lon="-0.443070">
        <ele>495.075</ele>
        <time>2019-06-16T10:47:12Z</time>
      </trkpt>
      <trkpt lat="38.733566" lon="-0.443073">
        <ele>495.894</ele>
        <time>2019-06-16T10:47:14Z</time>
      </trkpt>
      <trkpt lat="38.733510" lon="-0.443100">
        <ele>496.857</ele>
        <time>2019-06-16T10:47:17Z</time>
      </trkpt>
      <trkpt lat="38.733475" lon="-0.443144">
        <ele>497.322</ele>
        <time>2019-06-16T10:47:19Z</time>
      </trkpt>
      <trkpt lat="38.733436" lon="-0.443200">
        <ele>497.808</ele>
        <time>2019-06-16T10:47:21Z</time>
      </trkpt>
      <trkpt lat="38.733396" lon="-0.443257">
        <ele>498.332</ele>
        <time>2019-06-16T10:47:23Z</time>
      </trkpt>
      <trkpt lat="38.733346" lon="-0.443306">
        <ele>498.996</ele>
        <time>2019-06-16T10:47:25Z</time>
      </trkpt>
      <trkpt lat="38.733292" lon="-0.443346">
        <ele>500.985</ele>
        <time>2019-06-16T10:47:27Z</time>
      </trkpt>
      <trkpt lat="38.733233" lon="-0.443377">
        <ele>503.558</ele>
        <time>2019-06-16T10:47:29Z</time>
      </trkpt>
      <trkpt lat="38.733169" lon="-0.443411">
        <ele>506.030</ele>
        <time>2019-06-16T10:47:31Z</time>
      </trkpt>
      <trkpt lat="38.733118" lon="-0.443457">
        <ele>507.597</ele>
        <time>2019-06-16T10:47:33Z</time>
      </trkpt>
      <trkpt lat="38.733075" lon="-0.443506">
        <ele>508.296</ele>
        <time>2019-06-16T10:47:35Z</time>
      </trkpt>
      <trkpt lat="38.733033" lon="-0.443552">
        <ele>508.281</ele>
        <time>2019-06-16T10:47:37Z</time>
      </trkpt>
      <trkpt lat="38.732992" lon="-0.443595">
        <ele>507.792</ele>
        <time>2019-06-16T10:47:39Z</time>
      </trkpt>
      <trkpt lat="38.732949" lon="-0.443639">
        <ele>507.873</ele>
        <time>2019-06-16T10:47:41Z</time>
      </trkpt>
      <trkpt lat="38.732898" lon="-0.443683">
        <ele>508.020</ele>
        <time>2019-06-16T10:47:43Z</time>
      </trkpt>
      <trkpt lat="38.732855" lon="-0.443718">
        <ele>508.008</ele>
        <time>2019-06-16T10:47:45Z</time>
      </trkpt>
      <trkpt lat="38.732813" lon="-0.443758">
        <ele>507.962</ele>
        <time>2019-06-16T10:47:47Z</time>
      </trkpt>
      <trkpt lat="38.732778" lon="-0.443800">
        <ele>507.696</ele>
        <time>2019-06-16T10:47:49Z</time>
      </trkpt>
      <trkpt lat="38.732733" lon="-0.443852">
        <ele>508.075</ele>
        <time>2019-06-16T10:47:51Z</time>
      </trkpt>
      <trkpt lat="38.732681" lon="-0.443906">
        <ele>508.958</ele>
        <time>2019-06-16T10:47:53Z</time>
      </trkpt>
      <trkpt lat="38.732634" lon="-0.443946">
        <ele>510.170</ele>
        <time>2019-06-16T10:47:55Z</time>
      </trkpt>
      <trkpt lat="38.732582" lon="-0.443984">
        <ele>511.057</ele>
        <time>2019-06-16T10:47:57Z</time>
      </trkpt>
      <trkpt lat="38.732534" lon="-0.444023">
        <ele>511.756</ele>
        <time>2019-06-16T10:47:59Z</time>
      </trkpt>
      <trkpt lat="38.732483" lon="-0.444074">
        <ele>512.571</ele>
        <time>2019-06-16T10:48:01Z</time>
      </trkpt>
      <trkpt lat="38.732438" lon="-0.444122">
        <ele>513.815</ele>
        <time>2019-06-16T10:48:03Z</time>
      </trkpt>
      <trkpt lat="38.732384" lon="-0.444181">
        <ele>515.665</ele>
        <time>2019-06-16T10:48:05Z</time>
      </trkpt>
      <trkpt lat="38.732331" lon="-0.444245">
        <ele>517.611</ele>
        <time>2019-06-16T10:48:07Z</time>
      </trkpt>
      <trkpt lat="38.732281" lon="-0.444305">
        <ele>519.008</ele>
        <time>2019-06-16T10:48:09Z</time>
      </trkpt>
      <trkpt lat="38.732227" lon="-0.444359">
        <ele>519.934</ele>
        <time>2019-06-16T10:48:11Z</time>
      </trkpt>
      <trkpt lat="38.732178" lon="-0.444403">
        <ele>520.378</ele>
        <time>2019-06-16T10:48:13Z</time>
      </trkpt>
      <trkpt lat="38.732129" lon="-0.444452">
        <ele>520.857</ele>
        <time>2019-06-16T10:48:15Z</time>
      </trkpt>
      <trkpt lat="38.732091" lon="-0.444493">
        <ele>521.580</ele>
        <time>2019-06-16T10:48:17Z</time>
      </trkpt>
      <trkpt lat="38.732036" lon="-0.444538">
        <ele>522.152</ele>
        <time>2019-06-16T10:48:19Z</time>
      </trkpt>
      <trkpt lat="38.731978" lon="-0.444572">
        <ele>522.459</ele>
        <time>2019-06-16T10:48:21Z</time>
      </trkpt>
      <trkpt lat="38.731917" lon="-0.444605">
        <ele>522.238</ele>
        <time>2019-06-16T10:48:23Z</time>
      </trkpt>
      <trkpt lat="38.731858" lon="-0.444643">
        <ele>521.373</ele>
        <time>2019-06-16T10:48:25Z</time>
      </trkpt>
      <trkpt lat="38.731779" lon="-0.444686">
        <ele>520.099</ele>
        <time>2019-06-16T10:48:26Z</time>
      </trkpt>
      <trkpt lat="38.731710" lon="-0.444735">
        <ele>518.807</ele>
        <time>2019-06-16T10:48:28Z</time>
      </trkpt>
      <trkpt lat="38.731631" lon="-0.444794">
        <ele>517.327</ele>
        <time>2019-06-16T10:48:30Z</time>
      </trkpt>
      <trkpt lat="38.731579" lon="-0.444826">
        <ele>516.308</ele>
        <time>2019-06-16T10:48:31Z</time>
      </trkpt>
      <trkpt lat="38.731541" lon="-0.444859">
        <ele>515.512</ele>
        <time>2019-06-16T10:48:32Z</time>
      </trkpt>
      <trkpt lat="38.731490" lon="-0.444875">
        <ele>514.536</ele>
        <time>2019-06-16T10:48:33Z</time>
      </trkpt>
      <trkpt lat="38.731459" lon="-0.444919">
        <ele>513.755</ele>
        <time>2019-06-16T10:48:34Z</time>
      </trkpt>
      <trkpt lat="38.731416" lon="-0.444959">
        <ele>512.748</ele>
        <time>2019-06-16T10:48:35Z</time>
      </trkpt>
      <trkpt lat="38.731346" lon="-0.445041">
        <ele>511.970</ele>
        <time>2019-06-16T10:48:37Z</time>
      </trkpt>
      <trkpt lat="38.731346" lon="-0.445041">
        <ele>511.957</ele>
        <time>2019-06-16T10:48:37Z</time>
      </trkpt>
      <trkpt lat="38.731307" lon="-0.445161">
        <ele>512.236</ele>
        <time>2019-06-16T10:48:39Z</time>
      </trkpt>
      <trkpt lat="38.731307" lon="-0.445161">
        <ele>512.231</ele>
        <time>2019-06-16T10:48:39Z</time>
      </trkpt>
      <trkpt lat="38.731203" lon="-0.445234">
        <ele>510.354</ele>
        <time>2019-06-16T10:48:41Z</time>
      </trkpt>
      <trkpt lat="38.731203" lon="-0.445234">
        <ele>510.356</ele>
        <time>2019-06-16T10:48:41Z</time>
      </trkpt>
      <trkpt lat="38.731128" lon="-0.445328">
        <ele>508.811</ele>
        <time>2019-06-16T10:48:43Z</time>
      </trkpt>
      <trkpt lat="38.731128" lon="-0.445328">
        <ele>508.808</ele>
        <time>2019-06-16T10:48:43Z</time>
      </trkpt>
      <trkpt lat="38.730988" lon="-0.445469">
        <ele>508.248</ele>
        <time>2019-06-16T10:48:46Z</time>
      </trkpt>
      <trkpt lat="38.730988" lon="-0.445469">
        <ele>508.272</ele>
        <time>2019-06-16T10:48:46Z</time>
      </trkpt>
      <trkpt lat="38.730988" lon="-0.445469">
        <ele>508.231</ele>
        <time>2019-06-16T10:48:46Z</time>
      </trkpt>
      <trkpt lat="38.730860" lon="-0.445643">
        <ele>508.294</ele>
        <time>2019-06-16T10:48:49Z</time>
      </trkpt>
      <trkpt lat="38.730860" lon="-0.445643">
        <ele>508.256</ele>
        <time>2019-06-16T10:48:49Z</time>
      </trkpt>
      <trkpt lat="38.730860" lon="-0.445643">
        <ele>508.233</ele>
        <time>2019-06-16T10:48:49Z</time>
      </trkpt>
      <trkpt lat="38.730739" lon="-0.445764">
        <ele>509.662</ele>
        <time>2019-06-16T10:48:52Z</time>
      </trkpt>
      <trkpt lat="38.730739" lon="-0.445764">
        <ele>509.637</ele>
        <time>2019-06-16T10:48:52Z</time>
      </trkpt>
      <trkpt lat="38.730739" lon="-0.445764">
        <ele>509.678</ele>
        <time>2019-06-16T10:48:52Z</time>
      </trkpt>
      <trkpt lat="38.730605" lon="-0.445901">
        <ele>510.933</ele>
        <time>2019-06-16T10:48:55Z</time>
      </trkpt>
      <trkpt lat="38.730605" lon="-0.445901">
        <ele>510.926</ele>
        <time>2019-06-16T10:48:55Z</time>
      </trkpt>
      <trkpt lat="38.730605" lon="-0.445901">
        <ele>510.908</ele>
        <time>2019-06-16T10:48:55Z</time>
      </trkpt>
      <trkpt lat="38.730376" lon="-0.446080">
        <ele>510.450</ele>
        <time>2019-06-16T10:48:59Z</time>
      </trkpt>
      <trkpt lat="38.730376" lon="-0.446080">
        <ele>510.444</ele>
        <time>2019-06-16T10:48:59Z</time>
      </trkpt>
      <trkpt lat="38.730376" lon="-0.446080">
        <ele>510.423</ele>
        <time>2019-06-16T10:48:59Z</time>
      </trkpt>
      <trkpt lat="38.730376" lon="-0.446080">
        <ele>510.456</ele>
        <time>2019-06-16T10:48:59Z</time>
      </trkpt>
      <trkpt lat="38.730154" lon="-0.446247">
        <ele>509.558</ele>
        <time>2019-06-16T10:49:03Z</time>
      </trkpt>
      <trkpt lat="38.730154" lon="-0.446247">
        <ele>509.545</ele>
        <time>2019-06-16T10:49:03Z</time>
      </trkpt>
      <trkpt lat="38.730154" lon="-0.446247">
        <ele>509.524</ele>
        <time>2019-06-16T10:49:03Z</time>
      </trkpt>
      <trkpt lat="38.730154" lon="-0.446247">
        <ele>509.579</ele>
        <time>2019-06-16T10:49:03Z</time>
      </trkpt>
      <trkpt lat="38.729964" lon="-0.446459">
        <ele>508.754</ele>
        <time>2019-06-16T10:49:07Z</time>
      </trkpt>
      <trkpt lat="38.729964" lon="-0.446459">
        <ele>508.756</ele>
        <time>2019-06-16T10:49:07Z</time>
      </trkpt>
      <trkpt lat="38.729964" lon="-0.446459">
        <ele>508.711</ele>
        <time>2019-06-16T10:49:07Z</time>
      </trkpt>
      <trkpt lat="38.729964" lon="-0.446459">
        <ele>508.708</ele>
        <time>2019-06-16T10:49:07Z</time>
      </trkpt>
      <trkpt lat="38.729714" lon="-0.446725">
        <ele>509.618</ele>
        <time>2019-06-16T10:49:12Z</time>
      </trkpt>
      <trkpt lat="38.729714" lon="-0.446725">
        <ele>509.672</ele>
        <time>2019-06-16T10:49:12Z</time>
      </trkpt>
      <trkpt lat="38.729714" lon="-0.446725">
        <ele>509.641</ele>
        <time>2019-06-16T10:49:12Z</time>
      </trkpt>
      <trkpt lat="38.729714" lon="-0.446725">
        <ele>509.644</ele>
        <time>2019-06-16T10:49:12Z</time>
      </trkpt>
      <trkpt lat="38.729714" lon="-0.446725">
        <ele>509.646</ele>
        <time>2019-06-16T10:49:12Z</time>
      </trkpt>
      <trkpt lat="38.729534" lon="-0.447072">
        <ele>511.053</ele>
        <time>2019-06-16T10:49:17Z</time>
      </trkpt>
      <trkpt lat="38.729534" lon="-0.447072">
        <ele>511.072</ele>
        <time>2019-06-16T10:49:17Z</time>
      </trkpt>
      <trkpt lat="38.729534" lon="-0.447072">
        <ele>511.057</ele>
        <time>2019-06-16T10:49:17Z</time>
      </trkpt>
      <trkpt lat="38.729534" lon="-0.447072">
        <ele>511.042</ele>
        <time>2019-06-16T10:49:17Z</time>
      </trkpt>
      <trkpt lat="38.729534" lon="-0.447072">
        <ele>511.022</ele>
        <time>2019-06-16T10:49:17Z</time>
      </trkpt>
      <trkpt lat="38.729331" lon="-0.447470">
        <ele>511.614</ele>
        <time>2019-06-16T10:49:23Z</time>
      </trkpt>
      <trkpt lat="38.729331" lon="-0.447470">
        <ele>511.608</ele>
        <time>2019-06-16T10:49:23Z</time>
      </trkpt>
      <trkpt lat="38.729331" lon="-0.447470">
        <ele>511.687</ele>
        <time>2019-06-16T10:49:23Z</time>
      </trkpt>
      <trkpt lat="38.729331" lon="-0.447470">
        <ele>511.631</ele>
        <time>2019-06-16T10:49:23Z</time>
      </trkpt>
      <trkpt lat="38.729331" lon="-0.447470">
        <ele>511.680</ele>
        <time>2019-06-16T10:49:23Z</time>
      </trkpt>
      <trkpt lat="38.729331" lon="-0.447470">
        <ele>511.653</ele>
        <time>2019-06-16T10:49:23Z</time>
      </trkpt>
      <trkpt lat="38.729186" lon="-0.447870">
        <ele>512.575</ele>
        <time>2019-06-16T10:49:29Z</time>
      </trkpt>
      <trkpt lat="38.729186" lon="-0.447870">
        <ele>512.522</ele>
        <time>2019-06-16T10:49:29Z</time>
      </trkpt>
      <trkpt lat="38.729186" lon="-0.447870">
        <ele>512.571</ele>
        <time>2019-06-16T10:49:29Z</time>
      </trkpt>
      <trkpt lat="38.729186" lon="-0.447870">
        <ele>512.586</ele>
        <time>2019-06-16T10:49:29Z</time>
      </trkpt>
      <trkpt lat="38.729186" lon="-0.447870">
        <ele>512.546</ele>
        <time>2019-06-16T10:49:29Z</time>
      </trkpt>
      <trkpt lat="38.729186" lon="-0.447870">
        <ele>512.588</ele>
        <time>2019-06-16T10:49:29Z</time>
      </trkpt>
      <trkpt lat="38.729016" lon="-0.448267">
        <ele>517.016</ele>
        <time>2019-06-16T10:49:35Z</time>
      </trkpt>
      <trkpt lat="38.729016" lon="-0.448267">
        <ele>517.008</ele>
        <time>2019-06-16T10:49:35Z</time>
      </trkpt>
      <trkpt lat="38.729016" lon="-0.448267">
        <ele>517.097</ele>
        <time>2019-06-16T10:49:35Z</time>
      </trkpt>
      <trkpt lat="38.729016" lon="-0.448267">
        <ele>517.071</ele>
        <time>2019-06-16T10:49:35Z</time>
      </trkpt>
      <trkpt lat="38.729016" lon="-0.448267">
        <ele>517.030</ele>
        <time>2019-06-16T10:49:35Z</time>
      </trkpt>
      <trkpt lat="38.729016" lon="-0.448267">
        <ele>517.013</ele>
        <time>2019-06-16T10:49:35Z</time>
      </trkpt>
      <trkpt lat="38.728827" lon="-0.448662">
        <ele>520.275</ele>
        <time>2019-06-16T10:49:42Z</time>
      </trkpt>
      <trkpt lat="38.728827" lon="-0.448662">
        <ele>520.272</ele>
        <time>2019-06-16T10:49:42Z</time>
      </trkpt>
      <trkpt lat="38.728827" lon="-0.448662">
        <ele>520.221</ele>
        <time>2019-06-16T10:49:42Z</time>
      </trkpt>
      <trkpt lat="38.728827" lon="-0.448662">
        <ele>520.236</ele>
        <time>2019-06-16T10:49:42Z</time>
      </trkpt>
      <trkpt lat="38.728827" lon="-0.448662">
        <ele>520.277</ele>
        <time>2019-06-16T10:49:42Z</time>
      </trkpt>
      <trkpt lat="38.728827" lon="-0.448662">
        <ele>520.261</ele>
        <time>2019-06-16T10:49:42Z</time>
      </trkpt>
      <trkpt lat="38.728827" lon="-0.448662">
        <ele>520.227</ele>
        <time>2019-06-16T10:49:42Z</time>
      </trkpt>
      <trkpt lat="38.728641" lon="-0.449024">
        <ele>521.808</ele>
        <time>2019-06-16T10:49:49Z</time>
      </trkpt>
      <trkpt lat="38.728641" lon="-0.449024">
        <ele>521.850</ele>
        <time>2019-06-16T10:49:49Z</time>
      </trkpt>
      <trkpt lat="38.728641" lon="-0.449024">
        <ele>521.854</ele>
        <time>2019-06-16T10:49:49Z</time>
      </trkpt>
      <trkpt lat="38.728641" lon="-0.449024">
        <ele>521.883</ele>
        <time>2019-06-16T10:49:49Z</time>
      </trkpt>
      <trkpt lat="38.728641" lon="-0.449024">
        <ele>521.876</ele>
        <time>2019-06-16T10:49:49Z</time>
      </trkpt>
      <trkpt lat="38.728641" lon="-0.449024">
        <ele>521.878</ele>
        <time>2019-06-16T10:49:49Z</time>
      </trkpt>
      <trkpt lat="38.728641" lon="-0.449024">
        <ele>521.815</ele>
        <time>2019-06-16T10:49:49Z</time>
      </trkpt>
      <trkpt lat="38.728355" lon="-0.449409">
        <ele>525.844</ele>
        <time>2019-06-16T10:49:57Z</time>
      </trkpt>
      <trkpt lat="38.728355" lon="-0.449409">
        <ele>525.889</ele>
        <time>2019-06-16T10:49:57Z</time>
      </trkpt>
      <trkpt lat="38.728355" lon="-0.449409">
        <ele>525.871</ele>
        <time>2019-06-16T10:49:57Z</time>
      </trkpt>
      <trkpt lat="38.728355" lon="-0.449409">
        <ele>525.841</ele>
        <time>2019-06-16T10:49:57Z</time>
      </trkpt>
      <trkpt lat="38.728355" lon="-0.449409">
        <ele>525.815</ele>
        <time>2019-06-16T10:49:57Z</time>
      </trkpt>
      <trkpt lat="38.728355" lon="-0.449409">
        <ele>525.808</ele>
        <time>2019-06-16T10:49:57Z</time>
      </trkpt>
      <trkpt lat="38.728355" lon="-0.449409">
        <ele>525.840</ele>
        <time>2019-06-16T10:49:57Z</time>
      </trkpt>
      <trkpt lat="38.728355" lon="-0.449409">
        <ele>525.814</ele>
        <time>2019-06-16T10:49:57Z</time>
      </trkpt>
      <trkpt lat="38.728072" lon="-0.449690">
        <ele>527.023</ele>
        <time>2019-06-16T10:50:05Z</time>
      </trkpt>
      <trkpt lat="38.728072" lon="-0.449690">
        <ele>527.086</ele>
        <time>2019-06-16T10:50:05Z</time>
      </trkpt>
      <trkpt lat="38.728072" lon="-0.449690">
        <ele>527.028</ele>
        <time>2019-06-16T10:50:05Z</time>
      </trkpt>
      <trkpt lat="38.728072" lon="-0.449690">
        <ele>527.045</ele>
        <time>2019-06-16T10:50:05Z</time>
      </trkpt>
      <trkpt lat="38.728072" lon="-0.449690">
        <ele>527.044</ele>
        <time>2019-06-16T10:50:05Z</time>
      </trkpt>
      <trkpt lat="38.728072" lon="-0.449690">
        <ele>527.029</ele>
        <time>2019-06-16T10:50:05Z</time>
      </trkpt>
      <trkpt lat="38.728072" lon="-0.449690">
        <ele>527.074</ele>
        <time>2019-06-16T10:50:05Z</time>
      </trkpt>
      <trkpt lat="38.728072" lon="-0.449690">
        <ele>527.056</ele>
        <time>2019-06-16T10:50:05Z</time>
      </trkpt>
      <trkpt lat="38.727703" lon="-0.449943">
        <ele>528.421</ele>
        <time>2019-06-16T10:50:14Z</time>
      </trkpt>
      <trkpt lat="38.727703" lon="-0.449943">
        <ele>528.408</ele>
        <time>2019-06-16T10:50:14Z</time>
      </trkpt>
      <trkpt lat="38.727703" lon="-0.449943">
        <ele>528.410</ele>
        <time>2019-06-16T10:50:14Z</time>
      </trkpt>
      <trkpt lat="38.727703" lon="-0.449943">
        <ele>528.464</ele>
        <time>2019-06-16T10:50:14Z</time>
      </trkpt>
      <trkpt lat="38.727703" lon="-0.449943">
        <ele>528.443</ele>
        <time>2019-06-16T10:50:14Z</time>
      </trkpt>
      <trkpt lat="38.727703" lon="-0.449943">
        <ele>528.456</ele>
        <time>2019-06-16T10:50:14Z</time>
      </trkpt>
      <trkpt lat="38.727703" lon="-0.449943">
        <ele>528.468</ele>
        <time>2019-06-16T10:50:14Z</time>
      </trkpt>
      <trkpt lat="38.727703" lon="-0.449943">
        <ele>528.445</ele>
        <time>2019-06-16T10:50:14Z</time>
      </trkpt>
      <trkpt lat="38.727703" lon="-0.449943">
        <ele>528.494</ele>
        <time>2019-06-16T10:50:14Z</time>
      </trkpt>
      <trkpt lat="38.727323" lon="-0.450260">
        <ele>535.919</ele>
        <time>2019-06-16T10:50:24Z</time>
      </trkpt>
      <trkpt lat="38.727323" lon="-0.450260">
        <ele>535.979</ele>
        <time>2019-06-16T10:50:24Z</time>
      </trkpt>
      <trkpt lat="38.727323" lon="-0.450260">
        <ele>535.905</ele>
        <time>2019-06-16T10:50:24Z</time>
      </trkpt>
      <trkpt lat="38.727323" lon="-0.450260">
        <ele>535.925</ele>
        <time>2019-06-16T10:50:24Z</time>
      </trkpt>
      <trkpt lat="38.727323" lon="-0.450260">
        <ele>535.908</ele>
        <time>2019-06-16T10:50:24Z</time>
      </trkpt>
      <trkpt lat="38.727323" lon="-0.450260">
        <ele>535.910</ele>
        <time>2019-06-16T10:50:24Z</time>
      </trkpt>
      <trkpt lat="38.727323" lon="-0.450260">
        <ele>535.924</ele>
        <time>2019-06-16T10:50:24Z</time>
      </trkpt>
      <trkpt lat="38.727323" lon="-0.450260">
        <ele>535.953</ele>
        <time>2019-06-16T10:50:24Z</time>
      </trkpt>
      <trkpt lat="38.727323" lon="-0.450260">
        <ele>535.996</ele>
        <time>2019-06-16T10:50:24Z</time>
      </trkpt>
      <trkpt lat="38.727323" lon="-0.450260">
        <ele>535.978</ele>
        <time>2019-06-16T10:50:24Z</time>
      </trkpt>
      <trkpt lat="38.727256" lon="-0.450331">
        <ele>536.935</ele>
        <time>2019-06-16T10:50:26Z</time>
      </trkpt>
      <trkpt lat="38.727256" lon="-0.450331">
        <ele>536.944</ele>
        <time>2019-06-16T10:50:26Z</time>
      </trkpt>
      <trkpt lat="38.727185" lon="-0.450393">
        <ele>537.089</ele>
        <time>2019-06-16T10:50:28Z</time>
      </trkpt>
      <trkpt lat="38.727114" lon="-0.450448">
        <ele>536.479</ele>
        <time>2019-06-16T10:50:30Z</time>
      </trkpt>
      <trkpt lat="38.727049" lon="-0.450503">
        <ele>535.605</ele>
        <time>2019-06-16T10:50:32Z</time>
      </trkpt>
      <trkpt lat="38.726985" lon="-0.450570">
        <ele>534.725</ele>
        <time>2019-06-16T10:50:34Z</time>
      </trkpt>
      <trkpt lat="38.726985" lon="-0.450570">
        <ele>534.708</ele>
        <time>2019-06-16T10:50:34Z</time>
      </trkpt>
      <trkpt lat="38.726942" lon="-0.450613">
        <ele>534.490</ele>
        <time>2019-06-16T10:50:36Z</time>
      </trkpt>
      <trkpt lat="38.726942" lon="-0.450613">
        <ele>534.414</ele>
        <time>2019-06-16T10:50:36Z</time>
      </trkpt>
      <trkpt lat="38.726854" lon="-0.450677">
        <ele>533.993</ele>
        <time>2019-06-16T10:50:39Z</time>
      </trkpt>
      <trkpt lat="38.726854" lon="-0.450677">
        <ele>533.926</ele>
        <time>2019-06-16T10:50:39Z</time>
      </trkpt>
      <trkpt lat="38.726854" lon="-0.450677">
        <ele>533.998</ele>
        <time>2019-06-16T10:50:39Z</time>
      </trkpt>
      <trkpt lat="38.726734" lon="-0.450742">
        <ele>533.165</ele>
        <time>2019-06-16T10:50:42Z</time>
      </trkpt>
      <trkpt lat="38.726734" lon="-0.450742">
        <ele>533.144</ele>
        <time>2019-06-16T10:50:42Z</time>
      </trkpt>
      <trkpt lat="38.726734" lon="-0.450742">
        <ele>533.189</ele>
        <time>2019-06-16T10:50:42Z</time>
      </trkpt>
      <trkpt lat="38.726637" lon="-0.450819">
        <ele>532.962</ele>
        <time>2019-06-16T10:50:46Z</time>
      </trkpt>
      <trkpt lat="38.726637" lon="-0.450819">
        <ele>532.983</ele>
        <time>2019-06-16T10:50:46Z</time>
      </trkpt>
      <trkpt lat="38.726637" lon="-0.450819">
        <ele>532.911</ele>
        <time>2019-06-16T10:50:46Z</time>
      </trkpt>
      <trkpt lat="38.726637" lon="-0.450819">
        <ele>532.908</ele>
        <time>2019-06-16T10:50:46Z</time>
      </trkpt>
      <trkpt lat="38.726508" lon="-0.450959">
        <ele>534.019</ele>
        <time>2019-06-16T10:50:51Z</time>
      </trkpt>
      <trkpt lat="38.726508" lon="-0.450959">
        <ele>534.043</ele>
        <time>2019-06-16T10:50:51Z</time>
      </trkpt>
      <trkpt lat="38.726508" lon="-0.450959">
        <ele>534.042</ele>
        <time>2019-06-16T10:50:51Z</time>
      </trkpt>
      <trkpt lat="38.726508" lon="-0.450959">
        <ele>534.035</ele>
        <time>2019-06-16T10:50:51Z</time>
      </trkpt>
      <trkpt lat="38.726508" lon="-0.450959">
        <ele>534.057</ele>
        <time>2019-06-16T10:50:51Z</time>
      </trkpt>
      <trkpt lat="38.726409" lon="-0.451238">
        <ele>536.874</ele>
        <time>2019-06-16T10:50:56Z</time>
      </trkpt>
      <trkpt lat="38.726409" lon="-0.451238">
        <ele>536.833</ele>
        <time>2019-06-16T10:50:56Z</time>
      </trkpt>
      <trkpt lat="38.726409" lon="-0.451238">
        <ele>536.868</ele>
        <time>2019-06-16T10:50:56Z</time>
      </trkpt>
      <trkpt lat="38.726409" lon="-0.451238">
        <ele>536.851</ele>
        <time>2019-06-16T10:50:56Z</time>
      </trkpt>
      <trkpt lat="38.726409" lon="-0.451238">
        <ele>536.801</ele>
        <time>2019-06-16T10:50:56Z</time>
      </trkpt>
      <trkpt lat="38.726352" lon="-0.451316">
        <ele>537.911</ele>
        <time>2019-06-16T10:51:03Z</time>
      </trkpt>
      <trkpt lat="38.726352" lon="-0.451316">
        <ele>537.908</ele>
        <time>2019-06-16T10:51:03Z</time>
      </trkpt>
      <trkpt lat="38.726352" lon="-0.451316">
        <ele>537.968</ele>
        <time>2019-06-16T10:51:03Z</time>
      </trkpt>
      <trkpt lat="38.726352" lon="-0.451316">
        <ele>537.932</ele>
        <time>2019-06-16T10:51:03Z</time>
      </trkpt>
      <trkpt lat="38.726352" lon="-0.451316">
        <ele>537.941</ele>
        <time>2019-06-16T10:51:03Z</time>
      </trkpt>
      <trkpt lat="38.726352" lon="-0.451316">
        <ele>537.944</ele>
        <time>2019-06-16T10:51:03Z</time>
      </trkpt>
      <trkpt lat="38.726352" lon="-0.451316">
        <ele>537.976</ele>
        <time>2019-06-16T10:51:03Z</time>
      </trkpt>
      <trkpt lat="38.726287" lon="-0.451322">
        <ele>538.693</ele>
        <time>2019-06-16T10:51:36Z</time>
      </trkpt>
      <trkpt lat="38.726173" lon="-0.451364">
        <ele>540.252</ele>
        <time>2019-06-16T10:51:38Z</time>
      </trkpt>
      <trkpt lat="38.726084" lon="-0.451381">
        <ele>541.377</ele>
        <time>2019-06-16T10:51:40Z</time>
      </trkpt>
      <trkpt lat="38.726020" lon="-0.451378">
        <ele>542.257</ele>
        <time>2019-06-16T10:51:41Z</time>
      </trkpt>
      <trkpt lat="38.725938" lon="-0.451428">
        <ele>543.700</ele>
        <time>2019-06-16T10:51:43Z</time>
      </trkpt>
      <trkpt lat="38.725906" lon="-0.451479">
        <ele>544.220</ele>
        <time>2019-06-16T10:51:44Z</time>
      </trkpt>
      <trkpt lat="38.725859" lon="-0.451512">
        <ele>544.808</ele>
        <time>2019-06-16T10:51:45Z</time>
      </trkpt>
      <trkpt lat="38.725823" lon="-0.451550">
        <ele>544.868</ele>
        <time>2019-06-16T10:51:46Z</time>
      </trkpt>
      <trkpt lat="38.725800" lon="-0.451600">
        <ele>544.432</ele>
        <time>2019-06-16T10:51:47Z</time>
      </trkpt>
      <trkpt lat="38.725688" lon="-0.451760">
        <ele>540.221</ele>
        <time>2019-06-16T10:51:50Z</time>
      </trkpt>
      <trkpt lat="38.725688" lon="-0.451760">
        <ele>540.294</ele>
        <time>2019-06-16T10:51:50Z</time>
      </trkpt>
      <trkpt lat="38.725688" lon="-0.451760">
        <ele>540.216</ele>
        <time>2019-06-16T10:51:50Z</time>
      </trkpt>
      <trkpt lat="38.725559" lon="-0.451969">
        <ele>534.063</ele>
        <time>2019-06-16T10:51:54Z</time>
      </trkpt>
      <trkpt lat="38.725559" lon="-0.451969">
        <ele>534.052</ele>
        <time>2019-06-16T10:51:54Z</time>
      </trkpt>
      <trkpt lat="38.725559" lon="-0.451969">
        <ele>534.047</ele>
        <time>2019-06-16T10:51:54Z</time>
      </trkpt>
      <trkpt lat="38.725559" lon="-0.451969">
        <ele>534.099</ele>
        <time>2019-06-16T10:51:54Z</time>
      </trkpt>
      <trkpt lat="38.725288" lon="-0.452281">
        <ele>531.507</ele>
        <time>2019-06-16T10:51:59Z</time>
      </trkpt>
      <trkpt lat="38.725288" lon="-0.452281">
        <ele>531.527</ele>
        <time>2019-06-16T10:51:59Z</time>
      </trkpt>
      <trkpt lat="38.725288" lon="-0.452281">
        <ele>531.508</ele>
        <time>2019-06-16T10:51:59Z</time>
      </trkpt>
      <trkpt lat="38.725288" lon="-0.452281">
        <ele>531.572</ele>
        <time>2019-06-16T10:51:59Z</time>
      </trkpt>
      <trkpt lat="38.725288" lon="-0.452281">
        <ele>531.566</ele>
        <time>2019-06-16T10:51:59Z</time>
      </trkpt>
      <trkpt lat="38.724988" lon="-0.452565">
        <ele>533.395</ele>
        <time>2019-06-16T10:52:04Z</time>
      </trkpt>
      <trkpt lat="38.724988" lon="-0.452565">
        <ele>533.318</ele>
        <time>2019-06-16T10:52:04Z</time>
      </trkpt>
      <trkpt lat="38.724988" lon="-0.452565">
        <ele>533.330</ele>
        <time>2019-06-16T10:52:04Z</time>
      </trkpt>
      <trkpt lat="38.724988" lon="-0.452565">
        <ele>533.337</ele>
        <time>2019-06-16T10:52:04Z</time>
      </trkpt>
      <trkpt lat="38.724988" lon="-0.452565">
        <ele>533.366</ele>
        <time>2019-06-16T10:52:04Z</time>
      </trkpt>
      <trkpt lat="38.724525" lon="-0.452870">
        <ele>534.751</ele>
        <time>2019-06-16T10:52:10Z</time>
      </trkpt>
      <trkpt lat="38.724525" lon="-0.452870">
        <ele>534.788</ele>
        <time>2019-06-16T10:52:10Z</time>
      </trkpt>
      <trkpt lat="38.724525" lon="-0.452870">
        <ele>534.724</ele>
        <time>2019-06-16T10:52:10Z</time>
      </trkpt>
      <trkpt lat="38.724525" lon="-0.452870">
        <ele>534.726</ele>
        <time>2019-06-16T10:52:10Z</time>
      </trkpt>
      <trkpt lat="38.724525" lon="-0.452870">
        <ele>534.708</ele>
        <time>2019-06-16T10:52:10Z</time>
      </trkpt>
      <trkpt lat="38.724525" lon="-0.452870">
        <ele>534.741</ele>
        <time>2019-06-16T10:52:10Z</time>
      </trkpt>
      <trkpt lat="38.723721" lon="-0.453172">
        <ele>532.545</ele>
        <time>2019-06-16T10:52:19Z</time>
      </trkpt>
      <trkpt lat="38.723721" lon="-0.453172">
        <ele>532.544</ele>
        <time>2019-06-16T10:52:19Z</time>
      </trkpt>
      <trkpt lat="38.723721" lon="-0.453172">
        <ele>532.557</ele>
        <time>2019-06-16T10:52:19Z</time>
      </trkpt>
      <trkpt lat="38.723721" lon="-0.453172">
        <ele>532.519</ele>
        <time>2019-06-16T10:52:19Z</time>
      </trkpt>
      <trkpt lat="38.723721" lon="-0.453172">
        <ele>532.526</ele>
        <time>2019-06-16T10:52:19Z</time>
      </trkpt>
      <trkpt lat="38.723721" lon="-0.453172">
        <ele>532.595</ele>
        <time>2019-06-16T10:52:19Z</time>
      </trkpt>
      <trkpt lat="38.723721" lon="-0.453172">
        <ele>532.540</ele>
        <time>2019-06-16T10:52:19Z</time>
      </trkpt>
      <trkpt lat="38.723721" lon="-0.453172">
        <ele>532.581</ele>
        <time>2019-06-16T10:52:19Z</time>
      </trkpt>
      <trkpt lat="38.723721" lon="-0.453172">
        <ele>532.561</ele>
        <time>2019-06-16T10:52:19Z</time>
      </trkpt>
      <trkpt lat="38.722963" lon="-0.453618">
        <ele>533.417</ele>
        <time>2019-06-16T10:52:28Z</time>
      </trkpt>
      <trkpt lat="38.722963" lon="-0.453618">
        <ele>533.408</ele>
        <time>2019-06-16T10:52:28Z</time>
      </trkpt>
      <trkpt lat="38.722963" lon="-0.453618">
        <ele>533.441</ele>
        <time>2019-06-16T10:52:28Z</time>
      </trkpt>
      <trkpt lat="38.722963" lon="-0.453618">
        <ele>533.475</ele>
        <time>2019-06-16T10:52:28Z</time>
      </trkpt>
      <trkpt lat="38.722963" lon="-0.453618">
        <ele>533.424</ele>
        <time>2019-06-16T10:52:28Z</time>
      </trkpt>
      <trkpt lat="38.722963" lon="-0.453618">
        <ele>533.417</ele>
        <time>2019-06-16T10:52:28Z</time>
      </trkpt>
      <trkpt lat="38.722963" lon="-0.453618">
        <ele>533.419</ele>
        <time>2019-06-16T10:52:28Z</time>
      </trkpt>
      <trkpt lat="38.722963" lon="-0.453618">
        <ele>533.496</ele>
        <time>2019-06-16T10:52:28Z</time>
      </trkpt>
      <trkpt lat="38.722963" lon="-0.453618">
        <ele>533.485</ele>
        <time>2019-06-16T10:52:28Z</time>
      </trkpt>
      <trkpt lat="38.722269" lon="-0.454340">
        <ele>527.420</ele>
        <time>2019-06-16T10:52:38Z</time>
      </trkpt>
      <trkpt lat="38.722269" lon="-0.454340">
        <ele>527.475</ele>
        <time>2019-06-16T10:52:38Z</time>
      </trkpt>
      <trkpt lat="38.722269" lon="-0.454340">
        <ele>527.428</ele>
        <time>2019-06-16T10:52:38Z</time>
      </trkpt>
      <trkpt lat="38.722269" lon="-0.454340">
        <ele>527.420</ele>
        <time>2019-06-16T10:52:38Z</time>
      </trkpt>
      <trkpt lat="38.722269" lon="-0.454340">
        <ele>527.408</ele>
        <time>2019-06-16T10:52:38Z</time>
      </trkpt>
      <trkpt lat="38.722269" lon="-0.454340">
        <ele>527.430</ele>
        <time>2019-06-16T10:52:38Z</time>
      </trkpt>
      <trkpt lat="38.722269" lon="-0.454340">
        <ele>527.454</ele>
        <time>2019-06-16T10:52:38Z</time>
      </trkpt>
      <trkpt lat="38.722269" lon="-0.454340">
        <ele>527.453</ele>
        <time>2019-06-16T10:52:38Z</time>
      </trkpt>
      <trkpt lat="38.722269" lon="-0.454340">
        <ele>527.456</ele>
        <time>2019-06-16T10:52:38Z</time>
      </trkpt>
      <trkpt lat="38.722269" lon="-0.454340">
        <ele>527.458</ele>
        <time>2019-06-16T10:52:38Z</time>
      </trkpt>
      <trkpt lat="38.721447" lon="-0.454925">
        <ele>535.785</ele>
        <time>2019-06-16T10:52:49Z</time>
      </trkpt>
      <trkpt lat="38.721447" lon="-0.454925">
        <ele>535.724</ele>
        <time>2019-06-16T10:52:49Z</time>
      </trkpt>
      <trkpt lat="38.721447" lon="-0.454925">
        <ele>535.789</ele>
        <time>2019-06-16T10:52:49Z</time>
      </trkpt>
      <trkpt lat="38.721447" lon="-0.454925">
        <ele>535.718</ele>
        <time>2019-06-16T10:52:49Z</time>
      </trkpt>
      <trkpt lat="38.721447" lon="-0.454925">
        <ele>535.798</ele>
        <time>2019-06-16T10:52:49Z</time>
      </trkpt>
      <trkpt lat="38.721447" lon="-0.454925">
        <ele>535.717</ele>
        <time>2019-06-16T10:52:49Z</time>
      </trkpt>
      <trkpt lat="38.721447" lon="-0.454925">
        <ele>535.708</ele>
        <time>2019-06-16T10:52:49Z</time>
      </trkpt>
      <trkpt lat="38.721447" lon="-0.454925">
        <ele>535.714</ele>
        <time>2019-06-16T10:52:49Z</time>
      </trkpt>
      <trkpt lat="38.721447" lon="-0.454925">
        <ele>535.798</ele>
        <time>2019-06-16T10:52:49Z</time>
      </trkpt>
      <trkpt lat="38.721447" lon="-0.454925">
        <ele>535.747</ele>
        <time>2019-06-16T10:52:49Z</time>
      </trkpt>
      <trkpt lat="38.721447" lon="-0.454925">
        <ele>535.770</ele>
        <time>2019-06-16T10:52:49Z</time>
      </trkpt>
      <trkpt lat="38.720594" lon="-0.455644">
        <ele>534.962</ele>
        <time>2019-06-16T10:53:01Z</time>
      </trkpt>
      <trkpt lat="38.720594" lon="-0.455644">
        <ele>534.959</ele>
        <time>2019-06-16T10:53:01Z</time>
      </trkpt>
      <trkpt lat="38.720594" lon="-0.455644">
        <ele>534.948</ele>
        <time>2019-06-16T10:53:01Z</time>
      </trkpt>
      <trkpt lat="38.720594" lon="-0.455644">
        <ele>534.973</ele>
        <time>2019-06-16T10:53:01Z</time>
      </trkpt>
      <trkpt lat="38.720594" lon="-0.455644">
        <ele>534.944</ele>
        <time>2019-06-16T10:53:01Z</time>
      </trkpt>
      <trkpt lat="38.720594" lon="-0.455644">
        <ele>534.905</ele>
        <time>2019-06-16T10:53:01Z</time>
      </trkpt>
      <trkpt lat="38.720594" lon="-0.455644">
        <ele>534.915</ele>
        <time>2019-06-16T10:53:01Z</time>
      </trkpt>
      <trkpt lat="38.720594" lon="-0.455644">
        <ele>534.908</ele>
        <time>2019-06-16T10:53:01Z</time>
      </trkpt>
      <trkpt lat="38.720594" lon="-0.455644">
        <ele>534.937</ele>
        <time>2019-06-16T10:53:01Z</time>
      </trkpt>
      <trkpt lat="38.720594" lon="-0.455644">
        <ele>534.961</ele>
        <time>2019-06-16T10:53:01Z</time>
      </trkpt>
      <trkpt lat="38.720594" lon="-0.455644">
        <ele>534.950</ele>
        <time>2019-06-16T10:53:01Z</time>
      </trkpt>
      <trkpt lat="38.720594" lon="-0.455644">
        <ele>534.963</ele>
        <time>2019-06-16T10:53:01Z</time>
      </trkpt>
      <trkpt lat="38.719716" lon="-0.456489">
        <ele>528.455</ele>
        <time>2019-06-16T10:53:14Z</time>
      </trkpt>
      <trkpt lat="38.719716" lon="-0.456489">
        <ele>528.482</ele>
        <time>2019-06-16T10:53:14Z</time>
      </trkpt>
      <trkpt lat="38.719716" lon="-0.456489">
        <ele>528.431</ele>
        <time>2019-06-16T10:53:14Z</time>
      </trkpt>
      <trkpt lat="38.719716" lon="-0.456489">
        <ele>528.436</ele>
        <time>2019-06-16T10:53:14Z</time>
      </trkpt>
      <trkpt lat="38.719716" lon="-0.456489">
        <ele>528.423</ele>
        <time>2019-06-16T10:53:14Z</time>
      </trkpt>
      <trkpt lat="38.719716" lon="-0.456489">
        <ele>528.483</ele>
        <time>2019-06-16T10:53:14Z</time>
      </trkpt>
      <trkpt lat="38.719716" lon="-0.456489">
        <ele>528.411</ele>
        <time>2019-06-16T10:53:14Z</time>
      </trkpt>
      <trkpt lat="38.719716" lon="-0.456489">
        <ele>528.408</ele>
        <time>2019-06-16T10:53:14Z</time>
      </trkpt>
      <trkpt lat="38.719716" lon="-0.456489">
        <ele>528.425</ele>
        <time>2019-06-16T10:53:14Z</time>
      </trkpt>
      <trkpt lat="38.719716" lon="-0.456489">
        <ele>528.479</ele>
        <time>2019-06-16T10:53:14Z</time>
      </trkpt>
      <trkpt lat="38.719716" lon="-0.456489">
        <ele>528.428</ele>
        <time>2019-06-16T10:53:14Z</time>
      </trkpt>
      <trkpt lat="38.719716" lon="-0.456489">
        <ele>528.451</ele>
        <time>2019-06-16T10:53:14Z</time>
      </trkpt>
      <trkpt lat="38.719716" lon="-0.456489">
        <ele>528.483</ele>
        <time>2019-06-16T10:53:14Z</time>
      </trkpt>
      <trkpt lat="38.718923" lon="-0.457474">
        <ele>532.040</ele>
        <time>2019-06-16T10:53:28Z</time>
      </trkpt>
      <trkpt lat="38.718923" lon="-0.457474">
        <ele>532.089</ele>
        <time>2019-06-16T10:53:28Z</time>
      </trkpt>
      <trkpt lat="38.718923" lon="-0.457474">
        <ele>532.064</ele>
        <time>2019-06-16T10:53:28Z</time>
      </trkpt>
      <trkpt lat="38.718923" lon="-0.457474">
        <ele>532.013</ele>
        <time>2019-06-16T10:53:28Z</time>
      </trkpt>
      <trkpt lat="38.718923" lon="-0.457474">
        <ele>532.043</ele>
        <time>2019-06-16T10:53:28Z</time>
      </trkpt>
      <trkpt lat="38.718923" lon="-0.457474">
        <ele>532.007</ele>
        <time>2019-06-16T10:53:28Z</time>
      </trkpt>
      <trkpt lat="38.718923" lon="-0.457474">
        <ele>532.008</ele>
        <time>2019-06-16T10:53:28Z</time>
      </trkpt>
      <trkpt lat="38.718923" lon="-0.457474">
        <ele>532.024</ele>
        <time>2019-06-16T10:53:28Z</time>
      </trkpt>
      <trkpt lat="38.718923" lon="-0.457474">
        <ele>532.098</ele>
        <time>2019-06-16T10:53:28Z</time>
      </trkpt>
      <trkpt lat="38.718923" lon="-0.457474">
        <ele>532.087</ele>
        <time>2019-06-16T10:53:28Z</time>
      </trkpt>
      <trkpt lat="38.718923" lon="-0.457474">
        <ele>532.050</ele>
        <time>2019-06-16T10:53:28Z</time>
      </trkpt>
      <trkpt lat="38.718923" lon="-0.457474">
        <ele>532.012</ele>
        <time>2019-06-16T10:53:28Z</time>
      </trkpt>
      <trkpt lat="38.718923" lon="-0.457474">
        <ele>532.049</ele>
        <time>2019-06-16T10:53:28Z</time>
      </trkpt>
      <trkpt lat="38.718923" lon="-0.457474">
        <ele>532.018</ele>
        <time>2019-06-16T10:53:28Z</time>
      </trkpt>
      <trkpt lat="38.718296" lon="-0.458637">
        <ele>533.213</ele>
        <time>2019-06-16T10:53:43Z</time>
      </trkpt>
      <trkpt lat="38.718296" lon="-0.458637">
        <ele>533.289</ele>
        <time>2019-06-16T10:53:43Z</time>
      </trkpt>
      <trkpt lat="38.718296" lon="-0.458637">
        <ele>533.206</ele>
        <time>2019-06-16T10:53:43Z</time>
      </trkpt>
      <trkpt lat="38.718296" lon="-0.458637">
        <ele>533.226</ele>
        <time>2019-06-16T10:53:43Z</time>
      </trkpt>
      <trkpt lat="38.718296" lon="-0.458637">
        <ele>533.208</ele>
        <time>2019-06-16T10:53:43Z</time>
      </trkpt>
      <trkpt lat="38.718296" lon="-0.458637">
        <ele>533.291</ele>
        <time>2019-06-16T10:53:43Z</time>
      </trkpt>
      <trkpt lat="38.718296" lon="-0.458637">
        <ele>533.235</ele>
        <time>2019-06-16T10:53:43Z</time>
      </trkpt>
      <trkpt lat="38.718296" lon="-0.458637">
        <ele>533.274</ele>
        <time>2019-06-16T10:53:43Z</time>
      </trkpt>
      <trkpt lat="38.718296" lon="-0.458637">
        <ele>533.217</ele>
        <time>2019-06-16T10:53:43Z</time>
      </trkpt>
      <trkpt lat="38.718296" lon="-0.458637">
        <ele>533.239</ele>
        <time>2019-06-16T10:53:43Z</time>
      </trkpt>
      <trkpt lat="38.718296" lon="-0.458637">
        <ele>533.286</ele>
        <time>2019-06-16T10:53:43Z</time>
      </trkpt>
      <trkpt lat="38.718296" lon="-0.458637">
        <ele>533.285</ele>
        <time>2019-06-16T10:53:43Z</time>
      </trkpt>
      <trkpt lat="38.718296" lon="-0.458637">
        <ele>533.220</ele>
        <time>2019-06-16T10:53:43Z</time>
      </trkpt>
      <trkpt lat="38.718296" lon="-0.458637">
        <ele>533.294</ele>
        <time>2019-06-16T10:53:43Z</time>
      </trkpt>
      <trkpt lat="38.718226" lon="-0.458793">
        <ele>533.557</ele>
        <time>2019-06-16T10:53:45Z</time>
      </trkpt>
      <trkpt lat="38.718226" lon="-0.458793">
        <ele>533.522</ele>
        <time>2019-06-16T10:53:45Z</time>
      </trkpt>
      <trkpt lat="38.718181" lon="-0.458867">
        <ele>533.508</ele>
        <time>2019-06-16T10:53:46Z</time>
      </trkpt>
      <trkpt lat="38.718146" lon="-0.458944">
        <ele>533.642</ele>
        <time>2019-06-16T10:53:47Z</time>
      </trkpt>
      <trkpt lat="38.718104" lon="-0.459023">
        <ele>533.726</ele>
        <time>2019-06-16T10:53:48Z</time>
      </trkpt>
      <trkpt lat="38.718068" lon="-0.459097">
        <ele>533.855</ele>
        <time>2019-06-16T10:53:49Z</time>
      </trkpt>
      <trkpt lat="38.718031" lon="-0.459169">
        <ele>533.898</ele>
        <time>2019-06-16T10:53:50Z</time>
      </trkpt>
      <trkpt lat="38.717986" lon="-0.459245">
        <ele>533.870</ele>
        <time>2019-06-16T10:53:51Z</time>
      </trkpt>
      <trkpt lat="38.717952" lon="-0.459323">
        <ele>533.867</ele>
        <time>2019-06-16T10:53:52Z</time>
      </trkpt>
      <trkpt lat="38.717912" lon="-0.459398">
        <ele>533.816</ele>
        <time>2019-06-16T10:53:53Z</time>
      </trkpt>
      <trkpt lat="38.717876" lon="-0.459472">
        <ele>533.811</ele>
        <time>2019-06-16T10:53:54Z</time>
      </trkpt>
      <trkpt lat="38.717838" lon="-0.459546">
        <ele>533.842</ele>
        <time>2019-06-16T10:53:55Z</time>
      </trkpt>
      <trkpt lat="38.717798" lon="-0.459622">
        <ele>533.822</ele>
        <time>2019-06-16T10:53:56Z</time>
      </trkpt>
      <trkpt lat="38.717761" lon="-0.459695">
        <ele>533.814</ele>
        <time>2019-06-16T10:53:57Z</time>
      </trkpt>
      <trkpt lat="38.717723" lon="-0.459766">
        <ele>533.808</ele>
        <time>2019-06-16T10:53:58Z</time>
      </trkpt>
      <trkpt lat="38.717682" lon="-0.459840">
        <ele>533.747</ele>
        <time>2019-06-16T10:53:59Z</time>
      </trkpt>
      <trkpt lat="38.717650" lon="-0.459915">
        <ele>533.551</ele>
        <time>2019-06-16T10:54:00Z</time>
      </trkpt>
      <trkpt lat="38.717627" lon="-0.459991">
        <ele>533.340</ele>
        <time>2019-06-16T10:54:01Z</time>
      </trkpt>
      <trkpt lat="38.717587" lon="-0.460059">
        <ele>533.323</ele>
        <time>2019-06-16T10:54:02Z</time>
      </trkpt>
      <trkpt lat="38.717555" lon="-0.460127">
        <ele>533.545</ele>
        <time>2019-06-16T10:54:03Z</time>
      </trkpt>
      <trkpt lat="38.717516" lon="-0.460199">
        <ele>533.522</ele>
        <time>2019-06-16T10:54:04Z</time>
      </trkpt>
      <trkpt lat="38.717487" lon="-0.460268">
        <ele>533.891</ele>
        <time>2019-06-16T10:54:05Z</time>
      </trkpt>
      <trkpt lat="38.717452" lon="-0.460327">
        <ele>534.226</ele>
        <time>2019-06-16T10:54:06Z</time>
      </trkpt>
      <trkpt lat="38.717420" lon="-0.460397">
        <ele>534.723</ele>
        <time>2019-06-16T10:54:07Z</time>
      </trkpt>
      <trkpt lat="38.717382" lon="-0.460462">
        <ele>535.183</ele>
        <time>2019-06-16T10:54:08Z</time>
      </trkpt>
      <trkpt lat="38.717344" lon="-0.460528">
        <ele>535.411</ele>
        <time>2019-06-16T10:54:09Z</time>
      </trkpt>
      <trkpt lat="38.717310" lon="-0.460605">
        <ele>535.908</ele>
        <time>2019-06-16T10:54:10Z</time>
      </trkpt>
      <trkpt lat="38.717281" lon="-0.460673">
        <ele>536.355</ele>
        <time>2019-06-16T10:54:11Z</time>
      </trkpt>
      <trkpt lat="38.717250" lon="-0.460746">
        <ele>536.669</ele>
        <time>2019-06-16T10:54:12Z</time>
      </trkpt>
      <trkpt lat="38.717213" lon="-0.460811">
        <ele>536.848</ele>
        <time>2019-06-16T10:54:13Z</time>
      </trkpt>
      <trkpt lat="38.717176" lon="-0.460881">
        <ele>537.541</ele>
        <time>2019-06-16T10:54:14Z</time>
      </trkpt>
      <trkpt lat="38.717133" lon="-0.460953">
        <ele>538.313</ele>
        <time>2019-06-16T10:54:15Z</time>
      </trkpt>
      <trkpt lat="38.717096" lon="-0.461018">
        <ele>539.180</ele>
        <time>2019-06-16T10:54:16Z</time>
      </trkpt>
      <trkpt lat="38.717065" lon="-0.461086">
        <ele>539.949</ele>
        <time>2019-06-16T10:54:17Z</time>
      </trkpt>
      <trkpt lat="38.717030" lon="-0.461156">
        <ele>540.324</ele>
        <time>2019-06-16T10:54:18Z</time>
      </trkpt>
      <trkpt lat="38.717001" lon="-0.461224">
        <ele>540.482</ele>
        <time>2019-06-16T10:54:19Z</time>
      </trkpt>
      <trkpt lat="38.716968" lon="-0.461293">
        <ele>540.343</ele>
        <time>2019-06-16T10:54:20Z</time>
      </trkpt>
      <trkpt lat="38.716931" lon="-0.461363">
        <ele>540.017</ele>
        <time>2019-06-16T10:54:21Z</time>
      </trkpt>
      <trkpt lat="38.716887" lon="-0.461426">
        <ele>539.708</ele>
        <time>2019-06-16T10:54:22Z</time>
      </trkpt>
      <trkpt lat="38.716856" lon="-0.461492">
        <ele>539.321</ele>
        <time>2019-06-16T10:54:23Z</time>
      </trkpt>
      <trkpt lat="38.716817" lon="-0.461560">
        <ele>538.925</ele>
        <time>2019-06-16T10:54:24Z</time>
      </trkpt>
      <trkpt lat="38.716741" lon="-0.461685">
        <ele>538.364</ele>
        <time>2019-06-16T10:54:26Z</time>
      </trkpt>
      <trkpt lat="38.716741" lon="-0.461685">
        <ele>538.387</ele>
        <time>2019-06-16T10:54:26Z</time>
      </trkpt>
      <trkpt lat="38.716672" lon="-0.461815">
        <ele>538.569</ele>
        <time>2019-06-16T10:54:28Z</time>
      </trkpt>
      <trkpt lat="38.716672" lon="-0.461815">
        <ele>538.576</ele>
        <time>2019-06-16T10:54:28Z</time>
      </trkpt>
      <trkpt lat="38.716601" lon="-0.461935">
        <ele>538.515</ele>
        <time>2019-06-16T10:54:30Z</time>
      </trkpt>
      <trkpt lat="38.716601" lon="-0.461935">
        <ele>538.590</ele>
        <time>2019-06-16T10:54:30Z</time>
      </trkpt>
      <trkpt lat="38.716514" lon="-0.462110">
        <ele>538.834</ele>
        <time>2019-06-16T10:54:33Z</time>
      </trkpt>
      <trkpt lat="38.716514" lon="-0.462110">
        <ele>538.855</ele>
        <time>2019-06-16T10:54:33Z</time>
      </trkpt>
      <trkpt lat="38.716514" lon="-0.462110">
        <ele>538.810</ele>
        <time>2019-06-16T10:54:33Z</time>
      </trkpt>
      <trkpt lat="38.716420" lon="-0.462254">
        <ele>539.208</ele>
        <time>2019-06-16T10:54:36Z</time>
      </trkpt>
      <trkpt lat="38.716420" lon="-0.462254">
        <ele>539.286</ele>
        <time>2019-06-16T10:54:36Z</time>
      </trkpt>
      <trkpt lat="38.716420" lon="-0.462254">
        <ele>539.290</ele>
        <time>2019-06-16T10:54:36Z</time>
      </trkpt>
      <trkpt lat="38.716355" lon="-0.462447">
        <ele>539.689</ele>
        <time>2019-06-16T10:54:39Z</time>
      </trkpt>
      <trkpt lat="38.716355" lon="-0.462447">
        <ele>539.612</ele>
        <time>2019-06-16T10:54:39Z</time>
      </trkpt>
      <trkpt lat="38.716355" lon="-0.462447">
        <ele>539.684</ele>
        <time>2019-06-16T10:54:39Z</time>
      </trkpt>
      <trkpt lat="38.716225" lon="-0.462650">
        <ele>538.661</ele>
        <time>2019-06-16T10:54:43Z</time>
      </trkpt>
      <trkpt lat="38.716225" lon="-0.462650">
        <ele>538.680</ele>
        <time>2019-06-16T10:54:43Z</time>
      </trkpt>
      <trkpt lat="38.716225" lon="-0.462650">
        <ele>538.685</ele>
        <time>2019-06-16T10:54:43Z</time>
      </trkpt>
      <trkpt lat="38.716225" lon="-0.462650">
        <ele>538.687</ele>
        <time>2019-06-16T10:54:43Z</time>
      </trkpt>
      <trkpt lat="38.716044" lon="-0.462842">
        <ele>537.842</ele>
        <time>2019-06-16T10:54:47Z</time>
      </trkpt>
      <trkpt lat="38.716044" lon="-0.462842">
        <ele>537.826</ele>
        <time>2019-06-16T10:54:47Z</time>
      </trkpt>
      <trkpt lat="38.716044" lon="-0.462842">
        <ele>537.808</ele>
        <time>2019-06-16T10:54:47Z</time>
      </trkpt>
      <trkpt lat="38.716044" lon="-0.462842">
        <ele>537.851</ele>
        <time>2019-06-16T10:54:47Z</time>
      </trkpt>
      <trkpt lat="38.715828" lon="-0.463107">
        <ele>537.135</ele>
        <time>2019-06-16T10:54:52Z</time>
      </trkpt>
      <trkpt lat="38.715828" lon="-0.463107">
        <ele>537.134</ele>
        <time>2019-06-16T10:54:52Z</time>
      </trkpt>
      <trkpt lat="38.715828" lon="-0.463107">
        <ele>537.147</ele>
        <time>2019-06-16T10:54:52Z</time>
      </trkpt>
      <trkpt lat="38.715828" lon="-0.463107">
        <ele>537.189</ele>
        <time>2019-06-16T10:54:52Z</time>
      </trkpt>
      <trkpt lat="38.715828" lon="-0.463107">
        <ele>537.146</ele>
        <time>2019-06-16T10:54:52Z</time>
      </trkpt>
      <trkpt lat="38.715635" lon="-0.463362">
        <ele>535.935</ele>
        <time>2019-06-16T10:54:57Z</time>
      </trkpt>
      <trkpt lat="38.715635" lon="-0.463362">
        <ele>535.930</ele>
        <time>2019-06-16T10:54:57Z</time>
      </trkpt>
      <trkpt lat="38.715635" lon="-0.463362">
        <ele>535.943</ele>
        <time>2019-06-16T10:54:57Z</time>
      </trkpt>
      <trkpt lat="38.715635" lon="-0.463362">
        <ele>535.964</ele>
        <time>2019-06-16T10:54:57Z</time>
      </trkpt>
      <trkpt lat="38.715635" lon="-0.463362">
        <ele>535.910</ele>
        <time>2019-06-16T10:54:57Z</time>
      </trkpt>
      <trkpt lat="38.715457" lon="-0.463524">
        <ele>535.408</ele>
        <time>2019-06-16T10:55:03Z</time>
      </trkpt>
      <trkpt lat="38.715457" lon="-0.463524">
        <ele>535.477</ele>
        <time>2019-06-16T10:55:03Z</time>
      </trkpt>
      <trkpt lat="38.715457" lon="-0.463524">
        <ele>535.451</ele>
        <time>2019-06-16T10:55:03Z</time>
      </trkpt>
      <trkpt lat="38.715457" lon="-0.463524">
        <ele>535.490</ele>
        <time>2019-06-16T10:55:03Z</time>
      </trkpt>
      <trkpt lat="38.715457" lon="-0.463524">
        <ele>535.453</ele>
        <time>2019-06-16T10:55:03Z</time>
      </trkpt>
      <trkpt lat="38.715457" lon="-0.463524">
        <ele>535.415</ele>
        <time>2019-06-16T10:55:03Z</time>
      </trkpt>
      <trkpt lat="38.715231" lon="-0.463743">
        <ele>534.822</ele>
        <time>2019-06-16T10:55:09Z</time>
      </trkpt>
      <trkpt lat="38.715231" lon="-0.463743">
        <ele>534.881</ele>
        <time>2019-06-16T10:55:09Z</time>
      </trkpt>
      <trkpt lat="38.715231" lon="-0.463743">
        <ele>534.896</ele>
        <time>2019-06-16T10:55:09Z</time>
      </trkpt>
      <trkpt lat="38.715231" lon="-0.463743">
        <ele>534.818</ele>
        <time>2019-06-16T10:55:09Z</time>
      </trkpt>
      <trkpt lat="38.715231" lon="-0.463743">
        <ele>534.898</ele>
        <time>2019-06-16T10:55:09Z</time>
      </trkpt>
      <trkpt lat="38.715231" lon="-0.463743">
        <ele>534.817</ele>
        <time>2019-06-16T10:55:09Z</time>
      </trkpt>
      <trkpt lat="38.714931" lon="-0.463971">
        <ele>532.708</ele>
        <time>2019-06-16T10:55:16Z</time>
      </trkpt>
      <trkpt lat="38.714931" lon="-0.463971">
        <ele>532.774</ele>
        <time>2019-06-16T10:55:16Z</time>
      </trkpt>
      <trkpt lat="38.714931" lon="-0.463971">
        <ele>532.738</ele>
        <time>2019-06-16T10:55:16Z</time>
      </trkpt>
      <trkpt lat="38.714931" lon="-0.463971">
        <ele>532.737</ele>
        <time>2019-06-16T10:55:16Z</time>
      </trkpt>
      <trkpt lat="38.714931" lon="-0.463971">
        <ele>532.710</ele>
        <time>2019-06-16T10:55:16Z</time>
      </trkpt>
      <trkpt lat="38.714931" lon="-0.463971">
        <ele>532.772</ele>
        <time>2019-06-16T10:55:16Z</time>
      </trkpt>
      <trkpt lat="38.714931" lon="-0.463971">
        <ele>532.789</ele>
        <time>2019-06-16T10:55:16Z</time>
      </trkpt>
      <trkpt lat="38.714576" lon="-0.464382">
        <ele>536.648</ele>
        <time>2019-06-16T10:55:24Z</time>
      </trkpt>
      <trkpt lat="38.714576" lon="-0.464382">
        <ele>536.693</ele>
        <time>2019-06-16T10:55:24Z</time>
      </trkpt>
      <trkpt lat="38.714576" lon="-0.464382">
        <ele>536.696</ele>
        <time>2019-06-16T10:55:24Z</time>
      </trkpt>
      <trkpt lat="38.714576" lon="-0.464382">
        <ele>536.631</ele>
        <time>2019-06-16T10:55:24Z</time>
      </trkpt>
      <trkpt lat="38.714576" lon="-0.464382">
        <ele>536.624</ele>
        <time>2019-06-16T10:55:24Z</time>
      </trkpt>
      <trkpt lat="38.714576" lon="-0.464382">
        <ele>536.608</ele>
        <time>2019-06-16T10:55:24Z</time>
      </trkpt>
      <trkpt lat="38.714576" lon="-0.464382">
        <ele>536.682</ele>
        <time>2019-06-16T10:55:24Z</time>
      </trkpt>
      <trkpt lat="38.714576" lon="-0.464382">
        <ele>536.616</ele>
        <time>2019-06-16T10:55:24Z</time>
      </trkpt>
      <trkpt lat="38.714336" lon="-0.464684">
        <ele>544.045</ele>
        <time>2019-06-16T10:55:32Z</time>
      </trkpt>
      <trkpt lat="38.714336" lon="-0.464684">
        <ele>544.048</ele>
        <time>2019-06-16T10:55:32Z</time>
      </trkpt>
      <trkpt lat="38.714336" lon="-0.464684">
        <ele>544.040</ele>
        <time>2019-06-16T10:55:32Z</time>
      </trkpt>
      <trkpt lat="38.714336" lon="-0.464684">
        <ele>544.087</ele>
        <time>2019-06-16T10:55:32Z</time>
      </trkpt>
      <trkpt lat="38.714336" lon="-0.464684">
        <ele>544.066</ele>
        <time>2019-06-16T10:55:32Z</time>
      </trkpt>
      <trkpt lat="38.714336" lon="-0.464684">
        <ele>544.041</ele>
        <time>2019-06-16T10:55:32Z</time>
      </trkpt>
      <trkpt lat="38.714336" lon="-0.464684">
        <ele>544.059</ele>
        <time>2019-06-16T10:55:32Z</time>
      </trkpt>
      <trkpt lat="38.714336" lon="-0.464684">
        <ele>544.003</ele>
        <time>2019-06-16T10:55:32Z</time>
      </trkpt>
      <trkpt lat="38.713971" lon="-0.464884">
        <ele>547.223</ele>
        <time>2019-06-16T10:55:42Z</time>
      </trkpt>
      <trkpt lat="38.713971" lon="-0.464884">
        <ele>547.208</ele>
        <time>2019-06-16T10:55:42Z</time>
      </trkpt>
      <trkpt lat="38.713971" lon="-0.464884">
        <ele>547.228</ele>
        <time>2019-06-16T10:55:42Z</time>
      </trkpt>
      <trkpt lat="38.713971" lon="-0.464884">
        <ele>547.292</ele>
        <time>2019-06-16T10:55:42Z</time>
      </trkpt>
      <trkpt lat="38.713971" lon="-0.464884">
        <ele>547.271</ele>
        <time>2019-06-16T10:55:42Z</time>
      </trkpt>
      <trkpt lat="38.713971" lon="-0.464884">
        <ele>547.264</ele>
        <time>2019-06-16T10:55:42Z</time>
      </trkpt>
      <trkpt lat="38.713971" lon="-0.464884">
        <ele>547.226</ele>
        <time>2019-06-16T10:55:42Z</time>
      </trkpt>
      <trkpt lat="38.713971" lon="-0.464884">
        <ele>547.293</ele>
        <time>2019-06-16T10:55:42Z</time>
      </trkpt>
      <trkpt lat="38.713971" lon="-0.464884">
        <ele>547.222</ele>
        <time>2019-06-16T10:55:42Z</time>
      </trkpt>
      <trkpt lat="38.713971" lon="-0.464884">
        <ele>547.257</ele>
        <time>2019-06-16T10:55:42Z</time>
      </trkpt>
      <trkpt lat="38.713437" lon="-0.465178">
        <ele>553.992</ele>
        <time>2019-06-16T10:55:55Z</time>
      </trkpt>
      <trkpt lat="38.713437" lon="-0.465178">
        <ele>553.973</ele>
        <time>2019-06-16T10:55:55Z</time>
      </trkpt>
      <trkpt lat="38.713437" lon="-0.465178">
        <ele>553.920</ele>
        <time>2019-06-16T10:55:55Z</time>
      </trkpt>
      <trkpt lat="38.713437" lon="-0.465178">
        <ele>553.908</ele>
        <time>2019-06-16T10:55:55Z</time>
      </trkpt>
      <trkpt lat="38.713437" lon="-0.465178">
        <ele>553.912</ele>
        <time>2019-06-16T10:55:55Z</time>
      </trkpt>
      <trkpt lat="38.713437" lon="-0.465178">
        <ele>553.946</ele>
        <time>2019-06-16T10:55:55Z</time>
      </trkpt>
      <trkpt lat="38.713437" lon="-0.465178">
        <ele>553.965</ele>
        <time>2019-06-16T10:55:55Z</time>
      </trkpt>
      <trkpt lat="38.713437" lon="-0.465178">
        <ele>553.948</ele>
        <time>2019-06-16T10:55:55Z</time>
      </trkpt>
      <trkpt lat="38.713437" lon="-0.465178">
        <ele>553.980</ele>
        <time>2019-06-16T10:55:55Z</time>
      </trkpt>
      <trkpt lat="38.713437" lon="-0.465178">
        <ele>553.937</ele>
        <time>2019-06-16T10:55:55Z</time>
      </trkpt>
      <trkpt lat="38.713437" lon="-0.465178">
        <ele>553.966</ele>
        <time>2019-06-16T10:55:55Z</time>
      </trkpt>
      <trkpt lat="38.713437" lon="-0.465178">
        <ele>553.941</ele>
        <time>2019-06-16T10:55:55Z</time>
      </trkpt>
      <trkpt lat="38.713437" lon="-0.465178">
        <ele>553.963</ele>
        <time>2019-06-16T10:55:55Z</time>
      </trkpt>
      <trkpt lat="38.713122" lon="-0.465388">
        <ele>554.044</ele>
        <time>2019-06-16T10:56:08Z</time>
      </trkpt>
      <trkpt lat="38.713122" lon="-0.465388">
        <ele>554.018</ele>
        <time>2019-06-16T10:56:08Z</time>
      </trkpt>
      <trkpt lat="38.713122" lon="-0.465388">
        <ele>554.008</ele>
        <time>2019-06-16T10:56:08Z</time>
      </trkpt>
      <trkpt lat="38.713122" lon="-0.465388">
        <ele>554.049</ele>
        <time>2019-06-16T10:56:08Z</time>
      </trkpt>
      <trkpt lat="38.713122" lon="-0.465388">
        <ele>554.033</ele>
        <time>2019-06-16T10:56:08Z</time>
      </trkpt>
      <trkpt lat="38.713122" lon="-0.465388">
        <ele>554.072</ele>
        <time>2019-06-16T10:56:08Z</time>
      </trkpt>
      <trkpt lat="38.713122" lon="-0.465388">
        <ele>554.065</ele>
        <time>2019-06-16T10:56:08Z</time>
      </trkpt>
      <trkpt lat="38.713122" lon="-0.465388">
        <ele>554.077</ele>
        <time>2019-06-16T10:56:08Z</time>
      </trkpt>
      <trkpt lat="38.713122" lon="-0.465388">
        <ele>554.044</ele>
        <time>2019-06-16T10:56:08Z</time>
      </trkpt>
      <trkpt lat="38.713122" lon="-0.465388">
        <ele>554.023</ele>
        <time>2019-06-16T10:56:08Z</time>
      </trkpt>
      <trkpt lat="38.713122" lon="-0.465388">
        <ele>554.078</ele>
        <time>2019-06-16T10:56:08Z</time>
      </trkpt>
      <trkpt lat="38.713122" lon="-0.465388">
        <ele>554.028</ele>
        <time>2019-06-16T10:56:08Z</time>
      </trkpt>
      <trkpt lat="38.713122" lon="-0.465388">
        <ele>554.089</ele>
        <time>2019-06-16T10:56:08Z</time>
      </trkpt>
      <trkpt lat="38.713004" lon="-0.465460">
        <ele>552.317</ele>
        <time>2019-06-16T10:56:29Z</time>
      </trkpt>
      <trkpt lat="38.713004" lon="-0.465460">
        <ele>552.308</ele>
        <time>2019-06-16T10:56:29Z</time>
      </trkpt>
      <trkpt lat="38.713004" lon="-0.465460">
        <ele>552.365</ele>
        <time>2019-06-16T10:56:29Z</time>
      </trkpt>
      <trkpt lat="38.713004" lon="-0.465460">
        <ele>552.319</ele>
        <time>2019-06-16T10:56:29Z</time>
      </trkpt>
      <trkpt lat="38.713004" lon="-0.465460">
        <ele>552.368</ele>
        <time>2019-06-16T10:56:29Z</time>
      </trkpt>
      <trkpt lat="38.713004" lon="-0.465460">
        <ele>552.361</ele>
        <time>2019-06-16T10:56:29Z</time>
      </trkpt>
      <trkpt lat="38.713004" lon="-0.465460">
        <ele>552.393</ele>
        <time>2019-06-16T10:56:29Z</time>
      </trkpt>
      <trkpt lat="38.713004" lon="-0.465460">
        <ele>552.310</ele>
        <time>2019-06-16T10:56:29Z</time>
      </trkpt>
      <trkpt lat="38.712648" lon="-0.465794">
        <ele>550.129</ele>
        <time>2019-06-16T10:56:37Z</time>
      </trkpt>
      <trkpt lat="38.712648" lon="-0.465794">
        <ele>550.184</ele>
        <time>2019-06-16T10:56:37Z</time>
      </trkpt>
      <trkpt lat="38.712648" lon="-0.465794">
        <ele>550.151</ele>
        <time>2019-06-16T10:56:37Z</time>
      </trkpt>
      <trkpt lat="38.712648" lon="-0.465794">
        <ele>550.101</ele>
        <time>2019-06-16T10:56:37Z</time>
      </trkpt>
      <trkpt lat="38.712648" lon="-0.465794">
        <ele>550.111</ele>
        <time>2019-06-16T10:56:37Z</time>
      </trkpt>
      <trkpt lat="38.712648" lon="-0.465794">
        <ele>550.108</ele>
        <time>2019-06-16T10:56:37Z</time>
      </trkpt>
      <trkpt lat="38.712648" lon="-0.465794">
        <ele>550.138</ele>
        <time>2019-06-16T10:56:37Z</time>
      </trkpt>
      <trkpt lat="38.712648" lon="-0.465794">
        <ele>550.192</ele>
        <time>2019-06-16T10:56:37Z</time>
      </trkpt>
      <trkpt lat="38.712279" lon="-0.465978">
        <ele>558.681</ele>
        <time>2019-06-16T10:56:45Z</time>
      </trkpt>
      <trkpt lat="38.712279" lon="-0.465978">
        <ele>558.644</ele>
        <time>2019-06-16T10:56:45Z</time>
      </trkpt>
      <trkpt lat="38.712279" lon="-0.465978">
        <ele>558.696</ele>
        <time>2019-06-16T10:56:45Z</time>
      </trkpt>
      <trkpt lat="38.712279" lon="-0.465978">
        <ele>558.653</ele>
        <time>2019-06-16T10:56:45Z</time>
      </trkpt>
      <trkpt lat="38.712279" lon="-0.465978">
        <ele>558.622</ele>
        <time>2019-06-16T10:56:45Z</time>
      </trkpt>
      <trkpt lat="38.712279" lon="-0.465978">
        <ele>558.677</ele>
        <time>2019-06-16T10:56:45Z</time>
      </trkpt>
      <trkpt lat="38.712279" lon="-0.465978">
        <ele>558.627</ele>
        <time>2019-06-16T10:56:45Z</time>
      </trkpt>
      <trkpt lat="38.712279" lon="-0.465978">
        <ele>558.668</ele>
        <time>2019-06-16T10:56:45Z</time>
      </trkpt>
      <trkpt lat="38.712025" lon="-0.466248">
        <ele>564.514</ele>
        <time>2019-06-16T10:56:53Z</time>
      </trkpt>
      <trkpt lat="38.712025" lon="-0.466248">
        <ele>564.508</ele>
        <time>2019-06-16T10:56:53Z</time>
      </trkpt>
      <trkpt lat="38.712025" lon="-0.466248">
        <ele>564.525</ele>
        <time>2019-06-16T10:56:53Z</time>
      </trkpt>
      <trkpt lat="38.712025" lon="-0.466248">
        <ele>564.599</ele>
        <time>2019-06-16T10:56:53Z</time>
      </trkpt>
      <trkpt lat="38.712025" lon="-0.466248">
        <ele>564.558</ele>
        <time>2019-06-16T10:56:53Z</time>
      </trkpt>
      <trkpt lat="38.712025" lon="-0.466248">
        <ele>564.531</ele>
        <time>2019-06-16T10:56:53Z</time>
      </trkpt>
      <trkpt lat="38.712025" lon="-0.466248">
        <ele>564.533</ele>
        <time>2019-06-16T10:56:53Z</time>
      </trkpt>
      <trkpt lat="38.712025" lon="-0.466248">
        <ele>564.540</ele>
        <time>2019-06-16T10:56:53Z</time>
      </trkpt>
      <trkpt lat="38.711779" lon="-0.466425">
        <ele>562.449</ele>
        <time>2019-06-16T10:57:01Z</time>
      </trkpt>
      <trkpt lat="38.711779" lon="-0.466425">
        <ele>562.454</ele>
        <time>2019-06-16T10:57:01Z</time>
      </trkpt>
      <trkpt lat="38.711779" lon="-0.466425">
        <ele>562.491</ele>
        <time>2019-06-16T10:57:01Z</time>
      </trkpt>
      <trkpt lat="38.711779" lon="-0.466425">
        <ele>562.481</ele>
        <time>2019-06-16T10:57:01Z</time>
      </trkpt>
      <trkpt lat="38.711779" lon="-0.466425">
        <ele>562.419</ele>
        <time>2019-06-16T10:57:01Z</time>
      </trkpt>
      <trkpt lat="38.711779" lon="-0.466425">
        <ele>562.408</ele>
        <time>2019-06-16T10:57:01Z</time>
      </trkpt>
      <trkpt lat="38.711779" lon="-0.466425">
        <ele>562.412</ele>
        <time>2019-06-16T10:57:01Z</time>
      </trkpt>
      <trkpt lat="38.711779" lon="-0.466425">
        <ele>562.496</ele>
        <time>2019-06-16T10:57:01Z</time>
      </trkpt>
      <trkpt lat="38.711569" lon="-0.466576">
        <ele>560.035</ele>
        <time>2019-06-16T10:57:09Z</time>
      </trkpt>
      <trkpt lat="38.711569" lon="-0.466576">
        <ele>560.038</ele>
        <time>2019-06-16T10:57:09Z</time>
      </trkpt>
      <trkpt lat="38.711569" lon="-0.466576">
        <ele>560.040</ele>
        <time>2019-06-16T10:57:09Z</time>
      </trkpt>
      <trkpt lat="38.711569" lon="-0.466576">
        <ele>560.067</ele>
        <time>2019-06-16T10:57:09Z</time>
      </trkpt>
      <trkpt lat="38.711569" lon="-0.466576">
        <ele>560.016</ele>
        <time>2019-06-16T10:57:09Z</time>
      </trkpt>
      <trkpt lat="38.711569" lon="-0.466576">
        <ele>560.071</ele>
        <time>2019-06-16T10:57:09Z</time>
      </trkpt>
      <trkpt lat="38.711569" lon="-0.466576">
        <ele>560.056</ele>
        <time>2019-06-16T10:57:09Z</time>
      </trkpt>
      <trkpt lat="38.711569" lon="-0.466576">
        <ele>560.059</ele>
        <time>2019-06-16T10:57:09Z</time>
      </trkpt>
      <trkpt lat="38.711487" lon="-0.466906">
        <ele>560.714</ele>
        <time>2019-06-16T10:57:18Z</time>
      </trkpt>
      <trkpt lat="38.711487" lon="-0.466906">
        <ele>560.708</ele>
        <time>2019-06-16T10:57:18Z</time>
      </trkpt>
      <trkpt lat="38.711487" lon="-0.466906">
        <ele>560.778</ele>
        <time>2019-06-16T10:57:18Z</time>
      </trkpt>
      <trkpt lat="38.711487" lon="-0.466906">
        <ele>560.792</ele>
        <time>2019-06-16T10:57:18Z</time>
      </trkpt>
      <trkpt lat="38.711487" lon="-0.466906">
        <ele>560.781</ele>
        <time>2019-06-16T10:57:18Z</time>
      </trkpt>
      <trkpt lat="38.711487" lon="-0.466906">
        <ele>560.744</ele>
        <time>2019-06-16T10:57:18Z</time>
      </trkpt>
      <trkpt lat="38.711487" lon="-0.466906">
        <ele>560.716</ele>
        <time>2019-06-16T10:57:18Z</time>
      </trkpt>
      <trkpt lat="38.711487" lon="-0.466906">
        <ele>560.743</ele>
        <time>2019-06-16T10:57:18Z</time>
      </trkpt>
      <trkpt lat="38.711487" lon="-0.466906">
        <ele>560.732</ele>
        <time>2019-06-16T10:57:18Z</time>
      </trkpt>
      <trkpt lat="38.711421" lon="-0.467223">
        <ele>559.117</ele>
        <time>2019-06-16T10:57:27Z</time>
      </trkpt>
      <trkpt lat="38.711421" lon="-0.467223">
        <ele>559.188</ele>
        <time>2019-06-16T10:57:27Z</time>
      </trkpt>
      <trkpt lat="38.711421" lon="-0.467223">
        <ele>559.124</ele>
        <time>2019-06-16T10:57:27Z</time>
      </trkpt>
      <trkpt lat="38.711421" lon="-0.467223">
        <ele>559.126</ele>
        <time>2019-06-16T10:57:27Z</time>
      </trkpt>
      <trkpt lat="38.711421" lon="-0.467223">
        <ele>559.108</ele>
        <time>2019-06-16T10:57:27Z</time>
      </trkpt>
      <trkpt lat="38.711421" lon="-0.467223">
        <ele>559.131</ele>
        <time>2019-06-16T10:57:27Z</time>
      </trkpt>
      <trkpt lat="38.711421" lon="-0.467223">
        <ele>559.135</ele>
        <time>2019-06-16T10:57:27Z</time>
      </trkpt>
      <trkpt lat="38.711421" lon="-0.467223">
        <ele>559.154</ele>
        <time>2019-06-16T10:57:27Z</time>
      </trkpt>
      <trkpt lat="38.711421" lon="-0.467223">
        <ele>559.127</ele>
        <time>2019-06-16T10:57:27Z</time>
      </trkpt>
      <trkpt lat="38.711223" lon="-0.467505">
        <ele>559.019</ele>
        <time>2019-06-16T10:57:36Z</time>
      </trkpt>
      <trkpt lat="38.711223" lon="-0.467505">
        <ele>559.076</ele>
        <time>2019-06-16T10:57:36Z</time>
      </trkpt>
      <trkpt lat="38.711223" lon="-0.467505">
        <ele>559.025</ele>
        <time>2019-06-16T10:57:36Z</time>
      </trkpt>
      <trkpt lat="38.711223" lon="-0.467505">
        <ele>559.070</ele>
        <time>2019-06-16T10:57:36Z</time>
      </trkpt>
      <trkpt lat="38.711223" lon="-0.467505">
        <ele>559.081</ele>
        <time>2019-06-16T10:57:36Z</time>
      </trkpt>
      <trkpt lat="38.711223" lon="-0.467505">
        <ele>559.061</ele>
        <time>2019-06-16T10:57:36Z</time>
      </trkpt>
      <trkpt lat="38.711223" lon="-0.467505">
        <ele>559.017</ele>
        <time>2019-06-16T10:57:36Z</time>
      </trkpt>
      <trkpt lat="38.711223" lon="-0.467505">
        <ele>559.008</ele>
        <time>2019-06-16T10:57:36Z</time>
      </trkpt>
      <trkpt lat="38.711223" lon="-0.467505">
        <ele>559.071</ele>
        <time>2019-06-16T10:57:36Z</time>
      </trkpt>
      <trkpt lat="38.711171" lon="-0.467675">
        <ele>560.175</ele>
        <time>2019-06-16T10:57:46Z</time>
      </trkpt>
      <trkpt lat="38.711171" lon="-0.467675">
        <ele>560.164</ele>
        <time>2019-06-16T10:57:46Z</time>
      </trkpt>
      <trkpt lat="38.711171" lon="-0.467675">
        <ele>560.157</ele>
        <time>2019-06-16T10:57:46Z</time>
      </trkpt>
      <trkpt lat="38.711171" lon="-0.467675">
        <ele>560.179</ele>
        <time>2019-06-16T10:57:46Z</time>
      </trkpt>
      <trkpt lat="38.711171" lon="-0.467675">
        <ele>560.146</ele>
        <time>2019-06-16T10:57:46Z</time>
      </trkpt>
      <trkpt lat="38.711171" lon="-0.467675">
        <ele>560.175</ele>
        <time>2019-06-16T10:57:46Z</time>
      </trkpt>
      <trkpt lat="38.711171" lon="-0.467675">
        <ele>560.120</ele>
        <time>2019-06-16T10:57:46Z</time>
      </trkpt>
      <trkpt lat="38.711171" lon="-0.467675">
        <ele>560.134</ele>
        <time>2019-06-16T10:57:46Z</time>
      </trkpt>
      <trkpt lat="38.711171" lon="-0.467675">
        <ele>560.155</ele>
        <time>2019-06-16T10:57:46Z</time>
      </trkpt>
      <trkpt lat="38.711171" lon="-0.467675">
        <ele>560.110</ele>
        <time>2019-06-16T10:57:46Z</time>
      </trkpt>
      <trkpt lat="38.711178" lon="-0.467794">
        <ele>561.008</ele>
        <time>2019-06-16T10:57:58Z</time>
      </trkpt>
      <trkpt lat="38.711178" lon="-0.467794">
        <ele>561.076</ele>
        <time>2019-06-16T10:57:58Z</time>
      </trkpt>
      <trkpt lat="38.711178" lon="-0.467794">
        <ele>561.080</ele>
        <time>2019-06-16T10:57:58Z</time>
      </trkpt>
      <trkpt lat="38.711178" lon="-0.467794">
        <ele>561.079</ele>
        <time>2019-06-16T10:57:58Z</time>
      </trkpt>
      <trkpt lat="38.711178" lon="-0.467794">
        <ele>561.072</ele>
        <time>2019-06-16T10:57:58Z</time>
      </trkpt>
      <trkpt lat="38.711178" lon="-0.467794">
        <ele>561.024</ele>
        <time>2019-06-16T10:57:58Z</time>
      </trkpt>
      <trkpt lat="38.711178" lon="-0.467794">
        <ele>561.081</ele>
        <time>2019-06-16T10:57:58Z</time>
      </trkpt>
      <trkpt lat="38.711178" lon="-0.467794">
        <ele>561.030</ele>
        <time>2019-06-16T10:57:58Z</time>
      </trkpt>
      <trkpt lat="38.711178" lon="-0.467794">
        <ele>561.035</ele>
        <time>2019-06-16T10:57:58Z</time>
      </trkpt>
      <trkpt lat="38.711178" lon="-0.467794">
        <ele>561.089</ele>
        <time>2019-06-16T10:57:58Z</time>
      </trkpt>
      <trkpt lat="38.711178" lon="-0.467794">
        <ele>561.006</ele>
        <time>2019-06-16T10:57:58Z</time>
      </trkpt>
      <trkpt lat="38.711178" lon="-0.467794">
        <ele>561.026</ele>
        <time>2019-06-16T10:57:58Z</time>
      </trkpt>
      <trkpt lat="38.710561" lon="-0.468153">
        <ele>570.008</ele>
        <time>2019-06-16T10:58:11Z</time>
      </trkpt>
      <trkpt lat="38.710561" lon="-0.468153">
        <ele>570.031</ele>
        <time>2019-06-16T10:58:11Z</time>
      </trkpt>
      <trkpt lat="38.710561" lon="-0.468153">
        <ele>570.055</ele>
        <time>2019-06-16T10:58:11Z</time>
      </trkpt>
      <trkpt lat="38.710561" lon="-0.468153">
        <ele>570.044</ele>
        <time>2019-06-16T10:58:11Z</time>
      </trkpt>
      <trkpt lat="38.710561" lon="-0.468153">
        <ele>570.047</ele>
        <time>2019-06-16T10:58:11Z</time>
      </trkpt>
      <trkpt lat="38.710561" lon="-0.468153">
        <ele>570.019</ele>
        <time>2019-06-16T10:58:11Z</time>
      </trkpt>
      <trkpt lat="38.710561" lon="-0.468153">
        <ele>570.036</ele>
        <time>2019-06-16T10:58:11Z</time>
      </trkpt>
      <trkpt lat="38.710561" lon="-0.468153">
        <ele>570.085</ele>
        <time>2019-06-16T10:58:11Z</time>
      </trkpt>
      <trkpt lat="38.710561" lon="-0.468153">
        <ele>570.080</ele>
        <time>2019-06-16T10:58:11Z</time>
      </trkpt>
      <trkpt lat="38.710561" lon="-0.468153">
        <ele>570.055</ele>
        <time>2019-06-16T10:58:11Z</time>
      </trkpt>
      <trkpt lat="38.710561" lon="-0.468153">
        <ele>570.007</ele>
        <time>2019-06-16T10:58:11Z</time>
      </trkpt>
      <trkpt lat="38.710561" lon="-0.468153">
        <ele>570.017</ele>
        <time>2019-06-16T10:58:11Z</time>
      </trkpt>
      <trkpt lat="38.710561" lon="-0.468153">
        <ele>570.008</ele>
        <time>2019-06-16T10:58:11Z</time>
      </trkpt>
      <trkpt lat="38.709935" lon="-0.468733">
        <ele>562.658</ele>
        <time>2019-06-16T10:58:26Z</time>
      </trkpt>
      <trkpt lat="38.709935" lon="-0.468733">
        <ele>562.662</ele>
        <time>2019-06-16T10:58:26Z</time>
      </trkpt>
      <trkpt lat="38.709935" lon="-0.468733">
        <ele>562.681</ele>
        <time>2019-06-16T10:58:26Z</time>
      </trkpt>
      <trkpt lat="38.709935" lon="-0.468733">
        <ele>562.684</ele>
        <time>2019-06-16T10:58:26Z</time>
      </trkpt>
      <trkpt lat="38.709935" lon="-0.468733">
        <ele>562.676</ele>
        <time>2019-06-16T10:58:26Z</time>
      </trkpt>
      <trkpt lat="38.709935" lon="-0.468733">
        <ele>562.653</ele>
        <time>2019-06-16T10:58:26Z</time>
      </trkpt>
      <trkpt lat="38.709935" lon="-0.468733">
        <ele>562.642</ele>
        <time>2019-06-16T10:58:26Z</time>
      </trkpt>
      <trkpt lat="38.709935" lon="-0.468733">
        <ele>562.617</ele>
        <time>2019-06-16T10:58:26Z</time>
      </trkpt>
      <trkpt lat="38.709935" lon="-0.468733">
        <ele>562.653</ele>
        <time>2019-06-16T10:58:26Z</time>
      </trkpt>
      <trkpt lat="38.709935" lon="-0.468733">
        <ele>562.604</ele>
        <time>2019-06-16T10:58:26Z</time>
      </trkpt>
      <trkpt lat="38.709935" lon="-0.468733">
        <ele>562.614</ele>
        <time>2019-06-16T10:58:26Z</time>
      </trkpt>
      <trkpt lat="38.709935" lon="-0.468733">
        <ele>562.608</ele>
        <time>2019-06-16T10:58:26Z</time>
      </trkpt>
      <trkpt lat="38.709935" lon="-0.468733">
        <ele>562.688</ele>
        <time>2019-06-16T10:58:26Z</time>
      </trkpt>
      <trkpt lat="38.709935" lon="-0.468733">
        <ele>562.622</ele>
        <time>2019-06-16T10:58:26Z</time>
      </trkpt>
      <trkpt lat="38.709935" lon="-0.468733">
        <ele>562.631</ele>
        <time>2019-06-16T10:58:26Z</time>
      </trkpt>
      <trkpt lat="38.709489" lon="-0.469453">
        <ele>558.144</ele>
        <time>2019-06-16T10:58:42Z</time>
      </trkpt>
      <trkpt lat="38.709489" lon="-0.469453">
        <ele>558.156</ele>
        <time>2019-06-16T10:58:42Z</time>
      </trkpt>
      <trkpt lat="38.709489" lon="-0.469453">
        <ele>558.183</ele>
        <time>2019-06-16T10:58:42Z</time>
      </trkpt>
      <trkpt lat="38.709489" lon="-0.469453">
        <ele>558.152</ele>
        <time>2019-06-16T10:58:42Z</time>
      </trkpt>
      <trkpt lat="38.709489" lon="-0.469453">
        <ele>558.137</ele>
        <time>2019-06-16T10:58:42Z</time>
      </trkpt>
      <trkpt lat="38.709489" lon="-0.469453">
        <ele>558.183</ele>
        <time>2019-06-16T10:58:42Z</time>
      </trkpt>
      <trkpt lat="38.709489" lon="-0.469453">
        <ele>558.125</ele>
        <time>2019-06-16T10:58:42Z</time>
      </trkpt>
      <trkpt lat="38.709489" lon="-0.469453">
        <ele>558.117</ele>
        <time>2019-06-16T10:58:42Z</time>
      </trkpt>
      <trkpt lat="38.709489" lon="-0.469453">
        <ele>558.108</ele>
        <time>2019-06-16T10:58:42Z</time>
      </trkpt>
      <trkpt lat="38.709489" lon="-0.469453">
        <ele>558.131</ele>
        <time>2019-06-16T10:58:42Z</time>
      </trkpt>
      <trkpt lat="38.709489" lon="-0.469453">
        <ele>558.165</ele>
        <time>2019-06-16T10:58:42Z</time>
      </trkpt>
      <trkpt lat="38.709489" lon="-0.469453">
        <ele>558.184</ele>
        <time>2019-06-16T10:58:42Z</time>
      </trkpt>
      <trkpt lat="38.709489" lon="-0.469453">
        <ele>558.157</ele>
        <time>2019-06-16T10:58:42Z</time>
      </trkpt>
      <trkpt lat="38.709489" lon="-0.469453">
        <ele>558.119</ele>
        <time>2019-06-16T10:58:42Z</time>
      </trkpt>
      <trkpt lat="38.709489" lon="-0.469453">
        <ele>558.196</ele>
        <time>2019-06-16T10:58:42Z</time>
      </trkpt>
      <trkpt lat="38.709489" lon="-0.469453">
        <ele>558.165</ele>
        <time>2019-06-16T10:58:42Z</time>
      </trkpt>
      <trkpt lat="38.709414" lon="-0.469562">
        <ele>559.090</ele>
        <time>2019-06-16T10:58:44Z</time>
      </trkpt>
      <trkpt lat="38.709414" lon="-0.469562">
        <ele>559.096</ele>
        <time>2019-06-16T10:58:44Z</time>
      </trkpt>
      <trkpt lat="38.709388" lon="-0.469622">
        <ele>559.531</ele>
        <time>2019-06-16T10:58:45Z</time>
      </trkpt>
      <trkpt lat="38.709365" lon="-0.469676">
        <ele>560.024</ele>
        <time>2019-06-16T10:58:46Z</time>
      </trkpt>
      <trkpt lat="38.709334" lon="-0.469734">
        <ele>560.608</ele>
        <time>2019-06-16T10:58:47Z</time>
      </trkpt>
      <trkpt lat="38.709315" lon="-0.469809">
        <ele>561.932</ele>
        <time>2019-06-16T10:58:48Z</time>
      </trkpt>
      <trkpt lat="38.709286" lon="-0.469858">
        <ele>562.726</ele>
        <time>2019-06-16T10:58:49Z</time>
      </trkpt>
      <trkpt lat="38.709286" lon="-0.469858">
        <ele>562.775</ele>
        <time>2019-06-16T10:58:49Z</time>
      </trkpt>
      <trkpt lat="38.709247" lon="-0.469961">
        <ele>564.498</ele>
        <time>2019-06-16T10:58:51Z</time>
      </trkpt>
      <trkpt lat="38.709247" lon="-0.469961">
        <ele>564.470</ele>
        <time>2019-06-16T10:58:51Z</time>
      </trkpt>
      <trkpt lat="38.709166" lon="-0.470133">
        <ele>565.057</ele>
        <time>2019-06-16T10:58:54Z</time>
      </trkpt>
      <trkpt lat="38.709166" lon="-0.470133">
        <ele>565.016</ele>
        <time>2019-06-16T10:58:54Z</time>
      </trkpt>
      <trkpt lat="38.709166" lon="-0.470133">
        <ele>565.041</ele>
        <time>2019-06-16T10:58:54Z</time>
      </trkpt>
      <trkpt lat="38.709114" lon="-0.470341">
        <ele>565.053</ele>
        <time>2019-06-16T10:58:57Z</time>
      </trkpt>
      <trkpt lat="38.709114" lon="-0.470341">
        <ele>565.004</ele>
        <time>2019-06-16T10:58:57Z</time>
      </trkpt>
      <trkpt lat="38.709114" lon="-0.470341">
        <ele>565.014</ele>
        <time>2019-06-16T10:58:57Z</time>
      </trkpt>
      <trkpt lat="38.709061" lon="-0.470591">
        <ele>563.308</ele>
        <time>2019-06-16T10:59:01Z</time>
      </trkpt>
      <trkpt lat="38.709061" lon="-0.470591">
        <ele>563.378</ele>
        <time>2019-06-16T10:59:01Z</time>
      </trkpt>
      <trkpt lat="38.709061" lon="-0.470591">
        <ele>563.362</ele>
        <time>2019-06-16T10:59:01Z</time>
      </trkpt>
      <trkpt lat="38.709061" lon="-0.470591">
        <ele>563.371</ele>
        <time>2019-06-16T10:59:01Z</time>
      </trkpt>
      <trkpt lat="38.708978" lon="-0.470851">
        <ele>562.314</ele>
        <time>2019-06-16T10:59:05Z</time>
      </trkpt>
      <trkpt lat="38.708978" lon="-0.470851">
        <ele>562.356</ele>
        <time>2019-06-16T10:59:05Z</time>
      </trkpt>
      <trkpt lat="38.708978" lon="-0.470851">
        <ele>562.323</ele>
        <time>2019-06-16T10:59:05Z</time>
      </trkpt>
      <trkpt lat="38.708978" lon="-0.470851">
        <ele>562.362</ele>
        <time>2019-06-16T10:59:05Z</time>
      </trkpt>
      <trkpt lat="38.708893" lon="-0.471110">
        <ele>562.067</ele>
        <time>2019-06-16T10:59:10Z</time>
      </trkpt>
      <trkpt lat="38.708893" lon="-0.471110">
        <ele>562.063</ele>
        <time>2019-06-16T10:59:10Z</time>
      </trkpt>
      <trkpt lat="38.708893" lon="-0.471110">
        <ele>562.044</ele>
        <time>2019-06-16T10:59:10Z</time>
      </trkpt>
      <trkpt lat="38.708893" lon="-0.471110">
        <ele>562.018</ele>
        <time>2019-06-16T10:59:10Z</time>
      </trkpt>
      <trkpt lat="38.708893" lon="-0.471110">
        <ele>562.008</ele>
        <time>2019-06-16T10:59:10Z</time>
      </trkpt>
      <trkpt lat="38.708803" lon="-0.471309">
        <ele>562.369</ele>
        <time>2019-06-16T10:59:15Z</time>
      </trkpt>
      <trkpt lat="38.708803" lon="-0.471309">
        <ele>562.373</ele>
        <time>2019-06-16T10:59:15Z</time>
      </trkpt>
      <trkpt lat="38.708803" lon="-0.471309">
        <ele>562.362</ele>
        <time>2019-06-16T10:59:15Z</time>
      </trkpt>
      <trkpt lat="38.708803" lon="-0.471309">
        <ele>562.395</ele>
        <time>2019-06-16T10:59:15Z</time>
      </trkpt>
      <trkpt lat="38.708803" lon="-0.471309">
        <ele>562.397</ele>
        <time>2019-06-16T10:59:15Z</time>
      </trkpt>
      <trkpt lat="38.708762" lon="-0.471356">
        <ele>562.544</ele>
        <time>2019-06-16T10:59:20Z</time>
      </trkpt>
      <trkpt lat="38.708762" lon="-0.471356">
        <ele>562.553</ele>
        <time>2019-06-16T10:59:20Z</time>
      </trkpt>
      <trkpt lat="38.708762" lon="-0.471356">
        <ele>562.598</ele>
        <time>2019-06-16T10:59:20Z</time>
      </trkpt>
      <trkpt lat="38.708762" lon="-0.471356">
        <ele>562.551</ele>
        <time>2019-06-16T10:59:20Z</time>
      </trkpt>
      <trkpt lat="38.708762" lon="-0.471356">
        <ele>562.501</ele>
        <time>2019-06-16T10:59:20Z</time>
      </trkpt>
      <trkpt lat="38.708718" lon="-0.471341">
        <ele>562.611</ele>
        <time>2019-06-16T10:59:28Z</time>
      </trkpt>
      <trkpt lat="38.708718" lon="-0.471341">
        <ele>562.608</ele>
        <time>2019-06-16T10:59:28Z</time>
      </trkpt>
      <trkpt lat="38.708718" lon="-0.471341">
        <ele>562.618</ele>
        <time>2019-06-16T10:59:28Z</time>
      </trkpt>
      <trkpt lat="38.708718" lon="-0.471341">
        <ele>562.632</ele>
        <time>2019-06-16T10:59:28Z</time>
      </trkpt>
      <trkpt lat="38.708718" lon="-0.471341">
        <ele>562.661</ele>
        <time>2019-06-16T10:59:28Z</time>
      </trkpt>
      <trkpt lat="38.708718" lon="-0.471341">
        <ele>562.694</ele>
        <time>2019-06-16T10:59:28Z</time>
      </trkpt>
      <trkpt lat="38.708718" lon="-0.471341">
        <ele>562.626</ele>
        <time>2019-06-16T10:59:28Z</time>
      </trkpt>
      <trkpt lat="38.708718" lon="-0.471341">
        <ele>562.673</ele>
        <time>2019-06-16T10:59:28Z</time>
      </trkpt>
      <trkpt lat="38.708640" lon="-0.471332">
        <ele>562.912</ele>
        <time>2019-06-16T11:00:03Z</time>
      </trkpt>
      <trkpt lat="38.708614" lon="-0.471390">
        <ele>563.017</ele>
        <time>2019-06-16T11:00:06Z</time>
      </trkpt>
      <trkpt lat="38.708589" lon="-0.471442">
        <ele>563.563</ele>
        <time>2019-06-16T11:00:08Z</time>
      </trkpt>
      <trkpt lat="38.708527" lon="-0.471541">
        <ele>564.844</ele>
        <time>2019-06-16T11:00:10Z</time>
      </trkpt>
      <trkpt lat="38.708481" lon="-0.471585">
        <ele>565.618</ele>
        <time>2019-06-16T11:00:11Z</time>
      </trkpt>
      <trkpt lat="38.708384" lon="-0.471691">
        <ele>567.308</ele>
        <time>2019-06-16T11:00:12Z</time>
      </trkpt>
      <trkpt lat="38.708340" lon="-0.471753">
        <ele>567.979</ele>
        <time>2019-06-16T11:00:13Z</time>
      </trkpt>
      <trkpt lat="38.708295" lon="-0.471811">
        <ele>568.113</ele>
        <time>2019-06-16T11:00:14Z</time>
      </trkpt>
      <trkpt lat="38.708264" lon="-0.471884">
        <ele>568.132</ele>
        <time>2019-06-16T11:00:15Z</time>
      </trkpt>
      <trkpt lat="38.708170" lon="-0.471979">
        <ele>568.075</ele>
        <time>2019-06-16T11:00:17Z</time>
      </trkpt>
      <trkpt lat="38.708170" lon="-0.471979">
        <ele>568.077</ele>
        <time>2019-06-16T11:00:17Z</time>
      </trkpt>
      <trkpt lat="38.708072" lon="-0.472172">
        <ele>567.344</ele>
        <time>2019-06-16T11:00:19Z</time>
      </trkpt>
      <trkpt lat="38.708072" lon="-0.472172">
        <ele>567.313</ele>
        <time>2019-06-16T11:00:19Z</time>
      </trkpt>
      <trkpt lat="38.707998" lon="-0.472299">
        <ele>566.818</ele>
        <time>2019-06-16T11:00:21Z</time>
      </trkpt>
      <trkpt lat="38.707998" lon="-0.472299">
        <ele>566.827</ele>
        <time>2019-06-16T11:00:21Z</time>
      </trkpt>
      <trkpt lat="38.707993" lon="-0.472458">
        <ele>566.868</ele>
        <time>2019-06-16T11:00:23Z</time>
      </trkpt>
      <trkpt lat="38.707993" lon="-0.472458">
        <ele>566.814</ele>
        <time>2019-06-16T11:00:23Z</time>
      </trkpt>
      <trkpt lat="38.707990" lon="-0.472622">
        <ele>567.208</ele>
        <time>2019-06-16T11:00:25Z</time>
      </trkpt>
      <trkpt lat="38.707990" lon="-0.472622">
        <ele>567.265</ele>
        <time>2019-06-16T11:00:25Z</time>
      </trkpt>
      <trkpt lat="38.707760" lon="-0.472753">
        <ele>566.889</ele>
        <time>2019-06-16T11:00:27Z</time>
      </trkpt>
      <trkpt lat="38.707760" lon="-0.472753">
        <ele>566.878</ele>
        <time>2019-06-16T11:00:27Z</time>
      </trkpt>
      <trkpt lat="38.707718" lon="-0.472892">
        <ele>567.621</ele>
        <time>2019-06-16T11:00:29Z</time>
      </trkpt>
      <trkpt lat="38.707718" lon="-0.472892">
        <ele>567.623</ele>
        <time>2019-06-16T11:00:29Z</time>
      </trkpt>
      <trkpt lat="38.707561" lon="-0.473041">
        <ele>568.140</ele>
        <time>2019-06-16T11:00:31Z</time>
      </trkpt>
      <trkpt lat="38.707561" lon="-0.473041">
        <ele>568.119</ele>
        <time>2019-06-16T11:00:31Z</time>
      </trkpt>
      <trkpt lat="38.707255" lon="-0.473209">
        <ele>567.984</ele>
        <time>2019-06-16T11:00:34Z</time>
      </trkpt>
      <trkpt lat="38.707255" lon="-0.473209">
        <ele>567.958</ele>
        <time>2019-06-16T11:00:34Z</time>
      </trkpt>
      <trkpt lat="38.707255" lon="-0.473209">
        <ele>567.952</ele>
        <time>2019-06-16T11:00:34Z</time>
      </trkpt>
      <trkpt lat="38.707062" lon="-0.473436">
        <ele>564.817</ele>
        <time>2019-06-16T11:00:37Z</time>
      </trkpt>
      <trkpt lat="38.707062" lon="-0.473436">
        <ele>564.808</ele>
        <time>2019-06-16T11:00:37Z</time>
      </trkpt>
      <trkpt lat="38.707062" lon="-0.473436">
        <ele>564.838</ele>
        <time>2019-06-16T11:00:37Z</time>
      </trkpt>
      <trkpt lat="38.706879" lon="-0.473700">
        <ele>562.172</ele>
        <time>2019-06-16T11:00:41Z</time>
      </trkpt>
      <trkpt lat="38.706879" lon="-0.473700">
        <ele>562.161</ele>
        <time>2019-06-16T11:00:41Z</time>
      </trkpt>
      <trkpt lat="38.706879" lon="-0.473700">
        <ele>562.184</ele>
        <time>2019-06-16T11:00:41Z</time>
      </trkpt>
      <trkpt lat="38.706879" lon="-0.473700">
        <ele>562.116</ele>
        <time>2019-06-16T11:00:41Z</time>
      </trkpt>
      <trkpt lat="38.706665" lon="-0.473960">
        <ele>560.773</ele>
        <time>2019-06-16T11:00:45Z</time>
      </trkpt>
      <trkpt lat="38.706665" lon="-0.473960">
        <ele>560.722</ele>
        <time>2019-06-16T11:00:45Z</time>
      </trkpt>
      <trkpt lat="38.706665" lon="-0.473960">
        <ele>560.727</ele>
        <time>2019-06-16T11:00:45Z</time>
      </trkpt>
      <trkpt lat="38.706665" lon="-0.473960">
        <ele>560.747</ele>
        <time>2019-06-16T11:00:45Z</time>
      </trkpt>
      <trkpt lat="38.706346" lon="-0.474298">
        <ele>553.029</ele>
        <time>2019-06-16T11:00:50Z</time>
      </trkpt>
      <trkpt lat="38.706346" lon="-0.474298">
        <ele>553.021</ele>
        <time>2019-06-16T11:00:50Z</time>
      </trkpt>
      <trkpt lat="38.706346" lon="-0.474298">
        <ele>553.008</ele>
        <time>2019-06-16T11:00:50Z</time>
      </trkpt>
      <trkpt lat="38.706346" lon="-0.474298">
        <ele>553.017</ele>
        <time>2019-06-16T11:00:50Z</time>
      </trkpt>
      <trkpt lat="38.706346" lon="-0.474298">
        <ele>553.081</ele>
        <time>2019-06-16T11:00:50Z</time>
      </trkpt>
      <trkpt lat="38.706003" lon="-0.474678">
        <ele>550.210</ele>
        <time>2019-06-16T11:00:55Z</time>
      </trkpt>
      <trkpt lat="38.706003" lon="-0.474678">
        <ele>550.293</ele>
        <time>2019-06-16T11:00:55Z</time>
      </trkpt>
      <trkpt lat="38.706003" lon="-0.474678">
        <ele>550.225</ele>
        <time>2019-06-16T11:00:55Z</time>
      </trkpt>
      <trkpt lat="38.706003" lon="-0.474678">
        <ele>550.282</ele>
        <time>2019-06-16T11:00:55Z</time>
      </trkpt>
      <trkpt lat="38.706003" lon="-0.474678">
        <ele>550.281</ele>
        <time>2019-06-16T11:00:55Z</time>
      </trkpt>
      <trkpt lat="38.705637" lon="-0.475112">
        <ele>555.566</ele>
        <time>2019-06-16T11:01:01Z</time>
      </trkpt>
      <trkpt lat="38.705637" lon="-0.475112">
        <ele>555.527</ele>
        <time>2019-06-16T11:01:01Z</time>
      </trkpt>
      <trkpt lat="38.705637" lon="-0.475112">
        <ele>555.568</ele>
        <time>2019-06-16T11:01:01Z</time>
      </trkpt>
      <trkpt lat="38.705637" lon="-0.475112">
        <ele>555.514</ele>
        <time>2019-06-16T11:01:01Z</time>
      </trkpt>
      <trkpt lat="38.705637" lon="-0.475112">
        <ele>555.508</ele>
        <time>2019-06-16T11:01:01Z</time>
      </trkpt>
      <trkpt lat="38.705637" lon="-0.475112">
        <ele>555.575</ele>
        <time>2019-06-16T11:01:01Z</time>
      </trkpt>
      <trkpt lat="38.705274" lon="-0.475537">
        <ele>558.689</ele>
        <time>2019-06-16T11:01:08Z</time>
      </trkpt>
      <trkpt lat="38.705274" lon="-0.475537">
        <ele>558.698</ele>
        <time>2019-06-16T11:01:08Z</time>
      </trkpt>
      <trkpt lat="38.705274" lon="-0.475537">
        <ele>558.611</ele>
        <time>2019-06-16T11:01:08Z</time>
      </trkpt>
      <trkpt lat="38.705274" lon="-0.475537">
        <ele>558.623</ele>
        <time>2019-06-16T11:01:08Z</time>
      </trkpt>
      <trkpt lat="38.705274" lon="-0.475537">
        <ele>558.680</ele>
        <time>2019-06-16T11:01:08Z</time>
      </trkpt>
      <trkpt lat="38.705274" lon="-0.475537">
        <ele>558.699</ele>
        <time>2019-06-16T11:01:08Z</time>
      </trkpt>
      <trkpt lat="38.705274" lon="-0.475537">
        <ele>558.614</ele>
        <time>2019-06-16T11:01:08Z</time>
      </trkpt>
      <trkpt lat="38.704911" lon="-0.475996">
        <ele>564.163</ele>
        <time>2019-06-16T11:01:16Z</time>
      </trkpt>
      <trkpt lat="38.704911" lon="-0.475996">
        <ele>564.144</ele>
        <time>2019-06-16T11:01:16Z</time>
      </trkpt>
      <trkpt lat="38.704911" lon="-0.475996">
        <ele>564.118</ele>
        <time>2019-06-16T11:01:16Z</time>
      </trkpt>
      <trkpt lat="38.704911" lon="-0.475996">
        <ele>564.108</ele>
        <time>2019-06-16T11:01:16Z</time>
      </trkpt>
      <trkpt lat="38.704911" lon="-0.475996">
        <ele>564.169</ele>
        <time>2019-06-16T11:01:16Z</time>
      </trkpt>
      <trkpt lat="38.704911" lon="-0.475996">
        <ele>564.113</ele>
        <time>2019-06-16T11:01:16Z</time>
      </trkpt>
      <trkpt lat="38.704911" lon="-0.475996">
        <ele>564.152</ele>
        <time>2019-06-16T11:01:16Z</time>
      </trkpt>
      <trkpt lat="38.704911" lon="-0.475996">
        <ele>564.135</ele>
        <time>2019-06-16T11:01:16Z</time>
      </trkpt>
      <trkpt lat="38.704353" lon="-0.476564">
        <ele>560.427</ele>
        <time>2019-06-16T11:01:25Z</time>
      </trkpt>
      <trkpt lat="38.704353" lon="-0.476564">
        <ele>560.454</ele>
        <time>2019-06-16T11:01:25Z</time>
      </trkpt>
      <trkpt lat="38.704353" lon="-0.476564">
        <ele>560.433</ele>
        <time>2019-06-16T11:01:25Z</time>
      </trkpt>
      <trkpt lat="38.704353" lon="-0.476564">
        <ele>560.468</ele>
        <time>2019-06-16T11:01:25Z</time>
      </trkpt>
      <trkpt lat="38.704353" lon="-0.476564">
        <ele>560.492</ele>
        <time>2019-06-16T11:01:25Z</time>
      </trkpt>
      <trkpt lat="38.704353" lon="-0.476564">
        <ele>560.473</ele>
        <time>2019-06-16T11:01:25Z</time>
      </trkpt>
      <trkpt lat="38.704353" lon="-0.476564">
        <ele>560.420</ele>
        <time>2019-06-16T11:01:25Z</time>
      </trkpt>
      <trkpt lat="38.704353" lon="-0.476564">
        <ele>560.408</ele>
        <time>2019-06-16T11:01:25Z</time>
      </trkpt>
      <trkpt lat="38.704353" lon="-0.476564">
        <ele>560.442</ele>
        <time>2019-06-16T11:01:25Z</time>
      </trkpt>
      <trkpt lat="38.703709" lon="-0.477344">
        <ele>561.426</ele>
        <time>2019-06-16T11:01:35Z</time>
      </trkpt>
      <trkpt lat="38.703709" lon="-0.477344">
        <ele>561.425</ele>
        <time>2019-06-16T11:01:35Z</time>
      </trkpt>
      <trkpt lat="38.703709" lon="-0.477344">
        <ele>561.498</ele>
        <time>2019-06-16T11:01:35Z</time>
      </trkpt>
      <trkpt lat="38.703709" lon="-0.477344">
        <ele>561.430</ele>
        <time>2019-06-16T11:01:35Z</time>
      </trkpt>
      <trkpt lat="38.703709" lon="-0.477344">
        <ele>561.467</ele>
        <time>2019-06-16T11:01:35Z</time>
      </trkpt>
      <trkpt lat="38.703709" lon="-0.477344">
        <ele>561.446</ele>
        <time>2019-06-16T11:01:35Z</time>
      </trkpt>
      <trkpt lat="38.703709" lon="-0.477344">
        <ele>561.421</ele>
        <time>2019-06-16T11:01:35Z</time>
      </trkpt>
      <trkpt lat="38.703709" lon="-0.477344">
        <ele>561.446</ele>
        <time>2019-06-16T11:01:35Z</time>
      </trkpt>
      <trkpt lat="38.703709" lon="-0.477344">
        <ele>561.488</ele>
        <time>2019-06-16T11:01:35Z</time>
      </trkpt>
      <trkpt lat="38.703709" lon="-0.477344">
        <ele>561.416</ele>
        <time>2019-06-16T11:01:35Z</time>
      </trkpt>
      <trkpt lat="38.703012" lon="-0.478114">
        <ele>561.608</ele>
        <time>2019-06-16T11:01:46Z</time>
      </trkpt>
      <trkpt lat="38.703012" lon="-0.478114">
        <ele>561.677</ele>
        <time>2019-06-16T11:01:46Z</time>
      </trkpt>
      <trkpt lat="38.703012" lon="-0.478114">
        <ele>561.661</ele>
        <time>2019-06-16T11:01:46Z</time>
      </trkpt>
      <trkpt lat="38.703012" lon="-0.478114">
        <ele>561.670</ele>
        <time>2019-06-16T11:01:46Z</time>
      </trkpt>
      <trkpt lat="38.703012" lon="-0.478114">
        <ele>561.613</ele>
        <time>2019-06-16T11:01:46Z</time>
      </trkpt>
      <trkpt lat="38.703012" lon="-0.478114">
        <ele>561.615</ele>
        <time>2019-06-16T11:01:46Z</time>
      </trkpt>
      <trkpt lat="38.703012" lon="-0.478114">
        <ele>561.622</ele>
        <time>2019-06-16T11:01:46Z</time>
      </trkpt>
      <trkpt lat="38.703012" lon="-0.478114">
        <ele>561.641</ele>
        <time>2019-06-16T11:01:46Z</time>
      </trkpt>
      <trkpt lat="38.703012" lon="-0.478114">
        <ele>561.616</ele>
        <time>2019-06-16T11:01:46Z</time>
      </trkpt>
      <trkpt lat="38.703012" lon="-0.478114">
        <ele>561.622</ele>
        <time>2019-06-16T11:01:46Z</time>
      </trkpt>
      <trkpt lat="38.703012" lon="-0.478114">
        <ele>561.662</ele>
        <time>2019-06-16T11:01:46Z</time>
      </trkpt>
      <trkpt lat="38.703048" lon="-0.478301">
        <ele>564.508</ele>
        <time>2019-06-16T11:01:48Z</time>
      </trkpt>
      <trkpt lat="38.703048" lon="-0.478301">
        <ele>564.508</ele>
        <time>2019-06-16T11:01:48Z</time>
      </trkpt>
      <trkpt lat="38.702930" lon="-0.478354">
        <ele>562.945</ele>
        <time>2019-06-16T11:01:49Z</time>
      </trkpt>
      <trkpt lat="38.702839" lon="-0.478419">
        <ele>562.119</ele>
        <time>2019-06-16T11:01:50Z</time>
      </trkpt>
      <trkpt lat="38.702739" lon="-0.478473">
        <ele>561.998</ele>
        <time>2019-06-16T11:01:51Z</time>
      </trkpt>
      <trkpt lat="38.702694" lon="-0.478533">
        <ele>562.511</ele>
        <time>2019-06-16T11:01:52Z</time>
      </trkpt>
      <trkpt lat="38.702638" lon="-0.478599">
        <ele>562.983</ele>
        <time>2019-06-16T11:01:53Z</time>
      </trkpt>
      <trkpt lat="38.702577" lon="-0.478662">
        <ele>562.710</ele>
        <time>2019-06-16T11:01:54Z</time>
      </trkpt>
      <trkpt lat="38.702525" lon="-0.478699">
        <ele>562.569</ele>
        <time>2019-06-16T11:01:55Z</time>
      </trkpt>
      <trkpt lat="38.702468" lon="-0.478759">
        <ele>562.874</ele>
        <time>2019-06-16T11:01:56Z</time>
      </trkpt>
      <trkpt lat="38.702447" lon="-0.478823">
        <ele>563.073</ele>
        <time>2019-06-16T11:01:57Z</time>
      </trkpt>
      <trkpt lat="38.702389" lon="-0.478897">
        <ele>563.485</ele>
        <time>2019-06-16T11:01:58Z</time>
      </trkpt>
      <trkpt lat="38.702351" lon="-0.478960">
        <ele>563.313</ele>
        <time>2019-06-16T11:01:59Z</time>
      </trkpt>
      <trkpt lat="38.702318" lon="-0.479028">
        <ele>563.008</ele>
        <time>2019-06-16T11:02:00Z</time>
      </trkpt>
      <trkpt lat="38.702263" lon="-0.479100">
        <ele>562.630</ele>
        <time>2019-06-16T11:02:01Z</time>
      </trkpt>
      <trkpt lat="38.702214" lon="-0.479161">
        <ele>562.094</ele>
        <time>2019-06-16T11:02:02Z</time>
      </trkpt>
      <trkpt lat="38.702139" lon="-0.479248">
        <ele>561.963</ele>
        <time>2019-06-16T11:02:03Z</time>
      </trkpt>
      <trkpt lat="38.702099" lon="-0.479299">
        <ele>561.876</ele>
        <time>2019-06-16T11:02:04Z</time>
      </trkpt>
      <trkpt lat="38.702043" lon="-0.479340">
        <ele>561.678</ele>
        <time>2019-06-16T11:02:05Z</time>
      </trkpt>
      <trkpt lat="38.701987" lon="-0.479400">
        <ele>561.325</ele>
        <time>2019-06-16T11:02:06Z</time>
      </trkpt>
      <trkpt lat="38.701923" lon="-0.479457">
        <ele>561.094</ele>
        <time>2019-06-16T11:02:07Z</time>
      </trkpt>
      <trkpt lat="38.701871" lon="-0.479529">
        <ele>561.259</ele>
        <time>2019-06-16T11:02:08Z</time>
      </trkpt>
      <trkpt lat="38.701796" lon="-0.479586">
        <ele>561.287</ele>
        <time>2019-06-16T11:02:09Z</time>
      </trkpt>
      <trkpt lat="38.701726" lon="-0.479654">
        <ele>561.242</ele>
        <time>2019-06-16T11:02:10Z</time>
      </trkpt>
      <trkpt lat="38.701655" lon="-0.479715">
        <ele>561.026</ele>
        <time>2019-06-16T11:02:11Z</time>
      </trkpt>
      <trkpt lat="38.701620" lon="-0.479798">
        <ele>561.308</ele>
        <time>2019-06-16T11:02:12Z</time>
      </trkpt>
      <trkpt lat="38.701578" lon="-0.479857">
        <ele>561.581</ele>
        <time>2019-06-16T11:02:13Z</time>
      </trkpt>
      <trkpt lat="38.701515" lon="-0.479917">
        <ele>561.785</ele>
        <time>2019-06-16T11:02:14Z</time>
      </trkpt>
      <trkpt lat="38.701459" lon="-0.479986">
        <ele>562.014</ele>
        <time>2019-06-16T11:02:15Z</time>
      </trkpt>
      <trkpt lat="38.701418" lon="-0.480055">
        <ele>562.017</ele>
        <time>2019-06-16T11:02:16Z</time>
      </trkpt>
      <trkpt lat="38.701353" lon="-0.480120">
        <ele>562.349</ele>
        <time>2019-06-16T11:02:17Z</time>
      </trkpt>
      <trkpt lat="38.701278" lon="-0.480174">
        <ele>562.856</ele>
        <time>2019-06-16T11:02:18Z</time>
      </trkpt>
      <trkpt lat="38.701247" lon="-0.480260">
        <ele>563.085</ele>
        <time>2019-06-16T11:02:19Z</time>
      </trkpt>
      <trkpt lat="38.701135" lon="-0.480318">
        <ele>563.830</ele>
        <time>2019-06-16T11:02:20Z</time>
      </trkpt>
      <trkpt lat="38.701095" lon="-0.480359">
        <ele>564.043</ele>
        <time>2019-06-16T11:02:21Z</time>
      </trkpt>
      <trkpt lat="38.701040" lon="-0.480416">
        <ele>564.064</ele>
        <time>2019-06-16T11:02:22Z</time>
      </trkpt>
      <trkpt lat="38.700976" lon="-0.480471">
        <ele>564.010</ele>
        <time>2019-06-16T11:02:23Z</time>
      </trkpt>
      <trkpt lat="38.700938" lon="-0.480533">
        <ele>564.008</ele>
        <time>2019-06-16T11:02:24Z</time>
      </trkpt>
      <trkpt lat="38.700876" lon="-0.480608">
        <ele>564.027</ele>
        <time>2019-06-16T11:02:25Z</time>
      </trkpt>
      <trkpt lat="38.700810" lon="-0.480688">
        <ele>563.971</ele>
        <time>2019-06-16T11:02:26Z</time>
      </trkpt>
      <trkpt lat="38.700814" lon="-0.480750">
        <ele>563.950</ele>
        <time>2019-06-16T11:02:27Z</time>
      </trkpt>
      <trkpt lat="38.700749" lon="-0.480793">
        <ele>563.753</ele>
        <time>2019-06-16T11:02:28Z</time>
      </trkpt>
      <trkpt lat="38.700674" lon="-0.480850">
        <ele>563.365</ele>
        <time>2019-06-16T11:02:29Z</time>
      </trkpt>
      <trkpt lat="38.700599" lon="-0.480915">
        <ele>562.622</ele>
        <time>2019-06-16T11:02:30Z</time>
      </trkpt>
      <trkpt lat="38.700544" lon="-0.480966">
        <ele>562.111</ele>
        <time>2019-06-16T11:02:31Z</time>
      </trkpt>
      <trkpt lat="38.700488" lon="-0.481062">
        <ele>561.826</ele>
        <time>2019-06-16T11:02:32Z</time>
      </trkpt>
      <trkpt lat="38.700377" lon="-0.481098">
        <ele>562.461</ele>
        <time>2019-06-16T11:02:33Z</time>
      </trkpt>
      <trkpt lat="38.700306" lon="-0.481152">
        <ele>562.621</ele>
        <time>2019-06-16T11:02:34Z</time>
      </trkpt>
      <trkpt lat="38.700272" lon="-0.481224">
        <ele>562.613</ele>
        <time>2019-06-16T11:02:35Z</time>
      </trkpt>
      <trkpt lat="38.700222" lon="-0.481280">
        <ele>562.408</ele>
        <time>2019-06-16T11:02:36Z</time>
      </trkpt>
      <trkpt lat="38.700180" lon="-0.481334">
        <ele>562.259</ele>
        <time>2019-06-16T11:02:37Z</time>
      </trkpt>
      <trkpt lat="38.700129" lon="-0.481383">
        <ele>562.073</ele>
        <time>2019-06-16T11:02:38Z</time>
      </trkpt>
      <trkpt lat="38.700075" lon="-0.481434">
        <ele>562.162</ele>
        <time>2019-06-16T11:02:39Z</time>
      </trkpt>
      <trkpt lat="38.700033" lon="-0.481489">
        <ele>562.125</ele>
        <time>2019-06-16T11:02:40Z</time>
      </trkpt>
      <trkpt lat="38.700004" lon="-0.481538">
        <ele>562.067</ele>
        <time>2019-06-16T11:02:41Z</time>
      </trkpt>
      <trkpt lat="38.699959" lon="-0.481591">
        <ele>561.244</ele>
        <time>2019-06-16T11:02:42Z</time>
      </trkpt>
      <trkpt lat="38.699931" lon="-0.481641">
        <ele>560.583</ele>
        <time>2019-06-16T11:02:43Z</time>
      </trkpt>
      <trkpt lat="38.699892" lon="-0.481689">
        <ele>559.798</ele>
        <time>2019-06-16T11:02:44Z</time>
      </trkpt>
      <trkpt lat="38.699892" lon="-0.481689">
        <ele>559.727</ele>
        <time>2019-06-16T11:02:44Z</time>
      </trkpt>
      <trkpt lat="38.699779" lon="-0.481785">
        <ele>557.668</ele>
        <time>2019-06-16T11:02:46Z</time>
      </trkpt>
      <trkpt lat="38.699779" lon="-0.481785">
        <ele>557.614</ele>
        <time>2019-06-16T11:02:46Z</time>
      </trkpt>
      <trkpt lat="38.699699" lon="-0.481861">
        <ele>556.508</ele>
        <time>2019-06-16T11:02:48Z</time>
      </trkpt>
      <trkpt lat="38.699699" lon="-0.481861">
        <ele>556.565</ele>
        <time>2019-06-16T11:02:48Z</time>
      </trkpt>
      <trkpt lat="38.699646" lon="-0.481910">
        <ele>556.169</ele>
        <time>2019-06-16T11:02:50Z</time>
      </trkpt>
      <trkpt lat="38.699646" lon="-0.481910">
        <ele>556.148</ele>
        <time>2019-06-16T11:02:50Z</time>
      </trkpt>
      <trkpt lat="38.699625" lon="-0.481971">
        <ele>556.081</ele>
        <time>2019-06-16T11:02:53Z</time>
      </trkpt>
      <trkpt lat="38.699567" lon="-0.481996">
        <ele>555.493</ele>
        <time>2019-06-16T11:03:29Z</time>
      </trkpt>
      <trkpt lat="38.699568" lon="-0.482080">
        <ele>555.650</ele>
        <time>2019-06-16T11:03:32Z</time>
      </trkpt>
      <trkpt lat="38.699585" lon="-0.482145">
        <ele>555.989</ele>
        <time>2019-06-16T11:03:34Z</time>
      </trkpt>
      <trkpt lat="38.699613" lon="-0.482204">
        <ele>556.274</ele>
        <time>2019-06-16T11:03:36Z</time>
      </trkpt>
      <trkpt lat="38.699678" lon="-0.482300">
        <ele>557.069</ele>
        <time>2019-06-16T11:03:37Z</time>
      </trkpt>
      <trkpt lat="38.699719" lon="-0.482341">
        <ele>557.404</ele>
        <time>2019-06-16T11:03:38Z</time>
      </trkpt>
      <trkpt lat="38.699763" lon="-0.482379">
        <ele>558.124</ele>
        <time>2019-06-16T11:03:39Z</time>
      </trkpt>
      <trkpt lat="38.699806" lon="-0.482421">
        <ele>558.808</ele>
        <time>2019-06-16T11:03:40Z</time>
      </trkpt>
      <trkpt lat="38.699872" lon="-0.482507">
        <ele>559.639</ele>
        <time>2019-06-16T11:03:42Z</time>
      </trkpt>
      <trkpt lat="38.699872" lon="-0.482507">
        <ele>559.633</ele>
        <time>2019-06-16T11:03:42Z</time>
      </trkpt>
      <trkpt lat="38.699905" lon="-0.482619">
        <ele>559.722</ele>
        <time>2019-06-16T11:03:44Z</time>
      </trkpt>
      <trkpt lat="38.699905" lon="-0.482619">
        <ele>559.735</ele>
        <time>2019-06-16T11:03:44Z</time>
      </trkpt>
      <trkpt lat="38.699912" lon="-0.482754">
        <ele>559.427</ele>
        <time>2019-06-16T11:03:46Z</time>
      </trkpt>
      <trkpt lat="38.699912" lon="-0.482754">
        <ele>559.494</ele>
        <time>2019-06-16T11:03:46Z</time>
      </trkpt>
      <trkpt lat="38.699903" lon="-0.482816">
        <ele>559.343</ele>
        <time>2019-06-16T11:03:48Z</time>
      </trkpt>
      <trkpt lat="38.699903" lon="-0.482816">
        <ele>559.338</ele>
        <time>2019-06-16T11:03:48Z</time>
      </trkpt>
      <trkpt lat="38.699763" lon="-0.482965">
        <ele>559.336</ele>
        <time>2019-06-16T11:03:51Z</time>
      </trkpt>
      <trkpt lat="38.699763" lon="-0.482965">
        <ele>559.317</ele>
        <time>2019-06-16T11:03:51Z</time>
      </trkpt>
      <trkpt lat="38.699763" lon="-0.482965">
        <ele>559.318</ele>
        <time>2019-06-16T11:03:51Z</time>
      </trkpt>
      <trkpt lat="38.699651" lon="-0.483059">
        <ele>559.508</ele>
        <time>2019-06-16T11:03:54Z</time>
      </trkpt>
      <trkpt lat="38.699651" lon="-0.483059">
        <ele>559.516</ele>
        <time>2019-06-16T11:03:54Z</time>
      </trkpt>
      <trkpt lat="38.699651" lon="-0.483059">
        <ele>559.540</ele>
        <time>2019-06-16T11:03:54Z</time>
      </trkpt>
      <trkpt lat="38.699506" lon="-0.483202">
        <ele>559.149</ele>
        <time>2019-06-16T11:03:58Z</time>
      </trkpt>
      <trkpt lat="38.699506" lon="-0.483202">
        <ele>559.152</ele>
        <time>2019-06-16T11:03:58Z</time>
      </trkpt>
      <trkpt lat="38.699506" lon="-0.483202">
        <ele>559.154</ele>
        <time>2019-06-16T11:03:58Z</time>
      </trkpt>
      <trkpt lat="38.699506" lon="-0.483202">
        <ele>559.181</ele>
        <time>2019-06-16T11:03:58Z</time>
      </trkpt>
      <trkpt lat="38.699377" lon="-0.483337">
        <ele>559.520</ele>
        <time>2019-06-16T11:04:02Z</time>
      </trkpt>
      <trkpt lat="38.699377" lon="-0.483337">
        <ele>559.545</ele>
        <time>2019-06-16T11:04:02Z</time>
      </trkpt>
      <trkpt lat="38.699377" lon="-0.483337">
        <ele>559.546</ele>
        <time>2019-06-16T11:04:02Z</time>
      </trkpt>
      <trkpt lat="38.699377" lon="-0.483337">
        <ele>559.588</ele>
        <time>2019-06-16T11:04:02Z</time>
      </trkpt>
      <trkpt lat="38.699221" lon="-0.483508">
        <ele>559.016</ele>
        <time>2019-06-16T11:04:07Z</time>
      </trkpt>
      <trkpt lat="38.699221" lon="-0.483508">
        <ele>559.008</ele>
        <time>2019-06-16T11:04:07Z</time>
      </trkpt>
      <trkpt lat="38.699221" lon="-0.483508">
        <ele>559.017</ele>
        <time>2019-06-16T11:04:07Z</time>
      </trkpt>
      <trkpt lat="38.699221" lon="-0.483508">
        <ele>559.011</ele>
        <time>2019-06-16T11:04:07Z</time>
      </trkpt>
      <trkpt lat="38.699221" lon="-0.483508">
        <ele>559.030</ele>
        <time>2019-06-16T11:04:07Z</time>
      </trkpt>
      <trkpt lat="38.699063" lon="-0.483671">
        <ele>561.293</ele>
        <time>2019-06-16T11:04:12Z</time>
      </trkpt>
      <trkpt lat="38.699063" lon="-0.483671">
        <ele>561.285</ele>
        <time>2019-06-16T11:04:12Z</time>
      </trkpt>
      <trkpt lat="38.699063" lon="-0.483671">
        <ele>561.242</ele>
        <time>2019-06-16T11:04:12Z</time>
      </trkpt>
      <trkpt lat="38.699063" lon="-0.483671">
        <ele>561.281</ele>
        <time>2019-06-16T11:04:12Z</time>
      </trkpt>
      <trkpt lat="38.699063" lon="-0.483671">
        <ele>561.276</ele>
        <time>2019-06-16T11:04:12Z</time>
      </trkpt>
      <trkpt lat="38.698810" lon="-0.483757">
        <ele>567.987</ele>
        <time>2019-06-16T11:04:18Z</time>
      </trkpt>
      <trkpt lat="38.698810" lon="-0.483757">
        <ele>567.942</ele>
        <time>2019-06-16T11:04:18Z</time>
      </trkpt>
      <trkpt lat="38.698810" lon="-0.483757">
        <ele>567.926</ele>
        <time>2019-06-16T11:04:18Z</time>
      </trkpt>
      <trkpt lat="38.698810" lon="-0.483757">
        <ele>567.908</ele>
        <time>2019-06-16T11:04:18Z</time>
      </trkpt>
      <trkpt lat="38.698810" lon="-0.483757">
        <ele>567.961</ele>
        <time>2019-06-16T11:04:18Z</time>
      </trkpt>
      <trkpt lat="38.698810" lon="-0.483757">
        <ele>567.925</ele>
        <time>2019-06-16T11:04:18Z</time>
      </trkpt>
      <trkpt lat="38.698492" lon="-0.483812">
        <ele>575.214</ele>
        <time>2019-06-16T11:04:25Z</time>
      </trkpt>
      <trkpt lat="38.698492" lon="-0.483812">
        <ele>575.227</ele>
        <time>2019-06-16T11:04:25Z</time>
      </trkpt>
      <trkpt lat="38.698492" lon="-0.483812">
        <ele>575.259</ele>
        <time>2019-06-16T11:04:25Z</time>
      </trkpt>
      <trkpt lat="38.698492" lon="-0.483812">
        <ele>575.276</ele>
        <time>2019-06-16T11:04:25Z</time>
      </trkpt>
      <trkpt lat="38.698492" lon="-0.483812">
        <ele>575.225</ele>
        <time>2019-06-16T11:04:25Z</time>
      </trkpt>
      <trkpt lat="38.698492" lon="-0.483812">
        <ele>575.290</ele>
        <time>2019-06-16T11:04:25Z</time>
      </trkpt>
      <trkpt lat="38.698492" lon="-0.483812">
        <ele>575.246</ele>
        <time>2019-06-16T11:04:25Z</time>
      </trkpt>
      <trkpt lat="38.698244" lon="-0.483867">
        <ele>575.588</ele>
        <time>2019-06-16T11:04:33Z</time>
      </trkpt>
      <trkpt lat="38.698244" lon="-0.483867">
        <ele>575.516</ele>
        <time>2019-06-16T11:04:33Z</time>
      </trkpt>
      <trkpt lat="38.698244" lon="-0.483867">
        <ele>575.508</ele>
        <time>2019-06-16T11:04:33Z</time>
      </trkpt>
      <trkpt lat="38.698244" lon="-0.483867">
        <ele>575.517</ele>
        <time>2019-06-16T11:04:33Z</time>
      </trkpt>
      <trkpt lat="38.698244" lon="-0.483867">
        <ele>575.551</ele>
        <time>2019-06-16T11:04:33Z</time>
      </trkpt>
      <trkpt lat="38.698244" lon="-0.483867">
        <ele>575.590</ele>
        <time>2019-06-16T11:04:33Z</time>
      </trkpt>
      <trkpt lat="38.698244" lon="-0.483867">
        <ele>575.573</ele>
        <time>2019-06-16T11:04:33Z</time>
      </trkpt>
      <trkpt lat="38.698244" lon="-0.483867">
        <ele>575.575</ele>
        <time>2019-06-16T11:04:33Z</time>
      </trkpt>
      <trkpt lat="38.697838" lon="-0.483945">
        <ele>574.322</ele>
        <time>2019-06-16T11:04:42Z</time>
      </trkpt>
      <trkpt lat="38.697838" lon="-0.483945">
        <ele>574.361</ele>
        <time>2019-06-16T11:04:42Z</time>
      </trkpt>
      <trkpt lat="38.697838" lon="-0.483945">
        <ele>574.336</ele>
        <time>2019-06-16T11:04:42Z</time>
      </trkpt>
      <trkpt lat="38.697838" lon="-0.483945">
        <ele>574.398</ele>
        <time>2019-06-16T11:04:42Z</time>
      </trkpt>
      <trkpt lat="38.697838" lon="-0.483945">
        <ele>574.315</ele>
        <time>2019-06-16T11:04:42Z</time>
      </trkpt>
      <trkpt lat="38.697838" lon="-0.483945">
        <ele>574.326</ele>
        <time>2019-06-16T11:04:42Z</time>
      </trkpt>
      <trkpt lat="38.697838" lon="-0.483945">
        <ele>574.308</ele>
        <time>2019-06-16T11:04:42Z</time>
      </trkpt>
      <trkpt lat="38.697838" lon="-0.483945">
        <ele>574.352</ele>
        <time>2019-06-16T11:04:42Z</time>
      </trkpt>
      <trkpt lat="38.697838" lon="-0.483945">
        <ele>574.346</ele>
        <time>2019-06-16T11:04:42Z</time>
      </trkpt>
      <trkpt lat="38.697424" lon="-0.483995">
        <ele>577.365</ele>
        <time>2019-06-16T11:04:52Z</time>
      </trkpt>
      <trkpt lat="38.697424" lon="-0.483995">
        <ele>577.378</ele>
        <time>2019-06-16T11:04:52Z</time>
      </trkpt>
      <trkpt lat="38.697424" lon="-0.483995">
        <ele>577.350</ele>
        <time>2019-06-16T11:04:52Z</time>
      </trkpt>
      <trkpt lat="38.697424" lon="-0.483995">
        <ele>577.367</ele>
        <time>2019-06-16T11:04:52Z</time>
      </trkpt>
      <trkpt lat="38.697424" lon="-0.483995">
        <ele>577.386</ele>
        <time>2019-06-16T11:04:52Z</time>
      </trkpt>
      <trkpt lat="38.697424" lon="-0.483995">
        <ele>577.341</ele>
        <time>2019-06-16T11:04:52Z</time>
      </trkpt>
      <trkpt lat="38.697424" lon="-0.483995">
        <ele>577.361</ele>
        <time>2019-06-16T11:04:52Z</time>
      </trkpt>
      <trkpt lat="38.697424" lon="-0.483995">
        <ele>577.321</ele>
        <time>2019-06-16T11:04:52Z</time>
      </trkpt>
      <trkpt lat="38.697424" lon="-0.483995">
        <ele>577.313</ele>
        <time>2019-06-16T11:04:52Z</time>
      </trkpt>
      <trkpt lat="38.697424" lon="-0.483995">
        <ele>577.308</ele>
        <time>2019-06-16T11:04:52Z</time>
      </trkpt>
      <trkpt lat="38.696966" lon="-0.484057">
        <ele>577.859</ele>
        <time>2019-06-16T11:05:03Z</time>
      </trkpt>
      <trkpt lat="38.696966" lon="-0.484057">
        <ele>577.813</ele>
        <time>2019-06-16T11:05:03Z</time>
      </trkpt>
      <trkpt lat="38.696966" lon="-0.484057">
        <ele>577.862</ele>
        <time>2019-06-16T11:05:03Z</time>
      </trkpt>
      <trkpt lat="38.696966" lon="-0.484057">
        <ele>577.845</ele>
        <time>2019-06-16T11:05:03Z</time>
      </trkpt>
      <trkpt lat="38.696966" lon="-0.484057">
        <ele>577.827</ele>
        <time>2019-06-16T11:05:03Z</time>
      </trkpt>
      <trkpt lat="38.696966" lon="-0.484057">
        <ele>577.814</ele>
        <time>2019-06-16T11:05:03Z</time>
      </trkpt>
      <trkpt lat="38.696966" lon="-0.484057">
        <ele>577.813</ele>
        <time>2019-06-16T11:05:03Z</time>
      </trkpt>
      <trkpt lat="38.696966" lon="-0.484057">
        <ele>577.828</ele>
        <time>2019-06-16T11:05:03Z</time>
      </trkpt>
      <trkpt lat="38.696966" lon="-0.484057">
        <ele>577.832</ele>
        <time>2019-06-16T11:05:03Z</time>
      </trkpt>
      <trkpt lat="38.696966" lon="-0.484057">
        <ele>577.892</ele>
        <time>2019-06-16T11:05:03Z</time>
      </trkpt>
      <trkpt lat="38.696966" lon="-0.484057">
        <ele>577.811</ele>
        <time>2019-06-16T11:05:03Z</time>
      </trkpt>
      <trkpt lat="38.696413" lon="-0.484125">
        <ele>584.308</ele>
        <time>2019-06-16T11:05:15Z</time>
      </trkpt>
      <trkpt lat="38.696413" lon="-0.484125">
        <ele>584.386</ele>
        <time>2019-06-16T11:05:15Z</time>
      </trkpt>
      <trkpt lat="38.696413" lon="-0.484125">
        <ele>584.320</ele>
        <time>2019-06-16T11:05:15Z</time>
      </trkpt>
      <trkpt lat="38.696413" lon="-0.484125">
        <ele>584.369</ele>
        <time>2019-06-16T11:05:15Z</time>
      </trkpt>
      <trkpt lat="38.696413" lon="-0.484125">
        <ele>584.352</ele>
        <time>2019-06-16T11:05:15Z</time>
      </trkpt>
      <trkpt lat="38.696413" lon="-0.484125">
        <ele>584.394</ele>
        <time>2019-06-16T11:05:15Z</time>
      </trkpt>
      <trkpt lat="38.696413" lon="-0.484125">
        <ele>584.391</ele>
        <time>2019-06-16T11:05:15Z</time>
      </trkpt>
      <trkpt lat="38.696413" lon="-0.484125">
        <ele>584.310</ele>
        <time>2019-06-16T11:05:15Z</time>
      </trkpt>
      <trkpt lat="38.696413" lon="-0.484125">
        <ele>584.375</ele>
        <time>2019-06-16T11:05:15Z</time>
      </trkpt>
      <trkpt lat="38.696413" lon="-0.484125">
        <ele>584.321</ele>
        <time>2019-06-16T11:05:15Z</time>
      </trkpt>
      <trkpt lat="38.696413" lon="-0.484125">
        <ele>584.341</ele>
        <time>2019-06-16T11:05:15Z</time>
      </trkpt>
      <trkpt lat="38.696413" lon="-0.484125">
        <ele>584.305</ele>
        <time>2019-06-16T11:05:15Z</time>
      </trkpt>
      <trkpt lat="38.695807" lon="-0.484266">
        <ele>583.408</ele>
        <time>2019-06-16T11:05:28Z</time>
      </trkpt>
      <trkpt lat="38.695807" lon="-0.484266">
        <ele>583.425</ele>
        <time>2019-06-16T11:05:28Z</time>
      </trkpt>
      <trkpt lat="38.695807" lon="-0.484266">
        <ele>583.479</ele>
        <time>2019-06-16T11:05:28Z</time>
      </trkpt>
      <trkpt lat="38.695807" lon="-0.484266">
        <ele>583.468</ele>
        <time>2019-06-16T11:05:28Z</time>
      </trkpt>
      <trkpt lat="38.695807" lon="-0.484266">
        <ele>583.481</ele>
        <time>2019-06-16T11:05:28Z</time>
      </trkpt>
      <trkpt lat="38.695807" lon="-0.484266">
        <ele>583.443</ele>
        <time>2019-06-16T11:05:28Z</time>
      </trkpt>
      <trkpt lat="38.695807" lon="-0.484266">
        <ele>583.490</ele>
        <time>2019-06-16T11:05:28Z</time>
      </trkpt>
      <trkpt lat="38.695807" lon="-0.484266">
        <ele>583.439</ele>
        <time>2019-06-16T11:05:28Z</time>
      </trkpt>
      <trkpt lat="38.695807" lon="-0.484266">
        <ele>583.464</ele>
        <time>2019-06-16T11:05:28Z</time>
      </trkpt>
      <trkpt lat="38.695807" lon="-0.484266">
        <ele>583.469</ele>
        <time>2019-06-16T11:05:28Z</time>
      </trkpt>
      <trkpt lat="38.695807" lon="-0.484266">
        <ele>583.404</ele>
        <time>2019-06-16T11:05:28Z</time>
      </trkpt>
      <trkpt lat="38.695807" lon="-0.484266">
        <ele>583.424</ele>
        <time>2019-06-16T11:05:28Z</time>
      </trkpt>
      <trkpt lat="38.695642" lon="-0.484278">
        <ele>581.908</ele>
        <time>2019-06-16T11:05:31Z</time>
      </trkpt>
      <trkpt lat="38.695642" lon="-0.484278">
        <ele>581.989</ele>
        <time>2019-06-16T11:05:31Z</time>
      </trkpt>
      <trkpt lat="38.695642" lon="-0.484278">
        <ele>581.983</ele>
        <time>2019-06-16T11:05:31Z</time>
      </trkpt>
      <trkpt lat="38.695580" lon="-0.484285">
        <ele>581.472</ele>
        <time>2019-06-16T11:05:32Z</time>
      </trkpt>
      <trkpt lat="38.695522" lon="-0.484284">
        <ele>580.555</ele>
        <time>2019-06-16T11:05:33Z</time>
      </trkpt>
      <trkpt lat="38.695454" lon="-0.484296">
        <ele>579.027</ele>
        <time>2019-06-16T11:05:34Z</time>
      </trkpt>
      <trkpt lat="38.695399" lon="-0.484299">
        <ele>577.954</ele>
        <time>2019-06-16T11:05:35Z</time>
      </trkpt>
      <trkpt lat="38.695290" lon="-0.484289">
        <ele>575.823</ele>
        <time>2019-06-16T11:05:37Z</time>
      </trkpt>
      <trkpt lat="38.695290" lon="-0.484289">
        <ele>575.848</ele>
        <time>2019-06-16T11:05:37Z</time>
      </trkpt>
      <trkpt lat="38.695207" lon="-0.484327">
        <ele>575.462</ele>
        <time>2019-06-16T11:05:39Z</time>
      </trkpt>
      <trkpt lat="38.695207" lon="-0.484327">
        <ele>575.483</ele>
        <time>2019-06-16T11:05:39Z</time>
      </trkpt>
      <trkpt lat="38.695115" lon="-0.484349">
        <ele>575.311</ele>
        <time>2019-06-16T11:05:41Z</time>
      </trkpt>
      <trkpt lat="38.695115" lon="-0.484349">
        <ele>575.308</ele>
        <time>2019-06-16T11:05:41Z</time>
      </trkpt>
      <trkpt lat="38.695059" lon="-0.484387">
        <ele>575.579</ele>
        <time>2019-06-16T11:05:44Z</time>
      </trkpt>
      <trkpt lat="38.695059" lon="-0.484387">
        <ele>575.573</ele>
        <time>2019-06-16T11:05:44Z</time>
      </trkpt>
      <trkpt lat="38.695059" lon="-0.484387">
        <ele>575.582</ele>
        <time>2019-06-16T11:05:44Z</time>
      </trkpt>
      <trkpt lat="38.695021" lon="-0.484418">
        <ele>575.815</ele>
        <time>2019-06-16T11:05:51Z</time>
      </trkpt>
      <trkpt lat="38.694835" lon="-0.484433">
        <ele>577.747</ele>
        <time>2019-06-16T11:06:23Z</time>
      </trkpt>
      <trkpt lat="38.694627" lon="-0.484509">
        <ele>580.314</ele>
        <time>2019-06-16T11:06:24Z</time>
      </trkpt>
      <trkpt lat="38.694560" lon="-0.484552">
        <ele>581.173</ele>
        <time>2019-06-16T11:06:25Z</time>
      </trkpt>
      <trkpt lat="38.694484" lon="-0.484556">
        <ele>581.628</ele>
        <time>2019-06-16T11:06:28Z</time>
      </trkpt>
      <trkpt lat="38.694431" lon="-0.484598">
        <ele>582.082</ele>
        <time>2019-06-16T11:06:29Z</time>
      </trkpt>
      <trkpt lat="38.694376" lon="-0.484638">
        <ele>581.843</ele>
        <time>2019-06-16T11:06:30Z</time>
      </trkpt>
      <trkpt lat="38.694326" lon="-0.484658">
        <ele>581.617</ele>
        <time>2019-06-16T11:06:31Z</time>
      </trkpt>
      <trkpt lat="38.694266" lon="-0.484690">
        <ele>581.408</ele>
        <time>2019-06-16T11:06:32Z</time>
      </trkpt>
      <trkpt lat="38.694183" lon="-0.484691">
        <ele>580.831</ele>
        <time>2019-06-16T11:06:34Z</time>
      </trkpt>
      <trkpt lat="38.694183" lon="-0.484691">
        <ele>580.885</ele>
        <time>2019-06-16T11:06:34Z</time>
      </trkpt>
      <trkpt lat="38.694124" lon="-0.484711">
        <ele>581.374</ele>
        <time>2019-06-16T11:06:36Z</time>
      </trkpt>
      <trkpt lat="38.694124" lon="-0.484711">
        <ele>581.357</ele>
        <time>2019-06-16T11:06:36Z</time>
      </trkpt>
      <trkpt lat="38.694071" lon="-0.484716">
        <ele>581.939</ele>
        <time>2019-06-16T11:06:38Z</time>
      </trkpt>
      <trkpt lat="38.694071" lon="-0.484716">
        <ele>581.966</ele>
        <time>2019-06-16T11:06:38Z</time>
      </trkpt>
      <trkpt lat="38.694014" lon="-0.484709">
        <ele>582.445</ele>
        <time>2019-06-16T11:06:41Z</time>
      </trkpt>
      <trkpt lat="38.694014" lon="-0.484709">
        <ele>582.480</ele>
        <time>2019-06-16T11:06:41Z</time>
      </trkpt>
      <trkpt lat="38.694014" lon="-0.484709">
        <ele>582.414</ele>
        <time>2019-06-16T11:06:41Z</time>
      </trkpt>
      <trkpt lat="38.693959" lon="-0.484716">
        <ele>583.154</ele>
        <time>2019-06-16T11:06:44Z</time>
      </trkpt>
      <trkpt lat="38.693959" lon="-0.484716">
        <ele>583.109</ele>
        <time>2019-06-16T11:06:44Z</time>
      </trkpt>
      <trkpt lat="38.693959" lon="-0.484716">
        <ele>583.108</ele>
        <time>2019-06-16T11:06:44Z</time>
      </trkpt>
      <trkpt lat="38.693881" lon="-0.484733">
        <ele>584.014</ele>
        <time>2019-06-16T11:06:48Z</time>
      </trkpt>
      <trkpt lat="38.693881" lon="-0.484733">
        <ele>584.088</ele>
        <time>2019-06-16T11:06:48Z</time>
      </trkpt>
      <trkpt lat="38.693881" lon="-0.484733">
        <ele>584.057</ele>
        <time>2019-06-16T11:06:48Z</time>
      </trkpt>
      <trkpt lat="38.693881" lon="-0.484733">
        <ele>584.080</ele>
        <time>2019-06-16T11:06:48Z</time>
      </trkpt>
      <trkpt lat="38.693833" lon="-0.484762">
        <ele>583.982</ele>
        <time>2019-06-16T11:06:52Z</time>
      </trkpt>
      <trkpt lat="38.693833" lon="-0.484762">
        <ele>583.979</ele>
        <time>2019-06-16T11:06:52Z</time>
      </trkpt>
      <trkpt lat="38.693833" lon="-0.484762">
        <ele>583.958</ele>
        <time>2019-06-16T11:06:52Z</time>
      </trkpt>
      <trkpt lat="38.693833" lon="-0.484762">
        <ele>583.953</ele>
        <time>2019-06-16T11:06:52Z</time>
      </trkpt>
      <trkpt lat="38.693713" lon="-0.484895">
        <ele>584.855</ele>
        <time>2019-06-16T11:06:57Z</time>
      </trkpt>
      <trkpt lat="38.693713" lon="-0.484895">
        <ele>584.807</ele>
        <time>2019-06-16T11:06:57Z</time>
      </trkpt>
      <trkpt lat="38.693713" lon="-0.484895">
        <ele>584.817</ele>
        <time>2019-06-16T11:06:57Z</time>
      </trkpt>
      <trkpt lat="38.693713" lon="-0.484895">
        <ele>584.808</ele>
        <time>2019-06-16T11:06:57Z</time>
      </trkpt>
      <trkpt lat="38.693713" lon="-0.484895">
        <ele>584.878</ele>
        <time>2019-06-16T11:06:57Z</time>
      </trkpt>
      <trkpt lat="38.693396" lon="-0.485106">
        <ele>578.542</ele>
        <time>2019-06-16T11:07:04Z</time>
      </trkpt>
      <trkpt lat="38.693396" lon="-0.485106">
        <ele>578.531</ele>
        <time>2019-06-16T11:07:04Z</time>
      </trkpt>
      <trkpt lat="38.693396" lon="-0.485106">
        <ele>578.574</ele>
        <time>2019-06-16T11:07:04Z</time>
      </trkpt>
      <trkpt lat="38.693396" lon="-0.485106">
        <ele>578.576</ele>
        <time>2019-06-16T11:07:04Z</time>
      </trkpt>
      <trkpt lat="38.693396" lon="-0.485106">
        <ele>578.573</ele>
        <time>2019-06-16T11:07:04Z</time>
      </trkpt>
      <trkpt lat="38.693396" lon="-0.485106">
        <ele>578.592</ele>
        <time>2019-06-16T11:07:04Z</time>
      </trkpt>
      <trkpt lat="38.693396" lon="-0.485106">
        <ele>578.587</ele>
        <time>2019-06-16T11:07:04Z</time>
      </trkpt>
      <trkpt lat="38.693316" lon="-0.485332">
        <ele>577.754</ele>
        <time>2019-06-16T11:07:14Z</time>
      </trkpt>
      <trkpt lat="38.693316" lon="-0.485332">
        <ele>577.756</ele>
        <time>2019-06-16T11:07:14Z</time>
      </trkpt>
      <trkpt lat="38.693316" lon="-0.485332">
        <ele>577.711</ele>
        <time>2019-06-16T11:07:14Z</time>
      </trkpt>
      <trkpt lat="38.693316" lon="-0.485332">
        <ele>577.708</ele>
        <time>2019-06-16T11:07:14Z</time>
      </trkpt>
      <trkpt lat="38.693316" lon="-0.485332">
        <ele>577.788</ele>
        <time>2019-06-16T11:07:14Z</time>
      </trkpt>
      <trkpt lat="38.693316" lon="-0.485332">
        <ele>577.772</ele>
        <time>2019-06-16T11:07:14Z</time>
      </trkpt>
      <trkpt lat="38.693316" lon="-0.485332">
        <ele>577.711</ele>
        <time>2019-06-16T11:07:14Z</time>
      </trkpt>
      <trkpt lat="38.693316" lon="-0.485332">
        <ele>577.714</ele>
        <time>2019-06-16T11:07:14Z</time>
      </trkpt>
      <trkpt lat="38.693316" lon="-0.485332">
        <ele>577.766</ele>
        <time>2019-06-16T11:07:14Z</time>
      </trkpt>
      <trkpt lat="38.693316" lon="-0.485332">
        <ele>577.773</ele>
        <time>2019-06-16T11:07:14Z</time>
      </trkpt>
      <trkpt lat="38.692998" lon="-0.485748">
        <ele>580.172</ele>
        <time>2019-06-16T11:07:24Z</time>
      </trkpt>
      <trkpt lat="38.692998" lon="-0.485748">
        <ele>580.177</ele>
        <time>2019-06-16T11:07:24Z</time>
      </trkpt>
      <trkpt lat="38.692998" lon="-0.485748">
        <ele>580.142</ele>
        <time>2019-06-16T11:07:24Z</time>
      </trkpt>
      <trkpt lat="38.692998" lon="-0.485748">
        <ele>580.122</ele>
        <time>2019-06-16T11:07:24Z</time>
      </trkpt>
      <trkpt lat="38.692998" lon="-0.485748">
        <ele>580.114</ele>
        <time>2019-06-16T11:07:24Z</time>
      </trkpt>
      <trkpt lat="38.692998" lon="-0.485748">
        <ele>580.108</ele>
        <time>2019-06-16T11:07:24Z</time>
      </trkpt>
      <trkpt lat="38.692998" lon="-0.485748">
        <ele>580.177</ele>
        <time>2019-06-16T11:07:24Z</time>
      </trkpt>
      <trkpt lat="38.692998" lon="-0.485748">
        <ele>580.171</ele>
        <time>2019-06-16T11:07:24Z</time>
      </trkpt>
      <trkpt lat="38.692998" lon="-0.485748">
        <ele>580.150</ele>
        <time>2019-06-16T11:07:24Z</time>
      </trkpt>
      <trkpt lat="38.692998" lon="-0.485748">
        <ele>580.123</ele>
        <time>2019-06-16T11:07:24Z</time>
      </trkpt>
      <trkpt lat="38.692899" lon="-0.486122">
        <ele>583.875</ele>
        <time>2019-06-16T11:07:34Z</time>
      </trkpt>
      <trkpt lat="38.692899" lon="-0.486122">
        <ele>583.822</ele>
        <time>2019-06-16T11:07:34Z</time>
      </trkpt>
      <trkpt lat="38.692899" lon="-0.486122">
        <ele>583.851</ele>
        <time>2019-06-16T11:07:34Z</time>
      </trkpt>
      <trkpt lat="38.692899" lon="-0.486122">
        <ele>583.876</ele>
        <time>2019-06-16T11:07:34Z</time>
      </trkpt>
      <trkpt lat="38.692899" lon="-0.486122">
        <ele>583.881</ele>
        <time>2019-06-16T11:07:34Z</time>
      </trkpt>
      <trkpt lat="38.692899" lon="-0.486122">
        <ele>583.861</ele>
        <time>2019-06-16T11:07:34Z</time>
      </trkpt>
      <trkpt lat="38.692899" lon="-0.486122">
        <ele>583.817</ele>
        <time>2019-06-16T11:07:34Z</time>
      </trkpt>
      <trkpt lat="38.692899" lon="-0.486122">
        <ele>583.808</ele>
        <time>2019-06-16T11:07:34Z</time>
      </trkpt>
      <trkpt lat="38.692899" lon="-0.486122">
        <ele>583.861</ele>
        <time>2019-06-16T11:07:34Z</time>
      </trkpt>
      <trkpt lat="38.692899" lon="-0.486122">
        <ele>583.815</ele>
        <time>2019-06-16T11:07:34Z</time>
      </trkpt>
      <trkpt lat="38.692855" lon="-0.486600">
        <ele>587.794</ele>
        <time>2019-06-16T11:07:45Z</time>
      </trkpt>
      <trkpt lat="38.692855" lon="-0.486600">
        <ele>587.767</ele>
        <time>2019-06-16T11:07:45Z</time>
      </trkpt>
      <trkpt lat="38.692855" lon="-0.486600">
        <ele>587.799</ele>
        <time>2019-06-16T11:07:45Z</time>
      </trkpt>
      <trkpt lat="38.692855" lon="-0.486600">
        <ele>587.746</ele>
        <time>2019-06-16T11:07:45Z</time>
      </trkpt>
      <trkpt lat="38.692855" lon="-0.486600">
        <ele>587.735</ele>
        <time>2019-06-16T11:07:45Z</time>
      </trkpt>
      <trkpt lat="38.692855" lon="-0.486600">
        <ele>587.710</ele>
        <time>2019-06-16T11:07:45Z</time>
      </trkpt>
      <trkpt lat="38.692855" lon="-0.486600">
        <ele>587.713</ele>
        <time>2019-06-16T11:07:45Z</time>
      </trkpt>
      <trkpt lat="38.692855" lon="-0.486600">
        <ele>587.743</ele>
        <time>2019-06-16T11:07:45Z</time>
      </trkpt>
      <trkpt lat="38.692855" lon="-0.486600">
        <ele>587.707</ele>
        <time>2019-06-16T11:07:45Z</time>
      </trkpt>
      <trkpt lat="38.692855" lon="-0.486600">
        <ele>587.708</ele>
        <time>2019-06-16T11:07:45Z</time>
      </trkpt>
      <trkpt lat="38.692855" lon="-0.486600">
        <ele>587.714</ele>
        <time>2019-06-16T11:07:45Z</time>
      </trkpt>
      <trkpt lat="38.692812" lon="-0.487033">
        <ele>586.418</ele>
        <time>2019-06-16T11:07:56Z</time>
      </trkpt>
      <trkpt lat="38.692812" lon="-0.487033">
        <ele>586.417</ele>
        <time>2019-06-16T11:07:56Z</time>
      </trkpt>
      <trkpt lat="38.692812" lon="-0.487033">
        <ele>586.480</ele>
        <time>2019-06-16T11:07:56Z</time>
      </trkpt>
      <trkpt lat="38.692812" lon="-0.487033">
        <ele>586.422</ele>
        <time>2019-06-16T11:07:56Z</time>
      </trkpt>
      <trkpt lat="38.692812" lon="-0.487033">
        <ele>586.419</ele>
        <time>2019-06-16T11:07:56Z</time>
      </trkpt>
      <trkpt lat="38.692812" lon="-0.487033">
        <ele>586.448</ele>
        <time>2019-06-16T11:07:56Z</time>
      </trkpt>
      <trkpt lat="38.692812" lon="-0.487033">
        <ele>586.493</ele>
        <time>2019-06-16T11:07:56Z</time>
      </trkpt>
      <trkpt lat="38.692812" lon="-0.487033">
        <ele>586.448</ele>
        <time>2019-06-16T11:07:56Z</time>
      </trkpt>
      <trkpt lat="38.692812" lon="-0.487033">
        <ele>586.461</ele>
        <time>2019-06-16T11:07:56Z</time>
      </trkpt>
      <trkpt lat="38.692812" lon="-0.487033">
        <ele>586.417</ele>
        <time>2019-06-16T11:07:56Z</time>
      </trkpt>
      <trkpt lat="38.692812" lon="-0.487033">
        <ele>586.408</ele>
        <time>2019-06-16T11:07:56Z</time>
      </trkpt>
      <trkpt lat="38.692549" lon="-0.487569">
        <ele>591.847</ele>
        <time>2019-06-16T11:08:08Z</time>
      </trkpt>
      <trkpt lat="38.692549" lon="-0.487569">
        <ele>591.861</ele>
        <time>2019-06-16T11:08:08Z</time>
      </trkpt>
      <trkpt lat="38.692549" lon="-0.487569">
        <ele>591.890</ele>
        <time>2019-06-16T11:08:08Z</time>
      </trkpt>
      <trkpt lat="38.692549" lon="-0.487569">
        <ele>591.853</ele>
        <time>2019-06-16T11:08:08Z</time>
      </trkpt>
      <trkpt lat="38.692549" lon="-0.487569">
        <ele>591.865</ele>
        <time>2019-06-16T11:08:08Z</time>
      </trkpt>
      <trkpt lat="38.692549" lon="-0.487569">
        <ele>591.822</ele>
        <time>2019-06-16T11:08:08Z</time>
      </trkpt>
      <trkpt lat="38.692549" lon="-0.487569">
        <ele>591.811</ele>
        <time>2019-06-16T11:08:08Z</time>
      </trkpt>
      <trkpt lat="38.692549" lon="-0.487569">
        <ele>591.896</ele>
        <time>2019-06-16T11:08:08Z</time>
      </trkpt>
      <trkpt lat="38.692549" lon="-0.487569">
        <ele>591.869</ele>
        <time>2019-06-16T11:08:08Z</time>
      </trkpt>
      <trkpt lat="38.692549" lon="-0.487569">
        <ele>591.804</ele>
        <time>2019-06-16T11:08:08Z</time>
      </trkpt>
      <trkpt lat="38.692549" lon="-0.487569">
        <ele>591.824</ele>
        <time>2019-06-16T11:08:08Z</time>
      </trkpt>
      <trkpt lat="38.692549" lon="-0.487569">
        <ele>591.808</ele>
        <time>2019-06-16T11:08:08Z</time>
      </trkpt>
      <trkpt lat="38.692299" lon="-0.487966">
        <ele>589.779</ele>
        <time>2019-06-16T11:08:20Z</time>
      </trkpt>
      <trkpt lat="38.692299" lon="-0.487966">
        <ele>589.783</ele>
        <time>2019-06-16T11:08:20Z</time>
      </trkpt>
      <trkpt lat="38.692299" lon="-0.487966">
        <ele>589.722</ele>
        <time>2019-06-16T11:08:20Z</time>
      </trkpt>
      <trkpt lat="38.692299" lon="-0.487966">
        <ele>589.735</ele>
        <time>2019-06-16T11:08:20Z</time>
      </trkpt>
      <trkpt lat="38.692299" lon="-0.487966">
        <ele>589.727</ele>
        <time>2019-06-16T11:08:20Z</time>
      </trkpt>
      <trkpt lat="38.692299" lon="-0.487966">
        <ele>589.754</ele>
        <time>2019-06-16T11:08:20Z</time>
      </trkpt>
      <trkpt lat="38.692299" lon="-0.487966">
        <ele>589.723</ele>
        <time>2019-06-16T11:08:20Z</time>
      </trkpt>
      <trkpt lat="38.692299" lon="-0.487966">
        <ele>589.718</ele>
        <time>2019-06-16T11:08:20Z</time>
      </trkpt>
      <trkpt lat="38.692299" lon="-0.487966">
        <ele>589.782</ele>
        <time>2019-06-16T11:08:20Z</time>
      </trkpt>
      <trkpt lat="38.692299" lon="-0.487966">
        <ele>589.743</ele>
        <time>2019-06-16T11:08:20Z</time>
      </trkpt>
      <trkpt lat="38.692299" lon="-0.487966">
        <ele>589.717</ele>
        <time>2019-06-16T11:08:20Z</time>
      </trkpt>
      <trkpt lat="38.692299" lon="-0.487966">
        <ele>589.708</ele>
        <time>2019-06-16T11:08:20Z</time>
      </trkpt>
      <trkpt lat="38.692271" lon="-0.488031">
        <ele>589.461</ele>
        <time>2019-06-16T11:08:22Z</time>
      </trkpt>
      <trkpt lat="38.692246" lon="-0.488107">
        <ele>589.155</ele>
        <time>2019-06-16T11:08:24Z</time>
      </trkpt>
      <trkpt lat="38.692223" lon="-0.488177">
        <ele>589.074</ele>
        <time>2019-06-16T11:08:26Z</time>
      </trkpt>
      <trkpt lat="38.692198" lon="-0.488249">
        <ele>589.237</ele>
        <time>2019-06-16T11:08:28Z</time>
      </trkpt>
      <trkpt lat="38.692172" lon="-0.488323">
        <ele>589.589</ele>
        <time>2019-06-16T11:08:30Z</time>
      </trkpt>
      <trkpt lat="38.692172" lon="-0.488323">
        <ele>589.566</ele>
        <time>2019-06-16T11:08:30Z</time>
      </trkpt>
      <trkpt lat="38.692145" lon="-0.488386">
        <ele>590.225</ele>
        <time>2019-06-16T11:08:32Z</time>
      </trkpt>
      <trkpt lat="38.692145" lon="-0.488386">
        <ele>590.260</ele>
        <time>2019-06-16T11:08:32Z</time>
      </trkpt>
      <trkpt lat="38.692115" lon="-0.488445">
        <ele>591.073</ele>
        <time>2019-06-16T11:08:34Z</time>
      </trkpt>
      <trkpt lat="38.692115" lon="-0.488445">
        <ele>591.085</ele>
        <time>2019-06-16T11:08:34Z</time>
      </trkpt>
      <trkpt lat="38.692079" lon="-0.488508">
        <ele>591.813</ele>
        <time>2019-06-16T11:08:36Z</time>
      </trkpt>
      <trkpt lat="38.692079" lon="-0.488508">
        <ele>591.808</ele>
        <time>2019-06-16T11:08:36Z</time>
      </trkpt>
      <trkpt lat="38.692031" lon="-0.488605">
        <ele>593.090</ele>
        <time>2019-06-16T11:08:39Z</time>
      </trkpt>
      <trkpt lat="38.692031" lon="-0.488605">
        <ele>593.014</ele>
        <time>2019-06-16T11:08:39Z</time>
      </trkpt>
      <trkpt lat="38.692031" lon="-0.488605">
        <ele>593.093</ele>
        <time>2019-06-16T11:08:39Z</time>
      </trkpt>
      <trkpt lat="38.691998" lon="-0.488709">
        <ele>594.026</ele>
        <time>2019-06-16T11:08:42Z</time>
      </trkpt>
      <trkpt lat="38.691998" lon="-0.488709">
        <ele>594.048</ele>
        <time>2019-06-16T11:08:42Z</time>
      </trkpt>
      <trkpt lat="38.691998" lon="-0.488709">
        <ele>594.035</ele>
        <time>2019-06-16T11:08:42Z</time>
      </trkpt>
      <trkpt lat="38.691978" lon="-0.488819">
        <ele>594.764</ele>
        <time>2019-06-16T11:08:45Z</time>
      </trkpt>
      <trkpt lat="38.691978" lon="-0.488819">
        <ele>594.719</ele>
        <time>2019-06-16T11:08:45Z</time>
      </trkpt>
      <trkpt lat="38.691978" lon="-0.488819">
        <ele>594.794</ele>
        <time>2019-06-16T11:08:45Z</time>
      </trkpt>
      <trkpt lat="38.691937" lon="-0.488946">
        <ele>595.257</ele>
        <time>2019-06-16T11:08:49Z</time>
      </trkpt>
      <trkpt lat="38.691937" lon="-0.488946">
        <ele>595.222</ele>
        <time>2019-06-16T11:08:49Z</time>
      </trkpt>
      <trkpt lat="38.691937" lon="-0.488946">
        <ele>595.208</ele>
        <time>2019-06-16T11:08:49Z</time>
      </trkpt>
      <trkpt lat="38.691937" lon="-0.488946">
        <ele>595.212</ele>
        <time>2019-06-16T11:08:49Z</time>
      </trkpt>
      <trkpt lat="38.691908" lon="-0.489049">
        <ele>595.436</ele>
        <time>2019-06-16T11:08:53Z</time>
      </trkpt>
      <trkpt lat="38.691908" lon="-0.489049">
        <ele>595.475</ele>
        <time>2019-06-16T11:08:53Z</time>
      </trkpt>
      <trkpt lat="38.691908" lon="-0.489049">
        <ele>595.448</ele>
        <time>2019-06-16T11:08:53Z</time>
      </trkpt>
      <trkpt lat="38.691908" lon="-0.489049">
        <ele>595.450</ele>
        <time>2019-06-16T11:08:53Z</time>
      </trkpt>
      <trkpt lat="38.691892" lon="-0.489122">
        <ele>595.597</ele>
        <time>2019-06-16T11:08:59Z</time>
      </trkpt>
      <trkpt lat="38.691877" lon="-0.489178">
        <ele>595.576</ele>
        <time>2019-06-16T11:09:01Z</time>
      </trkpt>
      <trkpt lat="38.691865" lon="-0.489236">
        <ele>595.251</ele>
        <time>2019-06-16T11:09:03Z</time>
      </trkpt>
      <trkpt lat="38.691847" lon="-0.489292">
        <ele>594.857</ele>
        <time>2019-06-16T11:09:05Z</time>
      </trkpt>
      <trkpt lat="38.691824" lon="-0.489344">
        <ele>594.500</ele>
        <time>2019-06-16T11:09:07Z</time>
      </trkpt>
      <trkpt lat="38.691809" lon="-0.489411">
        <ele>594.120</ele>
        <time>2019-06-16T11:09:10Z</time>
      </trkpt>
      <trkpt lat="38.691800" lon="-0.489491">
        <ele>594.108</ele>
        <time>2019-06-16T11:09:13Z</time>
      </trkpt>
      <trkpt lat="38.691794" lon="-0.489553">
        <ele>594.348</ele>
        <time>2019-06-16T11:09:15Z</time>
      </trkpt>
      <trkpt lat="38.691791" lon="-0.489630">
        <ele>594.572</ele>
        <time>2019-06-16T11:09:17Z</time>
      </trkpt>
      <trkpt lat="38.691788" lon="-0.489701">
        <ele>594.791</ele>
        <time>2019-06-16T11:09:19Z</time>
      </trkpt>
      <trkpt lat="38.691786" lon="-0.489778">
        <ele>595.384</ele>
        <time>2019-06-16T11:09:21Z</time>
      </trkpt>
      <trkpt lat="38.691785" lon="-0.489869">
        <ele>596.396</ele>
        <time>2019-06-16T11:09:23Z</time>
      </trkpt>
      <trkpt lat="38.691782" lon="-0.489947">
        <ele>597.143</ele>
        <time>2019-06-16T11:09:25Z</time>
      </trkpt>
      <trkpt lat="38.691773" lon="-0.490021">
        <ele>597.832</ele>
        <time>2019-06-16T11:09:27Z</time>
      </trkpt>
      <trkpt lat="38.691757" lon="-0.490104">
        <ele>598.457</ele>
        <time>2019-06-16T11:09:29Z</time>
      </trkpt>
      <trkpt lat="38.691735" lon="-0.490187">
        <ele>598.829</ele>
        <time>2019-06-16T11:09:31Z</time>
      </trkpt>
      <trkpt lat="38.691709" lon="-0.490267">
        <ele>599.000</ele>
        <time>2019-06-16T11:09:33Z</time>
      </trkpt>
      <trkpt lat="38.691684" lon="-0.490334">
        <ele>598.820</ele>
        <time>2019-06-16T11:09:35Z</time>
      </trkpt>
      <trkpt lat="38.691661" lon="-0.490399">
        <ele>598.808</ele>
        <time>2019-06-16T11:09:37Z</time>
      </trkpt>
      <trkpt lat="38.691638" lon="-0.490474">
        <ele>599.275</ele>
        <time>2019-06-16T11:09:39Z</time>
      </trkpt>
      <trkpt lat="38.691618" lon="-0.490544">
        <ele>599.649</ele>
        <time>2019-06-16T11:09:41Z</time>
      </trkpt>
      <trkpt lat="38.691599" lon="-0.490607">
        <ele>599.798</ele>
        <time>2019-06-16T11:09:43Z</time>
      </trkpt>
      <trkpt lat="38.691585" lon="-0.490663">
        <ele>599.911</ele>
        <time>2019-06-16T11:09:45Z</time>
      </trkpt>
      <trkpt lat="38.691570" lon="-0.490731">
        <ele>600.293</ele>
        <time>2019-06-16T11:09:47Z</time>
      </trkpt>
      <trkpt lat="38.691553" lon="-0.490795">
        <ele>600.470</ele>
        <time>2019-06-16T11:09:49Z</time>
      </trkpt>
      <trkpt lat="38.691538" lon="-0.490855">
        <ele>600.769</ele>
        <time>2019-06-16T11:09:51Z</time>
      </trkpt>
      <trkpt lat="38.691520" lon="-0.490921">
        <ele>601.384</ele>
        <time>2019-06-16T11:09:53Z</time>
      </trkpt>
      <trkpt lat="38.691503" lon="-0.490988">
        <ele>601.863</ele>
        <time>2019-06-16T11:09:55Z</time>
      </trkpt>
      <trkpt lat="38.691487" lon="-0.491057">
        <ele>602.244</ele>
        <time>2019-06-16T11:09:57Z</time>
      </trkpt>
      <trkpt lat="38.691472" lon="-0.491117">
        <ele>602.718</ele>
        <time>2019-06-16T11:09:59Z</time>
      </trkpt>
      <trkpt lat="38.691457" lon="-0.491185">
        <ele>603.208</ele>
        <time>2019-06-16T11:10:01Z</time>
      </trkpt>
      <trkpt lat="38.691440" lon="-0.491290">
        <ele>604.259</ele>
        <time>2019-06-16T11:10:04Z</time>
      </trkpt>
      <trkpt lat="38.691440" lon="-0.491290">
        <ele>604.213</ele>
        <time>2019-06-16T11:10:04Z</time>
      </trkpt>
      <trkpt lat="38.691430" lon="-0.491359">
        <ele>604.852</ele>
        <time>2019-06-16T11:10:06Z</time>
      </trkpt>
      <trkpt lat="38.691430" lon="-0.491359">
        <ele>604.895</ele>
        <time>2019-06-16T11:10:06Z</time>
      </trkpt>
      <trkpt lat="38.691421" lon="-0.491462">
        <ele>605.427</ele>
        <time>2019-06-16T11:10:09Z</time>
      </trkpt>
      <trkpt lat="38.691421" lon="-0.491462">
        <ele>605.434</ele>
        <time>2019-06-16T11:10:09Z</time>
      </trkpt>
      <trkpt lat="38.691421" lon="-0.491462">
        <ele>605.423</ele>
        <time>2019-06-16T11:10:09Z</time>
      </trkpt>
      <trkpt lat="38.691407" lon="-0.491569">
        <ele>605.888</ele>
        <time>2019-06-16T11:10:12Z</time>
      </trkpt>
      <trkpt lat="38.691407" lon="-0.491569">
        <ele>605.848</ele>
        <time>2019-06-16T11:10:12Z</time>
      </trkpt>
      <trkpt lat="38.691407" lon="-0.491569">
        <ele>605.861</ele>
        <time>2019-06-16T11:10:12Z</time>
      </trkpt>
      <trkpt lat="38.691381" lon="-0.491767">
        <ele>606.317</ele>
        <time>2019-06-16T11:10:16Z</time>
      </trkpt>
      <trkpt lat="38.691381" lon="-0.491767">
        <ele>606.308</ele>
        <time>2019-06-16T11:10:16Z</time>
      </trkpt>
      <trkpt lat="38.691381" lon="-0.491767">
        <ele>606.367</ele>
        <time>2019-06-16T11:10:16Z</time>
      </trkpt>
      <trkpt lat="38.691381" lon="-0.491767">
        <ele>606.341</ele>
        <time>2019-06-16T11:10:16Z</time>
      </trkpt>
      <trkpt lat="38.691352" lon="-0.491879">
        <ele>606.560</ele>
        <time>2019-06-16T11:10:21Z</time>
      </trkpt>
      <trkpt lat="38.691352" lon="-0.491879">
        <ele>606.583</ele>
        <time>2019-06-16T11:10:21Z</time>
      </trkpt>
      <trkpt lat="38.691352" lon="-0.491879">
        <ele>606.575</ele>
        <time>2019-06-16T11:10:21Z</time>
      </trkpt>
      <trkpt lat="38.691352" lon="-0.491879">
        <ele>606.542</ele>
        <time>2019-06-16T11:10:21Z</time>
      </trkpt>
      <trkpt lat="38.691352" lon="-0.491879">
        <ele>606.541</ele>
        <time>2019-06-16T11:10:21Z</time>
      </trkpt>
      <trkpt lat="38.691249" lon="-0.492051">
        <ele>607.066</ele>
        <time>2019-06-16T11:10:27Z</time>
      </trkpt>
      <trkpt lat="38.691249" lon="-0.492051">
        <ele>607.093</ele>
        <time>2019-06-16T11:10:27Z</time>
      </trkpt>
      <trkpt lat="38.691249" lon="-0.492051">
        <ele>607.065</ele>
        <time>2019-06-16T11:10:27Z</time>
      </trkpt>
      <trkpt lat="38.691249" lon="-0.492051">
        <ele>607.021</ele>
        <time>2019-06-16T11:10:27Z</time>
      </trkpt>
      <trkpt lat="38.691249" lon="-0.492051">
        <ele>607.008</ele>
        <time>2019-06-16T11:10:27Z</time>
      </trkpt>
      <trkpt lat="38.691249" lon="-0.492051">
        <ele>607.042</ele>
        <time>2019-06-16T11:10:27Z</time>
      </trkpt>
      <trkpt lat="38.691173" lon="-0.492311">
        <ele>608.696</ele>
        <time>2019-06-16T11:10:34Z</time>
      </trkpt>
      <trkpt lat="38.691173" lon="-0.492311">
        <ele>608.695</ele>
        <time>2019-06-16T11:10:34Z</time>
      </trkpt>
      <trkpt lat="38.691173" lon="-0.492311">
        <ele>608.618</ele>
        <time>2019-06-16T11:10:34Z</time>
      </trkpt>
      <trkpt lat="38.691173" lon="-0.492311">
        <ele>608.640</ele>
        <time>2019-06-16T11:10:34Z</time>
      </trkpt>
      <trkpt lat="38.691173" lon="-0.492311">
        <ele>608.617</ele>
        <time>2019-06-16T11:10:34Z</time>
      </trkpt>
      <trkpt lat="38.691173" lon="-0.492311">
        <ele>608.646</ele>
        <time>2019-06-16T11:10:34Z</time>
      </trkpt>
      <trkpt lat="38.691173" lon="-0.492311">
        <ele>608.621</ele>
        <time>2019-06-16T11:10:34Z</time>
      </trkpt>
      <trkpt lat="38.691155" lon="-0.492404">
        <ele>609.423</ele>
        <time>2019-06-16T11:10:37Z</time>
      </trkpt>
      <trkpt lat="38.691155" lon="-0.492404">
        <ele>609.483</ele>
        <time>2019-06-16T11:10:37Z</time>
      </trkpt>
      <trkpt lat="38.691142" lon="-0.492466">
        <ele>610.011</ele>
        <time>2019-06-16T11:10:39Z</time>
      </trkpt>
      <trkpt lat="38.691124" lon="-0.492524">
        <ele>610.308</ele>
        <time>2019-06-16T11:10:41Z</time>
      </trkpt>
      <trkpt lat="38.691079" lon="-0.492573">
        <ele>610.025</ele>
        <time>2019-06-16T11:10:44Z</time>
      </trkpt>
      <trkpt lat="38.691028" lon="-0.492563">
        <ele>609.229</ele>
        <time>2019-06-16T11:10:47Z</time>
      </trkpt>
      <trkpt lat="38.690973" lon="-0.492588">
        <ele>608.518</ele>
        <time>2019-06-16T11:10:50Z</time>
      </trkpt>
      <trkpt lat="38.690955" lon="-0.492642">
        <ele>608.561</ele>
        <time>2019-06-16T11:10:54Z</time>
      </trkpt>
      <trkpt lat="38.690896" lon="-0.492625">
        <ele>607.553</ele>
        <time>2019-06-16T11:11:47Z</time>
      </trkpt>
      <trkpt lat="38.690846" lon="-0.492608">
        <ele>606.690</ele>
        <time>2019-06-16T11:11:49Z</time>
      </trkpt>
      <trkpt lat="38.690781" lon="-0.492575">
        <ele>606.399</ele>
        <time>2019-06-16T11:11:51Z</time>
      </trkpt>
      <trkpt lat="38.690720" lon="-0.492540">
        <ele>606.244</ele>
        <time>2019-06-16T11:11:53Z</time>
      </trkpt>
      <trkpt lat="38.690673" lon="-0.492511">
        <ele>606.161</ele>
        <time>2019-06-16T11:11:55Z</time>
      </trkpt>
      <trkpt lat="38.690618" lon="-0.492474">
        <ele>606.021</ele>
        <time>2019-06-16T11:11:58Z</time>
      </trkpt>
      <trkpt lat="38.690471" lon="-0.492381">
        <ele>606.413</ele>
        <time>2019-06-16T11:12:02Z</time>
      </trkpt>
      <trkpt lat="38.690406" lon="-0.492338">
        <ele>606.908</ele>
        <time>2019-06-16T11:12:03Z</time>
      </trkpt>
      <trkpt lat="38.690358" lon="-0.492301">
        <ele>607.219</ele>
        <time>2019-06-16T11:12:04Z</time>
      </trkpt>
      <trkpt lat="38.690309" lon="-0.492275">
        <ele>607.653</ele>
        <time>2019-06-16T11:12:05Z</time>
      </trkpt>
      <trkpt lat="38.690247" lon="-0.492240">
        <ele>607.792</ele>
        <time>2019-06-16T11:12:07Z</time>
      </trkpt>
      <trkpt lat="38.690198" lon="-0.492217">
        <ele>607.435</ele>
        <time>2019-06-16T11:12:09Z</time>
      </trkpt>
      <trkpt lat="38.690162" lon="-0.492158">
        <ele>607.017</ele>
        <time>2019-06-16T11:12:13Z</time>
      </trkpt>
      <trkpt lat="38.690152" lon="-0.492090">
        <ele>606.774</ele>
        <time>2019-06-16T11:12:15Z</time>
      </trkpt>
      <trkpt lat="38.690151" lon="-0.492021">
        <ele>606.483</ele>
        <time>2019-06-16T11:12:17Z</time>
      </trkpt>
      <trkpt lat="38.690155" lon="-0.491929">
        <ele>606.218</ele>
        <time>2019-06-16T11:12:19Z</time>
      </trkpt>
      <trkpt lat="38.690149" lon="-0.491867">
        <ele>606.128</ele>
        <time>2019-06-16T11:12:21Z</time>
      </trkpt>
      <trkpt lat="38.690119" lon="-0.491802">
        <ele>605.889</ele>
        <time>2019-06-16T11:12:23Z</time>
      </trkpt>
      <trkpt lat="38.690073" lon="-0.491766">
        <ele>605.417</ele>
        <time>2019-06-16T11:12:27Z</time>
      </trkpt>
      <trkpt lat="38.690017" lon="-0.491771">
        <ele>604.808</ele>
        <time>2019-06-16T11:12:32Z</time>
      </trkpt>
      <trkpt lat="38.690017" lon="-0.491771">
        <ele>604.885</ele>
        <time>2019-06-16T11:12:32Z</time>
      </trkpt>
      <trkpt lat="38.690017" lon="-0.491771">
        <ele>604.859</ele>
        <time>2019-06-16T11:12:32Z</time>
      </trkpt>
      <trkpt lat="38.689966" lon="-0.491776">
        <ele>604.328</ele>
        <time>2019-06-16T11:12:41Z</time>
      </trkpt>
      <trkpt lat="38.689913" lon="-0.491797">
        <ele>603.941</ele>
        <time>2019-06-16T11:22:59Z</time>
      </trkpt>
      <trkpt lat="38.689865" lon="-0.491833">
        <ele>603.643</ele>
        <time>2019-06-16T11:23:02Z</time>
      </trkpt>
      <trkpt lat="38.689821" lon="-0.491865">
        <ele>603.530</ele>
        <time>2019-06-16T11:23:04Z</time>
      </trkpt>
      <trkpt lat="38.689776" lon="-0.491896">
        <ele>603.679</ele>
        <time>2019-06-16T11:23:06Z</time>
      </trkpt>
      <trkpt lat="38.689723" lon="-0.491928">
        <ele>603.854</ele>
        <time>2019-06-16T11:23:08Z</time>
      </trkpt>
      <trkpt lat="38.689671" lon="-0.491950">
        <ele>603.921</ele>
        <time>2019-06-16T11:23:10Z</time>
      </trkpt>
      <trkpt lat="38.689626" lon="-0.491970">
        <ele>604.041</ele>
        <time>2019-06-16T11:23:12Z</time>
      </trkpt>
      <trkpt lat="38.689581" lon="-0.492019">
        <ele>604.405</ele>
        <time>2019-06-16T11:23:15Z</time>
      </trkpt>
      <trkpt lat="38.689567" lon="-0.492074">
        <ele>605.108</ele>
        <time>2019-06-16T11:23:19Z</time>
      </trkpt>
      <trkpt lat="38.689592" lon="-0.492125">
        <ele>605.895</ele>
        <time>2019-06-16T11:23:23Z</time>
      </trkpt>
      <trkpt lat="38.689642" lon="-0.492086">
        <ele>605.479</ele>
        <time>2019-06-16T11:23:27Z</time>
      </trkpt>
      <trkpt lat="38.689676" lon="-0.492023">
        <ele>604.728</ele>
        <time>2019-06-16T11:23:30Z</time>
      </trkpt>
      <trkpt lat="38.689712" lon="-0.491982">
        <ele>604.491</ele>
        <time>2019-06-16T11:23:33Z</time>
      </trkpt>
      <trkpt lat="38.689765" lon="-0.491971">
        <ele>604.363</ele>
        <time>2019-06-16T11:23:38Z</time>
      </trkpt>
      <trkpt lat="38.689784" lon="-0.491914">
        <ele>603.820</ele>
        <time>2019-06-16T11:23:42Z</time>
      </trkpt>
      <trkpt lat="38.689829" lon="-0.491890">
        <ele>603.729</ele>
        <time>2019-06-16T11:23:56Z</time>
      </trkpt>
      <trkpt lat="38.689792" lon="-0.491937">
        <ele>603.924</ele>
        <time>2019-06-16T11:24:03Z</time>
      </trkpt>
      <trkpt lat="38.689746" lon="-0.491958">
        <ele>604.129</ele>
        <time>2019-06-16T11:24:05Z</time>
      </trkpt>
      <trkpt lat="38.689679" lon="-0.491990">
        <ele>604.400</ele>
        <time>2019-06-16T11:24:08Z</time>
      </trkpt>
      <trkpt lat="38.689631" lon="-0.492009">
        <ele>604.420</ele>
        <time>2019-06-16T11:24:10Z</time>
      </trkpt>
      <trkpt lat="38.689579" lon="-0.492025">
        <ele>604.508</ele>
        <time>2019-06-16T11:24:12Z</time>
      </trkpt>
      <trkpt lat="38.689552" lon="-0.492074">
        <ele>605.115</ele>
        <time>2019-06-16T11:24:45Z</time>
      </trkpt>
      <trkpt lat="38.689580" lon="-0.492142">
        <ele>606.089</ele>
        <time>2019-06-16T11:24:49Z</time>
      </trkpt>
      <trkpt lat="38.689539" lon="-0.492184">
        <ele>606.598</ele>
        <time>2019-06-16T11:24:57Z</time>
      </trkpt>
      <trkpt lat="38.689511" lon="-0.492241">
        <ele>607.291</ele>
        <time>2019-06-16T11:25:11Z</time>
      </trkpt>
      <trkpt lat="38.689484" lon="-0.492292">
        <ele>607.773</ele>
        <time>2019-06-16T11:25:14Z</time>
      </trkpt>
      <trkpt lat="38.689462" lon="-0.492343">
        <ele>608.370</ele>
        <time>2019-06-16T11:25:16Z</time>
      </trkpt>
      <trkpt lat="38.689450" lon="-0.492399">
        <ele>608.939</ele>
        <time>2019-06-16T11:25:18Z</time>
      </trkpt>
      <trkpt lat="38.689447" lon="-0.492458">
        <ele>609.594</ele>
        <time>2019-06-16T11:25:21Z</time>
      </trkpt>
      <trkpt lat="38.689480" lon="-0.492513">
        <ele>609.968</ele>
        <time>2019-06-16T11:25:26Z</time>
      </trkpt>
      <trkpt lat="38.689456" lon="-0.492568">
        <ele>610.042</ele>
        <time>2019-06-16T11:25:31Z</time>
      </trkpt>
      <trkpt lat="38.689418" lon="-0.492606">
        <ele>609.926</ele>
        <time>2019-06-16T11:25:37Z</time>
      </trkpt>
      <trkpt lat="38.689377" lon="-0.492666">
        <ele>609.808</ele>
        <time>2019-06-16T11:25:52Z</time>
      </trkpt>
      <trkpt lat="38.689331" lon="-0.492644">
        <ele>609.629</ele>
        <time>2019-06-16T11:25:56Z</time>
      </trkpt>
      <trkpt lat="38.689290" lon="-0.492680">
        <ele>609.623</ele>
        <time>2019-06-16T11:26:08Z</time>
      </trkpt>
      <trkpt lat="38.689244" lon="-0.492646">
        <ele>609.322</ele>
        <time>2019-06-16T11:26:12Z</time>
      </trkpt>
      <trkpt lat="38.689206" lon="-0.492603">
        <ele>608.995</ele>
        <time>2019-06-16T11:26:16Z</time>
      </trkpt>
      <trkpt lat="38.689172" lon="-0.492550">
        <ele>608.467</ele>
        <time>2019-06-16T11:26:19Z</time>
      </trkpt>
      <trkpt lat="38.689146" lon="-0.492494">
        <ele>607.914</ele>
        <time>2019-06-16T11:26:22Z</time>
      </trkpt>
      <trkpt lat="38.689140" lon="-0.492432">
        <ele>607.433</ele>
        <time>2019-06-16T11:26:24Z</time>
      </trkpt>
      <trkpt lat="38.689142" lon="-0.492369">
        <ele>606.968</ele>
        <time>2019-06-16T11:26:26Z</time>
      </trkpt>
      <trkpt lat="38.689139" lon="-0.492310">
        <ele>606.521</ele>
        <time>2019-06-16T11:26:29Z</time>
      </trkpt>
      <trkpt lat="38.689139" lon="-0.492310">
        <ele>606.541</ele>
        <time>2019-06-16T11:26:29Z</time>
      </trkpt>
      <trkpt lat="38.689089" lon="-0.492277">
        <ele>605.905</ele>
        <time>2019-06-16T11:26:34Z</time>
      </trkpt>
      <trkpt lat="38.689016" lon="-0.492297">
        <ele>605.608</ele>
        <time>2019-06-16T11:26:37Z</time>
      </trkpt>
      <trkpt lat="38.688961" lon="-0.492322">
        <ele>605.555</ele>
        <time>2019-06-16T11:26:40Z</time>
      </trkpt>
      <trkpt lat="38.688866" lon="-0.492357">
        <ele>605.419</ele>
        <time>2019-06-16T11:27:11Z</time>
      </trkpt>
      <trkpt lat="38.688551" lon="-0.492528">
        <ele>606.568</ele>
        <time>2019-06-16T11:27:29Z</time>
      </trkpt>
      <trkpt lat="38.688393" lon="-0.492588">
        <ele>606.891</ele>
        <time>2019-06-16T11:27:30Z</time>
      </trkpt>
      <trkpt lat="38.688275" lon="-0.492648">
        <ele>606.013</ele>
        <time>2019-06-16T11:27:31Z</time>
      </trkpt>
      <trkpt lat="38.688191" lon="-0.492690">
        <ele>605.350</ele>
        <time>2019-06-16T11:27:32Z</time>
      </trkpt>
      <trkpt lat="38.688142" lon="-0.492713">
        <ele>604.969</ele>
        <time>2019-06-16T11:27:33Z</time>
      </trkpt>
      <trkpt lat="38.688087" lon="-0.492735">
        <ele>604.444</ele>
        <time>2019-06-16T11:27:35Z</time>
      </trkpt>
      <trkpt lat="38.688087" lon="-0.492735">
        <ele>604.485</ele>
        <time>2019-06-16T11:27:35Z</time>
      </trkpt>
      <trkpt lat="38.688044" lon="-0.492753">
        <ele>603.989</ele>
        <time>2019-06-16T11:27:38Z</time>
      </trkpt>
      <trkpt lat="38.687998" lon="-0.492804">
        <ele>603.217</ele>
        <time>2019-06-16T11:27:42Z</time>
      </trkpt>
      <trkpt lat="38.687953" lon="-0.492851">
        <ele>602.808</ele>
        <time>2019-06-16T11:27:45Z</time>
      </trkpt>
      <trkpt lat="38.687914" lon="-0.492901">
        <ele>602.611</ele>
        <time>2019-06-16T11:27:49Z</time>
      </trkpt>
      <trkpt lat="38.687921" lon="-0.492977">
        <ele>603.175</ele>
        <time>2019-06-16T11:27:58Z</time>
      </trkpt>
      <trkpt lat="38.687893" lon="-0.493029">
        <ele>603.294</ele>
        <time>2019-06-16T11:28:05Z</time>
      </trkpt>
      <trkpt lat="38.687851" lon="-0.493057">
        <ele>603.347</ele>
        <time>2019-06-16T11:28:09Z</time>
      </trkpt>
      <trkpt lat="38.687804" lon="-0.493079">
        <ele>603.379</ele>
        <time>2019-06-16T11:28:14Z</time>
      </trkpt>
      <trkpt lat="38.687754" lon="-0.493113">
        <ele>603.726</ele>
        <time>2019-06-16T11:28:18Z</time>
      </trkpt>
      <trkpt lat="38.687708" lon="-0.493146">
        <ele>604.255</ele>
        <time>2019-06-16T11:28:22Z</time>
      </trkpt>
      <trkpt lat="38.687666" lon="-0.493174">
        <ele>604.730</ele>
        <time>2019-06-16T11:28:25Z</time>
      </trkpt>
      <trkpt lat="38.687629" lon="-0.493212">
        <ele>605.269</ele>
        <time>2019-06-16T11:28:28Z</time>
      </trkpt>
      <trkpt lat="38.687598" lon="-0.493264">
        <ele>605.904</ele>
        <time>2019-06-16T11:28:32Z</time>
      </trkpt>
      <trkpt lat="38.687557" lon="-0.493312">
        <ele>606.624</ele>
        <time>2019-06-16T11:28:36Z</time>
      </trkpt>
      <trkpt lat="38.687524" lon="-0.493352">
        <ele>607.008</ele>
        <time>2019-06-16T11:28:41Z</time>
      </trkpt>
      <trkpt lat="38.687493" lon="-0.493408">
        <ele>607.569</ele>
        <time>2019-06-16T11:28:45Z</time>
      </trkpt>
      <trkpt lat="38.687456" lon="-0.493470">
        <ele>607.863</ele>
        <time>2019-06-16T11:28:51Z</time>
      </trkpt>
      <trkpt lat="38.687420" lon="-0.493527">
        <ele>607.862</ele>
        <time>2019-06-16T11:28:55Z</time>
      </trkpt>
      <trkpt lat="38.687378" lon="-0.493566">
        <ele>607.675</ele>
        <time>2019-06-16T11:28:59Z</time>
      </trkpt>
      <trkpt lat="38.687331" lon="-0.493582">
        <ele>607.287</ele>
        <time>2019-06-16T11:29:04Z</time>
      </trkpt>
      <trkpt lat="38.687290" lon="-0.493610">
        <ele>606.774</ele>
        <time>2019-06-16T11:29:09Z</time>
      </trkpt>
      <trkpt lat="38.687233" lon="-0.493627">
        <ele>606.243</ele>
        <time>2019-06-16T11:29:15Z</time>
      </trkpt>
      <trkpt lat="38.687187" lon="-0.493662">
        <ele>605.828</ele>
        <time>2019-06-16T11:29:19Z</time>
      </trkpt>
      <trkpt lat="38.687156" lon="-0.493715">
        <ele>605.761</ele>
        <time>2019-06-16T11:29:22Z</time>
      </trkpt>
      <trkpt lat="38.687125" lon="-0.493787">
        <ele>605.621</ele>
        <time>2019-06-16T11:29:25Z</time>
      </trkpt>
      <trkpt lat="38.687102" lon="-0.493840">
        <ele>605.513</ele>
        <time>2019-06-16T11:29:27Z</time>
      </trkpt>
      <trkpt lat="38.687072" lon="-0.493895">
        <ele>605.408</ele>
        <time>2019-06-16T11:29:29Z</time>
      </trkpt>
      <trkpt lat="38.687043" lon="-0.493951">
        <ele>605.759</ele>
        <time>2019-06-16T11:29:31Z</time>
      </trkpt>
      <trkpt lat="38.687015" lon="-0.494005">
        <ele>606.043</ele>
        <time>2019-06-16T11:29:37Z</time>
      </trkpt>
      <trkpt lat="38.686983" lon="-0.494051">
        <ele>606.252</ele>
        <time>2019-06-16T11:29:40Z</time>
      </trkpt>
      <trkpt lat="38.686952" lon="-0.494096">
        <ele>606.315</ele>
        <time>2019-06-16T11:29:42Z</time>
      </trkpt>
      <trkpt lat="38.686933" lon="-0.494152">
        <ele>606.697</ele>
        <time>2019-06-16T11:29:45Z</time>
      </trkpt>
      <trkpt lat="38.686863" lon="-0.494233">
        <ele>606.034</ele>
        <time>2019-06-16T11:30:08Z</time>
      </trkpt>
      <trkpt lat="38.686841" lon="-0.494301">
        <ele>606.293</ele>
        <time>2019-06-16T11:30:13Z</time>
      </trkpt>
      <trkpt lat="38.686876" lon="-0.494351">
        <ele>607.578</ele>
        <time>2019-06-16T11:30:17Z</time>
      </trkpt>
      <trkpt lat="38.686865" lon="-0.494420">
        <ele>608.086</ele>
        <time>2019-06-16T11:30:21Z</time>
      </trkpt>
      <trkpt lat="38.686833" lon="-0.494473">
        <ele>607.660</ele>
        <time>2019-06-16T11:30:23Z</time>
      </trkpt>
      <trkpt lat="38.686794" lon="-0.494530">
        <ele>606.726</ele>
        <time>2019-06-16T11:30:33Z</time>
      </trkpt>
      <trkpt lat="38.686787" lon="-0.494596">
        <ele>606.508</ele>
        <time>2019-06-16T11:30:37Z</time>
      </trkpt>
      <trkpt lat="38.686770" lon="-0.494661">
        <ele>606.091</ele>
        <time>2019-06-16T11:30:45Z</time>
      </trkpt>
      <trkpt lat="38.686744" lon="-0.494713">
        <ele>605.295</ele>
        <time>2019-06-16T11:30:48Z</time>
      </trkpt>
      <trkpt lat="38.686704" lon="-0.494767">
        <ele>603.884</ele>
        <time>2019-06-16T11:30:51Z</time>
      </trkpt>
      <trkpt lat="38.686668" lon="-0.494829">
        <ele>602.397</ele>
        <time>2019-06-16T11:30:57Z</time>
      </trkpt>
      <trkpt lat="38.686637" lon="-0.494902">
        <ele>601.829</ele>
        <time>2019-06-16T11:31:01Z</time>
      </trkpt>
      <trkpt lat="38.686612" lon="-0.494955">
        <ele>601.686</ele>
        <time>2019-06-16T11:31:03Z</time>
      </trkpt>
      <trkpt lat="38.686581" lon="-0.495033">
        <ele>601.795</ele>
        <time>2019-06-16T11:31:05Z</time>
      </trkpt>
      <trkpt lat="38.686532" lon="-0.495174">
        <ele>602.660</ele>
        <time>2019-06-16T11:31:07Z</time>
      </trkpt>
      <trkpt lat="38.686507" lon="-0.495240">
        <ele>603.199</ele>
        <time>2019-06-16T11:31:08Z</time>
      </trkpt>
      <trkpt lat="38.686485" lon="-0.495292">
        <ele>603.707</ele>
        <time>2019-06-16T11:31:09Z</time>
      </trkpt>
      <trkpt lat="38.686460" lon="-0.495375">
        <ele>604.827</ele>
        <time>2019-06-16T11:31:11Z</time>
      </trkpt>
      <trkpt lat="38.686443" lon="-0.495460">
        <ele>605.708</ele>
        <time>2019-06-16T11:31:13Z</time>
      </trkpt>
      <trkpt lat="38.686430" lon="-0.495550">
        <ele>606.512</ele>
        <time>2019-06-16T11:31:15Z</time>
      </trkpt>
      <trkpt lat="38.686414" lon="-0.495626">
        <ele>607.176</ele>
        <time>2019-06-16T11:31:17Z</time>
      </trkpt>
      <trkpt lat="38.686397" lon="-0.495691">
        <ele>607.515</ele>
        <time>2019-06-16T11:31:19Z</time>
      </trkpt>
      <trkpt lat="38.686361" lon="-0.495833">
        <ele>608.368</ele>
        <time>2019-06-16T11:31:21Z</time>
      </trkpt>
      <trkpt lat="38.686344" lon="-0.495931">
        <ele>609.020</ele>
        <time>2019-06-16T11:31:23Z</time>
      </trkpt>
      <trkpt lat="38.686331" lon="-0.496003">
        <ele>609.347</ele>
        <time>2019-06-16T11:31:25Z</time>
      </trkpt>
      <trkpt lat="38.686315" lon="-0.496065">
        <ele>609.666</ele>
        <time>2019-06-16T11:31:27Z</time>
      </trkpt>
      <trkpt lat="38.686294" lon="-0.496135">
        <ele>609.641</ele>
        <time>2019-06-16T11:31:29Z</time>
      </trkpt>
      <trkpt lat="38.686263" lon="-0.496224">
        <ele>609.051</ele>
        <time>2019-06-16T11:31:30Z</time>
      </trkpt>
      <trkpt lat="38.686238" lon="-0.496316">
        <ele>608.301</ele>
        <time>2019-06-16T11:31:32Z</time>
      </trkpt>
      <trkpt lat="38.686212" lon="-0.496363">
        <ele>607.611</ele>
        <time>2019-06-16T11:31:34Z</time>
      </trkpt>
      <trkpt lat="38.686184" lon="-0.496415">
        <ele>607.108</ele>
        <time>2019-06-16T11:31:36Z</time>
      </trkpt>
      <trkpt lat="38.686165" lon="-0.496484">
        <ele>607.128</ele>
        <time>2019-06-16T11:31:38Z</time>
      </trkpt>
      <trkpt lat="38.686134" lon="-0.496568">
        <ele>606.982</ele>
        <time>2019-06-16T11:31:39Z</time>
      </trkpt>
      <trkpt lat="38.686088" lon="-0.496650">
        <ele>606.461</ele>
        <time>2019-06-16T11:31:41Z</time>
      </trkpt>
      <trkpt lat="38.686057" lon="-0.496748">
        <ele>605.944</ele>
        <time>2019-06-16T11:31:43Z</time>
      </trkpt>
      <trkpt lat="38.686041" lon="-0.496853">
        <ele>605.766</ele>
        <time>2019-06-16T11:31:45Z</time>
      </trkpt>
      <trkpt lat="38.686033" lon="-0.496931">
        <ele>605.753</ele>
        <time>2019-06-16T11:31:47Z</time>
      </trkpt>
      <trkpt lat="38.686015" lon="-0.497042">
        <ele>605.512</ele>
        <time>2019-06-16T11:31:49Z</time>
      </trkpt>
      <trkpt lat="38.686000" lon="-0.497097">
        <ele>605.257</ele>
        <time>2019-06-16T11:31:51Z</time>
      </trkpt>
      <trkpt lat="38.685981" lon="-0.497159">
        <ele>605.069</ele>
        <time>2019-06-16T11:31:53Z</time>
      </trkpt>
      <trkpt lat="38.685956" lon="-0.497239">
        <ele>604.604</ele>
        <time>2019-06-16T11:31:54Z</time>
      </trkpt>
      <trkpt lat="38.685927" lon="-0.497338">
        <ele>604.024</ele>
        <time>2019-06-16T11:31:56Z</time>
      </trkpt>
      <trkpt lat="38.685897" lon="-0.497435">
        <ele>603.408</ele>
        <time>2019-06-16T11:31:58Z</time>
      </trkpt>
      <trkpt lat="38.685869" lon="-0.497531">
        <ele>602.599</ele>
        <time>2019-06-16T11:32:00Z</time>
      </trkpt>
      <trkpt lat="38.685855" lon="-0.497604">
        <ele>601.423</ele>
        <time>2019-06-16T11:32:02Z</time>
      </trkpt>
      <trkpt lat="38.685837" lon="-0.497717">
        <ele>599.712</ele>
        <time>2019-06-16T11:32:04Z</time>
      </trkpt>
      <trkpt lat="38.685814" lon="-0.497812">
        <ele>597.695</ele>
        <time>2019-06-16T11:32:06Z</time>
      </trkpt>
      <trkpt lat="38.685793" lon="-0.497879">
        <ele>595.847</ele>
        <time>2019-06-16T11:32:08Z</time>
      </trkpt>
      <trkpt lat="38.685771" lon="-0.497939">
        <ele>594.334</ele>
        <time>2019-06-16T11:32:09Z</time>
      </trkpt>
      <trkpt lat="38.685782" lon="-0.498042">
        <ele>594.133</ele>
        <time>2019-06-16T11:32:11Z</time>
      </trkpt>
      <trkpt lat="38.685768" lon="-0.498147">
        <ele>595.018</ele>
        <time>2019-06-16T11:32:13Z</time>
      </trkpt>
      <trkpt lat="38.685742" lon="-0.498250">
        <ele>596.171</ele>
        <time>2019-06-16T11:32:15Z</time>
      </trkpt>
      <trkpt lat="38.685749" lon="-0.498308">
        <ele>597.441</ele>
        <time>2019-06-16T11:32:16Z</time>
      </trkpt>
      <trkpt lat="38.685733" lon="-0.498396">
        <ele>598.415</ele>
        <time>2019-06-16T11:32:18Z</time>
      </trkpt>
      <trkpt lat="38.685716" lon="-0.498485">
        <ele>599.208</ele>
        <time>2019-06-16T11:32:20Z</time>
      </trkpt>
      <trkpt lat="38.685708" lon="-0.498584">
        <ele>600.590</ele>
        <time>2019-06-16T11:32:22Z</time>
      </trkpt>
      <trkpt lat="38.685707" lon="-0.498645">
        <ele>601.154</ele>
        <time>2019-06-16T11:32:23Z</time>
      </trkpt>
      <trkpt lat="38.685702" lon="-0.498737">
        <ele>601.833</ele>
        <time>2019-06-16T11:32:25Z</time>
      </trkpt>
      <trkpt lat="38.685696" lon="-0.498827">
        <ele>602.576</ele>
        <time>2019-06-16T11:32:27Z</time>
      </trkpt>
      <trkpt lat="38.685682" lon="-0.498924">
        <ele>602.938</ele>
        <time>2019-06-16T11:32:29Z</time>
      </trkpt>
      <trkpt lat="38.685664" lon="-0.499017">
        <ele>603.055</ele>
        <time>2019-06-16T11:32:31Z</time>
      </trkpt>
      <trkpt lat="38.685637" lon="-0.499100">
        <ele>603.184</ele>
        <time>2019-06-16T11:32:33Z</time>
      </trkpt>
      <trkpt lat="38.685643" lon="-0.499167">
        <ele>603.649</ele>
        <time>2019-06-16T11:32:35Z</time>
      </trkpt>
      <trkpt lat="38.685655" lon="-0.499290">
        <ele>604.331</ele>
        <time>2019-06-16T11:32:37Z</time>
      </trkpt>
      <trkpt lat="38.685655" lon="-0.499376">
        <ele>604.761</ele>
        <time>2019-06-16T11:32:40Z</time>
      </trkpt>
      <trkpt lat="38.685656" lon="-0.499458">
        <ele>605.007</ele>
        <time>2019-06-16T11:32:42Z</time>
      </trkpt>
      <trkpt lat="38.685662" lon="-0.499535">
        <ele>604.908</ele>
        <time>2019-06-16T11:32:44Z</time>
      </trkpt>
      <trkpt lat="38.685670" lon="-0.499619">
        <ele>604.776</ele>
        <time>2019-06-16T11:32:46Z</time>
      </trkpt>
      <trkpt lat="38.685676" lon="-0.499696">
        <ele>604.640</ele>
        <time>2019-06-16T11:32:48Z</time>
      </trkpt>
      <trkpt lat="38.685680" lon="-0.499768">
        <ele>605.029</ele>
        <time>2019-06-16T11:32:50Z</time>
      </trkpt>
      <trkpt lat="38.685683" lon="-0.499850">
        <ele>605.992</ele>
        <time>2019-06-16T11:32:52Z</time>
      </trkpt>
      <trkpt lat="38.685688" lon="-0.499940">
        <ele>606.984</ele>
        <time>2019-06-16T11:32:54Z</time>
      </trkpt>
      <trkpt lat="38.685698" lon="-0.500027">
        <ele>607.981</ele>
        <time>2019-06-16T11:32:56Z</time>
      </trkpt>
      <trkpt lat="38.685710" lon="-0.500113">
        <ele>609.350</ele>
        <time>2019-06-16T11:32:58Z</time>
      </trkpt>
      <trkpt lat="38.685717" lon="-0.500206">
        <ele>610.875</ele>
        <time>2019-06-16T11:33:00Z</time>
      </trkpt>
      <trkpt lat="38.685718" lon="-0.500296">
        <ele>612.185</ele>
        <time>2019-06-16T11:33:02Z</time>
      </trkpt>
      <trkpt lat="38.685723" lon="-0.500385">
        <ele>612.589</ele>
        <time>2019-06-16T11:33:04Z</time>
      </trkpt>
      <trkpt lat="38.685727" lon="-0.500467">
        <ele>612.917</ele>
        <time>2019-06-16T11:33:06Z</time>
      </trkpt>
      <trkpt lat="38.685729" lon="-0.500553">
        <ele>613.408</ele>
        <time>2019-06-16T11:33:08Z</time>
      </trkpt>
      <trkpt lat="38.685732" lon="-0.500643">
        <ele>613.311</ele>
        <time>2019-06-16T11:33:10Z</time>
      </trkpt>
      <trkpt lat="38.685735" lon="-0.500727">
        <ele>613.315</ele>
        <time>2019-06-16T11:33:12Z</time>
      </trkpt>
      <trkpt lat="38.685741" lon="-0.500809">
        <ele>613.324</ele>
        <time>2019-06-16T11:33:14Z</time>
      </trkpt>
      <trkpt lat="38.685748" lon="-0.500884">
        <ele>613.447</ele>
        <time>2019-06-16T11:33:16Z</time>
      </trkpt>
      <trkpt lat="38.685755" lon="-0.500966">
        <ele>613.549</ele>
        <time>2019-06-16T11:33:18Z</time>
      </trkpt>
      <trkpt lat="38.685761" lon="-0.501053">
        <ele>613.776</ele>
        <time>2019-06-16T11:33:20Z</time>
      </trkpt>
      <trkpt lat="38.685771" lon="-0.501140">
        <ele>613.995</ele>
        <time>2019-06-16T11:33:22Z</time>
      </trkpt>
      <trkpt lat="38.685777" lon="-0.501225">
        <ele>614.240</ele>
        <time>2019-06-16T11:33:24Z</time>
      </trkpt>
      <trkpt lat="38.685781" lon="-0.501319">
        <ele>614.398</ele>
        <time>2019-06-16T11:33:26Z</time>
      </trkpt>
      <trkpt lat="38.685785" lon="-0.501426">
        <ele>614.515</ele>
        <time>2019-06-16T11:33:27Z</time>
      </trkpt>
      <trkpt lat="38.685787" lon="-0.501496">
        <ele>614.726</ele>
        <time>2019-06-16T11:33:29Z</time>
      </trkpt>
      <trkpt lat="38.685787" lon="-0.501562">
        <ele>614.808</ele>
        <time>2019-06-16T11:33:31Z</time>
      </trkpt>
      <trkpt lat="38.685787" lon="-0.501630">
        <ele>614.982</ele>
        <time>2019-06-16T11:33:33Z</time>
      </trkpt>
      <trkpt lat="38.685789" lon="-0.501779">
        <ele>616.816</ele>
        <time>2019-06-16T11:33:35Z</time>
      </trkpt>
      <trkpt lat="38.685787" lon="-0.501847">
        <ele>617.955</ele>
        <time>2019-06-16T11:33:37Z</time>
      </trkpt>
      <trkpt lat="38.685792" lon="-0.501908">
        <ele>619.098</ele>
        <time>2019-06-16T11:33:39Z</time>
      </trkpt>
      <trkpt lat="38.685790" lon="-0.501994">
        <ele>620.490</ele>
        <time>2019-06-16T11:33:40Z</time>
      </trkpt>
      <trkpt lat="38.685799" lon="-0.502098">
        <ele>622.467</ele>
        <time>2019-06-16T11:33:42Z</time>
      </trkpt>
      <trkpt lat="38.685816" lon="-0.502201">
        <ele>624.486</ele>
        <time>2019-06-16T11:33:44Z</time>
      </trkpt>
      <trkpt lat="38.685824" lon="-0.502258">
        <ele>625.241</ele>
        <time>2019-06-16T11:33:45Z</time>
      </trkpt>
      <trkpt lat="38.685818" lon="-0.502340">
        <ele>625.714</ele>
        <time>2019-06-16T11:33:48Z</time>
      </trkpt>
      <trkpt lat="38.685823" lon="-0.502420">
        <ele>626.354</ele>
        <time>2019-06-16T11:33:51Z</time>
      </trkpt>
      <trkpt lat="38.685835" lon="-0.502481">
        <ele>626.909</ele>
        <time>2019-06-16T11:33:53Z</time>
      </trkpt>
      <trkpt lat="38.685848" lon="-0.502563">
        <ele>627.908</ele>
        <time>2019-06-16T11:33:56Z</time>
      </trkpt>
      <trkpt lat="38.685903" lon="-0.502839">
        <ele>631.824</ele>
        <time>2019-06-16T11:34:11Z</time>
      </trkpt>
      <trkpt lat="38.685554" lon="-0.504507">
        <ele>626.368</ele>
        <time>2019-06-16T11:34:37Z</time>
      </trkpt>
      <trkpt lat="38.685542" lon="-0.504576">
        <ele>625.577</ele>
        <time>2019-06-16T11:34:38Z</time>
      </trkpt>
      <trkpt lat="38.685508" lon="-0.504623">
        <ele>624.830</ele>
        <time>2019-06-16T11:34:41Z</time>
      </trkpt>
      <trkpt lat="38.685468" lon="-0.504678">
        <ele>623.932</ele>
        <time>2019-06-16T11:34:45Z</time>
      </trkpt>
      <trkpt lat="38.685455" lon="-0.504756">
        <ele>622.679</ele>
        <time>2019-06-16T11:34:48Z</time>
      </trkpt>
      <trkpt lat="38.685443" lon="-0.504836">
        <ele>621.188</ele>
        <time>2019-06-16T11:34:50Z</time>
      </trkpt>
      <trkpt lat="38.685434" lon="-0.504918">
        <ele>619.513</ele>
        <time>2019-06-16T11:34:52Z</time>
      </trkpt>
      <trkpt lat="38.685415" lon="-0.504986">
        <ele>618.365</ele>
        <time>2019-06-16T11:34:54Z</time>
      </trkpt>
      <trkpt lat="38.685389" lon="-0.505055">
        <ele>617.468</ele>
        <time>2019-06-16T11:34:55Z</time>
      </trkpt>
      <trkpt lat="38.685343" lon="-0.505116">
        <ele>616.914</ele>
        <time>2019-06-16T11:34:57Z</time>
      </trkpt>
      <trkpt lat="38.685320" lon="-0.505178">
        <ele>616.408</ele>
        <time>2019-06-16T11:35:00Z</time>
      </trkpt>
      <trkpt lat="38.685295" lon="-0.505247">
        <ele>616.149</ele>
        <time>2019-06-16T11:35:03Z</time>
      </trkpt>
      <trkpt lat="38.685268" lon="-0.505301">
        <ele>615.563</ele>
        <time>2019-06-16T11:35:04Z</time>
      </trkpt>
      <trkpt lat="38.685201" lon="-0.505406">
        <ele>613.022</ele>
        <time>2019-06-16T11:35:05Z</time>
      </trkpt>
      <trkpt lat="38.685168" lon="-0.505454">
        <ele>611.935</ele>
        <time>2019-06-16T11:35:06Z</time>
      </trkpt>
      <trkpt lat="38.685109" lon="-0.505541">
        <ele>610.077</ele>
        <time>2019-06-16T11:35:08Z</time>
      </trkpt>
      <trkpt lat="38.685080" lon="-0.505593">
        <ele>609.034</ele>
        <time>2019-06-16T11:35:09Z</time>
      </trkpt>
      <trkpt lat="38.685066" lon="-0.505677">
        <ele>607.763</ele>
        <time>2019-06-16T11:35:11Z</time>
      </trkpt>
      <trkpt lat="38.685042" lon="-0.505728">
        <ele>607.128</ele>
        <time>2019-06-16T11:35:13Z</time>
      </trkpt>
      <trkpt lat="38.685005" lon="-0.505789">
        <ele>606.515</ele>
        <time>2019-06-16T11:35:15Z</time>
      </trkpt>
      <trkpt lat="38.684976" lon="-0.505842">
        <ele>605.865</ele>
        <time>2019-06-16T11:35:17Z</time>
      </trkpt>
      <trkpt lat="38.684948" lon="-0.505888">
        <ele>605.711</ele>
        <time>2019-06-16T11:35:19Z</time>
      </trkpt>
      <trkpt lat="38.684910" lon="-0.505954">
        <ele>605.908</ele>
        <time>2019-06-16T11:35:21Z</time>
      </trkpt>
      <trkpt lat="38.684910" lon="-0.505954">
        <ele>605.934</ele>
        <time>2019-06-16T11:35:21Z</time>
      </trkpt>
      <trkpt lat="38.684883" lon="-0.506012">
        <ele>606.488</ele>
        <time>2019-06-16T11:35:23Z</time>
      </trkpt>
      <trkpt lat="38.684883" lon="-0.506012">
        <ele>606.447</ele>
        <time>2019-06-16T11:35:23Z</time>
      </trkpt>
      <trkpt lat="38.684842" lon="-0.506137">
        <ele>608.410</ele>
        <time>2019-06-16T11:35:25Z</time>
      </trkpt>
      <trkpt lat="38.684842" lon="-0.506137">
        <ele>608.462</ele>
        <time>2019-06-16T11:35:25Z</time>
      </trkpt>
      <trkpt lat="38.684798" lon="-0.506253">
        <ele>612.039</ele>
        <time>2019-06-16T11:35:28Z</time>
      </trkpt>
      <trkpt lat="38.684798" lon="-0.506253">
        <ele>612.038</ele>
        <time>2019-06-16T11:35:28Z</time>
      </trkpt>
      <trkpt lat="38.684798" lon="-0.506253">
        <ele>612.093</ele>
        <time>2019-06-16T11:35:28Z</time>
      </trkpt>
      <trkpt lat="38.684732" lon="-0.506373">
        <ele>615.675</ele>
        <time>2019-06-16T11:35:31Z</time>
      </trkpt>
      <trkpt lat="38.684732" lon="-0.506373">
        <ele>615.628</ele>
        <time>2019-06-16T11:35:31Z</time>
      </trkpt>
      <trkpt lat="38.684732" lon="-0.506373">
        <ele>615.620</ele>
        <time>2019-06-16T11:35:31Z</time>
      </trkpt>
      <trkpt lat="38.684695" lon="-0.506460">
        <ele>617.808</ele>
        <time>2019-06-16T11:35:34Z</time>
      </trkpt>
      <trkpt lat="38.684695" lon="-0.506460">
        <ele>617.830</ele>
        <time>2019-06-16T11:35:34Z</time>
      </trkpt>
      <trkpt lat="38.684695" lon="-0.506460">
        <ele>617.864</ele>
        <time>2019-06-16T11:35:34Z</time>
      </trkpt>
      <trkpt lat="38.684629" lon="-0.506601">
        <ele>621.613</ele>
        <time>2019-06-16T11:35:38Z</time>
      </trkpt>
      <trkpt lat="38.684629" lon="-0.506601">
        <ele>621.636</ele>
        <time>2019-06-16T11:35:38Z</time>
      </trkpt>
      <trkpt lat="38.684629" lon="-0.506601">
        <ele>621.688</ele>
        <time>2019-06-16T11:35:38Z</time>
      </trkpt>
      <trkpt lat="38.684629" lon="-0.506601">
        <ele>621.635</ele>
        <time>2019-06-16T11:35:38Z</time>
      </trkpt>
      <trkpt lat="38.684575" lon="-0.506693">
        <ele>624.224</ele>
        <time>2019-06-16T11:35:42Z</time>
      </trkpt>
      <trkpt lat="38.684575" lon="-0.506693">
        <ele>624.259</ele>
        <time>2019-06-16T11:35:42Z</time>
      </trkpt>
      <trkpt lat="38.684575" lon="-0.506693">
        <ele>624.273</ele>
        <time>2019-06-16T11:35:42Z</time>
      </trkpt>
      <trkpt lat="38.684575" lon="-0.506693">
        <ele>624.285</ele>
        <time>2019-06-16T11:35:42Z</time>
      </trkpt>
      <trkpt lat="38.684531" lon="-0.506781">
        <ele>626.913</ele>
        <time>2019-06-16T11:35:46Z</time>
      </trkpt>
      <trkpt lat="38.684531" lon="-0.506781">
        <ele>626.908</ele>
        <time>2019-06-16T11:35:46Z</time>
      </trkpt>
      <trkpt lat="38.684531" lon="-0.506781">
        <ele>626.920</ele>
        <time>2019-06-16T11:35:46Z</time>
      </trkpt>
      <trkpt lat="38.684531" lon="-0.506781">
        <ele>626.924</ele>
        <time>2019-06-16T11:35:46Z</time>
      </trkpt>
      <trkpt lat="38.684457" lon="-0.506895">
        <ele>630.553</ele>
        <time>2019-06-16T11:35:51Z</time>
      </trkpt>
      <trkpt lat="38.684457" lon="-0.506895">
        <ele>630.526</ele>
        <time>2019-06-16T11:35:51Z</time>
      </trkpt>
      <trkpt lat="38.684457" lon="-0.506895">
        <ele>630.538</ele>
        <time>2019-06-16T11:35:51Z</time>
      </trkpt>
      <trkpt lat="38.684457" lon="-0.506895">
        <ele>630.515</ele>
        <time>2019-06-16T11:35:51Z</time>
      </trkpt>
      <trkpt lat="38.684457" lon="-0.506895">
        <ele>630.554</ele>
        <time>2019-06-16T11:35:51Z</time>
      </trkpt>
      <trkpt lat="38.681434" lon="-0.507616">
        <ele>637.029</ele>
        <time>2019-06-16T11:37:30Z</time>
      </trkpt>
      <trkpt lat="38.681307" lon="-0.507643">
        <ele>636.355</ele>
        <time>2019-06-16T11:37:31Z</time>
      </trkpt>
      <trkpt lat="38.681250" lon="-0.507539">
        <ele>635.907</ele>
        <time>2019-06-16T11:37:34Z</time>
      </trkpt>
      <trkpt lat="38.681250" lon="-0.507539">
        <ele>635.917</ele>
        <time>2019-06-16T11:37:34Z</time>
      </trkpt>
      <trkpt lat="38.681250" lon="-0.507539">
        <ele>635.908</ele>
        <time>2019-06-16T11:37:34Z</time>
      </trkpt>
      <trkpt lat="38.681016" lon="-0.507549">
        <ele>632.238</ele>
        <time>2019-06-16T11:37:39Z</time>
      </trkpt>
      <trkpt lat="38.681016" lon="-0.507549">
        <ele>632.252</ele>
        <time>2019-06-16T11:37:39Z</time>
      </trkpt>
      <trkpt lat="38.681016" lon="-0.507549">
        <ele>632.281</ele>
        <time>2019-06-16T11:37:39Z</time>
      </trkpt>
      <trkpt lat="38.681016" lon="-0.507549">
        <ele>632.274</ele>
        <time>2019-06-16T11:37:39Z</time>
      </trkpt>
      <trkpt lat="38.681016" lon="-0.507549">
        <ele>632.236</ele>
        <time>2019-06-16T11:37:39Z</time>
      </trkpt>
      <trkpt lat="38.680842" lon="-0.507485">
        <ele>627.243</ele>
        <time>2019-06-16T11:37:44Z</time>
      </trkpt>
      <trkpt lat="38.680842" lon="-0.507485">
        <ele>627.272</ele>
        <time>2019-06-16T11:37:44Z</time>
      </trkpt>
      <trkpt lat="38.680842" lon="-0.507485">
        <ele>627.237</ele>
        <time>2019-06-16T11:37:44Z</time>
      </trkpt>
      <trkpt lat="38.680842" lon="-0.507485">
        <ele>627.262</ele>
        <time>2019-06-16T11:37:44Z</time>
      </trkpt>
      <trkpt lat="38.680842" lon="-0.507485">
        <ele>627.283</ele>
        <time>2019-06-16T11:37:44Z</time>
      </trkpt>
      <trkpt lat="38.680644" lon="-0.507300">
        <ele>620.011</ele>
        <time>2019-06-16T11:37:50Z</time>
      </trkpt>
      <trkpt lat="38.680644" lon="-0.507300">
        <ele>620.008</ele>
        <time>2019-06-16T11:37:50Z</time>
      </trkpt>
      <trkpt lat="38.680644" lon="-0.507300">
        <ele>620.019</ele>
        <time>2019-06-16T11:37:50Z</time>
      </trkpt>
      <trkpt lat="38.680644" lon="-0.507300">
        <ele>620.053</ele>
        <time>2019-06-16T11:37:50Z</time>
      </trkpt>
      <trkpt lat="38.680644" lon="-0.507300">
        <ele>620.082</ele>
        <time>2019-06-16T11:37:50Z</time>
      </trkpt>
      <trkpt lat="38.680644" lon="-0.507300">
        <ele>620.025</ele>
        <time>2019-06-16T11:37:50Z</time>
      </trkpt>
      <trkpt lat="38.680491" lon="-0.507183">
        <ele>614.777</ele>
        <time>2019-06-16T11:37:56Z</time>
      </trkpt>
      <trkpt lat="38.680491" lon="-0.507183">
        <ele>614.734</ele>
        <time>2019-06-16T11:37:56Z</time>
      </trkpt>
      <trkpt lat="38.680491" lon="-0.507183">
        <ele>614.733</ele>
        <time>2019-06-16T11:37:56Z</time>
      </trkpt>
      <trkpt lat="38.680491" lon="-0.507183">
        <ele>614.798</ele>
        <time>2019-06-16T11:37:56Z</time>
      </trkpt>
      <trkpt lat="38.680491" lon="-0.507183">
        <ele>614.721</ele>
        <time>2019-06-16T11:37:56Z</time>
      </trkpt>
      <trkpt lat="38.680491" lon="-0.507183">
        <ele>614.741</ele>
        <time>2019-06-16T11:37:56Z</time>
      </trkpt>
      <trkpt lat="38.680263" lon="-0.507068">
        <ele>609.705</ele>
        <time>2019-06-16T11:38:03Z</time>
      </trkpt>
      <trkpt lat="38.680263" lon="-0.507068">
        <ele>609.708</ele>
        <time>2019-06-16T11:38:03Z</time>
      </trkpt>
      <trkpt lat="38.680263" lon="-0.507068">
        <ele>609.785</ele>
        <time>2019-06-16T11:38:03Z</time>
      </trkpt>
      <trkpt lat="38.680263" lon="-0.507068">
        <ele>609.789</ele>
        <time>2019-06-16T11:38:03Z</time>
      </trkpt>
      <trkpt lat="38.680263" lon="-0.507068">
        <ele>609.768</ele>
        <time>2019-06-16T11:38:03Z</time>
      </trkpt>
      <trkpt lat="38.680263" lon="-0.507068">
        <ele>609.751</ele>
        <time>2019-06-16T11:38:03Z</time>
      </trkpt>
      <trkpt lat="38.680263" lon="-0.507068">
        <ele>609.733</ele>
        <time>2019-06-16T11:38:03Z</time>
      </trkpt>
      <trkpt lat="38.680061" lon="-0.506946">
        <ele>605.990</ele>
        <time>2019-06-16T11:38:11Z</time>
      </trkpt>
      <trkpt lat="38.680061" lon="-0.506946">
        <ele>605.929</ele>
        <time>2019-06-16T11:38:11Z</time>
      </trkpt>
      <trkpt lat="38.680061" lon="-0.506946">
        <ele>605.964</ele>
        <time>2019-06-16T11:38:11Z</time>
      </trkpt>
      <trkpt lat="38.680061" lon="-0.506946">
        <ele>605.925</ele>
        <time>2019-06-16T11:38:11Z</time>
      </trkpt>
      <trkpt lat="38.680061" lon="-0.506946">
        <ele>605.926</ele>
        <time>2019-06-16T11:38:11Z</time>
      </trkpt>
      <trkpt lat="38.680061" lon="-0.506946">
        <ele>605.908</ele>
        <time>2019-06-16T11:38:11Z</time>
      </trkpt>
      <trkpt lat="38.680061" lon="-0.506946">
        <ele>605.908</ele>
        <time>2019-06-16T11:38:11Z</time>
      </trkpt>
      <trkpt lat="38.680061" lon="-0.506946">
        <ele>605.915</ele>
        <time>2019-06-16T11:38:11Z</time>
      </trkpt>
      <trkpt lat="38.679800" lon="-0.506787">
        <ele>601.969</ele>
        <time>2019-06-16T11:38:19Z</time>
      </trkpt>
      <trkpt lat="38.679800" lon="-0.506787">
        <ele>601.978</ele>
        <time>2019-06-16T11:38:19Z</time>
      </trkpt>
      <trkpt lat="38.679800" lon="-0.506787">
        <ele>601.951</ele>
        <time>2019-06-16T11:38:19Z</time>
      </trkpt>
      <trkpt lat="38.679800" lon="-0.506787">
        <ele>601.963</ele>
        <time>2019-06-16T11:38:19Z</time>
      </trkpt>
      <trkpt lat="38.679800" lon="-0.506787">
        <ele>601.970</ele>
        <time>2019-06-16T11:38:19Z</time>
      </trkpt>
      <trkpt lat="38.679800" lon="-0.506787">
        <ele>601.939</ele>
        <time>2019-06-16T11:38:19Z</time>
      </trkpt>
      <trkpt lat="38.679800" lon="-0.506787">
        <ele>601.914</ele>
        <time>2019-06-16T11:38:19Z</time>
      </trkpt>
      <trkpt lat="38.679800" lon="-0.506787">
        <ele>601.991</ele>
        <time>2019-06-16T11:38:19Z</time>
      </trkpt>
      <trkpt lat="38.679571" lon="-0.506664">
        <ele>598.981</ele>
        <time>2019-06-16T11:38:28Z</time>
      </trkpt>
      <trkpt lat="38.679571" lon="-0.506664">
        <ele>598.919</ele>
        <time>2019-06-16T11:38:28Z</time>
      </trkpt>
      <trkpt lat="38.679571" lon="-0.506664">
        <ele>598.908</ele>
        <time>2019-06-16T11:38:28Z</time>
      </trkpt>
      <trkpt lat="38.679571" lon="-0.506664">
        <ele>598.982</ele>
        <time>2019-06-16T11:38:28Z</time>
      </trkpt>
      <trkpt lat="38.679571" lon="-0.506664">
        <ele>598.996</ele>
        <time>2019-06-16T11:38:28Z</time>
      </trkpt>
      <trkpt lat="38.679571" lon="-0.506664">
        <ele>598.955</ele>
        <time>2019-06-16T11:38:28Z</time>
      </trkpt>
      <trkpt lat="38.679571" lon="-0.506664">
        <ele>598.988</ele>
        <time>2019-06-16T11:38:28Z</time>
      </trkpt>
      <trkpt lat="38.679571" lon="-0.506664">
        <ele>598.920</ele>
        <time>2019-06-16T11:38:28Z</time>
      </trkpt>
      <trkpt lat="38.679571" lon="-0.506664">
        <ele>598.927</ele>
        <time>2019-06-16T11:38:28Z</time>
      </trkpt>
      <trkpt lat="38.679425" lon="-0.506556">
        <ele>597.386</ele>
        <time>2019-06-16T11:39:15Z</time>
      </trkpt>
      <trkpt lat="38.679382" lon="-0.506537">
        <ele>597.631</ele>
        <time>2019-06-16T11:39:19Z</time>
      </trkpt>
      <trkpt lat="38.679333" lon="-0.506514">
        <ele>598.087</ele>
        <time>2019-06-16T11:39:21Z</time>
      </trkpt>
      <trkpt lat="38.679273" lon="-0.506484">
        <ele>598.742</ele>
        <time>2019-06-16T11:39:23Z</time>
      </trkpt>
      <trkpt lat="38.679229" lon="-0.506466">
        <ele>599.426</ele>
        <time>2019-06-16T11:39:24Z</time>
      </trkpt>
      <trkpt lat="38.679156" lon="-0.506439">
        <ele>600.808</ele>
        <time>2019-06-16T11:39:26Z</time>
      </trkpt>
      <trkpt lat="38.679084" lon="-0.506401">
        <ele>603.571</ele>
        <time>2019-06-16T11:39:28Z</time>
      </trkpt>
      <trkpt lat="38.679035" lon="-0.506365">
        <ele>605.465</ele>
        <time>2019-06-16T11:39:30Z</time>
      </trkpt>
      <trkpt lat="38.678982" lon="-0.506327">
        <ele>607.234</ele>
        <time>2019-06-16T11:39:32Z</time>
      </trkpt>
      <trkpt lat="38.678902" lon="-0.506261">
        <ele>610.047</ele>
        <time>2019-06-16T11:39:33Z</time>
      </trkpt>
      <trkpt lat="38.678852" lon="-0.506229">
        <ele>612.349</ele>
        <time>2019-06-16T11:39:34Z</time>
      </trkpt>
      <trkpt lat="38.678814" lon="-0.506182">
        <ele>614.356</ele>
        <time>2019-06-16T11:39:35Z</time>
      </trkpt>
      <trkpt lat="38.678762" lon="-0.506155">
        <ele>617.075</ele>
        <time>2019-06-16T11:39:38Z</time>
      </trkpt>
      <trkpt lat="38.678713" lon="-0.506142">
        <ele>619.550</ele>
        <time>2019-06-16T11:39:40Z</time>
      </trkpt>
      <trkpt lat="38.678660" lon="-0.506121">
        <ele>622.423</ele>
        <time>2019-06-16T11:39:42Z</time>
      </trkpt>
      <trkpt lat="38.678612" lon="-0.506106">
        <ele>624.983</ele>
        <time>2019-06-16T11:39:44Z</time>
      </trkpt>
      <trkpt lat="38.678544" lon="-0.506080">
        <ele>626.211</ele>
        <time>2019-06-16T11:39:47Z</time>
      </trkpt>
      <trkpt lat="38.678448" lon="-0.506038">
        <ele>628.008</ele>
        <time>2019-06-16T11:39:48Z</time>
      </trkpt>
      <trkpt lat="38.678403" lon="-0.506008">
        <ele>628.865</ele>
        <time>2019-06-16T11:39:50Z</time>
      </trkpt>
      <trkpt lat="38.678315" lon="-0.505953">
        <ele>630.159</ele>
        <time>2019-06-16T11:39:52Z</time>
      </trkpt>
      <trkpt lat="38.678262" lon="-0.505921">
        <ele>630.438</ele>
        <time>2019-06-16T11:39:54Z</time>
      </trkpt>
      <trkpt lat="38.678215" lon="-0.505899">
        <ele>630.851</ele>
        <time>2019-06-16T11:39:57Z</time>
      </trkpt>
      <trkpt lat="38.678170" lon="-0.505870">
        <ele>631.093</ele>
        <time>2019-06-16T11:39:59Z</time>
      </trkpt>
      <trkpt lat="38.678108" lon="-0.505826">
        <ele>631.490</ele>
        <time>2019-06-16T11:40:01Z</time>
      </trkpt>
      <trkpt lat="38.678051" lon="-0.505780">
        <ele>631.979</ele>
        <time>2019-06-16T11:40:03Z</time>
      </trkpt>
      <trkpt lat="38.678000" lon="-0.505728">
        <ele>632.584</ele>
        <time>2019-06-16T11:40:05Z</time>
      </trkpt>
      <trkpt lat="38.677956" lon="-0.505676">
        <ele>633.393</ele>
        <time>2019-06-16T11:40:07Z</time>
      </trkpt>
      <trkpt lat="38.677915" lon="-0.505626">
        <ele>634.365</ele>
        <time>2019-06-16T11:40:09Z</time>
      </trkpt>
      <trkpt lat="38.677865" lon="-0.505575">
        <ele>635.721</ele>
        <time>2019-06-16T11:40:11Z</time>
      </trkpt>
      <trkpt lat="38.677808" lon="-0.505529">
        <ele>637.208</ele>
        <time>2019-06-16T11:40:13Z</time>
      </trkpt>
      <trkpt lat="38.677753" lon="-0.505492">
        <ele>637.782</ele>
        <time>2019-06-16T11:40:15Z</time>
      </trkpt>
      <trkpt lat="38.677691" lon="-0.505444">
        <ele>637.446</ele>
        <time>2019-06-16T11:40:17Z</time>
      </trkpt>
      <trkpt lat="38.677603" lon="-0.505363">
        <ele>637.155</ele>
        <time>2019-06-16T11:40:18Z</time>
      </trkpt>
      <trkpt lat="38.677568" lon="-0.505319">
        <ele>637.078</ele>
        <time>2019-06-16T11:40:20Z</time>
      </trkpt>
      <trkpt lat="38.677526" lon="-0.505263">
        <ele>636.830</ele>
        <time>2019-06-16T11:40:22Z</time>
      </trkpt>
      <trkpt lat="38.677485" lon="-0.505199">
        <ele>636.157</ele>
        <time>2019-06-16T11:40:24Z</time>
      </trkpt>
      <trkpt lat="38.677447" lon="-0.505133">
        <ele>635.226</ele>
        <time>2019-06-16T11:40:26Z</time>
      </trkpt>
      <trkpt lat="38.677413" lon="-0.505066">
        <ele>634.481</ele>
        <time>2019-06-16T11:40:28Z</time>
      </trkpt>
      <trkpt lat="38.677364" lon="-0.504965">
        <ele>632.919</ele>
        <time>2019-06-16T11:40:29Z</time>
      </trkpt>
      <trkpt lat="38.677318" lon="-0.504883">
        <ele>631.409</ele>
        <time>2019-06-16T11:40:31Z</time>
      </trkpt>
      <trkpt lat="38.677273" lon="-0.504802">
        <ele>630.119</ele>
        <time>2019-06-16T11:40:33Z</time>
      </trkpt>
      <trkpt lat="38.677244" lon="-0.504757">
        <ele>629.408</ele>
        <time>2019-06-16T11:40:34Z</time>
      </trkpt>
      <trkpt lat="38.677223" lon="-0.504689">
        <ele>628.964</ele>
        <time>2019-06-16T11:40:37Z</time>
      </trkpt>
      <trkpt lat="38.677206" lon="-0.504633">
        <ele>628.918</ele>
        <time>2019-06-16T11:40:39Z</time>
      </trkpt>
      <trkpt lat="38.677182" lon="-0.504566">
        <ele>629.037</ele>
        <time>2019-06-16T11:40:41Z</time>
      </trkpt>
      <trkpt lat="38.677164" lon="-0.504503">
        <ele>628.970</ele>
        <time>2019-06-16T11:40:43Z</time>
      </trkpt>
      <trkpt lat="38.677144" lon="-0.504419">
        <ele>628.982</ele>
        <time>2019-06-16T11:40:45Z</time>
      </trkpt>
      <trkpt lat="38.677126" lon="-0.504334">
        <ele>629.419</ele>
        <time>2019-06-16T11:40:47Z</time>
      </trkpt>
      <trkpt lat="38.677109" lon="-0.504261">
        <ele>629.928</ele>
        <time>2019-06-16T11:40:49Z</time>
      </trkpt>
      <trkpt lat="38.677089" lon="-0.504201">
        <ele>630.343</ele>
        <time>2019-06-16T11:40:52Z</time>
      </trkpt>
      <trkpt lat="38.677080" lon="-0.504142">
        <ele>630.681</ele>
        <time>2019-06-16T11:40:56Z</time>
      </trkpt>
      <trkpt lat="38.677043" lon="-0.503947">
        <ele>631.761</ele>
        <time>2019-06-16T11:41:03Z</time>
      </trkpt>
      <trkpt lat="38.677018" lon="-0.503846">
        <ele>631.817</ele>
        <time>2019-06-16T11:41:04Z</time>
      </trkpt>
      <trkpt lat="38.676994" lon="-0.503758">
        <ele>631.108</ele>
        <time>2019-06-16T11:41:05Z</time>
      </trkpt>
      <trkpt lat="38.676979" lon="-0.503694">
        <ele>630.641</ele>
        <time>2019-06-16T11:41:06Z</time>
      </trkpt>
      <trkpt lat="38.676950" lon="-0.503591">
        <ele>629.715</ele>
        <time>2019-06-16T11:41:08Z</time>
      </trkpt>
      <trkpt lat="38.676933" lon="-0.503519">
        <ele>629.434</ele>
        <time>2019-06-16T11:41:10Z</time>
      </trkpt>
      <trkpt lat="38.676920" lon="-0.503454">
        <ele>629.317</ele>
        <time>2019-06-16T11:41:12Z</time>
      </trkpt>
      <trkpt lat="38.676898" lon="-0.503312">
        <ele>629.829</ele>
        <time>2019-06-16T11:41:14Z</time>
      </trkpt>
      <trkpt lat="38.676869" lon="-0.503240">
        <ele>632.966</ele>
        <time>2019-06-16T11:41:17Z</time>
      </trkpt>
      <trkpt lat="38.676869" lon="-0.503146">
        <ele>635.045</ele>
        <time>2019-06-16T11:41:20Z</time>
      </trkpt>
      <trkpt lat="38.676882" lon="-0.503079">
        <ele>635.990</ele>
        <time>2019-06-16T11:41:22Z</time>
      </trkpt>
      <trkpt lat="38.676895" lon="-0.503019">
        <ele>637.081</ele>
        <time>2019-06-16T11:41:24Z</time>
      </trkpt>
      <trkpt lat="38.676888" lon="-0.502937">
        <ele>639.561</ele>
        <time>2019-06-16T11:41:26Z</time>
      </trkpt>
      <trkpt lat="38.676891" lon="-0.502844">
        <ele>641.917</ele>
        <time>2019-06-16T11:41:28Z</time>
      </trkpt>
      <trkpt lat="38.676892" lon="-0.502783">
        <ele>643.608</ele>
        <time>2019-06-16T11:41:30Z</time>
      </trkpt>
      <trkpt lat="38.676889" lon="-0.502703">
        <ele>644.711</ele>
        <time>2019-06-16T11:41:32Z</time>
      </trkpt>
      <trkpt lat="38.676885" lon="-0.502618">
        <ele>645.825</ele>
        <time>2019-06-16T11:41:34Z</time>
      </trkpt>
      <trkpt lat="38.676881" lon="-0.502537">
        <ele>646.924</ele>
        <time>2019-06-16T11:41:36Z</time>
      </trkpt>
      <trkpt lat="38.676875" lon="-0.502461">
        <ele>648.097</ele>
        <time>2019-06-16T11:41:38Z</time>
      </trkpt>
      <trkpt lat="38.676865" lon="-0.502398">
        <ele>649.269</ele>
        <time>2019-06-16T11:41:40Z</time>
      </trkpt>
      <trkpt lat="38.676854" lon="-0.502332">
        <ele>650.586</ele>
        <time>2019-06-16T11:41:42Z</time>
      </trkpt>
      <trkpt lat="38.676846" lon="-0.502260">
        <ele>651.755</ele>
        <time>2019-06-16T11:41:45Z</time>
      </trkpt>
      <trkpt lat="38.676855" lon="-0.502199">
        <ele>652.030</ele>
        <time>2019-06-16T11:41:47Z</time>
      </trkpt>
      <trkpt lat="38.676871" lon="-0.502101">
        <ele>652.297</ele>
        <time>2019-06-16T11:42:00Z</time>
      </trkpt>
      <trkpt lat="38.676877" lon="-0.500985">
        <ele>650.623</ele>
        <time>2019-06-16T11:42:20Z</time>
      </trkpt>
      <trkpt lat="38.676837" lon="-0.500856">
        <ele>649.725</ele>
        <time>2019-06-16T11:42:21Z</time>
      </trkpt>
      <trkpt lat="38.676785" lon="-0.500822">
        <ele>649.408</ele>
        <time>2019-06-16T11:42:22Z</time>
      </trkpt>
      <trkpt lat="38.676785" lon="-0.500822">
        <ele>649.492</ele>
        <time>2019-06-16T11:42:22Z</time>
      </trkpt>
      <trkpt lat="38.676855" lon="-0.500609">
        <ele>649.716</ele>
        <time>2019-06-16T11:42:24Z</time>
      </trkpt>
      <trkpt lat="38.676855" lon="-0.500609">
        <ele>649.765</ele>
        <time>2019-06-16T11:42:24Z</time>
      </trkpt>
      <trkpt lat="38.676882" lon="-0.500446">
        <ele>649.498</ele>
        <time>2019-06-16T11:42:27Z</time>
      </trkpt>
      <trkpt lat="38.676882" lon="-0.500446">
        <ele>649.450</ele>
        <time>2019-06-16T11:42:27Z</time>
      </trkpt>
      <trkpt lat="38.676882" lon="-0.500446">
        <ele>649.417</ele>
        <time>2019-06-16T11:42:27Z</time>
      </trkpt>
      <trkpt lat="38.676896" lon="-0.500336">
        <ele>649.076</ele>
        <time>2019-06-16T11:42:30Z</time>
      </trkpt>
      <trkpt lat="38.676896" lon="-0.500336">
        <ele>649.021</ele>
        <time>2019-06-16T11:42:30Z</time>
      </trkpt>
      <trkpt lat="38.676896" lon="-0.500336">
        <ele>649.022</ele>
        <time>2019-06-16T11:42:30Z</time>
      </trkpt>
      <trkpt lat="38.676897" lon="-0.500209">
        <ele>648.162</ele>
        <time>2019-06-16T11:42:33Z</time>
      </trkpt>
      <trkpt lat="38.676897" lon="-0.500209">
        <ele>648.108</ele>
        <time>2019-06-16T11:42:33Z</time>
      </trkpt>
      <trkpt lat="38.676897" lon="-0.500209">
        <ele>648.108</ele>
        <time>2019-06-16T11:42:33Z</time>
      </trkpt>
      <trkpt lat="38.676921" lon="-0.499974">
        <ele>645.955</ele>
        <time>2019-06-16T11:42:37Z</time>
      </trkpt>
      <trkpt lat="38.676921" lon="-0.499974">
        <ele>645.959</ele>
        <time>2019-06-16T11:42:37Z</time>
      </trkpt>
      <trkpt lat="38.676921" lon="-0.499974">
        <ele>645.998</ele>
        <time>2019-06-16T11:42:37Z</time>
      </trkpt>
      <trkpt lat="38.676921" lon="-0.499974">
        <ele>645.931</ele>
        <time>2019-06-16T11:42:37Z</time>
      </trkpt>
      <trkpt lat="38.676938" lon="-0.499878">
        <ele>645.633</ele>
        <time>2019-06-16T11:42:41Z</time>
      </trkpt>
      <trkpt lat="38.676938" lon="-0.499878">
        <ele>645.660</ele>
        <time>2019-06-16T11:42:41Z</time>
      </trkpt>
      <trkpt lat="38.676938" lon="-0.499878">
        <ele>645.649</ele>
        <time>2019-06-16T11:42:41Z</time>
      </trkpt>
      <trkpt lat="38.676938" lon="-0.499878">
        <ele>645.674</ele>
        <time>2019-06-16T11:42:41Z</time>
      </trkpt>
      <trkpt lat="38.676903" lon="-0.499743">
        <ele>644.934</ele>
        <time>2019-06-16T11:42:46Z</time>
      </trkpt>
      <trkpt lat="38.676903" lon="-0.499743">
        <ele>644.955</ele>
        <time>2019-06-16T11:42:46Z</time>
      </trkpt>
      <trkpt lat="38.676903" lon="-0.499743">
        <ele>644.910</ele>
        <time>2019-06-16T11:42:46Z</time>
      </trkpt>
      <trkpt lat="38.676903" lon="-0.499743">
        <ele>644.908</ele>
        <time>2019-06-16T11:42:46Z</time>
      </trkpt>
      <trkpt lat="38.676903" lon="-0.499743">
        <ele>644.916</ele>
        <time>2019-06-16T11:42:46Z</time>
      </trkpt>
      <trkpt lat="38.676893" lon="-0.499549">
        <ele>645.840</ele>
        <time>2019-06-16T11:42:51Z</time>
      </trkpt>
      <trkpt lat="38.676893" lon="-0.499549">
        <ele>645.819</ele>
        <time>2019-06-16T11:42:51Z</time>
      </trkpt>
      <trkpt lat="38.676893" lon="-0.499549">
        <ele>645.812</ele>
        <time>2019-06-16T11:42:51Z</time>
      </trkpt>
      <trkpt lat="38.676893" lon="-0.499549">
        <ele>645.894</ele>
        <time>2019-06-16T11:42:51Z</time>
      </trkpt>
      <trkpt lat="38.676893" lon="-0.499549">
        <ele>645.861</ele>
        <time>2019-06-16T11:42:51Z</time>
      </trkpt>
      <trkpt lat="38.676903" lon="-0.499339">
        <ele>648.720</ele>
        <time>2019-06-16T11:42:57Z</time>
      </trkpt>
      <trkpt lat="38.676903" lon="-0.499339">
        <ele>648.745</ele>
        <time>2019-06-16T11:42:57Z</time>
      </trkpt>
      <trkpt lat="38.676903" lon="-0.499339">
        <ele>648.746</ele>
        <time>2019-06-16T11:42:57Z</time>
      </trkpt>
      <trkpt lat="38.676903" lon="-0.499339">
        <ele>648.788</ele>
        <time>2019-06-16T11:42:57Z</time>
      </trkpt>
      <trkpt lat="38.676903" lon="-0.499339">
        <ele>648.716</ele>
        <time>2019-06-16T11:42:57Z</time>
      </trkpt>
      <trkpt lat="38.676903" lon="-0.499339">
        <ele>648.708</ele>
        <time>2019-06-16T11:42:57Z</time>
      </trkpt>
      <trkpt lat="38.676900" lon="-0.499150">
        <ele>653.097</ele>
        <time>2019-06-16T11:43:03Z</time>
      </trkpt>
      <trkpt lat="38.676900" lon="-0.499150">
        <ele>653.051</ele>
        <time>2019-06-16T11:43:03Z</time>
      </trkpt>
      <trkpt lat="38.676900" lon="-0.499150">
        <ele>653.090</ele>
        <time>2019-06-16T11:43:03Z</time>
      </trkpt>
      <trkpt lat="38.676900" lon="-0.499150">
        <ele>653.023</ele>
        <time>2019-06-16T11:43:03Z</time>
      </trkpt>
      <trkpt lat="38.676900" lon="-0.499150">
        <ele>653.075</ele>
        <time>2019-06-16T11:43:03Z</time>
      </trkpt>
      <trkpt lat="38.676900" lon="-0.499150">
        <ele>653.022</ele>
        <time>2019-06-16T11:43:03Z</time>
      </trkpt>
      <trkpt lat="38.676893" lon="-0.499083">
        <ele>654.391</ele>
        <time>2019-06-16T11:43:17Z</time>
      </trkpt>
      <trkpt lat="38.676555" lon="-0.496698">
        <ele>668.456</ele>
        <time>2019-06-16T11:44:07Z</time>
      </trkpt>
      <trkpt lat="38.676860" lon="-0.496493">
        <ele>658.494</ele>
        <time>2019-06-16T11:44:08Z</time>
      </trkpt>
      <trkpt lat="38.676874" lon="-0.496353">
        <ele>656.057</ele>
        <time>2019-06-16T11:44:11Z</time>
      </trkpt>
      <trkpt lat="38.676874" lon="-0.496353">
        <ele>656.022</ele>
        <time>2019-06-16T11:44:11Z</time>
      </trkpt>
      <trkpt lat="38.676874" lon="-0.496353">
        <ele>656.008</ele>
        <time>2019-06-16T11:44:11Z</time>
      </trkpt>
      <trkpt lat="38.676896" lon="-0.496044">
        <ele>652.942</ele>
        <time>2019-06-16T11:44:16Z</time>
      </trkpt>
      <trkpt lat="38.676896" lon="-0.496044">
        <ele>652.916</ele>
        <time>2019-06-16T11:44:16Z</time>
      </trkpt>
      <trkpt lat="38.676896" lon="-0.496044">
        <ele>652.945</ele>
        <time>2019-06-16T11:44:16Z</time>
      </trkpt>
      <trkpt lat="38.676896" lon="-0.496044">
        <ele>652.938</ele>
        <time>2019-06-16T11:44:16Z</time>
      </trkpt>
      <trkpt lat="38.676896" lon="-0.496044">
        <ele>652.940</ele>
        <time>2019-06-16T11:44:16Z</time>
      </trkpt>
      <trkpt lat="38.677052" lon="-0.495861">
        <ele>647.287</ele>
        <time>2019-06-16T11:44:21Z</time>
      </trkpt>
      <trkpt lat="38.677052" lon="-0.495861">
        <ele>647.246</ele>
        <time>2019-06-16T11:44:21Z</time>
      </trkpt>
      <trkpt lat="38.677052" lon="-0.495861">
        <ele>647.291</ele>
        <time>2019-06-16T11:44:21Z</time>
      </trkpt>
      <trkpt lat="38.677052" lon="-0.495861">
        <ele>647.289</ele>
        <time>2019-06-16T11:44:21Z</time>
      </trkpt>
      <trkpt lat="38.677052" lon="-0.495861">
        <ele>647.206</ele>
        <time>2019-06-16T11:44:21Z</time>
      </trkpt>
      <trkpt lat="38.677132" lon="-0.495548">
        <ele>643.626</ele>
        <time>2019-06-16T11:44:27Z</time>
      </trkpt>
      <trkpt lat="38.677132" lon="-0.495548">
        <ele>643.608</ele>
        <time>2019-06-16T11:44:27Z</time>
      </trkpt>
      <trkpt lat="38.677132" lon="-0.495548">
        <ele>643.651</ele>
        <time>2019-06-16T11:44:27Z</time>
      </trkpt>
      <trkpt lat="38.677132" lon="-0.495548">
        <ele>643.665</ele>
        <time>2019-06-16T11:44:27Z</time>
      </trkpt>
      <trkpt lat="38.677132" lon="-0.495548">
        <ele>643.654</ele>
        <time>2019-06-16T11:44:27Z</time>
      </trkpt>
      <trkpt lat="38.677132" lon="-0.495548">
        <ele>643.687</ele>
        <time>2019-06-16T11:44:27Z</time>
      </trkpt>
      <trkpt lat="38.677197" lon="-0.495300">
        <ele>645.019</ele>
        <time>2019-06-16T11:44:33Z</time>
      </trkpt>
      <trkpt lat="38.677197" lon="-0.495300">
        <ele>645.036</ele>
        <time>2019-06-16T11:44:33Z</time>
      </trkpt>
      <trkpt lat="38.677197" lon="-0.495300">
        <ele>645.035</ele>
        <time>2019-06-16T11:44:33Z</time>
      </trkpt>
      <trkpt lat="38.677197" lon="-0.495300">
        <ele>645.090</ele>
        <time>2019-06-16T11:44:33Z</time>
      </trkpt>
      <trkpt lat="38.677197" lon="-0.495300">
        <ele>645.089</ele>
        <time>2019-06-16T11:44:33Z</time>
      </trkpt>
      <trkpt lat="38.677197" lon="-0.495300">
        <ele>645.006</ele>
        <time>2019-06-16T11:44:33Z</time>
      </trkpt>
      <trkpt lat="38.677278" lon="-0.494959">
        <ele>649.626</ele>
        <time>2019-06-16T11:44:40Z</time>
      </trkpt>
      <trkpt lat="38.677278" lon="-0.494959">
        <ele>649.608</ele>
        <time>2019-06-16T11:44:40Z</time>
      </trkpt>
      <trkpt lat="38.677278" lon="-0.494959">
        <ele>649.611</ele>
        <time>2019-06-16T11:44:40Z</time>
      </trkpt>
      <trkpt lat="38.677278" lon="-0.494959">
        <ele>649.655</ele>
        <time>2019-06-16T11:44:40Z</time>
      </trkpt>
      <trkpt lat="38.677278" lon="-0.494959">
        <ele>649.644</ele>
        <time>2019-06-16T11:44:40Z</time>
      </trkpt>
      <trkpt lat="38.677278" lon="-0.494959">
        <ele>649.687</ele>
        <time>2019-06-16T11:44:40Z</time>
      </trkpt>
      <trkpt lat="38.677278" lon="-0.494959">
        <ele>649.629</ele>
        <time>2019-06-16T11:44:40Z</time>
      </trkpt>
      <trkpt lat="38.677336" lon="-0.494650">
        <ele>655.576</ele>
        <time>2019-06-16T11:44:48Z</time>
      </trkpt>
      <trkpt lat="38.677336" lon="-0.494650">
        <ele>655.565</ele>
        <time>2019-06-16T11:44:48Z</time>
      </trkpt>
      <trkpt lat="38.677336" lon="-0.494650">
        <ele>655.560</ele>
        <time>2019-06-16T11:44:48Z</time>
      </trkpt>
      <trkpt lat="38.677336" lon="-0.494650">
        <ele>655.582</ele>
        <time>2019-06-16T11:44:48Z</time>
      </trkpt>
      <trkpt lat="38.677336" lon="-0.494650">
        <ele>655.543</ele>
        <time>2019-06-16T11:44:48Z</time>
      </trkpt>
      <trkpt lat="38.677336" lon="-0.494650">
        <ele>655.517</ele>
        <time>2019-06-16T11:44:48Z</time>
      </trkpt>
      <trkpt lat="38.677336" lon="-0.494650">
        <ele>655.508</ele>
        <time>2019-06-16T11:44:48Z</time>
      </trkpt>
      <trkpt lat="38.677336" lon="-0.494650">
        <ele>655.531</ele>
        <time>2019-06-16T11:44:48Z</time>
      </trkpt>
      <trkpt lat="38.677391" lon="-0.494341">
        <ele>661.595</ele>
        <time>2019-06-16T11:44:56Z</time>
      </trkpt>
      <trkpt lat="38.677391" lon="-0.494341">
        <ele>661.594</ele>
        <time>2019-06-16T11:44:56Z</time>
      </trkpt>
      <trkpt lat="38.677391" lon="-0.494341">
        <ele>661.527</ele>
        <time>2019-06-16T11:44:56Z</time>
      </trkpt>
      <trkpt lat="38.677391" lon="-0.494341">
        <ele>661.549</ele>
        <time>2019-06-16T11:44:56Z</time>
      </trkpt>
      <trkpt lat="38.677391" lon="-0.494341">
        <ele>661.526</ele>
        <time>2019-06-16T11:44:56Z</time>
      </trkpt>
      <trkpt lat="38.677391" lon="-0.494341">
        <ele>661.595</ele>
        <time>2019-06-16T11:44:56Z</time>
      </trkpt>
      <trkpt lat="38.677391" lon="-0.494341">
        <ele>661.550</ele>
        <time>2019-06-16T11:44:56Z</time>
      </trkpt>
      <trkpt lat="38.677391" lon="-0.494341">
        <ele>661.548</ele>
        <time>2019-06-16T11:44:56Z</time>
      </trkpt>
      <trkpt lat="38.677433" lon="-0.494163">
        <ele>664.361</ele>
        <time>2019-06-16T11:45:03Z</time>
      </trkpt>
      <trkpt lat="38.677433" lon="-0.494163">
        <ele>664.317</ele>
        <time>2019-06-16T11:45:03Z</time>
      </trkpt>
      <trkpt lat="38.677433" lon="-0.494163">
        <ele>664.308</ele>
        <time>2019-06-16T11:45:03Z</time>
      </trkpt>
      <trkpt lat="38.677433" lon="-0.494163">
        <ele>664.347</ele>
        <time>2019-06-16T11:45:03Z</time>
      </trkpt>
      <trkpt lat="38.677433" lon="-0.494163">
        <ele>664.381</ele>
        <time>2019-06-16T11:45:03Z</time>
      </trkpt>
      <trkpt lat="38.677433" lon="-0.494163">
        <ele>664.360</ele>
        <time>2019-06-16T11:45:03Z</time>
      </trkpt>
      <trkpt lat="38.677433" lon="-0.494163">
        <ele>664.313</ele>
        <time>2019-06-16T11:45:03Z</time>
      </trkpt>
      <trkpt lat="38.677463" lon="-0.494108">
        <ele>664.655</ele>
        <time>2019-06-16T11:45:16Z</time>
      </trkpt>
      <trkpt lat="38.677633" lon="-0.492937">
        <ele>660.942</ele>
        <time>2019-06-16T11:45:29Z</time>
      </trkpt>
      <trkpt lat="38.677658" lon="-0.492856">
        <ele>660.381</ele>
        <time>2019-06-16T11:45:30Z</time>
      </trkpt>
      <trkpt lat="38.677728" lon="-0.492881">
        <ele>659.246</ele>
        <time>2019-06-16T11:45:31Z</time>
      </trkpt>
      <trkpt lat="38.677745" lon="-0.492755">
        <ele>658.622</ele>
        <time>2019-06-16T11:45:38Z</time>
      </trkpt>
      <trkpt lat="38.677805" lon="-0.492608">
        <ele>658.262</ele>
        <time>2019-06-16T11:45:39Z</time>
      </trkpt>
      <trkpt lat="38.677804" lon="-0.492520">
        <ele>658.208</ele>
        <time>2019-06-16T11:45:40Z</time>
      </trkpt>
      <trkpt lat="38.677853" lon="-0.492451">
        <ele>658.608</ele>
        <time>2019-06-16T11:45:42Z</time>
      </trkpt>
      <trkpt lat="38.677884" lon="-0.492366">
        <ele>658.965</ele>
        <time>2019-06-16T11:45:44Z</time>
      </trkpt>
      <trkpt lat="38.677909" lon="-0.492285">
        <ele>659.349</ele>
        <time>2019-06-16T11:45:46Z</time>
      </trkpt>
      <trkpt lat="38.677953" lon="-0.492179">
        <ele>660.458</ele>
        <time>2019-06-16T11:45:47Z</time>
      </trkpt>
      <trkpt lat="38.678010" lon="-0.492166">
        <ele>660.971</ele>
        <time>2019-06-16T11:45:48Z</time>
      </trkpt>
      <trkpt lat="38.678045" lon="-0.492113">
        <ele>661.443</ele>
        <time>2019-06-16T11:45:49Z</time>
      </trkpt>
      <trkpt lat="38.678003" lon="-0.492054">
        <ele>661.720</ele>
        <time>2019-06-16T11:45:51Z</time>
      </trkpt>
      <trkpt lat="38.677983" lon="-0.491988">
        <ele>662.499</ele>
        <time>2019-06-16T11:45:53Z</time>
      </trkpt>
      <trkpt lat="38.677989" lon="-0.491904">
        <ele>663.834</ele>
        <time>2019-06-16T11:45:55Z</time>
      </trkpt>
      <trkpt lat="38.677993" lon="-0.491832">
        <ele>665.848</ele>
        <time>2019-06-16T11:45:57Z</time>
      </trkpt>
      <trkpt lat="38.678019" lon="-0.491676">
        <ele>670.061</ele>
        <time>2019-06-16T11:45:59Z</time>
      </trkpt>
      <trkpt lat="38.678030" lon="-0.491582">
        <ele>672.017</ele>
        <time>2019-06-16T11:46:01Z</time>
      </trkpt>
      <trkpt lat="38.678060" lon="-0.491537">
        <ele>672.708</ele>
        <time>2019-06-16T11:46:02Z</time>
      </trkpt>
      <trkpt lat="38.678098" lon="-0.491493">
        <ele>672.567</ele>
        <time>2019-06-16T11:46:03Z</time>
      </trkpt>
      <trkpt lat="38.678135" lon="-0.491418">
        <ele>672.661</ele>
        <time>2019-06-16T11:46:06Z</time>
      </trkpt>
      <trkpt lat="38.678149" lon="-0.491306">
        <ele>672.790</ele>
        <time>2019-06-16T11:46:08Z</time>
      </trkpt>
      <trkpt lat="38.678158" lon="-0.491243">
        <ele>672.573</ele>
        <time>2019-06-16T11:46:10Z</time>
      </trkpt>
      <trkpt lat="38.678174" lon="-0.491174">
        <ele>671.925</ele>
        <time>2019-06-16T11:46:11Z</time>
      </trkpt>
      <trkpt lat="38.678200" lon="-0.491085">
        <ele>670.662</ele>
        <time>2019-06-16T11:46:13Z</time>
      </trkpt>
      <trkpt lat="38.678218" lon="-0.491013">
        <ele>669.361</ele>
        <time>2019-06-16T11:46:15Z</time>
      </trkpt>
      <trkpt lat="38.678232" lon="-0.490947">
        <ele>668.226</ele>
        <time>2019-06-16T11:46:16Z</time>
      </trkpt>
      <trkpt lat="38.678261" lon="-0.490850">
        <ele>666.272</ele>
        <time>2019-06-16T11:46:18Z</time>
      </trkpt>
      <trkpt lat="38.678275" lon="-0.490744">
        <ele>664.913</ele>
        <time>2019-06-16T11:46:20Z</time>
      </trkpt>
      <trkpt lat="38.678274" lon="-0.490642">
        <ele>664.114</ele>
        <time>2019-06-16T11:46:22Z</time>
      </trkpt>
      <trkpt lat="38.678271" lon="-0.490528">
        <ele>663.508</ele>
        <time>2019-06-16T11:46:24Z</time>
      </trkpt>
      <trkpt lat="38.678216" lon="-0.490433">
        <ele>664.460</ele>
        <time>2019-06-16T11:46:25Z</time>
      </trkpt>
      <trkpt lat="38.678190" lon="-0.490323">
        <ele>664.374</ele>
        <time>2019-06-16T11:46:27Z</time>
      </trkpt>
      <trkpt lat="38.678345" lon="-0.490187">
        <ele>662.563</ele>
        <time>2019-06-16T11:46:30Z</time>
      </trkpt>
      <trkpt lat="38.678369" lon="-0.490073">
        <ele>662.946</ele>
        <time>2019-06-16T11:46:32Z</time>
      </trkpt>
      <trkpt lat="38.678356" lon="-0.489985">
        <ele>664.078</ele>
        <time>2019-06-16T11:46:33Z</time>
      </trkpt>
      <trkpt lat="38.678373" lon="-0.489890">
        <ele>666.295</ele>
        <time>2019-06-16T11:46:35Z</time>
      </trkpt>
      <trkpt lat="38.678410" lon="-0.489821">
        <ele>666.914</ele>
        <time>2019-06-16T11:46:37Z</time>
      </trkpt>
      <trkpt lat="38.678460" lon="-0.489771">
        <ele>666.499</ele>
        <time>2019-06-16T11:46:38Z</time>
      </trkpt>
      <trkpt lat="38.678460" lon="-0.489673">
        <ele>668.653</ele>
        <time>2019-06-16T11:46:40Z</time>
      </trkpt>
      <trkpt lat="38.678455" lon="-0.489597">
        <ele>670.504</ele>
        <time>2019-06-16T11:46:43Z</time>
      </trkpt>
      <trkpt lat="38.678469" lon="-0.489525">
        <ele>671.414</ele>
        <time>2019-06-16T11:46:45Z</time>
      </trkpt>
      <trkpt lat="38.678487" lon="-0.489454">
        <ele>671.908</ele>
        <time>2019-06-16T11:46:47Z</time>
      </trkpt>
      <trkpt lat="38.678476" lon="-0.489265">
        <ele>672.888</ele>
        <time>2019-06-16T11:46:49Z</time>
      </trkpt>
      <trkpt lat="38.678493" lon="-0.489176">
        <ele>671.922</ele>
        <time>2019-06-16T11:46:51Z</time>
      </trkpt>
      <trkpt lat="38.678490" lon="-0.489088">
        <ele>671.391</ele>
        <time>2019-06-16T11:46:53Z</time>
      </trkpt>
      <trkpt lat="38.678478" lon="-0.489030">
        <ele>671.354</ele>
        <time>2019-06-16T11:46:54Z</time>
      </trkpt>
      <trkpt lat="38.678437" lon="-0.488973">
        <ele>672.536</ele>
        <time>2019-06-16T11:46:55Z</time>
      </trkpt>
      <trkpt lat="38.678439" lon="-0.488912">
        <ele>671.753</ele>
        <time>2019-06-16T11:46:57Z</time>
      </trkpt>
      <trkpt lat="38.678438" lon="-0.488840">
        <ele>671.112</ele>
        <time>2019-06-16T11:46:59Z</time>
      </trkpt>
      <trkpt lat="38.678448" lon="-0.488762">
        <ele>670.117</ele>
        <time>2019-06-16T11:47:01Z</time>
      </trkpt>
      <trkpt lat="38.678463" lon="-0.488689">
        <ele>669.076</ele>
        <time>2019-06-16T11:47:03Z</time>
      </trkpt>
      <trkpt lat="38.678470" lon="-0.488623">
        <ele>668.290</ele>
        <time>2019-06-16T11:47:05Z</time>
      </trkpt>
      <trkpt lat="38.678464" lon="-0.488546">
        <ele>668.219</ele>
        <time>2019-06-16T11:47:07Z</time>
      </trkpt>
      <trkpt lat="38.678456" lon="-0.488391">
        <ele>668.108</ele>
        <time>2019-06-16T11:47:08Z</time>
      </trkpt>
      <trkpt lat="38.678519" lon="-0.488274">
        <ele>666.530</ele>
        <time>2019-06-16T11:47:10Z</time>
      </trkpt>
      <trkpt lat="38.678494" lon="-0.488185">
        <ele>667.234</ele>
        <time>2019-06-16T11:47:12Z</time>
      </trkpt>
      <trkpt lat="38.678492" lon="-0.488126">
        <ele>667.353</ele>
        <time>2019-06-16T11:47:13Z</time>
      </trkpt>
      <trkpt lat="38.678488" lon="-0.488052">
        <ele>667.576</ele>
        <time>2019-06-16T11:47:16Z</time>
      </trkpt>
      <trkpt lat="38.678353" lon="-0.487561">
        <ele>673.418</ele>
        <time>2019-06-16T11:47:49Z</time>
      </trkpt>
      <trkpt lat="38.678208" lon="-0.486765">
        <ele>673.255</ele>
        <time>2019-06-16T11:47:50Z</time>
      </trkpt>
      <trkpt lat="38.678179" lon="-0.486674">
        <ele>673.294</ele>
        <time>2019-06-16T11:47:52Z</time>
      </trkpt>
      <trkpt lat="38.678160" lon="-0.486312">
        <ele>673.739</ele>
        <time>2019-06-16T11:47:53Z</time>
      </trkpt>
      <trkpt lat="38.678184" lon="-0.486239">
        <ele>673.333</ele>
        <time>2019-06-16T11:47:55Z</time>
      </trkpt>
      <trkpt lat="38.678190" lon="-0.486175">
        <ele>673.223</ele>
        <time>2019-06-16T11:47:56Z</time>
      </trkpt>
      <trkpt lat="38.678136" lon="-0.486129">
        <ele>673.515</ele>
        <time>2019-06-16T11:47:57Z</time>
      </trkpt>
      <trkpt lat="38.678101" lon="-0.486033">
        <ele>673.108</ele>
        <time>2019-06-16T11:47:59Z</time>
      </trkpt>
      <trkpt lat="38.678123" lon="-0.485972">
        <ele>672.526</ele>
        <time>2019-06-16T11:48:01Z</time>
      </trkpt>
      <trkpt lat="38.678124" lon="-0.485909">
        <ele>672.160</ele>
        <time>2019-06-16T11:48:04Z</time>
      </trkpt>
      <trkpt lat="38.678077" lon="-0.485732">
        <ele>671.879</ele>
        <time>2019-06-16T11:48:05Z</time>
      </trkpt>
      <trkpt lat="38.678057" lon="-0.485636">
        <ele>672.042</ele>
        <time>2019-06-16T11:48:07Z</time>
      </trkpt>
      <trkpt lat="38.678064" lon="-0.485552">
        <ele>671.994</ele>
        <time>2019-06-16T11:48:09Z</time>
      </trkpt>
      <trkpt lat="38.678035" lon="-0.485483">
        <ele>672.561</ele>
        <time>2019-06-16T11:48:10Z</time>
      </trkpt>
      <trkpt lat="38.678049" lon="-0.485384">
        <ele>672.170</ele>
        <time>2019-06-16T11:48:12Z</time>
      </trkpt>
      <trkpt lat="38.678031" lon="-0.485301">
        <ele>672.585</ele>
        <time>2019-06-16T11:48:14Z</time>
      </trkpt>
      <trkpt lat="38.678005" lon="-0.485235">
        <ele>672.489</ele>
        <time>2019-06-16T11:48:15Z</time>
      </trkpt>
      <trkpt lat="38.678006" lon="-0.485143">
        <ele>671.406</ele>
        <time>2019-06-16T11:48:17Z</time>
      </trkpt>
      <trkpt lat="38.678018" lon="-0.485065">
        <ele>670.426</ele>
        <time>2019-06-16T11:48:19Z</time>
      </trkpt>
      <trkpt lat="38.677995" lon="-0.484952">
        <ele>669.908</ele>
        <time>2019-06-16T11:48:21Z</time>
      </trkpt>
      <trkpt lat="38.677988" lon="-0.484855">
        <ele>669.731</ele>
        <time>2019-06-16T11:48:23Z</time>
      </trkpt>
      <trkpt lat="38.677974" lon="-0.484748">
        <ele>669.685</ele>
        <time>2019-06-16T11:48:25Z</time>
      </trkpt>
      <trkpt lat="38.677960" lon="-0.484637">
        <ele>670.484</ele>
        <time>2019-06-16T11:48:27Z</time>
      </trkpt>
      <trkpt lat="38.677950" lon="-0.484543">
        <ele>671.547</ele>
        <time>2019-06-16T11:48:29Z</time>
      </trkpt>
      <trkpt lat="38.677921" lon="-0.484485">
        <ele>672.999</ele>
        <time>2019-06-16T11:48:30Z</time>
      </trkpt>
      <trkpt lat="38.677903" lon="-0.484379">
        <ele>675.186</ele>
        <time>2019-06-16T11:48:32Z</time>
      </trkpt>
      <trkpt lat="38.677892" lon="-0.484284">
        <ele>677.245</ele>
        <time>2019-06-16T11:48:34Z</time>
      </trkpt>
      <trkpt lat="38.677886" lon="-0.484190">
        <ele>679.130</ele>
        <time>2019-06-16T11:48:36Z</time>
      </trkpt>
      <trkpt lat="38.677887" lon="-0.484088">
        <ele>680.463</ele>
        <time>2019-06-16T11:48:38Z</time>
      </trkpt>
      <trkpt lat="38.677898" lon="-0.483985">
        <ele>681.044</ele>
        <time>2019-06-16T11:48:40Z</time>
      </trkpt>
      <trkpt lat="38.677914" lon="-0.483878">
        <ele>681.318</ele>
        <time>2019-06-16T11:48:42Z</time>
      </trkpt>
      <trkpt lat="38.677920" lon="-0.483768">
        <ele>682.608</ele>
        <time>2019-06-16T11:48:44Z</time>
      </trkpt>
      <trkpt lat="38.677932" lon="-0.483661">
        <ele>683.649</ele>
        <time>2019-06-16T11:48:46Z</time>
      </trkpt>
      <trkpt lat="38.677944" lon="-0.483586">
        <ele>683.913</ele>
        <time>2019-06-16T11:48:47Z</time>
      </trkpt>
      <trkpt lat="38.677946" lon="-0.483526">
        <ele>684.232</ele>
        <time>2019-06-16T11:48:48Z</time>
      </trkpt>
      <trkpt lat="38.677871" lon="-0.483469">
        <ele>687.125</ele>
        <time>2019-06-16T11:48:49Z</time>
      </trkpt>
      <trkpt lat="38.677867" lon="-0.483411">
        <ele>687.467</ele>
        <time>2019-06-16T11:48:50Z</time>
      </trkpt>
      <trkpt lat="38.677939" lon="-0.483376">
        <ele>685.294</ele>
        <time>2019-06-16T11:48:52Z</time>
      </trkpt>
      <trkpt lat="38.677939" lon="-0.483376">
        <ele>685.213</ele>
        <time>2019-06-16T11:48:52Z</time>
      </trkpt>
      <trkpt lat="38.677975" lon="-0.483310">
        <ele>684.288</ele>
        <time>2019-06-16T11:48:54Z</time>
      </trkpt>
      <trkpt lat="38.677975" lon="-0.483310">
        <ele>684.251</ele>
        <time>2019-06-16T11:48:54Z</time>
      </trkpt>
      <trkpt lat="38.677992" lon="-0.483247">
        <ele>683.501</ele>
        <time>2019-06-16T11:48:56Z</time>
      </trkpt>
      <trkpt lat="38.677992" lon="-0.483247">
        <ele>683.511</ele>
        <time>2019-06-16T11:48:56Z</time>
      </trkpt>
      <trkpt lat="38.677991" lon="-0.483147">
        <ele>683.208</ele>
        <time>2019-06-16T11:49:01Z</time>
      </trkpt>
      <trkpt lat="38.678223" lon="-0.482470">
        <ele>682.968</ele>
        <time>2019-06-16T11:49:13Z</time>
      </trkpt>
      <trkpt lat="38.678260" lon="-0.482436">
        <ele>682.742</ele>
        <time>2019-06-16T11:49:14Z</time>
      </trkpt>
      <trkpt lat="38.678335" lon="-0.482351">
        <ele>682.171</ele>
        <time>2019-06-16T11:49:16Z</time>
      </trkpt>
      <trkpt lat="38.678308" lon="-0.482248">
        <ele>684.484</ele>
        <time>2019-06-16T11:49:18Z</time>
      </trkpt>
      <trkpt lat="38.678349" lon="-0.482174">
        <ele>684.456</ele>
        <time>2019-06-16T11:49:20Z</time>
      </trkpt>
      <trkpt lat="38.678370" lon="-0.482123">
        <ele>684.773</ele>
        <time>2019-06-16T11:49:21Z</time>
      </trkpt>
      <trkpt lat="38.678403" lon="-0.482079">
        <ele>684.722</ele>
        <time>2019-06-16T11:49:22Z</time>
      </trkpt>
      <trkpt lat="38.678371" lon="-0.482020">
        <ele>686.187</ele>
        <time>2019-06-16T11:49:23Z</time>
      </trkpt>
      <trkpt lat="38.678407" lon="-0.481973">
        <ele>686.038</ele>
        <time>2019-06-16T11:49:24Z</time>
      </trkpt>
      <trkpt lat="38.678437" lon="-0.481865">
        <ele>685.970</ele>
        <time>2019-06-16T11:49:26Z</time>
      </trkpt>
      <trkpt lat="38.678474" lon="-0.481814">
        <ele>685.217</ele>
        <time>2019-06-16T11:49:27Z</time>
      </trkpt>
      <trkpt lat="38.678529" lon="-0.481724">
        <ele>684.308</ele>
        <time>2019-06-16T11:49:29Z</time>
      </trkpt>
      <trkpt lat="38.678599" lon="-0.481669">
        <ele>683.216</ele>
        <time>2019-06-16T11:49:30Z</time>
      </trkpt>
      <trkpt lat="38.678644" lon="-0.481623">
        <ele>683.160</ele>
        <time>2019-06-16T11:49:31Z</time>
      </trkpt>
      <trkpt lat="38.678674" lon="-0.481575">
        <ele>683.199</ele>
        <time>2019-06-16T11:49:32Z</time>
      </trkpt>
      <trkpt lat="38.678680" lon="-0.481506">
        <ele>683.322</ele>
        <time>2019-06-16T11:49:34Z</time>
      </trkpt>
      <trkpt lat="38.678704" lon="-0.481455">
        <ele>683.224</ele>
        <time>2019-06-16T11:49:35Z</time>
      </trkpt>
      <trkpt lat="38.678737" lon="-0.481355">
        <ele>683.391</ele>
        <time>2019-06-16T11:49:37Z</time>
      </trkpt>
      <trkpt lat="38.678757" lon="-0.481280">
        <ele>684.130</ele>
        <time>2019-06-16T11:49:39Z</time>
      </trkpt>
      <trkpt lat="38.678794" lon="-0.481204">
        <ele>684.675</ele>
        <time>2019-06-16T11:49:41Z</time>
      </trkpt>
      <trkpt lat="38.678831" lon="-0.481112">
        <ele>685.275</ele>
        <time>2019-06-16T11:49:43Z</time>
      </trkpt>
      <trkpt lat="38.678852" lon="-0.481016">
        <ele>687.228</ele>
        <time>2019-06-16T11:49:45Z</time>
      </trkpt>
      <trkpt lat="38.678886" lon="-0.480923">
        <ele>689.420</ele>
        <time>2019-06-16T11:49:47Z</time>
      </trkpt>
      <trkpt lat="38.678931" lon="-0.480837">
        <ele>690.508</ele>
        <time>2019-06-16T11:49:49Z</time>
      </trkpt>
      <trkpt lat="38.678970" lon="-0.480749">
        <ele>690.020</ele>
        <time>2019-06-16T11:49:51Z</time>
      </trkpt>
      <trkpt lat="38.678999" lon="-0.480662">
        <ele>690.034</ele>
        <time>2019-06-16T11:49:53Z</time>
      </trkpt>
      <trkpt lat="38.679023" lon="-0.480589">
        <ele>690.243</ele>
        <time>2019-06-16T11:49:55Z</time>
      </trkpt>
      <trkpt lat="38.679041" lon="-0.480521">
        <ele>690.516</ele>
        <time>2019-06-16T11:49:57Z</time>
      </trkpt>
      <trkpt lat="38.679063" lon="-0.480441">
        <ele>690.938</ele>
        <time>2019-06-16T11:49:58Z</time>
      </trkpt>
      <trkpt lat="38.679086" lon="-0.480352">
        <ele>691.585</ele>
        <time>2019-06-16T11:50:00Z</time>
      </trkpt>
      <trkpt lat="38.679105" lon="-0.480279">
        <ele>692.244</ele>
        <time>2019-06-16T11:50:02Z</time>
      </trkpt>
      <trkpt lat="38.679124" lon="-0.480209">
        <ele>692.699</ele>
        <time>2019-06-16T11:50:04Z</time>
      </trkpt>
      <trkpt lat="38.679143" lon="-0.480133">
        <ele>693.056</ele>
        <time>2019-06-16T11:50:05Z</time>
      </trkpt>
      <trkpt lat="38.679151" lon="-0.480038">
        <ele>693.759</ele>
        <time>2019-06-16T11:50:07Z</time>
      </trkpt>
      <trkpt lat="38.679154" lon="-0.479956">
        <ele>694.014</ele>
        <time>2019-06-16T11:50:09Z</time>
      </trkpt>
      <trkpt lat="38.679163" lon="-0.479846">
        <ele>694.008</ele>
        <time>2019-06-16T11:50:11Z</time>
      </trkpt>
      <trkpt lat="38.679172" lon="-0.479769">
        <ele>693.988</ele>
        <time>2019-06-16T11:50:13Z</time>
      </trkpt>
      <trkpt lat="38.679183" lon="-0.479701">
        <ele>693.432</ele>
        <time>2019-06-16T11:50:15Z</time>
      </trkpt>
      <trkpt lat="38.679197" lon="-0.479578">
        <ele>692.411</ele>
        <time>2019-06-16T11:50:17Z</time>
      </trkpt>
      <trkpt lat="38.679203" lon="-0.479483">
        <ele>691.784</ele>
        <time>2019-06-16T11:50:19Z</time>
      </trkpt>
      <trkpt lat="38.679202" lon="-0.479380">
        <ele>690.836</ele>
        <time>2019-06-16T11:50:21Z</time>
      </trkpt>
      <trkpt lat="38.679197" lon="-0.479275">
        <ele>689.793</ele>
        <time>2019-06-16T11:50:23Z</time>
      </trkpt>
      <trkpt lat="38.679185" lon="-0.479167">
        <ele>688.712</ele>
        <time>2019-06-16T11:50:25Z</time>
      </trkpt>
      <trkpt lat="38.679173" lon="-0.479063">
        <ele>687.417</ele>
        <time>2019-06-16T11:50:27Z</time>
      </trkpt>
      <trkpt lat="38.679142" lon="-0.478972">
        <ele>686.484</ele>
        <time>2019-06-16T11:50:29Z</time>
      </trkpt>
      <trkpt lat="38.679118" lon="-0.478871">
        <ele>685.407</ele>
        <time>2019-06-16T11:50:31Z</time>
      </trkpt>
      <trkpt lat="38.679097" lon="-0.478768">
        <ele>685.017</ele>
        <time>2019-06-16T11:50:33Z</time>
      </trkpt>
      <trkpt lat="38.679083" lon="-0.478686">
        <ele>684.708</ele>
        <time>2019-06-16T11:50:35Z</time>
      </trkpt>
      <trkpt lat="38.679079" lon="-0.478620">
        <ele>684.321</ele>
        <time>2019-06-16T11:50:37Z</time>
      </trkpt>
      <trkpt lat="38.679071" lon="-0.478535">
        <ele>685.085</ele>
        <time>2019-06-16T11:50:38Z</time>
      </trkpt>
      <trkpt lat="38.679058" lon="-0.478442">
        <ele>686.054</ele>
        <time>2019-06-16T11:50:40Z</time>
      </trkpt>
      <trkpt lat="38.679045" lon="-0.478370">
        <ele>686.987</ele>
        <time>2019-06-16T11:50:42Z</time>
      </trkpt>
      <trkpt lat="38.679038" lon="-0.478298">
        <ele>687.639</ele>
        <time>2019-06-16T11:50:44Z</time>
      </trkpt>
      <trkpt lat="38.679030" lon="-0.478217">
        <ele>688.556</ele>
        <time>2019-06-16T11:50:46Z</time>
      </trkpt>
      <trkpt lat="38.679013" lon="-0.478131">
        <ele>689.545</ele>
        <time>2019-06-16T11:50:48Z</time>
      </trkpt>
      <trkpt lat="38.678988" lon="-0.478054">
        <ele>690.690</ele>
        <time>2019-06-16T11:50:50Z</time>
      </trkpt>
      <trkpt lat="38.678957" lon="-0.477958">
        <ele>690.977</ele>
        <time>2019-06-16T11:50:52Z</time>
      </trkpt>
      <trkpt lat="38.678940" lon="-0.477898">
        <ele>691.261</ele>
        <time>2019-06-16T11:50:54Z</time>
      </trkpt>
      <trkpt lat="38.678915" lon="-0.477811">
        <ele>691.527</ele>
        <time>2019-06-16T11:50:56Z</time>
      </trkpt>
      <trkpt lat="38.678887" lon="-0.477735">
        <ele>691.908</ele>
        <time>2019-06-16T11:50:58Z</time>
      </trkpt>
      <trkpt lat="38.678866" lon="-0.477680">
        <ele>692.130</ele>
        <time>2019-06-16T11:50:59Z</time>
      </trkpt>
      <trkpt lat="38.678841" lon="-0.477608">
        <ele>692.494</ele>
        <time>2019-06-16T11:51:01Z</time>
      </trkpt>
      <trkpt lat="38.678815" lon="-0.477545">
        <ele>692.833</ele>
        <time>2019-06-16T11:51:03Z</time>
      </trkpt>
      <trkpt lat="38.678778" lon="-0.477471">
        <ele>693.776</ele>
        <time>2019-06-16T11:51:04Z</time>
      </trkpt>
      <trkpt lat="38.678731" lon="-0.477388">
        <ele>695.468</ele>
        <time>2019-06-16T11:51:06Z</time>
      </trkpt>
      <trkpt lat="38.678693" lon="-0.477321">
        <ele>696.715</ele>
        <time>2019-06-16T11:51:08Z</time>
      </trkpt>
      <trkpt lat="38.678662" lon="-0.477266">
        <ele>697.784</ele>
        <time>2019-06-16T11:51:09Z</time>
      </trkpt>
      <trkpt lat="38.678623" lon="-0.477203">
        <ele>698.919</ele>
        <time>2019-06-16T11:51:11Z</time>
      </trkpt>
      <trkpt lat="38.678596" lon="-0.477155">
        <ele>699.746</ele>
        <time>2019-06-16T11:51:13Z</time>
      </trkpt>
      <trkpt lat="38.678563" lon="-0.477095">
        <ele>700.588</ele>
        <time>2019-06-16T11:51:16Z</time>
      </trkpt>
      <trkpt lat="38.678471" lon="-0.476923">
        <ele>702.116</ele>
        <time>2019-06-16T11:51:30Z</time>
      </trkpt>
      <trkpt lat="38.677540" lon="-0.476066">
        <ele>703.008</ele>
        <time>2019-06-16T11:51:47Z</time>
      </trkpt>
      <trkpt lat="38.677483" lon="-0.476024">
        <ele>702.267</ele>
        <time>2019-06-16T11:51:48Z</time>
      </trkpt>
      <trkpt lat="38.677411" lon="-0.475991">
        <ele>700.661</ele>
        <time>2019-06-16T11:51:51Z</time>
      </trkpt>
      <trkpt lat="38.677323" lon="-0.475963">
        <ele>698.890</ele>
        <time>2019-06-16T11:51:52Z</time>
      </trkpt>
      <trkpt lat="38.677301" lon="-0.475900">
        <ele>697.313</ele>
        <time>2019-06-16T11:51:53Z</time>
      </trkpt>
      <trkpt lat="38.677303" lon="-0.475807">
        <ele>695.945</ele>
        <time>2019-06-16T11:51:55Z</time>
      </trkpt>
      <trkpt lat="38.677280" lon="-0.475733">
        <ele>694.782</ele>
        <time>2019-06-16T11:51:57Z</time>
      </trkpt>
      <trkpt lat="38.677239" lon="-0.475683">
        <ele>693.691</ele>
        <time>2019-06-16T11:51:59Z</time>
      </trkpt>
      <trkpt lat="38.677204" lon="-0.475630">
        <ele>692.596</ele>
        <time>2019-06-16T11:52:00Z</time>
      </trkpt>
      <trkpt lat="38.677155" lon="-0.475584">
        <ele>691.113</ele>
        <time>2019-06-16T11:52:02Z</time>
      </trkpt>
      <trkpt lat="38.677091" lon="-0.475517">
        <ele>689.443</ele>
        <time>2019-06-16T11:52:04Z</time>
      </trkpt>
      <trkpt lat="38.677031" lon="-0.475456">
        <ele>687.707</ele>
        <time>2019-06-16T11:52:06Z</time>
      </trkpt>
      <trkpt lat="38.676973" lon="-0.475397">
        <ele>685.908</ele>
        <time>2019-06-16T11:52:08Z</time>
      </trkpt>
      <trkpt lat="38.676909" lon="-0.475331">
        <ele>684.424</ele>
        <time>2019-06-16T11:52:10Z</time>
      </trkpt>
      <trkpt lat="38.676849" lon="-0.475261">
        <ele>683.668</ele>
        <time>2019-06-16T11:52:12Z</time>
      </trkpt>
      <trkpt lat="38.676799" lon="-0.475195">
        <ele>683.037</ele>
        <time>2019-06-16T11:52:14Z</time>
      </trkpt>
      <trkpt lat="38.676752" lon="-0.475138">
        <ele>682.530</ele>
        <time>2019-06-16T11:52:16Z</time>
      </trkpt>
      <trkpt lat="38.676705" lon="-0.475087">
        <ele>681.922</ele>
        <time>2019-06-16T11:52:18Z</time>
      </trkpt>
      <trkpt lat="38.676655" lon="-0.475031">
        <ele>681.329</ele>
        <time>2019-06-16T11:52:19Z</time>
      </trkpt>
      <trkpt lat="38.676623" lon="-0.474988">
        <ele>681.238</ele>
        <time>2019-06-16T11:52:21Z</time>
      </trkpt>
      <trkpt lat="38.676576" lon="-0.474930">
        <ele>681.133</ele>
        <time>2019-06-16T11:52:23Z</time>
      </trkpt>
      <trkpt lat="38.676524" lon="-0.474872">
        <ele>681.161</ele>
        <time>2019-06-16T11:52:24Z</time>
      </trkpt>
      <trkpt lat="38.676486" lon="-0.474829">
        <ele>681.121</ele>
        <time>2019-06-16T11:52:26Z</time>
      </trkpt>
      <trkpt lat="38.676443" lon="-0.474775">
        <ele>681.013</ele>
        <time>2019-06-16T11:52:27Z</time>
      </trkpt>
      <trkpt lat="38.676390" lon="-0.474705">
        <ele>681.408</ele>
        <time>2019-06-16T11:52:29Z</time>
      </trkpt>
      <trkpt lat="38.676337" lon="-0.474638">
        <ele>684.769</ele>
        <time>2019-06-16T11:52:31Z</time>
      </trkpt>
      <trkpt lat="38.676283" lon="-0.474571">
        <ele>687.813</ele>
        <time>2019-06-16T11:52:33Z</time>
      </trkpt>
      <trkpt lat="38.676231" lon="-0.474509">
        <ele>690.552</ele>
        <time>2019-06-16T11:52:35Z</time>
      </trkpt>
      <trkpt lat="38.676193" lon="-0.474464">
        <ele>692.465</ele>
        <time>2019-06-16T11:52:37Z</time>
      </trkpt>
      <trkpt lat="38.676153" lon="-0.474402">
        <ele>694.267</ele>
        <time>2019-06-16T11:52:39Z</time>
      </trkpt>
      <trkpt lat="38.676118" lon="-0.474339">
        <ele>695.674</ele>
        <time>2019-06-16T11:52:40Z</time>
      </trkpt>
      <trkpt lat="38.676085" lon="-0.474274">
        <ele>697.393</ele>
        <time>2019-06-16T11:52:42Z</time>
      </trkpt>
      <trkpt lat="38.676054" lon="-0.474223">
        <ele>699.028</ele>
        <time>2019-06-16T11:52:43Z</time>
      </trkpt>
      <trkpt lat="38.676007" lon="-0.474152">
        <ele>701.596</ele>
        <time>2019-06-16T11:52:45Z</time>
      </trkpt>
      <trkpt lat="38.675952" lon="-0.474073">
        <ele>703.631</ele>
        <time>2019-06-16T11:52:47Z</time>
      </trkpt>
      <trkpt lat="38.675902" lon="-0.473993">
        <ele>705.224</ele>
        <time>2019-06-16T11:52:49Z</time>
      </trkpt>
      <trkpt lat="38.675867" lon="-0.473899">
        <ele>706.008</ele>
        <time>2019-06-16T11:52:51Z</time>
      </trkpt>
      <trkpt lat="38.675846" lon="-0.473832">
        <ele>707.682</ele>
        <time>2019-06-16T11:52:53Z</time>
      </trkpt>
      <trkpt lat="38.675819" lon="-0.473766">
        <ele>710.066</ele>
        <time>2019-06-16T11:52:54Z</time>
      </trkpt>
      <trkpt lat="38.675768" lon="-0.473678">
        <ele>714.655</ele>
        <time>2019-06-16T11:52:56Z</time>
      </trkpt>
      <trkpt lat="38.675743" lon="-0.473628">
        <ele>717.238</ele>
        <time>2019-06-16T11:52:57Z</time>
      </trkpt>
      <trkpt lat="38.675719" lon="-0.473574">
        <ele>720.120</ele>
        <time>2019-06-16T11:52:58Z</time>
      </trkpt>
      <trkpt lat="38.675696" lon="-0.473522">
        <ele>723.087</ele>
        <time>2019-06-16T11:52:59Z</time>
      </trkpt>
      <trkpt lat="38.675673" lon="-0.473472">
        <ele>725.776</ele>
        <time>2019-06-16T11:53:00Z</time>
      </trkpt>
      <trkpt lat="38.675629" lon="-0.473374">
        <ele>730.931</ele>
        <time>2019-06-16T11:53:02Z</time>
      </trkpt>
      <trkpt lat="38.675586" lon="-0.473278">
        <ele>734.391</ele>
        <time>2019-06-16T11:53:04Z</time>
      </trkpt>
      <trkpt lat="38.675045" lon="-0.470372">
        <ele>729.181</ele>
        <time>2019-06-16T11:54:23Z</time>
      </trkpt>
      <trkpt lat="38.674994" lon="-0.470227">
        <ele>727.419</ele>
        <time>2019-06-16T11:54:24Z</time>
      </trkpt>
      <trkpt lat="38.674957" lon="-0.470164">
        <ele>728.108</ele>
        <time>2019-06-16T11:54:25Z</time>
      </trkpt>
      <trkpt lat="38.674963" lon="-0.470100">
        <ele>726.562</ele>
        <time>2019-06-16T11:54:29Z</time>
      </trkpt>
      <trkpt lat="38.674960" lon="-0.470032">
        <ele>725.496</ele>
        <time>2019-06-16T11:54:31Z</time>
      </trkpt>
      <trkpt lat="38.675045" lon="-0.469876">
        <ele>718.375</ele>
        <time>2019-06-16T11:57:22Z</time>
      </trkpt>
      <trkpt lat="38.674989" lon="-0.469842">
        <ele>720.628</ele>
        <time>2019-06-16T11:57:38Z</time>
      </trkpt>
      <trkpt lat="38.674936" lon="-0.469803">
        <ele>721.740</ele>
        <time>2019-06-16T11:57:40Z</time>
      </trkpt>
      <trkpt lat="38.674880" lon="-0.469769">
        <ele>722.987</ele>
        <time>2019-06-16T11:57:42Z</time>
      </trkpt>
      <trkpt lat="38.674827" lon="-0.469734">
        <ele>723.926</ele>
        <time>2019-06-16T11:57:44Z</time>
      </trkpt>
      <trkpt lat="38.674769" lon="-0.469680">
        <ele>724.081</ele>
        <time>2019-06-16T11:57:46Z</time>
      </trkpt>
      <trkpt lat="38.674695" lon="-0.469578">
        <ele>724.659</ele>
        <time>2019-06-16T11:57:47Z</time>
      </trkpt>
      <trkpt lat="38.674672" lon="-0.469521">
        <ele>724.903</ele>
        <time>2019-06-16T11:57:49Z</time>
      </trkpt>
      <trkpt lat="38.674635" lon="-0.469447">
        <ele>726.223</ele>
        <time>2019-06-16T11:57:51Z</time>
      </trkpt>
      <trkpt lat="38.674593" lon="-0.469375">
        <ele>727.708</ele>
        <time>2019-06-16T11:57:53Z</time>
      </trkpt>
      <trkpt lat="38.674544" lon="-0.469295">
        <ele>728.768</ele>
        <time>2019-06-16T11:57:55Z</time>
      </trkpt>
      <trkpt lat="38.674497" lon="-0.469225">
        <ele>729.272</ele>
        <time>2019-06-16T11:57:57Z</time>
      </trkpt>
      <trkpt lat="38.674461" lon="-0.469169">
        <ele>728.921</ele>
        <time>2019-06-16T11:57:59Z</time>
      </trkpt>
      <trkpt lat="38.674438" lon="-0.469107">
        <ele>728.474</ele>
        <time>2019-06-16T11:58:01Z</time>
      </trkpt>
      <trkpt lat="38.674428" lon="-0.469018">
        <ele>725.936</ele>
        <time>2019-06-16T11:58:04Z</time>
      </trkpt>
      <trkpt lat="38.674410" lon="-0.468941">
        <ele>724.643</ele>
        <time>2019-06-16T11:58:06Z</time>
      </trkpt>
      <trkpt lat="38.674361" lon="-0.468826">
        <ele>726.162</ele>
        <time>2019-06-16T11:58:07Z</time>
      </trkpt>
      <trkpt lat="38.674319" lon="-0.468768">
        <ele>728.487</ele>
        <time>2019-06-16T11:58:23Z</time>
      </trkpt>
      <trkpt lat="38.667538" lon="-0.464437">
        <ele>738.966</ele>
        <time>2019-06-16T12:02:47Z</time>
      </trkpt>
      <trkpt lat="38.667321" lon="-0.464318">
        <ele>728.029</ele>
        <time>2019-06-16T12:02:51Z</time>
      </trkpt>
      <trkpt lat="38.667187" lon="-0.464298">
        <ele>723.821</ele>
        <time>2019-06-16T12:02:52Z</time>
      </trkpt>
      <trkpt lat="38.667130" lon="-0.464281">
        <ele>723.408</ele>
        <time>2019-06-16T12:02:53Z</time>
      </trkpt>
      <trkpt lat="38.667004" lon="-0.464317">
        <ele>723.469</ele>
        <time>2019-06-16T12:02:54Z</time>
      </trkpt>
      <trkpt lat="38.666960" lon="-0.464333">
        <ele>723.493</ele>
        <time>2019-06-16T12:02:55Z</time>
      </trkpt>
      <trkpt lat="38.666874" lon="-0.464232">
        <ele>725.892</ele>
        <time>2019-06-16T12:02:57Z</time>
      </trkpt>
      <trkpt lat="38.666825" lon="-0.464202">
        <ele>728.295</ele>
        <time>2019-06-16T12:02:59Z</time>
      </trkpt>
      <trkpt lat="38.666774" lon="-0.464238">
        <ele>731.477</ele>
        <time>2019-06-16T12:03:02Z</time>
      </trkpt>
      <trkpt lat="38.666705" lon="-0.464248">
        <ele>735.294</ele>
        <time>2019-06-16T12:03:04Z</time>
      </trkpt>
      <trkpt lat="38.666637" lon="-0.464254">
        <ele>738.513</ele>
        <time>2019-06-16T12:03:06Z</time>
      </trkpt>
      <trkpt lat="38.666584" lon="-0.464275">
        <ele>741.148</ele>
        <time>2019-06-16T12:03:08Z</time>
      </trkpt>
      <trkpt lat="38.666498" lon="-0.464325">
        <ele>746.752</ele>
        <time>2019-06-16T12:03:22Z</time>
      </trkpt>
      <trkpt lat="38.657661" lon="-0.461753">
        <ele>760.453</ele>
        <time>2019-06-16T12:07:17Z</time>
      </trkpt>
      <trkpt lat="38.657615" lon="-0.461763">
        <ele>759.608</ele>
        <time>2019-06-16T12:07:19Z</time>
      </trkpt>
      <trkpt lat="38.657554" lon="-0.461773">
        <ele>758.408</ele>
        <time>2019-06-16T12:07:21Z</time>
      </trkpt>
      <trkpt lat="38.657488" lon="-0.461796">
        <ele>757.358</ele>
        <time>2019-06-16T12:07:23Z</time>
      </trkpt>
      <trkpt lat="38.657424" lon="-0.461836">
        <ele>756.822</ele>
        <time>2019-06-16T12:07:25Z</time>
      </trkpt>
      <trkpt lat="38.657361" lon="-0.461889">
        <ele>756.341</ele>
        <time>2019-06-16T12:07:27Z</time>
      </trkpt>
      <trkpt lat="38.657322" lon="-0.461927">
        <ele>756.034</ele>
        <time>2019-06-16T12:07:28Z</time>
      </trkpt>
      <trkpt lat="38.657259" lon="-0.461998">
        <ele>755.616</ele>
        <time>2019-06-16T12:07:30Z</time>
      </trkpt>
      <trkpt lat="38.657213" lon="-0.462067">
        <ele>755.453</ele>
        <time>2019-06-16T12:07:32Z</time>
      </trkpt>
      <trkpt lat="38.657168" lon="-0.462137">
        <ele>755.442</ele>
        <time>2019-06-16T12:07:34Z</time>
      </trkpt>
      <trkpt lat="38.657129" lon="-0.462199">
        <ele>755.517</ele>
        <time>2019-06-16T12:07:36Z</time>
      </trkpt>
      <trkpt lat="38.657056" lon="-0.462308">
        <ele>755.653</ele>
        <time>2019-06-16T12:07:39Z</time>
      </trkpt>
      <trkpt lat="38.657056" lon="-0.462308">
        <ele>755.604</ele>
        <time>2019-06-16T12:07:39Z</time>
      </trkpt>
      <trkpt lat="38.657056" lon="-0.462308">
        <ele>755.614</ele>
        <time>2019-06-16T12:07:39Z</time>
      </trkpt>
      <trkpt lat="38.656994" lon="-0.462404">
        <ele>755.708</ele>
        <time>2019-06-16T12:07:42Z</time>
      </trkpt>
      <trkpt lat="38.656994" lon="-0.462404">
        <ele>755.768</ele>
        <time>2019-06-16T12:07:42Z</time>
      </trkpt>
      <trkpt lat="38.656994" lon="-0.462404">
        <ele>755.782</ele>
        <time>2019-06-16T12:07:42Z</time>
      </trkpt>
      <trkpt lat="38.656994" lon="-0.462404">
        <ele>755.721</ele>
        <time>2019-06-16T12:07:42Z</time>
      </trkpt>
      <trkpt lat="38.656951" lon="-0.462445">
        <ele>755.844</ele>
        <time>2019-06-16T12:08:22Z</time>
      </trkpt>
      <trkpt lat="38.656911" lon="-0.462485">
        <ele>755.946</ele>
        <time>2019-06-16T12:08:25Z</time>
      </trkpt>
      <trkpt lat="38.656873" lon="-0.462523">
        <ele>756.013</ele>
        <time>2019-06-16T12:08:27Z</time>
      </trkpt>
      <trkpt lat="38.656833" lon="-0.462566">
        <ele>756.062</ele>
        <time>2019-06-16T12:08:29Z</time>
      </trkpt>
      <trkpt lat="38.656796" lon="-0.462615">
        <ele>756.027</ele>
        <time>2019-06-16T12:08:31Z</time>
      </trkpt>
      <trkpt lat="38.656758" lon="-0.462656">
        <ele>756.221</ele>
        <time>2019-06-16T12:08:33Z</time>
      </trkpt>
      <trkpt lat="38.656679" lon="-0.462792">
        <ele>756.941</ele>
        <time>2019-06-16T12:08:36Z</time>
      </trkpt>
      <trkpt lat="38.656649" lon="-0.462868">
        <ele>756.605</ele>
        <time>2019-06-16T12:08:37Z</time>
      </trkpt>
      <trkpt lat="38.656629" lon="-0.462923">
        <ele>756.308</ele>
        <time>2019-06-16T12:08:38Z</time>
      </trkpt>
      <trkpt lat="38.656588" lon="-0.463002">
        <ele>755.915</ele>
        <time>2019-06-16T12:08:40Z</time>
      </trkpt>
      <trkpt lat="38.656493" lon="-0.463127">
        <ele>755.059</ele>
        <time>2019-06-16T12:08:42Z</time>
      </trkpt>
      <trkpt lat="38.656421" lon="-0.463209">
        <ele>754.148</ele>
        <time>2019-06-16T12:08:44Z</time>
      </trkpt>
      <trkpt lat="38.656375" lon="-0.463270">
        <ele>753.451</ele>
        <time>2019-06-16T12:08:48Z</time>
      </trkpt>
      <trkpt lat="38.656332" lon="-0.463324">
        <ele>752.753</ele>
        <time>2019-06-16T12:08:52Z</time>
      </trkpt>
      <trkpt lat="38.656304" lon="-0.463370">
        <ele>752.350</ele>
        <time>2019-06-16T12:08:53Z</time>
      </trkpt>
      <trkpt lat="38.656207" lon="-0.463454">
        <ele>751.419</ele>
        <time>2019-06-16T12:09:10Z</time>
      </trkpt>
      <trkpt lat="38.656160" lon="-0.463510">
        <ele>750.884</ele>
        <time>2019-06-16T12:09:12Z</time>
      </trkpt>
      <trkpt lat="38.656100" lon="-0.463558">
        <ele>750.357</ele>
        <time>2019-06-16T12:09:14Z</time>
      </trkpt>
      <trkpt lat="38.656047" lon="-0.463605">
        <ele>750.700</ele>
        <time>2019-06-16T12:09:16Z</time>
      </trkpt>
      <trkpt lat="38.655993" lon="-0.463646">
        <ele>751.420</ele>
        <time>2019-06-16T12:09:18Z</time>
      </trkpt>
      <trkpt lat="38.655925" lon="-0.463724">
        <ele>752.408</ele>
        <time>2019-06-16T12:09:19Z</time>
      </trkpt>
      <trkpt lat="38.655893" lon="-0.463814">
        <ele>753.198</ele>
        <time>2019-06-16T12:09:22Z</time>
      </trkpt>
      <trkpt lat="38.655854" lon="-0.463918">
        <ele>754.012</ele>
        <time>2019-06-16T12:09:23Z</time>
      </trkpt>
      <trkpt lat="38.655836" lon="-0.463972">
        <ele>754.671</ele>
        <time>2019-06-16T12:09:25Z</time>
      </trkpt>
      <trkpt lat="38.655735" lon="-0.464193">
        <ele>757.174</ele>
        <time>2019-06-16T12:09:28Z</time>
      </trkpt>
      <trkpt lat="38.655710" lon="-0.464290">
        <ele>757.466</ele>
        <time>2019-06-16T12:09:29Z</time>
      </trkpt>
      <trkpt lat="38.655664" lon="-0.464358">
        <ele>757.733</ele>
        <time>2019-06-16T12:09:31Z</time>
      </trkpt>
      <trkpt lat="38.655608" lon="-0.464393">
        <ele>757.952</ele>
        <time>2019-06-16T12:09:32Z</time>
      </trkpt>
      <trkpt lat="38.655549" lon="-0.464411">
        <ele>758.267</ele>
        <time>2019-06-16T12:09:33Z</time>
      </trkpt>
      <trkpt lat="38.655528" lon="-0.464498">
        <ele>757.653</ele>
        <time>2019-06-16T12:09:35Z</time>
      </trkpt>
      <trkpt lat="38.655523" lon="-0.464561">
        <ele>757.104</ele>
        <time>2019-06-16T12:09:36Z</time>
      </trkpt>
      <trkpt lat="38.655458" lon="-0.464580">
        <ele>756.714</ele>
        <time>2019-06-16T12:09:37Z</time>
      </trkpt>
      <trkpt lat="38.655339" lon="-0.464598">
        <ele>756.008</ele>
        <time>2019-06-16T12:09:39Z</time>
      </trkpt>
      <trkpt lat="38.655277" lon="-0.464630">
        <ele>755.068</ele>
        <time>2019-06-16T12:09:40Z</time>
      </trkpt>
      <trkpt lat="38.655218" lon="-0.464690">
        <ele>755.232</ele>
        <time>2019-06-16T12:09:42Z</time>
      </trkpt>
      <trkpt lat="38.655164" lon="-0.464773">
        <ele>755.011</ele>
        <time>2019-06-16T12:09:44Z</time>
      </trkpt>
      <trkpt lat="38.655090" lon="-0.464774">
        <ele>756.824</ele>
        <time>2019-06-16T12:09:45Z</time>
      </trkpt>
      <trkpt lat="38.655048" lon="-0.464850">
        <ele>756.556</ele>
        <time>2019-06-16T12:09:47Z</time>
      </trkpt>
      <trkpt lat="38.654991" lon="-0.464912">
        <ele>756.893</ele>
        <time>2019-06-16T12:09:49Z</time>
      </trkpt>
      <trkpt lat="38.654925" lon="-0.464935">
        <ele>757.972</ele>
        <time>2019-06-16T12:09:50Z</time>
      </trkpt>
      <trkpt lat="38.654867" lon="-0.464974">
        <ele>758.447</ele>
        <time>2019-06-16T12:09:52Z</time>
      </trkpt>
      <trkpt lat="38.654820" lon="-0.464981">
        <ele>759.337</ele>
        <time>2019-06-16T12:09:53Z</time>
      </trkpt>
      <trkpt lat="38.654742" lon="-0.465025">
        <ele>760.649</ele>
        <time>2019-06-16T12:09:55Z</time>
      </trkpt>
      <trkpt lat="38.654674" lon="-0.465054">
        <ele>761.013</ele>
        <time>2019-06-16T12:09:57Z</time>
      </trkpt>
      <trkpt lat="38.654625" lon="-0.465092">
        <ele>761.008</ele>
        <time>2019-06-16T12:10:01Z</time>
      </trkpt>
      <trkpt lat="38.654561" lon="-0.465139">
        <ele>761.066</ele>
        <time>2019-06-16T12:10:04Z</time>
      </trkpt>
      <trkpt lat="38.654419" lon="-0.465186">
        <ele>760.770</ele>
        <time>2019-06-16T12:10:05Z</time>
      </trkpt>
      <trkpt lat="38.654307" lon="-0.465218">
        <ele>759.519</ele>
        <time>2019-06-16T12:10:06Z</time>
      </trkpt>
      <trkpt lat="38.654236" lon="-0.465239">
        <ele>758.722</ele>
        <time>2019-06-16T12:10:08Z</time>
      </trkpt>
      <trkpt lat="38.654181" lon="-0.465237">
        <ele>758.234</ele>
        <time>2019-06-16T12:10:09Z</time>
      </trkpt>
      <trkpt lat="38.654095" lon="-0.465254">
        <ele>759.091</ele>
        <time>2019-06-16T12:10:11Z</time>
      </trkpt>
      <trkpt lat="38.654047" lon="-0.465270">
        <ele>759.710</ele>
        <time>2019-06-16T12:10:12Z</time>
      </trkpt>
      <trkpt lat="38.653994" lon="-0.465278">
        <ele>760.545</ele>
        <time>2019-06-16T12:10:13Z</time>
      </trkpt>
      <trkpt lat="38.653947" lon="-0.465290">
        <ele>761.191</ele>
        <time>2019-06-16T12:10:14Z</time>
      </trkpt>
      <trkpt lat="38.653862" lon="-0.465314">
        <ele>761.981</ele>
        <time>2019-06-16T12:10:16Z</time>
      </trkpt>
      <trkpt lat="38.653783" lon="-0.465327">
        <ele>761.819</ele>
        <time>2019-06-16T12:10:18Z</time>
      </trkpt>
      <trkpt lat="38.653706" lon="-0.465361">
        <ele>761.508</ele>
        <time>2019-06-16T12:10:20Z</time>
      </trkpt>
      <trkpt lat="38.653652" lon="-0.465346">
        <ele>761.592</ele>
        <time>2019-06-16T12:10:21Z</time>
      </trkpt>
      <trkpt lat="38.653611" lon="-0.465372">
        <ele>761.316</ele>
        <time>2019-06-16T12:10:22Z</time>
      </trkpt>
      <trkpt lat="38.653560" lon="-0.465381">
        <ele>761.225</ele>
        <time>2019-06-16T12:10:24Z</time>
      </trkpt>
      <trkpt lat="38.653512" lon="-0.465383">
        <ele>761.288</ele>
        <time>2019-06-16T12:10:27Z</time>
      </trkpt>
      <trkpt lat="38.653450" lon="-0.465394">
        <ele>761.140</ele>
        <time>2019-06-16T12:10:31Z</time>
      </trkpt>
      <trkpt lat="38.653382" lon="-0.465410">
        <ele>761.087</ele>
        <time>2019-06-16T12:10:34Z</time>
      </trkpt>
      <trkpt lat="38.653332" lon="-0.465424">
        <ele>761.056</ele>
        <time>2019-06-16T12:10:36Z</time>
      </trkpt>
      <trkpt lat="38.653277" lon="-0.465441">
        <ele>761.551</ele>
        <time>2019-06-16T12:10:38Z</time>
      </trkpt>
      <trkpt lat="38.653162" lon="-0.465477">
        <ele>762.799</ele>
        <time>2019-06-16T12:10:39Z</time>
      </trkpt>
      <trkpt lat="38.653101" lon="-0.465479">
        <ele>763.307</ele>
        <time>2019-06-16T12:10:41Z</time>
      </trkpt>
      <trkpt lat="38.653038" lon="-0.465490">
        <ele>764.027</ele>
        <time>2019-06-16T12:10:43Z</time>
      </trkpt>
      <trkpt lat="38.652972" lon="-0.465497">
        <ele>764.808</ele>
        <time>2019-06-16T12:10:45Z</time>
      </trkpt>
      <trkpt lat="38.652825" lon="-0.465514">
        <ele>766.882</ele>
        <time>2019-06-16T12:10:47Z</time>
      </trkpt>
      <trkpt lat="38.652781" lon="-0.465541">
        <ele>767.726</ele>
        <time>2019-06-16T12:10:51Z</time>
      </trkpt>
      <trkpt lat="38.652727" lon="-0.465552">
        <ele>768.745</ele>
        <time>2019-06-16T12:10:54Z</time>
      </trkpt>
      <trkpt lat="38.652643" lon="-0.465582">
        <ele>770.358</ele>
        <time>2019-06-16T12:10:56Z</time>
      </trkpt>
      <trkpt lat="38.652561" lon="-0.465600">
        <ele>771.520</ele>
        <time>2019-06-16T12:10:58Z</time>
      </trkpt>
      <trkpt lat="38.652482" lon="-0.465609">
        <ele>772.487</ele>
        <time>2019-06-16T12:11:00Z</time>
      </trkpt>
      <trkpt lat="38.652316" lon="-0.465642">
        <ele>772.616</ele>
        <time>2019-06-16T12:11:02Z</time>
      </trkpt>
      <trkpt lat="38.652260" lon="-0.465636">
        <ele>772.661</ele>
        <time>2019-06-16T12:11:06Z</time>
      </trkpt>
      <trkpt lat="38.652183" lon="-0.465656">
        <ele>772.735</ele>
        <time>2019-06-16T12:11:09Z</time>
      </trkpt>
      <trkpt lat="38.652135" lon="-0.465662">
        <ele>772.786</ele>
        <time>2019-06-16T12:11:11Z</time>
      </trkpt>
      <trkpt lat="38.652039" lon="-0.465705">
        <ele>773.114</ele>
        <time>2019-06-16T12:11:35Z</time>
      </trkpt>
      <trkpt lat="38.652084" lon="-0.465694">
        <ele>773.008</ele>
        <time>2019-06-16T12:11:41Z</time>
      </trkpt>
      <trkpt lat="38.651671" lon="-0.465798">
        <ele>775.676</ele>
        <time>2019-06-16T12:11:43Z</time>
      </trkpt>
      <trkpt lat="38.651579" lon="-0.465779">
        <ele>775.860</ele>
        <time>2019-06-16T12:11:45Z</time>
      </trkpt>
      <trkpt lat="38.651515" lon="-0.465859">
        <ele>776.729</ele>
        <time>2019-06-16T12:11:47Z</time>
      </trkpt>
      <trkpt lat="38.651457" lon="-0.465868">
        <ele>776.972</ele>
        <time>2019-06-16T12:11:48Z</time>
      </trkpt>
      <trkpt lat="38.651395" lon="-0.465834">
        <ele>777.084</ele>
        <time>2019-06-16T12:11:49Z</time>
      </trkpt>
      <trkpt lat="38.651335" lon="-0.465882">
        <ele>777.171</ele>
        <time>2019-06-16T12:11:50Z</time>
      </trkpt>
      <trkpt lat="38.651257" lon="-0.465881">
        <ele>777.160</ele>
        <time>2019-06-16T12:11:52Z</time>
      </trkpt>
      <trkpt lat="38.651212" lon="-0.465902">
        <ele>777.115</ele>
        <time>2019-06-16T12:11:53Z</time>
      </trkpt>
      <trkpt lat="38.651167" lon="-0.465911">
        <ele>777.111</ele>
        <time>2019-06-16T12:11:54Z</time>
      </trkpt>
      <trkpt lat="38.651123" lon="-0.465945">
        <ele>777.021</ele>
        <time>2019-06-16T12:11:56Z</time>
      </trkpt>
      <trkpt lat="38.651050" lon="-0.466012">
        <ele>777.203</ele>
        <time>2019-06-16T12:11:58Z</time>
      </trkpt>
      <trkpt lat="38.650989" lon="-0.466013">
        <ele>777.308</ele>
        <time>2019-06-16T12:11:59Z</time>
      </trkpt>
      <trkpt lat="38.650932" lon="-0.466007">
        <ele>777.534</ele>
        <time>2019-06-16T12:12:00Z</time>
      </trkpt>
      <trkpt lat="38.650880" lon="-0.466000">
        <ele>777.768</ele>
        <time>2019-06-16T12:12:01Z</time>
      </trkpt>
      <trkpt lat="38.650802" lon="-0.465995">
        <ele>777.827</ele>
        <time>2019-06-16T12:12:03Z</time>
      </trkpt>
      <trkpt lat="38.650727" lon="-0.466039">
        <ele>777.440</ele>
        <time>2019-06-16T12:12:05Z</time>
      </trkpt>
      <trkpt lat="38.650653" lon="-0.466094">
        <ele>777.162</ele>
        <time>2019-06-16T12:12:07Z</time>
      </trkpt>
      <trkpt lat="38.650592" lon="-0.466105">
        <ele>777.079</ele>
        <time>2019-06-16T12:12:08Z</time>
      </trkpt>
      <trkpt lat="38.650512" lon="-0.466139">
        <ele>776.788</ele>
        <time>2019-06-16T12:12:10Z</time>
      </trkpt>
      <trkpt lat="38.650466" lon="-0.466134">
        <ele>776.893</ele>
        <time>2019-06-16T12:12:11Z</time>
      </trkpt>
      <trkpt lat="38.650409" lon="-0.466125">
        <ele>776.965</ele>
        <time>2019-06-16T12:12:12Z</time>
      </trkpt>
      <trkpt lat="38.650346" lon="-0.466122">
        <ele>776.968</ele>
        <time>2019-06-16T12:12:14Z</time>
      </trkpt>
      <trkpt lat="38.650298" lon="-0.466151">
        <ele>776.814</ele>
        <time>2019-06-16T12:12:17Z</time>
      </trkpt>
      <trkpt lat="38.650250" lon="-0.466168">
        <ele>776.808</ele>
        <time>2019-06-16T12:12:19Z</time>
      </trkpt>
      <trkpt lat="38.650202" lon="-0.466184">
        <ele>776.979</ele>
        <time>2019-06-16T12:12:21Z</time>
      </trkpt>
      <trkpt lat="38.650151" lon="-0.466195">
        <ele>777.023</ele>
        <time>2019-06-16T12:12:23Z</time>
      </trkpt>
      <trkpt lat="38.649943" lon="-0.466227">
        <ele>777.362</ele>
        <time>2019-06-16T12:12:24Z</time>
      </trkpt>
      <trkpt lat="38.649844" lon="-0.466259">
        <ele>777.245</ele>
        <time>2019-06-16T12:12:32Z</time>
      </trkpt>
      <trkpt lat="38.649750" lon="-0.466306">
        <ele>777.117</ele>
        <time>2019-06-16T12:12:33Z</time>
      </trkpt>
      <trkpt lat="38.649681" lon="-0.466290">
        <ele>776.824</ele>
        <time>2019-06-16T12:12:34Z</time>
      </trkpt>
      <trkpt lat="38.649637" lon="-0.466306">
        <ele>776.543</ele>
        <time>2019-06-16T12:12:35Z</time>
      </trkpt>
      <trkpt lat="38.649565" lon="-0.466346">
        <ele>776.088</ele>
        <time>2019-06-16T12:12:37Z</time>
      </trkpt>
      <trkpt lat="38.649489" lon="-0.466346">
        <ele>775.543</ele>
        <time>2019-06-16T12:12:39Z</time>
      </trkpt>
      <trkpt lat="38.649441" lon="-0.466370">
        <ele>775.164</ele>
        <time>2019-06-16T12:12:43Z</time>
      </trkpt>
      <trkpt lat="38.648960" lon="-0.466408">
        <ele>775.510</ele>
        <time>2019-06-16T12:12:48Z</time>
      </trkpt>
      <trkpt lat="38.648909" lon="-0.466409">
        <ele>775.608</ele>
        <time>2019-06-16T12:12:50Z</time>
      </trkpt>
      <trkpt lat="38.648846" lon="-0.466420">
        <ele>775.747</ele>
        <time>2019-06-16T12:12:53Z</time>
      </trkpt>
      <trkpt lat="38.648788" lon="-0.466437">
        <ele>775.761</ele>
        <time>2019-06-16T12:12:55Z</time>
      </trkpt>
      <trkpt lat="38.648728" lon="-0.466460">
        <ele>775.660</ele>
        <time>2019-06-16T12:12:57Z</time>
      </trkpt>
      <trkpt lat="38.648651" lon="-0.466460">
        <ele>775.893</ele>
        <time>2019-06-16T12:12:59Z</time>
      </trkpt>
      <trkpt lat="38.648587" lon="-0.466462">
        <ele>775.825</ele>
        <time>2019-06-16T12:13:01Z</time>
      </trkpt>
      <trkpt lat="38.648515" lon="-0.466457">
        <ele>775.222</ele>
        <time>2019-06-16T12:13:03Z</time>
      </trkpt>
      <trkpt lat="38.648451" lon="-0.466470">
        <ele>774.641</ele>
        <time>2019-06-16T12:13:05Z</time>
      </trkpt>
      <trkpt lat="38.648387" lon="-0.466484">
        <ele>774.026</ele>
        <time>2019-06-16T12:13:07Z</time>
      </trkpt>
      <trkpt lat="38.648341" lon="-0.466495">
        <ele>773.732</ele>
        <time>2019-06-16T12:13:09Z</time>
      </trkpt>
      <trkpt lat="38.648280" lon="-0.466511">
        <ele>773.692</ele>
        <time>2019-06-16T12:13:12Z</time>
      </trkpt>
      <trkpt lat="38.648219" lon="-0.466527">
        <ele>773.511</ele>
        <time>2019-06-16T12:13:15Z</time>
      </trkpt>
      <trkpt lat="38.648169" lon="-0.466539">
        <ele>773.408</ele>
        <time>2019-06-16T12:13:17Z</time>
      </trkpt>
      <trkpt lat="38.648114" lon="-0.466557">
        <ele>773.296</ele>
        <time>2019-06-16T12:13:19Z</time>
      </trkpt>
      <trkpt lat="38.648056" lon="-0.466581">
        <ele>772.990</ele>
        <time>2019-06-16T12:13:21Z</time>
      </trkpt>
      <trkpt lat="38.647993" lon="-0.466599">
        <ele>773.079</ele>
        <time>2019-06-16T12:13:23Z</time>
      </trkpt>
      <trkpt lat="38.647924" lon="-0.466613">
        <ele>773.152</ele>
        <time>2019-06-16T12:13:25Z</time>
      </trkpt>
      <trkpt lat="38.647860" lon="-0.466627">
        <ele>773.214</ele>
        <time>2019-06-16T12:13:27Z</time>
      </trkpt>
      <trkpt lat="38.647590" lon="-0.466511">
        <ele>774.581</ele>
        <time>2019-06-16T12:13:29Z</time>
      </trkpt>
      <trkpt lat="38.647513" lon="-0.466488">
        <ele>774.350</ele>
        <time>2019-06-16T12:13:30Z</time>
      </trkpt>
      <trkpt lat="38.647447" lon="-0.466488">
        <ele>773.945</ele>
        <time>2019-06-16T12:13:32Z</time>
      </trkpt>
      <trkpt lat="38.647384" lon="-0.466477">
        <ele>773.421</ele>
        <time>2019-06-16T12:13:33Z</time>
      </trkpt>
      <trkpt lat="38.647338" lon="-0.466518">
        <ele>772.941</ele>
        <time>2019-06-16T12:13:34Z</time>
      </trkpt>
      <trkpt lat="38.647292" lon="-0.466543">
        <ele>772.505</ele>
        <time>2019-06-16T12:13:36Z</time>
      </trkpt>
      <trkpt lat="38.647234" lon="-0.466527">
        <ele>772.108</ele>
        <time>2019-06-16T12:13:39Z</time>
      </trkpt>
      <trkpt lat="38.646928" lon="-0.466566">
        <ele>773.875</ele>
        <time>2019-06-16T12:13:45Z</time>
      </trkpt>
      <trkpt lat="38.646828" lon="-0.466542">
        <ele>774.859</ele>
        <time>2019-06-16T12:13:54Z</time>
      </trkpt>
      <trkpt lat="38.646735" lon="-0.466575">
        <ele>775.738</ele>
        <time>2019-06-16T12:13:55Z</time>
      </trkpt>
      <trkpt lat="38.646616" lon="-0.466573">
        <ele>777.061</ele>
        <time>2019-06-16T12:13:56Z</time>
      </trkpt>
      <trkpt lat="38.646521" lon="-0.466601">
        <ele>778.113</ele>
        <time>2019-06-16T12:13:58Z</time>
      </trkpt>
      <trkpt lat="38.646474" lon="-0.466553">
        <ele>779.190</ele>
        <time>2019-06-16T12:14:00Z</time>
      </trkpt>
      <trkpt lat="38.646389" lon="-0.466538">
        <ele>780.499</ele>
        <time>2019-06-16T12:14:02Z</time>
      </trkpt>
      <trkpt lat="38.646316" lon="-0.466519">
        <ele>781.544</ele>
        <time>2019-06-16T12:14:03Z</time>
      </trkpt>
      <trkpt lat="38.646267" lon="-0.466504">
        <ele>782.232</ele>
        <time>2019-06-16T12:14:06Z</time>
      </trkpt>
      <trkpt lat="38.646214" lon="-0.466527">
        <ele>782.792</ele>
        <time>2019-06-16T12:14:08Z</time>
      </trkpt>
      <trkpt lat="38.646170" lon="-0.466546">
        <ele>783.211</ele>
        <time>2019-06-16T12:14:11Z</time>
      </trkpt>
      <trkpt lat="38.646096" lon="-0.466553">
        <ele>784.008</ele>
        <time>2019-06-16T12:14:13Z</time>
      </trkpt>
      <trkpt lat="38.646040" lon="-0.466559">
        <ele>784.286</ele>
        <time>2019-06-16T12:14:14Z</time>
      </trkpt>
      <trkpt lat="38.645992" lon="-0.466566">
        <ele>784.350</ele>
        <time>2019-06-16T12:14:15Z</time>
      </trkpt>
      <trkpt lat="38.645941" lon="-0.466578">
        <ele>784.439</ele>
        <time>2019-06-16T12:14:16Z</time>
      </trkpt>
      <trkpt lat="38.645812" lon="-0.466595">
        <ele>784.772</ele>
        <time>2019-06-16T12:14:17Z</time>
      </trkpt>
      <trkpt lat="38.645746" lon="-0.466629">
        <ele>784.564</ele>
        <time>2019-06-16T12:14:19Z</time>
      </trkpt>
      <trkpt lat="38.645746" lon="-0.466629">
        <ele>784.571</ele>
        <time>2019-06-16T12:14:19Z</time>
      </trkpt>
      <trkpt lat="38.645672" lon="-0.466646">
        <ele>784.360</ele>
        <time>2019-06-16T12:14:21Z</time>
      </trkpt>
      <trkpt lat="38.645672" lon="-0.466646">
        <ele>784.375</ele>
        <time>2019-06-16T12:14:21Z</time>
      </trkpt>
      <trkpt lat="38.645610" lon="-0.466690">
        <ele>784.111</ele>
        <time>2019-06-16T12:14:25Z</time>
      </trkpt>
      <trkpt lat="38.645610" lon="-0.466690">
        <ele>784.121</ele>
        <time>2019-06-16T12:14:25Z</time>
      </trkpt>
      <trkpt lat="38.645610" lon="-0.466690">
        <ele>784.103</ele>
        <time>2019-06-16T12:14:25Z</time>
      </trkpt>
      <trkpt lat="38.645610" lon="-0.466690">
        <ele>784.108</ele>
        <time>2019-06-16T12:14:25Z</time>
      </trkpt>
      <trkpt lat="38.645446" lon="-0.466778">
        <ele>784.014</ele>
        <time>2019-06-16T12:14:29Z</time>
      </trkpt>
      <trkpt lat="38.645446" lon="-0.466778">
        <ele>784.068</ele>
        <time>2019-06-16T12:14:29Z</time>
      </trkpt>
      <trkpt lat="38.645446" lon="-0.466778">
        <ele>784.067</ele>
        <time>2019-06-16T12:14:29Z</time>
      </trkpt>
      <trkpt lat="38.645446" lon="-0.466778">
        <ele>784.010</ele>
        <time>2019-06-16T12:14:29Z</time>
      </trkpt>
      <trkpt lat="38.645226" lon="-0.466889">
        <ele>784.472</ele>
        <time>2019-06-16T12:14:34Z</time>
      </trkpt>
      <trkpt lat="38.645226" lon="-0.466889">
        <ele>784.429</ele>
        <time>2019-06-16T12:14:34Z</time>
      </trkpt>
      <trkpt lat="38.645226" lon="-0.466889">
        <ele>784.498</ele>
        <time>2019-06-16T12:14:34Z</time>
      </trkpt>
      <trkpt lat="38.645226" lon="-0.466889">
        <ele>784.423</ele>
        <time>2019-06-16T12:14:34Z</time>
      </trkpt>
      <trkpt lat="38.645226" lon="-0.466889">
        <ele>784.456</ele>
        <time>2019-06-16T12:14:34Z</time>
      </trkpt>
      <trkpt lat="38.645098" lon="-0.466986">
        <ele>784.359</ele>
        <time>2019-06-16T12:14:40Z</time>
      </trkpt>
      <trkpt lat="38.645098" lon="-0.466986">
        <ele>784.314</ele>
        <time>2019-06-16T12:14:40Z</time>
      </trkpt>
      <trkpt lat="38.645098" lon="-0.466986">
        <ele>784.308</ele>
        <time>2019-06-16T12:14:40Z</time>
      </trkpt>
      <trkpt lat="38.645098" lon="-0.466986">
        <ele>784.348</ele>
        <time>2019-06-16T12:14:40Z</time>
      </trkpt>
      <trkpt lat="38.645098" lon="-0.466986">
        <ele>784.382</ele>
        <time>2019-06-16T12:14:40Z</time>
      </trkpt>
      <trkpt lat="38.645098" lon="-0.466986">
        <ele>784.321</ele>
        <time>2019-06-16T12:14:40Z</time>
      </trkpt>
      <trkpt lat="38.644901" lon="-0.467203">
        <ele>783.144</ele>
        <time>2019-06-16T12:14:46Z</time>
      </trkpt>
      <trkpt lat="38.644901" lon="-0.467203">
        <ele>783.196</ele>
        <time>2019-06-16T12:14:46Z</time>
      </trkpt>
      <trkpt lat="38.644901" lon="-0.467203">
        <ele>783.123</ele>
        <time>2019-06-16T12:14:46Z</time>
      </trkpt>
      <trkpt lat="38.644901" lon="-0.467203">
        <ele>783.192</ele>
        <time>2019-06-16T12:14:46Z</time>
      </trkpt>
      <trkpt lat="38.644901" lon="-0.467203">
        <ele>783.197</ele>
        <time>2019-06-16T12:14:46Z</time>
      </trkpt>
      <trkpt lat="38.644901" lon="-0.467203">
        <ele>783.114</ele>
        <time>2019-06-16T12:14:46Z</time>
      </trkpt>
      <trkpt lat="38.644633" lon="-0.467355">
        <ele>782.854</ele>
        <time>2019-06-16T12:14:53Z</time>
      </trkpt>
      <trkpt lat="38.644633" lon="-0.467355">
        <ele>782.809</ele>
        <time>2019-06-16T12:14:53Z</time>
      </trkpt>
      <trkpt lat="38.644633" lon="-0.467355">
        <ele>782.808</ele>
        <time>2019-06-16T12:14:53Z</time>
      </trkpt>
      <trkpt lat="38.644633" lon="-0.467355">
        <ele>782.884</ele>
        <time>2019-06-16T12:14:53Z</time>
      </trkpt>
      <trkpt lat="38.644633" lon="-0.467355">
        <ele>782.848</ele>
        <time>2019-06-16T12:14:53Z</time>
      </trkpt>
      <trkpt lat="38.644633" lon="-0.467355">
        <ele>782.877</ele>
        <time>2019-06-16T12:14:53Z</time>
      </trkpt>
      <trkpt lat="38.644633" lon="-0.467355">
        <ele>782.810</ele>
        <time>2019-06-16T12:14:53Z</time>
      </trkpt>
      <trkpt lat="38.644468" lon="-0.467530">
        <ele>783.052</ele>
        <time>2019-06-16T12:15:01Z</time>
      </trkpt>
      <trkpt lat="38.644468" lon="-0.467530">
        <ele>783.099</ele>
        <time>2019-06-16T12:15:01Z</time>
      </trkpt>
      <trkpt lat="38.644468" lon="-0.467530">
        <ele>783.048</ele>
        <time>2019-06-16T12:15:01Z</time>
      </trkpt>
      <trkpt lat="38.644468" lon="-0.467530">
        <ele>783.093</ele>
        <time>2019-06-16T12:15:01Z</time>
      </trkpt>
      <trkpt lat="38.644468" lon="-0.467530">
        <ele>783.029</ele>
        <time>2019-06-16T12:15:01Z</time>
      </trkpt>
      <trkpt lat="38.644468" lon="-0.467530">
        <ele>783.000</ele>
        <time>2019-06-16T12:15:01Z</time>
      </trkpt>
      <trkpt lat="38.644468" lon="-0.467530">
        <ele>783.020</ele>
        <time>2019-06-16T12:15:01Z</time>
      </trkpt>
      <trkpt lat="38.644468" lon="-0.467530">
        <ele>783.008</ele>
        <time>2019-06-16T12:15:01Z</time>
      </trkpt>
      <trkpt lat="38.644194" lon="-0.467928">
        <ele>784.145</ele>
        <time>2019-06-16T12:15:10Z</time>
      </trkpt>
      <trkpt lat="38.644194" lon="-0.467928">
        <ele>784.199</ele>
        <time>2019-06-16T12:15:10Z</time>
      </trkpt>
      <trkpt lat="38.644194" lon="-0.467928">
        <ele>784.168</ele>
        <time>2019-06-16T12:15:10Z</time>
      </trkpt>
      <trkpt lat="38.644194" lon="-0.467928">
        <ele>784.131</ele>
        <time>2019-06-16T12:15:10Z</time>
      </trkpt>
      <trkpt lat="38.644194" lon="-0.467928">
        <ele>784.113</ele>
        <time>2019-06-16T12:15:10Z</time>
      </trkpt>
      <trkpt lat="38.644194" lon="-0.467928">
        <ele>784.130</ele>
        <time>2019-06-16T12:15:10Z</time>
      </trkpt>
      <trkpt lat="38.644194" lon="-0.467928">
        <ele>784.129</ele>
        <time>2019-06-16T12:15:10Z</time>
      </trkpt>
      <trkpt lat="38.644194" lon="-0.467928">
        <ele>784.144</ele>
        <time>2019-06-16T12:15:10Z</time>
      </trkpt>
      <trkpt lat="38.644194" lon="-0.467928">
        <ele>784.118</ele>
        <time>2019-06-16T12:15:10Z</time>
      </trkpt>
      <trkpt lat="38.644087" lon="-0.468220">
        <ele>784.998</ele>
        <time>2019-06-16T12:15:20Z</time>
      </trkpt>
      <trkpt lat="38.644087" lon="-0.468220">
        <ele>784.917</ele>
        <time>2019-06-16T12:15:20Z</time>
      </trkpt>
      <trkpt lat="38.644087" lon="-0.468220">
        <ele>784.908</ele>
        <time>2019-06-16T12:15:20Z</time>
      </trkpt>
      <trkpt lat="38.644087" lon="-0.468220">
        <ele>784.934</ele>
        <time>2019-06-16T12:15:20Z</time>
      </trkpt>
      <trkpt lat="38.644087" lon="-0.468220">
        <ele>784.968</ele>
        <time>2019-06-16T12:15:20Z</time>
      </trkpt>
      <trkpt lat="38.644087" lon="-0.468220">
        <ele>784.967</ele>
        <time>2019-06-16T12:15:20Z</time>
      </trkpt>
      <trkpt lat="38.644087" lon="-0.468220">
        <ele>784.970</ele>
        <time>2019-06-16T12:15:20Z</time>
      </trkpt>
      <trkpt lat="38.644087" lon="-0.468220">
        <ele>784.992</ele>
        <time>2019-06-16T12:15:20Z</time>
      </trkpt>
      <trkpt lat="38.644087" lon="-0.468220">
        <ele>784.969</ele>
        <time>2019-06-16T12:15:20Z</time>
      </trkpt>
      <trkpt lat="38.644087" lon="-0.468220">
        <ele>784.968</ele>
        <time>2019-06-16T12:15:20Z</time>
      </trkpt>
      <trkpt lat="38.643887" lon="-0.468619">
        <ele>787.063</ele>
        <time>2019-06-16T12:15:31Z</time>
      </trkpt>
      <trkpt lat="38.643887" lon="-0.468619">
        <ele>787.081</ele>
        <time>2019-06-16T12:15:31Z</time>
      </trkpt>
      <trkpt lat="38.643887" lon="-0.468619">
        <ele>787.061</ele>
        <time>2019-06-16T12:15:31Z</time>
      </trkpt>
      <trkpt lat="38.643887" lon="-0.468619">
        <ele>787.017</ele>
        <time>2019-06-16T12:15:31Z</time>
      </trkpt>
      <trkpt lat="38.643887" lon="-0.468619">
        <ele>787.008</ele>
        <time>2019-06-16T12:15:31Z</time>
      </trkpt>
      <trkpt lat="38.643887" lon="-0.468619">
        <ele>787.051</ele>
        <time>2019-06-16T12:15:31Z</time>
      </trkpt>
      <trkpt lat="38.643887" lon="-0.468619">
        <ele>787.025</ele>
        <time>2019-06-16T12:15:31Z</time>
      </trkpt>
      <trkpt lat="38.643887" lon="-0.468619">
        <ele>787.034</ele>
        <time>2019-06-16T12:15:31Z</time>
      </trkpt>
      <trkpt lat="38.643887" lon="-0.468619">
        <ele>787.057</ele>
        <time>2019-06-16T12:15:31Z</time>
      </trkpt>
      <trkpt lat="38.643887" lon="-0.468619">
        <ele>787.099</ele>
        <time>2019-06-16T12:15:31Z</time>
      </trkpt>
      <trkpt lat="38.643887" lon="-0.468619">
        <ele>787.036</ele>
        <time>2019-06-16T12:15:31Z</time>
      </trkpt>
      <trkpt lat="38.643744" lon="-0.469053">
        <ele>787.495</ele>
        <time>2019-06-16T12:15:43Z</time>
      </trkpt>
      <trkpt lat="38.643744" lon="-0.469053">
        <ele>787.490</ele>
        <time>2019-06-16T12:15:43Z</time>
      </trkpt>
      <trkpt lat="38.643744" lon="-0.469053">
        <ele>787.473</ele>
        <time>2019-06-16T12:15:43Z</time>
      </trkpt>
      <trkpt lat="38.643744" lon="-0.469053">
        <ele>787.485</ele>
        <time>2019-06-16T12:15:43Z</time>
      </trkpt>
      <trkpt lat="38.643744" lon="-0.469053">
        <ele>787.413</ele>
        <time>2019-06-16T12:15:43Z</time>
      </trkpt>
      <trkpt lat="38.643744" lon="-0.469053">
        <ele>787.408</ele>
        <time>2019-06-16T12:15:43Z</time>
      </trkpt>
      <trkpt lat="38.643744" lon="-0.469053">
        <ele>787.450</ele>
        <time>2019-06-16T12:15:43Z</time>
      </trkpt>
      <trkpt lat="38.643744" lon="-0.469053">
        <ele>787.424</ele>
        <time>2019-06-16T12:15:43Z</time>
      </trkpt>
      <trkpt lat="38.643744" lon="-0.469053">
        <ele>787.493</ele>
        <time>2019-06-16T12:15:43Z</time>
      </trkpt>
      <trkpt lat="38.643744" lon="-0.469053">
        <ele>787.486</ele>
        <time>2019-06-16T12:15:43Z</time>
      </trkpt>
      <trkpt lat="38.643744" lon="-0.469053">
        <ele>787.458</ele>
        <time>2019-06-16T12:15:43Z</time>
      </trkpt>
      <trkpt lat="38.643744" lon="-0.469053">
        <ele>787.485</ele>
        <time>2019-06-16T12:15:43Z</time>
      </trkpt>
      <trkpt lat="38.643658" lon="-0.469502">
        <ele>786.984</ele>
        <time>2019-06-16T12:15:56Z</time>
      </trkpt>
      <trkpt lat="38.643658" lon="-0.469502">
        <ele>786.969</ele>
        <time>2019-06-16T12:15:56Z</time>
      </trkpt>
      <trkpt lat="38.643658" lon="-0.469502">
        <ele>786.932</ele>
        <time>2019-06-16T12:15:56Z</time>
      </trkpt>
      <trkpt lat="38.643658" lon="-0.469502">
        <ele>786.992</ele>
        <time>2019-06-16T12:15:56Z</time>
      </trkpt>
      <trkpt lat="38.643658" lon="-0.469502">
        <ele>786.911</ele>
        <time>2019-06-16T12:15:56Z</time>
      </trkpt>
      <trkpt lat="38.643658" lon="-0.469502">
        <ele>786.908</ele>
        <time>2019-06-16T12:15:56Z</time>
      </trkpt>
      <trkpt lat="38.643658" lon="-0.469502">
        <ele>786.976</ele>
        <time>2019-06-16T12:15:56Z</time>
      </trkpt>
      <trkpt lat="38.643658" lon="-0.469502">
        <ele>786.970</ele>
        <time>2019-06-16T12:15:56Z</time>
      </trkpt>
      <trkpt lat="38.643658" lon="-0.469502">
        <ele>786.939</ele>
        <time>2019-06-16T12:15:56Z</time>
      </trkpt>
      <trkpt lat="38.643658" lon="-0.469502">
        <ele>786.942</ele>
        <time>2019-06-16T12:15:56Z</time>
      </trkpt>
      <trkpt lat="38.643658" lon="-0.469502">
        <ele>786.954</ele>
        <time>2019-06-16T12:15:56Z</time>
      </trkpt>
      <trkpt lat="38.643658" lon="-0.469502">
        <ele>786.911</ele>
        <time>2019-06-16T12:15:56Z</time>
      </trkpt>
      <trkpt lat="38.643658" lon="-0.469502">
        <ele>786.910</ele>
        <time>2019-06-16T12:15:56Z</time>
      </trkpt>
      <trkpt lat="38.643615" lon="-0.470138">
        <ele>789.525</ele>
        <time>2019-06-16T12:16:11Z</time>
      </trkpt>
      <trkpt lat="38.643615" lon="-0.470138">
        <ele>789.593</ele>
        <time>2019-06-16T12:16:11Z</time>
      </trkpt>
      <trkpt lat="38.643615" lon="-0.470138">
        <ele>789.565</ele>
        <time>2019-06-16T12:16:11Z</time>
      </trkpt>
      <trkpt lat="38.643615" lon="-0.470138">
        <ele>789.521</ele>
        <time>2019-06-16T12:16:11Z</time>
      </trkpt>
      <trkpt lat="38.643615" lon="-0.470138">
        <ele>789.508</ele>
        <time>2019-06-16T12:16:11Z</time>
      </trkpt>
      <trkpt lat="38.643615" lon="-0.470138">
        <ele>789.582</ele>
        <time>2019-06-16T12:16:11Z</time>
      </trkpt>
      <trkpt lat="38.643615" lon="-0.470138">
        <ele>789.526</ele>
        <time>2019-06-16T12:16:11Z</time>
      </trkpt>
      <trkpt lat="38.643615" lon="-0.470138">
        <ele>789.565</ele>
        <time>2019-06-16T12:16:11Z</time>
      </trkpt>
      <trkpt lat="38.643615" lon="-0.470138">
        <ele>789.568</ele>
        <time>2019-06-16T12:16:11Z</time>
      </trkpt>
      <trkpt lat="38.643615" lon="-0.470138">
        <ele>789.520</ele>
        <time>2019-06-16T12:16:11Z</time>
      </trkpt>
      <trkpt lat="38.643615" lon="-0.470138">
        <ele>789.557</ele>
        <time>2019-06-16T12:16:11Z</time>
      </trkpt>
      <trkpt lat="38.643615" lon="-0.470138">
        <ele>789.536</ele>
        <time>2019-06-16T12:16:11Z</time>
      </trkpt>
      <trkpt lat="38.643615" lon="-0.470138">
        <ele>789.561</ele>
        <time>2019-06-16T12:16:11Z</time>
      </trkpt>
      <trkpt lat="38.643615" lon="-0.470138">
        <ele>789.567</ele>
        <time>2019-06-16T12:16:11Z</time>
      </trkpt>
      <trkpt lat="38.643615" lon="-0.470138">
        <ele>789.581</ele>
        <time>2019-06-16T12:16:11Z</time>
      </trkpt>
      <trkpt lat="38.643601" lon="-0.470208">
        <ele>789.819</ele>
        <time>2019-06-16T12:16:46Z</time>
      </trkpt>
      <trkpt lat="38.643593" lon="-0.470309">
        <ele>790.108</ele>
        <time>2019-06-16T12:16:49Z</time>
      </trkpt>
      <trkpt lat="38.643586" lon="-0.470379">
        <ele>790.149</ele>
        <time>2019-06-16T12:16:51Z</time>
      </trkpt>
      <trkpt lat="38.643577" lon="-0.470449">
        <ele>790.263</ele>
        <time>2019-06-16T12:16:53Z</time>
      </trkpt>
      <trkpt lat="38.643565" lon="-0.470533">
        <ele>790.392</ele>
        <time>2019-06-16T12:16:55Z</time>
      </trkpt>
      <trkpt lat="38.643555" lon="-0.470606">
        <ele>790.485</ele>
        <time>2019-06-16T12:16:57Z</time>
      </trkpt>
      <trkpt lat="38.643526" lon="-0.470765">
        <ele>790.487</ele>
        <time>2019-06-16T12:16:59Z</time>
      </trkpt>
      <trkpt lat="38.643518" lon="-0.470822">
        <ele>790.364</ele>
        <time>2019-06-16T12:17:01Z</time>
      </trkpt>
      <trkpt lat="38.643508" lon="-0.470960">
        <ele>791.553</ele>
        <time>2019-06-16T12:17:03Z</time>
      </trkpt>
      <trkpt lat="38.643493" lon="-0.471035">
        <ele>792.238</ele>
        <time>2019-06-16T12:17:04Z</time>
      </trkpt>
      <trkpt lat="38.643481" lon="-0.471123">
        <ele>793.011</ele>
        <time>2019-06-16T12:17:06Z</time>
      </trkpt>
      <trkpt lat="38.643450" lon="-0.471214">
        <ele>793.521</ele>
        <time>2019-06-16T12:17:08Z</time>
      </trkpt>
      <trkpt lat="38.643447" lon="-0.471276">
        <ele>793.803</ele>
        <time>2019-06-16T12:17:09Z</time>
      </trkpt>
      <trkpt lat="38.643435" lon="-0.471366">
        <ele>794.208</ele>
        <time>2019-06-16T12:17:11Z</time>
      </trkpt>
      <trkpt lat="38.643435" lon="-0.471449">
        <ele>794.164</ele>
        <time>2019-06-16T12:17:14Z</time>
      </trkpt>
      <trkpt lat="38.643432" lon="-0.471511">
        <ele>793.928</ele>
        <time>2019-06-16T12:17:16Z</time>
      </trkpt>
      <trkpt lat="38.643406" lon="-0.471617">
        <ele>793.727</ele>
        <time>2019-06-16T12:17:18Z</time>
      </trkpt>
      <trkpt lat="38.643394" lon="-0.471736">
        <ele>793.340</ele>
        <time>2019-06-16T12:17:19Z</time>
      </trkpt>
      <trkpt lat="38.643375" lon="-0.471837">
        <ele>793.132</ele>
        <time>2019-06-16T12:17:20Z</time>
      </trkpt>
      <trkpt lat="38.643358" lon="-0.471942">
        <ele>792.849</ele>
        <time>2019-06-16T12:17:24Z</time>
      </trkpt>
      <trkpt lat="38.643371" lon="-0.472062">
        <ele>793.298</ele>
        <time>2019-06-16T12:17:25Z</time>
      </trkpt>
      <trkpt lat="38.643347" lon="-0.472169">
        <ele>793.773</ele>
        <time>2019-06-16T12:17:27Z</time>
      </trkpt>
      <trkpt lat="38.643341" lon="-0.472243">
        <ele>794.147</ele>
        <time>2019-06-16T12:17:28Z</time>
      </trkpt>
      <trkpt lat="38.643336" lon="-0.472302">
        <ele>794.629</ele>
        <time>2019-06-16T12:17:29Z</time>
      </trkpt>
      <trkpt lat="38.643324" lon="-0.472364">
        <ele>795.021</ele>
        <time>2019-06-16T12:17:30Z</time>
      </trkpt>
      <trkpt lat="38.643318" lon="-0.472429">
        <ele>795.508</ele>
        <time>2019-06-16T12:17:31Z</time>
      </trkpt>
      <trkpt lat="38.643304" lon="-0.472556">
        <ele>796.247</ele>
        <time>2019-06-16T12:17:33Z</time>
      </trkpt>
      <trkpt lat="38.643304" lon="-0.472556">
        <ele>796.211</ele>
        <time>2019-06-16T12:17:33Z</time>
      </trkpt>
      <trkpt lat="38.643277" lon="-0.472677">
        <ele>796.690</ele>
        <time>2019-06-16T12:17:35Z</time>
      </trkpt>
      <trkpt lat="38.643277" lon="-0.472677">
        <ele>796.633</ele>
        <time>2019-06-16T12:17:35Z</time>
      </trkpt>
      <trkpt lat="38.643260" lon="-0.472852">
        <ele>797.225</ele>
        <time>2019-06-16T12:17:38Z</time>
      </trkpt>
      <trkpt lat="38.643260" lon="-0.472852">
        <ele>797.232</ele>
        <time>2019-06-16T12:17:38Z</time>
      </trkpt>
      <trkpt lat="38.643260" lon="-0.472852">
        <ele>797.231</ele>
        <time>2019-06-16T12:17:38Z</time>
      </trkpt>
      <trkpt lat="38.643236" lon="-0.473010">
        <ele>797.576</ele>
        <time>2019-06-16T12:17:41Z</time>
      </trkpt>
      <trkpt lat="38.643236" lon="-0.473010">
        <ele>797.551</ele>
        <time>2019-06-16T12:17:41Z</time>
      </trkpt>
      <trkpt lat="38.643236" lon="-0.473010">
        <ele>797.501</ele>
        <time>2019-06-16T12:17:41Z</time>
      </trkpt>
      <trkpt lat="38.643232" lon="-0.473097">
        <ele>797.511</ele>
        <time>2019-06-16T12:17:45Z</time>
      </trkpt>
      <trkpt lat="38.643194" lon="-0.473245">
        <ele>796.808</ele>
        <time>2019-06-16T12:17:47Z</time>
      </trkpt>
      <trkpt lat="38.643184" lon="-0.473308">
        <ele>796.598</ele>
        <time>2019-06-16T12:17:48Z</time>
      </trkpt>
      <trkpt lat="38.643169" lon="-0.473490">
        <ele>796.372</ele>
        <time>2019-06-16T12:17:50Z</time>
      </trkpt>
      <trkpt lat="38.643149" lon="-0.473594">
        <ele>796.381</ele>
        <time>2019-06-16T12:17:52Z</time>
      </trkpt>
      <trkpt lat="38.643134" lon="-0.473685">
        <ele>796.674</ele>
        <time>2019-06-16T12:17:54Z</time>
      </trkpt>
      <trkpt lat="38.643102" lon="-0.473771">
        <ele>797.016</ele>
        <time>2019-06-16T12:17:56Z</time>
      </trkpt>
      <trkpt lat="38.643102" lon="-0.473830">
        <ele>797.343</ele>
        <time>2019-06-16T12:17:57Z</time>
      </trkpt>
      <trkpt lat="38.643101" lon="-0.473926">
        <ele>797.722</ele>
        <time>2019-06-16T12:17:59Z</time>
      </trkpt>
      <trkpt lat="38.643087" lon="-0.473991">
        <ele>797.897</ele>
        <time>2019-06-16T12:18:00Z</time>
      </trkpt>
      <trkpt lat="38.643084" lon="-0.474065">
        <ele>797.885</ele>
        <time>2019-06-16T12:18:03Z</time>
      </trkpt>
      <trkpt lat="38.643078" lon="-0.474134">
        <ele>797.889</ele>
        <time>2019-06-16T12:18:05Z</time>
      </trkpt>
      <trkpt lat="38.643073" lon="-0.474197">
        <ele>797.917</ele>
        <time>2019-06-16T12:18:07Z</time>
      </trkpt>
      <trkpt lat="38.643066" lon="-0.474300">
        <ele>797.908</ele>
        <time>2019-06-16T12:18:09Z</time>
      </trkpt>
      <trkpt lat="38.643060" lon="-0.474363">
        <ele>798.071</ele>
        <time>2019-06-16T12:18:10Z</time>
      </trkpt>
      <trkpt lat="38.643035" lon="-0.474433">
        <ele>798.235</ele>
        <time>2019-06-16T12:18:12Z</time>
      </trkpt>
      <trkpt lat="38.643034" lon="-0.474516">
        <ele>798.524</ele>
        <time>2019-06-16T12:18:15Z</time>
      </trkpt>
      <trkpt lat="38.643027" lon="-0.474580">
        <ele>798.877</ele>
        <time>2019-06-16T12:18:19Z</time>
      </trkpt>
      <trkpt lat="38.643028" lon="-0.474641">
        <ele>799.059</ele>
        <time>2019-06-16T12:18:57Z</time>
      </trkpt>
      <trkpt lat="38.643017" lon="-0.474705">
        <ele>799.426</ele>
        <time>2019-06-16T12:19:01Z</time>
      </trkpt>
      <trkpt lat="38.643021" lon="-0.474767">
        <ele>799.885</ele>
        <time>2019-06-16T12:19:05Z</time>
      </trkpt>
      <trkpt lat="38.643029" lon="-0.474841">
        <ele>800.470</ele>
        <time>2019-06-16T12:19:10Z</time>
      </trkpt>
      <trkpt lat="38.643029" lon="-0.474904">
        <ele>801.161</ele>
        <time>2019-06-16T12:19:15Z</time>
      </trkpt>
      <trkpt lat="38.643032" lon="-0.474974">
        <ele>801.721</ele>
        <time>2019-06-16T12:19:20Z</time>
      </trkpt>
      <trkpt lat="38.643014" lon="-0.475034">
        <ele>802.113</ele>
        <time>2019-06-16T12:19:42Z</time>
      </trkpt>
      <trkpt lat="38.642993" lon="-0.475110">
        <ele>802.508</ele>
        <time>2019-06-16T12:19:46Z</time>
      </trkpt>
      <trkpt lat="38.642976" lon="-0.475185">
        <ele>802.919</ele>
        <time>2019-06-16T12:19:48Z</time>
      </trkpt>
      <trkpt lat="38.642954" lon="-0.475641">
        <ele>804.713</ele>
        <time>2019-06-16T12:19:50Z</time>
      </trkpt>
      <trkpt lat="38.642937" lon="-0.475730">
        <ele>804.852</ele>
        <time>2019-06-16T12:19:52Z</time>
      </trkpt>
      <trkpt lat="38.642935" lon="-0.475808">
        <ele>805.065</ele>
        <time>2019-06-16T12:19:54Z</time>
      </trkpt>
      <trkpt lat="38.642924" lon="-0.475886">
        <ele>804.927</ele>
        <time>2019-06-16T12:19:56Z</time>
      </trkpt>
      <trkpt lat="38.642911" lon="-0.475962">
        <ele>804.814</ele>
        <time>2019-06-16T12:19:58Z</time>
      </trkpt>
      <trkpt lat="38.642900" lon="-0.476022">
        <ele>804.633</ele>
        <time>2019-06-16T12:20:00Z</time>
      </trkpt>
      <trkpt lat="38.642900" lon="-0.476087">
        <ele>804.518</ele>
        <time>2019-06-16T12:20:02Z</time>
      </trkpt>
      <trkpt lat="38.642903" lon="-0.476170">
        <ele>804.171</ele>
        <time>2019-06-16T12:20:04Z</time>
      </trkpt>
      <trkpt lat="38.642897" lon="-0.476256">
        <ele>803.741</ele>
        <time>2019-06-16T12:20:06Z</time>
      </trkpt>
      <trkpt lat="38.642883" lon="-0.476342">
        <ele>803.215</ele>
        <time>2019-06-16T12:20:08Z</time>
      </trkpt>
      <trkpt lat="38.642879" lon="-0.476414">
        <ele>802.908</ele>
        <time>2019-06-16T12:20:10Z</time>
      </trkpt>
      <trkpt lat="38.642877" lon="-0.476472">
        <ele>802.830</ele>
        <time>2019-06-16T12:20:12Z</time>
      </trkpt>
      <trkpt lat="38.642870" lon="-0.476562">
        <ele>802.624</ele>
        <time>2019-06-16T12:20:15Z</time>
      </trkpt>
      <trkpt lat="38.642863" lon="-0.476621">
        <ele>802.583</ele>
        <time>2019-06-16T12:20:17Z</time>
      </trkpt>
      <trkpt lat="38.642853" lon="-0.476687">
        <ele>802.586</ele>
        <time>2019-06-16T12:20:19Z</time>
      </trkpt>
      <trkpt lat="38.642846" lon="-0.476752">
        <ele>802.528</ele>
        <time>2019-06-16T12:20:21Z</time>
      </trkpt>
      <trkpt lat="38.642835" lon="-0.476817">
        <ele>802.685</ele>
        <time>2019-06-16T12:20:24Z</time>
      </trkpt>
      <trkpt lat="38.642821" lon="-0.476907">
        <ele>802.754</ele>
        <time>2019-06-16T12:20:27Z</time>
      </trkpt>
      <trkpt lat="38.642803" lon="-0.476988">
        <ele>802.899</ele>
        <time>2019-06-16T12:20:28Z</time>
      </trkpt>
      <trkpt lat="38.642783" lon="-0.477076">
        <ele>803.048</ele>
        <time>2019-06-16T12:20:29Z</time>
      </trkpt>
      <trkpt lat="38.642765" lon="-0.477156">
        <ele>803.161</ele>
        <time>2019-06-16T12:20:30Z</time>
      </trkpt>
      <trkpt lat="38.642743" lon="-0.477224">
        <ele>803.317</ele>
        <time>2019-06-16T12:20:31Z</time>
      </trkpt>
      <trkpt lat="38.642731" lon="-0.477288">
        <ele>803.808</ele>
        <time>2019-06-16T12:20:32Z</time>
      </trkpt>
      <trkpt lat="38.642686" lon="-0.477463">
        <ele>805.167</ele>
        <time>2019-06-16T12:20:33Z</time>
      </trkpt>
      <trkpt lat="38.642685" lon="-0.477529">
        <ele>805.371</ele>
        <time>2019-06-16T12:20:34Z</time>
      </trkpt>
      <trkpt lat="38.642682" lon="-0.477594">
        <ele>805.320</ele>
        <time>2019-06-16T12:20:35Z</time>
      </trkpt>
      <trkpt lat="38.642672" lon="-0.477652">
        <ele>805.413</ele>
        <time>2019-06-16T12:20:36Z</time>
      </trkpt>
      <trkpt lat="38.642670" lon="-0.477753">
        <ele>805.435</ele>
        <time>2019-06-16T12:20:38Z</time>
      </trkpt>
      <trkpt lat="38.642660" lon="-0.477812">
        <ele>805.412</ele>
        <time>2019-06-16T12:20:39Z</time>
      </trkpt>
      <trkpt lat="38.642657" lon="-0.477872">
        <ele>805.491</ele>
        <time>2019-06-16T12:20:40Z</time>
      </trkpt>
      <trkpt lat="38.642656" lon="-0.477937">
        <ele>805.466</ele>
        <time>2019-06-16T12:20:41Z</time>
      </trkpt>
      <trkpt lat="38.642644" lon="-0.478053">
        <ele>805.534</ele>
        <time>2019-06-16T12:20:43Z</time>
      </trkpt>
      <trkpt lat="38.642639" lon="-0.478111">
        <ele>805.455</ele>
        <time>2019-06-16T12:20:44Z</time>
      </trkpt>
      <trkpt lat="38.642622" lon="-0.478174">
        <ele>805.410</ele>
        <time>2019-06-16T12:20:45Z</time>
      </trkpt>
      <trkpt lat="38.642614" lon="-0.478236">
        <ele>805.308</ele>
        <time>2019-06-16T12:20:46Z</time>
      </trkpt>
      <trkpt lat="38.642592" lon="-0.478400">
        <ele>805.366</ele>
        <time>2019-06-16T12:20:49Z</time>
      </trkpt>
      <trkpt lat="38.642577" lon="-0.478500">
        <ele>805.480</ele>
        <time>2019-06-16T12:20:51Z</time>
      </trkpt>
      <trkpt lat="38.642565" lon="-0.478602">
        <ele>805.579</ele>
        <time>2019-06-16T12:20:53Z</time>
      </trkpt>
      <trkpt lat="38.642563" lon="-0.478671">
        <ele>805.612</ele>
        <time>2019-06-16T12:20:55Z</time>
      </trkpt>
      <trkpt lat="38.642552" lon="-0.478741">
        <ele>805.754</ele>
        <time>2019-06-16T12:20:58Z</time>
      </trkpt>
      <trkpt lat="38.642539" lon="-0.478832">
        <ele>805.821</ele>
        <time>2019-06-16T12:21:01Z</time>
      </trkpt>
      <trkpt lat="38.642528" lon="-0.478904">
        <ele>805.990</ele>
        <time>2019-06-16T12:21:03Z</time>
      </trkpt>
      <trkpt lat="38.642519" lon="-0.478992">
        <ele>805.985</ele>
        <time>2019-06-16T12:21:05Z</time>
      </trkpt>
      <trkpt lat="38.642508" lon="-0.479097">
        <ele>806.033</ele>
        <time>2019-06-16T12:21:07Z</time>
      </trkpt>
      <trkpt lat="38.642495" lon="-0.479185">
        <ele>806.023</ele>
        <time>2019-06-16T12:21:09Z</time>
      </trkpt>
      <trkpt lat="38.642484" lon="-0.479262">
        <ele>806.115</ele>
        <time>2019-06-16T12:21:11Z</time>
      </trkpt>
      <trkpt lat="38.642476" lon="-0.479332">
        <ele>806.108</ele>
        <time>2019-06-16T12:21:13Z</time>
      </trkpt>
      <trkpt lat="38.642466" lon="-0.479397">
        <ele>806.136</ele>
        <time>2019-06-16T12:21:15Z</time>
      </trkpt>
      <trkpt lat="38.642460" lon="-0.479477">
        <ele>806.240</ele>
        <time>2019-06-16T12:21:18Z</time>
      </trkpt>
      <trkpt lat="38.642459" lon="-0.479549">
        <ele>806.549</ele>
        <time>2019-06-16T12:21:21Z</time>
      </trkpt>
      <trkpt lat="38.642456" lon="-0.479615">
        <ele>806.712</ele>
        <time>2019-06-16T12:21:23Z</time>
      </trkpt>
      <trkpt lat="38.642450" lon="-0.479681">
        <ele>806.974</ele>
        <time>2019-06-16T12:21:25Z</time>
      </trkpt>
      <trkpt lat="38.642435" lon="-0.479782">
        <ele>807.011</ele>
        <time>2019-06-16T12:21:28Z</time>
      </trkpt>
      <trkpt lat="38.642406" lon="-0.479975">
        <ele>807.310</ele>
        <time>2019-06-16T12:21:29Z</time>
      </trkpt>
      <trkpt lat="38.642403" lon="-0.480059">
        <ele>807.635</ele>
        <time>2019-06-16T12:21:32Z</time>
      </trkpt>
      <trkpt lat="38.642389" lon="-0.480125">
        <ele>807.978</ele>
        <time>2019-06-16T12:21:34Z</time>
      </trkpt>
      <trkpt lat="38.642367" lon="-0.480286">
        <ele>808.533</ele>
        <time>2019-06-16T12:21:36Z</time>
      </trkpt>
      <trkpt lat="38.642358" lon="-0.480345">
        <ele>808.926</ele>
        <time>2019-06-16T12:21:39Z</time>
      </trkpt>
      <trkpt lat="38.642348" lon="-0.480431">
        <ele>809.408</ele>
        <time>2019-06-16T12:21:42Z</time>
      </trkpt>
      <trkpt lat="38.642341" lon="-0.480501">
        <ele>809.870</ele>
        <time>2019-06-16T12:21:44Z</time>
      </trkpt>
      <trkpt lat="38.642331" lon="-0.480580">
        <ele>810.324</ele>
        <time>2019-06-16T12:21:46Z</time>
      </trkpt>
      <trkpt lat="38.642318" lon="-0.480722">
        <ele>810.763</ele>
        <time>2019-06-16T12:21:47Z</time>
      </trkpt>
      <trkpt lat="38.642324" lon="-0.480801">
        <ele>810.886</ele>
        <time>2019-06-16T12:21:48Z</time>
      </trkpt>
      <trkpt lat="38.642308" lon="-0.480895">
        <ele>811.178</ele>
        <time>2019-06-16T12:21:50Z</time>
      </trkpt>
      <trkpt lat="38.642299" lon="-0.480996">
        <ele>811.155</ele>
        <time>2019-06-16T12:21:52Z</time>
      </trkpt>
      <trkpt lat="38.642286" lon="-0.481099">
        <ele>811.044</ele>
        <time>2019-06-16T12:21:54Z</time>
      </trkpt>
      <trkpt lat="38.642277" lon="-0.481162">
        <ele>811.229</ele>
        <time>2019-06-16T12:21:56Z</time>
      </trkpt>
      <trkpt lat="38.642263" lon="-0.481239">
        <ele>811.525</ele>
        <time>2019-06-16T12:22:00Z</time>
      </trkpt>
      <trkpt lat="38.642249" lon="-0.481311">
        <ele>811.726</ele>
        <time>2019-06-16T12:22:02Z</time>
      </trkpt>
      <trkpt lat="38.642238" lon="-0.481410">
        <ele>811.908</ele>
        <time>2019-06-16T12:22:04Z</time>
      </trkpt>
      <trkpt lat="38.642219" lon="-0.481559">
        <ele>811.408</ele>
        <time>2019-06-16T12:22:05Z</time>
      </trkpt>
      <trkpt lat="38.642196" lon="-0.481652">
        <ele>811.075</ele>
        <time>2019-06-16T12:22:07Z</time>
      </trkpt>
      <trkpt lat="38.642177" lon="-0.481749">
        <ele>810.819</ele>
        <time>2019-06-16T12:22:09Z</time>
      </trkpt>
      <trkpt lat="38.642155" lon="-0.481845">
        <ele>810.588</ele>
        <time>2019-06-16T12:22:11Z</time>
      </trkpt>
      <trkpt lat="38.642133" lon="-0.481936">
        <ele>810.331</ele>
        <time>2019-06-16T12:22:13Z</time>
      </trkpt>
      <trkpt lat="38.642102" lon="-0.482036">
        <ele>809.963</ele>
        <time>2019-06-16T12:22:16Z</time>
      </trkpt>
      <trkpt lat="38.642075" lon="-0.482137">
        <ele>809.580</ele>
        <time>2019-06-16T12:22:18Z</time>
      </trkpt>
      <trkpt lat="38.642054" lon="-0.482241">
        <ele>809.239</ele>
        <time>2019-06-16T12:22:20Z</time>
      </trkpt>
      <trkpt lat="38.642033" lon="-0.482337">
        <ele>809.444</ele>
        <time>2019-06-16T12:22:22Z</time>
      </trkpt>
      <trkpt lat="38.642012" lon="-0.482432">
        <ele>809.552</ele>
        <time>2019-06-16T12:22:24Z</time>
      </trkpt>
      <trkpt lat="38.641997" lon="-0.482497">
        <ele>809.653</ele>
        <time>2019-06-16T12:22:27Z</time>
      </trkpt>
      <trkpt lat="38.641956" lon="-0.482674">
        <ele>810.508</ele>
        <time>2019-06-16T12:22:29Z</time>
      </trkpt>
      <trkpt lat="38.641936" lon="-0.482777">
        <ele>811.108</ele>
        <time>2019-06-16T12:22:31Z</time>
      </trkpt>
      <trkpt lat="38.641916" lon="-0.482885">
        <ele>811.968</ele>
        <time>2019-06-16T12:22:33Z</time>
      </trkpt>
      <trkpt lat="38.641874" lon="-0.482964">
        <ele>812.712</ele>
        <time>2019-06-16T12:22:35Z</time>
      </trkpt>
      <trkpt lat="38.641825" lon="-0.483054">
        <ele>813.491</ele>
        <time>2019-06-16T12:22:37Z</time>
      </trkpt>
      <trkpt lat="38.641798" lon="-0.483161">
        <ele>813.184</ele>
        <time>2019-06-16T12:22:39Z</time>
      </trkpt>
      <trkpt lat="38.641771" lon="-0.483284">
        <ele>812.816</ele>
        <time>2019-06-16T12:22:41Z</time>
      </trkpt>
      <trkpt lat="38.641764" lon="-0.483345">
        <ele>812.673</ele>
        <time>2019-06-16T12:22:42Z</time>
      </trkpt>
      <trkpt lat="38.641739" lon="-0.483455">
        <ele>812.452</ele>
        <time>2019-06-16T12:22:44Z</time>
      </trkpt>
      <trkpt lat="38.641727" lon="-0.483551">
        <ele>812.267</ele>
        <time>2019-06-16T12:22:46Z</time>
      </trkpt>
      <trkpt lat="38.641712" lon="-0.483606">
        <ele>812.095</ele>
        <time>2019-06-16T12:22:47Z</time>
      </trkpt>
      <trkpt lat="38.641685" lon="-0.483710">
        <ele>812.449</ele>
        <time>2019-06-16T12:22:49Z</time>
      </trkpt>
      <trkpt lat="38.641675" lon="-0.483779">
        <ele>812.623</ele>
        <time>2019-06-16T12:22:50Z</time>
      </trkpt>
      <trkpt lat="38.641660" lon="-0.483876">
        <ele>813.008</ele>
        <time>2019-06-16T12:22:52Z</time>
      </trkpt>
      <trkpt lat="38.641637" lon="-0.483965">
        <ele>813.422</ele>
        <time>2019-06-16T12:22:54Z</time>
      </trkpt>
      <trkpt lat="38.641621" lon="-0.484036">
        <ele>813.736</ele>
        <time>2019-06-16T12:22:56Z</time>
      </trkpt>
      <trkpt lat="38.641608" lon="-0.484098">
        <ele>813.945</ele>
        <time>2019-06-16T12:22:57Z</time>
      </trkpt>
      <trkpt lat="38.641591" lon="-0.484156">
        <ele>814.048</ele>
        <time>2019-06-16T12:22:59Z</time>
      </trkpt>
      <trkpt lat="38.641575" lon="-0.484223">
        <ele>814.530</ele>
        <time>2019-06-16T12:23:01Z</time>
      </trkpt>
      <trkpt lat="38.641555" lon="-0.484302">
        <ele>815.237</ele>
        <time>2019-06-16T12:23:03Z</time>
      </trkpt>
      <trkpt lat="38.641537" lon="-0.484365">
        <ele>815.866</ele>
        <time>2019-06-16T12:23:06Z</time>
      </trkpt>
      <trkpt lat="38.641504" lon="-0.484453">
        <ele>816.631</ele>
        <time>2019-06-16T12:23:09Z</time>
      </trkpt>
      <trkpt lat="38.641465" lon="-0.484557">
        <ele>816.865</ele>
        <time>2019-06-16T12:23:11Z</time>
      </trkpt>
      <trkpt lat="38.641445" lon="-0.484634">
        <ele>816.968</ele>
        <time>2019-06-16T12:23:12Z</time>
      </trkpt>
      <trkpt lat="38.641433" lon="-0.484701">
        <ele>817.014</ele>
        <time>2019-06-16T12:23:13Z</time>
      </trkpt>
      <trkpt lat="38.641386" lon="-0.484869">
        <ele>817.508</ele>
        <time>2019-06-16T12:23:16Z</time>
      </trkpt>
      <trkpt lat="38.641386" lon="-0.484869">
        <ele>817.589</ele>
        <time>2019-06-16T12:23:16Z</time>
      </trkpt>
      <trkpt lat="38.641386" lon="-0.484869">
        <ele>817.533</ele>
        <time>2019-06-16T12:23:16Z</time>
      </trkpt>
      <trkpt lat="38.641345" lon="-0.485005">
        <ele>818.012</ele>
        <time>2019-06-16T12:23:21Z</time>
      </trkpt>
      <trkpt lat="38.641345" lon="-0.485005">
        <ele>818.015</ele>
        <time>2019-06-16T12:23:21Z</time>
      </trkpt>
      <trkpt lat="38.641345" lon="-0.485005">
        <ele>818.067</ele>
        <time>2019-06-16T12:23:21Z</time>
      </trkpt>
      <trkpt lat="38.641345" lon="-0.485005">
        <ele>818.054</ele>
        <time>2019-06-16T12:23:21Z</time>
      </trkpt>
      <trkpt lat="38.641345" lon="-0.485005">
        <ele>818.063</ele>
        <time>2019-06-16T12:23:21Z</time>
      </trkpt>
      <trkpt lat="38.641345" lon="-0.485005">
        <ele>818.068</ele>
        <time>2019-06-16T12:23:21Z</time>
      </trkpt>
      <trkpt lat="38.641345" lon="-0.485005">
        <ele>818.073</ele>
        <time>2019-06-16T12:23:21Z</time>
      </trkpt>
      <trkpt lat="38.641263" lon="-0.485414">
        <ele>819.785</ele>
        <time>2019-06-16T12:23:28Z</time>
      </trkpt>
      <trkpt lat="38.641263" lon="-0.485414">
        <ele>819.713</ele>
        <time>2019-06-16T12:23:28Z</time>
      </trkpt>
      <trkpt lat="38.641263" lon="-0.485414">
        <ele>819.708</ele>
        <time>2019-06-16T12:23:28Z</time>
      </trkpt>
      <trkpt lat="38.641263" lon="-0.485414">
        <ele>819.740</ele>
        <time>2019-06-16T12:23:28Z</time>
      </trkpt>
      <trkpt lat="38.641263" lon="-0.485414">
        <ele>819.784</ele>
        <time>2019-06-16T12:23:28Z</time>
      </trkpt>
      <trkpt lat="38.641263" lon="-0.485414">
        <ele>819.763</ele>
        <time>2019-06-16T12:23:28Z</time>
      </trkpt>
      <trkpt lat="38.641263" lon="-0.485414">
        <ele>819.796</ele>
        <time>2019-06-16T12:23:28Z</time>
      </trkpt>
      <trkpt lat="38.641193" lon="-0.485697">
        <ele>821.728</ele>
        <time>2019-06-16T12:23:36Z</time>
      </trkpt>
      <trkpt lat="38.641193" lon="-0.485697">
        <ele>821.745</ele>
        <time>2019-06-16T12:23:36Z</time>
      </trkpt>
      <trkpt lat="38.641193" lon="-0.485697">
        <ele>821.764</ele>
        <time>2019-06-16T12:23:36Z</time>
      </trkpt>
      <trkpt lat="38.641193" lon="-0.485697">
        <ele>821.789</ele>
        <time>2019-06-16T12:23:36Z</time>
      </trkpt>
      <trkpt lat="38.641193" lon="-0.485697">
        <ele>821.748</ele>
        <time>2019-06-16T12:23:36Z</time>
      </trkpt>
      <trkpt lat="38.641193" lon="-0.485697">
        <ele>821.761</ele>
        <time>2019-06-16T12:23:36Z</time>
      </trkpt>
      <trkpt lat="38.641193" lon="-0.485697">
        <ele>821.717</ele>
        <time>2019-06-16T12:23:36Z</time>
      </trkpt>
      <trkpt lat="38.641193" lon="-0.485697">
        <ele>821.708</ele>
        <time>2019-06-16T12:23:36Z</time>
      </trkpt>
      <trkpt lat="38.641102" lon="-0.486174">
        <ele>822.737</ele>
        <time>2019-06-16T12:23:45Z</time>
      </trkpt>
      <trkpt lat="38.641102" lon="-0.486174">
        <ele>822.741</ele>
        <time>2019-06-16T12:23:45Z</time>
      </trkpt>
      <trkpt lat="38.641102" lon="-0.486174">
        <ele>822.740</ele>
        <time>2019-06-16T12:23:45Z</time>
      </trkpt>
      <trkpt lat="38.641102" lon="-0.486174">
        <ele>822.733</ele>
        <time>2019-06-16T12:23:45Z</time>
      </trkpt>
      <trkpt lat="38.641102" lon="-0.486174">
        <ele>822.775</ele>
        <time>2019-06-16T12:23:45Z</time>
      </trkpt>
      <trkpt lat="38.641102" lon="-0.486174">
        <ele>822.732</ele>
        <time>2019-06-16T12:23:45Z</time>
      </trkpt>
      <trkpt lat="38.641102" lon="-0.486174">
        <ele>822.711</ele>
        <time>2019-06-16T12:23:45Z</time>
      </trkpt>
      <trkpt lat="38.641102" lon="-0.486174">
        <ele>822.746</ele>
        <time>2019-06-16T12:23:45Z</time>
      </trkpt>
      <trkpt lat="38.641102" lon="-0.486174">
        <ele>822.762</ele>
        <time>2019-06-16T12:23:45Z</time>
      </trkpt>
      <trkpt lat="38.641012" lon="-0.486540">
        <ele>821.583</ele>
        <time>2019-06-16T12:23:55Z</time>
      </trkpt>
      <trkpt lat="38.641012" lon="-0.486540">
        <ele>821.511</ele>
        <time>2019-06-16T12:23:55Z</time>
      </trkpt>
      <trkpt lat="38.641012" lon="-0.486540">
        <ele>821.508</ele>
        <time>2019-06-16T12:23:55Z</time>
      </trkpt>
      <trkpt lat="38.641012" lon="-0.486540">
        <ele>821.539</ele>
        <time>2019-06-16T12:23:55Z</time>
      </trkpt>
      <trkpt lat="38.641012" lon="-0.486540">
        <ele>821.563</ele>
        <time>2019-06-16T12:23:55Z</time>
      </trkpt>
      <trkpt lat="38.641012" lon="-0.486540">
        <ele>821.552</ele>
        <time>2019-06-16T12:23:55Z</time>
      </trkpt>
      <trkpt lat="38.641012" lon="-0.486540">
        <ele>821.525</ele>
        <time>2019-06-16T12:23:55Z</time>
      </trkpt>
      <trkpt lat="38.641012" lon="-0.486540">
        <ele>821.547</ele>
        <time>2019-06-16T12:23:55Z</time>
      </trkpt>
      <trkpt lat="38.641012" lon="-0.486540">
        <ele>821.584</ele>
        <time>2019-06-16T12:23:55Z</time>
      </trkpt>
      <trkpt lat="38.641012" lon="-0.486540">
        <ele>821.523</ele>
        <time>2019-06-16T12:23:55Z</time>
      </trkpt>
      <trkpt lat="38.640896" lon="-0.487035">
        <ele>822.768</ele>
        <time>2019-06-16T12:24:07Z</time>
      </trkpt>
      <trkpt lat="38.640896" lon="-0.487035">
        <ele>822.792</ele>
        <time>2019-06-16T12:24:07Z</time>
      </trkpt>
      <trkpt lat="38.640896" lon="-0.487035">
        <ele>822.773</ele>
        <time>2019-06-16T12:24:07Z</time>
      </trkpt>
      <trkpt lat="38.640896" lon="-0.487035">
        <ele>822.720</ele>
        <time>2019-06-16T12:24:07Z</time>
      </trkpt>
      <trkpt lat="38.640896" lon="-0.487035">
        <ele>822.708</ele>
        <time>2019-06-16T12:24:07Z</time>
      </trkpt>
      <trkpt lat="38.640896" lon="-0.487035">
        <ele>822.792</ele>
        <time>2019-06-16T12:24:07Z</time>
      </trkpt>
      <trkpt lat="38.640896" lon="-0.487035">
        <ele>822.756</ele>
        <time>2019-06-16T12:24:07Z</time>
      </trkpt>
      <trkpt lat="38.640896" lon="-0.487035">
        <ele>822.775</ele>
        <time>2019-06-16T12:24:07Z</time>
      </trkpt>
      <trkpt lat="38.640896" lon="-0.487035">
        <ele>822.748</ele>
        <time>2019-06-16T12:24:07Z</time>
      </trkpt>
      <trkpt lat="38.640896" lon="-0.487035">
        <ele>822.710</ele>
        <time>2019-06-16T12:24:07Z</time>
      </trkpt>
      <trkpt lat="38.640896" lon="-0.487035">
        <ele>822.787</ele>
        <time>2019-06-16T12:24:07Z</time>
      </trkpt>
      <trkpt lat="38.640896" lon="-0.487035">
        <ele>822.776</ele>
        <time>2019-06-16T12:24:07Z</time>
      </trkpt>
      <trkpt lat="38.640838" lon="-0.487347">
        <ele>824.921</ele>
        <time>2019-06-16T12:24:20Z</time>
      </trkpt>
      <trkpt lat="38.640838" lon="-0.487347">
        <ele>824.925</ele>
        <time>2019-06-16T12:24:20Z</time>
      </trkpt>
      <trkpt lat="38.640838" lon="-0.487347">
        <ele>824.926</ele>
        <time>2019-06-16T12:24:20Z</time>
      </trkpt>
      <trkpt lat="38.640838" lon="-0.487347">
        <ele>824.908</ele>
        <time>2019-06-16T12:24:20Z</time>
      </trkpt>
      <trkpt lat="38.640838" lon="-0.487347">
        <ele>824.908</ele>
        <time>2019-06-16T12:24:20Z</time>
      </trkpt>
      <trkpt lat="38.640838" lon="-0.487347">
        <ele>824.975</ele>
        <time>2019-06-16T12:24:20Z</time>
      </trkpt>
      <trkpt lat="38.640838" lon="-0.487347">
        <ele>824.979</ele>
        <time>2019-06-16T12:24:20Z</time>
      </trkpt>
      <trkpt lat="38.640838" lon="-0.487347">
        <ele>824.968</ele>
        <time>2019-06-16T12:24:20Z</time>
      </trkpt>
      <trkpt lat="38.640838" lon="-0.487347">
        <ele>824.931</ele>
        <time>2019-06-16T12:24:20Z</time>
      </trkpt>
      <trkpt lat="38.640838" lon="-0.487347">
        <ele>824.973</ele>
        <time>2019-06-16T12:24:20Z</time>
      </trkpt>
      <trkpt lat="38.640838" lon="-0.487347">
        <ele>824.920</ele>
        <time>2019-06-16T12:24:20Z</time>
      </trkpt>
      <trkpt lat="38.640838" lon="-0.487347">
        <ele>824.919</ele>
        <time>2019-06-16T12:24:20Z</time>
      </trkpt>
      <trkpt lat="38.640838" lon="-0.487347">
        <ele>824.974</ele>
        <time>2019-06-16T12:24:20Z</time>
      </trkpt>
      <trkpt lat="38.640801" lon="-0.487422">
        <ele>825.664</ele>
        <time>2019-06-16T12:24:23Z</time>
      </trkpt>
      <trkpt lat="38.640771" lon="-0.487483">
        <ele>826.106</ele>
        <time>2019-06-16T12:24:26Z</time>
      </trkpt>
      <trkpt lat="38.640751" lon="-0.487537">
        <ele>826.416</ele>
        <time>2019-06-16T12:24:29Z</time>
      </trkpt>
      <trkpt lat="38.640727" lon="-0.487604">
        <ele>826.808</ele>
        <time>2019-06-16T12:24:33Z</time>
      </trkpt>
      <trkpt lat="38.640710" lon="-0.487685">
        <ele>827.199</ele>
        <time>2019-06-16T12:24:36Z</time>
      </trkpt>
      <trkpt lat="38.640652" lon="-0.488082">
        <ele>828.823</ele>
        <time>2019-06-16T12:24:37Z</time>
      </trkpt>
      <trkpt lat="38.640623" lon="-0.488183">
        <ele>829.362</ele>
        <time>2019-06-16T12:24:39Z</time>
      </trkpt>
      <trkpt lat="38.640585" lon="-0.488286">
        <ele>829.895</ele>
        <time>2019-06-16T12:24:41Z</time>
      </trkpt>
      <trkpt lat="38.640572" lon="-0.488343">
        <ele>830.117</ele>
        <time>2019-06-16T12:24:42Z</time>
      </trkpt>
      <trkpt lat="38.640536" lon="-0.488445">
        <ele>830.814</ele>
        <time>2019-06-16T12:24:44Z</time>
      </trkpt>
      <trkpt lat="38.640509" lon="-0.488549">
        <ele>831.423</ele>
        <time>2019-06-16T12:24:46Z</time>
      </trkpt>
      <trkpt lat="38.640486" lon="-0.488678">
        <ele>831.888</ele>
        <time>2019-06-16T12:24:49Z</time>
      </trkpt>
      <trkpt lat="38.640463" lon="-0.488782">
        <ele>831.737</ele>
        <time>2019-06-16T12:24:51Z</time>
      </trkpt>
      <trkpt lat="38.640437" lon="-0.488871">
        <ele>831.649</ele>
        <time>2019-06-16T12:24:53Z</time>
      </trkpt>
      <trkpt lat="38.640415" lon="-0.488935">
        <ele>831.713</ele>
        <time>2019-06-16T12:24:55Z</time>
      </trkpt>
      <trkpt lat="38.640404" lon="-0.489058">
        <ele>832.108</ele>
        <time>2019-06-16T12:24:57Z</time>
      </trkpt>
      <trkpt lat="38.640385" lon="-0.489129">
        <ele>832.216</ele>
        <time>2019-06-16T12:24:58Z</time>
      </trkpt>
      <trkpt lat="38.640362" lon="-0.489192">
        <ele>832.550</ele>
        <time>2019-06-16T12:24:59Z</time>
      </trkpt>
      <trkpt lat="38.640344" lon="-0.489283">
        <ele>833.069</ele>
        <time>2019-06-16T12:25:01Z</time>
      </trkpt>
      <trkpt lat="38.640320" lon="-0.489344">
        <ele>833.372</ele>
        <time>2019-06-16T12:25:02Z</time>
      </trkpt>
      <trkpt lat="38.640302" lon="-0.489438">
        <ele>834.024</ele>
        <time>2019-06-16T12:25:04Z</time>
      </trkpt>
      <trkpt lat="38.640282" lon="-0.489493">
        <ele>834.421</ele>
        <time>2019-06-16T12:25:05Z</time>
      </trkpt>
      <trkpt lat="38.640261" lon="-0.489551">
        <ele>834.740</ele>
        <time>2019-06-16T12:25:07Z</time>
      </trkpt>
      <trkpt lat="38.640260" lon="-0.489623">
        <ele>835.285</ele>
        <time>2019-06-16T12:25:10Z</time>
      </trkpt>
      <trkpt lat="38.640261" lon="-0.489691">
        <ele>835.775</ele>
        <time>2019-06-16T12:25:12Z</time>
      </trkpt>
      <trkpt lat="38.640274" lon="-0.489838">
        <ele>836.428</ele>
        <time>2019-06-16T12:25:13Z</time>
      </trkpt>
      <trkpt lat="38.640276" lon="-0.489903">
        <ele>836.620</ele>
        <time>2019-06-16T12:25:14Z</time>
      </trkpt>
      <trkpt lat="38.640294" lon="-0.489976">
        <ele>836.908</ele>
        <time>2019-06-16T12:25:16Z</time>
      </trkpt>
      <trkpt lat="38.640292" lon="-0.490051">
        <ele>837.090</ele>
        <time>2019-06-16T12:25:17Z</time>
      </trkpt>
      <trkpt lat="38.640300" lon="-0.490118">
        <ele>837.074</ele>
        <time>2019-06-16T12:25:18Z</time>
      </trkpt>
      <trkpt lat="38.640289" lon="-0.490223">
        <ele>837.093</ele>
        <time>2019-06-16T12:25:19Z</time>
      </trkpt>
      <trkpt lat="38.640283" lon="-0.490323">
        <ele>837.066</ele>
        <time>2019-06-16T12:25:21Z</time>
      </trkpt>
      <trkpt lat="38.640297" lon="-0.490380">
        <ele>837.148</ele>
        <time>2019-06-16T12:25:22Z</time>
      </trkpt>
      <trkpt lat="38.640321" lon="-0.490472">
        <ele>837.285</ele>
        <time>2019-06-16T12:25:24Z</time>
      </trkpt>
      <trkpt lat="38.640325" lon="-0.490575">
        <ele>837.354</ele>
        <time>2019-06-16T12:25:26Z</time>
      </trkpt>
      <trkpt lat="38.640350" lon="-0.490678">
        <ele>837.199</ele>
        <time>2019-06-16T12:25:28Z</time>
      </trkpt>
      <trkpt lat="38.640371" lon="-0.490736">
        <ele>837.094</ele>
        <time>2019-06-16T12:25:32Z</time>
      </trkpt>
      <trkpt lat="38.640383" lon="-0.490799">
        <ele>836.957</ele>
        <time>2019-06-16T12:25:34Z</time>
      </trkpt>
      <trkpt lat="38.640407" lon="-0.490936">
        <ele>836.222</ele>
        <time>2019-06-16T12:25:35Z</time>
      </trkpt>
      <trkpt lat="38.640418" lon="-0.491012">
        <ele>835.708</ele>
        <time>2019-06-16T12:25:38Z</time>
      </trkpt>
      <trkpt lat="38.640425" lon="-0.491122">
        <ele>835.092</ele>
        <time>2019-06-16T12:25:39Z</time>
      </trkpt>
      <trkpt lat="38.640436" lon="-0.491184">
        <ele>834.516</ele>
        <time>2019-06-16T12:25:41Z</time>
      </trkpt>
      <trkpt lat="38.640466" lon="-0.491290">
        <ele>833.925</ele>
        <time>2019-06-16T12:25:42Z</time>
      </trkpt>
      <trkpt lat="38.640489" lon="-0.491340">
        <ele>833.788</ele>
        <time>2019-06-16T12:25:43Z</time>
      </trkpt>
      <trkpt lat="38.640512" lon="-0.491396">
        <ele>833.510</ele>
        <time>2019-06-16T12:25:44Z</time>
      </trkpt>
      <trkpt lat="38.640526" lon="-0.491457">
        <ele>833.537</ele>
        <time>2019-06-16T12:25:46Z</time>
      </trkpt>
      <trkpt lat="38.640529" lon="-0.491521">
        <ele>833.396</ele>
        <time>2019-06-16T12:25:48Z</time>
      </trkpt>
      <trkpt lat="38.640526" lon="-0.491707">
        <ele>833.231</ele>
        <time>2019-06-16T12:25:50Z</time>
      </trkpt>
      <trkpt lat="38.640525" lon="-0.491769">
        <ele>833.854</ele>
        <time>2019-06-16T12:25:51Z</time>
      </trkpt>
      <trkpt lat="38.640534" lon="-0.491847">
        <ele>834.756</ele>
        <time>2019-06-16T12:25:53Z</time>
      </trkpt>
      <trkpt lat="38.640521" lon="-0.491929">
        <ele>835.511</ele>
        <time>2019-06-16T12:25:54Z</time>
      </trkpt>
      <trkpt lat="38.640549" lon="-0.491978">
        <ele>836.308</ele>
        <time>2019-06-16T12:25:57Z</time>
      </trkpt>
      <trkpt lat="38.640557" lon="-0.492057">
        <ele>837.238</ele>
        <time>2019-06-16T12:26:00Z</time>
      </trkpt>
      <trkpt lat="38.640559" lon="-0.492115">
        <ele>837.912</ele>
        <time>2019-06-16T12:26:02Z</time>
      </trkpt>
      <trkpt lat="38.640566" lon="-0.492196">
        <ele>838.811</ele>
        <time>2019-06-16T12:26:05Z</time>
      </trkpt>
      <trkpt lat="38.640575" lon="-0.492256">
        <ele>839.254</ele>
        <time>2019-06-16T12:26:07Z</time>
      </trkpt>
      <trkpt lat="38.640580" lon="-0.492328">
        <ele>839.126</ele>
        <time>2019-06-16T12:26:10Z</time>
      </trkpt>
      <trkpt lat="38.640581" lon="-0.492397">
        <ele>839.083</ele>
        <time>2019-06-16T12:26:14Z</time>
      </trkpt>
      <trkpt lat="38.640585" lon="-0.492485">
        <ele>838.932</ele>
        <time>2019-06-16T12:26:18Z</time>
      </trkpt>
      <trkpt lat="38.640604" lon="-0.492573">
        <ele>838.847</ele>
        <time>2019-06-16T12:26:20Z</time>
      </trkpt>
      <trkpt lat="38.640625" lon="-0.492663">
        <ele>838.662</ele>
        <time>2019-06-16T12:26:22Z</time>
      </trkpt>
      <trkpt lat="38.640638" lon="-0.492730">
        <ele>838.583</ele>
        <time>2019-06-16T12:26:24Z</time>
      </trkpt>
      <trkpt lat="38.640648" lon="-0.492788">
        <ele>838.511</ele>
        <time>2019-06-16T12:26:26Z</time>
      </trkpt>
      <trkpt lat="38.640656" lon="-0.492845">
        <ele>839.208</ele>
        <time>2019-06-16T12:26:28Z</time>
      </trkpt>
      <trkpt lat="38.640648" lon="-0.492944">
        <ele>840.549</ele>
        <time>2019-06-16T12:26:29Z</time>
      </trkpt>
      <trkpt lat="38.640632" lon="-0.493015">
        <ele>841.613</ele>
        <time>2019-06-16T12:26:31Z</time>
      </trkpt>
      <trkpt lat="38.640641" lon="-0.493073">
        <ele>842.362</ele>
        <time>2019-06-16T12:26:34Z</time>
      </trkpt>
      <trkpt lat="38.640677" lon="-0.493139">
        <ele>842.665</ele>
        <time>2019-06-16T12:26:38Z</time>
      </trkpt>
      <trkpt lat="38.640707" lon="-0.493205">
        <ele>842.937</ele>
        <time>2019-06-16T12:26:41Z</time>
      </trkpt>
      <trkpt lat="38.640728" lon="-0.493277">
        <ele>843.384</ele>
        <time>2019-06-16T12:26:48Z</time>
      </trkpt>
      <trkpt lat="38.640687" lon="-0.493326">
        <ele>844.673</ele>
        <time>2019-06-16T12:26:54Z</time>
      </trkpt>
      <trkpt lat="38.640637" lon="-0.493356">
        <ele>845.578</ele>
        <time>2019-06-16T12:27:02Z</time>
      </trkpt>
      <trkpt lat="38.640623" lon="-0.493412">
        <ele>845.695</ele>
        <time>2019-06-16T12:27:08Z</time>
      </trkpt>
      <trkpt lat="38.640662" lon="-0.493443">
        <ele>844.849</ele>
        <time>2019-06-16T12:32:34Z</time>
      </trkpt>
      <trkpt lat="38.640711" lon="-0.493422">
        <ele>844.123</ele>
        <time>2019-06-16T12:33:15Z</time>
      </trkpt>
      <trkpt lat="38.640666" lon="-0.493456">
        <ele>844.708</ele>
        <time>2019-06-16T12:33:17Z</time>
      </trkpt>
      <trkpt lat="38.640757" lon="-0.493406">
        <ele>843.352</ele>
        <time>2019-06-16T12:33:34Z</time>
      </trkpt>
      <trkpt lat="38.640861" lon="-0.493424">
        <ele>842.036</ele>
        <time>2019-06-16T12:34:32Z</time>
      </trkpt>
      <trkpt lat="38.640886" lon="-0.493489">
        <ele>841.955</ele>
        <time>2019-06-16T12:34:37Z</time>
      </trkpt>
      <trkpt lat="38.640971" lon="-0.493576">
        <ele>841.658</ele>
        <time>2019-06-16T12:35:04Z</time>
      </trkpt>
      <trkpt lat="38.640946" lon="-0.493633">
        <ele>841.530</ele>
        <time>2019-06-16T12:36:03Z</time>
      </trkpt>
      <trkpt lat="38.640927" lon="-0.493690">
        <ele>841.427</ele>
        <time>2019-06-16T12:36:05Z</time>
      </trkpt>
      <trkpt lat="38.640907" lon="-0.493748">
        <ele>841.256</ele>
        <time>2019-06-16T12:36:07Z</time>
      </trkpt>
      <trkpt lat="38.640886" lon="-0.493807">
        <ele>841.111</ele>
        <time>2019-06-16T12:36:09Z</time>
      </trkpt>
      <trkpt lat="38.640862" lon="-0.493856">
        <ele>841.032</ele>
        <time>2019-06-16T12:36:11Z</time>
      </trkpt>
      <trkpt lat="38.640830" lon="-0.493922">
        <ele>841.292</ele>
        <time>2019-06-16T12:36:14Z</time>
      </trkpt>
      <trkpt lat="38.640795" lon="-0.494086">
        <ele>842.111</ele>
        <time>2019-06-16T12:36:20Z</time>
      </trkpt>
      <trkpt lat="38.640788" lon="-0.494186">
        <ele>842.408</ele>
        <time>2019-06-16T12:36:21Z</time>
      </trkpt>
      <trkpt lat="38.640747" lon="-0.494408">
        <ele>843.576</ele>
        <time>2019-06-16T12:36:27Z</time>
      </trkpt>
      <trkpt lat="38.640701" lon="-0.494569">
        <ele>843.330</ele>
        <time>2019-06-16T12:36:28Z</time>
      </trkpt>
      <trkpt lat="38.640705" lon="-0.494629">
        <ele>843.219</ele>
        <time>2019-06-16T12:36:30Z</time>
      </trkpt>
      <trkpt lat="38.640693" lon="-0.494696">
        <ele>843.042</ele>
        <time>2019-06-16T12:36:32Z</time>
      </trkpt>
      <trkpt lat="38.640671" lon="-0.494814">
        <ele>842.384</ele>
        <time>2019-06-16T12:36:33Z</time>
      </trkpt>
      <trkpt lat="38.640640" lon="-0.494874">
        <ele>841.921</ele>
        <time>2019-06-16T12:36:36Z</time>
      </trkpt>
      <trkpt lat="38.640622" lon="-0.494931">
        <ele>841.580</ele>
        <time>2019-06-16T12:36:38Z</time>
      </trkpt>
      <trkpt lat="38.640614" lon="-0.494999">
        <ele>841.065</ele>
        <time>2019-06-16T12:36:40Z</time>
      </trkpt>
      <trkpt lat="38.640606" lon="-0.495064">
        <ele>841.031</ele>
        <time>2019-06-16T12:36:42Z</time>
      </trkpt>
      <trkpt lat="38.640589" lon="-0.495146">
        <ele>840.961</ele>
        <time>2019-06-16T12:36:44Z</time>
      </trkpt>
      <trkpt lat="38.640561" lon="-0.495240">
        <ele>841.007</ele>
        <time>2019-06-16T12:36:45Z</time>
      </trkpt>
      <trkpt lat="38.640542" lon="-0.495301">
        <ele>841.108</ele>
        <time>2019-06-16T12:36:47Z</time>
      </trkpt>
      <trkpt lat="38.640527" lon="-0.495364">
        <ele>841.456</ele>
        <time>2019-06-16T12:36:48Z</time>
      </trkpt>
      <trkpt lat="38.640503" lon="-0.495451">
        <ele>841.960</ele>
        <time>2019-06-16T12:36:51Z</time>
      </trkpt>
      <trkpt lat="38.640483" lon="-0.495512">
        <ele>842.319</ele>
        <time>2019-06-16T12:36:53Z</time>
      </trkpt>
      <trkpt lat="38.640464" lon="-0.495584">
        <ele>843.042</ele>
        <time>2019-06-16T12:36:55Z</time>
      </trkpt>
      <trkpt lat="38.640448" lon="-0.495659">
        <ele>844.054</ele>
        <time>2019-06-16T12:36:57Z</time>
      </trkpt>
      <trkpt lat="38.640429" lon="-0.495742">
        <ele>845.091</ele>
        <time>2019-06-16T12:36:59Z</time>
      </trkpt>
      <trkpt lat="38.640409" lon="-0.495821">
        <ele>845.970</ele>
        <time>2019-06-16T12:37:01Z</time>
      </trkpt>
      <trkpt lat="38.640389" lon="-0.495903">
        <ele>846.585</ele>
        <time>2019-06-16T12:37:03Z</time>
      </trkpt>
      <trkpt lat="38.640373" lon="-0.495981">
        <ele>846.933</ele>
        <time>2019-06-16T12:37:05Z</time>
      </trkpt>
      <trkpt lat="38.640358" lon="-0.496061">
        <ele>847.323</ele>
        <time>2019-06-16T12:37:07Z</time>
      </trkpt>
      <trkpt lat="38.640344" lon="-0.496133">
        <ele>847.515</ele>
        <time>2019-06-16T12:37:09Z</time>
      </trkpt>
      <trkpt lat="38.640322" lon="-0.496215">
        <ele>847.408</ele>
        <time>2019-06-16T12:37:11Z</time>
      </trkpt>
      <trkpt lat="38.640296" lon="-0.496290">
        <ele>847.276</ele>
        <time>2019-06-16T12:37:13Z</time>
      </trkpt>
      <trkpt lat="38.640268" lon="-0.496367">
        <ele>847.080</ele>
        <time>2019-06-16T12:37:15Z</time>
      </trkpt>
      <trkpt lat="38.640240" lon="-0.496443">
        <ele>847.299</ele>
        <time>2019-06-16T12:37:17Z</time>
      </trkpt>
      <trkpt lat="38.640214" lon="-0.496517">
        <ele>847.462</ele>
        <time>2019-06-16T12:37:19Z</time>
      </trkpt>
      <trkpt lat="38.640189" lon="-0.496585">
        <ele>847.544</ele>
        <time>2019-06-16T12:37:21Z</time>
      </trkpt>
      <trkpt lat="38.640161" lon="-0.496652">
        <ele>847.541</ele>
        <time>2019-06-16T12:37:23Z</time>
      </trkpt>
      <trkpt lat="38.640135" lon="-0.496713">
        <ele>847.780</ele>
        <time>2019-06-16T12:37:25Z</time>
      </trkpt>
      <trkpt lat="38.640113" lon="-0.496776">
        <ele>848.045</ele>
        <time>2019-06-16T12:37:27Z</time>
      </trkpt>
      <trkpt lat="38.640092" lon="-0.496849">
        <ele>848.437</ele>
        <time>2019-06-16T12:37:29Z</time>
      </trkpt>
      <trkpt lat="38.640076" lon="-0.496927">
        <ele>848.949</ele>
        <time>2019-06-16T12:37:31Z</time>
      </trkpt>
      <trkpt lat="38.640065" lon="-0.497020">
        <ele>849.113</ele>
        <time>2019-06-16T12:37:33Z</time>
      </trkpt>
      <trkpt lat="38.640051" lon="-0.497115">
        <ele>849.108</ele>
        <time>2019-06-16T12:37:35Z</time>
      </trkpt>
      <trkpt lat="38.640029" lon="-0.497214">
        <ele>849.176</ele>
        <time>2019-06-16T12:37:37Z</time>
      </trkpt>
      <trkpt lat="38.640005" lon="-0.497305">
        <ele>849.070</ele>
        <time>2019-06-16T12:37:39Z</time>
      </trkpt>
      <trkpt lat="38.639978" lon="-0.497395">
        <ele>849.039</ele>
        <time>2019-06-16T12:37:41Z</time>
      </trkpt>
      <trkpt lat="38.639958" lon="-0.497466">
        <ele>848.972</ele>
        <time>2019-06-16T12:37:43Z</time>
      </trkpt>
      <trkpt lat="38.639933" lon="-0.497540">
        <ele>848.894</ele>
        <time>2019-06-16T12:37:45Z</time>
      </trkpt>
      <trkpt lat="38.639907" lon="-0.497611">
        <ele>848.781</ele>
        <time>2019-06-16T12:37:47Z</time>
      </trkpt>
      <trkpt lat="38.639880" lon="-0.497690">
        <ele>848.620</ele>
        <time>2019-06-16T12:37:49Z</time>
      </trkpt>
      <trkpt lat="38.639862" lon="-0.497762">
        <ele>848.575</ele>
        <time>2019-06-16T12:37:51Z</time>
      </trkpt>
      <trkpt lat="38.639842" lon="-0.497836">
        <ele>849.082</ele>
        <time>2019-06-16T12:37:53Z</time>
      </trkpt>
      <trkpt lat="38.639824" lon="-0.497907">
        <ele>849.743</ele>
        <time>2019-06-16T12:37:55Z</time>
      </trkpt>
      <trkpt lat="38.639805" lon="-0.497986">
        <ele>850.617</ele>
        <time>2019-06-16T12:37:57Z</time>
      </trkpt>
      <trkpt lat="38.639783" lon="-0.498064">
        <ele>851.708</ele>
        <time>2019-06-16T12:37:59Z</time>
      </trkpt>
      <trkpt lat="38.639783" lon="-0.498064">
        <ele>851.781</ele>
        <time>2019-06-16T12:37:59Z</time>
      </trkpt>
      <trkpt lat="38.639760" lon="-0.498144">
        <ele>853.095</ele>
        <time>2019-06-16T12:38:01Z</time>
      </trkpt>
      <trkpt lat="38.639760" lon="-0.498144">
        <ele>853.054</ele>
        <time>2019-06-16T12:38:01Z</time>
      </trkpt>
      <trkpt lat="38.639720" lon="-0.498270">
        <ele>855.137</ele>
        <time>2019-06-16T12:38:04Z</time>
      </trkpt>
      <trkpt lat="38.639720" lon="-0.498270">
        <ele>855.159</ele>
        <time>2019-06-16T12:38:04Z</time>
      </trkpt>
      <trkpt lat="38.639720" lon="-0.498270">
        <ele>855.126</ele>
        <time>2019-06-16T12:38:04Z</time>
      </trkpt>
      <trkpt lat="38.639686" lon="-0.498395">
        <ele>856.885</ele>
        <time>2019-06-16T12:38:07Z</time>
      </trkpt>
      <trkpt lat="38.639686" lon="-0.498395">
        <ele>856.830</ele>
        <time>2019-06-16T12:38:07Z</time>
      </trkpt>
      <trkpt lat="38.639686" lon="-0.498395">
        <ele>856.833</ele>
        <time>2019-06-16T12:38:07Z</time>
      </trkpt>
      <trkpt lat="38.639656" lon="-0.498565">
        <ele>858.023</ele>
        <time>2019-06-16T12:38:11Z</time>
      </trkpt>
      <trkpt lat="38.639656" lon="-0.498565">
        <ele>858.015</ele>
        <time>2019-06-16T12:38:11Z</time>
      </trkpt>
      <trkpt lat="38.639656" lon="-0.498565">
        <ele>858.008</ele>
        <time>2019-06-16T12:38:11Z</time>
      </trkpt>
      <trkpt lat="38.639656" lon="-0.498565">
        <ele>858.086</ele>
        <time>2019-06-16T12:38:11Z</time>
      </trkpt>
      <trkpt lat="38.639619" lon="-0.498723">
        <ele>858.560</ele>
        <time>2019-06-16T12:38:15Z</time>
      </trkpt>
      <trkpt lat="38.639619" lon="-0.498723">
        <ele>858.539</ele>
        <time>2019-06-16T12:38:15Z</time>
      </trkpt>
      <trkpt lat="38.639619" lon="-0.498723">
        <ele>858.552</ele>
        <time>2019-06-16T12:38:15Z</time>
      </trkpt>
      <trkpt lat="38.639619" lon="-0.498723">
        <ele>858.574</ele>
        <time>2019-06-16T12:38:15Z</time>
      </trkpt>
      <trkpt lat="38.639580" lon="-0.498932">
        <ele>858.331</ele>
        <time>2019-06-16T12:38:20Z</time>
      </trkpt>
      <trkpt lat="38.639580" lon="-0.498932">
        <ele>858.370</ele>
        <time>2019-06-16T12:38:20Z</time>
      </trkpt>
      <trkpt lat="38.639580" lon="-0.498932">
        <ele>858.355</ele>
        <time>2019-06-16T12:38:20Z</time>
      </trkpt>
      <trkpt lat="38.639580" lon="-0.498932">
        <ele>858.369</ele>
        <time>2019-06-16T12:38:20Z</time>
      </trkpt>
      <trkpt lat="38.639580" lon="-0.498932">
        <ele>858.304</ele>
        <time>2019-06-16T12:38:20Z</time>
      </trkpt>
      <trkpt lat="38.639509" lon="-0.499175">
        <ele>857.224</ele>
        <time>2019-06-16T12:38:26Z</time>
      </trkpt>
      <trkpt lat="38.639509" lon="-0.499175">
        <ele>857.208</ele>
        <time>2019-06-16T12:38:26Z</time>
      </trkpt>
      <trkpt lat="38.639509" lon="-0.499175">
        <ele>857.279</ele>
        <time>2019-06-16T12:38:26Z</time>
      </trkpt>
      <trkpt lat="38.639509" lon="-0.499175">
        <ele>857.213</ele>
        <time>2019-06-16T12:38:26Z</time>
      </trkpt>
      <trkpt lat="38.639509" lon="-0.499175">
        <ele>857.292</ele>
        <time>2019-06-16T12:38:26Z</time>
      </trkpt>
      <trkpt lat="38.639509" lon="-0.499175">
        <ele>857.265</ele>
        <time>2019-06-16T12:38:26Z</time>
      </trkpt>
      <trkpt lat="38.639428" lon="-0.499469">
        <ele>856.147</ele>
        <time>2019-06-16T12:38:33Z</time>
      </trkpt>
      <trkpt lat="38.639428" lon="-0.499469">
        <ele>856.164</ele>
        <time>2019-06-16T12:38:33Z</time>
      </trkpt>
      <trkpt lat="38.639428" lon="-0.499469">
        <ele>856.133</ele>
        <time>2019-06-16T12:38:33Z</time>
      </trkpt>
      <trkpt lat="38.639428" lon="-0.499469">
        <ele>856.158</ele>
        <time>2019-06-16T12:38:33Z</time>
      </trkpt>
      <trkpt lat="38.639428" lon="-0.499469">
        <ele>856.136</ele>
        <time>2019-06-16T12:38:33Z</time>
      </trkpt>
      <trkpt lat="38.639428" lon="-0.499469">
        <ele>856.117</ele>
        <time>2019-06-16T12:38:33Z</time>
      </trkpt>
      <trkpt lat="38.639428" lon="-0.499469">
        <ele>856.118</ele>
        <time>2019-06-16T12:38:33Z</time>
      </trkpt>
      <trkpt lat="38.639335" lon="-0.499841">
        <ele>857.308</ele>
        <time>2019-06-16T12:38:41Z</time>
      </trkpt>
      <trkpt lat="38.639335" lon="-0.499841">
        <ele>857.336</ele>
        <time>2019-06-16T12:38:41Z</time>
      </trkpt>
      <trkpt lat="38.639335" lon="-0.499841">
        <ele>857.310</ele>
        <time>2019-06-16T12:38:41Z</time>
      </trkpt>
      <trkpt lat="38.639335" lon="-0.499841">
        <ele>857.379</ele>
        <time>2019-06-16T12:38:41Z</time>
      </trkpt>
      <trkpt lat="38.639335" lon="-0.499841">
        <ele>857.322</ele>
        <time>2019-06-16T12:38:41Z</time>
      </trkpt>
      <trkpt lat="38.639335" lon="-0.499841">
        <ele>857.394</ele>
        <time>2019-06-16T12:38:41Z</time>
      </trkpt>
      <trkpt lat="38.639335" lon="-0.499841">
        <ele>857.381</ele>
        <time>2019-06-16T12:38:41Z</time>
      </trkpt>
      <trkpt lat="38.639335" lon="-0.499841">
        <ele>857.360</ele>
        <time>2019-06-16T12:38:41Z</time>
      </trkpt>
      <trkpt lat="38.639207" lon="-0.500308">
        <ele>856.625</ele>
        <time>2019-06-16T12:38:50Z</time>
      </trkpt>
      <trkpt lat="38.639207" lon="-0.500308">
        <ele>856.684</ele>
        <time>2019-06-16T12:38:50Z</time>
      </trkpt>
      <trkpt lat="38.639207" lon="-0.500308">
        <ele>856.607</ele>
        <time>2019-06-16T12:38:50Z</time>
      </trkpt>
      <trkpt lat="38.639207" lon="-0.500308">
        <ele>856.617</ele>
        <time>2019-06-16T12:38:50Z</time>
      </trkpt>
      <trkpt lat="38.639207" lon="-0.500308">
        <ele>856.608</ele>
        <time>2019-06-16T12:38:50Z</time>
      </trkpt>
      <trkpt lat="38.639207" lon="-0.500308">
        <ele>856.621</ele>
        <time>2019-06-16T12:38:50Z</time>
      </trkpt>
      <trkpt lat="38.639207" lon="-0.500308">
        <ele>856.655</ele>
        <time>2019-06-16T12:38:50Z</time>
      </trkpt>
      <trkpt lat="38.639207" lon="-0.500308">
        <ele>856.654</ele>
        <time>2019-06-16T12:38:50Z</time>
      </trkpt>
      <trkpt lat="38.639207" lon="-0.500308">
        <ele>856.647</ele>
        <time>2019-06-16T12:38:50Z</time>
      </trkpt>
      <trkpt lat="38.639061" lon="-0.500794">
        <ele>858.729</ele>
        <time>2019-06-16T12:39:00Z</time>
      </trkpt>
      <trkpt lat="38.639061" lon="-0.500794">
        <ele>858.716</ele>
        <time>2019-06-16T12:39:00Z</time>
      </trkpt>
      <trkpt lat="38.639061" lon="-0.500794">
        <ele>858.775</ele>
        <time>2019-06-16T12:39:00Z</time>
      </trkpt>
      <trkpt lat="38.639061" lon="-0.500794">
        <ele>858.770</ele>
        <time>2019-06-16T12:39:00Z</time>
      </trkpt>
      <trkpt lat="38.639061" lon="-0.500794">
        <ele>858.748</ele>
        <time>2019-06-16T12:39:00Z</time>
      </trkpt>
      <trkpt lat="38.639061" lon="-0.500794">
        <ele>858.761</ele>
        <time>2019-06-16T12:39:00Z</time>
      </trkpt>
      <trkpt lat="38.639061" lon="-0.500794">
        <ele>858.717</ele>
        <time>2019-06-16T12:39:00Z</time>
      </trkpt>
      <trkpt lat="38.639061" lon="-0.500794">
        <ele>858.708</ele>
        <time>2019-06-16T12:39:00Z</time>
      </trkpt>
      <trkpt lat="38.639061" lon="-0.500794">
        <ele>858.757</ele>
        <time>2019-06-16T12:39:00Z</time>
      </trkpt>
      <trkpt lat="38.639061" lon="-0.500794">
        <ele>858.731</ele>
        <time>2019-06-16T12:39:00Z</time>
      </trkpt>
      <trkpt lat="38.639039" lon="-0.500897">
        <ele>859.560</ele>
        <time>2019-06-16T12:39:02Z</time>
      </trkpt>
      <trkpt lat="38.639013" lon="-0.501004">
        <ele>860.213</ele>
        <time>2019-06-16T12:39:04Z</time>
      </trkpt>
      <trkpt lat="38.638992" lon="-0.501128">
        <ele>861.125</ele>
        <time>2019-06-16T12:39:06Z</time>
      </trkpt>
      <trkpt lat="38.638962" lon="-0.501233">
        <ele>861.732</ele>
        <time>2019-06-16T12:39:08Z</time>
      </trkpt>
      <trkpt lat="38.638944" lon="-0.501290">
        <ele>861.981</ele>
        <time>2019-06-16T12:39:09Z</time>
      </trkpt>
      <trkpt lat="38.638915" lon="-0.501399">
        <ele>862.266</ele>
        <time>2019-06-16T12:39:11Z</time>
      </trkpt>
      <trkpt lat="38.638897" lon="-0.501454">
        <ele>862.372</ele>
        <time>2019-06-16T12:39:12Z</time>
      </trkpt>
      <trkpt lat="38.638887" lon="-0.501510">
        <ele>862.413</ele>
        <time>2019-06-16T12:39:13Z</time>
      </trkpt>
      <trkpt lat="38.638849" lon="-0.501624">
        <ele>862.714</ele>
        <time>2019-06-16T12:39:15Z</time>
      </trkpt>
      <trkpt lat="38.638835" lon="-0.501686">
        <ele>862.708</ele>
        <time>2019-06-16T12:39:16Z</time>
      </trkpt>
      <trkpt lat="38.638818" lon="-0.501744">
        <ele>862.510</ele>
        <time>2019-06-16T12:39:17Z</time>
      </trkpt>
      <trkpt lat="38.638800" lon="-0.501805">
        <ele>862.234</ele>
        <time>2019-06-16T12:39:18Z</time>
      </trkpt>
      <trkpt lat="38.638766" lon="-0.501921">
        <ele>861.663</ele>
        <time>2019-06-16T12:39:20Z</time>
      </trkpt>
      <trkpt lat="38.638753" lon="-0.501985">
        <ele>861.186</ele>
        <time>2019-06-16T12:39:21Z</time>
      </trkpt>
      <trkpt lat="38.638738" lon="-0.502044">
        <ele>860.418</ele>
        <time>2019-06-16T12:39:22Z</time>
      </trkpt>
      <trkpt lat="38.638723" lon="-0.502102">
        <ele>859.625</ele>
        <time>2019-06-16T12:39:23Z</time>
      </trkpt>
      <trkpt lat="38.638705" lon="-0.502166">
        <ele>858.724</ele>
        <time>2019-06-16T12:39:24Z</time>
      </trkpt>
      <trkpt lat="38.638685" lon="-0.502225">
        <ele>857.849</ele>
        <time>2019-06-16T12:39:25Z</time>
      </trkpt>
      <trkpt lat="38.638661" lon="-0.502283">
        <ele>857.383</ele>
        <time>2019-06-16T12:39:26Z</time>
      </trkpt>
      <trkpt lat="38.638639" lon="-0.502350">
        <ele>856.825</ele>
        <time>2019-06-16T12:39:27Z</time>
      </trkpt>
      <trkpt lat="38.638625" lon="-0.502423">
        <ele>856.417</ele>
        <time>2019-06-16T12:39:28Z</time>
      </trkpt>
      <trkpt lat="38.638608" lon="-0.502488">
        <ele>856.108</ele>
        <time>2019-06-16T12:39:29Z</time>
      </trkpt>
      <trkpt lat="38.638585" lon="-0.502556">
        <ele>856.861</ele>
        <time>2019-06-16T12:39:30Z</time>
      </trkpt>
      <trkpt lat="38.638571" lon="-0.502628">
        <ele>857.485</ele>
        <time>2019-06-16T12:39:31Z</time>
      </trkpt>
      <trkpt lat="38.638550" lon="-0.502688">
        <ele>858.054</ele>
        <time>2019-06-16T12:39:32Z</time>
      </trkpt>
      <trkpt lat="38.638533" lon="-0.502759">
        <ele>858.547</ele>
        <time>2019-06-16T12:39:33Z</time>
      </trkpt>
      <trkpt lat="38.638509" lon="-0.502828">
        <ele>858.829</ele>
        <time>2019-06-16T12:39:34Z</time>
      </trkpt>
      <trkpt lat="38.638495" lon="-0.502884">
        <ele>858.966</ele>
        <time>2019-06-16T12:39:35Z</time>
      </trkpt>
      <trkpt lat="38.638478" lon="-0.502953">
        <ele>859.075</ele>
        <time>2019-06-16T12:39:36Z</time>
      </trkpt>
      <trkpt lat="38.638475" lon="-0.503020">
        <ele>859.010</ele>
        <time>2019-06-16T12:39:37Z</time>
      </trkpt>
      <trkpt lat="38.638451" lon="-0.503090">
        <ele>859.228</ele>
        <time>2019-06-16T12:39:38Z</time>
      </trkpt>
      <trkpt lat="38.638432" lon="-0.503156">
        <ele>859.589</ele>
        <time>2019-06-16T12:39:39Z</time>
      </trkpt>
      <trkpt lat="38.638415" lon="-0.503226">
        <ele>859.817</ele>
        <time>2019-06-16T12:39:40Z</time>
      </trkpt>
      <trkpt lat="38.638401" lon="-0.503308">
        <ele>860.108</ele>
        <time>2019-06-16T12:39:41Z</time>
      </trkpt>
      <trkpt lat="38.638378" lon="-0.503377">
        <ele>860.585</ele>
        <time>2019-06-16T12:39:42Z</time>
      </trkpt>
      <trkpt lat="38.638355" lon="-0.503451">
        <ele>861.079</ele>
        <time>2019-06-16T12:39:43Z</time>
      </trkpt>
      <trkpt lat="38.638339" lon="-0.503528">
        <ele>861.538</ele>
        <time>2019-06-16T12:39:44Z</time>
      </trkpt>
      <trkpt lat="38.638315" lon="-0.503603">
        <ele>861.751</ele>
        <time>2019-06-16T12:39:45Z</time>
      </trkpt>
      <trkpt lat="38.638294" lon="-0.503684">
        <ele>861.613</ele>
        <time>2019-06-16T12:39:46Z</time>
      </trkpt>
      <trkpt lat="38.638272" lon="-0.503769">
        <ele>861.330</ele>
        <time>2019-06-16T12:39:47Z</time>
      </trkpt>
      <trkpt lat="38.638246" lon="-0.503841">
        <ele>861.179</ele>
        <time>2019-06-16T12:39:48Z</time>
      </trkpt>
      <trkpt lat="38.638225" lon="-0.503918">
        <ele>861.064</ele>
        <time>2019-06-16T12:39:49Z</time>
      </trkpt>
      <trkpt lat="38.638196" lon="-0.503996">
        <ele>860.972</ele>
        <time>2019-06-16T12:39:50Z</time>
      </trkpt>
      <trkpt lat="38.638173" lon="-0.504082">
        <ele>860.913</ele>
        <time>2019-06-16T12:39:51Z</time>
      </trkpt>
      <trkpt lat="38.638151" lon="-0.504166">
        <ele>860.714</ele>
        <time>2019-06-16T12:39:52Z</time>
      </trkpt>
      <trkpt lat="38.638130" lon="-0.504256">
        <ele>860.808</ele>
        <time>2019-06-16T12:39:53Z</time>
      </trkpt>
      <trkpt lat="38.638101" lon="-0.504338">
        <ele>860.990</ele>
        <time>2019-06-16T12:39:54Z</time>
      </trkpt>
      <trkpt lat="38.638080" lon="-0.504423">
        <ele>861.154</ele>
        <time>2019-06-16T12:39:55Z</time>
      </trkpt>
      <trkpt lat="38.638059" lon="-0.504511">
        <ele>861.583</ele>
        <time>2019-06-16T12:39:56Z</time>
      </trkpt>
      <trkpt lat="38.638027" lon="-0.504582">
        <ele>861.986</ele>
        <time>2019-06-16T12:39:57Z</time>
      </trkpt>
      <trkpt lat="38.638009" lon="-0.504664">
        <ele>862.438</ele>
        <time>2019-06-16T12:39:58Z</time>
      </trkpt>
      <trkpt lat="38.637989" lon="-0.504756">
        <ele>862.625</ele>
        <time>2019-06-16T12:39:59Z</time>
      </trkpt>
      <trkpt lat="38.637972" lon="-0.504857">
        <ele>862.214</ele>
        <time>2019-06-16T12:40:00Z</time>
      </trkpt>
      <trkpt lat="38.637950" lon="-0.504954">
        <ele>861.879</ele>
        <time>2019-06-16T12:40:01Z</time>
      </trkpt>
      <trkpt lat="38.637919" lon="-0.505053">
        <ele>861.411</ele>
        <time>2019-06-16T12:40:02Z</time>
      </trkpt>
      <trkpt lat="38.637892" lon="-0.505146">
        <ele>861.121</ele>
        <time>2019-06-16T12:40:03Z</time>
      </trkpt>
      <trkpt lat="38.637865" lon="-0.505244">
        <ele>860.703</ele>
        <time>2019-06-16T12:40:04Z</time>
      </trkpt>
      <trkpt lat="38.637838" lon="-0.505335">
        <ele>860.508</ele>
        <time>2019-06-16T12:40:05Z</time>
      </trkpt>
      <trkpt lat="38.637812" lon="-0.505432">
        <ele>860.384</ele>
        <time>2019-06-16T12:40:06Z</time>
      </trkpt>
      <trkpt lat="38.637789" lon="-0.505533">
        <ele>860.178</ele>
        <time>2019-06-16T12:40:07Z</time>
      </trkpt>
      <trkpt lat="38.637763" lon="-0.505631">
        <ele>860.297</ele>
        <time>2019-06-16T12:40:08Z</time>
      </trkpt>
      <trkpt lat="38.637737" lon="-0.505729">
        <ele>860.510</ele>
        <time>2019-06-16T12:40:09Z</time>
      </trkpt>
      <trkpt lat="38.637706" lon="-0.505824">
        <ele>860.782</ele>
        <time>2019-06-16T12:40:10Z</time>
      </trkpt>
      <trkpt lat="38.637679" lon="-0.505931">
        <ele>860.979</ele>
        <time>2019-06-16T12:40:11Z</time>
      </trkpt>
      <trkpt lat="38.637651" lon="-0.506033">
        <ele>861.268</ele>
        <time>2019-06-16T12:40:12Z</time>
      </trkpt>
      <trkpt lat="38.637620" lon="-0.506136">
        <ele>861.543</ele>
        <time>2019-06-16T12:40:13Z</time>
      </trkpt>
      <trkpt lat="38.637592" lon="-0.506244">
        <ele>861.275</ele>
        <time>2019-06-16T12:40:14Z</time>
      </trkpt>
      <trkpt lat="38.637559" lon="-0.506349">
        <ele>860.928</ele>
        <time>2019-06-16T12:40:15Z</time>
      </trkpt>
      <trkpt lat="38.637525" lon="-0.506458">
        <ele>860.720</ele>
        <time>2019-06-16T12:40:16Z</time>
      </trkpt>
      <trkpt lat="38.637519" lon="-0.506567">
        <ele>860.308</ele>
        <time>2019-06-16T12:40:17Z</time>
      </trkpt>
      <trkpt lat="38.637488" lon="-0.506654">
        <ele>860.050</ele>
        <time>2019-06-16T12:40:18Z</time>
      </trkpt>
      <trkpt lat="38.637450" lon="-0.506767">
        <ele>859.324</ele>
        <time>2019-06-16T12:40:19Z</time>
      </trkpt>
      <trkpt lat="38.637413" lon="-0.506867">
        <ele>858.933</ele>
        <time>2019-06-16T12:40:20Z</time>
      </trkpt>
      <trkpt lat="38.637379" lon="-0.506995">
        <ele>858.746</ele>
        <time>2019-06-16T12:40:21Z</time>
      </trkpt>
      <trkpt lat="38.637351" lon="-0.507103">
        <ele>858.768</ele>
        <time>2019-06-16T12:40:22Z</time>
      </trkpt>
      <trkpt lat="38.637320" lon="-0.507199">
        <ele>858.715</ele>
        <time>2019-06-16T12:40:23Z</time>
      </trkpt>
      <trkpt lat="38.637306" lon="-0.507325">
        <ele>858.984</ele>
        <time>2019-06-16T12:40:24Z</time>
      </trkpt>
      <trkpt lat="38.637281" lon="-0.507433">
        <ele>859.049</ele>
        <time>2019-06-16T12:40:25Z</time>
      </trkpt>
      <trkpt lat="38.637249" lon="-0.507539">
        <ele>859.258</ele>
        <time>2019-06-16T12:40:26Z</time>
      </trkpt>
      <trkpt lat="38.637216" lon="-0.507644">
        <ele>859.552</ele>
        <time>2019-06-16T12:40:27Z</time>
      </trkpt>
      <trkpt lat="38.637184" lon="-0.507741">
        <ele>859.817</ele>
        <time>2019-06-16T12:40:28Z</time>
      </trkpt>
      <trkpt lat="38.637156" lon="-0.507848">
        <ele>859.908</ele>
        <time>2019-06-16T12:40:29Z</time>
      </trkpt>
      <trkpt lat="38.637121" lon="-0.507951">
        <ele>859.858</ele>
        <time>2019-06-16T12:40:30Z</time>
      </trkpt>
      <trkpt lat="38.637094" lon="-0.508055">
        <ele>859.512</ele>
        <time>2019-06-16T12:40:31Z</time>
      </trkpt>
      <trkpt lat="38.637063" lon="-0.508159">
        <ele>858.821</ele>
        <time>2019-06-16T12:40:32Z</time>
      </trkpt>
      <trkpt lat="38.637034" lon="-0.508255">
        <ele>858.184</ele>
        <time>2019-06-16T12:40:33Z</time>
      </trkpt>
      <trkpt lat="38.637001" lon="-0.508359">
        <ele>857.526</ele>
        <time>2019-06-16T12:40:34Z</time>
      </trkpt>
      <trkpt lat="38.636969" lon="-0.508460">
        <ele>857.613</ele>
        <time>2019-06-16T12:40:35Z</time>
      </trkpt>
      <trkpt lat="38.636933" lon="-0.508568">
        <ele>857.842</ele>
        <time>2019-06-16T12:40:36Z</time>
      </trkpt>
      <trkpt lat="38.636925" lon="-0.508684">
        <ele>858.757</ele>
        <time>2019-06-16T12:40:37Z</time>
      </trkpt>
      <trkpt lat="38.636891" lon="-0.508778">
        <ele>859.579</ele>
        <time>2019-06-16T12:40:38Z</time>
      </trkpt>
      <trkpt lat="38.636859" lon="-0.508883">
        <ele>860.605</ele>
        <time>2019-06-16T12:40:39Z</time>
      </trkpt>
      <trkpt lat="38.636823" lon="-0.508987">
        <ele>861.125</ele>
        <time>2019-06-16T12:40:40Z</time>
      </trkpt>
      <trkpt lat="38.636787" lon="-0.509082">
        <ele>861.508</ele>
        <time>2019-06-16T12:40:41Z</time>
      </trkpt>
      <trkpt lat="38.636758" lon="-0.509193">
        <ele>862.080</ele>
        <time>2019-06-16T12:40:42Z</time>
      </trkpt>
      <trkpt lat="38.636725" lon="-0.509300">
        <ele>862.054</ele>
        <time>2019-06-16T12:40:43Z</time>
      </trkpt>
      <trkpt lat="38.636705" lon="-0.509389">
        <ele>862.093</ele>
        <time>2019-06-16T12:40:44Z</time>
      </trkpt>
      <trkpt lat="38.636676" lon="-0.509491">
        <ele>861.876</ele>
        <time>2019-06-16T12:40:45Z</time>
      </trkpt>
      <trkpt lat="38.636654" lon="-0.509590">
        <ele>861.488</ele>
        <time>2019-06-16T12:40:46Z</time>
      </trkpt>
      <trkpt lat="38.636628" lon="-0.509689">
        <ele>861.015</ele>
        <time>2019-06-16T12:40:47Z</time>
      </trkpt>
      <trkpt lat="38.636602" lon="-0.509793">
        <ele>860.654</ele>
        <time>2019-06-16T12:40:48Z</time>
      </trkpt>
      <trkpt lat="38.636577" lon="-0.509907">
        <ele>860.259</ele>
        <time>2019-06-16T12:40:49Z</time>
      </trkpt>
      <trkpt lat="38.636542" lon="-0.510017">
        <ele>860.171</ele>
        <time>2019-06-16T12:40:50Z</time>
      </trkpt>
      <trkpt lat="38.636506" lon="-0.510121">
        <ele>860.641</ele>
        <time>2019-06-16T12:40:51Z</time>
      </trkpt>
      <trkpt lat="38.636461" lon="-0.510227">
        <ele>861.015</ele>
        <time>2019-06-16T12:40:52Z</time>
      </trkpt>
      <trkpt lat="38.636421" lon="-0.510336">
        <ele>861.308</ele>
        <time>2019-06-16T12:40:53Z</time>
      </trkpt>
      <trkpt lat="38.636380" lon="-0.510437">
        <ele>861.440</ele>
        <time>2019-06-16T12:40:54Z</time>
      </trkpt>
      <trkpt lat="38.636336" lon="-0.510552">
        <ele>860.814</ele>
        <time>2019-06-16T12:40:55Z</time>
      </trkpt>
      <trkpt lat="38.636295" lon="-0.510660">
        <ele>860.213</ele>
        <time>2019-06-16T12:40:56Z</time>
      </trkpt>
      <trkpt lat="38.636255" lon="-0.510777">
        <ele>859.566</ele>
        <time>2019-06-16T12:40:57Z</time>
      </trkpt>
      <trkpt lat="38.636210" lon="-0.510879">
        <ele>858.828</ele>
        <time>2019-06-16T12:40:58Z</time>
      </trkpt>
      <trkpt lat="38.636164" lon="-0.510982">
        <ele>858.575</ele>
        <time>2019-06-16T12:40:59Z</time>
      </trkpt>
      <trkpt lat="38.636118" lon="-0.511092">
        <ele>858.974</ele>
        <time>2019-06-16T12:41:00Z</time>
      </trkpt>
      <trkpt lat="38.636079" lon="-0.511201">
        <ele>858.659</ele>
        <time>2019-06-16T12:41:01Z</time>
      </trkpt>
      <trkpt lat="38.636034" lon="-0.511313">
        <ele>858.066</ele>
        <time>2019-06-16T12:41:02Z</time>
      </trkpt>
      <trkpt lat="38.635986" lon="-0.511426">
        <ele>856.729</ele>
        <time>2019-06-16T12:41:03Z</time>
      </trkpt>
      <trkpt lat="38.635945" lon="-0.511533">
        <ele>854.521</ele>
        <time>2019-06-16T12:41:04Z</time>
      </trkpt>
      <trkpt lat="38.635900" lon="-0.511636">
        <ele>852.408</ele>
        <time>2019-06-16T12:41:05Z</time>
      </trkpt>
      <trkpt lat="38.635848" lon="-0.511744">
        <ele>850.689</ele>
        <time>2019-06-16T12:41:06Z</time>
      </trkpt>
      <trkpt lat="38.635796" lon="-0.511850">
        <ele>849.963</ele>
        <time>2019-06-16T12:41:07Z</time>
      </trkpt>
      <trkpt lat="38.635762" lon="-0.511970">
        <ele>849.562</ele>
        <time>2019-06-16T12:41:08Z</time>
      </trkpt>
      <trkpt lat="38.635722" lon="-0.512081">
        <ele>849.825</ele>
        <time>2019-06-16T12:41:09Z</time>
      </trkpt>
      <trkpt lat="38.635683" lon="-0.512193">
        <ele>850.127</ele>
        <time>2019-06-16T12:41:10Z</time>
      </trkpt>
      <trkpt lat="38.635646" lon="-0.512312">
        <ele>850.924</ele>
        <time>2019-06-16T12:41:11Z</time>
      </trkpt>
      <trkpt lat="38.635603" lon="-0.512420">
        <ele>851.693</ele>
        <time>2019-06-16T12:41:12Z</time>
      </trkpt>
      <trkpt lat="38.635555" lon="-0.512533">
        <ele>852.248</ele>
        <time>2019-06-16T12:41:13Z</time>
      </trkpt>
      <trkpt lat="38.635500" lon="-0.512633">
        <ele>852.436</ele>
        <time>2019-06-16T12:41:14Z</time>
      </trkpt>
      <trkpt lat="38.635447" lon="-0.512743">
        <ele>852.317</ele>
        <time>2019-06-16T12:41:15Z</time>
      </trkpt>
      <trkpt lat="38.635398" lon="-0.512855">
        <ele>851.118</ele>
        <time>2019-06-16T12:41:16Z</time>
      </trkpt>
      <trkpt lat="38.635350" lon="-0.512964">
        <ele>849.408</ele>
        <time>2019-06-16T12:41:17Z</time>
      </trkpt>
      <trkpt lat="38.635299" lon="-0.513077">
        <ele>847.596</ele>
        <time>2019-06-16T12:41:18Z</time>
      </trkpt>
      <trkpt lat="38.635256" lon="-0.513197">
        <ele>847.690</ele>
        <time>2019-06-16T12:41:19Z</time>
      </trkpt>
      <trkpt lat="38.635209" lon="-0.513313">
        <ele>848.239</ele>
        <time>2019-06-16T12:41:20Z</time>
      </trkpt>
      <trkpt lat="38.635148" lon="-0.513415">
        <ele>848.552</ele>
        <time>2019-06-16T12:41:21Z</time>
      </trkpt>
      <trkpt lat="38.635112" lon="-0.513532">
        <ele>848.634</ele>
        <time>2019-06-16T12:41:22Z</time>
      </trkpt>
      <trkpt lat="38.635057" lon="-0.513647">
        <ele>848.831</ele>
        <time>2019-06-16T12:41:23Z</time>
      </trkpt>
      <trkpt lat="38.635012" lon="-0.513760">
        <ele>849.050</ele>
        <time>2019-06-16T12:41:24Z</time>
      </trkpt>
      <trkpt lat="38.634959" lon="-0.513875">
        <ele>849.035</ele>
        <time>2019-06-16T12:41:25Z</time>
      </trkpt>
      <trkpt lat="38.634916" lon="-0.513992">
        <ele>848.651</ele>
        <time>2019-06-16T12:41:26Z</time>
      </trkpt>
      <trkpt lat="38.634867" lon="-0.514115">
        <ele>848.201</ele>
        <time>2019-06-16T12:41:27Z</time>
      </trkpt>
      <trkpt lat="38.634822" lon="-0.514230">
        <ele>848.411</ele>
        <time>2019-06-16T12:41:28Z</time>
      </trkpt>
      <trkpt lat="38.634761" lon="-0.514343">
        <ele>849.208</ele>
        <time>2019-06-16T12:41:29Z</time>
      </trkpt>
      <trkpt lat="38.634708" lon="-0.514458">
        <ele>850.148</ele>
        <time>2019-06-16T12:41:30Z</time>
      </trkpt>
      <trkpt lat="38.634651" lon="-0.514574">
        <ele>850.912</ele>
        <time>2019-06-16T12:41:31Z</time>
      </trkpt>
      <trkpt lat="38.634607" lon="-0.514701">
        <ele>852.241</ele>
        <time>2019-06-16T12:41:32Z</time>
      </trkpt>
      <trkpt lat="38.634564" lon="-0.514827">
        <ele>853.524</ele>
        <time>2019-06-16T12:41:33Z</time>
      </trkpt>
      <trkpt lat="38.634520" lon="-0.514943">
        <ele>854.596</ele>
        <time>2019-06-16T12:41:34Z</time>
      </trkpt>
      <trkpt lat="38.634471" lon="-0.515059">
        <ele>854.873</ele>
        <time>2019-06-16T12:41:35Z</time>
      </trkpt>
      <trkpt lat="38.634411" lon="-0.515175">
        <ele>854.152</ele>
        <time>2019-06-16T12:41:36Z</time>
      </trkpt>
      <trkpt lat="38.634359" lon="-0.515295">
        <ele>853.057</ele>
        <time>2019-06-16T12:41:37Z</time>
      </trkpt>
      <trkpt lat="38.634322" lon="-0.515425">
        <ele>851.927</ele>
        <time>2019-06-16T12:41:38Z</time>
      </trkpt>
      <trkpt lat="38.634259" lon="-0.515542">
        <ele>850.468</ele>
        <time>2019-06-16T12:41:39Z</time>
      </trkpt>
      <trkpt lat="38.634206" lon="-0.515661">
        <ele>849.614</ele>
        <time>2019-06-16T12:41:40Z</time>
      </trkpt>
      <trkpt lat="38.634152" lon="-0.515781">
        <ele>848.808</ele>
        <time>2019-06-16T12:41:41Z</time>
      </trkpt>
      <trkpt lat="38.634097" lon="-0.515900">
        <ele>847.995</ele>
        <time>2019-06-16T12:41:42Z</time>
      </trkpt>
      <trkpt lat="38.634039" lon="-0.516016">
        <ele>846.949</ele>
        <time>2019-06-16T12:41:43Z</time>
      </trkpt>
      <trkpt lat="38.633988" lon="-0.516145">
        <ele>845.658</ele>
        <time>2019-06-16T12:41:44Z</time>
      </trkpt>
      <trkpt lat="38.633936" lon="-0.516270">
        <ele>844.251</ele>
        <time>2019-06-16T12:41:45Z</time>
      </trkpt>
      <trkpt lat="38.633881" lon="-0.516392">
        <ele>843.083</ele>
        <time>2019-06-16T12:41:46Z</time>
      </trkpt>
      <trkpt lat="38.633827" lon="-0.516518">
        <ele>842.450</ele>
        <time>2019-06-16T12:41:47Z</time>
      </trkpt>
      <trkpt lat="38.633775" lon="-0.516640">
        <ele>842.189</ele>
        <time>2019-06-16T12:41:48Z</time>
      </trkpt>
      <trkpt lat="38.633726" lon="-0.516773">
        <ele>842.264</ele>
        <time>2019-06-16T12:41:49Z</time>
      </trkpt>
      <trkpt lat="38.633673" lon="-0.516904">
        <ele>842.794</ele>
        <time>2019-06-16T12:41:50Z</time>
      </trkpt>
      <trkpt lat="38.633611" lon="-0.517031">
        <ele>842.457</ele>
        <time>2019-06-16T12:41:51Z</time>
      </trkpt>
      <trkpt lat="38.633569" lon="-0.517168">
        <ele>841.022</ele>
        <time>2019-06-16T12:41:52Z</time>
      </trkpt>
      <trkpt lat="38.633516" lon="-0.517302">
        <ele>839.108</ele>
        <time>2019-06-16T12:41:53Z</time>
      </trkpt>
      <trkpt lat="38.633474" lon="-0.517442">
        <ele>837.132</ele>
        <time>2019-06-16T12:41:54Z</time>
      </trkpt>
      <trkpt lat="38.633418" lon="-0.517575">
        <ele>836.316</ele>
        <time>2019-06-16T12:41:55Z</time>
      </trkpt>
      <trkpt lat="38.633364" lon="-0.517707">
        <ele>836.295</ele>
        <time>2019-06-16T12:41:56Z</time>
      </trkpt>
      <trkpt lat="38.633317" lon="-0.517850">
        <ele>836.358</ele>
        <time>2019-06-16T12:41:57Z</time>
      </trkpt>
      <trkpt lat="38.633262" lon="-0.517987">
        <ele>836.350</ele>
        <time>2019-06-16T12:41:58Z</time>
      </trkpt>
      <trkpt lat="38.633207" lon="-0.518123">
        <ele>835.787</ele>
        <time>2019-06-16T12:41:59Z</time>
      </trkpt>
      <trkpt lat="38.633151" lon="-0.518263">
        <ele>834.576</ele>
        <time>2019-06-16T12:42:00Z</time>
      </trkpt>
      <trkpt lat="38.633094" lon="-0.518398">
        <ele>833.231</ele>
        <time>2019-06-16T12:42:01Z</time>
      </trkpt>
      <trkpt lat="38.633033" lon="-0.518529">
        <ele>832.656</ele>
        <time>2019-06-16T12:42:02Z</time>
      </trkpt>
      <trkpt lat="38.632972" lon="-0.518664">
        <ele>833.059</ele>
        <time>2019-06-16T12:42:03Z</time>
      </trkpt>
      <trkpt lat="38.632913" lon="-0.518795">
        <ele>833.514</ele>
        <time>2019-06-16T12:42:04Z</time>
      </trkpt>
      <trkpt lat="38.632853" lon="-0.518923">
        <ele>833.708</ele>
        <time>2019-06-16T12:42:05Z</time>
      </trkpt>
      <trkpt lat="38.632796" lon="-0.519053">
        <ele>833.388</ele>
        <time>2019-06-16T12:42:06Z</time>
      </trkpt>
      <trkpt lat="38.632740" lon="-0.519190">
        <ele>832.572</ele>
        <time>2019-06-16T12:42:07Z</time>
      </trkpt>
      <trkpt lat="38.632686" lon="-0.519322">
        <ele>832.571</ele>
        <time>2019-06-16T12:42:08Z</time>
      </trkpt>
      <trkpt lat="38.632633" lon="-0.519452">
        <ele>832.464</ele>
        <time>2019-06-16T12:42:09Z</time>
      </trkpt>
      <trkpt lat="38.632578" lon="-0.519582">
        <ele>831.716</ele>
        <time>2019-06-16T12:42:10Z</time>
      </trkpt>
      <trkpt lat="38.632522" lon="-0.519706">
        <ele>830.553</ele>
        <time>2019-06-16T12:42:11Z</time>
      </trkpt>
      <trkpt lat="38.632478" lon="-0.519837">
        <ele>830.272</ele>
        <time>2019-06-16T12:42:12Z</time>
      </trkpt>
      <trkpt lat="38.632431" lon="-0.519962">
        <ele>829.947</ele>
        <time>2019-06-16T12:42:13Z</time>
      </trkpt>
      <trkpt lat="38.632381" lon="-0.520092">
        <ele>830.056</ele>
        <time>2019-06-16T12:42:14Z</time>
      </trkpt>
      <trkpt lat="38.632340" lon="-0.520219">
        <ele>830.259</ele>
        <time>2019-06-16T12:42:15Z</time>
      </trkpt>
      <trkpt lat="38.632292" lon="-0.520342">
        <ele>830.514</ele>
        <time>2019-06-16T12:42:16Z</time>
      </trkpt>
      <trkpt lat="38.632244" lon="-0.520462">
        <ele>831.208</ele>
        <time>2019-06-16T12:42:17Z</time>
      </trkpt>
      <trkpt lat="38.632209" lon="-0.520589">
        <ele>831.988</ele>
        <time>2019-06-16T12:42:18Z</time>
      </trkpt>
      <trkpt lat="38.632186" lon="-0.520723">
        <ele>832.022</ele>
        <time>2019-06-16T12:42:19Z</time>
      </trkpt>
      <trkpt lat="38.632158" lon="-0.520850">
        <ele>831.841</ele>
        <time>2019-06-16T12:42:20Z</time>
      </trkpt>
      <trkpt lat="38.632144" lon="-0.520984">
        <ele>831.494</ele>
        <time>2019-06-16T12:42:21Z</time>
      </trkpt>
      <trkpt lat="38.632086" lon="-0.521094">
        <ele>830.116</ele>
        <time>2019-06-16T12:42:22Z</time>
      </trkpt>
      <trkpt lat="38.632033" lon="-0.521207">
        <ele>829.423</ele>
        <time>2019-06-16T12:42:23Z</time>
      </trkpt>
      <trkpt lat="38.631968" lon="-0.521306">
        <ele>828.852</ele>
        <time>2019-06-16T12:42:24Z</time>
      </trkpt>
      <trkpt lat="38.631902" lon="-0.521408">
        <ele>829.117</ele>
        <time>2019-06-16T12:42:25Z</time>
      </trkpt>
      <trkpt lat="38.631827" lon="-0.521501">
        <ele>830.063</ele>
        <time>2019-06-16T12:42:26Z</time>
      </trkpt>
      <trkpt lat="38.631754" lon="-0.521597">
        <ele>830.844</ele>
        <time>2019-06-16T12:42:27Z</time>
      </trkpt>
      <trkpt lat="38.631685" lon="-0.521693">
        <ele>831.218</ele>
        <time>2019-06-16T12:42:28Z</time>
      </trkpt>
      <trkpt lat="38.631614" lon="-0.521795">
        <ele>830.308</ele>
        <time>2019-06-16T12:42:29Z</time>
      </trkpt>
      <trkpt lat="38.631553" lon="-0.521905">
        <ele>829.469</ele>
        <time>2019-06-16T12:42:30Z</time>
      </trkpt>
      <trkpt lat="38.631484" lon="-0.522009">
        <ele>828.423</ele>
        <time>2019-06-16T12:42:31Z</time>
      </trkpt>
      <trkpt lat="38.631428" lon="-0.522127">
        <ele>827.612</ele>
        <time>2019-06-16T12:42:32Z</time>
      </trkpt>
      <trkpt lat="38.631380" lon="-0.522249">
        <ele>827.095</ele>
        <time>2019-06-16T12:42:33Z</time>
      </trkpt>
      <trkpt lat="38.631345" lon="-0.522377">
        <ele>827.167</ele>
        <time>2019-06-16T12:42:34Z</time>
      </trkpt>
      <trkpt lat="38.631306" lon="-0.522498">
        <ele>827.174</ele>
        <time>2019-06-16T12:42:35Z</time>
      </trkpt>
      <trkpt lat="38.631279" lon="-0.522622">
        <ele>827.323</ele>
        <time>2019-06-16T12:42:36Z</time>
      </trkpt>
      <trkpt lat="38.631254" lon="-0.522752">
        <ele>827.588</ele>
        <time>2019-06-16T12:42:37Z</time>
      </trkpt>
      <trkpt lat="38.631235" lon="-0.522882">
        <ele>827.469</ele>
        <time>2019-06-16T12:42:38Z</time>
      </trkpt>
      <trkpt lat="38.631216" lon="-0.523010">
        <ele>827.304</ele>
        <time>2019-06-16T12:42:39Z</time>
      </trkpt>
      <trkpt lat="38.631191" lon="-0.523153">
        <ele>827.624</ele>
        <time>2019-06-16T12:42:40Z</time>
      </trkpt>
      <trkpt lat="38.631172" lon="-0.523293">
        <ele>828.108</ele>
        <time>2019-06-16T12:42:41Z</time>
      </trkpt>
      <trkpt lat="38.631148" lon="-0.523434">
        <ele>827.699</ele>
        <time>2019-06-16T12:42:42Z</time>
      </trkpt>
      <trkpt lat="38.631128" lon="-0.523573">
        <ele>826.533</ele>
        <time>2019-06-16T12:42:43Z</time>
      </trkpt>
      <trkpt lat="38.631106" lon="-0.523695">
        <ele>825.432</ele>
        <time>2019-06-16T12:42:44Z</time>
      </trkpt>
      <trkpt lat="38.631092" lon="-0.523838">
        <ele>824.215</ele>
        <time>2019-06-16T12:42:45Z</time>
      </trkpt>
      <trkpt lat="38.631072" lon="-0.523971">
        <ele>822.917</ele>
        <time>2019-06-16T12:42:46Z</time>
      </trkpt>
      <trkpt lat="38.631055" lon="-0.524107">
        <ele>821.444</ele>
        <time>2019-06-16T12:42:47Z</time>
      </trkpt>
      <trkpt lat="38.631033" lon="-0.524244">
        <ele>820.413</ele>
        <time>2019-06-16T12:42:48Z</time>
      </trkpt>
      <trkpt lat="38.631020" lon="-0.524382">
        <ele>819.978</ele>
        <time>2019-06-16T12:42:49Z</time>
      </trkpt>
      <trkpt lat="38.631008" lon="-0.524520">
        <ele>820.041</ele>
        <time>2019-06-16T12:42:50Z</time>
      </trkpt>
      <trkpt lat="38.630989" lon="-0.524655">
        <ele>820.781</ele>
        <time>2019-06-16T12:42:51Z</time>
      </trkpt>
      <trkpt lat="38.630981" lon="-0.524795">
        <ele>821.409</ele>
        <time>2019-06-16T12:42:52Z</time>
      </trkpt>
      <trkpt lat="38.630973" lon="-0.524926">
        <ele>822.108</ele>
        <time>2019-06-16T12:42:53Z</time>
      </trkpt>
      <trkpt lat="38.630963" lon="-0.525054">
        <ele>822.777</ele>
        <time>2019-06-16T12:42:54Z</time>
      </trkpt>
      <trkpt lat="38.630955" lon="-0.525187">
        <ele>823.131</ele>
        <time>2019-06-16T12:42:55Z</time>
      </trkpt>
      <trkpt lat="38.630951" lon="-0.525318">
        <ele>823.350</ele>
        <time>2019-06-16T12:42:56Z</time>
      </trkpt>
      <trkpt lat="38.630947" lon="-0.525458">
        <ele>822.633</ele>
        <time>2019-06-16T12:42:57Z</time>
      </trkpt>
      <trkpt lat="38.630943" lon="-0.525592">
        <ele>822.185</ele>
        <time>2019-06-16T12:42:58Z</time>
      </trkpt>
      <trkpt lat="38.630929" lon="-0.525722">
        <ele>821.632</ele>
        <time>2019-06-16T12:42:59Z</time>
      </trkpt>
      <trkpt lat="38.630917" lon="-0.525856">
        <ele>821.261</ele>
        <time>2019-06-16T12:43:00Z</time>
      </trkpt>
      <trkpt lat="38.630886" lon="-0.525986">
        <ele>820.826</ele>
        <time>2019-06-16T12:43:01Z</time>
      </trkpt>
      <trkpt lat="38.630855" lon="-0.526115">
        <ele>820.384</ele>
        <time>2019-06-16T12:43:02Z</time>
      </trkpt>
      <trkpt lat="38.630828" lon="-0.526250">
        <ele>819.907</ele>
        <time>2019-06-16T12:43:03Z</time>
      </trkpt>
      <trkpt lat="38.630787" lon="-0.526378">
        <ele>819.217</ele>
        <time>2019-06-16T12:43:04Z</time>
      </trkpt>
      <trkpt lat="38.630751" lon="-0.526512">
        <ele>817.808</ele>
        <time>2019-06-16T12:43:05Z</time>
      </trkpt>
      <trkpt lat="38.630712" lon="-0.526648">
        <ele>816.481</ele>
        <time>2019-06-16T12:43:06Z</time>
      </trkpt>
      <trkpt lat="38.630680" lon="-0.526788">
        <ele>815.465</ele>
        <time>2019-06-16T12:43:07Z</time>
      </trkpt>
      <trkpt lat="38.630652" lon="-0.526933">
        <ele>814.734</ele>
        <time>2019-06-16T12:43:08Z</time>
      </trkpt>
      <trkpt lat="38.630620" lon="-0.527071">
        <ele>814.197</ele>
        <time>2019-06-16T12:43:09Z</time>
      </trkpt>
      <trkpt lat="38.630591" lon="-0.527210">
        <ele>813.479</ele>
        <time>2019-06-16T12:43:10Z</time>
      </trkpt>
      <trkpt lat="38.630556" lon="-0.527351">
        <ele>813.016</ele>
        <time>2019-06-16T12:43:11Z</time>
      </trkpt>
      <trkpt lat="38.630512" lon="-0.527480">
        <ele>813.285</ele>
        <time>2019-06-16T12:43:12Z</time>
      </trkpt>
      <trkpt lat="38.630481" lon="-0.527617">
        <ele>813.870</ele>
        <time>2019-06-16T12:43:13Z</time>
      </trkpt>
      <trkpt lat="38.630449" lon="-0.527760">
        <ele>814.293</ele>
        <time>2019-06-16T12:43:14Z</time>
      </trkpt>
      <trkpt lat="38.630404" lon="-0.527904">
        <ele>814.165</ele>
        <time>2019-06-16T12:43:15Z</time>
      </trkpt>
      <trkpt lat="38.630363" lon="-0.528045">
        <ele>813.921</ele>
        <time>2019-06-16T12:43:16Z</time>
      </trkpt>
      <trkpt lat="38.630333" lon="-0.528194">
        <ele>813.608</ele>
        <time>2019-06-16T12:43:17Z</time>
      </trkpt>
      <trkpt lat="38.630294" lon="-0.528340">
        <ele>813.232</ele>
        <time>2019-06-16T12:43:18Z</time>
      </trkpt>
      <trkpt lat="38.630261" lon="-0.528491">
        <ele>812.756</ele>
        <time>2019-06-16T12:43:19Z</time>
      </trkpt>
      <trkpt lat="38.630232" lon="-0.528636">
        <ele>812.045</ele>
        <time>2019-06-16T12:43:20Z</time>
      </trkpt>
      <trkpt lat="38.630204" lon="-0.528785">
        <ele>810.668</ele>
        <time>2019-06-16T12:43:21Z</time>
      </trkpt>
      <trkpt lat="38.630170" lon="-0.528935">
        <ele>809.330</ele>
        <time>2019-06-16T12:43:22Z</time>
      </trkpt>
      <trkpt lat="38.630138" lon="-0.529074">
        <ele>808.357</ele>
        <time>2019-06-16T12:43:23Z</time>
      </trkpt>
      <trkpt lat="38.630105" lon="-0.529219">
        <ele>807.616</ele>
        <time>2019-06-16T12:43:24Z</time>
      </trkpt>
      <trkpt lat="38.630062" lon="-0.529362">
        <ele>807.041</ele>
        <time>2019-06-16T12:43:25Z</time>
      </trkpt>
      <trkpt lat="38.630020" lon="-0.529508">
        <ele>806.137</ele>
        <time>2019-06-16T12:43:26Z</time>
      </trkpt>
      <trkpt lat="38.629984" lon="-0.529655">
        <ele>805.149</ele>
        <time>2019-06-16T12:43:27Z</time>
      </trkpt>
      <trkpt lat="38.629956" lon="-0.529801">
        <ele>804.213</ele>
        <time>2019-06-16T12:43:28Z</time>
      </trkpt>
      <trkpt lat="38.629917" lon="-0.529944">
        <ele>803.008</ele>
        <time>2019-06-16T12:43:29Z</time>
      </trkpt>
      <trkpt lat="38.629878" lon="-0.530092">
        <ele>802.736</ele>
        <time>2019-06-16T12:43:30Z</time>
      </trkpt>
      <trkpt lat="38.629841" lon="-0.530239">
        <ele>802.820</ele>
        <time>2019-06-16T12:43:31Z</time>
      </trkpt>
      <trkpt lat="38.629805" lon="-0.530386">
        <ele>803.189</ele>
        <time>2019-06-16T12:43:32Z</time>
      </trkpt>
      <trkpt lat="38.629766" lon="-0.530532">
        <ele>803.462</ele>
        <time>2019-06-16T12:43:33Z</time>
      </trkpt>
      <trkpt lat="38.629727" lon="-0.530680">
        <ele>804.454</ele>
        <time>2019-06-16T12:43:34Z</time>
      </trkpt>
      <trkpt lat="38.629694" lon="-0.530825">
        <ele>805.721</ele>
        <time>2019-06-16T12:43:35Z</time>
      </trkpt>
      <trkpt lat="38.629658" lon="-0.530970">
        <ele>807.010</ele>
        <time>2019-06-16T12:43:36Z</time>
      </trkpt>
      <trkpt lat="38.629626" lon="-0.531105">
        <ele>808.215</ele>
        <time>2019-06-16T12:43:37Z</time>
      </trkpt>
      <trkpt lat="38.629592" lon="-0.531251">
        <ele>808.659</ele>
        <time>2019-06-16T12:43:38Z</time>
      </trkpt>
      <trkpt lat="38.629554" lon="-0.531384">
        <ele>808.403</ele>
        <time>2019-06-16T12:43:39Z</time>
      </trkpt>
      <trkpt lat="38.629523" lon="-0.531522">
        <ele>807.723</ele>
        <time>2019-06-16T12:43:40Z</time>
      </trkpt>
      <trkpt lat="38.629490" lon="-0.531654">
        <ele>807.008</ele>
        <time>2019-06-16T12:43:41Z</time>
      </trkpt>
      <trkpt lat="38.629447" lon="-0.531786">
        <ele>806.588</ele>
        <time>2019-06-16T12:43:42Z</time>
      </trkpt>
      <trkpt lat="38.629412" lon="-0.531925">
        <ele>806.132</ele>
        <time>2019-06-16T12:43:43Z</time>
      </trkpt>
      <trkpt lat="38.629385" lon="-0.532053">
        <ele>805.891</ele>
        <time>2019-06-16T12:43:44Z</time>
      </trkpt>
      <trkpt lat="38.629352" lon="-0.532198">
        <ele>805.364</ele>
        <time>2019-06-16T12:43:45Z</time>
      </trkpt>
      <trkpt lat="38.629318" lon="-0.532329">
        <ele>804.316</ele>
        <time>2019-06-16T12:43:46Z</time>
      </trkpt>
      <trkpt lat="38.629275" lon="-0.532449">
        <ele>803.553</ele>
        <time>2019-06-16T12:43:47Z</time>
      </trkpt>
      <trkpt lat="38.629240" lon="-0.532577">
        <ele>803.242</ele>
        <time>2019-06-16T12:43:48Z</time>
      </trkpt>
      <trkpt lat="38.629209" lon="-0.532695">
        <ele>803.127</ele>
        <time>2019-06-16T12:43:49Z</time>
      </trkpt>
      <trkpt lat="38.629199" lon="-0.532816">
        <ele>803.492</ele>
        <time>2019-06-16T12:43:50Z</time>
      </trkpt>
      <trkpt lat="38.629172" lon="-0.532930">
        <ele>803.673</ele>
        <time>2019-06-16T12:43:51Z</time>
      </trkpt>
      <trkpt lat="38.629158" lon="-0.533046">
        <ele>803.920</ele>
        <time>2019-06-16T12:43:52Z</time>
      </trkpt>
      <trkpt lat="38.629125" lon="-0.533157">
        <ele>804.208</ele>
        <time>2019-06-16T12:43:53Z</time>
      </trkpt>
      <trkpt lat="38.629100" lon="-0.533264">
        <ele>804.562</ele>
        <time>2019-06-16T12:43:54Z</time>
      </trkpt>
      <trkpt lat="38.629078" lon="-0.533375">
        <ele>804.836</ele>
        <time>2019-06-16T12:43:55Z</time>
      </trkpt>
      <trkpt lat="38.629052" lon="-0.533467">
        <ele>804.845</ele>
        <time>2019-06-16T12:43:56Z</time>
      </trkpt>
      <trkpt lat="38.629022" lon="-0.533567">
        <ele>804.458</ele>
        <time>2019-06-16T12:43:57Z</time>
      </trkpt>
      <trkpt lat="38.628997" lon="-0.533666">
        <ele>804.250</ele>
        <time>2019-06-16T12:43:58Z</time>
      </trkpt>
      <trkpt lat="38.628981" lon="-0.533776">
        <ele>804.487</ele>
        <time>2019-06-16T12:43:59Z</time>
      </trkpt>
      <trkpt lat="38.628961" lon="-0.533875">
        <ele>804.546</ele>
        <time>2019-06-16T12:44:00Z</time>
      </trkpt>
      <trkpt lat="38.628927" lon="-0.533976">
        <ele>804.241</ele>
        <time>2019-06-16T12:44:01Z</time>
      </trkpt>
      <trkpt lat="38.628902" lon="-0.534072">
        <ele>804.034</ele>
        <time>2019-06-16T12:44:02Z</time>
      </trkpt>
      <trkpt lat="38.628885" lon="-0.534172">
        <ele>804.055</ele>
        <time>2019-06-16T12:44:03Z</time>
      </trkpt>
      <trkpt lat="38.628862" lon="-0.534261">
        <ele>804.410</ele>
        <time>2019-06-16T12:44:04Z</time>
      </trkpt>
      <trkpt lat="38.628815" lon="-0.534362">
        <ele>804.408</ele>
        <time>2019-06-16T12:44:05Z</time>
      </trkpt>
      <trkpt lat="38.628786" lon="-0.534440">
        <ele>804.596</ele>
        <time>2019-06-16T12:44:06Z</time>
      </trkpt>
      <trkpt lat="38.628753" lon="-0.534529">
        <ele>805.150</ele>
        <time>2019-06-16T12:44:07Z</time>
      </trkpt>
      <trkpt lat="38.628713" lon="-0.534609">
        <ele>805.679</ele>
        <time>2019-06-16T12:44:08Z</time>
      </trkpt>
      <trkpt lat="38.628667" lon="-0.534694">
        <ele>806.262</ele>
        <time>2019-06-16T12:44:09Z</time>
      </trkpt>
      <trkpt lat="38.628620" lon="-0.534786">
        <ele>806.634</ele>
        <time>2019-06-16T12:44:10Z</time>
      </trkpt>
      <trkpt lat="38.628569" lon="-0.534879">
        <ele>806.651</ele>
        <time>2019-06-16T12:44:11Z</time>
      </trkpt>
      <trkpt lat="38.628519" lon="-0.534976">
        <ele>806.850</ele>
        <time>2019-06-16T12:44:12Z</time>
      </trkpt>
      <trkpt lat="38.628468" lon="-0.535069">
        <ele>806.665</ele>
        <time>2019-06-16T12:44:13Z</time>
      </trkpt>
      <trkpt lat="38.628413" lon="-0.535173">
        <ele>806.389</ele>
        <time>2019-06-16T12:44:14Z</time>
      </trkpt>
      <trkpt lat="38.628343" lon="-0.535268">
        <ele>806.006</ele>
        <time>2019-06-16T12:44:15Z</time>
      </trkpt>
      <trkpt lat="38.628278" lon="-0.535363">
        <ele>805.626</ele>
        <time>2019-06-16T12:44:16Z</time>
      </trkpt>
      <trkpt lat="38.628218" lon="-0.535463">
        <ele>805.308</ele>
        <time>2019-06-16T12:44:17Z</time>
      </trkpt>
      <trkpt lat="38.628157" lon="-0.535563">
        <ele>805.261</ele>
        <time>2019-06-16T12:44:18Z</time>
      </trkpt>
      <trkpt lat="38.628107" lon="-0.535670">
        <ele>805.675</ele>
        <time>2019-06-16T12:44:19Z</time>
      </trkpt>
      <trkpt lat="38.628046" lon="-0.535772">
        <ele>806.234</ele>
        <time>2019-06-16T12:44:20Z</time>
      </trkpt>
      <trkpt lat="38.627992" lon="-0.535887">
        <ele>806.077</ele>
        <time>2019-06-16T12:44:21Z</time>
      </trkpt>
      <trkpt lat="38.627928" lon="-0.535983">
        <ele>805.159</ele>
        <time>2019-06-16T12:44:22Z</time>
      </trkpt>
      <trkpt lat="38.627855" lon="-0.536085">
        <ele>804.566</ele>
        <time>2019-06-16T12:44:23Z</time>
      </trkpt>
      <trkpt lat="38.627797" lon="-0.536187">
        <ele>804.125</ele>
        <time>2019-06-16T12:44:24Z</time>
      </trkpt>
      <trkpt lat="38.627741" lon="-0.536305">
        <ele>803.670</ele>
        <time>2019-06-16T12:44:25Z</time>
      </trkpt>
      <trkpt lat="38.627684" lon="-0.536419">
        <ele>803.032</ele>
        <time>2019-06-16T12:44:26Z</time>
      </trkpt>
      <trkpt lat="38.627623" lon="-0.536528">
        <ele>802.692</ele>
        <time>2019-06-16T12:44:27Z</time>
      </trkpt>
      <trkpt lat="38.627570" lon="-0.536643">
        <ele>802.411</ele>
        <time>2019-06-16T12:44:28Z</time>
      </trkpt>
      <trkpt lat="38.627526" lon="-0.536760">
        <ele>801.508</ele>
        <time>2019-06-16T12:44:29Z</time>
      </trkpt>
      <trkpt lat="38.627485" lon="-0.536880">
        <ele>800.366</ele>
        <time>2019-06-16T12:44:30Z</time>
      </trkpt>
      <trkpt lat="38.627465" lon="-0.537015">
        <ele>799.070</ele>
        <time>2019-06-16T12:44:31Z</time>
      </trkpt>
      <trkpt lat="38.627454" lon="-0.537141">
        <ele>797.539</ele>
        <time>2019-06-16T12:44:32Z</time>
      </trkpt>
      <trkpt lat="38.627436" lon="-0.537274">
        <ele>796.352</ele>
        <time>2019-06-16T12:44:33Z</time>
      </trkpt>
      <trkpt lat="38.627429" lon="-0.537419">
        <ele>795.664</ele>
        <time>2019-06-16T12:44:34Z</time>
      </trkpt>
      <trkpt lat="38.627427" lon="-0.537555">
        <ele>795.511</ele>
        <time>2019-06-16T12:44:35Z</time>
      </trkpt>
      <trkpt lat="38.627425" lon="-0.537694">
        <ele>796.140</ele>
        <time>2019-06-16T12:44:36Z</time>
      </trkpt>
      <trkpt lat="38.627415" lon="-0.537828">
        <ele>796.795</ele>
        <time>2019-06-16T12:44:37Z</time>
      </trkpt>
      <trkpt lat="38.627416" lon="-0.537963">
        <ele>797.566</ele>
        <time>2019-06-16T12:44:38Z</time>
      </trkpt>
      <trkpt lat="38.627422" lon="-0.538102">
        <ele>798.229</ele>
        <time>2019-06-16T12:44:39Z</time>
      </trkpt>
      <trkpt lat="38.627419" lon="-0.538240">
        <ele>798.421</ele>
        <time>2019-06-16T12:44:40Z</time>
      </trkpt>
      <trkpt lat="38.627408" lon="-0.538350">
        <ele>798.308</ele>
        <time>2019-06-16T12:44:41Z</time>
      </trkpt>
      <trkpt lat="38.627403" lon="-0.538490">
        <ele>798.129</ele>
        <time>2019-06-16T12:44:42Z</time>
      </trkpt>
      <trkpt lat="38.627398" lon="-0.538620">
        <ele>797.983</ele>
        <time>2019-06-16T12:44:43Z</time>
      </trkpt>
      <trkpt lat="38.627387" lon="-0.538750">
        <ele>797.392</ele>
        <time>2019-06-16T12:44:44Z</time>
      </trkpt>
      <trkpt lat="38.627374" lon="-0.538877">
        <ele>796.725</ele>
        <time>2019-06-16T12:44:45Z</time>
      </trkpt>
      <trkpt lat="38.627368" lon="-0.538996">
        <ele>795.877</ele>
        <time>2019-06-16T12:44:46Z</time>
      </trkpt>
      <trkpt lat="38.627350" lon="-0.539121">
        <ele>794.794</ele>
        <time>2019-06-16T12:44:47Z</time>
      </trkpt>
      <trkpt lat="38.627343" lon="-0.539259">
        <ele>794.053</ele>
        <time>2019-06-16T12:44:48Z</time>
      </trkpt>
      <trkpt lat="38.627334" lon="-0.539388">
        <ele>793.418</ele>
        <time>2019-06-16T12:44:49Z</time>
      </trkpt>
      <trkpt lat="38.627329" lon="-0.539519">
        <ele>793.048</ele>
        <time>2019-06-16T12:44:50Z</time>
      </trkpt>
      <trkpt lat="38.627335" lon="-0.539657">
        <ele>792.961</ele>
        <time>2019-06-16T12:44:51Z</time>
      </trkpt>
      <trkpt lat="38.627336" lon="-0.539776">
        <ele>792.617</ele>
        <time>2019-06-16T12:44:52Z</time>
      </trkpt>
      <trkpt lat="38.627334" lon="-0.539906">
        <ele>792.108</ele>
        <time>2019-06-16T12:44:53Z</time>
      </trkpt>
      <trkpt lat="38.627356" lon="-0.540039">
        <ele>791.857</ele>
        <time>2019-06-16T12:44:54Z</time>
      </trkpt>
      <trkpt lat="38.627357" lon="-0.540173">
        <ele>791.351</ele>
        <time>2019-06-16T12:44:55Z</time>
      </trkpt>
      <trkpt lat="38.627358" lon="-0.540311">
        <ele>790.820</ele>
        <time>2019-06-16T12:44:56Z</time>
      </trkpt>
      <trkpt lat="38.627366" lon="-0.540450">
        <ele>790.453</ele>
        <time>2019-06-16T12:44:57Z</time>
      </trkpt>
      <trkpt lat="38.627363" lon="-0.540587">
        <ele>790.035</ele>
        <time>2019-06-16T12:44:58Z</time>
      </trkpt>
      <trkpt lat="38.627359" lon="-0.540728">
        <ele>790.052</ele>
        <time>2019-06-16T12:44:59Z</time>
      </trkpt>
      <trkpt lat="38.627347" lon="-0.540850">
        <ele>789.931</ele>
        <time>2019-06-16T12:45:00Z</time>
      </trkpt>
      <trkpt lat="38.627330" lon="-0.540968">
        <ele>789.966</ele>
        <time>2019-06-16T12:45:01Z</time>
      </trkpt>
      <trkpt lat="38.627298" lon="-0.541073">
        <ele>789.968</ele>
        <time>2019-06-16T12:45:02Z</time>
      </trkpt>
      <trkpt lat="38.627267" lon="-0.541187">
        <ele>789.742</ele>
        <time>2019-06-16T12:45:03Z</time>
      </trkpt>
      <trkpt lat="38.627197" lon="-0.541283">
        <ele>789.326</ele>
        <time>2019-06-16T12:45:04Z</time>
      </trkpt>
      <trkpt lat="38.627122" lon="-0.541330">
        <ele>788.908</ele>
        <time>2019-06-16T12:45:05Z</time>
      </trkpt>
      <trkpt lat="38.627052" lon="-0.541337">
        <ele>788.729</ele>
        <time>2019-06-16T12:45:06Z</time>
      </trkpt>
      <trkpt lat="38.626938" lon="-0.541269">
        <ele>788.823</ele>
        <time>2019-06-16T12:45:07Z</time>
      </trkpt>
      <trkpt lat="38.626812" lon="-0.541249">
        <ele>787.872</ele>
        <time>2019-06-16T12:45:08Z</time>
      </trkpt>
      <trkpt lat="38.626710" lon="-0.541236">
        <ele>786.955</ele>
        <time>2019-06-16T12:45:09Z</time>
      </trkpt>
      <trkpt lat="38.626612" lon="-0.541309">
        <ele>785.617</ele>
        <time>2019-06-16T12:45:10Z</time>
      </trkpt>
      <trkpt lat="38.626515" lon="-0.541396">
        <ele>784.414</ele>
        <time>2019-06-16T12:45:11Z</time>
      </trkpt>
      <trkpt lat="38.626448" lon="-0.541498">
        <ele>784.173</ele>
        <time>2019-06-16T12:45:12Z</time>
      </trkpt>
      <trkpt lat="38.626367" lon="-0.541590">
        <ele>784.268</ele>
        <time>2019-06-16T12:45:13Z</time>
      </trkpt>
      <trkpt lat="38.626267" lon="-0.541668">
        <ele>783.799</ele>
        <time>2019-06-16T12:45:14Z</time>
      </trkpt>
      <trkpt lat="38.626176" lon="-0.541749">
        <ele>782.007</ele>
        <time>2019-06-16T12:45:15Z</time>
      </trkpt>
      <trkpt lat="38.626112" lon="-0.541839">
        <ele>780.827</ele>
        <time>2019-06-16T12:45:16Z</time>
      </trkpt>
      <trkpt lat="38.626067" lon="-0.541933">
        <ele>779.108</ele>
        <time>2019-06-16T12:45:17Z</time>
      </trkpt>
      <trkpt lat="38.626019" lon="-0.542027">
        <ele>777.292</ele>
        <time>2019-06-16T12:45:18Z</time>
      </trkpt>
      <trkpt lat="38.625980" lon="-0.542120">
        <ele>775.696</ele>
        <time>2019-06-16T12:45:19Z</time>
      </trkpt>
      <trkpt lat="38.625953" lon="-0.542222">
        <ele>774.285</ele>
        <time>2019-06-16T12:45:20Z</time>
      </trkpt>
      <trkpt lat="38.625933" lon="-0.542291">
        <ele>773.548</ele>
        <time>2019-06-16T12:45:21Z</time>
      </trkpt>
      <trkpt lat="38.625917" lon="-0.542367">
        <ele>772.830</ele>
        <time>2019-06-16T12:45:22Z</time>
      </trkpt>
      <trkpt lat="38.625925" lon="-0.542455">
        <ele>772.557</ele>
        <time>2019-06-16T12:45:24Z</time>
      </trkpt>
      <trkpt lat="38.625967" lon="-0.542479">
        <ele>773.086</ele>
        <time>2019-06-16T12:45:34Z</time>
      </trkpt>
      <trkpt lat="38.626015" lon="-0.542470">
        <ele>773.861</ele>
        <time>2019-06-16T12:47:01Z</time>
      </trkpt>
      <trkpt lat="38.626117" lon="-0.542524">
        <ele>774.954</ele>
        <time>2019-06-16T12:47:03Z</time>
      </trkpt>
      <trkpt lat="38.626172" lon="-0.542597">
        <ele>775.256</ele>
        <time>2019-06-16T12:47:05Z</time>
      </trkpt>
      <trkpt lat="38.626200" lon="-0.542689">
        <ele>774.811</ele>
        <time>2019-06-16T12:47:07Z</time>
      </trkpt>
      <trkpt lat="38.626202" lon="-0.542780">
        <ele>774.008</ele>
        <time>2019-06-16T12:47:10Z</time>
      </trkpt>
      <trkpt lat="38.626189" lon="-0.542860">
        <ele>773.588</ele>
        <time>2019-06-16T12:47:12Z</time>
      </trkpt>
      <trkpt lat="38.626174" lon="-0.542916">
        <ele>773.232</ele>
        <time>2019-06-16T12:47:14Z</time>
      </trkpt>
      <trkpt lat="38.626144" lon="-0.542970">
        <ele>772.761</ele>
        <time>2019-06-16T12:47:19Z</time>
      </trkpt>
      <trkpt lat="38.626144" lon="-0.542970">
        <ele>772.794</ele>
        <time>2019-06-16T12:47:19Z</time>
      </trkpt>
      <trkpt lat="38.626094" lon="-0.543004">
        <ele>772.086</ele>
        <time>2019-06-16T12:48:07Z</time>
      </trkpt>
      <trkpt lat="38.626029" lon="-0.543054">
        <ele>771.173</ele>
        <time>2019-06-16T12:48:08Z</time>
      </trkpt>
      <trkpt lat="38.625909" lon="-0.543146">
        <ele>770.162</ele>
        <time>2019-06-16T12:48:09Z</time>
      </trkpt>
      <trkpt lat="38.625890" lon="-0.543224">
        <ele>770.217</ele>
        <time>2019-06-16T12:48:10Z</time>
      </trkpt>
      <trkpt lat="38.625818" lon="-0.543275">
        <ele>769.661</ele>
        <time>2019-06-16T12:48:11Z</time>
      </trkpt>
      <trkpt lat="38.625844" lon="-0.543392">
        <ele>769.921</ele>
        <time>2019-06-16T12:48:13Z</time>
      </trkpt>
      <trkpt lat="38.625844" lon="-0.543392">
        <ele>769.913</ele>
        <time>2019-06-16T12:48:13Z</time>
      </trkpt>
      <trkpt lat="38.625828" lon="-0.543485">
        <ele>769.408</ele>
        <time>2019-06-16T12:48:15Z</time>
      </trkpt>
      <trkpt lat="38.625828" lon="-0.543485">
        <ele>769.439</ele>
        <time>2019-06-16T12:48:15Z</time>
      </trkpt>
      <trkpt lat="38.625865" lon="-0.543682">
        <ele>769.893</ele>
        <time>2019-06-16T12:48:18Z</time>
      </trkpt>
      <trkpt lat="38.625865" lon="-0.543682">
        <ele>769.832</ele>
        <time>2019-06-16T12:48:18Z</time>
      </trkpt>
      <trkpt lat="38.625865" lon="-0.543682">
        <ele>769.855</ele>
        <time>2019-06-16T12:48:18Z</time>
      </trkpt>
      <trkpt lat="38.625902" lon="-0.543856">
        <ele>770.797</ele>
        <time>2019-06-16T12:48:21Z</time>
      </trkpt>
      <trkpt lat="38.625902" lon="-0.543856">
        <ele>770.764</ele>
        <time>2019-06-16T12:48:21Z</time>
      </trkpt>
      <trkpt lat="38.625902" lon="-0.543856">
        <ele>770.723</ele>
        <time>2019-06-16T12:48:21Z</time>
      </trkpt>
      <trkpt lat="38.625972" lon="-0.544072">
        <ele>771.828</ele>
        <time>2019-06-16T12:48:25Z</time>
      </trkpt>
      <trkpt lat="38.625972" lon="-0.544072">
        <ele>771.811</ele>
        <time>2019-06-16T12:48:25Z</time>
      </trkpt>
      <trkpt lat="38.625972" lon="-0.544072">
        <ele>771.821</ele>
        <time>2019-06-16T12:48:25Z</time>
      </trkpt>
      <trkpt lat="38.625972" lon="-0.544072">
        <ele>771.803</ele>
        <time>2019-06-16T12:48:25Z</time>
      </trkpt>
      <trkpt lat="38.626122" lon="-0.544308">
        <ele>773.208</ele>
        <time>2019-06-16T12:48:30Z</time>
      </trkpt>
      <trkpt lat="38.626122" lon="-0.544308">
        <ele>773.274</ele>
        <time>2019-06-16T12:48:30Z</time>
      </trkpt>
      <trkpt lat="38.626122" lon="-0.544308">
        <ele>773.228</ele>
        <time>2019-06-16T12:48:30Z</time>
      </trkpt>
      <trkpt lat="38.626122" lon="-0.544308">
        <ele>773.217</ele>
        <time>2019-06-16T12:48:30Z</time>
      </trkpt>
      <trkpt lat="38.626122" lon="-0.544308">
        <ele>773.280</ele>
        <time>2019-06-16T12:48:30Z</time>
      </trkpt>
      <trkpt lat="38.626259" lon="-0.544522">
        <ele>774.762</ele>
        <time>2019-06-16T12:48:35Z</time>
      </trkpt>
      <trkpt lat="38.626259" lon="-0.544522">
        <ele>774.739</ele>
        <time>2019-06-16T12:48:35Z</time>
      </trkpt>
      <trkpt lat="38.626259" lon="-0.544522">
        <ele>774.768</ele>
        <time>2019-06-16T12:48:35Z</time>
      </trkpt>
      <trkpt lat="38.626259" lon="-0.544522">
        <ele>774.783</ele>
        <time>2019-06-16T12:48:35Z</time>
      </trkpt>
      <trkpt lat="38.626259" lon="-0.544522">
        <ele>774.753</ele>
        <time>2019-06-16T12:48:35Z</time>
      </trkpt>
      <trkpt lat="38.626429" lon="-0.544731">
        <ele>775.304</ele>
        <time>2019-06-16T12:48:41Z</time>
      </trkpt>
      <trkpt lat="38.626429" lon="-0.544731">
        <ele>775.314</ele>
        <time>2019-06-16T12:48:41Z</time>
      </trkpt>
      <trkpt lat="38.626429" lon="-0.544731">
        <ele>775.308</ele>
        <time>2019-06-16T12:48:41Z</time>
      </trkpt>
      <trkpt lat="38.626429" lon="-0.544731">
        <ele>775.398</ele>
        <time>2019-06-16T12:48:41Z</time>
      </trkpt>
      <trkpt lat="38.626429" lon="-0.544731">
        <ele>775.312</ele>
        <time>2019-06-16T12:48:41Z</time>
      </trkpt>
      <trkpt lat="38.626429" lon="-0.544731">
        <ele>775.311</ele>
        <time>2019-06-16T12:48:41Z</time>
      </trkpt>
      <trkpt lat="38.626616" lon="-0.545012">
        <ele>776.564</ele>
        <time>2019-06-16T12:48:48Z</time>
      </trkpt>
      <trkpt lat="38.626616" lon="-0.545012">
        <ele>776.546</ele>
        <time>2019-06-16T12:48:48Z</time>
      </trkpt>
      <trkpt lat="38.626616" lon="-0.545012">
        <ele>776.553</ele>
        <time>2019-06-16T12:48:48Z</time>
      </trkpt>
      <trkpt lat="38.626616" lon="-0.545012">
        <ele>776.582</ele>
        <time>2019-06-16T12:48:48Z</time>
      </trkpt>
      <trkpt lat="38.626616" lon="-0.545012">
        <ele>776.517</ele>
        <time>2019-06-16T12:48:48Z</time>
      </trkpt>
      <trkpt lat="38.626616" lon="-0.545012">
        <ele>776.512</ele>
        <time>2019-06-16T12:48:48Z</time>
      </trkpt>
      <trkpt lat="38.626616" lon="-0.545012">
        <ele>776.532</ele>
        <time>2019-06-16T12:48:48Z</time>
      </trkpt>
      <trkpt lat="38.626942" lon="-0.545332">
        <ele>778.805</ele>
        <time>2019-06-16T12:48:56Z</time>
      </trkpt>
      <trkpt lat="38.626942" lon="-0.545332">
        <ele>778.808</ele>
        <time>2019-06-16T12:48:56Z</time>
      </trkpt>
      <trkpt lat="38.626942" lon="-0.545332">
        <ele>778.894</ele>
        <time>2019-06-16T12:48:56Z</time>
      </trkpt>
      <trkpt lat="38.626942" lon="-0.545332">
        <ele>778.868</ele>
        <time>2019-06-16T12:48:56Z</time>
      </trkpt>
      <trkpt lat="38.626942" lon="-0.545332">
        <ele>778.847</ele>
        <time>2019-06-16T12:48:56Z</time>
      </trkpt>
      <trkpt lat="38.626942" lon="-0.545332">
        <ele>778.830</ele>
        <time>2019-06-16T12:48:56Z</time>
      </trkpt>
      <trkpt lat="38.626942" lon="-0.545332">
        <ele>778.882</ele>
        <time>2019-06-16T12:48:56Z</time>
      </trkpt>
      <trkpt lat="38.626942" lon="-0.545332">
        <ele>778.819</ele>
        <time>2019-06-16T12:48:56Z</time>
      </trkpt>
      <trkpt lat="38.627342" lon="-0.545564">
        <ele>780.928</ele>
        <time>2019-06-16T12:49:05Z</time>
      </trkpt>
      <trkpt lat="38.627342" lon="-0.545564">
        <ele>780.943</ele>
        <time>2019-06-16T12:49:05Z</time>
      </trkpt>
      <trkpt lat="38.627342" lon="-0.545564">
        <ele>780.944</ele>
        <time>2019-06-16T12:49:05Z</time>
      </trkpt>
      <trkpt lat="38.627342" lon="-0.545564">
        <ele>780.905</ele>
        <time>2019-06-16T12:49:05Z</time>
      </trkpt>
      <trkpt lat="38.627342" lon="-0.545564">
        <ele>780.915</ele>
        <time>2019-06-16T12:49:05Z</time>
      </trkpt>
      <trkpt lat="38.627342" lon="-0.545564">
        <ele>780.908</ele>
        <time>2019-06-16T12:49:05Z</time>
      </trkpt>
      <trkpt lat="38.627342" lon="-0.545564">
        <ele>780.947</ele>
        <time>2019-06-16T12:49:05Z</time>
      </trkpt>
      <trkpt lat="38.627342" lon="-0.545564">
        <ele>780.921</ele>
        <time>2019-06-16T12:49:05Z</time>
      </trkpt>
      <trkpt lat="38.627342" lon="-0.545564">
        <ele>780.940</ele>
        <time>2019-06-16T12:49:05Z</time>
      </trkpt>
      <trkpt lat="38.627208" lon="-0.546475">
        <ele>780.463</ele>
        <time>2019-06-16T12:49:16Z</time>
      </trkpt>
      <trkpt lat="38.627208" lon="-0.546475">
        <ele>780.425</ele>
        <time>2019-06-16T12:49:16Z</time>
      </trkpt>
      <trkpt lat="38.627208" lon="-0.546475">
        <ele>780.422</ele>
        <time>2019-06-16T12:49:16Z</time>
      </trkpt>
      <trkpt lat="38.627208" lon="-0.546475">
        <ele>780.431</ele>
        <time>2019-06-16T12:49:16Z</time>
      </trkpt>
      <trkpt lat="38.627208" lon="-0.546475">
        <ele>780.486</ele>
        <time>2019-06-16T12:49:16Z</time>
      </trkpt>
      <trkpt lat="38.627208" lon="-0.546475">
        <ele>780.479</ele>
        <time>2019-06-16T12:49:16Z</time>
      </trkpt>
      <trkpt lat="38.627208" lon="-0.546475">
        <ele>780.405</ele>
        <time>2019-06-16T12:49:16Z</time>
      </trkpt>
      <trkpt lat="38.627208" lon="-0.546475">
        <ele>780.425</ele>
        <time>2019-06-16T12:49:16Z</time>
      </trkpt>
      <trkpt lat="38.627208" lon="-0.546475">
        <ele>780.408</ele>
        <time>2019-06-16T12:49:16Z</time>
      </trkpt>
      <trkpt lat="38.627208" lon="-0.546475">
        <ele>780.440</ele>
        <time>2019-06-16T12:49:16Z</time>
      </trkpt>
      <trkpt lat="38.627208" lon="-0.546475">
        <ele>780.434</ele>
        <time>2019-06-16T12:49:16Z</time>
      </trkpt>
      <trkpt lat="38.627190" lon="-0.547496">
        <ele>784.543</ele>
        <time>2019-06-16T12:49:28Z</time>
      </trkpt>
      <trkpt lat="38.627190" lon="-0.547496">
        <ele>784.556</ele>
        <time>2019-06-16T12:49:28Z</time>
      </trkpt>
      <trkpt lat="38.627190" lon="-0.547496">
        <ele>784.568</ele>
        <time>2019-06-16T12:49:28Z</time>
      </trkpt>
      <trkpt lat="38.627190" lon="-0.547496">
        <ele>784.515</ele>
        <time>2019-06-16T12:49:28Z</time>
      </trkpt>
      <trkpt lat="38.627190" lon="-0.547496">
        <ele>784.514</ele>
        <time>2019-06-16T12:49:28Z</time>
      </trkpt>
      <trkpt lat="38.627190" lon="-0.547496">
        <ele>784.519</ele>
        <time>2019-06-16T12:49:28Z</time>
      </trkpt>
      <trkpt lat="38.627190" lon="-0.547496">
        <ele>784.548</ele>
        <time>2019-06-16T12:49:28Z</time>
      </trkpt>
      <trkpt lat="38.627190" lon="-0.547496">
        <ele>784.561</ele>
        <time>2019-06-16T12:49:28Z</time>
      </trkpt>
      <trkpt lat="38.627190" lon="-0.547496">
        <ele>784.517</ele>
        <time>2019-06-16T12:49:28Z</time>
      </trkpt>
      <trkpt lat="38.627190" lon="-0.547496">
        <ele>784.508</ele>
        <time>2019-06-16T12:49:28Z</time>
      </trkpt>
      <trkpt lat="38.627190" lon="-0.547496">
        <ele>784.577</ele>
        <time>2019-06-16T12:49:28Z</time>
      </trkpt>
      <trkpt lat="38.627190" lon="-0.547496">
        <ele>784.591</ele>
        <time>2019-06-16T12:49:28Z</time>
      </trkpt>
      <trkpt lat="38.627171" lon="-0.548510">
        <ele>785.930</ele>
        <time>2019-06-16T12:49:42Z</time>
      </trkpt>
      <trkpt lat="38.627171" lon="-0.548510">
        <ele>785.933</ele>
        <time>2019-06-16T12:49:42Z</time>
      </trkpt>
      <trkpt lat="38.627171" lon="-0.548510">
        <ele>785.985</ele>
        <time>2019-06-16T12:49:42Z</time>
      </trkpt>
      <trkpt lat="38.627171" lon="-0.548510">
        <ele>785.912</ele>
        <time>2019-06-16T12:49:42Z</time>
      </trkpt>
      <trkpt lat="38.627171" lon="-0.548510">
        <ele>785.931</ele>
        <time>2019-06-16T12:49:42Z</time>
      </trkpt>
      <trkpt lat="38.627171" lon="-0.548510">
        <ele>785.916</ele>
        <time>2019-06-16T12:49:42Z</time>
      </trkpt>
      <trkpt lat="38.627171" lon="-0.548510">
        <ele>785.978</ele>
        <time>2019-06-16T12:49:42Z</time>
      </trkpt>
      <trkpt lat="38.627171" lon="-0.548510">
        <ele>785.933</ele>
        <time>2019-06-16T12:49:42Z</time>
      </trkpt>
      <trkpt lat="38.627171" lon="-0.548510">
        <ele>785.926</ele>
        <time>2019-06-16T12:49:42Z</time>
      </trkpt>
      <trkpt lat="38.627171" lon="-0.548510">
        <ele>785.908</ele>
        <time>2019-06-16T12:49:42Z</time>
      </trkpt>
      <trkpt lat="38.627171" lon="-0.548510">
        <ele>785.990</ele>
        <time>2019-06-16T12:49:42Z</time>
      </trkpt>
      <trkpt lat="38.627171" lon="-0.548510">
        <ele>785.924</ele>
        <time>2019-06-16T12:49:42Z</time>
      </trkpt>
      <trkpt lat="38.627171" lon="-0.548510">
        <ele>785.993</ele>
        <time>2019-06-16T12:49:42Z</time>
      </trkpt>
      <trkpt lat="38.627171" lon="-0.548510">
        <ele>785.916</ele>
        <time>2019-06-16T12:49:42Z</time>
      </trkpt>
      <trkpt lat="38.627142" lon="-0.549609">
        <ele>779.318</ele>
        <time>2019-06-16T12:49:58Z</time>
      </trkpt>
      <trkpt lat="38.627142" lon="-0.549609">
        <ele>779.315</ele>
        <time>2019-06-16T12:49:58Z</time>
      </trkpt>
      <trkpt lat="38.627142" lon="-0.549609">
        <ele>779.364</ele>
        <time>2019-06-16T12:49:58Z</time>
      </trkpt>
      <trkpt lat="38.627142" lon="-0.549609">
        <ele>779.369</ele>
        <time>2019-06-16T12:49:58Z</time>
      </trkpt>
      <trkpt lat="38.627142" lon="-0.549609">
        <ele>779.316</ele>
        <time>2019-06-16T12:49:58Z</time>
      </trkpt>
      <trkpt lat="38.627142" lon="-0.549609">
        <ele>779.376</ele>
        <time>2019-06-16T12:49:58Z</time>
      </trkpt>
      <trkpt lat="38.627142" lon="-0.549609">
        <ele>779.313</ele>
        <time>2019-06-16T12:49:58Z</time>
      </trkpt>
      <trkpt lat="38.627142" lon="-0.549609">
        <ele>779.308</ele>
        <time>2019-06-16T12:49:58Z</time>
      </trkpt>
      <trkpt lat="38.627142" lon="-0.549609">
        <ele>779.394</ele>
        <time>2019-06-16T12:49:58Z</time>
      </trkpt>
      <trkpt lat="38.627142" lon="-0.549609">
        <ele>779.388</ele>
        <time>2019-06-16T12:49:58Z</time>
      </trkpt>
      <trkpt lat="38.627142" lon="-0.549609">
        <ele>779.347</ele>
        <time>2019-06-16T12:49:58Z</time>
      </trkpt>
      <trkpt lat="38.627142" lon="-0.549609">
        <ele>779.370</ele>
        <time>2019-06-16T12:49:58Z</time>
      </trkpt>
      <trkpt lat="38.627142" lon="-0.549609">
        <ele>779.382</ele>
        <time>2019-06-16T12:49:58Z</time>
      </trkpt>
      <trkpt lat="38.627142" lon="-0.549609">
        <ele>779.379</ele>
        <time>2019-06-16T12:49:58Z</time>
      </trkpt>
      <trkpt lat="38.627142" lon="-0.549609">
        <ele>779.358</ele>
        <time>2019-06-16T12:49:58Z</time>
      </trkpt>
      <trkpt lat="38.627142" lon="-0.549609">
        <ele>779.343</ele>
        <time>2019-06-16T12:49:58Z</time>
      </trkpt>
      <trkpt lat="38.627165" lon="-0.549774">
        <ele>779.121</ele>
        <time>2019-06-16T12:50:00Z</time>
      </trkpt>
      <trkpt lat="38.627165" lon="-0.549774">
        <ele>779.141</ele>
        <time>2019-06-16T12:50:00Z</time>
      </trkpt>
      <trkpt lat="38.627151" lon="-0.549854">
        <ele>778.505</ele>
        <time>2019-06-16T12:50:01Z</time>
      </trkpt>
      <trkpt lat="38.627149" lon="-0.549938">
        <ele>778.108</ele>
        <time>2019-06-16T12:50:02Z</time>
      </trkpt>
      <trkpt lat="38.627140" lon="-0.550031">
        <ele>777.815</ele>
        <time>2019-06-16T12:50:03Z</time>
      </trkpt>
      <trkpt lat="38.627140" lon="-0.550031">
        <ele>777.889</ele>
        <time>2019-06-16T12:50:03Z</time>
      </trkpt>
      <trkpt lat="38.627136" lon="-0.550174">
        <ele>778.338</ele>
        <time>2019-06-16T12:50:05Z</time>
      </trkpt>
      <trkpt lat="38.627138" lon="-0.550253">
        <ele>778.691</ele>
        <time>2019-06-16T12:50:06Z</time>
      </trkpt>
      <trkpt lat="38.627113" lon="-0.550449">
        <ele>779.093</ele>
        <time>2019-06-16T12:50:08Z</time>
      </trkpt>
      <trkpt lat="38.627180" lon="-0.550982">
        <ele>779.720</ele>
        <time>2019-06-16T12:50:18Z</time>
      </trkpt>
      <trkpt lat="38.627180" lon="-0.550982">
        <ele>779.729</ele>
        <time>2019-06-16T12:50:18Z</time>
      </trkpt>
      <trkpt lat="38.627180" lon="-0.550982">
        <ele>779.794</ele>
        <time>2019-06-16T12:50:18Z</time>
      </trkpt>
      <trkpt lat="38.627180" lon="-0.550982">
        <ele>779.796</ele>
        <time>2019-06-16T12:50:18Z</time>
      </trkpt>
      <trkpt lat="38.627180" lon="-0.550982">
        <ele>779.731</ele>
        <time>2019-06-16T12:50:18Z</time>
      </trkpt>
      <trkpt lat="38.627180" lon="-0.550982">
        <ele>779.724</ele>
        <time>2019-06-16T12:50:18Z</time>
      </trkpt>
      <trkpt lat="38.627180" lon="-0.550982">
        <ele>779.708</ele>
        <time>2019-06-16T12:50:18Z</time>
      </trkpt>
      <trkpt lat="38.627180" lon="-0.550982">
        <ele>779.752</ele>
        <time>2019-06-16T12:50:18Z</time>
      </trkpt>
      <trkpt lat="38.627180" lon="-0.550982">
        <ele>779.796</ele>
        <time>2019-06-16T12:50:18Z</time>
      </trkpt>
      <trkpt lat="38.627180" lon="-0.550982">
        <ele>779.795</ele>
        <time>2019-06-16T12:50:18Z</time>
      </trkpt>
      <trkpt lat="38.627180" lon="-0.550982">
        <ele>779.718</ele>
        <time>2019-06-16T12:50:18Z</time>
      </trkpt>
      <trkpt lat="38.627157" lon="-0.550926">
        <ele>779.620</ele>
        <time>2019-06-16T12:51:33Z</time>
      </trkpt>
      <trkpt lat="38.627118" lon="-0.550842">
        <ele>779.677</ele>
        <time>2019-06-16T12:51:35Z</time>
      </trkpt>
      <trkpt lat="38.627070" lon="-0.550769">
        <ele>779.376</ele>
        <time>2019-06-16T12:51:37Z</time>
      </trkpt>
      <trkpt lat="38.627021" lon="-0.550728">
        <ele>779.071</ele>
        <time>2019-06-16T12:51:39Z</time>
      </trkpt>
      <trkpt lat="38.626960" lon="-0.550706">
        <ele>778.645</ele>
        <time>2019-06-16T12:51:41Z</time>
      </trkpt>
      <trkpt lat="38.626908" lon="-0.550680">
        <ele>778.347</ele>
        <time>2019-06-16T12:51:43Z</time>
      </trkpt>
      <trkpt lat="38.626849" lon="-0.550688">
        <ele>778.111</ele>
        <time>2019-06-16T12:51:45Z</time>
      </trkpt>
      <trkpt lat="38.626771" lon="-0.550694">
        <ele>777.908</ele>
        <time>2019-06-16T12:51:47Z</time>
      </trkpt>
      <trkpt lat="38.626646" lon="-0.550688">
        <ele>777.527</ele>
        <time>2019-06-16T12:51:51Z</time>
      </trkpt>
      <trkpt lat="38.626646" lon="-0.550688">
        <ele>777.581</ele>
        <time>2019-06-16T12:51:51Z</time>
      </trkpt>
      <trkpt lat="38.626646" lon="-0.550688">
        <ele>777.590</ele>
        <time>2019-06-16T12:51:51Z</time>
      </trkpt>
      <trkpt lat="38.626586" lon="-0.550693">
        <ele>777.633</ele>
        <time>2019-06-16T12:51:54Z</time>
      </trkpt>
      <trkpt lat="38.626586" lon="-0.550693">
        <ele>777.695</ele>
        <time>2019-06-16T12:51:54Z</time>
      </trkpt>
      <trkpt lat="38.626586" lon="-0.550693">
        <ele>777.642</ele>
        <time>2019-06-16T12:51:54Z</time>
      </trkpt>
      <trkpt lat="38.626550" lon="-0.550733">
        <ele>777.931</ele>
        <time>2019-06-16T12:51:57Z</time>
      </trkpt>
      <trkpt lat="38.626550" lon="-0.550733">
        <ele>777.946</ele>
        <time>2019-06-16T12:51:57Z</time>
      </trkpt>
      <trkpt lat="38.626550" lon="-0.550733">
        <ele>777.929</ele>
        <time>2019-06-16T12:51:57Z</time>
      </trkpt>
      <trkpt lat="38.626509" lon="-0.550782">
        <ele>778.300</ele>
        <time>2019-06-16T12:52:01Z</time>
      </trkpt>
      <trkpt lat="38.626509" lon="-0.550782">
        <ele>778.320</ele>
        <time>2019-06-16T12:52:01Z</time>
      </trkpt>
      <trkpt lat="38.626509" lon="-0.550782">
        <ele>778.308</ele>
        <time>2019-06-16T12:52:01Z</time>
      </trkpt>
      <trkpt lat="38.626509" lon="-0.550782">
        <ele>778.335</ele>
        <time>2019-06-16T12:52:01Z</time>
      </trkpt>
      <trkpt lat="38.626484" lon="-0.550733">
        <ele>778.169</ele>
        <time>2019-06-16T12:52:08Z</time>
      </trkpt>
      <trkpt lat="38.626543" lon="-0.550746">
        <ele>778.038</ele>
        <time>2019-06-16T12:52:15Z</time>
      </trkpt>
      <trkpt lat="38.626599" lon="-0.550769">
        <ele>778.011</ele>
        <time>2019-06-16T12:52:18Z</time>
      </trkpt>
      <trkpt lat="38.626668" lon="-0.550792">
        <ele>777.983</ele>
        <time>2019-06-16T12:52:25Z</time>
      </trkpt>
      <trkpt lat="38.626726" lon="-0.550787">
        <ele>778.010</ele>
        <time>2019-06-16T12:52:30Z</time>
      </trkpt>
      <trkpt lat="38.626778" lon="-0.550780">
        <ele>778.289</ele>
        <time>2019-06-16T12:52:32Z</time>
      </trkpt>
      <trkpt lat="38.626841" lon="-0.550786">
        <ele>778.584</ele>
        <time>2019-06-16T12:52:34Z</time>
      </trkpt>
      <trkpt lat="38.626967" lon="-0.550810">
        <ele>779.093</ele>
        <time>2019-06-16T12:52:38Z</time>
      </trkpt>
      <trkpt lat="38.627029" lon="-0.550817">
        <ele>779.365</ele>
        <time>2019-06-16T12:52:40Z</time>
      </trkpt>
      <trkpt lat="38.627083" lon="-0.550814">
        <ele>779.521</ele>
        <time>2019-06-16T12:52:46Z</time>
      </trkpt>
      <trkpt lat="38.627133" lon="-0.550860">
        <ele>779.608</ele>
        <time>2019-06-16T12:52:49Z</time>
      </trkpt>
      <trkpt lat="38.627154" lon="-0.550915">
        <ele>779.652</ele>
        <time>2019-06-16T12:52:51Z</time>
      </trkpt>
      <trkpt lat="38.627166" lon="-0.550993">
        <ele>779.646</ele>
        <time>2019-06-16T12:52:53Z</time>
      </trkpt>
      <trkpt lat="38.627170" lon="-0.551197">
        <ele>779.175</ele>
        <time>2019-06-16T12:52:55Z</time>
      </trkpt>
      <trkpt lat="38.627176" lon="-0.551263">
        <ele>779.098</ele>
        <time>2019-06-16T12:52:56Z</time>
      </trkpt>
      <trkpt lat="38.627182" lon="-0.551343">
        <ele>778.720</ele>
        <time>2019-06-16T12:52:57Z</time>
      </trkpt>
      <trkpt lat="38.627159" lon="-0.551275">
        <ele>778.787</ele>
        <time>2019-06-16T12:53:10Z</time>
      </trkpt>
      <trkpt lat="38.627123" lon="-0.551356">
        <ele>778.096</ele>
        <time>2019-06-16T12:54:37Z</time>
      </trkpt>
      <trkpt lat="38.627124" lon="-0.551457">
        <ele>777.521</ele>
        <time>2019-06-16T12:54:39Z</time>
      </trkpt>
      <trkpt lat="38.627129" lon="-0.551594">
        <ele>776.813</ele>
        <time>2019-06-16T12:54:40Z</time>
      </trkpt>
      <trkpt lat="38.627137" lon="-0.551712">
        <ele>776.743</ele>
        <time>2019-06-16T12:54:42Z</time>
      </trkpt>
      <trkpt lat="38.627141" lon="-0.551772">
        <ele>777.107</ele>
        <time>2019-06-16T12:54:43Z</time>
      </trkpt>
      <trkpt lat="38.627144" lon="-0.551831">
        <ele>777.508</ele>
        <time>2019-06-16T12:54:44Z</time>
      </trkpt>
      <trkpt lat="38.627147" lon="-0.551889">
        <ele>777.854</ele>
        <time>2019-06-16T12:54:45Z</time>
      </trkpt>
      <trkpt lat="38.627147" lon="-0.552028">
        <ele>778.698</ele>
        <time>2019-06-16T12:54:47Z</time>
      </trkpt>
      <trkpt lat="38.627147" lon="-0.552028">
        <ele>778.677</ele>
        <time>2019-06-16T12:54:47Z</time>
      </trkpt>
      <trkpt lat="38.627152" lon="-0.552147">
        <ele>779.240</ele>
        <time>2019-06-16T12:54:49Z</time>
      </trkpt>
      <trkpt lat="38.627152" lon="-0.552147">
        <ele>779.232</ele>
        <time>2019-06-16T12:54:49Z</time>
      </trkpt>
      <trkpt lat="38.627105" lon="-0.552316">
        <ele>779.439</ele>
        <time>2019-06-16T12:54:52Z</time>
      </trkpt>
      <trkpt lat="38.627105" lon="-0.552316">
        <ele>779.468</ele>
        <time>2019-06-16T12:54:52Z</time>
      </trkpt>
      <trkpt lat="38.627105" lon="-0.552316">
        <ele>779.413</ele>
        <time>2019-06-16T12:54:52Z</time>
      </trkpt>
      <trkpt lat="38.627105" lon="-0.552567">
        <ele>779.676</ele>
        <time>2019-06-16T12:54:55Z</time>
      </trkpt>
      <trkpt lat="38.627105" lon="-0.552567">
        <ele>779.690</ele>
        <time>2019-06-16T12:54:55Z</time>
      </trkpt>
      <trkpt lat="38.627105" lon="-0.552567">
        <ele>779.619</ele>
        <time>2019-06-16T12:54:55Z</time>
      </trkpt>
      <trkpt lat="38.627087" lon="-0.552874">
        <ele>778.208</ele>
        <time>2019-06-16T12:54:59Z</time>
      </trkpt>
      <trkpt lat="38.627087" lon="-0.552874">
        <ele>778.210</ele>
        <time>2019-06-16T12:54:59Z</time>
      </trkpt>
      <trkpt lat="38.627087" lon="-0.552874">
        <ele>778.244</ele>
        <time>2019-06-16T12:54:59Z</time>
      </trkpt>
      <trkpt lat="38.627087" lon="-0.552874">
        <ele>778.283</ele>
        <time>2019-06-16T12:54:59Z</time>
      </trkpt>
      <trkpt lat="38.627092" lon="-0.553319">
        <ele>777.796</ele>
        <time>2019-06-16T12:55:04Z</time>
      </trkpt>
      <trkpt lat="38.627092" lon="-0.553319">
        <ele>777.768</ele>
        <time>2019-06-16T12:55:04Z</time>
      </trkpt>
      <trkpt lat="38.627092" lon="-0.553319">
        <ele>777.745</ele>
        <time>2019-06-16T12:55:04Z</time>
      </trkpt>
      <trkpt lat="38.627092" lon="-0.553319">
        <ele>777.714</ele>
        <time>2019-06-16T12:55:04Z</time>
      </trkpt>
      <trkpt lat="38.627092" lon="-0.553319">
        <ele>777.739</ele>
        <time>2019-06-16T12:55:04Z</time>
      </trkpt>
      <trkpt lat="38.627085" lon="-0.553999">
        <ele>773.389</ele>
        <time>2019-06-16T12:55:10Z</time>
      </trkpt>
      <trkpt lat="38.627085" lon="-0.553999">
        <ele>773.306</ele>
        <time>2019-06-16T12:55:10Z</time>
      </trkpt>
      <trkpt lat="38.627085" lon="-0.553999">
        <ele>773.326</ele>
        <time>2019-06-16T12:55:10Z</time>
      </trkpt>
      <trkpt lat="38.627085" lon="-0.553999">
        <ele>773.308</ele>
        <time>2019-06-16T12:55:10Z</time>
      </trkpt>
      <trkpt lat="38.627085" lon="-0.553999">
        <ele>773.371</ele>
        <time>2019-06-16T12:55:10Z</time>
      </trkpt>
      <trkpt lat="38.627085" lon="-0.553999">
        <ele>773.385</ele>
        <time>2019-06-16T12:55:10Z</time>
      </trkpt>
      <trkpt lat="38.627025" lon="-0.554826">
        <ele>768.654</ele>
        <time>2019-06-16T12:55:17Z</time>
      </trkpt>
      <trkpt lat="38.627025" lon="-0.554826">
        <ele>768.617</ele>
        <time>2019-06-16T12:55:17Z</time>
      </trkpt>
      <trkpt lat="38.627025" lon="-0.554826">
        <ele>768.689</ele>
        <time>2019-06-16T12:55:17Z</time>
      </trkpt>
      <trkpt lat="38.627025" lon="-0.554826">
        <ele>768.686</ele>
        <time>2019-06-16T12:55:17Z</time>
      </trkpt>
      <trkpt lat="38.627025" lon="-0.554826">
        <ele>768.615</ele>
        <time>2019-06-16T12:55:17Z</time>
      </trkpt>
      <trkpt lat="38.627025" lon="-0.554826">
        <ele>768.620</ele>
        <time>2019-06-16T12:55:17Z</time>
      </trkpt>
      <trkpt lat="38.627025" lon="-0.554826">
        <ele>768.646</ele>
        <time>2019-06-16T12:55:17Z</time>
      </trkpt>
      <trkpt lat="38.626955" lon="-0.555839">
        <ele>768.188</ele>
        <time>2019-06-16T12:55:25Z</time>
      </trkpt>
      <trkpt lat="38.626955" lon="-0.555839">
        <ele>768.116</ele>
        <time>2019-06-16T12:55:25Z</time>
      </trkpt>
      <trkpt lat="38.626955" lon="-0.555839">
        <ele>768.108</ele>
        <time>2019-06-16T12:55:25Z</time>
      </trkpt>
      <trkpt lat="38.626955" lon="-0.555839">
        <ele>768.197</ele>
        <time>2019-06-16T12:55:25Z</time>
      </trkpt>
      <trkpt lat="38.626955" lon="-0.555839">
        <ele>768.131</ele>
        <time>2019-06-16T12:55:25Z</time>
      </trkpt>
      <trkpt lat="38.626955" lon="-0.555839">
        <ele>768.180</ele>
        <time>2019-06-16T12:55:25Z</time>
      </trkpt>
      <trkpt lat="38.626955" lon="-0.555839">
        <ele>768.193</ele>
        <time>2019-06-16T12:55:25Z</time>
      </trkpt>
      <trkpt lat="38.626955" lon="-0.555839">
        <ele>768.115</ele>
        <time>2019-06-16T12:55:25Z</time>
      </trkpt>
      <trkpt lat="38.627013" lon="-0.557251">
        <ele>762.452</ele>
        <time>2019-06-16T12:55:35Z</time>
      </trkpt>
      <trkpt lat="38.627013" lon="-0.557251">
        <ele>762.491</ele>
        <time>2019-06-16T12:55:35Z</time>
      </trkpt>
      <trkpt lat="38.627013" lon="-0.557251">
        <ele>762.456</ele>
        <time>2019-06-16T12:55:35Z</time>
      </trkpt>
      <trkpt lat="38.627013" lon="-0.557251">
        <ele>762.486</ele>
        <time>2019-06-16T12:55:35Z</time>
      </trkpt>
      <trkpt lat="38.627013" lon="-0.557251">
        <ele>762.460</ele>
        <time>2019-06-16T12:55:35Z</time>
      </trkpt>
      <trkpt lat="38.627013" lon="-0.557251">
        <ele>762.426</ele>
        <time>2019-06-16T12:55:35Z</time>
      </trkpt>
      <trkpt lat="38.627013" lon="-0.557251">
        <ele>762.408</ele>
        <time>2019-06-16T12:55:35Z</time>
      </trkpt>
      <trkpt lat="38.627013" lon="-0.557251">
        <ele>762.471</ele>
        <time>2019-06-16T12:55:35Z</time>
      </trkpt>
      <trkpt lat="38.627013" lon="-0.557251">
        <ele>762.435</ele>
        <time>2019-06-16T12:55:35Z</time>
      </trkpt>
      <trkpt lat="38.627013" lon="-0.557251">
        <ele>762.464</ele>
        <time>2019-06-16T12:55:35Z</time>
      </trkpt>
      <trkpt lat="38.626906" lon="-0.558813">
        <ele>767.087</ele>
        <time>2019-06-16T12:55:47Z</time>
      </trkpt>
      <trkpt lat="38.626906" lon="-0.558813">
        <ele>767.039</ele>
        <time>2019-06-16T12:55:47Z</time>
      </trkpt>
      <trkpt lat="38.626906" lon="-0.558813">
        <ele>767.036</ele>
        <time>2019-06-16T12:55:47Z</time>
      </trkpt>
      <trkpt lat="38.626906" lon="-0.558813">
        <ele>767.015</ele>
        <time>2019-06-16T12:55:47Z</time>
      </trkpt>
      <trkpt lat="38.626906" lon="-0.558813">
        <ele>767.010</ele>
        <time>2019-06-16T12:55:47Z</time>
      </trkpt>
      <trkpt lat="38.626906" lon="-0.558813">
        <ele>767.088</ele>
        <time>2019-06-16T12:55:47Z</time>
      </trkpt>
      <trkpt lat="38.626906" lon="-0.558813">
        <ele>767.024</ele>
        <time>2019-06-16T12:55:47Z</time>
      </trkpt>
      <trkpt lat="38.626906" lon="-0.558813">
        <ele>767.026</ele>
        <time>2019-06-16T12:55:47Z</time>
      </trkpt>
      <trkpt lat="38.626906" lon="-0.558813">
        <ele>767.008</ele>
        <time>2019-06-16T12:55:47Z</time>
      </trkpt>
      <trkpt lat="38.626906" lon="-0.558813">
        <ele>767.071</ele>
        <time>2019-06-16T12:55:47Z</time>
      </trkpt>
      <trkpt lat="38.626906" lon="-0.558813">
        <ele>767.045</ele>
        <time>2019-06-16T12:55:47Z</time>
      </trkpt>
      <trkpt lat="38.626906" lon="-0.558813">
        <ele>767.094</ele>
        <time>2019-06-16T12:55:47Z</time>
      </trkpt>
      <trkpt lat="38.626825" lon="-0.560880">
        <ele>755.387</ele>
        <time>2019-06-16T12:56:02Z</time>
      </trkpt>
      <trkpt lat="38.626825" lon="-0.560880">
        <ele>755.359</ele>
        <time>2019-06-16T12:56:02Z</time>
      </trkpt>
      <trkpt lat="38.626825" lon="-0.560880">
        <ele>755.376</ele>
        <time>2019-06-16T12:56:02Z</time>
      </trkpt>
      <trkpt lat="38.626825" lon="-0.560880">
        <ele>755.325</ele>
        <time>2019-06-16T12:56:02Z</time>
      </trkpt>
      <trkpt lat="38.626825" lon="-0.560880">
        <ele>755.390</ele>
        <time>2019-06-16T12:56:02Z</time>
      </trkpt>
      <trkpt lat="38.626825" lon="-0.560880">
        <ele>755.312</ele>
        <time>2019-06-16T12:56:02Z</time>
      </trkpt>
      <trkpt lat="38.626825" lon="-0.560880">
        <ele>755.332</ele>
        <time>2019-06-16T12:56:02Z</time>
      </trkpt>
      <trkpt lat="38.626825" lon="-0.560880">
        <ele>755.305</ele>
        <time>2019-06-16T12:56:02Z</time>
      </trkpt>
      <trkpt lat="38.626825" lon="-0.560880">
        <ele>755.308</ele>
        <time>2019-06-16T12:56:02Z</time>
      </trkpt>
      <trkpt lat="38.626825" lon="-0.560880">
        <ele>755.394</ele>
        <time>2019-06-16T12:56:02Z</time>
      </trkpt>
      <trkpt lat="38.626825" lon="-0.560880">
        <ele>755.368</ele>
        <time>2019-06-16T12:56:02Z</time>
      </trkpt>
      <trkpt lat="38.626825" lon="-0.560880">
        <ele>755.317</ele>
        <time>2019-06-16T12:56:02Z</time>
      </trkpt>
      <trkpt lat="38.626825" lon="-0.560880">
        <ele>755.330</ele>
        <time>2019-06-16T12:56:02Z</time>
      </trkpt>
      <trkpt lat="38.626825" lon="-0.560880">
        <ele>755.322</ele>
        <time>2019-06-16T12:56:02Z</time>
      </trkpt>
      <trkpt lat="38.626825" lon="-0.560880">
        <ele>755.329</ele>
        <time>2019-06-16T12:56:02Z</time>
      </trkpt>
      <trkpt lat="38.626841" lon="-0.562625">
        <ele>763.638</ele>
        <time>2019-06-16T12:56:19Z</time>
      </trkpt>
      <trkpt lat="38.626841" lon="-0.562625">
        <ele>763.673</ele>
        <time>2019-06-16T12:56:19Z</time>
      </trkpt>
      <trkpt lat="38.626841" lon="-0.562625">
        <ele>763.693</ele>
        <time>2019-06-16T12:56:19Z</time>
      </trkpt>
      <trkpt lat="38.626841" lon="-0.562625">
        <ele>763.665</ele>
        <time>2019-06-16T12:56:19Z</time>
      </trkpt>
      <trkpt lat="38.626841" lon="-0.562625">
        <ele>763.621</ele>
        <time>2019-06-16T12:56:19Z</time>
      </trkpt>
      <trkpt lat="38.626841" lon="-0.562625">
        <ele>763.608</ele>
        <time>2019-06-16T12:56:19Z</time>
      </trkpt>
      <trkpt lat="38.626841" lon="-0.562625">
        <ele>763.642</ele>
        <time>2019-06-16T12:56:19Z</time>
      </trkpt>
      <trkpt lat="38.626841" lon="-0.562625">
        <ele>763.676</ele>
        <time>2019-06-16T12:56:19Z</time>
      </trkpt>
      <trkpt lat="38.626841" lon="-0.562625">
        <ele>763.625</ele>
        <time>2019-06-16T12:56:19Z</time>
      </trkpt>
      <trkpt lat="38.626841" lon="-0.562625">
        <ele>763.668</ele>
        <time>2019-06-16T12:56:19Z</time>
      </trkpt>
      <trkpt lat="38.626841" lon="-0.562625">
        <ele>763.640</ele>
        <time>2019-06-16T12:56:19Z</time>
      </trkpt>
      <trkpt lat="38.626841" lon="-0.562625">
        <ele>763.687</ele>
        <time>2019-06-16T12:56:19Z</time>
      </trkpt>
      <trkpt lat="38.626841" lon="-0.562625">
        <ele>763.636</ele>
        <time>2019-06-16T12:56:19Z</time>
      </trkpt>
      <trkpt lat="38.626841" lon="-0.562625">
        <ele>763.681</ele>
        <time>2019-06-16T12:56:19Z</time>
      </trkpt>
      <trkpt lat="38.626841" lon="-0.562625">
        <ele>763.671</ele>
        <time>2019-06-16T12:56:19Z</time>
      </trkpt>
      <trkpt lat="38.626841" lon="-0.562625">
        <ele>763.641</ele>
        <time>2019-06-16T12:56:19Z</time>
      </trkpt>
      <trkpt lat="38.626841" lon="-0.562625">
        <ele>763.615</ele>
        <time>2019-06-16T12:56:19Z</time>
      </trkpt>
      <trkpt lat="38.626810" lon="-0.564668">
        <ele>760.708</ele>
        <time>2019-06-16T12:56:39Z</time>
      </trkpt>
      <trkpt lat="38.626810" lon="-0.564668">
        <ele>760.710</ele>
        <time>2019-06-16T12:56:39Z</time>
      </trkpt>
      <trkpt lat="38.626810" lon="-0.564668">
        <ele>760.734</ele>
        <time>2019-06-16T12:56:39Z</time>
      </trkpt>
      <trkpt lat="38.626810" lon="-0.564668">
        <ele>760.763</ele>
        <time>2019-06-16T12:56:39Z</time>
      </trkpt>
      <trkpt lat="38.626810" lon="-0.564668">
        <ele>760.726</ele>
        <time>2019-06-16T12:56:39Z</time>
      </trkpt>
      <trkpt lat="38.626810" lon="-0.564668">
        <ele>760.728</ele>
        <time>2019-06-16T12:56:39Z</time>
      </trkpt>
      <trkpt lat="38.626810" lon="-0.564668">
        <ele>760.765</ele>
        <time>2019-06-16T12:56:39Z</time>
      </trkpt>
      <trkpt lat="38.626810" lon="-0.564668">
        <ele>760.744</ele>
        <time>2019-06-16T12:56:39Z</time>
      </trkpt>
      <trkpt lat="38.626810" lon="-0.564668">
        <ele>760.719</ele>
        <time>2019-06-16T12:56:39Z</time>
      </trkpt>
      <trkpt lat="38.626810" lon="-0.564668">
        <ele>760.729</ele>
        <time>2019-06-16T12:56:39Z</time>
      </trkpt>
      <trkpt lat="38.626810" lon="-0.564668">
        <ele>760.700</ele>
        <time>2019-06-16T12:56:39Z</time>
      </trkpt>
      <trkpt lat="38.626810" lon="-0.564668">
        <ele>760.720</ele>
        <time>2019-06-16T12:56:39Z</time>
      </trkpt>
      <trkpt lat="38.626810" lon="-0.564668">
        <ele>760.708</ele>
        <time>2019-06-16T12:56:39Z</time>
      </trkpt>
      <trkpt lat="38.626810" lon="-0.564668">
        <ele>760.755</ele>
        <time>2019-06-16T12:56:39Z</time>
      </trkpt>
      <trkpt lat="38.626810" lon="-0.564668">
        <ele>760.799</ele>
        <time>2019-06-16T12:56:39Z</time>
      </trkpt>
      <trkpt lat="38.626810" lon="-0.564668">
        <ele>760.788</ele>
        <time>2019-06-16T12:56:39Z</time>
      </trkpt>
      <trkpt lat="38.626810" lon="-0.564668">
        <ele>760.751</ele>
        <time>2019-06-16T12:56:39Z</time>
      </trkpt>
      <trkpt lat="38.626810" lon="-0.564668">
        <ele>760.793</ele>
        <time>2019-06-16T12:56:39Z</time>
      </trkpt>
      <trkpt lat="38.626810" lon="-0.564668">
        <ele>760.790</ele>
        <time>2019-06-16T12:56:39Z</time>
      </trkpt>
      <trkpt lat="38.626810" lon="-0.564668">
        <ele>760.779</ele>
        <time>2019-06-16T12:56:39Z</time>
      </trkpt>
      <trkpt lat="38.626828" lon="-0.566441">
        <ele>768.374</ele>
        <time>2019-06-16T12:57:05Z</time>
      </trkpt>
      <trkpt lat="38.626828" lon="-0.566441">
        <ele>768.393</ele>
        <time>2019-06-16T12:57:05Z</time>
      </trkpt>
      <trkpt lat="38.626828" lon="-0.566441">
        <ele>768.365</ele>
        <time>2019-06-16T12:57:05Z</time>
      </trkpt>
      <trkpt lat="38.626828" lon="-0.566441">
        <ele>768.321</ele>
        <time>2019-06-16T12:57:05Z</time>
      </trkpt>
      <trkpt lat="38.626828" lon="-0.566441">
        <ele>768.308</ele>
        <time>2019-06-16T12:57:05Z</time>
      </trkpt>
      <trkpt lat="38.626828" lon="-0.566441">
        <ele>768.372</ele>
        <time>2019-06-16T12:57:05Z</time>
      </trkpt>
      <trkpt lat="38.626828" lon="-0.566441">
        <ele>768.356</ele>
        <time>2019-06-16T12:57:05Z</time>
      </trkpt>
      <trkpt lat="38.626828" lon="-0.566441">
        <ele>768.395</ele>
        <time>2019-06-16T12:57:05Z</time>
      </trkpt>
      <trkpt lat="38.626828" lon="-0.566441">
        <ele>768.348</ele>
        <time>2019-06-16T12:57:05Z</time>
      </trkpt>
      <trkpt lat="38.626828" lon="-0.566441">
        <ele>768.370</ele>
        <time>2019-06-16T12:57:05Z</time>
      </trkpt>
      <trkpt lat="38.626828" lon="-0.566441">
        <ele>768.357</ele>
        <time>2019-06-16T12:57:05Z</time>
      </trkpt>
      <trkpt lat="38.626828" lon="-0.566441">
        <ele>768.356</ele>
        <time>2019-06-16T12:57:05Z</time>
      </trkpt>
      <trkpt lat="38.626828" lon="-0.566441">
        <ele>768.361</ele>
        <time>2019-06-16T12:57:05Z</time>
      </trkpt>
      <trkpt lat="38.626828" lon="-0.566441">
        <ele>768.366</ele>
        <time>2019-06-16T12:57:05Z</time>
      </trkpt>
      <trkpt lat="38.626828" lon="-0.566441">
        <ele>768.329</ele>
        <time>2019-06-16T12:57:05Z</time>
      </trkpt>
      <trkpt lat="38.626828" lon="-0.566441">
        <ele>768.321</ele>
        <time>2019-06-16T12:57:05Z</time>
      </trkpt>
      <trkpt lat="38.626828" lon="-0.566441">
        <ele>768.308</ele>
        <time>2019-06-16T12:57:05Z</time>
      </trkpt>
      <trkpt lat="38.626828" lon="-0.566441">
        <ele>768.339</ele>
        <time>2019-06-16T12:57:05Z</time>
      </trkpt>
      <trkpt lat="38.626828" lon="-0.566441">
        <ele>768.393</ele>
        <time>2019-06-16T12:57:05Z</time>
      </trkpt>
      <trkpt lat="38.626828" lon="-0.566441">
        <ele>768.382</ele>
        <time>2019-06-16T12:57:05Z</time>
      </trkpt>
      <trkpt lat="38.626828" lon="-0.566441">
        <ele>768.395</ele>
        <time>2019-06-16T12:57:05Z</time>
      </trkpt>
      <trkpt lat="38.626828" lon="-0.566441">
        <ele>768.377</ele>
        <time>2019-06-16T12:57:05Z</time>
      </trkpt>
      <trkpt lat="38.626828" lon="-0.566441">
        <ele>768.374</ele>
        <time>2019-06-16T12:57:05Z</time>
      </trkpt>
      <trkpt lat="38.626828" lon="-0.566441">
        <ele>768.323</ele>
        <time>2019-06-16T12:57:05Z</time>
      </trkpt>
      <trkpt lat="38.626828" lon="-0.566441">
        <ele>768.368</ele>
        <time>2019-06-16T12:57:05Z</time>
      </trkpt>
      <trkpt lat="38.626828" lon="-0.566441">
        <ele>768.379</ele>
        <time>2019-06-16T12:57:05Z</time>
      </trkpt>
      <trkpt lat="38.626383" lon="-0.568090">
        <ele>759.005</ele>
        <time>2019-06-16T12:57:35Z</time>
      </trkpt>
      <trkpt lat="38.626383" lon="-0.568090">
        <ele>759.025</ele>
        <time>2019-06-16T12:57:35Z</time>
      </trkpt>
      <trkpt lat="38.626383" lon="-0.568090">
        <ele>759.008</ele>
        <time>2019-06-16T12:57:35Z</time>
      </trkpt>
      <trkpt lat="38.626383" lon="-0.568090">
        <ele>759.080</ele>
        <time>2019-06-16T12:57:35Z</time>
      </trkpt>
      <trkpt lat="38.626383" lon="-0.568090">
        <ele>759.084</ele>
        <time>2019-06-16T12:57:35Z</time>
      </trkpt>
      <trkpt lat="38.626383" lon="-0.568090">
        <ele>759.033</ele>
        <time>2019-06-16T12:57:35Z</time>
      </trkpt>
      <trkpt lat="38.626383" lon="-0.568090">
        <ele>759.046</ele>
        <time>2019-06-16T12:57:35Z</time>
      </trkpt>
      <trkpt lat="38.626383" lon="-0.568090">
        <ele>759.068</ele>
        <time>2019-06-16T12:57:35Z</time>
      </trkpt>
      <trkpt lat="38.626383" lon="-0.568090">
        <ele>759.035</ele>
        <time>2019-06-16T12:57:35Z</time>
      </trkpt>
      <trkpt lat="38.626383" lon="-0.568090">
        <ele>759.074</ele>
        <time>2019-06-16T12:57:35Z</time>
      </trkpt>
      <trkpt lat="38.626383" lon="-0.568090">
        <ele>759.049</ele>
        <time>2019-06-16T12:57:35Z</time>
      </trkpt>
      <trkpt lat="38.626383" lon="-0.568090">
        <ele>759.069</ele>
        <time>2019-06-16T12:57:35Z</time>
      </trkpt>
      <trkpt lat="38.626383" lon="-0.568090">
        <ele>759.004</ele>
        <time>2019-06-16T12:57:35Z</time>
      </trkpt>
      <trkpt lat="38.626383" lon="-0.568090">
        <ele>759.024</ele>
        <time>2019-06-16T12:57:35Z</time>
      </trkpt>
      <trkpt lat="38.626383" lon="-0.568090">
        <ele>759.008</ele>
        <time>2019-06-16T12:57:35Z</time>
      </trkpt>
      <trkpt lat="38.626383" lon="-0.568090">
        <ele>759.059</ele>
        <time>2019-06-16T12:57:35Z</time>
      </trkpt>
      <trkpt lat="38.626383" lon="-0.568090">
        <ele>759.023</ele>
        <time>2019-06-16T12:57:35Z</time>
      </trkpt>
      <trkpt lat="38.626383" lon="-0.568090">
        <ele>759.062</ele>
        <time>2019-06-16T12:57:35Z</time>
      </trkpt>
      <trkpt lat="38.626383" lon="-0.568090">
        <ele>759.015</ele>
        <time>2019-06-16T12:57:35Z</time>
      </trkpt>
      <trkpt lat="38.626383" lon="-0.568090">
        <ele>759.097</ele>
        <time>2019-06-16T12:57:35Z</time>
      </trkpt>
      <trkpt lat="38.626383" lon="-0.568090">
        <ele>759.044</ele>
        <time>2019-06-16T12:57:35Z</time>
      </trkpt>
      <trkpt lat="38.626383" lon="-0.568090">
        <ele>759.073</ele>
        <time>2019-06-16T12:57:35Z</time>
      </trkpt>
      <trkpt lat="38.626383" lon="-0.568090">
        <ele>759.028</ele>
        <time>2019-06-16T12:57:35Z</time>
      </trkpt>
      <trkpt lat="38.626383" lon="-0.568090">
        <ele>759.066</ele>
        <time>2019-06-16T12:57:35Z</time>
      </trkpt>
      <trkpt lat="38.626383" lon="-0.568090">
        <ele>759.029</ele>
        <time>2019-06-16T12:57:35Z</time>
      </trkpt>
      <trkpt lat="38.626383" lon="-0.568090">
        <ele>759.021</ele>
        <time>2019-06-16T12:57:35Z</time>
      </trkpt>
      <trkpt lat="38.626383" lon="-0.568090">
        <ele>759.008</ele>
        <time>2019-06-16T12:57:35Z</time>
      </trkpt>
      <trkpt lat="38.626383" lon="-0.568090">
        <ele>759.099</ele>
        <time>2019-06-16T12:57:35Z</time>
      </trkpt>
      <trkpt lat="38.626383" lon="-0.568090">
        <ele>759.093</ele>
        <time>2019-06-16T12:57:35Z</time>
      </trkpt>
      <trkpt lat="38.626383" lon="-0.568090">
        <ele>759.072</ele>
        <time>2019-06-16T12:57:35Z</time>
      </trkpt>
      <trkpt lat="38.624828" lon="-0.570818">
        <ele>748.135</ele>
        <time>2019-06-16T12:58:11Z</time>
      </trkpt>
      <trkpt lat="38.624828" lon="-0.570818">
        <ele>748.147</ele>
        <time>2019-06-16T12:58:11Z</time>
      </trkpt>
      <trkpt lat="38.624828" lon="-0.570818">
        <ele>748.134</ele>
        <time>2019-06-16T12:58:11Z</time>
      </trkpt>
      <trkpt lat="38.624828" lon="-0.570818">
        <ele>748.113</ele>
        <time>2019-06-16T12:58:11Z</time>
      </trkpt>
      <trkpt lat="38.624828" lon="-0.570818">
        <ele>748.178</ele>
        <time>2019-06-16T12:58:11Z</time>
      </trkpt>
      <trkpt lat="38.624828" lon="-0.570818">
        <ele>748.141</ele>
        <time>2019-06-16T12:58:11Z</time>
      </trkpt>
      <trkpt lat="38.624828" lon="-0.570818">
        <ele>748.181</ele>
        <time>2019-06-16T12:58:11Z</time>
      </trkpt>
      <trkpt lat="38.624828" lon="-0.570818">
        <ele>748.109</ele>
        <time>2019-06-16T12:58:11Z</time>
      </trkpt>
      <trkpt lat="38.624828" lon="-0.570818">
        <ele>748.108</ele>
        <time>2019-06-16T12:58:11Z</time>
      </trkpt>
      <trkpt lat="38.624828" lon="-0.570818">
        <ele>748.187</ele>
        <time>2019-06-16T12:58:11Z</time>
      </trkpt>
      <trkpt lat="38.624828" lon="-0.570818">
        <ele>748.151</ele>
        <time>2019-06-16T12:58:11Z</time>
      </trkpt>
      <trkpt lat="38.624828" lon="-0.570818">
        <ele>748.110</ele>
        <time>2019-06-16T12:58:11Z</time>
      </trkpt>
      <trkpt lat="38.624828" lon="-0.570818">
        <ele>748.113</ele>
        <time>2019-06-16T12:58:11Z</time>
      </trkpt>
      <trkpt lat="38.624828" lon="-0.570818">
        <ele>748.185</ele>
        <time>2019-06-16T12:58:11Z</time>
      </trkpt>
      <trkpt lat="38.624828" lon="-0.570818">
        <ele>748.172</ele>
        <time>2019-06-16T12:58:11Z</time>
      </trkpt>
      <trkpt lat="38.624828" lon="-0.570818">
        <ele>748.191</ele>
        <time>2019-06-16T12:58:11Z</time>
      </trkpt>
      <trkpt lat="38.624828" lon="-0.570818">
        <ele>748.126</ele>
        <time>2019-06-16T12:58:11Z</time>
      </trkpt>
      <trkpt lat="38.624828" lon="-0.570818">
        <ele>748.164</ele>
        <time>2019-06-16T12:58:11Z</time>
      </trkpt>
      <trkpt lat="38.624828" lon="-0.570818">
        <ele>748.106</ele>
        <time>2019-06-16T12:58:11Z</time>
      </trkpt>
      <trkpt lat="38.624828" lon="-0.570818">
        <ele>748.116</ele>
        <time>2019-06-16T12:58:11Z</time>
      </trkpt>
      <trkpt lat="38.624828" lon="-0.570818">
        <ele>748.108</ele>
        <time>2019-06-16T12:58:11Z</time>
      </trkpt>
      <trkpt lat="38.624828" lon="-0.570818">
        <ele>748.129</ele>
        <time>2019-06-16T12:58:11Z</time>
      </trkpt>
      <trkpt lat="38.624828" lon="-0.570818">
        <ele>748.193</ele>
        <time>2019-06-16T12:58:11Z</time>
      </trkpt>
      <trkpt lat="38.624828" lon="-0.570818">
        <ele>748.112</ele>
        <time>2019-06-16T12:58:11Z</time>
      </trkpt>
      <trkpt lat="38.624828" lon="-0.570818">
        <ele>748.145</ele>
        <time>2019-06-16T12:58:11Z</time>
      </trkpt>
      <trkpt lat="38.624828" lon="-0.570818">
        <ele>748.147</ele>
        <time>2019-06-16T12:58:11Z</time>
      </trkpt>
      <trkpt lat="38.624828" lon="-0.570818">
        <ele>748.174</ele>
        <time>2019-06-16T12:58:11Z</time>
      </trkpt>
      <trkpt lat="38.624828" lon="-0.570818">
        <ele>748.153</ele>
        <time>2019-06-16T12:58:11Z</time>
      </trkpt>
      <trkpt lat="38.624828" lon="-0.570818">
        <ele>748.168</ele>
        <time>2019-06-16T12:58:11Z</time>
      </trkpt>
      <trkpt lat="38.624828" lon="-0.570818">
        <ele>748.167</ele>
        <time>2019-06-16T12:58:11Z</time>
      </trkpt>
      <trkpt lat="38.624828" lon="-0.570818">
        <ele>748.181</ele>
        <time>2019-06-16T12:58:11Z</time>
      </trkpt>
      <trkpt lat="38.624828" lon="-0.570818">
        <ele>748.119</ele>
        <time>2019-06-16T12:58:11Z</time>
      </trkpt>
      <trkpt lat="38.624828" lon="-0.570818">
        <ele>748.108</ele>
        <time>2019-06-16T12:58:11Z</time>
      </trkpt>
      <trkpt lat="38.624828" lon="-0.570818">
        <ele>748.119</ele>
        <time>2019-06-16T12:58:11Z</time>
      </trkpt>
      <trkpt lat="38.624828" lon="-0.570818">
        <ele>748.193</ele>
        <time>2019-06-16T12:58:11Z</time>
      </trkpt>
      <trkpt lat="38.624828" lon="-0.570818">
        <ele>748.142</ele>
        <time>2019-06-16T12:58:11Z</time>
      </trkpt>
      <trkpt lat="38.622828" lon="-0.574413">
        <ele>741.245</ele>
        <time>2019-06-16T12:58:53Z</time>
      </trkpt>
      <trkpt lat="38.622828" lon="-0.574413">
        <ele>741.217</ele>
        <time>2019-06-16T12:58:53Z</time>
      </trkpt>
      <trkpt lat="38.622828" lon="-0.574413">
        <ele>741.214</ele>
        <time>2019-06-16T12:58:53Z</time>
      </trkpt>
      <trkpt lat="38.622828" lon="-0.574413">
        <ele>741.273</ele>
        <time>2019-06-16T12:58:53Z</time>
      </trkpt>
      <trkpt lat="38.622828" lon="-0.574413">
        <ele>741.218</ele>
        <time>2019-06-16T12:58:53Z</time>
      </trkpt>
      <trkpt lat="38.622828" lon="-0.574413">
        <ele>741.224</ele>
        <time>2019-06-16T12:58:53Z</time>
      </trkpt>
      <trkpt lat="38.622828" lon="-0.574413">
        <ele>741.204</ele>
        <time>2019-06-16T12:58:53Z</time>
      </trkpt>
      <trkpt lat="38.622828" lon="-0.574413">
        <ele>741.214</ele>
        <time>2019-06-16T12:58:53Z</time>
      </trkpt>
      <trkpt lat="38.622828" lon="-0.574413">
        <ele>741.208</ele>
        <time>2019-06-16T12:58:53Z</time>
      </trkpt>
      <trkpt lat="38.622828" lon="-0.574413">
        <ele>741.265</ele>
        <time>2019-06-16T12:58:53Z</time>
      </trkpt>
      <trkpt lat="38.622828" lon="-0.574413">
        <ele>741.289</ele>
        <time>2019-06-16T12:58:53Z</time>
      </trkpt>
      <trkpt lat="38.622828" lon="-0.574413">
        <ele>741.278</ele>
        <time>2019-06-16T12:58:53Z</time>
      </trkpt>
      <trkpt lat="38.622828" lon="-0.574413">
        <ele>741.221</ele>
        <time>2019-06-16T12:58:53Z</time>
      </trkpt>
      <trkpt lat="38.622828" lon="-0.574413">
        <ele>741.293</ele>
        <time>2019-06-16T12:58:53Z</time>
      </trkpt>
      <trkpt lat="38.622828" lon="-0.574413">
        <ele>741.290</ele>
        <time>2019-06-16T12:58:53Z</time>
      </trkpt>
      <trkpt lat="38.622828" lon="-0.574413">
        <ele>741.289</ele>
        <time>2019-06-16T12:58:53Z</time>
      </trkpt>
      <trkpt lat="38.622828" lon="-0.574413">
        <ele>741.294</ele>
        <time>2019-06-16T12:58:53Z</time>
      </trkpt>
      <trkpt lat="38.622828" lon="-0.574413">
        <ele>741.256</ele>
        <time>2019-06-16T12:58:53Z</time>
      </trkpt>
      <trkpt lat="38.622828" lon="-0.574413">
        <ele>741.259</ele>
        <time>2019-06-16T12:58:53Z</time>
      </trkpt>
      <trkpt lat="38.622828" lon="-0.574413">
        <ele>741.214</ele>
        <time>2019-06-16T12:58:53Z</time>
      </trkpt>
      <trkpt lat="38.622828" lon="-0.574413">
        <ele>741.208</ele>
        <time>2019-06-16T12:58:53Z</time>
      </trkpt>
      <trkpt lat="38.622828" lon="-0.574413">
        <ele>741.238</ele>
        <time>2019-06-16T12:58:53Z</time>
      </trkpt>
      <trkpt lat="38.622828" lon="-0.574413">
        <ele>741.262</ele>
        <time>2019-06-16T12:58:53Z</time>
      </trkpt>
      <trkpt lat="38.622828" lon="-0.574413">
        <ele>741.211</ele>
        <time>2019-06-16T12:58:53Z</time>
      </trkpt>
      <trkpt lat="38.622828" lon="-0.574413">
        <ele>741.284</ele>
        <time>2019-06-16T12:58:53Z</time>
      </trkpt>
      <trkpt lat="38.622828" lon="-0.574413">
        <ele>741.286</ele>
        <time>2019-06-16T12:58:53Z</time>
      </trkpt>
      <trkpt lat="38.622828" lon="-0.574413">
        <ele>741.233</ele>
        <time>2019-06-16T12:58:53Z</time>
      </trkpt>
      <trkpt lat="38.622828" lon="-0.574413">
        <ele>741.292</ele>
        <time>2019-06-16T12:58:53Z</time>
      </trkpt>
      <trkpt lat="38.622828" lon="-0.574413">
        <ele>741.267</ele>
        <time>2019-06-16T12:58:53Z</time>
      </trkpt>
      <trkpt lat="38.622828" lon="-0.574413">
        <ele>741.295</ele>
        <time>2019-06-16T12:58:53Z</time>
      </trkpt>
      <trkpt lat="38.622828" lon="-0.574413">
        <ele>741.249</ele>
        <time>2019-06-16T12:58:53Z</time>
      </trkpt>
      <trkpt lat="38.622828" lon="-0.574413">
        <ele>741.223</ele>
        <time>2019-06-16T12:58:53Z</time>
      </trkpt>
      <trkpt lat="38.622828" lon="-0.574413">
        <ele>741.208</ele>
        <time>2019-06-16T12:58:53Z</time>
      </trkpt>
      <trkpt lat="38.622828" lon="-0.574413">
        <ele>741.292</ele>
        <time>2019-06-16T12:58:53Z</time>
      </trkpt>
      <trkpt lat="38.622828" lon="-0.574413">
        <ele>741.286</ele>
        <time>2019-06-16T12:58:53Z</time>
      </trkpt>
      <trkpt lat="38.622828" lon="-0.574413">
        <ele>741.265</ele>
        <time>2019-06-16T12:58:53Z</time>
      </trkpt>
      <trkpt lat="38.622828" lon="-0.574413">
        <ele>741.258</ele>
        <time>2019-06-16T12:58:53Z</time>
      </trkpt>
      <trkpt lat="38.622828" lon="-0.574413">
        <ele>741.270</ele>
        <time>2019-06-16T12:58:53Z</time>
      </trkpt>
      <trkpt lat="38.622828" lon="-0.574413">
        <ele>741.237</ele>
        <time>2019-06-16T12:58:53Z</time>
      </trkpt>
      <trkpt lat="38.622828" lon="-0.574413">
        <ele>741.286</ele>
        <time>2019-06-16T12:58:53Z</time>
      </trkpt>
      <trkpt lat="38.622828" lon="-0.574413">
        <ele>741.251</ele>
        <time>2019-06-16T12:58:53Z</time>
      </trkpt>
      <trkpt lat="38.622828" lon="-0.574413">
        <ele>741.229</ele>
        <time>2019-06-16T12:58:53Z</time>
      </trkpt>
      <trkpt lat="38.620897" lon="-0.577779">
        <ele>723.500</ele>
        <time>2019-06-16T12:59:44Z</time>
      </trkpt>
      <trkpt lat="38.620897" lon="-0.577779">
        <ele>723.520</ele>
        <time>2019-06-16T12:59:44Z</time>
      </trkpt>
      <trkpt lat="38.620897" lon="-0.577779">
        <ele>723.508</ele>
        <time>2019-06-16T12:59:44Z</time>
      </trkpt>
      <trkpt lat="38.620897" lon="-0.577779">
        <ele>723.535</ele>
        <time>2019-06-16T12:59:44Z</time>
      </trkpt>
      <trkpt lat="38.620897" lon="-0.577779">
        <ele>723.599</ele>
        <time>2019-06-16T12:59:44Z</time>
      </trkpt>
      <trkpt lat="38.620897" lon="-0.577779">
        <ele>723.518</ele>
        <time>2019-06-16T12:59:44Z</time>
      </trkpt>
      <trkpt lat="38.620897" lon="-0.577779">
        <ele>723.531</ele>
        <time>2019-06-16T12:59:44Z</time>
      </trkpt>
      <trkpt lat="38.620897" lon="-0.577779">
        <ele>723.543</ele>
        <time>2019-06-16T12:59:44Z</time>
      </trkpt>
      <trkpt lat="38.620897" lon="-0.577779">
        <ele>723.590</ele>
        <time>2019-06-16T12:59:44Z</time>
      </trkpt>
      <trkpt lat="38.620897" lon="-0.577779">
        <ele>723.539</ele>
        <time>2019-06-16T12:59:44Z</time>
      </trkpt>
      <trkpt lat="38.620897" lon="-0.577779">
        <ele>723.574</ele>
        <time>2019-06-16T12:59:44Z</time>
      </trkpt>
      <trkpt lat="38.620897" lon="-0.577779">
        <ele>723.542</ele>
        <time>2019-06-16T12:59:44Z</time>
      </trkpt>
      <trkpt lat="38.620897" lon="-0.577779">
        <ele>723.522</ele>
        <time>2019-06-16T12:59:44Z</time>
      </trkpt>
      <trkpt lat="38.620897" lon="-0.577779">
        <ele>723.514</ele>
        <time>2019-06-16T12:59:44Z</time>
      </trkpt>
      <trkpt lat="38.620897" lon="-0.577779">
        <ele>723.508</ele>
        <time>2019-06-16T12:59:44Z</time>
      </trkpt>
      <trkpt lat="38.620897" lon="-0.577779">
        <ele>723.517</ele>
        <time>2019-06-16T12:59:44Z</time>
      </trkpt>
      <trkpt lat="38.620897" lon="-0.577779">
        <ele>723.561</ele>
        <time>2019-06-16T12:59:44Z</time>
      </trkpt>
      <trkpt lat="38.620897" lon="-0.577779">
        <ele>723.510</ele>
        <time>2019-06-16T12:59:44Z</time>
      </trkpt>
      <trkpt lat="38.620897" lon="-0.577779">
        <ele>723.523</ele>
        <time>2019-06-16T12:59:44Z</time>
      </trkpt>
      <trkpt lat="38.620897" lon="-0.577779">
        <ele>723.535</ele>
        <time>2019-06-16T12:59:44Z</time>
      </trkpt>
      <trkpt lat="38.620897" lon="-0.577779">
        <ele>723.522</ele>
        <time>2019-06-16T12:59:44Z</time>
      </trkpt>
      <trkpt lat="38.620897" lon="-0.577779">
        <ele>723.541</ele>
        <time>2019-06-16T12:59:44Z</time>
      </trkpt>
      <trkpt lat="38.620897" lon="-0.577779">
        <ele>723.576</ele>
        <time>2019-06-16T12:59:44Z</time>
      </trkpt>
      <trkpt lat="38.620897" lon="-0.577779">
        <ele>723.532</ele>
        <time>2019-06-16T12:59:44Z</time>
      </trkpt>
      <trkpt lat="38.620897" lon="-0.577779">
        <ele>723.592</ele>
        <time>2019-06-16T12:59:44Z</time>
      </trkpt>
      <trkpt lat="38.620897" lon="-0.577779">
        <ele>723.511</ele>
        <time>2019-06-16T12:59:44Z</time>
      </trkpt>
      <trkpt lat="38.620897" lon="-0.577779">
        <ele>723.508</ele>
        <time>2019-06-16T12:59:44Z</time>
      </trkpt>
      <trkpt lat="38.620897" lon="-0.577779">
        <ele>723.516</ele>
        <time>2019-06-16T12:59:44Z</time>
      </trkpt>
      <trkpt lat="38.620897" lon="-0.577779">
        <ele>723.510</ele>
        <time>2019-06-16T12:59:44Z</time>
      </trkpt>
      <trkpt lat="38.620897" lon="-0.577779">
        <ele>723.569</ele>
        <time>2019-06-16T12:59:44Z</time>
      </trkpt>
      <trkpt lat="38.620897" lon="-0.577779">
        <ele>723.532</ele>
        <time>2019-06-16T12:59:44Z</time>
      </trkpt>
      <trkpt lat="38.620897" lon="-0.577779">
        <ele>723.514</ele>
        <time>2019-06-16T12:59:44Z</time>
      </trkpt>
      <trkpt lat="38.620897" lon="-0.577779">
        <ele>723.581</ele>
        <time>2019-06-16T12:59:44Z</time>
      </trkpt>
      <trkpt lat="38.620897" lon="-0.577779">
        <ele>723.510</ele>
        <time>2019-06-16T12:59:44Z</time>
      </trkpt>
      <trkpt lat="38.620897" lon="-0.577779">
        <ele>723.565</ele>
        <time>2019-06-16T12:59:44Z</time>
      </trkpt>
      <trkpt lat="38.620897" lon="-0.577779">
        <ele>723.577</ele>
        <time>2019-06-16T12:59:44Z</time>
      </trkpt>
      <trkpt lat="38.620897" lon="-0.577779">
        <ele>723.561</ele>
        <time>2019-06-16T12:59:44Z</time>
      </trkpt>
      <trkpt lat="38.620897" lon="-0.577779">
        <ele>723.527</ele>
        <time>2019-06-16T12:59:44Z</time>
      </trkpt>
      <trkpt lat="38.620897" lon="-0.577779">
        <ele>723.508</ele>
        <time>2019-06-16T12:59:44Z</time>
      </trkpt>
      <trkpt lat="38.620897" lon="-0.577779">
        <ele>723.560</ele>
        <time>2019-06-16T12:59:44Z</time>
      </trkpt>
      <trkpt lat="38.620897" lon="-0.577779">
        <ele>723.534</ele>
        <time>2019-06-16T12:59:44Z</time>
      </trkpt>
      <trkpt lat="38.620897" lon="-0.577779">
        <ele>723.533</ele>
        <time>2019-06-16T12:59:44Z</time>
      </trkpt>
      <trkpt lat="38.620897" lon="-0.577779">
        <ele>723.526</ele>
        <time>2019-06-16T12:59:44Z</time>
      </trkpt>
      <trkpt lat="38.620897" lon="-0.577779">
        <ele>723.588</ele>
        <time>2019-06-16T12:59:44Z</time>
      </trkpt>
      <trkpt lat="38.620897" lon="-0.577779">
        <ele>723.565</ele>
        <time>2019-06-16T12:59:44Z</time>
      </trkpt>
      <trkpt lat="38.620897" lon="-0.577779">
        <ele>723.574</ele>
        <time>2019-06-16T12:59:44Z</time>
      </trkpt>
      <trkpt lat="38.620897" lon="-0.577779">
        <ele>723.599</ele>
        <time>2019-06-16T12:59:44Z</time>
      </trkpt>
      <trkpt lat="38.620897" lon="-0.577779">
        <ele>723.562</ele>
        <time>2019-06-16T12:59:44Z</time>
      </trkpt>
      <trkpt lat="38.620897" lon="-0.577779">
        <ele>723.583</ele>
        <time>2019-06-16T12:59:44Z</time>
      </trkpt>
      <trkpt lat="38.620897" lon="-0.577779">
        <ele>723.511</ele>
        <time>2019-06-16T12:59:44Z</time>
      </trkpt>
      <trkpt lat="38.620897" lon="-0.577779">
        <ele>723.508</ele>
        <time>2019-06-16T12:59:44Z</time>
      </trkpt>
      <trkpt lat="38.620846" lon="-0.578049">
        <ele>724.159</ele>
        <time>2019-06-16T13:02:10Z</time>
      </trkpt>
      <trkpt lat="38.620782" lon="-0.578010">
        <ele>723.323</ele>
        <time>2019-06-16T13:02:12Z</time>
      </trkpt>
      <trkpt lat="38.620647" lon="-0.577927">
        <ele>722.112</ele>
        <time>2019-06-16T13:02:14Z</time>
      </trkpt>
      <trkpt lat="38.620567" lon="-0.577932">
        <ele>721.585</ele>
        <time>2019-06-16T13:02:15Z</time>
      </trkpt>
      <trkpt lat="38.620480" lon="-0.577943">
        <ele>720.617</ele>
        <time>2019-06-16T13:02:17Z</time>
      </trkpt>
      <trkpt lat="38.620393" lon="-0.577959">
        <ele>719.684</ele>
        <time>2019-06-16T13:02:19Z</time>
      </trkpt>
      <trkpt lat="38.620351" lon="-0.577987">
        <ele>719.063</ele>
        <time>2019-06-16T13:02:20Z</time>
      </trkpt>
      <trkpt lat="38.620314" lon="-0.578019">
        <ele>718.588</ele>
        <time>2019-06-16T13:02:21Z</time>
      </trkpt>
      <trkpt lat="38.620273" lon="-0.578043">
        <ele>718.088</ele>
        <time>2019-06-16T13:02:22Z</time>
      </trkpt>
      <trkpt lat="38.620195" lon="-0.578052">
        <ele>717.424</ele>
        <time>2019-06-16T13:02:24Z</time>
      </trkpt>
      <trkpt lat="38.620121" lon="-0.578100">
        <ele>717.026</ele>
        <time>2019-06-16T13:02:26Z</time>
      </trkpt>
      <trkpt lat="38.620095" lon="-0.578195">
        <ele>717.208</ele>
        <time>2019-06-16T13:02:28Z</time>
      </trkpt>
      <trkpt lat="38.620116" lon="-0.578285">
        <ele>717.541</ele>
        <time>2019-06-16T13:02:30Z</time>
      </trkpt>
      <trkpt lat="38.620099" lon="-0.578389">
        <ele>717.865</ele>
        <time>2019-06-16T13:02:32Z</time>
      </trkpt>
      <trkpt lat="38.620084" lon="-0.578486">
        <ele>718.214</ele>
        <time>2019-06-16T13:02:33Z</time>
      </trkpt>
      <trkpt lat="38.620105" lon="-0.578586">
        <ele>718.517</ele>
        <time>2019-06-16T13:02:34Z</time>
      </trkpt>
      <trkpt lat="38.620142" lon="-0.578646">
        <ele>718.599</ele>
        <time>2019-06-16T13:02:35Z</time>
      </trkpt>
      <trkpt lat="38.620162" lon="-0.578751">
        <ele>718.456</ele>
        <time>2019-06-16T13:02:37Z</time>
      </trkpt>
      <trkpt lat="38.620188" lon="-0.578831">
        <ele>718.395</ele>
        <time>2019-06-16T13:02:39Z</time>
      </trkpt>
      <trkpt lat="38.620214" lon="-0.578894">
        <ele>718.240</ele>
        <time>2019-06-16T13:02:40Z</time>
      </trkpt>
      <trkpt lat="38.620224" lon="-0.578953">
        <ele>718.124</ele>
        <time>2019-06-16T13:02:41Z</time>
      </trkpt>
      <trkpt lat="38.620256" lon="-0.579071">
        <ele>718.004</ele>
        <time>2019-06-16T13:02:43Z</time>
      </trkpt>
      <trkpt lat="38.620271" lon="-0.579129">
        <ele>718.014</ele>
        <time>2019-06-16T13:02:44Z</time>
      </trkpt>
      <trkpt lat="38.620285" lon="-0.579194">
        <ele>718.008</ele>
        <time>2019-06-16T13:02:46Z</time>
      </trkpt>
      <trkpt lat="38.620315" lon="-0.579240">
        <ele>717.965</ele>
        <time>2019-06-16T13:02:47Z</time>
      </trkpt>
      <trkpt lat="38.620361" lon="-0.579312">
        <ele>717.969</ele>
        <time>2019-06-16T13:02:49Z</time>
      </trkpt>
      <trkpt lat="38.620337" lon="-0.579380">
        <ele>718.018</ele>
        <time>2019-06-16T13:02:50Z</time>
      </trkpt>
      <trkpt lat="38.620352" lon="-0.579468">
        <ele>718.051</ele>
        <time>2019-06-16T13:02:52Z</time>
      </trkpt>
      <trkpt lat="38.620331" lon="-0.579578">
        <ele>718.133</ele>
        <time>2019-06-16T13:02:54Z</time>
      </trkpt>
      <trkpt lat="38.620326" lon="-0.579641">
        <ele>718.130</ele>
        <time>2019-06-16T13:02:55Z</time>
      </trkpt>
      <trkpt lat="38.620314" lon="-0.579703">
        <ele>718.169</ele>
        <time>2019-06-16T13:02:56Z</time>
      </trkpt>
      <trkpt lat="38.620307" lon="-0.579800">
        <ele>718.634</ele>
        <time>2019-06-16T13:02:57Z</time>
      </trkpt>
      <trkpt lat="38.620300" lon="-0.579859">
        <ele>719.098</ele>
        <time>2019-06-16T13:02:58Z</time>
      </trkpt>
      <trkpt lat="38.620309" lon="-0.579943">
        <ele>719.615</ele>
        <time>2019-06-16T13:02:59Z</time>
      </trkpt>
      <trkpt lat="38.620325" lon="-0.579998">
        <ele>720.026</ele>
        <time>2019-06-16T13:03:00Z</time>
      </trkpt>
      <trkpt lat="38.620345" lon="-0.580081">
        <ele>720.508</ele>
        <time>2019-06-16T13:03:01Z</time>
      </trkpt>
      <trkpt lat="38.620360" lon="-0.580156">
        <ele>721.072</ele>
        <time>2019-06-16T13:03:02Z</time>
      </trkpt>
      <trkpt lat="38.620358" lon="-0.580246">
        <ele>721.546</ele>
        <time>2019-06-16T13:03:03Z</time>
      </trkpt>
      <trkpt lat="38.620357" lon="-0.580340">
        <ele>721.945</ele>
        <time>2019-06-16T13:03:04Z</time>
      </trkpt>
      <trkpt lat="38.620368" lon="-0.580422">
        <ele>722.078</ele>
        <time>2019-06-16T13:03:05Z</time>
      </trkpt>
      <trkpt lat="38.620464" lon="-0.580507">
        <ele>721.610</ele>
        <time>2019-06-16T13:03:07Z</time>
      </trkpt>
      <trkpt lat="38.620513" lon="-0.580552">
        <ele>721.317</ele>
        <time>2019-06-16T13:03:08Z</time>
      </trkpt>
      <trkpt lat="38.620520" lon="-0.580620">
        <ele>720.586</ele>
        <time>2019-06-16T13:03:09Z</time>
      </trkpt>
      <trkpt lat="38.620523" lon="-0.580701">
        <ele>719.691</ele>
        <time>2019-06-16T13:03:10Z</time>
      </trkpt>
      <trkpt lat="38.620531" lon="-0.580785">
        <ele>718.659</ele>
        <time>2019-06-16T13:03:11Z</time>
      </trkpt>
      <trkpt lat="38.620582" lon="-0.580827">
        <ele>717.903</ele>
        <time>2019-06-16T13:03:12Z</time>
      </trkpt>
      <trkpt lat="38.620609" lon="-0.580919">
        <ele>716.323</ele>
        <time>2019-06-16T13:03:13Z</time>
      </trkpt>
      <trkpt lat="38.620654" lon="-0.580986">
        <ele>715.308</ele>
        <time>2019-06-16T13:03:14Z</time>
      </trkpt>
      <trkpt lat="38.620705" lon="-0.581074">
        <ele>714.588</ele>
        <time>2019-06-16T13:03:16Z</time>
      </trkpt>
      <trkpt lat="38.620762" lon="-0.581084">
        <ele>714.782</ele>
        <time>2019-06-16T13:03:21Z</time>
      </trkpt>
      <trkpt lat="38.620775" lon="-0.581161">
        <ele>714.671</ele>
        <time>2019-06-16T13:03:25Z</time>
      </trkpt>
      <trkpt lat="38.620729" lon="-0.581227">
        <ele>714.214</ele>
        <time>2019-06-16T13:03:27Z</time>
      </trkpt>
      <trkpt lat="38.620625" lon="-0.581362">
        <ele>713.566</ele>
        <time>2019-06-16T13:03:29Z</time>
      </trkpt>
      <trkpt lat="38.620589" lon="-0.581436">
        <ele>713.613</ele>
        <time>2019-06-16T13:03:31Z</time>
      </trkpt>
      <trkpt lat="38.620587" lon="-0.581505">
        <ele>714.162</ele>
        <time>2019-06-16T13:03:32Z</time>
      </trkpt>
      <trkpt lat="38.620597" lon="-0.581612">
        <ele>714.967</ele>
        <time>2019-06-16T13:03:34Z</time>
      </trkpt>
      <trkpt lat="38.620587" lon="-0.581704">
        <ele>715.561</ele>
        <time>2019-06-16T13:03:36Z</time>
      </trkpt>
      <trkpt lat="38.620615" lon="-0.581796">
        <ele>716.221</ele>
        <time>2019-06-16T13:03:38Z</time>
      </trkpt>
      <trkpt lat="38.620649" lon="-0.581893">
        <ele>716.813</ele>
        <time>2019-06-16T13:03:40Z</time>
      </trkpt>
      <trkpt lat="38.620651" lon="-0.581970">
        <ele>717.008</ele>
        <time>2019-06-16T13:03:41Z</time>
      </trkpt>
      <trkpt lat="38.620664" lon="-0.582027">
        <ele>717.069</ele>
        <time>2019-06-16T13:03:42Z</time>
      </trkpt>
      <trkpt lat="38.620641" lon="-0.582110">
        <ele>717.013</ele>
        <time>2019-06-16T13:03:43Z</time>
      </trkpt>
      <trkpt lat="38.620664" lon="-0.582238">
        <ele>716.942</ele>
        <time>2019-06-16T13:03:45Z</time>
      </trkpt>
      <trkpt lat="38.620680" lon="-0.582301">
        <ele>716.695</ele>
        <time>2019-06-16T13:03:46Z</time>
      </trkpt>
      <trkpt lat="38.620685" lon="-0.582375">
        <ele>716.267</ele>
        <time>2019-06-16T13:03:47Z</time>
      </trkpt>
      <trkpt lat="38.620714" lon="-0.582431">
        <ele>715.924</ele>
        <time>2019-06-16T13:03:48Z</time>
      </trkpt>
      <trkpt lat="38.620706" lon="-0.582518">
        <ele>715.443</ele>
        <time>2019-06-16T13:03:49Z</time>
      </trkpt>
      <trkpt lat="38.620697" lon="-0.582582">
        <ele>714.658</ele>
        <time>2019-06-16T13:03:50Z</time>
      </trkpt>
      <trkpt lat="38.620710" lon="-0.582660">
        <ele>713.979</ele>
        <time>2019-06-16T13:03:51Z</time>
      </trkpt>
      <trkpt lat="38.620693" lon="-0.582725">
        <ele>713.105</ele>
        <time>2019-06-16T13:03:52Z</time>
      </trkpt>
      <trkpt lat="38.620718" lon="-0.582813">
        <ele>712.525</ele>
        <time>2019-06-16T13:03:53Z</time>
      </trkpt>
      <trkpt lat="38.620741" lon="-0.582881">
        <ele>712.308</ele>
        <time>2019-06-16T13:03:54Z</time>
      </trkpt>
      <trkpt lat="38.620786" lon="-0.582992">
        <ele>711.910</ele>
        <time>2019-06-16T13:03:55Z</time>
      </trkpt>
      <trkpt lat="38.620796" lon="-0.583054">
        <ele>711.644</ele>
        <time>2019-06-16T13:03:56Z</time>
      </trkpt>
      <trkpt lat="38.620801" lon="-0.583138">
        <ele>711.453</ele>
        <time>2019-06-16T13:03:57Z</time>
      </trkpt>
      <trkpt lat="38.620797" lon="-0.583220">
        <ele>711.136</ele>
        <time>2019-06-16T13:03:58Z</time>
      </trkpt>
      <trkpt lat="38.620809" lon="-0.583314">
        <ele>710.948</ele>
        <time>2019-06-16T13:03:59Z</time>
      </trkpt>
      <trkpt lat="38.620812" lon="-0.583389">
        <ele>710.865</ele>
        <time>2019-06-16T13:04:00Z</time>
      </trkpt>
      <trkpt lat="38.620805" lon="-0.583455">
        <ele>710.854</ele>
        <time>2019-06-16T13:04:01Z</time>
      </trkpt>
      <trkpt lat="38.620799" lon="-0.583528">
        <ele>710.719</ele>
        <time>2019-06-16T13:04:02Z</time>
      </trkpt>
      <trkpt lat="38.620810" lon="-0.583616">
        <ele>710.858</ele>
        <time>2019-06-16T13:04:03Z</time>
      </trkpt>
      <trkpt lat="38.620778" lon="-0.583665">
        <ele>710.752</ele>
        <time>2019-06-16T13:04:04Z</time>
      </trkpt>
      <trkpt lat="38.620768" lon="-0.583733">
        <ele>711.017</ele>
        <time>2019-06-16T13:04:05Z</time>
      </trkpt>
      <trkpt lat="38.620740" lon="-0.583830">
        <ele>711.008</ele>
        <time>2019-06-16T13:04:07Z</time>
      </trkpt>
      <trkpt lat="38.620742" lon="-0.583891">
        <ele>711.398</ele>
        <time>2019-06-16T13:04:08Z</time>
      </trkpt>
      <trkpt lat="38.620736" lon="-0.583960">
        <ele>710.852</ele>
        <time>2019-06-16T13:04:09Z</time>
      </trkpt>
      <trkpt lat="38.620724" lon="-0.584043">
        <ele>710.151</ele>
        <time>2019-06-16T13:04:12Z</time>
      </trkpt>
      <trkpt lat="38.620736" lon="-0.584104">
        <ele>710.034</ele>
        <time>2019-06-16T13:04:15Z</time>
      </trkpt>
      <trkpt lat="38.620686" lon="-0.584070">
        <ele>709.416</ele>
        <time>2019-06-16T13:04:20Z</time>
      </trkpt>
      <trkpt lat="38.620735" lon="-0.584027">
        <ele>710.473</ele>
        <time>2019-06-16T13:04:30Z</time>
      </trkpt>
      <trkpt lat="38.620774" lon="-0.583997">
        <ele>711.292</ele>
        <time>2019-06-16T13:04:33Z</time>
      </trkpt>
      <trkpt lat="38.620753" lon="-0.583936">
        <ele>711.337</ele>
        <time>2019-06-16T13:04:43Z</time>
      </trkpt>
      <trkpt lat="38.620752" lon="-0.583859">
        <ele>711.487</ele>
        <time>2019-06-16T13:04:45Z</time>
      </trkpt>
      <trkpt lat="38.620735" lon="-0.583794">
        <ele>710.842</ele>
        <time>2019-06-16T13:04:47Z</time>
      </trkpt>
      <trkpt lat="38.620689" lon="-0.583753">
        <ele>709.926</ele>
        <time>2019-06-16T13:04:49Z</time>
      </trkpt>
      <trkpt lat="38.620593" lon="-0.583726">
        <ele>708.508</ele>
        <time>2019-06-16T13:04:50Z</time>
      </trkpt>
      <trkpt lat="38.620547" lon="-0.583756">
        <ele>708.061</ele>
        <time>2019-06-16T13:04:51Z</time>
      </trkpt>
      <trkpt lat="38.620502" lon="-0.583794">
        <ele>708.115</ele>
        <time>2019-06-16T13:04:52Z</time>
      </trkpt>
      <trkpt lat="38.620455" lon="-0.583831">
        <ele>708.134</ele>
        <time>2019-06-16T13:04:53Z</time>
      </trkpt>
      <trkpt lat="38.620408" lon="-0.583864">
        <ele>708.077</ele>
        <time>2019-06-16T13:04:54Z</time>
      </trkpt>
      <trkpt lat="38.620362" lon="-0.583892">
        <ele>708.049</ele>
        <time>2019-06-16T13:04:55Z</time>
      </trkpt>
      <trkpt lat="38.620284" lon="-0.583944">
        <ele>707.616</ele>
        <time>2019-06-16T13:04:57Z</time>
      </trkpt>
      <trkpt lat="38.620213" lon="-0.584004">
        <ele>707.195</ele>
        <time>2019-06-16T13:04:59Z</time>
      </trkpt>
      <trkpt lat="38.620173" lon="-0.584052">
        <ele>706.930</ele>
        <time>2019-06-16T13:05:00Z</time>
      </trkpt>
      <trkpt lat="38.620065" lon="-0.584070">
        <ele>706.944</ele>
        <time>2019-06-16T13:05:02Z</time>
      </trkpt>
      <trkpt lat="38.620006" lon="-0.584133">
        <ele>707.005</ele>
        <time>2019-06-16T13:05:04Z</time>
      </trkpt>
      <trkpt lat="38.619948" lon="-0.584128">
        <ele>706.815</ele>
        <time>2019-06-16T13:05:05Z</time>
      </trkpt>
      <trkpt lat="38.619903" lon="-0.584177">
        <ele>706.608</ele>
        <time>2019-06-16T13:05:08Z</time>
      </trkpt>
      <trkpt lat="38.619796" lon="-0.584242">
        <ele>706.257</ele>
        <time>2019-06-16T13:05:10Z</time>
      </trkpt>
      <trkpt lat="38.619726" lon="-0.584271">
        <ele>706.071</ele>
        <time>2019-06-16T13:05:12Z</time>
      </trkpt>
      <trkpt lat="38.619676" lon="-0.584289">
        <ele>705.670</ele>
        <time>2019-06-16T13:05:13Z</time>
      </trkpt>
      <trkpt lat="38.619631" lon="-0.584312">
        <ele>705.213</ele>
        <time>2019-06-16T13:05:14Z</time>
      </trkpt>
      <trkpt lat="38.619593" lon="-0.584344">
        <ele>704.845</ele>
        <time>2019-06-16T13:05:15Z</time>
      </trkpt>
      <trkpt lat="38.619537" lon="-0.584420">
        <ele>704.172</ele>
        <time>2019-06-16T13:05:17Z</time>
      </trkpt>
      <trkpt lat="38.619488" lon="-0.584436">
        <ele>703.531</ele>
        <time>2019-06-16T13:05:18Z</time>
      </trkpt>
      <trkpt lat="38.619443" lon="-0.584455">
        <ele>703.046</ele>
        <time>2019-06-16T13:05:19Z</time>
      </trkpt>
      <trkpt lat="38.619402" lon="-0.584486">
        <ele>702.934</ele>
        <time>2019-06-16T13:05:20Z</time>
      </trkpt>
      <trkpt lat="38.619353" lon="-0.584511">
        <ele>702.755</ele>
        <time>2019-06-16T13:05:21Z</time>
      </trkpt>
      <trkpt lat="38.619299" lon="-0.584537">
        <ele>702.510</ele>
        <time>2019-06-16T13:05:22Z</time>
      </trkpt>
      <trkpt lat="38.619240" lon="-0.584558">
        <ele>702.208</ele>
        <time>2019-06-16T13:05:23Z</time>
      </trkpt>
      <trkpt lat="38.619188" lon="-0.584582">
        <ele>702.176</ele>
        <time>2019-06-16T13:05:24Z</time>
      </trkpt>
      <trkpt lat="38.619133" lon="-0.584602">
        <ele>702.130</ele>
        <time>2019-06-16T13:05:25Z</time>
      </trkpt>
      <trkpt lat="38.619080" lon="-0.584625">
        <ele>702.279</ele>
        <time>2019-06-16T13:05:26Z</time>
      </trkpt>
      <trkpt lat="38.619040" lon="-0.584652">
        <ele>702.352</ele>
        <time>2019-06-16T13:05:27Z</time>
      </trkpt>
      <trkpt lat="38.618993" lon="-0.584664">
        <ele>702.224</ele>
        <time>2019-06-16T13:05:28Z</time>
      </trkpt>
      <trkpt lat="38.618940" lon="-0.584694">
        <ele>702.151</ele>
        <time>2019-06-16T13:05:30Z</time>
      </trkpt>
      <trkpt lat="38.618879" lon="-0.584708">
        <ele>702.170</ele>
        <time>2019-06-16T13:05:32Z</time>
      </trkpt>
      <trkpt lat="38.618816" lon="-0.584706">
        <ele>702.575</ele>
        <time>2019-06-16T13:05:34Z</time>
      </trkpt>
      <trkpt lat="38.618763" lon="-0.584701">
        <ele>702.991</ele>
        <time>2019-06-16T13:05:36Z</time>
      </trkpt>
      <trkpt lat="38.618708" lon="-0.584692">
        <ele>703.381</ele>
        <time>2019-06-16T13:05:39Z</time>
      </trkpt>
      <trkpt lat="38.618663" lon="-0.584645">
        <ele>703.619</ele>
        <time>2019-06-16T13:05:42Z</time>
      </trkpt>
      <trkpt lat="38.618619" lon="-0.584675">
        <ele>703.908</ele>
        <time>2019-06-16T13:05:53Z</time>
      </trkpt>
      <trkpt lat="38.618568" lon="-0.584712">
        <ele>703.982</ele>
        <time>2019-06-16T13:05:55Z</time>
      </trkpt>
      <trkpt lat="38.618452" lon="-0.584773">
        <ele>703.256</ele>
        <time>2019-06-16T13:05:57Z</time>
      </trkpt>
      <trkpt lat="38.618409" lon="-0.584800">
        <ele>703.085</ele>
        <time>2019-06-16T13:05:59Z</time>
      </trkpt>
      <trkpt lat="38.618366" lon="-0.584833">
        <ele>702.778</ele>
        <time>2019-06-16T13:06:01Z</time>
      </trkpt>
      <trkpt lat="38.618317" lon="-0.584871">
        <ele>702.470</ele>
        <time>2019-06-16T13:06:03Z</time>
      </trkpt>
      <trkpt lat="38.618272" lon="-0.584913">
        <ele>701.967</ele>
        <time>2019-06-16T13:06:05Z</time>
      </trkpt>
      <trkpt lat="38.618221" lon="-0.584964">
        <ele>701.476</ele>
        <time>2019-06-16T13:06:07Z</time>
      </trkpt>
      <trkpt lat="38.618165" lon="-0.585018">
        <ele>700.771</ele>
        <time>2019-06-16T13:06:09Z</time>
      </trkpt>
      <trkpt lat="38.618121" lon="-0.585061">
        <ele>700.389</ele>
        <time>2019-06-16T13:06:11Z</time>
      </trkpt>
      <trkpt lat="38.618083" lon="-0.585108">
        <ele>699.806</ele>
        <time>2019-06-16T13:06:14Z</time>
      </trkpt>
      <trkpt lat="38.618091" lon="-0.585178">
        <ele>699.726</ele>
        <time>2019-06-16T13:06:17Z</time>
      </trkpt>
      <trkpt lat="38.618117" lon="-0.585247">
        <ele>699.808</ele>
        <time>2019-06-16T13:06:19Z</time>
      </trkpt>
      <trkpt lat="38.618186" lon="-0.585395">
        <ele>699.871</ele>
        <time>2019-06-16T13:06:21Z</time>
      </trkpt>
      <trkpt lat="38.618225" lon="-0.585497">
        <ele>699.715</ele>
        <time>2019-06-16T13:06:23Z</time>
      </trkpt>
      <trkpt lat="38.618255" lon="-0.585551">
        <ele>699.934</ele>
        <time>2019-06-16T13:06:24Z</time>
      </trkpt>
      <trkpt lat="38.618289" lon="-0.585605">
        <ele>700.247</ele>
        <time>2019-06-16T13:06:25Z</time>
      </trkpt>
      <trkpt lat="38.618320" lon="-0.585653">
        <ele>700.529</ele>
        <time>2019-06-16T13:06:26Z</time>
      </trkpt>
      <trkpt lat="38.618354" lon="-0.585699">
        <ele>700.726</ele>
        <time>2019-06-16T13:06:27Z</time>
      </trkpt>
      <trkpt lat="38.618389" lon="-0.585743">
        <ele>701.135</ele>
        <time>2019-06-16T13:06:29Z</time>
      </trkpt>
      <trkpt lat="38.618426" lon="-0.585786">
        <ele>701.460</ele>
        <time>2019-06-16T13:06:31Z</time>
      </trkpt>
      <trkpt lat="38.618462" lon="-0.585833">
        <ele>701.937</ele>
        <time>2019-06-16T13:06:33Z</time>
      </trkpt>
      <trkpt lat="38.618491" lon="-0.585895">
        <ele>702.349</ele>
        <time>2019-06-16T13:06:35Z</time>
      </trkpt>
      <trkpt lat="38.618511" lon="-0.585969">
        <ele>702.613</ele>
        <time>2019-06-16T13:06:37Z</time>
      </trkpt>
      <trkpt lat="38.618534" lon="-0.586075">
        <ele>702.908</ele>
        <time>2019-06-16T13:06:38Z</time>
      </trkpt>
      <trkpt lat="38.618544" lon="-0.586152">
        <ele>702.846</ele>
        <time>2019-06-16T13:06:40Z</time>
      </trkpt>
      <trkpt lat="38.618563" lon="-0.586218">
        <ele>702.780</ele>
        <time>2019-06-16T13:06:42Z</time>
      </trkpt>
      <trkpt lat="38.618594" lon="-0.586296">
        <ele>702.589</ele>
        <time>2019-06-16T13:06:43Z</time>
      </trkpt>
      <trkpt lat="38.618625" lon="-0.586365">
        <ele>702.282</ele>
        <time>2019-06-16T13:06:45Z</time>
      </trkpt>
      <trkpt lat="38.618648" lon="-0.586423">
        <ele>701.984</ele>
        <time>2019-06-16T13:06:47Z</time>
      </trkpt>
      <trkpt lat="38.618676" lon="-0.586495">
        <ele>701.551</ele>
        <time>2019-06-16T13:06:49Z</time>
      </trkpt>
      <trkpt lat="38.618705" lon="-0.586581">
        <ele>701.030</ele>
        <time>2019-06-16T13:06:50Z</time>
      </trkpt>
      <trkpt lat="38.618727" lon="-0.586670">
        <ele>700.495</ele>
        <time>2019-06-16T13:06:52Z</time>
      </trkpt>
      <trkpt lat="38.618754" lon="-0.586772">
        <ele>700.323</ele>
        <time>2019-06-16T13:06:54Z</time>
      </trkpt>
      <trkpt lat="38.618786" lon="-0.586876">
        <ele>700.283</ele>
        <time>2019-06-16T13:06:56Z</time>
      </trkpt>
      <trkpt lat="38.618814" lon="-0.586977">
        <ele>700.111</ele>
        <time>2019-06-16T13:06:58Z</time>
      </trkpt>
      <trkpt lat="38.618851" lon="-0.587075">
        <ele>700.508</ele>
        <time>2019-06-16T13:07:00Z</time>
      </trkpt>
      <trkpt lat="38.618893" lon="-0.587169">
        <ele>700.845</ele>
        <time>2019-06-16T13:07:02Z</time>
      </trkpt>
      <trkpt lat="38.618915" lon="-0.587242">
        <ele>701.029</ele>
        <time>2019-06-16T13:07:04Z</time>
      </trkpt>
      <trkpt lat="38.618936" lon="-0.587315">
        <ele>701.078</ele>
        <time>2019-06-16T13:07:05Z</time>
      </trkpt>
      <trkpt lat="38.618971" lon="-0.587420">
        <ele>701.021</ele>
        <time>2019-06-16T13:07:07Z</time>
      </trkpt>
      <trkpt lat="38.618995" lon="-0.587476">
        <ele>701.083</ele>
        <time>2019-06-16T13:07:08Z</time>
      </trkpt>
      <trkpt lat="38.619015" lon="-0.587528">
        <ele>701.050</ele>
        <time>2019-06-16T13:07:09Z</time>
      </trkpt>
      <trkpt lat="38.619058" lon="-0.587618">
        <ele>700.739</ele>
        <time>2019-06-16T13:07:11Z</time>
      </trkpt>
      <trkpt lat="38.619092" lon="-0.587706">
        <ele>700.564</ele>
        <time>2019-06-16T13:07:13Z</time>
      </trkpt>
      <trkpt lat="38.619122" lon="-0.587805">
        <ele>700.049</ele>
        <time>2019-06-16T13:07:15Z</time>
      </trkpt>
      <trkpt lat="38.619156" lon="-0.587909">
        <ele>699.102</ele>
        <time>2019-06-16T13:07:17Z</time>
      </trkpt>
      <trkpt lat="38.619196" lon="-0.588007">
        <ele>698.222</ele>
        <time>2019-06-16T13:07:19Z</time>
      </trkpt>
      <trkpt lat="38.619234" lon="-0.588106">
        <ele>697.708</ele>
        <time>2019-06-16T13:07:21Z</time>
      </trkpt>
      <trkpt lat="38.619272" lon="-0.588178">
        <ele>697.587</ele>
        <time>2019-06-16T13:07:22Z</time>
      </trkpt>
      <trkpt lat="38.619295" lon="-0.588248">
        <ele>697.521</ele>
        <time>2019-06-16T13:07:23Z</time>
      </trkpt>
      <trkpt lat="38.619324" lon="-0.588320">
        <ele>697.690</ele>
        <time>2019-06-16T13:07:24Z</time>
      </trkpt>
      <trkpt lat="38.619333" lon="-0.588395">
        <ele>697.933</ele>
        <time>2019-06-16T13:07:25Z</time>
      </trkpt>
      <trkpt lat="38.619348" lon="-0.588468">
        <ele>698.315</ele>
        <time>2019-06-16T13:07:26Z</time>
      </trkpt>
      <trkpt lat="38.619365" lon="-0.588551">
        <ele>698.822</ele>
        <time>2019-06-16T13:07:27Z</time>
      </trkpt>
      <trkpt lat="38.619395" lon="-0.588617">
        <ele>699.591</ele>
        <time>2019-06-16T13:07:28Z</time>
      </trkpt>
      <trkpt lat="38.619406" lon="-0.588677">
        <ele>699.786</ele>
        <time>2019-06-16T13:07:29Z</time>
      </trkpt>
      <trkpt lat="38.619414" lon="-0.588744">
        <ele>699.862</ele>
        <time>2019-06-16T13:07:30Z</time>
      </trkpt>
      <trkpt lat="38.619450" lon="-0.588786">
        <ele>700.083</ele>
        <time>2019-06-16T13:07:31Z</time>
      </trkpt>
      <trkpt lat="38.619481" lon="-0.588855">
        <ele>700.111</ele>
        <time>2019-06-16T13:07:32Z</time>
      </trkpt>
      <trkpt lat="38.619507" lon="-0.588928">
        <ele>700.308</ele>
        <time>2019-06-16T13:07:33Z</time>
      </trkpt>
      <trkpt lat="38.619537" lon="-0.588987">
        <ele>700.529</ele>
        <time>2019-06-16T13:07:34Z</time>
      </trkpt>
      <trkpt lat="38.619555" lon="-0.589052">
        <ele>700.523</ele>
        <time>2019-06-16T13:07:35Z</time>
      </trkpt>
      <trkpt lat="38.619572" lon="-0.589108">
        <ele>700.542</ele>
        <time>2019-06-16T13:07:36Z</time>
      </trkpt>
      <trkpt lat="38.619608" lon="-0.589171">
        <ele>700.485</ele>
        <time>2019-06-16T13:07:37Z</time>
      </trkpt>
      <trkpt lat="38.619623" lon="-0.589242">
        <ele>700.357</ele>
        <time>2019-06-16T13:07:38Z</time>
      </trkpt>
      <trkpt lat="38.619668" lon="-0.589335">
        <ele>700.154</ele>
        <time>2019-06-16T13:07:40Z</time>
      </trkpt>
      <trkpt lat="38.619705" lon="-0.589428">
        <ele>700.043</ele>
        <time>2019-06-16T13:07:42Z</time>
      </trkpt>
      <trkpt lat="38.619727" lon="-0.589484">
        <ele>699.878</ele>
        <time>2019-06-16T13:07:43Z</time>
      </trkpt>
      <trkpt lat="38.619725" lon="-0.589576">
        <ele>699.518</ele>
        <time>2019-06-16T13:07:45Z</time>
      </trkpt>
      <trkpt lat="38.619709" lon="-0.589652">
        <ele>699.398</ele>
        <time>2019-06-16T13:07:46Z</time>
      </trkpt>
      <trkpt lat="38.619696" lon="-0.589727">
        <ele>699.117</ele>
        <time>2019-06-16T13:07:47Z</time>
      </trkpt>
      <trkpt lat="38.619655" lon="-0.589783">
        <ele>699.208</ele>
        <time>2019-06-16T13:07:48Z</time>
      </trkpt>
      <trkpt lat="38.619576" lon="-0.589822">
        <ele>699.334</ele>
        <time>2019-06-16T13:07:49Z</time>
      </trkpt>
      <trkpt lat="38.619525" lon="-0.589852">
        <ele>699.448</ele>
        <time>2019-06-16T13:07:50Z</time>
      </trkpt>
      <trkpt lat="38.619465" lon="-0.589903">
        <ele>699.327</ele>
        <time>2019-06-16T13:07:51Z</time>
      </trkpt>
      <trkpt lat="38.619420" lon="-0.589954">
        <ele>699.220</ele>
        <time>2019-06-16T13:07:52Z</time>
      </trkpt>
      <trkpt lat="38.619390" lon="-0.590032">
        <ele>698.972</ele>
        <time>2019-06-16T13:07:53Z</time>
      </trkpt>
      <trkpt lat="38.619358" lon="-0.590101">
        <ele>698.659</ele>
        <time>2019-06-16T13:07:54Z</time>
      </trkpt>
      <trkpt lat="38.619348" lon="-0.590170">
        <ele>698.488</ele>
        <time>2019-06-16T13:07:55Z</time>
      </trkpt>
      <trkpt lat="38.619324" lon="-0.590223">
        <ele>698.283</ele>
        <time>2019-06-16T13:07:56Z</time>
      </trkpt>
      <trkpt lat="38.619312" lon="-0.590304">
        <ele>698.068</ele>
        <time>2019-06-16T13:07:57Z</time>
      </trkpt>
      <trkpt lat="38.619291" lon="-0.590386">
        <ele>698.242</ele>
        <time>2019-06-16T13:07:58Z</time>
      </trkpt>
      <trkpt lat="38.619260" lon="-0.590453">
        <ele>698.226</ele>
        <time>2019-06-16T13:07:59Z</time>
      </trkpt>
      <trkpt lat="38.619247" lon="-0.590528">
        <ele>698.308</ele>
        <time>2019-06-16T13:08:00Z</time>
      </trkpt>
      <trkpt lat="38.619216" lon="-0.590600">
        <ele>698.289</ele>
        <time>2019-06-16T13:08:01Z</time>
      </trkpt>
      <trkpt lat="38.619187" lon="-0.590680">
        <ele>698.113</ele>
        <time>2019-06-16T13:08:02Z</time>
      </trkpt>
      <trkpt lat="38.619154" lon="-0.590759">
        <ele>697.912</ele>
        <time>2019-06-16T13:08:03Z</time>
      </trkpt>
      <trkpt lat="38.619130" lon="-0.590830">
        <ele>697.725</ele>
        <time>2019-06-16T13:08:04Z</time>
      </trkpt>
      <trkpt lat="38.619104" lon="-0.590908">
        <ele>697.287</ele>
        <time>2019-06-16T13:08:05Z</time>
      </trkpt>
      <trkpt lat="38.619083" lon="-0.590993">
        <ele>696.654</ele>
        <time>2019-06-16T13:08:06Z</time>
      </trkpt>
      <trkpt lat="38.619060" lon="-0.591072">
        <ele>696.093</ele>
        <time>2019-06-16T13:08:07Z</time>
      </trkpt>
      <trkpt lat="38.619043" lon="-0.591150">
        <ele>695.638</ele>
        <time>2019-06-16T13:08:08Z</time>
      </trkpt>
      <trkpt lat="38.619020" lon="-0.591217">
        <ele>695.417</ele>
        <time>2019-06-16T13:08:09Z</time>
      </trkpt>
      <trkpt lat="38.618991" lon="-0.591292">
        <ele>695.387</ele>
        <time>2019-06-16T13:08:10Z</time>
      </trkpt>
      <trkpt lat="38.618961" lon="-0.591359">
        <ele>695.215</ele>
        <time>2019-06-16T13:08:11Z</time>
      </trkpt>
      <trkpt lat="38.618944" lon="-0.591426">
        <ele>695.408</ele>
        <time>2019-06-16T13:08:12Z</time>
      </trkpt>
      <trkpt lat="38.618916" lon="-0.591487">
        <ele>695.864</ele>
        <time>2019-06-16T13:08:13Z</time>
      </trkpt>
      <trkpt lat="38.618881" lon="-0.591551">
        <ele>696.018</ele>
        <time>2019-06-16T13:08:14Z</time>
      </trkpt>
      <trkpt lat="38.618866" lon="-0.591627">
        <ele>696.397</ele>
        <time>2019-06-16T13:08:15Z</time>
      </trkpt>
      <trkpt lat="38.618834" lon="-0.591757">
        <ele>696.730</ele>
        <time>2019-06-16T13:08:17Z</time>
      </trkpt>
      <trkpt lat="38.618810" lon="-0.591832">
        <ele>696.832</ele>
        <time>2019-06-16T13:08:18Z</time>
      </trkpt>
      <trkpt lat="38.618789" lon="-0.591901">
        <ele>696.959</ele>
        <time>2019-06-16T13:08:19Z</time>
      </trkpt>
      <trkpt lat="38.618753" lon="-0.591964">
        <ele>696.788</ele>
        <time>2019-06-16T13:08:20Z</time>
      </trkpt>
      <trkpt lat="38.618728" lon="-0.592032">
        <ele>696.683</ele>
        <time>2019-06-16T13:08:21Z</time>
      </trkpt>
      <trkpt lat="38.618709" lon="-0.592101">
        <ele>696.596</ele>
        <time>2019-06-16T13:08:22Z</time>
      </trkpt>
      <trkpt lat="38.618682" lon="-0.592166">
        <ele>696.331</ele>
        <time>2019-06-16T13:08:23Z</time>
      </trkpt>
      <trkpt lat="38.618662" lon="-0.592237">
        <ele>696.124</ele>
        <time>2019-06-16T13:08:24Z</time>
      </trkpt>
      <trkpt lat="38.618650" lon="-0.592309">
        <ele>696.108</ele>
        <time>2019-06-16T13:08:25Z</time>
      </trkpt>
      <trkpt lat="38.618625" lon="-0.592386">
        <ele>695.922</ele>
        <time>2019-06-16T13:08:26Z</time>
      </trkpt>
      <trkpt lat="38.618605" lon="-0.592466">
        <ele>695.836</ele>
        <time>2019-06-16T13:08:27Z</time>
      </trkpt>
      <trkpt lat="38.618593" lon="-0.592549">
        <ele>695.895</ele>
        <time>2019-06-16T13:08:28Z</time>
      </trkpt>
      <trkpt lat="38.618565" lon="-0.592615">
        <ele>695.518</ele>
        <time>2019-06-16T13:08:29Z</time>
      </trkpt>
      <trkpt lat="38.618527" lon="-0.592670">
        <ele>695.120</ele>
        <time>2019-06-16T13:08:30Z</time>
      </trkpt>
      <trkpt lat="38.618513" lon="-0.592734">
        <ele>694.967</ele>
        <time>2019-06-16T13:08:31Z</time>
      </trkpt>
      <trkpt lat="38.618481" lon="-0.592804">
        <ele>694.656</ele>
        <time>2019-06-16T13:08:32Z</time>
      </trkpt>
      <trkpt lat="38.618467" lon="-0.592878">
        <ele>694.431</ele>
        <time>2019-06-16T13:08:33Z</time>
      </trkpt>
      <trkpt lat="38.618444" lon="-0.592939">
        <ele>694.278</ele>
        <time>2019-06-16T13:08:34Z</time>
      </trkpt>
      <trkpt lat="38.618433" lon="-0.593017">
        <ele>694.133</ele>
        <time>2019-06-16T13:08:35Z</time>
      </trkpt>
      <trkpt lat="38.618422" lon="-0.593095">
        <ele>693.926</ele>
        <time>2019-06-16T13:08:36Z</time>
      </trkpt>
      <trkpt lat="38.618393" lon="-0.593169">
        <ele>693.608</ele>
        <time>2019-06-16T13:08:37Z</time>
      </trkpt>
      <trkpt lat="38.618375" lon="-0.593252">
        <ele>693.340</ele>
        <time>2019-06-16T13:08:38Z</time>
      </trkpt>
      <trkpt lat="38.618351" lon="-0.593331">
        <ele>693.114</ele>
        <time>2019-06-16T13:08:39Z</time>
      </trkpt>
      <trkpt lat="38.618335" lon="-0.593408">
        <ele>692.743</ele>
        <time>2019-06-16T13:08:40Z</time>
      </trkpt>
      <trkpt lat="38.618312" lon="-0.593470">
        <ele>692.396</ele>
        <time>2019-06-16T13:08:41Z</time>
      </trkpt>
      <trkpt lat="38.618288" lon="-0.593540">
        <ele>691.948</ele>
        <time>2019-06-16T13:08:42Z</time>
      </trkpt>
      <trkpt lat="38.618265" lon="-0.593619">
        <ele>691.595</ele>
        <time>2019-06-16T13:08:43Z</time>
      </trkpt>
      <trkpt lat="38.618241" lon="-0.593696">
        <ele>691.154</ele>
        <time>2019-06-16T13:08:44Z</time>
      </trkpt>
      <trkpt lat="38.618207" lon="-0.593772">
        <ele>690.829</ele>
        <time>2019-06-16T13:08:45Z</time>
      </trkpt>
      <trkpt lat="38.618189" lon="-0.593845">
        <ele>690.693</ele>
        <time>2019-06-16T13:08:46Z</time>
      </trkpt>
      <trkpt lat="38.618153" lon="-0.593919">
        <ele>690.465</ele>
        <time>2019-06-16T13:08:47Z</time>
      </trkpt>
      <trkpt lat="38.618128" lon="-0.593987">
        <ele>690.321</ele>
        <time>2019-06-16T13:08:48Z</time>
      </trkpt>
      <trkpt lat="38.618110" lon="-0.594060">
        <ele>690.208</ele>
        <time>2019-06-16T13:08:49Z</time>
      </trkpt>
      <trkpt lat="38.618096" lon="-0.594130">
        <ele>690.132</ele>
        <time>2019-06-16T13:08:50Z</time>
      </trkpt>
      <trkpt lat="38.618073" lon="-0.594195">
        <ele>690.296</ele>
        <time>2019-06-16T13:08:51Z</time>
      </trkpt>
      <trkpt lat="38.618070" lon="-0.594299">
        <ele>690.575</ele>
        <time>2019-06-16T13:08:53Z</time>
      </trkpt>
      <trkpt lat="38.618051" lon="-0.594354">
        <ele>690.628</ele>
        <time>2019-06-16T13:08:55Z</time>
      </trkpt>
      <trkpt lat="38.618032" lon="-0.594422">
        <ele>690.830</ele>
        <time>2019-06-16T13:08:56Z</time>
      </trkpt>
      <trkpt lat="38.618008" lon="-0.594489">
        <ele>690.857</ele>
        <time>2019-06-16T13:08:58Z</time>
      </trkpt>
      <trkpt lat="38.617970" lon="-0.594557">
        <ele>690.746</ele>
        <time>2019-06-16T13:09:01Z</time>
      </trkpt>
      <trkpt lat="38.617928" lon="-0.594622">
        <ele>690.411</ele>
        <time>2019-06-16T13:09:04Z</time>
      </trkpt>
      <trkpt lat="38.617883" lon="-0.594752">
        <ele>690.158</ele>
        <time>2019-06-16T13:09:06Z</time>
      </trkpt>
      <trkpt lat="38.617846" lon="-0.594841">
        <ele>689.752</ele>
        <time>2019-06-16T13:09:08Z</time>
      </trkpt>
      <trkpt lat="38.617815" lon="-0.594929">
        <ele>689.417</ele>
        <time>2019-06-16T13:09:10Z</time>
      </trkpt>
      <trkpt lat="38.617779" lon="-0.594965">
        <ele>689.008</ele>
        <time>2019-06-16T13:09:11Z</time>
      </trkpt>
      <trkpt lat="38.617753" lon="-0.595020">
        <ele>688.848</ele>
        <time>2019-06-16T13:09:12Z</time>
      </trkpt>
      <trkpt lat="38.617742" lon="-0.595105">
        <ele>688.492</ele>
        <time>2019-06-16T13:09:14Z</time>
      </trkpt>
      <trkpt lat="38.617726" lon="-0.595216">
        <ele>687.961</ele>
        <time>2019-06-16T13:09:16Z</time>
      </trkpt>
      <trkpt lat="38.617702" lon="-0.595326">
        <ele>687.564</ele>
        <time>2019-06-16T13:09:18Z</time>
      </trkpt>
      <trkpt lat="38.617665" lon="-0.595431">
        <ele>687.216</ele>
        <time>2019-06-16T13:09:20Z</time>
      </trkpt>
      <trkpt lat="38.617634" lon="-0.595537">
        <ele>687.043</ele>
        <time>2019-06-16T13:09:22Z</time>
      </trkpt>
      <trkpt lat="38.617601" lon="-0.595644">
        <ele>686.992</ele>
        <time>2019-06-16T13:09:24Z</time>
      </trkpt>
      <trkpt lat="38.617580" lon="-0.595696">
        <ele>686.967</ele>
        <time>2019-06-16T13:09:25Z</time>
      </trkpt>
      <trkpt lat="38.617541" lon="-0.595796">
        <ele>687.067</ele>
        <time>2019-06-16T13:09:27Z</time>
      </trkpt>
      <trkpt lat="38.617507" lon="-0.595895">
        <ele>687.281</ele>
        <time>2019-06-16T13:09:29Z</time>
      </trkpt>
      <trkpt lat="38.617472" lon="-0.595989">
        <ele>687.419</ele>
        <time>2019-06-16T13:09:31Z</time>
      </trkpt>
      <trkpt lat="38.617437" lon="-0.596088">
        <ele>687.508</ele>
        <time>2019-06-16T13:09:33Z</time>
      </trkpt>
      <trkpt lat="38.617402" lon="-0.596186">
        <ele>687.449</ele>
        <time>2019-06-16T13:09:35Z</time>
      </trkpt>
      <trkpt lat="38.617367" lon="-0.596281">
        <ele>687.313</ele>
        <time>2019-06-16T13:09:37Z</time>
      </trkpt>
      <trkpt lat="38.617333" lon="-0.596378">
        <ele>687.442</ele>
        <time>2019-06-16T13:09:39Z</time>
      </trkpt>
      <trkpt lat="38.617310" lon="-0.596478">
        <ele>687.655</ele>
        <time>2019-06-16T13:09:41Z</time>
      </trkpt>
      <trkpt lat="38.617287" lon="-0.596579">
        <ele>687.937</ele>
        <time>2019-06-16T13:09:43Z</time>
      </trkpt>
      <trkpt lat="38.617251" lon="-0.596683">
        <ele>688.144</ele>
        <time>2019-06-16T13:09:45Z</time>
      </trkpt>
      <trkpt lat="38.617216" lon="-0.596787">
        <ele>688.083</ele>
        <time>2019-06-16T13:09:47Z</time>
      </trkpt>
      <trkpt lat="38.617185" lon="-0.596891">
        <ele>688.098</ele>
        <time>2019-06-16T13:09:49Z</time>
      </trkpt>
      <trkpt lat="38.617150" lon="-0.596987">
        <ele>687.895</ele>
        <time>2019-06-16T13:09:51Z</time>
      </trkpt>
      <trkpt lat="38.617115" lon="-0.597079">
        <ele>687.549</ele>
        <time>2019-06-16T13:09:53Z</time>
      </trkpt>
      <trkpt lat="38.617083" lon="-0.597175">
        <ele>687.223</ele>
        <time>2019-06-16T13:09:55Z</time>
      </trkpt>
      <trkpt lat="38.617053" lon="-0.597268">
        <ele>686.908</ele>
        <time>2019-06-16T13:09:57Z</time>
      </trkpt>
      <trkpt lat="38.617027" lon="-0.597362">
        <ele>686.642</ele>
        <time>2019-06-16T13:09:59Z</time>
      </trkpt>
      <trkpt lat="38.617001" lon="-0.597458">
        <ele>686.366</ele>
        <time>2019-06-16T13:10:01Z</time>
      </trkpt>
      <trkpt lat="38.616970" lon="-0.597558">
        <ele>686.115</ele>
        <time>2019-06-16T13:10:03Z</time>
      </trkpt>
      <trkpt lat="38.616937" lon="-0.597656">
        <ele>686.098</ele>
        <time>2019-06-16T13:10:05Z</time>
      </trkpt>
      <trkpt lat="38.616902" lon="-0.597756">
        <ele>685.880</ele>
        <time>2019-06-16T13:10:07Z</time>
      </trkpt>
      <trkpt lat="38.616868" lon="-0.597853">
        <ele>686.077</ele>
        <time>2019-06-16T13:10:09Z</time>
      </trkpt>
      <trkpt lat="38.616836" lon="-0.597955">
        <ele>686.236</ele>
        <time>2019-06-16T13:10:11Z</time>
      </trkpt>
      <trkpt lat="38.616807" lon="-0.598059">
        <ele>686.511</ele>
        <time>2019-06-16T13:10:13Z</time>
      </trkpt>
      <trkpt lat="38.616781" lon="-0.598165">
        <ele>686.698</ele>
        <time>2019-06-16T13:10:15Z</time>
      </trkpt>
      <trkpt lat="38.616757" lon="-0.598269">
        <ele>686.815</ele>
        <time>2019-06-16T13:10:17Z</time>
      </trkpt>
      <trkpt lat="38.616724" lon="-0.598362">
        <ele>687.026</ele>
        <time>2019-06-16T13:10:19Z</time>
      </trkpt>
      <trkpt lat="38.616690" lon="-0.598453">
        <ele>687.008</ele>
        <time>2019-06-16T13:10:21Z</time>
      </trkpt>
      <trkpt lat="38.616659" lon="-0.598549">
        <ele>687.092</ele>
        <time>2019-06-16T13:10:23Z</time>
      </trkpt>
      <trkpt lat="38.616629" lon="-0.598644">
        <ele>687.256</ele>
        <time>2019-06-16T13:10:25Z</time>
      </trkpt>
      <trkpt lat="38.616595" lon="-0.598739">
        <ele>687.675</ele>
        <time>2019-06-16T13:10:27Z</time>
      </trkpt>
      <trkpt lat="38.616560" lon="-0.598833">
        <ele>687.938</ele>
        <time>2019-06-16T13:10:29Z</time>
      </trkpt>
      <trkpt lat="38.616521" lon="-0.598931">
        <ele>688.010</ele>
        <time>2019-06-16T13:10:31Z</time>
      </trkpt>
      <trkpt lat="38.616492" lon="-0.599022">
        <ele>688.097</ele>
        <time>2019-06-16T13:10:33Z</time>
      </trkpt>
      <trkpt lat="38.616464" lon="-0.599107">
        <ele>688.076</ele>
        <time>2019-06-16T13:10:35Z</time>
      </trkpt>
      <trkpt lat="38.616433" lon="-0.599196">
        <ele>688.031</ele>
        <time>2019-06-16T13:10:37Z</time>
      </trkpt>
      <trkpt lat="38.616404" lon="-0.599287">
        <ele>688.063</ele>
        <time>2019-06-16T13:10:39Z</time>
      </trkpt>
      <trkpt lat="38.616370" lon="-0.599376">
        <ele>687.944</ele>
        <time>2019-06-16T13:10:41Z</time>
      </trkpt>
      <trkpt lat="38.616345" lon="-0.599471">
        <ele>687.918</ele>
        <time>2019-06-16T13:10:43Z</time>
      </trkpt>
      <trkpt lat="38.616328" lon="-0.599567">
        <ele>687.908</ele>
        <time>2019-06-16T13:10:45Z</time>
      </trkpt>
      <trkpt lat="38.616312" lon="-0.599623">
        <ele>687.959</ele>
        <time>2019-06-16T13:10:47Z</time>
      </trkpt>
      <trkpt lat="38.616293" lon="-0.599689">
        <ele>688.043</ele>
        <time>2019-06-16T13:10:49Z</time>
      </trkpt>
      <trkpt lat="38.616273" lon="-0.599755">
        <ele>688.082</ele>
        <time>2019-06-16T13:10:51Z</time>
      </trkpt>
      <trkpt lat="38.616248" lon="-0.599836">
        <ele>688.255</ele>
        <time>2019-06-16T13:10:53Z</time>
      </trkpt>
      <trkpt lat="38.616226" lon="-0.599904">
        <ele>688.427</ele>
        <time>2019-06-16T13:10:55Z</time>
      </trkpt>
      <trkpt lat="38.616201" lon="-0.599973">
        <ele>688.614</ele>
        <time>2019-06-16T13:10:57Z</time>
      </trkpt>
      <trkpt lat="38.616176" lon="-0.600045">
        <ele>689.143</ele>
        <time>2019-06-16T13:10:59Z</time>
      </trkpt>
      <trkpt lat="38.616150" lon="-0.600116">
        <ele>689.758</ele>
        <time>2019-06-16T13:11:01Z</time>
      </trkpt>
      <trkpt lat="38.616117" lon="-0.600186">
        <ele>690.354</ele>
        <time>2019-06-16T13:11:03Z</time>
      </trkpt>
      <trkpt lat="38.616088" lon="-0.600254">
        <ele>690.856</ele>
        <time>2019-06-16T13:11:05Z</time>
      </trkpt>
      <trkpt lat="38.616066" lon="-0.600325">
        <ele>691.211</ele>
        <time>2019-06-16T13:11:07Z</time>
      </trkpt>
      <trkpt lat="38.616047" lon="-0.600391">
        <ele>691.408</ele>
        <time>2019-06-16T13:11:09Z</time>
      </trkpt>
      <trkpt lat="38.616023" lon="-0.600458">
        <ele>691.678</ele>
        <time>2019-06-16T13:11:11Z</time>
      </trkpt>
      <trkpt lat="38.615992" lon="-0.600526">
        <ele>691.982</ele>
        <time>2019-06-16T13:11:13Z</time>
      </trkpt>
      <trkpt lat="38.615960" lon="-0.600592">
        <ele>691.931</ele>
        <time>2019-06-16T13:11:15Z</time>
      </trkpt>
      <trkpt lat="38.615933" lon="-0.600663">
        <ele>691.894</ele>
        <time>2019-06-16T13:11:17Z</time>
      </trkpt>
      <trkpt lat="38.615897" lon="-0.600765">
        <ele>691.476</ele>
        <time>2019-06-16T13:11:19Z</time>
      </trkpt>
      <trkpt lat="38.615879" lon="-0.600829">
        <ele>691.283</ele>
        <time>2019-06-16T13:11:21Z</time>
      </trkpt>
      <trkpt lat="38.615859" lon="-0.600901">
        <ele>691.172</ele>
        <time>2019-06-16T13:11:24Z</time>
      </trkpt>
      <trkpt lat="38.615827" lon="-0.600959">
        <ele>691.077</ele>
        <time>2019-06-16T13:12:09Z</time>
      </trkpt>
      <trkpt lat="38.615811" lon="-0.601016">
        <ele>691.192</ele>
        <time>2019-06-16T13:12:11Z</time>
      </trkpt>
      <trkpt lat="38.615778" lon="-0.601078">
        <ele>691.473</ele>
        <time>2019-06-16T13:12:13Z</time>
      </trkpt>
      <trkpt lat="38.615729" lon="-0.601138">
        <ele>691.720</ele>
        <time>2019-06-16T13:12:14Z</time>
      </trkpt>
      <trkpt lat="38.615671" lon="-0.601195">
        <ele>692.008</ele>
        <time>2019-06-16T13:12:16Z</time>
      </trkpt>
      <trkpt lat="38.615623" lon="-0.601237">
        <ele>692.432</ele>
        <time>2019-06-16T13:12:18Z</time>
      </trkpt>
      <trkpt lat="38.615574" lon="-0.601271">
        <ele>692.836</ele>
        <time>2019-06-16T13:12:19Z</time>
      </trkpt>
      <trkpt lat="38.615529" lon="-0.601294">
        <ele>693.315</ele>
        <time>2019-06-16T13:12:21Z</time>
      </trkpt>
      <trkpt lat="38.615481" lon="-0.601317">
        <ele>693.758</ele>
        <time>2019-06-16T13:12:23Z</time>
      </trkpt>
      <trkpt lat="38.615363" lon="-0.601363">
        <ele>695.090</ele>
        <time>2019-06-16T13:12:25Z</time>
      </trkpt>
      <trkpt lat="38.615287" lon="-0.601365">
        <ele>695.877</ele>
        <time>2019-06-16T13:12:27Z</time>
      </trkpt>
      <trkpt lat="38.615208" lon="-0.601355">
        <ele>696.416</ele>
        <time>2019-06-16T13:12:29Z</time>
      </trkpt>
      <trkpt lat="38.615150" lon="-0.601338">
        <ele>696.771</ele>
        <time>2019-06-16T13:12:32Z</time>
      </trkpt>
      <trkpt lat="38.615195" lon="-0.601315">
        <ele>696.352</ele>
        <time>2019-06-16T13:12:55Z</time>
      </trkpt>
      <trkpt lat="38.615273" lon="-0.601316">
        <ele>695.853</ele>
        <time>2019-06-16T13:12:56Z</time>
      </trkpt>
      <trkpt lat="38.615318" lon="-0.601317">
        <ele>695.308</ele>
        <time>2019-06-16T13:12:57Z</time>
      </trkpt>
      <trkpt lat="38.615404" lon="-0.601299">
        <ele>694.508</ele>
        <time>2019-06-16T13:12:59Z</time>
      </trkpt>
      <trkpt lat="38.615448" lon="-0.601281">
        <ele>694.018</ele>
        <time>2019-06-16T13:13:00Z</time>
      </trkpt>
      <trkpt lat="38.615493" lon="-0.601257">
        <ele>693.622</ele>
        <time>2019-06-16T13:13:01Z</time>
      </trkpt>
      <trkpt lat="38.615534" lon="-0.601233">
        <ele>693.291</ele>
        <time>2019-06-16T13:13:02Z</time>
      </trkpt>
      <trkpt lat="38.615675" lon="-0.601200">
        <ele>692.074</ele>
        <time>2019-06-16T13:13:04Z</time>
      </trkpt>
      <trkpt lat="38.615718" lon="-0.601253">
        <ele>691.536</ele>
        <time>2019-06-16T13:13:08Z</time>
      </trkpt>
      <trkpt lat="38.615755" lon="-0.601329">
        <ele>691.043</ele>
        <time>2019-06-16T13:13:11Z</time>
      </trkpt>
      <trkpt lat="38.615771" lon="-0.601403">
        <ele>690.742</ele>
        <time>2019-06-16T13:13:14Z</time>
      </trkpt>
      <trkpt lat="38.615773" lon="-0.601486">
        <ele>690.717</ele>
        <time>2019-06-16T13:13:17Z</time>
      </trkpt>
      <trkpt lat="38.615717" lon="-0.601554">
        <ele>691.351</ele>
        <time>2019-06-16T13:14:08Z</time>
      </trkpt>
      <trkpt lat="38.615698" lon="-0.601607">
        <ele>691.501</ele>
        <time>2019-06-16T13:14:11Z</time>
      </trkpt>
      <trkpt lat="38.615683" lon="-0.601677">
        <ele>691.711</ele>
        <time>2019-06-16T13:14:14Z</time>
      </trkpt>
      <trkpt lat="38.615674" lon="-0.601755">
        <ele>692.108</ele>
        <time>2019-06-16T13:14:17Z</time>
      </trkpt>
      <trkpt lat="38.615665" lon="-0.601814">
        <ele>692.418</ele>
        <time>2019-06-16T13:14:19Z</time>
      </trkpt>
      <trkpt lat="38.615656" lon="-0.601871">
        <ele>692.762</ele>
        <time>2019-06-16T13:14:21Z</time>
      </trkpt>
      <trkpt lat="38.615638" lon="-0.601943">
        <ele>693.011</ele>
        <time>2019-06-16T13:14:23Z</time>
      </trkpt>
      <trkpt lat="38.615612" lon="-0.602034">
        <ele>693.584</ele>
        <time>2019-06-16T13:14:25Z</time>
      </trkpt>
      <trkpt lat="38.615575" lon="-0.602137">
        <ele>693.816</ele>
        <time>2019-06-16T13:14:27Z</time>
      </trkpt>
      <trkpt lat="38.615550" lon="-0.602192">
        <ele>693.933</ele>
        <time>2019-06-16T13:14:28Z</time>
      </trkpt>
      <trkpt lat="38.615523" lon="-0.602246">
        <ele>694.042</ele>
        <time>2019-06-16T13:14:29Z</time>
      </trkpt>
      <trkpt lat="38.615495" lon="-0.602311">
        <ele>693.957</ele>
        <time>2019-06-16T13:14:30Z</time>
      </trkpt>
      <trkpt lat="38.615472" lon="-0.602373">
        <ele>693.814</ele>
        <time>2019-06-16T13:14:31Z</time>
      </trkpt>
      <trkpt lat="38.615391" lon="-0.602583">
        <ele>693.554</ele>
        <time>2019-06-16T13:14:32Z</time>
      </trkpt>
      <trkpt lat="38.615374" lon="-0.602667">
        <ele>693.509</ele>
        <time>2019-06-16T13:14:33Z</time>
      </trkpt>
      <trkpt lat="38.615302" lon="-0.602881">
        <ele>693.908</ele>
        <time>2019-06-16T13:14:34Z</time>
      </trkpt>
      <trkpt lat="38.615270" lon="-0.602945">
        <ele>694.064</ele>
        <time>2019-06-16T13:14:35Z</time>
      </trkpt>
      <trkpt lat="38.615229" lon="-0.603017">
        <ele>694.128</ele>
        <time>2019-06-16T13:14:36Z</time>
      </trkpt>
      <trkpt lat="38.615187" lon="-0.603081">
        <ele>694.347</ele>
        <time>2019-06-16T13:14:37Z</time>
      </trkpt>
      <trkpt lat="38.615165" lon="-0.603154">
        <ele>694.440</ele>
        <time>2019-06-16T13:14:38Z</time>
      </trkpt>
      <trkpt lat="38.615143" lon="-0.603234">
        <ele>694.512</ele>
        <time>2019-06-16T13:14:39Z</time>
      </trkpt>
      <trkpt lat="38.615116" lon="-0.603315">
        <ele>694.639</ele>
        <time>2019-06-16T13:14:40Z</time>
      </trkpt>
      <trkpt lat="38.615104" lon="-0.603393">
        <ele>694.658</ele>
        <time>2019-06-16T13:14:41Z</time>
      </trkpt>
      <trkpt lat="38.615089" lon="-0.603462">
        <ele>694.753</ele>
        <time>2019-06-16T13:14:42Z</time>
      </trkpt>
      <trkpt lat="38.615080" lon="-0.603532">
        <ele>694.753</ele>
        <time>2019-06-16T13:14:43Z</time>
      </trkpt>
      <trkpt lat="38.615064" lon="-0.603609">
        <ele>694.804</ele>
        <time>2019-06-16T13:14:44Z</time>
      </trkpt>
      <trkpt lat="38.615047" lon="-0.603679">
        <ele>694.714</ele>
        <time>2019-06-16T13:14:45Z</time>
      </trkpt>
      <trkpt lat="38.615019" lon="-0.603758">
        <ele>694.508</ele>
        <time>2019-06-16T13:14:46Z</time>
      </trkpt>
      <trkpt lat="38.614985" lon="-0.603815">
        <ele>694.218</ele>
        <time>2019-06-16T13:14:47Z</time>
      </trkpt>
      <trkpt lat="38.614963" lon="-0.603885">
        <ele>693.722</ele>
        <time>2019-06-16T13:14:48Z</time>
      </trkpt>
      <trkpt lat="38.614931" lon="-0.603962">
        <ele>693.671</ele>
        <time>2019-06-16T13:14:49Z</time>
      </trkpt>
      <trkpt lat="38.614906" lon="-0.604027">
        <ele>693.554</ele>
        <time>2019-06-16T13:14:50Z</time>
      </trkpt>
      <trkpt lat="38.614893" lon="-0.604086">
        <ele>693.516</ele>
        <time>2019-06-16T13:14:51Z</time>
      </trkpt>
      <trkpt lat="38.614864" lon="-0.604185">
        <ele>693.653</ele>
        <time>2019-06-16T13:14:53Z</time>
      </trkpt>
      <trkpt lat="38.614838" lon="-0.604247">
        <ele>694.052</ele>
        <time>2019-06-16T13:14:54Z</time>
      </trkpt>
      <trkpt lat="38.614829" lon="-0.604312">
        <ele>694.647</ele>
        <time>2019-06-16T13:14:55Z</time>
      </trkpt>
      <trkpt lat="38.614790" lon="-0.604410">
        <ele>695.451</ele>
        <time>2019-06-16T13:14:57Z</time>
      </trkpt>
      <trkpt lat="38.614749" lon="-0.604470">
        <ele>696.001</ele>
        <time>2019-06-16T13:14:58Z</time>
      </trkpt>
      <trkpt lat="38.614720" lon="-0.604517">
        <ele>696.311</ele>
        <time>2019-06-16T13:14:59Z</time>
      </trkpt>
      <trkpt lat="38.614719" lon="-0.604577">
        <ele>696.508</ele>
        <time>2019-06-16T13:15:00Z</time>
      </trkpt>
      <trkpt lat="38.614724" lon="-0.604635">
        <ele>696.788</ele>
        <time>2019-06-16T13:15:01Z</time>
      </trkpt>
      <trkpt lat="38.614713" lon="-0.604701">
        <ele>697.042</ele>
        <time>2019-06-16T13:15:02Z</time>
      </trkpt>
      <trkpt lat="38.614710" lon="-0.604769">
        <ele>696.991</ele>
        <time>2019-06-16T13:15:03Z</time>
      </trkpt>
      <trkpt lat="38.614654" lon="-0.604873">
        <ele>696.644</ele>
        <time>2019-06-16T13:15:05Z</time>
      </trkpt>
      <trkpt lat="38.614640" lon="-0.604931">
        <ele>696.326</ele>
        <time>2019-06-16T13:15:06Z</time>
      </trkpt>
      <trkpt lat="38.614642" lon="-0.604994">
        <ele>696.093</ele>
        <time>2019-06-16T13:15:07Z</time>
      </trkpt>
      <trkpt lat="38.614629" lon="-0.605056">
        <ele>695.852</ele>
        <time>2019-06-16T13:15:08Z</time>
      </trkpt>
      <trkpt lat="38.614597" lon="-0.605172">
        <ele>695.217</ele>
        <time>2019-06-16T13:15:10Z</time>
      </trkpt>
      <trkpt lat="38.614582" lon="-0.605233">
        <ele>694.777</ele>
        <time>2019-06-16T13:15:11Z</time>
      </trkpt>
      <trkpt lat="38.614581" lon="-0.605291">
        <ele>694.461</ele>
        <time>2019-06-16T13:15:12Z</time>
      </trkpt>
      <trkpt lat="38.614546" lon="-0.605411">
        <ele>693.627</ele>
        <time>2019-06-16T13:15:14Z</time>
      </trkpt>
      <trkpt lat="38.614504" lon="-0.605527">
        <ele>692.708</ele>
        <time>2019-06-16T13:15:16Z</time>
      </trkpt>
      <trkpt lat="38.614486" lon="-0.605585">
        <ele>692.340</ele>
        <time>2019-06-16T13:15:17Z</time>
      </trkpt>
      <trkpt lat="38.614451" lon="-0.605642">
        <ele>691.874</ele>
        <time>2019-06-16T13:15:18Z</time>
      </trkpt>
      <trkpt lat="38.614413" lon="-0.605687">
        <ele>691.433</ele>
        <time>2019-06-16T13:15:19Z</time>
      </trkpt>
      <trkpt lat="38.614386" lon="-0.605808">
        <ele>690.936</ele>
        <time>2019-06-16T13:15:21Z</time>
      </trkpt>
      <trkpt lat="38.614359" lon="-0.605870">
        <ele>690.718</ele>
        <time>2019-06-16T13:15:22Z</time>
      </trkpt>
      <trkpt lat="38.614337" lon="-0.605937">
        <ele>690.865</ele>
        <time>2019-06-16T13:15:23Z</time>
      </trkpt>
      <trkpt lat="38.614328" lon="-0.606015">
        <ele>690.914</ele>
        <time>2019-06-16T13:15:24Z</time>
      </trkpt>
      <trkpt lat="38.614296" lon="-0.606068">
        <ele>690.939</ele>
        <time>2019-06-16T13:15:25Z</time>
      </trkpt>
      <trkpt lat="38.614288" lon="-0.606138">
        <ele>690.812</ele>
        <time>2019-06-16T13:15:26Z</time>
      </trkpt>
      <trkpt lat="38.614266" lon="-0.606198">
        <ele>690.432</ele>
        <time>2019-06-16T13:15:27Z</time>
      </trkpt>
      <trkpt lat="38.614264" lon="-0.606265">
        <ele>689.905</ele>
        <time>2019-06-16T13:15:28Z</time>
      </trkpt>
      <trkpt lat="38.614234" lon="-0.606326">
        <ele>689.508</ele>
        <time>2019-06-16T13:15:29Z</time>
      </trkpt>
      <trkpt lat="38.614201" lon="-0.606372">
        <ele>689.194</ele>
        <time>2019-06-16T13:15:30Z</time>
      </trkpt>
      <trkpt lat="38.614192" lon="-0.606435">
        <ele>688.898</ele>
        <time>2019-06-16T13:15:31Z</time>
      </trkpt>
      <trkpt lat="38.614172" lon="-0.606497">
        <ele>688.697</ele>
        <time>2019-06-16T13:15:32Z</time>
      </trkpt>
      <trkpt lat="38.614133" lon="-0.606615">
        <ele>688.340</ele>
        <time>2019-06-16T13:15:34Z</time>
      </trkpt>
      <trkpt lat="38.614125" lon="-0.606680">
        <ele>688.132</ele>
        <time>2019-06-16T13:15:35Z</time>
      </trkpt>
      <trkpt lat="38.614116" lon="-0.606742">
        <ele>688.169</ele>
        <time>2019-06-16T13:15:36Z</time>
      </trkpt>
      <trkpt lat="38.614095" lon="-0.606809">
        <ele>688.118</ele>
        <time>2019-06-16T13:15:37Z</time>
      </trkpt>
      <trkpt lat="38.614057" lon="-0.606865">
        <ele>688.123</ele>
        <time>2019-06-16T13:15:38Z</time>
      </trkpt>
      <trkpt lat="38.614042" lon="-0.606942">
        <ele>688.055</ele>
        <time>2019-06-16T13:15:39Z</time>
      </trkpt>
      <trkpt lat="38.614027" lon="-0.607001">
        <ele>687.807</ele>
        <time>2019-06-16T13:15:40Z</time>
      </trkpt>
      <trkpt lat="38.614009" lon="-0.607082">
        <ele>687.517</ele>
        <time>2019-06-16T13:15:41Z</time>
      </trkpt>
      <trkpt lat="38.613992" lon="-0.607152">
        <ele>687.308</ele>
        <time>2019-06-16T13:15:42Z</time>
      </trkpt>
      <trkpt lat="38.613959" lon="-0.607226">
        <ele>687.028</ele>
        <time>2019-06-16T13:15:43Z</time>
      </trkpt>
      <trkpt lat="38.613931" lon="-0.607293">
        <ele>686.692</ele>
        <time>2019-06-16T13:15:44Z</time>
      </trkpt>
      <trkpt lat="38.613903" lon="-0.607377">
        <ele>685.981</ele>
        <time>2019-06-16T13:15:45Z</time>
      </trkpt>
      <trkpt lat="38.613877" lon="-0.607460">
        <ele>685.294</ele>
        <time>2019-06-16T13:15:46Z</time>
      </trkpt>
      <trkpt lat="38.613838" lon="-0.607539">
        <ele>684.796</ele>
        <time>2019-06-16T13:15:47Z</time>
      </trkpt>
      <trkpt lat="38.613829" lon="-0.607625">
        <ele>684.393</ele>
        <time>2019-06-16T13:15:48Z</time>
      </trkpt>
      <trkpt lat="38.613801" lon="-0.607701">
        <ele>684.022</ele>
        <time>2019-06-16T13:15:49Z</time>
      </trkpt>
      <trkpt lat="38.613781" lon="-0.607773">
        <ele>683.647</ele>
        <time>2019-06-16T13:15:50Z</time>
      </trkpt>
      <trkpt lat="38.613760" lon="-0.607847">
        <ele>683.591</ele>
        <time>2019-06-16T13:15:51Z</time>
      </trkpt>
      <trkpt lat="38.613723" lon="-0.607909">
        <ele>683.481</ele>
        <time>2019-06-16T13:15:52Z</time>
      </trkpt>
      <trkpt lat="38.613696" lon="-0.607976">
        <ele>683.319</ele>
        <time>2019-06-16T13:15:53Z</time>
      </trkpt>
      <trkpt lat="38.613672" lon="-0.608050">
        <ele>683.208</ele>
        <time>2019-06-16T13:15:54Z</time>
      </trkpt>
      <trkpt lat="38.613663" lon="-0.608118">
        <ele>683.232</ele>
        <time>2019-06-16T13:15:55Z</time>
      </trkpt>
      <trkpt lat="38.613633" lon="-0.608195">
        <ele>683.196</ele>
        <time>2019-06-16T13:15:56Z</time>
      </trkpt>
      <trkpt lat="38.613609" lon="-0.608258">
        <ele>683.055</ele>
        <time>2019-06-16T13:15:57Z</time>
      </trkpt>
      <trkpt lat="38.613615" lon="-0.608320">
        <ele>683.068</ele>
        <time>2019-06-16T13:15:58Z</time>
      </trkpt>
      <trkpt lat="38.613583" lon="-0.608370">
        <ele>683.030</ele>
        <time>2019-06-16T13:15:59Z</time>
      </trkpt>
      <trkpt lat="38.613559" lon="-0.608438">
        <ele>682.947</ele>
        <time>2019-06-16T13:16:00Z</time>
      </trkpt>
      <trkpt lat="38.613529" lon="-0.608497">
        <ele>682.916</ele>
        <time>2019-06-16T13:16:01Z</time>
      </trkpt>
      <trkpt lat="38.613502" lon="-0.608549">
        <ele>682.921</ele>
        <time>2019-06-16T13:16:02Z</time>
      </trkpt>
      <trkpt lat="38.613495" lon="-0.608651">
        <ele>682.527</ele>
        <time>2019-06-16T13:16:04Z</time>
      </trkpt>
      <trkpt lat="38.613471" lon="-0.608744">
        <ele>682.168</ele>
        <time>2019-06-16T13:16:06Z</time>
      </trkpt>
      <trkpt lat="38.613454" lon="-0.608807">
        <ele>681.714</ele>
        <time>2019-06-16T13:16:09Z</time>
      </trkpt>
      <trkpt lat="38.613440" lon="-0.608866">
        <ele>681.408</ele>
        <time>2019-06-16T13:16:11Z</time>
      </trkpt>
      <trkpt lat="38.613400" lon="-0.608920">
        <ele>681.475</ele>
        <time>2019-06-16T13:16:13Z</time>
      </trkpt>
      <trkpt lat="38.613375" lon="-0.608979">
        <ele>681.479</ele>
        <time>2019-06-16T13:16:15Z</time>
      </trkpt>
      <trkpt lat="38.613348" lon="-0.609100">
        <ele>681.128</ele>
        <time>2019-06-16T13:16:16Z</time>
      </trkpt>
      <trkpt lat="38.613308" lon="-0.609211">
        <ele>680.821</ele>
        <time>2019-06-16T13:16:18Z</time>
      </trkpt>
      <trkpt lat="38.613293" lon="-0.609273">
        <ele>680.613</ele>
        <time>2019-06-16T13:16:19Z</time>
      </trkpt>
      <trkpt lat="38.613279" lon="-0.609348">
        <ele>680.260</ele>
        <time>2019-06-16T13:16:20Z</time>
      </trkpt>
      <trkpt lat="38.613268" lon="-0.609419">
        <ele>679.979</ele>
        <time>2019-06-16T13:16:21Z</time>
      </trkpt>
      <trkpt lat="38.613250" lon="-0.609488">
        <ele>679.464</ele>
        <time>2019-06-16T13:16:22Z</time>
      </trkpt>
      <trkpt lat="38.613221" lon="-0.609555">
        <ele>679.084</ele>
        <time>2019-06-16T13:16:23Z</time>
      </trkpt>
      <trkpt lat="38.613193" lon="-0.609611">
        <ele>678.607</ele>
        <time>2019-06-16T13:16:24Z</time>
      </trkpt>
      <trkpt lat="38.613171" lon="-0.609664">
        <ele>678.317</ele>
        <time>2019-06-16T13:16:25Z</time>
      </trkpt>
      <trkpt lat="38.613146" lon="-0.609724">
        <ele>678.008</ele>
        <time>2019-06-16T13:16:26Z</time>
      </trkpt>
      <trkpt lat="38.613108" lon="-0.609835">
        <ele>676.821</ele>
        <time>2019-06-16T13:16:28Z</time>
      </trkpt>
      <trkpt lat="38.613089" lon="-0.609912">
        <ele>676.075</ele>
        <time>2019-06-16T13:16:29Z</time>
      </trkpt>
      <trkpt lat="38.613089" lon="-0.609978">
        <ele>675.294</ele>
        <time>2019-06-16T13:16:30Z</time>
      </trkpt>
      <trkpt lat="38.613073" lon="-0.610041">
        <ele>674.717</ele>
        <time>2019-06-16T13:16:31Z</time>
      </trkpt>
      <trkpt lat="38.613037" lon="-0.610091">
        <ele>674.389</ele>
        <time>2019-06-16T13:16:32Z</time>
      </trkpt>
      <trkpt lat="38.613018" lon="-0.610148">
        <ele>673.846</ele>
        <time>2019-06-16T13:16:33Z</time>
      </trkpt>
      <trkpt lat="38.613001" lon="-0.610216">
        <ele>673.295</ele>
        <time>2019-06-16T13:16:34Z</time>
      </trkpt>
      <trkpt lat="38.612979" lon="-0.610277">
        <ele>672.760</ele>
        <time>2019-06-16T13:16:35Z</time>
      </trkpt>
      <trkpt lat="38.612961" lon="-0.610339">
        <ele>672.482</ele>
        <time>2019-06-16T13:16:36Z</time>
      </trkpt>
      <trkpt lat="38.612935" lon="-0.610387">
        <ele>672.243</ele>
        <time>2019-06-16T13:16:37Z</time>
      </trkpt>
      <trkpt lat="38.612909" lon="-0.610447">
        <ele>671.917</ele>
        <time>2019-06-16T13:16:38Z</time>
      </trkpt>
      <trkpt lat="38.612879" lon="-0.610498">
        <ele>671.608</ele>
        <time>2019-06-16T13:16:39Z</time>
      </trkpt>
      <trkpt lat="38.612865" lon="-0.610570">
        <ele>671.381</ele>
        <time>2019-06-16T13:16:40Z</time>
      </trkpt>
      <trkpt lat="38.612831" lon="-0.610665">
        <ele>670.865</ele>
        <time>2019-06-16T13:16:42Z</time>
      </trkpt>
      <trkpt lat="38.612818" lon="-0.610728">
        <ele>670.524</ele>
        <time>2019-06-16T13:16:43Z</time>
      </trkpt>
      <trkpt lat="38.612811" lon="-0.610790">
        <ele>670.387</ele>
        <time>2019-06-16T13:16:44Z</time>
      </trkpt>
      <trkpt lat="38.612796" lon="-0.610850">
        <ele>670.169</ele>
        <time>2019-06-16T13:16:45Z</time>
      </trkpt>
      <trkpt lat="38.612778" lon="-0.610919">
        <ele>670.086</ele>
        <time>2019-06-16T13:16:46Z</time>
      </trkpt>
      <trkpt lat="38.612764" lon="-0.610983">
        <ele>670.035</ele>
        <time>2019-06-16T13:16:47Z</time>
      </trkpt>
      <trkpt lat="38.612740" lon="-0.611050">
        <ele>669.990</ele>
        <time>2019-06-16T13:16:48Z</time>
      </trkpt>
      <trkpt lat="38.612711" lon="-0.611115">
        <ele>670.052</ele>
        <time>2019-06-16T13:16:49Z</time>
      </trkpt>
      <trkpt lat="38.612705" lon="-0.611172">
        <ele>670.653</ele>
        <time>2019-06-16T13:16:50Z</time>
      </trkpt>
      <trkpt lat="38.612683" lon="-0.611229">
        <ele>671.108</ele>
        <time>2019-06-16T13:16:51Z</time>
      </trkpt>
      <trkpt lat="38.612654" lon="-0.611357">
        <ele>672.308</ele>
        <time>2019-06-16T13:16:53Z</time>
      </trkpt>
      <trkpt lat="38.612633" lon="-0.611415">
        <ele>672.688</ele>
        <time>2019-06-16T13:16:54Z</time>
      </trkpt>
      <trkpt lat="38.612613" lon="-0.611467">
        <ele>672.962</ele>
        <time>2019-06-16T13:16:55Z</time>
      </trkpt>
      <trkpt lat="38.612591" lon="-0.611531">
        <ele>673.211</ele>
        <time>2019-06-16T13:16:56Z</time>
      </trkpt>
      <trkpt lat="38.612568" lon="-0.611587">
        <ele>673.544</ele>
        <time>2019-06-16T13:16:57Z</time>
      </trkpt>
      <trkpt lat="38.612549" lon="-0.611653">
        <ele>673.986</ele>
        <time>2019-06-16T13:16:58Z</time>
      </trkpt>
      <trkpt lat="38.612522" lon="-0.611705">
        <ele>674.123</ele>
        <time>2019-06-16T13:16:59Z</time>
      </trkpt>
      <trkpt lat="38.612517" lon="-0.611786">
        <ele>674.462</ele>
        <time>2019-06-16T13:17:00Z</time>
      </trkpt>
      <trkpt lat="38.612468" lon="-0.611823">
        <ele>674.697</ele>
        <time>2019-06-16T13:17:01Z</time>
      </trkpt>
      <trkpt lat="38.612448" lon="-0.611891">
        <ele>674.834</ele>
        <time>2019-06-16T13:17:02Z</time>
      </trkpt>
      <trkpt lat="38.612419" lon="-0.611949">
        <ele>675.055</ele>
        <time>2019-06-16T13:17:03Z</time>
      </trkpt>
      <trkpt lat="38.612394" lon="-0.612033">
        <ele>675.210</ele>
        <time>2019-06-16T13:17:04Z</time>
      </trkpt>
      <trkpt lat="38.612354" lon="-0.612160">
        <ele>675.408</ele>
        <time>2019-06-16T13:17:06Z</time>
      </trkpt>
      <trkpt lat="38.612356" lon="-0.612219">
        <ele>675.536</ele>
        <time>2019-06-16T13:17:07Z</time>
      </trkpt>
      <trkpt lat="38.612323" lon="-0.612271">
        <ele>675.420</ele>
        <time>2019-06-16T13:17:08Z</time>
      </trkpt>
      <trkpt lat="38.612333" lon="-0.612329">
        <ele>675.459</ele>
        <time>2019-06-16T13:17:09Z</time>
      </trkpt>
      <trkpt lat="38.612321" lon="-0.612394">
        <ele>675.492</ele>
        <time>2019-06-16T13:17:10Z</time>
      </trkpt>
      <trkpt lat="38.612287" lon="-0.612440">
        <ele>675.224</ele>
        <time>2019-06-16T13:17:11Z</time>
      </trkpt>
      <trkpt lat="38.612274" lon="-0.612501">
        <ele>675.281</ele>
        <time>2019-06-16T13:17:14Z</time>
      </trkpt>
      <trkpt lat="38.612281" lon="-0.612559">
        <ele>675.490</ele>
        <time>2019-06-16T13:18:00Z</time>
      </trkpt>
      <trkpt lat="38.612247" lon="-0.612629">
        <ele>675.615</ele>
        <time>2019-06-16T13:18:02Z</time>
      </trkpt>
      <trkpt lat="38.612216" lon="-0.612721">
        <ele>675.892</ele>
        <time>2019-06-16T13:18:04Z</time>
      </trkpt>
      <trkpt lat="38.612188" lon="-0.612823">
        <ele>675.873</ele>
        <time>2019-06-16T13:18:05Z</time>
      </trkpt>
      <trkpt lat="38.612161" lon="-0.612925">
        <ele>675.720</ele>
        <time>2019-06-16T13:18:07Z</time>
      </trkpt>
      <trkpt lat="38.612150" lon="-0.612986">
        <ele>675.708</ele>
        <time>2019-06-16T13:18:10Z</time>
      </trkpt>
      <trkpt lat="38.612139" lon="-0.613044">
        <ele>675.742</ele>
        <time>2019-06-16T13:18:13Z</time>
      </trkpt>
      <trkpt lat="38.612131" lon="-0.613101">
        <ele>675.976</ele>
        <time>2019-06-16T13:18:16Z</time>
      </trkpt>
      <trkpt lat="38.612013" lon="-0.613477">
        <ele>677.125</ele>
        <time>2019-06-16T13:18:17Z</time>
      </trkpt>
      <trkpt lat="38.612005" lon="-0.613567">
        <ele>677.218</ele>
        <time>2019-06-16T13:18:18Z</time>
      </trkpt>
      <trkpt lat="38.611985" lon="-0.613627">
        <ele>677.120</ele>
        <time>2019-06-16T13:18:19Z</time>
      </trkpt>
      <trkpt lat="38.611924" lon="-0.613668">
        <ele>677.017</ele>
        <time>2019-06-16T13:18:20Z</time>
      </trkpt>
      <trkpt lat="38.611887" lon="-0.613750">
        <ele>676.966</ele>
        <time>2019-06-16T13:18:22Z</time>
      </trkpt>
      <trkpt lat="38.611861" lon="-0.613804">
        <ele>676.811</ele>
        <time>2019-06-16T13:18:23Z</time>
      </trkpt>
      <trkpt lat="38.611831" lon="-0.613857">
        <ele>676.619</ele>
        <time>2019-06-16T13:18:24Z</time>
      </trkpt>
      <trkpt lat="38.611804" lon="-0.613907">
        <ele>676.509</ele>
        <time>2019-06-16T13:18:25Z</time>
      </trkpt>
      <trkpt lat="38.611778" lon="-0.613961">
        <ele>676.319</ele>
        <time>2019-06-16T13:18:26Z</time>
      </trkpt>
      <trkpt lat="38.611757" lon="-0.614024">
        <ele>676.208</ele>
        <time>2019-06-16T13:18:27Z</time>
      </trkpt>
      <trkpt lat="38.611745" lon="-0.614089">
        <ele>676.094</ele>
        <time>2019-06-16T13:18:28Z</time>
      </trkpt>
      <trkpt lat="38.611738" lon="-0.614157">
        <ele>675.858</ele>
        <time>2019-06-16T13:18:29Z</time>
      </trkpt>
      <trkpt lat="38.611748" lon="-0.614216">
        <ele>675.647</ele>
        <time>2019-06-16T13:18:30Z</time>
      </trkpt>
      <trkpt lat="38.611722" lon="-0.614277">
        <ele>675.150</ele>
        <time>2019-06-16T13:18:31Z</time>
      </trkpt>
      <trkpt lat="38.611711" lon="-0.614348">
        <ele>674.742</ele>
        <time>2019-06-16T13:18:32Z</time>
      </trkpt>
      <trkpt lat="38.611708" lon="-0.614426">
        <ele>674.459</ele>
        <time>2019-06-16T13:18:33Z</time>
      </trkpt>
      <trkpt lat="38.611679" lon="-0.614485">
        <ele>674.158</ele>
        <time>2019-06-16T13:18:34Z</time>
      </trkpt>
      <trkpt lat="38.611654" lon="-0.614551">
        <ele>673.963</ele>
        <time>2019-06-16T13:18:35Z</time>
      </trkpt>
      <trkpt lat="38.611631" lon="-0.614627">
        <ele>673.797</ele>
        <time>2019-06-16T13:18:36Z</time>
      </trkpt>
      <trkpt lat="38.611615" lon="-0.614701">
        <ele>673.623</ele>
        <time>2019-06-16T13:18:37Z</time>
      </trkpt>
      <trkpt lat="38.611599" lon="-0.614766">
        <ele>673.525</ele>
        <time>2019-06-16T13:18:38Z</time>
      </trkpt>
      <trkpt lat="38.611565" lon="-0.614836">
        <ele>673.308</ele>
        <time>2019-06-16T13:18:39Z</time>
      </trkpt>
      <trkpt lat="38.611540" lon="-0.614900">
        <ele>673.122</ele>
        <time>2019-06-16T13:18:40Z</time>
      </trkpt>
      <trkpt lat="38.611508" lon="-0.614957">
        <ele>672.926</ele>
        <time>2019-06-16T13:18:41Z</time>
      </trkpt>
      <trkpt lat="38.611467" lon="-0.615024">
        <ele>672.685</ele>
        <time>2019-06-16T13:18:42Z</time>
      </trkpt>
      <trkpt lat="38.611473" lon="-0.615101">
        <ele>672.698</ele>
        <time>2019-06-16T13:18:43Z</time>
      </trkpt>
      <trkpt lat="38.611448" lon="-0.615171">
        <ele>672.480</ele>
        <time>2019-06-16T13:18:44Z</time>
      </trkpt>
      <trkpt lat="38.611438" lon="-0.615236">
        <ele>672.487</ele>
        <time>2019-06-16T13:18:45Z</time>
      </trkpt>
      <trkpt lat="38.611419" lon="-0.615302">
        <ele>672.296</ele>
        <time>2019-06-16T13:18:46Z</time>
      </trkpt>
      <trkpt lat="38.611389" lon="-0.615357">
        <ele>672.051</ele>
        <time>2019-06-16T13:18:47Z</time>
      </trkpt>
      <trkpt lat="38.611368" lon="-0.615418">
        <ele>671.925</ele>
        <time>2019-06-16T13:18:48Z</time>
      </trkpt>
      <trkpt lat="38.611365" lon="-0.615504">
        <ele>671.926</ele>
        <time>2019-06-16T13:18:49Z</time>
      </trkpt>
      <trkpt lat="38.611344" lon="-0.615564">
        <ele>671.808</ele>
        <time>2019-06-16T13:18:50Z</time>
      </trkpt>
      <trkpt lat="38.611309" lon="-0.615624">
        <ele>671.808</ele>
        <time>2019-06-16T13:18:51Z</time>
      </trkpt>
      <trkpt lat="38.611274" lon="-0.615676">
        <ele>671.895</ele>
        <time>2019-06-16T13:18:52Z</time>
      </trkpt>
      <trkpt lat="38.611253" lon="-0.615750">
        <ele>671.969</ele>
        <time>2019-06-16T13:18:53Z</time>
      </trkpt>
      <trkpt lat="38.611242" lon="-0.615812">
        <ele>672.038</ele>
        <time>2019-06-16T13:18:54Z</time>
      </trkpt>
      <trkpt lat="38.611233" lon="-0.615884">
        <ele>672.121</ele>
        <time>2019-06-16T13:18:55Z</time>
      </trkpt>
      <trkpt lat="38.611195" lon="-0.615955">
        <ele>672.173</ele>
        <time>2019-06-16T13:18:56Z</time>
      </trkpt>
      <trkpt lat="38.611178" lon="-0.616033">
        <ele>672.260</ele>
        <time>2019-06-16T13:18:57Z</time>
      </trkpt>
      <trkpt lat="38.611140" lon="-0.616098">
        <ele>672.169</ele>
        <time>2019-06-16T13:18:58Z</time>
      </trkpt>
      <trkpt lat="38.611143" lon="-0.616165">
        <ele>672.574</ele>
        <time>2019-06-16T13:18:59Z</time>
      </trkpt>
      <trkpt lat="38.611131" lon="-0.616228">
        <ele>672.982</ele>
        <time>2019-06-16T13:19:00Z</time>
      </trkpt>
      <trkpt lat="38.611125" lon="-0.616286">
        <ele>673.343</ele>
        <time>2019-06-16T13:19:01Z</time>
      </trkpt>
      <trkpt lat="38.611090" lon="-0.616396">
        <ele>673.917</ele>
        <time>2019-06-16T13:19:03Z</time>
      </trkpt>
      <trkpt lat="38.611035" lon="-0.616466">
        <ele>673.808</ele>
        <time>2019-06-16T13:19:05Z</time>
      </trkpt>
      <trkpt lat="38.611007" lon="-0.616592">
        <ele>674.311</ele>
        <time>2019-06-16T13:19:07Z</time>
      </trkpt>
      <trkpt lat="38.610968" lon="-0.616685">
        <ele>674.665</ele>
        <time>2019-06-16T13:19:09Z</time>
      </trkpt>
      <trkpt lat="38.610962" lon="-0.616747">
        <ele>674.874</ele>
        <time>2019-06-16T13:19:10Z</time>
      </trkpt>
      <trkpt lat="38.610906" lon="-0.616819">
        <ele>674.857</ele>
        <time>2019-06-16T13:19:12Z</time>
      </trkpt>
      <trkpt lat="38.610868" lon="-0.616918">
        <ele>675.079</ele>
        <time>2019-06-16T13:19:14Z</time>
      </trkpt>
      <trkpt lat="38.610843" lon="-0.617002">
        <ele>675.536</ele>
        <time>2019-06-16T13:19:15Z</time>
      </trkpt>
      <trkpt lat="38.610818" lon="-0.617065">
        <ele>675.845</ele>
        <time>2019-06-16T13:19:16Z</time>
      </trkpt>
      <trkpt lat="38.610818" lon="-0.617123">
        <ele>676.210</ele>
        <time>2019-06-16T13:19:17Z</time>
      </trkpt>
      <trkpt lat="38.610775" lon="-0.617182">
        <ele>676.363</ele>
        <time>2019-06-16T13:19:18Z</time>
      </trkpt>
      <trkpt lat="38.610754" lon="-0.617249">
        <ele>676.644</ele>
        <time>2019-06-16T13:19:19Z</time>
      </trkpt>
      <trkpt lat="38.610721" lon="-0.617290">
        <ele>676.718</ele>
        <time>2019-06-16T13:19:20Z</time>
      </trkpt>
      <trkpt lat="38.610702" lon="-0.617351">
        <ele>677.008</ele>
        <time>2019-06-16T13:19:21Z</time>
      </trkpt>
      <trkpt lat="38.610687" lon="-0.617407">
        <ele>677.359</ele>
        <time>2019-06-16T13:19:22Z</time>
      </trkpt>
      <trkpt lat="38.610678" lon="-0.617495">
        <ele>677.843</ele>
        <time>2019-06-16T13:19:24Z</time>
      </trkpt>
      <trkpt lat="38.610659" lon="-0.617597">
        <ele>678.042</ele>
        <time>2019-06-16T13:19:26Z</time>
      </trkpt>
      <trkpt lat="38.610620" lon="-0.617638">
        <ele>677.855</ele>
        <time>2019-06-16T13:19:27Z</time>
      </trkpt>
      <trkpt lat="38.610584" lon="-0.617714">
        <ele>677.917</ele>
        <time>2019-06-16T13:19:31Z</time>
      </trkpt>
      <trkpt lat="38.610530" lon="-0.617824">
        <ele>677.764</ele>
        <time>2019-06-16T13:19:32Z</time>
      </trkpt>
      <trkpt lat="38.610524" lon="-0.617899">
        <ele>677.733</ele>
        <time>2019-06-16T13:19:33Z</time>
      </trkpt>
      <trkpt lat="38.610500" lon="-0.617962">
        <ele>677.468</ele>
        <time>2019-06-16T13:19:34Z</time>
      </trkpt>
      <trkpt lat="38.610478" lon="-0.618022">
        <ele>677.291</ele>
        <time>2019-06-16T13:19:35Z</time>
      </trkpt>
      <trkpt lat="38.610473" lon="-0.618083">
        <ele>677.181</ele>
        <time>2019-06-16T13:19:36Z</time>
      </trkpt>
      <trkpt lat="38.610405" lon="-0.618134">
        <ele>676.419</ele>
        <time>2019-06-16T13:19:38Z</time>
      </trkpt>
      <trkpt lat="38.610378" lon="-0.618197">
        <ele>676.108</ele>
        <time>2019-06-16T13:19:41Z</time>
      </trkpt>
      <trkpt lat="38.610360" lon="-0.618270">
        <ele>675.912</ele>
        <time>2019-06-16T13:19:43Z</time>
      </trkpt>
      <trkpt lat="38.610337" lon="-0.618348">
        <ele>675.646</ele>
        <time>2019-06-16T13:19:45Z</time>
      </trkpt>
      <trkpt lat="38.610326" lon="-0.618412">
        <ele>675.525</ele>
        <time>2019-06-16T13:19:47Z</time>
      </trkpt>
      <trkpt lat="38.610308" lon="-0.618475">
        <ele>675.348</ele>
        <time>2019-06-16T13:19:49Z</time>
      </trkpt>
      <trkpt lat="38.610285" lon="-0.618545">
        <ele>675.160</ele>
        <time>2019-06-16T13:19:51Z</time>
      </trkpt>
      <trkpt lat="38.610245" lon="-0.618689">
        <ele>674.547</ele>
        <time>2019-06-16T13:19:53Z</time>
      </trkpt>
      <trkpt lat="38.610239" lon="-0.618788">
        <ele>674.346</ele>
        <time>2019-06-16T13:19:55Z</time>
      </trkpt>
      <trkpt lat="38.610219" lon="-0.618896">
        <ele>674.081</ele>
        <time>2019-06-16T13:19:57Z</time>
      </trkpt>
      <trkpt lat="38.610172" lon="-0.618956">
        <ele>674.269</ele>
        <time>2019-06-16T13:20:00Z</time>
      </trkpt>
      <trkpt lat="38.610154" lon="-0.619041">
        <ele>674.504</ele>
        <time>2019-06-16T13:20:03Z</time>
      </trkpt>
      <trkpt lat="38.610140" lon="-0.619103">
        <ele>674.824</ele>
        <time>2019-06-16T13:20:05Z</time>
      </trkpt>
      <trkpt lat="38.610112" lon="-0.619229">
        <ele>675.208</ele>
        <time>2019-06-16T13:20:06Z</time>
      </trkpt>
      <trkpt lat="38.610096" lon="-0.619324">
        <ele>675.669</ele>
        <time>2019-06-16T13:20:07Z</time>
      </trkpt>
      <trkpt lat="38.610048" lon="-0.619437">
        <ele>676.043</ele>
        <time>2019-06-16T13:20:09Z</time>
      </trkpt>
      <trkpt lat="38.610014" lon="-0.619538">
        <ele>676.072</ele>
        <time>2019-06-16T13:20:11Z</time>
      </trkpt>
      <trkpt lat="38.609979" lon="-0.619620">
        <ele>675.895</ele>
        <time>2019-06-16T13:20:13Z</time>
      </trkpt>
      <trkpt lat="38.609944" lon="-0.619720">
        <ele>675.617</ele>
        <time>2019-06-16T13:20:15Z</time>
      </trkpt>
      <trkpt lat="38.609917" lon="-0.619826">
        <ele>675.434</ele>
        <time>2019-06-16T13:20:17Z</time>
      </trkpt>
      <trkpt lat="38.609892" lon="-0.619938">
        <ele>675.253</ele>
        <time>2019-06-16T13:20:19Z</time>
      </trkpt>
      <trkpt lat="38.609876" lon="-0.619995">
        <ele>675.148</ele>
        <time>2019-06-16T13:20:20Z</time>
      </trkpt>
      <trkpt lat="38.609855" lon="-0.620101">
        <ele>675.131</ele>
        <time>2019-06-16T13:20:22Z</time>
      </trkpt>
      <trkpt lat="38.609802" lon="-0.620186">
        <ele>674.861</ele>
        <time>2019-06-16T13:20:24Z</time>
      </trkpt>
      <trkpt lat="38.609789" lon="-0.620296">
        <ele>674.807</ele>
        <time>2019-06-16T13:20:26Z</time>
      </trkpt>
      <trkpt lat="38.609777" lon="-0.620356">
        <ele>674.808</ele>
        <time>2019-06-16T13:20:27Z</time>
      </trkpt>
      <trkpt lat="38.609766" lon="-0.620422">
        <ele>674.926</ele>
        <time>2019-06-16T13:20:28Z</time>
      </trkpt>
      <trkpt lat="38.609754" lon="-0.620488">
        <ele>675.090</ele>
        <time>2019-06-16T13:20:29Z</time>
      </trkpt>
      <trkpt lat="38.609723" lon="-0.620589">
        <ele>675.029</ele>
        <time>2019-06-16T13:20:31Z</time>
      </trkpt>
      <trkpt lat="38.609712" lon="-0.620645">
        <ele>674.972</ele>
        <time>2019-06-16T13:20:32Z</time>
      </trkpt>
      <trkpt lat="38.609711" lon="-0.620708">
        <ele>674.994</ele>
        <time>2019-06-16T13:20:33Z</time>
      </trkpt>
      <trkpt lat="38.609704" lon="-0.620776">
        <ele>674.921</ele>
        <time>2019-06-16T13:20:34Z</time>
      </trkpt>
      <trkpt lat="38.609691" lon="-0.620838">
        <ele>674.940</ele>
        <time>2019-06-16T13:20:35Z</time>
      </trkpt>
      <trkpt lat="38.609660" lon="-0.620893">
        <ele>675.025</ele>
        <time>2019-06-16T13:20:36Z</time>
      </trkpt>
      <trkpt lat="38.609647" lon="-0.620954">
        <ele>675.278</ele>
        <time>2019-06-16T13:20:37Z</time>
      </trkpt>
      <trkpt lat="38.609627" lon="-0.621017">
        <ele>675.333</ele>
        <time>2019-06-16T13:20:38Z</time>
      </trkpt>
      <trkpt lat="38.609622" lon="-0.621078">
        <ele>675.526</ele>
        <time>2019-06-16T13:20:39Z</time>
      </trkpt>
      <trkpt lat="38.609607" lon="-0.621134">
        <ele>675.608</ele>
        <time>2019-06-16T13:20:40Z</time>
      </trkpt>
      <trkpt lat="38.609596" lon="-0.621195">
        <ele>675.720</ele>
        <time>2019-06-16T13:20:41Z</time>
      </trkpt>
      <trkpt lat="38.609590" lon="-0.621258">
        <ele>675.884</ele>
        <time>2019-06-16T13:20:42Z</time>
      </trkpt>
      <trkpt lat="38.609576" lon="-0.621318">
        <ele>675.823</ele>
        <time>2019-06-16T13:20:43Z</time>
      </trkpt>
      <trkpt lat="38.609552" lon="-0.621422">
        <ele>675.846</ele>
        <time>2019-06-16T13:20:45Z</time>
      </trkpt>
      <trkpt lat="38.609549" lon="-0.621519">
        <ele>675.898</ele>
        <time>2019-06-16T13:20:47Z</time>
      </trkpt>
      <trkpt lat="38.609532" lon="-0.621587">
        <ele>675.625</ele>
        <time>2019-06-16T13:20:50Z</time>
      </trkpt>
      <trkpt lat="38.609518" lon="-0.621653">
        <ele>675.574</ele>
        <time>2019-06-16T13:20:52Z</time>
      </trkpt>
      <trkpt lat="38.609497" lon="-0.621714">
        <ele>675.319</ele>
        <time>2019-06-16T13:20:54Z</time>
      </trkpt>
      <trkpt lat="38.609476" lon="-0.621774">
        <ele>675.294</ele>
        <time>2019-06-16T13:20:56Z</time>
      </trkpt>
      <trkpt lat="38.609426" lon="-0.621938">
        <ele>675.057</ele>
        <time>2019-06-16T13:20:58Z</time>
      </trkpt>
      <trkpt lat="38.609402" lon="-0.622019">
        <ele>675.022</ele>
        <time>2019-06-16T13:20:59Z</time>
      </trkpt>
      <trkpt lat="38.609378" lon="-0.622123">
        <ele>675.008</ele>
        <time>2019-06-16T13:21:01Z</time>
      </trkpt>
      <trkpt lat="38.609354" lon="-0.622230">
        <ele>675.082</ele>
        <time>2019-06-16T13:21:03Z</time>
      </trkpt>
      <trkpt lat="38.609320" lon="-0.622331">
        <ele>675.246</ele>
        <time>2019-06-16T13:21:05Z</time>
      </trkpt>
      <trkpt lat="38.609306" lon="-0.622386">
        <ele>675.345</ele>
        <time>2019-06-16T13:21:06Z</time>
      </trkpt>
      <trkpt lat="38.609272" lon="-0.622483">
        <ele>675.438</ele>
        <time>2019-06-16T13:21:08Z</time>
      </trkpt>
      <trkpt lat="38.609222" lon="-0.622573">
        <ele>675.590</ele>
        <time>2019-06-16T13:21:10Z</time>
      </trkpt>
      <trkpt lat="38.609163" lon="-0.622658">
        <ele>675.657</ele>
        <time>2019-06-16T13:21:12Z</time>
      </trkpt>
      <trkpt lat="38.609123" lon="-0.622739">
        <ele>675.796</ele>
        <time>2019-06-16T13:21:14Z</time>
      </trkpt>
      <trkpt lat="38.609072" lon="-0.622818">
        <ele>675.771</ele>
        <time>2019-06-16T13:21:16Z</time>
      </trkpt>
      <trkpt lat="38.609023" lon="-0.622814">
        <ele>675.589</ele>
        <time>2019-06-16T13:21:17Z</time>
      </trkpt>
      <trkpt lat="38.609045" lon="-0.622927">
        <ele>675.806</ele>
        <time>2019-06-16T13:21:18Z</time>
      </trkpt>
      <trkpt lat="38.609005" lon="-0.623019">
        <ele>675.926</ele>
        <time>2019-06-16T13:21:20Z</time>
      </trkpt>
      <trkpt lat="38.608964" lon="-0.623053">
        <ele>676.008</ele>
        <time>2019-06-16T13:21:21Z</time>
      </trkpt>
      <trkpt lat="38.608936" lon="-0.623101">
        <ele>676.091</ele>
        <time>2019-06-16T13:21:22Z</time>
      </trkpt>
      <trkpt lat="38.608899" lon="-0.623159">
        <ele>676.075</ele>
        <time>2019-06-16T13:21:23Z</time>
      </trkpt>
      <trkpt lat="38.608886" lon="-0.623240">
        <ele>676.074</ele>
        <time>2019-06-16T13:21:24Z</time>
      </trkpt>
      <trkpt lat="38.608874" lon="-0.623312">
        <ele>675.997</ele>
        <time>2019-06-16T13:21:25Z</time>
      </trkpt>
      <trkpt lat="38.608845" lon="-0.623375">
        <ele>675.429</ele>
        <time>2019-06-16T13:21:26Z</time>
      </trkpt>
      <trkpt lat="38.608811" lon="-0.623431">
        <ele>674.876</ele>
        <time>2019-06-16T13:21:27Z</time>
      </trkpt>
      <trkpt lat="38.608788" lon="-0.623508">
        <ele>674.275</ele>
        <time>2019-06-16T13:21:28Z</time>
      </trkpt>
      <trkpt lat="38.608761" lon="-0.623562">
        <ele>673.860</ele>
        <time>2019-06-16T13:21:29Z</time>
      </trkpt>
      <trkpt lat="38.608729" lon="-0.623630">
        <ele>673.429</ele>
        <time>2019-06-16T13:21:30Z</time>
      </trkpt>
      <trkpt lat="38.608710" lon="-0.623699">
        <ele>673.400</ele>
        <time>2019-06-16T13:21:31Z</time>
      </trkpt>
      <trkpt lat="38.608704" lon="-0.623772">
        <ele>673.320</ele>
        <time>2019-06-16T13:21:32Z</time>
      </trkpt>
      <trkpt lat="38.608676" lon="-0.623829">
        <ele>673.208</ele>
        <time>2019-06-16T13:21:33Z</time>
      </trkpt>
      <trkpt lat="38.608659" lon="-0.623905">
        <ele>673.245</ele>
        <time>2019-06-16T13:21:34Z</time>
      </trkpt>
      <trkpt lat="38.608643" lon="-0.623973">
        <ele>673.149</ele>
        <time>2019-06-16T13:21:35Z</time>
      </trkpt>
      <trkpt lat="38.608626" lon="-0.624039">
        <ele>673.198</ele>
        <time>2019-06-16T13:21:36Z</time>
      </trkpt>
      <trkpt lat="38.608610" lon="-0.624114">
        <ele>673.081</ele>
        <time>2019-06-16T13:21:37Z</time>
      </trkpt>
      <trkpt lat="38.608609" lon="-0.624201">
        <ele>673.083</ele>
        <time>2019-06-16T13:21:38Z</time>
      </trkpt>
      <trkpt lat="38.608597" lon="-0.624269">
        <ele>672.990</ele>
        <time>2019-06-16T13:21:39Z</time>
      </trkpt>
      <trkpt lat="38.608579" lon="-0.624338">
        <ele>672.819</ele>
        <time>2019-06-16T13:21:40Z</time>
      </trkpt>
      <trkpt lat="38.608565" lon="-0.624412">
        <ele>672.734</ele>
        <time>2019-06-16T13:21:41Z</time>
      </trkpt>
      <trkpt lat="38.608557" lon="-0.624490">
        <ele>672.734</ele>
        <time>2019-06-16T13:21:42Z</time>
      </trkpt>
      <trkpt lat="38.608553" lon="-0.624583">
        <ele>673.055</ele>
        <time>2019-06-16T13:21:43Z</time>
      </trkpt>
      <trkpt lat="38.608542" lon="-0.624666">
        <ele>673.110</ele>
        <time>2019-06-16T13:21:44Z</time>
      </trkpt>
      <trkpt lat="38.608530" lon="-0.624735">
        <ele>673.108</ele>
        <time>2019-06-16T13:21:45Z</time>
      </trkpt>
      <trkpt lat="38.608527" lon="-0.624817">
        <ele>673.066</ele>
        <time>2019-06-16T13:21:46Z</time>
      </trkpt>
      <trkpt lat="38.608522" lon="-0.624888">
        <ele>672.890</ele>
        <time>2019-06-16T13:21:47Z</time>
      </trkpt>
      <trkpt lat="38.608515" lon="-0.624954">
        <ele>672.759</ele>
        <time>2019-06-16T13:21:48Z</time>
      </trkpt>
      <trkpt lat="38.608518" lon="-0.625024">
        <ele>672.552</ele>
        <time>2019-06-16T13:21:49Z</time>
      </trkpt>
      <trkpt lat="38.608516" lon="-0.625087">
        <ele>672.124</ele>
        <time>2019-06-16T13:21:50Z</time>
      </trkpt>
      <trkpt lat="38.608524" lon="-0.625152">
        <ele>671.881</ele>
        <time>2019-06-16T13:21:51Z</time>
      </trkpt>
      <trkpt lat="38.608523" lon="-0.625215">
        <ele>671.410</ele>
        <time>2019-06-16T13:21:52Z</time>
      </trkpt>
      <trkpt lat="38.608525" lon="-0.625289">
        <ele>671.125</ele>
        <time>2019-06-16T13:21:53Z</time>
      </trkpt>
      <trkpt lat="38.608547" lon="-0.625398">
        <ele>671.225</ele>
        <time>2019-06-16T13:21:55Z</time>
      </trkpt>
      <trkpt lat="38.608555" lon="-0.625522">
        <ele>671.226</ele>
        <time>2019-06-16T13:21:57Z</time>
      </trkpt>
      <trkpt lat="38.608579" lon="-0.625587">
        <ele>671.708</ele>
        <time>2019-06-16T13:21:58Z</time>
      </trkpt>
      <trkpt lat="38.608582" lon="-0.625652">
        <ele>671.908</ele>
        <time>2019-06-16T13:21:59Z</time>
      </trkpt>
      <trkpt lat="38.608591" lon="-0.625737">
        <ele>672.495</ele>
        <time>2019-06-16T13:22:01Z</time>
      </trkpt>
      <trkpt lat="38.608606" lon="-0.625798">
        <ele>672.839</ele>
        <time>2019-06-16T13:22:02Z</time>
      </trkpt>
      <trkpt lat="38.608629" lon="-0.625897">
        <ele>673.688</ele>
        <time>2019-06-16T13:22:04Z</time>
      </trkpt>
      <trkpt lat="38.608627" lon="-0.625970">
        <ele>674.131</ele>
        <time>2019-06-16T13:22:07Z</time>
      </trkpt>
      <trkpt lat="38.608632" lon="-0.626049">
        <ele>674.753</ele>
        <time>2019-06-16T13:22:09Z</time>
      </trkpt>
      <trkpt lat="38.608674" lon="-0.626090">
        <ele>675.370</ele>
        <time>2019-06-16T13:22:13Z</time>
      </trkpt>
      <trkpt lat="38.608645" lon="-0.626160">
        <ele>675.199</ele>
        <time>2019-06-16T13:22:51Z</time>
      </trkpt>
      <trkpt lat="38.608576" lon="-0.626288">
        <ele>673.924</ele>
        <time>2019-06-16T13:22:53Z</time>
      </trkpt>
      <trkpt lat="38.608550" lon="-0.626352">
        <ele>673.484</ele>
        <time>2019-06-16T13:22:54Z</time>
      </trkpt>
      <trkpt lat="38.608534" lon="-0.626469">
        <ele>673.007</ele>
        <time>2019-06-16T13:22:55Z</time>
      </trkpt>
      <trkpt lat="38.608509" lon="-0.626535">
        <ele>672.617</ele>
        <time>2019-06-16T13:22:56Z</time>
      </trkpt>
      <trkpt lat="38.608488" lon="-0.626590">
        <ele>672.308</ele>
        <time>2019-06-16T13:22:57Z</time>
      </trkpt>
      <trkpt lat="38.608469" lon="-0.626652">
        <ele>672.061</ele>
        <time>2019-06-16T13:22:58Z</time>
      </trkpt>
      <trkpt lat="38.608452" lon="-0.626712">
        <ele>671.775</ele>
        <time>2019-06-16T13:22:59Z</time>
      </trkpt>
      <trkpt lat="38.608435" lon="-0.626782">
        <ele>671.394</ele>
        <time>2019-06-16T13:23:00Z</time>
      </trkpt>
      <trkpt lat="38.608425" lon="-0.626857">
        <ele>671.097</ele>
        <time>2019-06-16T13:23:01Z</time>
      </trkpt>
      <trkpt lat="38.608406" lon="-0.626923">
        <ele>670.639</ele>
        <time>2019-06-16T13:23:02Z</time>
      </trkpt>
      <trkpt lat="38.608386" lon="-0.626987">
        <ele>670.516</ele>
        <time>2019-06-16T13:23:03Z</time>
      </trkpt>
      <trkpt lat="38.608375" lon="-0.627054">
        <ele>670.795</ele>
        <time>2019-06-16T13:23:04Z</time>
      </trkpt>
      <trkpt lat="38.608355" lon="-0.627116">
        <ele>670.830</ele>
        <time>2019-06-16T13:23:05Z</time>
      </trkpt>
      <trkpt lat="38.608340" lon="-0.627185">
        <ele>670.986</ele>
        <time>2019-06-16T13:23:06Z</time>
      </trkpt>
      <trkpt lat="38.608325" lon="-0.627243">
        <ele>671.060</ele>
        <time>2019-06-16T13:23:07Z</time>
      </trkpt>
      <trkpt lat="38.608319" lon="-0.627309">
        <ele>671.226</ele>
        <time>2019-06-16T13:23:08Z</time>
      </trkpt>
      <trkpt lat="38.608307" lon="-0.627371">
        <ele>671.308</ele>
        <time>2019-06-16T13:23:09Z</time>
      </trkpt>
      <trkpt lat="38.608286" lon="-0.627437">
        <ele>671.451</ele>
        <time>2019-06-16T13:23:10Z</time>
      </trkpt>
      <trkpt lat="38.608275" lon="-0.627510">
        <ele>671.685</ele>
        <time>2019-06-16T13:23:11Z</time>
      </trkpt>
      <trkpt lat="38.608256" lon="-0.627578">
        <ele>671.684</ele>
        <time>2019-06-16T13:23:12Z</time>
      </trkpt>
      <trkpt lat="38.608235" lon="-0.627640">
        <ele>671.657</ele>
        <time>2019-06-16T13:23:13Z</time>
      </trkpt>
      <trkpt lat="38.608226" lon="-0.627707">
        <ele>671.799</ele>
        <time>2019-06-16T13:23:14Z</time>
      </trkpt>
      <trkpt lat="38.608210" lon="-0.627777">
        <ele>671.776</ele>
        <time>2019-06-16T13:23:15Z</time>
      </trkpt>
      <trkpt lat="38.608195" lon="-0.627847">
        <ele>671.915</ele>
        <time>2019-06-16T13:23:16Z</time>
      </trkpt>
      <trkpt lat="38.608180" lon="-0.627911">
        <ele>672.180</ele>
        <time>2019-06-16T13:23:17Z</time>
      </trkpt>
      <trkpt lat="38.608164" lon="-0.627989">
        <ele>672.493</ele>
        <time>2019-06-16T13:23:18Z</time>
      </trkpt>
      <trkpt lat="38.608140" lon="-0.628055">
        <ele>672.665</ele>
        <time>2019-06-16T13:23:19Z</time>
      </trkpt>
      <trkpt lat="38.608125" lon="-0.628130">
        <ele>672.521</ele>
        <time>2019-06-16T13:23:20Z</time>
      </trkpt>
      <trkpt lat="38.608103" lon="-0.628204">
        <ele>672.308</ele>
        <time>2019-06-16T13:23:21Z</time>
      </trkpt>
      <trkpt lat="38.608084" lon="-0.628273">
        <ele>672.242</ele>
        <time>2019-06-16T13:23:22Z</time>
      </trkpt>
      <trkpt lat="38.608064" lon="-0.628345">
        <ele>672.196</ele>
        <time>2019-06-16T13:23:23Z</time>
      </trkpt>
      <trkpt lat="38.608050" lon="-0.628418">
        <ele>672.025</ele>
        <time>2019-06-16T13:23:24Z</time>
      </trkpt>
      <trkpt lat="38.608041" lon="-0.628489">
        <ele>671.938</ele>
        <time>2019-06-16T13:23:25Z</time>
      </trkpt>
      <trkpt lat="38.608023" lon="-0.628568">
        <ele>671.890</ele>
        <time>2019-06-16T13:23:26Z</time>
      </trkpt>
      <trkpt lat="38.608003" lon="-0.628638">
        <ele>671.877</ele>
        <time>2019-06-16T13:23:27Z</time>
      </trkpt>
      <trkpt lat="38.607982" lon="-0.628709">
        <ele>671.856</ele>
        <time>2019-06-16T13:23:28Z</time>
      </trkpt>
      <trkpt lat="38.607967" lon="-0.628774">
        <ele>671.971</ele>
        <time>2019-06-16T13:23:29Z</time>
      </trkpt>
      <trkpt lat="38.607949" lon="-0.628837">
        <ele>671.933</ele>
        <time>2019-06-16T13:23:30Z</time>
      </trkpt>
      <trkpt lat="38.607935" lon="-0.628900">
        <ele>671.923</ele>
        <time>2019-06-16T13:23:31Z</time>
      </trkpt>
      <trkpt lat="38.607924" lon="-0.628961">
        <ele>671.615</ele>
        <time>2019-06-16T13:23:32Z</time>
      </trkpt>
      <trkpt lat="38.607897" lon="-0.629009">
        <ele>671.308</ele>
        <time>2019-06-16T13:23:33Z</time>
      </trkpt>
      <trkpt lat="38.607879" lon="-0.629065">
        <ele>671.066</ele>
        <time>2019-06-16T13:23:34Z</time>
      </trkpt>
      <trkpt lat="38.607868" lon="-0.629133">
        <ele>670.560</ele>
        <time>2019-06-16T13:23:35Z</time>
      </trkpt>
      <trkpt lat="38.607859" lon="-0.629191">
        <ele>670.279</ele>
        <time>2019-06-16T13:23:36Z</time>
      </trkpt>
      <trkpt lat="38.607851" lon="-0.629253">
        <ele>669.862</ele>
        <time>2019-06-16T13:23:37Z</time>
      </trkpt>
      <trkpt lat="38.607843" lon="-0.629318">
        <ele>669.474</ele>
        <time>2019-06-16T13:23:38Z</time>
      </trkpt>
      <trkpt lat="38.607825" lon="-0.629380">
        <ele>668.981</ele>
        <time>2019-06-16T13:23:39Z</time>
      </trkpt>
      <trkpt lat="38.607816" lon="-0.629448">
        <ele>668.470</ele>
        <time>2019-06-16T13:23:40Z</time>
      </trkpt>
      <trkpt lat="38.607814" lon="-0.629515">
        <ele>668.955</ele>
        <time>2019-06-16T13:23:41Z</time>
      </trkpt>
      <trkpt lat="38.607797" lon="-0.629574">
        <ele>669.134</ele>
        <time>2019-06-16T13:23:42Z</time>
      </trkpt>
      <trkpt lat="38.607782" lon="-0.629635">
        <ele>669.455</ele>
        <time>2019-06-16T13:23:43Z</time>
      </trkpt>
      <trkpt lat="38.607762" lon="-0.629700">
        <ele>669.710</ele>
        <time>2019-06-16T13:23:44Z</time>
      </trkpt>
      <trkpt lat="38.607746" lon="-0.629762">
        <ele>669.808</ele>
        <time>2019-06-16T13:23:45Z</time>
      </trkpt>
      <trkpt lat="38.607727" lon="-0.629817">
        <ele>669.996</ele>
        <time>2019-06-16T13:23:46Z</time>
      </trkpt>
      <trkpt lat="38.607719" lon="-0.629878">
        <ele>670.050</ele>
        <time>2019-06-16T13:23:47Z</time>
      </trkpt>
      <trkpt lat="38.607698" lon="-0.629981">
        <ele>670.379</ele>
        <time>2019-06-16T13:23:49Z</time>
      </trkpt>
      <trkpt lat="38.607698" lon="-0.630039">
        <ele>670.682</ele>
        <time>2019-06-16T13:23:50Z</time>
      </trkpt>
      <trkpt lat="38.607674" lon="-0.630135">
        <ele>670.714</ele>
        <time>2019-06-16T13:23:52Z</time>
      </trkpt>
      <trkpt lat="38.607658" lon="-0.630242">
        <ele>671.011</ele>
        <time>2019-06-16T13:23:54Z</time>
      </trkpt>
      <trkpt lat="38.607641" lon="-0.630348">
        <ele>671.080</ele>
        <time>2019-06-16T13:23:56Z</time>
      </trkpt>
      <trkpt lat="38.607627" lon="-0.630467">
        <ele>670.945</ele>
        <time>2019-06-16T13:23:58Z</time>
      </trkpt>
      <trkpt lat="38.607608" lon="-0.630535">
        <ele>670.871</ele>
        <time>2019-06-16T13:23:59Z</time>
      </trkpt>
      <trkpt lat="38.607593" lon="-0.630605">
        <ele>670.641</ele>
        <time>2019-06-16T13:24:00Z</time>
      </trkpt>
      <trkpt lat="38.607573" lon="-0.630666">
        <ele>670.415</ele>
        <time>2019-06-16T13:24:01Z</time>
      </trkpt>
      <trkpt lat="38.607560" lon="-0.630739">
        <ele>670.308</ele>
        <time>2019-06-16T13:24:02Z</time>
      </trkpt>
      <trkpt lat="38.607547" lon="-0.630803">
        <ele>670.290</ele>
        <time>2019-06-16T13:24:03Z</time>
      </trkpt>
      <trkpt lat="38.607531" lon="-0.630872">
        <ele>670.034</ele>
        <time>2019-06-16T13:24:04Z</time>
      </trkpt>
      <trkpt lat="38.607512" lon="-0.630940">
        <ele>669.713</ele>
        <time>2019-06-16T13:24:05Z</time>
      </trkpt>
      <trkpt lat="38.607493" lon="-0.631008">
        <ele>669.346</ele>
        <time>2019-06-16T13:24:06Z</time>
      </trkpt>
      <trkpt lat="38.607481" lon="-0.631077">
        <ele>669.058</ele>
        <time>2019-06-16T13:24:07Z</time>
      </trkpt>
      <trkpt lat="38.607468" lon="-0.631149">
        <ele>668.975</ele>
        <time>2019-06-16T13:24:08Z</time>
      </trkpt>
      <trkpt lat="38.607450" lon="-0.631219">
        <ele>668.924</ele>
        <time>2019-06-16T13:24:09Z</time>
      </trkpt>
      <trkpt lat="38.607433" lon="-0.631289">
        <ele>668.969</ele>
        <time>2019-06-16T13:24:10Z</time>
      </trkpt>
      <trkpt lat="38.607412" lon="-0.631357">
        <ele>669.012</ele>
        <time>2019-06-16T13:24:11Z</time>
      </trkpt>
      <trkpt lat="38.607397" lon="-0.631432">
        <ele>669.232</ele>
        <time>2019-06-16T13:24:12Z</time>
      </trkpt>
      <trkpt lat="38.607381" lon="-0.631506">
        <ele>669.505</ele>
        <time>2019-06-16T13:24:13Z</time>
      </trkpt>
      <trkpt lat="38.607363" lon="-0.631577">
        <ele>669.708</ele>
        <time>2019-06-16T13:24:14Z</time>
      </trkpt>
      <trkpt lat="38.607346" lon="-0.631649">
        <ele>669.884</ele>
        <time>2019-06-16T13:24:15Z</time>
      </trkpt>
      <trkpt lat="38.607329" lon="-0.631715">
        <ele>669.978</ele>
        <time>2019-06-16T13:24:16Z</time>
      </trkpt>
      <trkpt lat="38.607312" lon="-0.631786">
        <ele>669.967</ele>
        <time>2019-06-16T13:24:17Z</time>
      </trkpt>
      <trkpt lat="38.607287" lon="-0.631857">
        <ele>670.090</ele>
        <time>2019-06-16T13:24:18Z</time>
      </trkpt>
      <trkpt lat="38.607267" lon="-0.631932">
        <ele>670.142</ele>
        <time>2019-06-16T13:24:19Z</time>
      </trkpt>
      <trkpt lat="38.607250" lon="-0.632007">
        <ele>670.199</ele>
        <time>2019-06-16T13:24:20Z</time>
      </trkpt>
      <trkpt lat="38.607231" lon="-0.632085">
        <ele>670.028</ele>
        <time>2019-06-16T13:24:21Z</time>
      </trkpt>
      <trkpt lat="38.607214" lon="-0.632146">
        <ele>670.043</ele>
        <time>2019-06-16T13:24:22Z</time>
      </trkpt>
      <trkpt lat="38.607199" lon="-0.632219">
        <ele>669.928</ele>
        <time>2019-06-16T13:24:23Z</time>
      </trkpt>
      <trkpt lat="38.607182" lon="-0.632289">
        <ele>669.989</ele>
        <time>2019-06-16T13:24:24Z</time>
      </trkpt>
      <trkpt lat="38.607168" lon="-0.632359">
        <ele>669.817</ele>
        <time>2019-06-16T13:24:25Z</time>
      </trkpt>
      <trkpt lat="38.607143" lon="-0.632421">
        <ele>669.708</ele>
        <time>2019-06-16T13:24:26Z</time>
      </trkpt>
      <trkpt lat="38.607124" lon="-0.632487">
        <ele>669.685</ele>
        <time>2019-06-16T13:24:27Z</time>
      </trkpt>
      <trkpt lat="38.607111" lon="-0.632559">
        <ele>669.839</ele>
        <time>2019-06-16T13:24:28Z</time>
      </trkpt>
      <trkpt lat="38.607100" lon="-0.632630">
        <ele>670.098</ele>
        <time>2019-06-16T13:24:29Z</time>
      </trkpt>
      <trkpt lat="38.607084" lon="-0.632700">
        <ele>670.281</ele>
        <time>2019-06-16T13:24:30Z</time>
      </trkpt>
      <trkpt lat="38.607068" lon="-0.632769">
        <ele>670.443</ele>
        <time>2019-06-16T13:24:31Z</time>
      </trkpt>
      <trkpt lat="38.607049" lon="-0.632838">
        <ele>670.960</ele>
        <time>2019-06-16T13:24:32Z</time>
      </trkpt>
      <trkpt lat="38.607035" lon="-0.632905">
        <ele>671.469</ele>
        <time>2019-06-16T13:24:33Z</time>
      </trkpt>
      <trkpt lat="38.607014" lon="-0.632972">
        <ele>671.814</ele>
        <time>2019-06-16T13:24:34Z</time>
      </trkpt>
      <trkpt lat="38.606991" lon="-0.633038">
        <ele>672.235</ele>
        <time>2019-06-16T13:24:35Z</time>
      </trkpt>
      <trkpt lat="38.606977" lon="-0.633116">
        <ele>672.586</ele>
        <time>2019-06-16T13:24:36Z</time>
      </trkpt>
      <trkpt lat="38.606961" lon="-0.633175">
        <ele>672.614</ele>
        <time>2019-06-16T13:24:37Z</time>
      </trkpt>
      <trkpt lat="38.606941" lon="-0.633237">
        <ele>672.608</ele>
        <time>2019-06-16T13:24:38Z</time>
      </trkpt>
      <trkpt lat="38.606924" lon="-0.633294">
        <ele>672.616</ele>
        <time>2019-06-16T13:24:39Z</time>
      </trkpt>
      <trkpt lat="38.606906" lon="-0.633396">
        <ele>672.680</ele>
        <time>2019-06-16T13:24:41Z</time>
      </trkpt>
      <trkpt lat="38.606879" lon="-0.633504">
        <ele>672.489</ele>
        <time>2019-06-16T13:24:43Z</time>
      </trkpt>
      <trkpt lat="38.606845" lon="-0.633592">
        <ele>672.312</ele>
        <time>2019-06-16T13:24:45Z</time>
      </trkpt>
      <trkpt lat="38.606823" lon="-0.633712">
        <ele>672.344</ele>
        <time>2019-06-16T13:25:05Z</time>
      </trkpt>
      <trkpt lat="38.606851" lon="-0.633794">
        <ele>672.561</ele>
        <time>2019-06-16T13:25:07Z</time>
      </trkpt>
      <trkpt lat="38.606845" lon="-0.633867">
        <ele>672.630</ele>
        <time>2019-06-16T13:25:08Z</time>
      </trkpt>
      <trkpt lat="38.606810" lon="-0.633921">
        <ele>672.725</ele>
        <time>2019-06-16T13:25:09Z</time>
      </trkpt>
      <trkpt lat="38.606803" lon="-0.633979">
        <ele>673.063</ele>
        <time>2019-06-16T13:25:10Z</time>
      </trkpt>
      <trkpt lat="38.606775" lon="-0.634076">
        <ele>673.344</ele>
        <time>2019-06-16T13:25:12Z</time>
      </trkpt>
      <trkpt lat="38.606751" lon="-0.634157">
        <ele>673.618</ele>
        <time>2019-06-16T13:25:15Z</time>
      </trkpt>
      <trkpt lat="38.606734" lon="-0.634223">
        <ele>673.508</ele>
        <time>2019-06-16T13:25:17Z</time>
      </trkpt>
      <trkpt lat="38.606723" lon="-0.634299">
        <ele>673.539</ele>
        <time>2019-06-16T13:25:19Z</time>
      </trkpt>
      <trkpt lat="38.606701" lon="-0.634532">
        <ele>673.423</ele>
        <time>2019-06-16T13:25:20Z</time>
      </trkpt>
      <trkpt lat="38.606676" lon="-0.634588">
        <ele>673.112</ele>
        <time>2019-06-16T13:25:21Z</time>
      </trkpt>
      <trkpt lat="38.606663" lon="-0.634650">
        <ele>672.925</ele>
        <time>2019-06-16T13:25:22Z</time>
      </trkpt>
      <trkpt lat="38.606643" lon="-0.634707">
        <ele>672.577</ele>
        <time>2019-06-16T13:25:23Z</time>
      </trkpt>
      <trkpt lat="38.606629" lon="-0.634766">
        <ele>672.094</ele>
        <time>2019-06-16T13:25:24Z</time>
      </trkpt>
      <trkpt lat="38.606621" lon="-0.634841">
        <ele>671.663</ele>
        <time>2019-06-16T13:25:25Z</time>
      </trkpt>
      <trkpt lat="38.606610" lon="-0.634899">
        <ele>671.198</ele>
        <time>2019-06-16T13:25:26Z</time>
      </trkpt>
      <trkpt lat="38.606606" lon="-0.634970">
        <ele>670.815</ele>
        <time>2019-06-16T13:25:27Z</time>
      </trkpt>
      <trkpt lat="38.606600" lon="-0.635039">
        <ele>670.465</ele>
        <time>2019-06-16T13:25:28Z</time>
      </trkpt>
      <trkpt lat="38.606568" lon="-0.635087">
        <ele>669.611</ele>
        <time>2019-06-16T13:25:29Z</time>
      </trkpt>
      <trkpt lat="38.606561" lon="-0.635157">
        <ele>669.208</ele>
        <time>2019-06-16T13:25:30Z</time>
      </trkpt>
      <trkpt lat="38.606551" lon="-0.635223">
        <ele>668.914</ele>
        <time>2019-06-16T13:25:31Z</time>
      </trkpt>
      <trkpt lat="38.606546" lon="-0.635288">
        <ele>668.718</ele>
        <time>2019-06-16T13:25:32Z</time>
      </trkpt>
      <trkpt lat="38.606538" lon="-0.635361">
        <ele>668.957</ele>
        <time>2019-06-16T13:25:33Z</time>
      </trkpt>
      <trkpt lat="38.606531" lon="-0.635438">
        <ele>669.160</ele>
        <time>2019-06-16T13:25:34Z</time>
      </trkpt>
      <trkpt lat="38.606523" lon="-0.635503">
        <ele>669.372</ele>
        <time>2019-06-16T13:25:35Z</time>
      </trkpt>
      <trkpt lat="38.606527" lon="-0.635565">
        <ele>669.629</ele>
        <time>2019-06-16T13:25:36Z</time>
      </trkpt>
      <trkpt lat="38.606533" lon="-0.635635">
        <ele>670.128</ele>
        <time>2019-06-16T13:25:37Z</time>
      </trkpt>
      <trkpt lat="38.606528" lon="-0.635697">
        <ele>670.563</ele>
        <time>2019-06-16T13:25:38Z</time>
      </trkpt>
      <trkpt lat="38.606528" lon="-0.635768">
        <ele>671.088</ele>
        <time>2019-06-16T13:25:39Z</time>
      </trkpt>
      <trkpt lat="38.606526" lon="-0.635832">
        <ele>671.524</ele>
        <time>2019-06-16T13:25:40Z</time>
      </trkpt>
      <trkpt lat="38.606511" lon="-0.635888">
        <ele>671.426</ele>
        <time>2019-06-16T13:25:41Z</time>
      </trkpt>
      <trkpt lat="38.606509" lon="-0.635957">
        <ele>671.508</ele>
        <time>2019-06-16T13:25:42Z</time>
      </trkpt>
      <trkpt lat="38.606521" lon="-0.636029">
        <ele>671.891</ele>
        <time>2019-06-16T13:25:43Z</time>
      </trkpt>
      <trkpt lat="38.606501" lon="-0.636092">
        <ele>671.635</ele>
        <time>2019-06-16T13:25:44Z</time>
      </trkpt>
      <trkpt lat="38.606497" lon="-0.636156">
        <ele>671.964</ele>
        <time>2019-06-16T13:25:45Z</time>
      </trkpt>
      <trkpt lat="38.606504" lon="-0.636275">
        <ele>672.937</ele>
        <time>2019-06-16T13:25:47Z</time>
      </trkpt>
      <trkpt lat="38.606505" lon="-0.636339">
        <ele>673.439</ele>
        <time>2019-06-16T13:25:48Z</time>
      </trkpt>
      <trkpt lat="38.606524" lon="-0.636401">
        <ele>674.096</ele>
        <time>2019-06-16T13:25:49Z</time>
      </trkpt>
      <trkpt lat="38.606526" lon="-0.636467">
        <ele>674.175</ele>
        <time>2019-06-16T13:25:50Z</time>
      </trkpt>
      <trkpt lat="38.606532" lon="-0.636541">
        <ele>674.380</ele>
        <time>2019-06-16T13:25:51Z</time>
      </trkpt>
      <trkpt lat="38.606533" lon="-0.636606">
        <ele>674.479</ele>
        <time>2019-06-16T13:25:52Z</time>
      </trkpt>
      <trkpt lat="38.606535" lon="-0.636667">
        <ele>674.505</ele>
        <time>2019-06-16T13:25:53Z</time>
      </trkpt>
      <trkpt lat="38.606522" lon="-0.636769">
        <ele>674.325</ele>
        <time>2019-06-16T13:25:55Z</time>
      </trkpt>
      <trkpt lat="38.606536" lon="-0.636832">
        <ele>674.208</ele>
        <time>2019-06-16T13:25:56Z</time>
      </trkpt>
      <trkpt lat="38.606521" lon="-0.636899">
        <ele>674.170</ele>
        <time>2019-06-16T13:25:57Z</time>
      </trkpt>
      <trkpt lat="38.606529" lon="-0.636958">
        <ele>674.044</ele>
        <time>2019-06-16T13:25:58Z</time>
      </trkpt>
      <trkpt lat="38.606554" lon="-0.637074">
        <ele>673.963</ele>
        <time>2019-06-16T13:26:00Z</time>
      </trkpt>
      <trkpt lat="38.606579" lon="-0.637180">
        <ele>673.786</ele>
        <time>2019-06-16T13:26:02Z</time>
      </trkpt>
      <trkpt lat="38.606611" lon="-0.637281">
        <ele>673.458</ele>
        <time>2019-06-16T13:26:04Z</time>
      </trkpt>
      <trkpt lat="38.606628" lon="-0.637343">
        <ele>673.315</ele>
        <time>2019-06-16T13:26:05Z</time>
      </trkpt>
      <trkpt lat="38.606645" lon="-0.637450">
        <ele>673.294</ele>
        <time>2019-06-16T13:26:08Z</time>
      </trkpt>
      <trkpt lat="38.606661" lon="-0.637515">
        <ele>673.179</ele>
        <time>2019-06-16T13:26:09Z</time>
      </trkpt>
      <trkpt lat="38.606670" lon="-0.637572">
        <ele>673.379</ele>
        <time>2019-06-16T13:26:10Z</time>
      </trkpt>
      <trkpt lat="38.606696" lon="-0.637687">
        <ele>673.905</ele>
        <time>2019-06-16T13:26:12Z</time>
      </trkpt>
      <trkpt lat="38.606720" lon="-0.637760">
        <ele>674.325</ele>
        <time>2019-06-16T13:26:13Z</time>
      </trkpt>
      <trkpt lat="38.606731" lon="-0.637820">
        <ele>674.608</ele>
        <time>2019-06-16T13:26:14Z</time>
      </trkpt>
      <trkpt lat="38.606754" lon="-0.637874">
        <ele>675.070</ele>
        <time>2019-06-16T13:26:15Z</time>
      </trkpt>
      <trkpt lat="38.606764" lon="-0.637935">
        <ele>675.394</ele>
        <time>2019-06-16T13:26:16Z</time>
      </trkpt>
      <trkpt lat="38.606766" lon="-0.637995">
        <ele>675.513</ele>
        <time>2019-06-16T13:26:17Z</time>
      </trkpt>
      <trkpt lat="38.606778" lon="-0.638055">
        <ele>675.866</ele>
        <time>2019-06-16T13:26:18Z</time>
      </trkpt>
      <trkpt lat="38.606795" lon="-0.638186">
        <ele>675.948</ele>
        <time>2019-06-16T13:26:20Z</time>
      </trkpt>
      <trkpt lat="38.606801" lon="-0.638318">
        <ele>676.075</ele>
        <time>2019-06-16T13:26:22Z</time>
      </trkpt>
      <trkpt lat="38.606819" lon="-0.638383">
        <ele>676.114</ele>
        <time>2019-06-16T13:26:23Z</time>
      </trkpt>
      <trkpt lat="38.606833" lon="-0.638456">
        <ele>676.269</ele>
        <time>2019-06-16T13:26:24Z</time>
      </trkpt>
      <trkpt lat="38.606868" lon="-0.638568">
        <ele>676.577</ele>
        <time>2019-06-16T13:26:26Z</time>
      </trkpt>
      <trkpt lat="38.606881" lon="-0.638676">
        <ele>676.561</ele>
        <time>2019-06-16T13:26:28Z</time>
      </trkpt>
      <trkpt lat="38.606894" lon="-0.638749">
        <ele>676.627</ele>
        <time>2019-06-16T13:26:29Z</time>
      </trkpt>
      <trkpt lat="38.606914" lon="-0.638809">
        <ele>676.808</ele>
        <time>2019-06-16T13:26:30Z</time>
      </trkpt>
      <trkpt lat="38.606916" lon="-0.638878">
        <ele>676.870</ele>
        <time>2019-06-16T13:26:31Z</time>
      </trkpt>
      <trkpt lat="38.606941" lon="-0.638992">
        <ele>677.014</ele>
        <time>2019-06-16T13:26:33Z</time>
      </trkpt>
      <trkpt lat="38.606950" lon="-0.639055">
        <ele>677.113</ele>
        <time>2019-06-16T13:26:34Z</time>
      </trkpt>
      <trkpt lat="38.606967" lon="-0.639165">
        <ele>677.286</ele>
        <time>2019-06-16T13:26:36Z</time>
      </trkpt>
      <trkpt lat="38.606977" lon="-0.639224">
        <ele>677.198</ele>
        <time>2019-06-16T13:26:37Z</time>
      </trkpt>
      <trkpt lat="38.607002" lon="-0.639324">
        <ele>677.195</ele>
        <time>2019-06-16T13:26:39Z</time>
      </trkpt>
      <trkpt lat="38.607015" lon="-0.639381">
        <ele>677.024</ele>
        <time>2019-06-16T13:26:40Z</time>
      </trkpt>
      <trkpt lat="38.607056" lon="-0.639441">
        <ele>677.279</ele>
        <time>2019-06-16T13:26:41Z</time>
      </trkpt>
      <trkpt lat="38.607072" lon="-0.639501">
        <ele>677.379</ele>
        <time>2019-06-16T13:26:42Z</time>
      </trkpt>
      <trkpt lat="38.607071" lon="-0.639619">
        <ele>677.105</ele>
        <time>2019-06-16T13:26:44Z</time>
      </trkpt>
      <trkpt lat="38.607082" lon="-0.639690">
        <ele>677.025</ele>
        <time>2019-06-16T13:26:45Z</time>
      </trkpt>
      <trkpt lat="38.607110" lon="-0.639821">
        <ele>676.608</ele>
        <time>2019-06-16T13:26:47Z</time>
      </trkpt>
      <trkpt lat="38.607077" lon="-0.639873">
        <ele>676.270</ele>
        <time>2019-06-16T13:26:48Z</time>
      </trkpt>
      <trkpt lat="38.607105" lon="-0.639984">
        <ele>675.724</ele>
        <time>2019-06-16T13:26:49Z</time>
      </trkpt>
      <trkpt lat="38.607113" lon="-0.640048">
        <ele>675.583</ele>
        <time>2019-06-16T13:26:50Z</time>
      </trkpt>
      <trkpt lat="38.607136" lon="-0.640106">
        <ele>675.666</ele>
        <time>2019-06-16T13:26:51Z</time>
      </trkpt>
      <trkpt lat="38.607142" lon="-0.640165">
        <ele>675.528</ele>
        <time>2019-06-16T13:26:52Z</time>
      </trkpt>
      <trkpt lat="38.607157" lon="-0.640255">
        <ele>675.535</ele>
        <time>2019-06-16T13:26:54Z</time>
      </trkpt>
      <trkpt lat="38.607204" lon="-0.640351">
        <ele>676.124</ele>
        <time>2019-06-16T13:26:56Z</time>
      </trkpt>
      <trkpt lat="38.607230" lon="-0.640425">
        <ele>676.649</ele>
        <time>2019-06-16T13:26:58Z</time>
      </trkpt>
      <trkpt lat="38.607238" lon="-0.640491">
        <ele>676.995</ele>
        <time>2019-06-16T13:27:01Z</time>
      </trkpt>
      <trkpt lat="38.607258" lon="-0.640655">
        <ele>677.749</ele>
        <time>2019-06-16T13:27:04Z</time>
      </trkpt>
      <trkpt lat="38.607260" lon="-0.640722">
        <ele>677.923</ele>
        <time>2019-06-16T13:27:05Z</time>
      </trkpt>
      <trkpt lat="38.607277" lon="-0.640777">
        <ele>678.208</ele>
        <time>2019-06-16T13:27:06Z</time>
      </trkpt>
      <trkpt lat="38.607291" lon="-0.640848">
        <ele>678.472</ele>
        <time>2019-06-16T13:27:07Z</time>
      </trkpt>
      <trkpt lat="38.607306" lon="-0.640907">
        <ele>678.256</ele>
        <time>2019-06-16T13:27:08Z</time>
      </trkpt>
      <trkpt lat="38.607317" lon="-0.640966">
        <ele>677.935</ele>
        <time>2019-06-16T13:27:09Z</time>
      </trkpt>
      <trkpt lat="38.607336" lon="-0.641024">
        <ele>677.748</ele>
        <time>2019-06-16T13:27:10Z</time>
      </trkpt>
      <trkpt lat="38.607349" lon="-0.641110">
        <ele>677.480</ele>
        <time>2019-06-16T13:27:11Z</time>
      </trkpt>
      <trkpt lat="38.607349" lon="-0.641177">
        <ele>677.577</ele>
        <time>2019-06-16T13:27:12Z</time>
      </trkpt>
      <trkpt lat="38.607365" lon="-0.641233">
        <ele>677.826</ele>
        <time>2019-06-16T13:27:13Z</time>
      </trkpt>
      <trkpt lat="38.607363" lon="-0.641325">
        <ele>677.931</ele>
        <time>2019-06-16T13:27:15Z</time>
      </trkpt>
      <trkpt lat="38.607378" lon="-0.641385">
        <ele>678.195</ele>
        <time>2019-06-16T13:27:16Z</time>
      </trkpt>
      <trkpt lat="38.607382" lon="-0.641452">
        <ele>678.249</ele>
        <time>2019-06-16T13:27:17Z</time>
      </trkpt>
      <trkpt lat="38.607384" lon="-0.641514">
        <ele>678.423</ele>
        <time>2019-06-16T13:27:18Z</time>
      </trkpt>
      <trkpt lat="38.607404" lon="-0.641613">
        <ele>678.608</ele>
        <time>2019-06-16T13:27:20Z</time>
      </trkpt>
      <trkpt lat="38.607427" lon="-0.641673">
        <ele>678.712</ele>
        <time>2019-06-16T13:27:22Z</time>
      </trkpt>
      <trkpt lat="38.607422" lon="-0.641735">
        <ele>678.866</ele>
        <time>2019-06-16T13:27:25Z</time>
      </trkpt>
      <trkpt lat="38.607418" lon="-0.641813">
        <ele>678.915</ele>
        <time>2019-06-16T13:27:54Z</time>
      </trkpt>
      <trkpt lat="38.607429" lon="-0.641884">
        <ele>678.988</ele>
        <time>2019-06-16T13:27:56Z</time>
      </trkpt>
      <trkpt lat="38.607444" lon="-0.641956">
        <ele>679.080</ele>
        <time>2019-06-16T13:27:58Z</time>
      </trkpt>
      <trkpt lat="38.607462" lon="-0.642022">
        <ele>679.087</ele>
        <time>2019-06-16T13:28:00Z</time>
      </trkpt>
      <trkpt lat="38.607496" lon="-0.642116">
        <ele>679.066</ele>
        <time>2019-06-16T13:28:01Z</time>
      </trkpt>
      <trkpt lat="38.607510" lon="-0.642202">
        <ele>679.091</ele>
        <time>2019-06-16T13:28:04Z</time>
      </trkpt>
      <trkpt lat="38.607508" lon="-0.642267">
        <ele>679.261</ele>
        <time>2019-06-16T13:28:08Z</time>
      </trkpt>
      <trkpt lat="38.607517" lon="-0.642326">
        <ele>679.421</ele>
        <time>2019-06-16T13:28:12Z</time>
      </trkpt>
      <trkpt lat="38.607525" lon="-0.642394">
        <ele>679.713</ele>
        <time>2019-06-16T13:28:14Z</time>
      </trkpt>
      <trkpt lat="38.607543" lon="-0.642466">
        <ele>679.908</ele>
        <time>2019-06-16T13:28:16Z</time>
      </trkpt>
      <trkpt lat="38.607566" lon="-0.642532">
        <ele>680.169</ele>
        <time>2019-06-16T13:28:18Z</time>
      </trkpt>
      <trkpt lat="38.607591" lon="-0.642601">
        <ele>680.523</ele>
        <time>2019-06-16T13:28:20Z</time>
      </trkpt>
      <trkpt lat="38.607615" lon="-0.642668">
        <ele>680.952</ele>
        <time>2019-06-16T13:28:22Z</time>
      </trkpt>
      <trkpt lat="38.607648" lon="-0.642724">
        <ele>681.245</ele>
        <time>2019-06-16T13:28:26Z</time>
      </trkpt>
      <trkpt lat="38.607619" lon="-0.642778">
        <ele>681.467</ele>
        <time>2019-06-16T13:28:33Z</time>
      </trkpt>
      <trkpt lat="38.607589" lon="-0.642733">
        <ele>681.174</ele>
        <time>2019-06-16T13:28:40Z</time>
      </trkpt>
      <trkpt lat="38.607762" lon="-0.643739">
        <ele>681.123</ele>
        <time>2019-06-16T13:28:44Z</time>
      </trkpt>
      <trkpt lat="38.607779" lon="-0.643808">
        <ele>680.698</ele>
        <time>2019-06-16T13:28:45Z</time>
      </trkpt>
      <trkpt lat="38.607778" lon="-0.643903">
        <ele>680.146</ele>
        <time>2019-06-16T13:28:47Z</time>
      </trkpt>
      <trkpt lat="38.607844" lon="-0.644055">
        <ele>680.388</ele>
        <time>2019-06-16T13:28:49Z</time>
      </trkpt>
      <trkpt lat="38.607870" lon="-0.644171">
        <ele>680.416</ele>
        <time>2019-06-16T13:28:50Z</time>
      </trkpt>
      <trkpt lat="38.607897" lon="-0.644235">
        <ele>680.408</ele>
        <time>2019-06-16T13:28:51Z</time>
      </trkpt>
      <trkpt lat="38.607923" lon="-0.644337">
        <ele>680.627</ele>
        <time>2019-06-16T13:28:53Z</time>
      </trkpt>
      <trkpt lat="38.607935" lon="-0.644396">
        <ele>680.711</ele>
        <time>2019-06-16T13:28:54Z</time>
      </trkpt>
      <trkpt lat="38.607949" lon="-0.644517">
        <ele>680.920</ele>
        <time>2019-06-16T13:28:56Z</time>
      </trkpt>
      <trkpt lat="38.607941" lon="-0.644596">
        <ele>681.053</ele>
        <time>2019-06-16T13:28:58Z</time>
      </trkpt>
      <trkpt lat="38.607946" lon="-0.644665">
        <ele>681.165</ele>
        <time>2019-06-16T13:28:59Z</time>
      </trkpt>
      <trkpt lat="38.607960" lon="-0.644731">
        <ele>681.062</ele>
        <time>2019-06-16T13:29:00Z</time>
      </trkpt>
      <trkpt lat="38.607980" lon="-0.644802">
        <ele>680.771</ele>
        <time>2019-06-16T13:29:01Z</time>
      </trkpt>
      <trkpt lat="38.608007" lon="-0.644938">
        <ele>680.446</ele>
        <time>2019-06-16T13:29:03Z</time>
      </trkpt>
      <trkpt lat="38.607996" lon="-0.645001">
        <ele>680.499</ele>
        <time>2019-06-16T13:29:04Z</time>
      </trkpt>
      <trkpt lat="38.607999" lon="-0.645117">
        <ele>680.407</ele>
        <time>2019-06-16T13:29:06Z</time>
      </trkpt>
      <trkpt lat="38.608019" lon="-0.645193">
        <ele>680.327</ele>
        <time>2019-06-16T13:29:07Z</time>
      </trkpt>
      <trkpt lat="38.608039" lon="-0.645262">
        <ele>680.108</ele>
        <time>2019-06-16T13:29:08Z</time>
      </trkpt>
      <trkpt lat="38.608024" lon="-0.645340">
        <ele>680.432</ele>
        <time>2019-06-16T13:30:26Z</time>
      </trkpt>
      <trkpt lat="38.608028" lon="-0.645423">
        <ele>680.786</ele>
        <time>2019-06-16T13:30:28Z</time>
      </trkpt>
      <trkpt lat="38.608026" lon="-0.645500">
        <ele>680.975</ele>
        <time>2019-06-16T13:30:30Z</time>
      </trkpt>
      <trkpt lat="38.608029" lon="-0.645562">
        <ele>681.138</ele>
        <time>2019-06-16T13:30:33Z</time>
      </trkpt>
      <trkpt lat="38.608068" lon="-0.645690">
        <ele>680.540</ele>
        <time>2019-06-16T13:31:13Z</time>
      </trkpt>
      <trkpt lat="38.608073" lon="-0.645782">
        <ele>680.187</ele>
        <time>2019-06-16T13:31:16Z</time>
      </trkpt>
      <trkpt lat="38.608089" lon="-0.645908">
        <ele>679.596</ele>
        <time>2019-06-16T13:31:17Z</time>
      </trkpt>
      <trkpt lat="38.608103" lon="-0.645973">
        <ele>679.121</ele>
        <time>2019-06-16T13:31:18Z</time>
      </trkpt>
      <trkpt lat="38.608111" lon="-0.646037">
        <ele>678.722</ele>
        <time>2019-06-16T13:31:20Z</time>
      </trkpt>
      <trkpt lat="38.608115" lon="-0.646096">
        <ele>678.462</ele>
        <time>2019-06-16T13:31:22Z</time>
      </trkpt>
      <trkpt lat="38.608121" lon="-0.646163">
        <ele>678.008</ele>
        <time>2019-06-16T13:31:25Z</time>
      </trkpt>
      <trkpt lat="38.608137" lon="-0.646303">
        <ele>677.008</ele>
        <time>2019-06-16T13:31:28Z</time>
      </trkpt>
      <trkpt lat="38.608140" lon="-0.646386">
        <ele>676.595</ele>
        <time>2019-06-16T13:31:29Z</time>
      </trkpt>
      <trkpt lat="38.608133" lon="-0.646494">
        <ele>676.039</ele>
        <time>2019-06-16T13:31:31Z</time>
      </trkpt>
      <trkpt lat="38.608106" lon="-0.646586">
        <ele>675.828</ele>
        <time>2019-06-16T13:31:33Z</time>
      </trkpt>
      <trkpt lat="38.608090" lon="-0.646747">
        <ele>675.511</ele>
        <time>2019-06-16T13:31:34Z</time>
      </trkpt>
      <trkpt lat="38.608050" lon="-0.646778">
        <ele>676.133</ele>
        <time>2019-06-16T13:31:38Z</time>
      </trkpt>
      <trkpt lat="38.608068" lon="-0.646838">
        <ele>675.890</ele>
        <time>2019-06-16T13:31:43Z</time>
      </trkpt>
      <trkpt lat="38.608073" lon="-0.646897">
        <ele>675.869</ele>
        <time>2019-06-16T13:31:46Z</time>
      </trkpt>
      <trkpt lat="38.608089" lon="-0.646959">
        <ele>675.694</ele>
        <time>2019-06-16T13:31:47Z</time>
      </trkpt>
      <trkpt lat="38.608104" lon="-0.647023">
        <ele>675.561</ele>
        <time>2019-06-16T13:31:48Z</time>
      </trkpt>
      <trkpt lat="38.608157" lon="-0.647250">
        <ele>675.221</ele>
        <time>2019-06-16T13:31:49Z</time>
      </trkpt>
      <trkpt lat="38.608156" lon="-0.647333">
        <ele>675.013</ele>
        <time>2019-06-16T13:31:50Z</time>
      </trkpt>
      <trkpt lat="38.608167" lon="-0.647447">
        <ele>674.708</ele>
        <time>2019-06-16T13:31:51Z</time>
      </trkpt>
      <trkpt lat="38.608181" lon="-0.647533">
        <ele>674.419</ele>
        <time>2019-06-16T13:31:52Z</time>
      </trkpt>
      <trkpt lat="38.608182" lon="-0.647645">
        <ele>673.783</ele>
        <time>2019-06-16T13:31:54Z</time>
      </trkpt>
      <trkpt lat="38.608167" lon="-0.647706">
        <ele>673.482</ele>
        <time>2019-06-16T13:31:57Z</time>
      </trkpt>
      <trkpt lat="38.608157" lon="-0.647789">
        <ele>672.965</ele>
        <time>2019-06-16T13:32:01Z</time>
      </trkpt>
      <trkpt lat="38.608130" lon="-0.647852">
        <ele>672.787</ele>
        <time>2019-06-16T13:32:03Z</time>
      </trkpt>
      <trkpt lat="38.608114" lon="-0.647980">
        <ele>672.124</ele>
        <time>2019-06-16T13:32:04Z</time>
      </trkpt>
      <trkpt lat="38.608117" lon="-0.648040">
        <ele>671.883</ele>
        <time>2019-06-16T13:32:05Z</time>
      </trkpt>
      <trkpt lat="38.608065" lon="-0.648070">
        <ele>672.098</ele>
        <time>2019-06-16T13:32:06Z</time>
      </trkpt>
      <trkpt lat="38.608077" lon="-0.648165">
        <ele>671.977</ele>
        <time>2019-06-16T13:32:07Z</time>
      </trkpt>
      <trkpt lat="38.608017" lon="-0.648413">
        <ele>671.661</ele>
        <time>2019-06-16T13:32:11Z</time>
      </trkpt>
      <trkpt lat="38.607989" lon="-0.648472">
        <ele>671.327</ele>
        <time>2019-06-16T13:32:12Z</time>
      </trkpt>
      <trkpt lat="38.607920" lon="-0.648562">
        <ele>670.708</ele>
        <time>2019-06-16T13:32:14Z</time>
      </trkpt>
      <trkpt lat="38.607895" lon="-0.648623">
        <ele>670.490</ele>
        <time>2019-06-16T13:32:15Z</time>
      </trkpt>
      <trkpt lat="38.607847" lon="-0.648659">
        <ele>670.214</ele>
        <time>2019-06-16T13:32:16Z</time>
      </trkpt>
      <trkpt lat="38.607781" lon="-0.648667">
        <ele>670.063</ele>
        <time>2019-06-16T13:32:17Z</time>
      </trkpt>
      <trkpt lat="38.607704" lon="-0.648686">
        <ele>669.946</ele>
        <time>2019-06-16T13:32:18Z</time>
      </trkpt>
      <trkpt lat="38.607744" lon="-0.648733">
        <ele>669.938</ele>
        <time>2019-06-16T13:32:19Z</time>
      </trkpt>
      <trkpt lat="38.607743" lon="-0.648843">
        <ele>669.935</ele>
        <time>2019-06-16T13:32:20Z</time>
      </trkpt>
      <trkpt lat="38.607753" lon="-0.648926">
        <ele>669.944</ele>
        <time>2019-06-16T13:32:21Z</time>
      </trkpt>
      <trkpt lat="38.607742" lon="-0.649030">
        <ele>669.939</ele>
        <time>2019-06-16T13:32:22Z</time>
      </trkpt>
      <trkpt lat="38.607678" lon="-0.649098">
        <ele>669.668</ele>
        <time>2019-06-16T13:32:23Z</time>
      </trkpt>
      <trkpt lat="38.607624" lon="-0.649164">
        <ele>669.442</ele>
        <time>2019-06-16T13:32:24Z</time>
      </trkpt>
      <trkpt lat="38.607596" lon="-0.649221">
        <ele>669.026</ele>
        <time>2019-06-16T13:32:25Z</time>
      </trkpt>
      <trkpt lat="38.607559" lon="-0.649283">
        <ele>668.508</ele>
        <time>2019-06-16T13:32:26Z</time>
      </trkpt>
      <trkpt lat="38.607525" lon="-0.649344">
        <ele>667.939</ele>
        <time>2019-06-16T13:32:27Z</time>
      </trkpt>
      <trkpt lat="38.607565" lon="-0.649429">
        <ele>667.643</ele>
        <time>2019-06-16T13:32:29Z</time>
      </trkpt>
      <trkpt lat="38.607571" lon="-0.649505">
        <ele>667.032</ele>
        <time>2019-06-16T13:32:30Z</time>
      </trkpt>
      <trkpt lat="38.607476" lon="-0.649556">
        <ele>666.225</ele>
        <time>2019-06-16T13:32:31Z</time>
      </trkpt>
      <trkpt lat="38.607443" lon="-0.649603">
        <ele>665.957</ele>
        <time>2019-06-16T13:32:32Z</time>
      </trkpt>
      <trkpt lat="38.607403" lon="-0.649693">
        <ele>665.264</ele>
        <time>2019-06-16T13:32:33Z</time>
      </trkpt>
      <trkpt lat="38.607300" lon="-0.649793">
        <ele>664.743</ele>
        <time>2019-06-16T13:32:35Z</time>
      </trkpt>
      <trkpt lat="38.607276" lon="-0.649899">
        <ele>664.258</ele>
        <time>2019-06-16T13:32:36Z</time>
      </trkpt>
      <trkpt lat="38.607182" lon="-0.650015">
        <ele>664.199</ele>
        <time>2019-06-16T13:32:37Z</time>
      </trkpt>
      <trkpt lat="38.607106" lon="-0.650105">
        <ele>664.207</ele>
        <time>2019-06-16T13:32:38Z</time>
      </trkpt>
      <trkpt lat="38.607024" lon="-0.650193">
        <ele>664.527</ele>
        <time>2019-06-16T13:32:39Z</time>
      </trkpt>
      <trkpt lat="38.606971" lon="-0.650326">
        <ele>664.808</ele>
        <time>2019-06-16T13:32:41Z</time>
      </trkpt>
      <trkpt lat="38.606915" lon="-0.650375">
        <ele>665.182</ele>
        <time>2019-06-16T13:32:42Z</time>
      </trkpt>
      <trkpt lat="38.606934" lon="-0.650453">
        <ele>665.016</ele>
        <time>2019-06-16T13:32:43Z</time>
      </trkpt>
      <trkpt lat="38.606903" lon="-0.650569">
        <ele>665.015</ele>
        <time>2019-06-16T13:32:45Z</time>
      </trkpt>
      <trkpt lat="38.606854" lon="-0.650642">
        <ele>664.788</ele>
        <time>2019-06-16T13:32:46Z</time>
      </trkpt>
      <trkpt lat="38.606776" lon="-0.650653">
        <ele>664.630</ele>
        <time>2019-06-16T13:32:47Z</time>
      </trkpt>
      <trkpt lat="38.606760" lon="-0.650752">
        <ele>664.337</ele>
        <time>2019-06-16T13:32:48Z</time>
      </trkpt>
      <trkpt lat="38.606670" lon="-0.650814">
        <ele>664.126</ele>
        <time>2019-06-16T13:32:49Z</time>
      </trkpt>
      <trkpt lat="38.606630" lon="-0.650925">
        <ele>663.641</ele>
        <time>2019-06-16T13:32:50Z</time>
      </trkpt>
      <trkpt lat="38.606579" lon="-0.651009">
        <ele>663.266</ele>
        <time>2019-06-16T13:32:51Z</time>
      </trkpt>
      <trkpt lat="38.606531" lon="-0.651093">
        <ele>662.629</ele>
        <time>2019-06-16T13:32:52Z</time>
      </trkpt>
      <trkpt lat="38.606555" lon="-0.651237">
        <ele>662.121</ele>
        <time>2019-06-16T13:32:53Z</time>
      </trkpt>
      <trkpt lat="38.606459" lon="-0.651310">
        <ele>661.508</ele>
        <time>2019-06-16T13:32:54Z</time>
      </trkpt>
      <trkpt lat="38.606391" lon="-0.651361">
        <ele>661.149</ele>
        <time>2019-06-16T13:32:55Z</time>
      </trkpt>
      <trkpt lat="38.606366" lon="-0.651483">
        <ele>660.643</ele>
        <time>2019-06-16T13:32:56Z</time>
      </trkpt>
      <trkpt lat="38.606324" lon="-0.651512">
        <ele>660.412</ele>
        <time>2019-06-16T13:32:57Z</time>
      </trkpt>
      <trkpt lat="38.606312" lon="-0.651582">
        <ele>660.265</ele>
        <time>2019-06-16T13:32:58Z</time>
      </trkpt>
      <trkpt lat="38.606280" lon="-0.651741">
        <ele>660.097</ele>
        <time>2019-06-16T13:33:00Z</time>
      </trkpt>
      <trkpt lat="38.606215" lon="-0.651830">
        <ele>660.014</ele>
        <time>2019-06-16T13:33:02Z</time>
      </trkpt>
      <trkpt lat="38.606248" lon="-0.651952">
        <ele>660.053</ele>
        <time>2019-06-16T13:33:03Z</time>
      </trkpt>
      <trkpt lat="38.606191" lon="-0.652011">
        <ele>659.868</ele>
        <time>2019-06-16T13:33:04Z</time>
      </trkpt>
      <trkpt lat="38.606147" lon="-0.652139">
        <ele>659.337</ele>
        <time>2019-06-16T13:33:05Z</time>
      </trkpt>
      <trkpt lat="38.606110" lon="-0.652197">
        <ele>659.149</ele>
        <time>2019-06-16T13:33:06Z</time>
      </trkpt>
      <trkpt lat="38.606074" lon="-0.652253">
        <ele>659.113</ele>
        <time>2019-06-16T13:33:07Z</time>
      </trkpt>
      <trkpt lat="38.606060" lon="-0.652327">
        <ele>659.008</ele>
        <time>2019-06-16T13:33:08Z</time>
      </trkpt>
      <trkpt lat="38.606030" lon="-0.652386">
        <ele>658.946</ele>
        <time>2019-06-16T13:33:09Z</time>
      </trkpt>
      <trkpt lat="38.605987" lon="-0.652496">
        <ele>658.620</ele>
        <time>2019-06-16T13:33:10Z</time>
      </trkpt>
      <trkpt lat="38.605906" lon="-0.652530">
        <ele>658.239</ele>
        <time>2019-06-16T13:33:11Z</time>
      </trkpt>
      <trkpt lat="38.605845" lon="-0.652592">
        <ele>657.762</ele>
        <time>2019-06-16T13:33:12Z</time>
      </trkpt>
      <trkpt lat="38.605746" lon="-0.652644">
        <ele>657.694</ele>
        <time>2019-06-16T13:33:13Z</time>
      </trkpt>
      <trkpt lat="38.605740" lon="-0.652716">
        <ele>657.341</ele>
        <time>2019-06-16T13:33:14Z</time>
      </trkpt>
      <trkpt lat="38.605789" lon="-0.652743">
        <ele>657.190</ele>
        <time>2019-06-16T13:33:15Z</time>
      </trkpt>
      <trkpt lat="38.605841" lon="-0.652817">
        <ele>656.955</ele>
        <time>2019-06-16T13:33:16Z</time>
      </trkpt>
      <trkpt lat="38.605872" lon="-0.653004">
        <ele>656.317</ele>
        <time>2019-06-16T13:33:18Z</time>
      </trkpt>
      <trkpt lat="38.605761" lon="-0.653090">
        <ele>655.987</ele>
        <time>2019-06-16T13:33:20Z</time>
      </trkpt>
      <trkpt lat="38.605594" lon="-0.653191">
        <ele>655.515</ele>
        <time>2019-06-16T13:33:21Z</time>
      </trkpt>
      <trkpt lat="38.605609" lon="-0.653276">
        <ele>655.208</ele>
        <time>2019-06-16T13:33:22Z</time>
      </trkpt>
      <trkpt lat="38.605568" lon="-0.653365">
        <ele>654.974</ele>
        <time>2019-06-16T13:33:23Z</time>
      </trkpt>
      <trkpt lat="38.605476" lon="-0.653444">
        <ele>654.778</ele>
        <time>2019-06-16T13:33:24Z</time>
      </trkpt>
      <trkpt lat="38.605426" lon="-0.653476">
        <ele>654.547</ele>
        <time>2019-06-16T13:33:25Z</time>
      </trkpt>
      <trkpt lat="38.605373" lon="-0.653524">
        <ele>654.150</ele>
        <time>2019-06-16T13:33:26Z</time>
      </trkpt>
      <trkpt lat="38.605297" lon="-0.653560">
        <ele>653.662</ele>
        <time>2019-06-16T13:33:28Z</time>
      </trkpt>
      <trkpt lat="38.605338" lon="-0.653616">
        <ele>653.229</ele>
        <time>2019-06-16T13:33:29Z</time>
      </trkpt>
      <trkpt lat="38.605302" lon="-0.653656">
        <ele>653.128</ele>
        <time>2019-06-16T13:33:30Z</time>
      </trkpt>
      <trkpt lat="38.605243" lon="-0.653730">
        <ele>653.113</ele>
        <time>2019-06-16T13:33:31Z</time>
      </trkpt>
      <trkpt lat="38.605123" lon="-0.653838">
        <ele>653.191</ele>
        <time>2019-06-16T13:33:32Z</time>
      </trkpt>
      <trkpt lat="38.605044" lon="-0.653936">
        <ele>652.981</ele>
        <time>2019-06-16T13:33:33Z</time>
      </trkpt>
      <trkpt lat="38.605000" lon="-0.653965">
        <ele>652.719</ele>
        <time>2019-06-16T13:33:35Z</time>
      </trkpt>
      <trkpt lat="38.604894" lon="-0.654019">
        <ele>652.108</ele>
        <time>2019-06-16T13:33:36Z</time>
      </trkpt>
      <trkpt lat="38.604852" lon="-0.654154">
        <ele>651.542</ele>
        <time>2019-06-16T13:33:37Z</time>
      </trkpt>
      <trkpt lat="38.604761" lon="-0.654250">
        <ele>650.976</ele>
        <time>2019-06-16T13:33:38Z</time>
      </trkpt>
      <trkpt lat="38.604695" lon="-0.654286">
        <ele>650.735</ele>
        <time>2019-06-16T13:33:39Z</time>
      </trkpt>
      <trkpt lat="38.604588" lon="-0.654470">
        <ele>650.518</ele>
        <time>2019-06-16T13:33:40Z</time>
      </trkpt>
      <trkpt lat="38.604507" lon="-0.654544">
        <ele>650.810</ele>
        <time>2019-06-16T13:33:41Z</time>
      </trkpt>
      <trkpt lat="38.604516" lon="-0.654653">
        <ele>650.737</ele>
        <time>2019-06-16T13:33:42Z</time>
      </trkpt>
      <trkpt lat="38.604434" lon="-0.654688">
        <ele>651.066</ele>
        <time>2019-06-16T13:33:43Z</time>
      </trkpt>
      <trkpt lat="38.604353" lon="-0.654829">
        <ele>650.971</ele>
        <time>2019-06-16T13:33:44Z</time>
      </trkpt>
      <trkpt lat="38.604288" lon="-0.654882">
        <ele>650.796</ele>
        <time>2019-06-16T13:33:45Z</time>
      </trkpt>
      <trkpt lat="38.604314" lon="-0.654970">
        <ele>650.631</ele>
        <time>2019-06-16T13:33:46Z</time>
      </trkpt>
      <trkpt lat="38.604252" lon="-0.655033">
        <ele>650.424</ele>
        <time>2019-06-16T13:33:47Z</time>
      </trkpt>
      <trkpt lat="38.604134" lon="-0.655008">
        <ele>650.008</ele>
        <time>2019-06-16T13:33:48Z</time>
      </trkpt>
      <trkpt lat="38.604069" lon="-0.655026">
        <ele>650.122</ele>
        <time>2019-06-16T13:33:49Z</time>
      </trkpt>
      <trkpt lat="38.604024" lon="-0.655060">
        <ele>650.176</ele>
        <time>2019-06-16T13:33:50Z</time>
      </trkpt>
      <trkpt lat="38.603943" lon="-0.655162">
        <ele>650.145</ele>
        <time>2019-06-16T13:33:51Z</time>
      </trkpt>
      <trkpt lat="38.603948" lon="-0.655231">
        <ele>650.258</ele>
        <time>2019-06-16T13:33:52Z</time>
      </trkpt>
      <trkpt lat="38.603842" lon="-0.655264">
        <ele>649.790</ele>
        <time>2019-06-16T13:33:53Z</time>
      </trkpt>
      <trkpt lat="38.603773" lon="-0.655347">
        <ele>648.947</ele>
        <time>2019-06-16T13:33:54Z</time>
      </trkpt>
      <trkpt lat="38.603717" lon="-0.655427">
        <ele>648.216</ele>
        <time>2019-06-16T13:33:55Z</time>
      </trkpt>
      <trkpt lat="38.603704" lon="-0.655510">
        <ele>647.811</ele>
        <time>2019-06-16T13:33:56Z</time>
      </trkpt>
      <trkpt lat="38.603749" lon="-0.655590">
        <ele>647.997</ele>
        <time>2019-06-16T13:33:57Z</time>
      </trkpt>
      <trkpt lat="38.603718" lon="-0.655638">
        <ele>647.723</ele>
        <time>2019-06-16T13:33:58Z</time>
      </trkpt>
      <trkpt lat="38.603739" lon="-0.655725">
        <ele>647.625</ele>
        <time>2019-06-16T13:34:00Z</time>
      </trkpt>
      <trkpt lat="38.603694" lon="-0.655797">
        <ele>647.308</ele>
        <time>2019-06-16T13:34:01Z</time>
      </trkpt>
      <trkpt lat="38.603617" lon="-0.655847">
        <ele>647.042</ele>
        <time>2019-06-16T13:34:02Z</time>
      </trkpt>
      <trkpt lat="38.603494" lon="-0.655897">
        <ele>646.796</ele>
        <time>2019-06-16T13:34:03Z</time>
      </trkpt>
      <trkpt lat="38.603509" lon="-0.655985">
        <ele>646.845</ele>
        <time>2019-06-16T13:34:04Z</time>
      </trkpt>
      <trkpt lat="38.603482" lon="-0.656084">
        <ele>647.098</ele>
        <time>2019-06-16T13:34:05Z</time>
      </trkpt>
      <trkpt lat="38.603405" lon="-0.656073">
        <ele>646.920</ele>
        <time>2019-06-16T13:34:06Z</time>
      </trkpt>
      <trkpt lat="38.603340" lon="-0.656141">
        <ele>647.097</ele>
        <time>2019-06-16T13:34:07Z</time>
      </trkpt>
      <trkpt lat="38.603305" lon="-0.656207">
        <ele>647.066</ele>
        <time>2019-06-16T13:34:08Z</time>
      </trkpt>
      <trkpt lat="38.603259" lon="-0.656272">
        <ele>647.011</ele>
        <time>2019-06-16T13:34:09Z</time>
      </trkpt>
      <trkpt lat="38.603211" lon="-0.656359">
        <ele>647.062</ele>
        <time>2019-06-16T13:34:10Z</time>
      </trkpt>
      <trkpt lat="38.603179" lon="-0.656465">
        <ele>646.783</ele>
        <time>2019-06-16T13:34:12Z</time>
      </trkpt>
      <trkpt lat="38.603134" lon="-0.656499">
        <ele>646.611</ele>
        <time>2019-06-16T13:34:13Z</time>
      </trkpt>
      <trkpt lat="38.603086" lon="-0.656588">
        <ele>646.308</ele>
        <time>2019-06-16T13:34:15Z</time>
      </trkpt>
      <trkpt lat="38.603038" lon="-0.656664">
        <ele>646.159</ele>
        <time>2019-06-16T13:34:17Z</time>
      </trkpt>
      <trkpt lat="38.603015" lon="-0.656738">
        <ele>646.153</ele>
        <time>2019-06-16T13:34:20Z</time>
      </trkpt>
      <trkpt lat="38.602976" lon="-0.656818">
        <ele>646.112</ele>
        <time>2019-06-16T13:34:21Z</time>
      </trkpt>
      <trkpt lat="38.602928" lon="-0.656905">
        <ele>646.165</ele>
        <time>2019-06-16T13:34:23Z</time>
      </trkpt>
      <trkpt lat="38.602902" lon="-0.656960">
        <ele>645.977</ele>
        <time>2019-06-16T13:34:24Z</time>
      </trkpt>
      <trkpt lat="38.602876" lon="-0.657014">
        <ele>645.854</ele>
        <time>2019-06-16T13:34:25Z</time>
      </trkpt>
      <trkpt lat="38.602851" lon="-0.657062">
        <ele>645.673</ele>
        <time>2019-06-16T13:34:26Z</time>
      </trkpt>
      <trkpt lat="38.602815" lon="-0.657113">
        <ele>645.488</ele>
        <time>2019-06-16T13:34:27Z</time>
      </trkpt>
      <trkpt lat="38.602789" lon="-0.657196">
        <ele>645.145</ele>
        <time>2019-06-16T13:34:29Z</time>
      </trkpt>
      <trkpt lat="38.602805" lon="-0.657267">
        <ele>645.047</ele>
        <time>2019-06-16T13:34:31Z</time>
      </trkpt>
      <trkpt lat="38.602758" lon="-0.657334">
        <ele>645.011</ele>
        <time>2019-06-16T13:34:34Z</time>
      </trkpt>
      <trkpt lat="38.602655" lon="-0.657416">
        <ele>645.008</ele>
        <time>2019-06-16T13:34:35Z</time>
      </trkpt>
      <trkpt lat="38.602591" lon="-0.657448">
        <ele>645.037</ele>
        <time>2019-06-16T13:34:36Z</time>
      </trkpt>
      <trkpt lat="38.602576" lon="-0.657510">
        <ele>645.091</ele>
        <time>2019-06-16T13:34:39Z</time>
      </trkpt>
      <trkpt lat="38.602601" lon="-0.657562">
        <ele>644.870</ele>
        <time>2019-06-16T13:34:41Z</time>
      </trkpt>
      <trkpt lat="38.602557" lon="-0.657629">
        <ele>644.553</ele>
        <time>2019-06-16T13:34:44Z</time>
      </trkpt>
      <trkpt lat="38.602481" lon="-0.657662">
        <ele>644.495</ele>
        <time>2019-06-16T13:34:47Z</time>
      </trkpt>
      <trkpt lat="38.602335" lon="-0.657737">
        <ele>644.052</ele>
        <time>2019-06-16T13:34:49Z</time>
      </trkpt>
      <trkpt lat="38.602283" lon="-0.657805">
        <ele>644.061</ele>
        <time>2019-06-16T13:34:50Z</time>
      </trkpt>
      <trkpt lat="38.602227" lon="-0.657805">
        <ele>644.016</ele>
        <time>2019-06-16T13:34:51Z</time>
      </trkpt>
      <trkpt lat="38.602167" lon="-0.657868">
        <ele>643.977</ele>
        <time>2019-06-16T13:34:52Z</time>
      </trkpt>
      <trkpt lat="38.602078" lon="-0.657854">
        <ele>643.661</ele>
        <time>2019-06-16T13:34:53Z</time>
      </trkpt>
      <trkpt lat="38.601949" lon="-0.657914">
        <ele>643.527</ele>
        <time>2019-06-16T13:34:54Z</time>
      </trkpt>
      <trkpt lat="38.601899" lon="-0.658008">
        <ele>643.508</ele>
        <time>2019-06-16T13:34:55Z</time>
      </trkpt>
      <trkpt lat="38.601836" lon="-0.658118">
        <ele>643.130</ele>
        <time>2019-06-16T13:34:56Z</time>
      </trkpt>
      <trkpt lat="38.601719" lon="-0.658141">
        <ele>642.164</ele>
        <time>2019-06-16T13:34:57Z</time>
      </trkpt>
      <trkpt lat="38.601627" lon="-0.658239">
        <ele>641.223</ele>
        <time>2019-06-16T13:34:59Z</time>
      </trkpt>
      <trkpt lat="38.601580" lon="-0.658354">
        <ele>640.786</ele>
        <time>2019-06-16T13:35:00Z</time>
      </trkpt>
      <trkpt lat="38.601499" lon="-0.658454">
        <ele>640.188</ele>
        <time>2019-06-16T13:35:01Z</time>
      </trkpt>
      <trkpt lat="38.601502" lon="-0.658565">
        <ele>639.955</ele>
        <time>2019-06-16T13:35:02Z</time>
      </trkpt>
      <trkpt lat="38.601407" lon="-0.658666">
        <ele>639.354</ele>
        <time>2019-06-16T13:35:03Z</time>
      </trkpt>
      <trkpt lat="38.601355" lon="-0.658771">
        <ele>639.859</ele>
        <time>2019-06-16T13:35:04Z</time>
      </trkpt>
      <trkpt lat="38.601337" lon="-0.658888">
        <ele>640.482</ele>
        <time>2019-06-16T13:35:05Z</time>
      </trkpt>
      <trkpt lat="38.601323" lon="-0.659039">
        <ele>640.943</ele>
        <time>2019-06-16T13:35:06Z</time>
      </trkpt>
      <trkpt lat="38.601235" lon="-0.659129">
        <ele>641.517</ele>
        <time>2019-06-16T13:35:07Z</time>
      </trkpt>
      <trkpt lat="38.601155" lon="-0.659198">
        <ele>641.808</ele>
        <time>2019-06-16T13:35:08Z</time>
      </trkpt>
      <trkpt lat="38.601101" lon="-0.659257">
        <ele>642.031</ele>
        <time>2019-06-16T13:35:09Z</time>
      </trkpt>
      <trkpt lat="38.601045" lon="-0.659345">
        <ele>642.125</ele>
        <time>2019-06-16T13:35:10Z</time>
      </trkpt>
      <trkpt lat="38.600997" lon="-0.659418">
        <ele>642.064</ele>
        <time>2019-06-16T13:35:11Z</time>
      </trkpt>
      <trkpt lat="38.600931" lon="-0.659470">
        <ele>641.847</ele>
        <time>2019-06-16T13:35:12Z</time>
      </trkpt>
      <trkpt lat="38.600869" lon="-0.659546">
        <ele>641.379</ele>
        <time>2019-06-16T13:35:13Z</time>
      </trkpt>
      <trkpt lat="38.600819" lon="-0.659619">
        <ele>640.676</ele>
        <time>2019-06-16T13:35:14Z</time>
      </trkpt>
      <trkpt lat="38.600776" lon="-0.659676">
        <ele>639.795</ele>
        <time>2019-06-16T13:35:15Z</time>
      </trkpt>
      <trkpt lat="38.600728" lon="-0.659749">
        <ele>638.780</ele>
        <time>2019-06-16T13:35:16Z</time>
      </trkpt>
      <trkpt lat="38.600670" lon="-0.659833">
        <ele>637.412</ele>
        <time>2019-06-16T13:35:18Z</time>
      </trkpt>
      <trkpt lat="38.600638" lon="-0.659889">
        <ele>636.732</ele>
        <time>2019-06-16T13:35:20Z</time>
      </trkpt>
      <trkpt lat="38.600590" lon="-0.659874">
        <ele>636.305</ele>
        <time>2019-06-16T13:35:21Z</time>
      </trkpt>
      <trkpt lat="38.600555" lon="-0.659948">
        <ele>635.408</ele>
        <time>2019-06-16T13:35:25Z</time>
      </trkpt>
      <trkpt lat="38.600521" lon="-0.660014">
        <ele>635.094</ele>
        <time>2019-06-16T13:35:28Z</time>
      </trkpt>
      <trkpt lat="38.600514" lon="-0.660099">
        <ele>635.128</ele>
        <time>2019-06-16T13:35:30Z</time>
      </trkpt>
      <trkpt lat="38.600512" lon="-0.660195">
        <ele>635.157</ele>
        <time>2019-06-16T13:35:32Z</time>
      </trkpt>
      <trkpt lat="38.600558" lon="-0.660175">
        <ele>635.060</ele>
        <time>2019-06-16T13:35:39Z</time>
      </trkpt>
      <trkpt lat="38.600530" lon="-0.660104">
        <ele>635.012</ele>
        <time>2019-06-16T13:41:15Z</time>
      </trkpt>
      <trkpt lat="38.600492" lon="-0.660033">
        <ele>635.069</ele>
        <time>2019-06-16T13:41:17Z</time>
      </trkpt>
      <trkpt lat="38.600452" lon="-0.659954">
        <ele>635.398</ele>
        <time>2019-06-16T13:41:19Z</time>
      </trkpt>
      <trkpt lat="38.600422" lon="-0.659904">
        <ele>635.793</ele>
        <time>2019-06-16T13:41:20Z</time>
      </trkpt>
      <trkpt lat="38.600371" lon="-0.659814">
        <ele>636.329</ele>
        <time>2019-06-16T13:41:22Z</time>
      </trkpt>
      <trkpt lat="38.600327" lon="-0.659734">
        <ele>636.900</ele>
        <time>2019-06-16T13:41:24Z</time>
      </trkpt>
      <trkpt lat="38.600293" lon="-0.659677">
        <ele>637.220</ele>
        <time>2019-06-16T13:41:26Z</time>
      </trkpt>
      <trkpt lat="38.600293" lon="-0.659677">
        <ele>637.208</ele>
        <time>2019-06-16T13:41:26Z</time>
      </trkpt>
      <trkpt lat="38.600254" lon="-0.659632">
        <ele>637.365</ele>
        <time>2019-06-16T13:41:30Z</time>
      </trkpt>
      <trkpt lat="38.600302" lon="-0.659711">
        <ele>637.099</ele>
        <time>2019-06-16T13:41:49Z</time>
      </trkpt>
      <trkpt lat="38.600395" lon="-0.659826">
        <ele>636.318</ele>
        <time>2019-06-16T13:41:51Z</time>
      </trkpt>
      <trkpt lat="38.600421" lon="-0.659875">
        <ele>635.961</ele>
        <time>2019-06-16T13:41:52Z</time>
      </trkpt>
      <trkpt lat="38.600446" lon="-0.659924">
        <ele>635.563</ele>
        <time>2019-06-16T13:41:53Z</time>
      </trkpt>
      <trkpt lat="38.600484" lon="-0.660082">
        <ele>635.160</ele>
        <time>2019-06-16T13:41:55Z</time>
      </trkpt>
      <trkpt lat="38.600484" lon="-0.660082">
        <ele>635.149</ele>
        <time>2019-06-16T13:41:55Z</time>
      </trkpt>
      <trkpt lat="38.600513" lon="-0.660244">
        <ele>635.114</ele>
        <time>2019-06-16T13:41:57Z</time>
      </trkpt>
      <trkpt lat="38.600513" lon="-0.660244">
        <ele>635.126</ele>
        <time>2019-06-16T13:41:57Z</time>
      </trkpt>
      <trkpt lat="38.600554" lon="-0.660539">
        <ele>636.947</ele>
        <time>2019-06-16T13:42:01Z</time>
      </trkpt>
      <trkpt lat="38.600554" lon="-0.660539">
        <ele>636.911</ele>
        <time>2019-06-16T13:42:01Z</time>
      </trkpt>
      <trkpt lat="38.600554" lon="-0.660539">
        <ele>636.908</ele>
        <time>2019-06-16T13:42:01Z</time>
      </trkpt>
      <trkpt lat="38.600554" lon="-0.660539">
        <ele>636.935</ele>
        <time>2019-06-16T13:42:01Z</time>
      </trkpt>
      <trkpt lat="38.600422" lon="-0.660890">
        <ele>639.119</ele>
        <time>2019-06-16T13:42:06Z</time>
      </trkpt>
      <trkpt lat="38.600422" lon="-0.660890">
        <ele>639.128</ele>
        <time>2019-06-16T13:42:06Z</time>
      </trkpt>
      <trkpt lat="38.600422" lon="-0.660890">
        <ele>639.181</ele>
        <time>2019-06-16T13:42:06Z</time>
      </trkpt>
      <trkpt lat="38.600422" lon="-0.660890">
        <ele>639.163</ele>
        <time>2019-06-16T13:42:06Z</time>
      </trkpt>
      <trkpt lat="38.600422" lon="-0.660890">
        <ele>639.150</ele>
        <time>2019-06-16T13:42:06Z</time>
      </trkpt>
      <trkpt lat="38.600126" lon="-0.661153">
        <ele>639.849</ele>
        <time>2019-06-16T13:42:13Z</time>
      </trkpt>
      <trkpt lat="38.600126" lon="-0.661153">
        <ele>639.894</ele>
        <time>2019-06-16T13:42:13Z</time>
      </trkpt>
      <trkpt lat="38.600126" lon="-0.661153">
        <ele>639.899</ele>
        <time>2019-06-16T13:42:13Z</time>
      </trkpt>
      <trkpt lat="38.600126" lon="-0.661153">
        <ele>639.807</ele>
        <time>2019-06-16T13:42:13Z</time>
      </trkpt>
      <trkpt lat="38.600126" lon="-0.661153">
        <ele>639.827</ele>
        <time>2019-06-16T13:42:13Z</time>
      </trkpt>
      <trkpt lat="38.600126" lon="-0.661153">
        <ele>639.808</ele>
        <time>2019-06-16T13:42:13Z</time>
      </trkpt>
      <trkpt lat="38.600126" lon="-0.661153">
        <ele>639.872</ele>
        <time>2019-06-16T13:42:13Z</time>
      </trkpt>
      <trkpt lat="38.599914" lon="-0.661523">
        <ele>638.096</ele>
        <time>2019-06-16T13:42:21Z</time>
      </trkpt>
      <trkpt lat="38.599914" lon="-0.661523">
        <ele>638.055</ele>
        <time>2019-06-16T13:42:21Z</time>
      </trkpt>
      <trkpt lat="38.599914" lon="-0.661523">
        <ele>638.018</ele>
        <time>2019-06-16T13:42:21Z</time>
      </trkpt>
      <trkpt lat="38.599914" lon="-0.661523">
        <ele>638.080</ele>
        <time>2019-06-16T13:42:21Z</time>
      </trkpt>
      <trkpt lat="38.599914" lon="-0.661523">
        <ele>638.057</ele>
        <time>2019-06-16T13:42:21Z</time>
      </trkpt>
      <trkpt lat="38.599914" lon="-0.661523">
        <ele>638.066</ele>
        <time>2019-06-16T13:42:21Z</time>
      </trkpt>
      <trkpt lat="38.599914" lon="-0.661523">
        <ele>638.061</ele>
        <time>2019-06-16T13:42:21Z</time>
      </trkpt>
      <trkpt lat="38.599914" lon="-0.661523">
        <ele>638.046</ele>
        <time>2019-06-16T13:42:21Z</time>
      </trkpt>
      <trkpt lat="38.599510" lon="-0.662045">
        <ele>639.288</ele>
        <time>2019-06-16T13:42:31Z</time>
      </trkpt>
      <trkpt lat="38.599510" lon="-0.662045">
        <ele>639.216</ele>
        <time>2019-06-16T13:42:31Z</time>
      </trkpt>
      <trkpt lat="38.599510" lon="-0.662045">
        <ele>639.208</ele>
        <time>2019-06-16T13:42:31Z</time>
      </trkpt>
      <trkpt lat="38.599510" lon="-0.662045">
        <ele>639.237</ele>
        <time>2019-06-16T13:42:31Z</time>
      </trkpt>
      <trkpt lat="38.599510" lon="-0.662045">
        <ele>639.211</ele>
        <time>2019-06-16T13:42:31Z</time>
      </trkpt>
      <trkpt lat="38.599510" lon="-0.662045">
        <ele>639.220</ele>
        <time>2019-06-16T13:42:31Z</time>
      </trkpt>
      <trkpt lat="38.599510" lon="-0.662045">
        <ele>639.213</ele>
        <time>2019-06-16T13:42:31Z</time>
      </trkpt>
      <trkpt lat="38.599510" lon="-0.662045">
        <ele>639.295</ele>
        <time>2019-06-16T13:42:31Z</time>
      </trkpt>
      <trkpt lat="38.599510" lon="-0.662045">
        <ele>639.292</ele>
        <time>2019-06-16T13:42:31Z</time>
      </trkpt>
      <trkpt lat="38.599510" lon="-0.662045">
        <ele>639.211</ele>
        <time>2019-06-16T13:42:31Z</time>
      </trkpt>
      <trkpt lat="38.598986" lon="-0.662370">
        <ele>644.746</ele>
        <time>2019-06-16T13:42:43Z</time>
      </trkpt>
      <trkpt lat="38.598986" lon="-0.662370">
        <ele>644.788</ele>
        <time>2019-06-16T13:42:43Z</time>
      </trkpt>
      <trkpt lat="38.598986" lon="-0.662370">
        <ele>644.724</ele>
        <time>2019-06-16T13:42:43Z</time>
      </trkpt>
      <trkpt lat="38.598986" lon="-0.662370">
        <ele>644.726</ele>
        <time>2019-06-16T13:42:43Z</time>
      </trkpt>
      <trkpt lat="38.598986" lon="-0.662370">
        <ele>644.708</ele>
        <time>2019-06-16T13:42:43Z</time>
      </trkpt>
      <trkpt lat="38.598986" lon="-0.662370">
        <ele>644.781</ele>
        <time>2019-06-16T13:42:43Z</time>
      </trkpt>
      <trkpt lat="38.598986" lon="-0.662370">
        <ele>644.715</ele>
        <time>2019-06-16T13:42:43Z</time>
      </trkpt>
      <trkpt lat="38.598986" lon="-0.662370">
        <ele>644.754</ele>
        <time>2019-06-16T13:42:43Z</time>
      </trkpt>
      <trkpt lat="38.598986" lon="-0.662370">
        <ele>644.747</ele>
        <time>2019-06-16T13:42:43Z</time>
      </trkpt>
      <trkpt lat="38.598986" lon="-0.662370">
        <ele>644.769</ele>
        <time>2019-06-16T13:42:43Z</time>
      </trkpt>
      <trkpt lat="38.598986" lon="-0.662370">
        <ele>644.746</ele>
        <time>2019-06-16T13:42:43Z</time>
      </trkpt>
      <trkpt lat="38.598986" lon="-0.662370">
        <ele>644.795</ele>
        <time>2019-06-16T13:42:43Z</time>
      </trkpt>
      <trkpt lat="38.598566" lon="-0.662654">
        <ele>645.230</ele>
        <time>2019-06-16T13:42:58Z</time>
      </trkpt>
      <trkpt lat="38.598566" lon="-0.662654">
        <ele>645.235</ele>
        <time>2019-06-16T13:42:58Z</time>
      </trkpt>
      <trkpt lat="38.598566" lon="-0.662654">
        <ele>645.286</ele>
        <time>2019-06-16T13:42:58Z</time>
      </trkpt>
      <trkpt lat="38.598566" lon="-0.662654">
        <ele>645.214</ele>
        <time>2019-06-16T13:42:58Z</time>
      </trkpt>
      <trkpt lat="38.598566" lon="-0.662654">
        <ele>645.208</ele>
        <time>2019-06-16T13:42:58Z</time>
      </trkpt>
      <trkpt lat="38.598566" lon="-0.662654">
        <ele>645.266</ele>
        <time>2019-06-16T13:42:58Z</time>
      </trkpt>
      <trkpt lat="38.598566" lon="-0.662654">
        <ele>645.250</ele>
        <time>2019-06-16T13:42:58Z</time>
      </trkpt>
      <trkpt lat="38.598566" lon="-0.662654">
        <ele>645.269</ele>
        <time>2019-06-16T13:42:58Z</time>
      </trkpt>
      <trkpt lat="38.598566" lon="-0.662654">
        <ele>645.222</ele>
        <time>2019-06-16T13:42:58Z</time>
      </trkpt>
      <trkpt lat="38.598566" lon="-0.662654">
        <ele>645.294</ele>
        <time>2019-06-16T13:42:58Z</time>
      </trkpt>
      <trkpt lat="38.598566" lon="-0.662654">
        <ele>645.271</ele>
        <time>2019-06-16T13:42:58Z</time>
      </trkpt>
      <trkpt lat="38.598566" lon="-0.662654">
        <ele>645.250</ele>
        <time>2019-06-16T13:42:58Z</time>
      </trkpt>
      <trkpt lat="38.598566" lon="-0.662654">
        <ele>645.245</ele>
        <time>2019-06-16T13:42:58Z</time>
      </trkpt>
      <trkpt lat="38.598566" lon="-0.662654">
        <ele>645.285</ele>
        <time>2019-06-16T13:42:58Z</time>
      </trkpt>
      <trkpt lat="38.598566" lon="-0.662654">
        <ele>645.289</ele>
        <time>2019-06-16T13:42:58Z</time>
      </trkpt>
      <trkpt lat="38.597953" lon="-0.662587">
        <ele>647.117</ele>
        <time>2019-06-16T13:43:17Z</time>
      </trkpt>
      <trkpt lat="38.597953" lon="-0.662587">
        <ele>647.108</ele>
        <time>2019-06-16T13:43:17Z</time>
      </trkpt>
      <trkpt lat="38.597953" lon="-0.662587">
        <ele>647.171</ele>
        <time>2019-06-16T13:43:17Z</time>
      </trkpt>
      <trkpt lat="38.597953" lon="-0.662587">
        <ele>647.155</ele>
        <time>2019-06-16T13:43:17Z</time>
      </trkpt>
      <trkpt lat="38.597953" lon="-0.662587">
        <ele>647.134</ele>
        <time>2019-06-16T13:43:17Z</time>
      </trkpt>
      <trkpt lat="38.597953" lon="-0.662587">
        <ele>647.157</ele>
        <time>2019-06-16T13:43:17Z</time>
      </trkpt>
      <trkpt lat="38.597953" lon="-0.662587">
        <ele>647.129</ele>
        <time>2019-06-16T13:43:17Z</time>
      </trkpt>
      <trkpt lat="38.597953" lon="-0.662587">
        <ele>647.166</ele>
        <time>2019-06-16T13:43:17Z</time>
      </trkpt>
      <trkpt lat="38.597953" lon="-0.662587">
        <ele>647.145</ele>
        <time>2019-06-16T13:43:17Z</time>
      </trkpt>
      <trkpt lat="38.597953" lon="-0.662587">
        <ele>647.160</ele>
        <time>2019-06-16T13:43:17Z</time>
      </trkpt>
      <trkpt lat="38.597953" lon="-0.662587">
        <ele>647.176</ele>
        <time>2019-06-16T13:43:17Z</time>
      </trkpt>
      <trkpt lat="38.597953" lon="-0.662587">
        <ele>647.190</ele>
        <time>2019-06-16T13:43:17Z</time>
      </trkpt>
      <trkpt lat="38.597953" lon="-0.662587">
        <ele>647.119</ele>
        <time>2019-06-16T13:43:17Z</time>
      </trkpt>
      <trkpt lat="38.597953" lon="-0.662587">
        <ele>647.108</ele>
        <time>2019-06-16T13:43:17Z</time>
      </trkpt>
      <trkpt lat="38.597953" lon="-0.662587">
        <ele>647.190</ele>
        <time>2019-06-16T13:43:17Z</time>
      </trkpt>
      <trkpt lat="38.597953" lon="-0.662587">
        <ele>647.164</ele>
        <time>2019-06-16T13:43:17Z</time>
      </trkpt>
      <trkpt lat="38.597953" lon="-0.662587">
        <ele>647.163</ele>
        <time>2019-06-16T13:43:17Z</time>
      </trkpt>
      <trkpt lat="38.597953" lon="-0.662587">
        <ele>647.196</ele>
        <time>2019-06-16T13:43:17Z</time>
      </trkpt>
      <trkpt lat="38.597953" lon="-0.662587">
        <ele>647.188</ele>
        <time>2019-06-16T13:43:17Z</time>
      </trkpt>
      <trkpt lat="38.597294" lon="-0.662374">
        <ele>651.615</ele>
        <time>2019-06-16T13:43:40Z</time>
      </trkpt>
      <trkpt lat="38.597294" lon="-0.662374">
        <ele>651.624</ele>
        <time>2019-06-16T13:43:40Z</time>
      </trkpt>
      <trkpt lat="38.597294" lon="-0.662374">
        <ele>651.629</ele>
        <time>2019-06-16T13:43:40Z</time>
      </trkpt>
      <trkpt lat="38.597294" lon="-0.662374">
        <ele>651.689</ele>
        <time>2019-06-16T13:43:40Z</time>
      </trkpt>
      <trkpt lat="38.597294" lon="-0.662374">
        <ele>651.606</ele>
        <time>2019-06-16T13:43:40Z</time>
      </trkpt>
      <trkpt lat="38.597294" lon="-0.662374">
        <ele>651.626</ele>
        <time>2019-06-16T13:43:40Z</time>
      </trkpt>
      <trkpt lat="38.597294" lon="-0.662374">
        <ele>651.608</ele>
        <time>2019-06-16T13:43:40Z</time>
      </trkpt>
      <trkpt lat="38.597294" lon="-0.662374">
        <ele>651.651</ele>
        <time>2019-06-16T13:43:40Z</time>
      </trkpt>
      <trkpt lat="38.597294" lon="-0.662374">
        <ele>651.675</ele>
        <time>2019-06-16T13:43:40Z</time>
      </trkpt>
      <trkpt lat="38.597294" lon="-0.662374">
        <ele>651.634</ele>
        <time>2019-06-16T13:43:40Z</time>
      </trkpt>
      <trkpt lat="38.597294" lon="-0.662374">
        <ele>651.667</ele>
        <time>2019-06-16T13:43:40Z</time>
      </trkpt>
      <trkpt lat="38.597294" lon="-0.662374">
        <ele>651.639</ele>
        <time>2019-06-16T13:43:40Z</time>
      </trkpt>
      <trkpt lat="38.597294" lon="-0.662374">
        <ele>651.626</ele>
        <time>2019-06-16T13:43:40Z</time>
      </trkpt>
      <trkpt lat="38.597294" lon="-0.662374">
        <ele>651.675</ele>
        <time>2019-06-16T13:43:40Z</time>
      </trkpt>
      <trkpt lat="38.597294" lon="-0.662374">
        <ele>651.670</ele>
        <time>2019-06-16T13:43:40Z</time>
      </trkpt>
      <trkpt lat="38.597294" lon="-0.662374">
        <ele>651.623</ele>
        <time>2019-06-16T13:43:40Z</time>
      </trkpt>
      <trkpt lat="38.597294" lon="-0.662374">
        <ele>651.683</ele>
        <time>2019-06-16T13:43:40Z</time>
      </trkpt>
      <trkpt lat="38.597294" lon="-0.662374">
        <ele>651.611</ele>
        <time>2019-06-16T13:43:40Z</time>
      </trkpt>
      <trkpt lat="38.597294" lon="-0.662374">
        <ele>651.608</ele>
        <time>2019-06-16T13:43:40Z</time>
      </trkpt>
      <trkpt lat="38.597294" lon="-0.662374">
        <ele>651.685</ele>
        <time>2019-06-16T13:43:40Z</time>
      </trkpt>
      <trkpt lat="38.597294" lon="-0.662374">
        <ele>651.639</ele>
        <time>2019-06-16T13:43:40Z</time>
      </trkpt>
      <trkpt lat="38.597294" lon="-0.662374">
        <ele>651.678</ele>
        <time>2019-06-16T13:43:40Z</time>
      </trkpt>
      <trkpt lat="38.597294" lon="-0.662374">
        <ele>651.631</ele>
        <time>2019-06-16T13:43:40Z</time>
      </trkpt>
      <trkpt lat="38.596761" lon="-0.662160">
        <ele>657.223</ele>
        <time>2019-06-16T13:44:46Z</time>
      </trkpt>
      <trkpt lat="38.596705" lon="-0.662159">
        <ele>658.040</ele>
        <time>2019-06-16T13:44:49Z</time>
      </trkpt>
      <trkpt lat="38.596651" lon="-0.662155">
        <ele>658.769</ele>
        <time>2019-06-16T13:44:51Z</time>
      </trkpt>
      <trkpt lat="38.596602" lon="-0.662150">
        <ele>659.254</ele>
        <time>2019-06-16T13:44:53Z</time>
      </trkpt>
      <trkpt lat="38.596550" lon="-0.662139">
        <ele>659.899</ele>
        <time>2019-06-16T13:44:55Z</time>
      </trkpt>
      <trkpt lat="38.596495" lon="-0.662124">
        <ele>660.407</ele>
        <time>2019-06-16T13:44:57Z</time>
      </trkpt>
      <trkpt lat="38.596428" lon="-0.662112">
        <ele>661.127</ele>
        <time>2019-06-16T13:44:59Z</time>
      </trkpt>
      <trkpt lat="38.596366" lon="-0.662103">
        <ele>661.608</ele>
        <time>2019-06-16T13:45:01Z</time>
      </trkpt>
      <trkpt lat="38.596303" lon="-0.662083">
        <ele>661.552</ele>
        <time>2019-06-16T13:45:03Z</time>
      </trkpt>
      <trkpt lat="38.596249" lon="-0.662066">
        <ele>661.536</ele>
        <time>2019-06-16T13:45:05Z</time>
      </trkpt>
      <trkpt lat="38.596149" lon="-0.662018">
        <ele>661.775</ele>
        <time>2019-06-16T13:52:05Z</time>
      </trkpt>
      <trkpt lat="38.595882" lon="-0.661986">
        <ele>660.118</ele>
        <time>2019-06-16T13:54:47Z</time>
      </trkpt>
      <trkpt lat="38.595834" lon="-0.661950">
        <ele>660.080</ele>
        <time>2019-06-16T13:55:26Z</time>
      </trkpt>
      <trkpt lat="38.595791" lon="-0.661929">
        <ele>659.747</ele>
        <time>2019-06-16T13:55:29Z</time>
      </trkpt>
      <trkpt lat="38.595729" lon="-0.661906">
        <ele>659.256</ele>
        <time>2019-06-16T13:55:32Z</time>
      </trkpt>
      <trkpt lat="38.595684" lon="-0.661894">
        <ele>658.881</ele>
        <time>2019-06-16T13:55:34Z</time>
      </trkpt>
      <trkpt lat="38.595627" lon="-0.661884">
        <ele>658.423</ele>
        <time>2019-06-16T13:55:36Z</time>
      </trkpt>
      <trkpt lat="38.595564" lon="-0.661872">
        <ele>657.983</ele>
        <time>2019-06-16T13:55:38Z</time>
      </trkpt>
      <trkpt lat="38.595501" lon="-0.661863">
        <ele>657.411</ele>
        <time>2019-06-16T13:55:40Z</time>
      </trkpt>
      <trkpt lat="38.595436" lon="-0.661853">
        <ele>657.008</ele>
        <time>2019-06-16T13:55:42Z</time>
      </trkpt>
      <trkpt lat="38.595368" lon="-0.661842">
        <ele>656.575</ele>
        <time>2019-06-16T13:55:44Z</time>
      </trkpt>
      <trkpt lat="38.595306" lon="-0.661832">
        <ele>656.179</ele>
        <time>2019-06-16T13:55:46Z</time>
      </trkpt>
      <trkpt lat="38.595180" lon="-0.661807">
        <ele>655.618</ele>
        <time>2019-06-16T13:55:47Z</time>
      </trkpt>
      <trkpt lat="38.595038" lon="-0.661769">
        <ele>655.291</ele>
        <time>2019-06-16T13:55:48Z</time>
      </trkpt>
      <trkpt lat="38.594983" lon="-0.661765">
        <ele>655.053</ele>
        <time>2019-06-16T13:55:51Z</time>
      </trkpt>
      <trkpt lat="38.594935" lon="-0.661774">
        <ele>654.940</ele>
        <time>2019-06-16T13:55:53Z</time>
      </trkpt>
      <trkpt lat="38.594874" lon="-0.661770">
        <ele>654.829</ele>
        <time>2019-06-16T13:55:55Z</time>
      </trkpt>
      <trkpt lat="38.594825" lon="-0.661770">
        <ele>654.884</ele>
        <time>2019-06-16T13:55:57Z</time>
      </trkpt>
      <trkpt lat="38.594765" lon="-0.661758">
        <ele>654.795</ele>
        <time>2019-06-16T13:55:59Z</time>
      </trkpt>
      <trkpt lat="38.594632" lon="-0.661721">
        <ele>654.949</ele>
        <time>2019-06-16T13:56:01Z</time>
      </trkpt>
      <trkpt lat="38.594511" lon="-0.661634">
        <ele>654.923</ele>
        <time>2019-06-16T13:56:04Z</time>
      </trkpt>
      <trkpt lat="38.594442" lon="-0.661594">
        <ele>654.808</ele>
        <time>2019-06-16T13:56:06Z</time>
      </trkpt>
      <trkpt lat="38.594392" lon="-0.661551">
        <ele>654.982</ele>
        <time>2019-06-16T13:56:09Z</time>
      </trkpt>
      <trkpt lat="38.594348" lon="-0.661518">
        <ele>655.016</ele>
        <time>2019-06-16T13:56:11Z</time>
      </trkpt>
      <trkpt lat="38.594302" lon="-0.661481">
        <ele>655.095</ele>
        <time>2019-06-16T13:56:13Z</time>
      </trkpt>
      <trkpt lat="38.594260" lon="-0.661445">
        <ele>655.018</ele>
        <time>2019-06-16T13:56:15Z</time>
      </trkpt>
      <trkpt lat="38.594222" lon="-0.661412">
        <ele>655.030</ele>
        <time>2019-06-16T13:56:17Z</time>
      </trkpt>
      <trkpt lat="38.594116" lon="-0.661320">
        <ele>654.567</ele>
        <time>2019-06-16T13:56:18Z</time>
      </trkpt>
      <trkpt lat="38.594034" lon="-0.661247">
        <ele>654.056</ele>
        <time>2019-06-16T13:56:20Z</time>
      </trkpt>
      <trkpt lat="38.593985" lon="-0.661204">
        <ele>653.721</ele>
        <time>2019-06-16T13:56:21Z</time>
      </trkpt>
      <trkpt lat="38.593929" lon="-0.661169">
        <ele>653.466</ele>
        <time>2019-06-16T13:56:22Z</time>
      </trkpt>
      <trkpt lat="38.593882" lon="-0.661137">
        <ele>653.229</ele>
        <time>2019-06-16T13:56:23Z</time>
      </trkpt>
      <trkpt lat="38.593838" lon="-0.661092">
        <ele>652.921</ele>
        <time>2019-06-16T13:56:24Z</time>
      </trkpt>
      <trkpt lat="38.593763" lon="-0.661033">
        <ele>652.808</ele>
        <time>2019-06-16T13:56:25Z</time>
      </trkpt>
      <trkpt lat="38.593728" lon="-0.660997">
        <ele>652.849</ele>
        <time>2019-06-16T13:56:26Z</time>
      </trkpt>
      <trkpt lat="38.593688" lon="-0.660958">
        <ele>652.863</ele>
        <time>2019-06-16T13:56:27Z</time>
      </trkpt>
      <trkpt lat="38.593642" lon="-0.660944">
        <ele>652.972</ele>
        <time>2019-06-16T13:56:28Z</time>
      </trkpt>
      <trkpt lat="38.593595" lon="-0.660929">
        <ele>653.025</ele>
        <time>2019-06-16T13:56:29Z</time>
      </trkpt>
      <trkpt lat="38.593549" lon="-0.660909">
        <ele>653.147</ele>
        <time>2019-06-16T13:56:30Z</time>
      </trkpt>
      <trkpt lat="38.593500" lon="-0.660882">
        <ele>653.194</ele>
        <time>2019-06-16T13:56:31Z</time>
      </trkpt>
      <trkpt lat="38.593462" lon="-0.660847">
        <ele>653.083</ele>
        <time>2019-06-16T13:56:32Z</time>
      </trkpt>
      <trkpt lat="38.593421" lon="-0.660811">
        <ele>653.058</ele>
        <time>2019-06-16T13:56:33Z</time>
      </trkpt>
      <trkpt lat="38.593352" lon="-0.660746">
        <ele>653.089</ele>
        <time>2019-06-16T13:56:35Z</time>
      </trkpt>
      <trkpt lat="38.593310" lon="-0.660708">
        <ele>652.906</ele>
        <time>2019-06-16T13:56:36Z</time>
      </trkpt>
      <trkpt lat="38.593263" lon="-0.660672">
        <ele>652.726</ele>
        <time>2019-06-16T13:56:37Z</time>
      </trkpt>
      <trkpt lat="38.593219" lon="-0.660637">
        <ele>652.408</ele>
        <time>2019-06-16T13:56:38Z</time>
      </trkpt>
      <trkpt lat="38.593172" lon="-0.660608">
        <ele>652.111</ele>
        <time>2019-06-16T13:56:39Z</time>
      </trkpt>
      <trkpt lat="38.593092" lon="-0.660546">
        <ele>651.385</ele>
        <time>2019-06-16T13:56:41Z</time>
      </trkpt>
      <trkpt lat="38.593053" lon="-0.660506">
        <ele>651.294</ele>
        <time>2019-06-16T13:56:42Z</time>
      </trkpt>
      <trkpt lat="38.593010" lon="-0.660481">
        <ele>651.587</ele>
        <time>2019-06-16T13:56:43Z</time>
      </trkpt>
      <trkpt lat="38.592935" lon="-0.660431">
        <ele>651.929</ele>
        <time>2019-06-16T13:56:45Z</time>
      </trkpt>
      <trkpt lat="38.592860" lon="-0.660385">
        <ele>652.266</ele>
        <time>2019-06-16T13:56:47Z</time>
      </trkpt>
      <trkpt lat="38.592795" lon="-0.660316">
        <ele>652.125</ele>
        <time>2019-06-16T13:56:49Z</time>
      </trkpt>
      <trkpt lat="38.592725" lon="-0.660259">
        <ele>652.270</ele>
        <time>2019-06-16T13:56:51Z</time>
      </trkpt>
      <trkpt lat="38.592653" lon="-0.660183">
        <ele>652.512</ele>
        <time>2019-06-16T13:56:53Z</time>
      </trkpt>
      <trkpt lat="38.592574" lon="-0.660123">
        <ele>652.532</ele>
        <time>2019-06-16T13:56:55Z</time>
      </trkpt>
      <trkpt lat="38.592532" lon="-0.660086">
        <ele>652.405</ele>
        <time>2019-06-16T13:56:56Z</time>
      </trkpt>
      <trkpt lat="38.592458" lon="-0.660041">
        <ele>652.308</ele>
        <time>2019-06-16T13:56:58Z</time>
      </trkpt>
      <trkpt lat="38.592399" lon="-0.659967">
        <ele>652.654</ele>
        <time>2019-06-16T13:57:00Z</time>
      </trkpt>
      <trkpt lat="38.592349" lon="-0.659948">
        <ele>652.848</ele>
        <time>2019-06-16T13:57:01Z</time>
      </trkpt>
      <trkpt lat="38.592308" lon="-0.659904">
        <ele>653.177</ele>
        <time>2019-06-16T13:57:02Z</time>
      </trkpt>
      <trkpt lat="38.592278" lon="-0.659861">
        <ele>653.480</ele>
        <time>2019-06-16T13:57:03Z</time>
      </trkpt>
      <trkpt lat="38.592197" lon="-0.659828">
        <ele>653.792</ele>
        <time>2019-06-16T13:57:05Z</time>
      </trkpt>
      <trkpt lat="38.592138" lon="-0.659799">
        <ele>653.899</ele>
        <time>2019-06-16T13:57:07Z</time>
      </trkpt>
      <trkpt lat="38.592094" lon="-0.659777">
        <ele>653.978</ele>
        <time>2019-06-16T13:57:09Z</time>
      </trkpt>
      <trkpt lat="38.592039" lon="-0.659753">
        <ele>654.013</ele>
        <time>2019-06-16T13:57:13Z</time>
      </trkpt>
      <trkpt lat="38.591997" lon="-0.659733">
        <ele>654.089</ele>
        <time>2019-06-16T13:57:15Z</time>
      </trkpt>
      <trkpt lat="38.591952" lon="-0.659693">
        <ele>654.106</ele>
        <time>2019-06-16T13:57:17Z</time>
      </trkpt>
      <trkpt lat="38.591906" lon="-0.659644">
        <ele>654.326</ele>
        <time>2019-06-16T13:57:19Z</time>
      </trkpt>
      <trkpt lat="38.591820" lon="-0.659574">
        <ele>654.508</ele>
        <time>2019-06-16T13:57:20Z</time>
      </trkpt>
      <trkpt lat="38.591754" lon="-0.659518">
        <ele>654.711</ele>
        <time>2019-06-16T13:57:22Z</time>
      </trkpt>
      <trkpt lat="38.591699" lon="-0.659490">
        <ele>654.895</ele>
        <time>2019-06-16T13:57:23Z</time>
      </trkpt>
      <trkpt lat="38.591647" lon="-0.659461">
        <ele>654.964</ele>
        <time>2019-06-16T13:57:24Z</time>
      </trkpt>
      <trkpt lat="38.591591" lon="-0.659426">
        <ele>655.197</ele>
        <time>2019-06-16T13:57:25Z</time>
      </trkpt>
      <trkpt lat="38.591547" lon="-0.659393">
        <ele>655.219</ele>
        <time>2019-06-16T13:57:26Z</time>
      </trkpt>
      <trkpt lat="38.591502" lon="-0.659372">
        <ele>655.346</ele>
        <time>2019-06-16T13:57:27Z</time>
      </trkpt>
      <trkpt lat="38.591449" lon="-0.659339">
        <ele>655.455</ele>
        <time>2019-06-16T13:57:28Z</time>
      </trkpt>
      <trkpt lat="38.591401" lon="-0.659308">
        <ele>655.520</ele>
        <time>2019-06-16T13:57:29Z</time>
      </trkpt>
      <trkpt lat="38.591352" lon="-0.659265">
        <ele>656.131</ele>
        <time>2019-06-16T13:57:30Z</time>
      </trkpt>
      <trkpt lat="38.591301" lon="-0.659223">
        <ele>656.961</ele>
        <time>2019-06-16T13:57:31Z</time>
      </trkpt>
      <trkpt lat="38.591255" lon="-0.659173">
        <ele>657.407</ele>
        <time>2019-06-16T13:57:32Z</time>
      </trkpt>
      <trkpt lat="38.591203" lon="-0.659131">
        <ele>657.908</ele>
        <time>2019-06-16T13:57:33Z</time>
      </trkpt>
      <trkpt lat="38.591161" lon="-0.659077">
        <ele>658.186</ele>
        <time>2019-06-16T13:57:34Z</time>
      </trkpt>
      <trkpt lat="38.591119" lon="-0.659055">
        <ele>658.580</ele>
        <time>2019-06-16T13:57:35Z</time>
      </trkpt>
      <trkpt lat="38.591071" lon="-0.659024">
        <ele>658.859</ele>
        <time>2019-06-16T13:57:36Z</time>
      </trkpt>
      <trkpt lat="38.591030" lon="-0.658993">
        <ele>659.042</ele>
        <time>2019-06-16T13:57:37Z</time>
      </trkpt>
      <trkpt lat="38.590988" lon="-0.658953">
        <ele>659.124</ele>
        <time>2019-06-16T13:57:38Z</time>
      </trkpt>
      <trkpt lat="38.590908" lon="-0.658893">
        <ele>659.571</ele>
        <time>2019-06-16T13:57:40Z</time>
      </trkpt>
      <trkpt lat="38.590865" lon="-0.658857">
        <ele>659.330</ele>
        <time>2019-06-16T13:57:41Z</time>
      </trkpt>
      <trkpt lat="38.590788" lon="-0.658800">
        <ele>658.695</ele>
        <time>2019-06-16T13:57:43Z</time>
      </trkpt>
      <trkpt lat="38.590745" lon="-0.658764">
        <ele>658.095</ele>
        <time>2019-06-16T13:57:44Z</time>
      </trkpt>
      <trkpt lat="38.590700" lon="-0.658731">
        <ele>657.549</ele>
        <time>2019-06-16T13:57:45Z</time>
      </trkpt>
      <trkpt lat="38.590657" lon="-0.658705">
        <ele>657.123</ele>
        <time>2019-06-16T13:57:46Z</time>
      </trkpt>
      <trkpt lat="38.590618" lon="-0.658665">
        <ele>656.608</ele>
        <time>2019-06-16T13:57:47Z</time>
      </trkpt>
      <trkpt lat="38.590578" lon="-0.658638">
        <ele>656.312</ele>
        <time>2019-06-16T13:57:48Z</time>
      </trkpt>
      <trkpt lat="38.590511" lon="-0.658588">
        <ele>655.836</ele>
        <time>2019-06-16T13:57:50Z</time>
      </trkpt>
      <trkpt lat="38.590469" lon="-0.658530">
        <ele>655.485</ele>
        <time>2019-06-16T13:57:51Z</time>
      </trkpt>
      <trkpt lat="38.590432" lon="-0.658477">
        <ele>655.128</ele>
        <time>2019-06-16T13:57:52Z</time>
      </trkpt>
      <trkpt lat="38.590399" lon="-0.658424">
        <ele>654.890</ele>
        <time>2019-06-16T13:57:53Z</time>
      </trkpt>
      <trkpt lat="38.590301" lon="-0.658369">
        <ele>654.237</ele>
        <time>2019-06-16T13:57:55Z</time>
      </trkpt>
      <trkpt lat="38.590232" lon="-0.658395">
        <ele>654.186</ele>
        <time>2019-06-16T13:57:57Z</time>
      </trkpt>
      <trkpt lat="38.590179" lon="-0.658297">
        <ele>654.321</ele>
        <time>2019-06-16T13:57:59Z</time>
      </trkpt>
      <trkpt lat="38.590123" lon="-0.658266">
        <ele>654.612</ele>
        <time>2019-06-16T13:58:00Z</time>
      </trkpt>
      <trkpt lat="38.590058" lon="-0.658229">
        <ele>654.832</ele>
        <time>2019-06-16T13:58:01Z</time>
      </trkpt>
      <trkpt lat="38.590010" lon="-0.658198">
        <ele>655.005</ele>
        <time>2019-06-16T13:58:02Z</time>
      </trkpt>
      <trkpt lat="38.589970" lon="-0.658166">
        <ele>655.108</ele>
        <time>2019-06-16T13:58:03Z</time>
      </trkpt>
      <trkpt lat="38.589929" lon="-0.658113">
        <ele>655.494</ele>
        <time>2019-06-16T13:58:04Z</time>
      </trkpt>
      <trkpt lat="38.589900" lon="-0.658053">
        <ele>655.798</ele>
        <time>2019-06-16T13:58:05Z</time>
      </trkpt>
      <trkpt lat="38.589858" lon="-0.658003">
        <ele>655.847</ele>
        <time>2019-06-16T13:58:06Z</time>
      </trkpt>
      <trkpt lat="38.589809" lon="-0.657958">
        <ele>655.850</ele>
        <time>2019-06-16T13:58:07Z</time>
      </trkpt>
      <trkpt lat="38.589757" lon="-0.657942">
        <ele>655.672</ele>
        <time>2019-06-16T13:58:08Z</time>
      </trkpt>
      <trkpt lat="38.589717" lon="-0.657905">
        <ele>655.599</ele>
        <time>2019-06-16T13:58:09Z</time>
      </trkpt>
      <trkpt lat="38.589653" lon="-0.657881">
        <ele>655.348</ele>
        <time>2019-06-16T13:58:10Z</time>
      </trkpt>
      <trkpt lat="38.589591" lon="-0.657862">
        <ele>655.133</ele>
        <time>2019-06-16T13:58:12Z</time>
      </trkpt>
      <trkpt lat="38.589534" lon="-0.657814">
        <ele>655.159</ele>
        <time>2019-06-16T13:58:13Z</time>
      </trkpt>
      <trkpt lat="38.589498" lon="-0.657765">
        <ele>655.303</ele>
        <time>2019-06-16T13:58:14Z</time>
      </trkpt>
      <trkpt lat="38.589421" lon="-0.657714">
        <ele>655.423</ele>
        <time>2019-06-16T13:58:16Z</time>
      </trkpt>
      <trkpt lat="38.589376" lon="-0.657668">
        <ele>655.408</ele>
        <time>2019-06-16T13:58:17Z</time>
      </trkpt>
      <trkpt lat="38.589331" lon="-0.657643">
        <ele>655.248</ele>
        <time>2019-06-16T13:58:18Z</time>
      </trkpt>
      <trkpt lat="38.589293" lon="-0.657589">
        <ele>655.432</ele>
        <time>2019-06-16T13:58:19Z</time>
      </trkpt>
      <trkpt lat="38.589249" lon="-0.657533">
        <ele>655.571</ele>
        <time>2019-06-16T13:58:20Z</time>
      </trkpt>
      <trkpt lat="38.589204" lon="-0.657504">
        <ele>655.444</ele>
        <time>2019-06-16T13:58:21Z</time>
      </trkpt>
      <trkpt lat="38.589153" lon="-0.657464">
        <ele>655.256</ele>
        <time>2019-06-16T13:58:22Z</time>
      </trkpt>
      <trkpt lat="38.589103" lon="-0.657422">
        <ele>655.113</ele>
        <time>2019-06-16T13:58:23Z</time>
      </trkpt>
      <trkpt lat="38.589024" lon="-0.657363">
        <ele>655.032</ele>
        <time>2019-06-16T13:58:25Z</time>
      </trkpt>
      <trkpt lat="38.588965" lon="-0.657332">
        <ele>654.877</ele>
        <time>2019-06-16T13:58:26Z</time>
      </trkpt>
      <trkpt lat="38.588924" lon="-0.657288">
        <ele>654.892</ele>
        <time>2019-06-16T13:58:27Z</time>
      </trkpt>
      <trkpt lat="38.588871" lon="-0.657253">
        <ele>654.773</ele>
        <time>2019-06-16T13:58:28Z</time>
      </trkpt>
      <trkpt lat="38.588802" lon="-0.657198">
        <ele>654.520</ele>
        <time>2019-06-16T13:58:30Z</time>
      </trkpt>
      <trkpt lat="38.588737" lon="-0.657164">
        <ele>654.108</ele>
        <time>2019-06-16T13:58:31Z</time>
      </trkpt>
      <trkpt lat="38.588684" lon="-0.657119">
        <ele>653.772</ele>
        <time>2019-06-16T13:58:32Z</time>
      </trkpt>
      <trkpt lat="38.588628" lon="-0.657088">
        <ele>653.296</ele>
        <time>2019-06-16T13:58:33Z</time>
      </trkpt>
      <trkpt lat="38.588582" lon="-0.657056">
        <ele>652.945</ele>
        <time>2019-06-16T13:58:34Z</time>
      </trkpt>
      <trkpt lat="38.588529" lon="-0.657037">
        <ele>652.728</ele>
        <time>2019-06-16T13:58:35Z</time>
      </trkpt>
      <trkpt lat="38.588455" lon="-0.656951">
        <ele>652.450</ele>
        <time>2019-06-16T13:58:37Z</time>
      </trkpt>
      <trkpt lat="38.588401" lon="-0.656927">
        <ele>652.387</ele>
        <time>2019-06-16T13:58:38Z</time>
      </trkpt>
      <trkpt lat="38.588354" lon="-0.656888">
        <ele>652.196</ele>
        <time>2019-06-16T13:58:39Z</time>
      </trkpt>
      <trkpt lat="38.588303" lon="-0.656847">
        <ele>652.261</ele>
        <time>2019-06-16T13:58:40Z</time>
      </trkpt>
      <trkpt lat="38.588224" lon="-0.656809">
        <ele>652.814</ele>
        <time>2019-06-16T13:58:42Z</time>
      </trkpt>
      <trkpt lat="38.588176" lon="-0.656773">
        <ele>653.154</ele>
        <time>2019-06-16T13:58:43Z</time>
      </trkpt>
      <trkpt lat="38.588129" lon="-0.656732">
        <ele>653.509</ele>
        <time>2019-06-16T13:58:44Z</time>
      </trkpt>
      <trkpt lat="38.588090" lon="-0.656698">
        <ele>653.808</ele>
        <time>2019-06-16T13:58:45Z</time>
      </trkpt>
      <trkpt lat="38.588042" lon="-0.656669">
        <ele>654.184</ele>
        <time>2019-06-16T13:58:46Z</time>
      </trkpt>
      <trkpt lat="38.587969" lon="-0.656618">
        <ele>654.388</ele>
        <time>2019-06-16T13:58:48Z</time>
      </trkpt>
      <trkpt lat="38.587879" lon="-0.656567">
        <ele>654.867</ele>
        <time>2019-06-16T13:58:50Z</time>
      </trkpt>
      <trkpt lat="38.587813" lon="-0.656489">
        <ele>655.010</ele>
        <time>2019-06-16T13:58:52Z</time>
      </trkpt>
      <trkpt lat="38.587779" lon="-0.656448">
        <ele>655.212</ele>
        <time>2019-06-16T13:58:53Z</time>
      </trkpt>
      <trkpt lat="38.587712" lon="-0.656413">
        <ele>655.379</ele>
        <time>2019-06-16T13:58:55Z</time>
      </trkpt>
      <trkpt lat="38.587662" lon="-0.656387">
        <ele>655.498</ele>
        <time>2019-06-16T13:58:57Z</time>
      </trkpt>
      <trkpt lat="38.587606" lon="-0.656349">
        <ele>655.513</ele>
        <time>2019-06-16T13:59:00Z</time>
      </trkpt>
      <trkpt lat="38.587489" lon="-0.656271">
        <ele>655.528</ele>
        <time>2019-06-16T13:59:02Z</time>
      </trkpt>
      <trkpt lat="38.587441" lon="-0.656229">
        <ele>655.289</ele>
        <time>2019-06-16T13:59:03Z</time>
      </trkpt>
      <trkpt lat="38.587399" lon="-0.656193">
        <ele>654.917</ele>
        <time>2019-06-16T13:59:04Z</time>
      </trkpt>
      <trkpt lat="38.587317" lon="-0.656104">
        <ele>654.308</ele>
        <time>2019-06-16T13:59:05Z</time>
      </trkpt>
      <trkpt lat="38.587270" lon="-0.656075">
        <ele>654.045</ele>
        <time>2019-06-16T13:59:06Z</time>
      </trkpt>
      <trkpt lat="38.587231" lon="-0.656037">
        <ele>653.849</ele>
        <time>2019-06-16T13:59:07Z</time>
      </trkpt>
      <trkpt lat="38.587180" lon="-0.656020">
        <ele>653.758</ele>
        <time>2019-06-16T13:59:08Z</time>
      </trkpt>
      <trkpt lat="38.587141" lon="-0.655990">
        <ele>653.761</ele>
        <time>2019-06-16T13:59:09Z</time>
      </trkpt>
      <trkpt lat="38.587099" lon="-0.655952">
        <ele>653.773</ele>
        <time>2019-06-16T13:59:10Z</time>
      </trkpt>
      <trkpt lat="38.587062" lon="-0.655916">
        <ele>653.790</ele>
        <time>2019-06-16T13:59:11Z</time>
      </trkpt>
      <trkpt lat="38.587022" lon="-0.655888">
        <ele>653.819</ele>
        <time>2019-06-16T13:59:12Z</time>
      </trkpt>
      <trkpt lat="38.586977" lon="-0.655852">
        <ele>653.944</ele>
        <time>2019-06-16T13:59:13Z</time>
      </trkpt>
      <trkpt lat="38.586935" lon="-0.655815">
        <ele>653.992</ele>
        <time>2019-06-16T13:59:14Z</time>
      </trkpt>
      <trkpt lat="38.586892" lon="-0.655789">
        <ele>653.873</ele>
        <time>2019-06-16T13:59:15Z</time>
      </trkpt>
      <trkpt lat="38.586848" lon="-0.655739">
        <ele>653.720</ele>
        <time>2019-06-16T13:59:16Z</time>
      </trkpt>
      <trkpt lat="38.586807" lon="-0.655693">
        <ele>653.508</ele>
        <time>2019-06-16T13:59:17Z</time>
      </trkpt>
      <trkpt lat="38.586765" lon="-0.655646">
        <ele>653.322</ele>
        <time>2019-06-16T13:59:18Z</time>
      </trkpt>
      <trkpt lat="38.586693" lon="-0.655616">
        <ele>653.276</ele>
        <time>2019-06-16T13:59:20Z</time>
      </trkpt>
      <trkpt lat="38.586609" lon="-0.655565">
        <ele>652.875</ele>
        <time>2019-06-16T13:59:22Z</time>
      </trkpt>
      <trkpt lat="38.586562" lon="-0.655534">
        <ele>652.628</ele>
        <time>2019-06-16T13:59:23Z</time>
      </trkpt>
      <trkpt lat="38.586489" lon="-0.655477">
        <ele>652.460</ele>
        <time>2019-06-16T13:59:25Z</time>
      </trkpt>
      <trkpt lat="38.586447" lon="-0.655436">
        <ele>652.227</ele>
        <time>2019-06-16T13:59:26Z</time>
      </trkpt>
      <trkpt lat="38.586407" lon="-0.655405">
        <ele>652.136</ele>
        <time>2019-06-16T13:59:27Z</time>
      </trkpt>
      <trkpt lat="38.586360" lon="-0.655369">
        <ele>652.091</ele>
        <time>2019-06-16T13:59:28Z</time>
      </trkpt>
      <trkpt lat="38.586318" lon="-0.655330">
        <ele>652.095</ele>
        <time>2019-06-16T13:59:29Z</time>
      </trkpt>
      <trkpt lat="38.586280" lon="-0.655286">
        <ele>652.049</ele>
        <time>2019-06-16T13:59:30Z</time>
      </trkpt>
      <trkpt lat="38.586238" lon="-0.655245">
        <ele>651.923</ele>
        <time>2019-06-16T13:59:31Z</time>
      </trkpt>
      <trkpt lat="38.586193" lon="-0.655205">
        <ele>651.808</ele>
        <time>2019-06-16T13:59:32Z</time>
      </trkpt>
      <trkpt lat="38.586147" lon="-0.655170">
        <ele>651.712</ele>
        <time>2019-06-16T13:59:33Z</time>
      </trkpt>
      <trkpt lat="38.586107" lon="-0.655126">
        <ele>651.416</ele>
        <time>2019-06-16T13:59:34Z</time>
      </trkpt>
      <trkpt lat="38.586066" lon="-0.655099">
        <ele>651.375</ele>
        <time>2019-06-16T13:59:35Z</time>
      </trkpt>
      <trkpt lat="38.586024" lon="-0.655060">
        <ele>651.148</ele>
        <time>2019-06-16T13:59:36Z</time>
      </trkpt>
      <trkpt lat="38.585982" lon="-0.655038">
        <ele>651.130</ele>
        <time>2019-06-16T13:59:37Z</time>
      </trkpt>
      <trkpt lat="38.585908" lon="-0.654991">
        <ele>651.087</ele>
        <time>2019-06-16T13:59:39Z</time>
      </trkpt>
      <trkpt lat="38.585848" lon="-0.654937">
        <ele>651.056</ele>
        <time>2019-06-16T13:59:41Z</time>
      </trkpt>
      <trkpt lat="38.585781" lon="-0.654884">
        <ele>651.281</ele>
        <time>2019-06-16T13:59:43Z</time>
      </trkpt>
      <trkpt lat="38.585738" lon="-0.654853">
        <ele>651.346</ele>
        <time>2019-06-16T13:59:44Z</time>
      </trkpt>
      <trkpt lat="38.585662" lon="-0.654795">
        <ele>651.688</ele>
        <time>2019-06-16T13:59:46Z</time>
      </trkpt>
      <trkpt lat="38.585592" lon="-0.654746">
        <ele>651.916</ele>
        <time>2019-06-16T13:59:48Z</time>
      </trkpt>
      <trkpt lat="38.585529" lon="-0.654685">
        <ele>651.908</ele>
        <time>2019-06-16T13:59:50Z</time>
      </trkpt>
      <trkpt lat="38.585466" lon="-0.654615">
        <ele>651.597</ele>
        <time>2019-06-16T13:59:52Z</time>
      </trkpt>
      <trkpt lat="38.585417" lon="-0.654583">
        <ele>651.281</ele>
        <time>2019-06-16T13:59:54Z</time>
      </trkpt>
      <trkpt lat="38.585377" lon="-0.654548">
        <ele>651.050</ele>
        <time>2019-06-16T13:59:57Z</time>
      </trkpt>
      <trkpt lat="38.585290" lon="-0.654476">
        <ele>650.323</ele>
        <time>2019-06-16T13:59:58Z</time>
      </trkpt>
      <trkpt lat="38.585246" lon="-0.654438">
        <ele>650.225</ele>
        <time>2019-06-16T13:59:59Z</time>
      </trkpt>
      <trkpt lat="38.585202" lon="-0.654403">
        <ele>650.562</ele>
        <time>2019-06-16T14:00:00Z</time>
      </trkpt>
      <trkpt lat="38.585143" lon="-0.654335">
        <ele>650.831</ele>
        <time>2019-06-16T14:00:01Z</time>
      </trkpt>
      <trkpt lat="38.585084" lon="-0.654317">
        <ele>651.126</ele>
        <time>2019-06-16T14:00:02Z</time>
      </trkpt>
      <trkpt lat="38.585036" lon="-0.654281">
        <ele>651.279</ele>
        <time>2019-06-16T14:00:03Z</time>
      </trkpt>
      <trkpt lat="38.584987" lon="-0.654249">
        <ele>651.405</ele>
        <time>2019-06-16T14:00:04Z</time>
      </trkpt>
      <trkpt lat="38.584941" lon="-0.654229">
        <ele>651.525</ele>
        <time>2019-06-16T14:00:05Z</time>
      </trkpt>
      <trkpt lat="38.584870" lon="-0.654167">
        <ele>651.508</ele>
        <time>2019-06-16T14:00:07Z</time>
      </trkpt>
      <trkpt lat="38.584829" lon="-0.654131">
        <ele>651.620</ele>
        <time>2019-06-16T14:00:08Z</time>
      </trkpt>
      <trkpt lat="38.584788" lon="-0.654102">
        <ele>651.754</ele>
        <time>2019-06-16T14:00:09Z</time>
      </trkpt>
      <trkpt lat="38.584743" lon="-0.654084">
        <ele>651.963</ele>
        <time>2019-06-16T14:00:10Z</time>
      </trkpt>
      <trkpt lat="38.584706" lon="-0.654042">
        <ele>652.076</ele>
        <time>2019-06-16T14:00:11Z</time>
      </trkpt>
      <trkpt lat="38.584665" lon="-0.654004">
        <ele>652.188</ele>
        <time>2019-06-16T14:00:12Z</time>
      </trkpt>
      <trkpt lat="38.584623" lon="-0.653976">
        <ele>652.135</ele>
        <time>2019-06-16T14:00:13Z</time>
      </trkpt>
      <trkpt lat="38.584579" lon="-0.653946">
        <ele>652.154</ele>
        <time>2019-06-16T14:00:14Z</time>
      </trkpt>
      <trkpt lat="38.584538" lon="-0.653908">
        <ele>652.029</ele>
        <time>2019-06-16T14:00:15Z</time>
      </trkpt>
      <trkpt lat="38.584497" lon="-0.653882">
        <ele>652.063</ele>
        <time>2019-06-16T14:00:16Z</time>
      </trkpt>
      <trkpt lat="38.584453" lon="-0.653855">
        <ele>651.944</ele>
        <time>2019-06-16T14:00:17Z</time>
      </trkpt>
      <trkpt lat="38.584411" lon="-0.653829">
        <ele>651.718</ele>
        <time>2019-06-16T14:00:18Z</time>
      </trkpt>
      <trkpt lat="38.584336" lon="-0.653756">
        <ele>651.308</ele>
        <time>2019-06-16T14:00:20Z</time>
      </trkpt>
      <trkpt lat="38.584283" lon="-0.653681">
        <ele>651.169</ele>
        <time>2019-06-16T14:00:22Z</time>
      </trkpt>
      <trkpt lat="38.584246" lon="-0.653620">
        <ele>651.023</ele>
        <time>2019-06-16T14:00:23Z</time>
      </trkpt>
      <trkpt lat="38.584186" lon="-0.653601">
        <ele>651.022</ele>
        <time>2019-06-16T14:00:24Z</time>
      </trkpt>
      <trkpt lat="38.584111" lon="-0.653540">
        <ele>650.885</ele>
        <time>2019-06-16T14:00:26Z</time>
      </trkpt>
      <trkpt lat="38.584028" lon="-0.653485">
        <ele>650.817</ele>
        <time>2019-06-16T14:00:28Z</time>
      </trkpt>
      <trkpt lat="38.583954" lon="-0.653405">
        <ele>650.824</ele>
        <time>2019-06-16T14:00:30Z</time>
      </trkpt>
      <trkpt lat="38.583909" lon="-0.653380">
        <ele>650.953</ele>
        <time>2019-06-16T14:00:31Z</time>
      </trkpt>
      <trkpt lat="38.583836" lon="-0.653317">
        <ele>651.288</ele>
        <time>2019-06-16T14:00:33Z</time>
      </trkpt>
      <trkpt lat="38.583792" lon="-0.653296">
        <ele>651.417</ele>
        <time>2019-06-16T14:00:34Z</time>
      </trkpt>
      <trkpt lat="38.583730" lon="-0.653243">
        <ele>651.787</ele>
        <time>2019-06-16T14:00:36Z</time>
      </trkpt>
      <trkpt lat="38.583656" lon="-0.653196">
        <ele>651.915</ele>
        <time>2019-06-16T14:00:38Z</time>
      </trkpt>
      <trkpt lat="38.583606" lon="-0.653157">
        <ele>652.008</ele>
        <time>2019-06-16T14:00:40Z</time>
      </trkpt>
      <trkpt lat="38.583552" lon="-0.653119">
        <ele>652.084</ele>
        <time>2019-06-16T14:00:43Z</time>
      </trkpt>
      <trkpt lat="38.583445" lon="-0.653059">
        <ele>652.058</ele>
        <time>2019-06-16T14:00:44Z</time>
      </trkpt>
      <trkpt lat="38.583396" lon="-0.653035">
        <ele>651.927</ele>
        <time>2019-06-16T14:00:45Z</time>
      </trkpt>
      <trkpt lat="38.583346" lon="-0.653006">
        <ele>651.870</ele>
        <time>2019-06-16T14:00:46Z</time>
      </trkpt>
      <trkpt lat="38.583299" lon="-0.652981">
        <ele>651.762</ele>
        <time>2019-06-16T14:00:47Z</time>
      </trkpt>
      <trkpt lat="38.583252" lon="-0.652957">
        <ele>651.529</ele>
        <time>2019-06-16T14:00:48Z</time>
      </trkpt>
      <trkpt lat="38.583211" lon="-0.652925">
        <ele>651.318</ele>
        <time>2019-06-16T14:00:49Z</time>
      </trkpt>
      <trkpt lat="38.583171" lon="-0.652896">
        <ele>651.173</ele>
        <time>2019-06-16T14:00:50Z</time>
      </trkpt>
      <trkpt lat="38.583080" lon="-0.652824">
        <ele>650.459</ele>
        <time>2019-06-16T14:00:52Z</time>
      </trkpt>
      <trkpt lat="38.583037" lon="-0.652798">
        <ele>650.303</ele>
        <time>2019-06-16T14:00:53Z</time>
      </trkpt>
      <trkpt lat="38.582961" lon="-0.652747">
        <ele>650.523</ele>
        <time>2019-06-16T14:00:55Z</time>
      </trkpt>
      <trkpt lat="38.582876" lon="-0.652702">
        <ele>650.808</ele>
        <time>2019-06-16T14:00:57Z</time>
      </trkpt>
      <trkpt lat="38.582794" lon="-0.652660">
        <ele>651.178</ele>
        <time>2019-06-16T14:00:59Z</time>
      </trkpt>
      <trkpt lat="38.582748" lon="-0.652635">
        <ele>651.112</ele>
        <time>2019-06-16T14:01:00Z</time>
      </trkpt>
      <trkpt lat="38.582701" lon="-0.652605">
        <ele>651.061</ele>
        <time>2019-06-16T14:01:01Z</time>
      </trkpt>
      <trkpt lat="38.582659" lon="-0.652584">
        <ele>651.064</ele>
        <time>2019-06-16T14:01:02Z</time>
      </trkpt>
      <trkpt lat="38.582613" lon="-0.652561">
        <ele>651.076</ele>
        <time>2019-06-16T14:01:03Z</time>
      </trkpt>
      <trkpt lat="38.582566" lon="-0.652528">
        <ele>651.093</ele>
        <time>2019-06-16T14:01:04Z</time>
      </trkpt>
      <trkpt lat="38.582518" lon="-0.652501">
        <ele>650.962</ele>
        <time>2019-06-16T14:01:05Z</time>
      </trkpt>
      <trkpt lat="38.582480" lon="-0.652469">
        <ele>651.167</ele>
        <time>2019-06-16T14:01:06Z</time>
      </trkpt>
      <trkpt lat="38.582417" lon="-0.652422">
        <ele>651.152</ele>
        <time>2019-06-16T14:01:08Z</time>
      </trkpt>
      <trkpt lat="38.582370" lon="-0.652408">
        <ele>651.253</ele>
        <time>2019-06-16T14:01:09Z</time>
      </trkpt>
      <trkpt lat="38.582291" lon="-0.652393">
        <ele>651.208</ele>
        <time>2019-06-16T14:01:11Z</time>
      </trkpt>
      <trkpt lat="38.582236" lon="-0.652377">
        <ele>651.108</ele>
        <time>2019-06-16T14:01:14Z</time>
      </trkpt>
      <trkpt lat="38.582172" lon="-0.652356">
        <ele>651.168</ele>
        <time>2019-06-16T14:01:16Z</time>
      </trkpt>
      <trkpt lat="38.582059" lon="-0.652302">
        <ele>651.242</ele>
        <time>2019-06-16T14:01:17Z</time>
      </trkpt>
      <trkpt lat="38.582010" lon="-0.652287">
        <ele>651.211</ele>
        <time>2019-06-16T14:01:18Z</time>
      </trkpt>
      <trkpt lat="38.581961" lon="-0.652277">
        <ele>651.364</ele>
        <time>2019-06-16T14:01:19Z</time>
      </trkpt>
      <trkpt lat="38.581913" lon="-0.652253">
        <ele>651.786</ele>
        <time>2019-06-16T14:01:20Z</time>
      </trkpt>
      <trkpt lat="38.581863" lon="-0.652236">
        <ele>652.333</ele>
        <time>2019-06-16T14:01:23Z</time>
      </trkpt>
      <trkpt lat="38.581705" lon="-0.652188">
        <ele>654.112</ele>
        <time>2019-06-16T14:01:24Z</time>
      </trkpt>
      <trkpt lat="38.581661" lon="-0.652162">
        <ele>654.417</ele>
        <time>2019-06-16T14:01:25Z</time>
      </trkpt>
      <trkpt lat="38.581613" lon="-0.652147">
        <ele>654.761</ele>
        <time>2019-06-16T14:01:26Z</time>
      </trkpt>
      <trkpt lat="38.581527" lon="-0.652118">
        <ele>655.221</ele>
        <time>2019-06-16T14:01:28Z</time>
      </trkpt>
      <trkpt lat="38.581479" lon="-0.652101">
        <ele>655.413</ele>
        <time>2019-06-16T14:01:29Z</time>
      </trkpt>
      <trkpt lat="38.581391" lon="-0.652080">
        <ele>655.908</ele>
        <time>2019-06-16T14:01:31Z</time>
      </trkpt>
      <trkpt lat="38.581320" lon="-0.652051">
        <ele>655.619</ele>
        <time>2019-06-16T14:01:33Z</time>
      </trkpt>
      <trkpt lat="38.581235" lon="-0.652042">
        <ele>655.723</ele>
        <time>2019-06-16T14:01:35Z</time>
      </trkpt>
      <trkpt lat="38.581152" lon="-0.652002">
        <ele>655.842</ele>
        <time>2019-06-16T14:01:37Z</time>
      </trkpt>
      <trkpt lat="38.581082" lon="-0.651956">
        <ele>656.095</ele>
        <time>2019-06-16T14:01:39Z</time>
      </trkpt>
      <trkpt lat="38.581032" lon="-0.651958">
        <ele>656.027</ele>
        <time>2019-06-16T14:01:40Z</time>
      </trkpt>
      <trkpt lat="38.580959" lon="-0.651916">
        <ele>656.144</ele>
        <time>2019-06-16T14:01:42Z</time>
      </trkpt>
      <trkpt lat="38.580915" lon="-0.651887">
        <ele>656.263</ele>
        <time>2019-06-16T14:01:43Z</time>
      </trkpt>
      <trkpt lat="38.580820" lon="-0.651858">
        <ele>656.248</ele>
        <time>2019-06-16T14:01:45Z</time>
      </trkpt>
      <trkpt lat="38.580722" lon="-0.651847">
        <ele>655.452</ele>
        <time>2019-06-16T14:01:47Z</time>
      </trkpt>
      <trkpt lat="38.580671" lon="-0.651852">
        <ele>655.053</ele>
        <time>2019-06-16T14:01:48Z</time>
      </trkpt>
      <trkpt lat="38.580627" lon="-0.651838">
        <ele>654.608</ele>
        <time>2019-06-16T14:01:49Z</time>
      </trkpt>
      <trkpt lat="38.580583" lon="-0.651849">
        <ele>654.208</ele>
        <time>2019-06-16T14:01:50Z</time>
      </trkpt>
      <trkpt lat="38.580497" lon="-0.651827">
        <ele>653.378</ele>
        <time>2019-06-16T14:01:52Z</time>
      </trkpt>
      <trkpt lat="38.580449" lon="-0.651819">
        <ele>652.772</ele>
        <time>2019-06-16T14:01:53Z</time>
      </trkpt>
      <trkpt lat="38.580387" lon="-0.651827">
        <ele>651.941</ele>
        <time>2019-06-16T14:01:54Z</time>
      </trkpt>
      <trkpt lat="38.580336" lon="-0.651814">
        <ele>651.344</ele>
        <time>2019-06-16T14:01:55Z</time>
      </trkpt>
      <trkpt lat="38.580285" lon="-0.651804">
        <ele>650.646</ele>
        <time>2019-06-16T14:01:56Z</time>
      </trkpt>
      <trkpt lat="38.580236" lon="-0.651806">
        <ele>650.263</ele>
        <time>2019-06-16T14:01:57Z</time>
      </trkpt>
      <trkpt lat="38.580149" lon="-0.651804">
        <ele>649.632</ele>
        <time>2019-06-16T14:01:59Z</time>
      </trkpt>
      <trkpt lat="38.580067" lon="-0.651809">
        <ele>649.057</ele>
        <time>2019-06-16T14:02:01Z</time>
      </trkpt>
      <trkpt lat="38.579988" lon="-0.651821">
        <ele>648.593</ele>
        <time>2019-06-16T14:02:03Z</time>
      </trkpt>
      <trkpt lat="38.579925" lon="-0.651812">
        <ele>648.165</ele>
        <time>2019-06-16T14:02:11Z</time>
      </trkpt>
      <trkpt lat="38.579925" lon="-0.651812">
        <ele>648.121</ele>
        <time>2019-06-16T14:02:11Z</time>
      </trkpt>
      <trkpt lat="38.579869" lon="-0.651823">
        <ele>647.808</ele>
        <time>2019-06-16T14:02:51Z</time>
      </trkpt>
      <trkpt lat="38.579790" lon="-0.651855">
        <ele>647.412</ele>
        <time>2019-06-16T14:02:52Z</time>
      </trkpt>
      <trkpt lat="38.579742" lon="-0.651871">
        <ele>647.166</ele>
        <time>2019-06-16T14:02:54Z</time>
      </trkpt>
      <trkpt lat="38.579513" lon="-0.651949">
        <ele>644.895</ele>
        <time>2019-06-16T14:02:56Z</time>
      </trkpt>
      <trkpt lat="38.579487" lon="-0.651998">
        <ele>644.728</ele>
        <time>2019-06-16T14:02:57Z</time>
      </trkpt>
      <trkpt lat="38.579438" lon="-0.652000">
        <ele>644.260</ele>
        <time>2019-06-16T14:02:58Z</time>
      </trkpt>
      <trkpt lat="38.579372" lon="-0.652030">
        <ele>644.767</ele>
        <time>2019-06-16T14:03:00Z</time>
      </trkpt>
      <trkpt lat="38.579319" lon="-0.652058">
        <ele>645.166</ele>
        <time>2019-06-16T14:03:02Z</time>
      </trkpt>
      <trkpt lat="38.579317" lon="-0.651996">
        <ele>645.021</ele>
        <time>2019-06-16T14:03:21Z</time>
      </trkpt>
      <trkpt lat="38.579312" lon="-0.652062">
        <ele>645.289</ele>
        <time>2019-06-16T14:03:28Z</time>
      </trkpt>
      <trkpt lat="38.579295" lon="-0.652116">
        <ele>645.406</ele>
        <time>2019-06-16T14:03:30Z</time>
      </trkpt>
      <trkpt lat="38.579269" lon="-0.652164">
        <ele>645.626</ele>
        <time>2019-06-16T14:03:32Z</time>
      </trkpt>
      <trkpt lat="38.579238" lon="-0.652212">
        <ele>645.708</ele>
        <time>2019-06-16T14:03:34Z</time>
      </trkpt>
      <trkpt lat="38.579206" lon="-0.652261">
        <ele>646.441</ele>
        <time>2019-06-16T14:03:36Z</time>
      </trkpt>
      <trkpt lat="38.579169" lon="-0.652317">
        <ele>647.485</ele>
        <time>2019-06-16T14:03:38Z</time>
      </trkpt>
      <trkpt lat="38.579128" lon="-0.652393">
        <ele>648.984</ele>
        <time>2019-06-16T14:03:40Z</time>
      </trkpt>
      <trkpt lat="38.579104" lon="-0.652461">
        <ele>650.057</ele>
        <time>2019-06-16T14:03:42Z</time>
      </trkpt>
      <trkpt lat="38.579089" lon="-0.652531">
        <ele>650.749</ele>
        <time>2019-06-16T14:03:44Z</time>
      </trkpt>
      <trkpt lat="38.579081" lon="-0.652591">
        <ele>651.046</ele>
        <time>2019-06-16T14:03:46Z</time>
      </trkpt>
      <trkpt lat="38.579071" lon="-0.652652">
        <ele>651.495</ele>
        <time>2019-06-16T14:03:48Z</time>
      </trkpt>
      <trkpt lat="38.579058" lon="-0.652712">
        <ele>651.880</ele>
        <time>2019-06-16T14:03:50Z</time>
      </trkpt>
      <trkpt lat="38.579047" lon="-0.652777">
        <ele>652.363</ele>
        <time>2019-06-16T14:03:52Z</time>
      </trkpt>
      <trkpt lat="38.579040" lon="-0.652843">
        <ele>653.044</ele>
        <time>2019-06-16T14:03:54Z</time>
      </trkpt>
      <trkpt lat="38.579035" lon="-0.652912">
        <ele>653.618</ele>
        <time>2019-06-16T14:03:57Z</time>
      </trkpt>
      <trkpt lat="38.579037" lon="-0.652981">
        <ele>654.308</ele>
        <time>2019-06-16T14:04:00Z</time>
      </trkpt>
      <trkpt lat="38.579049" lon="-0.653044">
        <ele>654.779</ele>
        <time>2019-06-16T14:04:02Z</time>
      </trkpt>
      <trkpt lat="38.579057" lon="-0.653116">
        <ele>655.263</ele>
        <time>2019-06-16T14:04:04Z</time>
      </trkpt>
      <trkpt lat="38.579062" lon="-0.653181">
        <ele>655.722</ele>
        <time>2019-06-16T14:04:06Z</time>
      </trkpt>
      <trkpt lat="38.579064" lon="-0.653269">
        <ele>656.355</ele>
        <time>2019-06-16T14:04:08Z</time>
      </trkpt>
      <trkpt lat="38.579064" lon="-0.653351">
        <ele>656.867</ele>
        <time>2019-06-16T14:04:10Z</time>
      </trkpt>
      <trkpt lat="38.579054" lon="-0.653418">
        <ele>657.114</ele>
        <time>2019-06-16T14:04:12Z</time>
      </trkpt>
      <trkpt lat="38.579030" lon="-0.653475">
        <ele>657.523</ele>
        <time>2019-06-16T14:04:14Z</time>
      </trkpt>
      <trkpt lat="38.578992" lon="-0.653518">
        <ele>657.948</ele>
        <time>2019-06-16T14:04:16Z</time>
      </trkpt>
      <trkpt lat="38.578945" lon="-0.653547">
        <ele>658.416</ele>
        <time>2019-06-16T14:04:18Z</time>
      </trkpt>
      <trkpt lat="38.578893" lon="-0.653578">
        <ele>658.976</ele>
        <time>2019-06-16T14:04:20Z</time>
      </trkpt>
      <trkpt lat="38.578840" lon="-0.653607">
        <ele>659.013</ele>
        <time>2019-06-16T14:04:22Z</time>
      </trkpt>
      <trkpt lat="38.578782" lon="-0.653632">
        <ele>659.008</ele>
        <time>2019-06-16T14:04:24Z</time>
      </trkpt>
      <trkpt lat="38.578719" lon="-0.653660">
        <ele>659.134</ele>
        <time>2019-06-16T14:04:26Z</time>
      </trkpt>
      <trkpt lat="38.578658" lon="-0.653690">
        <ele>659.298</ele>
        <time>2019-06-16T14:04:28Z</time>
      </trkpt>
      <trkpt lat="38.578590" lon="-0.653724">
        <ele>659.327</ele>
        <time>2019-06-16T14:04:30Z</time>
      </trkpt>
      <trkpt lat="38.578513" lon="-0.653759">
        <ele>658.890</ele>
        <time>2019-06-16T14:04:32Z</time>
      </trkpt>
      <trkpt lat="38.578439" lon="-0.653790">
        <ele>658.252</ele>
        <time>2019-06-16T14:04:34Z</time>
      </trkpt>
      <trkpt lat="38.578379" lon="-0.653822">
        <ele>657.779</ele>
        <time>2019-06-16T14:04:36Z</time>
      </trkpt>
      <trkpt lat="38.578319" lon="-0.653860">
        <ele>657.028</ele>
        <time>2019-06-16T14:04:38Z</time>
      </trkpt>
      <trkpt lat="38.578201" lon="-0.653924">
        <ele>656.183</ele>
        <time>2019-06-16T14:04:40Z</time>
      </trkpt>
      <trkpt lat="38.578133" lon="-0.653945">
        <ele>655.756</ele>
        <time>2019-06-16T14:04:42Z</time>
      </trkpt>
      <trkpt lat="38.578061" lon="-0.653970">
        <ele>655.359</ele>
        <time>2019-06-16T14:04:44Z</time>
      </trkpt>
      <trkpt lat="38.578015" lon="-0.653992">
        <ele>655.314</ele>
        <time>2019-06-16T14:04:46Z</time>
      </trkpt>
      <trkpt lat="38.578000" lon="-0.654057">
        <ele>655.508</ele>
        <time>2019-06-16T14:07:16Z</time>
      </trkpt>
      <trkpt lat="38.577953" lon="-0.654108">
        <ele>655.718</ele>
        <time>2019-06-16T14:07:19Z</time>
      </trkpt>
      <trkpt lat="38.577985" lon="-0.654239">
        <ele>656.512</ele>
        <time>2019-06-16T14:07:22Z</time>
      </trkpt>
      <trkpt lat="38.578010" lon="-0.654289">
        <ele>656.941</ele>
        <time>2019-06-16T14:07:23Z</time>
      </trkpt>
      <trkpt lat="38.578050" lon="-0.654396">
        <ele>657.794</ele>
        <time>2019-06-16T14:07:25Z</time>
      </trkpt>
      <trkpt lat="38.578077" lon="-0.654499">
        <ele>658.366</ele>
        <time>2019-06-16T14:07:27Z</time>
      </trkpt>
      <trkpt lat="38.578030" lon="-0.654601">
        <ele>659.213</ele>
        <time>2019-06-16T14:07:29Z</time>
      </trkpt>
      <trkpt lat="38.577974" lon="-0.654699">
        <ele>660.182</ele>
        <time>2019-06-16T14:07:31Z</time>
      </trkpt>
      <trkpt lat="38.577929" lon="-0.654771">
        <ele>660.817</ele>
        <time>2019-06-16T14:07:33Z</time>
      </trkpt>
      <trkpt lat="38.577867" lon="-0.654795">
        <ele>661.239</ele>
        <time>2019-06-16T14:07:35Z</time>
      </trkpt>
      <trkpt lat="38.577827" lon="-0.654851">
        <ele>661.801</ele>
        <time>2019-06-16T14:07:37Z</time>
      </trkpt>
      <trkpt lat="38.577791" lon="-0.654898">
        <ele>662.221</ele>
        <time>2019-06-16T14:07:40Z</time>
      </trkpt>
      <trkpt lat="38.577745" lon="-0.654929">
        <ele>662.508</ele>
        <time>2019-06-16T14:07:47Z</time>
      </trkpt>
      <trkpt lat="38.577701" lon="-0.654958">
        <ele>662.776</ele>
        <time>2019-06-16T14:07:54Z</time>
      </trkpt>
      <trkpt lat="38.577670" lon="-0.655015">
        <ele>663.050</ele>
        <time>2019-06-16T14:07:56Z</time>
      </trkpt>
      <trkpt lat="38.577632" lon="-0.655088">
        <ele>662.899</ele>
        <time>2019-06-16T14:07:58Z</time>
      </trkpt>
      <trkpt lat="38.577597" lon="-0.655143">
        <ele>662.792</ele>
        <time>2019-06-16T14:08:00Z</time>
      </trkpt>
      <trkpt lat="38.577552" lon="-0.655181">
        <ele>662.534</ele>
        <time>2019-06-16T14:08:03Z</time>
      </trkpt>
      <trkpt lat="38.577506" lon="-0.655183">
        <ele>662.411</ele>
        <time>2019-06-16T14:08:12Z</time>
      </trkpt>
      <trkpt lat="38.577462" lon="-0.655148">
        <ele>662.310</ele>
        <time>2019-06-16T14:08:19Z</time>
      </trkpt>
      <trkpt lat="38.577405" lon="-0.655082">
        <ele>662.255</ele>
        <time>2019-06-16T14:08:20Z</time>
      </trkpt>
      <trkpt lat="38.577367" lon="-0.655050">
        <ele>662.076</ele>
        <time>2019-06-16T14:08:21Z</time>
      </trkpt>
      <trkpt lat="38.577329" lon="-0.655016">
        <ele>661.890</ele>
        <time>2019-06-16T14:08:22Z</time>
      </trkpt>
      <trkpt lat="38.577296" lon="-0.654975">
        <ele>661.419</ele>
        <time>2019-06-16T14:08:23Z</time>
      </trkpt>
      <trkpt lat="38.577254" lon="-0.654923">
        <ele>660.708</ele>
        <time>2019-06-16T14:08:25Z</time>
      </trkpt>
      <trkpt lat="38.577226" lon="-0.654875">
        <ele>660.180</ele>
        <time>2019-06-16T14:08:28Z</time>
      </trkpt>
      <trkpt lat="38.577174" lon="-0.654796">
        <ele>659.534</ele>
        <time>2019-06-16T14:08:29Z</time>
      </trkpt>
      <trkpt lat="38.577138" lon="-0.654760">
        <ele>659.263</ele>
        <time>2019-06-16T14:08:30Z</time>
      </trkpt>
      <trkpt lat="38.577066" lon="-0.654696">
        <ele>658.976</ele>
        <time>2019-06-16T14:08:32Z</time>
      </trkpt>
      <trkpt lat="38.577027" lon="-0.654664">
        <ele>658.778</ele>
        <time>2019-06-16T14:08:34Z</time>
      </trkpt>
      <trkpt lat="38.576982" lon="-0.654622">
        <ele>658.625</ele>
        <time>2019-06-16T14:08:36Z</time>
      </trkpt>
      <trkpt lat="38.576928" lon="-0.654565">
        <ele>658.494</ele>
        <time>2019-06-16T14:08:38Z</time>
      </trkpt>
      <trkpt lat="38.576847" lon="-0.654495">
        <ele>658.279</ele>
        <time>2019-06-16T14:08:39Z</time>
      </trkpt>
      <trkpt lat="38.576809" lon="-0.654461">
        <ele>658.194</ele>
        <time>2019-06-16T14:08:40Z</time>
      </trkpt>
      <trkpt lat="38.576761" lon="-0.654434">
        <ele>657.957</ele>
        <time>2019-06-16T14:08:41Z</time>
      </trkpt>
      <trkpt lat="38.576720" lon="-0.654407">
        <ele>657.722</ele>
        <time>2019-06-16T14:08:42Z</time>
      </trkpt>
      <trkpt lat="38.576673" lon="-0.654379">
        <ele>657.508</ele>
        <time>2019-06-16T14:08:43Z</time>
      </trkpt>
      <trkpt lat="38.576632" lon="-0.654339">
        <ele>657.412</ele>
        <time>2019-06-16T14:08:44Z</time>
      </trkpt>
      <trkpt lat="38.576581" lon="-0.654295">
        <ele>657.276</ele>
        <time>2019-06-16T14:08:45Z</time>
      </trkpt>
      <trkpt lat="38.576534" lon="-0.654272">
        <ele>657.255</ele>
        <time>2019-06-16T14:08:46Z</time>
      </trkpt>
      <trkpt lat="38.576462" lon="-0.654237">
        <ele>657.238</ele>
        <time>2019-06-16T14:08:48Z</time>
      </trkpt>
      <trkpt lat="38.576397" lon="-0.654178">
        <ele>657.190</ele>
        <time>2019-06-16T14:08:50Z</time>
      </trkpt>
      <trkpt lat="38.576308" lon="-0.654165">
        <ele>657.327</ele>
        <time>2019-06-16T14:08:52Z</time>
      </trkpt>
      <trkpt lat="38.576254" lon="-0.654155">
        <ele>657.456</ele>
        <time>2019-06-16T14:08:55Z</time>
      </trkpt>
      <trkpt lat="38.576205" lon="-0.654145">
        <ele>657.561</ele>
        <time>2019-06-16T14:08:57Z</time>
      </trkpt>
      <trkpt lat="38.576152" lon="-0.654136">
        <ele>657.659</ele>
        <time>2019-06-16T14:08:59Z</time>
      </trkpt>
      <trkpt lat="38.576084" lon="-0.654133">
        <ele>657.503</ele>
        <time>2019-06-16T14:09:01Z</time>
      </trkpt>
      <trkpt lat="38.575977" lon="-0.654140">
        <ele>657.223</ele>
        <time>2019-06-16T14:09:02Z</time>
      </trkpt>
      <trkpt lat="38.575851" lon="-0.654167">
        <ele>657.108</ele>
        <time>2019-06-16T14:09:05Z</time>
      </trkpt>
      <trkpt lat="38.575797" lon="-0.654181">
        <ele>656.988</ele>
        <time>2019-06-16T14:09:06Z</time>
      </trkpt>
      <trkpt lat="38.575751" lon="-0.654187">
        <ele>656.662</ele>
        <time>2019-06-16T14:09:07Z</time>
      </trkpt>
      <trkpt lat="38.575701" lon="-0.654180">
        <ele>656.251</ele>
        <time>2019-06-16T14:09:08Z</time>
      </trkpt>
      <trkpt lat="38.575650" lon="-0.654185">
        <ele>655.934</ele>
        <time>2019-06-16T14:09:09Z</time>
      </trkpt>
      <trkpt lat="38.575603" lon="-0.654186">
        <ele>655.546</ele>
        <time>2019-06-16T14:09:10Z</time>
      </trkpt>
      <trkpt lat="38.575551" lon="-0.654191">
        <ele>655.283</ele>
        <time>2019-06-16T14:09:11Z</time>
      </trkpt>
      <trkpt lat="38.575468" lon="-0.654198">
        <ele>655.042</ele>
        <time>2019-06-16T14:09:13Z</time>
      </trkpt>
      <trkpt lat="38.575415" lon="-0.654198">
        <ele>654.787</ele>
        <time>2019-06-16T14:09:14Z</time>
      </trkpt>
      <trkpt lat="38.575370" lon="-0.654202">
        <ele>654.558</ele>
        <time>2019-06-16T14:09:15Z</time>
      </trkpt>
      <trkpt lat="38.575294" lon="-0.654205">
        <ele>654.252</ele>
        <time>2019-06-16T14:09:17Z</time>
      </trkpt>
      <trkpt lat="38.575238" lon="-0.654206">
        <ele>654.117</ele>
        <time>2019-06-16T14:09:19Z</time>
      </trkpt>
      <trkpt lat="38.575186" lon="-0.654218">
        <ele>654.108</ele>
        <time>2019-06-16T14:09:20Z</time>
      </trkpt>
      <trkpt lat="38.575108" lon="-0.654233">
        <ele>654.118</ele>
        <time>2019-06-16T14:09:22Z</time>
      </trkpt>
      <trkpt lat="38.575062" lon="-0.654248">
        <ele>654.162</ele>
        <time>2019-06-16T14:09:23Z</time>
      </trkpt>
      <trkpt lat="38.575016" lon="-0.654253">
        <ele>654.091</ele>
        <time>2019-06-16T14:09:24Z</time>
      </trkpt>
      <trkpt lat="38.574968" lon="-0.654244">
        <ele>654.054</ele>
        <time>2019-06-16T14:09:25Z</time>
      </trkpt>
      <trkpt lat="38.574921" lon="-0.654234">
        <ele>654.166</ele>
        <time>2019-06-16T14:09:26Z</time>
      </trkpt>
      <trkpt lat="38.574836" lon="-0.654217">
        <ele>654.143</ele>
        <time>2019-06-16T14:09:28Z</time>
      </trkpt>
      <trkpt lat="38.574753" lon="-0.654205">
        <ele>654.162</ele>
        <time>2019-06-16T14:09:30Z</time>
      </trkpt>
      <trkpt lat="38.574705" lon="-0.654205">
        <ele>654.167</ele>
        <time>2019-06-16T14:09:31Z</time>
      </trkpt>
      <trkpt lat="38.574612" lon="-0.654185">
        <ele>654.197</ele>
        <time>2019-06-16T14:09:33Z</time>
      </trkpt>
      <trkpt lat="38.574566" lon="-0.654172">
        <ele>654.023</ele>
        <time>2019-06-16T14:09:34Z</time>
      </trkpt>
      <trkpt lat="38.574520" lon="-0.654157">
        <ele>653.925</ele>
        <time>2019-06-16T14:09:35Z</time>
      </trkpt>
      <trkpt lat="38.574466" lon="-0.654156">
        <ele>653.908</ele>
        <time>2019-06-16T14:09:36Z</time>
      </trkpt>
      <trkpt lat="38.574416" lon="-0.654139">
        <ele>653.642</ele>
        <time>2019-06-16T14:09:37Z</time>
      </trkpt>
      <trkpt lat="38.574369" lon="-0.654132">
        <ele>653.246</ele>
        <time>2019-06-16T14:09:38Z</time>
      </trkpt>
      <trkpt lat="38.574324" lon="-0.654111">
        <ele>652.875</ele>
        <time>2019-06-16T14:09:39Z</time>
      </trkpt>
      <trkpt lat="38.574272" lon="-0.654094">
        <ele>652.458</ele>
        <time>2019-06-16T14:09:40Z</time>
      </trkpt>
      <trkpt lat="38.574217" lon="-0.654075">
        <ele>652.050</ele>
        <time>2019-06-16T14:09:41Z</time>
      </trkpt>
      <trkpt lat="38.574135" lon="-0.654101">
        <ele>651.567</ele>
        <time>2019-06-16T14:09:43Z</time>
      </trkpt>
      <trkpt lat="38.574088" lon="-0.654103">
        <ele>651.286</ele>
        <time>2019-06-16T14:09:44Z</time>
      </trkpt>
      <trkpt lat="38.574036" lon="-0.654105">
        <ele>650.891</ele>
        <time>2019-06-16T14:09:45Z</time>
      </trkpt>
      <trkpt lat="38.573983" lon="-0.654142">
        <ele>650.634</ele>
        <time>2019-06-16T14:09:48Z</time>
      </trkpt>
      <trkpt lat="38.573933" lon="-0.654142">
        <ele>650.255</ele>
        <time>2019-06-16T14:09:50Z</time>
      </trkpt>
      <trkpt lat="38.573867" lon="-0.654153">
        <ele>650.010</ele>
        <time>2019-06-16T14:09:52Z</time>
      </trkpt>
      <trkpt lat="38.573815" lon="-0.654182">
        <ele>650.208</ele>
        <time>2019-06-16T14:09:54Z</time>
      </trkpt>
      <trkpt lat="38.573743" lon="-0.654222">
        <ele>650.756</ele>
        <time>2019-06-16T14:09:55Z</time>
      </trkpt>
      <trkpt lat="38.573691" lon="-0.654238">
        <ele>651.030</ele>
        <time>2019-06-16T14:09:56Z</time>
      </trkpt>
      <trkpt lat="38.573611" lon="-0.654285">
        <ele>651.719</ele>
        <time>2019-06-16T14:09:58Z</time>
      </trkpt>
      <trkpt lat="38.573558" lon="-0.654312">
        <ele>651.762</ele>
        <time>2019-06-16T14:09:59Z</time>
      </trkpt>
      <trkpt lat="38.573525" lon="-0.654356">
        <ele>652.084</ele>
        <time>2019-06-16T14:10:03Z</time>
      </trkpt>
      <trkpt lat="38.573482" lon="-0.654405">
        <ele>652.241</ele>
        <time>2019-06-16T14:10:06Z</time>
      </trkpt>
      <trkpt lat="38.573342" lon="-0.654418">
        <ele>650.990</ele>
        <time>2019-06-16T14:10:08Z</time>
      </trkpt>
      <trkpt lat="38.573291" lon="-0.654495">
        <ele>651.865</ele>
        <time>2019-06-16T14:10:10Z</time>
      </trkpt>
      <trkpt lat="38.573234" lon="-0.654499">
        <ele>651.415</ele>
        <time>2019-06-16T14:10:13Z</time>
      </trkpt>
      <trkpt lat="38.573169" lon="-0.654554">
        <ele>652.065</ele>
        <time>2019-06-16T14:10:17Z</time>
      </trkpt>
      <trkpt lat="38.573129" lon="-0.654612">
        <ele>652.711</ele>
        <time>2019-06-16T14:10:19Z</time>
      </trkpt>
      <trkpt lat="38.573091" lon="-0.654682">
        <ele>653.608</ele>
        <time>2019-06-16T14:10:22Z</time>
      </trkpt>
      <trkpt lat="38.572977" lon="-0.654814">
        <ele>654.494</ele>
        <time>2019-06-16T14:10:24Z</time>
      </trkpt>
      <trkpt lat="38.572883" lon="-0.654817">
        <ele>653.328</ele>
        <time>2019-06-16T14:10:26Z</time>
      </trkpt>
      <trkpt lat="38.572784" lon="-0.654877">
        <ele>652.867</ele>
        <time>2019-06-16T14:10:28Z</time>
      </trkpt>
      <trkpt lat="38.572656" lon="-0.655022">
        <ele>652.450</ele>
        <time>2019-06-16T14:10:30Z</time>
      </trkpt>
      <trkpt lat="38.572538" lon="-0.655041">
        <ele>650.932</ele>
        <time>2019-06-16T14:10:32Z</time>
      </trkpt>
      <trkpt lat="38.572435" lon="-0.655140">
        <ele>650.559</ele>
        <time>2019-06-16T14:10:34Z</time>
      </trkpt>
      <trkpt lat="38.572328" lon="-0.655227">
        <ele>650.448</ele>
        <time>2019-06-16T14:10:36Z</time>
      </trkpt>
      <trkpt lat="38.572202" lon="-0.655324">
        <ele>649.973</ele>
        <time>2019-06-16T14:10:38Z</time>
      </trkpt>
      <trkpt lat="38.572088" lon="-0.655350">
        <ele>648.865</ele>
        <time>2019-06-16T14:10:40Z</time>
      </trkpt>
      <trkpt lat="38.572003" lon="-0.655569">
        <ele>648.768</ele>
        <time>2019-06-16T14:10:42Z</time>
      </trkpt>
      <trkpt lat="38.571927" lon="-0.655586">
        <ele>647.914</ele>
        <time>2019-06-16T14:10:44Z</time>
      </trkpt>
      <trkpt lat="38.571815" lon="-0.655682">
        <ele>646.808</ele>
        <time>2019-06-16T14:10:46Z</time>
      </trkpt>
      <trkpt lat="38.571677" lon="-0.655803">
        <ele>645.859</ele>
        <time>2019-06-16T14:10:48Z</time>
      </trkpt>
      <trkpt lat="38.571522" lon="-0.655868">
        <ele>644.363</ele>
        <time>2019-06-16T14:10:50Z</time>
      </trkpt>
      <trkpt lat="38.571399" lon="-0.656029">
        <ele>644.372</ele>
        <time>2019-06-16T14:10:52Z</time>
      </trkpt>
      <trkpt lat="38.571266" lon="-0.656108">
        <ele>643.625</ele>
        <time>2019-06-16T14:10:54Z</time>
      </trkpt>
      <trkpt lat="38.571159" lon="-0.656213">
        <ele>643.357</ele>
        <time>2019-06-16T14:10:56Z</time>
      </trkpt>
      <trkpt lat="38.571014" lon="-0.656283">
        <ele>641.664</ele>
        <time>2019-06-16T14:10:58Z</time>
      </trkpt>
      <trkpt lat="38.570957" lon="-0.656374">
        <ele>641.133</ele>
        <time>2019-06-16T14:11:00Z</time>
      </trkpt>
      <trkpt lat="38.570811" lon="-0.656463">
        <ele>639.068</ele>
        <time>2019-06-16T14:11:02Z</time>
      </trkpt>
      <trkpt lat="38.570694" lon="-0.656545">
        <ele>638.198</ele>
        <time>2019-06-16T14:11:04Z</time>
      </trkpt>
      <trkpt lat="38.570597" lon="-0.656651">
        <ele>637.415</ele>
        <time>2019-06-16T14:11:06Z</time>
      </trkpt>
      <trkpt lat="38.570520" lon="-0.656733">
        <ele>637.726</ele>
        <time>2019-06-16T14:11:08Z</time>
      </trkpt>
      <trkpt lat="38.570431" lon="-0.656796">
        <ele>638.008</ele>
        <time>2019-06-16T14:11:10Z</time>
      </trkpt>
      <trkpt lat="38.570338" lon="-0.656906">
        <ele>638.262</ele>
        <time>2019-06-16T14:11:12Z</time>
      </trkpt>
      <trkpt lat="38.570237" lon="-0.656973">
        <ele>638.186</ele>
        <time>2019-06-16T14:11:14Z</time>
      </trkpt>
      <trkpt lat="38.570099" lon="-0.657002">
        <ele>637.885</ele>
        <time>2019-06-16T14:11:16Z</time>
      </trkpt>
      <trkpt lat="38.569946" lon="-0.657053">
        <ele>637.858</ele>
        <time>2019-06-16T14:11:18Z</time>
      </trkpt>
      <trkpt lat="38.569816" lon="-0.657130">
        <ele>638.370</ele>
        <time>2019-06-16T14:11:20Z</time>
      </trkpt>
      <trkpt lat="38.569708" lon="-0.657225">
        <ele>639.187</ele>
        <time>2019-06-16T14:11:22Z</time>
      </trkpt>
      <trkpt lat="38.569606" lon="-0.657279">
        <ele>640.196</ele>
        <time>2019-06-16T14:11:24Z</time>
      </trkpt>
      <trkpt lat="38.569534" lon="-0.657310">
        <ele>640.641</ele>
        <time>2019-06-16T14:11:26Z</time>
      </trkpt>
      <trkpt lat="38.569448" lon="-0.657377">
        <ele>641.038</ele>
        <time>2019-06-16T14:11:28Z</time>
      </trkpt>
      <trkpt lat="38.569378" lon="-0.657428">
        <ele>641.270</ele>
        <time>2019-06-16T14:11:30Z</time>
      </trkpt>
      <trkpt lat="38.569301" lon="-0.657484">
        <ele>641.517</ele>
        <time>2019-06-16T14:11:32Z</time>
      </trkpt>
      <trkpt lat="38.569195" lon="-0.657533">
        <ele>641.908</ele>
        <time>2019-06-16T14:11:34Z</time>
      </trkpt>
      <trkpt lat="38.569074" lon="-0.657558">
        <ele>641.836</ele>
        <time>2019-06-16T14:11:36Z</time>
      </trkpt>
      <trkpt lat="38.568968" lon="-0.657630">
        <ele>642.070</ele>
        <time>2019-06-16T14:11:38Z</time>
      </trkpt>
      <trkpt lat="38.568853" lon="-0.657666">
        <ele>642.279</ele>
        <time>2019-06-16T14:11:40Z</time>
      </trkpt>
      <trkpt lat="38.568769" lon="-0.657686">
        <ele>642.352</ele>
        <time>2019-06-16T14:11:42Z</time>
      </trkpt>
      <trkpt lat="38.568673" lon="-0.657760">
        <ele>642.914</ele>
        <time>2019-06-16T14:11:44Z</time>
      </trkpt>
      <trkpt lat="38.568572" lon="-0.657841">
        <ele>643.491</ele>
        <time>2019-06-16T14:11:46Z</time>
      </trkpt>
      <trkpt lat="38.568460" lon="-0.657843">
        <ele>643.850</ele>
        <time>2019-06-16T14:11:48Z</time>
      </trkpt>
      <trkpt lat="38.568370" lon="-0.657894">
        <ele>644.395</ele>
        <time>2019-06-16T14:11:50Z</time>
      </trkpt>
      <trkpt lat="38.568262" lon="-0.657896">
        <ele>645.297</ele>
        <time>2019-06-16T14:11:52Z</time>
      </trkpt>
      <trkpt lat="38.568138" lon="-0.657880">
        <ele>646.523</ele>
        <time>2019-06-16T14:11:54Z</time>
      </trkpt>
      <trkpt lat="38.568042" lon="-0.657897">
        <ele>647.625</ele>
        <time>2019-06-16T14:11:56Z</time>
      </trkpt>
      <trkpt lat="38.567985" lon="-0.657758">
        <ele>647.408</ele>
        <time>2019-06-16T14:11:58Z</time>
      </trkpt>
      <trkpt lat="38.567919" lon="-0.657702">
        <ele>647.642</ele>
        <time>2019-06-16T14:12:00Z</time>
      </trkpt>
      <trkpt lat="38.567878" lon="-0.657675">
        <ele>647.716</ele>
        <time>2019-06-16T14:12:02Z</time>
      </trkpt>
      <trkpt lat="38.567779" lon="-0.657655">
        <ele>648.155</ele>
        <time>2019-06-16T14:12:04Z</time>
      </trkpt>
      <trkpt lat="38.567708" lon="-0.657663">
        <ele>648.348</ele>
        <time>2019-06-16T14:12:08Z</time>
      </trkpt>
      <trkpt lat="38.567659" lon="-0.657660">
        <ele>648.450</ele>
        <time>2019-06-16T14:12:10Z</time>
      </trkpt>
      <trkpt lat="38.567506" lon="-0.657688">
        <ele>649.077</ele>
        <time>2019-06-16T14:12:12Z</time>
      </trkpt>
      <trkpt lat="38.567377" lon="-0.657698">
        <ele>649.116</ele>
        <time>2019-06-16T14:12:14Z</time>
      </trkpt>
      <trkpt lat="38.567267" lon="-0.657738">
        <ele>649.671</ele>
        <time>2019-06-16T14:12:16Z</time>
      </trkpt>
      <trkpt lat="38.567157" lon="-0.657828">
        <ele>649.946</ele>
        <time>2019-06-16T14:12:18Z</time>
      </trkpt>
      <trkpt lat="38.567075" lon="-0.657850">
        <ele>649.588</ele>
        <time>2019-06-16T14:12:20Z</time>
      </trkpt>
      <trkpt lat="38.567024" lon="-0.657860">
        <ele>649.216</ele>
        <time>2019-06-16T14:12:22Z</time>
      </trkpt>
      <trkpt lat="38.566925" lon="-0.657907">
        <ele>648.708</ele>
        <time>2019-06-16T14:12:24Z</time>
      </trkpt>
      <trkpt lat="38.566844" lon="-0.657953">
        <ele>647.927</ele>
        <time>2019-06-16T14:12:26Z</time>
      </trkpt>
      <trkpt lat="38.566757" lon="-0.658007">
        <ele>647.171</ele>
        <time>2019-06-16T14:12:28Z</time>
      </trkpt>
      <trkpt lat="38.566685" lon="-0.658088">
        <ele>646.720</ele>
        <time>2019-06-16T14:12:30Z</time>
      </trkpt>
      <trkpt lat="38.566607" lon="-0.658149">
        <ele>646.363</ele>
        <time>2019-06-16T14:12:32Z</time>
      </trkpt>
      <trkpt lat="38.566518" lon="-0.658199">
        <ele>645.145</ele>
        <time>2019-06-16T14:12:34Z</time>
      </trkpt>
      <trkpt lat="38.566450" lon="-0.658265">
        <ele>644.112</ele>
        <time>2019-06-16T14:12:36Z</time>
      </trkpt>
      <trkpt lat="38.566417" lon="-0.658309">
        <ele>643.641</ele>
        <time>2019-06-16T14:12:38Z</time>
      </trkpt>
      <trkpt lat="38.565231" lon="-0.658786">
        <ele>643.426</ele>
        <time>2019-06-16T14:16:24Z</time>
      </trkpt>
      <trkpt lat="38.565184" lon="-0.658801">
        <ele>643.779</ele>
        <time>2019-06-16T14:16:49Z</time>
      </trkpt>
      <trkpt lat="38.565124" lon="-0.658816">
        <ele>644.005</ele>
        <time>2019-06-16T14:16:51Z</time>
      </trkpt>
      <trkpt lat="38.565064" lon="-0.658820">
        <ele>644.325</ele>
        <time>2019-06-16T14:16:53Z</time>
      </trkpt>
      <trkpt lat="38.564834" lon="-0.658843">
        <ele>644.808</ele>
        <time>2019-06-16T14:16:57Z</time>
      </trkpt>
      <trkpt lat="38.564778" lon="-0.658858">
        <ele>644.940</ele>
        <time>2019-06-16T14:16:58Z</time>
      </trkpt>
      <trkpt lat="38.564728" lon="-0.658867">
        <ele>644.924</ele>
        <time>2019-06-16T14:16:59Z</time>
      </trkpt>
      <trkpt lat="38.564672" lon="-0.658875">
        <ele>645.163</ele>
        <time>2019-06-16T14:17:00Z</time>
      </trkpt>
      <trkpt lat="38.564606" lon="-0.658891">
        <ele>645.466</ele>
        <time>2019-06-16T14:17:01Z</time>
      </trkpt>
      <trkpt lat="38.564547" lon="-0.658898">
        <ele>645.658</ele>
        <time>2019-06-16T14:17:02Z</time>
      </trkpt>
      <trkpt lat="38.564486" lon="-0.658898">
        <ele>645.875</ele>
        <time>2019-06-16T14:17:03Z</time>
      </trkpt>
      <trkpt lat="38.564431" lon="-0.658899">
        <ele>646.074</ele>
        <time>2019-06-16T14:17:04Z</time>
      </trkpt>
      <trkpt lat="38.564377" lon="-0.658905">
        <ele>646.029</ele>
        <time>2019-06-16T14:17:05Z</time>
      </trkpt>
      <trkpt lat="38.564327" lon="-0.658916">
        <ele>645.929</ele>
        <time>2019-06-16T14:17:06Z</time>
      </trkpt>
      <trkpt lat="38.564271" lon="-0.658930">
        <ele>645.900</ele>
        <time>2019-06-16T14:17:07Z</time>
      </trkpt>
      <trkpt lat="38.564213" lon="-0.658933">
        <ele>646.020</ele>
        <time>2019-06-16T14:17:08Z</time>
      </trkpt>
      <trkpt lat="38.564152" lon="-0.658952">
        <ele>645.908</ele>
        <time>2019-06-16T14:17:09Z</time>
      </trkpt>
      <trkpt lat="38.564089" lon="-0.658958">
        <ele>645.615</ele>
        <time>2019-06-16T14:17:10Z</time>
      </trkpt>
      <trkpt lat="38.564028" lon="-0.658962">
        <ele>645.499</ele>
        <time>2019-06-16T14:17:11Z</time>
      </trkpt>
      <trkpt lat="38.563970" lon="-0.658966">
        <ele>645.218</ele>
        <time>2019-06-16T14:17:12Z</time>
      </trkpt>
      <trkpt lat="38.563909" lon="-0.658958">
        <ele>644.881</ele>
        <time>2019-06-16T14:17:13Z</time>
      </trkpt>
      <trkpt lat="38.563845" lon="-0.658952">
        <ele>644.983</ele>
        <time>2019-06-16T14:17:14Z</time>
      </trkpt>
      <trkpt lat="38.563783" lon="-0.658944">
        <ele>645.160</ele>
        <time>2019-06-16T14:17:15Z</time>
      </trkpt>
      <trkpt lat="38.563730" lon="-0.658944">
        <ele>645.319</ele>
        <time>2019-06-16T14:17:16Z</time>
      </trkpt>
      <trkpt lat="38.563682" lon="-0.658944">
        <ele>645.514</ele>
        <time>2019-06-16T14:17:17Z</time>
      </trkpt>
      <trkpt lat="38.563631" lon="-0.658950">
        <ele>645.861</ele>
        <time>2019-06-16T14:17:18Z</time>
      </trkpt>
      <trkpt lat="38.563575" lon="-0.658936">
        <ele>646.021</ele>
        <time>2019-06-16T14:17:19Z</time>
      </trkpt>
      <trkpt lat="38.563518" lon="-0.658928">
        <ele>646.513</ele>
        <time>2019-06-16T14:17:20Z</time>
      </trkpt>
      <trkpt lat="38.563455" lon="-0.658929">
        <ele>647.108</ele>
        <time>2019-06-16T14:17:21Z</time>
      </trkpt>
      <trkpt lat="38.563397" lon="-0.658931">
        <ele>647.749</ele>
        <time>2019-06-16T14:17:22Z</time>
      </trkpt>
      <trkpt lat="38.563341" lon="-0.658925">
        <ele>648.223</ele>
        <time>2019-06-16T14:17:23Z</time>
      </trkpt>
      <trkpt lat="38.563286" lon="-0.658918">
        <ele>648.282</ele>
        <time>2019-06-16T14:17:24Z</time>
      </trkpt>
      <trkpt lat="38.563233" lon="-0.658909">
        <ele>648.185</ele>
        <time>2019-06-16T14:17:25Z</time>
      </trkpt>
      <trkpt lat="38.563177" lon="-0.658894">
        <ele>648.067</ele>
        <time>2019-06-16T14:17:26Z</time>
      </trkpt>
      <trkpt lat="38.563132" lon="-0.658879">
        <ele>648.044</ele>
        <time>2019-06-16T14:17:27Z</time>
      </trkpt>
      <trkpt lat="38.563083" lon="-0.658858">
        <ele>648.083</ele>
        <time>2019-06-16T14:17:28Z</time>
      </trkpt>
      <trkpt lat="38.563025" lon="-0.658842">
        <ele>648.288</ele>
        <time>2019-06-16T14:17:29Z</time>
      </trkpt>
      <trkpt lat="38.562977" lon="-0.658835">
        <ele>648.683</ele>
        <time>2019-06-16T14:17:30Z</time>
      </trkpt>
      <trkpt lat="38.562883" lon="-0.658824">
        <ele>649.225</ele>
        <time>2019-06-16T14:17:32Z</time>
      </trkpt>
      <trkpt lat="38.562825" lon="-0.658813">
        <ele>649.717</ele>
        <time>2019-06-16T14:17:33Z</time>
      </trkpt>
      <trkpt lat="38.562767" lon="-0.658818">
        <ele>650.008</ele>
        <time>2019-06-16T14:17:34Z</time>
      </trkpt>
      <trkpt lat="38.562706" lon="-0.658808">
        <ele>650.371</ele>
        <time>2019-06-16T14:17:35Z</time>
      </trkpt>
      <trkpt lat="38.562653" lon="-0.658793">
        <ele>650.645</ele>
        <time>2019-06-16T14:17:36Z</time>
      </trkpt>
      <trkpt lat="38.562604" lon="-0.658775">
        <ele>650.914</ele>
        <time>2019-06-16T14:17:37Z</time>
      </trkpt>
      <trkpt lat="38.562552" lon="-0.658773">
        <ele>651.257</ele>
        <time>2019-06-16T14:17:38Z</time>
      </trkpt>
      <trkpt lat="38.562475" lon="-0.658704">
        <ele>651.669</ele>
        <time>2019-06-16T14:17:40Z</time>
      </trkpt>
      <trkpt lat="38.562393" lon="-0.658664">
        <ele>651.656</ele>
        <time>2019-06-16T14:17:42Z</time>
      </trkpt>
      <trkpt lat="38.562346" lon="-0.658653">
        <ele>651.555</ele>
        <time>2019-06-16T14:17:43Z</time>
      </trkpt>
      <trkpt lat="38.562298" lon="-0.658631">
        <ele>651.370</ele>
        <time>2019-06-16T14:17:44Z</time>
      </trkpt>
      <trkpt lat="38.562243" lon="-0.658632">
        <ele>651.184</ele>
        <time>2019-06-16T14:17:45Z</time>
      </trkpt>
      <trkpt lat="38.562195" lon="-0.658620">
        <ele>650.907</ele>
        <time>2019-06-16T14:17:46Z</time>
      </trkpt>
      <trkpt lat="38.562142" lon="-0.658600">
        <ele>650.717</ele>
        <time>2019-06-16T14:17:47Z</time>
      </trkpt>
      <trkpt lat="38.562091" lon="-0.658588">
        <ele>650.508</ele>
        <time>2019-06-16T14:17:48Z</time>
      </trkpt>
      <trkpt lat="38.562036" lon="-0.658578">
        <ele>650.331</ele>
        <time>2019-06-16T14:17:49Z</time>
      </trkpt>
      <trkpt lat="38.561984" lon="-0.658539">
        <ele>650.185</ele>
        <time>2019-06-16T14:17:50Z</time>
      </trkpt>
      <trkpt lat="38.561937" lon="-0.658490">
        <ele>650.084</ele>
        <time>2019-06-16T14:17:51Z</time>
      </trkpt>
      <trkpt lat="38.561880" lon="-0.658452">
        <ele>649.687</ele>
        <time>2019-06-16T14:17:52Z</time>
      </trkpt>
      <trkpt lat="38.561799" lon="-0.658448">
        <ele>649.289</ele>
        <time>2019-06-16T14:17:53Z</time>
      </trkpt>
      <trkpt lat="38.561711" lon="-0.658475">
        <ele>648.776</ele>
        <time>2019-06-16T14:17:54Z</time>
      </trkpt>
      <trkpt lat="38.561663" lon="-0.658442">
        <ele>648.475</ele>
        <time>2019-06-16T14:17:55Z</time>
      </trkpt>
      <trkpt lat="38.561624" lon="-0.658411">
        <ele>648.070</ele>
        <time>2019-06-16T14:17:56Z</time>
      </trkpt>
      <trkpt lat="38.561573" lon="-0.658382">
        <ele>647.772</ele>
        <time>2019-06-16T14:17:57Z</time>
      </trkpt>
      <trkpt lat="38.561497" lon="-0.658333">
        <ele>647.413</ele>
        <time>2019-06-16T14:17:59Z</time>
      </trkpt>
      <trkpt lat="38.561438" lon="-0.658280">
        <ele>646.814</ele>
        <time>2019-06-16T14:18:01Z</time>
      </trkpt>
      <trkpt lat="38.561375" lon="-0.658230">
        <ele>646.108</ele>
        <time>2019-06-16T14:18:03Z</time>
      </trkpt>
      <trkpt lat="38.561291" lon="-0.658183">
        <ele>645.160</ele>
        <time>2019-06-16T14:18:05Z</time>
      </trkpt>
      <trkpt lat="38.561241" lon="-0.658134">
        <ele>644.424</ele>
        <time>2019-06-16T14:18:06Z</time>
      </trkpt>
      <trkpt lat="38.561185" lon="-0.658093">
        <ele>643.723</ele>
        <time>2019-06-16T14:18:07Z</time>
      </trkpt>
      <trkpt lat="38.561137" lon="-0.658055">
        <ele>643.236</ele>
        <time>2019-06-16T14:18:08Z</time>
      </trkpt>
      <trkpt lat="38.561090" lon="-0.658003">
        <ele>642.428</ele>
        <time>2019-06-16T14:18:09Z</time>
      </trkpt>
      <trkpt lat="38.561040" lon="-0.657952">
        <ele>641.655</ele>
        <time>2019-06-16T14:18:10Z</time>
      </trkpt>
      <trkpt lat="38.560995" lon="-0.657931">
        <ele>641.044</ele>
        <time>2019-06-16T14:18:11Z</time>
      </trkpt>
      <trkpt lat="38.560947" lon="-0.657898">
        <ele>640.419</ele>
        <time>2019-06-16T14:18:12Z</time>
      </trkpt>
      <trkpt lat="38.560897" lon="-0.657857">
        <ele>639.828</ele>
        <time>2019-06-16T14:18:13Z</time>
      </trkpt>
      <trkpt lat="38.560846" lon="-0.657811">
        <ele>639.289</ele>
        <time>2019-06-16T14:18:14Z</time>
      </trkpt>
      <trkpt lat="38.560795" lon="-0.657789">
        <ele>638.917</ele>
        <time>2019-06-16T14:18:15Z</time>
      </trkpt>
      <trkpt lat="38.560747" lon="-0.657760">
        <ele>638.708</ele>
        <time>2019-06-16T14:18:16Z</time>
      </trkpt>
      <trkpt lat="38.560708" lon="-0.657720">
        <ele>638.685</ele>
        <time>2019-06-16T14:18:17Z</time>
      </trkpt>
      <trkpt lat="38.560668" lon="-0.657681">
        <ele>638.659</ele>
        <time>2019-06-16T14:18:18Z</time>
      </trkpt>
      <trkpt lat="38.560630" lon="-0.657642">
        <ele>638.678</ele>
        <time>2019-06-16T14:18:19Z</time>
      </trkpt>
      <trkpt lat="38.560578" lon="-0.657606">
        <ele>638.681</ele>
        <time>2019-06-16T14:18:20Z</time>
      </trkpt>
      <trkpt lat="38.560537" lon="-0.657569">
        <ele>638.943</ele>
        <time>2019-06-16T14:18:21Z</time>
      </trkpt>
      <trkpt lat="38.560488" lon="-0.657516">
        <ele>639.440</ele>
        <time>2019-06-16T14:18:22Z</time>
      </trkpt>
      <trkpt lat="38.560431" lon="-0.657512">
        <ele>639.939</ele>
        <time>2019-06-16T14:18:23Z</time>
      </trkpt>
      <trkpt lat="38.560380" lon="-0.657443">
        <ele>640.684</ele>
        <time>2019-06-16T14:18:24Z</time>
      </trkpt>
      <trkpt lat="38.560327" lon="-0.657390">
        <ele>641.415</ele>
        <time>2019-06-16T14:18:25Z</time>
      </trkpt>
      <trkpt lat="38.560295" lon="-0.657333">
        <ele>642.065</ele>
        <time>2019-06-16T14:18:26Z</time>
      </trkpt>
      <trkpt lat="38.560235" lon="-0.657250">
        <ele>643.011</ele>
        <time>2019-06-16T14:18:28Z</time>
      </trkpt>
      <trkpt lat="38.560172" lon="-0.657166">
        <ele>643.308</ele>
        <time>2019-06-16T14:18:30Z</time>
      </trkpt>
      <trkpt lat="38.560118" lon="-0.657078">
        <ele>643.364</ele>
        <time>2019-06-16T14:18:32Z</time>
      </trkpt>
      <trkpt lat="38.560081" lon="-0.657044">
        <ele>643.388</ele>
        <time>2019-06-16T14:18:33Z</time>
      </trkpt>
      <trkpt lat="38.560052" lon="-0.656998">
        <ele>643.287</ele>
        <time>2019-06-16T14:18:34Z</time>
      </trkpt>
      <trkpt lat="38.560016" lon="-0.656963">
        <ele>643.170</ele>
        <time>2019-06-16T14:18:35Z</time>
      </trkpt>
      <trkpt lat="38.559974" lon="-0.656932">
        <ele>642.922</ele>
        <time>2019-06-16T14:18:36Z</time>
      </trkpt>
      <trkpt lat="38.559943" lon="-0.656888">
        <ele>642.729</ele>
        <time>2019-06-16T14:18:37Z</time>
      </trkpt>
      <trkpt lat="38.559912" lon="-0.656839">
        <ele>642.578</ele>
        <time>2019-06-16T14:18:38Z</time>
      </trkpt>
      <trkpt lat="38.559848" lon="-0.656783">
        <ele>642.533</ele>
        <time>2019-06-16T14:18:40Z</time>
      </trkpt>
      <trkpt lat="38.559824" lon="-0.656719">
        <ele>642.631</ele>
        <time>2019-06-16T14:18:41Z</time>
      </trkpt>
      <trkpt lat="38.559797" lon="-0.656665">
        <ele>642.761</ele>
        <time>2019-06-16T14:18:42Z</time>
      </trkpt>
      <trkpt lat="38.559768" lon="-0.656620">
        <ele>642.807</ele>
        <time>2019-06-16T14:18:43Z</time>
      </trkpt>
      <trkpt lat="38.559725" lon="-0.656573">
        <ele>643.008</ele>
        <time>2019-06-16T14:18:44Z</time>
      </trkpt>
      <trkpt lat="38.559685" lon="-0.656488">
        <ele>643.396</ele>
        <time>2019-06-16T14:18:46Z</time>
      </trkpt>
      <trkpt lat="38.559656" lon="-0.656438">
        <ele>643.630</ele>
        <time>2019-06-16T14:18:47Z</time>
      </trkpt>
      <trkpt lat="38.559598" lon="-0.656371">
        <ele>644.549</ele>
        <time>2019-06-16T14:18:49Z</time>
      </trkpt>
      <trkpt lat="38.559565" lon="-0.656326">
        <ele>645.282</ele>
        <time>2019-06-16T14:18:52Z</time>
      </trkpt>
      <trkpt lat="38.559529" lon="-0.656255">
        <ele>646.154</ele>
        <time>2019-06-16T14:18:55Z</time>
      </trkpt>
      <trkpt lat="38.559504" lon="-0.656205">
        <ele>646.771</ele>
        <time>2019-06-16T14:18:57Z</time>
      </trkpt>
      <trkpt lat="38.559471" lon="-0.656151">
        <ele>647.410</ele>
        <time>2019-06-16T14:18:59Z</time>
      </trkpt>
      <trkpt lat="38.559429" lon="-0.656084">
        <ele>648.315</ele>
        <time>2019-06-16T14:19:01Z</time>
      </trkpt>
      <trkpt lat="38.559378" lon="-0.656000">
        <ele>649.176</ele>
        <time>2019-06-16T14:19:03Z</time>
      </trkpt>
      <trkpt lat="38.559350" lon="-0.655953">
        <ele>649.490</ele>
        <time>2019-06-16T14:19:04Z</time>
      </trkpt>
      <trkpt lat="38.559299" lon="-0.655856">
        <ele>649.919</ele>
        <time>2019-06-16T14:19:06Z</time>
      </trkpt>
      <trkpt lat="38.559204" lon="-0.655668">
        <ele>648.408</ele>
        <time>2019-06-16T14:19:07Z</time>
      </trkpt>
      <trkpt lat="38.559172" lon="-0.655596">
        <ele>647.590</ele>
        <time>2019-06-16T14:19:08Z</time>
      </trkpt>
      <trkpt lat="38.559122" lon="-0.655486">
        <ele>646.584</ele>
        <time>2019-06-16T14:19:09Z</time>
      </trkpt>
      <trkpt lat="38.559083" lon="-0.655405">
        <ele>645.893</ele>
        <time>2019-06-16T14:19:10Z</time>
      </trkpt>
      <trkpt lat="38.559055" lon="-0.655354">
        <ele>645.326</ele>
        <time>2019-06-16T14:19:11Z</time>
      </trkpt>
      <trkpt lat="38.558983" lon="-0.655257">
        <ele>644.418</ele>
        <time>2019-06-16T14:19:13Z</time>
      </trkpt>
      <trkpt lat="38.558985" lon="-0.655162">
        <ele>644.995</ele>
        <time>2019-06-16T14:19:15Z</time>
      </trkpt>
      <trkpt lat="38.558956" lon="-0.655105">
        <ele>645.234</ele>
        <time>2019-06-16T14:19:16Z</time>
      </trkpt>
      <trkpt lat="38.558922" lon="-0.655002">
        <ele>645.989</ele>
        <time>2019-06-16T14:19:18Z</time>
      </trkpt>
      <trkpt lat="38.558905" lon="-0.654943">
        <ele>646.391</ele>
        <time>2019-06-16T14:19:19Z</time>
      </trkpt>
      <trkpt lat="38.558859" lon="-0.654868">
        <ele>647.081</ele>
        <time>2019-06-16T14:19:21Z</time>
      </trkpt>
      <trkpt lat="38.558833" lon="-0.654817">
        <ele>647.419</ele>
        <time>2019-06-16T14:19:22Z</time>
      </trkpt>
      <trkpt lat="38.558806" lon="-0.654767">
        <ele>647.708</ele>
        <time>2019-06-16T14:19:23Z</time>
      </trkpt>
      <trkpt lat="38.558781" lon="-0.654658">
        <ele>647.762</ele>
        <time>2019-06-16T14:19:25Z</time>
      </trkpt>
      <trkpt lat="38.558732" lon="-0.654557">
        <ele>647.546</ele>
        <time>2019-06-16T14:19:27Z</time>
      </trkpt>
      <trkpt lat="38.558727" lon="-0.654435">
        <ele>647.135</ele>
        <time>2019-06-16T14:19:29Z</time>
      </trkpt>
      <trkpt lat="38.558689" lon="-0.654336">
        <ele>646.398</ele>
        <time>2019-06-16T14:19:31Z</time>
      </trkpt>
      <trkpt lat="38.558660" lon="-0.654229">
        <ele>645.390</ele>
        <time>2019-06-16T14:19:33Z</time>
      </trkpt>
      <trkpt lat="38.558647" lon="-0.654122">
        <ele>644.787</ele>
        <time>2019-06-16T14:19:35Z</time>
      </trkpt>
      <trkpt lat="38.558620" lon="-0.654026">
        <ele>644.996</ele>
        <time>2019-06-16T14:19:37Z</time>
      </trkpt>
      <trkpt lat="38.558602" lon="-0.653963">
        <ele>645.191</ele>
        <time>2019-06-16T14:19:39Z</time>
      </trkpt>
      <trkpt lat="38.558584" lon="-0.653862">
        <ele>645.446</ele>
        <time>2019-06-16T14:19:41Z</time>
      </trkpt>
      <trkpt lat="38.558565" lon="-0.653758">
        <ele>646.088</ele>
        <time>2019-06-16T14:19:44Z</time>
      </trkpt>
      <trkpt lat="38.558538" lon="-0.653649">
        <ele>646.716</ele>
        <time>2019-06-16T14:19:46Z</time>
      </trkpt>
      <trkpt lat="38.558490" lon="-0.653529">
        <ele>647.408</ele>
        <time>2019-06-16T14:19:47Z</time>
      </trkpt>
      <trkpt lat="38.558473" lon="-0.653426">
        <ele>647.847</ele>
        <time>2019-06-16T14:19:49Z</time>
      </trkpt>
      <trkpt lat="38.558463" lon="-0.653327">
        <ele>648.191</ele>
        <time>2019-06-16T14:19:51Z</time>
      </trkpt>
      <trkpt lat="38.558441" lon="-0.653243">
        <ele>648.440</ele>
        <time>2019-06-16T14:19:53Z</time>
      </trkpt>
      <trkpt lat="38.558437" lon="-0.653183">
        <ele>648.493</ele>
        <time>2019-06-16T14:19:55Z</time>
      </trkpt>
      <trkpt lat="38.558421" lon="-0.653020">
        <ele>648.285</ele>
        <time>2019-06-16T14:19:58Z</time>
      </trkpt>
      <trkpt lat="38.558377" lon="-0.652885">
        <ele>647.762</ele>
        <time>2019-06-16T14:20:01Z</time>
      </trkpt>
      <trkpt lat="38.558346" lon="-0.652789">
        <ele>647.161</ele>
        <time>2019-06-16T14:20:03Z</time>
      </trkpt>
      <trkpt lat="38.558296" lon="-0.652703">
        <ele>646.586</ele>
        <time>2019-06-16T14:20:05Z</time>
      </trkpt>
      <trkpt lat="38.558257" lon="-0.652657">
        <ele>646.146</ele>
        <time>2019-06-16T14:20:06Z</time>
      </trkpt>
      <trkpt lat="38.558230" lon="-0.652610">
        <ele>645.888</ele>
        <time>2019-06-16T14:20:08Z</time>
      </trkpt>
      <trkpt lat="38.558193" lon="-0.652568">
        <ele>645.516</ele>
        <time>2019-06-16T14:20:10Z</time>
      </trkpt>
      <trkpt lat="38.558148" lon="-0.652530">
        <ele>645.208</ele>
        <time>2019-06-16T14:20:12Z</time>
      </trkpt>
      <trkpt lat="38.558100" lon="-0.652495">
        <ele>645.087</ele>
        <time>2019-06-16T14:20:14Z</time>
      </trkpt>
      <trkpt lat="38.558036" lon="-0.652462">
        <ele>645.171</ele>
        <time>2019-06-16T14:20:16Z</time>
      </trkpt>
      <trkpt lat="38.557985" lon="-0.652450">
        <ele>645.650</ele>
        <time>2019-06-16T14:20:18Z</time>
      </trkpt>
      <trkpt lat="38.557915" lon="-0.652420">
        <ele>646.283</ele>
        <time>2019-06-16T14:20:20Z</time>
      </trkpt>
      <trkpt lat="38.557861" lon="-0.652400">
        <ele>646.735</ele>
        <time>2019-06-16T14:20:22Z</time>
      </trkpt>
      <trkpt lat="38.557828" lon="-0.652358">
        <ele>647.172</ele>
        <time>2019-06-16T14:20:25Z</time>
      </trkpt>
      <trkpt lat="38.557818" lon="-0.652257">
        <ele>647.581</ele>
        <time>2019-06-16T14:20:29Z</time>
      </trkpt>
      <trkpt lat="38.557818" lon="-0.652257">
        <ele>647.536</ele>
        <time>2019-06-16T14:20:29Z</time>
      </trkpt>
      <trkpt lat="38.557818" lon="-0.652257">
        <ele>647.588</ele>
        <time>2019-06-16T14:20:29Z</time>
      </trkpt>
      <trkpt lat="38.557904" lon="-0.651916">
        <ele>647.624</ele>
        <time>2019-06-16T14:20:37Z</time>
      </trkpt>
      <trkpt lat="38.557904" lon="-0.651916">
        <ele>647.626</ele>
        <time>2019-06-16T14:20:37Z</time>
      </trkpt>
      <trkpt lat="38.557904" lon="-0.651916">
        <ele>647.608</ele>
        <time>2019-06-16T14:20:37Z</time>
      </trkpt>
      <trkpt lat="38.557904" lon="-0.651916">
        <ele>647.671</ele>
        <time>2019-06-16T14:20:37Z</time>
      </trkpt>
      <trkpt lat="38.557904" lon="-0.651916">
        <ele>647.695</ele>
        <time>2019-06-16T14:20:37Z</time>
      </trkpt>
      <trkpt lat="38.557904" lon="-0.651916">
        <ele>647.634</ele>
        <time>2019-06-16T14:20:37Z</time>
      </trkpt>
      <trkpt lat="38.557904" lon="-0.651916">
        <ele>647.667</ele>
        <time>2019-06-16T14:20:37Z</time>
      </trkpt>
      <trkpt lat="38.557904" lon="-0.651916">
        <ele>647.689</ele>
        <time>2019-06-16T14:20:37Z</time>
      </trkpt>
      <trkpt lat="38.557643" lon="-0.651178">
        <ele>653.066</ele>
        <time>2019-06-16T14:20:56Z</time>
      </trkpt>
      <trkpt lat="38.557643" lon="-0.651178">
        <ele>653.065</ele>
        <time>2019-06-16T14:20:56Z</time>
      </trkpt>
      <trkpt lat="38.557643" lon="-0.651178">
        <ele>653.060</ele>
        <time>2019-06-16T14:20:56Z</time>
      </trkpt>
      <trkpt lat="38.557643" lon="-0.651178">
        <ele>653.046</ele>
        <time>2019-06-16T14:20:56Z</time>
      </trkpt>
      <trkpt lat="38.557643" lon="-0.651178">
        <ele>653.088</ele>
        <time>2019-06-16T14:20:56Z</time>
      </trkpt>
      <trkpt lat="38.557643" lon="-0.651178">
        <ele>653.016</ele>
        <time>2019-06-16T14:20:56Z</time>
      </trkpt>
      <trkpt lat="38.557643" lon="-0.651178">
        <ele>653.008</ele>
        <time>2019-06-16T14:20:56Z</time>
      </trkpt>
      <trkpt lat="38.557643" lon="-0.651178">
        <ele>653.087</ele>
        <time>2019-06-16T14:20:56Z</time>
      </trkpt>
      <trkpt lat="38.557643" lon="-0.651178">
        <ele>653.091</ele>
        <time>2019-06-16T14:20:56Z</time>
      </trkpt>
      <trkpt lat="38.557643" lon="-0.651178">
        <ele>653.040</ele>
        <time>2019-06-16T14:20:56Z</time>
      </trkpt>
      <trkpt lat="38.557643" lon="-0.651178">
        <ele>653.043</ele>
        <time>2019-06-16T14:20:56Z</time>
      </trkpt>
      <trkpt lat="38.557643" lon="-0.651178">
        <ele>653.015</ele>
        <time>2019-06-16T14:20:56Z</time>
      </trkpt>
      <trkpt lat="38.557643" lon="-0.651178">
        <ele>653.072</ele>
        <time>2019-06-16T14:20:56Z</time>
      </trkpt>
      <trkpt lat="38.557643" lon="-0.651178">
        <ele>653.021</ele>
        <time>2019-06-16T14:20:56Z</time>
      </trkpt>
      <trkpt lat="38.557643" lon="-0.651178">
        <ele>653.096</ele>
        <time>2019-06-16T14:20:56Z</time>
      </trkpt>
      <trkpt lat="38.557643" lon="-0.651178">
        <ele>653.011</ele>
        <time>2019-06-16T14:20:56Z</time>
      </trkpt>
      <trkpt lat="38.557643" lon="-0.651178">
        <ele>653.021</ele>
        <time>2019-06-16T14:20:56Z</time>
      </trkpt>
      <trkpt lat="38.557643" lon="-0.651178">
        <ele>653.003</ele>
        <time>2019-06-16T14:20:56Z</time>
      </trkpt>
      <trkpt lat="38.557643" lon="-0.651178">
        <ele>653.008</ele>
        <time>2019-06-16T14:20:56Z</time>
      </trkpt>
      <trkpt lat="38.556518" lon="-0.648759">
        <ele>651.484</ele>
        <time>2019-06-16T14:21:43Z</time>
      </trkpt>
      <trkpt lat="38.556518" lon="-0.648759">
        <ele>651.488</ele>
        <time>2019-06-16T14:21:43Z</time>
      </trkpt>
      <trkpt lat="38.556518" lon="-0.648759">
        <ele>651.417</ele>
        <time>2019-06-16T14:21:43Z</time>
      </trkpt>
      <trkpt lat="38.556518" lon="-0.648759">
        <ele>651.440</ele>
        <time>2019-06-16T14:21:43Z</time>
      </trkpt>
      <trkpt lat="38.556518" lon="-0.648759">
        <ele>651.472</ele>
        <time>2019-06-16T14:21:43Z</time>
      </trkpt>
      <trkpt lat="38.556518" lon="-0.648759">
        <ele>651.459</ele>
        <time>2019-06-16T14:21:43Z</time>
      </trkpt>
      <trkpt lat="38.556518" lon="-0.648759">
        <ele>651.478</ele>
        <time>2019-06-16T14:21:43Z</time>
      </trkpt>
      <trkpt lat="38.556518" lon="-0.648759">
        <ele>651.453</ele>
        <time>2019-06-16T14:21:43Z</time>
      </trkpt>
      <trkpt lat="38.556518" lon="-0.648759">
        <ele>651.417</ele>
        <time>2019-06-16T14:21:43Z</time>
      </trkpt>
      <trkpt lat="38.556518" lon="-0.648759">
        <ele>651.487</ele>
        <time>2019-06-16T14:21:43Z</time>
      </trkpt>
      <trkpt lat="38.556518" lon="-0.648759">
        <ele>651.415</ele>
        <time>2019-06-16T14:21:43Z</time>
      </trkpt>
      <trkpt lat="38.556518" lon="-0.648759">
        <ele>651.408</ele>
        <time>2019-06-16T14:21:43Z</time>
      </trkpt>
      <trkpt lat="38.556518" lon="-0.648759">
        <ele>651.484</ele>
        <time>2019-06-16T14:21:43Z</time>
      </trkpt>
      <trkpt lat="38.556518" lon="-0.648759">
        <ele>651.428</ele>
        <time>2019-06-16T14:21:43Z</time>
      </trkpt>
      <trkpt lat="38.556518" lon="-0.648759">
        <ele>651.487</ele>
        <time>2019-06-16T14:21:43Z</time>
      </trkpt>
      <trkpt lat="38.556518" lon="-0.648759">
        <ele>651.490</ele>
        <time>2019-06-16T14:21:43Z</time>
      </trkpt>
      <trkpt lat="38.556518" lon="-0.648759">
        <ele>651.432</ele>
        <time>2019-06-16T14:21:43Z</time>
      </trkpt>
      <trkpt lat="38.556518" lon="-0.648759">
        <ele>651.449</ele>
        <time>2019-06-16T14:21:43Z</time>
      </trkpt>
      <trkpt lat="38.556518" lon="-0.648759">
        <ele>651.418</ele>
        <time>2019-06-16T14:21:43Z</time>
      </trkpt>
      <trkpt lat="38.556518" lon="-0.648759">
        <ele>651.463</ele>
        <time>2019-06-16T14:21:43Z</time>
      </trkpt>
      <trkpt lat="38.556518" lon="-0.648759">
        <ele>651.447</ele>
        <time>2019-06-16T14:21:43Z</time>
      </trkpt>
      <trkpt lat="38.556518" lon="-0.648759">
        <ele>651.429</ele>
        <time>2019-06-16T14:21:43Z</time>
      </trkpt>
      <trkpt lat="38.556518" lon="-0.648759">
        <ele>651.421</ele>
        <time>2019-06-16T14:21:43Z</time>
      </trkpt>
      <trkpt lat="38.556518" lon="-0.648759">
        <ele>651.408</ele>
        <time>2019-06-16T14:21:43Z</time>
      </trkpt>
      <trkpt lat="38.556518" lon="-0.648759">
        <ele>651.487</ele>
        <time>2019-06-16T14:21:43Z</time>
      </trkpt>
      <trkpt lat="38.556518" lon="-0.648759">
        <ele>651.431</ele>
        <time>2019-06-16T14:21:43Z</time>
      </trkpt>
      <trkpt lat="38.556518" lon="-0.648759">
        <ele>651.470</ele>
        <time>2019-06-16T14:21:43Z</time>
      </trkpt>
      <trkpt lat="38.556518" lon="-0.648759">
        <ele>651.433</ele>
        <time>2019-06-16T14:21:43Z</time>
      </trkpt>
      <trkpt lat="38.556518" lon="-0.648759">
        <ele>651.445</ele>
        <time>2019-06-16T14:21:43Z</time>
      </trkpt>
      <trkpt lat="38.556518" lon="-0.648759">
        <ele>651.452</ele>
        <time>2019-06-16T14:21:43Z</time>
      </trkpt>
      <trkpt lat="38.556518" lon="-0.648759">
        <ele>651.461</ele>
        <time>2019-06-16T14:21:43Z</time>
      </trkpt>
      <trkpt lat="38.556518" lon="-0.648759">
        <ele>651.426</ele>
        <time>2019-06-16T14:21:43Z</time>
      </trkpt>
      <trkpt lat="38.556518" lon="-0.648759">
        <ele>651.412</ele>
        <time>2019-06-16T14:21:43Z</time>
      </trkpt>
      <trkpt lat="38.556518" lon="-0.648759">
        <ele>651.432</ele>
        <time>2019-06-16T14:21:43Z</time>
      </trkpt>
      <trkpt lat="38.556518" lon="-0.648759">
        <ele>651.405</ele>
        <time>2019-06-16T14:21:43Z</time>
      </trkpt>
      <trkpt lat="38.556518" lon="-0.648759">
        <ele>651.408</ele>
        <time>2019-06-16T14:21:43Z</time>
      </trkpt>
      <trkpt lat="38.556518" lon="-0.648759">
        <ele>651.424</ele>
        <time>2019-06-16T14:21:43Z</time>
      </trkpt>
      <trkpt lat="38.556518" lon="-0.648759">
        <ele>651.468</ele>
        <time>2019-06-16T14:21:43Z</time>
      </trkpt>
      <trkpt lat="38.556518" lon="-0.648759">
        <ele>651.497</ele>
        <time>2019-06-16T14:21:43Z</time>
      </trkpt>
      <trkpt lat="38.556518" lon="-0.648759">
        <ele>651.470</ele>
        <time>2019-06-16T14:21:43Z</time>
      </trkpt>
      <trkpt lat="38.556518" lon="-0.648759">
        <ele>651.442</ele>
        <time>2019-06-16T14:21:43Z</time>
      </trkpt>
      <trkpt lat="38.556518" lon="-0.648759">
        <ele>651.429</ele>
        <time>2019-06-16T14:21:43Z</time>
      </trkpt>
      <trkpt lat="38.556518" lon="-0.648759">
        <ele>651.488</ele>
        <time>2019-06-16T14:21:43Z</time>
      </trkpt>
      <trkpt lat="38.556518" lon="-0.648759">
        <ele>651.483</ele>
        <time>2019-06-16T14:21:43Z</time>
      </trkpt>
      <trkpt lat="38.556518" lon="-0.648759">
        <ele>651.447</ele>
        <time>2019-06-16T14:21:43Z</time>
      </trkpt>
      <trkpt lat="38.556518" lon="-0.648759">
        <ele>651.429</ele>
        <time>2019-06-16T14:21:43Z</time>
      </trkpt>
      <trkpt lat="38.556518" lon="-0.648759">
        <ele>651.421</ele>
        <time>2019-06-16T14:21:43Z</time>
      </trkpt>
      <trkpt lat="38.556412" lon="-0.648557">
        <ele>650.708</ele>
        <time>2019-06-16T14:21:46Z</time>
      </trkpt>
      <trkpt lat="38.556412" lon="-0.648557">
        <ele>650.747</ele>
        <time>2019-06-16T14:21:46Z</time>
      </trkpt>
      <trkpt lat="38.556412" lon="-0.648557">
        <ele>650.791</ele>
        <time>2019-06-16T14:21:46Z</time>
      </trkpt>
      <trkpt lat="38.556378" lon="-0.648491">
        <ele>650.670</ele>
        <time>2019-06-16T14:21:47Z</time>
      </trkpt>
      <trkpt lat="38.556341" lon="-0.648418">
        <ele>650.553</ele>
        <time>2019-06-16T14:21:48Z</time>
      </trkpt>
      <trkpt lat="38.556306" lon="-0.648362">
        <ele>650.435</ele>
        <time>2019-06-16T14:21:49Z</time>
      </trkpt>
      <trkpt lat="38.556274" lon="-0.648285">
        <ele>650.092</ele>
        <time>2019-06-16T14:21:50Z</time>
      </trkpt>
      <trkpt lat="38.556240" lon="-0.648222">
        <ele>649.891</ele>
        <time>2019-06-16T14:21:51Z</time>
      </trkpt>
      <trkpt lat="38.556208" lon="-0.648147">
        <ele>649.536</ele>
        <time>2019-06-16T14:21:52Z</time>
      </trkpt>
      <trkpt lat="38.556175" lon="-0.648084">
        <ele>649.514</ele>
        <time>2019-06-16T14:21:53Z</time>
      </trkpt>
      <trkpt lat="38.556138" lon="-0.648009">
        <ele>649.454</ele>
        <time>2019-06-16T14:21:54Z</time>
      </trkpt>
      <trkpt lat="38.556096" lon="-0.647935">
        <ele>649.209</ele>
        <time>2019-06-16T14:21:55Z</time>
      </trkpt>
      <trkpt lat="38.556060" lon="-0.647859">
        <ele>649.008</ele>
        <time>2019-06-16T14:21:56Z</time>
      </trkpt>
      <trkpt lat="38.556026" lon="-0.647782">
        <ele>648.624</ele>
        <time>2019-06-16T14:21:57Z</time>
      </trkpt>
      <trkpt lat="38.555994" lon="-0.647710">
        <ele>648.958</ele>
        <time>2019-06-16T14:21:58Z</time>
      </trkpt>
      <trkpt lat="38.555942" lon="-0.647638">
        <ele>649.127</ele>
        <time>2019-06-16T14:21:59Z</time>
      </trkpt>
      <trkpt lat="38.555903" lon="-0.647579">
        <ele>649.120</ele>
        <time>2019-06-16T14:22:00Z</time>
      </trkpt>
      <trkpt lat="38.555862" lon="-0.647516">
        <ele>649.042</ele>
        <time>2019-06-16T14:22:01Z</time>
      </trkpt>
      <trkpt lat="38.555824" lon="-0.647441">
        <ele>649.189</ele>
        <time>2019-06-16T14:22:02Z</time>
      </trkpt>
      <trkpt lat="38.555787" lon="-0.647383">
        <ele>649.568</ele>
        <time>2019-06-16T14:22:03Z</time>
      </trkpt>
      <trkpt lat="38.555739" lon="-0.647317">
        <ele>650.083</ele>
        <time>2019-06-16T14:22:04Z</time>
      </trkpt>
      <trkpt lat="38.555704" lon="-0.647250">
        <ele>650.443</ele>
        <time>2019-06-16T14:22:05Z</time>
      </trkpt>
      <trkpt lat="38.555675" lon="-0.647187">
        <ele>650.764</ele>
        <time>2019-06-16T14:22:06Z</time>
      </trkpt>
      <trkpt lat="38.555636" lon="-0.647126">
        <ele>651.010</ele>
        <time>2019-06-16T14:22:07Z</time>
      </trkpt>
      <trkpt lat="38.555602" lon="-0.647067">
        <ele>651.108</ele>
        <time>2019-06-16T14:22:08Z</time>
      </trkpt>
      <trkpt lat="38.555556" lon="-0.647014">
        <ele>651.267</ele>
        <time>2019-06-16T14:22:09Z</time>
      </trkpt>
      <trkpt lat="38.555524" lon="-0.646951">
        <ele>651.471</ele>
        <time>2019-06-16T14:22:10Z</time>
      </trkpt>
      <trkpt lat="38.555489" lon="-0.646886">
        <ele>651.050</ele>
        <time>2019-06-16T14:22:11Z</time>
      </trkpt>
      <trkpt lat="38.555453" lon="-0.646817">
        <ele>650.693</ele>
        <time>2019-06-16T14:22:12Z</time>
      </trkpt>
      <trkpt lat="38.555405" lon="-0.646755">
        <ele>650.255</ele>
        <time>2019-06-16T14:22:13Z</time>
      </trkpt>
      <trkpt lat="38.555376" lon="-0.646687">
        <ele>649.692</ele>
        <time>2019-06-16T14:22:14Z</time>
      </trkpt>
      <trkpt lat="38.555346" lon="-0.646620">
        <ele>648.861</ele>
        <time>2019-06-16T14:22:15Z</time>
      </trkpt>
      <trkpt lat="38.555308" lon="-0.646551">
        <ele>648.156</ele>
        <time>2019-06-16T14:22:16Z</time>
      </trkpt>
      <trkpt lat="38.555268" lon="-0.646485">
        <ele>647.544</ele>
        <time>2019-06-16T14:22:17Z</time>
      </trkpt>
      <trkpt lat="38.555227" lon="-0.646416">
        <ele>647.305</ele>
        <time>2019-06-16T14:22:18Z</time>
      </trkpt>
      <trkpt lat="38.555186" lon="-0.646355">
        <ele>647.415</ele>
        <time>2019-06-16T14:22:19Z</time>
      </trkpt>
      <trkpt lat="38.555151" lon="-0.646302">
        <ele>647.508</ele>
        <time>2019-06-16T14:22:20Z</time>
      </trkpt>
      <trkpt lat="38.555114" lon="-0.646240">
        <ele>647.617</ele>
        <time>2019-06-16T14:22:21Z</time>
      </trkpt>
      <trkpt lat="38.555072" lon="-0.646170">
        <ele>647.511</ele>
        <time>2019-06-16T14:22:22Z</time>
      </trkpt>
      <trkpt lat="38.555025" lon="-0.646113">
        <ele>647.790</ele>
        <time>2019-06-16T14:22:23Z</time>
      </trkpt>
      <trkpt lat="38.554979" lon="-0.646071">
        <ele>647.683</ele>
        <time>2019-06-16T14:22:24Z</time>
      </trkpt>
      <trkpt lat="38.554941" lon="-0.646017">
        <ele>647.135</ele>
        <time>2019-06-16T14:22:25Z</time>
      </trkpt>
      <trkpt lat="38.554893" lon="-0.645963">
        <ele>646.872</ele>
        <time>2019-06-16T14:22:26Z</time>
      </trkpt>
      <trkpt lat="38.554837" lon="-0.645909">
        <ele>646.721</ele>
        <time>2019-06-16T14:22:27Z</time>
      </trkpt>
      <trkpt lat="38.554780" lon="-0.645863">
        <ele>646.726</ele>
        <time>2019-06-16T14:22:28Z</time>
      </trkpt>
      <trkpt lat="38.554727" lon="-0.645814">
        <ele>646.817</ele>
        <time>2019-06-16T14:22:29Z</time>
      </trkpt>
      <trkpt lat="38.554679" lon="-0.645756">
        <ele>646.887</ele>
        <time>2019-06-16T14:22:30Z</time>
      </trkpt>
      <trkpt lat="38.554622" lon="-0.645710">
        <ele>647.015</ele>
        <time>2019-06-16T14:22:31Z</time>
      </trkpt>
      <trkpt lat="38.554573" lon="-0.645664">
        <ele>647.208</ele>
        <time>2019-06-16T14:22:32Z</time>
      </trkpt>
      <trkpt lat="38.554522" lon="-0.645623">
        <ele>647.544</ele>
        <time>2019-06-16T14:22:33Z</time>
      </trkpt>
      <trkpt lat="38.554466" lon="-0.645571">
        <ele>647.858</ele>
        <time>2019-06-16T14:22:34Z</time>
      </trkpt>
      <trkpt lat="38.554413" lon="-0.645535">
        <ele>647.627</ele>
        <time>2019-06-16T14:22:35Z</time>
      </trkpt>
      <trkpt lat="38.554360" lon="-0.645500">
        <ele>647.180</ele>
        <time>2019-06-16T14:22:36Z</time>
      </trkpt>
      <trkpt lat="38.554301" lon="-0.645461">
        <ele>646.562</ele>
        <time>2019-06-16T14:22:37Z</time>
      </trkpt>
      <trkpt lat="38.554249" lon="-0.645419">
        <ele>646.059</ele>
        <time>2019-06-16T14:22:38Z</time>
      </trkpt>
      <trkpt lat="38.554194" lon="-0.645377">
        <ele>645.578</ele>
        <time>2019-06-16T14:22:39Z</time>
      </trkpt>
      <trkpt lat="38.554142" lon="-0.645334">
        <ele>645.183</ele>
        <time>2019-06-16T14:22:40Z</time>
      </trkpt>
      <trkpt lat="38.554091" lon="-0.645287">
        <ele>644.832</ele>
        <time>2019-06-16T14:22:41Z</time>
      </trkpt>
      <trkpt lat="38.554046" lon="-0.645251">
        <ele>644.592</ele>
        <time>2019-06-16T14:22:42Z</time>
      </trkpt>
      <trkpt lat="38.553993" lon="-0.645205">
        <ele>644.311</ele>
        <time>2019-06-16T14:22:43Z</time>
      </trkpt>
      <trkpt lat="38.553944" lon="-0.645157">
        <ele>644.108</ele>
        <time>2019-06-16T14:22:44Z</time>
      </trkpt>
      <trkpt lat="38.553888" lon="-0.645116">
        <ele>644.066</ele>
        <time>2019-06-16T14:22:45Z</time>
      </trkpt>
      <trkpt lat="38.553842" lon="-0.645064">
        <ele>644.440</ele>
        <time>2019-06-16T14:22:46Z</time>
      </trkpt>
      <trkpt lat="38.553796" lon="-0.645008">
        <ele>644.789</ele>
        <time>2019-06-16T14:22:47Z</time>
      </trkpt>
      <trkpt lat="38.553746" lon="-0.644964">
        <ele>645.032</ele>
        <time>2019-06-16T14:22:48Z</time>
      </trkpt>
      <trkpt lat="38.553708" lon="-0.644917">
        <ele>645.364</ele>
        <time>2019-06-16T14:22:49Z</time>
      </trkpt>
      <trkpt lat="38.553664" lon="-0.644874">
        <ele>645.641</ele>
        <time>2019-06-16T14:22:50Z</time>
      </trkpt>
      <trkpt lat="38.553616" lon="-0.644828">
        <ele>646.070</ele>
        <time>2019-06-16T14:22:51Z</time>
      </trkpt>
      <trkpt lat="38.553567" lon="-0.644790">
        <ele>646.155</ele>
        <time>2019-06-16T14:22:52Z</time>
      </trkpt>
      <trkpt lat="38.553511" lon="-0.644752">
        <ele>646.119</ele>
        <time>2019-06-16T14:22:53Z</time>
      </trkpt>
      <trkpt lat="38.553456" lon="-0.644724">
        <ele>646.009</ele>
        <time>2019-06-16T14:22:54Z</time>
      </trkpt>
      <trkpt lat="38.553413" lon="-0.644697">
        <ele>645.919</ele>
        <time>2019-06-16T14:22:55Z</time>
      </trkpt>
      <trkpt lat="38.553355" lon="-0.644667">
        <ele>645.808</ele>
        <time>2019-06-16T14:22:56Z</time>
      </trkpt>
      <trkpt lat="38.553300" lon="-0.644631">
        <ele>645.624</ele>
        <time>2019-06-16T14:22:57Z</time>
      </trkpt>
      <trkpt lat="38.553243" lon="-0.644605">
        <ele>645.318</ele>
        <time>2019-06-16T14:22:58Z</time>
      </trkpt>
      <trkpt lat="38.553179" lon="-0.644574">
        <ele>644.977</ele>
        <time>2019-06-16T14:22:59Z</time>
      </trkpt>
      <trkpt lat="38.553130" lon="-0.644539">
        <ele>644.690</ele>
        <time>2019-06-16T14:23:00Z</time>
      </trkpt>
      <trkpt lat="38.553073" lon="-0.644493">
        <ele>644.252</ele>
        <time>2019-06-16T14:23:01Z</time>
      </trkpt>
      <trkpt lat="38.553034" lon="-0.644421">
        <ele>643.579</ele>
        <time>2019-06-16T14:23:02Z</time>
      </trkpt>
      <trkpt lat="38.552997" lon="-0.644357">
        <ele>642.528</ele>
        <time>2019-06-16T14:23:03Z</time>
      </trkpt>
      <trkpt lat="38.552963" lon="-0.644294">
        <ele>641.583</ele>
        <time>2019-06-16T14:23:04Z</time>
      </trkpt>
      <trkpt lat="38.552927" lon="-0.644226">
        <ele>640.725</ele>
        <time>2019-06-16T14:23:05Z</time>
      </trkpt>
      <trkpt lat="38.552883" lon="-0.644171">
        <ele>640.026</ele>
        <time>2019-06-16T14:23:06Z</time>
      </trkpt>
      <trkpt lat="38.552841" lon="-0.644111">
        <ele>639.208</ele>
        <time>2019-06-16T14:23:07Z</time>
      </trkpt>
      <trkpt lat="38.552802" lon="-0.644047">
        <ele>638.308</ele>
        <time>2019-06-16T14:23:08Z</time>
      </trkpt>
      <trkpt lat="38.552764" lon="-0.643980">
        <ele>637.475</ele>
        <time>2019-06-16T14:23:09Z</time>
      </trkpt>
      <trkpt lat="38.552732" lon="-0.643915">
        <ele>636.739</ele>
        <time>2019-06-16T14:23:10Z</time>
      </trkpt>
      <trkpt lat="38.552699" lon="-0.643848">
        <ele>636.458</ele>
        <time>2019-06-16T14:23:11Z</time>
      </trkpt>
      <trkpt lat="38.552662" lon="-0.643782">
        <ele>636.441</ele>
        <time>2019-06-16T14:23:12Z</time>
      </trkpt>
      <trkpt lat="38.552622" lon="-0.643711">
        <ele>636.583</ele>
        <time>2019-06-16T14:23:13Z</time>
      </trkpt>
      <trkpt lat="38.552580" lon="-0.643653">
        <ele>636.670</ele>
        <time>2019-06-16T14:23:14Z</time>
      </trkpt>
      <trkpt lat="38.552544" lon="-0.643587">
        <ele>636.559</ele>
        <time>2019-06-16T14:23:15Z</time>
      </trkpt>
      <trkpt lat="38.552509" lon="-0.643524">
        <ele>636.324</ele>
        <time>2019-06-16T14:23:16Z</time>
      </trkpt>
      <trkpt lat="38.552469" lon="-0.643454">
        <ele>636.177</ele>
        <time>2019-06-16T14:23:17Z</time>
      </trkpt>
      <trkpt lat="38.552427" lon="-0.643392">
        <ele>635.961</ele>
        <time>2019-06-16T14:23:18Z</time>
      </trkpt>
      <trkpt lat="38.552384" lon="-0.643336">
        <ele>635.927</ele>
        <time>2019-06-16T14:23:19Z</time>
      </trkpt>
      <trkpt lat="38.552341" lon="-0.643273">
        <ele>635.708</ele>
        <time>2019-06-16T14:23:20Z</time>
      </trkpt>
      <trkpt lat="38.552307" lon="-0.643212">
        <ele>635.760</ele>
        <time>2019-06-16T14:23:21Z</time>
      </trkpt>
      <trkpt lat="38.552260" lon="-0.643149">
        <ele>635.984</ele>
        <time>2019-06-16T14:23:22Z</time>
      </trkpt>
      <trkpt lat="38.552211" lon="-0.643086">
        <ele>636.273</ele>
        <time>2019-06-16T14:23:23Z</time>
      </trkpt>
      <trkpt lat="38.552154" lon="-0.643030">
        <ele>636.386</ele>
        <time>2019-06-16T14:23:24Z</time>
      </trkpt>
      <trkpt lat="38.552102" lon="-0.642972">
        <ele>636.328</ele>
        <time>2019-06-16T14:23:25Z</time>
      </trkpt>
      <trkpt lat="38.552051" lon="-0.642913">
        <ele>636.295</ele>
        <time>2019-06-16T14:23:26Z</time>
      </trkpt>
      <trkpt lat="38.552000" lon="-0.642851">
        <ele>636.184</ele>
        <time>2019-06-16T14:23:27Z</time>
      </trkpt>
      <trkpt lat="38.551944" lon="-0.642791">
        <ele>636.159</ele>
        <time>2019-06-16T14:23:28Z</time>
      </trkpt>
      <trkpt lat="38.551895" lon="-0.642726">
        <ele>635.685</ele>
        <time>2019-06-16T14:23:29Z</time>
      </trkpt>
      <trkpt lat="38.551836" lon="-0.642673">
        <ele>635.289</ele>
        <time>2019-06-16T14:23:30Z</time>
      </trkpt>
      <trkpt lat="38.551785" lon="-0.642614">
        <ele>634.817</ele>
        <time>2019-06-16T14:23:31Z</time>
      </trkpt>
      <trkpt lat="38.551730" lon="-0.642557">
        <ele>634.408</ele>
        <time>2019-06-16T14:23:32Z</time>
      </trkpt>
      <trkpt lat="38.551677" lon="-0.642498">
        <ele>634.041</ele>
        <time>2019-06-16T14:23:33Z</time>
      </trkpt>
      <trkpt lat="38.551622" lon="-0.642444">
        <ele>633.885</ele>
        <time>2019-06-16T14:23:34Z</time>
      </trkpt>
      <trkpt lat="38.551568" lon="-0.642380">
        <ele>633.534</ele>
        <time>2019-06-16T14:23:35Z</time>
      </trkpt>
      <trkpt lat="38.551512" lon="-0.642316">
        <ele>633.277</ele>
        <time>2019-06-16T14:23:36Z</time>
      </trkpt>
      <trkpt lat="38.551455" lon="-0.642254">
        <ele>633.069</ele>
        <time>2019-06-16T14:23:37Z</time>
      </trkpt>
      <trkpt lat="38.551393" lon="-0.642193">
        <ele>632.896</ele>
        <time>2019-06-16T14:23:38Z</time>
      </trkpt>
      <trkpt lat="38.551335" lon="-0.642137">
        <ele>632.695</ele>
        <time>2019-06-16T14:23:39Z</time>
      </trkpt>
      <trkpt lat="38.551268" lon="-0.642075">
        <ele>632.440</ele>
        <time>2019-06-16T14:23:40Z</time>
      </trkpt>
      <trkpt lat="38.551212" lon="-0.642018">
        <ele>632.272</ele>
        <time>2019-06-16T14:23:41Z</time>
      </trkpt>
      <trkpt lat="38.551155" lon="-0.641958">
        <ele>631.913</ele>
        <time>2019-06-16T14:23:42Z</time>
      </trkpt>
      <trkpt lat="38.551096" lon="-0.641895">
        <ele>631.614</ele>
        <time>2019-06-16T14:23:43Z</time>
      </trkpt>
      <trkpt lat="38.551039" lon="-0.641837">
        <ele>630.908</ele>
        <time>2019-06-16T14:23:44Z</time>
      </trkpt>
      <trkpt lat="38.550992" lon="-0.641786">
        <ele>630.560</ele>
        <time>2019-06-16T14:23:45Z</time>
      </trkpt>
      <trkpt lat="38.550937" lon="-0.641716">
        <ele>630.144</ele>
        <time>2019-06-16T14:23:46Z</time>
      </trkpt>
      <trkpt lat="38.550878" lon="-0.641656">
        <ele>630.083</ele>
        <time>2019-06-16T14:23:47Z</time>
      </trkpt>
      <trkpt lat="38.550814" lon="-0.641612">
        <ele>629.976</ele>
        <time>2019-06-16T14:23:48Z</time>
      </trkpt>
      <trkpt lat="38.550751" lon="-0.641555">
        <ele>629.438</ele>
        <time>2019-06-16T14:23:49Z</time>
      </trkpt>
      <trkpt lat="38.550692" lon="-0.641491">
        <ele>629.075</ele>
        <time>2019-06-16T14:23:50Z</time>
      </trkpt>
      <trkpt lat="38.550621" lon="-0.641427">
        <ele>628.554</ele>
        <time>2019-06-16T14:23:51Z</time>
      </trkpt>
      <trkpt lat="38.550551" lon="-0.641370">
        <ele>628.059</ele>
        <time>2019-06-16T14:23:52Z</time>
      </trkpt>
      <trkpt lat="38.550472" lon="-0.641324">
        <ele>627.911</ele>
        <time>2019-06-16T14:23:53Z</time>
      </trkpt>
      <trkpt lat="38.550398" lon="-0.641260">
        <ele>627.721</ele>
        <time>2019-06-16T14:23:54Z</time>
      </trkpt>
      <trkpt lat="38.550321" lon="-0.641195">
        <ele>627.403</ele>
        <time>2019-06-16T14:23:55Z</time>
      </trkpt>
      <trkpt lat="38.550243" lon="-0.641126">
        <ele>626.908</ele>
        <time>2019-06-16T14:23:56Z</time>
      </trkpt>
      <trkpt lat="38.550190" lon="-0.641059">
        <ele>626.684</ele>
        <time>2019-06-16T14:23:57Z</time>
      </trkpt>
      <trkpt lat="38.550114" lon="-0.640995">
        <ele>626.248</ele>
        <time>2019-06-16T14:23:58Z</time>
      </trkpt>
      <trkpt lat="38.550044" lon="-0.640926">
        <ele>626.167</ele>
        <time>2019-06-16T14:23:59Z</time>
      </trkpt>
      <trkpt lat="38.549975" lon="-0.640865">
        <ele>626.250</ele>
        <time>2019-06-16T14:24:00Z</time>
      </trkpt>
      <trkpt lat="38.549932" lon="-0.640795">
        <ele>626.452</ele>
        <time>2019-06-16T14:24:01Z</time>
      </trkpt>
      <trkpt lat="38.549897" lon="-0.640738">
        <ele>626.589</ele>
        <time>2019-06-16T14:24:02Z</time>
      </trkpt>
      <trkpt lat="38.549865" lon="-0.640683">
        <ele>626.788</ele>
        <time>2019-06-16T14:24:03Z</time>
      </trkpt>
      <trkpt lat="38.549833" lon="-0.640627">
        <ele>626.983</ele>
        <time>2019-06-16T14:24:04Z</time>
      </trkpt>
      <trkpt lat="38.549799" lon="-0.640588">
        <ele>627.255</ele>
        <time>2019-06-16T14:24:06Z</time>
      </trkpt>
      <trkpt lat="38.549819" lon="-0.640530">
        <ele>626.907</ele>
        <time>2019-06-16T14:24:18Z</time>
      </trkpt>
      <trkpt lat="38.549857" lon="-0.640572">
        <ele>626.617</ele>
        <time>2019-06-16T14:24:57Z</time>
      </trkpt>
      <trkpt lat="38.549937" lon="-0.640697">
        <ele>626.108</ele>
        <time>2019-06-16T14:24:59Z</time>
      </trkpt>
      <trkpt lat="38.549937" lon="-0.640697">
        <ele>626.148</ele>
        <time>2019-06-16T14:24:59Z</time>
      </trkpt>
      <trkpt lat="38.550067" lon="-0.640876">
        <ele>626.032</ele>
        <time>2019-06-16T14:25:04Z</time>
      </trkpt>
      <trkpt lat="38.550067" lon="-0.640876">
        <ele>626.021</ele>
        <time>2019-06-16T14:25:04Z</time>
      </trkpt>
      <trkpt lat="38.550067" lon="-0.640876">
        <ele>626.034</ele>
        <time>2019-06-16T14:25:04Z</time>
      </trkpt>
      <trkpt lat="38.550067" lon="-0.640876">
        <ele>626.066</ele>
        <time>2019-06-16T14:25:04Z</time>
      </trkpt>
      <trkpt lat="38.550067" lon="-0.640876">
        <ele>626.023</ele>
        <time>2019-06-16T14:25:04Z</time>
      </trkpt>
      <trkpt lat="38.550620" lon="-0.640307">
        <ele>622.952</ele>
        <time>2019-06-16T14:25:17Z</time>
      </trkpt>
      <trkpt lat="38.550620" lon="-0.640307">
        <ele>622.957</ele>
        <time>2019-06-16T14:25:17Z</time>
      </trkpt>
      <trkpt lat="38.550620" lon="-0.640307">
        <ele>622.928</ele>
        <time>2019-06-16T14:25:17Z</time>
      </trkpt>
      <trkpt lat="38.550620" lon="-0.640307">
        <ele>622.989</ele>
        <time>2019-06-16T14:25:17Z</time>
      </trkpt>
      <trkpt lat="38.550620" lon="-0.640307">
        <ele>622.917</ele>
        <time>2019-06-16T14:25:17Z</time>
      </trkpt>
      <trkpt lat="38.550620" lon="-0.640307">
        <ele>622.908</ele>
        <time>2019-06-16T14:25:17Z</time>
      </trkpt>
      <trkpt lat="38.550620" lon="-0.640307">
        <ele>622.945</ele>
        <time>2019-06-16T14:25:17Z</time>
      </trkpt>
      <trkpt lat="38.550620" lon="-0.640307">
        <ele>622.969</ele>
        <time>2019-06-16T14:25:17Z</time>
      </trkpt>
      <trkpt lat="38.550620" lon="-0.640307">
        <ele>622.918</ele>
        <time>2019-06-16T14:25:17Z</time>
      </trkpt>
      <trkpt lat="38.550620" lon="-0.640307">
        <ele>622.991</ele>
        <time>2019-06-16T14:25:17Z</time>
      </trkpt>
      <trkpt lat="38.550620" lon="-0.640307">
        <ele>622.913</ele>
        <time>2019-06-16T14:25:17Z</time>
      </trkpt>
      <trkpt lat="38.550620" lon="-0.640307">
        <ele>622.960</ele>
        <time>2019-06-16T14:25:17Z</time>
      </trkpt>
      <trkpt lat="38.550620" lon="-0.640307">
        <ele>622.959</ele>
        <time>2019-06-16T14:25:17Z</time>
      </trkpt>
      <trkpt lat="38.550699" lon="-0.640207">
        <ele>622.194</ele>
        <time>2019-06-16T14:25:55Z</time>
      </trkpt>
      <trkpt lat="38.550748" lon="-0.640207">
        <ele>622.068</ele>
        <time>2019-06-16T14:25:57Z</time>
      </trkpt>
      <trkpt lat="38.550748" lon="-0.640207">
        <ele>622.042</ele>
        <time>2019-06-16T14:25:57Z</time>
      </trkpt>
      <trkpt lat="38.550948" lon="-0.640234">
        <ele>622.326</ele>
        <time>2019-06-16T14:26:02Z</time>
      </trkpt>
      <trkpt lat="38.550948" lon="-0.640234">
        <ele>622.308</ele>
        <time>2019-06-16T14:26:02Z</time>
      </trkpt>
      <trkpt lat="38.550948" lon="-0.640234">
        <ele>622.369</ele>
        <time>2019-06-16T14:26:02Z</time>
      </trkpt>
      <trkpt lat="38.550948" lon="-0.640234">
        <ele>622.373</ele>
        <time>2019-06-16T14:26:02Z</time>
      </trkpt>
      <trkpt lat="38.550948" lon="-0.640234">
        <ele>622.312</ele>
        <time>2019-06-16T14:26:02Z</time>
      </trkpt>
      <trkpt lat="38.551511" lon="-0.639976">
        <ele>623.465</ele>
        <time>2019-06-16T14:26:15Z</time>
      </trkpt>
      <trkpt lat="38.551511" lon="-0.639976">
        <ele>623.447</ele>
        <time>2019-06-16T14:26:15Z</time>
      </trkpt>
      <trkpt lat="38.551511" lon="-0.639976">
        <ele>623.474</ele>
        <time>2019-06-16T14:26:15Z</time>
      </trkpt>
      <trkpt lat="38.551511" lon="-0.639976">
        <ele>623.413</ele>
        <time>2019-06-16T14:26:15Z</time>
      </trkpt>
      <trkpt lat="38.551511" lon="-0.639976">
        <ele>623.458</ele>
        <time>2019-06-16T14:26:15Z</time>
      </trkpt>
      <trkpt lat="38.551511" lon="-0.639976">
        <ele>623.473</ele>
        <time>2019-06-16T14:26:15Z</time>
      </trkpt>
      <trkpt lat="38.551511" lon="-0.639976">
        <ele>623.485</ele>
        <time>2019-06-16T14:26:15Z</time>
      </trkpt>
      <trkpt lat="38.551511" lon="-0.639976">
        <ele>623.413</ele>
        <time>2019-06-16T14:26:15Z</time>
      </trkpt>
      <trkpt lat="38.551511" lon="-0.639976">
        <ele>623.408</ele>
        <time>2019-06-16T14:26:15Z</time>
      </trkpt>
      <trkpt lat="38.551511" lon="-0.639976">
        <ele>623.460</ele>
        <time>2019-06-16T14:26:15Z</time>
      </trkpt>
      <trkpt lat="38.551511" lon="-0.639976">
        <ele>623.424</ele>
        <time>2019-06-16T14:26:15Z</time>
      </trkpt>
      <trkpt lat="38.551511" lon="-0.639976">
        <ele>623.493</ele>
        <time>2019-06-16T14:26:15Z</time>
      </trkpt>
      <trkpt lat="38.551511" lon="-0.639976">
        <ele>623.476</ele>
        <time>2019-06-16T14:26:15Z</time>
      </trkpt>
      <trkpt lat="38.551366" lon="-0.638213">
        <ele>617.918</ele>
        <time>2019-06-16T14:26:47Z</time>
      </trkpt>
      <trkpt lat="38.551366" lon="-0.638213">
        <ele>617.935</ele>
        <time>2019-06-16T14:26:47Z</time>
      </trkpt>
      <trkpt lat="38.551366" lon="-0.638213">
        <ele>617.914</ele>
        <time>2019-06-16T14:26:47Z</time>
      </trkpt>
      <trkpt lat="38.551366" lon="-0.638213">
        <ele>617.989</ele>
        <time>2019-06-16T14:26:47Z</time>
      </trkpt>
      <trkpt lat="38.551366" lon="-0.638213">
        <ele>617.935</ele>
        <time>2019-06-16T14:26:47Z</time>
      </trkpt>
      <trkpt lat="38.551366" lon="-0.638213">
        <ele>617.986</ele>
        <time>2019-06-16T14:26:47Z</time>
      </trkpt>
      <trkpt lat="38.551366" lon="-0.638213">
        <ele>617.914</ele>
        <time>2019-06-16T14:26:47Z</time>
      </trkpt>
      <trkpt lat="38.551366" lon="-0.638213">
        <ele>617.908</ele>
        <time>2019-06-16T14:26:47Z</time>
      </trkpt>
      <trkpt lat="38.551366" lon="-0.638213">
        <ele>617.996</ele>
        <time>2019-06-16T14:26:47Z</time>
      </trkpt>
      <trkpt lat="38.551366" lon="-0.638213">
        <ele>617.980</ele>
        <time>2019-06-16T14:26:47Z</time>
      </trkpt>
      <trkpt lat="38.551366" lon="-0.638213">
        <ele>617.989</ele>
        <time>2019-06-16T14:26:47Z</time>
      </trkpt>
      <trkpt lat="38.551366" lon="-0.638213">
        <ele>617.912</ele>
        <time>2019-06-16T14:26:47Z</time>
      </trkpt>
      <trkpt lat="38.551366" lon="-0.638213">
        <ele>617.924</ele>
        <time>2019-06-16T14:26:47Z</time>
      </trkpt>
      <trkpt lat="38.551366" lon="-0.638213">
        <ele>617.921</ele>
        <time>2019-06-16T14:26:47Z</time>
      </trkpt>
      <trkpt lat="38.551366" lon="-0.638213">
        <ele>617.980</ele>
        <time>2019-06-16T14:26:47Z</time>
      </trkpt>
      <trkpt lat="38.551366" lon="-0.638213">
        <ele>617.925</ele>
        <time>2019-06-16T14:26:47Z</time>
      </trkpt>
      <trkpt lat="38.551366" lon="-0.638213">
        <ele>617.914</ele>
        <time>2019-06-16T14:26:47Z</time>
      </trkpt>
      <trkpt lat="38.551366" lon="-0.638213">
        <ele>617.954</ele>
        <time>2019-06-16T14:26:47Z</time>
      </trkpt>
      <trkpt lat="38.551366" lon="-0.638213">
        <ele>617.909</ele>
        <time>2019-06-16T14:26:47Z</time>
      </trkpt>
      <trkpt lat="38.551366" lon="-0.638213">
        <ele>617.908</ele>
        <time>2019-06-16T14:26:47Z</time>
      </trkpt>
      <trkpt lat="38.551366" lon="-0.638213">
        <ele>617.924</ele>
        <time>2019-06-16T14:26:47Z</time>
      </trkpt>
      <trkpt lat="38.551366" lon="-0.638213">
        <ele>617.948</ele>
        <time>2019-06-16T14:26:47Z</time>
      </trkpt>
      <trkpt lat="38.551366" lon="-0.638213">
        <ele>617.947</ele>
        <time>2019-06-16T14:26:47Z</time>
      </trkpt>
      <trkpt lat="38.551366" lon="-0.638213">
        <ele>617.940</ele>
        <time>2019-06-16T14:26:47Z</time>
      </trkpt>
      <trkpt lat="38.551366" lon="-0.638213">
        <ele>617.912</ele>
        <time>2019-06-16T14:26:47Z</time>
      </trkpt>
      <trkpt lat="38.551366" lon="-0.638213">
        <ele>617.979</ele>
        <time>2019-06-16T14:26:47Z</time>
      </trkpt>
      <trkpt lat="38.551366" lon="-0.638213">
        <ele>617.988</ele>
        <time>2019-06-16T14:26:47Z</time>
      </trkpt>
      <trkpt lat="38.551366" lon="-0.638213">
        <ele>617.953</ele>
        <time>2019-06-16T14:26:47Z</time>
      </trkpt>
      <trkpt lat="38.551366" lon="-0.638213">
        <ele>617.981</ele>
        <time>2019-06-16T14:26:47Z</time>
      </trkpt>
      <trkpt lat="38.551366" lon="-0.638213">
        <ele>617.961</ele>
        <time>2019-06-16T14:26:47Z</time>
      </trkpt>
      <trkpt lat="38.551366" lon="-0.638213">
        <ele>617.917</ele>
        <time>2019-06-16T14:26:47Z</time>
      </trkpt>
      <trkpt lat="38.551366" lon="-0.638213">
        <ele>617.908</ele>
        <time>2019-06-16T14:26:47Z</time>
      </trkpt>
      <trkpt lat="38.548366" lon="-0.635898">
        <ele>625.031</ele>
        <time>2019-06-16T14:28:06Z</time>
      </trkpt>
      <trkpt lat="38.548366" lon="-0.635898">
        <ele>625.025</ele>
        <time>2019-06-16T14:28:06Z</time>
      </trkpt>
      <trkpt lat="38.548366" lon="-0.635898">
        <ele>625.044</ele>
        <time>2019-06-16T14:28:06Z</time>
      </trkpt>
      <trkpt lat="38.548366" lon="-0.635898">
        <ele>625.057</ele>
        <time>2019-06-16T14:28:06Z</time>
      </trkpt>
      <trkpt lat="38.548366" lon="-0.635898">
        <ele>625.079</ele>
        <time>2019-06-16T14:28:06Z</time>
      </trkpt>
      <trkpt lat="38.548366" lon="-0.635898">
        <ele>625.016</ele>
        <time>2019-06-16T14:28:06Z</time>
      </trkpt>
      <trkpt lat="38.548366" lon="-0.635898">
        <ele>625.085</ele>
        <time>2019-06-16T14:28:06Z</time>
      </trkpt>
      <trkpt lat="38.548366" lon="-0.635898">
        <ele>625.010</ele>
        <time>2019-06-16T14:28:06Z</time>
      </trkpt>
      <trkpt lat="38.548366" lon="-0.635898">
        <ele>625.045</ele>
        <time>2019-06-16T14:28:06Z</time>
      </trkpt>
      <trkpt lat="38.548366" lon="-0.635898">
        <ele>625.047</ele>
        <time>2019-06-16T14:28:06Z</time>
      </trkpt>
      <trkpt lat="38.548366" lon="-0.635898">
        <ele>625.011</ele>
        <time>2019-06-16T14:28:06Z</time>
      </trkpt>
      <trkpt lat="38.548366" lon="-0.635898">
        <ele>625.008</ele>
        <time>2019-06-16T14:28:06Z</time>
      </trkpt>
      <trkpt lat="38.548366" lon="-0.635898">
        <ele>625.047</ele>
        <time>2019-06-16T14:28:06Z</time>
      </trkpt>
      <trkpt lat="38.548366" lon="-0.635898">
        <ele>625.031</ele>
        <time>2019-06-16T14:28:06Z</time>
      </trkpt>
      <trkpt lat="38.548366" lon="-0.635898">
        <ele>625.020</ele>
        <time>2019-06-16T14:28:06Z</time>
      </trkpt>
      <trkpt lat="38.548366" lon="-0.635898">
        <ele>625.083</ele>
        <time>2019-06-16T14:28:06Z</time>
      </trkpt>
      <trkpt lat="38.548366" lon="-0.635898">
        <ele>625.015</ele>
        <time>2019-06-16T14:28:06Z</time>
      </trkpt>
      <trkpt lat="38.548366" lon="-0.635898">
        <ele>625.012</ele>
        <time>2019-06-16T14:28:06Z</time>
      </trkpt>
      <trkpt lat="38.548366" lon="-0.635898">
        <ele>625.041</ele>
        <time>2019-06-16T14:28:06Z</time>
      </trkpt>
      <trkpt lat="38.548366" lon="-0.635898">
        <ele>625.086</ele>
        <time>2019-06-16T14:28:06Z</time>
      </trkpt>
      <trkpt lat="38.548366" lon="-0.635898">
        <ele>625.065</ele>
        <time>2019-06-16T14:28:06Z</time>
      </trkpt>
      <trkpt lat="38.548366" lon="-0.635898">
        <ele>625.068</ele>
        <time>2019-06-16T14:28:06Z</time>
      </trkpt>
      <trkpt lat="38.548366" lon="-0.635898">
        <ele>625.014</ele>
        <time>2019-06-16T14:28:06Z</time>
      </trkpt>
      <trkpt lat="38.548366" lon="-0.635898">
        <ele>625.008</ele>
        <time>2019-06-16T14:28:06Z</time>
      </trkpt>
      <trkpt lat="38.548366" lon="-0.635898">
        <ele>625.059</ele>
        <time>2019-06-16T14:28:06Z</time>
      </trkpt>
      <trkpt lat="38.548366" lon="-0.635898">
        <ele>625.063</ele>
        <time>2019-06-16T14:28:06Z</time>
      </trkpt>
      <trkpt lat="38.548366" lon="-0.635898">
        <ele>625.032</ele>
        <time>2019-06-16T14:28:06Z</time>
      </trkpt>
      <trkpt lat="38.548366" lon="-0.635898">
        <ele>625.075</ele>
        <time>2019-06-16T14:28:06Z</time>
      </trkpt>
      <trkpt lat="38.548366" lon="-0.635898">
        <ele>625.047</ele>
        <time>2019-06-16T14:28:06Z</time>
      </trkpt>
      <trkpt lat="38.548366" lon="-0.635898">
        <ele>625.074</ele>
        <time>2019-06-16T14:28:06Z</time>
      </trkpt>
      <trkpt lat="38.548366" lon="-0.635898">
        <ele>625.033</ele>
        <time>2019-06-16T14:28:06Z</time>
      </trkpt>
      <trkpt lat="38.548366" lon="-0.635898">
        <ele>625.028</ele>
        <time>2019-06-16T14:28:06Z</time>
      </trkpt>
      <trkpt lat="38.548366" lon="-0.635898">
        <ele>625.079</ele>
        <time>2019-06-16T14:28:06Z</time>
      </trkpt>
      <trkpt lat="38.548366" lon="-0.635898">
        <ele>625.005</ele>
        <time>2019-06-16T14:28:06Z</time>
      </trkpt>
      <trkpt lat="38.548366" lon="-0.635898">
        <ele>625.025</ele>
        <time>2019-06-16T14:28:06Z</time>
      </trkpt>
      <trkpt lat="38.548366" lon="-0.635898">
        <ele>625.008</ele>
        <time>2019-06-16T14:28:06Z</time>
      </trkpt>
      <trkpt lat="38.548366" lon="-0.635898">
        <ele>625.010</ele>
        <time>2019-06-16T14:28:06Z</time>
      </trkpt>
      <trkpt lat="38.548366" lon="-0.635898">
        <ele>625.074</ele>
        <time>2019-06-16T14:28:06Z</time>
      </trkpt>
      <trkpt lat="38.548366" lon="-0.635898">
        <ele>625.053</ele>
        <time>2019-06-16T14:28:06Z</time>
      </trkpt>
      <trkpt lat="38.548366" lon="-0.635898">
        <ele>625.086</ele>
        <time>2019-06-16T14:28:06Z</time>
      </trkpt>
      <trkpt lat="38.548366" lon="-0.635898">
        <ele>625.048</ele>
        <time>2019-06-16T14:28:06Z</time>
      </trkpt>
      <trkpt lat="38.548366" lon="-0.635898">
        <ele>625.085</ele>
        <time>2019-06-16T14:28:06Z</time>
      </trkpt>
      <trkpt lat="38.548366" lon="-0.635898">
        <ele>625.094</ele>
        <time>2019-06-16T14:28:06Z</time>
      </trkpt>
      <trkpt lat="38.548366" lon="-0.635898">
        <ele>625.029</ele>
        <time>2019-06-16T14:28:06Z</time>
      </trkpt>
      <trkpt lat="38.548366" lon="-0.635898">
        <ele>625.044</ele>
        <time>2019-06-16T14:28:06Z</time>
      </trkpt>
      <trkpt lat="38.548366" lon="-0.635898">
        <ele>625.005</ele>
        <time>2019-06-16T14:28:06Z</time>
      </trkpt>
      <trkpt lat="38.548366" lon="-0.635898">
        <ele>625.015</ele>
        <time>2019-06-16T14:28:06Z</time>
      </trkpt>
      <trkpt lat="38.548366" lon="-0.635898">
        <ele>625.008</ele>
        <time>2019-06-16T14:28:06Z</time>
      </trkpt>
      <trkpt lat="38.548366" lon="-0.635898">
        <ele>625.067</ele>
        <time>2019-06-16T14:28:06Z</time>
      </trkpt>
      <trkpt lat="38.548366" lon="-0.635898">
        <ele>625.011</ele>
        <time>2019-06-16T14:28:06Z</time>
      </trkpt>
      <trkpt lat="38.548366" lon="-0.635898">
        <ele>625.030</ele>
        <time>2019-06-16T14:28:06Z</time>
      </trkpt>
      <trkpt lat="38.548366" lon="-0.635898">
        <ele>625.083</ele>
        <time>2019-06-16T14:28:06Z</time>
      </trkpt>
      <trkpt lat="38.548366" lon="-0.635898">
        <ele>625.025</ele>
        <time>2019-06-16T14:28:06Z</time>
      </trkpt>
      <trkpt lat="38.548366" lon="-0.635898">
        <ele>625.032</ele>
        <time>2019-06-16T14:28:06Z</time>
      </trkpt>
      <trkpt lat="38.548366" lon="-0.635898">
        <ele>625.031</ele>
        <time>2019-06-16T14:28:06Z</time>
      </trkpt>
      <trkpt lat="38.548366" lon="-0.635898">
        <ele>625.046</ele>
        <time>2019-06-16T14:28:06Z</time>
      </trkpt>
      <trkpt lat="38.548366" lon="-0.635898">
        <ele>625.083</ele>
        <time>2019-06-16T14:28:06Z</time>
      </trkpt>
      <trkpt lat="38.548366" lon="-0.635898">
        <ele>625.025</ele>
        <time>2019-06-16T14:28:06Z</time>
      </trkpt>
      <trkpt lat="38.548366" lon="-0.635898">
        <ele>625.017</ele>
        <time>2019-06-16T14:28:06Z</time>
      </trkpt>
      <trkpt lat="38.548366" lon="-0.635898">
        <ele>625.008</ele>
        <time>2019-06-16T14:28:06Z</time>
      </trkpt>
      <trkpt lat="38.548366" lon="-0.635898">
        <ele>625.071</ele>
        <time>2019-06-16T14:28:06Z</time>
      </trkpt>
      <trkpt lat="38.548366" lon="-0.635898">
        <ele>625.015</ele>
        <time>2019-06-16T14:28:06Z</time>
      </trkpt>
      <trkpt lat="38.548366" lon="-0.635898">
        <ele>625.074</ele>
        <time>2019-06-16T14:28:06Z</time>
      </trkpt>
      <trkpt lat="38.548366" lon="-0.635898">
        <ele>625.057</ele>
        <time>2019-06-16T14:28:06Z</time>
      </trkpt>
      <trkpt lat="38.548366" lon="-0.635898">
        <ele>625.029</ele>
        <time>2019-06-16T14:28:06Z</time>
      </trkpt>
      <trkpt lat="38.548366" lon="-0.635898">
        <ele>625.076</ele>
        <time>2019-06-16T14:28:06Z</time>
      </trkpt>
      <trkpt lat="38.548366" lon="-0.635898">
        <ele>625.015</ele>
        <time>2019-06-16T14:28:06Z</time>
      </trkpt>
      <trkpt lat="38.548366" lon="-0.635898">
        <ele>625.010</ele>
        <time>2019-06-16T14:28:06Z</time>
      </trkpt>
      <trkpt lat="38.548366" lon="-0.635898">
        <ele>625.038</ele>
        <time>2019-06-16T14:28:06Z</time>
      </trkpt>
      <trkpt lat="38.548366" lon="-0.635898">
        <ele>625.070</ele>
        <time>2019-06-16T14:28:06Z</time>
      </trkpt>
      <trkpt lat="38.548366" lon="-0.635898">
        <ele>625.017</ele>
        <time>2019-06-16T14:28:06Z</time>
      </trkpt>
      <trkpt lat="38.548366" lon="-0.635898">
        <ele>625.008</ele>
        <time>2019-06-16T14:28:06Z</time>
      </trkpt>
      <trkpt lat="38.548366" lon="-0.635898">
        <ele>625.066</ele>
        <time>2019-06-16T14:28:06Z</time>
      </trkpt>
      <trkpt lat="38.548366" lon="-0.635898">
        <ele>625.040</ele>
        <time>2019-06-16T14:28:06Z</time>
      </trkpt>
      <trkpt lat="38.548366" lon="-0.635898">
        <ele>625.059</ele>
        <time>2019-06-16T14:28:06Z</time>
      </trkpt>
      <trkpt lat="38.548366" lon="-0.635898">
        <ele>625.062</ele>
        <time>2019-06-16T14:28:06Z</time>
      </trkpt>
      <trkpt lat="38.548366" lon="-0.635898">
        <ele>625.014</ele>
        <time>2019-06-16T14:28:06Z</time>
      </trkpt>
      <trkpt lat="38.548366" lon="-0.635898">
        <ele>625.041</ele>
        <time>2019-06-16T14:28:06Z</time>
      </trkpt>
      <trkpt lat="38.548366" lon="-0.635898">
        <ele>625.080</ele>
        <time>2019-06-16T14:28:06Z</time>
      </trkpt>
      <trkpt lat="38.548038" lon="-0.635661">
        <ele>624.045</ele>
        <time>2019-06-16T14:28:15Z</time>
      </trkpt>
      <trkpt lat="38.548038" lon="-0.635661">
        <ele>624.062</ele>
        <time>2019-06-16T14:28:15Z</time>
      </trkpt>
      <trkpt lat="38.548038" lon="-0.635661">
        <ele>624.083</ele>
        <time>2019-06-16T14:28:15Z</time>
      </trkpt>
      <trkpt lat="38.548038" lon="-0.635661">
        <ele>624.011</ele>
        <time>2019-06-16T14:28:15Z</time>
      </trkpt>
      <trkpt lat="38.548038" lon="-0.635661">
        <ele>624.008</ele>
        <time>2019-06-16T14:28:15Z</time>
      </trkpt>
      <trkpt lat="38.548038" lon="-0.635661">
        <ele>624.029</ele>
        <time>2019-06-16T14:28:15Z</time>
      </trkpt>
      <trkpt lat="38.548038" lon="-0.635661">
        <ele>624.053</ele>
        <time>2019-06-16T14:28:15Z</time>
      </trkpt>
      <trkpt lat="38.548038" lon="-0.635661">
        <ele>624.022</ele>
        <time>2019-06-16T14:28:15Z</time>
      </trkpt>
      <trkpt lat="38.548038" lon="-0.635661">
        <ele>624.095</ele>
        <time>2019-06-16T14:28:15Z</time>
      </trkpt>
      <trkpt lat="38.547974" lon="-0.635600">
        <ele>624.077</ele>
        <time>2019-06-16T14:28:17Z</time>
      </trkpt>
      <trkpt lat="38.547926" lon="-0.635557">
        <ele>624.024</ele>
        <time>2019-06-16T14:28:19Z</time>
      </trkpt>
      <trkpt lat="38.547854" lon="-0.635527">
        <ele>624.023</ele>
        <time>2019-06-16T14:28:50Z</time>
      </trkpt>
      <trkpt lat="38.547781" lon="-0.635488">
        <ele>624.068</ele>
        <time>2019-06-16T14:28:52Z</time>
      </trkpt>
      <trkpt lat="38.547715" lon="-0.635452">
        <ele>624.221</ele>
        <time>2019-06-16T14:28:53Z</time>
      </trkpt>
      <trkpt lat="38.547675" lon="-0.635424">
        <ele>624.441</ele>
        <time>2019-06-16T14:28:54Z</time>
      </trkpt>
      <trkpt lat="38.547630" lon="-0.635386">
        <ele>624.505</ele>
        <time>2019-06-16T14:28:55Z</time>
      </trkpt>
      <trkpt lat="38.547566" lon="-0.635310">
        <ele>624.808</ele>
        <time>2019-06-16T14:28:57Z</time>
      </trkpt>
      <trkpt lat="38.547513" lon="-0.635276">
        <ele>624.985</ele>
        <time>2019-06-16T14:28:58Z</time>
      </trkpt>
      <trkpt lat="38.547468" lon="-0.635236">
        <ele>624.649</ele>
        <time>2019-06-16T14:28:59Z</time>
      </trkpt>
      <trkpt lat="38.547417" lon="-0.635199">
        <ele>624.028</ele>
        <time>2019-06-16T14:29:00Z</time>
      </trkpt>
      <trkpt lat="38.547367" lon="-0.635162">
        <ele>623.591</ele>
        <time>2019-06-16T14:29:01Z</time>
      </trkpt>
      <trkpt lat="38.547290" lon="-0.635122">
        <ele>622.733</ele>
        <time>2019-06-16T14:29:02Z</time>
      </trkpt>
      <trkpt lat="38.547227" lon="-0.635080">
        <ele>621.910</ele>
        <time>2019-06-16T14:29:03Z</time>
      </trkpt>
      <trkpt lat="38.547166" lon="-0.635046">
        <ele>621.579</ele>
        <time>2019-06-16T14:29:04Z</time>
      </trkpt>
      <trkpt lat="38.547114" lon="-0.634994">
        <ele>620.994</ele>
        <time>2019-06-16T14:29:05Z</time>
      </trkpt>
      <trkpt lat="38.546908" lon="-0.634824">
        <ele>619.562</ele>
        <time>2019-06-16T14:29:09Z</time>
      </trkpt>
      <trkpt lat="38.546908" lon="-0.634824">
        <ele>619.583</ele>
        <time>2019-06-16T14:29:09Z</time>
      </trkpt>
      <trkpt lat="38.546908" lon="-0.634824">
        <ele>619.511</ele>
        <time>2019-06-16T14:29:09Z</time>
      </trkpt>
      <trkpt lat="38.546908" lon="-0.634824">
        <ele>619.508</ele>
        <time>2019-06-16T14:29:09Z</time>
      </trkpt>
      <trkpt lat="38.546463" lon="-0.634449">
        <ele>623.279</ele>
        <time>2019-06-16T14:29:19Z</time>
      </trkpt>
      <trkpt lat="38.546463" lon="-0.634449">
        <ele>623.213</ele>
        <time>2019-06-16T14:29:19Z</time>
      </trkpt>
      <trkpt lat="38.546463" lon="-0.634449">
        <ele>623.292</ele>
        <time>2019-06-16T14:29:19Z</time>
      </trkpt>
      <trkpt lat="38.546463" lon="-0.634449">
        <ele>623.265</ele>
        <time>2019-06-16T14:29:19Z</time>
      </trkpt>
      <trkpt lat="38.546463" lon="-0.634449">
        <ele>623.297</ele>
        <time>2019-06-16T14:29:19Z</time>
      </trkpt>
      <trkpt lat="38.546463" lon="-0.634449">
        <ele>623.224</ele>
        <time>2019-06-16T14:29:19Z</time>
      </trkpt>
      <trkpt lat="38.546463" lon="-0.634449">
        <ele>623.283</ele>
        <time>2019-06-16T14:29:19Z</time>
      </trkpt>
      <trkpt lat="38.546463" lon="-0.634449">
        <ele>623.288</ele>
        <time>2019-06-16T14:29:19Z</time>
      </trkpt>
      <trkpt lat="38.546463" lon="-0.634449">
        <ele>623.262</ele>
        <time>2019-06-16T14:29:19Z</time>
      </trkpt>
      <trkpt lat="38.546463" lon="-0.634449">
        <ele>623.283</ele>
        <time>2019-06-16T14:29:19Z</time>
      </trkpt>
      <trkpt lat="38.546371" lon="-0.634436">
        <ele>624.011</ele>
        <time>2019-06-16T14:29:21Z</time>
      </trkpt>
      <trkpt lat="38.546324" lon="-0.634412">
        <ele>624.008</ele>
        <time>2019-06-16T14:29:22Z</time>
      </trkpt>
      <trkpt lat="38.546279" lon="-0.634393">
        <ele>624.189</ele>
        <time>2019-06-16T14:29:23Z</time>
      </trkpt>
      <trkpt lat="38.546230" lon="-0.634344">
        <ele>624.243</ele>
        <time>2019-06-16T14:29:24Z</time>
      </trkpt>
      <trkpt lat="38.546182" lon="-0.634316">
        <ele>624.312</ele>
        <time>2019-06-16T14:29:25Z</time>
      </trkpt>
      <trkpt lat="38.546140" lon="-0.634272">
        <ele>624.695</ele>
        <time>2019-06-16T14:29:26Z</time>
      </trkpt>
      <trkpt lat="38.546092" lon="-0.634243">
        <ele>624.897</ele>
        <time>2019-06-16T14:29:27Z</time>
      </trkpt>
      <trkpt lat="38.546049" lon="-0.634222">
        <ele>625.164</ele>
        <time>2019-06-16T14:29:28Z</time>
      </trkpt>
      <trkpt lat="38.546007" lon="-0.634197">
        <ele>625.323</ele>
        <time>2019-06-16T14:29:29Z</time>
      </trkpt>
      <trkpt lat="38.545963" lon="-0.634170">
        <ele>625.598</ele>
        <time>2019-06-16T14:29:30Z</time>
      </trkpt>
      <trkpt lat="38.545935" lon="-0.634124">
        <ele>625.634</ele>
        <time>2019-06-16T14:29:31Z</time>
      </trkpt>
      <trkpt lat="38.545859" lon="-0.634066">
        <ele>625.955</ele>
        <time>2019-06-16T14:29:33Z</time>
      </trkpt>
      <trkpt lat="38.545789" lon="-0.634017">
        <ele>626.110</ele>
        <time>2019-06-16T14:29:35Z</time>
      </trkpt>
      <trkpt lat="38.545715" lon="-0.633961">
        <ele>626.108</ele>
        <time>2019-06-16T14:29:37Z</time>
      </trkpt>
      <trkpt lat="38.545634" lon="-0.633909">
        <ele>626.166</ele>
        <time>2019-06-16T14:29:39Z</time>
      </trkpt>
      <trkpt lat="38.545569" lon="-0.633849">
        <ele>626.080</ele>
        <time>2019-06-16T14:29:41Z</time>
      </trkpt>
      <trkpt lat="38.545528" lon="-0.633820">
        <ele>626.019</ele>
        <time>2019-06-16T14:29:42Z</time>
      </trkpt>
      <trkpt lat="38.545455" lon="-0.633762">
        <ele>626.042</ele>
        <time>2019-06-16T14:29:44Z</time>
      </trkpt>
      <trkpt lat="38.545385" lon="-0.633688">
        <ele>626.074</ele>
        <time>2019-06-16T14:29:46Z</time>
      </trkpt>
      <trkpt lat="38.545348" lon="-0.633655">
        <ele>626.071</ele>
        <time>2019-06-16T14:29:47Z</time>
      </trkpt>
      <trkpt lat="38.545309" lon="-0.633622">
        <ele>626.020</ele>
        <time>2019-06-16T14:29:48Z</time>
      </trkpt>
      <trkpt lat="38.545232" lon="-0.633564">
        <ele>626.375</ele>
        <time>2019-06-16T14:29:50Z</time>
      </trkpt>
      <trkpt lat="38.545190" lon="-0.633534">
        <ele>626.567</ele>
        <time>2019-06-16T14:29:51Z</time>
      </trkpt>
      <trkpt lat="38.545149" lon="-0.633510">
        <ele>626.881</ele>
        <time>2019-06-16T14:29:52Z</time>
      </trkpt>
      <trkpt lat="38.545071" lon="-0.633456">
        <ele>627.119</ele>
        <time>2019-06-16T14:29:54Z</time>
      </trkpt>
      <trkpt lat="38.545021" lon="-0.633432">
        <ele>627.308</ele>
        <time>2019-06-16T14:29:55Z</time>
      </trkpt>
      <trkpt lat="38.544994" lon="-0.633368">
        <ele>627.129</ele>
        <time>2019-06-16T14:29:56Z</time>
      </trkpt>
      <trkpt lat="38.544947" lon="-0.633350">
        <ele>627.333</ele>
        <time>2019-06-16T14:29:57Z</time>
      </trkpt>
      <trkpt lat="38.544898" lon="-0.633337">
        <ele>627.422</ele>
        <time>2019-06-16T14:29:58Z</time>
      </trkpt>
      <trkpt lat="38.544855" lon="-0.633304">
        <ele>627.665</ele>
        <time>2019-06-16T14:29:59Z</time>
      </trkpt>
      <trkpt lat="38.544763" lon="-0.633235">
        <ele>627.977</ele>
        <time>2019-06-16T14:30:01Z</time>
      </trkpt>
      <trkpt lat="38.544714" lon="-0.633202">
        <ele>628.014</ele>
        <time>2019-06-16T14:30:02Z</time>
      </trkpt>
      <trkpt lat="38.544658" lon="-0.633190">
        <ele>628.233</ele>
        <time>2019-06-16T14:30:03Z</time>
      </trkpt>
      <trkpt lat="38.544615" lon="-0.633148">
        <ele>628.498</ele>
        <time>2019-06-16T14:30:04Z</time>
      </trkpt>
      <trkpt lat="38.544575" lon="-0.633114">
        <ele>628.591</ele>
        <time>2019-06-16T14:30:05Z</time>
      </trkpt>
      <trkpt lat="38.544542" lon="-0.633072">
        <ele>628.681</ele>
        <time>2019-06-16T14:30:06Z</time>
      </trkpt>
      <trkpt lat="38.544458" lon="-0.633017">
        <ele>628.719</ele>
        <time>2019-06-16T14:30:08Z</time>
      </trkpt>
      <trkpt lat="38.544414" lon="-0.632989">
        <ele>628.608</ele>
        <time>2019-06-16T14:30:09Z</time>
      </trkpt>
      <trkpt lat="38.544372" lon="-0.632958">
        <ele>628.542</ele>
        <time>2019-06-16T14:30:10Z</time>
      </trkpt>
      <trkpt lat="38.544331" lon="-0.632916">
        <ele>628.276</ele>
        <time>2019-06-16T14:30:11Z</time>
      </trkpt>
      <trkpt lat="38.544283" lon="-0.632878">
        <ele>627.955</ele>
        <time>2019-06-16T14:30:12Z</time>
      </trkpt>
      <trkpt lat="38.544232" lon="-0.632840">
        <ele>627.658</ele>
        <time>2019-06-16T14:30:13Z</time>
      </trkpt>
      <trkpt lat="38.544179" lon="-0.632803">
        <ele>627.340</ele>
        <time>2019-06-16T14:30:14Z</time>
      </trkpt>
      <trkpt lat="38.544124" lon="-0.632779">
        <ele>626.727</ele>
        <time>2019-06-16T14:30:15Z</time>
      </trkpt>
      <trkpt lat="38.544071" lon="-0.632735">
        <ele>625.946</ele>
        <time>2019-06-16T14:30:16Z</time>
      </trkpt>
      <trkpt lat="38.544030" lon="-0.632683">
        <ele>625.221</ele>
        <time>2019-06-16T14:30:17Z</time>
      </trkpt>
      <trkpt lat="38.543979" lon="-0.632641">
        <ele>624.526</ele>
        <time>2019-06-16T14:30:18Z</time>
      </trkpt>
      <trkpt lat="38.543943" lon="-0.632599">
        <ele>624.047</ele>
        <time>2019-06-16T14:30:19Z</time>
      </trkpt>
      <trkpt lat="38.543902" lon="-0.632562">
        <ele>623.511</ele>
        <time>2019-06-16T14:30:20Z</time>
      </trkpt>
      <trkpt lat="38.543851" lon="-0.632542">
        <ele>623.208</ele>
        <time>2019-06-16T14:30:21Z</time>
      </trkpt>
      <trkpt lat="38.543805" lon="-0.632510">
        <ele>622.845</ele>
        <time>2019-06-16T14:30:22Z</time>
      </trkpt>
      <trkpt lat="38.543755" lon="-0.632496">
        <ele>622.579</ele>
        <time>2019-06-16T14:30:23Z</time>
      </trkpt>
      <trkpt lat="38.543700" lon="-0.632466">
        <ele>622.548</ele>
        <time>2019-06-16T14:30:24Z</time>
      </trkpt>
      <trkpt lat="38.543649" lon="-0.632427">
        <ele>622.641</ele>
        <time>2019-06-16T14:30:25Z</time>
      </trkpt>
      <trkpt lat="38.543606" lon="-0.632396">
        <ele>622.853</ele>
        <time>2019-06-16T14:30:26Z</time>
      </trkpt>
      <trkpt lat="38.543565" lon="-0.632354">
        <ele>623.530</ele>
        <time>2019-06-16T14:30:27Z</time>
      </trkpt>
      <trkpt lat="38.543519" lon="-0.632320">
        <ele>624.059</ele>
        <time>2019-06-16T14:30:28Z</time>
      </trkpt>
      <trkpt lat="38.543496" lon="-0.632264">
        <ele>624.354</ele>
        <time>2019-06-16T14:30:29Z</time>
      </trkpt>
      <trkpt lat="38.543444" lon="-0.632242">
        <ele>624.631</ele>
        <time>2019-06-16T14:30:30Z</time>
      </trkpt>
      <trkpt lat="38.543393" lon="-0.632218">
        <ele>624.861</ele>
        <time>2019-06-16T14:30:31Z</time>
      </trkpt>
      <trkpt lat="38.543338" lon="-0.632208">
        <ele>624.907</ele>
        <time>2019-06-16T14:30:32Z</time>
      </trkpt>
      <trkpt lat="38.543288" lon="-0.632184">
        <ele>625.408</ele>
        <time>2019-06-16T14:30:33Z</time>
      </trkpt>
      <trkpt lat="38.543254" lon="-0.632127">
        <ele>625.396</ele>
        <time>2019-06-16T14:30:34Z</time>
      </trkpt>
      <trkpt lat="38.543209" lon="-0.632077">
        <ele>625.190</ele>
        <time>2019-06-16T14:30:35Z</time>
      </trkpt>
      <trkpt lat="38.543161" lon="-0.632043">
        <ele>624.859</ele>
        <time>2019-06-16T14:30:36Z</time>
      </trkpt>
      <trkpt lat="38.543120" lon="-0.632001">
        <ele>624.212</ele>
        <time>2019-06-16T14:30:37Z</time>
      </trkpt>
      <trkpt lat="38.543063" lon="-0.631985">
        <ele>623.954</ele>
        <time>2019-06-16T14:30:38Z</time>
      </trkpt>
      <trkpt lat="38.543023" lon="-0.631931">
        <ele>622.981</ele>
        <time>2019-06-16T14:30:39Z</time>
      </trkpt>
      <trkpt lat="38.542976" lon="-0.631901">
        <ele>622.730</ele>
        <time>2019-06-16T14:30:40Z</time>
      </trkpt>
      <trkpt lat="38.542936" lon="-0.631850">
        <ele>622.335</ele>
        <time>2019-06-16T14:30:41Z</time>
      </trkpt>
      <trkpt lat="38.542846" lon="-0.631802">
        <ele>622.012</ele>
        <time>2019-06-16T14:30:43Z</time>
      </trkpt>
      <trkpt lat="38.542800" lon="-0.631762">
        <ele>621.732</ele>
        <time>2019-06-16T14:30:44Z</time>
      </trkpt>
      <trkpt lat="38.542762" lon="-0.631709">
        <ele>621.305</ele>
        <time>2019-06-16T14:30:45Z</time>
      </trkpt>
      <trkpt lat="38.542713" lon="-0.631677">
        <ele>621.308</ele>
        <time>2019-06-16T14:30:46Z</time>
      </trkpt>
      <trkpt lat="38.542669" lon="-0.631641">
        <ele>621.534</ele>
        <time>2019-06-16T14:30:47Z</time>
      </trkpt>
      <trkpt lat="38.542620" lon="-0.631610">
        <ele>621.978</ele>
        <time>2019-06-16T14:30:48Z</time>
      </trkpt>
      <trkpt lat="38.542574" lon="-0.631576">
        <ele>622.387</ele>
        <time>2019-06-16T14:30:49Z</time>
      </trkpt>
      <trkpt lat="38.542528" lon="-0.631554">
        <ele>622.750</ele>
        <time>2019-06-16T14:30:50Z</time>
      </trkpt>
      <trkpt lat="38.542482" lon="-0.631515">
        <ele>623.312</ele>
        <time>2019-06-16T14:30:51Z</time>
      </trkpt>
      <trkpt lat="38.542435" lon="-0.631487">
        <ele>623.889</ele>
        <time>2019-06-16T14:30:52Z</time>
      </trkpt>
      <trkpt lat="38.542390" lon="-0.631454">
        <ele>624.438</ele>
        <time>2019-06-16T14:30:53Z</time>
      </trkpt>
      <trkpt lat="38.542342" lon="-0.631422">
        <ele>625.063</ele>
        <time>2019-06-16T14:30:54Z</time>
      </trkpt>
      <trkpt lat="38.542291" lon="-0.631384">
        <ele>625.562</ele>
        <time>2019-06-16T14:30:55Z</time>
      </trkpt>
      <trkpt lat="38.542243" lon="-0.631353">
        <ele>626.083</ele>
        <time>2019-06-16T14:30:56Z</time>
      </trkpt>
      <trkpt lat="38.542199" lon="-0.631332">
        <ele>626.211</ele>
        <time>2019-06-16T14:30:57Z</time>
      </trkpt>
      <trkpt lat="38.542160" lon="-0.631296">
        <ele>626.308</ele>
        <time>2019-06-16T14:30:58Z</time>
      </trkpt>
      <trkpt lat="38.542118" lon="-0.631248">
        <ele>626.559</ele>
        <time>2019-06-16T14:30:59Z</time>
      </trkpt>
      <trkpt lat="38.542072" lon="-0.631209">
        <ele>626.613</ele>
        <time>2019-06-16T14:31:00Z</time>
      </trkpt>
      <trkpt lat="38.542033" lon="-0.631168">
        <ele>626.832</ele>
        <time>2019-06-16T14:31:01Z</time>
      </trkpt>
      <trkpt lat="38.541995" lon="-0.631124">
        <ele>627.045</ele>
        <time>2019-06-16T14:31:02Z</time>
      </trkpt>
      <trkpt lat="38.541951" lon="-0.631069">
        <ele>627.077</ele>
        <time>2019-06-16T14:31:03Z</time>
      </trkpt>
      <trkpt lat="38.541919" lon="-0.631010">
        <ele>626.934</ele>
        <time>2019-06-16T14:31:04Z</time>
      </trkpt>
      <trkpt lat="38.541880" lon="-0.630952">
        <ele>626.923</ele>
        <time>2019-06-16T14:31:05Z</time>
      </trkpt>
      <trkpt lat="38.541852" lon="-0.630897">
        <ele>626.948</ele>
        <time>2019-06-16T14:31:06Z</time>
      </trkpt>
      <trkpt lat="38.541796" lon="-0.630852">
        <ele>627.051</ele>
        <time>2019-06-16T14:31:07Z</time>
      </trkpt>
      <trkpt lat="38.541731" lon="-0.630802">
        <ele>627.101</ele>
        <time>2019-06-16T14:31:08Z</time>
      </trkpt>
      <trkpt lat="38.541678" lon="-0.630768">
        <ele>627.411</ele>
        <time>2019-06-16T14:31:09Z</time>
      </trkpt>
      <trkpt lat="38.541613" lon="-0.630759">
        <ele>627.208</ele>
        <time>2019-06-16T14:31:10Z</time>
      </trkpt>
      <trkpt lat="38.541562" lon="-0.630724">
        <ele>627.138</ele>
        <time>2019-06-16T14:31:11Z</time>
      </trkpt>
      <trkpt lat="38.541505" lon="-0.630697">
        <ele>626.852</ele>
        <time>2019-06-16T14:31:12Z</time>
      </trkpt>
      <trkpt lat="38.540450" lon="-0.630345">
        <ele>627.741</ele>
        <time>2019-06-16T14:31:30Z</time>
      </trkpt>
      <trkpt lat="38.540426" lon="-0.630280">
        <ele>627.424</ele>
        <time>2019-06-16T14:31:31Z</time>
      </trkpt>
      <trkpt lat="38.540347" lon="-0.630249">
        <ele>628.146</ele>
        <time>2019-06-16T14:31:33Z</time>
      </trkpt>
      <trkpt lat="38.540294" lon="-0.630177">
        <ele>628.163</ele>
        <time>2019-06-16T14:31:35Z</time>
      </trkpt>
      <trkpt lat="38.540255" lon="-0.630094">
        <ele>628.162</ele>
        <time>2019-06-16T14:31:37Z</time>
      </trkpt>
      <trkpt lat="38.540194" lon="-0.630017">
        <ele>628.657</ele>
        <time>2019-06-16T14:31:39Z</time>
      </trkpt>
      <trkpt lat="38.540161" lon="-0.629967">
        <ele>629.093</ele>
        <time>2019-06-16T14:31:40Z</time>
      </trkpt>
      <trkpt lat="38.540125" lon="-0.629897">
        <ele>629.165</ele>
        <time>2019-06-16T14:31:42Z</time>
      </trkpt>
      <trkpt lat="38.540060" lon="-0.629819">
        <ele>629.421</ele>
        <time>2019-06-16T14:31:44Z</time>
      </trkpt>
      <trkpt lat="38.540022" lon="-0.629765">
        <ele>629.308</ele>
        <time>2019-06-16T14:31:45Z</time>
      </trkpt>
      <trkpt lat="38.539981" lon="-0.629734">
        <ele>629.442</ele>
        <time>2019-06-16T14:31:46Z</time>
      </trkpt>
      <trkpt lat="38.539936" lon="-0.629699">
        <ele>629.826</ele>
        <time>2019-06-16T14:31:47Z</time>
      </trkpt>
      <trkpt lat="38.539889" lon="-0.629674">
        <ele>630.375</ele>
        <time>2019-06-16T14:31:48Z</time>
      </trkpt>
      <trkpt lat="38.539849" lon="-0.629644">
        <ele>630.668</ele>
        <time>2019-06-16T14:31:49Z</time>
      </trkpt>
      <trkpt lat="38.539770" lon="-0.629606">
        <ele>631.220</ele>
        <time>2019-06-16T14:31:51Z</time>
      </trkpt>
      <trkpt lat="38.539719" lon="-0.629590">
        <ele>631.677</ele>
        <time>2019-06-16T14:31:52Z</time>
      </trkpt>
      <trkpt lat="38.539675" lon="-0.629575">
        <ele>631.896</ele>
        <time>2019-06-16T14:31:53Z</time>
      </trkpt>
      <trkpt lat="38.539633" lon="-0.629551">
        <ele>631.971</ele>
        <time>2019-06-16T14:31:54Z</time>
      </trkpt>
      <trkpt lat="38.539558" lon="-0.629502">
        <ele>632.145</ele>
        <time>2019-06-16T14:31:56Z</time>
      </trkpt>
      <trkpt lat="38.539512" lon="-0.629485">
        <ele>632.547</ele>
        <time>2019-06-16T14:31:57Z</time>
      </trkpt>
      <trkpt lat="38.539445" lon="-0.629443">
        <ele>633.011</ele>
        <time>2019-06-16T14:31:59Z</time>
      </trkpt>
      <trkpt lat="38.539389" lon="-0.629334">
        <ele>632.908</ele>
        <time>2019-06-16T14:32:01Z</time>
      </trkpt>
      <trkpt lat="38.539365" lon="-0.629270">
        <ele>632.897</ele>
        <time>2019-06-16T14:32:02Z</time>
      </trkpt>
      <trkpt lat="38.539343" lon="-0.629199">
        <ele>632.811</ele>
        <time>2019-06-16T14:32:03Z</time>
      </trkpt>
      <trkpt lat="38.539324" lon="-0.629140">
        <ele>633.020</ele>
        <time>2019-06-16T14:32:04Z</time>
      </trkpt>
      <trkpt lat="38.539323" lon="-0.629081">
        <ele>633.253</ele>
        <time>2019-06-16T14:32:05Z</time>
      </trkpt>
      <trkpt lat="38.539363" lon="-0.628995">
        <ele>633.295</ele>
        <time>2019-06-16T14:32:07Z</time>
      </trkpt>
      <trkpt lat="38.539392" lon="-0.628926">
        <ele>633.292</ele>
        <time>2019-06-16T14:32:09Z</time>
      </trkpt>
      <trkpt lat="38.539427" lon="-0.628866">
        <ele>633.311</ele>
        <time>2019-06-16T14:32:11Z</time>
      </trkpt>
      <trkpt lat="38.539457" lon="-0.628809">
        <ele>633.496</ele>
        <time>2019-06-16T14:32:13Z</time>
      </trkpt>
      <trkpt lat="38.539480" lon="-0.628742">
        <ele>633.513</ele>
        <time>2019-06-16T14:32:15Z</time>
      </trkpt>
      <trkpt lat="38.539493" lon="-0.628679">
        <ele>633.843</ele>
        <time>2019-06-16T14:32:17Z</time>
      </trkpt>
      <trkpt lat="38.539499" lon="-0.628621">
        <ele>634.107</ele>
        <time>2019-06-16T14:32:19Z</time>
      </trkpt>
      <trkpt lat="38.539497" lon="-0.628563">
        <ele>634.408</ele>
        <time>2019-06-16T14:32:21Z</time>
      </trkpt>
      <trkpt lat="38.539477" lon="-0.628511">
        <ele>634.954</ele>
        <time>2019-06-16T14:32:23Z</time>
      </trkpt>
      <trkpt lat="38.539459" lon="-0.628458">
        <ele>635.438</ele>
        <time>2019-06-16T14:32:25Z</time>
      </trkpt>
      <trkpt lat="38.539432" lon="-0.628375">
        <ele>636.017</ele>
        <time>2019-06-16T14:32:28Z</time>
      </trkpt>
      <trkpt lat="38.539412" lon="-0.628324">
        <ele>636.470</ele>
        <time>2019-06-16T14:32:30Z</time>
      </trkpt>
      <trkpt lat="38.539371" lon="-0.628253">
        <ele>636.592</ele>
        <time>2019-06-16T14:32:34Z</time>
      </trkpt>
      <trkpt lat="38.539330" lon="-0.628202">
        <ele>637.029</ele>
        <time>2019-06-16T14:32:36Z</time>
      </trkpt>
      <trkpt lat="38.539286" lon="-0.628159">
        <ele>637.868</ele>
        <time>2019-06-16T14:32:38Z</time>
      </trkpt>
      <trkpt lat="38.539245" lon="-0.628121">
        <ele>638.853</ele>
        <time>2019-06-16T14:32:40Z</time>
      </trkpt>
      <trkpt lat="38.539207" lon="-0.628082">
        <ele>639.838</ele>
        <time>2019-06-16T14:32:42Z</time>
      </trkpt>
      <trkpt lat="38.539154" lon="-0.628040">
        <ele>640.970</ele>
        <time>2019-06-16T14:32:45Z</time>
      </trkpt>
      <trkpt lat="38.539094" lon="-0.628001">
        <ele>640.817</ele>
        <time>2019-06-16T14:32:48Z</time>
      </trkpt>
      <trkpt lat="38.539053" lon="-0.627962">
        <ele>640.808</ele>
        <time>2019-06-16T14:32:50Z</time>
      </trkpt>
      <trkpt lat="38.539003" lon="-0.627918">
        <ele>641.066</ele>
        <time>2019-06-16T14:32:52Z</time>
      </trkpt>
      <trkpt lat="38.538956" lon="-0.627875">
        <ele>641.370</ele>
        <time>2019-06-16T14:32:54Z</time>
      </trkpt>
      <trkpt lat="38.538910" lon="-0.627829">
        <ele>641.779</ele>
        <time>2019-06-16T14:32:56Z</time>
      </trkpt>
      <trkpt lat="38.538861" lon="-0.627778">
        <ele>642.372</ele>
        <time>2019-06-16T14:32:58Z</time>
      </trkpt>
      <trkpt lat="38.538822" lon="-0.627727">
        <ele>642.454</ele>
        <time>2019-06-16T14:33:00Z</time>
      </trkpt>
      <trkpt lat="38.538795" lon="-0.627670">
        <ele>642.241</ele>
        <time>2019-06-16T14:33:02Z</time>
      </trkpt>
      <trkpt lat="38.538775" lon="-0.627611">
        <ele>642.050</ele>
        <time>2019-06-16T14:33:04Z</time>
      </trkpt>
      <trkpt lat="38.538752" lon="-0.627554">
        <ele>641.945</ele>
        <time>2019-06-16T14:33:06Z</time>
      </trkpt>
      <trkpt lat="38.538719" lon="-0.627485">
        <ele>641.855</ele>
        <time>2019-06-16T14:33:08Z</time>
      </trkpt>
      <trkpt lat="38.538691" lon="-0.627418">
        <ele>641.807</ele>
        <time>2019-06-16T14:33:10Z</time>
      </trkpt>
      <trkpt lat="38.538664" lon="-0.627350">
        <ele>641.917</ele>
        <time>2019-06-16T14:33:12Z</time>
      </trkpt>
      <trkpt lat="38.538634" lon="-0.627279">
        <ele>642.008</ele>
        <time>2019-06-16T14:33:14Z</time>
      </trkpt>
      <trkpt lat="38.538597" lon="-0.627206">
        <ele>641.928</ele>
        <time>2019-06-16T14:33:16Z</time>
      </trkpt>
      <trkpt lat="38.538554" lon="-0.627137">
        <ele>641.212</ele>
        <time>2019-06-16T14:33:18Z</time>
      </trkpt>
      <trkpt lat="38.538507" lon="-0.627075">
        <ele>640.891</ele>
        <time>2019-06-16T14:33:20Z</time>
      </trkpt>
      <trkpt lat="38.538457" lon="-0.627023">
        <ele>640.694</ele>
        <time>2019-06-16T14:33:22Z</time>
      </trkpt>
      <trkpt lat="38.538404" lon="-0.626981">
        <ele>640.786</ele>
        <time>2019-06-16T14:33:24Z</time>
      </trkpt>
      <trkpt lat="38.538348" lon="-0.626946">
        <ele>640.983</ele>
        <time>2019-06-16T14:33:26Z</time>
      </trkpt>
      <trkpt lat="38.538289" lon="-0.626911">
        <ele>640.862</ele>
        <time>2019-06-16T14:33:28Z</time>
      </trkpt>
      <trkpt lat="38.538228" lon="-0.626882">
        <ele>640.767</ele>
        <time>2019-06-16T14:33:30Z</time>
      </trkpt>
      <trkpt lat="38.538097" lon="-0.626827">
        <ele>640.625</ele>
        <time>2019-06-16T14:33:33Z</time>
      </trkpt>
      <trkpt lat="38.538097" lon="-0.626827">
        <ele>640.626</ele>
        <time>2019-06-16T14:33:33Z</time>
      </trkpt>
      <trkpt lat="38.538097" lon="-0.626827">
        <ele>640.608</ele>
        <time>2019-06-16T14:33:33Z</time>
      </trkpt>
      <trkpt lat="38.537921" lon="-0.626727">
        <ele>640.608</ele>
        <time>2019-06-16T14:33:41Z</time>
      </trkpt>
      <trkpt lat="38.537921" lon="-0.626727">
        <ele>640.685</ele>
        <time>2019-06-16T14:33:41Z</time>
      </trkpt>
      <trkpt lat="38.537921" lon="-0.626727">
        <ele>640.629</ele>
        <time>2019-06-16T14:33:41Z</time>
      </trkpt>
      <trkpt lat="38.537921" lon="-0.626727">
        <ele>640.648</ele>
        <time>2019-06-16T14:33:41Z</time>
      </trkpt>
      <trkpt lat="38.537921" lon="-0.626727">
        <ele>640.641</ele>
        <time>2019-06-16T14:33:41Z</time>
      </trkpt>
      <trkpt lat="38.537921" lon="-0.626727">
        <ele>640.623</ele>
        <time>2019-06-16T14:33:41Z</time>
      </trkpt>
      <trkpt lat="38.537921" lon="-0.626727">
        <ele>640.610</ele>
        <time>2019-06-16T14:33:41Z</time>
      </trkpt>
      <trkpt lat="38.537921" lon="-0.626727">
        <ele>640.689</ele>
        <time>2019-06-16T14:33:41Z</time>
      </trkpt>
      <trkpt lat="38.537480" lon="-0.625954">
        <ele>645.784</ele>
        <time>2019-06-16T14:34:01Z</time>
      </trkpt>
      <trkpt lat="38.537480" lon="-0.625954">
        <ele>645.762</ele>
        <time>2019-06-16T14:34:01Z</time>
      </trkpt>
      <trkpt lat="38.537480" lon="-0.625954">
        <ele>645.783</ele>
        <time>2019-06-16T14:34:01Z</time>
      </trkpt>
      <trkpt lat="38.537480" lon="-0.625954">
        <ele>645.711</ele>
        <time>2019-06-16T14:34:01Z</time>
      </trkpt>
      <trkpt lat="38.537480" lon="-0.625954">
        <ele>645.708</ele>
        <time>2019-06-16T14:34:01Z</time>
      </trkpt>
      <trkpt lat="38.537480" lon="-0.625954">
        <ele>645.769</ele>
        <time>2019-06-16T14:34:01Z</time>
      </trkpt>
      <trkpt lat="38.537480" lon="-0.625954">
        <ele>645.733</ele>
        <time>2019-06-16T14:34:01Z</time>
      </trkpt>
      <trkpt lat="38.537480" lon="-0.625954">
        <ele>645.752</ele>
        <time>2019-06-16T14:34:01Z</time>
      </trkpt>
      <trkpt lat="38.537480" lon="-0.625954">
        <ele>645.735</ele>
        <time>2019-06-16T14:34:01Z</time>
      </trkpt>
      <trkpt lat="38.537480" lon="-0.625954">
        <ele>645.727</ele>
        <time>2019-06-16T14:34:01Z</time>
      </trkpt>
      <trkpt lat="38.537480" lon="-0.625954">
        <ele>645.734</ele>
        <time>2019-06-16T14:34:01Z</time>
      </trkpt>
      <trkpt lat="38.537480" lon="-0.625954">
        <ele>645.743</ele>
        <time>2019-06-16T14:34:01Z</time>
      </trkpt>
      <trkpt lat="38.537480" lon="-0.625954">
        <ele>645.748</ele>
        <time>2019-06-16T14:34:01Z</time>
      </trkpt>
      <trkpt lat="38.537480" lon="-0.625954">
        <ele>645.737</ele>
        <time>2019-06-16T14:34:01Z</time>
      </trkpt>
      <trkpt lat="38.537480" lon="-0.625954">
        <ele>645.749</ele>
        <time>2019-06-16T14:34:01Z</time>
      </trkpt>
      <trkpt lat="38.537480" lon="-0.625954">
        <ele>645.713</ele>
        <time>2019-06-16T14:34:01Z</time>
      </trkpt>
      <trkpt lat="38.537480" lon="-0.625954">
        <ele>645.708</ele>
        <time>2019-06-16T14:34:01Z</time>
      </trkpt>
      <trkpt lat="38.537480" lon="-0.625954">
        <ele>645.776</ele>
        <time>2019-06-16T14:34:01Z</time>
      </trkpt>
      <trkpt lat="38.537480" lon="-0.625954">
        <ele>645.790</ele>
        <time>2019-06-16T14:34:01Z</time>
      </trkpt>
      <trkpt lat="38.537480" lon="-0.625954">
        <ele>645.729</ele>
        <time>2019-06-16T14:34:01Z</time>
      </trkpt>
      <trkpt lat="38.535192" lon="-0.624629">
        <ele>638.322</ele>
        <time>2019-06-16T14:34:51Z</time>
      </trkpt>
      <trkpt lat="38.535192" lon="-0.624629">
        <ele>638.334</ele>
        <time>2019-06-16T14:34:51Z</time>
      </trkpt>
      <trkpt lat="38.535192" lon="-0.624629">
        <ele>638.351</ele>
        <time>2019-06-16T14:34:51Z</time>
      </trkpt>
      <trkpt lat="38.535192" lon="-0.624629">
        <ele>638.350</ele>
        <time>2019-06-16T14:34:51Z</time>
      </trkpt>
      <trkpt lat="38.535192" lon="-0.624629">
        <ele>638.385</ele>
        <time>2019-06-16T14:34:51Z</time>
      </trkpt>
      <trkpt lat="38.535192" lon="-0.624629">
        <ele>638.371</ele>
        <time>2019-06-16T14:34:51Z</time>
      </trkpt>
      <trkpt lat="38.535192" lon="-0.624629">
        <ele>638.341</ele>
        <time>2019-06-16T14:34:51Z</time>
      </trkpt>
      <trkpt lat="38.535192" lon="-0.624629">
        <ele>638.315</ele>
        <time>2019-06-16T14:34:51Z</time>
      </trkpt>
      <trkpt lat="38.535192" lon="-0.624629">
        <ele>638.308</ele>
        <time>2019-06-16T14:34:51Z</time>
      </trkpt>
      <trkpt lat="38.535192" lon="-0.624629">
        <ele>638.390</ele>
        <time>2019-06-16T14:34:51Z</time>
      </trkpt>
      <trkpt lat="38.535192" lon="-0.624629">
        <ele>638.354</ele>
        <time>2019-06-16T14:34:51Z</time>
      </trkpt>
      <trkpt lat="38.535192" lon="-0.624629">
        <ele>638.333</ele>
        <time>2019-06-16T14:34:51Z</time>
      </trkpt>
      <trkpt lat="38.535192" lon="-0.624629">
        <ele>638.376</ele>
        <time>2019-06-16T14:34:51Z</time>
      </trkpt>
      <trkpt lat="38.535192" lon="-0.624629">
        <ele>638.318</ele>
        <time>2019-06-16T14:34:51Z</time>
      </trkpt>
      <trkpt lat="38.535192" lon="-0.624629">
        <ele>638.395</ele>
        <time>2019-06-16T14:34:51Z</time>
      </trkpt>
      <trkpt lat="38.535192" lon="-0.624629">
        <ele>638.364</ele>
        <time>2019-06-16T14:34:51Z</time>
      </trkpt>
      <trkpt lat="38.535192" lon="-0.624629">
        <ele>638.339</ele>
        <time>2019-06-16T14:34:51Z</time>
      </trkpt>
      <trkpt lat="38.535192" lon="-0.624629">
        <ele>638.366</ele>
        <time>2019-06-16T14:34:51Z</time>
      </trkpt>
      <trkpt lat="38.535192" lon="-0.624629">
        <ele>638.329</ele>
        <time>2019-06-16T14:34:51Z</time>
      </trkpt>
      <trkpt lat="38.535192" lon="-0.624629">
        <ele>638.321</ele>
        <time>2019-06-16T14:34:51Z</time>
      </trkpt>
      <trkpt lat="38.535192" lon="-0.624629">
        <ele>638.308</ele>
        <time>2019-06-16T14:34:51Z</time>
      </trkpt>
      <trkpt lat="38.535192" lon="-0.624629">
        <ele>638.359</ele>
        <time>2019-06-16T14:34:51Z</time>
      </trkpt>
      <trkpt lat="38.535192" lon="-0.624629">
        <ele>638.383</ele>
        <time>2019-06-16T14:34:51Z</time>
      </trkpt>
      <trkpt lat="38.535192" lon="-0.624629">
        <ele>638.322</ele>
        <time>2019-06-16T14:34:51Z</time>
      </trkpt>
      <trkpt lat="38.535192" lon="-0.624629">
        <ele>638.395</ele>
        <time>2019-06-16T14:34:51Z</time>
      </trkpt>
      <trkpt lat="38.535192" lon="-0.624629">
        <ele>638.367</ele>
        <time>2019-06-16T14:34:51Z</time>
      </trkpt>
      <trkpt lat="38.535192" lon="-0.624629">
        <ele>638.354</ele>
        <time>2019-06-16T14:34:51Z</time>
      </trkpt>
      <trkpt lat="38.535192" lon="-0.624629">
        <ele>638.353</ele>
        <time>2019-06-16T14:34:51Z</time>
      </trkpt>
      <trkpt lat="38.535192" lon="-0.624629">
        <ele>638.398</ele>
        <time>2019-06-16T14:34:51Z</time>
      </trkpt>
      <trkpt lat="38.535192" lon="-0.624629">
        <ele>638.392</ele>
        <time>2019-06-16T14:34:51Z</time>
      </trkpt>
      <trkpt lat="38.535192" lon="-0.624629">
        <ele>638.373</ele>
        <time>2019-06-16T14:34:51Z</time>
      </trkpt>
      <trkpt lat="38.535192" lon="-0.624629">
        <ele>638.320</ele>
        <time>2019-06-16T14:34:51Z</time>
      </trkpt>
      <trkpt lat="38.535192" lon="-0.624629">
        <ele>638.308</ele>
        <time>2019-06-16T14:34:51Z</time>
      </trkpt>
      <trkpt lat="38.535192" lon="-0.624629">
        <ele>638.362</ele>
        <time>2019-06-16T14:34:51Z</time>
      </trkpt>
      <trkpt lat="38.535192" lon="-0.624629">
        <ele>638.396</ele>
        <time>2019-06-16T14:34:51Z</time>
      </trkpt>
      <trkpt lat="38.535192" lon="-0.624629">
        <ele>638.315</ele>
        <time>2019-06-16T14:34:51Z</time>
      </trkpt>
      <trkpt lat="38.535192" lon="-0.624629">
        <ele>638.328</ele>
        <time>2019-06-16T14:34:51Z</time>
      </trkpt>
      <trkpt lat="38.535192" lon="-0.624629">
        <ele>638.390</ele>
        <time>2019-06-16T14:34:51Z</time>
      </trkpt>
      <trkpt lat="38.535192" lon="-0.624629">
        <ele>638.317</ele>
        <time>2019-06-16T14:34:51Z</time>
      </trkpt>
      <trkpt lat="38.535192" lon="-0.624629">
        <ele>638.366</ele>
        <time>2019-06-16T14:34:51Z</time>
      </trkpt>
      <trkpt lat="38.535192" lon="-0.624629">
        <ele>638.361</ele>
        <time>2019-06-16T14:34:51Z</time>
      </trkpt>
      <trkpt lat="38.535192" lon="-0.624629">
        <ele>638.338</ele>
        <time>2019-06-16T14:34:51Z</time>
      </trkpt>
      <trkpt lat="38.535192" lon="-0.624629">
        <ele>638.370</ele>
        <time>2019-06-16T14:34:51Z</time>
      </trkpt>
      <trkpt lat="38.535192" lon="-0.624629">
        <ele>638.317</ele>
        <time>2019-06-16T14:34:51Z</time>
      </trkpt>
      <trkpt lat="38.535192" lon="-0.624629">
        <ele>638.308</ele>
        <time>2019-06-16T14:34:51Z</time>
      </trkpt>
      <trkpt lat="38.535192" lon="-0.624629">
        <ele>638.326</ele>
        <time>2019-06-16T14:34:51Z</time>
      </trkpt>
      <trkpt lat="38.535192" lon="-0.624629">
        <ele>638.310</ele>
        <time>2019-06-16T14:34:51Z</time>
      </trkpt>
      <trkpt lat="38.535192" lon="-0.624629">
        <ele>638.359</ele>
        <time>2019-06-16T14:34:51Z</time>
      </trkpt>
      <trkpt lat="38.535192" lon="-0.624629">
        <ele>638.382</ele>
        <time>2019-06-16T14:34:51Z</time>
      </trkpt>
      <trkpt lat="38.535192" lon="-0.624629">
        <ele>638.374</ele>
        <time>2019-06-16T14:34:51Z</time>
      </trkpt>
      <trkpt lat="38.528985" lon="-0.621043">
        <ele>622.441</ele>
        <time>2019-06-16T14:36:56Z</time>
      </trkpt>
      <trkpt lat="38.528985" lon="-0.621043">
        <ele>622.470</ele>
        <time>2019-06-16T14:36:56Z</time>
      </trkpt>
      <trkpt lat="38.528985" lon="-0.621043">
        <ele>622.445</ele>
        <time>2019-06-16T14:36:56Z</time>
      </trkpt>
      <trkpt lat="38.528985" lon="-0.621043">
        <ele>622.441</ele>
        <time>2019-06-16T14:36:56Z</time>
      </trkpt>
      <trkpt lat="38.528985" lon="-0.621043">
        <ele>622.481</ele>
        <time>2019-06-16T14:36:56Z</time>
      </trkpt>
      <trkpt lat="38.528985" lon="-0.621043">
        <ele>622.409</ele>
        <time>2019-06-16T14:36:56Z</time>
      </trkpt>
      <trkpt lat="38.528985" lon="-0.621043">
        <ele>622.408</ele>
        <time>2019-06-16T14:36:56Z</time>
      </trkpt>
      <trkpt lat="38.528985" lon="-0.621043">
        <ele>622.417</ele>
        <time>2019-06-16T14:36:56Z</time>
      </trkpt>
      <trkpt lat="38.528985" lon="-0.621043">
        <ele>622.481</ele>
        <time>2019-06-16T14:36:56Z</time>
      </trkpt>
      <trkpt lat="38.528985" lon="-0.621043">
        <ele>622.480</ele>
        <time>2019-06-16T14:36:56Z</time>
      </trkpt>
      <trkpt lat="38.528985" lon="-0.621043">
        <ele>622.463</ele>
        <time>2019-06-16T14:36:56Z</time>
      </trkpt>
      <trkpt lat="38.528985" lon="-0.621043">
        <ele>622.455</ele>
        <time>2019-06-16T14:36:56Z</time>
      </trkpt>
      <trkpt lat="38.528985" lon="-0.621043">
        <ele>622.412</ele>
        <time>2019-06-16T14:36:56Z</time>
      </trkpt>
      <trkpt lat="38.528985" lon="-0.621043">
        <ele>622.491</ele>
        <time>2019-06-16T14:36:56Z</time>
      </trkpt>
      <trkpt lat="38.528985" lon="-0.621043">
        <ele>622.476</ele>
        <time>2019-06-16T14:36:56Z</time>
      </trkpt>
      <trkpt lat="38.528985" lon="-0.621043">
        <ele>622.461</ele>
        <time>2019-06-16T14:36:56Z</time>
      </trkpt>
      <trkpt lat="38.528985" lon="-0.621043">
        <ele>622.421</ele>
        <time>2019-06-16T14:36:56Z</time>
      </trkpt>
      <trkpt lat="38.528985" lon="-0.621043">
        <ele>622.413</ele>
        <time>2019-06-16T14:36:56Z</time>
      </trkpt>
      <trkpt lat="38.528985" lon="-0.621043">
        <ele>622.408</ele>
        <time>2019-06-16T14:36:56Z</time>
      </trkpt>
      <trkpt lat="38.528985" lon="-0.621043">
        <ele>622.419</ele>
        <time>2019-06-16T14:36:56Z</time>
      </trkpt>
      <trkpt lat="38.528985" lon="-0.621043">
        <ele>622.483</ele>
        <time>2019-06-16T14:36:56Z</time>
      </trkpt>
      <trkpt lat="38.528985" lon="-0.621043">
        <ele>622.482</ele>
        <time>2019-06-16T14:36:56Z</time>
      </trkpt>
      <trkpt lat="38.528985" lon="-0.621043">
        <ele>622.495</ele>
        <time>2019-06-16T14:36:56Z</time>
      </trkpt>
      <trkpt lat="38.528985" lon="-0.621043">
        <ele>622.417</ele>
        <time>2019-06-16T14:36:56Z</time>
      </trkpt>
      <trkpt lat="38.528985" lon="-0.621043">
        <ele>622.484</ele>
        <time>2019-06-16T14:36:56Z</time>
      </trkpt>
      <trkpt lat="38.528985" lon="-0.621043">
        <ele>622.423</ele>
        <time>2019-06-16T14:36:56Z</time>
      </trkpt>
      <trkpt lat="38.528985" lon="-0.621043">
        <ele>622.478</ele>
        <time>2019-06-16T14:36:56Z</time>
      </trkpt>
      <trkpt lat="38.528985" lon="-0.621043">
        <ele>622.451</ele>
        <time>2019-06-16T14:36:56Z</time>
      </trkpt>
      <trkpt lat="38.528985" lon="-0.621043">
        <ele>622.401</ele>
        <time>2019-06-16T14:36:56Z</time>
      </trkpt>
      <trkpt lat="38.528985" lon="-0.621043">
        <ele>622.411</ele>
        <time>2019-06-16T14:36:56Z</time>
      </trkpt>
      <trkpt lat="38.528985" lon="-0.621043">
        <ele>622.408</ele>
        <time>2019-06-16T14:36:56Z</time>
      </trkpt>
      <trkpt lat="38.528985" lon="-0.621043">
        <ele>622.418</ele>
        <time>2019-06-16T14:36:56Z</time>
      </trkpt>
      <trkpt lat="38.528985" lon="-0.621043">
        <ele>622.462</ele>
        <time>2019-06-16T14:36:56Z</time>
      </trkpt>
      <trkpt lat="38.528985" lon="-0.621043">
        <ele>622.481</ele>
        <time>2019-06-16T14:36:56Z</time>
      </trkpt>
      <trkpt lat="38.528985" lon="-0.621043">
        <ele>622.454</ele>
        <time>2019-06-16T14:36:56Z</time>
      </trkpt>
      <trkpt lat="38.528985" lon="-0.621043">
        <ele>622.476</ele>
        <time>2019-06-16T14:36:56Z</time>
      </trkpt>
      <trkpt lat="38.528985" lon="-0.621043">
        <ele>622.413</ele>
        <time>2019-06-16T14:36:56Z</time>
      </trkpt>
      <trkpt lat="38.528985" lon="-0.621043">
        <ele>622.492</ele>
        <time>2019-06-16T14:36:56Z</time>
      </trkpt>
      <trkpt lat="38.528985" lon="-0.621043">
        <ele>622.457</ele>
        <time>2019-06-16T14:36:56Z</time>
      </trkpt>
      <trkpt lat="38.528985" lon="-0.621043">
        <ele>622.423</ele>
        <time>2019-06-16T14:36:56Z</time>
      </trkpt>
      <trkpt lat="38.528985" lon="-0.621043">
        <ele>622.483</ele>
        <time>2019-06-16T14:36:56Z</time>
      </trkpt>
      <trkpt lat="38.528985" lon="-0.621043">
        <ele>622.411</ele>
        <time>2019-06-16T14:36:56Z</time>
      </trkpt>
      <trkpt lat="38.528985" lon="-0.621043">
        <ele>622.408</ele>
        <time>2019-06-16T14:36:56Z</time>
      </trkpt>
      <trkpt lat="38.528985" lon="-0.621043">
        <ele>622.435</ele>
        <time>2019-06-16T14:36:56Z</time>
      </trkpt>
      <trkpt lat="38.528985" lon="-0.621043">
        <ele>622.479</ele>
        <time>2019-06-16T14:36:56Z</time>
      </trkpt>
      <trkpt lat="38.528985" lon="-0.621043">
        <ele>622.468</ele>
        <time>2019-06-16T14:36:56Z</time>
      </trkpt>
      <trkpt lat="38.528985" lon="-0.621043">
        <ele>622.431</ele>
        <time>2019-06-16T14:36:56Z</time>
      </trkpt>
      <trkpt lat="38.528985" lon="-0.621043">
        <ele>622.423</ele>
        <time>2019-06-16T14:36:56Z</time>
      </trkpt>
      <trkpt lat="38.528985" lon="-0.621043">
        <ele>622.420</ele>
        <time>2019-06-16T14:36:56Z</time>
      </trkpt>
      <trkpt lat="38.528985" lon="-0.621043">
        <ele>622.469</ele>
        <time>2019-06-16T14:36:56Z</time>
      </trkpt>
      <trkpt lat="38.528985" lon="-0.621043">
        <ele>622.424</ele>
        <time>2019-06-16T14:36:56Z</time>
      </trkpt>
      <trkpt lat="38.528985" lon="-0.621043">
        <ele>622.459</ele>
        <time>2019-06-16T14:36:56Z</time>
      </trkpt>
      <trkpt lat="38.528985" lon="-0.621043">
        <ele>622.403</ele>
        <time>2019-06-16T14:36:56Z</time>
      </trkpt>
      <trkpt lat="38.528985" lon="-0.621043">
        <ele>622.423</ele>
        <time>2019-06-16T14:36:56Z</time>
      </trkpt>
      <trkpt lat="38.528985" lon="-0.621043">
        <ele>622.408</ele>
        <time>2019-06-16T14:36:56Z</time>
      </trkpt>
      <trkpt lat="38.528985" lon="-0.621043">
        <ele>622.438</ele>
        <time>2019-06-16T14:36:56Z</time>
      </trkpt>
      <trkpt lat="38.528985" lon="-0.621043">
        <ele>622.472</ele>
        <time>2019-06-16T14:36:56Z</time>
      </trkpt>
      <trkpt lat="38.528985" lon="-0.621043">
        <ele>622.461</ele>
        <time>2019-06-16T14:36:56Z</time>
      </trkpt>
      <trkpt lat="38.528985" lon="-0.621043">
        <ele>622.424</ele>
        <time>2019-06-16T14:36:56Z</time>
      </trkpt>
      <trkpt lat="38.528985" lon="-0.621043">
        <ele>622.456</ele>
        <time>2019-06-16T14:36:56Z</time>
      </trkpt>
      <trkpt lat="38.528985" lon="-0.621043">
        <ele>622.423</ele>
        <time>2019-06-16T14:36:56Z</time>
      </trkpt>
      <trkpt lat="38.528985" lon="-0.621043">
        <ele>622.412</ele>
        <time>2019-06-16T14:36:56Z</time>
      </trkpt>
      <trkpt lat="38.528985" lon="-0.621043">
        <ele>622.477</ele>
        <time>2019-06-16T14:36:56Z</time>
      </trkpt>
      <trkpt lat="38.528985" lon="-0.621043">
        <ele>622.467</ele>
        <time>2019-06-16T14:36:56Z</time>
      </trkpt>
      <trkpt lat="38.528985" lon="-0.621043">
        <ele>622.481</ele>
        <time>2019-06-16T14:36:56Z</time>
      </trkpt>
      <trkpt lat="38.528985" lon="-0.621043">
        <ele>622.419</ele>
        <time>2019-06-16T14:36:56Z</time>
      </trkpt>
      <trkpt lat="38.528985" lon="-0.621043">
        <ele>622.408</ele>
        <time>2019-06-16T14:36:56Z</time>
      </trkpt>
      <trkpt lat="38.528985" lon="-0.621043">
        <ele>622.429</ele>
        <time>2019-06-16T14:36:56Z</time>
      </trkpt>
      <trkpt lat="38.528985" lon="-0.621043">
        <ele>622.443</ele>
        <time>2019-06-16T14:36:56Z</time>
      </trkpt>
      <trkpt lat="38.528985" lon="-0.621043">
        <ele>622.412</ele>
        <time>2019-06-16T14:36:56Z</time>
      </trkpt>
      <trkpt lat="38.528985" lon="-0.621043">
        <ele>622.455</ele>
        <time>2019-06-16T14:36:56Z</time>
      </trkpt>
      <trkpt lat="38.528985" lon="-0.621043">
        <ele>622.477</ele>
        <time>2019-06-16T14:36:56Z</time>
      </trkpt>
      <trkpt lat="38.528985" lon="-0.621043">
        <ele>622.424</ele>
        <time>2019-06-16T14:36:56Z</time>
      </trkpt>
      <trkpt lat="38.528985" lon="-0.621043">
        <ele>622.453</ele>
        <time>2019-06-16T14:36:56Z</time>
      </trkpt>
      <trkpt lat="38.528985" lon="-0.621043">
        <ele>622.488</ele>
        <time>2019-06-16T14:36:56Z</time>
      </trkpt>
      <trkpt lat="38.528985" lon="-0.621043">
        <ele>622.472</ele>
        <time>2019-06-16T14:36:56Z</time>
      </trkpt>
      <trkpt lat="38.528985" lon="-0.621043">
        <ele>622.413</ele>
        <time>2019-06-16T14:36:56Z</time>
      </trkpt>
      <trkpt lat="38.528985" lon="-0.621043">
        <ele>622.414</ele>
        <time>2019-06-16T14:36:56Z</time>
      </trkpt>
      <trkpt lat="38.528985" lon="-0.621043">
        <ele>622.408</ele>
        <time>2019-06-16T14:36:56Z</time>
      </trkpt>
      <trkpt lat="38.528985" lon="-0.621043">
        <ele>622.470</ele>
        <time>2019-06-16T14:36:56Z</time>
      </trkpt>
      <trkpt lat="38.528985" lon="-0.621043">
        <ele>622.444</ele>
        <time>2019-06-16T14:36:56Z</time>
      </trkpt>
      <trkpt lat="38.528985" lon="-0.621043">
        <ele>622.473</ele>
        <time>2019-06-16T14:36:56Z</time>
      </trkpt>
      <trkpt lat="38.528985" lon="-0.621043">
        <ele>622.486</ele>
        <time>2019-06-16T14:36:56Z</time>
      </trkpt>
      <trkpt lat="38.528985" lon="-0.621043">
        <ele>622.458</ele>
        <time>2019-06-16T14:36:56Z</time>
      </trkpt>
      <trkpt lat="38.528985" lon="-0.621043">
        <ele>622.425</ele>
        <time>2019-06-16T14:36:56Z</time>
      </trkpt>
      <trkpt lat="38.528985" lon="-0.621043">
        <ele>622.464</ele>
        <time>2019-06-16T14:36:56Z</time>
      </trkpt>
      <trkpt lat="38.528985" lon="-0.621043">
        <ele>622.449</ele>
        <time>2019-06-16T14:36:56Z</time>
      </trkpt>
      <trkpt lat="38.528985" lon="-0.621043">
        <ele>622.492</ele>
        <time>2019-06-16T14:36:56Z</time>
      </trkpt>
      <trkpt lat="38.528985" lon="-0.621043">
        <ele>622.473</ele>
        <time>2019-06-16T14:36:56Z</time>
      </trkpt>
      <trkpt lat="38.528985" lon="-0.621043">
        <ele>622.420</ele>
        <time>2019-06-16T14:36:56Z</time>
      </trkpt>
      <trkpt lat="38.528985" lon="-0.621043">
        <ele>622.408</ele>
        <time>2019-06-16T14:36:56Z</time>
      </trkpt>
      <trkpt lat="38.528985" lon="-0.621043">
        <ele>622.442</ele>
        <time>2019-06-16T14:36:56Z</time>
      </trkpt>
      <trkpt lat="38.528985" lon="-0.621043">
        <ele>622.466</ele>
        <time>2019-06-16T14:36:56Z</time>
      </trkpt>
      <trkpt lat="38.528985" lon="-0.621043">
        <ele>622.465</ele>
        <time>2019-06-16T14:36:56Z</time>
      </trkpt>
      <trkpt lat="38.528985" lon="-0.621043">
        <ele>622.458</ele>
        <time>2019-06-16T14:36:56Z</time>
      </trkpt>
      <trkpt lat="38.528985" lon="-0.621043">
        <ele>622.480</ele>
        <time>2019-06-16T14:36:56Z</time>
      </trkpt>
      <trkpt lat="38.528985" lon="-0.621043">
        <ele>622.477</ele>
        <time>2019-06-16T14:36:56Z</time>
      </trkpt>
      <trkpt lat="38.528985" lon="-0.621043">
        <ele>622.486</ele>
        <time>2019-06-16T14:36:56Z</time>
      </trkpt>
      <trkpt lat="38.528985" lon="-0.621043">
        <ele>622.421</ele>
        <time>2019-06-16T14:36:56Z</time>
      </trkpt>
      <trkpt lat="38.528985" lon="-0.621043">
        <ele>622.492</ele>
        <time>2019-06-16T14:36:56Z</time>
      </trkpt>
      <trkpt lat="38.528985" lon="-0.621043">
        <ele>622.473</ele>
        <time>2019-06-16T14:36:56Z</time>
      </trkpt>
      <trkpt lat="38.528985" lon="-0.621043">
        <ele>622.420</ele>
        <time>2019-06-16T14:36:56Z</time>
      </trkpt>
      <trkpt lat="38.528985" lon="-0.621043">
        <ele>622.408</ele>
        <time>2019-06-16T14:36:56Z</time>
      </trkpt>
      <trkpt lat="38.528985" lon="-0.621043">
        <ele>622.482</ele>
        <time>2019-06-16T14:36:56Z</time>
      </trkpt>
      <trkpt lat="38.528985" lon="-0.621043">
        <ele>622.486</ele>
        <time>2019-06-16T14:36:56Z</time>
      </trkpt>
      <trkpt lat="38.528985" lon="-0.621043">
        <ele>622.485</ele>
        <time>2019-06-16T14:36:56Z</time>
      </trkpt>
      <trkpt lat="38.528985" lon="-0.621043">
        <ele>622.438</ele>
        <time>2019-06-16T14:36:56Z</time>
      </trkpt>
      <trkpt lat="38.528985" lon="-0.621043">
        <ele>622.440</ele>
        <time>2019-06-16T14:36:56Z</time>
      </trkpt>
      <trkpt lat="38.528985" lon="-0.621043">
        <ele>622.497</ele>
        <time>2019-06-16T14:36:56Z</time>
      </trkpt>
      <trkpt lat="38.528985" lon="-0.621043">
        <ele>622.496</ele>
        <time>2019-06-16T14:36:56Z</time>
      </trkpt>
      <trkpt lat="38.528985" lon="-0.621043">
        <ele>622.451</ele>
        <time>2019-06-16T14:36:56Z</time>
      </trkpt>
      <trkpt lat="38.528985" lon="-0.621043">
        <ele>622.412</ele>
        <time>2019-06-16T14:36:56Z</time>
      </trkpt>
      <trkpt lat="38.528985" lon="-0.621043">
        <ele>622.432</ele>
        <time>2019-06-16T14:36:56Z</time>
      </trkpt>
      <trkpt lat="38.528985" lon="-0.621043">
        <ele>622.405</ele>
        <time>2019-06-16T14:36:56Z</time>
      </trkpt>
      <trkpt lat="38.528985" lon="-0.621043">
        <ele>622.408</ele>
        <time>2019-06-16T14:36:56Z</time>
      </trkpt>
      <trkpt lat="38.528985" lon="-0.621043">
        <ele>622.424</ele>
        <time>2019-06-16T14:36:56Z</time>
      </trkpt>
      <trkpt lat="38.528985" lon="-0.621043">
        <ele>622.438</ele>
        <time>2019-06-16T14:36:56Z</time>
      </trkpt>
      <trkpt lat="38.528985" lon="-0.621043">
        <ele>622.487</ele>
        <time>2019-06-16T14:36:56Z</time>
      </trkpt>
      <trkpt lat="38.528985" lon="-0.621043">
        <ele>622.460</ele>
        <time>2019-06-16T14:36:56Z</time>
      </trkpt>
      <trkpt lat="38.528985" lon="-0.621043">
        <ele>622.442</ele>
        <time>2019-06-16T14:36:56Z</time>
      </trkpt>
      <trkpt lat="38.528985" lon="-0.621043">
        <ele>622.459</ele>
        <time>2019-06-16T14:36:56Z</time>
      </trkpt>
      <trkpt lat="38.528985" lon="-0.621043">
        <ele>622.468</ele>
        <time>2019-06-16T14:36:56Z</time>
      </trkpt>
      <trkpt lat="38.528985" lon="-0.621043">
        <ele>622.483</ele>
        <time>2019-06-16T14:36:56Z</time>
      </trkpt>
      <trkpt lat="38.528985" lon="-0.621043">
        <ele>622.446</ele>
        <time>2019-06-16T14:36:56Z</time>
      </trkpt>
      <trkpt lat="38.528985" lon="-0.621043">
        <ele>622.488</ele>
        <time>2019-06-16T14:36:56Z</time>
      </trkpt>
      <trkpt lat="38.528147" lon="-0.621230">
        <ele>619.716</ele>
        <time>2019-06-16T14:37:09Z</time>
      </trkpt>
      <trkpt lat="38.528147" lon="-0.621230">
        <ele>619.708</ele>
        <time>2019-06-16T14:37:09Z</time>
      </trkpt>
      <trkpt lat="38.528147" lon="-0.621230">
        <ele>619.747</ele>
        <time>2019-06-16T14:37:09Z</time>
      </trkpt>
      <trkpt lat="38.528147" lon="-0.621230">
        <ele>619.721</ele>
        <time>2019-06-16T14:37:09Z</time>
      </trkpt>
      <trkpt lat="38.528147" lon="-0.621230">
        <ele>619.770</ele>
        <time>2019-06-16T14:37:09Z</time>
      </trkpt>
      <trkpt lat="38.528147" lon="-0.621230">
        <ele>619.743</ele>
        <time>2019-06-16T14:37:09Z</time>
      </trkpt>
      <trkpt lat="38.528147" lon="-0.621230">
        <ele>619.765</ele>
        <time>2019-06-16T14:37:09Z</time>
      </trkpt>
      <trkpt lat="38.528147" lon="-0.621230">
        <ele>619.782</ele>
        <time>2019-06-16T14:37:09Z</time>
      </trkpt>
      <trkpt lat="38.528147" lon="-0.621230">
        <ele>619.741</ele>
        <time>2019-06-16T14:37:09Z</time>
      </trkpt>
      <trkpt lat="38.528147" lon="-0.621230">
        <ele>619.716</ele>
        <time>2019-06-16T14:37:09Z</time>
      </trkpt>
      <trkpt lat="38.528147" lon="-0.621230">
        <ele>619.784</ele>
        <time>2019-06-16T14:37:09Z</time>
      </trkpt>
      <trkpt lat="38.528147" lon="-0.621230">
        <ele>619.707</ele>
        <time>2019-06-16T14:37:09Z</time>
      </trkpt>
      <trkpt lat="38.528147" lon="-0.621230">
        <ele>619.717</ele>
        <time>2019-06-16T14:37:09Z</time>
      </trkpt>
      <trkpt lat="38.528088" lon="-0.621278">
        <ele>619.508</ele>
        <time>2019-06-16T14:37:10Z</time>
      </trkpt>
      <trkpt lat="38.528024" lon="-0.621305">
        <ele>619.531</ele>
        <time>2019-06-16T14:37:11Z</time>
      </trkpt>
      <trkpt lat="38.527950" lon="-0.621319">
        <ele>619.995</ele>
        <time>2019-06-16T14:37:12Z</time>
      </trkpt>
      <trkpt lat="38.527881" lon="-0.621332">
        <ele>620.284</ele>
        <time>2019-06-16T14:37:13Z</time>
      </trkpt>
      <trkpt lat="38.527814" lon="-0.621357">
        <ele>620.697</ele>
        <time>2019-06-16T14:37:14Z</time>
      </trkpt>
      <trkpt lat="38.527746" lon="-0.621361">
        <ele>621.129</ele>
        <time>2019-06-16T14:37:15Z</time>
      </trkpt>
      <trkpt lat="38.527676" lon="-0.621364">
        <ele>621.966</ele>
        <time>2019-06-16T14:37:16Z</time>
      </trkpt>
      <trkpt lat="38.527609" lon="-0.621357">
        <ele>622.555</ele>
        <time>2019-06-16T14:37:17Z</time>
      </trkpt>
      <trkpt lat="38.527541" lon="-0.621343">
        <ele>622.950</ele>
        <time>2019-06-16T14:37:18Z</time>
      </trkpt>
      <trkpt lat="38.527475" lon="-0.621324">
        <ele>623.148</ele>
        <time>2019-06-16T14:37:19Z</time>
      </trkpt>
      <trkpt lat="38.527283" lon="-0.621244">
        <ele>622.361</ele>
        <time>2019-06-16T14:37:22Z</time>
      </trkpt>
      <trkpt lat="38.527283" lon="-0.621244">
        <ele>622.317</ele>
        <time>2019-06-16T14:37:22Z</time>
      </trkpt>
      <trkpt lat="38.527283" lon="-0.621244">
        <ele>622.308</ele>
        <time>2019-06-16T14:37:22Z</time>
      </trkpt>
      <trkpt lat="38.527283" lon="-0.621244">
        <ele>622.347</ele>
        <time>2019-06-16T14:37:22Z</time>
      </trkpt>
      <trkpt lat="38.526778" lon="-0.620902">
        <ele>620.861</ele>
        <time>2019-06-16T14:37:32Z</time>
      </trkpt>
      <trkpt lat="38.526778" lon="-0.620902">
        <ele>620.850</ele>
        <time>2019-06-16T14:37:32Z</time>
      </trkpt>
      <trkpt lat="38.526778" lon="-0.620902">
        <ele>620.863</ele>
        <time>2019-06-16T14:37:32Z</time>
      </trkpt>
      <trkpt lat="38.526778" lon="-0.620902">
        <ele>620.855</ele>
        <time>2019-06-16T14:37:32Z</time>
      </trkpt>
      <trkpt lat="38.526778" lon="-0.620902">
        <ele>620.832</ele>
        <time>2019-06-16T14:37:32Z</time>
      </trkpt>
      <trkpt lat="38.526778" lon="-0.620902">
        <ele>620.891</ele>
        <time>2019-06-16T14:37:32Z</time>
      </trkpt>
      <trkpt lat="38.526778" lon="-0.620902">
        <ele>620.866</ele>
        <time>2019-06-16T14:37:32Z</time>
      </trkpt>
      <trkpt lat="38.526778" lon="-0.620902">
        <ele>620.832</ele>
        <time>2019-06-16T14:37:32Z</time>
      </trkpt>
      <trkpt lat="38.526778" lon="-0.620902">
        <ele>620.892</ele>
        <time>2019-06-16T14:37:32Z</time>
      </trkpt>
      <trkpt lat="38.526778" lon="-0.620902">
        <ele>620.811</ele>
        <time>2019-06-16T14:37:32Z</time>
      </trkpt>
      <trkpt lat="38.525960" lon="-0.619918">
        <ele>624.608</ele>
        <time>2019-06-16T14:37:58Z</time>
      </trkpt>
      <trkpt lat="38.525960" lon="-0.619918">
        <ele>624.666</ele>
        <time>2019-06-16T14:37:58Z</time>
      </trkpt>
      <trkpt lat="38.525960" lon="-0.619918">
        <ele>624.610</ele>
        <time>2019-06-16T14:37:58Z</time>
      </trkpt>
      <trkpt lat="38.525960" lon="-0.619918">
        <ele>624.619</ele>
        <time>2019-06-16T14:37:58Z</time>
      </trkpt>
      <trkpt lat="38.525960" lon="-0.619918">
        <ele>624.652</ele>
        <time>2019-06-16T14:37:58Z</time>
      </trkpt>
      <trkpt lat="38.525960" lon="-0.619918">
        <ele>624.654</ele>
        <time>2019-06-16T14:37:58Z</time>
      </trkpt>
      <trkpt lat="38.525960" lon="-0.619918">
        <ele>624.681</ele>
        <time>2019-06-16T14:37:58Z</time>
      </trkpt>
      <trkpt lat="38.525960" lon="-0.619918">
        <ele>624.610</ele>
        <time>2019-06-16T14:37:58Z</time>
      </trkpt>
      <trkpt lat="38.525960" lon="-0.619918">
        <ele>624.685</ele>
        <time>2019-06-16T14:37:58Z</time>
      </trkpt>
      <trkpt lat="38.525960" lon="-0.619918">
        <ele>624.632</ele>
        <time>2019-06-16T14:37:58Z</time>
      </trkpt>
      <trkpt lat="38.525960" lon="-0.619918">
        <ele>624.692</ele>
        <time>2019-06-16T14:37:58Z</time>
      </trkpt>
      <trkpt lat="38.525960" lon="-0.619918">
        <ele>624.611</ele>
        <time>2019-06-16T14:37:58Z</time>
      </trkpt>
      <trkpt lat="38.525960" lon="-0.619918">
        <ele>624.608</ele>
        <time>2019-06-16T14:37:58Z</time>
      </trkpt>
      <trkpt lat="38.525960" lon="-0.619918">
        <ele>624.656</ele>
        <time>2019-06-16T14:37:58Z</time>
      </trkpt>
      <trkpt lat="38.525960" lon="-0.619918">
        <ele>624.660</ele>
        <time>2019-06-16T14:37:58Z</time>
      </trkpt>
      <trkpt lat="38.525960" lon="-0.619918">
        <ele>624.669</ele>
        <time>2019-06-16T14:37:58Z</time>
      </trkpt>
      <trkpt lat="38.525960" lon="-0.619918">
        <ele>624.632</ele>
        <time>2019-06-16T14:37:58Z</time>
      </trkpt>
      <trkpt lat="38.525960" lon="-0.619918">
        <ele>624.664</ele>
        <time>2019-06-16T14:37:58Z</time>
      </trkpt>
      <trkpt lat="38.525960" lon="-0.619918">
        <ele>624.641</ele>
        <time>2019-06-16T14:37:58Z</time>
      </trkpt>
      <trkpt lat="38.525960" lon="-0.619918">
        <ele>624.670</ele>
        <time>2019-06-16T14:37:58Z</time>
      </trkpt>
      <trkpt lat="38.525960" lon="-0.619918">
        <ele>624.655</ele>
        <time>2019-06-16T14:37:58Z</time>
      </trkpt>
      <trkpt lat="38.525960" lon="-0.619918">
        <ele>624.682</ele>
        <time>2019-06-16T14:37:58Z</time>
      </trkpt>
      <trkpt lat="38.525960" lon="-0.619918">
        <ele>624.643</ele>
        <time>2019-06-16T14:37:58Z</time>
      </trkpt>
      <trkpt lat="38.525960" lon="-0.619918">
        <ele>624.617</ele>
        <time>2019-06-16T14:37:58Z</time>
      </trkpt>
      <trkpt lat="38.525960" lon="-0.619918">
        <ele>624.608</ele>
        <time>2019-06-16T14:37:58Z</time>
      </trkpt>
      <trkpt lat="38.525960" lon="-0.619918">
        <ele>624.691</ele>
        <time>2019-06-16T14:37:58Z</time>
      </trkpt>
      <trkpt lat="38.524701" lon="-0.618812">
        <ele>626.375</ele>
        <time>2019-06-16T14:39:22Z</time>
      </trkpt>
      <trkpt lat="38.524645" lon="-0.618788">
        <ele>626.454</ele>
        <time>2019-06-16T14:41:03Z</time>
      </trkpt>
      <trkpt lat="38.524562" lon="-0.618755">
        <ele>626.747</ele>
        <time>2019-06-16T14:41:04Z</time>
      </trkpt>
      <trkpt lat="38.524520" lon="-0.618735">
        <ele>626.949</ele>
        <time>2019-06-16T14:41:05Z</time>
      </trkpt>
      <trkpt lat="38.524473" lon="-0.618712">
        <ele>627.136</ele>
        <time>2019-06-16T14:41:07Z</time>
      </trkpt>
      <trkpt lat="38.524416" lon="-0.618685">
        <ele>627.665</ele>
        <time>2019-06-16T14:41:09Z</time>
      </trkpt>
      <trkpt lat="38.524332" lon="-0.618650">
        <ele>628.490</ele>
        <time>2019-06-16T14:41:10Z</time>
      </trkpt>
      <trkpt lat="38.524250" lon="-0.618617">
        <ele>629.129</ele>
        <time>2019-06-16T14:41:12Z</time>
      </trkpt>
      <trkpt lat="38.524168" lon="-0.618586">
        <ele>629.600</ele>
        <time>2019-06-16T14:41:14Z</time>
      </trkpt>
      <trkpt lat="38.524088" lon="-0.618559">
        <ele>629.620</ele>
        <time>2019-06-16T14:41:16Z</time>
      </trkpt>
      <trkpt lat="38.524008" lon="-0.618525">
        <ele>629.508</ele>
        <time>2019-06-16T14:41:18Z</time>
      </trkpt>
      <trkpt lat="38.523930" lon="-0.618498">
        <ele>629.695</ele>
        <time>2019-06-16T14:41:20Z</time>
      </trkpt>
      <trkpt lat="38.523854" lon="-0.618466">
        <ele>629.659</ele>
        <time>2019-06-16T14:41:22Z</time>
      </trkpt>
      <trkpt lat="38.523774" lon="-0.618426">
        <ele>629.418</ele>
        <time>2019-06-16T14:41:24Z</time>
      </trkpt>
      <trkpt lat="38.523694" lon="-0.618385">
        <ele>629.351</ele>
        <time>2019-06-16T14:41:26Z</time>
      </trkpt>
      <trkpt lat="38.523633" lon="-0.618356">
        <ele>629.283</ele>
        <time>2019-06-16T14:41:28Z</time>
      </trkpt>
      <trkpt lat="38.523579" lon="-0.618336">
        <ele>629.540</ele>
        <time>2019-06-16T14:41:29Z</time>
      </trkpt>
      <trkpt lat="38.523499" lon="-0.618310">
        <ele>630.429</ele>
        <time>2019-06-16T14:41:31Z</time>
      </trkpt>
      <trkpt lat="38.523418" lon="-0.618274">
        <ele>631.414</ele>
        <time>2019-06-16T14:41:33Z</time>
      </trkpt>
      <trkpt lat="38.523335" lon="-0.618223">
        <ele>632.289</ele>
        <time>2019-06-16T14:41:35Z</time>
      </trkpt>
      <trkpt lat="38.523289" lon="-0.618202">
        <ele>632.406</ele>
        <time>2019-06-16T14:41:36Z</time>
      </trkpt>
      <trkpt lat="38.523246" lon="-0.618186">
        <ele>632.726</ele>
        <time>2019-06-16T14:41:37Z</time>
      </trkpt>
      <trkpt lat="38.523202" lon="-0.618171">
        <ele>633.108</ele>
        <time>2019-06-16T14:41:38Z</time>
      </trkpt>
      <trkpt lat="38.523158" lon="-0.618154">
        <ele>633.481</ele>
        <time>2019-06-16T14:41:39Z</time>
      </trkpt>
      <trkpt lat="38.523113" lon="-0.618125">
        <ele>633.755</ele>
        <time>2019-06-16T14:41:40Z</time>
      </trkpt>
      <trkpt lat="38.523028" lon="-0.618103">
        <ele>634.494</ele>
        <time>2019-06-16T14:41:42Z</time>
      </trkpt>
      <trkpt lat="38.522947" lon="-0.618079">
        <ele>634.987</ele>
        <time>2019-06-16T14:41:44Z</time>
      </trkpt>
      <trkpt lat="38.522902" lon="-0.618075">
        <ele>635.219</ele>
        <time>2019-06-16T14:41:45Z</time>
      </trkpt>
      <trkpt lat="38.522854" lon="-0.618072">
        <ele>635.536</ele>
        <time>2019-06-16T14:41:46Z</time>
      </trkpt>
      <trkpt lat="38.522806" lon="-0.618063">
        <ele>635.875</ele>
        <time>2019-06-16T14:41:47Z</time>
      </trkpt>
      <trkpt lat="38.522717" lon="-0.618033">
        <ele>636.070</ele>
        <time>2019-06-16T14:41:49Z</time>
      </trkpt>
      <trkpt lat="38.522632" lon="-0.618019">
        <ele>636.199</ele>
        <time>2019-06-16T14:41:51Z</time>
      </trkpt>
      <trkpt lat="38.522545" lon="-0.618012">
        <ele>636.307</ele>
        <time>2019-06-16T14:41:53Z</time>
      </trkpt>
      <trkpt lat="38.522458" lon="-0.618007">
        <ele>636.227</ele>
        <time>2019-06-16T14:41:55Z</time>
      </trkpt>
      <trkpt lat="38.522372" lon="-0.617991">
        <ele>635.708</ele>
        <time>2019-06-16T14:41:57Z</time>
      </trkpt>
      <trkpt lat="38.522285" lon="-0.617966">
        <ele>635.292</ele>
        <time>2019-06-16T14:41:59Z</time>
      </trkpt>
      <trkpt lat="38.522240" lon="-0.617951">
        <ele>634.946</ele>
        <time>2019-06-16T14:42:00Z</time>
      </trkpt>
      <trkpt lat="38.522171" lon="-0.617919">
        <ele>634.685</ele>
        <time>2019-06-16T14:42:02Z</time>
      </trkpt>
      <trkpt lat="38.522130" lon="-0.617894">
        <ele>634.438</ele>
        <time>2019-06-16T14:42:03Z</time>
      </trkpt>
      <trkpt lat="38.522084" lon="-0.617874">
        <ele>634.240</ele>
        <time>2019-06-16T14:42:04Z</time>
      </trkpt>
      <trkpt lat="38.522038" lon="-0.617853">
        <ele>634.017</ele>
        <time>2019-06-16T14:42:05Z</time>
      </trkpt>
      <trkpt lat="38.521992" lon="-0.617827">
        <ele>633.766</ele>
        <time>2019-06-16T14:42:06Z</time>
      </trkpt>
      <trkpt lat="38.521951" lon="-0.617795">
        <ele>633.291</ele>
        <time>2019-06-16T14:42:07Z</time>
      </trkpt>
      <trkpt lat="38.521909" lon="-0.617773">
        <ele>633.115</ele>
        <time>2019-06-16T14:42:08Z</time>
      </trkpt>
      <trkpt lat="38.521869" lon="-0.617744">
        <ele>632.965</ele>
        <time>2019-06-16T14:42:09Z</time>
      </trkpt>
      <trkpt lat="38.521787" lon="-0.617693">
        <ele>632.711</ele>
        <time>2019-06-16T14:42:11Z</time>
      </trkpt>
      <trkpt lat="38.521716" lon="-0.617643">
        <ele>632.708</ele>
        <time>2019-06-16T14:42:13Z</time>
      </trkpt>
      <trkpt lat="38.521646" lon="-0.617605">
        <ele>632.974</ele>
        <time>2019-06-16T14:42:15Z</time>
      </trkpt>
      <trkpt lat="38.521582" lon="-0.617548">
        <ele>633.248</ele>
        <time>2019-06-16T14:42:17Z</time>
      </trkpt>
      <trkpt lat="38.521522" lon="-0.617493">
        <ele>633.597</ele>
        <time>2019-06-16T14:42:19Z</time>
      </trkpt>
      <trkpt lat="38.521479" lon="-0.617458">
        <ele>633.940</ele>
        <time>2019-06-16T14:42:21Z</time>
      </trkpt>
      <trkpt lat="38.521442" lon="-0.617416">
        <ele>634.132</ele>
        <time>2019-06-16T14:42:23Z</time>
      </trkpt>
      <trkpt lat="38.521403" lon="-0.617371">
        <ele>634.469</ele>
        <time>2019-06-16T14:42:25Z</time>
      </trkpt>
      <trkpt lat="38.521364" lon="-0.617331">
        <ele>634.638</ele>
        <time>2019-06-16T14:42:27Z</time>
      </trkpt>
      <trkpt lat="38.521325" lon="-0.617299">
        <ele>634.993</ele>
        <time>2019-06-16T14:42:29Z</time>
      </trkpt>
      <trkpt lat="38.521285" lon="-0.617259">
        <ele>635.218</ele>
        <time>2019-06-16T14:42:31Z</time>
      </trkpt>
      <trkpt lat="38.521240" lon="-0.617209">
        <ele>635.698</ele>
        <time>2019-06-16T14:42:33Z</time>
      </trkpt>
      <trkpt lat="38.521179" lon="-0.617140">
        <ele>636.017</ele>
        <time>2019-06-16T14:42:34Z</time>
      </trkpt>
      <trkpt lat="38.521120" lon="-0.617066">
        <ele>636.308</ele>
        <time>2019-06-16T14:42:36Z</time>
      </trkpt>
      <trkpt lat="38.521061" lon="-0.616991">
        <ele>636.574</ele>
        <time>2019-06-16T14:42:38Z</time>
      </trkpt>
      <trkpt lat="38.521005" lon="-0.616916">
        <ele>636.678</ele>
        <time>2019-06-16T14:42:40Z</time>
      </trkpt>
      <trkpt lat="38.520952" lon="-0.616842">
        <ele>636.467</ele>
        <time>2019-06-16T14:42:42Z</time>
      </trkpt>
      <trkpt lat="38.520896" lon="-0.616771">
        <ele>636.320</ele>
        <time>2019-06-16T14:42:44Z</time>
      </trkpt>
      <trkpt lat="38.520836" lon="-0.616706">
        <ele>636.322</ele>
        <time>2019-06-16T14:42:46Z</time>
      </trkpt>
      <trkpt lat="38.520771" lon="-0.616640">
        <ele>635.189</ele>
        <time>2019-06-16T14:42:48Z</time>
      </trkpt>
      <trkpt lat="38.520706" lon="-0.616575">
        <ele>633.978</ele>
        <time>2019-06-16T14:42:50Z</time>
      </trkpt>
      <trkpt lat="38.520640" lon="-0.616513">
        <ele>633.233</ele>
        <time>2019-06-16T14:42:52Z</time>
      </trkpt>
      <trkpt lat="38.520568" lon="-0.616458">
        <ele>633.212</ele>
        <time>2019-06-16T14:42:54Z</time>
      </trkpt>
      <trkpt lat="38.520493" lon="-0.616415">
        <ele>633.932</ele>
        <time>2019-06-16T14:42:56Z</time>
      </trkpt>
      <trkpt lat="38.520412" lon="-0.616374">
        <ele>635.005</ele>
        <time>2019-06-16T14:42:58Z</time>
      </trkpt>
      <trkpt lat="38.520331" lon="-0.616329">
        <ele>636.308</ele>
        <time>2019-06-16T14:43:00Z</time>
      </trkpt>
      <trkpt lat="38.520250" lon="-0.616283">
        <ele>637.434</ele>
        <time>2019-06-16T14:43:02Z</time>
      </trkpt>
      <trkpt lat="38.520169" lon="-0.616235">
        <ele>637.588</ele>
        <time>2019-06-16T14:43:04Z</time>
      </trkpt>
      <trkpt lat="38.520121" lon="-0.616210">
        <ele>637.587</ele>
        <time>2019-06-16T14:43:05Z</time>
      </trkpt>
      <trkpt lat="38.520081" lon="-0.616184">
        <ele>637.470</ele>
        <time>2019-06-16T14:43:06Z</time>
      </trkpt>
      <trkpt lat="38.520041" lon="-0.616158">
        <ele>637.342</ele>
        <time>2019-06-16T14:43:07Z</time>
      </trkpt>
      <trkpt lat="38.519999" lon="-0.616130">
        <ele>637.139</ele>
        <time>2019-06-16T14:43:08Z</time>
      </trkpt>
      <trkpt lat="38.519960" lon="-0.616098">
        <ele>636.828</ele>
        <time>2019-06-16T14:43:09Z</time>
      </trkpt>
      <trkpt lat="38.519918" lon="-0.616071">
        <ele>636.463</ele>
        <time>2019-06-16T14:43:10Z</time>
      </trkpt>
      <trkpt lat="38.519841" lon="-0.616024">
        <ele>635.638</ele>
        <time>2019-06-16T14:43:12Z</time>
      </trkpt>
      <trkpt lat="38.519801" lon="-0.615992">
        <ele>635.170</ele>
        <time>2019-06-16T14:43:13Z</time>
      </trkpt>
      <trkpt lat="38.519759" lon="-0.615966">
        <ele>634.617</ele>
        <time>2019-06-16T14:43:14Z</time>
      </trkpt>
      <trkpt lat="38.519682" lon="-0.615915">
        <ele>634.208</ele>
        <time>2019-06-16T14:43:16Z</time>
      </trkpt>
      <trkpt lat="38.519638" lon="-0.615884">
        <ele>634.326</ele>
        <time>2019-06-16T14:43:17Z</time>
      </trkpt>
      <trkpt lat="38.519597" lon="-0.615852">
        <ele>634.590</ele>
        <time>2019-06-16T14:43:18Z</time>
      </trkpt>
      <trkpt lat="38.519554" lon="-0.615826">
        <ele>634.759</ele>
        <time>2019-06-16T14:43:19Z</time>
      </trkpt>
      <trkpt lat="38.519511" lon="-0.615803">
        <ele>634.852</ele>
        <time>2019-06-16T14:43:20Z</time>
      </trkpt>
      <trkpt lat="38.519468" lon="-0.615777">
        <ele>634.964</ele>
        <time>2019-06-16T14:43:21Z</time>
      </trkpt>
      <trkpt lat="38.519428" lon="-0.615745">
        <ele>634.921</ele>
        <time>2019-06-16T14:43:22Z</time>
      </trkpt>
      <trkpt lat="38.519361" lon="-0.615682">
        <ele>634.990</ele>
        <time>2019-06-16T14:43:24Z</time>
      </trkpt>
      <trkpt lat="38.519327" lon="-0.615644">
        <ele>634.885</ele>
        <time>2019-06-16T14:43:25Z</time>
      </trkpt>
      <trkpt lat="38.519289" lon="-0.615603">
        <ele>634.872</ele>
        <time>2019-06-16T14:43:26Z</time>
      </trkpt>
      <trkpt lat="38.519250" lon="-0.615571">
        <ele>635.013</ele>
        <time>2019-06-16T14:43:27Z</time>
      </trkpt>
      <trkpt lat="38.519206" lon="-0.615529">
        <ele>635.114</ele>
        <time>2019-06-16T14:43:28Z</time>
      </trkpt>
      <trkpt lat="38.519168" lon="-0.615486">
        <ele>635.008</ele>
        <time>2019-06-16T14:43:29Z</time>
      </trkpt>
      <trkpt lat="38.519134" lon="-0.615444">
        <ele>634.680</ele>
        <time>2019-06-16T14:43:30Z</time>
      </trkpt>
      <trkpt lat="38.519089" lon="-0.615405">
        <ele>634.334</ele>
        <time>2019-06-16T14:43:31Z</time>
      </trkpt>
      <trkpt lat="38.519048" lon="-0.615369">
        <ele>634.093</ele>
        <time>2019-06-16T14:43:32Z</time>
      </trkpt>
      <trkpt lat="38.519004" lon="-0.615329">
        <ele>633.826</ele>
        <time>2019-06-16T14:43:33Z</time>
      </trkpt>
      <trkpt lat="38.518963" lon="-0.615283">
        <ele>633.548</ele>
        <time>2019-06-16T14:43:34Z</time>
      </trkpt>
      <trkpt lat="38.518915" lon="-0.615242">
        <ele>633.885</ele>
        <time>2019-06-16T14:43:35Z</time>
      </trkpt>
      <trkpt lat="38.518871" lon="-0.615203">
        <ele>634.264</ele>
        <time>2019-06-16T14:43:36Z</time>
      </trkpt>
      <trkpt lat="38.518835" lon="-0.615165">
        <ele>634.559</ele>
        <time>2019-06-16T14:43:37Z</time>
      </trkpt>
      <trkpt lat="38.518796" lon="-0.615121">
        <ele>634.887</ele>
        <time>2019-06-16T14:43:38Z</time>
      </trkpt>
      <trkpt lat="38.518762" lon="-0.615078">
        <ele>635.042</ele>
        <time>2019-06-16T14:43:39Z</time>
      </trkpt>
      <trkpt lat="38.518731" lon="-0.615033">
        <ele>635.226</ele>
        <time>2019-06-16T14:43:40Z</time>
      </trkpt>
      <trkpt lat="38.518675" lon="-0.614959">
        <ele>635.308</ele>
        <time>2019-06-16T14:43:42Z</time>
      </trkpt>
      <trkpt lat="38.518615" lon="-0.614887">
        <ele>635.271</ele>
        <time>2019-06-16T14:43:44Z</time>
      </trkpt>
      <trkpt lat="38.518553" lon="-0.614815">
        <ele>635.475</ele>
        <time>2019-06-16T14:43:46Z</time>
      </trkpt>
      <trkpt lat="38.518495" lon="-0.614739">
        <ele>635.414</ele>
        <time>2019-06-16T14:43:48Z</time>
      </trkpt>
      <trkpt lat="38.518434" lon="-0.614672">
        <ele>635.427</ele>
        <time>2019-06-16T14:43:50Z</time>
      </trkpt>
      <trkpt lat="38.518372" lon="-0.614615">
        <ele>635.599</ele>
        <time>2019-06-16T14:43:52Z</time>
      </trkpt>
      <trkpt lat="38.518320" lon="-0.614571">
        <ele>635.616</ele>
        <time>2019-06-16T14:43:55Z</time>
      </trkpt>
      <trkpt lat="38.518271" lon="-0.614531">
        <ele>636.045</ele>
        <time>2019-06-16T14:43:57Z</time>
      </trkpt>
      <trkpt lat="38.518219" lon="-0.614489">
        <ele>636.310</ele>
        <time>2019-06-16T14:43:59Z</time>
      </trkpt>
      <trkpt lat="38.518166" lon="-0.614442">
        <ele>636.462</ele>
        <time>2019-06-16T14:44:01Z</time>
      </trkpt>
      <trkpt lat="38.518115" lon="-0.614391">
        <ele>636.683</ele>
        <time>2019-06-16T14:44:03Z</time>
      </trkpt>
      <trkpt lat="38.518063" lon="-0.614336">
        <ele>636.711</ele>
        <time>2019-06-16T14:44:05Z</time>
      </trkpt>
      <trkpt lat="38.518013" lon="-0.614281">
        <ele>637.008</ele>
        <time>2019-06-16T14:44:07Z</time>
      </trkpt>
      <trkpt lat="38.517968" lon="-0.614226">
        <ele>637.249</ele>
        <time>2019-06-16T14:44:09Z</time>
      </trkpt>
      <trkpt lat="38.517925" lon="-0.614169">
        <ele>637.443</ele>
        <time>2019-06-16T14:44:11Z</time>
      </trkpt>
      <trkpt lat="38.517885" lon="-0.614110">
        <ele>637.972</ele>
        <time>2019-06-16T14:44:13Z</time>
      </trkpt>
      <trkpt lat="38.517849" lon="-0.614047">
        <ele>638.395</ele>
        <time>2019-06-16T14:44:15Z</time>
      </trkpt>
      <trkpt lat="38.517812" lon="-0.613979">
        <ele>638.737</ele>
        <time>2019-06-16T14:44:17Z</time>
      </trkpt>
      <trkpt lat="38.517774" lon="-0.613906">
        <ele>639.114</ele>
        <time>2019-06-16T14:44:19Z</time>
      </trkpt>
      <trkpt lat="38.517737" lon="-0.613829">
        <ele>639.213</ele>
        <time>2019-06-16T14:44:21Z</time>
      </trkpt>
      <trkpt lat="38.517700" lon="-0.613752">
        <ele>639.218</ele>
        <time>2019-06-16T14:44:23Z</time>
      </trkpt>
      <trkpt lat="38.517671" lon="-0.613689">
        <ele>639.186</ele>
        <time>2019-06-16T14:44:25Z</time>
      </trkpt>
      <trkpt lat="38.517610" lon="-0.613555">
        <ele>638.760</ele>
        <time>2019-06-16T14:44:27Z</time>
      </trkpt>
      <trkpt lat="38.517573" lon="-0.613489">
        <ele>638.526</ele>
        <time>2019-06-16T14:44:30Z</time>
      </trkpt>
      <trkpt lat="38.517538" lon="-0.613428">
        <ele>638.508</ele>
        <time>2019-06-16T14:44:32Z</time>
      </trkpt>
      <trkpt lat="38.517504" lon="-0.613357">
        <ele>638.261</ele>
        <time>2019-06-16T14:44:34Z</time>
      </trkpt>
      <trkpt lat="38.517473" lon="-0.613283">
        <ele>638.255</ele>
        <time>2019-06-16T14:44:36Z</time>
      </trkpt>
      <trkpt lat="38.517448" lon="-0.613216">
        <ele>638.284</ele>
        <time>2019-06-16T14:44:39Z</time>
      </trkpt>
      <trkpt lat="38.517477" lon="-0.613158">
        <ele>636.867</ele>
        <time>2019-06-16T14:44:48Z</time>
      </trkpt>
      <trkpt lat="38.517522" lon="-0.613148">
        <ele>635.559</ele>
        <time>2019-06-16T14:44:53Z</time>
      </trkpt>
      <trkpt lat="38.517489" lon="-0.613189">
        <ele>636.866</ele>
        <time>2019-06-16T14:45:16Z</time>
      </trkpt>
      <trkpt lat="38.517432" lon="-0.613183">
        <ele>638.445</ele>
        <time>2019-06-16T14:45:20Z</time>
      </trkpt>
      <trkpt lat="38.517357" lon="-0.613066">
        <ele>639.720</ele>
        <time>2019-06-16T14:45:22Z</time>
      </trkpt>
      <trkpt lat="38.517321" lon="-0.612973">
        <ele>640.671</ele>
        <time>2019-06-16T14:45:24Z</time>
      </trkpt>
      <trkpt lat="38.517281" lon="-0.612875">
        <ele>641.641</ele>
        <time>2019-06-16T14:45:26Z</time>
      </trkpt>
      <trkpt lat="38.517239" lon="-0.612774">
        <ele>642.515</ele>
        <time>2019-06-16T14:45:28Z</time>
      </trkpt>
      <trkpt lat="38.517216" lon="-0.612721">
        <ele>642.708</ele>
        <time>2019-06-16T14:45:29Z</time>
      </trkpt>
      <trkpt lat="38.517193" lon="-0.612668">
        <ele>642.760</ele>
        <time>2019-06-16T14:45:30Z</time>
      </trkpt>
      <trkpt lat="38.517169" lon="-0.612617">
        <ele>642.844</ele>
        <time>2019-06-16T14:45:31Z</time>
      </trkpt>
      <trkpt lat="38.517148" lon="-0.612565">
        <ele>642.823</ele>
        <time>2019-06-16T14:45:32Z</time>
      </trkpt>
      <trkpt lat="38.517128" lon="-0.612513">
        <ele>642.866</ele>
        <time>2019-06-16T14:45:33Z</time>
      </trkpt>
      <trkpt lat="38.517107" lon="-0.612461">
        <ele>642.578</ele>
        <time>2019-06-16T14:45:34Z</time>
      </trkpt>
      <trkpt lat="38.517061" lon="-0.612365">
        <ele>642.095</ele>
        <time>2019-06-16T14:45:36Z</time>
      </trkpt>
      <trkpt lat="38.517031" lon="-0.612317">
        <ele>641.874</ele>
        <time>2019-06-16T14:45:37Z</time>
      </trkpt>
      <trkpt lat="38.517006" lon="-0.612268">
        <ele>641.629</ele>
        <time>2019-06-16T14:45:38Z</time>
      </trkpt>
      <trkpt lat="38.516988" lon="-0.612208">
        <ele>641.176</ele>
        <time>2019-06-16T14:45:39Z</time>
      </trkpt>
      <trkpt lat="38.516957" lon="-0.612136">
        <ele>641.490</ele>
        <time>2019-06-16T14:45:40Z</time>
      </trkpt>
      <trkpt lat="38.516952" lon="-0.612071">
        <ele>641.319</ele>
        <time>2019-06-16T14:45:41Z</time>
      </trkpt>
      <trkpt lat="38.516922" lon="-0.612006">
        <ele>641.908</ele>
        <time>2019-06-16T14:45:42Z</time>
      </trkpt>
      <trkpt lat="38.516879" lon="-0.611960">
        <ele>642.930</ele>
        <time>2019-06-16T14:45:43Z</time>
      </trkpt>
      <trkpt lat="38.516886" lon="-0.611861">
        <ele>641.974</ele>
        <time>2019-06-16T14:45:44Z</time>
      </trkpt>
      <trkpt lat="38.516906" lon="-0.611775">
        <ele>640.413</ele>
        <time>2019-06-16T14:45:45Z</time>
      </trkpt>
      <trkpt lat="38.516861" lon="-0.611746">
        <ele>641.756</ele>
        <time>2019-06-16T14:45:46Z</time>
      </trkpt>
      <trkpt lat="38.516799" lon="-0.611664">
        <ele>643.278</ele>
        <time>2019-06-16T14:45:48Z</time>
      </trkpt>
      <trkpt lat="38.516747" lon="-0.611600">
        <ele>644.585</ele>
        <time>2019-06-16T14:45:50Z</time>
      </trkpt>
      <trkpt lat="38.516699" lon="-0.611496">
        <ele>645.154</ele>
        <time>2019-06-16T14:45:52Z</time>
      </trkpt>
      <trkpt lat="38.516670" lon="-0.611449">
        <ele>645.539</ele>
        <time>2019-06-16T14:45:53Z</time>
      </trkpt>
      <trkpt lat="38.516603" lon="-0.611379">
        <ele>645.842</ele>
        <time>2019-06-16T14:45:55Z</time>
      </trkpt>
      <trkpt lat="38.516563" lon="-0.611307">
        <ele>645.222</ele>
        <time>2019-06-16T14:45:56Z</time>
      </trkpt>
      <trkpt lat="38.516532" lon="-0.611249">
        <ele>644.714</ele>
        <time>2019-06-16T14:45:58Z</time>
      </trkpt>
      <trkpt lat="38.516496" lon="-0.611192">
        <ele>644.208</ele>
        <time>2019-06-16T14:45:59Z</time>
      </trkpt>
      <trkpt lat="38.516458" lon="-0.611137">
        <ele>643.717</ele>
        <time>2019-06-16T14:46:00Z</time>
      </trkpt>
      <trkpt lat="38.516418" lon="-0.611089">
        <ele>643.481</ele>
        <time>2019-06-16T14:46:01Z</time>
      </trkpt>
      <trkpt lat="38.516389" lon="-0.611038">
        <ele>643.220</ele>
        <time>2019-06-16T14:46:02Z</time>
      </trkpt>
      <trkpt lat="38.516334" lon="-0.610952">
        <ele>643.673</ele>
        <time>2019-06-16T14:46:04Z</time>
      </trkpt>
      <trkpt lat="38.516302" lon="-0.610905">
        <ele>643.865</ele>
        <time>2019-06-16T14:46:05Z</time>
      </trkpt>
      <trkpt lat="38.516276" lon="-0.610855">
        <ele>643.792</ele>
        <time>2019-06-16T14:46:06Z</time>
      </trkpt>
      <trkpt lat="38.516242" lon="-0.610809">
        <ele>643.811</ele>
        <time>2019-06-16T14:46:07Z</time>
      </trkpt>
      <trkpt lat="38.516209" lon="-0.610757">
        <ele>643.726</ele>
        <time>2019-06-16T14:46:08Z</time>
      </trkpt>
      <trkpt lat="38.516148" lon="-0.610676">
        <ele>643.977</ele>
        <time>2019-06-16T14:46:10Z</time>
      </trkpt>
      <trkpt lat="38.516107" lon="-0.610638">
        <ele>644.361</ele>
        <time>2019-06-16T14:46:11Z</time>
      </trkpt>
      <trkpt lat="38.516066" lon="-0.610560">
        <ele>644.227</ele>
        <time>2019-06-16T14:46:13Z</time>
      </trkpt>
      <trkpt lat="38.516011" lon="-0.610500">
        <ele>644.908</ele>
        <time>2019-06-16T14:46:16Z</time>
      </trkpt>
      <trkpt lat="38.515970" lon="-0.610454">
        <ele>645.370</ele>
        <time>2019-06-16T14:46:18Z</time>
      </trkpt>
      <trkpt lat="38.515874" lon="-0.610360">
        <ele>645.884</ele>
        <time>2019-06-16T14:46:20Z</time>
      </trkpt>
      <trkpt lat="38.515824" lon="-0.610309">
        <ele>645.713</ele>
        <time>2019-06-16T14:46:23Z</time>
      </trkpt>
      <trkpt lat="38.515772" lon="-0.610254">
        <ele>645.676</ele>
        <time>2019-06-16T14:46:26Z</time>
      </trkpt>
      <trkpt lat="38.515737" lon="-0.610217">
        <ele>645.528</ele>
        <time>2019-06-16T14:46:28Z</time>
      </trkpt>
      <trkpt lat="38.515698" lon="-0.610183">
        <ele>645.675</ele>
        <time>2019-06-16T14:46:30Z</time>
      </trkpt>
      <trkpt lat="38.515656" lon="-0.610144">
        <ele>645.684</ele>
        <time>2019-06-16T14:46:32Z</time>
      </trkpt>
      <trkpt lat="38.515614" lon="-0.610104">
        <ele>645.769</ele>
        <time>2019-06-16T14:46:34Z</time>
      </trkpt>
      <trkpt lat="38.515576" lon="-0.610066">
        <ele>645.859</ele>
        <time>2019-06-16T14:46:37Z</time>
      </trkpt>
      <trkpt lat="38.515534" lon="-0.610026">
        <ele>645.903</ele>
        <time>2019-06-16T14:46:40Z</time>
      </trkpt>
      <trkpt lat="38.515494" lon="-0.609996">
        <ele>646.123</ele>
        <time>2019-06-16T14:46:42Z</time>
      </trkpt>
      <trkpt lat="38.515434" lon="-0.609954">
        <ele>646.908</ele>
        <time>2019-06-16T14:46:45Z</time>
      </trkpt>
      <trkpt lat="38.515387" lon="-0.609927">
        <ele>647.558</ele>
        <time>2019-06-16T14:46:47Z</time>
      </trkpt>
      <trkpt lat="38.515335" lon="-0.609894">
        <ele>648.232</ele>
        <time>2019-06-16T14:46:49Z</time>
      </trkpt>
      <trkpt lat="38.515274" lon="-0.609858">
        <ele>649.061</ele>
        <time>2019-06-16T14:46:53Z</time>
      </trkpt>
      <trkpt lat="38.515216" lon="-0.609823">
        <ele>649.444</ele>
        <time>2019-06-16T14:46:56Z</time>
      </trkpt>
      <trkpt lat="38.515165" lon="-0.609785">
        <ele>649.596</ele>
        <time>2019-06-16T14:46:58Z</time>
      </trkpt>
      <trkpt lat="38.515108" lon="-0.609739">
        <ele>649.583</ele>
        <time>2019-06-16T14:47:00Z</time>
      </trkpt>
      <trkpt lat="38.515051" lon="-0.609691">
        <ele>649.472</ele>
        <time>2019-06-16T14:47:02Z</time>
      </trkpt>
      <trkpt lat="38.514998" lon="-0.609645">
        <ele>649.567</ele>
        <time>2019-06-16T14:47:04Z</time>
      </trkpt>
      <trkpt lat="38.514948" lon="-0.609602">
        <ele>649.815</ele>
        <time>2019-06-16T14:47:06Z</time>
      </trkpt>
      <trkpt lat="38.514900" lon="-0.609564">
        <ele>650.165</ele>
        <time>2019-06-16T14:47:08Z</time>
      </trkpt>
      <trkpt lat="38.514854" lon="-0.609528">
        <ele>650.511</ele>
        <time>2019-06-16T14:47:10Z</time>
      </trkpt>
      <trkpt lat="38.514806" lon="-0.609486">
        <ele>651.008</ele>
        <time>2019-06-16T14:47:12Z</time>
      </trkpt>
      <trkpt lat="38.514762" lon="-0.609444">
        <ele>651.444</ele>
        <time>2019-06-16T14:47:14Z</time>
      </trkpt>
      <trkpt lat="38.514719" lon="-0.609400">
        <ele>651.998</ele>
        <time>2019-06-16T14:47:16Z</time>
      </trkpt>
      <trkpt lat="38.514677" lon="-0.609351">
        <ele>652.847</ele>
        <time>2019-06-16T14:47:18Z</time>
      </trkpt>
      <trkpt lat="38.514639" lon="-0.609298">
        <ele>653.650</ele>
        <time>2019-06-16T14:47:20Z</time>
      </trkpt>
      <trkpt lat="38.514603" lon="-0.609245">
        <ele>654.312</ele>
        <time>2019-06-16T14:47:22Z</time>
      </trkpt>
      <trkpt lat="38.514564" lon="-0.609186">
        <ele>655.179</ele>
        <time>2019-06-16T14:47:26Z</time>
      </trkpt>
      <trkpt lat="38.514523" lon="-0.609119">
        <ele>655.528</ele>
        <time>2019-06-16T14:47:29Z</time>
      </trkpt>
      <trkpt lat="38.514491" lon="-0.609070">
        <ele>655.713</ele>
        <time>2019-06-16T14:47:31Z</time>
      </trkpt>
      <trkpt lat="38.514457" lon="-0.609020">
        <ele>655.781</ele>
        <time>2019-06-16T14:47:33Z</time>
      </trkpt>
      <trkpt lat="38.514422" lon="-0.608971">
        <ele>655.761</ele>
        <time>2019-06-16T14:47:35Z</time>
      </trkpt>
      <trkpt lat="38.514385" lon="-0.608920">
        <ele>655.817</ele>
        <time>2019-06-16T14:47:37Z</time>
      </trkpt>
      <trkpt lat="38.514345" lon="-0.608870">
        <ele>656.008</ele>
        <time>2019-06-16T14:47:39Z</time>
      </trkpt>
      <trkpt lat="38.514302" lon="-0.608819">
        <ele>656.371</ele>
        <time>2019-06-16T14:47:41Z</time>
      </trkpt>
      <trkpt lat="38.514260" lon="-0.608765">
        <ele>656.455</ele>
        <time>2019-06-16T14:47:43Z</time>
      </trkpt>
      <trkpt lat="38.514221" lon="-0.608708">
        <ele>656.124</ele>
        <time>2019-06-16T14:47:45Z</time>
      </trkpt>
      <trkpt lat="38.514186" lon="-0.608651">
        <ele>655.517</ele>
        <time>2019-06-16T14:47:47Z</time>
      </trkpt>
      <trkpt lat="38.514154" lon="-0.608596">
        <ele>655.369</ele>
        <time>2019-06-16T14:47:49Z</time>
      </trkpt>
      <trkpt lat="38.514125" lon="-0.608545">
        <ele>655.926</ele>
        <time>2019-06-16T14:47:51Z</time>
      </trkpt>
      <trkpt lat="38.514096" lon="-0.608494">
        <ele>656.545</ele>
        <time>2019-06-16T14:47:53Z</time>
      </trkpt>
      <trkpt lat="38.514066" lon="-0.608445">
        <ele>657.230</ele>
        <time>2019-06-16T14:47:55Z</time>
      </trkpt>
      <trkpt lat="38.514035" lon="-0.608396">
        <ele>657.834</ele>
        <time>2019-06-16T14:47:57Z</time>
      </trkpt>
      <trkpt lat="38.514003" lon="-0.608348">
        <ele>658.555</ele>
        <time>2019-06-16T14:47:59Z</time>
      </trkpt>
      <trkpt lat="38.513971" lon="-0.608303">
        <ele>659.010</ele>
        <time>2019-06-16T14:48:01Z</time>
      </trkpt>
      <trkpt lat="38.513928" lon="-0.608236">
        <ele>659.508</ele>
        <time>2019-06-16T14:48:04Z</time>
      </trkpt>
      <trkpt lat="38.513899" lon="-0.608188">
        <ele>659.856</ele>
        <time>2019-06-16T14:48:06Z</time>
      </trkpt>
      <trkpt lat="38.513871" lon="-0.608138">
        <ele>659.850</ele>
        <time>2019-06-16T14:48:08Z</time>
      </trkpt>
      <trkpt lat="38.513840" lon="-0.608078">
        <ele>659.929</ele>
        <time>2019-06-16T14:48:10Z</time>
      </trkpt>
      <trkpt lat="38.513809" lon="-0.608021">
        <ele>659.952</ele>
        <time>2019-06-16T14:48:12Z</time>
      </trkpt>
      <trkpt lat="38.513775" lon="-0.607968">
        <ele>660.094</ele>
        <time>2019-06-16T14:48:14Z</time>
      </trkpt>
      <trkpt lat="38.513740" lon="-0.607919">
        <ele>660.291</ele>
        <time>2019-06-16T14:48:16Z</time>
      </trkpt>
      <trkpt lat="38.513709" lon="-0.607877">
        <ele>660.320</ele>
        <time>2019-06-16T14:48:19Z</time>
      </trkpt>
      <trkpt lat="38.513668" lon="-0.607812">
        <ele>660.425</ele>
        <time>2019-06-16T14:48:22Z</time>
      </trkpt>
      <trkpt lat="38.513635" lon="-0.607763">
        <ele>660.616</ele>
        <time>2019-06-16T14:48:24Z</time>
      </trkpt>
      <trkpt lat="38.513604" lon="-0.607711">
        <ele>661.276</ele>
        <time>2019-06-16T14:48:26Z</time>
      </trkpt>
      <trkpt lat="38.513573" lon="-0.607658">
        <ele>661.813</ele>
        <time>2019-06-16T14:48:28Z</time>
      </trkpt>
      <trkpt lat="38.513541" lon="-0.607607">
        <ele>662.508</ele>
        <time>2019-06-16T14:48:30Z</time>
      </trkpt>
      <trkpt lat="38.513507" lon="-0.607557">
        <ele>663.294</ele>
        <time>2019-06-16T14:48:32Z</time>
      </trkpt>
      <trkpt lat="38.513472" lon="-0.607509">
        <ele>664.058</ele>
        <time>2019-06-16T14:48:34Z</time>
      </trkpt>
      <trkpt lat="38.513436" lon="-0.607459">
        <ele>664.577</ele>
        <time>2019-06-16T14:48:36Z</time>
      </trkpt>
      <trkpt lat="38.513403" lon="-0.607419">
        <ele>665.060</ele>
        <time>2019-06-16T14:48:38Z</time>
      </trkpt>
      <trkpt lat="38.513363" lon="-0.607380">
        <ele>665.542</ele>
        <time>2019-06-16T14:48:40Z</time>
      </trkpt>
      <trkpt lat="38.513323" lon="-0.607344">
        <ele>665.949</ele>
        <time>2019-06-16T14:48:42Z</time>
      </trkpt>
      <trkpt lat="38.513285" lon="-0.607310">
        <ele>665.988</ele>
        <time>2019-06-16T14:48:44Z</time>
      </trkpt>
      <trkpt lat="38.513245" lon="-0.607269">
        <ele>665.913</ele>
        <time>2019-06-16T14:48:46Z</time>
      </trkpt>
      <trkpt lat="38.513205" lon="-0.607225">
        <ele>665.999</ele>
        <time>2019-06-16T14:48:48Z</time>
      </trkpt>
      <trkpt lat="38.513166" lon="-0.607188">
        <ele>666.107</ele>
        <time>2019-06-16T14:48:50Z</time>
      </trkpt>
      <trkpt lat="38.513121" lon="-0.607152">
        <ele>666.327</ele>
        <time>2019-06-16T14:48:52Z</time>
      </trkpt>
      <trkpt lat="38.513069" lon="-0.607107">
        <ele>666.508</ele>
        <time>2019-06-16T14:48:54Z</time>
      </trkpt>
      <trkpt lat="38.513017" lon="-0.607056">
        <ele>666.982</ele>
        <time>2019-06-16T14:48:56Z</time>
      </trkpt>
      <trkpt lat="38.512964" lon="-0.606997">
        <ele>667.416</ele>
        <time>2019-06-16T14:48:58Z</time>
      </trkpt>
      <trkpt lat="38.512905" lon="-0.606953">
        <ele>668.225</ele>
        <time>2019-06-16T14:49:00Z</time>
      </trkpt>
      <trkpt lat="38.512846" lon="-0.606900">
        <ele>669.018</ele>
        <time>2019-06-16T14:49:02Z</time>
      </trkpt>
      <trkpt lat="38.512785" lon="-0.606848">
        <ele>669.940</ele>
        <time>2019-06-16T14:49:04Z</time>
      </trkpt>
      <trkpt lat="38.512725" lon="-0.606796">
        <ele>670.587</ele>
        <time>2019-06-16T14:49:06Z</time>
      </trkpt>
      <trkpt lat="38.512666" lon="-0.606742">
        <ele>670.986</ele>
        <time>2019-06-16T14:49:08Z</time>
      </trkpt>
      <trkpt lat="38.512599" lon="-0.606677">
        <ele>671.361</ele>
        <time>2019-06-16T14:49:09Z</time>
      </trkpt>
      <trkpt lat="38.512539" lon="-0.606613">
        <ele>671.253</ele>
        <time>2019-06-16T14:49:11Z</time>
      </trkpt>
      <trkpt lat="38.512473" lon="-0.606560">
        <ele>671.004</ele>
        <time>2019-06-16T14:49:13Z</time>
      </trkpt>
      <trkpt lat="38.512410" lon="-0.606493">
        <ele>670.714</ele>
        <time>2019-06-16T14:49:15Z</time>
      </trkpt>
      <trkpt lat="38.512340" lon="-0.606445">
        <ele>670.608</ele>
        <time>2019-06-16T14:49:17Z</time>
      </trkpt>
      <trkpt lat="38.512267" lon="-0.606394">
        <ele>670.778</ele>
        <time>2019-06-16T14:49:19Z</time>
      </trkpt>
      <trkpt lat="38.512220" lon="-0.606323">
        <ele>670.382</ele>
        <time>2019-06-16T14:49:21Z</time>
      </trkpt>
      <trkpt lat="38.512157" lon="-0.606267">
        <ele>670.351</ele>
        <time>2019-06-16T14:49:23Z</time>
      </trkpt>
      <trkpt lat="38.512103" lon="-0.606198">
        <ele>669.974</ele>
        <time>2019-06-16T14:49:25Z</time>
      </trkpt>
      <trkpt lat="38.512066" lon="-0.606147">
        <ele>669.686</ele>
        <time>2019-06-16T14:49:27Z</time>
      </trkpt>
      <trkpt lat="38.512035" lon="-0.606095">
        <ele>669.233</ele>
        <time>2019-06-16T14:49:29Z</time>
      </trkpt>
      <trkpt lat="38.511978" lon="-0.605983">
        <ele>668.722</ele>
        <time>2019-06-16T14:49:31Z</time>
      </trkpt>
      <trkpt lat="38.511942" lon="-0.605901">
        <ele>668.567</ele>
        <time>2019-06-16T14:49:33Z</time>
      </trkpt>
      <trkpt lat="38.511900" lon="-0.605813">
        <ele>667.911</ele>
        <time>2019-06-16T14:49:35Z</time>
      </trkpt>
      <trkpt lat="38.511855" lon="-0.605727">
        <ele>667.021</ele>
        <time>2019-06-16T14:49:37Z</time>
      </trkpt>
      <trkpt lat="38.511808" lon="-0.605643">
        <ele>666.403</ele>
        <time>2019-06-16T14:49:39Z</time>
      </trkpt>
      <trkpt lat="38.511771" lon="-0.605582">
        <ele>666.108</ele>
        <time>2019-06-16T14:49:41Z</time>
      </trkpt>
      <trkpt lat="38.511713" lon="-0.605488">
        <ele>666.134</ele>
        <time>2019-06-16T14:49:43Z</time>
      </trkpt>
      <trkpt lat="38.511662" lon="-0.605415">
        <ele>666.138</ele>
        <time>2019-06-16T14:49:45Z</time>
      </trkpt>
      <trkpt lat="38.511588" lon="-0.605342">
        <ele>666.457</ele>
        <time>2019-06-16T14:49:47Z</time>
      </trkpt>
      <trkpt lat="38.511548" lon="-0.605293">
        <ele>666.410</ele>
        <time>2019-06-16T14:49:48Z</time>
      </trkpt>
      <trkpt lat="38.511510" lon="-0.605252">
        <ele>666.342</ele>
        <time>2019-06-16T14:49:49Z</time>
      </trkpt>
      <trkpt lat="38.511443" lon="-0.605174">
        <ele>665.589</ele>
        <time>2019-06-16T14:49:51Z</time>
      </trkpt>
      <trkpt lat="38.511391" lon="-0.605109">
        <ele>664.488</ele>
        <time>2019-06-16T14:49:53Z</time>
      </trkpt>
      <trkpt lat="38.511357" lon="-0.605069">
        <ele>663.843</ele>
        <time>2019-06-16T14:49:54Z</time>
      </trkpt>
      <trkpt lat="38.511320" lon="-0.605036">
        <ele>663.525</ele>
        <time>2019-06-16T14:49:55Z</time>
      </trkpt>
      <trkpt lat="38.511270" lon="-0.605018">
        <ele>663.626</ele>
        <time>2019-06-16T14:49:56Z</time>
      </trkpt>
      <trkpt lat="38.511206" lon="-0.604947">
        <ele>663.508</ele>
        <time>2019-06-16T14:49:58Z</time>
      </trkpt>
      <trkpt lat="38.511102" lon="-0.604790">
        <ele>663.808</ele>
        <time>2019-06-16T14:50:02Z</time>
      </trkpt>
      <trkpt lat="38.511076" lon="-0.604703">
        <ele>664.675</ele>
        <time>2019-06-16T14:50:04Z</time>
      </trkpt>
      <trkpt lat="38.511044" lon="-0.604649">
        <ele>666.259</ele>
        <time>2019-06-16T14:50:05Z</time>
      </trkpt>
      <trkpt lat="38.511030" lon="-0.604581">
        <ele>667.048</ele>
        <time>2019-06-16T14:50:08Z</time>
      </trkpt>
      <trkpt lat="38.511038" lon="-0.604441">
        <ele>667.131</ele>
        <time>2019-06-16T14:50:09Z</time>
      </trkpt>
      <trkpt lat="38.511053" lon="-0.604379">
        <ele>665.823</ele>
        <time>2019-06-16T14:50:10Z</time>
      </trkpt>
      <trkpt lat="38.511053" lon="-0.604286">
        <ele>664.880</ele>
        <time>2019-06-16T14:50:12Z</time>
      </trkpt>
      <trkpt lat="38.511063" lon="-0.604170">
        <ele>663.159</ele>
        <time>2019-06-16T14:50:14Z</time>
      </trkpt>
      <trkpt lat="38.511188" lon="-0.604033">
        <ele>660.184</ele>
        <time>2019-06-16T14:50:15Z</time>
      </trkpt>
      <trkpt lat="38.511203" lon="-0.603916">
        <ele>660.077</ele>
        <time>2019-06-16T14:50:16Z</time>
      </trkpt>
      <trkpt lat="38.511226" lon="-0.603843">
        <ele>659.861</ele>
        <time>2019-06-16T14:50:17Z</time>
      </trkpt>
      <trkpt lat="38.511231" lon="-0.603762">
        <ele>660.127</ele>
        <time>2019-06-16T14:50:18Z</time>
      </trkpt>
      <trkpt lat="38.511243" lon="-0.603645">
        <ele>660.408</ele>
        <time>2019-06-16T14:50:20Z</time>
      </trkpt>
      <trkpt lat="38.511243" lon="-0.603568">
        <ele>661.150</ele>
        <time>2019-06-16T14:50:21Z</time>
      </trkpt>
      <trkpt lat="38.511230" lon="-0.603482">
        <ele>662.314</ele>
        <time>2019-06-16T14:50:22Z</time>
      </trkpt>
      <trkpt lat="38.511233" lon="-0.603403">
        <ele>663.183</ele>
        <time>2019-06-16T14:50:23Z</time>
      </trkpt>
      <trkpt lat="38.511261" lon="-0.603327">
        <ele>663.366</ele>
        <time>2019-06-16T14:50:24Z</time>
      </trkpt>
      <trkpt lat="38.511281" lon="-0.603245">
        <ele>662.958</ele>
        <time>2019-06-16T14:50:25Z</time>
      </trkpt>
      <trkpt lat="38.511301" lon="-0.603145">
        <ele>662.675</ele>
        <time>2019-06-16T14:50:26Z</time>
      </trkpt>
      <trkpt lat="38.511304" lon="-0.603060">
        <ele>662.594</ele>
        <time>2019-06-16T14:50:27Z</time>
      </trkpt>
      <trkpt lat="38.511310" lon="-0.602979">
        <ele>661.969</ele>
        <time>2019-06-16T14:50:28Z</time>
      </trkpt>
      <trkpt lat="38.511306" lon="-0.602901">
        <ele>661.431</ele>
        <time>2019-06-16T14:50:29Z</time>
      </trkpt>
      <trkpt lat="38.511313" lon="-0.602811">
        <ele>660.661</ele>
        <time>2019-06-16T14:50:30Z</time>
      </trkpt>
      <trkpt lat="38.511306" lon="-0.602750">
        <ele>659.907</ele>
        <time>2019-06-16T14:50:31Z</time>
      </trkpt>
      <trkpt lat="38.511287" lon="-0.602684">
        <ele>658.708</ele>
        <time>2019-06-16T14:50:32Z</time>
      </trkpt>
      <trkpt lat="38.511239" lon="-0.602623">
        <ele>657.766</ele>
        <time>2019-06-16T14:50:33Z</time>
      </trkpt>
      <trkpt lat="38.511167" lon="-0.602557">
        <ele>656.530</ele>
        <time>2019-06-16T14:50:34Z</time>
      </trkpt>
      <trkpt lat="38.511104" lon="-0.602501">
        <ele>655.229</ele>
        <time>2019-06-16T14:50:35Z</time>
      </trkpt>
      <trkpt lat="38.511046" lon="-0.602435">
        <ele>654.792</ele>
        <time>2019-06-16T14:50:36Z</time>
      </trkpt>
      <trkpt lat="38.510907" lon="-0.602427">
        <ele>657.954</ele>
        <time>2019-06-16T14:50:37Z</time>
      </trkpt>
      <trkpt lat="38.510892" lon="-0.602368">
        <ele>657.121</ele>
        <time>2019-06-16T14:50:38Z</time>
      </trkpt>
      <trkpt lat="38.510843" lon="-0.602315">
        <ele>657.430</ele>
        <time>2019-06-16T14:50:39Z</time>
      </trkpt>
      <trkpt lat="38.510779" lon="-0.602277">
        <ele>658.015</ele>
        <time>2019-06-16T14:50:40Z</time>
      </trkpt>
      <trkpt lat="38.510698" lon="-0.602224">
        <ele>658.948</ele>
        <time>2019-06-16T14:50:41Z</time>
      </trkpt>
      <trkpt lat="38.510628" lon="-0.602268">
        <ele>660.961</ele>
        <time>2019-06-16T14:50:42Z</time>
      </trkpt>
      <trkpt lat="38.510543" lon="-0.602255">
        <ele>662.217</ele>
        <time>2019-06-16T14:50:43Z</time>
      </trkpt>
      <trkpt lat="38.510486" lon="-0.602245">
        <ele>661.908</ele>
        <time>2019-06-16T14:50:44Z</time>
      </trkpt>
      <trkpt lat="38.510424" lon="-0.602200">
        <ele>661.187</ele>
        <time>2019-06-16T14:50:45Z</time>
      </trkpt>
      <trkpt lat="38.510353" lon="-0.602196">
        <ele>660.881</ele>
        <time>2019-06-16T14:50:46Z</time>
      </trkpt>
      <trkpt lat="38.510290" lon="-0.602164">
        <ele>660.030</ele>
        <time>2019-06-16T14:50:47Z</time>
      </trkpt>
      <trkpt lat="38.510206" lon="-0.602136">
        <ele>658.313</ele>
        <time>2019-06-16T14:50:48Z</time>
      </trkpt>
      <trkpt lat="38.510114" lon="-0.602165">
        <ele>657.555</ele>
        <time>2019-06-16T14:50:49Z</time>
      </trkpt>
      <trkpt lat="38.510034" lon="-0.602186">
        <ele>656.782</ele>
        <time>2019-06-16T14:50:50Z</time>
      </trkpt>
      <trkpt lat="38.509977" lon="-0.602214">
        <ele>656.011</ele>
        <time>2019-06-16T14:50:51Z</time>
      </trkpt>
      <trkpt lat="38.509906" lon="-0.602270">
        <ele>654.026</ele>
        <time>2019-06-16T14:50:52Z</time>
      </trkpt>
      <trkpt lat="38.509826" lon="-0.602311">
        <ele>651.647</ele>
        <time>2019-06-16T14:50:53Z</time>
      </trkpt>
      <trkpt lat="38.509788" lon="-0.602390">
        <ele>651.029</ele>
        <time>2019-06-16T14:50:54Z</time>
      </trkpt>
      <trkpt lat="38.509740" lon="-0.602442">
        <ele>650.021</ele>
        <time>2019-06-16T14:50:55Z</time>
      </trkpt>
      <trkpt lat="38.509730" lon="-0.602604">
        <ele>651.008</ele>
        <time>2019-06-16T14:50:56Z</time>
      </trkpt>
      <trkpt lat="38.509725" lon="-0.602694">
        <ele>651.567</ele>
        <time>2019-06-16T14:50:57Z</time>
      </trkpt>
      <trkpt lat="38.509727" lon="-0.602785">
        <ele>652.231</ele>
        <time>2019-06-16T14:50:58Z</time>
      </trkpt>
      <trkpt lat="38.509699" lon="-0.602887">
        <ele>651.610</ele>
        <time>2019-06-16T14:50:59Z</time>
      </trkpt>
      <trkpt lat="38.509696" lon="-0.602977">
        <ele>651.913</ele>
        <time>2019-06-16T14:51:00Z</time>
      </trkpt>
      <trkpt lat="38.509703" lon="-0.603092">
        <ele>652.825</ele>
        <time>2019-06-16T14:51:01Z</time>
      </trkpt>
      <trkpt lat="38.509690" lon="-0.603201">
        <ele>653.712</ele>
        <time>2019-06-16T14:51:02Z</time>
      </trkpt>
      <trkpt lat="38.509667" lon="-0.603304">
        <ele>654.381</ele>
        <time>2019-06-16T14:51:03Z</time>
      </trkpt>
      <trkpt lat="38.509638" lon="-0.603407">
        <ele>655.256</ele>
        <time>2019-06-16T14:51:04Z</time>
      </trkpt>
      <trkpt lat="38.509607" lon="-0.603495">
        <ele>656.113</ele>
        <time>2019-06-16T14:51:05Z</time>
      </trkpt>
      <trkpt lat="38.509579" lon="-0.603576">
        <ele>657.243</ele>
        <time>2019-06-16T14:51:06Z</time>
      </trkpt>
      <trkpt lat="38.509454" lon="-0.603599">
        <ele>655.807</ele>
        <time>2019-06-16T14:51:07Z</time>
      </trkpt>
      <trkpt lat="38.509370" lon="-0.603624">
        <ele>656.708</ele>
        <time>2019-06-16T14:51:08Z</time>
      </trkpt>
      <trkpt lat="38.509297" lon="-0.603642">
        <ele>657.824</ele>
        <time>2019-06-16T14:51:09Z</time>
      </trkpt>
      <trkpt lat="38.509206" lon="-0.603603">
        <ele>656.628</ele>
        <time>2019-06-16T14:51:10Z</time>
      </trkpt>
      <trkpt lat="38.509113" lon="-0.603528">
        <ele>654.847</ele>
        <time>2019-06-16T14:51:11Z</time>
      </trkpt>
      <trkpt lat="38.509053" lon="-0.603501">
        <ele>654.550</ele>
        <time>2019-06-16T14:51:12Z</time>
      </trkpt>
      <trkpt lat="38.508993" lon="-0.603429">
        <ele>651.732</ele>
        <time>2019-06-16T14:51:13Z</time>
      </trkpt>
      <trkpt lat="38.508944" lon="-0.603322">
        <ele>646.889</ele>
        <time>2019-06-16T14:51:14Z</time>
      </trkpt>
      <trkpt lat="38.508893" lon="-0.603227">
        <ele>645.568</ele>
        <time>2019-06-16T14:51:15Z</time>
      </trkpt>
      <trkpt lat="38.508804" lon="-0.603135">
        <ele>646.163</ele>
        <time>2019-06-16T14:51:16Z</time>
      </trkpt>
      <trkpt lat="38.508718" lon="-0.603043">
        <ele>645.886</ele>
        <time>2019-06-16T14:51:17Z</time>
      </trkpt>
      <trkpt lat="38.508636" lon="-0.602962">
        <ele>644.960</ele>
        <time>2019-06-16T14:51:18Z</time>
      </trkpt>
      <trkpt lat="38.508527" lon="-0.602918">
        <ele>647.126</ele>
        <time>2019-06-16T14:51:19Z</time>
      </trkpt>
      <trkpt lat="38.508464" lon="-0.602822">
        <ele>646.608</ele>
        <time>2019-06-16T14:51:20Z</time>
      </trkpt>
      <trkpt lat="38.508383" lon="-0.602752">
        <ele>647.821</ele>
        <time>2019-06-16T14:51:21Z</time>
      </trkpt>
      <trkpt lat="38.508308" lon="-0.602741">
        <ele>649.975</ele>
        <time>2019-06-16T14:51:22Z</time>
      </trkpt>
      <trkpt lat="38.508259" lon="-0.602672">
        <ele>649.524</ele>
        <time>2019-06-16T14:51:23Z</time>
      </trkpt>
      <trkpt lat="38.508178" lon="-0.602612">
        <ele>649.737</ele>
        <time>2019-06-16T14:51:24Z</time>
      </trkpt>
      <trkpt lat="38.508112" lon="-0.602599">
        <ele>650.539</ele>
        <time>2019-06-16T14:51:25Z</time>
      </trkpt>
      <trkpt lat="38.508055" lon="-0.602592">
        <ele>651.356</ele>
        <time>2019-06-16T14:51:26Z</time>
      </trkpt>
      <trkpt lat="38.508001" lon="-0.602543">
        <ele>650.765</ele>
        <time>2019-06-16T14:51:27Z</time>
      </trkpt>
      <trkpt lat="38.507932" lon="-0.602523">
        <ele>651.080</ele>
        <time>2019-06-16T14:51:28Z</time>
      </trkpt>
      <trkpt lat="38.507867" lon="-0.602501">
        <ele>651.124</ele>
        <time>2019-06-16T14:51:29Z</time>
      </trkpt>
      <trkpt lat="38.507804" lon="-0.602447">
        <ele>650.004</ele>
        <time>2019-06-16T14:51:30Z</time>
      </trkpt>
      <trkpt lat="38.507745" lon="-0.602388">
        <ele>648.814</ele>
        <time>2019-06-16T14:51:31Z</time>
      </trkpt>
      <trkpt lat="38.507684" lon="-0.602335">
        <ele>647.808</ele>
        <time>2019-06-16T14:51:32Z</time>
      </trkpt>
      <trkpt lat="38.507622" lon="-0.602281">
        <ele>646.775</ele>
        <time>2019-06-16T14:51:33Z</time>
      </trkpt>
      <trkpt lat="38.507564" lon="-0.602230">
        <ele>645.679</ele>
        <time>2019-06-16T14:51:34Z</time>
      </trkpt>
      <trkpt lat="38.507510" lon="-0.602175">
        <ele>644.588</ele>
        <time>2019-06-16T14:51:35Z</time>
      </trkpt>
      <trkpt lat="38.507443" lon="-0.602150">
        <ele>644.811</ele>
        <time>2019-06-16T14:51:36Z</time>
      </trkpt>
      <trkpt lat="38.507380" lon="-0.602136">
        <ele>645.483</ele>
        <time>2019-06-16T14:51:37Z</time>
      </trkpt>
      <trkpt lat="38.507316" lon="-0.602135">
        <ele>646.320</ele>
        <time>2019-06-16T14:51:38Z</time>
      </trkpt>
      <trkpt lat="38.507258" lon="-0.602145">
        <ele>647.569</ele>
        <time>2019-06-16T14:51:39Z</time>
      </trkpt>
      <trkpt lat="38.507204" lon="-0.602145">
        <ele>648.564</ele>
        <time>2019-06-16T14:51:40Z</time>
      </trkpt>
      <trkpt lat="38.507147" lon="-0.602144">
        <ele>649.899</ele>
        <time>2019-06-16T14:51:41Z</time>
      </trkpt>
      <trkpt lat="38.507095" lon="-0.602144">
        <ele>651.107</ele>
        <time>2019-06-16T14:51:42Z</time>
      </trkpt>
      <trkpt lat="38.507035" lon="-0.602140">
        <ele>652.427</ele>
        <time>2019-06-16T14:51:43Z</time>
      </trkpt>
      <trkpt lat="38.506983" lon="-0.602131">
        <ele>653.408</ele>
        <time>2019-06-16T14:51:44Z</time>
      </trkpt>
      <trkpt lat="38.506932" lon="-0.602123">
        <ele>654.292</ele>
        <time>2019-06-16T14:51:45Z</time>
      </trkpt>
      <trkpt lat="38.506879" lon="-0.602111">
        <ele>653.816</ele>
        <time>2019-06-16T14:51:46Z</time>
      </trkpt>
      <trkpt lat="38.506823" lon="-0.602094">
        <ele>653.395</ele>
        <time>2019-06-16T14:51:47Z</time>
      </trkpt>
      <trkpt lat="38.506772" lon="-0.602074">
        <ele>652.778</ele>
        <time>2019-06-16T14:51:48Z</time>
      </trkpt>
      <trkpt lat="38.506719" lon="-0.602033">
        <ele>651.380</ele>
        <time>2019-06-16T14:51:49Z</time>
      </trkpt>
      <trkpt lat="38.506674" lon="-0.602020">
        <ele>650.787</ele>
        <time>2019-06-16T14:51:50Z</time>
      </trkpt>
      <trkpt lat="38.506621" lon="-0.601978">
        <ele>649.786</ele>
        <time>2019-06-16T14:51:51Z</time>
      </trkpt>
      <trkpt lat="38.506565" lon="-0.601957">
        <ele>649.661</ele>
        <time>2019-06-16T14:51:52Z</time>
      </trkpt>
      <trkpt lat="38.506504" lon="-0.601918">
        <ele>648.729</ele>
        <time>2019-06-16T14:51:53Z</time>
      </trkpt>
      <trkpt lat="38.506444" lon="-0.601877">
        <ele>647.500</ele>
        <time>2019-06-16T14:51:54Z</time>
      </trkpt>
      <trkpt lat="38.506385" lon="-0.601819">
        <ele>645.720</ele>
        <time>2019-06-16T14:51:55Z</time>
      </trkpt>
      <trkpt lat="38.506326" lon="-0.601821">
        <ele>647.208</ele>
        <time>2019-06-16T14:51:56Z</time>
      </trkpt>
      <trkpt lat="38.506262" lon="-0.601767">
        <ele>646.095</ele>
        <time>2019-06-16T14:51:57Z</time>
      </trkpt>
      <trkpt lat="38.506190" lon="-0.601746">
        <ele>646.379</ele>
        <time>2019-06-16T14:51:58Z</time>
      </trkpt>
      <trkpt lat="38.506124" lon="-0.601731">
        <ele>646.748</ele>
        <time>2019-06-16T14:51:59Z</time>
      </trkpt>
      <trkpt lat="38.506049" lon="-0.601658">
        <ele>643.861</ele>
        <time>2019-06-16T14:52:00Z</time>
      </trkpt>
      <trkpt lat="38.505978" lon="-0.601615">
        <ele>643.573</ele>
        <time>2019-06-16T14:52:01Z</time>
      </trkpt>
      <trkpt lat="38.505910" lon="-0.601549">
        <ele>641.780</ele>
        <time>2019-06-16T14:52:02Z</time>
      </trkpt>
      <trkpt lat="38.505851" lon="-0.601580">
        <ele>643.759</ele>
        <time>2019-06-16T14:52:03Z</time>
      </trkpt>
      <trkpt lat="38.505792" lon="-0.601540">
        <ele>642.914</ele>
        <time>2019-06-16T14:52:04Z</time>
      </trkpt>
      <trkpt lat="38.505728" lon="-0.601548">
        <ele>644.697</ele>
        <time>2019-06-16T14:52:05Z</time>
      </trkpt>
      <trkpt lat="38.505662" lon="-0.601514">
        <ele>644.223</ele>
        <time>2019-06-16T14:52:06Z</time>
      </trkpt>
      <trkpt lat="38.505604" lon="-0.601472">
        <ele>642.925</ele>
        <time>2019-06-16T14:52:07Z</time>
      </trkpt>
      <trkpt lat="38.505545" lon="-0.601434">
        <ele>641.808</ele>
        <time>2019-06-16T14:52:08Z</time>
      </trkpt>
      <trkpt lat="38.505486" lon="-0.601379">
        <ele>640.292</ele>
        <time>2019-06-16T14:52:09Z</time>
      </trkpt>
      <trkpt lat="38.505423" lon="-0.601410">
        <ele>643.036</ele>
        <time>2019-06-16T14:52:10Z</time>
      </trkpt>
      <trkpt lat="38.505354" lon="-0.601412">
        <ele>644.525</ele>
        <time>2019-06-16T14:52:11Z</time>
      </trkpt>
      <trkpt lat="38.505285" lon="-0.601398">
        <ele>645.348</ele>
        <time>2019-06-16T14:52:12Z</time>
      </trkpt>
      <trkpt lat="38.505227" lon="-0.601356">
        <ele>644.910</ele>
        <time>2019-06-16T14:52:13Z</time>
      </trkpt>
      <trkpt lat="38.505162" lon="-0.601338">
        <ele>645.577</ele>
        <time>2019-06-16T14:52:14Z</time>
      </trkpt>
      <trkpt lat="38.505108" lon="-0.601315">
        <ele>645.726</ele>
        <time>2019-06-16T14:52:15Z</time>
      </trkpt>
      <trkpt lat="38.505052" lon="-0.601296">
        <ele>646.211</ele>
        <time>2019-06-16T14:52:16Z</time>
      </trkpt>
      <trkpt lat="38.504995" lon="-0.601261">
        <ele>646.355</ele>
        <time>2019-06-16T14:52:17Z</time>
      </trkpt>
      <trkpt lat="38.504944" lon="-0.601217">
        <ele>645.407</ele>
        <time>2019-06-16T14:52:18Z</time>
      </trkpt>
      <trkpt lat="38.504897" lon="-0.601201">
        <ele>645.217</ele>
        <time>2019-06-16T14:52:19Z</time>
      </trkpt>
      <trkpt lat="38.504838" lon="-0.601180">
        <ele>644.808</ele>
        <time>2019-06-16T14:52:20Z</time>
      </trkpt>
      <trkpt lat="38.504783" lon="-0.601147">
        <ele>644.058</ele>
        <time>2019-06-16T14:52:21Z</time>
      </trkpt>
      <trkpt lat="38.504733" lon="-0.601123">
        <ele>643.372</ele>
        <time>2019-06-16T14:52:22Z</time>
      </trkpt>
      <trkpt lat="38.504680" lon="-0.601101">
        <ele>643.391</ele>
        <time>2019-06-16T14:52:23Z</time>
      </trkpt>
      <trkpt lat="38.504625" lon="-0.601077">
        <ele>643.534</ele>
        <time>2019-06-16T14:52:24Z</time>
      </trkpt>
      <trkpt lat="38.504565" lon="-0.601049">
        <ele>643.866</ele>
        <time>2019-06-16T14:52:25Z</time>
      </trkpt>
      <trkpt lat="38.504509" lon="-0.601037">
        <ele>644.443</ele>
        <time>2019-06-16T14:52:26Z</time>
      </trkpt>
      <trkpt lat="38.504456" lon="-0.601015">
        <ele>644.892</ele>
        <time>2019-06-16T14:52:27Z</time>
      </trkpt>
      <trkpt lat="38.504407" lon="-0.600997">
        <ele>644.847</ele>
        <time>2019-06-16T14:52:28Z</time>
      </trkpt>
      <trkpt lat="38.504357" lon="-0.600990">
        <ele>644.992</ele>
        <time>2019-06-16T14:52:29Z</time>
      </trkpt>
      <trkpt lat="38.504310" lon="-0.600980">
        <ele>644.873</ele>
        <time>2019-06-16T14:52:30Z</time>
      </trkpt>
      <trkpt lat="38.504259" lon="-0.600978">
        <ele>644.920</ele>
        <time>2019-06-16T14:52:31Z</time>
      </trkpt>
      <trkpt lat="38.504207" lon="-0.600953">
        <ele>644.708</ele>
        <time>2019-06-16T14:52:32Z</time>
      </trkpt>
      <trkpt lat="38.504155" lon="-0.600949">
        <ele>644.592</ele>
        <time>2019-06-16T14:52:33Z</time>
      </trkpt>
      <trkpt lat="38.504102" lon="-0.600944">
        <ele>643.956</ele>
        <time>2019-06-16T14:52:34Z</time>
      </trkpt>
      <trkpt lat="38.504053" lon="-0.600948">
        <ele>643.475</ele>
        <time>2019-06-16T14:52:35Z</time>
      </trkpt>
      <trkpt lat="38.504009" lon="-0.600976">
        <ele>643.488</ele>
        <time>2019-06-16T14:52:36Z</time>
      </trkpt>
      <trkpt lat="38.503961" lon="-0.600992">
        <ele>643.180</ele>
        <time>2019-06-16T14:52:37Z</time>
      </trkpt>
      <trkpt lat="38.503917" lon="-0.601021">
        <ele>643.047</ele>
        <time>2019-06-16T14:52:38Z</time>
      </trkpt>
      <trkpt lat="38.503878" lon="-0.601057">
        <ele>643.026</ele>
        <time>2019-06-16T14:52:39Z</time>
      </trkpt>
      <trkpt lat="38.503839" lon="-0.601091">
        <ele>642.831</ele>
        <time>2019-06-16T14:52:40Z</time>
      </trkpt>
      <trkpt lat="38.503797" lon="-0.601122">
        <ele>642.517</ele>
        <time>2019-06-16T14:52:41Z</time>
      </trkpt>
      <trkpt lat="38.503748" lon="-0.601159">
        <ele>642.187</ele>
        <time>2019-06-16T14:52:42Z</time>
      </trkpt>
      <trkpt lat="38.503697" lon="-0.601199">
        <ele>641.615</ele>
        <time>2019-06-16T14:52:43Z</time>
      </trkpt>
      <trkpt lat="38.503654" lon="-0.601237">
        <ele>641.208</ele>
        <time>2019-06-16T14:52:44Z</time>
      </trkpt>
      <trkpt lat="38.503586" lon="-0.601317">
        <ele>641.054</ele>
        <time>2019-06-16T14:52:46Z</time>
      </trkpt>
      <trkpt lat="38.503546" lon="-0.601354">
        <ele>641.118</ele>
        <time>2019-06-16T14:52:47Z</time>
      </trkpt>
      <trkpt lat="38.503506" lon="-0.601391">
        <ele>641.377</ele>
        <time>2019-06-16T14:52:48Z</time>
      </trkpt>
      <trkpt lat="38.503456" lon="-0.601427">
        <ele>642.320</ele>
        <time>2019-06-16T14:52:49Z</time>
      </trkpt>
      <trkpt lat="38.503415" lon="-0.601457">
        <ele>643.042</ele>
        <time>2019-06-16T14:52:50Z</time>
      </trkpt>
      <trkpt lat="38.503364" lon="-0.601527">
        <ele>645.249</ele>
        <time>2019-06-16T14:52:52Z</time>
      </trkpt>
      <trkpt lat="38.503279" lon="-0.601599">
        <ele>647.038</ele>
        <time>2019-06-16T14:52:54Z</time>
      </trkpt>
      <trkpt lat="38.503192" lon="-0.601654">
        <ele>648.083</ele>
        <time>2019-06-16T14:52:56Z</time>
      </trkpt>
      <trkpt lat="38.503134" lon="-0.601682">
        <ele>648.119</ele>
        <time>2019-06-16T14:52:57Z</time>
      </trkpt>
      <trkpt lat="38.503086" lon="-0.601725">
        <ele>648.209</ele>
        <time>2019-06-16T14:52:58Z</time>
      </trkpt>
      <trkpt lat="38.503035" lon="-0.601762">
        <ele>648.019</ele>
        <time>2019-06-16T14:52:59Z</time>
      </trkpt>
      <trkpt lat="38.502987" lon="-0.601783">
        <ele>647.308</ele>
        <time>2019-06-16T14:53:00Z</time>
      </trkpt>
      <trkpt lat="38.502948" lon="-0.601824">
        <ele>647.124</ele>
        <time>2019-06-16T14:53:01Z</time>
      </trkpt>
      <trkpt lat="38.502905" lon="-0.601865">
        <ele>646.898</ele>
        <time>2019-06-16T14:53:02Z</time>
      </trkpt>
      <trkpt lat="38.502864" lon="-0.601928">
        <ele>646.727</ele>
        <time>2019-06-16T14:53:03Z</time>
      </trkpt>
      <trkpt lat="38.502810" lon="-0.601958">
        <ele>645.990</ele>
        <time>2019-06-16T14:53:04Z</time>
      </trkpt>
      <trkpt lat="38.502766" lon="-0.601995">
        <ele>645.692</ele>
        <time>2019-06-16T14:53:05Z</time>
      </trkpt>
      <trkpt lat="38.502715" lon="-0.602033">
        <ele>644.959</ele>
        <time>2019-06-16T14:53:06Z</time>
      </trkpt>
      <trkpt lat="38.502672" lon="-0.602080">
        <ele>644.488</ele>
        <time>2019-06-16T14:53:07Z</time>
      </trkpt>
      <trkpt lat="38.502612" lon="-0.602114">
        <ele>643.193</ele>
        <time>2019-06-16T14:53:08Z</time>
      </trkpt>
      <trkpt lat="38.502563" lon="-0.602156">
        <ele>642.254</ele>
        <time>2019-06-16T14:53:09Z</time>
      </trkpt>
      <trkpt lat="38.502526" lon="-0.602192">
        <ele>641.556</ele>
        <time>2019-06-16T14:53:10Z</time>
      </trkpt>
      <trkpt lat="38.502487" lon="-0.602241">
        <ele>641.011</ele>
        <time>2019-06-16T14:53:11Z</time>
      </trkpt>
      <trkpt lat="38.502431" lon="-0.602287">
        <ele>640.208</ele>
        <time>2019-06-16T14:53:12Z</time>
      </trkpt>
      <trkpt lat="38.502373" lon="-0.602342">
        <ele>639.558</ele>
        <time>2019-06-16T14:53:13Z</time>
      </trkpt>
      <trkpt lat="38.502325" lon="-0.602387">
        <ele>638.932</ele>
        <time>2019-06-16T14:53:14Z</time>
      </trkpt>
      <trkpt lat="38.502270" lon="-0.602398">
        <ele>637.551</ele>
        <time>2019-06-16T14:53:15Z</time>
      </trkpt>
      <trkpt lat="38.502219" lon="-0.602451">
        <ele>637.124</ele>
        <time>2019-06-16T14:53:16Z</time>
      </trkpt>
      <trkpt lat="38.502198" lon="-0.602515">
        <ele>638.056</ele>
        <time>2019-06-16T14:53:17Z</time>
      </trkpt>
      <trkpt lat="38.502176" lon="-0.602580">
        <ele>639.073</ele>
        <time>2019-06-16T14:53:18Z</time>
      </trkpt>
      <trkpt lat="38.502148" lon="-0.602647">
        <ele>639.872</ele>
        <time>2019-06-16T14:53:19Z</time>
      </trkpt>
      <trkpt lat="38.502086" lon="-0.602690">
        <ele>639.527</ele>
        <time>2019-06-16T14:53:20Z</time>
      </trkpt>
      <trkpt lat="38.502008" lon="-0.602724">
        <ele>638.534</ele>
        <time>2019-06-16T14:53:21Z</time>
      </trkpt>
      <trkpt lat="38.501991" lon="-0.602811">
        <ele>639.855</ele>
        <time>2019-06-16T14:53:22Z</time>
      </trkpt>
      <trkpt lat="38.501944" lon="-0.602874">
        <ele>640.410</ele>
        <time>2019-06-16T14:53:23Z</time>
      </trkpt>
      <trkpt lat="38.501867" lon="-0.602899">
        <ele>639.908</ele>
        <time>2019-06-16T14:53:24Z</time>
      </trkpt>
      <trkpt lat="38.501817" lon="-0.602946">
        <ele>640.486</ele>
        <time>2019-06-16T14:53:25Z</time>
      </trkpt>
      <trkpt lat="38.501751" lon="-0.602994">
        <ele>640.790</ele>
        <time>2019-06-16T14:53:26Z</time>
      </trkpt>
      <trkpt lat="38.501690" lon="-0.603051">
        <ele>641.269</ele>
        <time>2019-06-16T14:53:27Z</time>
      </trkpt>
      <trkpt lat="38.501618" lon="-0.603094">
        <ele>641.612</ele>
        <time>2019-06-16T14:53:28Z</time>
      </trkpt>
      <trkpt lat="38.501582" lon="-0.603132">
        <ele>642.164</ele>
        <time>2019-06-16T14:53:29Z</time>
      </trkpt>
      <trkpt lat="38.501514" lon="-0.603185">
        <ele>642.751</ele>
        <time>2019-06-16T14:53:30Z</time>
      </trkpt>
      <trkpt lat="38.501449" lon="-0.603240">
        <ele>643.030</ele>
        <time>2019-06-16T14:53:31Z</time>
      </trkpt>
      <trkpt lat="38.501387" lon="-0.603295">
        <ele>643.335</ele>
        <time>2019-06-16T14:53:32Z</time>
      </trkpt>
      <trkpt lat="38.501333" lon="-0.603346">
        <ele>642.873</ele>
        <time>2019-06-16T14:53:33Z</time>
      </trkpt>
      <trkpt lat="38.501264" lon="-0.603393">
        <ele>641.485</ele>
        <time>2019-06-16T14:53:34Z</time>
      </trkpt>
      <trkpt lat="38.501170" lon="-0.603444">
        <ele>639.613</ele>
        <time>2019-06-16T14:53:35Z</time>
      </trkpt>
      <trkpt lat="38.501127" lon="-0.603475">
        <ele>638.808</ele>
        <time>2019-06-16T14:53:36Z</time>
      </trkpt>
      <trkpt lat="38.501061" lon="-0.603480">
        <ele>637.360</ele>
        <time>2019-06-16T14:53:37Z</time>
      </trkpt>
      <trkpt lat="38.500961" lon="-0.603481">
        <ele>634.714</ele>
        <time>2019-06-16T14:53:38Z</time>
      </trkpt>
      <trkpt lat="38.500900" lon="-0.603529">
        <ele>633.473</ele>
        <time>2019-06-16T14:53:39Z</time>
      </trkpt>
      <trkpt lat="38.500848" lon="-0.603577">
        <ele>632.296</ele>
        <time>2019-06-16T14:53:40Z</time>
      </trkpt>
      <trkpt lat="38.500825" lon="-0.603665">
        <ele>632.248</ele>
        <time>2019-06-16T14:53:41Z</time>
      </trkpt>
      <trkpt lat="38.500807" lon="-0.603757">
        <ele>632.555</ele>
        <time>2019-06-16T14:53:42Z</time>
      </trkpt>
      <trkpt lat="38.500762" lon="-0.603812">
        <ele>632.114</ele>
        <time>2019-06-16T14:53:43Z</time>
      </trkpt>
      <trkpt lat="38.500720" lon="-0.603894">
        <ele>632.189</ele>
        <time>2019-06-16T14:53:44Z</time>
      </trkpt>
      <trkpt lat="38.500699" lon="-0.603974">
        <ele>633.478</ele>
        <time>2019-06-16T14:53:45Z</time>
      </trkpt>
      <trkpt lat="38.500682" lon="-0.604058">
        <ele>634.933</ele>
        <time>2019-06-16T14:53:46Z</time>
      </trkpt>
      <trkpt lat="38.500631" lon="-0.604111">
        <ele>635.226</ele>
        <time>2019-06-16T14:53:47Z</time>
      </trkpt>
      <trkpt lat="38.500564" lon="-0.604170">
        <ele>635.308</ele>
        <time>2019-06-16T14:53:48Z</time>
      </trkpt>
      <trkpt lat="38.500530" lon="-0.604259">
        <ele>637.760</ele>
        <time>2019-06-16T14:53:49Z</time>
      </trkpt>
      <trkpt lat="38.500490" lon="-0.604320">
        <ele>639.014</ele>
        <time>2019-06-16T14:53:50Z</time>
      </trkpt>
      <trkpt lat="38.500437" lon="-0.604371">
        <ele>639.583</ele>
        <time>2019-06-16T14:53:51Z</time>
      </trkpt>
      <trkpt lat="38.500382" lon="-0.604412">
        <ele>639.546</ele>
        <time>2019-06-16T14:53:52Z</time>
      </trkpt>
      <trkpt lat="38.500323" lon="-0.604432">
        <ele>638.738</ele>
        <time>2019-06-16T14:53:53Z</time>
      </trkpt>
      <trkpt lat="38.500274" lon="-0.604454">
        <ele>638.175</ele>
        <time>2019-06-16T14:53:54Z</time>
      </trkpt>
      <trkpt lat="38.500232" lon="-0.604487">
        <ele>638.084</ele>
        <time>2019-06-16T14:53:55Z</time>
      </trkpt>
      <trkpt lat="38.500163" lon="-0.604549">
        <ele>638.019</ele>
        <time>2019-06-16T14:53:57Z</time>
      </trkpt>
      <trkpt lat="38.500093" lon="-0.604611">
        <ele>638.175</ele>
        <time>2019-06-16T14:53:59Z</time>
      </trkpt>
      <trkpt lat="38.500054" lon="-0.604641">
        <ele>638.128</ele>
        <time>2019-06-16T14:54:00Z</time>
      </trkpt>
      <trkpt lat="38.500005" lon="-0.604630">
        <ele>637.120</ele>
        <time>2019-06-16T14:54:10Z</time>
      </trkpt>
      <trkpt lat="38.500053" lon="-0.604500">
        <ele>635.108</ele>
        <time>2019-06-16T14:54:14Z</time>
      </trkpt>
      <trkpt lat="38.500116" lon="-0.604429">
        <ele>634.850</ele>
        <time>2019-06-16T14:54:16Z</time>
      </trkpt>
      <trkpt lat="38.500178" lon="-0.604352">
        <ele>634.754</ele>
        <time>2019-06-16T14:54:18Z</time>
      </trkpt>
      <trkpt lat="38.500225" lon="-0.604269">
        <ele>634.093</ele>
        <time>2019-06-16T14:54:20Z</time>
      </trkpt>
      <trkpt lat="38.500279" lon="-0.604190">
        <ele>633.456</ele>
        <time>2019-06-16T14:54:22Z</time>
      </trkpt>
      <trkpt lat="38.500340" lon="-0.604101">
        <ele>632.238</ele>
        <time>2019-06-16T14:54:24Z</time>
      </trkpt>
      <trkpt lat="38.500369" lon="-0.604049">
        <ele>631.475</ele>
        <time>2019-06-16T14:54:25Z</time>
      </trkpt>
      <trkpt lat="38.500396" lon="-0.603988">
        <ele>630.484</ele>
        <time>2019-06-16T14:54:26Z</time>
      </trkpt>
      <trkpt lat="38.500426" lon="-0.603901">
        <ele>628.899</ele>
        <time>2019-06-16T14:54:27Z</time>
      </trkpt>
      <trkpt lat="38.500459" lon="-0.603818">
        <ele>628.035</ele>
        <time>2019-06-16T14:54:28Z</time>
      </trkpt>
      <trkpt lat="38.500491" lon="-0.603719">
        <ele>627.186</ele>
        <time>2019-06-16T14:54:29Z</time>
      </trkpt>
      <trkpt lat="38.500512" lon="-0.603632">
        <ele>626.214</ele>
        <time>2019-06-16T14:54:30Z</time>
      </trkpt>
      <trkpt lat="38.500591" lon="-0.603520">
        <ele>627.008</ele>
        <time>2019-06-16T14:54:31Z</time>
      </trkpt>
      <trkpt lat="38.500607" lon="-0.603428">
        <ele>627.516</ele>
        <time>2019-06-16T14:54:32Z</time>
      </trkpt>
      <trkpt lat="38.500627" lon="-0.603331">
        <ele>628.060</ele>
        <time>2019-06-16T14:54:33Z</time>
      </trkpt>
      <trkpt lat="38.500653" lon="-0.603232">
        <ele>628.349</ele>
        <time>2019-06-16T14:54:34Z</time>
      </trkpt>
      <trkpt lat="38.500713" lon="-0.603135">
        <ele>628.962</ele>
        <time>2019-06-16T14:54:35Z</time>
      </trkpt>
      <trkpt lat="38.500752" lon="-0.603067">
        <ele>629.224</ele>
        <time>2019-06-16T14:54:36Z</time>
      </trkpt>
      <trkpt lat="38.500800" lon="-0.602974">
        <ele>628.891</ele>
        <time>2019-06-16T14:54:37Z</time>
      </trkpt>
      <trkpt lat="38.500807" lon="-0.602903">
        <ele>628.130</ele>
        <time>2019-06-16T14:54:38Z</time>
      </trkpt>
      <trkpt lat="38.500792" lon="-0.602837">
        <ele>627.255</ele>
        <time>2019-06-16T14:54:39Z</time>
      </trkpt>
      <trkpt lat="38.500782" lon="-0.602753">
        <ele>626.216</ele>
        <time>2019-06-16T14:54:40Z</time>
      </trkpt>
      <trkpt lat="38.500759" lon="-0.602673">
        <ele>625.176</ele>
        <time>2019-06-16T14:54:41Z</time>
      </trkpt>
      <trkpt lat="38.500656" lon="-0.602761">
        <ele>624.913</ele>
        <time>2019-06-16T14:54:42Z</time>
      </trkpt>
      <trkpt lat="38.500605" lon="-0.602781">
        <ele>624.608</ele>
        <time>2019-06-16T14:54:43Z</time>
      </trkpt>
      <trkpt lat="38.500555" lon="-0.602799">
        <ele>624.244</ele>
        <time>2019-06-16T14:54:44Z</time>
      </trkpt>
      <trkpt lat="38.500502" lon="-0.602838">
        <ele>624.098</ele>
        <time>2019-06-16T14:54:45Z</time>
      </trkpt>
      <trkpt lat="38.500454" lon="-0.602860">
        <ele>623.777</ele>
        <time>2019-06-16T14:54:46Z</time>
      </trkpt>
      <trkpt lat="38.500405" lon="-0.602895">
        <ele>623.450</ele>
        <time>2019-06-16T14:54:47Z</time>
      </trkpt>
      <trkpt lat="38.500338" lon="-0.602899">
        <ele>622.612</ele>
        <time>2019-06-16T14:54:48Z</time>
      </trkpt>
      <trkpt lat="38.500213" lon="-0.602934">
        <ele>621.329</ele>
        <time>2019-06-16T14:54:50Z</time>
      </trkpt>
      <trkpt lat="38.500133" lon="-0.602969">
        <ele>620.728</ele>
        <time>2019-06-16T14:54:51Z</time>
      </trkpt>
      <trkpt lat="38.500126" lon="-0.603029">
        <ele>621.123</ele>
        <time>2019-06-16T14:54:52Z</time>
      </trkpt>
      <trkpt lat="38.500012" lon="-0.603076">
        <ele>620.293</ele>
        <time>2019-06-16T14:54:53Z</time>
      </trkpt>
      <trkpt lat="38.499938" lon="-0.603207">
        <ele>619.465</ele>
        <time>2019-06-16T14:54:54Z</time>
      </trkpt>
      <trkpt lat="38.499836" lon="-0.603260">
        <ele>617.821</ele>
        <time>2019-06-16T14:54:55Z</time>
      </trkpt>
      <trkpt lat="38.499747" lon="-0.603318">
        <ele>616.408</ele>
        <time>2019-06-16T14:54:56Z</time>
      </trkpt>
      <trkpt lat="38.499658" lon="-0.603377">
        <ele>615.512</ele>
        <time>2019-06-16T14:54:57Z</time>
      </trkpt>
      <trkpt lat="38.499582" lon="-0.603449">
        <ele>615.046</ele>
        <time>2019-06-16T14:54:58Z</time>
      </trkpt>
      <trkpt lat="38.499512" lon="-0.603520">
        <ele>614.515</ele>
        <time>2019-06-16T14:54:59Z</time>
      </trkpt>
      <trkpt lat="38.499429" lon="-0.603586">
        <ele>613.748</ele>
        <time>2019-06-16T14:55:00Z</time>
      </trkpt>
      <trkpt lat="38.499344" lon="-0.603607">
        <ele>613.220</ele>
        <time>2019-06-16T14:55:01Z</time>
      </trkpt>
      <trkpt lat="38.499238" lon="-0.603666">
        <ele>612.847</ele>
        <time>2019-06-16T14:55:02Z</time>
      </trkpt>
      <trkpt lat="38.499111" lon="-0.603702">
        <ele>611.876</ele>
        <time>2019-06-16T14:55:03Z</time>
      </trkpt>
      <trkpt lat="38.499017" lon="-0.603745">
        <ele>611.131</ele>
        <time>2019-06-16T14:55:04Z</time>
      </trkpt>
      <trkpt lat="38.498936" lon="-0.603822">
        <ele>610.915</ele>
        <time>2019-06-16T14:55:05Z</time>
      </trkpt>
      <trkpt lat="38.498837" lon="-0.603880">
        <ele>610.465</ele>
        <time>2019-06-16T14:55:06Z</time>
      </trkpt>
      <trkpt lat="38.498729" lon="-0.603900">
        <ele>609.311</ele>
        <time>2019-06-16T14:55:07Z</time>
      </trkpt>
      <trkpt lat="38.498613" lon="-0.603946">
        <ele>608.208</ele>
        <time>2019-06-16T14:55:08Z</time>
      </trkpt>
      <trkpt lat="38.498521" lon="-0.603979">
        <ele>607.254</ele>
        <time>2019-06-16T14:55:09Z</time>
      </trkpt>
      <trkpt lat="38.498425" lon="-0.604031">
        <ele>606.298</ele>
        <time>2019-06-16T14:55:10Z</time>
      </trkpt>
      <trkpt lat="38.498332" lon="-0.604071">
        <ele>605.097</ele>
        <time>2019-06-16T14:55:11Z</time>
      </trkpt>
      <trkpt lat="38.498237" lon="-0.604112">
        <ele>603.350</ele>
        <time>2019-06-16T14:55:12Z</time>
      </trkpt>
      <trkpt lat="38.498121" lon="-0.604148">
        <ele>601.232</ele>
        <time>2019-06-16T14:55:13Z</time>
      </trkpt>
      <trkpt lat="38.498023" lon="-0.604177">
        <ele>599.879</ele>
        <time>2019-06-16T14:55:14Z</time>
      </trkpt>
      <trkpt lat="38.497913" lon="-0.604222">
        <ele>599.418</ele>
        <time>2019-06-16T14:55:15Z</time>
      </trkpt>
      <trkpt lat="38.497806" lon="-0.604257">
        <ele>598.913</ele>
        <time>2019-06-16T14:55:16Z</time>
      </trkpt>
      <trkpt lat="38.497692" lon="-0.604293">
        <ele>598.378</ele>
        <time>2019-06-16T14:55:17Z</time>
      </trkpt>
      <trkpt lat="38.497595" lon="-0.604329">
        <ele>597.933</ele>
        <time>2019-06-16T14:55:18Z</time>
      </trkpt>
      <trkpt lat="38.497491" lon="-0.604365">
        <ele>597.326</ele>
        <time>2019-06-16T14:55:19Z</time>
      </trkpt>
      <trkpt lat="38.497402" lon="-0.604413">
        <ele>596.108</ele>
        <time>2019-06-16T14:55:20Z</time>
      </trkpt>
      <trkpt lat="38.497305" lon="-0.604451">
        <ele>594.560</ele>
        <time>2019-06-16T14:55:21Z</time>
      </trkpt>
      <trkpt lat="38.497014" lon="-0.604608">
        <ele>591.044</ele>
        <time>2019-06-16T14:55:24Z</time>
      </trkpt>
      <trkpt lat="38.497014" lon="-0.604608">
        <ele>591.053</ele>
        <time>2019-06-16T14:55:24Z</time>
      </trkpt>
      <trkpt lat="38.497014" lon="-0.604608">
        <ele>591.046</ele>
        <time>2019-06-16T14:55:24Z</time>
      </trkpt>
      <trkpt lat="38.496926" lon="-0.604675">
        <ele>589.888</ele>
        <time>2019-06-16T14:55:25Z</time>
      </trkpt>
      <trkpt lat="38.496838" lon="-0.604742">
        <ele>589.065</ele>
        <time>2019-06-16T14:55:26Z</time>
      </trkpt>
      <trkpt lat="38.496760" lon="-0.604819">
        <ele>588.734</ele>
        <time>2019-06-16T14:55:27Z</time>
      </trkpt>
      <trkpt lat="38.496682" lon="-0.604890">
        <ele>588.469</ele>
        <time>2019-06-16T14:55:28Z</time>
      </trkpt>
      <trkpt lat="38.496597" lon="-0.604960">
        <ele>588.259</ele>
        <time>2019-06-16T14:55:29Z</time>
      </trkpt>
      <trkpt lat="38.496514" lon="-0.605017">
        <ele>588.003</ele>
        <time>2019-06-16T14:55:30Z</time>
      </trkpt>
      <trkpt lat="38.496437" lon="-0.605071">
        <ele>587.623</ele>
        <time>2019-06-16T14:55:31Z</time>
      </trkpt>
      <trkpt lat="38.496349" lon="-0.605129">
        <ele>587.208</ele>
        <time>2019-06-16T14:55:32Z</time>
      </trkpt>
      <trkpt lat="38.496265" lon="-0.605203">
        <ele>587.268</ele>
        <time>2019-06-16T14:55:33Z</time>
      </trkpt>
      <trkpt lat="38.496184" lon="-0.605306">
        <ele>587.482</ele>
        <time>2019-06-16T14:55:34Z</time>
      </trkpt>
      <trkpt lat="38.496117" lon="-0.605374">
        <ele>587.481</ele>
        <time>2019-06-16T14:55:35Z</time>
      </trkpt>
      <trkpt lat="38.495982" lon="-0.605462">
        <ele>587.044</ele>
        <time>2019-06-16T14:55:37Z</time>
      </trkpt>
      <trkpt lat="38.495924" lon="-0.605567">
        <ele>587.326</ele>
        <time>2019-06-16T14:55:38Z</time>
      </trkpt>
      <trkpt lat="38.495866" lon="-0.605674">
        <ele>587.113</ele>
        <time>2019-06-16T14:55:39Z</time>
      </trkpt>
      <trkpt lat="38.495738" lon="-0.605677">
        <ele>586.822</ele>
        <time>2019-06-16T14:55:40Z</time>
      </trkpt>
      <trkpt lat="38.495617" lon="-0.605660">
        <ele>586.517</ele>
        <time>2019-06-16T14:55:41Z</time>
      </trkpt>
      <trkpt lat="38.495513" lon="-0.605650">
        <ele>585.951</ele>
        <time>2019-06-16T14:55:42Z</time>
      </trkpt>
      <trkpt lat="38.495434" lon="-0.605591">
        <ele>584.901</ele>
        <time>2019-06-16T14:55:43Z</time>
      </trkpt>
      <trkpt lat="38.495329" lon="-0.605525">
        <ele>583.311</ele>
        <time>2019-06-16T14:55:44Z</time>
      </trkpt>
      <trkpt lat="38.495227" lon="-0.605454">
        <ele>582.908</ele>
        <time>2019-06-16T14:55:45Z</time>
      </trkpt>
      <trkpt lat="38.495171" lon="-0.605363">
        <ele>582.948</ele>
        <time>2019-06-16T14:55:46Z</time>
      </trkpt>
      <trkpt lat="38.495083" lon="-0.605308">
        <ele>583.482</ele>
        <time>2019-06-16T14:55:47Z</time>
      </trkpt>
      <trkpt lat="38.495004" lon="-0.605232">
        <ele>583.831</ele>
        <time>2019-06-16T14:55:48Z</time>
      </trkpt>
      <trkpt lat="38.494926" lon="-0.605144">
        <ele>585.094</ele>
        <time>2019-06-16T14:55:49Z</time>
      </trkpt>
      <trkpt lat="38.494913" lon="-0.605010">
        <ele>584.676</ele>
        <time>2019-06-16T14:55:50Z</time>
      </trkpt>
      <trkpt lat="38.494893" lon="-0.604882">
        <ele>583.973</ele>
        <time>2019-06-16T14:55:51Z</time>
      </trkpt>
      <trkpt lat="38.494868" lon="-0.604771">
        <ele>583.362</ele>
        <time>2019-06-16T14:55:52Z</time>
      </trkpt>
      <trkpt lat="38.494850" lon="-0.604619">
        <ele>582.677</ele>
        <time>2019-06-16T14:55:53Z</time>
      </trkpt>
      <trkpt lat="38.494830" lon="-0.604486">
        <ele>581.944</ele>
        <time>2019-06-16T14:55:54Z</time>
      </trkpt>
      <trkpt lat="38.494827" lon="-0.604345">
        <ele>581.205</ele>
        <time>2019-06-16T14:55:55Z</time>
      </trkpt>
      <trkpt lat="38.494807" lon="-0.604216">
        <ele>580.615</ele>
        <time>2019-06-16T14:55:56Z</time>
      </trkpt>
      <trkpt lat="38.494789" lon="-0.604083">
        <ele>579.508</ele>
        <time>2019-06-16T14:55:57Z</time>
      </trkpt>
      <trkpt lat="38.494782" lon="-0.603954">
        <ele>578.227</ele>
        <time>2019-06-16T14:55:58Z</time>
      </trkpt>
      <trkpt lat="38.494720" lon="-0.603824">
        <ele>576.881</ele>
        <time>2019-06-16T14:55:59Z</time>
      </trkpt>
      <trkpt lat="38.494678" lon="-0.603702">
        <ele>576.970</ele>
        <time>2019-06-16T14:56:00Z</time>
      </trkpt>
      <trkpt lat="38.494629" lon="-0.603580">
        <ele>576.813</ele>
        <time>2019-06-16T14:56:01Z</time>
      </trkpt>
      <trkpt lat="38.494528" lon="-0.603557">
        <ele>577.435</ele>
        <time>2019-06-16T14:56:02Z</time>
      </trkpt>
      <trkpt lat="38.494455" lon="-0.603502">
        <ele>577.062</ele>
        <time>2019-06-16T14:56:03Z</time>
      </trkpt>
      <trkpt lat="38.494368" lon="-0.603447">
        <ele>578.341</ele>
        <time>2019-06-16T14:56:04Z</time>
      </trkpt>
      <trkpt lat="38.494283" lon="-0.603395">
        <ele>579.636</ele>
        <time>2019-06-16T14:56:05Z</time>
      </trkpt>
      <trkpt lat="38.494204" lon="-0.603342">
        <ele>580.329</ele>
        <time>2019-06-16T14:56:06Z</time>
      </trkpt>
      <trkpt lat="38.494112" lon="-0.603282">
        <ele>581.800</ele>
        <time>2019-06-16T14:56:07Z</time>
      </trkpt>
      <trkpt lat="38.494041" lon="-0.603210">
        <ele>582.520</ele>
        <time>2019-06-16T14:56:08Z</time>
      </trkpt>
      <trkpt lat="38.493960" lon="-0.603152">
        <ele>583.608</ele>
        <time>2019-06-16T14:56:09Z</time>
      </trkpt>
      <trkpt lat="38.493886" lon="-0.603092">
        <ele>584.265</ele>
        <time>2019-06-16T14:56:10Z</time>
      </trkpt>
      <trkpt lat="38.493805" lon="-0.603034">
        <ele>583.939</ele>
        <time>2019-06-16T14:56:11Z</time>
      </trkpt>
      <trkpt lat="38.493735" lon="-0.602982">
        <ele>583.818</ele>
        <time>2019-06-16T14:56:12Z</time>
      </trkpt>
      <trkpt lat="38.493654" lon="-0.602923">
        <ele>583.831</ele>
        <time>2019-06-16T14:56:13Z</time>
      </trkpt>
      <trkpt lat="38.493601" lon="-0.602866">
        <ele>583.463</ele>
        <time>2019-06-16T14:56:14Z</time>
      </trkpt>
      <trkpt lat="38.493545" lon="-0.602797">
        <ele>583.140</ele>
        <time>2019-06-16T14:56:15Z</time>
      </trkpt>
      <trkpt lat="38.493480" lon="-0.602751">
        <ele>583.589</ele>
        <time>2019-06-16T14:56:16Z</time>
      </trkpt>
      <trkpt lat="38.493432" lon="-0.602705">
        <ele>583.414</ele>
        <time>2019-06-16T14:56:17Z</time>
      </trkpt>
      <trkpt lat="38.493375" lon="-0.602648">
        <ele>583.248</ele>
        <time>2019-06-16T14:56:18Z</time>
      </trkpt>
      <trkpt lat="38.493315" lon="-0.602596">
        <ele>582.961</ele>
        <time>2019-06-16T14:56:19Z</time>
      </trkpt>
      <trkpt lat="38.493258" lon="-0.602549">
        <ele>582.317</ele>
        <time>2019-06-16T14:56:20Z</time>
      </trkpt>
      <trkpt lat="38.493202" lon="-0.602496">
        <ele>581.808</ele>
        <time>2019-06-16T14:56:21Z</time>
      </trkpt>
      <trkpt lat="38.493159" lon="-0.602438">
        <ele>581.057</ele>
        <time>2019-06-16T14:56:22Z</time>
      </trkpt>
      <trkpt lat="38.493104" lon="-0.602394">
        <ele>580.751</ele>
        <time>2019-06-16T14:56:23Z</time>
      </trkpt>
      <trkpt lat="38.493040" lon="-0.602348">
        <ele>580.230</ele>
        <time>2019-06-16T14:56:24Z</time>
      </trkpt>
      <trkpt lat="38.492989" lon="-0.602308">
        <ele>579.383</ele>
        <time>2019-06-16T14:56:25Z</time>
      </trkpt>
      <trkpt lat="38.492942" lon="-0.602268">
        <ele>578.455</ele>
        <time>2019-06-16T14:56:26Z</time>
      </trkpt>
      <trkpt lat="38.492894" lon="-0.602230">
        <ele>577.732</ele>
        <time>2019-06-16T14:56:27Z</time>
      </trkpt>
      <trkpt lat="38.492839" lon="-0.602190">
        <ele>577.241</ele>
        <time>2019-06-16T14:56:28Z</time>
      </trkpt>
      <trkpt lat="38.492784" lon="-0.602162">
        <ele>576.986</ele>
        <time>2019-06-16T14:56:29Z</time>
      </trkpt>
      <trkpt lat="38.492731" lon="-0.602121">
        <ele>576.354</ele>
        <time>2019-06-16T14:56:30Z</time>
      </trkpt>
      <trkpt lat="38.492676" lon="-0.602089">
        <ele>576.056</ele>
        <time>2019-06-16T14:56:31Z</time>
      </trkpt>
      <trkpt lat="38.492614" lon="-0.602056">
        <ele>575.611</ele>
        <time>2019-06-16T14:56:32Z</time>
      </trkpt>
      <trkpt lat="38.492558" lon="-0.602033">
        <ele>575.408</ele>
        <time>2019-06-16T14:56:33Z</time>
      </trkpt>
      <trkpt lat="38.492501" lon="-0.602012">
        <ele>575.278</ele>
        <time>2019-06-16T14:56:34Z</time>
      </trkpt>
      <trkpt lat="38.492444" lon="-0.601993">
        <ele>574.852</ele>
        <time>2019-06-16T14:56:35Z</time>
      </trkpt>
      <trkpt lat="38.492387" lon="-0.601973">
        <ele>574.561</ele>
        <time>2019-06-16T14:56:36Z</time>
      </trkpt>
      <trkpt lat="38.492327" lon="-0.601954">
        <ele>574.264</ele>
        <time>2019-06-16T14:56:37Z</time>
      </trkpt>
      <trkpt lat="38.492273" lon="-0.601923">
        <ele>573.536</ele>
        <time>2019-06-16T14:56:38Z</time>
      </trkpt>
      <trkpt lat="38.492213" lon="-0.601910">
        <ele>573.113</ele>
        <time>2019-06-16T14:56:39Z</time>
      </trkpt>
      <trkpt lat="38.492155" lon="-0.601904">
        <ele>572.842</ele>
        <time>2019-06-16T14:56:40Z</time>
      </trkpt>
      <trkpt lat="38.492102" lon="-0.601900">
        <ele>572.787</ele>
        <time>2019-06-16T14:56:41Z</time>
      </trkpt>
      <trkpt lat="38.492042" lon="-0.601901">
        <ele>572.666</ele>
        <time>2019-06-16T14:56:42Z</time>
      </trkpt>
      <trkpt lat="38.491986" lon="-0.601898">
        <ele>572.429</ele>
        <time>2019-06-16T14:56:43Z</time>
      </trkpt>
      <trkpt lat="38.491939" lon="-0.601882">
        <ele>572.121</ele>
        <time>2019-06-16T14:56:44Z</time>
      </trkpt>
      <trkpt lat="38.491894" lon="-0.601892">
        <ele>572.508</ele>
        <time>2019-06-16T14:56:45Z</time>
      </trkpt>
      <trkpt lat="38.491838" lon="-0.601909">
        <ele>572.999</ele>
        <time>2019-06-16T14:56:46Z</time>
      </trkpt>
      <trkpt lat="38.491783" lon="-0.601905">
        <ele>573.153</ele>
        <time>2019-06-16T14:56:47Z</time>
      </trkpt>
      <trkpt lat="38.491731" lon="-0.601911">
        <ele>573.492</ele>
        <time>2019-06-16T14:56:48Z</time>
      </trkpt>
      <trkpt lat="38.491682" lon="-0.601916">
        <ele>573.645</ele>
        <time>2019-06-16T14:56:49Z</time>
      </trkpt>
      <trkpt lat="38.491626" lon="-0.601928">
        <ele>574.427</ele>
        <time>2019-06-16T14:56:50Z</time>
      </trkpt>
      <trkpt lat="38.491570" lon="-0.601928">
        <ele>575.274</ele>
        <time>2019-06-16T14:56:51Z</time>
      </trkpt>
      <trkpt lat="38.491508" lon="-0.601932">
        <ele>576.153</ele>
        <time>2019-06-16T14:56:52Z</time>
      </trkpt>
      <trkpt lat="38.491450" lon="-0.601947">
        <ele>577.198</ele>
        <time>2019-06-16T14:56:53Z</time>
      </trkpt>
      <trkpt lat="38.491393" lon="-0.601962">
        <ele>578.183</ele>
        <time>2019-06-16T14:56:54Z</time>
      </trkpt>
      <trkpt lat="38.491340" lon="-0.601986">
        <ele>577.925</ele>
        <time>2019-06-16T14:56:55Z</time>
      </trkpt>
      <trkpt lat="38.491280" lon="-0.602003">
        <ele>577.517</ele>
        <time>2019-06-16T14:56:56Z</time>
      </trkpt>
      <trkpt lat="38.491228" lon="-0.602049">
        <ele>577.408</ele>
        <time>2019-06-16T14:56:57Z</time>
      </trkpt>
      <trkpt lat="38.491180" lon="-0.602074">
        <ele>577.121</ele>
        <time>2019-06-16T14:56:58Z</time>
      </trkpt>
      <trkpt lat="38.491131" lon="-0.602107">
        <ele>577.095</ele>
        <time>2019-06-16T14:56:59Z</time>
      </trkpt>
      <trkpt lat="38.491067" lon="-0.602128">
        <ele>576.244</ele>
        <time>2019-06-16T14:57:00Z</time>
      </trkpt>
      <trkpt lat="38.491003" lon="-0.602150">
        <ele>575.457</ele>
        <time>2019-06-16T14:57:01Z</time>
      </trkpt>
      <trkpt lat="38.490950" lon="-0.602171">
        <ele>574.729</ele>
        <time>2019-06-16T14:57:02Z</time>
      </trkpt>
      <trkpt lat="38.490898" lon="-0.602202">
        <ele>574.016</ele>
        <time>2019-06-16T14:57:03Z</time>
      </trkpt>
      <trkpt lat="38.490825" lon="-0.602248">
        <ele>572.955</ele>
        <time>2019-06-16T14:57:04Z</time>
      </trkpt>
      <trkpt lat="38.490757" lon="-0.602285">
        <ele>571.790</ele>
        <time>2019-06-16T14:57:05Z</time>
      </trkpt>
      <trkpt lat="38.490685" lon="-0.602322">
        <ele>570.566</ele>
        <time>2019-06-16T14:57:06Z</time>
      </trkpt>
      <trkpt lat="38.490615" lon="-0.602364">
        <ele>569.629</ele>
        <time>2019-06-16T14:57:07Z</time>
      </trkpt>
      <trkpt lat="38.490549" lon="-0.602391">
        <ele>568.821</ele>
        <time>2019-06-16T14:57:08Z</time>
      </trkpt>
      <trkpt lat="38.490478" lon="-0.602426">
        <ele>568.808</ele>
        <time>2019-06-16T14:57:09Z</time>
      </trkpt>
      <trkpt lat="38.490405" lon="-0.602460">
        <ele>568.659</ele>
        <time>2019-06-16T14:57:10Z</time>
      </trkpt>
      <trkpt lat="38.490340" lon="-0.602492">
        <ele>568.443</ele>
        <time>2019-06-16T14:57:11Z</time>
      </trkpt>
      <trkpt lat="38.490269" lon="-0.602530">
        <ele>568.762</ele>
        <time>2019-06-16T14:57:12Z</time>
      </trkpt>
      <trkpt lat="38.490196" lon="-0.602563">
        <ele>569.175</ele>
        <time>2019-06-16T14:57:13Z</time>
      </trkpt>
      <trkpt lat="38.490125" lon="-0.602585">
        <ele>569.127</ele>
        <time>2019-06-16T14:57:14Z</time>
      </trkpt>
      <trkpt lat="38.490054" lon="-0.602603">
        <ele>568.954</ele>
        <time>2019-06-16T14:57:15Z</time>
      </trkpt>
      <trkpt lat="38.489978" lon="-0.602603">
        <ele>568.253</ele>
        <time>2019-06-16T14:57:16Z</time>
      </trkpt>
      <trkpt lat="38.489902" lon="-0.602573">
        <ele>567.078</ele>
        <time>2019-06-16T14:57:17Z</time>
      </trkpt>
      <trkpt lat="38.489827" lon="-0.602536">
        <ele>565.612</ele>
        <time>2019-06-16T14:57:18Z</time>
      </trkpt>
      <trkpt lat="38.489756" lon="-0.602474">
        <ele>564.432</ele>
        <time>2019-06-16T14:57:19Z</time>
      </trkpt>
      <trkpt lat="38.489686" lon="-0.602406">
        <ele>564.805</ele>
        <time>2019-06-16T14:57:20Z</time>
      </trkpt>
      <trkpt lat="38.489643" lon="-0.602325">
        <ele>565.408</ele>
        <time>2019-06-16T14:57:21Z</time>
      </trkpt>
      <trkpt lat="38.489606" lon="-0.602208">
        <ele>565.774</ele>
        <time>2019-06-16T14:57:22Z</time>
      </trkpt>
      <trkpt lat="38.489566" lon="-0.602118">
        <ele>565.478</ele>
        <time>2019-06-16T14:57:23Z</time>
      </trkpt>
      <trkpt lat="38.489518" lon="-0.602034">
        <ele>565.427</ele>
        <time>2019-06-16T14:57:24Z</time>
      </trkpt>
      <trkpt lat="38.489473" lon="-0.601930">
        <ele>565.440</ele>
        <time>2019-06-16T14:57:25Z</time>
      </trkpt>
      <trkpt lat="38.489425" lon="-0.601825">
        <ele>564.512</ele>
        <time>2019-06-16T14:57:26Z</time>
      </trkpt>
      <trkpt lat="38.489358" lon="-0.601725">
        <ele>563.769</ele>
        <time>2019-06-16T14:57:27Z</time>
      </trkpt>
      <trkpt lat="38.489289" lon="-0.601653">
        <ele>563.448</ele>
        <time>2019-06-16T14:57:28Z</time>
      </trkpt>
      <trkpt lat="38.489209" lon="-0.601602">
        <ele>563.013</ele>
        <time>2019-06-16T14:57:29Z</time>
      </trkpt>
      <trkpt lat="38.489115" lon="-0.601557">
        <ele>562.335</ele>
        <time>2019-06-16T14:57:30Z</time>
      </trkpt>
      <trkpt lat="38.489023" lon="-0.601528">
        <ele>561.586</ele>
        <time>2019-06-16T14:57:31Z</time>
      </trkpt>
      <trkpt lat="38.488930" lon="-0.601500">
        <ele>560.614</ele>
        <time>2019-06-16T14:57:32Z</time>
      </trkpt>
      <trkpt lat="38.488839" lon="-0.601451">
        <ele>559.008</ele>
        <time>2019-06-16T14:57:33Z</time>
      </trkpt>
      <trkpt lat="38.488744" lon="-0.601413">
        <ele>558.116</ele>
        <time>2019-06-16T14:57:34Z</time>
      </trkpt>
      <trkpt lat="38.488649" lon="-0.601361">
        <ele>556.930</ele>
        <time>2019-06-16T14:57:35Z</time>
      </trkpt>
      <trkpt lat="38.488557" lon="-0.601305">
        <ele>554.959</ele>
        <time>2019-06-16T14:57:36Z</time>
      </trkpt>
      <trkpt lat="38.488470" lon="-0.601203">
        <ele>552.332</ele>
        <time>2019-06-16T14:57:37Z</time>
      </trkpt>
      <trkpt lat="38.488384" lon="-0.601129">
        <ele>551.644</ele>
        <time>2019-06-16T14:57:38Z</time>
      </trkpt>
      <trkpt lat="38.488293" lon="-0.601045">
        <ele>551.051</ele>
        <time>2019-06-16T14:57:39Z</time>
      </trkpt>
      <trkpt lat="38.488220" lon="-0.600965">
        <ele>550.390</ele>
        <time>2019-06-16T14:57:40Z</time>
      </trkpt>
      <trkpt lat="38.488147" lon="-0.600905">
        <ele>550.415</ele>
        <time>2019-06-16T14:57:41Z</time>
      </trkpt>
      <trkpt lat="38.488086" lon="-0.600829">
        <ele>550.479</ele>
        <time>2019-06-16T14:57:42Z</time>
      </trkpt>
      <trkpt lat="38.488011" lon="-0.600771">
        <ele>549.805</ele>
        <time>2019-06-16T14:57:43Z</time>
      </trkpt>
      <trkpt lat="38.487924" lon="-0.600724">
        <ele>548.725</ele>
        <time>2019-06-16T14:57:44Z</time>
      </trkpt>
      <trkpt lat="38.487837" lon="-0.600736">
        <ele>548.708</ele>
        <time>2019-06-16T14:57:45Z</time>
      </trkpt>
      <trkpt lat="38.487748" lon="-0.600756">
        <ele>548.540</ele>
        <time>2019-06-16T14:57:46Z</time>
      </trkpt>
      <trkpt lat="38.487641" lon="-0.600790">
        <ele>547.594</ele>
        <time>2019-06-16T14:57:47Z</time>
      </trkpt>
      <trkpt lat="38.487546" lon="-0.600808">
        <ele>546.463</ele>
        <time>2019-06-16T14:57:48Z</time>
      </trkpt>
      <trkpt lat="38.487504" lon="-0.600915">
        <ele>546.176</ele>
        <time>2019-06-16T14:57:49Z</time>
      </trkpt>
      <trkpt lat="38.487422" lon="-0.600988">
        <ele>544.098</ele>
        <time>2019-06-16T14:57:50Z</time>
      </trkpt>
      <trkpt lat="38.487360" lon="-0.601089">
        <ele>542.555</ele>
        <time>2019-06-16T14:57:51Z</time>
      </trkpt>
      <trkpt lat="38.487321" lon="-0.601197">
        <ele>541.384</ele>
        <time>2019-06-16T14:57:52Z</time>
      </trkpt>
      <trkpt lat="38.487320" lon="-0.601336">
        <ele>540.949</ele>
        <time>2019-06-16T14:57:53Z</time>
      </trkpt>
      <trkpt lat="38.487324" lon="-0.601476">
        <ele>540.267</ele>
        <time>2019-06-16T14:57:54Z</time>
      </trkpt>
      <trkpt lat="38.487332" lon="-0.601630">
        <ele>539.281</ele>
        <time>2019-06-16T14:57:55Z</time>
      </trkpt>
      <trkpt lat="38.487334" lon="-0.601767">
        <ele>539.119</ele>
        <time>2019-06-16T14:57:56Z</time>
      </trkpt>
      <trkpt lat="38.487313" lon="-0.601887">
        <ele>538.908</ele>
        <time>2019-06-16T14:57:57Z</time>
      </trkpt>
      <trkpt lat="38.487282" lon="-0.602016">
        <ele>538.849</ele>
        <time>2019-06-16T14:57:58Z</time>
      </trkpt>
      <trkpt lat="38.487189" lon="-0.602087">
        <ele>538.573</ele>
        <time>2019-06-16T14:57:59Z</time>
      </trkpt>
      <trkpt lat="38.487093" lon="-0.602114">
        <ele>538.752</ele>
        <time>2019-06-16T14:58:00Z</time>
      </trkpt>
      <trkpt lat="38.486995" lon="-0.602109">
        <ele>538.735</ele>
        <time>2019-06-16T14:58:01Z</time>
      </trkpt>
      <trkpt lat="38.486896" lon="-0.602058">
        <ele>538.817</ele>
        <time>2019-06-16T14:58:02Z</time>
      </trkpt>
      <trkpt lat="38.486811" lon="-0.601998">
        <ele>539.064</ele>
        <time>2019-06-16T14:58:03Z</time>
      </trkpt>
      <trkpt lat="38.486758" lon="-0.601885">
        <ele>538.433</ele>
        <time>2019-06-16T14:58:04Z</time>
      </trkpt>
      <trkpt lat="38.486700" lon="-0.601791">
        <ele>538.088</ele>
        <time>2019-06-16T14:58:05Z</time>
      </trkpt>
      <trkpt lat="38.486667" lon="-0.601675">
        <ele>537.186</ele>
        <time>2019-06-16T14:58:06Z</time>
      </trkpt>
      <trkpt lat="38.486614" lon="-0.601558">
        <ele>536.460</ele>
        <time>2019-06-16T14:58:07Z</time>
      </trkpt>
      <trkpt lat="38.486570" lon="-0.601447">
        <ele>535.226</ele>
        <time>2019-06-16T14:58:08Z</time>
      </trkpt>
      <trkpt lat="38.486498" lon="-0.601381">
        <ele>534.508</ele>
        <time>2019-06-16T14:58:09Z</time>
      </trkpt>
      <trkpt lat="38.486418" lon="-0.601328">
        <ele>534.051</ele>
        <time>2019-06-16T14:58:10Z</time>
      </trkpt>
      <trkpt lat="38.486331" lon="-0.601273">
        <ele>533.185</ele>
        <time>2019-06-16T14:58:11Z</time>
      </trkpt>
      <trkpt lat="38.486241" lon="-0.601276">
        <ele>532.834</ele>
        <time>2019-06-16T14:58:12Z</time>
      </trkpt>
      <trkpt lat="38.486150" lon="-0.601262">
        <ele>532.367</ele>
        <time>2019-06-16T14:58:13Z</time>
      </trkpt>
      <trkpt lat="38.486053" lon="-0.601257">
        <ele>531.669</ele>
        <time>2019-06-16T14:58:14Z</time>
      </trkpt>
      <trkpt lat="38.486007" lon="-0.601314">
        <ele>532.196</ele>
        <time>2019-06-16T14:58:15Z</time>
      </trkpt>
      <trkpt lat="38.485936" lon="-0.601352">
        <ele>532.145</ele>
        <time>2019-06-16T14:58:16Z</time>
      </trkpt>
      <trkpt lat="38.485867" lon="-0.601377">
        <ele>532.040</ele>
        <time>2019-06-16T14:58:17Z</time>
      </trkpt>
      <trkpt lat="38.485788" lon="-0.601417">
        <ele>532.755</ele>
        <time>2019-06-16T14:58:18Z</time>
      </trkpt>
      <trkpt lat="38.485745" lon="-0.601510">
        <ele>535.707</ele>
        <time>2019-06-16T14:58:19Z</time>
      </trkpt>
      <trkpt lat="38.485665" lon="-0.601554">
        <ele>535.417</ele>
        <time>2019-06-16T14:58:20Z</time>
      </trkpt>
      <trkpt lat="38.485595" lon="-0.601601">
        <ele>534.808</ele>
        <time>2019-06-16T14:58:21Z</time>
      </trkpt>
      <trkpt lat="38.485533" lon="-0.601647">
        <ele>534.198</ele>
        <time>2019-06-16T14:58:22Z</time>
      </trkpt>
      <trkpt lat="38.485458" lon="-0.601683">
        <ele>533.222</ele>
        <time>2019-06-16T14:58:23Z</time>
      </trkpt>
      <trkpt lat="38.485392" lon="-0.601722">
        <ele>532.551</ele>
        <time>2019-06-16T14:58:24Z</time>
      </trkpt>
      <trkpt lat="38.485329" lon="-0.601751">
        <ele>531.634</ele>
        <time>2019-06-16T14:58:25Z</time>
      </trkpt>
      <trkpt lat="38.485269" lon="-0.601783">
        <ele>530.946</ele>
        <time>2019-06-16T14:58:26Z</time>
      </trkpt>
      <trkpt lat="38.485203" lon="-0.601815">
        <ele>529.933</ele>
        <time>2019-06-16T14:58:27Z</time>
      </trkpt>
      <trkpt lat="38.485155" lon="-0.601842">
        <ele>529.262</ele>
        <time>2019-06-16T14:58:28Z</time>
      </trkpt>
      <trkpt lat="38.485103" lon="-0.601883">
        <ele>528.677</ele>
        <time>2019-06-16T14:58:29Z</time>
      </trkpt>
      <trkpt lat="38.485040" lon="-0.601898">
        <ele>527.353</ele>
        <time>2019-06-16T14:58:30Z</time>
      </trkpt>
      <trkpt lat="38.484975" lon="-0.601940">
        <ele>526.204</ele>
        <time>2019-06-16T14:58:31Z</time>
      </trkpt>
      <trkpt lat="38.484911" lon="-0.601935">
        <ele>524.314</ele>
        <time>2019-06-16T14:58:32Z</time>
      </trkpt>
      <trkpt lat="38.484850" lon="-0.601980">
        <ele>522.808</ele>
        <time>2019-06-16T14:58:33Z</time>
      </trkpt>
      <trkpt lat="38.484779" lon="-0.602013">
        <ele>521.068</ele>
        <time>2019-06-16T14:58:34Z</time>
      </trkpt>
      <trkpt lat="38.484721" lon="-0.602054">
        <ele>519.862</ele>
        <time>2019-06-16T14:58:35Z</time>
      </trkpt>
      <trkpt lat="38.484606" lon="-0.602114">
        <ele>519.451</ele>
        <time>2019-06-16T14:58:37Z</time>
      </trkpt>
      <trkpt lat="38.484551" lon="-0.602146">
        <ele>519.244</ele>
        <time>2019-06-16T14:58:38Z</time>
      </trkpt>
      <trkpt lat="38.484475" lon="-0.602181">
        <ele>518.956</ele>
        <time>2019-06-16T14:58:39Z</time>
      </trkpt>
      <trkpt lat="38.484388" lon="-0.602202">
        <ele>518.873</ele>
        <time>2019-06-16T14:58:40Z</time>
      </trkpt>
      <trkpt lat="38.484322" lon="-0.602246">
        <ele>519.232</ele>
        <time>2019-06-16T14:58:41Z</time>
      </trkpt>
      <trkpt lat="38.484256" lon="-0.602282">
        <ele>519.727</ele>
        <time>2019-06-16T14:58:42Z</time>
      </trkpt>
      <trkpt lat="38.484185" lon="-0.602311">
        <ele>520.245</ele>
        <time>2019-06-16T14:58:43Z</time>
      </trkpt>
      <trkpt lat="38.484107" lon="-0.602340">
        <ele>520.547</ele>
        <time>2019-06-16T14:58:44Z</time>
      </trkpt>
      <trkpt lat="38.484041" lon="-0.602371">
        <ele>520.711</ele>
        <time>2019-06-16T14:58:45Z</time>
      </trkpt>
      <trkpt lat="38.483984" lon="-0.602414">
        <ele>521.108</ele>
        <time>2019-06-16T14:58:46Z</time>
      </trkpt>
      <trkpt lat="38.483912" lon="-0.602444">
        <ele>521.387</ele>
        <time>2019-06-16T14:58:47Z</time>
      </trkpt>
      <trkpt lat="38.483827" lon="-0.602490">
        <ele>522.161</ele>
        <time>2019-06-16T14:58:48Z</time>
      </trkpt>
      <trkpt lat="38.483754" lon="-0.602520">
        <ele>523.070</ele>
        <time>2019-06-16T14:58:49Z</time>
      </trkpt>
      <trkpt lat="38.483689" lon="-0.602545">
        <ele>523.993</ele>
        <time>2019-06-16T14:58:50Z</time>
      </trkpt>
      <trkpt lat="38.483633" lon="-0.602543">
        <ele>524.015</ele>
        <time>2019-06-16T14:58:51Z</time>
      </trkpt>
      <trkpt lat="38.483560" lon="-0.602556">
        <ele>524.152</ele>
        <time>2019-06-16T14:58:52Z</time>
      </trkpt>
      <trkpt lat="38.483498" lon="-0.602568">
        <ele>524.181</ele>
        <time>2019-06-16T14:58:53Z</time>
      </trkpt>
      <trkpt lat="38.483436" lon="-0.602580">
        <ele>524.116</ele>
        <time>2019-06-16T14:58:54Z</time>
      </trkpt>
      <trkpt lat="38.483375" lon="-0.602586">
        <ele>524.058</ele>
        <time>2019-06-16T14:58:55Z</time>
      </trkpt>
      <trkpt lat="38.483315" lon="-0.602600">
        <ele>524.152</ele>
        <time>2019-06-16T14:58:56Z</time>
      </trkpt>
      <trkpt lat="38.483250" lon="-0.602612">
        <ele>524.217</ele>
        <time>2019-06-16T14:58:57Z</time>
      </trkpt>
      <trkpt lat="38.483189" lon="-0.602616">
        <ele>524.108</ele>
        <time>2019-06-16T14:58:58Z</time>
      </trkpt>
      <trkpt lat="38.483140" lon="-0.602617">
        <ele>523.978</ele>
        <time>2019-06-16T14:58:59Z</time>
      </trkpt>
      <trkpt lat="38.483070" lon="-0.602618">
        <ele>523.632</ele>
        <time>2019-06-16T14:59:00Z</time>
      </trkpt>
      <trkpt lat="38.483009" lon="-0.602615">
        <ele>523.551</ele>
        <time>2019-06-16T14:59:01Z</time>
      </trkpt>
      <trkpt lat="38.482943" lon="-0.602616">
        <ele>523.864</ele>
        <time>2019-06-16T14:59:02Z</time>
      </trkpt>
      <trkpt lat="38.482881" lon="-0.602611">
        <ele>523.876</ele>
        <time>2019-06-16T14:59:03Z</time>
      </trkpt>
      <trkpt lat="38.482812" lon="-0.602609">
        <ele>524.093</ele>
        <time>2019-06-16T14:59:04Z</time>
      </trkpt>
      <trkpt lat="38.482754" lon="-0.602607">
        <ele>524.082</ele>
        <time>2019-06-16T14:59:05Z</time>
      </trkpt>
      <trkpt lat="38.482677" lon="-0.602599">
        <ele>523.627</ele>
        <time>2019-06-16T14:59:06Z</time>
      </trkpt>
      <trkpt lat="38.482598" lon="-0.602588">
        <ele>523.162</ele>
        <time>2019-06-16T14:59:07Z</time>
      </trkpt>
      <trkpt lat="38.482515" lon="-0.602580">
        <ele>522.783</ele>
        <time>2019-06-16T14:59:08Z</time>
      </trkpt>
      <trkpt lat="38.482440" lon="-0.602566">
        <ele>521.611</ele>
        <time>2019-06-16T14:59:09Z</time>
      </trkpt>
      <trkpt lat="38.482357" lon="-0.602541">
        <ele>519.908</ele>
        <time>2019-06-16T14:59:10Z</time>
      </trkpt>
      <trkpt lat="38.482264" lon="-0.602525">
        <ele>518.959</ele>
        <time>2019-06-16T14:59:11Z</time>
      </trkpt>
      <trkpt lat="38.482194" lon="-0.602513">
        <ele>518.223</ele>
        <time>2019-06-16T14:59:12Z</time>
      </trkpt>
      <trkpt lat="38.482101" lon="-0.602494">
        <ele>517.482</ele>
        <time>2019-06-16T14:59:13Z</time>
      </trkpt>
      <trkpt lat="38.482002" lon="-0.602466">
        <ele>516.585</ele>
        <time>2019-06-16T14:59:14Z</time>
      </trkpt>
      <trkpt lat="38.481908" lon="-0.602442">
        <ele>516.287</ele>
        <time>2019-06-16T14:59:15Z</time>
      </trkpt>
      <trkpt lat="38.481806" lon="-0.602411">
        <ele>516.454</ele>
        <time>2019-06-16T14:59:16Z</time>
      </trkpt>
      <trkpt lat="38.481704" lon="-0.602382">
        <ele>516.843</ele>
        <time>2019-06-16T14:59:17Z</time>
      </trkpt>
      <trkpt lat="38.481609" lon="-0.602328">
        <ele>516.538</ele>
        <time>2019-06-16T14:59:18Z</time>
      </trkpt>
      <trkpt lat="38.481509" lon="-0.602264">
        <ele>515.393</ele>
        <time>2019-06-16T14:59:19Z</time>
      </trkpt>
      <trkpt lat="38.481403" lon="-0.602218">
        <ele>514.165</ele>
        <time>2019-06-16T14:59:20Z</time>
      </trkpt>
      <trkpt lat="38.481301" lon="-0.602223">
        <ele>513.421</ele>
        <time>2019-06-16T14:59:21Z</time>
      </trkpt>
      <trkpt lat="38.481214" lon="-0.602208">
        <ele>512.608</ele>
        <time>2019-06-16T14:59:22Z</time>
      </trkpt>
      <trkpt lat="38.481123" lon="-0.602200">
        <ele>511.852</ele>
        <time>2019-06-16T14:59:23Z</time>
      </trkpt>
      <trkpt lat="38.481044" lon="-0.602162">
        <ele>511.136</ele>
        <time>2019-06-16T14:59:24Z</time>
      </trkpt>
      <trkpt lat="38.480947" lon="-0.602182">
        <ele>511.365</ele>
        <time>2019-06-16T14:59:25Z</time>
      </trkpt>
      <trkpt lat="38.480858" lon="-0.602198">
        <ele>511.678</ele>
        <time>2019-06-16T14:59:26Z</time>
      </trkpt>
      <trkpt lat="38.480780" lon="-0.602158">
        <ele>511.110</ele>
        <time>2019-06-16T14:59:27Z</time>
      </trkpt>
      <trkpt lat="38.480702" lon="-0.602133">
        <ele>511.027</ele>
        <time>2019-06-16T14:59:28Z</time>
      </trkpt>
      <trkpt lat="38.480633" lon="-0.602133">
        <ele>511.396</ele>
        <time>2019-06-16T14:59:29Z</time>
      </trkpt>
      <trkpt lat="38.480555" lon="-0.602101">
        <ele>511.361</ele>
        <time>2019-06-16T14:59:30Z</time>
      </trkpt>
      <trkpt lat="38.480482" lon="-0.602074">
        <ele>511.376</ele>
        <time>2019-06-16T14:59:31Z</time>
      </trkpt>
      <trkpt lat="38.480413" lon="-0.602051">
        <ele>511.490</ele>
        <time>2019-06-16T14:59:32Z</time>
      </trkpt>
      <trkpt lat="38.480344" lon="-0.602020">
        <ele>511.419</ele>
        <time>2019-06-16T14:59:33Z</time>
      </trkpt>
      <trkpt lat="38.480274" lon="-0.601995">
        <ele>511.608</ele>
        <time>2019-06-16T14:59:34Z</time>
      </trkpt>
      <trkpt lat="38.480224" lon="-0.601979">
        <ele>511.810</ele>
        <time>2019-06-16T14:59:35Z</time>
      </trkpt>
      <trkpt lat="38.480160" lon="-0.601959">
        <ele>512.034</ele>
        <time>2019-06-16T14:59:36Z</time>
      </trkpt>
      <trkpt lat="38.480100" lon="-0.601926">
        <ele>512.133</ele>
        <time>2019-06-16T14:59:37Z</time>
      </trkpt>
      <trkpt lat="38.480036" lon="-0.601906">
        <ele>512.586</ele>
        <time>2019-06-16T14:59:38Z</time>
      </trkpt>
      <trkpt lat="38.479985" lon="-0.601869">
        <ele>512.598</ele>
        <time>2019-06-16T14:59:39Z</time>
      </trkpt>
      <trkpt lat="38.479917" lon="-0.601850">
        <ele>512.835</ele>
        <time>2019-06-16T14:59:40Z</time>
      </trkpt>
      <trkpt lat="38.479848" lon="-0.601819">
        <ele>512.964</ele>
        <time>2019-06-16T14:59:41Z</time>
      </trkpt>
      <trkpt lat="38.479777" lon="-0.601791">
        <ele>513.199</ele>
        <time>2019-06-16T14:59:42Z</time>
      </trkpt>
      <trkpt lat="38.479703" lon="-0.601770">
        <ele>513.314</ele>
        <time>2019-06-16T14:59:43Z</time>
      </trkpt>
      <trkpt lat="38.479628" lon="-0.601776">
        <ele>513.954</ele>
        <time>2019-06-16T14:59:44Z</time>
      </trkpt>
      <trkpt lat="38.479548" lon="-0.601743">
        <ele>514.109</ele>
        <time>2019-06-16T14:59:45Z</time>
      </trkpt>
      <trkpt lat="38.479471" lon="-0.601712">
        <ele>514.308</ele>
        <time>2019-06-16T14:59:46Z</time>
      </trkpt>
      <trkpt lat="38.479394" lon="-0.601666">
        <ele>514.294</ele>
        <time>2019-06-16T14:59:47Z</time>
      </trkpt>
      <trkpt lat="38.479316" lon="-0.601627">
        <ele>513.928</ele>
        <time>2019-06-16T14:59:48Z</time>
      </trkpt>
      <trkpt lat="38.479271" lon="-0.601541">
        <ele>512.997</ele>
        <time>2019-06-16T14:59:49Z</time>
      </trkpt>
      <trkpt lat="38.479205" lon="-0.601481">
        <ele>512.710</ele>
        <time>2019-06-16T14:59:50Z</time>
      </trkpt>
      <trkpt lat="38.479208" lon="-0.601369">
        <ele>511.212</ele>
        <time>2019-06-16T14:59:51Z</time>
      </trkpt>
      <trkpt lat="38.479135" lon="-0.601308">
        <ele>510.789</ele>
        <time>2019-06-16T14:59:52Z</time>
      </trkpt>
      <trkpt lat="38.479066" lon="-0.601269">
        <ele>510.418</ele>
        <time>2019-06-16T14:59:53Z</time>
      </trkpt>
      <trkpt lat="38.479028" lon="-0.601125">
        <ele>508.283</ele>
        <time>2019-06-16T14:59:54Z</time>
      </trkpt>
      <trkpt lat="38.479110" lon="-0.600943">
        <ele>506.054</ele>
        <time>2019-06-16T14:59:55Z</time>
      </trkpt>
      <trkpt lat="38.479107" lon="-0.600771">
        <ele>504.456</ele>
        <time>2019-06-16T14:59:56Z</time>
      </trkpt>
      <trkpt lat="38.479088" lon="-0.600634">
        <ele>503.511</ele>
        <time>2019-06-16T14:59:57Z</time>
      </trkpt>
      <trkpt lat="38.479047" lon="-0.600529">
        <ele>503.108</ele>
        <time>2019-06-16T14:59:58Z</time>
      </trkpt>
      <trkpt lat="38.478997" lon="-0.600413">
        <ele>502.468</ele>
        <time>2019-06-16T14:59:59Z</time>
      </trkpt>
      <trkpt lat="38.478965" lon="-0.600278">
        <ele>501.192</ele>
        <time>2019-06-16T15:00:00Z</time>
      </trkpt>
      <trkpt lat="38.478896" lon="-0.600161">
        <ele>500.331</ele>
        <time>2019-06-16T15:00:01Z</time>
      </trkpt>
      <trkpt lat="38.478815" lon="-0.600091">
        <ele>500.054</ele>
        <time>2019-06-16T15:00:02Z</time>
      </trkpt>
      <trkpt lat="38.478727" lon="-0.600006">
        <ele>499.566</ele>
        <time>2019-06-16T15:00:03Z</time>
      </trkpt>
      <trkpt lat="38.478639" lon="-0.599929">
        <ele>498.883</ele>
        <time>2019-06-16T15:00:04Z</time>
      </trkpt>
      <trkpt lat="38.478548" lon="-0.599865">
        <ele>498.682</ele>
        <time>2019-06-16T15:00:05Z</time>
      </trkpt>
      <trkpt lat="38.478446" lon="-0.599776">
        <ele>497.877</ele>
        <time>2019-06-16T15:00:06Z</time>
      </trkpt>
      <trkpt lat="38.478383" lon="-0.599668">
        <ele>495.944</ele>
        <time>2019-06-16T15:00:07Z</time>
      </trkpt>
      <trkpt lat="38.478295" lon="-0.599581">
        <ele>494.805</ele>
        <time>2019-06-16T15:00:08Z</time>
      </trkpt>
      <trkpt lat="38.478197" lon="-0.599495">
        <ele>493.715</ele>
        <time>2019-06-16T15:00:09Z</time>
      </trkpt>
      <trkpt lat="38.478100" lon="-0.599435">
        <ele>493.308</ele>
        <time>2019-06-16T15:00:10Z</time>
      </trkpt>
      <trkpt lat="38.478008" lon="-0.599334">
        <ele>491.437</ele>
        <time>2019-06-16T15:00:11Z</time>
      </trkpt>
      <trkpt lat="38.477918" lon="-0.599237">
        <ele>489.021</ele>
        <time>2019-06-16T15:00:12Z</time>
      </trkpt>
      <trkpt lat="38.477819" lon="-0.599145">
        <ele>486.750</ele>
        <time>2019-06-16T15:00:13Z</time>
      </trkpt>
      <trkpt lat="38.477720" lon="-0.599057">
        <ele>485.273</ele>
        <time>2019-06-16T15:00:14Z</time>
      </trkpt>
      <trkpt lat="38.477618" lon="-0.598972">
        <ele>484.335</ele>
        <time>2019-06-16T15:00:15Z</time>
      </trkpt>
      <trkpt lat="38.477487" lon="-0.598884">
        <ele>484.082</ele>
        <time>2019-06-16T15:00:16Z</time>
      </trkpt>
      <trkpt lat="38.477380" lon="-0.598794">
        <ele>483.091</ele>
        <time>2019-06-16T15:00:17Z</time>
      </trkpt>
      <trkpt lat="38.477281" lon="-0.598692">
        <ele>481.556</ele>
        <time>2019-06-16T15:00:18Z</time>
      </trkpt>
      <trkpt lat="38.477178" lon="-0.598589">
        <ele>479.597</ele>
        <time>2019-06-16T15:00:19Z</time>
      </trkpt>
      <trkpt lat="38.477101" lon="-0.598450">
        <ele>476.523</ele>
        <time>2019-06-16T15:00:20Z</time>
      </trkpt>
      <trkpt lat="38.477008" lon="-0.598295">
        <ele>473.425</ele>
        <time>2019-06-16T15:00:21Z</time>
      </trkpt>
      <trkpt lat="38.476926" lon="-0.598166">
        <ele>470.908</ele>
        <time>2019-06-16T15:00:22Z</time>
      </trkpt>
      <trkpt lat="38.476840" lon="-0.598040">
        <ele>468.972</ele>
        <time>2019-06-16T15:00:23Z</time>
      </trkpt>
      <trkpt lat="38.476766" lon="-0.597895">
        <ele>468.196</ele>
        <time>2019-06-16T15:00:24Z</time>
      </trkpt>
      <trkpt lat="38.476675" lon="-0.597767">
        <ele>467.065</ele>
        <time>2019-06-16T15:00:25Z</time>
      </trkpt>
      <trkpt lat="38.476585" lon="-0.597629">
        <ele>467.398</ele>
        <time>2019-06-16T15:00:26Z</time>
      </trkpt>
      <trkpt lat="38.476492" lon="-0.597516">
        <ele>467.190</ele>
        <time>2019-06-16T15:00:27Z</time>
      </trkpt>
      <trkpt lat="38.476393" lon="-0.597398">
        <ele>466.347</ele>
        <time>2019-06-16T15:00:28Z</time>
      </trkpt>
      <trkpt lat="38.476303" lon="-0.597257">
        <ele>465.576</ele>
        <time>2019-06-16T15:00:29Z</time>
      </trkpt>
      <trkpt lat="38.476222" lon="-0.597108">
        <ele>465.231</ele>
        <time>2019-06-16T15:00:30Z</time>
      </trkpt>
      <trkpt lat="38.476137" lon="-0.597013">
        <ele>465.253</ele>
        <time>2019-06-16T15:00:31Z</time>
      </trkpt>
      <trkpt lat="38.476061" lon="-0.596860">
        <ele>464.304</ele>
        <time>2019-06-16T15:00:32Z</time>
      </trkpt>
      <trkpt lat="38.475976" lon="-0.596716">
        <ele>462.314</ele>
        <time>2019-06-16T15:00:33Z</time>
      </trkpt>
      <trkpt lat="38.475903" lon="-0.596579">
        <ele>459.408</ele>
        <time>2019-06-16T15:00:34Z</time>
      </trkpt>
      <trkpt lat="38.475823" lon="-0.596474">
        <ele>456.998</ele>
        <time>2019-06-16T15:00:35Z</time>
      </trkpt>
      <trkpt lat="38.475741" lon="-0.596344">
        <ele>454.782</ele>
        <time>2019-06-16T15:00:36Z</time>
      </trkpt>
      <trkpt lat="38.475651" lon="-0.596238">
        <ele>453.531</ele>
        <time>2019-06-16T15:00:37Z</time>
      </trkpt>
      <trkpt lat="38.475573" lon="-0.596112">
        <ele>451.924</ele>
        <time>2019-06-16T15:00:38Z</time>
      </trkpt>
      <trkpt lat="38.475496" lon="-0.596003">
        <ele>450.146</ele>
        <time>2019-06-16T15:00:39Z</time>
      </trkpt>
      <trkpt lat="38.475420" lon="-0.595889">
        <ele>448.273</ele>
        <time>2019-06-16T15:00:40Z</time>
      </trkpt>
      <trkpt lat="38.475352" lon="-0.595779">
        <ele>447.162</ele>
        <time>2019-06-16T15:00:41Z</time>
      </trkpt>
      <trkpt lat="38.475288" lon="-0.595682">
        <ele>446.587</ele>
        <time>2019-06-16T15:00:42Z</time>
      </trkpt>
      <trkpt lat="38.475224" lon="-0.595557">
        <ele>445.856</ele>
        <time>2019-06-16T15:00:43Z</time>
      </trkpt>
      <trkpt lat="38.475141" lon="-0.595452">
        <ele>445.959</ele>
        <time>2019-06-16T15:00:44Z</time>
      </trkpt>
      <trkpt lat="38.475080" lon="-0.595359">
        <ele>445.714</ele>
        <time>2019-06-16T15:00:45Z</time>
      </trkpt>
      <trkpt lat="38.475014" lon="-0.595241">
        <ele>445.408</ele>
        <time>2019-06-16T15:00:46Z</time>
      </trkpt>
      <trkpt lat="38.474945" lon="-0.595129">
        <ele>445.768</ele>
        <time>2019-06-16T15:00:47Z</time>
      </trkpt>
      <trkpt lat="38.474872" lon="-0.595031">
        <ele>445.952</ele>
        <time>2019-06-16T15:00:48Z</time>
      </trkpt>
      <trkpt lat="38.474792" lon="-0.594919">
        <ele>445.961</ele>
        <time>2019-06-16T15:00:49Z</time>
      </trkpt>
      <trkpt lat="38.474717" lon="-0.594809">
        <ele>446.464</ele>
        <time>2019-06-16T15:00:50Z</time>
      </trkpt>
      <trkpt lat="38.474639" lon="-0.594720">
        <ele>447.316</ele>
        <time>2019-06-16T15:00:51Z</time>
      </trkpt>
      <trkpt lat="38.474561" lon="-0.594656">
        <ele>447.633</ele>
        <time>2019-06-16T15:00:52Z</time>
      </trkpt>
      <trkpt lat="38.474478" lon="-0.594556">
        <ele>447.972</ele>
        <time>2019-06-16T15:00:53Z</time>
      </trkpt>
      <trkpt lat="38.474397" lon="-0.594457">
        <ele>447.817</ele>
        <time>2019-06-16T15:00:54Z</time>
      </trkpt>
      <trkpt lat="38.474325" lon="-0.594377">
        <ele>447.172</ele>
        <time>2019-06-16T15:00:55Z</time>
      </trkpt>
      <trkpt lat="38.474236" lon="-0.594290">
        <ele>446.113</ele>
        <time>2019-06-16T15:00:56Z</time>
      </trkpt>
      <trkpt lat="38.474158" lon="-0.594200">
        <ele>445.214</ele>
        <time>2019-06-16T15:00:57Z</time>
      </trkpt>
      <trkpt lat="38.474084" lon="-0.594137">
        <ele>444.208</ele>
        <time>2019-06-16T15:00:58Z</time>
      </trkpt>
      <trkpt lat="38.473998" lon="-0.594073">
        <ele>443.370</ele>
        <time>2019-06-16T15:00:59Z</time>
      </trkpt>
      <trkpt lat="38.473908" lon="-0.594005">
        <ele>442.534</ele>
        <time>2019-06-16T15:01:00Z</time>
      </trkpt>
      <trkpt lat="38.473824" lon="-0.593931">
        <ele>442.273</ele>
        <time>2019-06-16T15:01:01Z</time>
      </trkpt>
      <trkpt lat="38.473733" lon="-0.593871">
        <ele>441.926</ele>
        <time>2019-06-16T15:01:02Z</time>
      </trkpt>
      <trkpt lat="38.473642" lon="-0.593809">
        <ele>441.738</ele>
        <time>2019-06-16T15:01:03Z</time>
      </trkpt>
      <trkpt lat="38.473545" lon="-0.593759">
        <ele>441.545</ele>
        <time>2019-06-16T15:01:04Z</time>
      </trkpt>
      <trkpt lat="38.473446" lon="-0.593721">
        <ele>441.534</ele>
        <time>2019-06-16T15:01:05Z</time>
      </trkpt>
      <trkpt lat="38.473351" lon="-0.593681">
        <ele>441.759</ele>
        <time>2019-06-16T15:01:06Z</time>
      </trkpt>
      <trkpt lat="38.473254" lon="-0.593645">
        <ele>441.448</ele>
        <time>2019-06-16T15:01:07Z</time>
      </trkpt>
      <trkpt lat="38.473145" lon="-0.593599">
        <ele>441.261</ele>
        <time>2019-06-16T15:01:08Z</time>
      </trkpt>
      <trkpt lat="38.473052" lon="-0.593552">
        <ele>440.517</ele>
        <time>2019-06-16T15:01:09Z</time>
      </trkpt>
      <trkpt lat="38.472962" lon="-0.593496">
        <ele>438.208</ele>
        <time>2019-06-16T15:01:10Z</time>
      </trkpt>
      <trkpt lat="38.472872" lon="-0.593435">
        <ele>436.537</ele>
        <time>2019-06-16T15:01:11Z</time>
      </trkpt>
      <trkpt lat="38.472786" lon="-0.593366">
        <ele>435.821</ele>
        <time>2019-06-16T15:01:12Z</time>
      </trkpt>
      <trkpt lat="38.472704" lon="-0.593282">
        <ele>434.280</ele>
        <time>2019-06-16T15:01:13Z</time>
      </trkpt>
      <trkpt lat="38.472608" lon="-0.593207">
        <ele>432.593</ele>
        <time>2019-06-16T15:01:14Z</time>
      </trkpt>
      <trkpt lat="38.472523" lon="-0.593131">
        <ele>431.755</ele>
        <time>2019-06-16T15:01:15Z</time>
      </trkpt>
      <trkpt lat="38.472437" lon="-0.593047">
        <ele>431.682</ele>
        <time>2019-06-16T15:01:16Z</time>
      </trkpt>
      <trkpt lat="38.472351" lon="-0.592969">
        <ele>431.421</ele>
        <time>2019-06-16T15:01:17Z</time>
      </trkpt>
      <trkpt lat="38.472275" lon="-0.592903">
        <ele>431.086</ele>
        <time>2019-06-16T15:01:18Z</time>
      </trkpt>
      <trkpt lat="38.472196" lon="-0.592816">
        <ele>430.275</ele>
        <time>2019-06-16T15:01:19Z</time>
      </trkpt>
      <trkpt lat="38.472122" lon="-0.592725">
        <ele>428.228</ele>
        <time>2019-06-16T15:01:20Z</time>
      </trkpt>
      <trkpt lat="38.472030" lon="-0.592639">
        <ele>425.820</ele>
        <time>2019-06-16T15:01:21Z</time>
      </trkpt>
      <trkpt lat="38.471927" lon="-0.592555">
        <ele>423.808</ele>
        <time>2019-06-16T15:01:22Z</time>
      </trkpt>
      <trkpt lat="38.471886" lon="-0.592457">
        <ele>423.490</ele>
        <time>2019-06-16T15:01:23Z</time>
      </trkpt>
      <trkpt lat="38.471826" lon="-0.592348">
        <ele>422.784</ele>
        <time>2019-06-16T15:01:24Z</time>
      </trkpt>
      <trkpt lat="38.471768" lon="-0.592259">
        <ele>422.133</ele>
        <time>2019-06-16T15:01:25Z</time>
      </trkpt>
      <trkpt lat="38.471723" lon="-0.592174">
        <ele>422.026</ele>
        <time>2019-06-16T15:01:26Z</time>
      </trkpt>
      <trkpt lat="38.471654" lon="-0.592073">
        <ele>422.148</ele>
        <time>2019-06-16T15:01:27Z</time>
      </trkpt>
      <trkpt lat="38.471587" lon="-0.591983">
        <ele>422.595</ele>
        <time>2019-06-16T15:01:28Z</time>
      </trkpt>
      <trkpt lat="38.471505" lon="-0.591900">
        <ele>422.674</ele>
        <time>2019-06-16T15:01:29Z</time>
      </trkpt>
      <trkpt lat="38.471424" lon="-0.591822">
        <ele>422.269</ele>
        <time>2019-06-16T15:01:30Z</time>
      </trkpt>
      <trkpt lat="38.471321" lon="-0.591746">
        <ele>421.857</ele>
        <time>2019-06-16T15:01:31Z</time>
      </trkpt>
      <trkpt lat="38.471232" lon="-0.591674">
        <ele>421.400</ele>
        <time>2019-06-16T15:01:32Z</time>
      </trkpt>
      <trkpt lat="38.471150" lon="-0.591590">
        <ele>421.220</ele>
        <time>2019-06-16T15:01:33Z</time>
      </trkpt>
      <trkpt lat="38.471082" lon="-0.591506">
        <ele>420.808</ele>
        <time>2019-06-16T15:01:34Z</time>
      </trkpt>
      <trkpt lat="38.471005" lon="-0.591434">
        <ele>420.398</ele>
        <time>2019-06-16T15:01:35Z</time>
      </trkpt>
      <trkpt lat="38.470929" lon="-0.591347">
        <ele>419.222</ele>
        <time>2019-06-16T15:01:36Z</time>
      </trkpt>
      <trkpt lat="38.470872" lon="-0.591243">
        <ele>417.761</ele>
        <time>2019-06-16T15:01:37Z</time>
      </trkpt>
      <trkpt lat="38.470828" lon="-0.591138">
        <ele>416.394</ele>
        <time>2019-06-16T15:01:38Z</time>
      </trkpt>
      <trkpt lat="38.470774" lon="-0.591027">
        <ele>415.556</ele>
        <time>2019-06-16T15:01:39Z</time>
      </trkpt>
      <trkpt lat="38.470754" lon="-0.590923">
        <ele>415.073</ele>
        <time>2019-06-16T15:01:40Z</time>
      </trkpt>
      <trkpt lat="38.470796" lon="-0.590769">
        <ele>414.962</ele>
        <time>2019-06-16T15:01:41Z</time>
      </trkpt>
      <trkpt lat="38.470802" lon="-0.590667">
        <ele>414.997</ele>
        <time>2019-06-16T15:01:42Z</time>
      </trkpt>
      <trkpt lat="38.470814" lon="-0.590537">
        <ele>414.911</ele>
        <time>2019-06-16T15:01:43Z</time>
      </trkpt>
      <trkpt lat="38.470838" lon="-0.590179">
        <ele>414.721</ele>
        <time>2019-06-16T15:01:46Z</time>
      </trkpt>
      <trkpt lat="38.470856" lon="-0.590067">
        <ele>414.303</ele>
        <time>2019-06-16T15:01:47Z</time>
      </trkpt>
      <trkpt lat="38.470854" lon="-0.589964">
        <ele>413.808</ele>
        <time>2019-06-16T15:01:48Z</time>
      </trkpt>
      <trkpt lat="38.470879" lon="-0.589891">
        <ele>413.454</ele>
        <time>2019-06-16T15:01:49Z</time>
      </trkpt>
      <trkpt lat="38.470821" lon="-0.589807">
        <ele>412.618</ele>
        <time>2019-06-16T15:01:50Z</time>
      </trkpt>
      <trkpt lat="38.470764" lon="-0.589787">
        <ele>412.257</ele>
        <time>2019-06-16T15:01:51Z</time>
      </trkpt>
      <trkpt lat="38.470733" lon="-0.589714">
        <ele>411.690</ele>
        <time>2019-06-16T15:01:52Z</time>
      </trkpt>
      <trkpt lat="38.470682" lon="-0.589651">
        <ele>410.982</ele>
        <time>2019-06-16T15:01:53Z</time>
      </trkpt>
      <trkpt lat="38.470665" lon="-0.589584">
        <ele>410.499</ele>
        <time>2019-06-16T15:01:54Z</time>
      </trkpt>
      <trkpt lat="38.470634" lon="-0.589484">
        <ele>409.648</ele>
        <time>2019-06-16T15:01:56Z</time>
      </trkpt>
      <trkpt lat="38.470597" lon="-0.589420">
        <ele>409.043</ele>
        <time>2019-06-16T15:01:57Z</time>
      </trkpt>
      <trkpt lat="38.470543" lon="-0.589384">
        <ele>408.441</ele>
        <time>2019-06-16T15:01:58Z</time>
      </trkpt>
      <trkpt lat="38.470483" lon="-0.589331">
        <ele>407.581</ele>
        <time>2019-06-16T15:01:59Z</time>
      </trkpt>
      <trkpt lat="38.470446" lon="-0.589273">
        <ele>406.809</ele>
        <time>2019-06-16T15:02:00Z</time>
      </trkpt>
      <trkpt lat="38.470402" lon="-0.589203">
        <ele>406.108</ele>
        <time>2019-06-16T15:02:01Z</time>
      </trkpt>
      <trkpt lat="38.470345" lon="-0.589137">
        <ele>405.547</ele>
        <time>2019-06-16T15:02:02Z</time>
      </trkpt>
      <trkpt lat="38.470265" lon="-0.589078">
        <ele>404.981</ele>
        <time>2019-06-16T15:02:03Z</time>
      </trkpt>
      <trkpt lat="38.470219" lon="-0.589007">
        <ele>404.770</ele>
        <time>2019-06-16T15:02:04Z</time>
      </trkpt>
      <trkpt lat="38.470154" lon="-0.588955">
        <ele>404.263</ele>
        <time>2019-06-16T15:02:05Z</time>
      </trkpt>
      <trkpt lat="38.470121" lon="-0.588885">
        <ele>403.915</ele>
        <time>2019-06-16T15:02:06Z</time>
      </trkpt>
      <trkpt lat="38.470052" lon="-0.588801">
        <ele>403.362</ele>
        <time>2019-06-16T15:02:07Z</time>
      </trkpt>
      <trkpt lat="38.469998" lon="-0.588713">
        <ele>403.031</ele>
        <time>2019-06-16T15:02:08Z</time>
      </trkpt>
      <trkpt lat="38.469949" lon="-0.588639">
        <ele>402.826</ele>
        <time>2019-06-16T15:02:09Z</time>
      </trkpt>
      <trkpt lat="38.469893" lon="-0.588579">
        <ele>402.646</ele>
        <time>2019-06-16T15:02:10Z</time>
      </trkpt>
      <trkpt lat="38.469824" lon="-0.588506">
        <ele>402.588</ele>
        <time>2019-06-16T15:02:11Z</time>
      </trkpt>
      <trkpt lat="38.469757" lon="-0.588409">
        <ele>402.716</ele>
        <time>2019-06-16T15:02:12Z</time>
      </trkpt>
      <trkpt lat="38.469691" lon="-0.588320">
        <ele>403.208</ele>
        <time>2019-06-16T15:02:13Z</time>
      </trkpt>
      <trkpt lat="38.469621" lon="-0.588235">
        <ele>403.687</ele>
        <time>2019-06-16T15:02:14Z</time>
      </trkpt>
      <trkpt lat="38.469553" lon="-0.588153">
        <ele>403.951</ele>
        <time>2019-06-16T15:02:15Z</time>
      </trkpt>
      <trkpt lat="38.469484" lon="-0.588063">
        <ele>404.020</ele>
        <time>2019-06-16T15:02:16Z</time>
      </trkpt>
      <trkpt lat="38.469414" lon="-0.587981">
        <ele>403.023</ele>
        <time>2019-06-16T15:02:17Z</time>
      </trkpt>
      <trkpt lat="38.469349" lon="-0.587903">
        <ele>401.935</ele>
        <time>2019-06-16T15:02:18Z</time>
      </trkpt>
      <trkpt lat="38.469284" lon="-0.587810">
        <ele>401.112</ele>
        <time>2019-06-16T15:02:19Z</time>
      </trkpt>
      <trkpt lat="38.469214" lon="-0.587717">
        <ele>400.681</ele>
        <time>2019-06-16T15:02:20Z</time>
      </trkpt>
      <trkpt lat="38.469142" lon="-0.587619">
        <ele>399.656</ele>
        <time>2019-06-16T15:02:21Z</time>
      </trkpt>
      <trkpt lat="38.469074" lon="-0.587517">
        <ele>398.473</ele>
        <time>2019-06-16T15:02:22Z</time>
      </trkpt>
      <trkpt lat="38.469012" lon="-0.587425">
        <ele>397.685</ele>
        <time>2019-06-16T15:02:23Z</time>
      </trkpt>
      <trkpt lat="38.468947" lon="-0.587316">
        <ele>397.113</ele>
        <time>2019-06-16T15:02:24Z</time>
      </trkpt>
      <trkpt lat="38.468878" lon="-0.587208">
        <ele>396.908</ele>
        <time>2019-06-16T15:02:25Z</time>
      </trkpt>
      <trkpt lat="38.468814" lon="-0.587107">
        <ele>396.340</ele>
        <time>2019-06-16T15:02:26Z</time>
      </trkpt>
      <trkpt lat="38.468745" lon="-0.587035">
        <ele>395.824</ele>
        <time>2019-06-16T15:02:27Z</time>
      </trkpt>
      <trkpt lat="38.468685" lon="-0.586921">
        <ele>395.163</ele>
        <time>2019-06-16T15:02:28Z</time>
      </trkpt>
      <trkpt lat="38.468628" lon="-0.586814">
        <ele>394.116</ele>
        <time>2019-06-16T15:02:29Z</time>
      </trkpt>
      <trkpt lat="38.468572" lon="-0.586719">
        <ele>393.188</ele>
        <time>2019-06-16T15:02:30Z</time>
      </trkpt>
      <trkpt lat="38.468516" lon="-0.586619">
        <ele>392.145</ele>
        <time>2019-06-16T15:02:31Z</time>
      </trkpt>
      <trkpt lat="38.468452" lon="-0.586523">
        <ele>391.064</ele>
        <time>2019-06-16T15:02:32Z</time>
      </trkpt>
      <trkpt lat="38.468393" lon="-0.586425">
        <ele>389.989</ele>
        <time>2019-06-16T15:02:33Z</time>
      </trkpt>
      <trkpt lat="38.468331" lon="-0.586330">
        <ele>389.031</ele>
        <time>2019-06-16T15:02:34Z</time>
      </trkpt>
      <trkpt lat="38.468268" lon="-0.586241">
        <ele>388.961</ele>
        <time>2019-06-16T15:02:35Z</time>
      </trkpt>
      <trkpt lat="38.468216" lon="-0.586149">
        <ele>388.907</ele>
        <time>2019-06-16T15:02:36Z</time>
      </trkpt>
      <trkpt lat="38.468154" lon="-0.586047">
        <ele>388.908</ele>
        <time>2019-06-16T15:02:37Z</time>
      </trkpt>
      <trkpt lat="38.468093" lon="-0.585947">
        <ele>388.986</ele>
        <time>2019-06-16T15:02:38Z</time>
      </trkpt>
      <trkpt lat="38.468031" lon="-0.585849">
        <ele>389.090</ele>
        <time>2019-06-16T15:02:39Z</time>
      </trkpt>
      <trkpt lat="38.467966" lon="-0.585747">
        <ele>388.729</ele>
        <time>2019-06-16T15:02:40Z</time>
      </trkpt>
      <trkpt lat="38.467906" lon="-0.585650">
        <ele>388.392</ele>
        <time>2019-06-16T15:02:41Z</time>
      </trkpt>
      <trkpt lat="38.467837" lon="-0.585554">
        <ele>388.064</ele>
        <time>2019-06-16T15:02:42Z</time>
      </trkpt>
      <trkpt lat="38.467773" lon="-0.585465">
        <ele>387.681</ele>
        <time>2019-06-16T15:02:43Z</time>
      </trkpt>
      <trkpt lat="38.467715" lon="-0.585365">
        <ele>387.030</ele>
        <time>2019-06-16T15:02:44Z</time>
      </trkpt>
      <trkpt lat="38.467649" lon="-0.585266">
        <ele>386.565</ele>
        <time>2019-06-16T15:02:45Z</time>
      </trkpt>
      <trkpt lat="38.467584" lon="-0.585171">
        <ele>385.817</ele>
        <time>2019-06-16T15:02:46Z</time>
      </trkpt>
      <trkpt lat="38.467520" lon="-0.585074">
        <ele>385.387</ele>
        <time>2019-06-16T15:02:47Z</time>
      </trkpt>
      <trkpt lat="38.467459" lon="-0.584975">
        <ele>384.715</ele>
        <time>2019-06-16T15:02:48Z</time>
      </trkpt>
      <trkpt lat="38.467392" lon="-0.584901">
        <ele>383.908</ele>
        <time>2019-06-16T15:02:49Z</time>
      </trkpt>
      <trkpt lat="38.467329" lon="-0.584797">
        <ele>382.924</ele>
        <time>2019-06-16T15:02:50Z</time>
      </trkpt>
      <trkpt lat="38.467266" lon="-0.584692">
        <ele>382.048</ele>
        <time>2019-06-16T15:02:51Z</time>
      </trkpt>
      <trkpt lat="38.467197" lon="-0.584587">
        <ele>381.567</ele>
        <time>2019-06-16T15:02:52Z</time>
      </trkpt>
      <trkpt lat="38.467135" lon="-0.584483">
        <ele>381.130</ele>
        <time>2019-06-16T15:02:53Z</time>
      </trkpt>
      <trkpt lat="38.467067" lon="-0.584381">
        <ele>381.082</ele>
        <time>2019-06-16T15:02:54Z</time>
      </trkpt>
      <trkpt lat="38.467004" lon="-0.584283">
        <ele>380.719</ele>
        <time>2019-06-16T15:02:55Z</time>
      </trkpt>
      <trkpt lat="38.466937" lon="-0.584180">
        <ele>380.038</ele>
        <time>2019-06-16T15:02:56Z</time>
      </trkpt>
      <trkpt lat="38.466874" lon="-0.584082">
        <ele>379.723</ele>
        <time>2019-06-16T15:02:57Z</time>
      </trkpt>
      <trkpt lat="38.466810" lon="-0.583988">
        <ele>379.452</ele>
        <time>2019-06-16T15:02:58Z</time>
      </trkpt>
      <trkpt lat="38.466748" lon="-0.583896">
        <ele>379.053</ele>
        <time>2019-06-16T15:02:59Z</time>
      </trkpt>
      <trkpt lat="38.466680" lon="-0.583809">
        <ele>378.708</ele>
        <time>2019-06-16T15:03:00Z</time>
      </trkpt>
      <trkpt lat="38.466613" lon="-0.583726">
        <ele>378.408</ele>
        <time>2019-06-16T15:03:01Z</time>
      </trkpt>
      <trkpt lat="38.466540" lon="-0.583644">
        <ele>378.178</ele>
        <time>2019-06-16T15:03:02Z</time>
      </trkpt>
      <trkpt lat="38.466476" lon="-0.583557">
        <ele>377.582</ele>
        <time>2019-06-16T15:03:03Z</time>
      </trkpt>
      <trkpt lat="38.466402" lon="-0.583485">
        <ele>376.781</ele>
        <time>2019-06-16T15:03:04Z</time>
      </trkpt>
      <trkpt lat="38.466329" lon="-0.583411">
        <ele>375.664</ele>
        <time>2019-06-16T15:03:05Z</time>
      </trkpt>
      <trkpt lat="38.466266" lon="-0.583334">
        <ele>374.626</ele>
        <time>2019-06-16T15:03:06Z</time>
      </trkpt>
      <trkpt lat="38.466192" lon="-0.583257">
        <ele>374.163</ele>
        <time>2019-06-16T15:03:07Z</time>
      </trkpt>
      <trkpt lat="38.466113" lon="-0.583189">
        <ele>373.552</ele>
        <time>2019-06-16T15:03:08Z</time>
      </trkpt>
      <trkpt lat="38.466032" lon="-0.583129">
        <ele>372.897</ele>
        <time>2019-06-16T15:03:09Z</time>
      </trkpt>
      <trkpt lat="38.465954" lon="-0.583074">
        <ele>372.059</ele>
        <time>2019-06-16T15:03:10Z</time>
      </trkpt>
      <trkpt lat="38.465873" lon="-0.583030">
        <ele>371.103</ele>
        <time>2019-06-16T15:03:11Z</time>
      </trkpt>
      <trkpt lat="38.465784" lon="-0.582964">
        <ele>370.323</ele>
        <time>2019-06-16T15:03:12Z</time>
      </trkpt>
      <trkpt lat="38.465697" lon="-0.582912">
        <ele>369.708</ele>
        <time>2019-06-16T15:03:13Z</time>
      </trkpt>
      <trkpt lat="38.465612" lon="-0.582853">
        <ele>369.078</ele>
        <time>2019-06-16T15:03:14Z</time>
      </trkpt>
      <trkpt lat="38.465530" lon="-0.582792">
        <ele>368.252</ele>
        <time>2019-06-16T15:03:15Z</time>
      </trkpt>
      <trkpt lat="38.465466" lon="-0.582723">
        <ele>368.331</ele>
        <time>2019-06-16T15:03:16Z</time>
      </trkpt>
      <trkpt lat="38.465388" lon="-0.582644">
        <ele>368.234</ele>
        <time>2019-06-16T15:03:17Z</time>
      </trkpt>
      <trkpt lat="38.465312" lon="-0.582571">
        <ele>367.766</ele>
        <time>2019-06-16T15:03:18Z</time>
      </trkpt>
      <trkpt lat="38.465250" lon="-0.582462">
        <ele>367.873</ele>
        <time>2019-06-16T15:03:19Z</time>
      </trkpt>
      <trkpt lat="38.465198" lon="-0.582367">
        <ele>369.442</ele>
        <time>2019-06-16T15:03:20Z</time>
      </trkpt>
      <trkpt lat="38.465149" lon="-0.582267">
        <ele>370.647</ele>
        <time>2019-06-16T15:03:21Z</time>
      </trkpt>
      <trkpt lat="38.465116" lon="-0.582155">
        <ele>371.544</ele>
        <time>2019-06-16T15:03:22Z</time>
      </trkpt>
      <trkpt lat="38.465080" lon="-0.582046">
        <ele>371.905</ele>
        <time>2019-06-16T15:03:23Z</time>
      </trkpt>
      <trkpt lat="38.465053" lon="-0.581941">
        <ele>372.215</ele>
        <time>2019-06-16T15:03:24Z</time>
      </trkpt>
      <trkpt lat="38.465019" lon="-0.581833">
        <ele>371.808</ele>
        <time>2019-06-16T15:03:25Z</time>
      </trkpt>
      <trkpt lat="38.465002" lon="-0.581731">
        <ele>371.847</ele>
        <time>2019-06-16T15:03:26Z</time>
      </trkpt>
      <trkpt lat="38.464973" lon="-0.581643">
        <ele>371.451</ele>
        <time>2019-06-16T15:03:27Z</time>
      </trkpt>
      <trkpt lat="38.464941" lon="-0.581545">
        <ele>370.910</ele>
        <time>2019-06-16T15:03:28Z</time>
      </trkpt>
      <trkpt lat="38.464899" lon="-0.581455">
        <ele>369.953</ele>
        <time>2019-06-16T15:03:29Z</time>
      </trkpt>
      <trkpt lat="38.464857" lon="-0.581347">
        <ele>369.055</ele>
        <time>2019-06-16T15:03:30Z</time>
      </trkpt>
      <trkpt lat="38.464812" lon="-0.581239">
        <ele>368.012</ele>
        <time>2019-06-16T15:03:31Z</time>
      </trkpt>
      <trkpt lat="38.464795" lon="-0.581152">
        <ele>367.781</ele>
        <time>2019-06-16T15:03:32Z</time>
      </trkpt>
      <trkpt lat="38.464764" lon="-0.581043">
        <ele>366.816</ele>
        <time>2019-06-16T15:03:33Z</time>
      </trkpt>
      <trkpt lat="38.464741" lon="-0.580940">
        <ele>365.887</ele>
        <time>2019-06-16T15:03:34Z</time>
      </trkpt>
      <trkpt lat="38.464705" lon="-0.580842">
        <ele>364.842</ele>
        <time>2019-06-16T15:03:35Z</time>
      </trkpt>
      <trkpt lat="38.464683" lon="-0.580731">
        <ele>363.826</ele>
        <time>2019-06-16T15:03:36Z</time>
      </trkpt>
      <trkpt lat="38.464652" lon="-0.580629">
        <ele>362.608</ele>
        <time>2019-06-16T15:03:37Z</time>
      </trkpt>
      <trkpt lat="38.464612" lon="-0.580508">
        <ele>361.251</ele>
        <time>2019-06-16T15:03:38Z</time>
      </trkpt>
      <trkpt lat="38.464570" lon="-0.580398">
        <ele>359.935</ele>
        <time>2019-06-16T15:03:39Z</time>
      </trkpt>
      <trkpt lat="38.464543" lon="-0.580295">
        <ele>358.964</ele>
        <time>2019-06-16T15:03:40Z</time>
      </trkpt>
      <trkpt lat="38.464505" lon="-0.580181">
        <ele>358.417</ele>
        <time>2019-06-16T15:03:41Z</time>
      </trkpt>
      <trkpt lat="38.464476" lon="-0.580066">
        <ele>358.229</ele>
        <time>2019-06-16T15:03:42Z</time>
      </trkpt>
      <trkpt lat="38.464432" lon="-0.579953">
        <ele>357.676</ele>
        <time>2019-06-16T15:03:43Z</time>
      </trkpt>
      <trkpt lat="38.464384" lon="-0.579868">
        <ele>356.485</ele>
        <time>2019-06-16T15:03:44Z</time>
      </trkpt>
      <trkpt lat="38.464339" lon="-0.579777">
        <ele>355.520</ele>
        <time>2019-06-16T15:03:45Z</time>
      </trkpt>
      <trkpt lat="38.464285" lon="-0.579699">
        <ele>354.733</ele>
        <time>2019-06-16T15:03:46Z</time>
      </trkpt>
      <trkpt lat="38.464232" lon="-0.579600">
        <ele>354.223</ele>
        <time>2019-06-16T15:03:47Z</time>
      </trkpt>
      <trkpt lat="38.464184" lon="-0.579511">
        <ele>353.915</ele>
        <time>2019-06-16T15:03:48Z</time>
      </trkpt>
      <trkpt lat="38.464141" lon="-0.579406">
        <ele>354.008</ele>
        <time>2019-06-16T15:03:49Z</time>
      </trkpt>
      <trkpt lat="38.464087" lon="-0.579312">
        <ele>354.296</ele>
        <time>2019-06-16T15:03:50Z</time>
      </trkpt>
      <trkpt lat="38.464029" lon="-0.579220">
        <ele>354.340</ele>
        <time>2019-06-16T15:03:51Z</time>
      </trkpt>
      <trkpt lat="38.463978" lon="-0.579138">
        <ele>354.229</ele>
        <time>2019-06-16T15:03:52Z</time>
      </trkpt>
      <trkpt lat="38.463922" lon="-0.579043">
        <ele>353.492</ele>
        <time>2019-06-16T15:03:53Z</time>
      </trkpt>
      <trkpt lat="38.463863" lon="-0.578960">
        <ele>352.374</ele>
        <time>2019-06-16T15:03:54Z</time>
      </trkpt>
      <trkpt lat="38.463807" lon="-0.578878">
        <ele>351.441</ele>
        <time>2019-06-16T15:03:55Z</time>
      </trkpt>
      <trkpt lat="38.463746" lon="-0.578798">
        <ele>350.520</ele>
        <time>2019-06-16T15:03:56Z</time>
      </trkpt>
      <trkpt lat="38.463677" lon="-0.578714">
        <ele>349.485</ele>
        <time>2019-06-16T15:03:57Z</time>
      </trkpt>
      <trkpt lat="38.463608" lon="-0.578637">
        <ele>348.285</ele>
        <time>2019-06-16T15:03:58Z</time>
      </trkpt>
      <trkpt lat="38.463547" lon="-0.578552">
        <ele>348.089</ele>
        <time>2019-06-16T15:03:59Z</time>
      </trkpt>
      <trkpt lat="38.463474" lon="-0.578472">
        <ele>348.017</ele>
        <time>2019-06-16T15:04:00Z</time>
      </trkpt>
      <trkpt lat="38.463401" lon="-0.578398">
        <ele>348.008</ele>
        <time>2019-06-16T15:04:01Z</time>
      </trkpt>
      <trkpt lat="38.463328" lon="-0.578322">
        <ele>347.981</ele>
        <time>2019-06-16T15:04:02Z</time>
      </trkpt>
      <trkpt lat="38.463253" lon="-0.578245">
        <ele>347.185</ele>
        <time>2019-06-16T15:04:03Z</time>
      </trkpt>
      <trkpt lat="38.463170" lon="-0.578166">
        <ele>346.774</ele>
        <time>2019-06-16T15:04:04Z</time>
      </trkpt>
      <trkpt lat="38.463092" lon="-0.578087">
        <ele>346.857</ele>
        <time>2019-06-16T15:04:05Z</time>
      </trkpt>
      <trkpt lat="38.463016" lon="-0.578024">
        <ele>346.949</ele>
        <time>2019-06-16T15:04:06Z</time>
      </trkpt>
      <trkpt lat="38.462938" lon="-0.577959">
        <ele>346.876</ele>
        <time>2019-06-16T15:04:07Z</time>
      </trkpt>
      <trkpt lat="38.462863" lon="-0.577886">
        <ele>346.875</ele>
        <time>2019-06-16T15:04:08Z</time>
      </trkpt>
      <trkpt lat="38.462786" lon="-0.577814">
        <ele>347.090</ele>
        <time>2019-06-16T15:04:09Z</time>
      </trkpt>
      <trkpt lat="38.462726" lon="-0.577714">
        <ele>346.258</ele>
        <time>2019-06-16T15:04:10Z</time>
      </trkpt>
      <trkpt lat="38.462665" lon="-0.577625">
        <ele>345.152</ele>
        <time>2019-06-16T15:04:11Z</time>
      </trkpt>
      <trkpt lat="38.462604" lon="-0.577529">
        <ele>344.017</ele>
        <time>2019-06-16T15:04:12Z</time>
      </trkpt>
      <trkpt lat="38.462542" lon="-0.577450">
        <ele>342.908</ele>
        <time>2019-06-16T15:04:13Z</time>
      </trkpt>
      <trkpt lat="38.462483" lon="-0.577379">
        <ele>342.018</ele>
        <time>2019-06-16T15:04:14Z</time>
      </trkpt>
      <trkpt lat="38.462402" lon="-0.577303">
        <ele>341.072</ele>
        <time>2019-06-16T15:04:15Z</time>
      </trkpt>
      <trkpt lat="38.462341" lon="-0.577239">
        <ele>340.551</ele>
        <time>2019-06-16T15:04:16Z</time>
      </trkpt>
      <trkpt lat="38.462268" lon="-0.577186">
        <ele>340.124</ele>
        <time>2019-06-16T15:04:17Z</time>
      </trkpt>
      <trkpt lat="38.462184" lon="-0.577136">
        <ele>339.976</ele>
        <time>2019-06-16T15:04:18Z</time>
      </trkpt>
      <trkpt lat="38.462101" lon="-0.577080">
        <ele>339.673</ele>
        <time>2019-06-16T15:04:19Z</time>
      </trkpt>
      <trkpt lat="38.462013" lon="-0.577057">
        <ele>339.232</ele>
        <time>2019-06-16T15:04:20Z</time>
      </trkpt>
      <trkpt lat="38.461929" lon="-0.577023">
        <ele>338.927</ele>
        <time>2019-06-16T15:04:21Z</time>
      </trkpt>
      <trkpt lat="38.461855" lon="-0.577021">
        <ele>338.588</ele>
        <time>2019-06-16T15:04:22Z</time>
      </trkpt>
      <trkpt lat="38.461772" lon="-0.577026">
        <ele>338.124</ele>
        <time>2019-06-16T15:04:23Z</time>
      </trkpt>
      <trkpt lat="38.461690" lon="-0.577048">
        <ele>337.926</ele>
        <time>2019-06-16T15:04:24Z</time>
      </trkpt>
      <trkpt lat="38.461612" lon="-0.577061">
        <ele>338.008</ele>
        <time>2019-06-16T15:04:25Z</time>
      </trkpt>
      <trkpt lat="38.461539" lon="-0.577066">
        <ele>338.121</ele>
        <time>2019-06-16T15:04:26Z</time>
      </trkpt>
      <trkpt lat="38.461473" lon="-0.577037">
        <ele>338.165</ele>
        <time>2019-06-16T15:04:27Z</time>
      </trkpt>
      <trkpt lat="38.461411" lon="-0.576997">
        <ele>338.174</ele>
        <time>2019-06-16T15:04:28Z</time>
      </trkpt>
      <trkpt lat="38.461348" lon="-0.576958">
        <ele>338.287</ele>
        <time>2019-06-16T15:04:29Z</time>
      </trkpt>
      <trkpt lat="38.461293" lon="-0.576925">
        <ele>338.249</ele>
        <time>2019-06-16T15:04:30Z</time>
      </trkpt>
      <trkpt lat="38.461234" lon="-0.576879">
        <ele>338.016</ele>
        <time>2019-06-16T15:04:31Z</time>
      </trkpt>
      <trkpt lat="38.461189" lon="-0.576819">
        <ele>337.565</ele>
        <time>2019-06-16T15:04:32Z</time>
      </trkpt>
      <trkpt lat="38.461140" lon="-0.576760">
        <ele>337.040</ele>
        <time>2019-06-16T15:04:33Z</time>
      </trkpt>
      <trkpt lat="38.461087" lon="-0.576699">
        <ele>336.427</ele>
        <time>2019-06-16T15:04:34Z</time>
      </trkpt>
      <trkpt lat="38.461039" lon="-0.576637">
        <ele>335.668</ele>
        <time>2019-06-16T15:04:35Z</time>
      </trkpt>
      <trkpt lat="38.460977" lon="-0.576588">
        <ele>335.014</ele>
        <time>2019-06-16T15:04:36Z</time>
      </trkpt>
      <trkpt lat="38.460920" lon="-0.576524">
        <ele>334.308</ele>
        <time>2019-06-16T15:04:37Z</time>
      </trkpt>
      <trkpt lat="38.460863" lon="-0.576470">
        <ele>333.835</ele>
        <time>2019-06-16T15:04:38Z</time>
      </trkpt>
      <trkpt lat="38.460810" lon="-0.576449">
        <ele>333.839</ele>
        <time>2019-06-16T15:04:39Z</time>
      </trkpt>
      <trkpt lat="38.460747" lon="-0.576406">
        <ele>334.128</ele>
        <time>2019-06-16T15:04:40Z</time>
      </trkpt>
      <trkpt lat="38.460681" lon="-0.576368">
        <ele>334.541</ele>
        <time>2019-06-16T15:04:41Z</time>
      </trkpt>
      <trkpt lat="38.460616" lon="-0.576325">
        <ele>334.943</ele>
        <time>2019-06-16T15:04:42Z</time>
      </trkpt>
      <trkpt lat="38.460552" lon="-0.576282">
        <ele>335.210</ele>
        <time>2019-06-16T15:04:43Z</time>
      </trkpt>
      <trkpt lat="38.460493" lon="-0.576226">
        <ele>335.119</ele>
        <time>2019-06-16T15:04:44Z</time>
      </trkpt>
      <trkpt lat="38.460424" lon="-0.576174">
        <ele>335.284</ele>
        <time>2019-06-16T15:04:45Z</time>
      </trkpt>
      <trkpt lat="38.460361" lon="-0.576128">
        <ele>335.443</ele>
        <time>2019-06-16T15:04:46Z</time>
      </trkpt>
      <trkpt lat="38.460311" lon="-0.576097">
        <ele>335.664</ele>
        <time>2019-06-16T15:04:47Z</time>
      </trkpt>
      <trkpt lat="38.460253" lon="-0.576037">
        <ele>335.110</ele>
        <time>2019-06-16T15:04:48Z</time>
      </trkpt>
      <trkpt lat="38.460181" lon="-0.575984">
        <ele>334.208</ele>
        <time>2019-06-16T15:04:49Z</time>
      </trkpt>
      <trkpt lat="38.460114" lon="-0.575944">
        <ele>333.767</ele>
        <time>2019-06-16T15:04:50Z</time>
      </trkpt>
      <trkpt lat="38.460048" lon="-0.575895">
        <ele>333.331</ele>
        <time>2019-06-16T15:04:51Z</time>
      </trkpt>
      <trkpt lat="38.459979" lon="-0.575836">
        <ele>332.910</ele>
        <time>2019-06-16T15:04:52Z</time>
      </trkpt>
      <trkpt lat="38.459914" lon="-0.575783">
        <ele>332.343</ele>
        <time>2019-06-16T15:04:53Z</time>
      </trkpt>
      <trkpt lat="38.459846" lon="-0.575720">
        <ele>331.735</ele>
        <time>2019-06-16T15:04:54Z</time>
      </trkpt>
      <trkpt lat="38.459784" lon="-0.575653">
        <ele>331.362</ele>
        <time>2019-06-16T15:04:55Z</time>
      </trkpt>
      <trkpt lat="38.459731" lon="-0.575571">
        <ele>331.051</ele>
        <time>2019-06-16T15:04:56Z</time>
      </trkpt>
      <trkpt lat="38.459679" lon="-0.575498">
        <ele>330.526</ele>
        <time>2019-06-16T15:04:57Z</time>
      </trkpt>
      <trkpt lat="38.459620" lon="-0.575427">
        <ele>330.042</ele>
        <time>2019-06-16T15:04:58Z</time>
      </trkpt>
      <trkpt lat="38.459566" lon="-0.575356">
        <ele>329.622</ele>
        <time>2019-06-16T15:04:59Z</time>
      </trkpt>
      <trkpt lat="38.459538" lon="-0.575255">
        <ele>329.414</ele>
        <time>2019-06-16T15:05:00Z</time>
      </trkpt>
      <trkpt lat="38.459484" lon="-0.575178">
        <ele>329.408</ele>
        <time>2019-06-16T15:05:01Z</time>
      </trkpt>
      <trkpt lat="38.459412" lon="-0.575126">
        <ele>329.537</ele>
        <time>2019-06-16T15:05:02Z</time>
      </trkpt>
      <trkpt lat="38.459360" lon="-0.575056">
        <ele>329.611</ele>
        <time>2019-06-16T15:05:03Z</time>
      </trkpt>
      <trkpt lat="38.459293" lon="-0.574988">
        <ele>329.540</ele>
        <time>2019-06-16T15:05:04Z</time>
      </trkpt>
      <trkpt lat="38.459231" lon="-0.574909">
        <ele>329.273</ele>
        <time>2019-06-16T15:05:05Z</time>
      </trkpt>
      <trkpt lat="38.459191" lon="-0.574817">
        <ele>329.145</ele>
        <time>2019-06-16T15:05:06Z</time>
      </trkpt>
      <trkpt lat="38.459134" lon="-0.574738">
        <ele>328.562</ele>
        <time>2019-06-16T15:05:07Z</time>
      </trkpt>
      <trkpt lat="38.459087" lon="-0.574658">
        <ele>327.521</ele>
        <time>2019-06-16T15:05:08Z</time>
      </trkpt>
      <trkpt lat="38.459026" lon="-0.574593">
        <ele>326.366</ele>
        <time>2019-06-16T15:05:09Z</time>
      </trkpt>
      <trkpt lat="38.458967" lon="-0.574516">
        <ele>325.224</ele>
        <time>2019-06-16T15:05:10Z</time>
      </trkpt>
      <trkpt lat="38.458909" lon="-0.574440">
        <ele>324.204</ele>
        <time>2019-06-16T15:05:11Z</time>
      </trkpt>
      <trkpt lat="38.458838" lon="-0.574362">
        <ele>324.314</ele>
        <time>2019-06-16T15:05:12Z</time>
      </trkpt>
      <trkpt lat="38.458781" lon="-0.574285">
        <ele>324.608</ele>
        <time>2019-06-16T15:05:13Z</time>
      </trkpt>
      <trkpt lat="38.458726" lon="-0.574210">
        <ele>324.815</ele>
        <time>2019-06-16T15:05:14Z</time>
      </trkpt>
      <trkpt lat="38.458673" lon="-0.574131">
        <ele>325.069</ele>
        <time>2019-06-16T15:05:15Z</time>
      </trkpt>
      <trkpt lat="38.458619" lon="-0.574063">
        <ele>325.028</ele>
        <time>2019-06-16T15:05:16Z</time>
      </trkpt>
      <trkpt lat="38.458556" lon="-0.573977">
        <ele>324.961</ele>
        <time>2019-06-16T15:05:17Z</time>
      </trkpt>
      <trkpt lat="38.458484" lon="-0.573916">
        <ele>324.673</ele>
        <time>2019-06-16T15:05:18Z</time>
      </trkpt>
      <trkpt lat="38.458424" lon="-0.573844">
        <ele>324.220</ele>
        <time>2019-06-16T15:05:19Z</time>
      </trkpt>
      <trkpt lat="38.458363" lon="-0.573772">
        <ele>323.799</ele>
        <time>2019-06-16T15:05:20Z</time>
      </trkpt>
      <trkpt lat="38.458305" lon="-0.573713">
        <ele>323.194</ele>
        <time>2019-06-16T15:05:21Z</time>
      </trkpt>
      <trkpt lat="38.458259" lon="-0.573632">
        <ele>322.324</ele>
        <time>2019-06-16T15:05:22Z</time>
      </trkpt>
      <trkpt lat="38.458208" lon="-0.573563">
        <ele>321.604</ele>
        <time>2019-06-16T15:05:23Z</time>
      </trkpt>
      <trkpt lat="38.458157" lon="-0.573479">
        <ele>321.214</ele>
        <time>2019-06-16T15:05:24Z</time>
      </trkpt>
      <trkpt lat="38.458096" lon="-0.573398">
        <ele>321.008</ele>
        <time>2019-06-16T15:05:25Z</time>
      </trkpt>
      <trkpt lat="38.458030" lon="-0.573324">
        <ele>320.975</ele>
        <time>2019-06-16T15:05:26Z</time>
      </trkpt>
      <trkpt lat="38.457962" lon="-0.573251">
        <ele>320.989</ele>
        <time>2019-06-16T15:05:27Z</time>
      </trkpt>
      <trkpt lat="38.457900" lon="-0.573168">
        <ele>320.758</ele>
        <time>2019-06-16T15:05:28Z</time>
      </trkpt>
      <trkpt lat="38.457841" lon="-0.573087">
        <ele>320.491</ele>
        <time>2019-06-16T15:05:29Z</time>
      </trkpt>
      <trkpt lat="38.457771" lon="-0.572982">
        <ele>320.283</ele>
        <time>2019-06-16T15:05:30Z</time>
      </trkpt>
      <trkpt lat="38.457757" lon="-0.572916">
        <ele>320.440</ele>
        <time>2019-06-16T15:05:31Z</time>
      </trkpt>
      <trkpt lat="38.457718" lon="-0.573058">
        <ele>319.899</ele>
        <time>2019-06-16T15:05:32Z</time>
      </trkpt>
      <trkpt lat="38.457661" lon="-0.572975">
        <ele>319.714</ele>
        <time>2019-06-16T15:05:33Z</time>
      </trkpt>
      <trkpt lat="38.457592" lon="-0.572878">
        <ele>319.582</ele>
        <time>2019-06-16T15:05:34Z</time>
      </trkpt>
      <trkpt lat="38.457557" lon="-0.572724">
        <ele>319.443</ele>
        <time>2019-06-16T15:05:35Z</time>
      </trkpt>
      <trkpt lat="38.457487" lon="-0.572644">
        <ele>318.917</ele>
        <time>2019-06-16T15:05:36Z</time>
      </trkpt>
      <trkpt lat="38.457428" lon="-0.572546">
        <ele>318.508</ele>
        <time>2019-06-16T15:05:37Z</time>
      </trkpt>
      <trkpt lat="38.457367" lon="-0.572478">
        <ele>318.081</ele>
        <time>2019-06-16T15:05:38Z</time>
      </trkpt>
      <trkpt lat="38.457317" lon="-0.572387">
        <ele>317.525</ele>
        <time>2019-06-16T15:05:39Z</time>
      </trkpt>
      <trkpt lat="38.457252" lon="-0.572289">
        <ele>317.144</ele>
        <time>2019-06-16T15:05:40Z</time>
      </trkpt>
      <trkpt lat="38.457188" lon="-0.572210">
        <ele>317.057</ele>
        <time>2019-06-16T15:05:41Z</time>
      </trkpt>
      <trkpt lat="38.457143" lon="-0.572142">
        <ele>317.039</ele>
        <time>2019-06-16T15:05:42Z</time>
      </trkpt>
      <trkpt lat="38.457081" lon="-0.572078">
        <ele>317.066</ele>
        <time>2019-06-16T15:05:43Z</time>
      </trkpt>
      <trkpt lat="38.457032" lon="-0.572015">
        <ele>317.025</ele>
        <time>2019-06-16T15:05:44Z</time>
      </trkpt>
      <trkpt lat="38.456978" lon="-0.571955">
        <ele>317.050</ele>
        <time>2019-06-16T15:05:45Z</time>
      </trkpt>
      <trkpt lat="38.456939" lon="-0.571877">
        <ele>317.038</ele>
        <time>2019-06-16T15:05:46Z</time>
      </trkpt>
      <trkpt lat="38.456904" lon="-0.571784">
        <ele>316.970</ele>
        <time>2019-06-16T15:05:47Z</time>
      </trkpt>
      <trkpt lat="38.456858" lon="-0.571727">
        <ele>316.817</ele>
        <time>2019-06-16T15:05:48Z</time>
      </trkpt>
      <trkpt lat="38.456812" lon="-0.571688">
        <ele>316.608</ele>
        <time>2019-06-16T15:05:49Z</time>
      </trkpt>
      <trkpt lat="38.456734" lon="-0.571701">
        <ele>316.326</ele>
        <time>2019-06-16T15:05:51Z</time>
      </trkpt>
      <trkpt lat="38.456693" lon="-0.571760">
        <ele>316.480</ele>
        <time>2019-06-16T15:05:52Z</time>
      </trkpt>
      <trkpt lat="38.456647" lon="-0.571770">
        <ele>316.399</ele>
        <time>2019-06-16T15:05:53Z</time>
      </trkpt>
      <trkpt lat="38.456547" lon="-0.571819">
        <ele>315.942</ele>
        <time>2019-06-16T15:05:55Z</time>
      </trkpt>
      <trkpt lat="38.456501" lon="-0.571878">
        <ele>315.764</ele>
        <time>2019-06-16T15:05:56Z</time>
      </trkpt>
      <trkpt lat="38.456472" lon="-0.571956">
        <ele>315.641</ele>
        <time>2019-06-16T15:05:57Z</time>
      </trkpt>
      <trkpt lat="38.456427" lon="-0.572008">
        <ele>315.090</ele>
        <time>2019-06-16T15:05:58Z</time>
      </trkpt>
      <trkpt lat="38.456330" lon="-0.572070">
        <ele>314.185</ele>
        <time>2019-06-16T15:06:00Z</time>
      </trkpt>
      <trkpt lat="38.456337" lon="-0.572140">
        <ele>313.948</ele>
        <time>2019-06-16T15:06:01Z</time>
      </trkpt>
      <trkpt lat="38.456324" lon="-0.572216">
        <ele>313.661</ele>
        <time>2019-06-16T15:06:03Z</time>
      </trkpt>
      <trkpt lat="38.456276" lon="-0.572219">
        <ele>313.217</ele>
        <time>2019-06-16T15:06:04Z</time>
      </trkpt>
      <trkpt lat="38.456214" lon="-0.572182">
        <ele>312.908</ele>
        <time>2019-06-16T15:06:05Z</time>
      </trkpt>
      <trkpt lat="38.456154" lon="-0.572185">
        <ele>312.447</ele>
        <time>2019-06-16T15:06:06Z</time>
      </trkpt>
      <trkpt lat="38.456098" lon="-0.572174">
        <ele>312.121</ele>
        <time>2019-06-16T15:06:07Z</time>
      </trkpt>
      <trkpt lat="38.456049" lon="-0.572155">
        <ele>311.960</ele>
        <time>2019-06-16T15:06:08Z</time>
      </trkpt>
      <trkpt lat="38.455992" lon="-0.572135">
        <ele>311.623</ele>
        <time>2019-06-16T15:06:09Z</time>
      </trkpt>
      <trkpt lat="38.455943" lon="-0.572094">
        <ele>311.315</ele>
        <time>2019-06-16T15:06:10Z</time>
      </trkpt>
      <trkpt lat="38.455868" lon="-0.572053">
        <ele>310.752</ele>
        <time>2019-06-16T15:06:12Z</time>
      </trkpt>
      <trkpt lat="38.455814" lon="-0.572084">
        <ele>310.411</ele>
        <time>2019-06-16T15:06:13Z</time>
      </trkpt>
      <trkpt lat="38.455760" lon="-0.572075">
        <ele>309.916</ele>
        <time>2019-06-16T15:06:14Z</time>
      </trkpt>
      <trkpt lat="38.455684" lon="-0.572060">
        <ele>309.238</ele>
        <time>2019-06-16T15:06:15Z</time>
      </trkpt>
      <trkpt lat="38.455652" lon="-0.572019">
        <ele>308.770</ele>
        <time>2019-06-16T15:06:16Z</time>
      </trkpt>
      <trkpt lat="38.455594" lon="-0.571999">
        <ele>307.917</ele>
        <time>2019-06-16T15:06:17Z</time>
      </trkpt>
      <trkpt lat="38.455525" lon="-0.571987">
        <ele>307.408</ele>
        <time>2019-06-16T15:06:18Z</time>
      </trkpt>
      <trkpt lat="38.455470" lon="-0.571992">
        <ele>307.226</ele>
        <time>2019-06-16T15:06:19Z</time>
      </trkpt>
      <trkpt lat="38.455401" lon="-0.571976">
        <ele>306.870</ele>
        <time>2019-06-16T15:06:20Z</time>
      </trkpt>
      <trkpt lat="38.455321" lon="-0.571969">
        <ele>306.449</ele>
        <time>2019-06-16T15:06:21Z</time>
      </trkpt>
      <trkpt lat="38.455249" lon="-0.571944">
        <ele>306.272</ele>
        <time>2019-06-16T15:06:22Z</time>
      </trkpt>
      <trkpt lat="38.455189" lon="-0.571916">
        <ele>306.674</ele>
        <time>2019-06-16T15:06:23Z</time>
      </trkpt>
      <trkpt lat="38.455112" lon="-0.571891">
        <ele>307.281</ele>
        <time>2019-06-16T15:06:24Z</time>
      </trkpt>
      <trkpt lat="38.455051" lon="-0.571861">
        <ele>307.690</ele>
        <time>2019-06-16T15:06:25Z</time>
      </trkpt>
      <trkpt lat="38.454969" lon="-0.571843">
        <ele>308.255</ele>
        <time>2019-06-16T15:06:26Z</time>
      </trkpt>
      <trkpt lat="38.454898" lon="-0.571840">
        <ele>308.646</ele>
        <time>2019-06-16T15:06:27Z</time>
      </trkpt>
      <trkpt lat="38.454820" lon="-0.571822">
        <ele>309.088</ele>
        <time>2019-06-16T15:06:28Z</time>
      </trkpt>
      <trkpt lat="38.454741" lon="-0.571793">
        <ele>309.416</ele>
        <time>2019-06-16T15:06:29Z</time>
      </trkpt>
      <trkpt lat="38.454663" lon="-0.571763">
        <ele>309.108</ele>
        <time>2019-06-16T15:06:30Z</time>
      </trkpt>
      <trkpt lat="38.454595" lon="-0.571730">
        <ele>308.537</ele>
        <time>2019-06-16T15:06:31Z</time>
      </trkpt>
      <trkpt lat="38.454516" lon="-0.571690">
        <ele>307.781</ele>
        <time>2019-06-16T15:06:32Z</time>
      </trkpt>
      <trkpt lat="38.454435" lon="-0.571642">
        <ele>306.810</ele>
        <time>2019-06-16T15:06:33Z</time>
      </trkpt>
      <trkpt lat="38.454349" lon="-0.571604">
        <ele>306.553</ele>
        <time>2019-06-16T15:06:34Z</time>
      </trkpt>
      <trkpt lat="38.454275" lon="-0.571581">
        <ele>306.455</ele>
        <time>2019-06-16T15:06:35Z</time>
      </trkpt>
      <trkpt lat="38.454205" lon="-0.571575">
        <ele>306.332</ele>
        <time>2019-06-16T15:06:36Z</time>
      </trkpt>
      <trkpt lat="38.454124" lon="-0.571535">
        <ele>306.031</ele>
        <time>2019-06-16T15:06:37Z</time>
      </trkpt>
      <trkpt lat="38.454044" lon="-0.571497">
        <ele>305.676</ele>
        <time>2019-06-16T15:06:38Z</time>
      </trkpt>
      <trkpt lat="38.453956" lon="-0.571488">
        <ele>305.444</ele>
        <time>2019-06-16T15:06:39Z</time>
      </trkpt>
      <trkpt lat="38.453895" lon="-0.571465">
        <ele>305.305</ele>
        <time>2019-06-16T15:06:40Z</time>
      </trkpt>
      <trkpt lat="38.453816" lon="-0.571455">
        <ele>305.515</ele>
        <time>2019-06-16T15:06:41Z</time>
      </trkpt>
      <trkpt lat="38.453727" lon="-0.571455">
        <ele>305.808</ele>
        <time>2019-06-16T15:06:42Z</time>
      </trkpt>
      <trkpt lat="38.453646" lon="-0.571435">
        <ele>306.077</ele>
        <time>2019-06-16T15:06:43Z</time>
      </trkpt>
      <trkpt lat="38.453568" lon="-0.571415">
        <ele>305.941</ele>
        <time>2019-06-16T15:06:44Z</time>
      </trkpt>
      <trkpt lat="38.453504" lon="-0.571395">
        <ele>305.670</ele>
        <time>2019-06-16T15:06:45Z</time>
      </trkpt>
      <trkpt lat="38.453432" lon="-0.571374">
        <ele>305.313</ele>
        <time>2019-06-16T15:06:46Z</time>
      </trkpt>
      <trkpt lat="38.453365" lon="-0.571349">
        <ele>305.165</ele>
        <time>2019-06-16T15:06:47Z</time>
      </trkpt>
      <trkpt lat="38.453296" lon="-0.571317">
        <ele>304.752</ele>
        <time>2019-06-16T15:06:48Z</time>
      </trkpt>
      <trkpt lat="38.453242" lon="-0.571298">
        <ele>304.161</ele>
        <time>2019-06-16T15:06:49Z</time>
      </trkpt>
      <trkpt lat="38.453198" lon="-0.571266">
        <ele>303.676</ele>
        <time>2019-06-16T15:06:50Z</time>
      </trkpt>
      <trkpt lat="38.453114" lon="-0.571215">
        <ele>302.488</ele>
        <time>2019-06-16T15:06:52Z</time>
      </trkpt>
      <trkpt lat="38.453040" lon="-0.571139">
        <ele>301.124</ele>
        <time>2019-06-16T15:06:54Z</time>
      </trkpt>
      <trkpt lat="38.452978" lon="-0.571114">
        <ele>300.726</ele>
        <time>2019-06-16T15:06:55Z</time>
      </trkpt>
      <trkpt lat="38.452920" lon="-0.571096">
        <ele>300.508</ele>
        <time>2019-06-16T15:06:56Z</time>
      </trkpt>
      <trkpt lat="38.452868" lon="-0.571033">
        <ele>300.061</ele>
        <time>2019-06-16T15:06:57Z</time>
      </trkpt>
      <trkpt lat="38.452810" lon="-0.570991">
        <ele>299.725</ele>
        <time>2019-06-16T15:06:58Z</time>
      </trkpt>
      <trkpt lat="38.452749" lon="-0.570945">
        <ele>299.584</ele>
        <time>2019-06-16T15:06:59Z</time>
      </trkpt>
      <trkpt lat="38.452681" lon="-0.570920">
        <ele>299.887</ele>
        <time>2019-06-16T15:07:00Z</time>
      </trkpt>
      <trkpt lat="38.452616" lon="-0.570921">
        <ele>300.189</ele>
        <time>2019-06-16T15:07:01Z</time>
      </trkpt>
      <trkpt lat="38.452549" lon="-0.570870">
        <ele>300.136</ele>
        <time>2019-06-16T15:07:02Z</time>
      </trkpt>
      <trkpt lat="38.452473" lon="-0.570816">
        <ele>300.115</ele>
        <time>2019-06-16T15:07:03Z</time>
      </trkpt>
      <trkpt lat="38.452398" lon="-0.570759">
        <ele>300.470</ele>
        <time>2019-06-16T15:07:04Z</time>
      </trkpt>
      <trkpt lat="38.452319" lon="-0.570678">
        <ele>300.455</ele>
        <time>2019-06-16T15:07:05Z</time>
      </trkpt>
      <trkpt lat="38.452268" lon="-0.570587">
        <ele>300.007</ele>
        <time>2019-06-16T15:07:06Z</time>
      </trkpt>
      <trkpt lat="38.452180" lon="-0.570543">
        <ele>299.917</ele>
        <time>2019-06-16T15:07:07Z</time>
      </trkpt>
      <trkpt lat="38.452096" lon="-0.570530">
        <ele>299.808</ele>
        <time>2019-06-16T15:07:08Z</time>
      </trkpt>
      <trkpt lat="38.452010" lon="-0.570495">
        <ele>299.468</ele>
        <time>2019-06-16T15:07:09Z</time>
      </trkpt>
      <trkpt lat="38.451933" lon="-0.570442">
        <ele>298.722</ele>
        <time>2019-06-16T15:07:10Z</time>
      </trkpt>
      <trkpt lat="38.451852" lon="-0.570384">
        <ele>298.081</ele>
        <time>2019-06-16T15:07:11Z</time>
      </trkpt>
      <trkpt lat="38.451780" lon="-0.570324">
        <ele>297.454</ele>
        <time>2019-06-16T15:07:12Z</time>
      </trkpt>
      <trkpt lat="38.451707" lon="-0.570257">
        <ele>296.746</ele>
        <time>2019-06-16T15:07:13Z</time>
      </trkpt>
      <trkpt lat="38.451635" lon="-0.570201">
        <ele>296.043</ele>
        <time>2019-06-16T15:07:14Z</time>
      </trkpt>
      <trkpt lat="38.451547" lon="-0.570137">
        <ele>295.682</ele>
        <time>2019-06-16T15:07:15Z</time>
      </trkpt>
      <trkpt lat="38.451457" lon="-0.570038">
        <ele>295.527</ele>
        <time>2019-06-16T15:07:16Z</time>
      </trkpt>
      <trkpt lat="38.451378" lon="-0.569978">
        <ele>295.899</ele>
        <time>2019-06-16T15:07:17Z</time>
      </trkpt>
      <trkpt lat="38.451298" lon="-0.569934">
        <ele>295.407</ele>
        <time>2019-06-16T15:07:18Z</time>
      </trkpt>
      <trkpt lat="38.451223" lon="-0.569842">
        <ele>294.627</ele>
        <time>2019-06-16T15:07:19Z</time>
      </trkpt>
      <trkpt lat="38.451122" lon="-0.569782">
        <ele>294.408</ele>
        <time>2019-06-16T15:07:20Z</time>
      </trkpt>
      <trkpt lat="38.451064" lon="-0.569721">
        <ele>294.052</ele>
        <time>2019-06-16T15:07:21Z</time>
      </trkpt>
      <trkpt lat="38.450976" lon="-0.569708">
        <ele>293.986</ele>
        <time>2019-06-16T15:07:22Z</time>
      </trkpt>
      <trkpt lat="38.450925" lon="-0.569656">
        <ele>293.775</ele>
        <time>2019-06-16T15:07:23Z</time>
      </trkpt>
      <trkpt lat="38.450861" lon="-0.569593">
        <ele>293.578</ele>
        <time>2019-06-16T15:07:24Z</time>
      </trkpt>
      <trkpt lat="38.450786" lon="-0.569551">
        <ele>293.630</ele>
        <time>2019-06-16T15:07:25Z</time>
      </trkpt>
      <trkpt lat="38.450717" lon="-0.569501">
        <ele>293.697</ele>
        <time>2019-06-16T15:07:26Z</time>
      </trkpt>
      <trkpt lat="38.450659" lon="-0.569465">
        <ele>293.726</ele>
        <time>2019-06-16T15:07:27Z</time>
      </trkpt>
      <trkpt lat="38.450593" lon="-0.569419">
        <ele>293.731</ele>
        <time>2019-06-16T15:07:28Z</time>
      </trkpt>
      <trkpt lat="38.450535" lon="-0.569390">
        <ele>293.846</ele>
        <time>2019-06-16T15:07:29Z</time>
      </trkpt>
      <trkpt lat="38.450471" lon="-0.569372">
        <ele>294.188</ele>
        <time>2019-06-16T15:07:30Z</time>
      </trkpt>
      <trkpt lat="38.450412" lon="-0.569366">
        <ele>294.516</ele>
        <time>2019-06-16T15:07:31Z</time>
      </trkpt>
      <trkpt lat="38.450356" lon="-0.569321">
        <ele>294.508</ele>
        <time>2019-06-16T15:07:32Z</time>
      </trkpt>
      <trkpt lat="38.450308" lon="-0.569288">
        <ele>294.757</ele>
        <time>2019-06-16T15:07:33Z</time>
      </trkpt>
      <trkpt lat="38.450252" lon="-0.569260">
        <ele>294.631</ele>
        <time>2019-06-16T15:07:34Z</time>
      </trkpt>
      <trkpt lat="38.450203" lon="-0.569248">
        <ele>294.430</ele>
        <time>2019-06-16T15:07:35Z</time>
      </trkpt>
      <trkpt lat="38.450151" lon="-0.569233">
        <ele>294.363</ele>
        <time>2019-06-16T15:07:36Z</time>
      </trkpt>
      <trkpt lat="38.450099" lon="-0.569190">
        <ele>294.125</ele>
        <time>2019-06-16T15:07:37Z</time>
      </trkpt>
      <trkpt lat="38.450049" lon="-0.569163">
        <ele>294.012</ele>
        <time>2019-06-16T15:07:38Z</time>
      </trkpt>
      <trkpt lat="38.449999" lon="-0.569119">
        <ele>293.661</ele>
        <time>2019-06-16T15:07:39Z</time>
      </trkpt>
      <trkpt lat="38.449954" lon="-0.569068">
        <ele>292.936</ele>
        <time>2019-06-16T15:07:40Z</time>
      </trkpt>
      <trkpt lat="38.449894" lon="-0.569050">
        <ele>292.373</ele>
        <time>2019-06-16T15:07:41Z</time>
      </trkpt>
      <trkpt lat="38.449837" lon="-0.569002">
        <ele>291.885</ele>
        <time>2019-06-16T15:07:42Z</time>
      </trkpt>
      <trkpt lat="38.449777" lon="-0.568940">
        <ele>291.313</ele>
        <time>2019-06-16T15:07:43Z</time>
      </trkpt>
      <trkpt lat="38.449718" lon="-0.568887">
        <ele>291.008</ele>
        <time>2019-06-16T15:07:44Z</time>
      </trkpt>
      <trkpt lat="38.449649" lon="-0.568841">
        <ele>291.070</ele>
        <time>2019-06-16T15:07:45Z</time>
      </trkpt>
      <trkpt lat="38.449576" lon="-0.568804">
        <ele>291.074</ele>
        <time>2019-06-16T15:07:46Z</time>
      </trkpt>
      <trkpt lat="38.449511" lon="-0.568751">
        <ele>291.023</ele>
        <time>2019-06-16T15:07:47Z</time>
      </trkpt>
      <trkpt lat="38.449449" lon="-0.568699">
        <ele>291.066</ele>
        <time>2019-06-16T15:07:48Z</time>
      </trkpt>
      <trkpt lat="38.449379" lon="-0.568650">
        <ele>290.658</ele>
        <time>2019-06-16T15:07:49Z</time>
      </trkpt>
      <trkpt lat="38.449305" lon="-0.568604">
        <ele>289.915</ele>
        <time>2019-06-16T15:07:50Z</time>
      </trkpt>
      <trkpt lat="38.449238" lon="-0.568546">
        <ele>289.014</ele>
        <time>2019-06-16T15:07:51Z</time>
      </trkpt>
      <trkpt lat="38.449169" lon="-0.568479">
        <ele>288.159</ele>
        <time>2019-06-16T15:07:52Z</time>
      </trkpt>
      <trkpt lat="38.449071" lon="-0.568454">
        <ele>287.785</ele>
        <time>2019-06-16T15:07:53Z</time>
      </trkpt>
      <trkpt lat="38.449001" lon="-0.568377">
        <ele>286.889</ele>
        <time>2019-06-16T15:07:54Z</time>
      </trkpt>
      <trkpt lat="38.448919" lon="-0.568318">
        <ele>286.017</ele>
        <time>2019-06-16T15:07:55Z</time>
      </trkpt>
      <trkpt lat="38.448860" lon="-0.568265">
        <ele>285.608</ele>
        <time>2019-06-16T15:07:56Z</time>
      </trkpt>
      <trkpt lat="38.448785" lon="-0.568199">
        <ele>285.681</ele>
        <time>2019-06-16T15:07:57Z</time>
      </trkpt>
      <trkpt lat="38.448719" lon="-0.568163">
        <ele>285.885</ele>
        <time>2019-06-16T15:07:58Z</time>
      </trkpt>
      <trkpt lat="38.448659" lon="-0.568102">
        <ele>285.994</ele>
        <time>2019-06-16T15:07:59Z</time>
      </trkpt>
      <trkpt lat="38.448599" lon="-0.568044">
        <ele>286.047</ele>
        <time>2019-06-16T15:08:00Z</time>
      </trkpt>
      <trkpt lat="38.448527" lon="-0.568047">
        <ele>286.259</ele>
        <time>2019-06-16T15:08:01Z</time>
      </trkpt>
      <trkpt lat="38.448463" lon="-0.567995">
        <ele>286.036</ele>
        <time>2019-06-16T15:08:02Z</time>
      </trkpt>
      <trkpt lat="38.448406" lon="-0.567934">
        <ele>285.575</ele>
        <time>2019-06-16T15:08:03Z</time>
      </trkpt>
      <trkpt lat="38.448347" lon="-0.567867">
        <ele>284.960</ele>
        <time>2019-06-16T15:08:04Z</time>
      </trkpt>
      <trkpt lat="38.448270" lon="-0.567822">
        <ele>284.453</ele>
        <time>2019-06-16T15:08:05Z</time>
      </trkpt>
      <trkpt lat="38.448212" lon="-0.567802">
        <ele>284.104</ele>
        <time>2019-06-16T15:08:06Z</time>
      </trkpt>
      <trkpt lat="38.448173" lon="-0.567719">
        <ele>283.614</ele>
        <time>2019-06-16T15:08:07Z</time>
      </trkpt>
      <trkpt lat="38.448130" lon="-0.567688">
        <ele>283.408</ele>
        <time>2019-06-16T15:08:08Z</time>
      </trkpt>
      <trkpt lat="38.448067" lon="-0.567643">
        <ele>283.038</ele>
        <time>2019-06-16T15:08:09Z</time>
      </trkpt>
      <trkpt lat="38.448013" lon="-0.567609">
        <ele>282.862</ele>
        <time>2019-06-16T15:08:10Z</time>
      </trkpt>
      <trkpt lat="38.447953" lon="-0.567567">
        <ele>282.711</ele>
        <time>2019-06-16T15:08:11Z</time>
      </trkpt>
      <trkpt lat="38.447890" lon="-0.567523">
        <ele>282.734</ele>
        <time>2019-06-16T15:08:12Z</time>
      </trkpt>
      <trkpt lat="38.447827" lon="-0.567487">
        <ele>282.856</ele>
        <time>2019-06-16T15:08:13Z</time>
      </trkpt>
      <trkpt lat="38.447766" lon="-0.567449">
        <ele>283.053</ele>
        <time>2019-06-16T15:08:14Z</time>
      </trkpt>
      <trkpt lat="38.447710" lon="-0.567399">
        <ele>283.212</ele>
        <time>2019-06-16T15:08:15Z</time>
      </trkpt>
      <trkpt lat="38.447657" lon="-0.567362">
        <ele>283.437</ele>
        <time>2019-06-16T15:08:16Z</time>
      </trkpt>
      <trkpt lat="38.447606" lon="-0.567329">
        <ele>283.663</ele>
        <time>2019-06-16T15:08:17Z</time>
      </trkpt>
      <trkpt lat="38.447555" lon="-0.567279">
        <ele>283.844</ele>
        <time>2019-06-16T15:08:18Z</time>
      </trkpt>
      <trkpt lat="38.447498" lon="-0.567223">
        <ele>284.018</ele>
        <time>2019-06-16T15:08:19Z</time>
      </trkpt>
      <trkpt lat="38.447445" lon="-0.567201">
        <ele>283.608</ele>
        <time>2019-06-16T15:08:20Z</time>
      </trkpt>
      <trkpt lat="38.447383" lon="-0.567166">
        <ele>283.139</ele>
        <time>2019-06-16T15:08:21Z</time>
      </trkpt>
      <trkpt lat="38.447326" lon="-0.567145">
        <ele>282.723</ele>
        <time>2019-06-16T15:08:22Z</time>
      </trkpt>
      <trkpt lat="38.447274" lon="-0.567100">
        <ele>282.212</ele>
        <time>2019-06-16T15:08:23Z</time>
      </trkpt>
      <trkpt lat="38.447234" lon="-0.567071">
        <ele>281.945</ele>
        <time>2019-06-16T15:08:24Z</time>
      </trkpt>
      <trkpt lat="38.447171" lon="-0.567031">
        <ele>282.027</ele>
        <time>2019-06-16T15:08:25Z</time>
      </trkpt>
      <trkpt lat="38.447104" lon="-0.567004">
        <ele>282.354</ele>
        <time>2019-06-16T15:08:26Z</time>
      </trkpt>
      <trkpt lat="38.447051" lon="-0.566952">
        <ele>282.363</ele>
        <time>2019-06-16T15:08:27Z</time>
      </trkpt>
      <trkpt lat="38.446990" lon="-0.566903">
        <ele>282.258</ele>
        <time>2019-06-16T15:08:28Z</time>
      </trkpt>
      <trkpt lat="38.446922" lon="-0.566869">
        <ele>282.452</ele>
        <time>2019-06-16T15:08:29Z</time>
      </trkpt>
      <trkpt lat="38.446861" lon="-0.566832">
        <ele>282.653</ele>
        <time>2019-06-16T15:08:30Z</time>
      </trkpt>
      <trkpt lat="38.446802" lon="-0.566768">
        <ele>282.808</ele>
        <time>2019-06-16T15:08:31Z</time>
      </trkpt>
      <trkpt lat="38.446723" lon="-0.566712">
        <ele>283.408</ele>
        <time>2019-06-16T15:08:32Z</time>
      </trkpt>
      <trkpt lat="38.446667" lon="-0.566675">
        <ele>284.068</ele>
        <time>2019-06-16T15:08:33Z</time>
      </trkpt>
      <trkpt lat="38.446605" lon="-0.566611">
        <ele>283.192</ele>
        <time>2019-06-16T15:08:34Z</time>
      </trkpt>
      <trkpt lat="38.446554" lon="-0.566550">
        <ele>282.391</ele>
        <time>2019-06-16T15:08:35Z</time>
      </trkpt>
      <trkpt lat="38.446490" lon="-0.566499">
        <ele>281.784</ele>
        <time>2019-06-16T15:08:36Z</time>
      </trkpt>
      <trkpt lat="38.446437" lon="-0.566440">
        <ele>281.396</ele>
        <time>2019-06-16T15:08:37Z</time>
      </trkpt>
      <trkpt lat="38.446378" lon="-0.566398">
        <ele>281.143</ele>
        <time>2019-06-16T15:08:38Z</time>
      </trkpt>
      <trkpt lat="38.446322" lon="-0.566348">
        <ele>280.692</ele>
        <time>2019-06-16T15:08:39Z</time>
      </trkpt>
      <trkpt lat="38.446263" lon="-0.566292">
        <ele>280.177</ele>
        <time>2019-06-16T15:08:40Z</time>
      </trkpt>
      <trkpt lat="38.446215" lon="-0.566243">
        <ele>279.856</ele>
        <time>2019-06-16T15:08:41Z</time>
      </trkpt>
      <trkpt lat="38.446173" lon="-0.566208">
        <ele>279.659</ele>
        <time>2019-06-16T15:08:42Z</time>
      </trkpt>
      <trkpt lat="38.446130" lon="-0.566150">
        <ele>279.214</ele>
        <time>2019-06-16T15:08:43Z</time>
      </trkpt>
      <trkpt lat="38.446090" lon="-0.566118">
        <ele>279.108</ele>
        <time>2019-06-16T15:08:44Z</time>
      </trkpt>
      <trkpt lat="38.446045" lon="-0.566066">
        <ele>279.048</ele>
        <time>2019-06-16T15:08:45Z</time>
      </trkpt>
      <trkpt lat="38.446005" lon="-0.566011">
        <ele>278.842</ele>
        <time>2019-06-16T15:08:46Z</time>
      </trkpt>
      <trkpt lat="38.445961" lon="-0.565980">
        <ele>278.941</ele>
        <time>2019-06-16T15:08:47Z</time>
      </trkpt>
      <trkpt lat="38.445912" lon="-0.565937">
        <ele>278.994</ele>
        <time>2019-06-16T15:08:48Z</time>
      </trkpt>
      <trkpt lat="38.445875" lon="-0.565881">
        <ele>278.926</ele>
        <time>2019-06-16T15:08:49Z</time>
      </trkpt>
      <trkpt lat="38.445825" lon="-0.565836">
        <ele>279.073</ele>
        <time>2019-06-16T15:08:50Z</time>
      </trkpt>
      <trkpt lat="38.445791" lon="-0.565789">
        <ele>278.972</ele>
        <time>2019-06-16T15:08:51Z</time>
      </trkpt>
      <trkpt lat="38.445745" lon="-0.565743">
        <ele>278.837</ele>
        <time>2019-06-16T15:08:52Z</time>
      </trkpt>
      <trkpt lat="38.445705" lon="-0.565693">
        <ele>278.771</ele>
        <time>2019-06-16T15:08:53Z</time>
      </trkpt>
      <trkpt lat="38.445654" lon="-0.565648">
        <ele>278.841</ele>
        <time>2019-06-16T15:08:54Z</time>
      </trkpt>
      <trkpt lat="38.445609" lon="-0.565602">
        <ele>278.815</ele>
        <time>2019-06-16T15:08:55Z</time>
      </trkpt>
      <trkpt lat="38.445566" lon="-0.565540">
        <ele>278.908</ele>
        <time>2019-06-16T15:08:56Z</time>
      </trkpt>
      <trkpt lat="38.445525" lon="-0.565470">
        <ele>278.570</ele>
        <time>2019-06-16T15:08:57Z</time>
      </trkpt>
      <trkpt lat="38.445488" lon="-0.565423">
        <ele>278.214</ele>
        <time>2019-06-16T15:08:58Z</time>
      </trkpt>
      <trkpt lat="38.445462" lon="-0.565346">
        <ele>277.743</ele>
        <time>2019-06-16T15:08:59Z</time>
      </trkpt>
      <trkpt lat="38.445432" lon="-0.565266">
        <ele>277.166</ele>
        <time>2019-06-16T15:09:00Z</time>
      </trkpt>
      <trkpt lat="38.445398" lon="-0.565203">
        <ele>276.938</ele>
        <time>2019-06-16T15:09:01Z</time>
      </trkpt>
      <trkpt lat="38.445381" lon="-0.565123">
        <ele>276.715</ele>
        <time>2019-06-16T15:09:02Z</time>
      </trkpt>
      <trkpt lat="38.445353" lon="-0.565050">
        <ele>276.564</ele>
        <time>2019-06-16T15:09:03Z</time>
      </trkpt>
      <trkpt lat="38.445326" lon="-0.564980">
        <ele>276.379</ele>
        <time>2019-06-16T15:09:04Z</time>
      </trkpt>
      <trkpt lat="38.445305" lon="-0.564908">
        <ele>275.945</ele>
        <time>2019-06-16T15:09:05Z</time>
      </trkpt>
      <trkpt lat="38.445277" lon="-0.564844">
        <ele>275.447</ele>
        <time>2019-06-16T15:09:06Z</time>
      </trkpt>
      <trkpt lat="38.445256" lon="-0.564791">
        <ele>274.911</ele>
        <time>2019-06-16T15:09:07Z</time>
      </trkpt>
      <trkpt lat="38.445230" lon="-0.564733">
        <ele>274.408</ele>
        <time>2019-06-16T15:09:08Z</time>
      </trkpt>
      <trkpt lat="38.445220" lon="-0.564657">
        <ele>274.047</ele>
        <time>2019-06-16T15:09:09Z</time>
      </trkpt>
      <trkpt lat="38.445212" lon="-0.564557">
        <ele>273.691</ele>
        <time>2019-06-16T15:09:10Z</time>
      </trkpt>
      <trkpt lat="38.445194" lon="-0.564449">
        <ele>273.140</ele>
        <time>2019-06-16T15:09:11Z</time>
      </trkpt>
      <trkpt lat="38.445189" lon="-0.564345">
        <ele>272.823</ele>
        <time>2019-06-16T15:09:12Z</time>
      </trkpt>
      <trkpt lat="38.445172" lon="-0.564231">
        <ele>272.475</ele>
        <time>2019-06-16T15:09:13Z</time>
      </trkpt>
      <trkpt lat="38.445150" lon="-0.564136">
        <ele>272.022</ele>
        <time>2019-06-16T15:09:14Z</time>
      </trkpt>
      <trkpt lat="38.445140" lon="-0.564017">
        <ele>271.561</ele>
        <time>2019-06-16T15:09:15Z</time>
      </trkpt>
      <trkpt lat="38.445094" lon="-0.563903">
        <ele>270.766</ele>
        <time>2019-06-16T15:09:16Z</time>
      </trkpt>
      <trkpt lat="38.445077" lon="-0.563797">
        <ele>270.187</ele>
        <time>2019-06-16T15:09:17Z</time>
      </trkpt>
      <trkpt lat="38.445063" lon="-0.563670">
        <ele>269.542</ele>
        <time>2019-06-16T15:09:18Z</time>
      </trkpt>
      <trkpt lat="38.445048" lon="-0.563580">
        <ele>269.026</ele>
        <time>2019-06-16T15:09:19Z</time>
      </trkpt>
      <trkpt lat="38.445053" lon="-0.563515">
        <ele>268.808</ele>
        <time>2019-06-16T15:09:20Z</time>
      </trkpt>
      <trkpt lat="38.445050" lon="-0.563450">
        <ele>268.561</ele>
        <time>2019-06-16T15:09:21Z</time>
      </trkpt>
      <trkpt lat="38.445041" lon="-0.563365">
        <ele>268.195</ele>
        <time>2019-06-16T15:09:22Z</time>
      </trkpt>
      <trkpt lat="38.445021" lon="-0.563291">
        <ele>268.124</ele>
        <time>2019-06-16T15:09:23Z</time>
      </trkpt>
      <trkpt lat="38.445008" lon="-0.563207">
        <ele>268.447</ele>
        <time>2019-06-16T15:09:24Z</time>
      </trkpt>
      <trkpt lat="38.444971" lon="-0.563134">
        <ele>268.759</ele>
        <time>2019-06-16T15:09:25Z</time>
      </trkpt>
      <trkpt lat="38.444941" lon="-0.563083">
        <ele>268.916</ele>
        <time>2019-06-16T15:09:26Z</time>
      </trkpt>
      <trkpt lat="38.444885" lon="-0.563044">
        <ele>269.025</ele>
        <time>2019-06-16T15:09:27Z</time>
      </trkpt>
      <trkpt lat="38.444812" lon="-0.562977">
        <ele>268.840</ele>
        <time>2019-06-16T15:09:29Z</time>
      </trkpt>
      <trkpt lat="38.444761" lon="-0.562881">
        <ele>268.591</ele>
        <time>2019-06-16T15:09:31Z</time>
      </trkpt>
      <trkpt lat="38.444698" lon="-0.562818">
        <ele>268.081</ele>
        <time>2019-06-16T15:09:33Z</time>
      </trkpt>
      <trkpt lat="38.444654" lon="-0.562788">
        <ele>267.519</ele>
        <time>2019-06-16T15:09:34Z</time>
      </trkpt>
      <trkpt lat="38.444601" lon="-0.562762">
        <ele>267.008</ele>
        <time>2019-06-16T15:09:35Z</time>
      </trkpt>
      <trkpt lat="38.444549" lon="-0.562730">
        <ele>266.592</ele>
        <time>2019-06-16T15:09:36Z</time>
      </trkpt>
      <trkpt lat="38.412610" lon="-0.474760">
        <ele>88.116</ele>
        <time>2019-06-16T17:26:20Z</time>
      </trkpt>
    </trkseg>
  </trk>
</gpx>
